<?xml version="1.0" encoding="UTF-8"?>
<gpx creator="Garmin Connect" version="1.1"
  xsi:schemaLocation="http://www.topografix.com/GPX/1/1 http://www.topografix.com/GPX/11.xsd"
  xmlns:ns3="http://www.garmin.com/xmlschemas/TrackPointExtension/v1"
  xmlns="http://www.topografix.com/GPX/1/1"
  xmlns:xsi="http://www.w3.org/2001/XMLSchema-instance" xmlns:ns2="http://www.garmin.com/xmlschemas/GpxExtensions/v3">
  <metadata>
    <link href="connect.garmin.com">
      <text>Garmin Connect</text>
    </link>
    <time>2026-08-05T06:06:01.000Z</time>
  </metadata>
  <trk>
    <name>Clermont-le-Fort Course à pied</name>
    <type>running</type>
    <trkseg>
      <trkpt lat="43.45827204175293445587158203125" lon="1.43245962448418140411376953125">
        <ele>227.8000030517578125</ele>
        <time>2026-08-05T06:06:15.000Z</time>
        <extensions>
          <ns3:TrackPointExtension>
            <ns3:hr>85</ns3:hr>
            <ns3:cad>0</ns3:cad>
          </ns3:TrackPointExtension>
        </extensions>
      </trkpt>
      <trkpt lat="43.45827707089483737945556640625" lon="1.43246867693960666656494140625">
        <ele>228</ele>
        <time>2026-08-05T06:06:16.000Z</time>
        <extensions>
          <ns3:TrackPointExtension>
            <ns3:hr>87</ns3:hr>
            <ns3:cad>0</ns3:cad>
          </ns3:TrackPointExtension>
        </extensions>
      </trkpt>
      <trkpt lat="43.45826751552522182464599609375" lon="1.43250002525746822357177734375">
        <ele>228.1999969482421875</ele>
        <time>2026-08-05T06:06:17.000Z</time>
        <extensions>
          <ns3:TrackPointExtension>
            <ns3:hr>89</ns3:hr>
            <ns3:cad>49</ns3:cad>
          </ns3:TrackPointExtension>
        </extensions>
      </trkpt>
      <trkpt lat="43.45826114527881145477294921875" lon="1.43246985040605068206787109375">
        <ele>228.399993896484375</ele>
        <time>2026-08-05T06:06:18.000Z</time>
        <extensions>
          <ns3:TrackPointExtension>
            <ns3:hr>90</ns3:hr>
            <ns3:cad>49</ns3:cad>
          </ns3:TrackPointExtension>
        </extensions>
      </trkpt>
      <trkpt lat="43.4582567028701305389404296875" lon="1.43249432556331157684326171875">
        <ele>228.399993896484375</ele>
        <time>2026-08-05T06:06:19.000Z</time>
        <extensions>
          <ns3:TrackPointExtension>
            <ns3:hr>90</ns3:hr>
            <ns3:cad>49</ns3:cad>
          </ns3:TrackPointExtension>
        </extensions>
      </trkpt>
      <trkpt lat="43.458244465291500091552734375" lon="1.43250622786581516265869140625">
        <ele>228.600006103515625</ele>
        <time>2026-08-05T06:06:20.000Z</time>
        <extensions>
          <ns3:TrackPointExtension>
            <ns3:hr>91</ns3:hr>
            <ns3:cad>0</ns3:cad>
          </ns3:TrackPointExtension>
        </extensions>
      </trkpt>
      <trkpt lat="43.4582372568547725677490234375" lon="1.432514190673828125">
        <ele>228.8000030517578125</ele>
        <time>2026-08-05T06:06:21.000Z</time>
        <extensions>
          <ns3:TrackPointExtension>
            <ns3:hr>93</ns3:hr>
            <ns3:cad>0</ns3:cad>
          </ns3:TrackPointExtension>
        </extensions>
      </trkpt>
      <trkpt lat="43.4582288749516010284423828125" lon="1.43251209519803524017333984375">
        <ele>229</ele>
        <time>2026-08-05T06:06:22.000Z</time>
        <extensions>
          <ns3:TrackPointExtension>
            <ns3:hr>94</ns3:hr>
            <ns3:cad>0</ns3:cad>
          </ns3:TrackPointExtension>
        </extensions>
      </trkpt>
      <trkpt lat="43.45822376199066638946533203125" lon="1.432501114904880523681640625">
        <ele>229.1999969482421875</ele>
        <time>2026-08-05T06:06:23.000Z</time>
        <extensions>
          <ns3:TrackPointExtension>
            <ns3:hr>95</ns3:hr>
            <ns3:cad>0</ns3:cad>
          </ns3:TrackPointExtension>
        </extensions>
      </trkpt>
      <trkpt lat="43.4582258574664592742919921875" lon="1.4324932359158992767333984375">
        <ele>229.399993896484375</ele>
        <time>2026-08-05T06:06:24.000Z</time>
        <extensions>
          <ns3:TrackPointExtension>
            <ns3:hr>95</ns3:hr>
            <ns3:cad>0</ns3:cad>
          </ns3:TrackPointExtension>
        </extensions>
      </trkpt>
      <trkpt lat="43.45822895877063274383544921875" lon="1.43247437663376331329345703125">
        <ele>229.600006103515625</ele>
        <time>2026-08-05T06:06:25.000Z</time>
        <extensions>
          <ns3:TrackPointExtension>
            <ns3:hr>95</ns3:hr>
            <ns3:cad>0</ns3:cad>
          </ns3:TrackPointExtension>
        </extensions>
      </trkpt>
      <trkpt lat="43.458229713141918182373046875" lon="1.43246599473059177398681640625">
        <ele>229.8000030517578125</ele>
        <time>2026-08-05T06:06:26.000Z</time>
        <extensions>
          <ns3:TrackPointExtension>
            <ns3:hr>96</ns3:hr>
            <ns3:cad>42</ns3:cad>
          </ns3:TrackPointExtension>
        </extensions>
      </trkpt>
      <trkpt lat="43.45822895877063274383544921875" lon="1.43246498890221118927001953125">
        <ele>230.1999969482421875</ele>
        <time>2026-08-05T06:06:27.000Z</time>
        <extensions>
          <ns3:TrackPointExtension>
            <ns3:hr>96</ns3:hr>
            <ns3:cad>42</ns3:cad>
          </ns3:TrackPointExtension>
        </extensions>
      </trkpt>
      <trkpt lat="43.45823046751320362091064453125" lon="1.4324556849896907806396484375">
        <ele>230.399993896484375</ele>
        <time>2026-08-05T06:06:28.000Z</time>
        <extensions>
          <ns3:TrackPointExtension>
            <ns3:hr>96</ns3:hr>
            <ns3:cad>42</ns3:cad>
          </ns3:TrackPointExtension>
        </extensions>
      </trkpt>
      <trkpt lat="43.45822962932288646697998046875" lon="1.432452164590358734130859375">
        <ele>230.600006103515625</ele>
        <time>2026-08-05T06:06:29.000Z</time>
        <extensions>
          <ns3:TrackPointExtension>
            <ns3:hr>97</ns3:hr>
            <ns3:cad>42</ns3:cad>
          </ns3:TrackPointExtension>
        </extensions>
      </trkpt>
      <trkpt lat="43.45822812058031558990478515625" lon="1.4324503205716609954833984375">
        <ele>230.8000030517578125</ele>
        <time>2026-08-05T06:06:30.000Z</time>
        <extensions>
          <ns3:TrackPointExtension>
            <ns3:hr>98</ns3:hr>
            <ns3:cad>0</ns3:cad>
          </ns3:TrackPointExtension>
        </extensions>
      </trkpt>
      <trkpt lat="43.45822577364742755889892578125" lon="1.4324553497135639190673828125">
        <ele>230.8000030517578125</ele>
        <time>2026-08-05T06:06:31.000Z</time>
        <extensions>
          <ns3:TrackPointExtension>
            <ns3:hr>99</ns3:hr>
            <ns3:cad>0</ns3:cad>
          </ns3:TrackPointExtension>
        </extensions>
      </trkpt>
      <trkpt lat="43.458220995962619781494140625" lon="1.4324704371392726898193359375">
        <ele>231</ele>
        <time>2026-08-05T06:06:32.000Z</time>
        <extensions>
          <ns3:TrackPointExtension>
            <ns3:hr>100</ns3:hr>
            <ns3:cad>41</ns3:cad>
          </ns3:TrackPointExtension>
        </extensions>
      </trkpt>
      <trkpt lat="43.45821185968816280364990234375" lon="1.43247999250888824462890625">
        <ele>231</ele>
        <time>2026-08-05T06:06:33.000Z</time>
        <extensions>
          <ns3:TrackPointExtension>
            <ns3:hr>101</ns3:hr>
            <ns3:cad>41</ns3:cad>
          </ns3:TrackPointExtension>
        </extensions>
      </trkpt>
      <trkpt lat="43.458208255469799041748046875" lon="1.432478316128253936767578125">
        <ele>231.1999969482421875</ele>
        <time>2026-08-05T06:06:34.000Z</time>
        <extensions>
          <ns3:TrackPointExtension>
            <ns3:hr>102</ns3:hr>
            <ns3:cad>42</ns3:cad>
          </ns3:TrackPointExtension>
        </extensions>
      </trkpt>
      <trkpt lat="43.45819987356662750244140625" lon="1.4324751310050487518310546875">
        <ele>231.399993896484375</ele>
        <time>2026-08-05T06:06:35.000Z</time>
        <extensions>
          <ns3:TrackPointExtension>
            <ns3:hr>102</ns3:hr>
            <ns3:cad>43</ns3:cad>
          </ns3:TrackPointExtension>
        </extensions>
      </trkpt>
      <trkpt lat="43.45818906091153621673583984375" lon="1.43246389925479888916015625">
        <ele>231.600006103515625</ele>
        <time>2026-08-05T06:06:36.000Z</time>
        <extensions>
          <ns3:TrackPointExtension>
            <ns3:hr>103</ns3:hr>
            <ns3:cad>45</ns3:cad>
          </ns3:TrackPointExtension>
        </extensions>
      </trkpt>
      <trkpt lat="43.45817933790385723114013671875" lon="1.4324556849896907806396484375">
        <ele>231.8000030517578125</ele>
        <time>2026-08-05T06:06:37.000Z</time>
        <extensions>
          <ns3:TrackPointExtension>
            <ns3:hr>103</ns3:hr>
            <ns3:cad>46</ns3:cad>
          </ns3:TrackPointExtension>
        </extensions>
      </trkpt>
      <trkpt lat="43.4581675194203853607177734375" lon="1.432450152933597564697265625">
        <ele>231.8000030517578125</ele>
        <time>2026-08-05T06:06:38.000Z</time>
        <extensions>
          <ns3:TrackPointExtension>
            <ns3:hr>103</ns3:hr>
            <ns3:cad>46</ns3:cad>
          </ns3:TrackPointExtension>
        </extensions>
      </trkpt>
      <trkpt lat="43.45815838314592838287353515625" lon="1.4324473030865192413330078125">
        <ele>232</ele>
        <time>2026-08-05T06:06:39.000Z</time>
        <extensions>
          <ns3:TrackPointExtension>
            <ns3:hr>105</ns3:hr>
            <ns3:cad>44</ns3:cad>
          </ns3:TrackPointExtension>
        </extensions>
      </trkpt>
      <trkpt lat="43.45815100707113742828369140625" lon="1.43244168721139430999755859375">
        <ele>232.1999969482421875</ele>
        <time>2026-08-05T06:06:40.000Z</time>
        <extensions>
          <ns3:TrackPointExtension>
            <ns3:hr>106</ns3:hr>
            <ns3:cad>44</ns3:cad>
          </ns3:TrackPointExtension>
        </extensions>
      </trkpt>
      <trkpt lat="43.4581443853676319122314453125" lon="1.43243816681206226348876953125">
        <ele>232.1999969482421875</ele>
        <time>2026-08-05T06:06:41.000Z</time>
        <extensions>
          <ns3:TrackPointExtension>
            <ns3:hr>107</ns3:hr>
            <ns3:cad>44</ns3:cad>
          </ns3:TrackPointExtension>
        </extensions>
      </trkpt>
      <trkpt lat="43.45813642255961894989013671875" lon="1.432441771030426025390625">
        <ele>232.1999969482421875</ele>
        <time>2026-08-05T06:06:42.000Z</time>
        <extensions>
          <ns3:TrackPointExtension>
            <ns3:hr>108</ns3:hr>
            <ns3:cad>44</ns3:cad>
          </ns3:TrackPointExtension>
        </extensions>
      </trkpt>
      <trkpt lat="43.45812871120870113372802734375" lon="1.43243950791656970977783203125">
        <ele>232.1999969482421875</ele>
        <time>2026-08-05T06:06:43.000Z</time>
        <extensions>
          <ns3:TrackPointExtension>
            <ns3:hr>109</ns3:hr>
            <ns3:cad>44</ns3:cad>
          </ns3:TrackPointExtension>
        </extensions>
      </trkpt>
      <trkpt lat="43.45811965875327587127685546875" lon="1.43243649043142795562744140625">
        <ele>232.1999969482421875</ele>
        <time>2026-08-05T06:06:44.000Z</time>
        <extensions>
          <ns3:TrackPointExtension>
            <ns3:hr>110</ns3:hr>
            <ns3:cad>44</ns3:cad>
          </ns3:TrackPointExtension>
        </extensions>
      </trkpt>
      <trkpt lat="43.458109684288501739501953125" lon="1.4324338920414447784423828125">
        <ele>232.1999969482421875</ele>
        <time>2026-08-05T06:06:45.000Z</time>
        <extensions>
          <ns3:TrackPointExtension>
            <ns3:hr>110</ns3:hr>
            <ns3:cad>44</ns3:cad>
          </ns3:TrackPointExtension>
        </extensions>
      </trkpt>
      <trkpt lat="43.4581028111279010772705078125" lon="1.43243129365146160125732421875">
        <ele>232.1999969482421875</ele>
        <time>2026-08-05T06:06:46.000Z</time>
        <extensions>
          <ns3:TrackPointExtension>
            <ns3:hr>111</ns3:hr>
            <ns3:cad>44</ns3:cad>
          </ns3:TrackPointExtension>
        </extensions>
      </trkpt>
      <trkpt lat="43.45809166319668292999267578125" lon="1.432428024709224700927734375">
        <ele>232.1999969482421875</ele>
        <time>2026-08-05T06:06:47.000Z</time>
        <extensions>
          <ns3:TrackPointExtension>
            <ns3:hr>112</ns3:hr>
            <ns3:cad>44</ns3:cad>
          </ns3:TrackPointExtension>
        </extensions>
      </trkpt>
      <trkpt lat="43.45808395184576511383056640625" lon="1.4324268512427806854248046875">
        <ele>232.1999969482421875</ele>
        <time>2026-08-05T06:06:48.000Z</time>
        <extensions>
          <ns3:TrackPointExtension>
            <ns3:hr>113</ns3:hr>
            <ns3:cad>44</ns3:cad>
          </ns3:TrackPointExtension>
        </extensions>
      </trkpt>
      <trkpt lat="43.45807246863842010498046875" lon="1.4324245043098926544189453125">
        <ele>232.1999969482421875</ele>
        <time>2026-08-05T06:06:49.000Z</time>
        <extensions>
          <ns3:TrackPointExtension>
            <ns3:hr>113</ns3:hr>
            <ns3:cad>42</ns3:cad>
          </ns3:TrackPointExtension>
        </extensions>
      </trkpt>
      <trkpt lat="43.45806065015494823455810546875" lon="1.43242090009152889251708984375">
        <ele>232.1999969482421875</ele>
        <time>2026-08-05T06:06:50.000Z</time>
        <extensions>
          <ns3:TrackPointExtension>
            <ns3:hr>114</ns3:hr>
            <ns3:cad>41</ns3:cad>
          </ns3:TrackPointExtension>
        </extensions>
      </trkpt>
      <trkpt lat="43.45804858021438121795654296875" lon="1.4324221573770046234130859375">
        <ele>232.1999969482421875</ele>
        <time>2026-08-05T06:06:51.000Z</time>
        <extensions>
          <ns3:TrackPointExtension>
            <ns3:hr>115</ns3:hr>
            <ns3:cad>0</ns3:cad>
          </ns3:TrackPointExtension>
        </extensions>
      </trkpt>
      <trkpt lat="43.45803567208349704742431640625" lon="1.43242475576698780059814453125">
        <ele>232.399993896484375</ele>
        <time>2026-08-05T06:06:52.000Z</time>
        <extensions>
          <ns3:TrackPointExtension>
            <ns3:hr>116</ns3:hr>
            <ns3:cad>0</ns3:cad>
          </ns3:TrackPointExtension>
        </extensions>
      </trkpt>
      <trkpt lat="43.45802427269518375396728515625" lon="1.43242777325212955474853515625">
        <ele>232.399993896484375</ele>
        <time>2026-08-05T06:06:53.000Z</time>
        <extensions>
          <ns3:TrackPointExtension>
            <ns3:hr>116</ns3:hr>
            <ns3:cad>43</ns3:cad>
          </ns3:TrackPointExtension>
        </extensions>
      </trkpt>
      <trkpt lat="43.45801320858299732208251953125" lon="1.4324268512427806854248046875">
        <ele>232.399993896484375</ele>
        <time>2026-08-05T06:06:54.000Z</time>
        <extensions>
          <ns3:TrackPointExtension>
            <ns3:hr>116</ns3:hr>
            <ns3:cad>43</ns3:cad>
          </ns3:TrackPointExtension>
        </extensions>
      </trkpt>
      <trkpt lat="43.45800315029919147491455078125" lon="1.43242525868117809295654296875">
        <ele>232.600006103515625</ele>
        <time>2026-08-05T06:06:55.000Z</time>
        <extensions>
          <ns3:TrackPointExtension>
            <ns3:hr>116</ns3:hr>
            <ns3:cad>43</ns3:cad>
          </ns3:TrackPointExtension>
        </extensions>
      </trkpt>
      <trkpt lat="43.45799334347248077392578125" lon="1.4324234984815120697021484375">
        <ele>232.600006103515625</ele>
        <time>2026-08-05T06:06:56.000Z</time>
        <extensions>
          <ns3:TrackPointExtension>
            <ns3:hr>114</ns3:hr>
            <ns3:cad>43</ns3:cad>
          </ns3:TrackPointExtension>
        </extensions>
      </trkpt>
      <trkpt lat="43.45798772759735584259033203125" lon="1.43242341466248035430908203125">
        <ele>232.600006103515625</ele>
        <time>2026-08-05T06:06:57.000Z</time>
        <extensions>
          <ns3:TrackPointExtension>
            <ns3:hr>112</ns3:hr>
            <ns3:cad>43</ns3:cad>
          </ns3:TrackPointExtension>
        </extensions>
      </trkpt>
      <trkpt lat="43.45798219554126262664794921875" lon="1.43242442049086093902587890625">
        <ele>232.8000030517578125</ele>
        <time>2026-08-05T06:06:58.000Z</time>
        <extensions>
          <ns3:TrackPointExtension>
            <ns3:hr>112</ns3:hr>
            <ns3:cad>43</ns3:cad>
          </ns3:TrackPointExtension>
        </extensions>
      </trkpt>
      <trkpt lat="43.457975573837757110595703125" lon="1.43242492340505123138427734375">
        <ele>232.8000030517578125</ele>
        <time>2026-08-05T06:06:59.000Z</time>
        <extensions>
          <ns3:TrackPointExtension>
            <ns3:hr>111</ns3:hr>
            <ns3:cad>43</ns3:cad>
          </ns3:TrackPointExtension>
        </extensions>
      </trkpt>
      <trkpt lat="43.4579670242965221405029296875" lon="1.43242794089019298553466796875">
        <ele>232.8000030517578125</ele>
        <time>2026-08-05T06:07:00.000Z</time>
        <extensions>
          <ns3:TrackPointExtension>
            <ns3:hr>110</ns3:hr>
            <ns3:cad>0</ns3:cad>
          </ns3:TrackPointExtension>
        </extensions>
      </trkpt>
      <trkpt lat="43.457962833344936370849609375" lon="1.432427354156970977783203125">
        <ele>232.8000030517578125</ele>
        <time>2026-08-05T06:07:01.000Z</time>
        <extensions>
          <ns3:TrackPointExtension>
            <ns3:hr>110</ns3:hr>
            <ns3:cad>0</ns3:cad>
          </ns3:TrackPointExtension>
        </extensions>
      </trkpt>
      <trkpt lat="43.4579526074230670928955078125" lon="1.43243397586047649383544921875">
        <ele>232.8000030517578125</ele>
        <time>2026-08-05T06:07:02.000Z</time>
        <extensions>
          <ns3:TrackPointExtension>
            <ns3:hr>110</ns3:hr>
            <ns3:cad>0</ns3:cad>
          </ns3:TrackPointExtension>
        </extensions>
      </trkpt>
      <trkpt lat="43.45794481225311756134033203125" lon="1.432435400784015655517578125">
        <ele>232.8000030517578125</ele>
        <time>2026-08-05T06:07:03.000Z</time>
        <extensions>
          <ns3:TrackPointExtension>
            <ns3:hr>110</ns3:hr>
            <ns3:cad>41</ns3:cad>
          </ns3:TrackPointExtension>
        </extensions>
      </trkpt>
      <trkpt lat="43.45793961547315120697021484375" lon="1.43243883736431598663330078125">
        <ele>232.8000030517578125</ele>
        <time>2026-08-05T06:07:04.000Z</time>
        <extensions>
          <ns3:TrackPointExtension>
            <ns3:hr>110</ns3:hr>
            <ns3:cad>41</ns3:cad>
          </ns3:TrackPointExtension>
        </extensions>
      </trkpt>
      <trkpt lat="43.45793391577899456024169921875" lon="1.432443447411060333251953125">
        <ele>232.8000030517578125</ele>
        <time>2026-08-05T06:07:05.000Z</time>
        <extensions>
          <ns3:TrackPointExtension>
            <ns3:hr>110</ns3:hr>
            <ns3:cad>41</ns3:cad>
          </ns3:TrackPointExtension>
        </extensions>
      </trkpt>
      <trkpt lat="43.4579274617135524749755859375" lon="1.43245124258100986480712890625">
        <ele>232.8000030517578125</ele>
        <time>2026-08-05T06:07:06.000Z</time>
        <extensions>
          <ns3:TrackPointExtension>
            <ns3:hr>110</ns3:hr>
            <ns3:cad>41</ns3:cad>
          </ns3:TrackPointExtension>
        </extensions>
      </trkpt>
      <trkpt lat="43.45791958272457122802734375" lon="1.43245275132358074188232421875">
        <ele>232.8000030517578125</ele>
        <time>2026-08-05T06:07:07.000Z</time>
        <extensions>
          <ns3:TrackPointExtension>
            <ns3:hr>110</ns3:hr>
            <ns3:cad>43</ns3:cad>
          </ns3:TrackPointExtension>
        </extensions>
      </trkpt>
      <trkpt lat="43.45791547559201717376708984375" lon="1.43245208077132701873779296875">
        <ele>232.600006103515625</ele>
        <time>2026-08-05T06:07:08.000Z</time>
        <extensions>
          <ns3:TrackPointExtension>
            <ns3:hr>110</ns3:hr>
            <ns3:cad>43</ns3:cad>
          </ns3:TrackPointExtension>
        </extensions>
      </trkpt>
      <trkpt lat="43.45790659077465534210205078125" lon="1.43245375715196132659912109375">
        <ele>232.600006103515625</ele>
        <time>2026-08-05T06:07:09.000Z</time>
        <extensions>
          <ns3:TrackPointExtension>
            <ns3:hr>110</ns3:hr>
            <ns3:cad>43</ns3:cad>
          </ns3:TrackPointExtension>
        </extensions>
      </trkpt>
      <trkpt lat="43.45789837650954723358154296875" lon="1.43245526589453220367431640625">
        <ele>232.600006103515625</ele>
        <time>2026-08-05T06:07:10.000Z</time>
        <extensions>
          <ns3:TrackPointExtension>
            <ns3:hr>110</ns3:hr>
            <ns3:cad>44</ns3:cad>
          </ns3:TrackPointExtension>
        </extensions>
      </trkpt>
      <trkpt lat="43.45788873732089996337890625" lon="1.43245627172291278839111328125">
        <ele>232.399993896484375</ele>
        <time>2026-08-05T06:07:11.000Z</time>
        <extensions>
          <ns3:TrackPointExtension>
            <ns3:hr>110</ns3:hr>
            <ns3:cad>45</ns3:cad>
          </ns3:TrackPointExtension>
        </extensions>
      </trkpt>
      <trkpt lat="43.45788077451288700103759765625" lon="1.43245518207550048828125">
        <ele>232.399993896484375</ele>
        <time>2026-08-05T06:07:12.000Z</time>
        <extensions>
          <ns3:TrackPointExtension>
            <ns3:hr>110</ns3:hr>
            <ns3:cad>45</ns3:cad>
          </ns3:TrackPointExtension>
        </extensions>
      </trkpt>
      <trkpt lat="43.45787725411355495452880859375" lon="1.43245057202875614166259765625">
        <ele>232.399993896484375</ele>
        <time>2026-08-05T06:07:13.000Z</time>
        <extensions>
          <ns3:TrackPointExtension>
            <ns3:hr>110</ns3:hr>
            <ns3:cad>45</ns3:cad>
          </ns3:TrackPointExtension>
        </extensions>
      </trkpt>
      <trkpt lat="43.45787256024777889251708984375" lon="1.432450823485851287841796875">
        <ele>232.399993896484375</ele>
        <time>2026-08-05T06:07:14.000Z</time>
        <extensions>
          <ns3:TrackPointExtension>
            <ns3:hr>110</ns3:hr>
            <ns3:cad>45</ns3:cad>
          </ns3:TrackPointExtension>
        </extensions>
      </trkpt>
      <trkpt lat="43.4578687883913516998291015625" lon="1.4324499852955341339111328125">
        <ele>232.399993896484375</ele>
        <time>2026-08-05T06:07:15.000Z</time>
        <extensions>
          <ns3:TrackPointExtension>
            <ns3:hr>110</ns3:hr>
            <ns3:cad>0</ns3:cad>
          </ns3:TrackPointExtension>
        </extensions>
      </trkpt>
      <trkpt lat="43.45787071622908115386962890625" lon="1.4324509911239147186279296875">
        <ele>232.1999969482421875</ele>
        <time>2026-08-05T06:07:16.000Z</time>
        <extensions>
          <ns3:TrackPointExtension>
            <ns3:hr>110</ns3:hr>
            <ns3:cad>0</ns3:cad>
          </ns3:TrackPointExtension>
        </extensions>
      </trkpt>
      <trkpt lat="43.45787071622908115386962890625" lon="1.4324509911239147186279296875">
        <ele>232.1999969482421875</ele>
        <time>2026-08-05T06:07:17.000Z</time>
        <extensions>
          <ns3:TrackPointExtension>
            <ns3:hr>110</ns3:hr>
            <ns3:cad>0</ns3:cad>
          </ns3:TrackPointExtension>
        </extensions>
      </trkpt>
      <trkpt lat="43.45787054859101772308349609375" lon="1.432451494038105010986328125">
        <ele>232.1999969482421875</ele>
        <time>2026-08-05T06:07:18.000Z</time>
        <extensions>
          <ns3:TrackPointExtension>
            <ns3:hr>110</ns3:hr>
            <ns3:cad>0</ns3:cad>
          </ns3:TrackPointExtension>
        </extensions>
      </trkpt>
      <trkpt lat="43.4578684531152248382568359375" lon="1.4324511587619781494140625">
        <ele>232.1999969482421875</ele>
        <time>2026-08-05T06:07:19.000Z</time>
        <extensions>
          <ns3:TrackPointExtension>
            <ns3:hr>110</ns3:hr>
            <ns3:cad>0</ns3:cad>
          </ns3:TrackPointExtension>
        </extensions>
      </trkpt>
      <trkpt lat="43.45786216668784618377685546875" lon="1.4324503205716609954833984375">
        <ele>232.1999969482421875</ele>
        <time>2026-08-05T06:07:20.000Z</time>
        <extensions>
          <ns3:TrackPointExtension>
            <ns3:hr>109</ns3:hr>
            <ns3:cad>0</ns3:cad>
          </ns3:TrackPointExtension>
        </extensions>
      </trkpt>
      <trkpt lat="43.457858227193355560302734375" lon="1.43245006911456584930419921875">
        <ele>232.1999969482421875</ele>
        <time>2026-08-05T06:07:21.000Z</time>
        <extensions>
          <ns3:TrackPointExtension>
            <ns3:hr>109</ns3:hr>
            <ns3:cad>0</ns3:cad>
          </ns3:TrackPointExtension>
        </extensions>
      </trkpt>
      <trkpt lat="43.45784909091889858245849609375" lon="1.43244956620037555694580078125">
        <ele>232</ele>
        <time>2026-08-05T06:07:22.000Z</time>
        <extensions>
          <ns3:TrackPointExtension>
            <ns3:hr>109</ns3:hr>
            <ns3:cad>0</ns3:cad>
          </ns3:TrackPointExtension>
        </extensions>
      </trkpt>
      <trkpt lat="43.457836769521236419677734375" lon="1.4324486441910266876220703125">
        <ele>232</ele>
        <time>2026-08-05T06:07:23.000Z</time>
        <extensions>
          <ns3:TrackPointExtension>
            <ns3:hr>108</ns3:hr>
            <ns3:cad>41</ns3:cad>
          </ns3:TrackPointExtension>
        </extensions>
      </trkpt>
      <trkpt lat="43.45782302320003509521484375" lon="1.4324496500194072723388671875">
        <ele>231.8000030517578125</ele>
        <time>2026-08-05T06:07:24.000Z</time>
        <extensions>
          <ns3:TrackPointExtension>
            <ns3:hr>108</ns3:hr>
            <ns3:cad>41</ns3:cad>
          </ns3:TrackPointExtension>
        </extensions>
      </trkpt>
      <trkpt lat="43.45781137235462665557861328125" lon="1.43244721926748752593994140625">
        <ele>231.600006103515625</ele>
        <time>2026-08-05T06:07:25.000Z</time>
        <extensions>
          <ns3:TrackPointExtension>
            <ns3:hr>107</ns3:hr>
            <ns3:cad>45</ns3:cad>
          </ns3:TrackPointExtension>
        </extensions>
      </trkpt>
      <trkpt lat="43.457799218595027923583984375" lon="1.43244638107717037200927734375">
        <ele>231.600006103515625</ele>
        <time>2026-08-05T06:07:26.000Z</time>
        <extensions>
          <ns3:TrackPointExtension>
            <ns3:hr>107</ns3:hr>
            <ns3:cad>47</ns3:cad>
          </ns3:TrackPointExtension>
        </extensions>
      </trkpt>
      <trkpt lat="43.45778882503509521484375" lon="1.4324459619820117950439453125">
        <ele>231.399993896484375</ele>
        <time>2026-08-05T06:07:27.000Z</time>
        <extensions>
          <ns3:TrackPointExtension>
            <ns3:hr>107</ns3:hr>
            <ns3:cad>48</ns3:cad>
          </ns3:TrackPointExtension>
        </extensions>
      </trkpt>
      <trkpt lat="43.4577794373035430908203125" lon="1.43244512379169464111328125">
        <ele>231.1999969482421875</ele>
        <time>2026-08-05T06:07:28.000Z</time>
        <extensions>
          <ns3:TrackPointExtension>
            <ns3:hr>106</ns3:hr>
            <ns3:cad>51</ns3:cad>
          </ns3:TrackPointExtension>
        </extensions>
      </trkpt>
      <trkpt lat="43.4577692113816738128662109375" lon="1.4324442856013774871826171875">
        <ele>231.1999969482421875</ele>
        <time>2026-08-05T06:07:29.000Z</time>
        <extensions>
          <ns3:TrackPointExtension>
            <ns3:hr>106</ns3:hr>
            <ns3:cad>51</ns3:cad>
          </ns3:TrackPointExtension>
        </extensions>
      </trkpt>
      <trkpt lat="43.4577620029449462890625" lon="1.4324449561536312103271484375">
        <ele>231</ele>
        <time>2026-08-05T06:07:30.000Z</time>
        <extensions>
          <ns3:TrackPointExtension>
            <ns3:hr>106</ns3:hr>
            <ns3:cad>51</ns3:cad>
          </ns3:TrackPointExtension>
        </extensions>
      </trkpt>
      <trkpt lat="43.4577541239559650421142578125" lon="1.43243967555463314056396484375">
        <ele>230.8000030517578125</ele>
        <time>2026-08-05T06:07:31.000Z</time>
        <extensions>
          <ns3:TrackPointExtension>
            <ns3:hr>106</ns3:hr>
            <ns3:cad>51</ns3:cad>
          </ns3:TrackPointExtension>
        </extensions>
      </trkpt>
      <trkpt lat="43.45774549059569835662841796875" lon="1.43243850208818912506103515625">
        <ele>230.8000030517578125</ele>
        <time>2026-08-05T06:07:32.000Z</time>
        <extensions>
          <ns3:TrackPointExtension>
            <ns3:hr>106</ns3:hr>
            <ns3:cad>50</ns3:cad>
          </ns3:TrackPointExtension>
        </extensions>
      </trkpt>
      <trkpt lat="43.457740209996700286865234375" lon="1.43244001083076000213623046875">
        <ele>230.600006103515625</ele>
        <time>2026-08-05T06:07:33.000Z</time>
        <extensions>
          <ns3:TrackPointExtension>
            <ns3:hr>106</ns3:hr>
            <ns3:cad>50</ns3:cad>
          </ns3:TrackPointExtension>
        </extensions>
      </trkpt>
      <trkpt lat="43.45773107372224330902099609375" lon="1.4324382506310939788818359375">
        <ele>230.399993896484375</ele>
        <time>2026-08-05T06:07:34.000Z</time>
        <extensions>
          <ns3:TrackPointExtension>
            <ns3:hr>105</ns3:hr>
            <ns3:cad>50</ns3:cad>
          </ns3:TrackPointExtension>
        </extensions>
      </trkpt>
      <trkpt lat="43.4577256254851818084716796875" lon="1.43243799917399883270263671875">
        <ele>230.1999969482421875</ele>
        <time>2026-08-05T06:07:35.000Z</time>
        <extensions>
          <ns3:TrackPointExtension>
            <ns3:hr>105</ns3:hr>
            <ns3:cad>50</ns3:cad>
          </ns3:TrackPointExtension>
        </extensions>
      </trkpt>
      <trkpt lat="43.45771372318267822265625" lon="1.43243372440338134765625">
        <ele>230.1999969482421875</ele>
        <time>2026-08-05T06:07:36.000Z</time>
        <extensions>
          <ns3:TrackPointExtension>
            <ns3:hr>105</ns3:hr>
            <ns3:cad>50</ns3:cad>
          </ns3:TrackPointExtension>
        </extensions>
      </trkpt>
      <trkpt lat="43.4577061794698238372802734375" lon="1.432430036365985870361328125">
        <ele>230</ele>
        <time>2026-08-05T06:07:37.000Z</time>
        <extensions>
          <ns3:TrackPointExtension>
            <ns3:hr>104</ns3:hr>
            <ns3:cad>47</ns3:cad>
          </ns3:TrackPointExtension>
        </extensions>
      </trkpt>
      <trkpt lat="43.45769771374762058258056640625" lon="1.4324271865189075469970703125">
        <ele>230</ele>
        <time>2026-08-05T06:07:38.000Z</time>
        <extensions>
          <ns3:TrackPointExtension>
            <ns3:hr>104</ns3:hr>
            <ns3:cad>47</ns3:cad>
          </ns3:TrackPointExtension>
        </extensions>
      </trkpt>
      <trkpt lat="43.457686565816402435302734375" lon="1.43242391757667064666748046875">
        <ele>229.8000030517578125</ele>
        <time>2026-08-05T06:07:39.000Z</time>
        <extensions>
          <ns3:TrackPointExtension>
            <ns3:hr>104</ns3:hr>
            <ns3:cad>47</ns3:cad>
          </ns3:TrackPointExtension>
        </extensions>
      </trkpt>
      <trkpt lat="43.45767927356064319610595703125" lon="1.432419978082180023193359375">
        <ele>229.8000030517578125</ele>
        <time>2026-08-05T06:07:40.000Z</time>
        <extensions>
          <ns3:TrackPointExtension>
            <ns3:hr>104</ns3:hr>
            <ns3:cad>47</ns3:cad>
          </ns3:TrackPointExtension>
        </extensions>
      </trkpt>
      <trkpt lat="43.457676507532596588134765625" lon="1.4324127696454524993896484375">
        <ele>229.8000030517578125</ele>
        <time>2026-08-05T06:07:41.000Z</time>
        <extensions>
          <ns3:TrackPointExtension>
            <ns3:hr>104</ns3:hr>
            <ns3:cad>50</ns3:cad>
          </ns3:TrackPointExtension>
        </extensions>
      </trkpt>
      <trkpt lat="43.45767323859035968780517578125" lon="1.4324074052274227142333984375">
        <ele>229.8000030517578125</ele>
        <time>2026-08-05T06:07:42.000Z</time>
        <extensions>
          <ns3:TrackPointExtension>
            <ns3:hr>104</ns3:hr>
            <ns3:cad>50</ns3:cad>
          </ns3:TrackPointExtension>
        </extensions>
      </trkpt>
      <trkpt lat="43.4576641023159027099609375" lon="1.4324070699512958526611328125">
        <ele>229.8000030517578125</ele>
        <time>2026-08-05T06:07:43.000Z</time>
        <extensions>
          <ns3:TrackPointExtension>
            <ns3:hr>103</ns3:hr>
            <ns3:cad>50</ns3:cad>
          </ns3:TrackPointExtension>
        </extensions>
      </trkpt>
      <trkpt lat="43.45765312202274799346923828125" lon="1.43241151235997676849365234375">
        <ele>229.8000030517578125</ele>
        <time>2026-08-05T06:07:44.000Z</time>
        <extensions>
          <ns3:TrackPointExtension>
            <ns3:hr>103</ns3:hr>
            <ns3:cad>50</ns3:cad>
          </ns3:TrackPointExtension>
        </extensions>
      </trkpt>
      <trkpt lat="43.457642979919910430908203125" lon="1.432409584522247314453125">
        <ele>229.8000030517578125</ele>
        <time>2026-08-05T06:07:45.000Z</time>
        <extensions>
          <ns3:TrackPointExtension>
            <ns3:hr>103</ns3:hr>
            <ns3:cad>47</ns3:cad>
          </ns3:TrackPointExtension>
        </extensions>
      </trkpt>
      <trkpt lat="43.4576332569122314453125" lon="1.43240162171423435211181640625">
        <ele>229.600006103515625</ele>
        <time>2026-08-05T06:07:46.000Z</time>
        <extensions>
          <ns3:TrackPointExtension>
            <ns3:hr>102</ns3:hr>
            <ns3:cad>47</ns3:cad>
          </ns3:TrackPointExtension>
        </extensions>
      </trkpt>
      <trkpt lat="43.457624204456806182861328125" lon="1.43239743076264858245849609375">
        <ele>229.600006103515625</ele>
        <time>2026-08-05T06:07:47.000Z</time>
        <extensions>
          <ns3:TrackPointExtension>
            <ns3:hr>102</ns3:hr>
            <ns3:cad>44</ns3:cad>
          </ns3:TrackPointExtension>
        </extensions>
      </trkpt>
      <trkpt lat="43.45761649310588836669921875" lon="1.4323899708688259124755859375">
        <ele>229.600006103515625</ele>
        <time>2026-08-05T06:07:48.000Z</time>
        <extensions>
          <ns3:TrackPointExtension>
            <ns3:hr>102</ns3:hr>
            <ns3:cad>44</ns3:cad>
          </ns3:TrackPointExtension>
        </extensions>
      </trkpt>
      <trkpt lat="43.4576131403446197509765625" lon="1.4323762245476245880126953125">
        <ele>229.600006103515625</ele>
        <time>2026-08-05T06:07:49.000Z</time>
        <extensions>
          <ns3:TrackPointExtension>
            <ns3:hr>102</ns3:hr>
            <ns3:cad>43</ns3:cad>
          </ns3:TrackPointExtension>
        </extensions>
      </trkpt>
      <trkpt lat="43.45761138014495372772216796875" lon="1.4323681779205799102783203125">
        <ele>229.600006103515625</ele>
        <time>2026-08-05T06:07:50.000Z</time>
        <extensions>
          <ns3:TrackPointExtension>
            <ns3:hr>101</ns3:hr>
            <ns3:cad>0</ns3:cad>
          </ns3:TrackPointExtension>
        </extensions>
      </trkpt>
      <trkpt lat="43.45760500989854335784912109375" lon="1.4323634840548038482666015625">
        <ele>229.600006103515625</ele>
        <time>2026-08-05T06:07:51.000Z</time>
        <extensions>
          <ns3:TrackPointExtension>
            <ns3:hr>101</ns3:hr>
            <ns3:cad>0</ns3:cad>
          </ns3:TrackPointExtension>
        </extensions>
      </trkpt>
      <trkpt lat="43.4576015733182430267333984375" lon="1.4323594607412815093994140625">
        <ele>229.600006103515625</ele>
        <time>2026-08-05T06:07:52.000Z</time>
        <extensions>
          <ns3:TrackPointExtension>
            <ns3:hr>102</ns3:hr>
            <ns3:cad>0</ns3:cad>
          </ns3:TrackPointExtension>
        </extensions>
      </trkpt>
      <trkpt lat="43.45759880729019641876220703125" lon="1.43235585652291774749755859375">
        <ele>229.600006103515625</ele>
        <time>2026-08-05T06:07:53.000Z</time>
        <extensions>
          <ns3:TrackPointExtension>
            <ns3:hr>102</ns3:hr>
            <ns3:cad>0</ns3:cad>
          </ns3:TrackPointExtension>
        </extensions>
      </trkpt>
      <trkpt lat="43.4575962089002132415771484375" lon="1.4323561079800128936767578125">
        <ele>229.600006103515625</ele>
        <time>2026-08-05T06:07:54.000Z</time>
        <extensions>
          <ns3:TrackPointExtension>
            <ns3:hr>102</ns3:hr>
            <ns3:cad>0</ns3:cad>
          </ns3:TrackPointExtension>
        </extensions>
      </trkpt>
      <trkpt lat="43.45759428106248378753662109375" lon="1.43235535360872745513916015625">
        <ele>229.600006103515625</ele>
        <time>2026-08-05T06:07:55.000Z</time>
        <extensions>
          <ns3:TrackPointExtension>
            <ns3:hr>102</ns3:hr>
            <ns3:cad>0</ns3:cad>
          </ns3:TrackPointExtension>
        </extensions>
      </trkpt>
      <trkpt lat="43.45759243704378604888916015625" lon="1.4323544315993785858154296875">
        <ele>229.600006103515625</ele>
        <time>2026-08-05T06:07:56.000Z</time>
        <extensions>
          <ns3:TrackPointExtension>
            <ns3:hr>102</ns3:hr>
            <ns3:cad>0</ns3:cad>
          </ns3:TrackPointExtension>
        </extensions>
      </trkpt>
      <trkpt lat="43.45759503543376922607421875" lon="1.4323460496962070465087890625">
        <ele>229.600006103515625</ele>
        <time>2026-08-05T06:07:57.000Z</time>
        <extensions>
          <ns3:TrackPointExtension>
            <ns3:hr>104</ns3:hr>
            <ns3:cad>0</ns3:cad>
          </ns3:TrackPointExtension>
        </extensions>
      </trkpt>
      <trkpt lat="43.45759260468184947967529296875" lon="1.4323403500020503997802734375">
        <ele>229.600006103515625</ele>
        <time>2026-08-05T06:07:58.000Z</time>
        <extensions>
          <ns3:TrackPointExtension>
            <ns3:hr>105</ns3:hr>
            <ns3:cad>0</ns3:cad>
          </ns3:TrackPointExtension>
        </extensions>
      </trkpt>
      <trkpt lat="43.45758908428251743316650390625" lon="1.4323326386511325836181640625">
        <ele>229.600006103515625</ele>
        <time>2026-08-05T06:07:59.000Z</time>
        <extensions>
          <ns3:TrackPointExtension>
            <ns3:hr>106</ns3:hr>
            <ns3:cad>0</ns3:cad>
          </ns3:TrackPointExtension>
        </extensions>
      </trkpt>
      <trkpt lat="43.45758623443543910980224609375" lon="1.4323292858898639678955078125">
        <ele>229.600006103515625</ele>
        <time>2026-08-05T06:08:00.000Z</time>
        <extensions>
          <ns3:TrackPointExtension>
            <ns3:hr>108</ns3:hr>
            <ns3:cad>0</ns3:cad>
          </ns3:TrackPointExtension>
        </extensions>
      </trkpt>
      <trkpt lat="43.45758640207350254058837890625" lon="1.43232920207083225250244140625">
        <ele>229.600006103515625</ele>
        <time>2026-08-05T06:08:01.000Z</time>
        <extensions>
          <ns3:TrackPointExtension>
            <ns3:hr>108</ns3:hr>
            <ns3:cad>0</ns3:cad>
          </ns3:TrackPointExtension>
        </extensions>
      </trkpt>
      <trkpt lat="43.45758640207350254058837890625" lon="1.43232920207083225250244140625">
        <ele>229.600006103515625</ele>
        <time>2026-08-05T06:08:02.000Z</time>
        <extensions>
          <ns3:TrackPointExtension>
            <ns3:hr>108</ns3:hr>
            <ns3:cad>0</ns3:cad>
          </ns3:TrackPointExtension>
        </extensions>
      </trkpt>
      <trkpt lat="43.45758640207350254058837890625" lon="1.43232920207083225250244140625">
        <ele>229.600006103515625</ele>
        <time>2026-08-05T06:08:03.000Z</time>
        <extensions>
          <ns3:TrackPointExtension>
            <ns3:hr>108</ns3:hr>
            <ns3:cad>0</ns3:cad>
          </ns3:TrackPointExtension>
        </extensions>
      </trkpt>
      <trkpt lat="43.45758640207350254058837890625" lon="1.43232920207083225250244140625">
        <ele>229.600006103515625</ele>
        <time>2026-08-05T06:08:04.000Z</time>
        <extensions>
          <ns3:TrackPointExtension>
            <ns3:hr>108</ns3:hr>
            <ns3:cad>0</ns3:cad>
          </ns3:TrackPointExtension>
        </extensions>
      </trkpt>
      <trkpt lat="43.45758640207350254058837890625" lon="1.43232920207083225250244140625">
        <ele>229.600006103515625</ele>
        <time>2026-08-05T06:08:05.000Z</time>
        <extensions>
          <ns3:TrackPointExtension>
            <ns3:hr>108</ns3:hr>
            <ns3:cad>0</ns3:cad>
          </ns3:TrackPointExtension>
        </extensions>
      </trkpt>
      <trkpt lat="43.45758640207350254058837890625" lon="1.43232920207083225250244140625">
        <ele>229.600006103515625</ele>
        <time>2026-08-05T06:08:06.000Z</time>
        <extensions>
          <ns3:TrackPointExtension>
            <ns3:hr>107</ns3:hr>
            <ns3:cad>0</ns3:cad>
          </ns3:TrackPointExtension>
        </extensions>
      </trkpt>
      <trkpt lat="43.45758640207350254058837890625" lon="1.43232920207083225250244140625">
        <ele>229.600006103515625</ele>
        <time>2026-08-05T06:08:07.000Z</time>
        <extensions>
          <ns3:TrackPointExtension>
            <ns3:hr>107</ns3:hr>
            <ns3:cad>0</ns3:cad>
          </ns3:TrackPointExtension>
        </extensions>
      </trkpt>
      <trkpt lat="43.45758640207350254058837890625" lon="1.43232920207083225250244140625">
        <ele>229.600006103515625</ele>
        <time>2026-08-05T06:08:08.000Z</time>
        <extensions>
          <ns3:TrackPointExtension>
            <ns3:hr>107</ns3:hr>
            <ns3:cad>0</ns3:cad>
          </ns3:TrackPointExtension>
        </extensions>
      </trkpt>
      <trkpt lat="43.457583971321582794189453125" lon="1.43232987262308597564697265625">
        <ele>229.600006103515625</ele>
        <time>2026-08-05T06:08:09.000Z</time>
        <extensions>
          <ns3:TrackPointExtension>
            <ns3:hr>107</ns3:hr>
            <ns3:cad>0</ns3:cad>
          </ns3:TrackPointExtension>
        </extensions>
      </trkpt>
      <trkpt lat="43.45758640207350254058837890625" lon="1.43232920207083225250244140625">
        <ele>229.600006103515625</ele>
        <time>2026-08-05T06:08:10.000Z</time>
        <extensions>
          <ns3:TrackPointExtension>
            <ns3:hr>107</ns3:hr>
            <ns3:cad>0</ns3:cad>
          </ns3:TrackPointExtension>
        </extensions>
      </trkpt>
      <trkpt lat="43.45758640207350254058837890625" lon="1.43232920207083225250244140625">
        <ele>229.600006103515625</ele>
        <time>2026-08-05T06:08:11.000Z</time>
        <extensions>
          <ns3:TrackPointExtension>
            <ns3:hr>107</ns3:hr>
            <ns3:cad>0</ns3:cad>
          </ns3:TrackPointExtension>
        </extensions>
      </trkpt>
      <trkpt lat="43.45758640207350254058837890625" lon="1.43232920207083225250244140625">
        <ele>229.8000030517578125</ele>
        <time>2026-08-05T06:08:12.000Z</time>
        <extensions>
          <ns3:TrackPointExtension>
            <ns3:hr>107</ns3:hr>
            <ns3:cad>0</ns3:cad>
          </ns3:TrackPointExtension>
        </extensions>
      </trkpt>
      <trkpt lat="43.45758640207350254058837890625" lon="1.43232920207083225250244140625">
        <ele>229.8000030517578125</ele>
        <time>2026-08-05T06:08:13.000Z</time>
        <extensions>
          <ns3:TrackPointExtension>
            <ns3:hr>107</ns3:hr>
            <ns3:cad>0</ns3:cad>
          </ns3:TrackPointExtension>
        </extensions>
      </trkpt>
      <trkpt lat="43.45758640207350254058837890625" lon="1.43232920207083225250244140625">
        <ele>229.8000030517578125</ele>
        <time>2026-08-05T06:08:14.000Z</time>
        <extensions>
          <ns3:TrackPointExtension>
            <ns3:hr>107</ns3:hr>
            <ns3:cad>0</ns3:cad>
          </ns3:TrackPointExtension>
        </extensions>
      </trkpt>
      <trkpt lat="43.4575760923326015472412109375" lon="1.43232953734695911407470703125">
        <ele>229.8000030517578125</ele>
        <time>2026-08-05T06:08:15.000Z</time>
        <extensions>
          <ns3:TrackPointExtension>
            <ns3:hr>107</ns3:hr>
            <ns3:cad>0</ns3:cad>
          </ns3:TrackPointExtension>
        </extensions>
      </trkpt>
      <trkpt lat="43.4575755894184112548828125" lon="1.43232853151857852935791015625">
        <ele>229.8000030517578125</ele>
        <time>2026-08-05T06:08:16.000Z</time>
        <extensions>
          <ns3:TrackPointExtension>
            <ns3:hr>107</ns3:hr>
            <ns3:cad>0</ns3:cad>
          </ns3:TrackPointExtension>
        </extensions>
      </trkpt>
      <trkpt lat="43.457577936351299285888671875" lon="1.43233221955597400665283203125">
        <ele>229.8000030517578125</ele>
        <time>2026-08-05T06:08:17.000Z</time>
        <extensions>
          <ns3:TrackPointExtension>
            <ns3:hr>108</ns3:hr>
            <ns3:cad>0</ns3:cad>
          </ns3:TrackPointExtension>
        </extensions>
      </trkpt>
      <trkpt lat="43.45758455805480480194091796875" lon="1.43233339302241802215576171875">
        <ele>229.8000030517578125</ele>
        <time>2026-08-05T06:08:18.000Z</time>
        <extensions>
          <ns3:TrackPointExtension>
            <ns3:hr>107</ns3:hr>
            <ns3:cad>0</ns3:cad>
          </ns3:TrackPointExtension>
        </extensions>
      </trkpt>
      <trkpt lat="43.457590006291866302490234375" lon="1.4323343150317668914794921875">
        <ele>229.600006103515625</ele>
        <time>2026-08-05T06:08:19.000Z</time>
        <extensions>
          <ns3:TrackPointExtension>
            <ns3:hr>107</ns3:hr>
            <ns3:cad>0</ns3:cad>
          </ns3:TrackPointExtension>
        </extensions>
      </trkpt>
      <trkpt lat="43.45759612508118152618408203125" lon="1.43234194256365299224853515625">
        <ele>229.600006103515625</ele>
        <time>2026-08-05T06:08:20.000Z</time>
        <extensions>
          <ns3:TrackPointExtension>
            <ns3:hr>107</ns3:hr>
            <ns3:cad>0</ns3:cad>
          </ns3:TrackPointExtension>
        </extensions>
      </trkpt>
      <trkpt lat="43.45760232768952846527099609375" lon="1.43234797753393650054931640625">
        <ele>229.8000030517578125</ele>
        <time>2026-08-05T06:08:21.000Z</time>
        <extensions>
          <ns3:TrackPointExtension>
            <ns3:hr>107</ns3:hr>
            <ns3:cad>0</ns3:cad>
          </ns3:TrackPointExtension>
        </extensions>
      </trkpt>
      <trkpt lat="43.45760710537433624267578125" lon="1.432367004454135894775390625">
        <ele>229.8000030517578125</ele>
        <time>2026-08-05T06:08:22.000Z</time>
        <extensions>
          <ns3:TrackPointExtension>
            <ns3:hr>106</ns3:hr>
            <ns3:cad>0</ns3:cad>
          </ns3:TrackPointExtension>
        </extensions>
      </trkpt>
      <trkpt lat="43.45760433934628963470458984375" lon="1.4323755539953708648681640625">
        <ele>230</ele>
        <time>2026-08-05T06:08:23.000Z</time>
        <extensions>
          <ns3:TrackPointExtension>
            <ns3:hr>106</ns3:hr>
            <ns3:cad>0</ns3:cad>
          </ns3:TrackPointExtension>
        </extensions>
      </trkpt>
      <trkpt lat="43.4576116316020488739013671875" lon="1.432373039424419403076171875">
        <ele>229.8000030517578125</ele>
        <time>2026-08-05T06:08:24.000Z</time>
        <extensions>
          <ns3:TrackPointExtension>
            <ns3:hr>106</ns3:hr>
            <ns3:cad>0</ns3:cad>
          </ns3:TrackPointExtension>
        </extensions>
      </trkpt>
      <trkpt lat="43.45761573873460292816162109375" lon="1.4323867857456207275390625">
        <ele>229.8000030517578125</ele>
        <time>2026-08-05T06:08:25.000Z</time>
        <extensions>
          <ns3:TrackPointExtension>
            <ns3:hr>105</ns3:hr>
            <ns3:cad>0</ns3:cad>
          </ns3:TrackPointExtension>
        </extensions>
      </trkpt>
      <trkpt lat="43.45762722194194793701171875" lon="1.43240380100905895233154296875">
        <ele>229.8000030517578125</ele>
        <time>2026-08-05T06:08:26.000Z</time>
        <extensions>
          <ns3:TrackPointExtension>
            <ns3:hr>104</ns3:hr>
            <ns3:cad>0</ns3:cad>
          </ns3:TrackPointExtension>
        </extensions>
      </trkpt>
      <trkpt lat="43.45763350836932659149169921875" lon="1.4324157871305942535400390625">
        <ele>229.600006103515625</ele>
        <time>2026-08-05T06:08:27.000Z</time>
        <extensions>
          <ns3:TrackPointExtension>
            <ns3:hr>104</ns3:hr>
            <ns3:cad>0</ns3:cad>
          </ns3:TrackPointExtension>
        </extensions>
      </trkpt>
      <trkpt lat="43.457635939121246337890625" lon="1.43242810852825641632080078125">
        <ele>229.600006103515625</ele>
        <time>2026-08-05T06:08:28.000Z</time>
        <extensions>
          <ns3:TrackPointExtension>
            <ns3:hr>103</ns3:hr>
            <ns3:cad>0</ns3:cad>
          </ns3:TrackPointExtension>
        </extensions>
      </trkpt>
      <trkpt lat="43.45763652585446834564208984375" lon="1.43244110047817230224609375">
        <ele>229.600006103515625</ele>
        <time>2026-08-05T06:08:29.000Z</time>
        <extensions>
          <ns3:TrackPointExtension>
            <ns3:hr>103</ns3:hr>
            <ns3:cad>0</ns3:cad>
          </ns3:TrackPointExtension>
        </extensions>
      </trkpt>
      <trkpt lat="43.4576408006250858306884765625" lon="1.4324543438851833343505859375">
        <ele>229.600006103515625</ele>
        <time>2026-08-05T06:08:30.000Z</time>
        <extensions>
          <ns3:TrackPointExtension>
            <ns3:hr>103</ns3:hr>
            <ns3:cad>0</ns3:cad>
          </ns3:TrackPointExtension>
        </extensions>
      </trkpt>
      <trkpt lat="43.457642309367656707763671875" lon="1.4324650727212429046630859375">
        <ele>229.600006103515625</ele>
        <time>2026-08-05T06:08:31.000Z</time>
        <extensions>
          <ns3:TrackPointExtension>
            <ns3:hr>103</ns3:hr>
            <ns3:cad>0</ns3:cad>
          </ns3:TrackPointExtension>
        </extensions>
      </trkpt>
      <trkpt lat="43.45764507539570331573486328125" lon="1.43246968276798725128173828125">
        <ele>229.600006103515625</ele>
        <time>2026-08-05T06:08:32.000Z</time>
        <extensions>
          <ns3:TrackPointExtension>
            <ns3:hr>102</ns3:hr>
            <ns3:cad>0</ns3:cad>
          </ns3:TrackPointExtension>
        </extensions>
      </trkpt>
      <trkpt lat="43.45764826051890850067138671875" lon="1.4324905537068843841552734375">
        <ele>229.600006103515625</ele>
        <time>2026-08-05T06:08:33.000Z</time>
        <extensions>
          <ns3:TrackPointExtension>
            <ns3:hr>102</ns3:hr>
            <ns3:cad>0</ns3:cad>
          </ns3:TrackPointExtension>
        </extensions>
      </trkpt>
      <trkpt lat="43.45765161328017711639404296875" lon="1.432491727173328399658203125">
        <ele>229.600006103515625</ele>
        <time>2026-08-05T06:08:34.000Z</time>
        <extensions>
          <ns3:TrackPointExtension>
            <ns3:hr>102</ns3:hr>
            <ns3:cad>42</ns3:cad>
          </ns3:TrackPointExtension>
        </extensions>
      </trkpt>
      <trkpt lat="43.45765806734561920166015625" lon="1.432499773800373077392578125">
        <ele>229.600006103515625</ele>
        <time>2026-08-05T06:08:35.000Z</time>
        <extensions>
          <ns3:TrackPointExtension>
            <ns3:hr>102</ns3:hr>
            <ns3:cad>42</ns3:cad>
          </ns3:TrackPointExtension>
        </extensions>
      </trkpt>
      <trkpt lat="43.4576639346778392791748046875" lon="1.4325113408267498016357421875">
        <ele>229.600006103515625</ele>
        <time>2026-08-05T06:08:36.000Z</time>
        <extensions>
          <ns3:TrackPointExtension>
            <ns3:hr>102</ns3:hr>
            <ns3:cad>42</ns3:cad>
          </ns3:TrackPointExtension>
        </extensions>
      </trkpt>
      <trkpt lat="43.457667119801044464111328125" lon="1.43252022564411163330078125">
        <ele>229.600006103515625</ele>
        <time>2026-08-05T06:08:37.000Z</time>
        <extensions>
          <ns3:TrackPointExtension>
            <ns3:hr>101</ns3:hr>
            <ns3:cad>42</ns3:cad>
          </ns3:TrackPointExtension>
        </extensions>
      </trkpt>
      <trkpt lat="43.4576721489429473876953125" lon="1.43254034221172332763671875">
        <ele>229.600006103515625</ele>
        <time>2026-08-05T06:08:38.000Z</time>
        <extensions>
          <ns3:TrackPointExtension>
            <ns3:hr>101</ns3:hr>
            <ns3:cad>42</ns3:cad>
          </ns3:TrackPointExtension>
        </extensions>
      </trkpt>
      <trkpt lat="43.45767457969486713409423828125" lon="1.43255400471389293670654296875">
        <ele>229.600006103515625</ele>
        <time>2026-08-05T06:08:39.000Z</time>
        <extensions>
          <ns3:TrackPointExtension>
            <ns3:hr>101</ns3:hr>
            <ns3:cad>42</ns3:cad>
          </ns3:TrackPointExtension>
        </extensions>
      </trkpt>
      <trkpt lat="43.45767374150454998016357421875" lon="1.4325673319399356842041015625">
        <ele>229.600006103515625</ele>
        <time>2026-08-05T06:08:40.000Z</time>
        <extensions>
          <ns3:TrackPointExtension>
            <ns3:hr>102</ns3:hr>
            <ns3:cad>42</ns3:cad>
          </ns3:TrackPointExtension>
        </extensions>
      </trkpt>
      <trkpt lat="43.4576746635138988494873046875" lon="1.432577557861804962158203125">
        <ele>229.600006103515625</ele>
        <time>2026-08-05T06:08:41.000Z</time>
        <extensions>
          <ns3:TrackPointExtension>
            <ns3:hr>101</ns3:hr>
            <ns3:cad>42</ns3:cad>
          </ns3:TrackPointExtension>
        </extensions>
      </trkpt>
      <trkpt lat="43.45767860300838947296142578125" lon="1.43258862197399139404296875">
        <ele>229.399993896484375</ele>
        <time>2026-08-05T06:08:42.000Z</time>
        <extensions>
          <ns3:TrackPointExtension>
            <ns3:hr>101</ns3:hr>
            <ns3:cad>42</ns3:cad>
          </ns3:TrackPointExtension>
        </extensions>
      </trkpt>
      <trkpt lat="43.45768061466515064239501953125" lon="1.43260362558066844940185546875">
        <ele>229.399993896484375</ele>
        <time>2026-08-05T06:08:43.000Z</time>
        <extensions>
          <ns3:TrackPointExtension>
            <ns3:hr>101</ns3:hr>
            <ns3:cad>42</ns3:cad>
          </ns3:TrackPointExtension>
        </extensions>
      </trkpt>
      <trkpt lat="43.45768162049353122711181640625" lon="1.4326147735118865966796875">
        <ele>229.399993896484375</ele>
        <time>2026-08-05T06:08:44.000Z</time>
        <extensions>
          <ns3:TrackPointExtension>
            <ns3:hr>101</ns3:hr>
            <ns3:cad>42</ns3:cad>
          </ns3:TrackPointExtension>
        </extensions>
      </trkpt>
      <trkpt lat="43.45768623054027557373046875" lon="1.43263095058500766754150390625">
        <ele>229.399993896484375</ele>
        <time>2026-08-05T06:08:45.000Z</time>
        <extensions>
          <ns3:TrackPointExtension>
            <ns3:hr>101</ns3:hr>
            <ns3:cad>42</ns3:cad>
          </ns3:TrackPointExtension>
        </extensions>
      </trkpt>
      <trkpt lat="43.4576884098351001739501953125" lon="1.4326407574117183685302734375">
        <ele>229.399993896484375</ele>
        <time>2026-08-05T06:08:46.000Z</time>
        <extensions>
          <ns3:TrackPointExtension>
            <ns3:hr>102</ns3:hr>
            <ns3:cad>42</ns3:cad>
          </ns3:TrackPointExtension>
        </extensions>
      </trkpt>
      <trkpt lat="43.45768916420638561248779296875" lon="1.432645283639430999755859375">
        <ele>229.600006103515625</ele>
        <time>2026-08-05T06:08:47.000Z</time>
        <extensions>
          <ns3:TrackPointExtension>
            <ns3:hr>102</ns3:hr>
            <ns3:cad>42</ns3:cad>
          </ns3:TrackPointExtension>
        </extensions>
      </trkpt>
      <trkpt lat="43.45768933184444904327392578125" lon="1.4326541684567928314208984375">
        <ele>229.600006103515625</ele>
        <time>2026-08-05T06:08:48.000Z</time>
        <extensions>
          <ns3:TrackPointExtension>
            <ns3:hr>102</ns3:hr>
            <ns3:cad>0</ns3:cad>
          </ns3:TrackPointExtension>
        </extensions>
      </trkpt>
      <trkpt lat="43.4576882421970367431640625" lon="1.43266414292156696319580078125">
        <ele>229.600006103515625</ele>
        <time>2026-08-05T06:08:49.000Z</time>
        <extensions>
          <ns3:TrackPointExtension>
            <ns3:hr>102</ns3:hr>
            <ns3:cad>0</ns3:cad>
          </ns3:TrackPointExtension>
        </extensions>
      </trkpt>
      <trkpt lat="43.45768078230321407318115234375" lon="1.43267118372023105621337890625">
        <ele>229.600006103515625</ele>
        <time>2026-08-05T06:08:50.000Z</time>
        <extensions>
          <ns3:TrackPointExtension>
            <ns3:hr>102</ns3:hr>
            <ns3:cad>0</ns3:cad>
          </ns3:TrackPointExtension>
        </extensions>
      </trkpt>
      <trkpt lat="43.45767172984778881072998046875" lon="1.43266766332089900970458984375">
        <ele>229.399993896484375</ele>
        <time>2026-08-05T06:08:51.000Z</time>
        <extensions>
          <ns3:TrackPointExtension>
            <ns3:hr>103</ns3:hr>
            <ns3:cad>0</ns3:cad>
          </ns3:TrackPointExtension>
        </extensions>
      </trkpt>
      <trkpt lat="43.45766686834394931793212890625" lon="1.43267135135829448699951171875">
        <ele>229.399993896484375</ele>
        <time>2026-08-05T06:08:52.000Z</time>
        <extensions>
          <ns3:TrackPointExtension>
            <ns3:hr>102</ns3:hr>
            <ns3:cad>0</ns3:cad>
          </ns3:TrackPointExtension>
        </extensions>
      </trkpt>
      <trkpt lat="43.45766049809753894805908203125" lon="1.4326737821102142333984375">
        <ele>229.399993896484375</ele>
        <time>2026-08-05T06:08:53.000Z</time>
        <extensions>
          <ns3:TrackPointExtension>
            <ns3:hr>102</ns3:hr>
            <ns3:cad>0</ns3:cad>
          </ns3:TrackPointExtension>
        </extensions>
      </trkpt>
      <trkpt lat="43.45765647478401660919189453125" lon="1.43267755396664142608642578125">
        <ele>229.399993896484375</ele>
        <time>2026-08-05T06:08:54.000Z</time>
        <extensions>
          <ns3:TrackPointExtension>
            <ns3:hr>102</ns3:hr>
            <ns3:cad>0</ns3:cad>
          </ns3:TrackPointExtension>
        </extensions>
      </trkpt>
      <trkpt lat="43.45765261910855770111083984375" lon="1.4326739497482776641845703125">
        <ele>229.399993896484375</ele>
        <time>2026-08-05T06:08:55.000Z</time>
        <extensions>
          <ns3:TrackPointExtension>
            <ns3:hr>102</ns3:hr>
            <ns3:cad>0</ns3:cad>
          </ns3:TrackPointExtension>
        </extensions>
      </trkpt>
      <trkpt lat="43.45764867961406707763671875" lon="1.432676799595355987548828125">
        <ele>229.1999969482421875</ele>
        <time>2026-08-05T06:08:56.000Z</time>
        <extensions>
          <ns3:TrackPointExtension>
            <ns3:hr>101</ns3:hr>
            <ns3:cad>0</ns3:cad>
          </ns3:TrackPointExtension>
        </extensions>
      </trkpt>
      <trkpt lat="43.45764155499637126922607421875" lon="1.4326752908527851104736328125">
        <ele>229.1999969482421875</ele>
        <time>2026-08-05T06:08:57.000Z</time>
        <extensions>
          <ns3:TrackPointExtension>
            <ns3:hr>101</ns3:hr>
            <ns3:cad>0</ns3:cad>
          </ns3:TrackPointExtension>
        </extensions>
      </trkpt>
      <trkpt lat="43.45763971097767353057861328125" lon="1.4326786436140537261962890625">
        <ele>229.1999969482421875</ele>
        <time>2026-08-05T06:08:58.000Z</time>
        <extensions>
          <ns3:TrackPointExtension>
            <ns3:hr>101</ns3:hr>
            <ns3:cad>0</ns3:cad>
          </ns3:TrackPointExtension>
        </extensions>
      </trkpt>
      <trkpt lat="43.4576397947967052459716796875" lon="1.4326783083379268646240234375">
        <ele>229</ele>
        <time>2026-08-05T06:08:59.000Z</time>
        <extensions>
          <ns3:TrackPointExtension>
            <ns3:hr>102</ns3:hr>
            <ns3:cad>0</ns3:cad>
          </ns3:TrackPointExtension>
        </extensions>
      </trkpt>
      <trkpt lat="43.4576397947967052459716796875" lon="1.4326783083379268646240234375">
        <ele>229.1999969482421875</ele>
        <time>2026-08-05T06:09:00.000Z</time>
        <extensions>
          <ns3:TrackPointExtension>
            <ns3:hr>101</ns3:hr>
            <ns3:cad>0</ns3:cad>
          </ns3:TrackPointExtension>
        </extensions>
      </trkpt>
      <trkpt lat="43.4576394595205783843994140625" lon="1.4326783083379268646240234375">
        <ele>229.1999969482421875</ele>
        <time>2026-08-05T06:09:01.000Z</time>
        <extensions>
          <ns3:TrackPointExtension>
            <ns3:hr>101</ns3:hr>
            <ns3:cad>0</ns3:cad>
          </ns3:TrackPointExtension>
        </extensions>
      </trkpt>
      <trkpt lat="43.4576448239386081695556640625" lon="1.43267286010086536407470703125">
        <ele>229.1999969482421875</ele>
        <time>2026-08-05T06:09:02.000Z</time>
        <extensions>
          <ns3:TrackPointExtension>
            <ns3:hr>101</ns3:hr>
            <ns3:cad>0</ns3:cad>
          </ns3:TrackPointExtension>
        </extensions>
      </trkpt>
      <trkpt lat="43.45764390192925930023193359375" lon="1.43267336301505565643310546875">
        <ele>229.1999969482421875</ele>
        <time>2026-08-05T06:09:03.000Z</time>
        <extensions>
          <ns3:TrackPointExtension>
            <ns3:hr>102</ns3:hr>
            <ns3:cad>0</ns3:cad>
          </ns3:TrackPointExtension>
        </extensions>
      </trkpt>
      <trkpt lat="43.457643985748291015625" lon="1.43266866914927959442138671875">
        <ele>229.1999969482421875</ele>
        <time>2026-08-05T06:09:04.000Z</time>
        <extensions>
          <ns3:TrackPointExtension>
            <ns3:hr>101</ns3:hr>
            <ns3:cad>0</ns3:cad>
          </ns3:TrackPointExtension>
        </extensions>
      </trkpt>
      <trkpt lat="43.4576391242444515228271484375" lon="1.432668082416057586669921875">
        <ele>229.1999969482421875</ele>
        <time>2026-08-05T06:09:05.000Z</time>
        <extensions>
          <ns3:TrackPointExtension>
            <ns3:hr>101</ns3:hr>
            <ns3:cad>0</ns3:cad>
          </ns3:TrackPointExtension>
        </extensions>
      </trkpt>
      <trkpt lat="43.4576397947967052459716796875" lon="1.4326783083379268646240234375">
        <ele>229.1999969482421875</ele>
        <time>2026-08-05T06:09:06.000Z</time>
        <extensions>
          <ns3:TrackPointExtension>
            <ns3:hr>100</ns3:hr>
            <ns3:cad>0</ns3:cad>
          </ns3:TrackPointExtension>
        </extensions>
      </trkpt>
      <trkpt lat="43.4576397947967052459716796875" lon="1.4326783083379268646240234375">
        <ele>229.1999969482421875</ele>
        <time>2026-08-05T06:09:07.000Z</time>
        <extensions>
          <ns3:TrackPointExtension>
            <ns3:hr>99</ns3:hr>
            <ns3:cad>0</ns3:cad>
          </ns3:TrackPointExtension>
        </extensions>
      </trkpt>
      <trkpt lat="43.4576397947967052459716796875" lon="1.4326783083379268646240234375">
        <ele>229.1999969482421875</ele>
        <time>2026-08-05T06:09:08.000Z</time>
        <extensions>
          <ns3:TrackPointExtension>
            <ns3:hr>100</ns3:hr>
            <ns3:cad>0</ns3:cad>
          </ns3:TrackPointExtension>
        </extensions>
      </trkpt>
      <trkpt lat="43.4576397947967052459716796875" lon="1.4326783083379268646240234375">
        <ele>229.1999969482421875</ele>
        <time>2026-08-05T06:09:09.000Z</time>
        <extensions>
          <ns3:TrackPointExtension>
            <ns3:hr>100</ns3:hr>
            <ns3:cad>0</ns3:cad>
          </ns3:TrackPointExtension>
        </extensions>
      </trkpt>
      <trkpt lat="43.4576397947967052459716796875" lon="1.4326783083379268646240234375">
        <ele>229.1999969482421875</ele>
        <time>2026-08-05T06:09:10.000Z</time>
        <extensions>
          <ns3:TrackPointExtension>
            <ns3:hr>98</ns3:hr>
            <ns3:cad>0</ns3:cad>
          </ns3:TrackPointExtension>
        </extensions>
      </trkpt>
      <trkpt lat="43.4576397947967052459716796875" lon="1.4326783083379268646240234375">
        <ele>229.1999969482421875</ele>
        <time>2026-08-05T06:09:11.000Z</time>
        <extensions>
          <ns3:TrackPointExtension>
            <ns3:hr>97</ns3:hr>
            <ns3:cad>0</ns3:cad>
          </ns3:TrackPointExtension>
        </extensions>
      </trkpt>
      <trkpt lat="43.4576397947967052459716796875" lon="1.4326783083379268646240234375">
        <ele>229.1999969482421875</ele>
        <time>2026-08-05T06:09:12.000Z</time>
        <extensions>
          <ns3:TrackPointExtension>
            <ns3:hr>97</ns3:hr>
            <ns3:cad>0</ns3:cad>
          </ns3:TrackPointExtension>
        </extensions>
      </trkpt>
      <trkpt lat="43.4576397947967052459716796875" lon="1.4326783083379268646240234375">
        <ele>229.399993896484375</ele>
        <time>2026-08-05T06:09:13.000Z</time>
        <extensions>
          <ns3:TrackPointExtension>
            <ns3:hr>97</ns3:hr>
            <ns3:cad>0</ns3:cad>
          </ns3:TrackPointExtension>
        </extensions>
      </trkpt>
      <trkpt lat="43.4576397947967052459716796875" lon="1.4326783083379268646240234375">
        <ele>229.399993896484375</ele>
        <time>2026-08-05T06:09:14.000Z</time>
        <extensions>
          <ns3:TrackPointExtension>
            <ns3:hr>97</ns3:hr>
            <ns3:cad>0</ns3:cad>
          </ns3:TrackPointExtension>
        </extensions>
      </trkpt>
      <trkpt lat="43.4576364420354366302490234375" lon="1.4326665736734867095947265625">
        <ele>229.399993896484375</ele>
        <time>2026-08-05T06:09:15.000Z</time>
        <extensions>
          <ns3:TrackPointExtension>
            <ns3:hr>97</ns3:hr>
            <ns3:cad>0</ns3:cad>
          </ns3:TrackPointExtension>
        </extensions>
      </trkpt>
      <trkpt lat="43.4576283954083919525146484375" lon="1.43266104161739349365234375">
        <ele>229.399993896484375</ele>
        <time>2026-08-05T06:09:16.000Z</time>
        <extensions>
          <ns3:TrackPointExtension>
            <ns3:hr>96</ns3:hr>
            <ns3:cad>0</ns3:cad>
          </ns3:TrackPointExtension>
        </extensions>
      </trkpt>
      <trkpt lat="43.45762093551456928253173828125" lon="1.432656012475490570068359375">
        <ele>229.399993896484375</ele>
        <time>2026-08-05T06:09:17.000Z</time>
        <extensions>
          <ns3:TrackPointExtension>
            <ns3:hr>95</ns3:hr>
            <ns3:cad>0</ns3:cad>
          </ns3:TrackPointExtension>
        </extensions>
      </trkpt>
      <trkpt lat="43.4576163254678249359130859375" lon="1.4326508156955242156982421875">
        <ele>229.1999969482421875</ele>
        <time>2026-08-05T06:09:18.000Z</time>
        <extensions>
          <ns3:TrackPointExtension>
            <ns3:hr>95</ns3:hr>
            <ns3:cad>0</ns3:cad>
          </ns3:TrackPointExtension>
        </extensions>
      </trkpt>
      <trkpt lat="43.45760802738368511199951171875" lon="1.43264788202941417694091796875">
        <ele>229.1999969482421875</ele>
        <time>2026-08-05T06:09:19.000Z</time>
        <extensions>
          <ns3:TrackPointExtension>
            <ns3:hr>95</ns3:hr>
            <ns3:cad>0</ns3:cad>
          </ns3:TrackPointExtension>
        </extensions>
      </trkpt>
      <trkpt lat="43.45760132186114788055419921875" lon="1.43264184705913066864013671875">
        <ele>229.1999969482421875</ele>
        <time>2026-08-05T06:09:20.000Z</time>
        <extensions>
          <ns3:TrackPointExtension>
            <ns3:hr>95</ns3:hr>
            <ns3:cad>0</ns3:cad>
          </ns3:TrackPointExtension>
        </extensions>
      </trkpt>
      <trkpt lat="43.45759629271924495697021484375" lon="1.432635225355625152587890625">
        <ele>229.1999969482421875</ele>
        <time>2026-08-05T06:09:21.000Z</time>
        <extensions>
          <ns3:TrackPointExtension>
            <ns3:hr>94</ns3:hr>
            <ns3:cad>0</ns3:cad>
          </ns3:TrackPointExtension>
        </extensions>
      </trkpt>
      <trkpt lat="43.45759159885346889495849609375" lon="1.4326320402324199676513671875">
        <ele>229.1999969482421875</ele>
        <time>2026-08-05T06:09:22.000Z</time>
        <extensions>
          <ns3:TrackPointExtension>
            <ns3:hr>93</ns3:hr>
            <ns3:cad>0</ns3:cad>
          </ns3:TrackPointExtension>
        </extensions>
      </trkpt>
      <trkpt lat="43.4575918503105640411376953125" lon="1.43262893892824649810791015625">
        <ele>229.1999969482421875</ele>
        <time>2026-08-05T06:09:23.000Z</time>
        <extensions>
          <ns3:TrackPointExtension>
            <ns3:hr>93</ns3:hr>
            <ns3:cad>0</ns3:cad>
          </ns3:TrackPointExtension>
        </extensions>
      </trkpt>
      <trkpt lat="43.4575911797583103179931640625" lon="1.4326266758143901824951171875">
        <ele>229.1999969482421875</ele>
        <time>2026-08-05T06:09:24.000Z</time>
        <extensions>
          <ns3:TrackPointExtension>
            <ns3:hr>92</ns3:hr>
            <ns3:cad>0</ns3:cad>
          </ns3:TrackPointExtension>
        </extensions>
      </trkpt>
      <trkpt lat="43.45759009011089801788330078125" lon="1.43262223340570926666259765625">
        <ele>229.1999969482421875</ele>
        <time>2026-08-05T06:09:25.000Z</time>
        <extensions>
          <ns3:TrackPointExtension>
            <ns3:hr>91</ns3:hr>
            <ns3:cad>0</ns3:cad>
          </ns3:TrackPointExtension>
        </extensions>
      </trkpt>
      <trkpt lat="43.457590006291866302490234375" lon="1.4326159469783306121826171875">
        <ele>229</ele>
        <time>2026-08-05T06:09:26.000Z</time>
        <extensions>
          <ns3:TrackPointExtension>
            <ns3:hr>92</ns3:hr>
            <ns3:cad>0</ns3:cad>
          </ns3:TrackPointExtension>
        </extensions>
      </trkpt>
      <trkpt lat="43.45758430659770965576171875" lon="1.4326159469783306121826171875">
        <ele>229</ele>
        <time>2026-08-05T06:09:27.000Z</time>
        <extensions>
          <ns3:TrackPointExtension>
            <ns3:hr>94</ns3:hr>
            <ns3:cad>0</ns3:cad>
          </ns3:TrackPointExtension>
        </extensions>
      </trkpt>
      <trkpt lat="43.457581959664821624755859375" lon="1.4326115883886814117431640625">
        <ele>229</ele>
        <time>2026-08-05T06:09:28.000Z</time>
        <extensions>
          <ns3:TrackPointExtension>
            <ns3:hr>95</ns3:hr>
            <ns3:cad>0</ns3:cad>
          </ns3:TrackPointExtension>
        </extensions>
      </trkpt>
      <trkpt lat="43.45757852308452129364013671875" lon="1.4326068945229053497314453125">
        <ele>228.8000030517578125</ele>
        <time>2026-08-05T06:09:29.000Z</time>
        <extensions>
          <ns3:TrackPointExtension>
            <ns3:hr>95</ns3:hr>
            <ns3:cad>0</ns3:cad>
          </ns3:TrackPointExtension>
        </extensions>
      </trkpt>
      <trkpt lat="43.45757449977099895477294921875" lon="1.432605050504207611083984375">
        <ele>228.8000030517578125</ele>
        <time>2026-08-05T06:09:30.000Z</time>
        <extensions>
          <ns3:TrackPointExtension>
            <ns3:hr>95</ns3:hr>
            <ns3:cad>0</ns3:cad>
          </ns3:TrackPointExtension>
        </extensions>
      </trkpt>
      <trkpt lat="43.45758036710321903228759765625" lon="1.43260295502841472625732421875">
        <ele>228.8000030517578125</ele>
        <time>2026-08-05T06:09:31.000Z</time>
        <extensions>
          <ns3:TrackPointExtension>
            <ns3:hr>95</ns3:hr>
            <ns3:cad>0</ns3:cad>
          </ns3:TrackPointExtension>
        </extensions>
      </trkpt>
      <trkpt lat="43.45757785253226757049560546875" lon="1.432615779340267181396484375">
        <ele>228.8000030517578125</ele>
        <time>2026-08-05T06:09:32.000Z</time>
        <extensions>
          <ns3:TrackPointExtension>
            <ns3:hr>95</ns3:hr>
            <ns3:cad>0</ns3:cad>
          </ns3:TrackPointExtension>
        </extensions>
      </trkpt>
      <trkpt lat="43.45757835544645786285400390625" lon="1.43261552788317203521728515625">
        <ele>229</ele>
        <time>2026-08-05T06:09:33.000Z</time>
        <extensions>
          <ns3:TrackPointExtension>
            <ns3:hr>95</ns3:hr>
            <ns3:cad>0</ns3:cad>
          </ns3:TrackPointExtension>
        </extensions>
      </trkpt>
      <trkpt lat="43.45757785253226757049560546875" lon="1.43261502496898174285888671875">
        <ele>229</ele>
        <time>2026-08-05T06:09:34.000Z</time>
        <extensions>
          <ns3:TrackPointExtension>
            <ns3:hr>94</ns3:hr>
            <ns3:cad>0</ns3:cad>
          </ns3:TrackPointExtension>
        </extensions>
      </trkpt>
      <trkpt lat="43.457577936351299285888671875" lon="1.43261502496898174285888671875">
        <ele>229</ele>
        <time>2026-08-05T06:09:35.000Z</time>
        <extensions>
          <ns3:TrackPointExtension>
            <ns3:hr>94</ns3:hr>
            <ns3:cad>0</ns3:cad>
          </ns3:TrackPointExtension>
        </extensions>
      </trkpt>
      <trkpt lat="43.457577936351299285888671875" lon="1.43261502496898174285888671875">
        <ele>229</ele>
        <time>2026-08-05T06:09:36.000Z</time>
        <extensions>
          <ns3:TrackPointExtension>
            <ns3:hr>94</ns3:hr>
            <ns3:cad>0</ns3:cad>
          </ns3:TrackPointExtension>
        </extensions>
      </trkpt>
      <trkpt lat="43.457577936351299285888671875" lon="1.43261502496898174285888671875">
        <ele>229</ele>
        <time>2026-08-05T06:09:37.000Z</time>
        <extensions>
          <ns3:TrackPointExtension>
            <ns3:hr>93</ns3:hr>
            <ns3:cad>0</ns3:cad>
          </ns3:TrackPointExtension>
        </extensions>
      </trkpt>
      <trkpt lat="43.457577936351299285888671875" lon="1.43261502496898174285888671875">
        <ele>229</ele>
        <time>2026-08-05T06:09:38.000Z</time>
        <extensions>
          <ns3:TrackPointExtension>
            <ns3:hr>93</ns3:hr>
            <ns3:cad>0</ns3:cad>
          </ns3:TrackPointExtension>
        </extensions>
      </trkpt>
      <trkpt lat="43.457577936351299285888671875" lon="1.43261502496898174285888671875">
        <ele>229</ele>
        <time>2026-08-05T06:09:39.000Z</time>
        <extensions>
          <ns3:TrackPointExtension>
            <ns3:hr>93</ns3:hr>
            <ns3:cad>0</ns3:cad>
          </ns3:TrackPointExtension>
        </extensions>
      </trkpt>
      <trkpt lat="43.457577936351299285888671875" lon="1.43261502496898174285888671875">
        <ele>229</ele>
        <time>2026-08-05T06:09:40.000Z</time>
        <extensions>
          <ns3:TrackPointExtension>
            <ns3:hr>93</ns3:hr>
            <ns3:cad>0</ns3:cad>
          </ns3:TrackPointExtension>
        </extensions>
      </trkpt>
      <trkpt lat="43.457577936351299285888671875" lon="1.43261502496898174285888671875">
        <ele>229</ele>
        <time>2026-08-05T06:09:41.000Z</time>
        <extensions>
          <ns3:TrackPointExtension>
            <ns3:hr>93</ns3:hr>
            <ns3:cad>0</ns3:cad>
          </ns3:TrackPointExtension>
        </extensions>
      </trkpt>
      <trkpt lat="43.457577936351299285888671875" lon="1.43261502496898174285888671875">
        <ele>229</ele>
        <time>2026-08-05T06:09:42.000Z</time>
        <extensions>
          <ns3:TrackPointExtension>
            <ns3:hr>92</ns3:hr>
            <ns3:cad>0</ns3:cad>
          </ns3:TrackPointExtension>
        </extensions>
      </trkpt>
      <trkpt lat="43.457577936351299285888671875" lon="1.43261502496898174285888671875">
        <ele>228.8000030517578125</ele>
        <time>2026-08-05T06:09:43.000Z</time>
        <extensions>
          <ns3:TrackPointExtension>
            <ns3:hr>92</ns3:hr>
            <ns3:cad>0</ns3:cad>
          </ns3:TrackPointExtension>
        </extensions>
      </trkpt>
      <trkpt lat="43.457577936351299285888671875" lon="1.43261502496898174285888671875">
        <ele>228.8000030517578125</ele>
        <time>2026-08-05T06:09:44.000Z</time>
        <extensions>
          <ns3:TrackPointExtension>
            <ns3:hr>91</ns3:hr>
            <ns3:cad>0</ns3:cad>
          </ns3:TrackPointExtension>
        </extensions>
      </trkpt>
      <trkpt lat="43.457577936351299285888671875" lon="1.43261502496898174285888671875">
        <ele>228.8000030517578125</ele>
        <time>2026-08-05T06:09:45.000Z</time>
        <extensions>
          <ns3:TrackPointExtension>
            <ns3:hr>91</ns3:hr>
            <ns3:cad>0</ns3:cad>
          </ns3:TrackPointExtension>
        </extensions>
      </trkpt>
      <trkpt lat="43.457577936351299285888671875" lon="1.43261502496898174285888671875">
        <ele>228.8000030517578125</ele>
        <time>2026-08-05T06:09:46.000Z</time>
        <extensions>
          <ns3:TrackPointExtension>
            <ns3:hr>91</ns3:hr>
            <ns3:cad>0</ns3:cad>
          </ns3:TrackPointExtension>
        </extensions>
      </trkpt>
      <trkpt lat="43.457577936351299285888671875" lon="1.43261502496898174285888671875">
        <ele>228.8000030517578125</ele>
        <time>2026-08-05T06:09:47.000Z</time>
        <extensions>
          <ns3:TrackPointExtension>
            <ns3:hr>91</ns3:hr>
            <ns3:cad>0</ns3:cad>
          </ns3:TrackPointExtension>
        </extensions>
      </trkpt>
      <trkpt lat="43.457577936351299285888671875" lon="1.43261502496898174285888671875">
        <ele>228.8000030517578125</ele>
        <time>2026-08-05T06:09:48.000Z</time>
        <extensions>
          <ns3:TrackPointExtension>
            <ns3:hr>91</ns3:hr>
            <ns3:cad>0</ns3:cad>
          </ns3:TrackPointExtension>
        </extensions>
      </trkpt>
      <trkpt lat="43.457577936351299285888671875" lon="1.43261502496898174285888671875">
        <ele>228.8000030517578125</ele>
        <time>2026-08-05T06:09:49.000Z</time>
        <extensions>
          <ns3:TrackPointExtension>
            <ns3:hr>91</ns3:hr>
            <ns3:cad>0</ns3:cad>
          </ns3:TrackPointExtension>
        </extensions>
      </trkpt>
      <trkpt lat="43.457577936351299285888671875" lon="1.43261502496898174285888671875">
        <ele>228.8000030517578125</ele>
        <time>2026-08-05T06:09:50.000Z</time>
        <extensions>
          <ns3:TrackPointExtension>
            <ns3:hr>91</ns3:hr>
            <ns3:cad>0</ns3:cad>
          </ns3:TrackPointExtension>
        </extensions>
      </trkpt>
      <trkpt lat="43.457577936351299285888671875" lon="1.43261502496898174285888671875">
        <ele>228.8000030517578125</ele>
        <time>2026-08-05T06:09:51.000Z</time>
        <extensions>
          <ns3:TrackPointExtension>
            <ns3:hr>91</ns3:hr>
            <ns3:cad>0</ns3:cad>
          </ns3:TrackPointExtension>
        </extensions>
      </trkpt>
      <trkpt lat="43.457577936351299285888671875" lon="1.43261502496898174285888671875">
        <ele>228.8000030517578125</ele>
        <time>2026-08-05T06:09:52.000Z</time>
        <extensions>
          <ns3:TrackPointExtension>
            <ns3:hr>92</ns3:hr>
            <ns3:cad>0</ns3:cad>
          </ns3:TrackPointExtension>
        </extensions>
      </trkpt>
      <trkpt lat="43.457577936351299285888671875" lon="1.43261502496898174285888671875">
        <ele>228.8000030517578125</ele>
        <time>2026-08-05T06:09:53.000Z</time>
        <extensions>
          <ns3:TrackPointExtension>
            <ns3:hr>92</ns3:hr>
            <ns3:cad>0</ns3:cad>
          </ns3:TrackPointExtension>
        </extensions>
      </trkpt>
      <trkpt lat="43.457577936351299285888671875" lon="1.43261502496898174285888671875">
        <ele>228.8000030517578125</ele>
        <time>2026-08-05T06:09:54.000Z</time>
        <extensions>
          <ns3:TrackPointExtension>
            <ns3:hr>92</ns3:hr>
            <ns3:cad>0</ns3:cad>
          </ns3:TrackPointExtension>
        </extensions>
      </trkpt>
      <trkpt lat="43.457577936351299285888671875" lon="1.43261502496898174285888671875">
        <ele>228.8000030517578125</ele>
        <time>2026-08-05T06:09:55.000Z</time>
        <extensions>
          <ns3:TrackPointExtension>
            <ns3:hr>92</ns3:hr>
            <ns3:cad>0</ns3:cad>
          </ns3:TrackPointExtension>
        </extensions>
      </trkpt>
      <trkpt lat="43.457577936351299285888671875" lon="1.43261502496898174285888671875">
        <ele>228.8000030517578125</ele>
        <time>2026-08-05T06:09:56.000Z</time>
        <extensions>
          <ns3:TrackPointExtension>
            <ns3:hr>92</ns3:hr>
            <ns3:cad>0</ns3:cad>
          </ns3:TrackPointExtension>
        </extensions>
      </trkpt>
      <trkpt lat="43.457577936351299285888671875" lon="1.43261502496898174285888671875">
        <ele>228.8000030517578125</ele>
        <time>2026-08-05T06:09:57.000Z</time>
        <extensions>
          <ns3:TrackPointExtension>
            <ns3:hr>91</ns3:hr>
            <ns3:cad>0</ns3:cad>
          </ns3:TrackPointExtension>
        </extensions>
      </trkpt>
      <trkpt lat="43.457577936351299285888671875" lon="1.43261502496898174285888671875">
        <ele>228.8000030517578125</ele>
        <time>2026-08-05T06:09:58.000Z</time>
        <extensions>
          <ns3:TrackPointExtension>
            <ns3:hr>91</ns3:hr>
            <ns3:cad>0</ns3:cad>
          </ns3:TrackPointExtension>
        </extensions>
      </trkpt>
      <trkpt lat="43.457577936351299285888671875" lon="1.43261502496898174285888671875">
        <ele>228.8000030517578125</ele>
        <time>2026-08-05T06:09:59.000Z</time>
        <extensions>
          <ns3:TrackPointExtension>
            <ns3:hr>90</ns3:hr>
            <ns3:cad>0</ns3:cad>
          </ns3:TrackPointExtension>
        </extensions>
      </trkpt>
      <trkpt lat="43.457577936351299285888671875" lon="1.43261502496898174285888671875">
        <ele>228.8000030517578125</ele>
        <time>2026-08-05T06:10:00.000Z</time>
        <extensions>
          <ns3:TrackPointExtension>
            <ns3:hr>90</ns3:hr>
            <ns3:cad>0</ns3:cad>
          </ns3:TrackPointExtension>
        </extensions>
      </trkpt>
      <trkpt lat="43.457577936351299285888671875" lon="1.43261502496898174285888671875">
        <ele>228.8000030517578125</ele>
        <time>2026-08-05T06:10:01.000Z</time>
        <extensions>
          <ns3:TrackPointExtension>
            <ns3:hr>88</ns3:hr>
            <ns3:cad>0</ns3:cad>
          </ns3:TrackPointExtension>
        </extensions>
      </trkpt>
      <trkpt lat="43.457577936351299285888671875" lon="1.43261502496898174285888671875">
        <ele>228.8000030517578125</ele>
        <time>2026-08-05T06:10:02.000Z</time>
        <extensions>
          <ns3:TrackPointExtension>
            <ns3:hr>86</ns3:hr>
            <ns3:cad>0</ns3:cad>
          </ns3:TrackPointExtension>
        </extensions>
      </trkpt>
      <trkpt lat="43.457577936351299285888671875" lon="1.43261502496898174285888671875">
        <ele>228.8000030517578125</ele>
        <time>2026-08-05T06:10:03.000Z</time>
        <extensions>
          <ns3:TrackPointExtension>
            <ns3:hr>83</ns3:hr>
            <ns3:cad>0</ns3:cad>
          </ns3:TrackPointExtension>
        </extensions>
      </trkpt>
      <trkpt lat="43.457577936351299285888671875" lon="1.43261502496898174285888671875">
        <ele>228.8000030517578125</ele>
        <time>2026-08-05T06:10:04.000Z</time>
        <extensions>
          <ns3:TrackPointExtension>
            <ns3:hr>80</ns3:hr>
            <ns3:cad>0</ns3:cad>
          </ns3:TrackPointExtension>
        </extensions>
      </trkpt>
      <trkpt lat="43.45757366158068180084228515625" lon="1.43260999582707881927490234375">
        <ele>228.8000030517578125</ele>
        <time>2026-08-05T06:10:05.000Z</time>
        <extensions>
          <ns3:TrackPointExtension>
            <ns3:hr>80</ns3:hr>
            <ns3:cad>0</ns3:cad>
          </ns3:TrackPointExtension>
        </extensions>
      </trkpt>
      <trkpt lat="43.457574583590030670166015625" lon="1.43260932527482509613037109375">
        <ele>228.8000030517578125</ele>
        <time>2026-08-05T06:10:06.000Z</time>
        <extensions>
          <ns3:TrackPointExtension>
            <ns3:hr>77</ns3:hr>
            <ns3:cad>0</ns3:cad>
          </ns3:TrackPointExtension>
        </extensions>
      </trkpt>
      <trkpt lat="43.45757533796131610870361328125" lon="1.4326067268848419189453125">
        <ele>228.8000030517578125</ele>
        <time>2026-08-05T06:10:07.000Z</time>
        <extensions>
          <ns3:TrackPointExtension>
            <ns3:hr>73</ns3:hr>
            <ns3:cad>0</ns3:cad>
          </ns3:TrackPointExtension>
        </extensions>
      </trkpt>
      <trkpt lat="43.4575784392654895782470703125" lon="1.4326065592467784881591796875">
        <ele>228.8000030517578125</ele>
        <time>2026-08-05T06:10:08.000Z</time>
        <extensions>
          <ns3:TrackPointExtension>
            <ns3:hr>71</ns3:hr>
            <ns3:cad>0</ns3:cad>
          </ns3:TrackPointExtension>
        </extensions>
      </trkpt>
      <trkpt lat="43.4575836360454559326171875" lon="1.4326109178364276885986328125">
        <ele>228.8000030517578125</ele>
        <time>2026-08-05T06:10:09.000Z</time>
        <extensions>
          <ns3:TrackPointExtension>
            <ns3:hr>71</ns3:hr>
            <ns3:cad>0</ns3:cad>
          </ns3:TrackPointExtension>
        </extensions>
      </trkpt>
      <trkpt lat="43.45758497714996337890625" lon="1.43262206576764583587646484375">
        <ele>228.8000030517578125</ele>
        <time>2026-08-05T06:10:10.000Z</time>
        <extensions>
          <ns3:TrackPointExtension>
            <ns3:hr>71</ns3:hr>
            <ns3:cad>0</ns3:cad>
          </ns3:TrackPointExtension>
        </extensions>
      </trkpt>
      <trkpt lat="43.4575784392654895782470703125" lon="1.432627178728580474853515625">
        <ele>228.8000030517578125</ele>
        <time>2026-08-05T06:10:11.000Z</time>
        <extensions>
          <ns3:TrackPointExtension>
            <ns3:hr>71</ns3:hr>
            <ns3:cad>0</ns3:cad>
          </ns3:TrackPointExtension>
        </extensions>
      </trkpt>
      <trkpt lat="43.457577936351299285888671875" lon="1.43261502496898174285888671875">
        <ele>228.8000030517578125</ele>
        <time>2026-08-05T06:10:12.000Z</time>
        <extensions>
          <ns3:TrackPointExtension>
            <ns3:hr>71</ns3:hr>
            <ns3:cad>0</ns3:cad>
          </ns3:TrackPointExtension>
        </extensions>
      </trkpt>
      <trkpt lat="43.457577936351299285888671875" lon="1.43261502496898174285888671875">
        <ele>228.8000030517578125</ele>
        <time>2026-08-05T06:10:13.000Z</time>
        <extensions>
          <ns3:TrackPointExtension>
            <ns3:hr>71</ns3:hr>
            <ns3:cad>0</ns3:cad>
          </ns3:TrackPointExtension>
        </extensions>
      </trkpt>
      <trkpt lat="43.45758053474128246307373046875" lon="1.4326323755085468292236328125">
        <ele>228.8000030517578125</ele>
        <time>2026-08-05T06:10:14.000Z</time>
        <extensions>
          <ns3:TrackPointExtension>
            <ns3:hr>71</ns3:hr>
            <ns3:cad>0</ns3:cad>
          </ns3:TrackPointExtension>
        </extensions>
      </trkpt>
      <trkpt lat="43.45758489333093166351318359375" lon="1.4326441101729869842529296875">
        <ele>228.8000030517578125</ele>
        <time>2026-08-05T06:10:15.000Z</time>
        <extensions>
          <ns3:TrackPointExtension>
            <ns3:hr>71</ns3:hr>
            <ns3:cad>0</ns3:cad>
          </ns3:TrackPointExtension>
        </extensions>
      </trkpt>
      <trkpt lat="43.4575868211686611175537109375" lon="1.4326548390090465545654296875">
        <ele>229</ele>
        <time>2026-08-05T06:10:16.000Z</time>
        <extensions>
          <ns3:TrackPointExtension>
            <ns3:hr>71</ns3:hr>
            <ns3:cad>0</ns3:cad>
          </ns3:TrackPointExtension>
        </extensions>
      </trkpt>
      <trkpt lat="43.45759159885346889495849609375" lon="1.4326659031212329864501953125">
        <ele>229</ele>
        <time>2026-08-05T06:10:17.000Z</time>
        <extensions>
          <ns3:TrackPointExtension>
            <ns3:hr>71</ns3:hr>
            <ns3:cad>0</ns3:cad>
          </ns3:TrackPointExtension>
        </extensions>
      </trkpt>
      <trkpt lat="43.45759210176765918731689453125" lon="1.43267269246280193328857421875">
        <ele>229</ele>
        <time>2026-08-05T06:10:18.000Z</time>
        <extensions>
          <ns3:TrackPointExtension>
            <ns3:hr>71</ns3:hr>
            <ns3:cad>0</ns3:cad>
          </ns3:TrackPointExtension>
        </extensions>
      </trkpt>
      <trkpt lat="43.4575998969376087188720703125" lon="1.43267847597599029541015625">
        <ele>229</ele>
        <time>2026-08-05T06:10:19.000Z</time>
        <extensions>
          <ns3:TrackPointExtension>
            <ns3:hr>71</ns3:hr>
            <ns3:cad>0</ns3:cad>
          </ns3:TrackPointExtension>
        </extensions>
      </trkpt>
      <trkpt lat="43.45760467462241649627685546875" lon="1.43268325366079807281494140625">
        <ele>229</ele>
        <time>2026-08-05T06:10:20.000Z</time>
        <extensions>
          <ns3:TrackPointExtension>
            <ns3:hr>71</ns3:hr>
            <ns3:cad>0</ns3:cad>
          </ns3:TrackPointExtension>
        </extensions>
      </trkpt>
      <trkpt lat="43.457608781754970550537109375" lon="1.43268895335495471954345703125">
        <ele>229</ele>
        <time>2026-08-05T06:10:21.000Z</time>
        <extensions>
          <ns3:TrackPointExtension>
            <ns3:hr>72</ns3:hr>
            <ns3:cad>40</ns3:cad>
          </ns3:TrackPointExtension>
        </extensions>
      </trkpt>
      <trkpt lat="43.45760752446949481964111328125" lon="1.43268878571689128875732421875">
        <ele>229</ele>
        <time>2026-08-05T06:10:22.000Z</time>
        <extensions>
          <ns3:TrackPointExtension>
            <ns3:hr>71</ns3:hr>
            <ns3:cad>40</ns3:cad>
          </ns3:TrackPointExtension>
        </extensions>
      </trkpt>
      <trkpt lat="43.45760844647884368896484375" lon="1.43269121646881103515625">
        <ele>229</ele>
        <time>2026-08-05T06:10:23.000Z</time>
        <extensions>
          <ns3:TrackPointExtension>
            <ns3:hr>71</ns3:hr>
            <ns3:cad>40</ns3:cad>
          </ns3:TrackPointExtension>
        </extensions>
      </trkpt>
      <trkpt lat="43.45761112868785858154296875" lon="1.43269314430654048919677734375">
        <ele>229</ele>
        <time>2026-08-05T06:10:24.000Z</time>
        <extensions>
          <ns3:TrackPointExtension>
            <ns3:hr>71</ns3:hr>
            <ns3:cad>0</ns3:cad>
          </ns3:TrackPointExtension>
        </extensions>
      </trkpt>
      <trkpt lat="43.45761154778301715850830078125" lon="1.43269146792590618133544921875">
        <ele>229</ele>
        <time>2026-08-05T06:10:25.000Z</time>
        <extensions>
          <ns3:TrackPointExtension>
            <ns3:hr>71</ns3:hr>
            <ns3:cad>0</ns3:cad>
          </ns3:TrackPointExtension>
        </extensions>
      </trkpt>
      <trkpt lat="43.4576116316020488739013671875" lon="1.43268920481204986572265625">
        <ele>229</ele>
        <time>2026-08-05T06:10:26.000Z</time>
        <extensions>
          <ns3:TrackPointExtension>
            <ns3:hr>71</ns3:hr>
            <ns3:cad>0</ns3:cad>
          </ns3:TrackPointExtension>
        </extensions>
      </trkpt>
      <trkpt lat="43.45761112868785858154296875" lon="1.43268543295562267303466796875">
        <ele>229</ele>
        <time>2026-08-05T06:10:27.000Z</time>
        <extensions>
          <ns3:TrackPointExtension>
            <ns3:hr>71</ns3:hr>
            <ns3:cad>0</ns3:cad>
          </ns3:TrackPointExtension>
        </extensions>
      </trkpt>
      <trkpt lat="43.45761246979236602783203125" lon="1.43268157728016376495361328125">
        <ele>229</ele>
        <time>2026-08-05T06:10:28.000Z</time>
        <extensions>
          <ns3:TrackPointExtension>
            <ns3:hr>71</ns3:hr>
            <ns3:cad>0</ns3:cad>
          </ns3:TrackPointExtension>
        </extensions>
      </trkpt>
      <trkpt lat="43.4576149843633174896240234375" lon="1.432684175670146942138671875">
        <ele>229</ele>
        <time>2026-08-05T06:10:29.000Z</time>
        <extensions>
          <ns3:TrackPointExtension>
            <ns3:hr>71</ns3:hr>
            <ns3:cad>0</ns3:cad>
          </ns3:TrackPointExtension>
        </extensions>
      </trkpt>
      <trkpt lat="43.45761716365814208984375" lon="1.43268392421305179595947265625">
        <ele>229</ele>
        <time>2026-08-05T06:10:30.000Z</time>
        <extensions>
          <ns3:TrackPointExtension>
            <ns3:hr>72</ns3:hr>
            <ns3:cad>0</ns3:cad>
          </ns3:TrackPointExtension>
        </extensions>
      </trkpt>
      <trkpt lat="43.45761892385780811309814453125" lon="1.432684846222400665283203125">
        <ele>229</ele>
        <time>2026-08-05T06:10:31.000Z</time>
        <extensions>
          <ns3:TrackPointExtension>
            <ns3:hr>72</ns3:hr>
            <ns3:cad>0</ns3:cad>
          </ns3:TrackPointExtension>
        </extensions>
      </trkpt>
      <trkpt lat="43.4576190076768398284912109375" lon="1.43268476240336894989013671875">
        <ele>229</ele>
        <time>2026-08-05T06:10:32.000Z</time>
        <extensions>
          <ns3:TrackPointExtension>
            <ns3:hr>72</ns3:hr>
            <ns3:cad>0</ns3:cad>
          </ns3:TrackPointExtension>
        </extensions>
      </trkpt>
      <trkpt lat="43.4576190076768398284912109375" lon="1.43268476240336894989013671875">
        <ele>229</ele>
        <time>2026-08-05T06:10:33.000Z</time>
        <extensions>
          <ns3:TrackPointExtension>
            <ns3:hr>72</ns3:hr>
            <ns3:cad>0</ns3:cad>
          </ns3:TrackPointExtension>
        </extensions>
      </trkpt>
      <trkpt lat="43.4576190076768398284912109375" lon="1.43268476240336894989013671875">
        <ele>229</ele>
        <time>2026-08-05T06:10:34.000Z</time>
        <extensions>
          <ns3:TrackPointExtension>
            <ns3:hr>73</ns3:hr>
            <ns3:cad>0</ns3:cad>
          </ns3:TrackPointExtension>
        </extensions>
      </trkpt>
      <trkpt lat="43.4576190076768398284912109375" lon="1.43268476240336894989013671875">
        <ele>229</ele>
        <time>2026-08-05T06:10:35.000Z</time>
        <extensions>
          <ns3:TrackPointExtension>
            <ns3:hr>74</ns3:hr>
            <ns3:cad>0</ns3:cad>
          </ns3:TrackPointExtension>
        </extensions>
      </trkpt>
      <trkpt lat="43.4576190076768398284912109375" lon="1.43268476240336894989013671875">
        <ele>229.1999969482421875</ele>
        <time>2026-08-05T06:10:36.000Z</time>
        <extensions>
          <ns3:TrackPointExtension>
            <ns3:hr>73</ns3:hr>
            <ns3:cad>0</ns3:cad>
          </ns3:TrackPointExtension>
        </extensions>
      </trkpt>
      <trkpt lat="43.4576190076768398284912109375" lon="1.43268476240336894989013671875">
        <ele>229</ele>
        <time>2026-08-05T06:10:37.000Z</time>
        <extensions>
          <ns3:TrackPointExtension>
            <ns3:hr>73</ns3:hr>
            <ns3:cad>0</ns3:cad>
          </ns3:TrackPointExtension>
        </extensions>
      </trkpt>
      <trkpt lat="43.4576190076768398284912109375" lon="1.43268476240336894989013671875">
        <ele>229.1999969482421875</ele>
        <time>2026-08-05T06:10:38.000Z</time>
        <extensions>
          <ns3:TrackPointExtension>
            <ns3:hr>73</ns3:hr>
            <ns3:cad>0</ns3:cad>
          </ns3:TrackPointExtension>
        </extensions>
      </trkpt>
      <trkpt lat="43.4576190076768398284912109375" lon="1.43268476240336894989013671875">
        <ele>229.1999969482421875</ele>
        <time>2026-08-05T06:10:39.000Z</time>
        <extensions>
          <ns3:TrackPointExtension>
            <ns3:hr>73</ns3:hr>
            <ns3:cad>0</ns3:cad>
          </ns3:TrackPointExtension>
        </extensions>
      </trkpt>
      <trkpt lat="43.4576190076768398284912109375" lon="1.43268476240336894989013671875">
        <ele>229.1999969482421875</ele>
        <time>2026-08-05T06:10:40.000Z</time>
        <extensions>
          <ns3:TrackPointExtension>
            <ns3:hr>73</ns3:hr>
            <ns3:cad>0</ns3:cad>
          </ns3:TrackPointExtension>
        </extensions>
      </trkpt>
      <trkpt lat="43.45762076787650585174560546875" lon="1.43268275074660778045654296875">
        <ele>229.1999969482421875</ele>
        <time>2026-08-05T06:10:41.000Z</time>
        <extensions>
          <ns3:TrackPointExtension>
            <ns3:hr>73</ns3:hr>
            <ns3:cad>0</ns3:cad>
          </ns3:TrackPointExtension>
        </extensions>
      </trkpt>
      <trkpt lat="43.4576190076768398284912109375" lon="1.43268476240336894989013671875">
        <ele>229.1999969482421875</ele>
        <time>2026-08-05T06:10:42.000Z</time>
        <extensions>
          <ns3:TrackPointExtension>
            <ns3:hr>73</ns3:hr>
            <ns3:cad>0</ns3:cad>
          </ns3:TrackPointExtension>
        </extensions>
      </trkpt>
      <trkpt lat="43.4576190076768398284912109375" lon="1.43268476240336894989013671875">
        <ele>229.1999969482421875</ele>
        <time>2026-08-05T06:10:43.000Z</time>
        <extensions>
          <ns3:TrackPointExtension>
            <ns3:hr>73</ns3:hr>
            <ns3:cad>0</ns3:cad>
          </ns3:TrackPointExtension>
        </extensions>
      </trkpt>
      <trkpt lat="43.4576190076768398284912109375" lon="1.43268476240336894989013671875">
        <ele>229.1999969482421875</ele>
        <time>2026-08-05T06:10:44.000Z</time>
        <extensions>
          <ns3:TrackPointExtension>
            <ns3:hr>72</ns3:hr>
            <ns3:cad>0</ns3:cad>
          </ns3:TrackPointExtension>
        </extensions>
      </trkpt>
      <trkpt lat="43.4576190076768398284912109375" lon="1.43268476240336894989013671875">
        <ele>229.1999969482421875</ele>
        <time>2026-08-05T06:10:45.000Z</time>
        <extensions>
          <ns3:TrackPointExtension>
            <ns3:hr>73</ns3:hr>
            <ns3:cad>0</ns3:cad>
          </ns3:TrackPointExtension>
        </extensions>
      </trkpt>
      <trkpt lat="43.4576190076768398284912109375" lon="1.43268476240336894989013671875">
        <ele>229.1999969482421875</ele>
        <time>2026-08-05T06:10:46.000Z</time>
        <extensions>
          <ns3:TrackPointExtension>
            <ns3:hr>72</ns3:hr>
            <ns3:cad>0</ns3:cad>
          </ns3:TrackPointExtension>
        </extensions>
      </trkpt>
      <trkpt lat="43.45762479119002819061279296875" lon="1.43267990089952945709228515625">
        <ele>229.1999969482421875</ele>
        <time>2026-08-05T06:10:47.000Z</time>
        <extensions>
          <ns3:TrackPointExtension>
            <ns3:hr>72</ns3:hr>
            <ns3:cad>0</ns3:cad>
          </ns3:TrackPointExtension>
        </extensions>
      </trkpt>
      <trkpt lat="43.4576277248561382293701171875" lon="1.43269046209752559661865234375">
        <ele>229</ele>
        <time>2026-08-05T06:10:48.000Z</time>
        <extensions>
          <ns3:TrackPointExtension>
            <ns3:hr>71</ns3:hr>
            <ns3:cad>0</ns3:cad>
          </ns3:TrackPointExtension>
        </extensions>
      </trkpt>
      <trkpt lat="43.4576283954083919525146484375" lon="1.4327061362564563751220703125">
        <ele>229</ele>
        <time>2026-08-05T06:10:49.000Z</time>
        <extensions>
          <ns3:TrackPointExtension>
            <ns3:hr>71</ns3:hr>
            <ns3:cad>0</ns3:cad>
          </ns3:TrackPointExtension>
        </extensions>
      </trkpt>
      <trkpt lat="43.4576297365128993988037109375" lon="1.43271829001605510711669921875">
        <ele>229</ele>
        <time>2026-08-05T06:10:50.000Z</time>
        <extensions>
          <ns3:TrackPointExtension>
            <ns3:hr>70</ns3:hr>
            <ns3:cad>0</ns3:cad>
          </ns3:TrackPointExtension>
        </extensions>
      </trkpt>
      <trkpt lat="43.4576320834457874298095703125" lon="1.43273337744176387786865234375">
        <ele>229</ele>
        <time>2026-08-05T06:10:51.000Z</time>
        <extensions>
          <ns3:TrackPointExtension>
            <ns3:hr>68</ns3:hr>
            <ns3:cad>0</ns3:cad>
          </ns3:TrackPointExtension>
        </extensions>
      </trkpt>
      <trkpt lat="43.45763149671256542205810546875" lon="1.43274779431521892547607421875">
        <ele>229</ele>
        <time>2026-08-05T06:10:52.000Z</time>
        <extensions>
          <ns3:TrackPointExtension>
            <ns3:hr>68</ns3:hr>
            <ns3:cad>0</ns3:cad>
          </ns3:TrackPointExtension>
        </extensions>
      </trkpt>
      <trkpt lat="43.45763267017900943756103515625" lon="1.43276288174092769622802734375">
        <ele>229</ele>
        <time>2026-08-05T06:10:53.000Z</time>
        <extensions>
          <ns3:TrackPointExtension>
            <ns3:hr>68</ns3:hr>
            <ns3:cad>0</ns3:cad>
          </ns3:TrackPointExtension>
        </extensions>
      </trkpt>
      <trkpt lat="43.457636274397373199462890625" lon="1.4327798970043659210205078125">
        <ele>229</ele>
        <time>2026-08-05T06:10:54.000Z</time>
        <extensions>
          <ns3:TrackPointExtension>
            <ns3:hr>68</ns3:hr>
            <ns3:cad>48</ns3:cad>
          </ns3:TrackPointExtension>
        </extensions>
      </trkpt>
      <trkpt lat="43.45764155499637126922607421875" lon="1.432792805135250091552734375">
        <ele>229</ele>
        <time>2026-08-05T06:10:55.000Z</time>
        <extensions>
          <ns3:TrackPointExtension>
            <ns3:hr>68</ns3:hr>
            <ns3:cad>48</ns3:cad>
          </ns3:TrackPointExtension>
        </extensions>
      </trkpt>
      <trkpt lat="43.45764524303376674652099609375" lon="1.43280847929418087005615234375">
        <ele>229</ele>
        <time>2026-08-05T06:10:56.000Z</time>
        <extensions>
          <ns3:TrackPointExtension>
            <ns3:hr>67</ns3:hr>
            <ns3:cad>49</ns3:cad>
          </ns3:TrackPointExtension>
        </extensions>
      </trkpt>
      <trkpt lat="43.457648344337940216064453125" lon="1.4328254945576190948486328125">
        <ele>229</ele>
        <time>2026-08-05T06:10:57.000Z</time>
        <extensions>
          <ns3:TrackPointExtension>
            <ns3:hr>67</ns3:hr>
            <ns3:cad>49</ns3:cad>
          </ns3:TrackPointExtension>
        </extensions>
      </trkpt>
      <trkpt lat="43.4576525352895259857177734375" lon="1.43284150399267673492431640625">
        <ele>229</ele>
        <time>2026-08-05T06:10:58.000Z</time>
        <extensions>
          <ns3:TrackPointExtension>
            <ns3:hr>67</ns3:hr>
            <ns3:cad>49</ns3:cad>
          </ns3:TrackPointExtension>
        </extensions>
      </trkpt>
      <trkpt lat="43.4576572291553020477294921875" lon="1.43285742960870265960693359375">
        <ele>229</ele>
        <time>2026-08-05T06:10:59.000Z</time>
        <extensions>
          <ns3:TrackPointExtension>
            <ns3:hr>68</ns3:hr>
            <ns3:cad>48</ns3:cad>
          </ns3:TrackPointExtension>
        </extensions>
      </trkpt>
      <trkpt lat="43.45765882171690464019775390625" lon="1.4328714273869991302490234375">
        <ele>229</ele>
        <time>2026-08-05T06:11:00.000Z</time>
        <extensions>
          <ns3:TrackPointExtension>
            <ns3:hr>69</ns3:hr>
            <ns3:cad>47</ns3:cad>
          </ns3:TrackPointExtension>
        </extensions>
      </trkpt>
      <trkpt lat="43.45766133628785610198974609375" lon="1.43288743682205677032470703125">
        <ele>229</ele>
        <time>2026-08-05T06:11:01.000Z</time>
        <extensions>
          <ns3:TrackPointExtension>
            <ns3:hr>70</ns3:hr>
            <ns3:cad>47</ns3:cad>
          </ns3:TrackPointExtension>
        </extensions>
      </trkpt>
      <trkpt lat="43.4576689638197422027587890625" lon="1.432896740734577178955078125">
        <ele>228.8000030517578125</ele>
        <time>2026-08-05T06:11:02.000Z</time>
        <extensions>
          <ns3:TrackPointExtension>
            <ns3:hr>70</ns3:hr>
            <ns3:cad>47</ns3:cad>
          </ns3:TrackPointExtension>
        </extensions>
      </trkpt>
      <trkpt lat="43.45767491497099399566650390625" lon="1.4329103194177150726318359375">
        <ele>228.8000030517578125</ele>
        <time>2026-08-05T06:11:03.000Z</time>
        <extensions>
          <ns3:TrackPointExtension>
            <ns3:hr>72</ns3:hr>
            <ns3:cad>47</ns3:cad>
          </ns3:TrackPointExtension>
        </extensions>
      </trkpt>
      <trkpt lat="43.45767860300838947296142578125" lon="1.4329237304627895355224609375">
        <ele>228.8000030517578125</ele>
        <time>2026-08-05T06:11:04.000Z</time>
        <extensions>
          <ns3:TrackPointExtension>
            <ns3:hr>73</ns3:hr>
            <ns3:cad>48</ns3:cad>
          </ns3:TrackPointExtension>
        </extensions>
      </trkpt>
      <trkpt lat="43.45767893828451633453369140625" lon="1.4329337887465953826904296875">
        <ele>228.8000030517578125</ele>
        <time>2026-08-05T06:11:05.000Z</time>
        <extensions>
          <ns3:TrackPointExtension>
            <ns3:hr>73</ns3:hr>
            <ns3:cad>48</ns3:cad>
          </ns3:TrackPointExtension>
        </extensions>
      </trkpt>
      <trkpt lat="43.4576827101409435272216796875" lon="1.4329465292394161224365234375">
        <ele>228.8000030517578125</ele>
        <time>2026-08-05T06:11:06.000Z</time>
        <extensions>
          <ns3:TrackPointExtension>
            <ns3:hr>74</ns3:hr>
            <ns3:cad>47</ns3:cad>
          </ns3:TrackPointExtension>
        </extensions>
      </trkpt>
      <trkpt lat="43.457687906920909881591796875" lon="1.4329599402844905853271484375">
        <ele>228.8000030517578125</ele>
        <time>2026-08-05T06:11:07.000Z</time>
        <extensions>
          <ns3:TrackPointExtension>
            <ns3:hr>74</ns3:hr>
            <ns3:cad>46</ns3:cad>
          </ns3:TrackPointExtension>
        </extensions>
      </trkpt>
      <trkpt lat="43.457693941891193389892578125" lon="1.43297879956662654876708984375">
        <ele>228.8000030517578125</ele>
        <time>2026-08-05T06:11:08.000Z</time>
        <extensions>
          <ns3:TrackPointExtension>
            <ns3:hr>73</ns3:hr>
            <ns3:cad>45</ns3:cad>
          </ns3:TrackPointExtension>
        </extensions>
      </trkpt>
      <trkpt lat="43.45769570209085941314697265625" lon="1.4329948090016841888427734375">
        <ele>228.8000030517578125</ele>
        <time>2026-08-05T06:11:09.000Z</time>
        <extensions>
          <ns3:TrackPointExtension>
            <ns3:hr>73</ns3:hr>
            <ns3:cad>45</ns3:cad>
          </ns3:TrackPointExtension>
        </extensions>
      </trkpt>
      <trkpt lat="43.457696624100208282470703125" lon="1.43300947733223438262939453125">
        <ele>228.8000030517578125</ele>
        <time>2026-08-05T06:11:10.000Z</time>
        <extensions>
          <ns3:TrackPointExtension>
            <ns3:hr>73</ns3:hr>
            <ns3:cad>46</ns3:cad>
          </ns3:TrackPointExtension>
        </extensions>
      </trkpt>
      <trkpt lat="43.45769695937633514404296875" lon="1.433027498424053192138671875">
        <ele>228.8000030517578125</ele>
        <time>2026-08-05T06:11:11.000Z</time>
        <extensions>
          <ns3:TrackPointExtension>
            <ns3:hr>71</ns3:hr>
            <ns3:cad>48</ns3:cad>
          </ns3:TrackPointExtension>
        </extensions>
      </trkpt>
      <trkpt lat="43.4576976299285888671875" lon="1.43304317258298397064208984375">
        <ele>228.8000030517578125</ele>
        <time>2026-08-05T06:11:12.000Z</time>
        <extensions>
          <ns3:TrackPointExtension>
            <ns3:hr>71</ns3:hr>
            <ns3:cad>49</ns3:cad>
          </ns3:TrackPointExtension>
        </extensions>
      </trkpt>
      <trkpt lat="43.4577004797756671905517578125" lon="1.43305742181837558746337890625">
        <ele>228.8000030517578125</ele>
        <time>2026-08-05T06:11:13.000Z</time>
        <extensions>
          <ns3:TrackPointExtension>
            <ns3:hr>70</ns3:hr>
            <ns3:cad>49</ns3:cad>
          </ns3:TrackPointExtension>
        </extensions>
      </trkpt>
      <trkpt lat="43.4577078558504581451416015625" lon="1.4330742694437503814697265625">
        <ele>228.8000030517578125</ele>
        <time>2026-08-05T06:11:14.000Z</time>
        <extensions>
          <ns3:TrackPointExtension>
            <ns3:hr>70</ns3:hr>
            <ns3:cad>49</ns3:cad>
          </ns3:TrackPointExtension>
        </extensions>
      </trkpt>
      <trkpt lat="43.45771062187850475311279296875" lon="1.4330876804888248443603515625">
        <ele>228.8000030517578125</ele>
        <time>2026-08-05T06:11:15.000Z</time>
        <extensions>
          <ns3:TrackPointExtension>
            <ns3:hr>69</ns3:hr>
            <ns3:cad>49</ns3:cad>
          </ns3:TrackPointExtension>
        </extensions>
      </trkpt>
      <trkpt lat="43.45771347172558307647705078125" lon="1.4331014268100261688232421875">
        <ele>228.8000030517578125</ele>
        <time>2026-08-05T06:11:16.000Z</time>
        <extensions>
          <ns3:TrackPointExtension>
            <ns3:hr>69</ns3:hr>
            <ns3:cad>50</ns3:cad>
          </ns3:TrackPointExtension>
        </extensions>
      </trkpt>
      <trkpt lat="43.45771615393459796905517578125" lon="1.4331131614744663238525390625">
        <ele>228.8000030517578125</ele>
        <time>2026-08-05T06:11:17.000Z</time>
        <extensions>
          <ns3:TrackPointExtension>
            <ns3:hr>68</ns3:hr>
            <ns3:cad>50</ns3:cad>
          </ns3:TrackPointExtension>
        </extensions>
      </trkpt>
      <trkpt lat="43.457716405391693115234375" lon="1.43313017673790454864501953125">
        <ele>228.8000030517578125</ele>
        <time>2026-08-05T06:11:18.000Z</time>
        <extensions>
          <ns3:TrackPointExtension>
            <ns3:hr>68</ns3:hr>
            <ns3:cad>50</ns3:cad>
          </ns3:TrackPointExtension>
        </extensions>
      </trkpt>
      <trkpt lat="43.45772000961005687713623046875" lon="1.43315046094357967376708984375">
        <ele>229</ele>
        <time>2026-08-05T06:11:19.000Z</time>
        <extensions>
          <ns3:TrackPointExtension>
            <ns3:hr>68</ns3:hr>
            <ns3:cad>50</ns3:cad>
          </ns3:TrackPointExtension>
        </extensions>
      </trkpt>
      <trkpt lat="43.45771816559135913848876953125" lon="1.4331664703786373138427734375">
        <ele>229</ele>
        <time>2026-08-05T06:11:20.000Z</time>
        <extensions>
          <ns3:TrackPointExtension>
            <ns3:hr>68</ns3:hr>
            <ns3:cad>50</ns3:cad>
          </ns3:TrackPointExtension>
        </extensions>
      </trkpt>
      <trkpt lat="43.45772000961005687713623046875" lon="1.43318499438464641571044921875">
        <ele>229</ele>
        <time>2026-08-05T06:11:21.000Z</time>
        <extensions>
          <ns3:TrackPointExtension>
            <ns3:hr>68</ns3:hr>
            <ns3:cad>50</ns3:cad>
          </ns3:TrackPointExtension>
        </extensions>
      </trkpt>
      <trkpt lat="43.45771799795329570770263671875" lon="1.43320360220968723297119140625">
        <ele>229</ele>
        <time>2026-08-05T06:11:22.000Z</time>
        <extensions>
          <ns3:TrackPointExtension>
            <ns3:hr>69</ns3:hr>
            <ns3:cad>50</ns3:cad>
          </ns3:TrackPointExtension>
        </extensions>
      </trkpt>
      <trkpt lat="43.457714729011058807373046875" lon="1.4332174323499202728271484375">
        <ele>229</ele>
        <time>2026-08-05T06:11:23.000Z</time>
        <extensions>
          <ns3:TrackPointExtension>
            <ns3:hr>69</ns3:hr>
            <ns3:cad>49</ns3:cad>
          </ns3:TrackPointExtension>
        </extensions>
      </trkpt>
      <trkpt lat="43.45771280117332935333251953125" lon="1.43323662690818309783935546875">
        <ele>229</ele>
        <time>2026-08-05T06:11:24.000Z</time>
        <extensions>
          <ns3:TrackPointExtension>
            <ns3:hr>69</ns3:hr>
            <ns3:cad>49</ns3:cad>
          </ns3:TrackPointExtension>
        </extensions>
      </trkpt>
      <trkpt lat="43.45770961605012416839599609375" lon="1.4332563243806362152099609375">
        <ele>229</ele>
        <time>2026-08-05T06:11:25.000Z</time>
        <extensions>
          <ns3:TrackPointExtension>
            <ns3:hr>69</ns3:hr>
            <ns3:cad>48</ns3:cad>
          </ns3:TrackPointExtension>
        </extensions>
      </trkpt>
      <trkpt lat="43.45770861022174358367919921875" lon="1.433270908892154693603515625">
        <ele>229</ele>
        <time>2026-08-05T06:11:26.000Z</time>
        <extensions>
          <ns3:TrackPointExtension>
            <ns3:hr>69</ns3:hr>
            <ns3:cad>48</ns3:cad>
          </ns3:TrackPointExtension>
        </extensions>
      </trkpt>
      <trkpt lat="43.45770525746047496795654296875" lon="1.43328591249883174896240234375">
        <ele>229</ele>
        <time>2026-08-05T06:11:27.000Z</time>
        <extensions>
          <ns3:TrackPointExtension>
            <ns3:hr>69</ns3:hr>
            <ns3:cad>48</ns3:cad>
          </ns3:TrackPointExtension>
        </extensions>
      </trkpt>
      <trkpt lat="43.4577018208801746368408203125" lon="1.43329798243939876556396484375">
        <ele>229.1999969482421875</ele>
        <time>2026-08-05T06:11:28.000Z</time>
        <extensions>
          <ns3:TrackPointExtension>
            <ns3:hr>70</ns3:hr>
            <ns3:cad>48</ns3:cad>
          </ns3:TrackPointExtension>
        </extensions>
      </trkpt>
      <trkpt lat="43.45769754610955715179443359375" lon="1.4333160035312175750732421875">
        <ele>229.1999969482421875</ele>
        <time>2026-08-05T06:11:29.000Z</time>
        <extensions>
          <ns3:TrackPointExtension>
            <ns3:hr>70</ns3:hr>
            <ns3:cad>48</ns3:cad>
          </ns3:TrackPointExtension>
        </extensions>
      </trkpt>
      <trkpt lat="43.4576944448053836822509765625" lon="1.43333184532821178436279296875">
        <ele>229.399993896484375</ele>
        <time>2026-08-05T06:11:30.000Z</time>
        <extensions>
          <ns3:TrackPointExtension>
            <ns3:hr>70</ns3:hr>
            <ns3:cad>48</ns3:cad>
          </ns3:TrackPointExtension>
        </extensions>
      </trkpt>
      <trkpt lat="43.45769234932959079742431640625" lon="1.433352045714855194091796875">
        <ele>229.399993896484375</ele>
        <time>2026-08-05T06:11:31.000Z</time>
        <extensions>
          <ns3:TrackPointExtension>
            <ns3:hr>71</ns3:hr>
            <ns3:cad>48</ns3:cad>
          </ns3:TrackPointExtension>
        </extensions>
      </trkpt>
      <trkpt lat="43.4576941095292568206787109375" lon="1.43337023444473743438720703125">
        <ele>229.600006103515625</ele>
        <time>2026-08-05T06:11:32.000Z</time>
        <extensions>
          <ns3:TrackPointExtension>
            <ns3:hr>72</ns3:hr>
            <ns3:cad>48</ns3:cad>
          </ns3:TrackPointExtension>
        </extensions>
      </trkpt>
      <trkpt lat="43.45769352279603481292724609375" lon="1.4333887584507465362548828125">
        <ele>229.600006103515625</ele>
        <time>2026-08-05T06:11:33.000Z</time>
        <extensions>
          <ns3:TrackPointExtension>
            <ns3:hr>73</ns3:hr>
            <ns3:cad>48</ns3:cad>
          </ns3:TrackPointExtension>
        </extensions>
      </trkpt>
      <trkpt lat="43.45769519917666912078857421875" lon="1.4334058575332164764404296875">
        <ele>229.600006103515625</ele>
        <time>2026-08-05T06:11:34.000Z</time>
        <extensions>
          <ns3:TrackPointExtension>
            <ns3:hr>73</ns3:hr>
            <ns3:cad>48</ns3:cad>
          </ns3:TrackPointExtension>
        </extensions>
      </trkpt>
      <trkpt lat="43.457694612443447113037109375" lon="1.4334239624440670013427734375">
        <ele>229.600006103515625</ele>
        <time>2026-08-05T06:11:35.000Z</time>
        <extensions>
          <ns3:TrackPointExtension>
            <ns3:hr>73</ns3:hr>
            <ns3:cad>49</ns3:cad>
          </ns3:TrackPointExtension>
        </extensions>
      </trkpt>
      <trkpt lat="43.4576944448053836822509765625" lon="1.43343930132687091827392578125">
        <ele>229.600006103515625</ele>
        <time>2026-08-05T06:11:36.000Z</time>
        <extensions>
          <ns3:TrackPointExtension>
            <ns3:hr>74</ns3:hr>
            <ns3:cad>49</ns3:cad>
          </ns3:TrackPointExtension>
        </extensions>
      </trkpt>
      <trkpt lat="43.4576964564621448516845703125" lon="1.4334524609148502349853515625">
        <ele>229.8000030517578125</ele>
        <time>2026-08-05T06:11:37.000Z</time>
        <extensions>
          <ns3:TrackPointExtension>
            <ns3:hr>74</ns3:hr>
            <ns3:cad>49</ns3:cad>
          </ns3:TrackPointExtension>
        </extensions>
      </trkpt>
      <trkpt lat="43.4576967917382717132568359375" lon="1.43346461467444896697998046875">
        <ele>229.8000030517578125</ele>
        <time>2026-08-05T06:11:38.000Z</time>
        <extensions>
          <ns3:TrackPointExtension>
            <ns3:hr>74</ns3:hr>
            <ns3:cad>49</ns3:cad>
          </ns3:TrackPointExtension>
        </extensions>
      </trkpt>
      <trkpt lat="43.4577001444995403289794921875" lon="1.4334789477288722991943359375">
        <ele>229.8000030517578125</ele>
        <time>2026-08-05T06:11:39.000Z</time>
        <extensions>
          <ns3:TrackPointExtension>
            <ns3:hr>74</ns3:hr>
            <ns3:cad>49</ns3:cad>
          </ns3:TrackPointExtension>
        </extensions>
      </trkpt>
      <trkpt lat="43.45770508982241153717041015625" lon="1.43349789083003997802734375">
        <ele>229.8000030517578125</ele>
        <time>2026-08-05T06:11:40.000Z</time>
        <extensions>
          <ns3:TrackPointExtension>
            <ns3:hr>74</ns3:hr>
            <ns3:cad>50</ns3:cad>
          </ns3:TrackPointExtension>
        </extensions>
      </trkpt>
      <trkpt lat="43.4577058441936969757080078125" lon="1.43351155333220958709716796875">
        <ele>230</ele>
        <time>2026-08-05T06:11:41.000Z</time>
        <extensions>
          <ns3:TrackPointExtension>
            <ns3:hr>74</ns3:hr>
            <ns3:cad>50</ns3:cad>
          </ns3:TrackPointExtension>
        </extensions>
      </trkpt>
      <trkpt lat="43.45770559273660182952880859375" lon="1.43352513201534748077392578125">
        <ele>230</ele>
        <time>2026-08-05T06:11:42.000Z</time>
        <extensions>
          <ns3:TrackPointExtension>
            <ns3:hr>74</ns3:hr>
            <ns3:cad>49</ns3:cad>
          </ns3:TrackPointExtension>
        </extensions>
      </trkpt>
      <trkpt lat="43.4577071852982044219970703125" lon="1.43353686667978763580322265625">
        <ele>230</ele>
        <time>2026-08-05T06:11:43.000Z</time>
        <extensions>
          <ns3:TrackPointExtension>
            <ns3:hr>75</ns3:hr>
            <ns3:cad>48</ns3:cad>
          </ns3:TrackPointExtension>
        </extensions>
      </trkpt>
      <trkpt lat="43.45770391635596752166748046875" lon="1.433552540838718414306640625">
        <ele>230.1999969482421875</ele>
        <time>2026-08-05T06:11:44.000Z</time>
        <extensions>
          <ns3:TrackPointExtension>
            <ns3:hr>75</ns3:hr>
            <ns3:cad>48</ns3:cad>
          </ns3:TrackPointExtension>
        </extensions>
      </trkpt>
      <trkpt lat="43.45770643092691898345947265625" lon="1.43357089720666408538818359375">
        <ele>230.1999969482421875</ele>
        <time>2026-08-05T06:11:45.000Z</time>
        <extensions>
          <ns3:TrackPointExtension>
            <ns3:hr>75</ns3:hr>
            <ns3:cad>47</ns3:cad>
          </ns3:TrackPointExtension>
        </extensions>
      </trkpt>
      <trkpt lat="43.4577115438878536224365234375" lon="1.4335832186043262481689453125">
        <ele>230.1999969482421875</ele>
        <time>2026-08-05T06:11:46.000Z</time>
        <extensions>
          <ns3:TrackPointExtension>
            <ns3:hr>76</ns3:hr>
            <ns3:cad>47</ns3:cad>
          </ns3:TrackPointExtension>
        </extensions>
      </trkpt>
      <trkpt lat="43.45771498046815395355224609375" lon="1.43359872512519359588623046875">
        <ele>230.399993896484375</ele>
        <time>2026-08-05T06:11:47.000Z</time>
        <extensions>
          <ns3:TrackPointExtension>
            <ns3:hr>76</ns3:hr>
            <ns3:cad>48</ns3:cad>
          </ns3:TrackPointExtension>
        </extensions>
      </trkpt>
      <trkpt lat="43.45771749503910541534423828125" lon="1.43361163325607776641845703125">
        <ele>230.399993896484375</ele>
        <time>2026-08-05T06:11:48.000Z</time>
        <extensions>
          <ns3:TrackPointExtension>
            <ns3:hr>76</ns3:hr>
            <ns3:cad>48</ns3:cad>
          </ns3:TrackPointExtension>
        </extensions>
      </trkpt>
      <trkpt lat="43.45771950669586658477783203125" lon="1.43362621776759624481201171875">
        <ele>230.399993896484375</ele>
        <time>2026-08-05T06:11:49.000Z</time>
        <extensions>
          <ns3:TrackPointExtension>
            <ns3:hr>77</ns3:hr>
            <ns3:cad>48</ns3:cad>
          </ns3:TrackPointExtension>
        </extensions>
      </trkpt>
      <trkpt lat="43.45772520639002323150634765625" lon="1.4336415566504001617431640625">
        <ele>230.399993896484375</ele>
        <time>2026-08-05T06:11:50.000Z</time>
        <extensions>
          <ns3:TrackPointExtension>
            <ns3:hr>77</ns3:hr>
            <ns3:cad>47</ns3:cad>
          </ns3:TrackPointExtension>
        </extensions>
      </trkpt>
      <trkpt lat="43.45772990025579929351806640625" lon="1.43365354277193546295166015625">
        <ele>230.399993896484375</ele>
        <time>2026-08-05T06:11:51.000Z</time>
        <extensions>
          <ns3:TrackPointExtension>
            <ns3:hr>78</ns3:hr>
            <ns3:cad>47</ns3:cad>
          </ns3:TrackPointExtension>
        </extensions>
      </trkpt>
      <trkpt lat="43.4577333368360996246337890625" lon="1.4336673729121685028076171875">
        <ele>230.600006103515625</ele>
        <time>2026-08-05T06:11:52.000Z</time>
        <extensions>
          <ns3:TrackPointExtension>
            <ns3:hr>78</ns3:hr>
            <ns3:cad>47</ns3:cad>
          </ns3:TrackPointExtension>
        </extensions>
      </trkpt>
      <trkpt lat="43.45773945562541484832763671875" lon="1.43367868848145008087158203125">
        <ele>230.600006103515625</ele>
        <time>2026-08-05T06:11:53.000Z</time>
        <extensions>
          <ns3:TrackPointExtension>
            <ns3:hr>78</ns3:hr>
            <ns3:cad>47</ns3:cad>
          </ns3:TrackPointExtension>
        </extensions>
      </trkpt>
      <trkpt lat="43.45774398185312747955322265625" lon="1.433694697916507720947265625">
        <ele>230.600006103515625</ele>
        <time>2026-08-05T06:11:54.000Z</time>
        <extensions>
          <ns3:TrackPointExtension>
            <ns3:hr>79</ns3:hr>
            <ns3:cad>48</ns3:cad>
          </ns3:TrackPointExtension>
        </extensions>
      </trkpt>
      <trkpt lat="43.45774800516664981842041015625" lon="1.433710120618343353271484375">
        <ele>230.600006103515625</ele>
        <time>2026-08-05T06:11:55.000Z</time>
        <extensions>
          <ns3:TrackPointExtension>
            <ns3:hr>79</ns3:hr>
            <ns3:cad>48</ns3:cad>
          </ns3:TrackPointExtension>
        </extensions>
      </trkpt>
      <trkpt lat="43.4577499330043792724609375" lon="1.43372378312051296234130859375">
        <ele>230.8000030517578125</ele>
        <time>2026-08-05T06:11:56.000Z</time>
        <extensions>
          <ns3:TrackPointExtension>
            <ns3:hr>80</ns3:hr>
            <ns3:cad>48</ns3:cad>
          </ns3:TrackPointExtension>
        </extensions>
      </trkpt>
      <trkpt lat="43.457750938832759857177734375" lon="1.43373853527009487152099609375">
        <ele>230.8000030517578125</ele>
        <time>2026-08-05T06:11:57.000Z</time>
        <extensions>
          <ns3:TrackPointExtension>
            <ns3:hr>80</ns3:hr>
            <ns3:cad>48</ns3:cad>
          </ns3:TrackPointExtension>
        </extensions>
      </trkpt>
      <trkpt lat="43.45775353722274303436279296875" lon="1.43375110812485218048095703125">
        <ele>230.8000030517578125</ele>
        <time>2026-08-05T06:11:58.000Z</time>
        <extensions>
          <ns3:TrackPointExtension>
            <ns3:hr>80</ns3:hr>
            <ns3:cad>48</ns3:cad>
          </ns3:TrackPointExtension>
        </extensions>
      </trkpt>
      <trkpt lat="43.45775772817432880401611328125" lon="1.43376518972218036651611328125">
        <ele>230.8000030517578125</ele>
        <time>2026-08-05T06:11:59.000Z</time>
        <extensions>
          <ns3:TrackPointExtension>
            <ns3:hr>81</ns3:hr>
            <ns3:cad>48</ns3:cad>
          </ns3:TrackPointExtension>
        </extensions>
      </trkpt>
      <trkpt lat="43.457762338221073150634765625" lon="1.4337790198624134063720703125">
        <ele>230.8000030517578125</ele>
        <time>2026-08-05T06:12:00.000Z</time>
        <extensions>
          <ns3:TrackPointExtension>
            <ns3:hr>81</ns3:hr>
            <ns3:cad>47</ns3:cad>
          </ns3:TrackPointExtension>
        </extensions>
      </trkpt>
      <trkpt lat="43.45776426605880260467529296875" lon="1.4337927661836147308349609375">
        <ele>230.8000030517578125</ele>
        <time>2026-08-05T06:12:01.000Z</time>
        <extensions>
          <ns3:TrackPointExtension>
            <ns3:hr>82</ns3:hr>
            <ns3:cad>47</ns3:cad>
          </ns3:TrackPointExtension>
        </extensions>
      </trkpt>
      <trkpt lat="43.45776644535362720489501953125" lon="1.43380693159997463226318359375">
        <ele>231</ele>
        <time>2026-08-05T06:12:02.000Z</time>
        <extensions>
          <ns3:TrackPointExtension>
            <ns3:hr>82</ns3:hr>
            <ns3:cad>47</ns3:cad>
          </ns3:TrackPointExtension>
        </extensions>
      </trkpt>
      <trkpt lat="43.45777046866714954376220703125" lon="1.43381866626441478729248046875">
        <ele>231</ele>
        <time>2026-08-05T06:12:03.000Z</time>
        <extensions>
          <ns3:TrackPointExtension>
            <ns3:hr>82</ns3:hr>
            <ns3:cad>47</ns3:cad>
          </ns3:TrackPointExtension>
        </extensions>
      </trkpt>
      <trkpt lat="43.4577749110758304595947265625" lon="1.43383341841399669647216796875">
        <ele>231</ele>
        <time>2026-08-05T06:12:04.000Z</time>
        <extensions>
          <ns3:TrackPointExtension>
            <ns3:hr>83</ns3:hr>
            <ns3:cad>47</ns3:cad>
          </ns3:TrackPointExtension>
        </extensions>
      </trkpt>
      <trkpt lat="43.4577785991132259368896484375" lon="1.43384649418294429779052734375">
        <ele>231</ele>
        <time>2026-08-05T06:12:05.000Z</time>
        <extensions>
          <ns3:TrackPointExtension>
            <ns3:hr>83</ns3:hr>
            <ns3:cad>47</ns3:cad>
          </ns3:TrackPointExtension>
        </extensions>
      </trkpt>
      <trkpt lat="43.4577819518744945526123046875" lon="1.4338598214089870452880859375">
        <ele>231</ele>
        <time>2026-08-05T06:12:06.000Z</time>
        <extensions>
          <ns3:TrackPointExtension>
            <ns3:hr>84</ns3:hr>
            <ns3:cad>47</ns3:cad>
          </ns3:TrackPointExtension>
        </extensions>
      </trkpt>
      <trkpt lat="43.4577819518744945526123046875" lon="1.4338722266256809234619140625">
        <ele>231</ele>
        <time>2026-08-05T06:12:07.000Z</time>
        <extensions>
          <ns3:TrackPointExtension>
            <ns3:hr>84</ns3:hr>
            <ns3:cad>48</ns3:cad>
          </ns3:TrackPointExtension>
        </extensions>
      </trkpt>
      <trkpt lat="43.4577839635312557220458984375" lon="1.43388806842267513275146484375">
        <ele>231</ele>
        <time>2026-08-05T06:12:08.000Z</time>
        <extensions>
          <ns3:TrackPointExtension>
            <ns3:hr>84</ns3:hr>
            <ns3:cad>48</ns3:cad>
          </ns3:TrackPointExtension>
        </extensions>
      </trkpt>
      <trkpt lat="43.45778622664511203765869140625" lon="1.43390499986708164215087890625">
        <ele>231.1999969482421875</ele>
        <time>2026-08-05T06:12:09.000Z</time>
        <extensions>
          <ns3:TrackPointExtension>
            <ns3:hr>85</ns3:hr>
            <ns3:cad>48</ns3:cad>
          </ns3:TrackPointExtension>
        </extensions>
      </trkpt>
      <trkpt lat="43.4577889926731586456298828125" lon="1.4339183270931243896484375">
        <ele>231.1999969482421875</ele>
        <time>2026-08-05T06:12:10.000Z</time>
        <extensions>
          <ns3:TrackPointExtension>
            <ns3:hr>85</ns3:hr>
            <ns3:cad>48</ns3:cad>
          </ns3:TrackPointExtension>
        </extensions>
      </trkpt>
      <trkpt lat="43.4577886573970317840576171875" lon="1.43393106758594512939453125">
        <ele>231.1999969482421875</ele>
        <time>2026-08-05T06:12:11.000Z</time>
        <extensions>
          <ns3:TrackPointExtension>
            <ns3:hr>85</ns3:hr>
            <ns3:cad>48</ns3:cad>
          </ns3:TrackPointExtension>
        </extensions>
      </trkpt>
      <trkpt lat="43.4577910043299198150634765625" lon="1.4339439757168292999267578125">
        <ele>231.1999969482421875</ele>
        <time>2026-08-05T06:12:12.000Z</time>
        <extensions>
          <ns3:TrackPointExtension>
            <ns3:hr>85</ns3:hr>
            <ns3:cad>48</ns3:cad>
          </ns3:TrackPointExtension>
        </extensions>
      </trkpt>
      <trkpt lat="43.45779259689152240753173828125" lon="1.433961577713489532470703125">
        <ele>231.1999969482421875</ele>
        <time>2026-08-05T06:12:13.000Z</time>
        <extensions>
          <ns3:TrackPointExtension>
            <ns3:hr>85</ns3:hr>
            <ns3:cad>48</ns3:cad>
          </ns3:TrackPointExtension>
        </extensions>
      </trkpt>
      <trkpt lat="43.45779620110988616943359375" lon="1.43397825770080089569091796875">
        <ele>231.1999969482421875</ele>
        <time>2026-08-05T06:12:14.000Z</time>
        <extensions>
          <ns3:TrackPointExtension>
            <ns3:hr>86</ns3:hr>
            <ns3:cad>48</ns3:cad>
          </ns3:TrackPointExtension>
        </extensions>
      </trkpt>
      <trkpt lat="43.4578007273375988006591796875" lon="1.43399300985038280487060546875">
        <ele>231.1999969482421875</ele>
        <time>2026-08-05T06:12:15.000Z</time>
        <extensions>
          <ns3:TrackPointExtension>
            <ns3:hr>85</ns3:hr>
            <ns3:cad>48</ns3:cad>
          </ns3:TrackPointExtension>
        </extensions>
      </trkpt>
      <trkpt lat="43.4578027389943599700927734375" lon="1.4340009726583957672119140625">
        <ele>231.1999969482421875</ele>
        <time>2026-08-05T06:12:16.000Z</time>
        <extensions>
          <ns3:TrackPointExtension>
            <ns3:hr>85</ns3:hr>
            <ns3:cad>47</ns3:cad>
          </ns3:TrackPointExtension>
        </extensions>
      </trkpt>
      <trkpt lat="43.45780483447015285491943359375" lon="1.4340160600841045379638671875">
        <ele>231.1999969482421875</ele>
        <time>2026-08-05T06:12:17.000Z</time>
        <extensions>
          <ns3:TrackPointExtension>
            <ns3:hr>86</ns3:hr>
            <ns3:cad>46</ns3:cad>
          </ns3:TrackPointExtension>
        </extensions>
      </trkpt>
      <trkpt lat="43.45780785195529460906982421875" lon="1.43403089605271816253662109375">
        <ele>231.1999969482421875</ele>
        <time>2026-08-05T06:12:18.000Z</time>
        <extensions>
          <ns3:TrackPointExtension>
            <ns3:hr>85</ns3:hr>
            <ns3:cad>46</ns3:cad>
          </ns3:TrackPointExtension>
        </extensions>
      </trkpt>
      <trkpt lat="43.457811288535594940185546875" lon="1.43404564820230007171630859375">
        <ele>231.1999969482421875</ele>
        <time>2026-08-05T06:12:19.000Z</time>
        <extensions>
          <ns3:TrackPointExtension>
            <ns3:hr>85</ns3:hr>
            <ns3:cad>47</ns3:cad>
          </ns3:TrackPointExtension>
        </extensions>
      </trkpt>
      <trkpt lat="43.4578127972781658172607421875" lon="1.43405847251415252685546875">
        <ele>231.1999969482421875</ele>
        <time>2026-08-05T06:12:20.000Z</time>
        <extensions>
          <ns3:TrackPointExtension>
            <ns3:hr>86</ns3:hr>
            <ns3:cad>47</ns3:cad>
          </ns3:TrackPointExtension>
        </extensions>
      </trkpt>
      <trkpt lat="43.4578151442110538482666015625" lon="1.43407112918794155120849609375">
        <ele>231.1999969482421875</ele>
        <time>2026-08-05T06:12:21.000Z</time>
        <extensions>
          <ns3:TrackPointExtension>
            <ns3:hr>85</ns3:hr>
            <ns3:cad>44</ns3:cad>
          </ns3:TrackPointExtension>
        </extensions>
      </trkpt>
      <trkpt lat="43.45781899988651275634765625" lon="1.43408386968076229095458984375">
        <ele>231.399993896484375</ele>
        <time>2026-08-05T06:12:22.000Z</time>
        <extensions>
          <ns3:TrackPointExtension>
            <ns3:hr>85</ns3:hr>
            <ns3:cad>44</ns3:cad>
          </ns3:TrackPointExtension>
        </extensions>
      </trkpt>
      <trkpt lat="43.45782059244811534881591796875" lon="1.43409929238259792327880859375">
        <ele>231.399993896484375</ele>
        <time>2026-08-05T06:12:23.000Z</time>
        <extensions>
          <ns3:TrackPointExtension>
            <ns3:hr>85</ns3:hr>
            <ns3:cad>44</ns3:cad>
          </ns3:TrackPointExtension>
        </extensions>
      </trkpt>
      <trkpt lat="43.457819335162639617919921875" lon="1.4341119490563869476318359375">
        <ele>231.399993896484375</ele>
        <time>2026-08-05T06:12:24.000Z</time>
        <extensions>
          <ns3:TrackPointExtension>
            <ns3:hr>85</ns3:hr>
            <ns3:cad>44</ns3:cad>
          </ns3:TrackPointExtension>
        </extensions>
      </trkpt>
      <trkpt lat="43.4578228555619716644287109375" lon="1.4341236837208271026611328125">
        <ele>231.399993896484375</ele>
        <time>2026-08-05T06:12:25.000Z</time>
        <extensions>
          <ns3:TrackPointExtension>
            <ns3:hr>85</ns3:hr>
            <ns3:cad>45</ns3:cad>
          </ns3:TrackPointExtension>
        </extensions>
      </trkpt>
      <trkpt lat="43.45782704651355743408203125" lon="1.43413667567074298858642578125">
        <ele>231.399993896484375</ele>
        <time>2026-08-05T06:12:26.000Z</time>
        <extensions>
          <ns3:TrackPointExtension>
            <ns3:hr>84</ns3:hr>
            <ns3:cad>45</ns3:cad>
          </ns3:TrackPointExtension>
        </extensions>
      </trkpt>
      <trkpt lat="43.45782847143709659576416015625" lon="1.4341516792774200439453125">
        <ele>231.399993896484375</ele>
        <time>2026-08-05T06:12:27.000Z</time>
        <extensions>
          <ns3:TrackPointExtension>
            <ns3:hr>84</ns3:hr>
            <ns3:cad>45</ns3:cad>
          </ns3:TrackPointExtension>
        </extensions>
      </trkpt>
      <trkpt lat="43.45782813616096973419189453125" lon="1.43416131846606731414794921875">
        <ele>231.399993896484375</ele>
        <time>2026-08-05T06:12:28.000Z</time>
        <extensions>
          <ns3:TrackPointExtension>
            <ns3:hr>84</ns3:hr>
            <ns3:cad>45</ns3:cad>
          </ns3:TrackPointExtension>
        </extensions>
      </trkpt>
      <trkpt lat="43.45783132128417491912841796875" lon="1.4341743104159832000732421875">
        <ele>231.399993896484375</ele>
        <time>2026-08-05T06:12:29.000Z</time>
        <extensions>
          <ns3:TrackPointExtension>
            <ns3:hr>84</ns3:hr>
            <ns3:cad>45</ns3:cad>
          </ns3:TrackPointExtension>
        </extensions>
      </trkpt>
      <trkpt lat="43.45783450640738010406494140625" lon="1.434185542166233062744140625">
        <ele>231.399993896484375</ele>
        <time>2026-08-05T06:12:30.000Z</time>
        <extensions>
          <ns3:TrackPointExtension>
            <ns3:hr>83</ns3:hr>
            <ns3:cad>46</ns3:cad>
          </ns3:TrackPointExtension>
        </extensions>
      </trkpt>
      <trkpt lat="43.4578376077115535736083984375" lon="1.43419685773551464080810546875">
        <ele>231.399993896484375</ele>
        <time>2026-08-05T06:12:31.000Z</time>
        <extensions>
          <ns3:TrackPointExtension>
            <ns3:hr>83</ns3:hr>
            <ns3:cad>46</ns3:cad>
          </ns3:TrackPointExtension>
        </extensions>
      </trkpt>
      <trkpt lat="43.45783869735896587371826171875" lon="1.43420892767608165740966796875">
        <ele>231.399993896484375</ele>
        <time>2026-08-05T06:12:32.000Z</time>
        <extensions>
          <ns3:TrackPointExtension>
            <ns3:hr>83</ns3:hr>
            <ns3:cad>46</ns3:cad>
          </ns3:TrackPointExtension>
        </extensions>
      </trkpt>
      <trkpt lat="43.4578419663012027740478515625" lon="1.43422485329210758209228515625">
        <ele>231.399993896484375</ele>
        <time>2026-08-05T06:12:33.000Z</time>
        <extensions>
          <ns3:TrackPointExtension>
            <ns3:hr>83</ns3:hr>
            <ns3:cad>46</ns3:cad>
          </ns3:TrackPointExtension>
        </extensions>
      </trkpt>
      <trkpt lat="43.45784473232924938201904296875" lon="1.43423792906105518341064453125">
        <ele>231.399993896484375</ele>
        <time>2026-08-05T06:12:34.000Z</time>
        <extensions>
          <ns3:TrackPointExtension>
            <ns3:hr>84</ns3:hr>
            <ns3:cad>46</ns3:cad>
          </ns3:TrackPointExtension>
        </extensions>
      </trkpt>
      <trkpt lat="43.457845486700534820556640625" lon="1.434251256287097930908203125">
        <ele>231.399993896484375</ele>
        <time>2026-08-05T06:12:35.000Z</time>
        <extensions>
          <ns3:TrackPointExtension>
            <ns3:hr>83</ns3:hr>
            <ns3:cad>44</ns3:cad>
          </ns3:TrackPointExtension>
        </extensions>
      </trkpt>
      <trkpt lat="43.457847498357295989990234375" lon="1.43426491878926753997802734375">
        <ele>231.399993896484375</ele>
        <time>2026-08-05T06:12:36.000Z</time>
        <extensions>
          <ns3:TrackPointExtension>
            <ns3:hr>83</ns3:hr>
            <ns3:cad>44</ns3:cad>
          </ns3:TrackPointExtension>
        </extensions>
      </trkpt>
      <trkpt lat="43.45785026438534259796142578125" lon="1.4342819340527057647705078125">
        <ele>231.399993896484375</ele>
        <time>2026-08-05T06:12:37.000Z</time>
        <extensions>
          <ns3:TrackPointExtension>
            <ns3:hr>84</ns3:hr>
            <ns3:cad>44</ns3:cad>
          </ns3:TrackPointExtension>
        </extensions>
      </trkpt>
      <trkpt lat="43.4578545391559600830078125" lon="1.4342950098216533660888671875">
        <ele>231.399993896484375</ele>
        <time>2026-08-05T06:12:38.000Z</time>
        <extensions>
          <ns3:TrackPointExtension>
            <ns3:hr>84</ns3:hr>
            <ns3:cad>44</ns3:cad>
          </ns3:TrackPointExtension>
        </extensions>
      </trkpt>
      <trkpt lat="43.45785562880337238311767578125" lon="1.4343070797622203826904296875">
        <ele>231.399993896484375</ele>
        <time>2026-08-05T06:12:39.000Z</time>
        <extensions>
          <ns3:TrackPointExtension>
            <ns3:hr>84</ns3:hr>
            <ns3:cad>44</ns3:cad>
          </ns3:TrackPointExtension>
        </extensions>
      </trkpt>
      <trkpt lat="43.4578583948314189910888671875" lon="1.434318982064723968505859375">
        <ele>231.399993896484375</ele>
        <time>2026-08-05T06:12:40.000Z</time>
        <extensions>
          <ns3:TrackPointExtension>
            <ns3:hr>83</ns3:hr>
            <ns3:cad>44</ns3:cad>
          </ns3:TrackPointExtension>
        </extensions>
      </trkpt>
      <trkpt lat="43.457862921059131622314453125" lon="1.4343359135091304779052734375">
        <ele>231.399993896484375</ele>
        <time>2026-08-05T06:12:41.000Z</time>
        <extensions>
          <ns3:TrackPointExtension>
            <ns3:hr>83</ns3:hr>
            <ns3:cad>44</ns3:cad>
          </ns3:TrackPointExtension>
        </extensions>
      </trkpt>
      <trkpt lat="43.45786903984844684600830078125" lon="1.4343496598303318023681640625">
        <ele>231.600006103515625</ele>
        <time>2026-08-05T06:12:42.000Z</time>
        <extensions>
          <ns3:TrackPointExtension>
            <ns3:hr>83</ns3:hr>
            <ns3:cad>44</ns3:cad>
          </ns3:TrackPointExtension>
        </extensions>
      </trkpt>
      <trkpt lat="43.45787264406681060791015625" lon="1.4343634061515331268310546875">
        <ele>231.600006103515625</ele>
        <time>2026-08-05T06:12:43.000Z</time>
        <extensions>
          <ns3:TrackPointExtension>
            <ns3:hr>83</ns3:hr>
            <ns3:cad>44</ns3:cad>
          </ns3:TrackPointExtension>
        </extensions>
      </trkpt>
      <trkpt lat="43.4578748233616352081298828125" lon="1.43437958322465419769287109375">
        <ele>231.600006103515625</ele>
        <time>2026-08-05T06:12:44.000Z</time>
        <extensions>
          <ns3:TrackPointExtension>
            <ns3:hr>83</ns3:hr>
            <ns3:cad>44</ns3:cad>
          </ns3:TrackPointExtension>
        </extensions>
      </trkpt>
      <trkpt lat="43.45788161270320415496826171875" lon="1.43439534120261669158935546875">
        <ele>231.600006103515625</ele>
        <time>2026-08-05T06:12:45.000Z</time>
        <extensions>
          <ns3:TrackPointExtension>
            <ns3:hr>83</ns3:hr>
            <ns3:cad>44</ns3:cad>
          </ns3:TrackPointExtension>
        </extensions>
      </trkpt>
      <trkpt lat="43.45789049752056598663330078125" lon="1.43440623767673969268798828125">
        <ele>231.600006103515625</ele>
        <time>2026-08-05T06:12:46.000Z</time>
        <extensions>
          <ns3:TrackPointExtension>
            <ns3:hr>83</ns3:hr>
            <ns3:cad>44</ns3:cad>
          </ns3:TrackPointExtension>
        </extensions>
      </trkpt>
      <trkpt lat="43.4578922577202320098876953125" lon="1.43441545777022838592529296875">
        <ele>231.600006103515625</ele>
        <time>2026-08-05T06:12:47.000Z</time>
        <extensions>
          <ns3:TrackPointExtension>
            <ns3:hr>83</ns3:hr>
            <ns3:cad>45</ns3:cad>
          </ns3:TrackPointExtension>
        </extensions>
      </trkpt>
      <trkpt lat="43.4578956104815006256103515625" lon="1.43442568369209766387939453125">
        <ele>231.600006103515625</ele>
        <time>2026-08-05T06:12:48.000Z</time>
        <extensions>
          <ns3:TrackPointExtension>
            <ns3:hr>83</ns3:hr>
            <ns3:cad>45</ns3:cad>
          </ns3:TrackPointExtension>
        </extensions>
      </trkpt>
      <trkpt lat="43.45790055580437183380126953125" lon="1.434436328709125518798828125">
        <ele>231.600006103515625</ele>
        <time>2026-08-05T06:12:49.000Z</time>
        <extensions>
          <ns3:TrackPointExtension>
            <ns3:hr>83</ns3:hr>
            <ns3:cad>46</ns3:cad>
          </ns3:TrackPointExtension>
        </extensions>
      </trkpt>
      <trkpt lat="43.4579055011272430419921875" lon="1.43444546498358249664306640625">
        <ele>231.600006103515625</ele>
        <time>2026-08-05T06:12:50.000Z</time>
        <extensions>
          <ns3:TrackPointExtension>
            <ns3:hr>82</ns3:hr>
            <ns3:cad>46</ns3:cad>
          </ns3:TrackPointExtension>
        </extensions>
      </trkpt>
      <trkpt lat="43.457910530269145965576171875" lon="1.43445552326738834381103515625">
        <ele>231.600006103515625</ele>
        <time>2026-08-05T06:12:51.000Z</time>
        <extensions>
          <ns3:TrackPointExtension>
            <ns3:hr>82</ns3:hr>
            <ns3:cad>46</ns3:cad>
          </ns3:TrackPointExtension>
        </extensions>
      </trkpt>
      <trkpt lat="43.457915224134922027587890625" lon="1.43446482717990875244140625">
        <ele>231.600006103515625</ele>
        <time>2026-08-05T06:12:52.000Z</time>
        <extensions>
          <ns3:TrackPointExtension>
            <ns3:hr>82</ns3:hr>
            <ns3:cad>46</ns3:cad>
          </ns3:TrackPointExtension>
        </extensions>
      </trkpt>
      <trkpt lat="43.45792226493358612060546875" lon="1.43447631038725376129150390625">
        <ele>231.399993896484375</ele>
        <time>2026-08-05T06:12:53.000Z</time>
        <extensions>
          <ns3:TrackPointExtension>
            <ns3:hr>82</ns3:hr>
            <ns3:cad>45</ns3:cad>
          </ns3:TrackPointExtension>
        </extensions>
      </trkpt>
      <trkpt lat="43.4579311497509479522705078125" lon="1.4344871230423450469970703125">
        <ele>231.399993896484375</ele>
        <time>2026-08-05T06:12:54.000Z</time>
        <extensions>
          <ns3:TrackPointExtension>
            <ns3:hr>82</ns3:hr>
            <ns3:cad>45</ns3:cad>
          </ns3:TrackPointExtension>
        </extensions>
      </trkpt>
      <trkpt lat="43.45793676562607288360595703125" lon="1.43449676223099231719970703125">
        <ele>231.399993896484375</ele>
        <time>2026-08-05T06:12:55.000Z</time>
        <extensions>
          <ns3:TrackPointExtension>
            <ns3:hr>82</ns3:hr>
            <ns3:cad>46</ns3:cad>
          </ns3:TrackPointExtension>
        </extensions>
      </trkpt>
      <trkpt lat="43.457940705120563507080078125" lon="1.4345057308673858642578125">
        <ele>231.399993896484375</ele>
        <time>2026-08-05T06:12:56.000Z</time>
        <extensions>
          <ns3:TrackPointExtension>
            <ns3:hr>82</ns3:hr>
            <ns3:cad>46</ns3:cad>
          </ns3:TrackPointExtension>
        </extensions>
      </trkpt>
      <trkpt lat="43.4579457342624664306640625" lon="1.43451419658958911895751953125">
        <ele>231.399993896484375</ele>
        <time>2026-08-05T06:12:57.000Z</time>
        <extensions>
          <ns3:TrackPointExtension>
            <ns3:hr>81</ns3:hr>
            <ns3:cad>47</ns3:cad>
          </ns3:TrackPointExtension>
        </extensions>
      </trkpt>
      <trkpt lat="43.45795101486146450042724609375" lon="1.43452492542564868927001953125">
        <ele>231.399993896484375</ele>
        <time>2026-08-05T06:12:58.000Z</time>
        <extensions>
          <ns3:TrackPointExtension>
            <ns3:hr>81</ns3:hr>
            <ns3:cad>47</ns3:cad>
          </ns3:TrackPointExtension>
        </extensions>
      </trkpt>
      <trkpt lat="43.45795822329819202423095703125" lon="1.43453657627105712890625">
        <ele>231.399993896484375</ele>
        <time>2026-08-05T06:12:59.000Z</time>
        <extensions>
          <ns3:TrackPointExtension>
            <ns3:hr>81</ns3:hr>
            <ns3:cad>48</ns3:cad>
          </ns3:TrackPointExtension>
        </extensions>
      </trkpt>
      <trkpt lat="43.45796249806880950927734375" lon="1.43454906530678272247314453125">
        <ele>231.399993896484375</ele>
        <time>2026-08-05T06:13:00.000Z</time>
        <extensions>
          <ns3:TrackPointExtension>
            <ns3:hr>81</ns3:hr>
            <ns3:cad>48</ns3:cad>
          </ns3:TrackPointExtension>
        </extensions>
      </trkpt>
      <trkpt lat="43.4579673595726490020751953125" lon="1.4345622248947620391845703125">
        <ele>231.399993896484375</ele>
        <time>2026-08-05T06:13:01.000Z</time>
        <extensions>
          <ns3:TrackPointExtension>
            <ns3:hr>82</ns3:hr>
            <ns3:cad>47</ns3:cad>
          </ns3:TrackPointExtension>
        </extensions>
      </trkpt>
      <trkpt lat="43.45797213725745677947998046875" lon="1.43457722850143909454345703125">
        <ele>231.399993896484375</ele>
        <time>2026-08-05T06:13:02.000Z</time>
        <extensions>
          <ns3:TrackPointExtension>
            <ns3:hr>81</ns3:hr>
            <ns3:cad>47</ns3:cad>
          </ns3:TrackPointExtension>
        </extensions>
      </trkpt>
      <trkpt lat="43.45798035152256488800048828125" lon="1.43458963371813297271728515625">
        <ele>231.399993896484375</ele>
        <time>2026-08-05T06:13:03.000Z</time>
        <extensions>
          <ns3:TrackPointExtension>
            <ns3:hr>81</ns3:hr>
            <ns3:cad>47</ns3:cad>
          </ns3:TrackPointExtension>
        </extensions>
      </trkpt>
      <trkpt lat="43.45799066126346588134765625" lon="1.434602625668048858642578125">
        <ele>231.1999969482421875</ele>
        <time>2026-08-05T06:13:04.000Z</time>
        <extensions>
          <ns3:TrackPointExtension>
            <ns3:hr>81</ns3:hr>
            <ns3:cad>48</ns3:cad>
          </ns3:TrackPointExtension>
        </extensions>
      </trkpt>
      <trkpt lat="43.457999043166637420654296875" lon="1.434612013399600982666015625">
        <ele>231.1999969482421875</ele>
        <time>2026-08-05T06:13:05.000Z</time>
        <extensions>
          <ns3:TrackPointExtension>
            <ns3:hr>80</ns3:hr>
            <ns3:cad>48</ns3:cad>
          </ns3:TrackPointExtension>
        </extensions>
      </trkpt>
      <trkpt lat="43.45800415612757205963134765625" lon="1.4346202276647090911865234375">
        <ele>231.1999969482421875</ele>
        <time>2026-08-05T06:13:06.000Z</time>
        <extensions>
          <ns3:TrackPointExtension>
            <ns3:hr>80</ns3:hr>
            <ns3:cad>48</ns3:cad>
          </ns3:TrackPointExtension>
        </extensions>
      </trkpt>
      <trkpt lat="43.45800985582172870635986328125" lon="1.4346286095678806304931640625">
        <ele>231.1999969482421875</ele>
        <time>2026-08-05T06:13:07.000Z</time>
        <extensions>
          <ns3:TrackPointExtension>
            <ns3:hr>80</ns3:hr>
            <ns3:cad>48</ns3:cad>
          </ns3:TrackPointExtension>
        </extensions>
      </trkpt>
      <trkpt lat="43.45801404677331447601318359375" lon="1.43464160151779651641845703125">
        <ele>231.1999969482421875</ele>
        <time>2026-08-05T06:13:08.000Z</time>
        <extensions>
          <ns3:TrackPointExtension>
            <ns3:hr>79</ns3:hr>
            <ns3:cad>48</ns3:cad>
          </ns3:TrackPointExtension>
        </extensions>
      </trkpt>
      <trkpt lat="43.458017818629741668701171875" lon="1.43465316854417324066162109375">
        <ele>231.1999969482421875</ele>
        <time>2026-08-05T06:13:09.000Z</time>
        <extensions>
          <ns3:TrackPointExtension>
            <ns3:hr>79</ns3:hr>
            <ns3:cad>48</ns3:cad>
          </ns3:TrackPointExtension>
        </extensions>
      </trkpt>
      <trkpt lat="43.45802142284810543060302734375" lon="1.43466331064701080322265625">
        <ele>231.1999969482421875</ele>
        <time>2026-08-05T06:13:10.000Z</time>
        <extensions>
          <ns3:TrackPointExtension>
            <ns3:hr>78</ns3:hr>
            <ns3:cad>47</ns3:cad>
          </ns3:TrackPointExtension>
        </extensions>
      </trkpt>
      <trkpt lat="43.458026535809040069580078125" lon="1.43467395566403865814208984375">
        <ele>231.1999969482421875</ele>
        <time>2026-08-05T06:13:11.000Z</time>
        <extensions>
          <ns3:TrackPointExtension>
            <ns3:hr>77</ns3:hr>
            <ns3:cad>45</ns3:cad>
          </ns3:TrackPointExtension>
        </extensions>
      </trkpt>
      <trkpt lat="43.45802997238934040069580078125" lon="1.4346854388713836669921875">
        <ele>231.1999969482421875</ele>
        <time>2026-08-05T06:13:12.000Z</time>
        <extensions>
          <ns3:TrackPointExtension>
            <ns3:hr>77</ns3:hr>
            <ns3:cad>43</ns3:cad>
          </ns3:TrackPointExtension>
        </extensions>
      </trkpt>
      <trkpt lat="43.45803231932222843170166015625" lon="1.43469776026904582977294921875">
        <ele>231.1999969482421875</ele>
        <time>2026-08-05T06:13:13.000Z</time>
        <extensions>
          <ns3:TrackPointExtension>
            <ns3:hr>77</ns3:hr>
            <ns3:cad>43</ns3:cad>
          </ns3:TrackPointExtension>
        </extensions>
      </trkpt>
      <trkpt lat="43.45803634263575077056884765625" lon="1.4347100816667079925537109375">
        <ele>231.1999969482421875</ele>
        <time>2026-08-05T06:13:14.000Z</time>
        <extensions>
          <ns3:TrackPointExtension>
            <ns3:hr>77</ns3:hr>
            <ns3:cad>42</ns3:cad>
          </ns3:TrackPointExtension>
        </extensions>
      </trkpt>
      <trkpt lat="43.45804028213024139404296875" lon="1.43472290597856044769287109375">
        <ele>231.1999969482421875</ele>
        <time>2026-08-05T06:13:15.000Z</time>
        <extensions>
          <ns3:TrackPointExtension>
            <ns3:hr>78</ns3:hr>
            <ns3:cad>42</ns3:cad>
          </ns3:TrackPointExtension>
        </extensions>
      </trkpt>
      <trkpt lat="43.4580464847385883331298828125" lon="1.43473229371011257171630859375">
        <ele>231</ele>
        <time>2026-08-05T06:13:16.000Z</time>
        <extensions>
          <ns3:TrackPointExtension>
            <ns3:hr>78</ns3:hr>
            <ns3:cad>42</ns3:cad>
          </ns3:TrackPointExtension>
        </extensions>
      </trkpt>
      <trkpt lat="43.4580505080521106719970703125" lon="1.434742771089076995849609375">
        <ele>231</ele>
        <time>2026-08-05T06:13:17.000Z</time>
        <extensions>
          <ns3:TrackPointExtension>
            <ns3:hr>79</ns3:hr>
            <ns3:cad>42</ns3:cad>
          </ns3:TrackPointExtension>
        </extensions>
      </trkpt>
      <trkpt lat="43.4580530226230621337890625" lon="1.43475358374416828155517578125">
        <ele>231</ele>
        <time>2026-08-05T06:13:18.000Z</time>
        <extensions>
          <ns3:TrackPointExtension>
            <ns3:hr>79</ns3:hr>
            <ns3:cad>44</ns3:cad>
          </ns3:TrackPointExtension>
        </extensions>
      </trkpt>
      <trkpt lat="43.458054363727569580078125" lon="1.43476682715117931365966796875">
        <ele>231</ele>
        <time>2026-08-05T06:13:19.000Z</time>
        <extensions>
          <ns3:TrackPointExtension>
            <ns3:hr>78</ns3:hr>
            <ns3:cad>45</ns3:cad>
          </ns3:TrackPointExtension>
        </extensions>
      </trkpt>
      <trkpt lat="43.4580555371940135955810546875" lon="1.43478023819625377655029296875">
        <ele>231</ele>
        <time>2026-08-05T06:13:20.000Z</time>
        <extensions>
          <ns3:TrackPointExtension>
            <ns3:hr>77</ns3:hr>
            <ns3:cad>45</ns3:cad>
          </ns3:TrackPointExtension>
        </extensions>
      </trkpt>
      <trkpt lat="43.45805562101304531097412109375" lon="1.4347922243177890777587890625">
        <ele>231</ele>
        <time>2026-08-05T06:13:21.000Z</time>
        <extensions>
          <ns3:TrackPointExtension>
            <ns3:hr>78</ns3:hr>
            <ns3:cad>46</ns3:cad>
          </ns3:TrackPointExtension>
        </extensions>
      </trkpt>
      <trkpt lat="43.458056710660457611083984375" lon="1.4348022826015949249267578125">
        <ele>231</ele>
        <time>2026-08-05T06:13:22.000Z</time>
        <extensions>
          <ns3:TrackPointExtension>
            <ns3:hr>77</ns3:hr>
            <ns3:cad>46</ns3:cad>
          </ns3:TrackPointExtension>
        </extensions>
      </trkpt>
      <trkpt lat="43.458056710660457611083984375" lon="1.43481351435184478759765625">
        <ele>231</ele>
        <time>2026-08-05T06:13:23.000Z</time>
        <extensions>
          <ns3:TrackPointExtension>
            <ns3:hr>76</ns3:hr>
            <ns3:cad>46</ns3:cad>
          </ns3:TrackPointExtension>
        </extensions>
      </trkpt>
      <trkpt lat="43.4580578841269016265869140625" lon="1.43482298590242862701416015625">
        <ele>231</ele>
        <time>2026-08-05T06:13:24.000Z</time>
        <extensions>
          <ns3:TrackPointExtension>
            <ns3:hr>76</ns3:hr>
            <ns3:cad>44</ns3:cad>
          </ns3:TrackPointExtension>
        </extensions>
      </trkpt>
      <trkpt lat="43.4580588899552822113037109375" lon="1.4348358102142810821533203125">
        <ele>231</ele>
        <time>2026-08-05T06:13:25.000Z</time>
        <extensions>
          <ns3:TrackPointExtension>
            <ns3:hr>76</ns3:hr>
            <ns3:cad>44</ns3:cad>
          </ns3:TrackPointExtension>
        </extensions>
      </trkpt>
      <trkpt lat="43.45805914141237735748291015625" lon="1.4348490536212921142578125">
        <ele>230.8000030517578125</ele>
        <time>2026-08-05T06:13:26.000Z</time>
        <extensions>
          <ns3:TrackPointExtension>
            <ns3:hr>76</ns3:hr>
            <ns3:cad>45</ns3:cad>
          </ns3:TrackPointExtension>
        </extensions>
      </trkpt>
      <trkpt lat="43.458059392869472503662109375" lon="1.43486204557120800018310546875">
        <ele>230.8000030517578125</ele>
        <time>2026-08-05T06:13:27.000Z</time>
        <extensions>
          <ns3:TrackPointExtension>
            <ns3:hr>76</ns3:hr>
            <ns3:cad>45</ns3:cad>
          </ns3:TrackPointExtension>
        </extensions>
      </trkpt>
      <trkpt lat="43.45805914141237735748291015625" lon="1.43487545661628246307373046875">
        <ele>230.600006103515625</ele>
        <time>2026-08-05T06:13:28.000Z</time>
        <extensions>
          <ns3:TrackPointExtension>
            <ns3:hr>77</ns3:hr>
            <ns3:cad>45</ns3:cad>
          </ns3:TrackPointExtension>
        </extensions>
      </trkpt>
      <trkpt lat="43.45805947668850421905517578125" lon="1.4348884485661983489990234375">
        <ele>230.600006103515625</ele>
        <time>2026-08-05T06:13:29.000Z</time>
        <extensions>
          <ns3:TrackPointExtension>
            <ns3:hr>77</ns3:hr>
            <ns3:cad>45</ns3:cad>
          </ns3:TrackPointExtension>
        </extensions>
      </trkpt>
      <trkpt lat="43.4580565430223941802978515625" lon="1.43489892594516277313232421875">
        <ele>230.399993896484375</ele>
        <time>2026-08-05T06:13:30.000Z</time>
        <extensions>
          <ns3:TrackPointExtension>
            <ns3:hr>78</ns3:hr>
            <ns3:cad>45</ns3:cad>
          </ns3:TrackPointExtension>
        </extensions>
      </trkpt>
      <trkpt lat="43.4580572135746479034423828125" lon="1.4349112473428249359130859375">
        <ele>230.399993896484375</ele>
        <time>2026-08-05T06:13:31.000Z</time>
        <extensions>
          <ns3:TrackPointExtension>
            <ns3:hr>79</ns3:hr>
            <ns3:cad>47</ns3:cad>
          </ns3:TrackPointExtension>
        </extensions>
      </trkpt>
      <trkpt lat="43.45805629156529903411865234375" lon="1.43492742441594600677490234375">
        <ele>230.1999969482421875</ele>
        <time>2026-08-05T06:13:32.000Z</time>
        <extensions>
          <ns3:TrackPointExtension>
            <ns3:hr>79</ns3:hr>
            <ns3:cad>47</ns3:cad>
          </ns3:TrackPointExtension>
        </extensions>
      </trkpt>
      <trkpt lat="43.45805629156529903411865234375" lon="1.43493915908038616180419921875">
        <ele>230.1999969482421875</ele>
        <time>2026-08-05T06:13:33.000Z</time>
        <extensions>
          <ns3:TrackPointExtension>
            <ns3:hr>79</ns3:hr>
            <ns3:cad>47</ns3:cad>
          </ns3:TrackPointExtension>
        </extensions>
      </trkpt>
      <trkpt lat="43.45805461518466472625732421875" lon="1.434949301183223724365234375">
        <ele>230</ele>
        <time>2026-08-05T06:13:34.000Z</time>
        <extensions>
          <ns3:TrackPointExtension>
            <ns3:hr>79</ns3:hr>
            <ns3:cad>47</ns3:cad>
          </ns3:TrackPointExtension>
        </extensions>
      </trkpt>
      <trkpt lat="43.45805176533758640289306640625" lon="1.43496313132345676422119140625">
        <ele>230</ele>
        <time>2026-08-05T06:13:35.000Z</time>
        <extensions>
          <ns3:TrackPointExtension>
            <ns3:hr>79</ns3:hr>
            <ns3:cad>47</ns3:cad>
          </ns3:TrackPointExtension>
        </extensions>
      </trkpt>
      <trkpt lat="43.45805092714726924896240234375" lon="1.4349793083965778350830078125">
        <ele>229.8000030517578125</ele>
        <time>2026-08-05T06:13:36.000Z</time>
        <extensions>
          <ns3:TrackPointExtension>
            <ns3:hr>79</ns3:hr>
            <ns3:cad>46</ns3:cad>
          </ns3:TrackPointExtension>
        </extensions>
      </trkpt>
      <trkpt lat="43.4580484963953495025634765625" lon="1.43499213270843029022216796875">
        <ele>229.600006103515625</ele>
        <time>2026-08-05T06:13:37.000Z</time>
        <extensions>
          <ns3:TrackPointExtension>
            <ns3:hr>78</ns3:hr>
            <ns3:cad>46</ns3:cad>
          </ns3:TrackPointExtension>
        </extensions>
      </trkpt>
      <trkpt lat="43.458045311272144317626953125" lon="1.4349994249641895294189453125">
        <ele>229.600006103515625</ele>
        <time>2026-08-05T06:13:38.000Z</time>
        <extensions>
          <ns3:TrackPointExtension>
            <ns3:hr>78</ns3:hr>
            <ns3:cad>45</ns3:cad>
          </ns3:TrackPointExtension>
        </extensions>
      </trkpt>
      <trkpt lat="43.45804028213024139404296875" lon="1.435011662542819976806640625">
        <ele>229.399993896484375</ele>
        <time>2026-08-05T06:13:39.000Z</time>
        <extensions>
          <ns3:TrackPointExtension>
            <ns3:hr>78</ns3:hr>
            <ns3:cad>45</ns3:cad>
          </ns3:TrackPointExtension>
        </extensions>
      </trkpt>
      <trkpt lat="43.45803885720670223236083984375" lon="1.435023061931133270263671875">
        <ele>229.399993896484375</ele>
        <time>2026-08-05T06:13:40.000Z</time>
        <extensions>
          <ns3:TrackPointExtension>
            <ns3:hr>78</ns3:hr>
            <ns3:cad>47</ns3:cad>
          </ns3:TrackPointExtension>
        </extensions>
      </trkpt>
      <trkpt lat="43.45803801901638507843017578125" lon="1.4350386522710323333740234375">
        <ele>229.1999969482421875</ele>
        <time>2026-08-05T06:13:41.000Z</time>
        <extensions>
          <ns3:TrackPointExtension>
            <ns3:hr>77</ns3:hr>
            <ns3:cad>49</ns3:cad>
          </ns3:TrackPointExtension>
        </extensions>
      </trkpt>
      <trkpt lat="43.45803734846413135528564453125" lon="1.4350497163832187652587890625">
        <ele>229.1999969482421875</ele>
        <time>2026-08-05T06:13:42.000Z</time>
        <extensions>
          <ns3:TrackPointExtension>
            <ns3:hr>77</ns3:hr>
            <ns3:cad>49</ns3:cad>
          </ns3:TrackPointExtension>
        </extensions>
      </trkpt>
      <trkpt lat="43.45803718082606792449951171875" lon="1.43506170250475406646728515625">
        <ele>229</ele>
        <time>2026-08-05T06:13:43.000Z</time>
        <extensions>
          <ns3:TrackPointExtension>
            <ns3:hr>77</ns3:hr>
            <ns3:cad>49</ns3:cad>
          </ns3:TrackPointExtension>
        </extensions>
      </trkpt>
      <trkpt lat="43.45803625881671905517578125" lon="1.43507293425500392913818359375">
        <ele>228.8000030517578125</ele>
        <time>2026-08-05T06:13:44.000Z</time>
        <extensions>
          <ns3:TrackPointExtension>
            <ns3:hr>77</ns3:hr>
            <ns3:cad>48</ns3:cad>
          </ns3:TrackPointExtension>
        </extensions>
      </trkpt>
      <trkpt lat="43.4580367617309093475341796875" lon="1.43508768640458583831787109375">
        <ele>228.600006103515625</ele>
        <time>2026-08-05T06:13:45.000Z</time>
        <extensions>
          <ns3:TrackPointExtension>
            <ns3:hr>78</ns3:hr>
            <ns3:cad>47</ns3:cad>
          </ns3:TrackPointExtension>
        </extensions>
      </trkpt>
      <trkpt lat="43.4580369293689727783203125" lon="1.43510009162127971649169921875">
        <ele>228.600006103515625</ele>
        <time>2026-08-05T06:13:46.000Z</time>
        <extensions>
          <ns3:TrackPointExtension>
            <ns3:hr>77</ns3:hr>
            <ns3:cad>47</ns3:cad>
          </ns3:TrackPointExtension>
        </extensions>
      </trkpt>
      <trkpt lat="43.45803617499768733978271484375" lon="1.43511199392378330230712890625">
        <ele>228.399993896484375</ele>
        <time>2026-08-05T06:13:47.000Z</time>
        <extensions>
          <ns3:TrackPointExtension>
            <ns3:hr>77</ns3:hr>
            <ns3:cad>47</ns3:cad>
          </ns3:TrackPointExtension>
        </extensions>
      </trkpt>
      <trkpt lat="43.458034582436084747314453125" lon="1.43512188456952571868896484375">
        <ele>228.1999969482421875</ele>
        <time>2026-08-05T06:13:48.000Z</time>
        <extensions>
          <ns3:TrackPointExtension>
            <ns3:hr>77</ns3:hr>
            <ns3:cad>47</ns3:cad>
          </ns3:TrackPointExtension>
        </extensions>
      </trkpt>
      <trkpt lat="43.458033241331577301025390625" lon="1.435134373605251312255859375">
        <ele>228</ele>
        <time>2026-08-05T06:13:49.000Z</time>
        <extensions>
          <ns3:TrackPointExtension>
            <ns3:hr>77</ns3:hr>
            <ns3:cad>47</ns3:cad>
          </ns3:TrackPointExtension>
        </extensions>
      </trkpt>
      <trkpt lat="43.45803399570286273956298828125" lon="1.4351462759077548980712890625">
        <ele>228</ele>
        <time>2026-08-05T06:13:50.000Z</time>
        <extensions>
          <ns3:TrackPointExtension>
            <ns3:hr>77</ns3:hr>
            <ns3:cad>47</ns3:cad>
          </ns3:TrackPointExtension>
        </extensions>
      </trkpt>
      <trkpt lat="43.45803852193057537078857421875" lon="1.43515977077186107635498046875">
        <ele>227.8000030517578125</ele>
        <time>2026-08-05T06:13:51.000Z</time>
        <extensions>
          <ns3:TrackPointExtension>
            <ns3:hr>76</ns3:hr>
            <ns3:cad>47</ns3:cad>
          </ns3:TrackPointExtension>
        </extensions>
      </trkpt>
      <trkpt lat="43.45804053358733654022216796875" lon="1.43517552874982357025146484375">
        <ele>227.600006103515625</ele>
        <time>2026-08-05T06:13:52.000Z</time>
        <extensions>
          <ns3:TrackPointExtension>
            <ns3:hr>76</ns3:hr>
            <ns3:cad>48</ns3:cad>
          </ns3:TrackPointExtension>
        </extensions>
      </trkpt>
      <trkpt lat="43.4580421261489391326904296875" lon="1.4351901970803737640380859375">
        <ele>227.600006103515625</ele>
        <time>2026-08-05T06:13:53.000Z</time>
        <extensions>
          <ns3:TrackPointExtension>
            <ns3:hr>74</ns3:hr>
            <ns3:cad>48</ns3:cad>
          </ns3:TrackPointExtension>
        </extensions>
      </trkpt>
      <trkpt lat="43.45803952775895595550537109375" lon="1.43520402722060680389404296875">
        <ele>227.399993896484375</ele>
        <time>2026-08-05T06:13:54.000Z</time>
        <extensions>
          <ns3:TrackPointExtension>
            <ns3:hr>73</ns3:hr>
            <ns3:cad>48</ns3:cad>
          </ns3:TrackPointExtension>
        </extensions>
      </trkpt>
      <trkpt lat="43.4580367617309093475341796875" lon="1.4352143369615077972412109375">
        <ele>227.1999969482421875</ele>
        <time>2026-08-05T06:13:55.000Z</time>
        <extensions>
          <ns3:TrackPointExtension>
            <ns3:hr>72</ns3:hr>
            <ns3:cad>48</ns3:cad>
          </ns3:TrackPointExtension>
        </extensions>
      </trkpt>
      <trkpt lat="43.45803617499768733978271484375" lon="1.435227580368518829345703125">
        <ele>227</ele>
        <time>2026-08-05T06:13:56.000Z</time>
        <extensions>
          <ns3:TrackPointExtension>
            <ns3:hr>72</ns3:hr>
            <ns3:cad>48</ns3:cad>
          </ns3:TrackPointExtension>
        </extensions>
      </trkpt>
      <trkpt lat="43.45803785137832164764404296875" lon="1.4352384768426418304443359375">
        <ele>226.8000030517578125</ele>
        <time>2026-08-05T06:13:57.000Z</time>
        <extensions>
          <ns3:TrackPointExtension>
            <ns3:hr>72</ns3:hr>
            <ns3:cad>49</ns3:cad>
          </ns3:TrackPointExtension>
        </extensions>
      </trkpt>
      <trkpt lat="43.4580391086637973785400390625" lon="1.4352502115070819854736328125">
        <ele>226.8000030517578125</ele>
        <time>2026-08-05T06:13:58.000Z</time>
        <extensions>
          <ns3:TrackPointExtension>
            <ns3:hr>72</ns3:hr>
            <ns3:cad>49</ns3:cad>
          </ns3:TrackPointExtension>
        </extensions>
      </trkpt>
      <trkpt lat="43.4580374322831630706787109375" lon="1.435263454914093017578125">
        <ele>226.600006103515625</ele>
        <time>2026-08-05T06:13:59.000Z</time>
        <extensions>
          <ns3:TrackPointExtension>
            <ns3:hr>72</ns3:hr>
            <ns3:cad>50</ns3:cad>
          </ns3:TrackPointExtension>
        </extensions>
      </trkpt>
      <trkpt lat="43.45803516916930675506591796875" lon="1.43527812324464321136474609375">
        <ele>226.399993896484375</ele>
        <time>2026-08-05T06:14:00.000Z</time>
        <extensions>
          <ns3:TrackPointExtension>
            <ns3:hr>71</ns3:hr>
            <ns3:cad>50</ns3:cad>
          </ns3:TrackPointExtension>
        </extensions>
      </trkpt>
      <trkpt lat="43.45803483389317989349365234375" lon="1.43529304303228855133056640625">
        <ele>226.399993896484375</ele>
        <time>2026-08-05T06:14:01.000Z</time>
        <extensions>
          <ns3:TrackPointExtension>
            <ns3:hr>71</ns3:hr>
            <ns3:cad>50</ns3:cad>
          </ns3:TrackPointExtension>
        </extensions>
      </trkpt>
      <trkpt lat="43.4580374322831630706787109375" lon="1.4353062026202678680419921875">
        <ele>226.1999969482421875</ele>
        <time>2026-08-05T06:14:02.000Z</time>
        <extensions>
          <ns3:TrackPointExtension>
            <ns3:hr>71</ns3:hr>
            <ns3:cad>49</ns3:cad>
          </ns3:TrackPointExtension>
        </extensions>
      </trkpt>
      <trkpt lat="43.45803969539701938629150390625" lon="1.43532237969338893890380859375">
        <ele>226</ele>
        <time>2026-08-05T06:14:03.000Z</time>
        <extensions>
          <ns3:TrackPointExtension>
            <ns3:hr>71</ns3:hr>
            <ns3:cad>49</ns3:cad>
          </ns3:TrackPointExtension>
        </extensions>
      </trkpt>
      <trkpt lat="43.458041287958621978759765625" lon="1.43533386290073394775390625">
        <ele>226</ele>
        <time>2026-08-05T06:14:04.000Z</time>
        <extensions>
          <ns3:TrackPointExtension>
            <ns3:hr>71</ns3:hr>
            <ns3:cad>49</ns3:cad>
          </ns3:TrackPointExtension>
        </extensions>
      </trkpt>
      <trkpt lat="43.45804162323474884033203125" lon="1.435344256460666656494140625">
        <ele>225.8000030517578125</ele>
        <time>2026-08-05T06:14:05.000Z</time>
        <extensions>
          <ns3:TrackPointExtension>
            <ns3:hr>71</ns3:hr>
            <ns3:cad>49</ns3:cad>
          </ns3:TrackPointExtension>
        </extensions>
      </trkpt>
      <trkpt lat="43.4580411203205585479736328125" lon="1.43535573966801166534423828125">
        <ele>225.8000030517578125</ele>
        <time>2026-08-05T06:14:06.000Z</time>
        <extensions>
          <ns3:TrackPointExtension>
            <ns3:hr>71</ns3:hr>
            <ns3:cad>49</ns3:cad>
          </ns3:TrackPointExtension>
        </extensions>
      </trkpt>
      <trkpt lat="43.4580407850444316864013671875" lon="1.43536747433245182037353515625">
        <ele>225.600006103515625</ele>
        <time>2026-08-05T06:14:07.000Z</time>
        <extensions>
          <ns3:TrackPointExtension>
            <ns3:hr>70</ns3:hr>
            <ns3:cad>49</ns3:cad>
          </ns3:TrackPointExtension>
        </extensions>
      </trkpt>
      <trkpt lat="43.45804070122539997100830078125" lon="1.43538222648203372955322265625">
        <ele>225.399993896484375</ele>
        <time>2026-08-05T06:14:08.000Z</time>
        <extensions>
          <ns3:TrackPointExtension>
            <ns3:hr>69</ns3:hr>
            <ns3:cad>50</ns3:cad>
          </ns3:TrackPointExtension>
        </extensions>
      </trkpt>
      <trkpt lat="43.4580424614250659942626953125" lon="1.4353933744132518768310546875">
        <ele>225.1999969482421875</ele>
        <time>2026-08-05T06:14:09.000Z</time>
        <extensions>
          <ns3:TrackPointExtension>
            <ns3:hr>68</ns3:hr>
            <ns3:cad>50</ns3:cad>
          </ns3:TrackPointExtension>
        </extensions>
      </trkpt>
      <trkpt lat="43.45804103650152683258056640625" lon="1.4354081265628337860107421875">
        <ele>225.1999969482421875</ele>
        <time>2026-08-05T06:14:10.000Z</time>
        <extensions>
          <ns3:TrackPointExtension>
            <ns3:hr>66</ns3:hr>
            <ns3:cad>48</ns3:cad>
          </ns3:TrackPointExtension>
        </extensions>
      </trkpt>
      <trkpt lat="43.4580401144921779632568359375" lon="1.43542178906500339508056640625">
        <ele>225</ele>
        <time>2026-08-05T06:14:11.000Z</time>
        <extensions>
          <ns3:TrackPointExtension>
            <ns3:hr>65</ns3:hr>
            <ns3:cad>48</ns3:cad>
          </ns3:TrackPointExtension>
        </extensions>
      </trkpt>
      <trkpt lat="43.45803969539701938629150390625" lon="1.435435116291046142578125">
        <ele>224.8000030517578125</ele>
        <time>2026-08-05T06:14:12.000Z</time>
        <extensions>
          <ns3:TrackPointExtension>
            <ns3:hr>62</ns3:hr>
            <ns3:cad>48</ns3:cad>
          </ns3:TrackPointExtension>
        </extensions>
      </trkpt>
      <trkpt lat="43.4580407850444316864013671875" lon="1.43544760532677173614501953125">
        <ele>224.8000030517578125</ele>
        <time>2026-08-05T06:14:13.000Z</time>
        <extensions>
          <ns3:TrackPointExtension>
            <ns3:hr>60</ns3:hr>
            <ns3:cad>49</ns3:cad>
          </ns3:TrackPointExtension>
        </extensions>
      </trkpt>
      <trkpt lat="43.45804137177765369415283203125" lon="1.4354634471237659454345703125">
        <ele>224.600006103515625</ele>
        <time>2026-08-05T06:14:14.000Z</time>
        <extensions>
          <ns3:TrackPointExtension>
            <ns3:hr>60</ns3:hr>
            <ns3:cad>49</ns3:cad>
          </ns3:TrackPointExtension>
        </extensions>
      </trkpt>
      <trkpt lat="43.45804053358733654022216796875" lon="1.435478031635284423828125">
        <ele>224.399993896484375</ele>
        <time>2026-08-05T06:14:15.000Z</time>
        <extensions>
          <ns3:TrackPointExtension>
            <ns3:hr>59</ns3:hr>
            <ns3:cad>49</ns3:cad>
          </ns3:TrackPointExtension>
        </extensions>
      </trkpt>
      <trkpt lat="43.458039276301860809326171875" lon="1.43549119122326374053955078125">
        <ele>224.399993896484375</ele>
        <time>2026-08-05T06:14:16.000Z</time>
        <extensions>
          <ns3:TrackPointExtension>
            <ns3:hr>59</ns3:hr>
            <ns3:cad>49</ns3:cad>
          </ns3:TrackPointExtension>
        </extensions>
      </trkpt>
      <trkpt lat="43.45803885720670223236083984375" lon="1.43550275824964046478271484375">
        <ele>224.1999969482421875</ele>
        <time>2026-08-05T06:14:17.000Z</time>
        <extensions>
          <ns3:TrackPointExtension>
            <ns3:hr>59</ns3:hr>
            <ns3:cad>48</ns3:cad>
          </ns3:TrackPointExtension>
        </extensions>
      </trkpt>
      <trkpt lat="43.45803894102573394775390625" lon="1.4355164207518100738525390625">
        <ele>224</ele>
        <time>2026-08-05T06:14:18.000Z</time>
        <extensions>
          <ns3:TrackPointExtension>
            <ns3:hr>59</ns3:hr>
            <ns3:cad>48</ns3:cad>
          </ns3:TrackPointExtension>
        </extensions>
      </trkpt>
      <trkpt lat="43.45803835429251194000244140625" lon="1.43553243018686771392822265625">
        <ele>224</ele>
        <time>2026-08-05T06:14:19.000Z</time>
        <extensions>
          <ns3:TrackPointExtension>
            <ns3:hr>58</ns3:hr>
            <ns3:cad>49</ns3:cad>
          </ns3:TrackPointExtension>
        </extensions>
      </trkpt>
      <trkpt lat="43.4580347500741481781005859375" lon="1.43554751761257648468017578125">
        <ele>223.8000030517578125</ele>
        <time>2026-08-05T06:14:20.000Z</time>
        <extensions>
          <ns3:TrackPointExtension>
            <ns3:hr>58</ns3:hr>
            <ns3:cad>49</ns3:cad>
          </ns3:TrackPointExtension>
        </extensions>
      </trkpt>
      <trkpt lat="43.45803315751254558563232421875" lon="1.43556243740022182464599609375">
        <ele>223.600006103515625</ele>
        <time>2026-08-05T06:14:21.000Z</time>
        <extensions>
          <ns3:TrackPointExtension>
            <ns3:hr>58</ns3:hr>
            <ns3:cad>49</ns3:cad>
          </ns3:TrackPointExtension>
        </extensions>
      </trkpt>
      <trkpt lat="43.4580293856561183929443359375" lon="1.435578949749469757080078125">
        <ele>223.399993896484375</ele>
        <time>2026-08-05T06:14:22.000Z</time>
        <extensions>
          <ns3:TrackPointExtension>
            <ns3:hr>58</ns3:hr>
            <ns3:cad>51</ns3:cad>
          </ns3:TrackPointExtension>
        </extensions>
      </trkpt>
      <trkpt lat="43.4580236859619617462158203125" lon="1.43559135496616363525390625">
        <ele>223.1999969482421875</ele>
        <time>2026-08-05T06:14:23.000Z</time>
        <extensions>
          <ns3:TrackPointExtension>
            <ns3:hr>58</ns3:hr>
            <ns3:cad>51</ns3:cad>
          </ns3:TrackPointExtension>
        </extensions>
      </trkpt>
      <trkpt lat="43.45802209340035915374755859375" lon="1.4356045983731746673583984375">
        <ele>223.1999969482421875</ele>
        <time>2026-08-05T06:14:24.000Z</time>
        <extensions>
          <ns3:TrackPointExtension>
            <ns3:hr>57</ns3:hr>
            <ns3:cad>50</ns3:cad>
          </ns3:TrackPointExtension>
        </extensions>
      </trkpt>
      <trkpt lat="43.458017148077487945556640625" lon="1.43562010489404201507568359375">
        <ele>223</ele>
        <time>2026-08-05T06:14:25.000Z</time>
        <extensions>
          <ns3:TrackPointExtension>
            <ns3:hr>57</ns3:hr>
            <ns3:cad>50</ns3:cad>
          </ns3:TrackPointExtension>
        </extensions>
      </trkpt>
      <trkpt lat="43.45801438204944133758544921875" lon="1.43563401885330677032470703125">
        <ele>222.8000030517578125</ele>
        <time>2026-08-05T06:14:26.000Z</time>
        <extensions>
          <ns3:TrackPointExtension>
            <ns3:hr>57</ns3:hr>
            <ns3:cad>50</ns3:cad>
          </ns3:TrackPointExtension>
        </extensions>
      </trkpt>
      <trkpt lat="43.4580106101930141448974609375" lon="1.4356441609561443328857421875">
        <ele>222.600006103515625</ele>
        <time>2026-08-05T06:14:27.000Z</time>
        <extensions>
          <ns3:TrackPointExtension>
            <ns3:hr>57</ns3:hr>
            <ns3:cad>50</ns3:cad>
          </ns3:TrackPointExtension>
        </extensions>
      </trkpt>
      <trkpt lat="43.4580074250698089599609375" lon="1.4356538839638233184814453125">
        <ele>222.600006103515625</ele>
        <time>2026-08-05T06:14:28.000Z</time>
        <extensions>
          <ns3:TrackPointExtension>
            <ns3:hr>57</ns3:hr>
            <ns3:cad>50</ns3:cad>
          </ns3:TrackPointExtension>
        </extensions>
      </trkpt>
      <trkpt lat="43.45800281502306461334228515625" lon="1.43566436134278774261474609375">
        <ele>222.399993896484375</ele>
        <time>2026-08-05T06:14:29.000Z</time>
        <extensions>
          <ns3:TrackPointExtension>
            <ns3:hr>57</ns3:hr>
            <ns3:cad>49</ns3:cad>
          </ns3:TrackPointExtension>
        </extensions>
      </trkpt>
      <trkpt lat="43.4579980373382568359375" lon="1.43567441962659358978271484375">
        <ele>222.1999969482421875</ele>
        <time>2026-08-05T06:14:30.000Z</time>
        <extensions>
          <ns3:TrackPointExtension>
            <ns3:hr>57</ns3:hr>
            <ns3:cad>49</ns3:cad>
          </ns3:TrackPointExtension>
        </extensions>
      </trkpt>
      <trkpt lat="43.4579951874911785125732421875" lon="1.4356840588152408599853515625">
        <ele>222.1999969482421875</ele>
        <time>2026-08-05T06:14:31.000Z</time>
        <extensions>
          <ns3:TrackPointExtension>
            <ns3:hr>56</ns3:hr>
            <ns3:cad>49</ns3:cad>
          </ns3:TrackPointExtension>
        </extensions>
      </trkpt>
      <trkpt lat="43.4579904936254024505615234375" lon="1.4356904290616512298583984375">
        <ele>222</ele>
        <time>2026-08-05T06:14:32.000Z</time>
        <extensions>
          <ns3:TrackPointExtension>
            <ns3:hr>56</ns3:hr>
            <ns3:cad>48</ns3:cad>
          </ns3:TrackPointExtension>
        </extensions>
      </trkpt>
      <trkpt lat="43.45798739232122898101806640625" lon="1.43569688312709331512451171875">
        <ele>221.8000030517578125</ele>
        <time>2026-08-05T06:14:33.000Z</time>
        <extensions>
          <ns3:TrackPointExtension>
            <ns3:hr>56</ns3:hr>
            <ns3:cad>48</ns3:cad>
          </ns3:TrackPointExtension>
        </extensions>
      </trkpt>
      <trkpt lat="43.45798320136964321136474609375" lon="1.4357031695544719696044921875">
        <ele>221.8000030517578125</ele>
        <time>2026-08-05T06:14:34.000Z</time>
        <extensions>
          <ns3:TrackPointExtension>
            <ns3:hr>56</ns3:hr>
            <ns3:cad>47</ns3:cad>
          </ns3:TrackPointExtension>
        </extensions>
      </trkpt>
      <trkpt lat="43.45797247253358364105224609375" lon="1.435716412961483001708984375">
        <ele>221.600006103515625</ele>
        <time>2026-08-05T06:14:35.000Z</time>
        <extensions>
          <ns3:TrackPointExtension>
            <ns3:hr>57</ns3:hr>
            <ns3:cad>47</ns3:cad>
          </ns3:TrackPointExtension>
        </extensions>
      </trkpt>
      <trkpt lat="43.45796492882072925567626953125" lon="1.4357229508459568023681640625">
        <ele>221.399993896484375</ele>
        <time>2026-08-05T06:14:36.000Z</time>
        <extensions>
          <ns3:TrackPointExtension>
            <ns3:hr>56</ns3:hr>
            <ns3:cad>48</ns3:cad>
          </ns3:TrackPointExtension>
        </extensions>
      </trkpt>
      <trkpt lat="43.45795738510787487030029296875" lon="1.435731835663318634033203125">
        <ele>221.1999969482421875</ele>
        <time>2026-08-05T06:14:37.000Z</time>
        <extensions>
          <ns3:TrackPointExtension>
            <ns3:hr>56</ns3:hr>
            <ns3:cad>48</ns3:cad>
          </ns3:TrackPointExtension>
        </extensions>
      </trkpt>
      <trkpt lat="43.4579489193856716156005859375" lon="1.43573694862425327301025390625">
        <ele>221</ele>
        <time>2026-08-05T06:14:38.000Z</time>
        <extensions>
          <ns3:TrackPointExtension>
            <ns3:hr>56</ns3:hr>
            <ns3:cad>48</ns3:cad>
          </ns3:TrackPointExtension>
        </extensions>
      </trkpt>
      <trkpt lat="43.457941375672817230224609375" lon="1.43574365414679050445556640625">
        <ele>221</ele>
        <time>2026-08-05T06:14:39.000Z</time>
        <extensions>
          <ns3:TrackPointExtension>
            <ns3:hr>56</ns3:hr>
            <ns3:cad>47</ns3:cad>
          </ns3:TrackPointExtension>
        </extensions>
      </trkpt>
      <trkpt lat="43.45793257467448711395263671875" lon="1.435753293335437774658203125">
        <ele>220.8000030517578125</ele>
        <time>2026-08-05T06:14:40.000Z</time>
        <extensions>
          <ns3:TrackPointExtension>
            <ns3:hr>56</ns3:hr>
            <ns3:cad>47</ns3:cad>
          </ns3:TrackPointExtension>
        </extensions>
      </trkpt>
      <trkpt lat="43.4579217620193958282470703125" lon="1.4357648603618144989013671875">
        <ele>220.600006103515625</ele>
        <time>2026-08-05T06:14:41.000Z</time>
        <extensions>
          <ns3:TrackPointExtension>
            <ns3:hr>55</ns3:hr>
            <ns3:cad>47</ns3:cad>
          </ns3:TrackPointExtension>
        </extensions>
      </trkpt>
      <trkpt lat="43.4579133801162242889404296875" lon="1.43577433191239833831787109375">
        <ele>220.399993896484375</ele>
        <time>2026-08-05T06:14:42.000Z</time>
        <extensions>
          <ns3:TrackPointExtension>
            <ns3:hr>56</ns3:hr>
            <ns3:cad>47</ns3:cad>
          </ns3:TrackPointExtension>
        </extensions>
      </trkpt>
      <trkpt lat="43.4579056687653064727783203125" lon="1.4357824623584747314453125">
        <ele>220.1999969482421875</ele>
        <time>2026-08-05T06:14:43.000Z</time>
        <extensions>
          <ns3:TrackPointExtension>
            <ns3:hr>56</ns3:hr>
            <ns3:cad>48</ns3:cad>
          </ns3:TrackPointExtension>
        </extensions>
      </trkpt>
      <trkpt lat="43.45789904706180095672607421875" lon="1.43578715622425079345703125">
        <ele>220</ele>
        <time>2026-08-05T06:14:44.000Z</time>
        <extensions>
          <ns3:TrackPointExtension>
            <ns3:hr>55</ns3:hr>
            <ns3:cad>49</ns3:cad>
          </ns3:TrackPointExtension>
        </extensions>
      </trkpt>
      <trkpt lat="43.45789276063442230224609375" lon="1.4357967115938663482666015625">
        <ele>220</ele>
        <time>2026-08-05T06:14:45.000Z</time>
        <extensions>
          <ns3:TrackPointExtension>
            <ns3:hr>56</ns3:hr>
            <ns3:cad>49</ns3:cad>
          </ns3:TrackPointExtension>
        </extensions>
      </trkpt>
      <trkpt lat="43.45788530074059963226318359375" lon="1.43580098636448383331298828125">
        <ele>219.8000030517578125</ele>
        <time>2026-08-05T06:14:46.000Z</time>
        <extensions>
          <ns3:TrackPointExtension>
            <ns3:hr>56</ns3:hr>
            <ns3:cad>48</ns3:cad>
          </ns3:TrackPointExtension>
        </extensions>
      </trkpt>
      <trkpt lat="43.4578788466751575469970703125" lon="1.43580903299152851104736328125">
        <ele>219.8000030517578125</ele>
        <time>2026-08-05T06:14:47.000Z</time>
        <extensions>
          <ns3:TrackPointExtension>
            <ns3:hr>55</ns3:hr>
            <ns3:cad>48</ns3:cad>
          </ns3:TrackPointExtension>
        </extensions>
      </trkpt>
      <trkpt lat="43.45787725411355495452880859375" lon="1.43581422977149486541748046875">
        <ele>219.600006103515625</ele>
        <time>2026-08-05T06:14:48.000Z</time>
        <extensions>
          <ns3:TrackPointExtension>
            <ns3:hr>55</ns3:hr>
            <ns3:cad>49</ns3:cad>
          </ns3:TrackPointExtension>
        </extensions>
      </trkpt>
      <trkpt lat="43.4578786790370941162109375" lon="1.43581205047667026519775390625">
        <ele>219.600006103515625</ele>
        <time>2026-08-05T06:14:49.000Z</time>
        <extensions>
          <ns3:TrackPointExtension>
            <ns3:hr>55</ns3:hr>
            <ns3:cad>49</ns3:cad>
          </ns3:TrackPointExtension>
        </extensions>
      </trkpt>
      <trkpt lat="43.4578788466751575469970703125" lon="1.43581355921924114227294921875">
        <ele>219.600006103515625</ele>
        <time>2026-08-05T06:14:50.000Z</time>
        <extensions>
          <ns3:TrackPointExtension>
            <ns3:hr>55</ns3:hr>
            <ns3:cad>0</ns3:cad>
          </ns3:TrackPointExtension>
        </extensions>
      </trkpt>
      <trkpt lat="43.4578786790370941162109375" lon="1.43581355921924114227294921875">
        <ele>219.399993896484375</ele>
        <time>2026-08-05T06:14:51.000Z</time>
        <extensions>
          <ns3:TrackPointExtension>
            <ns3:hr>55</ns3:hr>
            <ns3:cad>0</ns3:cad>
          </ns3:TrackPointExtension>
        </extensions>
      </trkpt>
      <trkpt lat="43.45787859521806240081787109375" lon="1.435813643038272857666015625">
        <ele>219.399993896484375</ele>
        <time>2026-08-05T06:14:52.000Z</time>
        <extensions>
          <ns3:TrackPointExtension>
            <ns3:hr>55</ns3:hr>
            <ns3:cad>0</ns3:cad>
          </ns3:TrackPointExtension>
        </extensions>
      </trkpt>
      <trkpt lat="43.45787239260971546173095703125" lon="1.4358200132846832275390625">
        <ele>219.399993896484375</ele>
        <time>2026-08-05T06:14:53.000Z</time>
        <extensions>
          <ns3:TrackPointExtension>
            <ns3:hr>55</ns3:hr>
            <ns3:cad>0</ns3:cad>
          </ns3:TrackPointExtension>
        </extensions>
      </trkpt>
      <trkpt lat="43.4578661061823368072509765625" lon="1.435825712978839874267578125">
        <ele>219.399993896484375</ele>
        <time>2026-08-05T06:14:54.000Z</time>
        <extensions>
          <ns3:TrackPointExtension>
            <ns3:hr>56</ns3:hr>
            <ns3:cad>0</ns3:cad>
          </ns3:TrackPointExtension>
        </extensions>
      </trkpt>
      <trkpt lat="43.4578610770404338836669921875" lon="1.435828395187854766845703125">
        <ele>219.399993896484375</ele>
        <time>2026-08-05T06:14:55.000Z</time>
        <extensions>
          <ns3:TrackPointExtension>
            <ns3:hr>56</ns3:hr>
            <ns3:cad>0</ns3:cad>
          </ns3:TrackPointExtension>
        </extensions>
      </trkpt>
      <trkpt lat="43.457856215536594390869140625" lon="1.43582898192107677459716796875">
        <ele>219.1999969482421875</ele>
        <time>2026-08-05T06:14:56.000Z</time>
        <extensions>
          <ns3:TrackPointExtension>
            <ns3:hr>57</ns3:hr>
            <ns3:cad>0</ns3:cad>
          </ns3:TrackPointExtension>
        </extensions>
      </trkpt>
      <trkpt lat="43.45784850418567657470703125" lon="1.43583132885396480560302734375">
        <ele>219.1999969482421875</ele>
        <time>2026-08-05T06:14:57.000Z</time>
        <extensions>
          <ns3:TrackPointExtension>
            <ns3:hr>57</ns3:hr>
            <ns3:cad>0</ns3:cad>
          </ns3:TrackPointExtension>
        </extensions>
      </trkpt>
      <trkpt lat="43.45784154720604419708251953125" lon="1.4358379505574703216552734375">
        <ele>219</ele>
        <time>2026-08-05T06:14:58.000Z</time>
        <extensions>
          <ns3:TrackPointExtension>
            <ns3:hr>57</ns3:hr>
            <ns3:cad>0</ns3:cad>
          </ns3:TrackPointExtension>
        </extensions>
      </trkpt>
      <trkpt lat="43.4578355960547924041748046875" lon="1.43584524281322956085205078125">
        <ele>219</ele>
        <time>2026-08-05T06:14:59.000Z</time>
        <extensions>
          <ns3:TrackPointExtension>
            <ns3:hr>57</ns3:hr>
            <ns3:cad>45</ns3:cad>
          </ns3:TrackPointExtension>
        </extensions>
      </trkpt>
      <trkpt lat="43.457829058170318603515625" lon="1.43585429526865482330322265625">
        <ele>218.8000030517578125</ele>
        <time>2026-08-05T06:15:00.000Z</time>
        <extensions>
          <ns3:TrackPointExtension>
            <ns3:hr>56</ns3:hr>
            <ns3:cad>45</ns3:cad>
          </ns3:TrackPointExtension>
        </extensions>
      </trkpt>
      <trkpt lat="43.457823358476161956787109375" lon="1.43586183898150920867919921875">
        <ele>218.8000030517578125</ele>
        <time>2026-08-05T06:15:01.000Z</time>
        <extensions>
          <ns3:TrackPointExtension>
            <ns3:hr>57</ns3:hr>
            <ns3:cad>45</ns3:cad>
          </ns3:TrackPointExtension>
        </extensions>
      </trkpt>
      <trkpt lat="43.45781723968684673309326171875" lon="1.43586988560855388641357421875">
        <ele>218.8000030517578125</ele>
        <time>2026-08-05T06:15:02.000Z</time>
        <extensions>
          <ns3:TrackPointExtension>
            <ns3:hr>56</ns3:hr>
            <ns3:cad>45</ns3:cad>
          </ns3:TrackPointExtension>
        </extensions>
      </trkpt>
      <trkpt lat="43.45781405456364154815673828125" lon="1.4358781836926937103271484375">
        <ele>218.600006103515625</ele>
        <time>2026-08-05T06:15:03.000Z</time>
        <extensions>
          <ns3:TrackPointExtension>
            <ns3:hr>56</ns3:hr>
            <ns3:cad>46</ns3:cad>
          </ns3:TrackPointExtension>
        </extensions>
      </trkpt>
      <trkpt lat="43.45780919305980205535888671875" lon="1.43588245846331119537353515625">
        <ele>218.600006103515625</ele>
        <time>2026-08-05T06:15:04.000Z</time>
        <extensions>
          <ns3:TrackPointExtension>
            <ns3:hr>56</ns3:hr>
            <ns3:cad>46</ns3:cad>
          </ns3:TrackPointExtension>
        </extensions>
      </trkpt>
      <trkpt lat="43.45780315808951854705810546875" lon="1.43588765524327754974365234375">
        <ele>218.600006103515625</ele>
        <time>2026-08-05T06:15:05.000Z</time>
        <extensions>
          <ns3:TrackPointExtension>
            <ns3:hr>56</ns3:hr>
            <ns3:cad>46</ns3:cad>
          </ns3:TrackPointExtension>
        </extensions>
      </trkpt>
      <trkpt lat="43.4577977098524570465087890625" lon="1.43589310348033905029296875">
        <ele>218.399993896484375</ele>
        <time>2026-08-05T06:15:06.000Z</time>
        <extensions>
          <ns3:TrackPointExtension>
            <ns3:hr>57</ns3:hr>
            <ns3:cad>43</ns3:cad>
          </ns3:TrackPointExtension>
        </extensions>
      </trkpt>
      <trkpt lat="43.45779393799602985382080078125" lon="1.43589980900287628173828125">
        <ele>218.399993896484375</ele>
        <time>2026-08-05T06:15:07.000Z</time>
        <extensions>
          <ns3:TrackPointExtension>
            <ns3:hr>57</ns3:hr>
            <ns3:cad>43</ns3:cad>
          </ns3:TrackPointExtension>
        </extensions>
      </trkpt>
      <trkpt lat="43.45778605900704860687255859375" lon="1.435908861458301544189453125">
        <ele>218.1999969482421875</ele>
        <time>2026-08-05T06:15:08.000Z</time>
        <extensions>
          <ns3:TrackPointExtension>
            <ns3:hr>57</ns3:hr>
            <ns3:cad>44</ns3:cad>
          </ns3:TrackPointExtension>
        </extensions>
      </trkpt>
      <trkpt lat="43.4577775932848453521728515625" lon="1.4359157346189022064208984375">
        <ele>218.1999969482421875</ele>
        <time>2026-08-05T06:15:09.000Z</time>
        <extensions>
          <ns3:TrackPointExtension>
            <ns3:hr>57</ns3:hr>
            <ns3:cad>44</ns3:cad>
          </ns3:TrackPointExtension>
        </extensions>
      </trkpt>
      <trkpt lat="43.457769043743610382080078125" lon="1.43592285923659801483154296875">
        <ele>218.1999969482421875</ele>
        <time>2026-08-05T06:15:10.000Z</time>
        <extensions>
          <ns3:TrackPointExtension>
            <ns3:hr>57</ns3:hr>
            <ns3:cad>44</ns3:cad>
          </ns3:TrackPointExtension>
        </extensions>
      </trkpt>
      <trkpt lat="43.45776242204010486602783203125" lon="1.435929648578166961669921875">
        <ele>218</ele>
        <time>2026-08-05T06:15:11.000Z</time>
        <extensions>
          <ns3:TrackPointExtension>
            <ns3:hr>57</ns3:hr>
            <ns3:cad>45</ns3:cad>
          </ns3:TrackPointExtension>
        </extensions>
      </trkpt>
      <trkpt lat="43.45775730907917022705078125" lon="1.435939706861972808837890625">
        <ele>218</ele>
        <time>2026-08-05T06:15:12.000Z</time>
        <extensions>
          <ns3:TrackPointExtension>
            <ns3:hr>56</ns3:hr>
            <ns3:cad>45</ns3:cad>
          </ns3:TrackPointExtension>
        </extensions>
      </trkpt>
      <trkpt lat="43.45775119028985500335693359375" lon="1.43594750203192234039306640625">
        <ele>217.8000030517578125</ele>
        <time>2026-08-05T06:15:13.000Z</time>
        <extensions>
          <ns3:TrackPointExtension>
            <ns3:hr>56</ns3:hr>
            <ns3:cad>45</ns3:cad>
          </ns3:TrackPointExtension>
        </extensions>
      </trkpt>
      <trkpt lat="43.45774414949119091033935546875" lon="1.43595169298350811004638671875">
        <ele>217.600006103515625</ele>
        <time>2026-08-05T06:15:14.000Z</time>
        <extensions>
          <ns3:TrackPointExtension>
            <ns3:hr>55</ns3:hr>
            <ns3:cad>45</ns3:cad>
          </ns3:TrackPointExtension>
        </extensions>
      </trkpt>
      <trkpt lat="43.457734845578670501708984375" lon="1.43595789559185504913330078125">
        <ele>217.600006103515625</ele>
        <time>2026-08-05T06:15:15.000Z</time>
        <extensions>
          <ns3:TrackPointExtension>
            <ns3:hr>55</ns3:hr>
            <ns3:cad>45</ns3:cad>
          </ns3:TrackPointExtension>
        </extensions>
      </trkpt>
      <trkpt lat="43.45772721804678440093994140625" lon="1.43596661277115345001220703125">
        <ele>217.399993896484375</ele>
        <time>2026-08-05T06:15:16.000Z</time>
        <extensions>
          <ns3:TrackPointExtension>
            <ns3:hr>54</ns3:hr>
            <ns3:cad>45</ns3:cad>
          </ns3:TrackPointExtension>
        </extensions>
      </trkpt>
      <trkpt lat="43.45771967433393001556396484375" lon="1.43597449176013469696044921875">
        <ele>217.1999969482421875</ele>
        <time>2026-08-05T06:15:17.000Z</time>
        <extensions>
          <ns3:TrackPointExtension>
            <ns3:hr>54</ns3:hr>
            <ns3:cad>45</ns3:cad>
          </ns3:TrackPointExtension>
        </extensions>
      </trkpt>
      <trkpt lat="43.4577118791639804840087890625" lon="1.435984633862972259521484375">
        <ele>217.1999969482421875</ele>
        <time>2026-08-05T06:15:18.000Z</time>
        <extensions>
          <ns3:TrackPointExtension>
            <ns3:hr>54</ns3:hr>
            <ns3:cad>48</ns3:cad>
          </ns3:TrackPointExtension>
        </extensions>
      </trkpt>
      <trkpt lat="43.457704670727252960205078125" lon="1.43599033355712890625">
        <ele>217</ele>
        <time>2026-08-05T06:15:19.000Z</time>
        <extensions>
          <ns3:TrackPointExtension>
            <ns3:hr>54</ns3:hr>
            <ns3:cad>48</ns3:cad>
          </ns3:TrackPointExtension>
        </extensions>
      </trkpt>
      <trkpt lat="43.4576974622905254364013671875" lon="1.4359962008893489837646484375">
        <ele>216.8000030517578125</ele>
        <time>2026-08-05T06:15:20.000Z</time>
        <extensions>
          <ns3:TrackPointExtension>
            <ns3:hr>54</ns3:hr>
            <ns3:cad>48</ns3:cad>
          </ns3:TrackPointExtension>
        </extensions>
      </trkpt>
      <trkpt lat="43.45769251696765422821044921875" lon="1.43600433133542537689208984375">
        <ele>216.8000030517578125</ele>
        <time>2026-08-05T06:15:21.000Z</time>
        <extensions>
          <ns3:TrackPointExtension>
            <ns3:hr>54</ns3:hr>
            <ns3:cad>50</ns3:cad>
          </ns3:TrackPointExtension>
        </extensions>
      </trkpt>
      <trkpt lat="43.4576833806931972503662109375" lon="1.43601522780954837799072265625">
        <ele>216.600006103515625</ele>
        <time>2026-08-05T06:15:22.000Z</time>
        <extensions>
          <ns3:TrackPointExtension>
            <ns3:hr>55</ns3:hr>
            <ns3:cad>50</ns3:cad>
          </ns3:TrackPointExtension>
        </extensions>
      </trkpt>
      <trkpt lat="43.457675166428089141845703125" lon="1.436022855341434478759765625">
        <ele>216.600006103515625</ele>
        <time>2026-08-05T06:15:23.000Z</time>
        <extensions>
          <ns3:TrackPointExtension>
            <ns3:hr>54</ns3:hr>
            <ns3:cad>49</ns3:cad>
          </ns3:TrackPointExtension>
        </extensions>
      </trkpt>
      <trkpt lat="43.4576679579913616180419921875" lon="1.436030231416225433349609375">
        <ele>216.399993896484375</ele>
        <time>2026-08-05T06:15:24.000Z</time>
        <extensions>
          <ns3:TrackPointExtension>
            <ns3:hr>54</ns3:hr>
            <ns3:cad>49</ns3:cad>
          </ns3:TrackPointExtension>
        </extensions>
      </trkpt>
      <trkpt lat="43.457661084830760955810546875" lon="1.43603433854877948760986328125">
        <ele>216.1999969482421875</ele>
        <time>2026-08-05T06:15:25.000Z</time>
        <extensions>
          <ns3:TrackPointExtension>
            <ns3:hr>54</ns3:hr>
            <ns3:cad>48</ns3:cad>
          </ns3:TrackPointExtension>
        </extensions>
      </trkpt>
      <trkpt lat="43.45765530131757259368896484375" lon="1.436042301356792449951171875">
        <ele>216.1999969482421875</ele>
        <time>2026-08-05T06:15:26.000Z</time>
        <extensions>
          <ns3:TrackPointExtension>
            <ns3:hr>54</ns3:hr>
            <ns3:cad>48</ns3:cad>
          </ns3:TrackPointExtension>
        </extensions>
      </trkpt>
      <trkpt lat="43.457649014890193939208984375" lon="1.43605093471705913543701171875">
        <ele>216</ele>
        <time>2026-08-05T06:15:27.000Z</time>
        <extensions>
          <ns3:TrackPointExtension>
            <ns3:hr>53</ns3:hr>
            <ns3:cad>49</ns3:cad>
          </ns3:TrackPointExtension>
        </extensions>
      </trkpt>
      <trkpt lat="43.45764105208218097686767578125" lon="1.43605646677315235137939453125">
        <ele>215.8000030517578125</ele>
        <time>2026-08-05T06:15:28.000Z</time>
        <extensions>
          <ns3:TrackPointExtension>
            <ns3:hr>53</ns3:hr>
            <ns3:cad>49</ns3:cad>
          </ns3:TrackPointExtension>
        </extensions>
      </trkpt>
      <trkpt lat="43.4576345980167388916015625" lon="1.4360629208385944366455078125">
        <ele>215.8000030517578125</ele>
        <time>2026-08-05T06:15:29.000Z</time>
        <extensions>
          <ns3:TrackPointExtension>
            <ns3:hr>53</ns3:hr>
            <ns3:cad>48</ns3:cad>
          </ns3:TrackPointExtension>
        </extensions>
      </trkpt>
      <trkpt lat="43.4576297365128993988037109375" lon="1.43606878817081451416015625">
        <ele>215.600006103515625</ele>
        <time>2026-08-05T06:15:30.000Z</time>
        <extensions>
          <ns3:TrackPointExtension>
            <ns3:hr>53</ns3:hr>
            <ns3:cad>47</ns3:cad>
          </ns3:TrackPointExtension>
        </extensions>
      </trkpt>
      <trkpt lat="43.457621522247791290283203125" lon="1.43607792444527149200439453125">
        <ele>215.399993896484375</ele>
        <time>2026-08-05T06:15:31.000Z</time>
        <extensions>
          <ns3:TrackPointExtension>
            <ns3:hr>53</ns3:hr>
            <ns3:cad>47</ns3:cad>
          </ns3:TrackPointExtension>
        </extensions>
      </trkpt>
      <trkpt lat="43.4576159901916980743408203125" lon="1.43608647398650646209716796875">
        <ele>215.399993896484375</ele>
        <time>2026-08-05T06:15:32.000Z</time>
        <extensions>
          <ns3:TrackPointExtension>
            <ns3:hr>52</ns3:hr>
            <ns3:cad>47</ns3:cad>
          </ns3:TrackPointExtension>
        </extensions>
      </trkpt>
      <trkpt lat="43.45761003904044628143310546875" lon="1.43609217368066310882568359375">
        <ele>215.1999969482421875</ele>
        <time>2026-08-05T06:15:33.000Z</time>
        <extensions>
          <ns3:TrackPointExtension>
            <ns3:hr>53</ns3:hr>
            <ns3:cad>49</ns3:cad>
          </ns3:TrackPointExtension>
        </extensions>
      </trkpt>
      <trkpt lat="43.4576029144227504730224609375" lon="1.43609829246997833251953125">
        <ele>215</ele>
        <time>2026-08-05T06:15:34.000Z</time>
        <extensions>
          <ns3:TrackPointExtension>
            <ns3:hr>53</ns3:hr>
            <ns3:cad>49</ns3:cad>
          </ns3:TrackPointExtension>
        </extensions>
      </trkpt>
      <trkpt lat="43.45759578980505466461181640625" lon="1.43610524944961071014404296875">
        <ele>215</ele>
        <time>2026-08-05T06:15:35.000Z</time>
        <extensions>
          <ns3:TrackPointExtension>
            <ns3:hr>52</ns3:hr>
            <ns3:cad>48</ns3:cad>
          </ns3:TrackPointExtension>
        </extensions>
      </trkpt>
      <trkpt lat="43.45758824609220027923583984375" lon="1.43611446954309940338134765625">
        <ele>214.8000030517578125</ele>
        <time>2026-08-05T06:15:36.000Z</time>
        <extensions>
          <ns3:TrackPointExtension>
            <ns3:hr>53</ns3:hr>
            <ns3:cad>47</ns3:cad>
          </ns3:TrackPointExtension>
        </extensions>
      </trkpt>
      <trkpt lat="43.4575804509222507476806640625" lon="1.4361231029033660888671875">
        <ele>214.8000030517578125</ele>
        <time>2026-08-05T06:15:37.000Z</time>
        <extensions>
          <ns3:TrackPointExtension>
            <ns3:hr>53</ns3:hr>
            <ns3:cad>47</ns3:cad>
          </ns3:TrackPointExtension>
        </extensions>
      </trkpt>
      <trkpt lat="43.4575737453997135162353515625" lon="1.436131484806537628173828125">
        <ele>214.600006103515625</ele>
        <time>2026-08-05T06:15:38.000Z</time>
        <extensions>
          <ns3:TrackPointExtension>
            <ns3:hr>53</ns3:hr>
            <ns3:cad>46</ns3:cad>
          </ns3:TrackPointExtension>
        </extensions>
      </trkpt>
      <trkpt lat="43.4575660340487957000732421875" lon="1.43614028580486774444580078125">
        <ele>214.399993896484375</ele>
        <time>2026-08-05T06:15:39.000Z</time>
        <extensions>
          <ns3:TrackPointExtension>
            <ns3:hr>52</ns3:hr>
            <ns3:cad>46</ns3:cad>
          </ns3:TrackPointExtension>
        </extensions>
      </trkpt>
      <trkpt lat="43.4575594961643218994140625" lon="1.43614598549902439117431640625">
        <ele>214.1999969482421875</ele>
        <time>2026-08-05T06:15:40.000Z</time>
        <extensions>
          <ns3:TrackPointExtension>
            <ns3:hr>53</ns3:hr>
            <ns3:cad>47</ns3:cad>
          </ns3:TrackPointExtension>
        </extensions>
      </trkpt>
      <trkpt lat="43.4575532935559749603271484375" lon="1.43615252338349819183349609375">
        <ele>214.1999969482421875</ele>
        <time>2026-08-05T06:15:41.000Z</time>
        <extensions>
          <ns3:TrackPointExtension>
            <ns3:hr>53</ns3:hr>
            <ns3:cad>47</ns3:cad>
          </ns3:TrackPointExtension>
        </extensions>
      </trkpt>
      <trkpt lat="43.45754398964345455169677734375" lon="1.436160318553447723388671875">
        <ele>214</ele>
        <time>2026-08-05T06:15:42.000Z</time>
        <extensions>
          <ns3:TrackPointExtension>
            <ns3:hr>53</ns3:hr>
            <ns3:cad>47</ns3:cad>
          </ns3:TrackPointExtension>
        </extensions>
      </trkpt>
      <trkpt lat="43.45753460191190242767333984375" lon="1.43617029301822185516357421875">
        <ele>213.8000030517578125</ele>
        <time>2026-08-05T06:15:43.000Z</time>
        <extensions>
          <ns3:TrackPointExtension>
            <ns3:hr>53</ns3:hr>
            <ns3:cad>49</ns3:cad>
          </ns3:TrackPointExtension>
        </extensions>
      </trkpt>
      <trkpt lat="43.45752420835196971893310546875" lon="1.43618286587297916412353515625">
        <ele>213.8000030517578125</ele>
        <time>2026-08-05T06:15:44.000Z</time>
        <extensions>
          <ns3:TrackPointExtension>
            <ns3:hr>52</ns3:hr>
            <ns3:cad>52</ns3:cad>
          </ns3:TrackPointExtension>
        </extensions>
      </trkpt>
      <trkpt lat="43.4575170837342739105224609375" lon="1.43618948757648468017578125">
        <ele>213.600006103515625</ele>
        <time>2026-08-05T06:15:45.000Z</time>
        <extensions>
          <ns3:TrackPointExtension>
            <ns3:hr>53</ns3:hr>
            <ns3:cad>52</ns3:cad>
          </ns3:TrackPointExtension>
        </extensions>
      </trkpt>
      <trkpt lat="43.45750945620238780975341796875" lon="1.43619753420352935791015625">
        <ele>213.399993896484375</ele>
        <time>2026-08-05T06:15:46.000Z</time>
        <extensions>
          <ns3:TrackPointExtension>
            <ns3:hr>53</ns3:hr>
            <ns3:cad>52</ns3:cad>
          </ns3:TrackPointExtension>
        </extensions>
      </trkpt>
      <trkpt lat="43.45750006847083568572998046875" lon="1.43620180897414684295654296875">
        <ele>213.399993896484375</ele>
        <time>2026-08-05T06:15:47.000Z</time>
        <extensions>
          <ns3:TrackPointExtension>
            <ns3:hr>52</ns3:hr>
            <ns3:cad>52</ns3:cad>
          </ns3:TrackPointExtension>
        </extensions>
      </trkpt>
      <trkpt lat="43.4574922733008861541748046875" lon="1.43620767630636692047119140625">
        <ele>213.1999969482421875</ele>
        <time>2026-08-05T06:15:48.000Z</time>
        <extensions>
          <ns3:TrackPointExtension>
            <ns3:hr>53</ns3:hr>
            <ns3:cad>51</ns3:cad>
          </ns3:TrackPointExtension>
        </extensions>
      </trkpt>
      <trkpt lat="43.45748104155063629150390625" lon="1.43621639348566532135009765625">
        <ele>213</ele>
        <time>2026-08-05T06:15:49.000Z</time>
        <extensions>
          <ns3:TrackPointExtension>
            <ns3:hr>53</ns3:hr>
            <ns3:cad>51</ns3:cad>
          </ns3:TrackPointExtension>
        </extensions>
      </trkpt>
      <trkpt lat="43.45747433602809906005859375" lon="1.43622242845594882965087890625">
        <ele>212.8000030517578125</ele>
        <time>2026-08-05T06:15:50.000Z</time>
        <extensions>
          <ns3:TrackPointExtension>
            <ns3:hr>53</ns3:hr>
            <ns3:cad>51</ns3:cad>
          </ns3:TrackPointExtension>
        </extensions>
      </trkpt>
      <trkpt lat="43.45746419392526149749755859375" lon="1.436228714883327484130859375">
        <ele>212.8000030517578125</ele>
        <time>2026-08-05T06:15:51.000Z</time>
        <extensions>
          <ns3:TrackPointExtension>
            <ns3:hr>54</ns3:hr>
            <ns3:cad>51</ns3:cad>
          </ns3:TrackPointExtension>
        </extensions>
      </trkpt>
      <trkpt lat="43.45745732076466083526611328125" lon="1.43623416312038898468017578125">
        <ele>212.600006103515625</ele>
        <time>2026-08-05T06:15:52.000Z</time>
        <extensions>
          <ns3:TrackPointExtension>
            <ns3:hr>56</ns3:hr>
            <ns3:cad>48</ns3:cad>
          </ns3:TrackPointExtension>
        </extensions>
      </trkpt>
      <trkpt lat="43.45744994468986988067626953125" lon="1.43624086864292621612548828125">
        <ele>212.399993896484375</ele>
        <time>2026-08-05T06:15:53.000Z</time>
        <extensions>
          <ns3:TrackPointExtension>
            <ns3:hr>56</ns3:hr>
            <ns3:cad>48</ns3:cad>
          </ns3:TrackPointExtension>
        </extensions>
      </trkpt>
      <trkpt lat="43.45744214951992034912109375" lon="1.4362567104399204254150390625">
        <ele>212.1999969482421875</ele>
        <time>2026-08-05T06:15:54.000Z</time>
        <extensions>
          <ns3:TrackPointExtension>
            <ns3:hr>57</ns3:hr>
            <ns3:cad>48</ns3:cad>
          </ns3:TrackPointExtension>
        </extensions>
      </trkpt>
      <trkpt lat="43.45743544399738311767578125" lon="1.436267606914043426513671875">
        <ele>212</ele>
        <time>2026-08-05T06:15:55.000Z</time>
        <extensions>
          <ns3:TrackPointExtension>
            <ns3:hr>57</ns3:hr>
            <ns3:cad>49</ns3:cad>
          </ns3:TrackPointExtension>
        </extensions>
      </trkpt>
      <trkpt lat="43.4574265591800212860107421875" lon="1.4362795092165470123291015625">
        <ele>211.8000030517578125</ele>
        <time>2026-08-05T06:15:56.000Z</time>
        <extensions>
          <ns3:TrackPointExtension>
            <ns3:hr>57</ns3:hr>
            <ns3:cad>50</ns3:cad>
          </ns3:TrackPointExtension>
        </extensions>
      </trkpt>
      <trkpt lat="43.4574186801910400390625" lon="1.43628814257681369781494140625">
        <ele>211.8000030517578125</ele>
        <time>2026-08-05T06:15:57.000Z</time>
        <extensions>
          <ns3:TrackPointExtension>
            <ns3:hr>57</ns3:hr>
            <ns3:cad>50</ns3:cad>
          </ns3:TrackPointExtension>
        </extensions>
      </trkpt>
      <trkpt lat="43.45741138793528079986572265625" lon="1.43629669211804866790771484375">
        <ele>211.600006103515625</ele>
        <time>2026-08-05T06:15:58.000Z</time>
        <extensions>
          <ns3:TrackPointExtension>
            <ns3:hr>57</ns3:hr>
            <ns3:cad>51</ns3:cad>
          </ns3:TrackPointExtension>
        </extensions>
      </trkpt>
      <trkpt lat="43.4574067778885364532470703125" lon="1.436304487287998199462890625">
        <ele>211.399993896484375</ele>
        <time>2026-08-05T06:15:59.000Z</time>
        <extensions>
          <ns3:TrackPointExtension>
            <ns3:hr>58</ns3:hr>
            <ns3:cad>51</ns3:cad>
          </ns3:TrackPointExtension>
        </extensions>
      </trkpt>
      <trkpt lat="43.45740149728953838348388671875" lon="1.436315886676311492919921875">
        <ele>211.399993896484375</ele>
        <time>2026-08-05T06:16:00.000Z</time>
        <extensions>
          <ns3:TrackPointExtension>
            <ns3:hr>58</ns3:hr>
            <ns3:cad>50</ns3:cad>
          </ns3:TrackPointExtension>
        </extensions>
      </trkpt>
      <trkpt lat="43.45739386975765228271484375" lon="1.436321921646595001220703125">
        <ele>211.1999969482421875</ele>
        <time>2026-08-05T06:16:01.000Z</time>
        <extensions>
          <ns3:TrackPointExtension>
            <ns3:hr>58</ns3:hr>
            <ns3:cad>50</ns3:cad>
          </ns3:TrackPointExtension>
        </extensions>
      </trkpt>
      <trkpt lat="43.4573878347873687744140625" lon="1.43633189611136913299560546875">
        <ele>211</ele>
        <time>2026-08-05T06:16:02.000Z</time>
        <extensions>
          <ns3:TrackPointExtension>
            <ns3:hr>57</ns3:hr>
            <ns3:cad>50</ns3:cad>
          </ns3:TrackPointExtension>
        </extensions>
      </trkpt>
      <trkpt lat="43.457380793988704681396484375" lon="1.43634237349033355712890625">
        <ele>210.8000030517578125</ele>
        <time>2026-08-05T06:16:03.000Z</time>
        <extensions>
          <ns3:TrackPointExtension>
            <ns3:hr>57</ns3:hr>
            <ns3:cad>51</ns3:cad>
          </ns3:TrackPointExtension>
        </extensions>
      </trkpt>
      <trkpt lat="43.457374088466167449951171875" lon="1.4363546110689640045166015625">
        <ele>210.8000030517578125</ele>
        <time>2026-08-05T06:16:04.000Z</time>
        <extensions>
          <ns3:TrackPointExtension>
            <ns3:hr>57</ns3:hr>
            <ns3:cad>51</ns3:cad>
          </ns3:TrackPointExtension>
        </extensions>
      </trkpt>
      <trkpt lat="43.45736696384847164154052734375" lon="1.436364836990833282470703125">
        <ele>210.600006103515625</ele>
        <time>2026-08-05T06:16:05.000Z</time>
        <extensions>
          <ns3:TrackPointExtension>
            <ns3:hr>57</ns3:hr>
            <ns3:cad>52</ns3:cad>
          </ns3:TrackPointExtension>
        </extensions>
      </trkpt>
      <trkpt lat="43.45735657028853893280029296875" lon="1.4363725483417510986328125">
        <ele>210.399993896484375</ele>
        <time>2026-08-05T06:16:06.000Z</time>
        <extensions>
          <ns3:TrackPointExtension>
            <ns3:hr>57</ns3:hr>
            <ns3:cad>52</ns3:cad>
          </ns3:TrackPointExtension>
        </extensions>
      </trkpt>
      <trkpt lat="43.4573470987379550933837890625" lon="1.4363824389874935150146484375">
        <ele>210.1999969482421875</ele>
        <time>2026-08-05T06:16:07.000Z</time>
        <extensions>
          <ns3:TrackPointExtension>
            <ns3:hr>57</ns3:hr>
            <ns3:cad>51</ns3:cad>
          </ns3:TrackPointExtension>
        </extensions>
      </trkpt>
      <trkpt lat="43.45733947120606899261474609375" lon="1.4363911561667919158935546875">
        <ele>210</ele>
        <time>2026-08-05T06:16:08.000Z</time>
        <extensions>
          <ns3:TrackPointExtension>
            <ns3:hr>57</ns3:hr>
            <ns3:cad>51</ns3:cad>
          </ns3:TrackPointExtension>
        </extensions>
      </trkpt>
      <trkpt lat="43.45732924528419971466064453125" lon="1.43640532158315181732177734375">
        <ele>209.8000030517578125</ele>
        <time>2026-08-05T06:16:09.000Z</time>
        <extensions>
          <ns3:TrackPointExtension>
            <ns3:hr>56</ns3:hr>
            <ns3:cad>50</ns3:cad>
          </ns3:TrackPointExtension>
        </extensions>
      </trkpt>
      <trkpt lat="43.45732019282877445220947265625" lon="1.43641345202922821044921875">
        <ele>209.600006103515625</ele>
        <time>2026-08-05T06:16:10.000Z</time>
        <extensions>
          <ns3:TrackPointExtension>
            <ns3:hr>56</ns3:hr>
            <ns3:cad>50</ns3:cad>
          </ns3:TrackPointExtension>
        </extensions>
      </trkpt>
      <trkpt lat="43.45731449313461780548095703125" lon="1.43642309121787548065185546875">
        <ele>209.399993896484375</ele>
        <time>2026-08-05T06:16:11.000Z</time>
        <extensions>
          <ns3:TrackPointExtension>
            <ns3:hr>57</ns3:hr>
            <ns3:cad>50</ns3:cad>
          </ns3:TrackPointExtension>
        </extensions>
      </trkpt>
      <trkpt lat="43.45730728469789028167724609375" lon="1.43642862327396869659423828125">
        <ele>209.399993896484375</ele>
        <time>2026-08-05T06:16:12.000Z</time>
        <extensions>
          <ns3:TrackPointExtension>
            <ns3:hr>57</ns3:hr>
            <ns3:cad>50</ns3:cad>
          </ns3:TrackPointExtension>
        </extensions>
      </trkpt>
      <trkpt lat="43.45729823224246501922607421875" lon="1.43643281422555446624755859375">
        <ele>209.1999969482421875</ele>
        <time>2026-08-05T06:16:13.000Z</time>
        <extensions>
          <ns3:TrackPointExtension>
            <ns3:hr>57</ns3:hr>
            <ns3:cad>51</ns3:cad>
          </ns3:TrackPointExtension>
        </extensions>
      </trkpt>
      <trkpt lat="43.45729060471057891845703125" lon="1.4364421181380748748779296875">
        <ele>209</ele>
        <time>2026-08-05T06:16:14.000Z</time>
        <extensions>
          <ns3:TrackPointExtension>
            <ns3:hr>56</ns3:hr>
            <ns3:cad>50</ns3:cad>
          </ns3:TrackPointExtension>
        </extensions>
      </trkpt>
      <trkpt lat="43.4572832286357879638671875" lon="1.43645234405994415283203125">
        <ele>208.8000030517578125</ele>
        <time>2026-08-05T06:16:15.000Z</time>
        <extensions>
          <ns3:TrackPointExtension>
            <ns3:hr>57</ns3:hr>
            <ns3:cad>50</ns3:cad>
          </ns3:TrackPointExtension>
        </extensions>
      </trkpt>
      <trkpt lat="43.45727593638002872467041015625" lon="1.43646332435309886932373046875">
        <ele>208.8000030517578125</ele>
        <time>2026-08-05T06:16:16.000Z</time>
        <extensions>
          <ns3:TrackPointExtension>
            <ns3:hr>57</ns3:hr>
            <ns3:cad>50</ns3:cad>
          </ns3:TrackPointExtension>
        </extensions>
      </trkpt>
      <trkpt lat="43.45726805739104747772216796875" lon="1.4364736340939998626708984375">
        <ele>208.600006103515625</ele>
        <time>2026-08-05T06:16:17.000Z</time>
        <extensions>
          <ns3:TrackPointExtension>
            <ns3:hr>56</ns3:hr>
            <ns3:cad>50</ns3:cad>
          </ns3:TrackPointExtension>
        </extensions>
      </trkpt>
      <trkpt lat="43.45725917257368564605712890625" lon="1.43648327328264713287353515625">
        <ele>208.399993896484375</ele>
        <time>2026-08-05T06:16:18.000Z</time>
        <extensions>
          <ns3:TrackPointExtension>
            <ns3:hr>56</ns3:hr>
            <ns3:cad>49</ns3:cad>
          </ns3:TrackPointExtension>
        </extensions>
      </trkpt>
      <trkpt lat="43.45724928192794322967529296875" lon="1.4364944212138652801513671875">
        <ele>208.1999969482421875</ele>
        <time>2026-08-05T06:16:19.000Z</time>
        <extensions>
          <ns3:TrackPointExtension>
            <ns3:hr>56</ns3:hr>
            <ns3:cad>49</ns3:cad>
          </ns3:TrackPointExtension>
        </extensions>
      </trkpt>
      <trkpt lat="43.45723955892026424407958984375" lon="1.43650464713573455810546875">
        <ele>208</ele>
        <time>2026-08-05T06:16:20.000Z</time>
        <extensions>
          <ns3:TrackPointExtension>
            <ns3:hr>56</ns3:hr>
            <ns3:cad>49</ns3:cad>
          </ns3:TrackPointExtension>
        </extensions>
      </trkpt>
      <trkpt lat="43.4572324343025684356689453125" lon="1.436517052352428436279296875">
        <ele>207.8000030517578125</ele>
        <time>2026-08-05T06:16:21.000Z</time>
        <extensions>
          <ns3:TrackPointExtension>
            <ns3:hr>56</ns3:hr>
            <ns3:cad>50</ns3:cad>
          </ns3:TrackPointExtension>
        </extensions>
      </trkpt>
      <trkpt lat="43.4572263993322849273681640625" lon="1.43653146922588348388671875">
        <ele>207.600006103515625</ele>
        <time>2026-08-05T06:16:22.000Z</time>
        <extensions>
          <ns3:TrackPointExtension>
            <ns3:hr>55</ns3:hr>
            <ns3:cad>50</ns3:cad>
          </ns3:TrackPointExtension>
        </extensions>
      </trkpt>
      <trkpt lat="43.45722212456166744232177734375" lon="1.436540186405181884765625">
        <ele>207.399993896484375</ele>
        <time>2026-08-05T06:16:23.000Z</time>
        <extensions>
          <ns3:TrackPointExtension>
            <ns3:hr>55</ns3:hr>
            <ns3:cad>50</ns3:cad>
          </ns3:TrackPointExtension>
        </extensions>
      </trkpt>
      <trkpt lat="43.45721340738236904144287109375" lon="1.43654949031770229339599609375">
        <ele>207.399993896484375</ele>
        <time>2026-08-05T06:16:24.000Z</time>
        <extensions>
          <ns3:TrackPointExtension>
            <ns3:hr>55</ns3:hr>
            <ns3:cad>49</ns3:cad>
          </ns3:TrackPointExtension>
        </extensions>
      </trkpt>
      <trkpt lat="43.45720670185983180999755859375" lon="1.43655384890735149383544921875">
        <ele>207.1999969482421875</ele>
        <time>2026-08-05T06:16:25.000Z</time>
        <extensions>
          <ns3:TrackPointExtension>
            <ns3:hr>56</ns3:hr>
            <ns3:cad>49</ns3:cad>
          </ns3:TrackPointExtension>
        </extensions>
      </trkpt>
      <trkpt lat="43.45719748176634311676025390625" lon="1.43656105734407901763916015625">
        <ele>207</ele>
        <time>2026-08-05T06:16:26.000Z</time>
        <extensions>
          <ns3:TrackPointExtension>
            <ns3:hr>55</ns3:hr>
            <ns3:cad>49</ns3:cad>
          </ns3:TrackPointExtension>
        </extensions>
      </trkpt>
      <trkpt lat="43.45719010569155216217041015625" lon="1.43657128326594829559326171875">
        <ele>206.8000030517578125</ele>
        <time>2026-08-05T06:16:27.000Z</time>
        <extensions>
          <ns3:TrackPointExtension>
            <ns3:hr>55</ns3:hr>
            <ns3:cad>49</ns3:cad>
          </ns3:TrackPointExtension>
        </extensions>
      </trkpt>
      <trkpt lat="43.457181639969348907470703125" lon="1.4365809224545955657958984375">
        <ele>206.600006103515625</ele>
        <time>2026-08-05T06:16:28.000Z</time>
        <extensions>
          <ns3:TrackPointExtension>
            <ns3:hr>55</ns3:hr>
            <ns3:cad>49</ns3:cad>
          </ns3:TrackPointExtension>
        </extensions>
      </trkpt>
      <trkpt lat="43.457175604999065399169921875" lon="1.43658972345292568206787109375">
        <ele>206.399993896484375</ele>
        <time>2026-08-05T06:16:29.000Z</time>
        <extensions>
          <ns3:TrackPointExtension>
            <ns3:hr>56</ns3:hr>
            <ns3:cad>51</ns3:cad>
          </ns3:TrackPointExtension>
        </extensions>
      </trkpt>
      <trkpt lat="43.4571697376668453216552734375" lon="1.4365936629474163055419921875">
        <ele>206.399993896484375</ele>
        <time>2026-08-05T06:16:30.000Z</time>
        <extensions>
          <ns3:TrackPointExtension>
            <ns3:hr>55</ns3:hr>
            <ns3:cad>51</ns3:cad>
          </ns3:TrackPointExtension>
        </extensions>
      </trkpt>
      <trkpt lat="43.4571620263159275054931640625" lon="1.436599195003509521484375">
        <ele>206.1999969482421875</ele>
        <time>2026-08-05T06:16:31.000Z</time>
        <extensions>
          <ns3:TrackPointExtension>
            <ns3:hr>55</ns3:hr>
            <ns3:cad>50</ns3:cad>
          </ns3:TrackPointExtension>
        </extensions>
      </trkpt>
      <trkpt lat="43.45715205185115337371826171875" lon="1.43660791218280792236328125">
        <ele>206</ele>
        <time>2026-08-05T06:16:32.000Z</time>
        <extensions>
          <ns3:TrackPointExtension>
            <ns3:hr>55</ns3:hr>
            <ns3:cad>50</ns3:cad>
          </ns3:TrackPointExtension>
        </extensions>
      </trkpt>
      <trkpt lat="43.45714098773896694183349609375" lon="1.43661889247596263885498046875">
        <ele>205.8000030517578125</ele>
        <time>2026-08-05T06:16:33.000Z</time>
        <extensions>
          <ns3:TrackPointExtension>
            <ns3:hr>55</ns3:hr>
            <ns3:cad>50</ns3:cad>
          </ns3:TrackPointExtension>
        </extensions>
      </trkpt>
      <trkpt lat="43.45713235437870025634765625" lon="1.43662777729332447052001953125">
        <ele>205.600006103515625</ele>
        <time>2026-08-05T06:16:34.000Z</time>
        <extensions>
          <ns3:TrackPointExtension>
            <ns3:hr>55</ns3:hr>
            <ns3:cad>50</ns3:cad>
          </ns3:TrackPointExtension>
        </extensions>
      </trkpt>
      <trkpt lat="43.4571238048374652862548828125" lon="1.43663666211068630218505859375">
        <ele>205.399993896484375</ele>
        <time>2026-08-05T06:16:35.000Z</time>
        <extensions>
          <ns3:TrackPointExtension>
            <ns3:hr>55</ns3:hr>
            <ns3:cad>50</ns3:cad>
          </ns3:TrackPointExtension>
        </extensions>
      </trkpt>
      <trkpt lat="43.45711902715265750885009765625" lon="1.43664286471903324127197265625">
        <ele>205.1999969482421875</ele>
        <time>2026-08-05T06:16:36.000Z</time>
        <extensions>
          <ns3:TrackPointExtension>
            <ns3:hr>54</ns3:hr>
            <ns3:cad>50</ns3:cad>
          </ns3:TrackPointExtension>
        </extensions>
      </trkpt>
      <trkpt lat="43.457111902534961700439453125" lon="1.43664680421352386474609375">
        <ele>205</ele>
        <time>2026-08-05T06:16:37.000Z</time>
        <extensions>
          <ns3:TrackPointExtension>
            <ns3:hr>54</ns3:hr>
            <ns3:cad>50</ns3:cad>
          </ns3:TrackPointExtension>
        </extensions>
      </trkpt>
      <trkpt lat="43.45710343681275844573974609375" lon="1.4366506598889827728271484375">
        <ele>205</ele>
        <time>2026-08-05T06:16:38.000Z</time>
        <extensions>
          <ns3:TrackPointExtension>
            <ns3:hr>54</ns3:hr>
            <ns3:cad>50</ns3:cad>
          </ns3:TrackPointExtension>
        </extensions>
      </trkpt>
      <trkpt lat="43.4570927917957305908203125" lon="1.4366556890308856964111328125">
        <ele>204.8000030517578125</ele>
        <time>2026-08-05T06:16:39.000Z</time>
        <extensions>
          <ns3:TrackPointExtension>
            <ns3:hr>54</ns3:hr>
            <ns3:cad>51</ns3:cad>
          </ns3:TrackPointExtension>
        </extensions>
      </trkpt>
      <trkpt lat="43.45708097331225872039794921875" lon="1.43666063435375690460205078125">
        <ele>204.600006103515625</ele>
        <time>2026-08-05T06:16:40.000Z</time>
        <extensions>
          <ns3:TrackPointExtension>
            <ns3:hr>52</ns3:hr>
            <ns3:cad>51</ns3:cad>
          </ns3:TrackPointExtension>
        </extensions>
      </trkpt>
      <trkpt lat="43.457069657742977142333984375" lon="1.43666423857212066650390625">
        <ele>204.399993896484375</ele>
        <time>2026-08-05T06:16:41.000Z</time>
        <extensions>
          <ns3:TrackPointExtension>
            <ns3:hr>51</ns3:hr>
            <ns3:cad>51</ns3:cad>
          </ns3:TrackPointExtension>
        </extensions>
      </trkpt>
      <trkpt lat="43.4570579230785369873046875" lon="1.4366687647998332977294921875">
        <ele>204.1999969482421875</ele>
        <time>2026-08-05T06:16:42.000Z</time>
        <extensions>
          <ns3:TrackPointExtension>
            <ns3:hr>50</ns3:hr>
            <ns3:cad>51</ns3:cad>
          </ns3:TrackPointExtension>
        </extensions>
      </trkpt>
      <trkpt lat="43.45704811625182628631591796875" lon="1.436671949923038482666015625">
        <ele>204</ele>
        <time>2026-08-05T06:16:43.000Z</time>
        <extensions>
          <ns3:TrackPointExtension>
            <ns3:hr>49</ns3:hr>
            <ns3:cad>51</ns3:cad>
          </ns3:TrackPointExtension>
        </extensions>
      </trkpt>
      <trkpt lat="43.45703981816768646240234375" lon="1.43667371012270450592041015625">
        <ele>203.8000030517578125</ele>
        <time>2026-08-05T06:16:44.000Z</time>
        <extensions>
          <ns3:TrackPointExtension>
            <ns3:hr>49</ns3:hr>
            <ns3:cad>51</ns3:cad>
          </ns3:TrackPointExtension>
        </extensions>
      </trkpt>
      <trkpt lat="43.4570316039025783538818359375" lon="1.43667689524590969085693359375">
        <ele>203.600006103515625</ele>
        <time>2026-08-05T06:16:45.000Z</time>
        <extensions>
          <ns3:TrackPointExtension>
            <ns3:hr>49</ns3:hr>
            <ns3:cad>51</ns3:cad>
          </ns3:TrackPointExtension>
        </extensions>
      </trkpt>
      <trkpt lat="43.45702162943780422210693359375" lon="1.4366784878075122833251953125">
        <ele>203.399993896484375</ele>
        <time>2026-08-05T06:16:46.000Z</time>
        <extensions>
          <ns3:TrackPointExtension>
            <ns3:hr>49</ns3:hr>
            <ns3:cad>51</ns3:cad>
          </ns3:TrackPointExtension>
        </extensions>
      </trkpt>
      <trkpt lat="43.45700888894498348236083984375" lon="1.4366811700165271759033203125">
        <ele>203.1999969482421875</ele>
        <time>2026-08-05T06:16:47.000Z</time>
        <extensions>
          <ns3:TrackPointExtension>
            <ns3:hr>49</ns3:hr>
            <ns3:cad>51</ns3:cad>
          </ns3:TrackPointExtension>
        </extensions>
      </trkpt>
      <trkpt lat="43.45699690282344818115234375" lon="1.436682008206844329833984375">
        <ele>203</ele>
        <time>2026-08-05T06:16:48.000Z</time>
        <extensions>
          <ns3:TrackPointExtension>
            <ns3:hr>50</ns3:hr>
            <ns3:cad>51</ns3:cad>
          </ns3:TrackPointExtension>
        </extensions>
      </trkpt>
      <trkpt lat="43.4569855034351348876953125" lon="1.43668175674974918365478515625">
        <ele>202.8000030517578125</ele>
        <time>2026-08-05T06:16:49.000Z</time>
        <extensions>
          <ns3:TrackPointExtension>
            <ns3:hr>49</ns3:hr>
            <ns3:cad>51</ns3:cad>
          </ns3:TrackPointExtension>
        </extensions>
      </trkpt>
      <trkpt lat="43.45697502605617046356201171875" lon="1.43668142147362232208251953125">
        <ele>202.600006103515625</ele>
        <time>2026-08-05T06:16:50.000Z</time>
        <extensions>
          <ns3:TrackPointExtension>
            <ns3:hr>49</ns3:hr>
            <ns3:cad>51</ns3:cad>
          </ns3:TrackPointExtension>
        </extensions>
      </trkpt>
      <trkpt lat="43.45696530304849147796630859375" lon="1.4366791583597660064697265625">
        <ele>202.399993896484375</ele>
        <time>2026-08-05T06:16:51.000Z</time>
        <extensions>
          <ns3:TrackPointExtension>
            <ns3:hr>49</ns3:hr>
            <ns3:cad>51</ns3:cad>
          </ns3:TrackPointExtension>
        </extensions>
      </trkpt>
      <trkpt lat="43.45695641823112964630126953125" lon="1.4366744644939899444580078125">
        <ele>202.1999969482421875</ele>
        <time>2026-08-05T06:16:52.000Z</time>
        <extensions>
          <ns3:TrackPointExtension>
            <ns3:hr>49</ns3:hr>
            <ns3:cad>51</ns3:cad>
          </ns3:TrackPointExtension>
        </extensions>
      </trkpt>
      <trkpt lat="43.45694703049957752227783203125" lon="1.4366701059043407440185546875">
        <ele>202</ele>
        <time>2026-08-05T06:16:53.000Z</time>
        <extensions>
          <ns3:TrackPointExtension>
            <ns3:hr>49</ns3:hr>
            <ns3:cad>51</ns3:cad>
          </ns3:TrackPointExtension>
        </extensions>
      </trkpt>
      <trkpt lat="43.45693680457770824432373046875" lon="1.4366680942475795745849609375">
        <ele>201.8000030517578125</ele>
        <time>2026-08-05T06:16:54.000Z</time>
        <extensions>
          <ns3:TrackPointExtension>
            <ns3:hr>49</ns3:hr>
            <ns3:cad>51</ns3:cad>
          </ns3:TrackPointExtension>
        </extensions>
      </trkpt>
      <trkpt lat="43.456927835941314697265625" lon="1.43666901625692844390869140625">
        <ele>201.600006103515625</ele>
        <time>2026-08-05T06:16:55.000Z</time>
        <extensions>
          <ns3:TrackPointExtension>
            <ns3:hr>50</ns3:hr>
            <ns3:cad>51</ns3:cad>
          </ns3:TrackPointExtension>
        </extensions>
      </trkpt>
      <trkpt lat="43.45691953785717487335205078125" lon="1.43666557967662811279296875">
        <ele>201.399993896484375</ele>
        <time>2026-08-05T06:16:56.000Z</time>
        <extensions>
          <ns3:TrackPointExtension>
            <ns3:hr>49</ns3:hr>
            <ns3:cad>52</ns3:cad>
          </ns3:TrackPointExtension>
        </extensions>
      </trkpt>
      <trkpt lat="43.45691048540174961090087890625" lon="1.43666449002921581268310546875">
        <ele>201.399993896484375</ele>
        <time>2026-08-05T06:16:57.000Z</time>
        <extensions>
          <ns3:TrackPointExtension>
            <ns3:hr>49</ns3:hr>
            <ns3:cad>52</ns3:cad>
          </ns3:TrackPointExtension>
        </extensions>
      </trkpt>
      <trkpt lat="43.45690176822245121002197265625" lon="1.43666147254407405853271484375">
        <ele>201.1999969482421875</ele>
        <time>2026-08-05T06:16:58.000Z</time>
        <extensions>
          <ns3:TrackPointExtension>
            <ns3:hr>49</ns3:hr>
            <ns3:cad>52</ns3:cad>
          </ns3:TrackPointExtension>
        </extensions>
      </trkpt>
      <trkpt lat="43.45689238049089908599853515625" lon="1.4366566948592662811279296875">
        <ele>201</ele>
        <time>2026-08-05T06:16:59.000Z</time>
        <extensions>
          <ns3:TrackPointExtension>
            <ns3:hr>50</ns3:hr>
            <ns3:cad>52</ns3:cad>
          </ns3:TrackPointExtension>
        </extensions>
      </trkpt>
      <trkpt lat="43.4568827413022518157958984375" lon="1.4366514980792999267578125">
        <ele>200.8000030517578125</ele>
        <time>2026-08-05T06:17:00.000Z</time>
        <extensions>
          <ns3:TrackPointExtension>
            <ns3:hr>50</ns3:hr>
            <ns3:cad>52</ns3:cad>
          </ns3:TrackPointExtension>
        </extensions>
      </trkpt>
      <trkpt lat="43.4568755328655242919921875" lon="1.4366463012993335723876953125">
        <ele>200.600006103515625</ele>
        <time>2026-08-05T06:17:01.000Z</time>
        <extensions>
          <ns3:TrackPointExtension>
            <ns3:hr>50</ns3:hr>
            <ns3:cad>53</ns3:cad>
          </ns3:TrackPointExtension>
        </extensions>
      </trkpt>
      <trkpt lat="43.4568700008094310760498046875" lon="1.436641104519367218017578125">
        <ele>200.399993896484375</ele>
        <time>2026-08-05T06:17:02.000Z</time>
        <extensions>
          <ns3:TrackPointExtension>
            <ns3:hr>50</ns3:hr>
            <ns3:cad>53</ns3:cad>
          </ns3:TrackPointExtension>
        </extensions>
      </trkpt>
      <trkpt lat="43.45686371438205242156982421875" lon="1.4366355724632740020751953125">
        <ele>200.1999969482421875</ele>
        <time>2026-08-05T06:17:03.000Z</time>
        <extensions>
          <ns3:TrackPointExtension>
            <ns3:hr>50</ns3:hr>
            <ns3:cad>52</ns3:cad>
          </ns3:TrackPointExtension>
        </extensions>
      </trkpt>
      <trkpt lat="43.4568545781075954437255859375" lon="1.43662945367395877838134765625">
        <ele>200.1999969482421875</ele>
        <time>2026-08-05T06:17:04.000Z</time>
        <extensions>
          <ns3:TrackPointExtension>
            <ns3:hr>50</ns3:hr>
            <ns3:cad>52</ns3:cad>
          </ns3:TrackPointExtension>
        </extensions>
      </trkpt>
      <trkpt lat="43.4568461962044239044189453125" lon="1.4366233348846435546875">
        <ele>200</ele>
        <time>2026-08-05T06:17:05.000Z</time>
        <extensions>
          <ns3:TrackPointExtension>
            <ns3:hr>50</ns3:hr>
            <ns3:cad>52</ns3:cad>
          </ns3:TrackPointExtension>
        </extensions>
      </trkpt>
      <trkpt lat="43.456836305558681488037109375" lon="1.43661486916244029998779296875">
        <ele>199.600006103515625</ele>
        <time>2026-08-05T06:17:06.000Z</time>
        <extensions>
          <ns3:TrackPointExtension>
            <ns3:hr>50</ns3:hr>
            <ns3:cad>52</ns3:cad>
          </ns3:TrackPointExtension>
        </extensions>
      </trkpt>
      <trkpt lat="43.4568274207413196563720703125" lon="1.43660724163055419921875">
        <ele>199.399993896484375</ele>
        <time>2026-08-05T06:17:07.000Z</time>
        <extensions>
          <ns3:TrackPointExtension>
            <ns3:hr>50</ns3:hr>
            <ns3:cad>51</ns3:cad>
          </ns3:TrackPointExtension>
        </extensions>
      </trkpt>
      <trkpt lat="43.4568166919052600860595703125" lon="1.43659860827028751373291015625">
        <ele>199.399993896484375</ele>
        <time>2026-08-05T06:17:08.000Z</time>
        <extensions>
          <ns3:TrackPointExtension>
            <ns3:hr>50</ns3:hr>
            <ns3:cad>51</ns3:cad>
          </ns3:TrackPointExtension>
        </extensions>
      </trkpt>
      <trkpt lat="43.45680789090692996978759765625" lon="1.43659056164324283599853515625">
        <ele>199.1999969482421875</ele>
        <time>2026-08-05T06:17:09.000Z</time>
        <extensions>
          <ns3:TrackPointExtension>
            <ns3:hr>50</ns3:hr>
            <ns3:cad>51</ns3:cad>
          </ns3:TrackPointExtension>
        </extensions>
      </trkpt>
      <trkpt lat="43.45679984427988529205322265625" lon="1.43658150918781757354736328125">
        <ele>199</ele>
        <time>2026-08-05T06:17:10.000Z</time>
        <extensions>
          <ns3:TrackPointExtension>
            <ns3:hr>50</ns3:hr>
            <ns3:cad>51</ns3:cad>
          </ns3:TrackPointExtension>
        </extensions>
      </trkpt>
      <trkpt lat="43.45679112710058689117431640625" lon="1.436573378741741180419921875">
        <ele>198.8000030517578125</ele>
        <time>2026-08-05T06:17:11.000Z</time>
        <extensions>
          <ns3:TrackPointExtension>
            <ns3:hr>50</ns3:hr>
            <ns3:cad>52</ns3:cad>
          </ns3:TrackPointExtension>
        </extensions>
      </trkpt>
      <trkpt lat="43.45678308047354221343994140625" lon="1.4365631528198719024658203125">
        <ele>198.600006103515625</ele>
        <time>2026-08-05T06:17:12.000Z</time>
        <extensions>
          <ns3:TrackPointExtension>
            <ns3:hr>50</ns3:hr>
            <ns3:cad>52</ns3:cad>
          </ns3:TrackPointExtension>
        </extensions>
      </trkpt>
      <trkpt lat="43.45677503384649753570556640625" lon="1.43655217252671718597412109375">
        <ele>198.399993896484375</ele>
        <time>2026-08-05T06:17:13.000Z</time>
        <extensions>
          <ns3:TrackPointExtension>
            <ns3:hr>50</ns3:hr>
            <ns3:cad>51</ns3:cad>
          </ns3:TrackPointExtension>
        </extensions>
      </trkpt>
      <trkpt lat="43.456767238676548004150390625" lon="1.43654278479516506195068359375">
        <ele>198.399993896484375</ele>
        <time>2026-08-05T06:17:14.000Z</time>
        <extensions>
          <ns3:TrackPointExtension>
            <ns3:hr>50</ns3:hr>
            <ns3:cad>51</ns3:cad>
          </ns3:TrackPointExtension>
        </extensions>
      </trkpt>
      <trkpt lat="43.4567600302398204803466796875" lon="1.4365336485207080841064453125">
        <ele>198.1999969482421875</ele>
        <time>2026-08-05T06:17:15.000Z</time>
        <extensions>
          <ns3:TrackPointExtension>
            <ns3:hr>51</ns3:hr>
            <ns3:cad>50</ns3:cad>
          </ns3:TrackPointExtension>
        </extensions>
      </trkpt>
      <trkpt lat="43.456755839288234710693359375" lon="1.4365279488265514373779296875">
        <ele>198</ele>
        <time>2026-08-05T06:17:16.000Z</time>
        <extensions>
          <ns3:TrackPointExtension>
            <ns3:hr>51</ns3:hr>
            <ns3:cad>50</ns3:cad>
          </ns3:TrackPointExtension>
        </extensions>
      </trkpt>
      <trkpt lat="43.45674452371895313262939453125" lon="1.436521075665950775146484375">
        <ele>197.8000030517578125</ele>
        <time>2026-08-05T06:17:17.000Z</time>
        <extensions>
          <ns3:TrackPointExtension>
            <ns3:hr>51</ns3:hr>
            <ns3:cad>50</ns3:cad>
          </ns3:TrackPointExtension>
        </extensions>
      </trkpt>
      <trkpt lat="43.456741087138652801513671875" lon="1.4365095086395740509033203125">
        <ele>197.600006103515625</ele>
        <time>2026-08-05T06:17:18.000Z</time>
        <extensions>
          <ns3:TrackPointExtension>
            <ns3:hr>52</ns3:hr>
            <ns3:cad>50</ns3:cad>
          </ns3:TrackPointExtension>
        </extensions>
      </trkpt>
      <trkpt lat="43.456739075481891632080078125" lon="1.4364937506616115570068359375">
        <ele>197.399993896484375</ele>
        <time>2026-08-05T06:17:19.000Z</time>
        <extensions>
          <ns3:TrackPointExtension>
            <ns3:hr>53</ns3:hr>
            <ns3:cad>51</ns3:cad>
          </ns3:TrackPointExtension>
        </extensions>
      </trkpt>
      <trkpt lat="43.45673463307321071624755859375" lon="1.43648293800652027130126953125">
        <ele>197.1999969482421875</ele>
        <time>2026-08-05T06:17:20.000Z</time>
        <extensions>
          <ns3:TrackPointExtension>
            <ns3:hr>54</ns3:hr>
            <ns3:cad>54</ns3:cad>
          </ns3:TrackPointExtension>
        </extensions>
      </trkpt>
      <trkpt lat="43.45673010684549808502197265625" lon="1.4364702813327312469482421875">
        <ele>197</ele>
        <time>2026-08-05T06:17:21.000Z</time>
        <extensions>
          <ns3:TrackPointExtension>
            <ns3:hr>54</ns3:hr>
            <ns3:cad>54</ns3:cad>
          </ns3:TrackPointExtension>
        </extensions>
      </trkpt>
      <trkpt lat="43.45672574825584888458251953125" lon="1.43645745702087879180908203125">
        <ele>196.8000030517578125</ele>
        <time>2026-08-05T06:17:22.000Z</time>
        <extensions>
          <ns3:TrackPointExtension>
            <ns3:hr>55</ns3:hr>
            <ns3:cad>54</ns3:cad>
          </ns3:TrackPointExtension>
        </extensions>
      </trkpt>
      <trkpt lat="43.45671988092362880706787109375" lon="1.436444632709026336669921875">
        <ele>196.600006103515625</ele>
        <time>2026-08-05T06:17:23.000Z</time>
        <extensions>
          <ns3:TrackPointExtension>
            <ns3:hr>56</ns3:hr>
            <ns3:cad>54</ns3:cad>
          </ns3:TrackPointExtension>
        </extensions>
      </trkpt>
      <trkpt lat="43.456714935600757598876953125" lon="1.43643180839717388153076171875">
        <ele>196.1999969482421875</ele>
        <time>2026-08-05T06:17:24.000Z</time>
        <extensions>
          <ns3:TrackPointExtension>
            <ns3:hr>57</ns3:hr>
            <ns3:cad>53</ns3:cad>
          </ns3:TrackPointExtension>
        </extensions>
      </trkpt>
      <trkpt lat="43.4567117504775524139404296875" lon="1.43642242066562175750732421875">
        <ele>196</ele>
        <time>2026-08-05T06:17:25.000Z</time>
        <extensions>
          <ns3:TrackPointExtension>
            <ns3:hr>58</ns3:hr>
            <ns3:cad>53</ns3:cad>
          </ns3:TrackPointExtension>
        </extensions>
      </trkpt>
      <trkpt lat="43.4567060507833957672119140625" lon="1.436411440372467041015625">
        <ele>195.8000030517578125</ele>
        <time>2026-08-05T06:17:26.000Z</time>
        <extensions>
          <ns3:TrackPointExtension>
            <ns3:hr>58</ns3:hr>
            <ns3:cad>53</ns3:cad>
          </ns3:TrackPointExtension>
        </extensions>
      </trkpt>
      <trkpt lat="43.45670110546052455902099609375" lon="1.436401046812534332275390625">
        <ele>195.600006103515625</ele>
        <time>2026-08-05T06:17:27.000Z</time>
        <extensions>
          <ns3:TrackPointExtension>
            <ns3:hr>58</ns3:hr>
            <ns3:cad>53</ns3:cad>
          </ns3:TrackPointExtension>
        </extensions>
      </trkpt>
      <trkpt lat="43.456696160137653350830078125" lon="1.43638889305293560028076171875">
        <ele>195.399993896484375</ele>
        <time>2026-08-05T06:17:28.000Z</time>
        <extensions>
          <ns3:TrackPointExtension>
            <ns3:hr>59</ns3:hr>
            <ns3:cad>53</ns3:cad>
          </ns3:TrackPointExtension>
        </extensions>
      </trkpt>
      <trkpt lat="43.45669020898640155792236328125" lon="1.43637766130268573760986328125">
        <ele>195.1999969482421875</ele>
        <time>2026-08-05T06:17:29.000Z</time>
        <extensions>
          <ns3:TrackPointExtension>
            <ns3:hr>59</ns3:hr>
            <ns3:cad>53</ns3:cad>
          </ns3:TrackPointExtension>
        </extensions>
      </trkpt>
      <trkpt lat="43.4566862694919109344482421875" lon="1.43636642955243587493896484375">
        <ele>195</ele>
        <time>2026-08-05T06:17:30.000Z</time>
        <extensions>
          <ns3:TrackPointExtension>
            <ns3:hr>60</ns3:hr>
            <ns3:cad>53</ns3:cad>
          </ns3:TrackPointExtension>
        </extensions>
      </trkpt>
      <trkpt lat="43.4566815756261348724365234375" lon="1.43635553307831287384033203125">
        <ele>194.8000030517578125</ele>
        <time>2026-08-05T06:17:31.000Z</time>
        <extensions>
          <ns3:TrackPointExtension>
            <ns3:hr>60</ns3:hr>
            <ns3:cad>52</ns3:cad>
          </ns3:TrackPointExtension>
        </extensions>
      </trkpt>
      <trkpt lat="43.4566770493984222412109375" lon="1.43634212203323841094970703125">
        <ele>194.600006103515625</ele>
        <time>2026-08-05T06:17:32.000Z</time>
        <extensions>
          <ns3:TrackPointExtension>
            <ns3:hr>60</ns3:hr>
            <ns3:cad>52</ns3:cad>
          </ns3:TrackPointExtension>
        </extensions>
      </trkpt>
      <trkpt lat="43.45667160116136074066162109375" lon="1.43632871098816394805908203125">
        <ele>194.600006103515625</ele>
        <time>2026-08-05T06:17:33.000Z</time>
        <extensions>
          <ns3:TrackPointExtension>
            <ns3:hr>60</ns3:hr>
            <ns3:cad>53</ns3:cad>
          </ns3:TrackPointExtension>
        </extensions>
      </trkpt>
      <trkpt lat="43.45666539855301380157470703125" lon="1.43631555140018463134765625">
        <ele>194.399993896484375</ele>
        <time>2026-08-05T06:17:34.000Z</time>
        <extensions>
          <ns3:TrackPointExtension>
            <ns3:hr>60</ns3:hr>
            <ns3:cad>53</ns3:cad>
          </ns3:TrackPointExtension>
        </extensions>
      </trkpt>
      <trkpt lat="43.456659950315952301025390625" lon="1.43630205653607845306396484375">
        <ele>194.1999969482421875</ele>
        <time>2026-08-05T06:17:35.000Z</time>
        <extensions>
          <ns3:TrackPointExtension>
            <ns3:hr>60</ns3:hr>
            <ns3:cad>52</ns3:cad>
          </ns3:TrackPointExtension>
        </extensions>
      </trkpt>
      <trkpt lat="43.45665500499308109283447265625" lon="1.43629141151905059814453125">
        <ele>194</ele>
        <time>2026-08-05T06:17:36.000Z</time>
        <extensions>
          <ns3:TrackPointExtension>
            <ns3:hr>60</ns3:hr>
            <ns3:cad>52</ns3:cad>
          </ns3:TrackPointExtension>
        </extensions>
      </trkpt>
      <trkpt lat="43.45665089786052703857421875" lon="1.43628126941621303558349609375">
        <ele>193.8000030517578125</ele>
        <time>2026-08-05T06:17:37.000Z</time>
        <extensions>
          <ns3:TrackPointExtension>
            <ns3:hr>60</ns3:hr>
            <ns3:cad>51</ns3:cad>
          </ns3:TrackPointExtension>
        </extensions>
      </trkpt>
      <trkpt lat="43.45664628781378269195556640625" lon="1.43626802600920200347900390625">
        <ele>193.600006103515625</ele>
        <time>2026-08-05T06:17:38.000Z</time>
        <extensions>
          <ns3:TrackPointExtension>
            <ns3:hr>60</ns3:hr>
            <ns3:cad>51</ns3:cad>
          </ns3:TrackPointExtension>
        </extensions>
      </trkpt>
      <trkpt lat="43.45664159394800662994384765625" lon="1.43625360913574695587158203125">
        <ele>193.600006103515625</ele>
        <time>2026-08-05T06:17:39.000Z</time>
        <extensions>
          <ns3:TrackPointExtension>
            <ns3:hr>59</ns3:hr>
            <ns3:cad>50</ns3:cad>
          </ns3:TrackPointExtension>
        </extensions>
      </trkpt>
      <trkpt lat="43.45663790591061115264892578125" lon="1.43623935990035533905029296875">
        <ele>193.399993896484375</ele>
        <time>2026-08-05T06:17:40.000Z</time>
        <extensions>
          <ns3:TrackPointExtension>
            <ns3:hr>60</ns3:hr>
            <ns3:cad>50</ns3:cad>
          </ns3:TrackPointExtension>
        </extensions>
      </trkpt>
      <trkpt lat="43.4566339664161205291748046875" lon="1.436222679913043975830078125">
        <ele>193.1999969482421875</ele>
        <time>2026-08-05T06:17:41.000Z</time>
        <extensions>
          <ns3:TrackPointExtension>
            <ns3:hr>60</ns3:hr>
            <ns3:cad>50</ns3:cad>
          </ns3:TrackPointExtension>
        </extensions>
      </trkpt>
      <trkpt lat="43.45663078129291534423828125" lon="1.4362101070582866668701171875">
        <ele>193</ele>
        <time>2026-08-05T06:17:42.000Z</time>
        <extensions>
          <ns3:TrackPointExtension>
            <ns3:hr>60</ns3:hr>
            <ns3:cad>51</ns3:cad>
          </ns3:TrackPointExtension>
        </extensions>
      </trkpt>
      <trkpt lat="43.4566262550652027130126953125" lon="1.43619778566062450408935546875">
        <ele>192.8000030517578125</ele>
        <time>2026-08-05T06:17:43.000Z</time>
        <extensions>
          <ns3:TrackPointExtension>
            <ns3:hr>59</ns3:hr>
            <ns3:cad>51</ns3:cad>
          </ns3:TrackPointExtension>
        </extensions>
      </trkpt>
      <trkpt lat="43.45662164501845836639404296875" lon="1.436186134815216064453125">
        <ele>192.600006103515625</ele>
        <time>2026-08-05T06:17:44.000Z</time>
        <extensions>
          <ns3:TrackPointExtension>
            <ns3:hr>60</ns3:hr>
            <ns3:cad>51</ns3:cad>
          </ns3:TrackPointExtension>
        </extensions>
      </trkpt>
      <trkpt lat="43.45661871135234832763671875" lon="1.43617616035044193267822265625">
        <ele>192.600006103515625</ele>
        <time>2026-08-05T06:17:45.000Z</time>
        <extensions>
          <ns3:TrackPointExtension>
            <ns3:hr>59</ns3:hr>
            <ns3:cad>51</ns3:cad>
          </ns3:TrackPointExtension>
        </extensions>
      </trkpt>
      <trkpt lat="43.45661443658173084259033203125" lon="1.43616375513374805450439453125">
        <ele>192.399993896484375</ele>
        <time>2026-08-05T06:17:46.000Z</time>
        <extensions>
          <ns3:TrackPointExtension>
            <ns3:hr>59</ns3:hr>
            <ns3:cad>51</ns3:cad>
          </ns3:TrackPointExtension>
        </extensions>
      </trkpt>
      <trkpt lat="43.45661208964884281158447265625" lon="1.43615067936480045318603515625">
        <ele>192.1999969482421875</ele>
        <time>2026-08-05T06:17:47.000Z</time>
        <extensions>
          <ns3:TrackPointExtension>
            <ns3:hr>59</ns3:hr>
            <ns3:cad>52</ns3:cad>
          </ns3:TrackPointExtension>
        </extensions>
      </trkpt>
      <trkpt lat="43.45660865306854248046875" lon="1.43613710068166255950927734375">
        <ele>192</ele>
        <time>2026-08-05T06:17:48.000Z</time>
        <extensions>
          <ns3:TrackPointExtension>
            <ns3:hr>60</ns3:hr>
            <ns3:cad>52</ns3:cad>
          </ns3:TrackPointExtension>
        </extensions>
      </trkpt>
      <trkpt lat="43.456603623926639556884765625" lon="1.43612570129334926605224609375">
        <ele>191.8000030517578125</ele>
        <time>2026-08-05T06:17:49.000Z</time>
        <extensions>
          <ns3:TrackPointExtension>
            <ns3:hr>60</ns3:hr>
            <ns3:cad>50</ns3:cad>
          </ns3:TrackPointExtension>
        </extensions>
      </trkpt>
      <trkpt lat="43.45659851096570491790771484375" lon="1.436113379895687103271484375">
        <ele>191.600006103515625</ele>
        <time>2026-08-05T06:17:50.000Z</time>
        <extensions>
          <ns3:TrackPointExtension>
            <ns3:hr>60</ns3:hr>
            <ns3:cad>50</ns3:cad>
          </ns3:TrackPointExtension>
        </extensions>
      </trkpt>
      <trkpt lat="43.45659264363348484039306640625" lon="1.436096616089344024658203125">
        <ele>191.600006103515625</ele>
        <time>2026-08-05T06:17:51.000Z</time>
        <extensions>
          <ns3:TrackPointExtension>
            <ns3:hr>59</ns3:hr>
            <ns3:cad>50</ns3:cad>
          </ns3:TrackPointExtension>
        </extensions>
      </trkpt>
      <trkpt lat="43.45658694393932819366455078125" lon="1.43608245067298412322998046875">
        <ele>191.399993896484375</ele>
        <time>2026-08-05T06:17:52.000Z</time>
        <extensions>
          <ns3:TrackPointExtension>
            <ns3:hr>60</ns3:hr>
            <ns3:cad>51</ns3:cad>
          </ns3:TrackPointExtension>
        </extensions>
      </trkpt>
      <trkpt lat="43.45658074133098125457763671875" lon="1.4360694587230682373046875">
        <ele>191.1999969482421875</ele>
        <time>2026-08-05T06:17:53.000Z</time>
        <extensions>
          <ns3:TrackPointExtension>
            <ns3:hr>60</ns3:hr>
            <ns3:cad>51</ns3:cad>
          </ns3:TrackPointExtension>
        </extensions>
      </trkpt>
      <trkpt lat="43.456576801836490631103515625" lon="1.43605931662023067474365234375">
        <ele>191</ele>
        <time>2026-08-05T06:17:54.000Z</time>
        <extensions>
          <ns3:TrackPointExtension>
            <ns3:hr>59</ns3:hr>
            <ns3:cad>52</ns3:cad>
          </ns3:TrackPointExtension>
        </extensions>
      </trkpt>
      <trkpt lat="43.45657051540911197662353515625" lon="1.43605059944093227386474609375">
        <ele>191</ele>
        <time>2026-08-05T06:17:55.000Z</time>
        <extensions>
          <ns3:TrackPointExtension>
            <ns3:hr>60</ns3:hr>
            <ns3:cad>52</ns3:cad>
          </ns3:TrackPointExtension>
        </extensions>
      </trkpt>
      <trkpt lat="43.45656548626720905303955078125" lon="1.43604087643325328826904296875">
        <ele>190.8000030517578125</ele>
        <time>2026-08-05T06:17:56.000Z</time>
        <extensions>
          <ns3:TrackPointExtension>
            <ns3:hr>60</ns3:hr>
            <ns3:cad>52</ns3:cad>
          </ns3:TrackPointExtension>
        </extensions>
      </trkpt>
      <trkpt lat="43.4565603733062744140625" lon="1.4360310696065425872802734375">
        <ele>190.600006103515625</ele>
        <time>2026-08-05T06:17:57.000Z</time>
        <extensions>
          <ns3:TrackPointExtension>
            <ns3:hr>60</ns3:hr>
            <ns3:cad>52</ns3:cad>
          </ns3:TrackPointExtension>
        </extensions>
      </trkpt>
      <trkpt lat="43.45655173994600772857666015625" lon="1.43601539544761180877685546875">
        <ele>190.399993896484375</ele>
        <time>2026-08-05T06:17:58.000Z</time>
        <extensions>
          <ns3:TrackPointExtension>
            <ns3:hr>61</ns3:hr>
            <ns3:cad>51</ns3:cad>
          </ns3:TrackPointExtension>
        </extensions>
      </trkpt>
      <trkpt lat="43.45654654316604137420654296875" lon="1.43600307404994964599609375">
        <ele>190.399993896484375</ele>
        <time>2026-08-05T06:17:59.000Z</time>
        <extensions>
          <ns3:TrackPointExtension>
            <ns3:hr>61</ns3:hr>
            <ns3:cad>51</ns3:cad>
          </ns3:TrackPointExtension>
        </extensions>
      </trkpt>
      <trkpt lat="43.45654017291963100433349609375" lon="1.43598991446197032928466796875">
        <ele>190.1999969482421875</ele>
        <time>2026-08-05T06:18:00.000Z</time>
        <extensions>
          <ns3:TrackPointExtension>
            <ns3:hr>61</ns3:hr>
            <ns3:cad>51</ns3:cad>
          </ns3:TrackPointExtension>
        </extensions>
      </trkpt>
      <trkpt lat="43.45653363503515720367431640625" lon="1.43597616814076900482177734375">
        <ele>190</ele>
        <time>2026-08-05T06:18:01.000Z</time>
        <extensions>
          <ns3:TrackPointExtension>
            <ns3:hr>61</ns3:hr>
            <ns3:cad>51</ns3:cad>
          </ns3:TrackPointExtension>
        </extensions>
      </trkpt>
      <trkpt lat="43.45652894116938114166259765625" lon="1.435963846743106842041015625">
        <ele>189.8000030517578125</ele>
        <time>2026-08-05T06:18:02.000Z</time>
        <extensions>
          <ns3:TrackPointExtension>
            <ns3:hr>60</ns3:hr>
            <ns3:cad>51</ns3:cad>
          </ns3:TrackPointExtension>
        </extensions>
      </trkpt>
      <trkpt lat="43.456524498760700225830078125" lon="1.43595219589769840240478515625">
        <ele>189.600006103515625</ele>
        <time>2026-08-05T06:18:03.000Z</time>
        <extensions>
          <ns3:TrackPointExtension>
            <ns3:hr>60</ns3:hr>
            <ns3:cad>51</ns3:cad>
          </ns3:TrackPointExtension>
        </extensions>
      </trkpt>
      <trkpt lat="43.45651905052363872528076171875" lon="1.43593694083392620086669921875">
        <ele>189.399993896484375</ele>
        <time>2026-08-05T06:18:04.000Z</time>
        <extensions>
          <ns3:TrackPointExtension>
            <ns3:hr>60</ns3:hr>
            <ns3:cad>51</ns3:cad>
          </ns3:TrackPointExtension>
        </extensions>
      </trkpt>
      <trkpt lat="43.4565149433910846710205078125" lon="1.43592260777950286865234375">
        <ele>189.1999969482421875</ele>
        <time>2026-08-05T06:18:05.000Z</time>
        <extensions>
          <ns3:TrackPointExtension>
            <ns3:hr>60</ns3:hr>
            <ns3:cad>51</ns3:cad>
          </ns3:TrackPointExtension>
        </extensions>
      </trkpt>
      <trkpt lat="43.4565079025924205780029296875" lon="1.43591430969536304473876953125">
        <ele>189</ele>
        <time>2026-08-05T06:18:06.000Z</time>
        <extensions>
          <ns3:TrackPointExtension>
            <ns3:hr>60</ns3:hr>
            <ns3:cad>50</ns3:cad>
          </ns3:TrackPointExtension>
        </extensions>
      </trkpt>
      <trkpt lat="43.45650429837405681610107421875" lon="1.43590542487800121307373046875">
        <ele>188.8000030517578125</ele>
        <time>2026-08-05T06:18:07.000Z</time>
        <extensions>
          <ns3:TrackPointExtension>
            <ns3:hr>59</ns3:hr>
            <ns3:cad>50</ns3:cad>
          </ns3:TrackPointExtension>
        </extensions>
      </trkpt>
      <trkpt lat="43.45649792812764644622802734375" lon="1.43589704297482967376708984375">
        <ele>188.600006103515625</ele>
        <time>2026-08-05T06:18:08.000Z</time>
        <extensions>
          <ns3:TrackPointExtension>
            <ns3:hr>59</ns3:hr>
            <ns3:cad>50</ns3:cad>
          </ns3:TrackPointExtension>
        </extensions>
      </trkpt>
      <trkpt lat="43.45649541355669498443603515625" lon="1.43588748760521411895751953125">
        <ele>188.600006103515625</ele>
        <time>2026-08-05T06:18:09.000Z</time>
        <extensions>
          <ns3:TrackPointExtension>
            <ns3:hr>59</ns3:hr>
            <ns3:cad>50</ns3:cad>
          </ns3:TrackPointExtension>
        </extensions>
      </trkpt>
      <trkpt lat="43.45649390481412410736083984375" lon="1.43588044680655002593994140625">
        <ele>188.399993896484375</ele>
        <time>2026-08-05T06:18:10.000Z</time>
        <extensions>
          <ns3:TrackPointExtension>
            <ns3:hr>59</ns3:hr>
            <ns3:cad>52</ns3:cad>
          </ns3:TrackPointExtension>
        </extensions>
      </trkpt>
      <trkpt lat="43.456487618386745452880859375" lon="1.43587189726531505584716796875">
        <ele>188.399993896484375</ele>
        <time>2026-08-05T06:18:11.000Z</time>
        <extensions>
          <ns3:TrackPointExtension>
            <ns3:hr>59</ns3:hr>
            <ns3:cad>53</ns3:cad>
          </ns3:TrackPointExtension>
        </extensions>
      </trkpt>
      <trkpt lat="43.456482253968715667724609375" lon="1.435863263905048370361328125">
        <ele>188.399993896484375</ele>
        <time>2026-08-05T06:18:12.000Z</time>
        <extensions>
          <ns3:TrackPointExtension>
            <ns3:hr>58</ns3:hr>
            <ns3:cad>53</ns3:cad>
          </ns3:TrackPointExtension>
        </extensions>
      </trkpt>
      <trkpt lat="43.45647747628390789031982421875" lon="1.435853876173496246337890625">
        <ele>188.1999969482421875</ele>
        <time>2026-08-05T06:18:13.000Z</time>
        <extensions>
          <ns3:TrackPointExtension>
            <ns3:hr>59</ns3:hr>
            <ns3:cad>52</ns3:cad>
          </ns3:TrackPointExtension>
        </extensions>
      </trkpt>
      <trkpt lat="43.45647118985652923583984375" lon="1.4358423091471195220947265625">
        <ele>188</ele>
        <time>2026-08-05T06:18:14.000Z</time>
        <extensions>
          <ns3:TrackPointExtension>
            <ns3:hr>59</ns3:hr>
            <ns3:cad>52</ns3:cad>
          </ns3:TrackPointExtension>
        </extensions>
      </trkpt>
      <trkpt lat="43.45647253096103668212890625" lon="1.43582847900688648223876953125">
        <ele>188</ele>
        <time>2026-08-05T06:18:15.000Z</time>
        <extensions>
          <ns3:TrackPointExtension>
            <ns3:hr>58</ns3:hr>
            <ns3:cad>49</ns3:cad>
          </ns3:TrackPointExtension>
        </extensions>
      </trkpt>
      <trkpt lat="43.45646917819976806640625" lon="1.4358174987137317657470703125">
        <ele>187.8000030517578125</ele>
        <time>2026-08-05T06:18:16.000Z</time>
        <extensions>
          <ns3:TrackPointExtension>
            <ns3:hr>59</ns3:hr>
            <ns3:cad>49</ns3:cad>
          </ns3:TrackPointExtension>
        </extensions>
      </trkpt>
      <trkpt lat="43.4564646519720554351806640625" lon="1.4358050934970378875732421875">
        <ele>187.600006103515625</ele>
        <time>2026-08-05T06:18:17.000Z</time>
        <extensions>
          <ns3:TrackPointExtension>
            <ns3:hr>59</ns3:hr>
            <ns3:cad>50</ns3:cad>
          </ns3:TrackPointExtension>
        </extensions>
      </trkpt>
      <trkpt lat="43.456457443535327911376953125" lon="1.4357886649668216705322265625">
        <ele>187.399993896484375</ele>
        <time>2026-08-05T06:18:18.000Z</time>
        <extensions>
          <ns3:TrackPointExtension>
            <ns3:hr>59</ns3:hr>
            <ns3:cad>51</ns3:cad>
          </ns3:TrackPointExtension>
        </extensions>
      </trkpt>
      <trkpt lat="43.4564509056508541107177734375" lon="1.43577148206532001495361328125">
        <ele>187.1999969482421875</ele>
        <time>2026-08-05T06:18:19.000Z</time>
        <extensions>
          <ns3:TrackPointExtension>
            <ns3:hr>59</ns3:hr>
            <ns3:cad>52</ns3:cad>
          </ns3:TrackPointExtension>
        </extensions>
      </trkpt>
      <trkpt lat="43.45644528977572917938232421875" lon="1.4357568137347698211669921875">
        <ele>187</ele>
        <time>2026-08-05T06:18:20.000Z</time>
        <extensions>
          <ns3:TrackPointExtension>
            <ns3:hr>59</ns3:hr>
            <ns3:cad>52</ns3:cad>
          </ns3:TrackPointExtension>
        </extensions>
      </trkpt>
      <trkpt lat="43.45643908716738224029541015625" lon="1.43575186841189861297607421875">
        <ele>187</ele>
        <time>2026-08-05T06:18:21.000Z</time>
        <extensions>
          <ns3:TrackPointExtension>
            <ns3:hr>59</ns3:hr>
            <ns3:cad>52</ns3:cad>
          </ns3:TrackPointExtension>
        </extensions>
      </trkpt>
      <trkpt lat="43.45643556676805019378662109375" lon="1.43574197776615619659423828125">
        <ele>186.8000030517578125</ele>
        <time>2026-08-05T06:18:22.000Z</time>
        <extensions>
          <ns3:TrackPointExtension>
            <ns3:hr>59</ns3:hr>
            <ns3:cad>51</ns3:cad>
          </ns3:TrackPointExtension>
        </extensions>
      </trkpt>
      <trkpt lat="43.45643472857773303985595703125" lon="1.43573393113911151885986328125">
        <ele>186.600006103515625</ele>
        <time>2026-08-05T06:18:23.000Z</time>
        <extensions>
          <ns3:TrackPointExtension>
            <ns3:hr>60</ns3:hr>
            <ns3:cad>51</ns3:cad>
          </ns3:TrackPointExtension>
        </extensions>
      </trkpt>
      <trkpt lat="43.4564297832548618316650390625" lon="1.43572052009403705596923828125">
        <ele>186.600006103515625</ele>
        <time>2026-08-05T06:18:24.000Z</time>
        <extensions>
          <ns3:TrackPointExtension>
            <ns3:hr>59</ns3:hr>
            <ns3:cad>51</ns3:cad>
          </ns3:TrackPointExtension>
        </extensions>
      </trkpt>
      <trkpt lat="43.45642550848424434661865234375" lon="1.43570409156382083892822265625">
        <ele>186.600006103515625</ele>
        <time>2026-08-05T06:18:25.000Z</time>
        <extensions>
          <ns3:TrackPointExtension>
            <ns3:hr>60</ns3:hr>
            <ns3:cad>51</ns3:cad>
          </ns3:TrackPointExtension>
        </extensions>
      </trkpt>
      <trkpt lat="43.45642131753265857696533203125" lon="1.435687243938446044921875">
        <ele>186.399993896484375</ele>
        <time>2026-08-05T06:18:26.000Z</time>
        <extensions>
          <ns3:TrackPointExtension>
            <ns3:hr>60</ns3:hr>
            <ns3:cad>51</ns3:cad>
          </ns3:TrackPointExtension>
        </extensions>
      </trkpt>
      <trkpt lat="43.456417210400104522705078125" lon="1.43567425198853015899658203125">
        <ele>186.399993896484375</ele>
        <time>2026-08-05T06:18:27.000Z</time>
        <extensions>
          <ns3:TrackPointExtension>
            <ns3:hr>60</ns3:hr>
            <ns3:cad>51</ns3:cad>
          </ns3:TrackPointExtension>
        </extensions>
      </trkpt>
      <trkpt lat="43.456413187086582183837890625" lon="1.43566377460956573486328125">
        <ele>186.1999969482421875</ele>
        <time>2026-08-05T06:18:28.000Z</time>
        <extensions>
          <ns3:TrackPointExtension>
            <ns3:hr>60</ns3:hr>
            <ns3:cad>49</ns3:cad>
          </ns3:TrackPointExtension>
        </extensions>
      </trkpt>
      <trkpt lat="43.4564069844782352447509765625" lon="1.435647346079349517822265625">
        <ele>186</ele>
        <time>2026-08-05T06:18:29.000Z</time>
        <extensions>
          <ns3:TrackPointExtension>
            <ns3:hr>59</ns3:hr>
            <ns3:cad>48</ns3:cad>
          </ns3:TrackPointExtension>
        </extensions>
      </trkpt>
      <trkpt lat="43.45640120096504688262939453125" lon="1.43563100136816501617431640625">
        <ele>185.8000030517578125</ele>
        <time>2026-08-05T06:18:30.000Z</time>
        <extensions>
          <ns3:TrackPointExtension>
            <ns3:hr>60</ns3:hr>
            <ns3:cad>48</ns3:cad>
          </ns3:TrackPointExtension>
        </extensions>
      </trkpt>
      <trkpt lat="43.45639667473733425140380859375" lon="1.43561641685664653778076171875">
        <ele>185.600006103515625</ele>
        <time>2026-08-05T06:18:31.000Z</time>
        <extensions>
          <ns3:TrackPointExtension>
            <ns3:hr>60</ns3:hr>
            <ns3:cad>50</ns3:cad>
          </ns3:TrackPointExtension>
        </extensions>
      </trkpt>
      <trkpt lat="43.45639198087155818939208984375" lon="1.4356009103357791900634765625">
        <ele>185.600006103515625</ele>
        <time>2026-08-05T06:18:32.000Z</time>
        <extensions>
          <ns3:TrackPointExtension>
            <ns3:hr>59</ns3:hr>
            <ns3:cad>51</ns3:cad>
          </ns3:TrackPointExtension>
        </extensions>
      </trkpt>
      <trkpt lat="43.4563861973583698272705078125" lon="1.4355881698429584503173828125">
        <ele>185.399993896484375</ele>
        <time>2026-08-05T06:18:33.000Z</time>
        <extensions>
          <ns3:TrackPointExtension>
            <ns3:hr>59</ns3:hr>
            <ns3:cad>51</ns3:cad>
          </ns3:TrackPointExtension>
        </extensions>
      </trkpt>
      <trkpt lat="43.456381000578403472900390625" lon="1.43557660281658172607421875">
        <ele>185.1999969482421875</ele>
        <time>2026-08-05T06:18:34.000Z</time>
        <extensions>
          <ns3:TrackPointExtension>
            <ns3:hr>60</ns3:hr>
            <ns3:cad>51</ns3:cad>
          </ns3:TrackPointExtension>
        </extensions>
      </trkpt>
      <trkpt lat="43.4563747979700565338134765625" lon="1.43556495197117328643798828125">
        <ele>185.1999969482421875</ele>
        <time>2026-08-05T06:18:35.000Z</time>
        <extensions>
          <ns3:TrackPointExtension>
            <ns3:hr>60</ns3:hr>
            <ns3:cad>51</ns3:cad>
          </ns3:TrackPointExtension>
        </extensions>
      </trkpt>
      <trkpt lat="43.4563674218952655792236328125" lon="1.4355529658496379852294921875">
        <ele>185</ele>
        <time>2026-08-05T06:18:36.000Z</time>
        <extensions>
          <ns3:TrackPointExtension>
            <ns3:hr>61</ns3:hr>
            <ns3:cad>51</ns3:cad>
          </ns3:TrackPointExtension>
        </extensions>
      </trkpt>
      <trkpt lat="43.4563605487346649169921875" lon="1.43554081209003925323486328125">
        <ele>184.8000030517578125</ele>
        <time>2026-08-05T06:18:37.000Z</time>
        <extensions>
          <ns3:TrackPointExtension>
            <ns3:hr>61</ns3:hr>
            <ns3:cad>50</ns3:cad>
          </ns3:TrackPointExtension>
        </extensions>
      </trkpt>
      <trkpt lat="43.45635577104985713958740234375" lon="1.43552840687334537506103515625">
        <ele>184.600006103515625</ele>
        <time>2026-08-05T06:18:38.000Z</time>
        <extensions>
          <ns3:TrackPointExtension>
            <ns3:hr>61</ns3:hr>
            <ns3:cad>50</ns3:cad>
          </ns3:TrackPointExtension>
        </extensions>
      </trkpt>
      <trkpt lat="43.45635459758341312408447265625" lon="1.43551449291408061981201171875">
        <ele>184.600006103515625</ele>
        <time>2026-08-05T06:18:39.000Z</time>
        <extensions>
          <ns3:TrackPointExtension>
            <ns3:hr>62</ns3:hr>
            <ns3:cad>49</ns3:cad>
          </ns3:TrackPointExtension>
        </extensions>
      </trkpt>
      <trkpt lat="43.456352166831493377685546875" lon="1.43550443463027477264404296875">
        <ele>184.399993896484375</ele>
        <time>2026-08-05T06:18:40.000Z</time>
        <extensions>
          <ns3:TrackPointExtension>
            <ns3:hr>62</ns3:hr>
            <ns3:cad>49</ns3:cad>
          </ns3:TrackPointExtension>
        </extensions>
      </trkpt>
      <trkpt lat="43.4563489817082881927490234375" lon="1.43550359643995761871337890625">
        <ele>184.1999969482421875</ele>
        <time>2026-08-05T06:18:41.000Z</time>
        <extensions>
          <ns3:TrackPointExtension>
            <ns3:hr>62</ns3:hr>
            <ns3:cad>49</ns3:cad>
          </ns3:TrackPointExtension>
        </extensions>
      </trkpt>
      <trkpt lat="43.45634420402348041534423828125" lon="1.43549588508903980255126953125">
        <ele>184.1999969482421875</ele>
        <time>2026-08-05T06:18:42.000Z</time>
        <extensions>
          <ns3:TrackPointExtension>
            <ns3:hr>62</ns3:hr>
            <ns3:cad>49</ns3:cad>
          </ns3:TrackPointExtension>
        </extensions>
      </trkpt>
      <trkpt lat="43.45634420402348041534423828125" lon="1.4354845695197582244873046875">
        <ele>184</ele>
        <time>2026-08-05T06:18:43.000Z</time>
        <extensions>
          <ns3:TrackPointExtension>
            <ns3:hr>63</ns3:hr>
            <ns3:cad>0</ns3:cad>
          </ns3:TrackPointExtension>
        </extensions>
      </trkpt>
      <trkpt lat="43.4563399292528629302978515625" lon="1.43547090701758861541748046875">
        <ele>184</ele>
        <time>2026-08-05T06:18:44.000Z</time>
        <extensions>
          <ns3:TrackPointExtension>
            <ns3:hr>63</ns3:hr>
            <ns3:cad>0</ns3:cad>
          </ns3:TrackPointExtension>
        </extensions>
      </trkpt>
      <trkpt lat="43.45633548684418201446533203125" lon="1.435455568134784698486328125">
        <ele>184</ele>
        <time>2026-08-05T06:18:45.000Z</time>
        <extensions>
          <ns3:TrackPointExtension>
            <ns3:hr>63</ns3:hr>
            <ns3:cad>0</ns3:cad>
          </ns3:TrackPointExtension>
        </extensions>
      </trkpt>
      <trkpt lat="43.45633045770227909088134765625" lon="1.43543788231909275054931640625">
        <ele>183.8000030517578125</ele>
        <time>2026-08-05T06:18:46.000Z</time>
        <extensions>
          <ns3:TrackPointExtension>
            <ns3:hr>63</ns3:hr>
            <ns3:cad>53</ns3:cad>
          </ns3:TrackPointExtension>
        </extensions>
      </trkpt>
      <trkpt lat="43.456325344741344451904296875" lon="1.4354238845407962799072265625">
        <ele>183.600006103515625</ele>
        <time>2026-08-05T06:18:47.000Z</time>
        <extensions>
          <ns3:TrackPointExtension>
            <ns3:hr>62</ns3:hr>
            <ns3:cad>53</ns3:cad>
          </ns3:TrackPointExtension>
        </extensions>
      </trkpt>
      <trkpt lat="43.45632098615169525146484375" lon="1.435410641133785247802734375">
        <ele>183.600006103515625</ele>
        <time>2026-08-05T06:18:48.000Z</time>
        <extensions>
          <ns3:TrackPointExtension>
            <ns3:hr>63</ns3:hr>
            <ns3:cad>53</ns3:cad>
          </ns3:TrackPointExtension>
        </extensions>
      </trkpt>
      <trkpt lat="43.45631503500044345855712890625" lon="1.43539630807936191558837890625">
        <ele>183.399993896484375</ele>
        <time>2026-08-05T06:18:49.000Z</time>
        <extensions>
          <ns3:TrackPointExtension>
            <ns3:hr>63</ns3:hr>
            <ns3:cad>52</ns3:cad>
          </ns3:TrackPointExtension>
        </extensions>
      </trkpt>
      <trkpt lat="43.4563107602298259735107421875" lon="1.4353833161294460296630859375">
        <ele>183.1999969482421875</ele>
        <time>2026-08-05T06:18:50.000Z</time>
        <extensions>
          <ns3:TrackPointExtension>
            <ns3:hr>64</ns3:hr>
            <ns3:cad>52</ns3:cad>
          </ns3:TrackPointExtension>
        </extensions>
      </trkpt>
      <trkpt lat="43.45630782656371593475341796875" lon="1.43537300638854503631591796875">
        <ele>183</ele>
        <time>2026-08-05T06:18:51.000Z</time>
        <extensions>
          <ns3:TrackPointExtension>
            <ns3:hr>64</ns3:hr>
            <ns3:cad>52</ns3:cad>
          </ns3:TrackPointExtension>
        </extensions>
      </trkpt>
      <trkpt lat="43.4563040547072887420654296875" lon="1.43536177463829517364501953125">
        <ele>183</ele>
        <time>2026-08-05T06:18:52.000Z</time>
        <extensions>
          <ns3:TrackPointExtension>
            <ns3:hr>64</ns3:hr>
            <ns3:cad>52</ns3:cad>
          </ns3:TrackPointExtension>
        </extensions>
      </trkpt>
      <trkpt lat="43.4563007019460201263427734375" lon="1.43535196781158447265625">
        <ele>182.8000030517578125</ele>
        <time>2026-08-05T06:18:53.000Z</time>
        <extensions>
          <ns3:TrackPointExtension>
            <ns3:hr>63</ns3:hr>
            <ns3:cad>51</ns3:cad>
          </ns3:TrackPointExtension>
        </extensions>
      </trkpt>
      <trkpt lat="43.45629642717540264129638671875" lon="1.43534283153712749481201171875">
        <ele>182.600006103515625</ele>
        <time>2026-08-05T06:18:54.000Z</time>
        <extensions>
          <ns3:TrackPointExtension>
            <ns3:hr>64</ns3:hr>
            <ns3:cad>51</ns3:cad>
          </ns3:TrackPointExtension>
        </extensions>
      </trkpt>
      <trkpt lat="43.45629307441413402557373046875" lon="1.43533394671976566314697265625">
        <ele>182.399993896484375</ele>
        <time>2026-08-05T06:18:55.000Z</time>
        <extensions>
          <ns3:TrackPointExtension>
            <ns3:hr>64</ns3:hr>
            <ns3:cad>50</ns3:cad>
          </ns3:TrackPointExtension>
        </extensions>
      </trkpt>
      <trkpt lat="43.45628921873867511749267578125" lon="1.43532288260757923126220703125">
        <ele>182.399993896484375</ele>
        <time>2026-08-05T06:18:56.000Z</time>
        <extensions>
          <ns3:TrackPointExtension>
            <ns3:hr>63</ns3:hr>
            <ns3:cad>50</ns3:cad>
          </ns3:TrackPointExtension>
        </extensions>
      </trkpt>
      <trkpt lat="43.45628486014902591705322265625" lon="1.4353119023144245147705078125">
        <ele>182.1999969482421875</ele>
        <time>2026-08-05T06:18:57.000Z</time>
        <extensions>
          <ns3:TrackPointExtension>
            <ns3:hr>63</ns3:hr>
            <ns3:cad>50</ns3:cad>
          </ns3:TrackPointExtension>
        </extensions>
      </trkpt>
      <trkpt lat="43.45628016628324985504150390625" lon="1.4353005029261112213134765625">
        <ele>182</ele>
        <time>2026-08-05T06:18:58.000Z</time>
        <extensions>
          <ns3:TrackPointExtension>
            <ns3:hr>63</ns3:hr>
            <ns3:cad>50</ns3:cad>
          </ns3:TrackPointExtension>
        </extensions>
      </trkpt>
      <trkpt lat="43.456275723874568939208984375" lon="1.43528684042394161224365234375">
        <ele>182</ele>
        <time>2026-08-05T06:18:59.000Z</time>
        <extensions>
          <ns3:TrackPointExtension>
            <ns3:hr>63</ns3:hr>
            <ns3:cad>50</ns3:cad>
          </ns3:TrackPointExtension>
        </extensions>
      </trkpt>
      <trkpt lat="43.45627128146588802337646484375" lon="1.4352763630449771881103515625">
        <ele>181.8000030517578125</ele>
        <time>2026-08-05T06:19:00.000Z</time>
        <extensions>
          <ns3:TrackPointExtension>
            <ns3:hr>63</ns3:hr>
            <ns3:cad>50</ns3:cad>
          </ns3:TrackPointExtension>
        </extensions>
      </trkpt>
      <trkpt lat="43.45626776106655597686767578125" lon="1.43526052124798297882080078125">
        <ele>181.600006103515625</ele>
        <time>2026-08-05T06:19:01.000Z</time>
        <extensions>
          <ns3:TrackPointExtension>
            <ns3:hr>63</ns3:hr>
            <ns3:cad>49</ns3:cad>
          </ns3:TrackPointExtension>
        </extensions>
      </trkpt>
      <trkpt lat="43.45626776106655597686767578125" lon="1.4352445118129253387451171875">
        <ele>181.399993896484375</ele>
        <time>2026-08-05T06:19:02.000Z</time>
        <extensions>
          <ns3:TrackPointExtension>
            <ns3:hr>63</ns3:hr>
            <ns3:cad>49</ns3:cad>
          </ns3:TrackPointExtension>
        </extensions>
      </trkpt>
      <trkpt lat="43.45626474358141422271728515625" lon="1.435227580368518829345703125">
        <ele>181.1999969482421875</ele>
        <time>2026-08-05T06:19:03.000Z</time>
        <extensions>
          <ns3:TrackPointExtension>
            <ns3:hr>63</ns3:hr>
            <ns3:cad>49</ns3:cad>
          </ns3:TrackPointExtension>
        </extensions>
      </trkpt>
      <trkpt lat="43.4562641568481922149658203125" lon="1.43520737998187541961669921875">
        <ele>181</ele>
        <time>2026-08-05T06:19:04.000Z</time>
        <extensions>
          <ns3:TrackPointExtension>
            <ns3:hr>63</ns3:hr>
            <ns3:cad>49</ns3:cad>
          </ns3:TrackPointExtension>
        </extensions>
      </trkpt>
      <trkpt lat="43.4562594629824161529541015625" lon="1.4351908676326274871826171875">
        <ele>181</ele>
        <time>2026-08-05T06:19:05.000Z</time>
        <extensions>
          <ns3:TrackPointExtension>
            <ns3:hr>63</ns3:hr>
            <ns3:cad>49</ns3:cad>
          </ns3:TrackPointExtension>
        </extensions>
      </trkpt>
      <trkpt lat="43.45625602640211582183837890625" lon="1.4351754449307918548583984375">
        <ele>180.8000030517578125</ele>
        <time>2026-08-05T06:19:06.000Z</time>
        <extensions>
          <ns3:TrackPointExtension>
            <ns3:hr>63</ns3:hr>
            <ns3:cad>49</ns3:cad>
          </ns3:TrackPointExtension>
        </extensions>
      </trkpt>
      <trkpt lat="43.4562517516314983367919921875" lon="1.43515993840992450714111328125">
        <ele>180.600006103515625</ele>
        <time>2026-08-05T06:19:07.000Z</time>
        <extensions>
          <ns3:TrackPointExtension>
            <ns3:hr>63</ns3:hr>
            <ns3:cad>49</ns3:cad>
          </ns3:TrackPointExtension>
        </extensions>
      </trkpt>
      <trkpt lat="43.45625066198408603668212890625" lon="1.43514703027904033660888671875">
        <ele>180.600006103515625</ele>
        <time>2026-08-05T06:19:08.000Z</time>
        <extensions>
          <ns3:TrackPointExtension>
            <ns3:hr>63</ns3:hr>
            <ns3:cad>49</ns3:cad>
          </ns3:TrackPointExtension>
        </extensions>
      </trkpt>
      <trkpt lat="43.45624529756605625152587890625" lon="1.435134708881378173828125">
        <ele>180.399993896484375</ele>
        <time>2026-08-05T06:19:09.000Z</time>
        <extensions>
          <ns3:TrackPointExtension>
            <ns3:hr>63</ns3:hr>
            <ns3:cad>50</ns3:cad>
          </ns3:TrackPointExtension>
        </extensions>
      </trkpt>
      <trkpt lat="43.45624110661447048187255859375" lon="1.43512221984565258026123046875">
        <ele>180.399993896484375</ele>
        <time>2026-08-05T06:19:10.000Z</time>
        <extensions>
          <ns3:TrackPointExtension>
            <ns3:hr>63</ns3:hr>
            <ns3:cad>51</ns3:cad>
          </ns3:TrackPointExtension>
        </extensions>
      </trkpt>
      <trkpt lat="43.4562344849109649658203125" lon="1.4351137541234493255615234375">
        <ele>180.1999969482421875</ele>
        <time>2026-08-05T06:19:11.000Z</time>
        <extensions>
          <ns3:TrackPointExtension>
            <ns3:hr>63</ns3:hr>
            <ns3:cad>51</ns3:cad>
          </ns3:TrackPointExtension>
        </extensions>
      </trkpt>
      <trkpt lat="43.4562292881309986114501953125" lon="1.435101516544818878173828125">
        <ele>180</ele>
        <time>2026-08-05T06:19:12.000Z</time>
        <extensions>
          <ns3:TrackPointExtension>
            <ns3:hr>62</ns3:hr>
            <ns3:cad>51</ns3:cad>
          </ns3:TrackPointExtension>
        </extensions>
      </trkpt>
      <trkpt lat="43.4562212415039539337158203125" lon="1.435088776051998138427734375">
        <ele>179.8000030517578125</ele>
        <time>2026-08-05T06:19:13.000Z</time>
        <extensions>
          <ns3:TrackPointExtension>
            <ns3:hr>62</ns3:hr>
            <ns3:cad>53</ns3:cad>
          </ns3:TrackPointExtension>
        </extensions>
      </trkpt>
      <trkpt lat="43.45621562562882900238037109375" lon="1.4350785501301288604736328125">
        <ele>179.600006103515625</ele>
        <time>2026-08-05T06:19:14.000Z</time>
        <extensions>
          <ns3:TrackPointExtension>
            <ns3:hr>62</ns3:hr>
            <ns3:cad>53</ns3:cad>
          </ns3:TrackPointExtension>
        </extensions>
      </trkpt>
      <trkpt lat="43.45621369779109954833984375" lon="1.43506606109440326690673828125">
        <ele>179.399993896484375</ele>
        <time>2026-08-05T06:19:15.000Z</time>
        <extensions>
          <ns3:TrackPointExtension>
            <ns3:hr>62</ns3:hr>
            <ns3:cad>52</ns3:cad>
          </ns3:TrackPointExtension>
        </extensions>
      </trkpt>
      <trkpt lat="43.45620959065854549407958984375" lon="1.435053907334804534912109375">
        <ele>179.399993896484375</ele>
        <time>2026-08-05T06:19:16.000Z</time>
        <extensions>
          <ns3:TrackPointExtension>
            <ns3:hr>62</ns3:hr>
            <ns3:cad>52</ns3:cad>
          </ns3:TrackPointExtension>
        </extensions>
      </trkpt>
      <trkpt lat="43.45620523206889629364013671875" lon="1.43503940664231777191162109375">
        <ele>179.1999969482421875</ele>
        <time>2026-08-05T06:19:17.000Z</time>
        <extensions>
          <ns3:TrackPointExtension>
            <ns3:hr>62</ns3:hr>
            <ns3:cad>52</ns3:cad>
          </ns3:TrackPointExtension>
        </extensions>
      </trkpt>
      <trkpt lat="43.45620020292699337005615234375" lon="1.435028426349163055419921875">
        <ele>179</ele>
        <time>2026-08-05T06:19:18.000Z</time>
        <extensions>
          <ns3:TrackPointExtension>
            <ns3:hr>62</ns3:hr>
            <ns3:cad>52</ns3:cad>
          </ns3:TrackPointExtension>
        </extensions>
      </trkpt>
      <trkpt lat="43.45619483850896358489990234375" lon="1.43501794897019863128662109375">
        <ele>179</ele>
        <time>2026-08-05T06:19:19.000Z</time>
        <extensions>
          <ns3:TrackPointExtension>
            <ns3:hr>62</ns3:hr>
            <ns3:cad>51</ns3:cad>
          </ns3:TrackPointExtension>
        </extensions>
      </trkpt>
      <trkpt lat="43.45618897117674350738525390625" lon="1.43501107580959796905517578125">
        <ele>178.8000030517578125</ele>
        <time>2026-08-05T06:19:20.000Z</time>
        <extensions>
          <ns3:TrackPointExtension>
            <ns3:hr>61</ns3:hr>
            <ns3:cad>50</ns3:cad>
          </ns3:TrackPointExtension>
        </extensions>
      </trkpt>
      <trkpt lat="43.45618360675871372222900390625" lon="1.4350037835538387298583984375">
        <ele>178.600006103515625</ele>
        <time>2026-08-05T06:19:21.000Z</time>
        <extensions>
          <ns3:TrackPointExtension>
            <ns3:hr>61</ns3:hr>
            <ns3:cad>50</ns3:cad>
          </ns3:TrackPointExtension>
        </extensions>
      </trkpt>
      <trkpt lat="43.4561773203313350677490234375" lon="1.43499431200325489044189453125">
        <ele>178.399993896484375</ele>
        <time>2026-08-05T06:19:22.000Z</time>
        <extensions>
          <ns3:TrackPointExtension>
            <ns3:hr>61</ns3:hr>
            <ns3:cad>49</ns3:cad>
          </ns3:TrackPointExtension>
        </extensions>
      </trkpt>
      <trkpt lat="43.45616139471530914306640625" lon="1.43499380908906459808349609375">
        <ele>178.399993896484375</ele>
        <time>2026-08-05T06:19:23.000Z</time>
        <extensions>
          <ns3:TrackPointExtension>
            <ns3:hr>61</ns3:hr>
            <ns3:cad>49</ns3:cad>
          </ns3:TrackPointExtension>
        </extensions>
      </trkpt>
      <trkpt lat="43.45615468919277191162109375" lon="1.43498442135751247406005859375">
        <ele>178.1999969482421875</ele>
        <time>2026-08-05T06:19:24.000Z</time>
        <extensions>
          <ns3:TrackPointExtension>
            <ns3:hr>61</ns3:hr>
            <ns3:cad>49</ns3:cad>
          </ns3:TrackPointExtension>
        </extensions>
      </trkpt>
      <trkpt lat="43.45615108497440814971923828125" lon="1.4349806495010852813720703125">
        <ele>178.1999969482421875</ele>
        <time>2026-08-05T06:19:25.000Z</time>
        <extensions>
          <ns3:TrackPointExtension>
            <ns3:hr>60</ns3:hr>
            <ns3:cad>49</ns3:cad>
          </ns3:TrackPointExtension>
        </extensions>
      </trkpt>
      <trkpt lat="43.45614731311798095703125" lon="1.4349749498069286346435546875">
        <ele>178</ele>
        <time>2026-08-05T06:19:26.000Z</time>
        <extensions>
          <ns3:TrackPointExtension>
            <ns3:hr>60</ns3:hr>
            <ns3:cad>47</ns3:cad>
          </ns3:TrackPointExtension>
        </extensions>
      </trkpt>
      <trkpt lat="43.45613918267190456390380859375" lon="1.43497369252145290374755859375">
        <ele>177.8000030517578125</ele>
        <time>2026-08-05T06:19:27.000Z</time>
        <extensions>
          <ns3:TrackPointExtension>
            <ns3:hr>60</ns3:hr>
            <ns3:cad>47</ns3:cad>
          </ns3:TrackPointExtension>
        </extensions>
      </trkpt>
      <trkpt lat="43.4561347402632236480712890625" lon="1.4349722675979137420654296875">
        <ele>177.8000030517578125</ele>
        <time>2026-08-05T06:19:28.000Z</time>
        <extensions>
          <ns3:TrackPointExtension>
            <ns3:hr>60</ns3:hr>
            <ns3:cad>47</ns3:cad>
          </ns3:TrackPointExtension>
        </extensions>
      </trkpt>
      <trkpt lat="43.4561276994645595550537109375" lon="1.434971429407596588134765625">
        <ele>177.600006103515625</ele>
        <time>2026-08-05T06:19:29.000Z</time>
        <extensions>
          <ns3:TrackPointExtension>
            <ns3:hr>60</ns3:hr>
            <ns3:cad>48</ns3:cad>
          </ns3:TrackPointExtension>
        </extensions>
      </trkpt>
      <trkpt lat="43.45612384378910064697265625" lon="1.4349709264934062957763671875">
        <ele>177.600006103515625</ele>
        <time>2026-08-05T06:19:30.000Z</time>
        <extensions>
          <ns3:TrackPointExtension>
            <ns3:hr>60</ns3:hr>
            <ns3:cad>48</ns3:cad>
          </ns3:TrackPointExtension>
        </extensions>
      </trkpt>
      <trkpt lat="43.45611437223851680755615234375" lon="1.43497469834983348846435546875">
        <ele>177.399993896484375</ele>
        <time>2026-08-05T06:19:31.000Z</time>
        <extensions>
          <ns3:TrackPointExtension>
            <ns3:hr>60</ns3:hr>
            <ns3:cad>47</ns3:cad>
          </ns3:TrackPointExtension>
        </extensions>
      </trkpt>
      <trkpt lat="43.45610716380178928375244140625" lon="1.43497469834983348846435546875">
        <ele>177.1999969482421875</ele>
        <time>2026-08-05T06:19:32.000Z</time>
        <extensions>
          <ns3:TrackPointExtension>
            <ns3:hr>60</ns3:hr>
            <ns3:cad>46</ns3:cad>
          </ns3:TrackPointExtension>
        </extensions>
      </trkpt>
      <trkpt lat="43.45610640943050384521484375" lon="1.43497578799724578857421875">
        <ele>177.1999969482421875</ele>
        <time>2026-08-05T06:19:33.000Z</time>
        <extensions>
          <ns3:TrackPointExtension>
            <ns3:hr>60</ns3:hr>
            <ns3:cad>46</ns3:cad>
          </ns3:TrackPointExtension>
        </extensions>
      </trkpt>
      <trkpt lat="43.4561069123446941375732421875" lon="1.434978134930133819580078125">
        <ele>177</ele>
        <time>2026-08-05T06:19:34.000Z</time>
        <extensions>
          <ns3:TrackPointExtension>
            <ns3:hr>60</ns3:hr>
            <ns3:cad>46</ns3:cad>
          </ns3:TrackPointExtension>
        </extensions>
      </trkpt>
      <trkpt lat="43.4561069123446941375732421875" lon="1.43497855402529239654541015625">
        <ele>177</ele>
        <time>2026-08-05T06:19:35.000Z</time>
        <extensions>
          <ns3:TrackPointExtension>
            <ns3:hr>60</ns3:hr>
            <ns3:cad>0</ns3:cad>
          </ns3:TrackPointExtension>
        </extensions>
      </trkpt>
      <trkpt lat="43.4561089240014553070068359375" lon="1.43497989512979984283447265625">
        <ele>177</ele>
        <time>2026-08-05T06:19:36.000Z</time>
        <extensions>
          <ns3:TrackPointExtension>
            <ns3:hr>60</ns3:hr>
            <ns3:cad>0</ns3:cad>
          </ns3:TrackPointExtension>
        </extensions>
      </trkpt>
      <trkpt lat="43.4561136178672313690185546875" lon="1.4349858462810516357421875">
        <ele>177</ele>
        <time>2026-08-05T06:19:37.000Z</time>
        <extensions>
          <ns3:TrackPointExtension>
            <ns3:hr>60</ns3:hr>
            <ns3:cad>0</ns3:cad>
          </ns3:TrackPointExtension>
        </extensions>
      </trkpt>
      <trkpt lat="43.4561159648001194000244140625" lon="1.43498877994716167449951171875">
        <ele>177</ele>
        <time>2026-08-05T06:19:38.000Z</time>
        <extensions>
          <ns3:TrackPointExtension>
            <ns3:hr>59</ns3:hr>
            <ns3:cad>0</ns3:cad>
          </ns3:TrackPointExtension>
        </extensions>
      </trkpt>
      <trkpt lat="43.456118144094944000244140625" lon="1.43500034697353839874267578125">
        <ele>177</ele>
        <time>2026-08-05T06:19:39.000Z</time>
        <extensions>
          <ns3:TrackPointExtension>
            <ns3:hr>60</ns3:hr>
            <ns3:cad>0</ns3:cad>
          </ns3:TrackPointExtension>
        </extensions>
      </trkpt>
      <trkpt lat="43.4561193175613880157470703125" lon="1.43500839360058307647705078125">
        <ele>177</ele>
        <time>2026-08-05T06:19:40.000Z</time>
        <extensions>
          <ns3:TrackPointExtension>
            <ns3:hr>60</ns3:hr>
            <ns3:cad>0</ns3:cad>
          </ns3:TrackPointExtension>
        </extensions>
      </trkpt>
      <trkpt lat="43.45612023957073688507080078125" lon="1.43501308746635913848876953125">
        <ele>177</ele>
        <time>2026-08-05T06:19:41.000Z</time>
        <extensions>
          <ns3:TrackPointExtension>
            <ns3:hr>60</ns3:hr>
            <ns3:cad>0</ns3:cad>
          </ns3:TrackPointExtension>
        </extensions>
      </trkpt>
      <trkpt lat="43.45611169002950191497802734375" lon="1.43501543439924716949462890625">
        <ele>177.1999969482421875</ele>
        <time>2026-08-05T06:19:42.000Z</time>
        <extensions>
          <ns3:TrackPointExtension>
            <ns3:hr>61</ns3:hr>
            <ns3:cad>0</ns3:cad>
          </ns3:TrackPointExtension>
        </extensions>
      </trkpt>
      <trkpt lat="43.45611437223851680755615234375" lon="1.43502247519791126251220703125">
        <ele>177.1999969482421875</ele>
        <time>2026-08-05T06:19:43.000Z</time>
        <extensions>
          <ns3:TrackPointExtension>
            <ns3:hr>62</ns3:hr>
            <ns3:cad>0</ns3:cad>
          </ns3:TrackPointExtension>
        </extensions>
      </trkpt>
      <trkpt lat="43.45611470751464366912841796875" lon="1.435026414692401885986328125">
        <ele>177.1999969482421875</ele>
        <time>2026-08-05T06:19:44.000Z</time>
        <extensions>
          <ns3:TrackPointExtension>
            <ns3:hr>62</ns3:hr>
            <ns3:cad>75</ns3:cad>
          </ns3:TrackPointExtension>
        </extensions>
      </trkpt>
      <trkpt lat="43.45611487515270709991455078125" lon="1.4350295998156070709228515625">
        <ele>177.1999969482421875</ele>
        <time>2026-08-05T06:19:45.000Z</time>
        <extensions>
          <ns3:TrackPointExtension>
            <ns3:hr>63</ns3:hr>
            <ns3:cad>75</ns3:cad>
          </ns3:TrackPointExtension>
        </extensions>
      </trkpt>
      <trkpt lat="43.45611420460045337677001953125" lon="1.43503303639590740203857421875">
        <ele>177.1999969482421875</ele>
        <time>2026-08-05T06:19:46.000Z</time>
        <extensions>
          <ns3:TrackPointExtension>
            <ns3:hr>63</ns3:hr>
            <ns3:cad>0</ns3:cad>
          </ns3:TrackPointExtension>
        </extensions>
      </trkpt>
      <trkpt lat="43.45611487515270709991455078125" lon="1.43503488041460514068603515625">
        <ele>177.1999969482421875</ele>
        <time>2026-08-05T06:19:47.000Z</time>
        <extensions>
          <ns3:TrackPointExtension>
            <ns3:hr>63</ns3:hr>
            <ns3:cad>0</ns3:cad>
          </ns3:TrackPointExtension>
        </extensions>
      </trkpt>
      <trkpt lat="43.45611671917140483856201171875" lon="1.4350352995097637176513671875">
        <ele>177.1999969482421875</ele>
        <time>2026-08-05T06:19:48.000Z</time>
        <extensions>
          <ns3:TrackPointExtension>
            <ns3:hr>63</ns3:hr>
            <ns3:cad>0</ns3:cad>
          </ns3:TrackPointExtension>
        </extensions>
      </trkpt>
      <trkpt lat="43.45611806027591228485107421875" lon="1.4350349642336368560791015625">
        <ele>177.1999969482421875</ele>
        <time>2026-08-05T06:19:49.000Z</time>
        <extensions>
          <ns3:TrackPointExtension>
            <ns3:hr>64</ns3:hr>
            <ns3:cad>0</ns3:cad>
          </ns3:TrackPointExtension>
        </extensions>
      </trkpt>
      <trkpt lat="43.4561203233897686004638671875" lon="1.4350339584052562713623046875">
        <ele>177.1999969482421875</ele>
        <time>2026-08-05T06:19:50.000Z</time>
        <extensions>
          <ns3:TrackPointExtension>
            <ns3:hr>65</ns3:hr>
            <ns3:cad>0</ns3:cad>
          </ns3:TrackPointExtension>
        </extensions>
      </trkpt>
      <trkpt lat="43.4561233408749103546142578125" lon="1.435032449662685394287109375">
        <ele>177.1999969482421875</ele>
        <time>2026-08-05T06:19:51.000Z</time>
        <extensions>
          <ns3:TrackPointExtension>
            <ns3:hr>65</ns3:hr>
            <ns3:cad>0</ns3:cad>
          </ns3:TrackPointExtension>
        </extensions>
      </trkpt>
      <trkpt lat="43.456126190721988677978515625" lon="1.4350302703678607940673828125">
        <ele>177.1999969482421875</ele>
        <time>2026-08-05T06:19:52.000Z</time>
        <extensions>
          <ns3:TrackPointExtension>
            <ns3:hr>65</ns3:hr>
            <ns3:cad>0</ns3:cad>
          </ns3:TrackPointExtension>
        </extensions>
      </trkpt>
      <trkpt lat="43.45612459816038608551025390625" lon="1.43503010272979736328125">
        <ele>177.1999969482421875</ele>
        <time>2026-08-05T06:19:53.000Z</time>
        <extensions>
          <ns3:TrackPointExtension>
            <ns3:hr>65</ns3:hr>
            <ns3:cad>0</ns3:cad>
          </ns3:TrackPointExtension>
        </extensions>
      </trkpt>
      <trkpt lat="43.4561230055987834930419921875" lon="1.4350295998156070709228515625">
        <ele>177.1999969482421875</ele>
        <time>2026-08-05T06:19:54.000Z</time>
        <extensions>
          <ns3:TrackPointExtension>
            <ns3:hr>65</ns3:hr>
            <ns3:cad>0</ns3:cad>
          </ns3:TrackPointExtension>
        </extensions>
      </trkpt>
      <trkpt lat="43.45612258650362491607666015625" lon="1.435029767453670501708984375">
        <ele>177.1999969482421875</ele>
        <time>2026-08-05T06:19:55.000Z</time>
        <extensions>
          <ns3:TrackPointExtension>
            <ns3:hr>66</ns3:hr>
            <ns3:cad>0</ns3:cad>
          </ns3:TrackPointExtension>
        </extensions>
      </trkpt>
      <trkpt lat="43.45612258650362491607666015625" lon="1.435029767453670501708984375">
        <ele>177.1999969482421875</ele>
        <time>2026-08-05T06:19:56.000Z</time>
        <extensions>
          <ns3:TrackPointExtension>
            <ns3:hr>67</ns3:hr>
            <ns3:cad>0</ns3:cad>
          </ns3:TrackPointExtension>
        </extensions>
      </trkpt>
      <trkpt lat="43.45612258650362491607666015625" lon="1.435029767453670501708984375">
        <ele>177.1999969482421875</ele>
        <time>2026-08-05T06:19:57.000Z</time>
        <extensions>
          <ns3:TrackPointExtension>
            <ns3:hr>68</ns3:hr>
            <ns3:cad>0</ns3:cad>
          </ns3:TrackPointExtension>
        </extensions>
      </trkpt>
      <trkpt lat="43.45612258650362491607666015625" lon="1.435029767453670501708984375">
        <ele>177.1999969482421875</ele>
        <time>2026-08-05T06:19:58.000Z</time>
        <extensions>
          <ns3:TrackPointExtension>
            <ns3:hr>68</ns3:hr>
            <ns3:cad>0</ns3:cad>
          </ns3:TrackPointExtension>
        </extensions>
      </trkpt>
      <trkpt lat="43.45612258650362491607666015625" lon="1.435029767453670501708984375">
        <ele>177.1999969482421875</ele>
        <time>2026-08-05T06:19:59.000Z</time>
        <extensions>
          <ns3:TrackPointExtension>
            <ns3:hr>68</ns3:hr>
            <ns3:cad>0</ns3:cad>
          </ns3:TrackPointExtension>
        </extensions>
      </trkpt>
      <trkpt lat="43.45612258650362491607666015625" lon="1.435029767453670501708984375">
        <ele>177.1999969482421875</ele>
        <time>2026-08-05T06:20:00.000Z</time>
        <extensions>
          <ns3:TrackPointExtension>
            <ns3:hr>68</ns3:hr>
            <ns3:cad>0</ns3:cad>
          </ns3:TrackPointExtension>
        </extensions>
      </trkpt>
      <trkpt lat="43.45612258650362491607666015625" lon="1.435029767453670501708984375">
        <ele>177.1999969482421875</ele>
        <time>2026-08-05T06:20:01.000Z</time>
        <extensions>
          <ns3:TrackPointExtension>
            <ns3:hr>68</ns3:hr>
            <ns3:cad>0</ns3:cad>
          </ns3:TrackPointExtension>
        </extensions>
      </trkpt>
      <trkpt lat="43.45612258650362491607666015625" lon="1.435029767453670501708984375">
        <ele>177.1999969482421875</ele>
        <time>2026-08-05T06:20:02.000Z</time>
        <extensions>
          <ns3:TrackPointExtension>
            <ns3:hr>68</ns3:hr>
            <ns3:cad>0</ns3:cad>
          </ns3:TrackPointExtension>
        </extensions>
      </trkpt>
      <trkpt lat="43.45612258650362491607666015625" lon="1.435029767453670501708984375">
        <ele>177.1999969482421875</ele>
        <time>2026-08-05T06:20:03.000Z</time>
        <extensions>
          <ns3:TrackPointExtension>
            <ns3:hr>69</ns3:hr>
            <ns3:cad>0</ns3:cad>
          </ns3:TrackPointExtension>
        </extensions>
      </trkpt>
      <trkpt lat="43.45612258650362491607666015625" lon="1.435029767453670501708984375">
        <ele>177.1999969482421875</ele>
        <time>2026-08-05T06:20:04.000Z</time>
        <extensions>
          <ns3:TrackPointExtension>
            <ns3:hr>69</ns3:hr>
            <ns3:cad>0</ns3:cad>
          </ns3:TrackPointExtension>
        </extensions>
      </trkpt>
      <trkpt lat="43.45612258650362491607666015625" lon="1.435029767453670501708984375">
        <ele>177.1999969482421875</ele>
        <time>2026-08-05T06:20:05.000Z</time>
        <extensions>
          <ns3:TrackPointExtension>
            <ns3:hr>69</ns3:hr>
            <ns3:cad>0</ns3:cad>
          </ns3:TrackPointExtension>
        </extensions>
      </trkpt>
      <trkpt lat="43.45612174831330776214599609375" lon="1.43502985127270221710205078125">
        <ele>177.1999969482421875</ele>
        <time>2026-08-05T06:20:06.000Z</time>
        <extensions>
          <ns3:TrackPointExtension>
            <ns3:hr>68</ns3:hr>
            <ns3:cad>0</ns3:cad>
          </ns3:TrackPointExtension>
        </extensions>
      </trkpt>
      <trkpt lat="43.45611579716205596923828125" lon="1.435021720826625823974609375">
        <ele>177.1999969482421875</ele>
        <time>2026-08-05T06:20:07.000Z</time>
        <extensions>
          <ns3:TrackPointExtension>
            <ns3:hr>68</ns3:hr>
            <ns3:cad>0</ns3:cad>
          </ns3:TrackPointExtension>
        </extensions>
      </trkpt>
      <trkpt lat="43.4561062417924404144287109375" lon="1.435014344751834869384765625">
        <ele>177</ele>
        <time>2026-08-05T06:20:08.000Z</time>
        <extensions>
          <ns3:TrackPointExtension>
            <ns3:hr>68</ns3:hr>
            <ns3:cad>0</ns3:cad>
          </ns3:TrackPointExtension>
        </extensions>
      </trkpt>
      <trkpt lat="43.45609970390796661376953125" lon="1.43500738777220249176025390625">
        <ele>177</ele>
        <time>2026-08-05T06:20:09.000Z</time>
        <extensions>
          <ns3:TrackPointExtension>
            <ns3:hr>69</ns3:hr>
            <ns3:cad>0</ns3:cad>
          </ns3:TrackPointExtension>
        </extensions>
      </trkpt>
      <trkpt lat="43.45609995536506175994873046875" lon="1.435002274811267852783203125">
        <ele>177</ele>
        <time>2026-08-05T06:20:10.000Z</time>
        <extensions>
          <ns3:TrackPointExtension>
            <ns3:hr>70</ns3:hr>
            <ns3:cad>0</ns3:cad>
          </ns3:TrackPointExtension>
        </extensions>
      </trkpt>
      <trkpt lat="43.45609995536506175994873046875" lon="1.435002274811267852783203125">
        <ele>177</ele>
        <time>2026-08-05T06:20:11.000Z</time>
        <extensions>
          <ns3:TrackPointExtension>
            <ns3:hr>71</ns3:hr>
            <ns3:cad>0</ns3:cad>
          </ns3:TrackPointExtension>
        </extensions>
      </trkpt>
      <trkpt lat="43.456100039184093475341796875" lon="1.43500219099223613739013671875">
        <ele>177</ele>
        <time>2026-08-05T06:20:12.000Z</time>
        <extensions>
          <ns3:TrackPointExtension>
            <ns3:hr>71</ns3:hr>
            <ns3:cad>0</ns3:cad>
          </ns3:TrackPointExtension>
        </extensions>
      </trkpt>
      <trkpt lat="43.45610179938375949859619140625" lon="1.43500185571610927581787109375">
        <ele>177</ele>
        <time>2026-08-05T06:20:13.000Z</time>
        <extensions>
          <ns3:TrackPointExtension>
            <ns3:hr>72</ns3:hr>
            <ns3:cad>0</ns3:cad>
          </ns3:TrackPointExtension>
        </extensions>
      </trkpt>
      <trkpt lat="43.45610498450696468353271484375" lon="1.4350034482777118682861328125">
        <ele>177</ele>
        <time>2026-08-05T06:20:14.000Z</time>
        <extensions>
          <ns3:TrackPointExtension>
            <ns3:hr>72</ns3:hr>
            <ns3:cad>0</ns3:cad>
          </ns3:TrackPointExtension>
        </extensions>
      </trkpt>
      <trkpt lat="43.45610917545855045318603515625" lon="1.4350141771137714385986328125">
        <ele>177</ele>
        <time>2026-08-05T06:20:15.000Z</time>
        <extensions>
          <ns3:TrackPointExtension>
            <ns3:hr>72</ns3:hr>
            <ns3:cad>0</ns3:cad>
          </ns3:TrackPointExtension>
        </extensions>
      </trkpt>
      <trkpt lat="43.45611453987658023834228515625" lon="1.4350235648453235626220703125">
        <ele>177</ele>
        <time>2026-08-05T06:20:16.000Z</time>
        <extensions>
          <ns3:TrackPointExtension>
            <ns3:hr>72</ns3:hr>
            <ns3:cad>0</ns3:cad>
          </ns3:TrackPointExtension>
        </extensions>
      </trkpt>
      <trkpt lat="43.45612308941781520843505859375" lon="1.4350354671478271484375">
        <ele>177</ele>
        <time>2026-08-05T06:20:17.000Z</time>
        <extensions>
          <ns3:TrackPointExtension>
            <ns3:hr>72</ns3:hr>
            <ns3:cad>0</ns3:cad>
          </ns3:TrackPointExtension>
        </extensions>
      </trkpt>
      <trkpt lat="43.45613189041614532470703125" lon="1.43504393287003040313720703125">
        <ele>177.1999969482421875</ele>
        <time>2026-08-05T06:20:18.000Z</time>
        <extensions>
          <ns3:TrackPointExtension>
            <ns3:hr>72</ns3:hr>
            <ns3:cad>0</ns3:cad>
          </ns3:TrackPointExtension>
        </extensions>
      </trkpt>
      <trkpt lat="43.45613432116806507110595703125" lon="1.4350513927638530731201171875">
        <ele>177.1999969482421875</ele>
        <time>2026-08-05T06:20:19.000Z</time>
        <extensions>
          <ns3:TrackPointExtension>
            <ns3:hr>72</ns3:hr>
            <ns3:cad>0</ns3:cad>
          </ns3:TrackPointExtension>
        </extensions>
      </trkpt>
      <trkpt lat="43.45613985322415828704833984375" lon="1.43506254069507122039794921875">
        <ele>177.399993896484375</ele>
        <time>2026-08-05T06:20:20.000Z</time>
        <extensions>
          <ns3:TrackPointExtension>
            <ns3:hr>72</ns3:hr>
            <ns3:cad>0</ns3:cad>
          </ns3:TrackPointExtension>
        </extensions>
      </trkpt>
      <trkpt lat="43.4561464749276638031005859375" lon="1.43507125787436962127685546875">
        <ele>177.399993896484375</ele>
        <time>2026-08-05T06:20:21.000Z</time>
        <extensions>
          <ns3:TrackPointExtension>
            <ns3:hr>72</ns3:hr>
            <ns3:cad>0</ns3:cad>
          </ns3:TrackPointExtension>
        </extensions>
      </trkpt>
      <trkpt lat="43.45615527592599391937255859375" lon="1.43508248962461948394775390625">
        <ele>177.399993896484375</ele>
        <time>2026-08-05T06:20:22.000Z</time>
        <extensions>
          <ns3:TrackPointExtension>
            <ns3:hr>72</ns3:hr>
            <ns3:cad>0</ns3:cad>
          </ns3:TrackPointExtension>
        </extensions>
      </trkpt>
      <trkpt lat="43.45616139471530914306640625" lon="1.4350959844887256622314453125">
        <ele>177.600006103515625</ele>
        <time>2026-08-05T06:20:23.000Z</time>
        <extensions>
          <ns3:TrackPointExtension>
            <ns3:hr>72</ns3:hr>
            <ns3:cad>0</ns3:cad>
          </ns3:TrackPointExtension>
        </extensions>
      </trkpt>
      <trkpt lat="43.45616600476205348968505859375" lon="1.43511115573346614837646484375">
        <ele>177.600006103515625</ele>
        <time>2026-08-05T06:20:24.000Z</time>
        <extensions>
          <ns3:TrackPointExtension>
            <ns3:hr>72</ns3:hr>
            <ns3:cad>0</ns3:cad>
          </ns3:TrackPointExtension>
        </extensions>
      </trkpt>
      <trkpt lat="43.4561706148087978363037109375" lon="1.43512599170207977294921875">
        <ele>177.600006103515625</ele>
        <time>2026-08-05T06:20:25.000Z</time>
        <extensions>
          <ns3:TrackPointExtension>
            <ns3:hr>72</ns3:hr>
            <ns3:cad>0</ns3:cad>
          </ns3:TrackPointExtension>
        </extensions>
      </trkpt>
      <trkpt lat="43.45617539249360561370849609375" lon="1.43513948656618595123291015625">
        <ele>177.8000030517578125</ele>
        <time>2026-08-05T06:20:26.000Z</time>
        <extensions>
          <ns3:TrackPointExtension>
            <ns3:hr>72</ns3:hr>
            <ns3:cad>48</ns3:cad>
          </ns3:TrackPointExtension>
        </extensions>
      </trkpt>
      <trkpt lat="43.4561820141971111297607421875" lon="1.4351523108780384063720703125">
        <ele>178</ele>
        <time>2026-08-05T06:20:27.000Z</time>
        <extensions>
          <ns3:TrackPointExtension>
            <ns3:hr>72</ns3:hr>
            <ns3:cad>47</ns3:cad>
          </ns3:TrackPointExtension>
        </extensions>
      </trkpt>
      <trkpt lat="43.45618595369160175323486328125" lon="1.4351680688560009002685546875">
        <ele>178</ele>
        <time>2026-08-05T06:20:28.000Z</time>
        <extensions>
          <ns3:TrackPointExtension>
            <ns3:hr>73</ns3:hr>
            <ns3:cad>47</ns3:cad>
          </ns3:TrackPointExtension>
        </extensions>
      </trkpt>
      <trkpt lat="43.45619047991931438446044921875" lon="1.4351844973862171173095703125">
        <ele>178</ele>
        <time>2026-08-05T06:20:29.000Z</time>
        <extensions>
          <ns3:TrackPointExtension>
            <ns3:hr>74</ns3:hr>
            <ns3:cad>47</ns3:cad>
          </ns3:TrackPointExtension>
        </extensions>
      </trkpt>
      <trkpt lat="43.45619232393801212310791015625" lon="1.43519447185099124908447265625">
        <ele>178.1999969482421875</ele>
        <time>2026-08-05T06:20:30.000Z</time>
        <extensions>
          <ns3:TrackPointExtension>
            <ns3:hr>74</ns3:hr>
            <ns3:cad>47</ns3:cad>
          </ns3:TrackPointExtension>
        </extensions>
      </trkpt>
      <trkpt lat="43.4561942517757415771484375" lon="1.435207463800907135009765625">
        <ele>178.1999969482421875</ele>
        <time>2026-08-05T06:20:31.000Z</time>
        <extensions>
          <ns3:TrackPointExtension>
            <ns3:hr>75</ns3:hr>
            <ns3:cad>46</ns3:cad>
          </ns3:TrackPointExtension>
        </extensions>
      </trkpt>
      <trkpt lat="43.4561957605183124542236328125" lon="1.43521509133279323577880859375">
        <ele>178.1999969482421875</ele>
        <time>2026-08-05T06:20:32.000Z</time>
        <extensions>
          <ns3:TrackPointExtension>
            <ns3:hr>76</ns3:hr>
            <ns3:cad>46</ns3:cad>
          </ns3:TrackPointExtension>
        </extensions>
      </trkpt>
      <trkpt lat="43.45620456151664257049560546875" lon="1.435232274234294891357421875">
        <ele>178.1999969482421875</ele>
        <time>2026-08-05T06:20:33.000Z</time>
        <extensions>
          <ns3:TrackPointExtension>
            <ns3:hr>77</ns3:hr>
            <ns3:cad>46</ns3:cad>
          </ns3:TrackPointExtension>
        </extensions>
      </trkpt>
      <trkpt lat="43.45621101558208465576171875" lon="1.4352441765367984771728515625">
        <ele>178.399993896484375</ele>
        <time>2026-08-05T06:20:34.000Z</time>
        <extensions>
          <ns3:TrackPointExtension>
            <ns3:hr>78</ns3:hr>
            <ns3:cad>45</ns3:cad>
          </ns3:TrackPointExtension>
        </extensions>
      </trkpt>
      <trkpt lat="43.45621596090495586395263671875" lon="1.43525607883930206298828125">
        <ele>178.399993896484375</ele>
        <time>2026-08-05T06:20:35.000Z</time>
        <extensions>
          <ns3:TrackPointExtension>
            <ns3:hr>78</ns3:hr>
            <ns3:cad>45</ns3:cad>
          </ns3:TrackPointExtension>
        </extensions>
      </trkpt>
      <trkpt lat="43.456217385828495025634765625" lon="1.4352686516940593719482421875">
        <ele>178.399993896484375</ele>
        <time>2026-08-05T06:20:36.000Z</time>
        <extensions>
          <ns3:TrackPointExtension>
            <ns3:hr>78</ns3:hr>
            <ns3:cad>45</ns3:cad>
          </ns3:TrackPointExtension>
        </extensions>
      </trkpt>
      <trkpt lat="43.45621914602816104888916015625" lon="1.4352820627391338348388671875">
        <ele>178.600006103515625</ele>
        <time>2026-08-05T06:20:37.000Z</time>
        <extensions>
          <ns3:TrackPointExtension>
            <ns3:hr>78</ns3:hr>
            <ns3:cad>44</ns3:cad>
          </ns3:TrackPointExtension>
        </extensions>
      </trkpt>
      <trkpt lat="43.456224091351032257080078125" lon="1.43529874272644519805908203125">
        <ele>178.600006103515625</ele>
        <time>2026-08-05T06:20:38.000Z</time>
        <extensions>
          <ns3:TrackPointExtension>
            <ns3:hr>78</ns3:hr>
            <ns3:cad>44</ns3:cad>
          </ns3:TrackPointExtension>
        </extensions>
      </trkpt>
      <trkpt lat="43.45622576773166656494140625" lon="1.43531131558120250701904296875">
        <ele>178.8000030517578125</ele>
        <time>2026-08-05T06:20:39.000Z</time>
        <extensions>
          <ns3:TrackPointExtension>
            <ns3:hr>78</ns3:hr>
            <ns3:cad>45</ns3:cad>
          </ns3:TrackPointExtension>
        </extensions>
      </trkpt>
      <trkpt lat="43.45623054541647434234619140625" lon="1.435324139893054962158203125">
        <ele>178.8000030517578125</ele>
        <time>2026-08-05T06:20:40.000Z</time>
        <extensions>
          <ns3:TrackPointExtension>
            <ns3:hr>78</ns3:hr>
            <ns3:cad>46</ns3:cad>
          </ns3:TrackPointExtension>
        </extensions>
      </trkpt>
      <trkpt lat="43.4562309645116329193115234375" lon="1.4353400655090808868408203125">
        <ele>179</ele>
        <time>2026-08-05T06:20:41.000Z</time>
        <extensions>
          <ns3:TrackPointExtension>
            <ns3:hr>78</ns3:hr>
            <ns3:cad>46</ns3:cad>
          </ns3:TrackPointExtension>
        </extensions>
      </trkpt>
      <trkpt lat="43.45623289234936237335205078125" lon="1.43535196781158447265625">
        <ele>179</ele>
        <time>2026-08-05T06:20:42.000Z</time>
        <extensions>
          <ns3:TrackPointExtension>
            <ns3:hr>79</ns3:hr>
            <ns3:cad>46</ns3:cad>
          </ns3:TrackPointExtension>
        </extensions>
      </trkpt>
      <trkpt lat="43.45623138360679149627685546875" lon="1.43536445684731006622314453125">
        <ele>179</ele>
        <time>2026-08-05T06:20:43.000Z</time>
        <extensions>
          <ns3:TrackPointExtension>
            <ns3:hr>79</ns3:hr>
            <ns3:cad>46</ns3:cad>
          </ns3:TrackPointExtension>
        </extensions>
      </trkpt>
      <trkpt lat="43.45623238943517208099365234375" lon="1.435371078550815582275390625">
        <ele>179.1999969482421875</ele>
        <time>2026-08-05T06:20:44.000Z</time>
        <extensions>
          <ns3:TrackPointExtension>
            <ns3:hr>79</ns3:hr>
            <ns3:cad>46</ns3:cad>
          </ns3:TrackPointExtension>
        </extensions>
      </trkpt>
      <trkpt lat="43.45623238943517208099365234375" lon="1.4353886805474758148193359375">
        <ele>179.1999969482421875</ele>
        <time>2026-08-05T06:20:45.000Z</time>
        <extensions>
          <ns3:TrackPointExtension>
            <ns3:hr>79</ns3:hr>
            <ns3:cad>46</ns3:cad>
          </ns3:TrackPointExtension>
        </extensions>
      </trkpt>
      <trkpt lat="43.4562359936535358428955078125" lon="1.4354024268686771392822265625">
        <ele>179.399993896484375</ele>
        <time>2026-08-05T06:20:46.000Z</time>
        <extensions>
          <ns3:TrackPointExtension>
            <ns3:hr>80</ns3:hr>
            <ns3:cad>45</ns3:cad>
          </ns3:TrackPointExtension>
        </extensions>
      </trkpt>
      <trkpt lat="43.45623875968158245086669921875" lon="1.43541634082794189453125">
        <ele>179.399993896484375</ele>
        <time>2026-08-05T06:20:47.000Z</time>
        <extensions>
          <ns3:TrackPointExtension>
            <ns3:hr>80</ns3:hr>
            <ns3:cad>45</ns3:cad>
          </ns3:TrackPointExtension>
        </extensions>
      </trkpt>
      <trkpt lat="43.4562386758625507354736328125" lon="1.4354289136826992034912109375">
        <ele>179.399993896484375</ele>
        <time>2026-08-05T06:20:48.000Z</time>
        <extensions>
          <ns3:TrackPointExtension>
            <ns3:hr>81</ns3:hr>
            <ns3:cad>44</ns3:cad>
          </ns3:TrackPointExtension>
        </extensions>
      </trkpt>
      <trkpt lat="43.45624211244285106658935546875" lon="1.43544576130807399749755859375">
        <ele>179.600006103515625</ele>
        <time>2026-08-05T06:20:49.000Z</time>
        <extensions>
          <ns3:TrackPointExtension>
            <ns3:hr>81</ns3:hr>
            <ns3:cad>44</ns3:cad>
          </ns3:TrackPointExtension>
        </extensions>
      </trkpt>
      <trkpt lat="43.4562457166612148284912109375" lon="1.43546017818152904510498046875">
        <ele>179.600006103515625</ele>
        <time>2026-08-05T06:20:50.000Z</time>
        <extensions>
          <ns3:TrackPointExtension>
            <ns3:hr>82</ns3:hr>
            <ns3:cad>44</ns3:cad>
          </ns3:TrackPointExtension>
        </extensions>
      </trkpt>
      <trkpt lat="43.45624764449894428253173828125" lon="1.43547157756984233856201171875">
        <ele>179.8000030517578125</ele>
        <time>2026-08-05T06:20:51.000Z</time>
        <extensions>
          <ns3:TrackPointExtension>
            <ns3:hr>82</ns3:hr>
            <ns3:cad>44</ns3:cad>
          </ns3:TrackPointExtension>
        </extensions>
      </trkpt>
      <trkpt lat="43.45624948851764202117919921875" lon="1.43548381514847278594970703125">
        <ele>179.8000030517578125</ele>
        <time>2026-08-05T06:20:52.000Z</time>
        <extensions>
          <ns3:TrackPointExtension>
            <ns3:hr>83</ns3:hr>
            <ns3:cad>45</ns3:cad>
          </ns3:TrackPointExtension>
        </extensions>
      </trkpt>
      <trkpt lat="43.456252254545688629150390625" lon="1.4355033449828624725341796875">
        <ele>179.8000030517578125</ele>
        <time>2026-08-05T06:20:53.000Z</time>
        <extensions>
          <ns3:TrackPointExtension>
            <ns3:hr>83</ns3:hr>
            <ns3:cad>45</ns3:cad>
          </ns3:TrackPointExtension>
        </extensions>
      </trkpt>
      <trkpt lat="43.45625351183116436004638671875" lon="1.43551985733211040496826171875">
        <ele>179.8000030517578125</ele>
        <time>2026-08-05T06:20:54.000Z</time>
        <extensions>
          <ns3:TrackPointExtension>
            <ns3:hr>84</ns3:hr>
            <ns3:cad>46</ns3:cad>
          </ns3:TrackPointExtension>
        </extensions>
      </trkpt>
      <trkpt lat="43.45625435002148151397705078125" lon="1.43552941270172595977783203125">
        <ele>180</ele>
        <time>2026-08-05T06:20:55.000Z</time>
        <extensions>
          <ns3:TrackPointExtension>
            <ns3:hr>84</ns3:hr>
            <ns3:cad>46</ns3:cad>
          </ns3:TrackPointExtension>
        </extensions>
      </trkpt>
      <trkpt lat="43.45625435002148151397705078125" lon="1.43554441630840301513671875">
        <ele>180</ele>
        <time>2026-08-05T06:20:56.000Z</time>
        <extensions>
          <ns3:TrackPointExtension>
            <ns3:hr>85</ns3:hr>
            <ns3:cad>46</ns3:cad>
          </ns3:TrackPointExtension>
        </extensions>
      </trkpt>
      <trkpt lat="43.456254936754703521728515625" lon="1.43556277267634868621826171875">
        <ele>180</ele>
        <time>2026-08-05T06:20:57.000Z</time>
        <extensions>
          <ns3:TrackPointExtension>
            <ns3:hr>86</ns3:hr>
            <ns3:cad>44</ns3:cad>
          </ns3:TrackPointExtension>
        </extensions>
      </trkpt>
      <trkpt lat="43.45625384710729122161865234375" lon="1.4355759322643280029296875">
        <ele>180</ele>
        <time>2026-08-05T06:20:58.000Z</time>
        <extensions>
          <ns3:TrackPointExtension>
            <ns3:hr>87</ns3:hr>
            <ns3:cad>44</ns3:cad>
          </ns3:TrackPointExtension>
        </extensions>
      </trkpt>
      <trkpt lat="43.45625401474535465240478515625" lon="1.4355878345668315887451171875">
        <ele>180</ele>
        <time>2026-08-05T06:20:59.000Z</time>
        <extensions>
          <ns3:TrackPointExtension>
            <ns3:hr>87</ns3:hr>
            <ns3:cad>44</ns3:cad>
          </ns3:TrackPointExtension>
        </extensions>
      </trkpt>
      <trkpt lat="43.45625619404017925262451171875" lon="1.43560116179287433624267578125">
        <ele>180</ele>
        <time>2026-08-05T06:21:00.000Z</time>
        <extensions>
          <ns3:TrackPointExtension>
            <ns3:hr>87</ns3:hr>
            <ns3:cad>44</ns3:cad>
          </ns3:TrackPointExtension>
        </extensions>
      </trkpt>
      <trkpt lat="43.45625418238341808319091796875" lon="1.4356186799705028533935546875">
        <ele>180.1999969482421875</ele>
        <time>2026-08-05T06:21:01.000Z</time>
        <extensions>
          <ns3:TrackPointExtension>
            <ns3:hr>87</ns3:hr>
            <ns3:cad>44</ns3:cad>
          </ns3:TrackPointExtension>
        </extensions>
      </trkpt>
      <trkpt lat="43.45625468529760837554931640625" lon="1.43563183955848217010498046875">
        <ele>180.1999969482421875</ele>
        <time>2026-08-05T06:21:02.000Z</time>
        <extensions>
          <ns3:TrackPointExtension>
            <ns3:hr>87</ns3:hr>
            <ns3:cad>44</ns3:cad>
          </ns3:TrackPointExtension>
        </extensions>
      </trkpt>
      <trkpt lat="43.456252925097942352294921875" lon="1.43564407713711261749267578125">
        <ele>180.1999969482421875</ele>
        <time>2026-08-05T06:21:03.000Z</time>
        <extensions>
          <ns3:TrackPointExtension>
            <ns3:hr>87</ns3:hr>
            <ns3:cad>44</ns3:cad>
          </ns3:TrackPointExtension>
        </extensions>
      </trkpt>
      <trkpt lat="43.45625200308859348297119140625" lon="1.43565732054412364959716796875">
        <ele>180.1999969482421875</ele>
        <time>2026-08-05T06:21:04.000Z</time>
        <extensions>
          <ns3:TrackPointExtension>
            <ns3:hr>87</ns3:hr>
            <ns3:cad>45</ns3:cad>
          </ns3:TrackPointExtension>
        </extensions>
      </trkpt>
      <trkpt lat="43.45625258982181549072265625" lon="1.4356760121881961822509765625">
        <ele>180.1999969482421875</ele>
        <time>2026-08-05T06:21:05.000Z</time>
        <extensions>
          <ns3:TrackPointExtension>
            <ns3:hr>87</ns3:hr>
            <ns3:cad>45</ns3:cad>
          </ns3:TrackPointExtension>
        </extensions>
      </trkpt>
      <trkpt lat="43.45625133253633975982666015625" lon="1.4356899261474609375">
        <ele>180.1999969482421875</ele>
        <time>2026-08-05T06:21:06.000Z</time>
        <extensions>
          <ns3:TrackPointExtension>
            <ns3:hr>87</ns3:hr>
            <ns3:cad>46</ns3:cad>
          </ns3:TrackPointExtension>
        </extensions>
      </trkpt>
      <trkpt lat="43.45624948851764202117919921875" lon="1.43570627085864543914794921875">
        <ele>180.1999969482421875</ele>
        <time>2026-08-05T06:21:07.000Z</time>
        <extensions>
          <ns3:TrackPointExtension>
            <ns3:hr>87</ns3:hr>
            <ns3:cad>46</ns3:cad>
          </ns3:TrackPointExtension>
        </extensions>
      </trkpt>
      <trkpt lat="43.45624999143183231353759765625" lon="1.43571875989437103271484375">
        <ele>180.1999969482421875</ele>
        <time>2026-08-05T06:21:08.000Z</time>
        <extensions>
          <ns3:TrackPointExtension>
            <ns3:hr>87</ns3:hr>
            <ns3:cad>45</ns3:cad>
          </ns3:TrackPointExtension>
        </extensions>
      </trkpt>
      <trkpt lat="43.456248901784420013427734375" lon="1.43573041073977947235107421875">
        <ele>180.1999969482421875</ele>
        <time>2026-08-05T06:21:09.000Z</time>
        <extensions>
          <ns3:TrackPointExtension>
            <ns3:hr>87</ns3:hr>
            <ns3:cad>45</ns3:cad>
          </ns3:TrackPointExtension>
        </extensions>
      </trkpt>
      <trkpt lat="43.45624814741313457489013671875" lon="1.43574767746031284332275390625">
        <ele>180.1999969482421875</ele>
        <time>2026-08-05T06:21:10.000Z</time>
        <extensions>
          <ns3:TrackPointExtension>
            <ns3:hr>87</ns3:hr>
            <ns3:cad>47</ns3:cad>
          </ns3:TrackPointExtension>
        </extensions>
      </trkpt>
      <trkpt lat="43.45624630339443683624267578125" lon="1.4357668720185756683349609375">
        <ele>180.1999969482421875</ele>
        <time>2026-08-05T06:21:11.000Z</time>
        <extensions>
          <ns3:TrackPointExtension>
            <ns3:hr>86</ns3:hr>
            <ns3:cad>49</ns3:cad>
          </ns3:TrackPointExtension>
        </extensions>
      </trkpt>
      <trkpt lat="43.4562420286238193511962890625" lon="1.4357796125113964080810546875">
        <ele>180.1999969482421875</ele>
        <time>2026-08-05T06:21:12.000Z</time>
        <extensions>
          <ns3:TrackPointExtension>
            <ns3:hr>86</ns3:hr>
            <ns3:cad>49</ns3:cad>
          </ns3:TrackPointExtension>
        </extensions>
      </trkpt>
      <trkpt lat="43.45624093897640705108642578125" lon="1.43579327501356601715087890625">
        <ele>180.1999969482421875</ele>
        <time>2026-08-05T06:21:13.000Z</time>
        <extensions>
          <ns3:TrackPointExtension>
            <ns3:hr>86</ns3:hr>
            <ns3:cad>49</ns3:cad>
          </ns3:TrackPointExtension>
        </extensions>
      </trkpt>
      <trkpt lat="43.4562398493289947509765625" lon="1.43581355921924114227294921875">
        <ele>180.1999969482421875</ele>
        <time>2026-08-05T06:21:14.000Z</time>
        <extensions>
          <ns3:TrackPointExtension>
            <ns3:hr>85</ns3:hr>
            <ns3:cad>48</ns3:cad>
          </ns3:TrackPointExtension>
        </extensions>
      </trkpt>
      <trkpt lat="43.4562400169670581817626953125" lon="1.435832418501377105712890625">
        <ele>180.1999969482421875</ele>
        <time>2026-08-05T06:21:15.000Z</time>
        <extensions>
          <ns3:TrackPointExtension>
            <ns3:hr>85</ns3:hr>
            <ns3:cad>48</ns3:cad>
          </ns3:TrackPointExtension>
        </extensions>
      </trkpt>
      <trkpt lat="43.4562416933476924896240234375" lon="1.4358476735651493072509765625">
        <ele>180.1999969482421875</ele>
        <time>2026-08-05T06:21:16.000Z</time>
        <extensions>
          <ns3:TrackPointExtension>
            <ns3:hr>85</ns3:hr>
            <ns3:cad>47</ns3:cad>
          </ns3:TrackPointExtension>
        </extensions>
      </trkpt>
      <trkpt lat="43.45624345354735851287841796875" lon="1.43586083315312862396240234375">
        <ele>180.1999969482421875</ele>
        <time>2026-08-05T06:21:17.000Z</time>
        <extensions>
          <ns3:TrackPointExtension>
            <ns3:hr>85</ns3:hr>
            <ns3:cad>47</ns3:cad>
          </ns3:TrackPointExtension>
        </extensions>
      </trkpt>
      <trkpt lat="43.45624144189059734344482421875" lon="1.43587843514978885650634765625">
        <ele>180.1999969482421875</ele>
        <time>2026-08-05T06:21:18.000Z</time>
        <extensions>
          <ns3:TrackPointExtension>
            <ns3:hr>85</ns3:hr>
            <ns3:cad>46</ns3:cad>
          </ns3:TrackPointExtension>
        </extensions>
      </trkpt>
      <trkpt lat="43.4562416933476924896240234375" lon="1.4358952827751636505126953125">
        <ele>180.1999969482421875</ele>
        <time>2026-08-05T06:21:19.000Z</time>
        <extensions>
          <ns3:TrackPointExtension>
            <ns3:hr>85</ns3:hr>
            <ns3:cad>46</ns3:cad>
          </ns3:TrackPointExtension>
        </extensions>
      </trkpt>
      <trkpt lat="43.456242196261882781982421875" lon="1.43590743653476238250732421875">
        <ele>180.399993896484375</ele>
        <time>2026-08-05T06:21:20.000Z</time>
        <extensions>
          <ns3:TrackPointExtension>
            <ns3:hr>85</ns3:hr>
            <ns3:cad>46</ns3:cad>
          </ns3:TrackPointExtension>
        </extensions>
      </trkpt>
      <trkpt lat="43.456241525709629058837890625" lon="1.4359184168279170989990234375">
        <ele>180.399993896484375</ele>
        <time>2026-08-05T06:21:21.000Z</time>
        <extensions>
          <ns3:TrackPointExtension>
            <ns3:hr>85</ns3:hr>
            <ns3:cad>46</ns3:cad>
          </ns3:TrackPointExtension>
        </extensions>
      </trkpt>
      <trkpt lat="43.456242866814136505126953125" lon="1.4359328337013721466064453125">
        <ele>180.399993896484375</ele>
        <time>2026-08-05T06:21:22.000Z</time>
        <extensions>
          <ns3:TrackPointExtension>
            <ns3:hr>85</ns3:hr>
            <ns3:cad>46</ns3:cad>
          </ns3:TrackPointExtension>
        </extensions>
      </trkpt>
      <trkpt lat="43.456244207918643951416015625" lon="1.43595211207866668701171875">
        <ele>180.399993896484375</ele>
        <time>2026-08-05T06:21:23.000Z</time>
        <extensions>
          <ns3:TrackPointExtension>
            <ns3:hr>85</ns3:hr>
            <ns3:cad>46</ns3:cad>
          </ns3:TrackPointExtension>
        </extensions>
      </trkpt>
      <trkpt lat="43.4562450461089611053466796875" lon="1.43596460111439228057861328125">
        <ele>180.399993896484375</ele>
        <time>2026-08-05T06:21:24.000Z</time>
        <extensions>
          <ns3:TrackPointExtension>
            <ns3:hr>84</ns3:hr>
            <ns3:cad>46</ns3:cad>
          </ns3:TrackPointExtension>
        </extensions>
      </trkpt>
      <trkpt lat="43.45624647103250026702880859375" lon="1.43597633577883243560791015625">
        <ele>180.399993896484375</ele>
        <time>2026-08-05T06:21:25.000Z</time>
        <extensions>
          <ns3:TrackPointExtension>
            <ns3:hr>82</ns3:hr>
            <ns3:cad>45</ns3:cad>
          </ns3:TrackPointExtension>
        </extensions>
      </trkpt>
      <trkpt lat="43.45624747686088085174560546875" lon="1.43599234521389007568359375">
        <ele>180.600006103515625</ele>
        <time>2026-08-05T06:21:26.000Z</time>
        <extensions>
          <ns3:TrackPointExtension>
            <ns3:hr>82</ns3:hr>
            <ns3:cad>44</ns3:cad>
          </ns3:TrackPointExtension>
        </extensions>
      </trkpt>
      <trkpt lat="43.45624747686088085174560546875" lon="1.4360077679157257080078125">
        <ele>180.600006103515625</ele>
        <time>2026-08-05T06:21:27.000Z</time>
        <extensions>
          <ns3:TrackPointExtension>
            <ns3:hr>82</ns3:hr>
            <ns3:cad>44</ns3:cad>
          </ns3:TrackPointExtension>
        </extensions>
      </trkpt>
      <trkpt lat="43.4562478959560394287109375" lon="1.43601573072373867034912109375">
        <ele>180.600006103515625</ele>
        <time>2026-08-05T06:21:28.000Z</time>
        <extensions>
          <ns3:TrackPointExtension>
            <ns3:hr>81</ns3:hr>
            <ns3:cad>44</ns3:cad>
          </ns3:TrackPointExtension>
        </extensions>
      </trkpt>
      <trkpt lat="43.45624856650829315185546875" lon="1.43602780066430568695068359375">
        <ele>180.600006103515625</ele>
        <time>2026-08-05T06:21:29.000Z</time>
        <extensions>
          <ns3:TrackPointExtension>
            <ns3:hr>81</ns3:hr>
            <ns3:cad>44</ns3:cad>
          </ns3:TrackPointExtension>
        </extensions>
      </trkpt>
      <trkpt lat="43.456246219575405120849609375" lon="1.43604330718517303466796875">
        <ele>180.8000030517578125</ele>
        <time>2026-08-05T06:21:30.000Z</time>
        <extensions>
          <ns3:TrackPointExtension>
            <ns3:hr>80</ns3:hr>
            <ns3:cad>44</ns3:cad>
          </ns3:TrackPointExtension>
        </extensions>
      </trkpt>
      <trkpt lat="43.4562473930418491363525390625" lon="1.436056382954120635986328125">
        <ele>180.8000030517578125</ele>
        <time>2026-08-05T06:21:31.000Z</time>
        <extensions>
          <ns3:TrackPointExtension>
            <ns3:hr>79</ns3:hr>
            <ns3:cad>44</ns3:cad>
          </ns3:TrackPointExtension>
        </extensions>
      </trkpt>
      <trkpt lat="43.456246554851531982421875" lon="1.43606937490403652191162109375">
        <ele>180.8000030517578125</ele>
        <time>2026-08-05T06:21:32.000Z</time>
        <extensions>
          <ns3:TrackPointExtension>
            <ns3:hr>79</ns3:hr>
            <ns3:cad>44</ns3:cad>
          </ns3:TrackPointExtension>
        </extensions>
      </trkpt>
      <trkpt lat="43.45624764449894428253173828125" lon="1.4360830374062061309814453125">
        <ele>180.8000030517578125</ele>
        <time>2026-08-05T06:21:33.000Z</time>
        <extensions>
          <ns3:TrackPointExtension>
            <ns3:hr>78</ns3:hr>
            <ns3:cad>43</ns3:cad>
          </ns3:TrackPointExtension>
        </extensions>
      </trkpt>
      <trkpt lat="43.45624722540378570556640625" lon="1.436097286641597747802734375">
        <ele>181</ele>
        <time>2026-08-05T06:21:34.000Z</time>
        <extensions>
          <ns3:TrackPointExtension>
            <ns3:hr>78</ns3:hr>
            <ns3:cad>44</ns3:cad>
          </ns3:TrackPointExtension>
        </extensions>
      </trkpt>
      <trkpt lat="43.45624588429927825927734375" lon="1.43611195497214794158935546875">
        <ele>181</ele>
        <time>2026-08-05T06:21:35.000Z</time>
        <extensions>
          <ns3:TrackPointExtension>
            <ns3:hr>79</ns3:hr>
            <ns3:cad>44</ns3:cad>
          </ns3:TrackPointExtension>
        </extensions>
      </trkpt>
      <trkpt lat="43.45624395646154880523681640625" lon="1.43612821586430072784423828125">
        <ele>181</ele>
        <time>2026-08-05T06:21:36.000Z</time>
        <extensions>
          <ns3:TrackPointExtension>
            <ns3:hr>79</ns3:hr>
            <ns3:cad>45</ns3:cad>
          </ns3:TrackPointExtension>
        </extensions>
      </trkpt>
      <trkpt lat="43.45624387264251708984375" lon="1.43614196218550205230712890625">
        <ele>181</ele>
        <time>2026-08-05T06:21:37.000Z</time>
        <extensions>
          <ns3:TrackPointExtension>
            <ns3:hr>79</ns3:hr>
            <ns3:cad>45</ns3:cad>
          </ns3:TrackPointExtension>
        </extensions>
      </trkpt>
      <trkpt lat="43.45624345354735851287841796875" lon="1.43615487031638622283935546875">
        <ele>181</ele>
        <time>2026-08-05T06:21:38.000Z</time>
        <extensions>
          <ns3:TrackPointExtension>
            <ns3:hr>79</ns3:hr>
            <ns3:cad>44</ns3:cad>
          </ns3:TrackPointExtension>
        </extensions>
      </trkpt>
      <trkpt lat="43.456244878470897674560546875" lon="1.4361740648746490478515625">
        <ele>181</ele>
        <time>2026-08-05T06:21:39.000Z</time>
        <extensions>
          <ns3:TrackPointExtension>
            <ns3:hr>78</ns3:hr>
            <ns3:cad>44</ns3:cad>
          </ns3:TrackPointExtension>
        </extensions>
      </trkpt>
      <trkpt lat="43.45624328590929508209228515625" lon="1.43618806265294551849365234375">
        <ele>181.1999969482421875</ele>
        <time>2026-08-05T06:21:40.000Z</time>
        <extensions>
          <ns3:TrackPointExtension>
            <ns3:hr>79</ns3:hr>
            <ns3:cad>44</ns3:cad>
          </ns3:TrackPointExtension>
        </extensions>
      </trkpt>
      <trkpt lat="43.4562426991760730743408203125" lon="1.436205916106700897216796875">
        <ele>181.1999969482421875</ele>
        <time>2026-08-05T06:21:41.000Z</time>
        <extensions>
          <ns3:TrackPointExtension>
            <ns3:hr>79</ns3:hr>
            <ns3:cad>47</ns3:cad>
          </ns3:TrackPointExtension>
        </extensions>
      </trkpt>
      <trkpt lat="43.45624051988124847412109375" lon="1.43622259609401226043701171875">
        <ele>181.1999969482421875</ele>
        <time>2026-08-05T06:21:42.000Z</time>
        <extensions>
          <ns3:TrackPointExtension>
            <ns3:hr>79</ns3:hr>
            <ns3:cad>47</ns3:cad>
          </ns3:TrackPointExtension>
        </extensions>
      </trkpt>
      <trkpt lat="43.4562393464148044586181640625" lon="1.4362369291484355926513671875">
        <ele>181.1999969482421875</ele>
        <time>2026-08-05T06:21:43.000Z</time>
        <extensions>
          <ns3:TrackPointExtension>
            <ns3:hr>79</ns3:hr>
            <ns3:cad>47</ns3:cad>
          </ns3:TrackPointExtension>
        </extensions>
      </trkpt>
      <trkpt lat="43.4562403522431850433349609375" lon="1.4362489990890026092529296875">
        <ele>181.399993896484375</ele>
        <time>2026-08-05T06:21:44.000Z</time>
        <extensions>
          <ns3:TrackPointExtension>
            <ns3:hr>79</ns3:hr>
            <ns3:cad>47</ns3:cad>
          </ns3:TrackPointExtension>
        </extensions>
      </trkpt>
      <trkpt lat="43.4562398493289947509765625" lon="1.43626031465828418731689453125">
        <ele>181.399993896484375</ele>
        <time>2026-08-05T06:21:45.000Z</time>
        <extensions>
          <ns3:TrackPointExtension>
            <ns3:hr>79</ns3:hr>
            <ns3:cad>47</ns3:cad>
          </ns3:TrackPointExtension>
        </extensions>
      </trkpt>
      <trkpt lat="43.45623875968158245086669921875" lon="1.4362785033881664276123046875">
        <ele>181.399993896484375</ele>
        <time>2026-08-05T06:21:46.000Z</time>
        <extensions>
          <ns3:TrackPointExtension>
            <ns3:hr>79</ns3:hr>
            <ns3:cad>46</ns3:cad>
          </ns3:TrackPointExtension>
        </extensions>
      </trkpt>
      <trkpt lat="43.456236831843852996826171875" lon="1.43629199825227260589599609375">
        <ele>181.399993896484375</ele>
        <time>2026-08-05T06:21:47.000Z</time>
        <extensions>
          <ns3:TrackPointExtension>
            <ns3:hr>79</ns3:hr>
            <ns3:cad>46</ns3:cad>
          </ns3:TrackPointExtension>
        </extensions>
      </trkpt>
      <trkpt lat="43.4562319703400135040283203125" lon="1.436305157840251922607421875">
        <ele>181.399993896484375</ele>
        <time>2026-08-05T06:21:48.000Z</time>
        <extensions>
          <ns3:TrackPointExtension>
            <ns3:hr>78</ns3:hr>
            <ns3:cad>46</ns3:cad>
          </ns3:TrackPointExtension>
        </extensions>
      </trkpt>
      <trkpt lat="43.4562344849109649658203125" lon="1.43631630577147006988525390625">
        <ele>181.399993896484375</ele>
        <time>2026-08-05T06:21:49.000Z</time>
        <extensions>
          <ns3:TrackPointExtension>
            <ns3:hr>79</ns3:hr>
            <ns3:cad>44</ns3:cad>
          </ns3:TrackPointExtension>
        </extensions>
      </trkpt>
      <trkpt lat="43.45623708330094814300537109375" lon="1.4363301359117031097412109375">
        <ele>181.399993896484375</ele>
        <time>2026-08-05T06:21:50.000Z</time>
        <extensions>
          <ns3:TrackPointExtension>
            <ns3:hr>79</ns3:hr>
            <ns3:cad>44</ns3:cad>
          </ns3:TrackPointExtension>
        </extensions>
      </trkpt>
      <trkpt lat="43.45623624511063098907470703125" lon="1.4363435469567775726318359375">
        <ele>181.600006103515625</ele>
        <time>2026-08-05T06:21:51.000Z</time>
        <extensions>
          <ns3:TrackPointExtension>
            <ns3:hr>79</ns3:hr>
            <ns3:cad>44</ns3:cad>
          </ns3:TrackPointExtension>
        </extensions>
      </trkpt>
      <trkpt lat="43.45623775385320186614990234375" lon="1.4363562874495983123779296875">
        <ele>181.600006103515625</ele>
        <time>2026-08-05T06:21:52.000Z</time>
        <extensions>
          <ns3:TrackPointExtension>
            <ns3:hr>79</ns3:hr>
            <ns3:cad>44</ns3:cad>
          </ns3:TrackPointExtension>
        </extensions>
      </trkpt>
      <trkpt lat="43.45623859204351902008056640625" lon="1.43636844120919704437255859375">
        <ele>181.399993896484375</ele>
        <time>2026-08-05T06:21:53.000Z</time>
        <extensions>
          <ns3:TrackPointExtension>
            <ns3:hr>79</ns3:hr>
            <ns3:cad>44</ns3:cad>
          </ns3:TrackPointExtension>
        </extensions>
      </trkpt>
      <trkpt lat="43.45623917877674102783203125" lon="1.4363834448158740997314453125">
        <ele>181.399993896484375</ele>
        <time>2026-08-05T06:21:54.000Z</time>
        <extensions>
          <ns3:TrackPointExtension>
            <ns3:hr>80</ns3:hr>
            <ns3:cad>44</ns3:cad>
          </ns3:TrackPointExtension>
        </extensions>
      </trkpt>
      <trkpt lat="43.4562420286238193511962890625" lon="1.43639241345226764678955078125">
        <ele>181.600006103515625</ele>
        <time>2026-08-05T06:21:55.000Z</time>
        <extensions>
          <ns3:TrackPointExtension>
            <ns3:hr>79</ns3:hr>
            <ns3:cad>45</ns3:cad>
          </ns3:TrackPointExtension>
        </extensions>
      </trkpt>
      <trkpt lat="43.45624387264251708984375" lon="1.43640498630702495574951171875">
        <ele>181.600006103515625</ele>
        <time>2026-08-05T06:21:56.000Z</time>
        <extensions>
          <ns3:TrackPointExtension>
            <ns3:hr>79</ns3:hr>
            <ns3:cad>45</ns3:cad>
          </ns3:TrackPointExtension>
        </extensions>
      </trkpt>
      <trkpt lat="43.45624747686088085174560546875" lon="1.43641571514308452606201171875">
        <ele>181.600006103515625</ele>
        <time>2026-08-05T06:21:57.000Z</time>
        <extensions>
          <ns3:TrackPointExtension>
            <ns3:hr>79</ns3:hr>
            <ns3:cad>45</ns3:cad>
          </ns3:TrackPointExtension>
        </extensions>
      </trkpt>
      <trkpt lat="43.45624982379376888275146484375" lon="1.4364302158355712890625">
        <ele>181.600006103515625</ele>
        <time>2026-08-05T06:21:58.000Z</time>
        <extensions>
          <ns3:TrackPointExtension>
            <ns3:hr>78</ns3:hr>
            <ns3:cad>45</ns3:cad>
          </ns3:TrackPointExtension>
        </extensions>
      </trkpt>
      <trkpt lat="43.456249572336673736572265625" lon="1.4364448003470897674560546875">
        <ele>181.600006103515625</ele>
        <time>2026-08-05T06:21:59.000Z</time>
        <extensions>
          <ns3:TrackPointExtension>
            <ns3:hr>78</ns3:hr>
            <ns3:cad>44</ns3:cad>
          </ns3:TrackPointExtension>
        </extensions>
      </trkpt>
      <trkpt lat="43.4562504105269908905029296875" lon="1.436458043754100799560546875">
        <ele>181.600006103515625</ele>
        <time>2026-08-05T06:22:00.000Z</time>
        <extensions>
          <ns3:TrackPointExtension>
            <ns3:hr>78</ns3:hr>
            <ns3:cad>43</ns3:cad>
          </ns3:TrackPointExtension>
        </extensions>
      </trkpt>
      <trkpt lat="43.4562487341463565826416015625" lon="1.4364731311798095703125">
        <ele>181.600006103515625</ele>
        <time>2026-08-05T06:22:01.000Z</time>
        <extensions>
          <ns3:TrackPointExtension>
            <ns3:hr>78</ns3:hr>
            <ns3:cad>43</ns3:cad>
          </ns3:TrackPointExtension>
        </extensions>
      </trkpt>
      <trkpt lat="43.45625183545053005218505859375" lon="1.436487548053264617919921875">
        <ele>181.600006103515625</ele>
        <time>2026-08-05T06:22:02.000Z</time>
        <extensions>
          <ns3:TrackPointExtension>
            <ns3:hr>78</ns3:hr>
            <ns3:cad>43</ns3:cad>
          </ns3:TrackPointExtension>
        </extensions>
      </trkpt>
      <trkpt lat="43.45625351183116436004638671875" lon="1.4364981092512607574462890625">
        <ele>181.600006103515625</ele>
        <time>2026-08-05T06:22:03.000Z</time>
        <extensions>
          <ns3:TrackPointExtension>
            <ns3:hr>77</ns3:hr>
            <ns3:cad>43</ns3:cad>
          </ns3:TrackPointExtension>
        </extensions>
      </trkpt>
      <trkpt lat="43.45625317655503749847412109375" lon="1.43651059828698635101318359375">
        <ele>181.600006103515625</ele>
        <time>2026-08-05T06:22:04.000Z</time>
        <extensions>
          <ns3:TrackPointExtension>
            <ns3:hr>77</ns3:hr>
            <ns3:cad>45</ns3:cad>
          </ns3:TrackPointExtension>
        </extensions>
      </trkpt>
      <trkpt lat="43.45625384710729122161865234375" lon="1.4365225844085216522216796875">
        <ele>181.600006103515625</ele>
        <time>2026-08-05T06:22:05.000Z</time>
        <extensions>
          <ns3:TrackPointExtension>
            <ns3:hr>77</ns3:hr>
            <ns3:cad>45</ns3:cad>
          </ns3:TrackPointExtension>
        </extensions>
      </trkpt>
      <trkpt lat="43.45625686459243297576904296875" lon="1.43653859384357929229736328125">
        <ele>181.600006103515625</ele>
        <time>2026-08-05T06:22:06.000Z</time>
        <extensions>
          <ns3:TrackPointExtension>
            <ns3:hr>77</ns3:hr>
            <ns3:cad>45</ns3:cad>
          </ns3:TrackPointExtension>
        </extensions>
      </trkpt>
      <trkpt lat="43.456255607306957244873046875" lon="1.43655083142220973968505859375">
        <ele>181.600006103515625</ele>
        <time>2026-08-05T06:22:07.000Z</time>
        <extensions>
          <ns3:TrackPointExtension>
            <ns3:hr>76</ns3:hr>
            <ns3:cad>45</ns3:cad>
          </ns3:TrackPointExtension>
        </extensions>
      </trkpt>
      <trkpt lat="43.4562534280121326446533203125" lon="1.436561979353427886962890625">
        <ele>181.600006103515625</ele>
        <time>2026-08-05T06:22:08.000Z</time>
        <extensions>
          <ns3:TrackPointExtension>
            <ns3:hr>77</ns3:hr>
            <ns3:cad>44</ns3:cad>
          </ns3:TrackPointExtension>
        </extensions>
      </trkpt>
      <trkpt lat="43.456254266202449798583984375" lon="1.436575390398502349853515625">
        <ele>181.600006103515625</ele>
        <time>2026-08-05T06:22:09.000Z</time>
        <extensions>
          <ns3:TrackPointExtension>
            <ns3:hr>77</ns3:hr>
            <ns3:cad>44</ns3:cad>
          </ns3:TrackPointExtension>
        </extensions>
      </trkpt>
      <trkpt lat="43.45625921152532100677490234375" lon="1.4365886338055133819580078125">
        <ele>181.600006103515625</ele>
        <time>2026-08-05T06:22:10.000Z</time>
        <extensions>
          <ns3:TrackPointExtension>
            <ns3:hr>77</ns3:hr>
            <ns3:cad>44</ns3:cad>
          </ns3:TrackPointExtension>
        </extensions>
      </trkpt>
      <trkpt lat="43.45625854097306728363037109375" lon="1.43659743480384349822998046875">
        <ele>181.8000030517578125</ele>
        <time>2026-08-05T06:22:11.000Z</time>
        <extensions>
          <ns3:TrackPointExtension>
            <ns3:hr>77</ns3:hr>
            <ns3:cad>43</ns3:cad>
          </ns3:TrackPointExtension>
        </extensions>
      </trkpt>
      <trkpt lat="43.4562594629824161529541015625" lon="1.43661067821085453033447265625">
        <ele>181.8000030517578125</ele>
        <time>2026-08-05T06:22:12.000Z</time>
        <extensions>
          <ns3:TrackPointExtension>
            <ns3:hr>77</ns3:hr>
            <ns3:cad>44</ns3:cad>
          </ns3:TrackPointExtension>
        </extensions>
      </trkpt>
      <trkpt lat="43.45626390539109706878662109375" lon="1.43662811256945133209228515625">
        <ele>181.8000030517578125</ele>
        <time>2026-08-05T06:22:13.000Z</time>
        <extensions>
          <ns3:TrackPointExtension>
            <ns3:hr>76</ns3:hr>
            <ns3:cad>44</ns3:cad>
          </ns3:TrackPointExtension>
        </extensions>
      </trkpt>
      <trkpt lat="43.4562628157436847686767578125" lon="1.43664035014808177947998046875">
        <ele>181.8000030517578125</ele>
        <time>2026-08-05T06:22:14.000Z</time>
        <extensions>
          <ns3:TrackPointExtension>
            <ns3:hr>77</ns3:hr>
            <ns3:cad>44</ns3:cad>
          </ns3:TrackPointExtension>
        </extensions>
      </trkpt>
      <trkpt lat="43.45626424066722393035888671875" lon="1.43665158189833164215087890625">
        <ele>181.8000030517578125</ele>
        <time>2026-08-05T06:22:15.000Z</time>
        <extensions>
          <ns3:TrackPointExtension>
            <ns3:hr>77</ns3:hr>
            <ns3:cad>43</ns3:cad>
          </ns3:TrackPointExtension>
        </extensions>
      </trkpt>
      <trkpt lat="43.456265665590763092041015625" lon="1.4366634003818035125732421875">
        <ele>182</ele>
        <time>2026-08-05T06:22:16.000Z</time>
        <extensions>
          <ns3:TrackPointExtension>
            <ns3:hr>76</ns3:hr>
            <ns3:cad>42</ns3:cad>
          </ns3:TrackPointExtension>
        </extensions>
      </trkpt>
      <trkpt lat="43.4562701918184757232666015625" lon="1.43667354248464107513427734375">
        <ele>182</ele>
        <time>2026-08-05T06:22:17.000Z</time>
        <extensions>
          <ns3:TrackPointExtension>
            <ns3:hr>76</ns3:hr>
            <ns3:cad>41</ns3:cad>
          </ns3:TrackPointExtension>
        </extensions>
      </trkpt>
      <trkpt lat="43.4562725387513637542724609375" lon="1.4366836845874786376953125">
        <ele>182</ele>
        <time>2026-08-05T06:22:18.000Z</time>
        <extensions>
          <ns3:TrackPointExtension>
            <ns3:hr>76</ns3:hr>
            <ns3:cad>41</ns3:cad>
          </ns3:TrackPointExtension>
        </extensions>
      </trkpt>
      <trkpt lat="43.45627631060779094696044921875" lon="1.436696089804172515869140625">
        <ele>182.1999969482421875</ele>
        <time>2026-08-05T06:22:19.000Z</time>
        <extensions>
          <ns3:TrackPointExtension>
            <ns3:hr>76</ns3:hr>
            <ns3:cad>43</ns3:cad>
          </ns3:TrackPointExtension>
        </extensions>
      </trkpt>
      <trkpt lat="43.4562832675874233245849609375" lon="1.436706148087978363037109375">
        <ele>182.1999969482421875</ele>
        <time>2026-08-05T06:22:20.000Z</time>
        <extensions>
          <ns3:TrackPointExtension>
            <ns3:hr>76</ns3:hr>
            <ns3:cad>43</ns3:cad>
          </ns3:TrackPointExtension>
        </extensions>
      </trkpt>
      <trkpt lat="43.45629022456705570220947265625" lon="1.43671427853405475616455078125">
        <ele>182.399993896484375</ele>
        <time>2026-08-05T06:22:21.000Z</time>
        <extensions>
          <ns3:TrackPointExtension>
            <ns3:hr>76</ns3:hr>
            <ns3:cad>43</ns3:cad>
          </ns3:TrackPointExtension>
        </extensions>
      </trkpt>
      <trkpt lat="43.45629550516605377197265625" lon="1.4367239177227020263671875">
        <ele>182.399993896484375</ele>
        <time>2026-08-05T06:22:22.000Z</time>
        <extensions>
          <ns3:TrackPointExtension>
            <ns3:hr>76</ns3:hr>
            <ns3:cad>42</ns3:cad>
          </ns3:TrackPointExtension>
        </extensions>
      </trkpt>
      <trkpt lat="43.45630355179309844970703125" lon="1.43673791550099849700927734375">
        <ele>182.399993896484375</ele>
        <time>2026-08-05T06:22:23.000Z</time>
        <extensions>
          <ns3:TrackPointExtension>
            <ns3:hr>76</ns3:hr>
            <ns3:cad>42</ns3:cad>
          </ns3:TrackPointExtension>
        </extensions>
      </trkpt>
      <trkpt lat="43.4563095867633819580078125" lon="1.436752416193485260009765625">
        <ele>182.399993896484375</ele>
        <time>2026-08-05T06:22:24.000Z</time>
        <extensions>
          <ns3:TrackPointExtension>
            <ns3:hr>76</ns3:hr>
            <ns3:cad>42</ns3:cad>
          </ns3:TrackPointExtension>
        </extensions>
      </trkpt>
      <trkpt lat="43.45631184987723827362060546875" lon="1.4367639832198619842529296875">
        <ele>182.399993896484375</ele>
        <time>2026-08-05T06:22:25.000Z</time>
        <extensions>
          <ns3:TrackPointExtension>
            <ns3:hr>76</ns3:hr>
            <ns3:cad>43</ns3:cad>
          </ns3:TrackPointExtension>
        </extensions>
      </trkpt>
      <trkpt lat="43.45631453208625316619873046875" lon="1.4367770589888095855712890625">
        <ele>182.399993896484375</ele>
        <time>2026-08-05T06:22:26.000Z</time>
        <extensions>
          <ns3:TrackPointExtension>
            <ns3:hr>76</ns3:hr>
            <ns3:cad>43</ns3:cad>
          </ns3:TrackPointExtension>
        </extensions>
      </trkpt>
      <trkpt lat="43.4563228301703929901123046875" lon="1.4367934875190258026123046875">
        <ele>182.399993896484375</ele>
        <time>2026-08-05T06:22:27.000Z</time>
        <extensions>
          <ns3:TrackPointExtension>
            <ns3:hr>76</ns3:hr>
            <ns3:cad>43</ns3:cad>
          </ns3:TrackPointExtension>
        </extensions>
      </trkpt>
      <trkpt lat="43.45632727257907390594482421875" lon="1.4368109218776226043701171875">
        <ele>182.399993896484375</ele>
        <time>2026-08-05T06:22:28.000Z</time>
        <extensions>
          <ns3:TrackPointExtension>
            <ns3:hr>75</ns3:hr>
            <ns3:cad>43</ns3:cad>
          </ns3:TrackPointExtension>
        </extensions>
      </trkpt>
      <trkpt lat="43.4563308767974376678466796875" lon="1.436824500560760498046875">
        <ele>182.399993896484375</ele>
        <time>2026-08-05T06:22:29.000Z</time>
        <extensions>
          <ns3:TrackPointExtension>
            <ns3:hr>76</ns3:hr>
            <ns3:cad>44</ns3:cad>
          </ns3:TrackPointExtension>
        </extensions>
      </trkpt>
      <trkpt lat="43.4563325531780719757080078125" lon="1.4368337206542491912841796875">
        <ele>182.399993896484375</ele>
        <time>2026-08-05T06:22:30.000Z</time>
        <extensions>
          <ns3:TrackPointExtension>
            <ns3:hr>76</ns3:hr>
            <ns3:cad>44</ns3:cad>
          </ns3:TrackPointExtension>
        </extensions>
      </trkpt>
      <trkpt lat="43.456337414681911468505859375" lon="1.43684889189898967742919921875">
        <ele>182.600006103515625</ele>
        <time>2026-08-05T06:22:31.000Z</time>
        <extensions>
          <ns3:TrackPointExtension>
            <ns3:hr>76</ns3:hr>
            <ns3:cad>46</ns3:cad>
          </ns3:TrackPointExtension>
        </extensions>
      </trkpt>
      <trkpt lat="43.456342779099941253662109375" lon="1.43685811199247837066650390625">
        <ele>182.600006103515625</ele>
        <time>2026-08-05T06:22:32.000Z</time>
        <extensions>
          <ns3:TrackPointExtension>
            <ns3:hr>76</ns3:hr>
            <ns3:cad>46</ns3:cad>
          </ns3:TrackPointExtension>
        </extensions>
      </trkpt>
      <trkpt lat="43.456345461308956146240234375" lon="1.43686808645725250244140625">
        <ele>182.600006103515625</ele>
        <time>2026-08-05T06:22:33.000Z</time>
        <extensions>
          <ns3:TrackPointExtension>
            <ns3:hr>76</ns3:hr>
            <ns3:cad>46</ns3:cad>
          </ns3:TrackPointExtension>
        </extensions>
      </trkpt>
      <trkpt lat="43.45635023899376392364501953125" lon="1.43688417971134185791015625">
        <ele>182.600006103515625</ele>
        <time>2026-08-05T06:22:34.000Z</time>
        <extensions>
          <ns3:TrackPointExtension>
            <ns3:hr>76</ns3:hr>
            <ns3:cad>44</ns3:cad>
          </ns3:TrackPointExtension>
        </extensions>
      </trkpt>
      <trkpt lat="43.4563540108501911163330078125" lon="1.43690002150833606719970703125">
        <ele>182.600006103515625</ele>
        <time>2026-08-05T06:22:35.000Z</time>
        <extensions>
          <ns3:TrackPointExtension>
            <ns3:hr>76</ns3:hr>
            <ns3:cad>44</ns3:cad>
          </ns3:TrackPointExtension>
        </extensions>
      </trkpt>
      <trkpt lat="43.45635442994534969329833984375" lon="1.43690831959247589111328125">
        <ele>182.600006103515625</ele>
        <time>2026-08-05T06:22:36.000Z</time>
        <extensions>
          <ns3:TrackPointExtension>
            <ns3:hr>76</ns3:hr>
            <ns3:cad>44</ns3:cad>
          </ns3:TrackPointExtension>
        </extensions>
      </trkpt>
      <trkpt lat="43.4563590399920940399169921875" lon="1.43692114390432834625244140625">
        <ele>182.600006103515625</ele>
        <time>2026-08-05T06:22:37.000Z</time>
        <extensions>
          <ns3:TrackPointExtension>
            <ns3:hr>77</ns3:hr>
            <ns3:cad>42</ns3:cad>
          </ns3:TrackPointExtension>
        </extensions>
      </trkpt>
      <trkpt lat="43.456363566219806671142578125" lon="1.4369366504251956939697265625">
        <ele>182.8000030517578125</ele>
        <time>2026-08-05T06:22:38.000Z</time>
        <extensions>
          <ns3:TrackPointExtension>
            <ns3:hr>77</ns3:hr>
            <ns3:cad>42</ns3:cad>
          </ns3:TrackPointExtension>
        </extensions>
      </trkpt>
      <trkpt lat="43.456368260085582733154296875" lon="1.43694981001317501068115234375">
        <ele>182.8000030517578125</ele>
        <time>2026-08-05T06:22:39.000Z</time>
        <extensions>
          <ns3:TrackPointExtension>
            <ns3:hr>78</ns3:hr>
            <ns3:cad>41</ns3:cad>
          </ns3:TrackPointExtension>
        </extensions>
      </trkpt>
      <trkpt lat="43.45636767335236072540283203125" lon="1.43695391714572906494140625">
        <ele>182.8000030517578125</ele>
        <time>2026-08-05T06:22:40.000Z</time>
        <extensions>
          <ns3:TrackPointExtension>
            <ns3:hr>79</ns3:hr>
            <ns3:cad>41</ns3:cad>
          </ns3:TrackPointExtension>
        </extensions>
      </trkpt>
      <trkpt lat="43.4563707746565341949462890625" lon="1.43696456216275691986083984375">
        <ele>182.8000030517578125</ele>
        <time>2026-08-05T06:22:41.000Z</time>
        <extensions>
          <ns3:TrackPointExtension>
            <ns3:hr>80</ns3:hr>
            <ns3:cad>42</ns3:cad>
          </ns3:TrackPointExtension>
        </extensions>
      </trkpt>
      <trkpt lat="43.45637639053165912628173828125" lon="1.436978392302989959716796875">
        <ele>182.8000030517578125</ele>
        <time>2026-08-05T06:22:42.000Z</time>
        <extensions>
          <ns3:TrackPointExtension>
            <ns3:hr>80</ns3:hr>
            <ns3:cad>44</ns3:cad>
          </ns3:TrackPointExtension>
        </extensions>
      </trkpt>
      <trkpt lat="43.4563793241977691650390625" lon="1.43698970787227153778076171875">
        <ele>182.8000030517578125</ele>
        <time>2026-08-05T06:22:43.000Z</time>
        <extensions>
          <ns3:TrackPointExtension>
            <ns3:hr>80</ns3:hr>
            <ns3:cad>44</ns3:cad>
          </ns3:TrackPointExtension>
        </extensions>
      </trkpt>
      <trkpt lat="43.45638158731162548065185546875" lon="1.43700529821217060089111328125">
        <ele>183</ele>
        <time>2026-08-05T06:22:44.000Z</time>
        <extensions>
          <ns3:TrackPointExtension>
            <ns3:hr>80</ns3:hr>
            <ns3:cad>44</ns3:cad>
          </ns3:TrackPointExtension>
        </extensions>
      </trkpt>
      <trkpt lat="43.45638535916805267333984375" lon="1.43702030181884765625">
        <ele>183</ele>
        <time>2026-08-05T06:22:45.000Z</time>
        <extensions>
          <ns3:TrackPointExtension>
            <ns3:hr>81</ns3:hr>
            <ns3:cad>42</ns3:cad>
          </ns3:TrackPointExtension>
        </extensions>
      </trkpt>
      <trkpt lat="43.45638913102447986602783203125" lon="1.4370315335690975189208984375">
        <ele>183</ele>
        <time>2026-08-05T06:22:46.000Z</time>
        <extensions>
          <ns3:TrackPointExtension>
            <ns3:hr>81</ns3:hr>
            <ns3:cad>41</ns3:cad>
          </ns3:TrackPointExtension>
        </extensions>
      </trkpt>
      <trkpt lat="43.4563908912241458892822265625" lon="1.43704435788094997406005859375">
        <ele>183</ele>
        <time>2026-08-05T06:22:47.000Z</time>
        <extensions>
          <ns3:TrackPointExtension>
            <ns3:hr>81</ns3:hr>
            <ns3:cad>41</ns3:cad>
          </ns3:TrackPointExtension>
        </extensions>
      </trkpt>
      <trkpt lat="43.456393070518970489501953125" lon="1.4370576851069927215576171875">
        <ele>182.8000030517578125</ele>
        <time>2026-08-05T06:22:48.000Z</time>
        <extensions>
          <ns3:TrackPointExtension>
            <ns3:hr>80</ns3:hr>
            <ns3:cad>42</ns3:cad>
          </ns3:TrackPointExtension>
        </extensions>
      </trkpt>
      <trkpt lat="43.45639633946120738983154296875" lon="1.43707520328462123870849609375">
        <ele>182.8000030517578125</ele>
        <time>2026-08-05T06:22:49.000Z</time>
        <extensions>
          <ns3:TrackPointExtension>
            <ns3:hr>80</ns3:hr>
            <ns3:cad>44</ns3:cad>
          </ns3:TrackPointExtension>
        </extensions>
      </trkpt>
      <trkpt lat="43.45639768056571483612060546875" lon="1.43708475865423679351806640625">
        <ele>182.8000030517578125</ele>
        <time>2026-08-05T06:22:50.000Z</time>
        <extensions>
          <ns3:TrackPointExtension>
            <ns3:hr>80</ns3:hr>
            <ns3:cad>44</ns3:cad>
          </ns3:TrackPointExtension>
        </extensions>
      </trkpt>
      <trkpt lat="43.456399105489253997802734375" lon="1.43709381110966205596923828125">
        <ele>182.8000030517578125</ele>
        <time>2026-08-05T06:22:51.000Z</time>
        <extensions>
          <ns3:TrackPointExtension>
            <ns3:hr>81</ns3:hr>
            <ns3:cad>44</ns3:cad>
          </ns3:TrackPointExtension>
        </extensions>
      </trkpt>
      <trkpt lat="43.4564036317169666290283203125" lon="1.437108479440212249755859375">
        <ele>182.8000030517578125</ele>
        <time>2026-08-05T06:22:52.000Z</time>
        <extensions>
          <ns3:TrackPointExtension>
            <ns3:hr>80</ns3:hr>
            <ns3:cad>44</ns3:cad>
          </ns3:TrackPointExtension>
        </extensions>
      </trkpt>
      <trkpt lat="43.45640690065920352935791015625" lon="1.4371230639517307281494140625">
        <ele>182.8000030517578125</ele>
        <time>2026-08-05T06:22:53.000Z</time>
        <extensions>
          <ns3:TrackPointExtension>
            <ns3:hr>80</ns3:hr>
            <ns3:cad>44</ns3:cad>
          </ns3:TrackPointExtension>
        </extensions>
      </trkpt>
      <trkpt lat="43.45641042105853557586669921875" lon="1.4371371455490589141845703125">
        <ele>182.8000030517578125</ele>
        <time>2026-08-05T06:22:54.000Z</time>
        <extensions>
          <ns3:TrackPointExtension>
            <ns3:hr>80</ns3:hr>
            <ns3:cad>44</ns3:cad>
          </ns3:TrackPointExtension>
        </extensions>
      </trkpt>
      <trkpt lat="43.4564130194485187530517578125" lon="1.43714695237576961517333984375">
        <ele>182.8000030517578125</ele>
        <time>2026-08-05T06:22:55.000Z</time>
        <extensions>
          <ns3:TrackPointExtension>
            <ns3:hr>80</ns3:hr>
            <ns3:cad>44</ns3:cad>
          </ns3:TrackPointExtension>
        </extensions>
      </trkpt>
      <trkpt lat="43.45641427673399448394775390625" lon="1.43716447055339813232421875">
        <ele>182.8000030517578125</ele>
        <time>2026-08-05T06:22:56.000Z</time>
        <extensions>
          <ns3:TrackPointExtension>
            <ns3:hr>80</ns3:hr>
            <ns3:cad>44</ns3:cad>
          </ns3:TrackPointExtension>
        </extensions>
      </trkpt>
      <trkpt lat="43.4564168751239776611328125" lon="1.43718182109296321868896484375">
        <ele>182.8000030517578125</ele>
        <time>2026-08-05T06:22:57.000Z</time>
        <extensions>
          <ns3:TrackPointExtension>
            <ns3:hr>80</ns3:hr>
            <ns3:cad>44</ns3:cad>
          </ns3:TrackPointExtension>
        </extensions>
      </trkpt>
      <trkpt lat="43.45642081461846828460693359375" lon="1.43719539977610111236572265625">
        <ele>182.8000030517578125</ele>
        <time>2026-08-05T06:22:58.000Z</time>
        <extensions>
          <ns3:TrackPointExtension>
            <ns3:hr>80</ns3:hr>
            <ns3:cad>44</ns3:cad>
          </ns3:TrackPointExtension>
        </extensions>
      </trkpt>
      <trkpt lat="43.45642316155135631561279296875" lon="1.4372092299163341522216796875">
        <ele>182.8000030517578125</ele>
        <time>2026-08-05T06:22:59.000Z</time>
        <extensions>
          <ns3:TrackPointExtension>
            <ns3:hr>79</ns3:hr>
            <ns3:cad>44</ns3:cad>
          </ns3:TrackPointExtension>
        </extensions>
      </trkpt>
      <trkpt lat="43.45642835833132266998291015625" lon="1.4372216351330280303955078125">
        <ele>182.8000030517578125</ele>
        <time>2026-08-05T06:23:00.000Z</time>
        <extensions>
          <ns3:TrackPointExtension>
            <ns3:hr>79</ns3:hr>
            <ns3:cad>45</ns3:cad>
          </ns3:TrackPointExtension>
        </extensions>
      </trkpt>
      <trkpt lat="43.456434309482574462890625" lon="1.43723462708294391632080078125">
        <ele>182.8000030517578125</ele>
        <time>2026-08-05T06:23:01.000Z</time>
        <extensions>
          <ns3:TrackPointExtension>
            <ns3:hr>79</ns3:hr>
            <ns3:cad>45</ns3:cad>
          </ns3:TrackPointExtension>
        </extensions>
      </trkpt>
      <trkpt lat="43.4564368240535259246826171875" lon="1.43724652938544750213623046875">
        <ele>182.8000030517578125</ele>
        <time>2026-08-05T06:23:02.000Z</time>
        <extensions>
          <ns3:TrackPointExtension>
            <ns3:hr>79</ns3:hr>
            <ns3:cad>45</ns3:cad>
          </ns3:TrackPointExtension>
        </extensions>
      </trkpt>
      <trkpt lat="43.4564383327960968017578125" lon="1.43725910224020481109619140625">
        <ele>182.8000030517578125</ele>
        <time>2026-08-05T06:23:03.000Z</time>
        <extensions>
          <ns3:TrackPointExtension>
            <ns3:hr>79</ns3:hr>
            <ns3:cad>45</ns3:cad>
          </ns3:TrackPointExtension>
        </extensions>
      </trkpt>
      <trkpt lat="43.45644042827188968658447265625" lon="1.43727418966591358184814453125">
        <ele>182.8000030517578125</ele>
        <time>2026-08-05T06:23:04.000Z</time>
        <extensions>
          <ns3:TrackPointExtension>
            <ns3:hr>80</ns3:hr>
            <ns3:cad>44</ns3:cad>
          </ns3:TrackPointExtension>
        </extensions>
      </trkpt>
      <trkpt lat="43.45644294284284114837646484375" lon="1.43728843890130519866943359375">
        <ele>182.8000030517578125</ele>
        <time>2026-08-05T06:23:05.000Z</time>
        <extensions>
          <ns3:TrackPointExtension>
            <ns3:hr>79</ns3:hr>
            <ns3:cad>44</ns3:cad>
          </ns3:TrackPointExtension>
        </extensions>
      </trkpt>
      <trkpt lat="43.4564431942999362945556640625" lon="1.4373000897467136383056640625">
        <ele>182.8000030517578125</ele>
        <time>2026-08-05T06:23:06.000Z</time>
        <extensions>
          <ns3:TrackPointExtension>
            <ns3:hr>79</ns3:hr>
            <ns3:cad>44</ns3:cad>
          </ns3:TrackPointExtension>
        </extensions>
      </trkpt>
      <trkpt lat="43.4564436972141265869140625" lon="1.43731056712567806243896484375">
        <ele>183</ele>
        <time>2026-08-05T06:23:07.000Z</time>
        <extensions>
          <ns3:TrackPointExtension>
            <ns3:hr>78</ns3:hr>
            <ns3:cad>45</ns3:cad>
          </ns3:TrackPointExtension>
        </extensions>
      </trkpt>
      <trkpt lat="43.45644746907055377960205078125" lon="1.43732565455138683319091796875">
        <ele>183</ele>
        <time>2026-08-05T06:23:08.000Z</time>
        <extensions>
          <ns3:TrackPointExtension>
            <ns3:hr>78</ns3:hr>
            <ns3:cad>45</ns3:cad>
          </ns3:TrackPointExtension>
        </extensions>
      </trkpt>
      <trkpt lat="43.45645098946988582611083984375" lon="1.4373423345386981964111328125">
        <ele>183</ele>
        <time>2026-08-05T06:23:09.000Z</time>
        <extensions>
          <ns3:TrackPointExtension>
            <ns3:hr>78</ns3:hr>
            <ns3:cad>45</ns3:cad>
          </ns3:TrackPointExtension>
        </extensions>
      </trkpt>
      <trkpt lat="43.4564517438411712646484375" lon="1.43735415302217006683349609375">
        <ele>183</ele>
        <time>2026-08-05T06:23:10.000Z</time>
        <extensions>
          <ns3:TrackPointExtension>
            <ns3:hr>79</ns3:hr>
            <ns3:cad>45</ns3:cad>
          </ns3:TrackPointExtension>
        </extensions>
      </trkpt>
      <trkpt lat="43.456456772983074188232421875" lon="1.43736622296273708343505859375">
        <ele>183</ele>
        <time>2026-08-05T06:23:11.000Z</time>
        <extensions>
          <ns3:TrackPointExtension>
            <ns3:hr>78</ns3:hr>
            <ns3:cad>45</ns3:cad>
          </ns3:TrackPointExtension>
        </extensions>
      </trkpt>
      <trkpt lat="43.456462807953357696533203125" lon="1.43738709390163421630859375">
        <ele>183</ele>
        <time>2026-08-05T06:23:12.000Z</time>
        <extensions>
          <ns3:TrackPointExtension>
            <ns3:hr>79</ns3:hr>
            <ns3:cad>44</ns3:cad>
          </ns3:TrackPointExtension>
        </extensions>
      </trkpt>
      <trkpt lat="43.45646607689559459686279296875" lon="1.43740545026957988739013671875">
        <ele>183</ele>
        <time>2026-08-05T06:23:13.000Z</time>
        <extensions>
          <ns3:TrackPointExtension>
            <ns3:hr>79</ns3:hr>
            <ns3:cad>44</ns3:cad>
          </ns3:TrackPointExtension>
        </extensions>
      </trkpt>
      <trkpt lat="43.4564683400094509124755859375" lon="1.4374207891523838043212890625">
        <ele>183</ele>
        <time>2026-08-05T06:23:14.000Z</time>
        <extensions>
          <ns3:TrackPointExtension>
            <ns3:hr>79</ns3:hr>
            <ns3:cad>44</ns3:cad>
          </ns3:TrackPointExtension>
        </extensions>
      </trkpt>
      <trkpt lat="43.4564683400094509124755859375" lon="1.43743193708360195159912109375">
        <ele>183</ele>
        <time>2026-08-05T06:23:15.000Z</time>
        <extensions>
          <ns3:TrackPointExtension>
            <ns3:hr>80</ns3:hr>
            <ns3:cad>45</ns3:cad>
          </ns3:TrackPointExtension>
        </extensions>
      </trkpt>
      <trkpt lat="43.4564700163900852203369140625" lon="1.4374469406902790069580078125">
        <ele>183</ele>
        <time>2026-08-05T06:23:16.000Z</time>
        <extensions>
          <ns3:TrackPointExtension>
            <ns3:hr>80</ns3:hr>
            <ns3:cad>46</ns3:cad>
          </ns3:TrackPointExtension>
        </extensions>
      </trkpt>
      <trkpt lat="43.45647546462714672088623046875" lon="1.4374600164592266082763671875">
        <ele>183</ele>
        <time>2026-08-05T06:23:17.000Z</time>
        <extensions>
          <ns3:TrackPointExtension>
            <ns3:hr>80</ns3:hr>
            <ns3:cad>46</ns3:cad>
          </ns3:TrackPointExtension>
        </extensions>
      </trkpt>
      <trkpt lat="43.45647789537906646728515625" lon="1.4374717511236667633056640625">
        <ele>183.1999969482421875</ele>
        <time>2026-08-05T06:23:18.000Z</time>
        <extensions>
          <ns3:TrackPointExtension>
            <ns3:hr>80</ns3:hr>
            <ns3:cad>46</ns3:cad>
          </ns3:TrackPointExtension>
        </extensions>
      </trkpt>
      <trkpt lat="43.45647814683616161346435546875" lon="1.437481977045536041259765625">
        <ele>183.1999969482421875</ele>
        <time>2026-08-05T06:23:19.000Z</time>
        <extensions>
          <ns3:TrackPointExtension>
            <ns3:hr>81</ns3:hr>
            <ns3:cad>46</ns3:cad>
          </ns3:TrackPointExtension>
        </extensions>
      </trkpt>
      <trkpt lat="43.45647789537906646728515625" lon="1.43749899230897426605224609375">
        <ele>183.1999969482421875</ele>
        <time>2026-08-05T06:23:20.000Z</time>
        <extensions>
          <ns3:TrackPointExtension>
            <ns3:hr>82</ns3:hr>
            <ns3:cad>46</ns3:cad>
          </ns3:TrackPointExtension>
        </extensions>
      </trkpt>
      <trkpt lat="43.45647647045552730560302734375" lon="1.437514834105968475341796875">
        <ele>183.1999969482421875</ele>
        <time>2026-08-05T06:23:21.000Z</time>
        <extensions>
          <ns3:TrackPointExtension>
            <ns3:hr>82</ns3:hr>
            <ns3:cad>46</ns3:cad>
          </ns3:TrackPointExtension>
        </extensions>
      </trkpt>
      <trkpt lat="43.45647848211228847503662109375" lon="1.43752682022750377655029296875">
        <ele>183.1999969482421875</ele>
        <time>2026-08-05T06:23:22.000Z</time>
        <extensions>
          <ns3:TrackPointExtension>
            <ns3:hr>82</ns3:hr>
            <ns3:cad>46</ns3:cad>
          </ns3:TrackPointExtension>
        </extensions>
      </trkpt>
      <trkpt lat="43.45647848211228847503662109375" lon="1.43753855489194393157958984375">
        <ele>183.1999969482421875</ele>
        <time>2026-08-05T06:23:23.000Z</time>
        <extensions>
          <ns3:TrackPointExtension>
            <ns3:hr>83</ns3:hr>
            <ns3:cad>44</ns3:cad>
          </ns3:TrackPointExtension>
        </extensions>
      </trkpt>
      <trkpt lat="43.456482253968715667724609375" lon="1.43755833618342876434326171875">
        <ele>183.1999969482421875</ele>
        <time>2026-08-05T06:23:24.000Z</time>
        <extensions>
          <ns3:TrackPointExtension>
            <ns3:hr>82</ns3:hr>
            <ns3:cad>44</ns3:cad>
          </ns3:TrackPointExtension>
        </extensions>
      </trkpt>
      <trkpt lat="43.45648401416838169097900390625" lon="1.4375756867229938507080078125">
        <ele>183.1999969482421875</ele>
        <time>2026-08-05T06:23:25.000Z</time>
        <extensions>
          <ns3:TrackPointExtension>
            <ns3:hr>82</ns3:hr>
            <ns3:cad>43</ns3:cad>
          </ns3:TrackPointExtension>
        </extensions>
      </trkpt>
      <trkpt lat="43.456485606729984283447265625" lon="1.437588594853878021240234375">
        <ele>183.1999969482421875</ele>
        <time>2026-08-05T06:23:26.000Z</time>
        <extensions>
          <ns3:TrackPointExtension>
            <ns3:hr>82</ns3:hr>
            <ns3:cad>43</ns3:cad>
          </ns3:TrackPointExtension>
        </extensions>
      </trkpt>
      <trkpt lat="43.456485271453857421875" lon="1.43760208971798419952392578125">
        <ele>183.1999969482421875</ele>
        <time>2026-08-05T06:23:27.000Z</time>
        <extensions>
          <ns3:TrackPointExtension>
            <ns3:hr>83</ns3:hr>
            <ns3:cad>44</ns3:cad>
          </ns3:TrackPointExtension>
        </extensions>
      </trkpt>
      <trkpt lat="43.45648485235869884490966796875" lon="1.43761575222015380859375">
        <ele>183.1999969482421875</ele>
        <time>2026-08-05T06:23:28.000Z</time>
        <extensions>
          <ns3:TrackPointExtension>
            <ns3:hr>82</ns3:hr>
            <ns3:cad>44</ns3:cad>
          </ns3:TrackPointExtension>
        </extensions>
      </trkpt>
      <trkpt lat="43.45648837275803089141845703125" lon="1.437630839645862579345703125">
        <ele>183.1999969482421875</ele>
        <time>2026-08-05T06:23:29.000Z</time>
        <extensions>
          <ns3:TrackPointExtension>
            <ns3:hr>82</ns3:hr>
            <ns3:cad>44</ns3:cad>
          </ns3:TrackPointExtension>
        </extensions>
      </trkpt>
      <trkpt lat="43.45648753456771373748779296875" lon="1.43764056265354156494140625">
        <ele>183.399993896484375</ele>
        <time>2026-08-05T06:23:30.000Z</time>
        <extensions>
          <ns3:TrackPointExtension>
            <ns3:hr>82</ns3:hr>
            <ns3:cad>44</ns3:cad>
          </ns3:TrackPointExtension>
        </extensions>
      </trkpt>
      <trkpt lat="43.456486947834491729736328125" lon="1.43765472806990146636962890625">
        <ele>183.399993896484375</ele>
        <time>2026-08-05T06:23:31.000Z</time>
        <extensions>
          <ns3:TrackPointExtension>
            <ns3:hr>82</ns3:hr>
            <ns3:cad>44</ns3:cad>
          </ns3:TrackPointExtension>
        </extensions>
      </trkpt>
      <trkpt lat="43.4564884565770626068115234375" lon="1.43767048604786396026611328125">
        <ele>183.399993896484375</ele>
        <time>2026-08-05T06:23:32.000Z</time>
        <extensions>
          <ns3:TrackPointExtension>
            <ns3:hr>82</ns3:hr>
            <ns3:cad>44</ns3:cad>
          </ns3:TrackPointExtension>
        </extensions>
      </trkpt>
      <trkpt lat="43.45648862421512603759765625" lon="1.43768205307424068450927734375">
        <ele>183.399993896484375</ele>
        <time>2026-08-05T06:23:33.000Z</time>
        <extensions>
          <ns3:TrackPointExtension>
            <ns3:hr>82</ns3:hr>
            <ns3:cad>44</ns3:cad>
          </ns3:TrackPointExtension>
        </extensions>
      </trkpt>
      <trkpt lat="43.45648870803415775299072265625" lon="1.4376900158822536468505859375">
        <ele>183.399993896484375</ele>
        <time>2026-08-05T06:23:34.000Z</time>
        <extensions>
          <ns3:TrackPointExtension>
            <ns3:hr>82</ns3:hr>
            <ns3:cad>44</ns3:cad>
          </ns3:TrackPointExtension>
        </extensions>
      </trkpt>
      <trkpt lat="43.4564894624054431915283203125" lon="1.4377064444124698638916015625">
        <ele>183.399993896484375</ele>
        <time>2026-08-05T06:23:35.000Z</time>
        <extensions>
          <ns3:TrackPointExtension>
            <ns3:hr>82</ns3:hr>
            <ns3:cad>42</ns3:cad>
          </ns3:TrackPointExtension>
        </extensions>
      </trkpt>
      <trkpt lat="43.45649189315736293792724609375" lon="1.43772681243717670440673828125">
        <ele>183.399993896484375</ele>
        <time>2026-08-05T06:23:36.000Z</time>
        <extensions>
          <ns3:TrackPointExtension>
            <ns3:hr>82</ns3:hr>
            <ns3:cad>42</ns3:cad>
          </ns3:TrackPointExtension>
        </extensions>
      </trkpt>
      <trkpt lat="43.45649273134768009185791015625" lon="1.4377393014729022979736328125">
        <ele>183.399993896484375</ele>
        <time>2026-08-05T06:23:37.000Z</time>
        <extensions>
          <ns3:TrackPointExtension>
            <ns3:hr>82</ns3:hr>
            <ns3:cad>42</ns3:cad>
          </ns3:TrackPointExtension>
        </extensions>
      </trkpt>
      <trkpt lat="43.45649063587188720703125" lon="1.4377510361373424530029296875">
        <ele>183.399993896484375</ele>
        <time>2026-08-05T06:23:38.000Z</time>
        <extensions>
          <ns3:TrackPointExtension>
            <ns3:hr>82</ns3:hr>
            <ns3:cad>42</ns3:cad>
          </ns3:TrackPointExtension>
        </extensions>
      </trkpt>
      <trkpt lat="43.45649289898574352264404296875" lon="1.43776419572532176971435546875">
        <ele>183.399993896484375</ele>
        <time>2026-08-05T06:23:39.000Z</time>
        <extensions>
          <ns3:TrackPointExtension>
            <ns3:hr>82</ns3:hr>
            <ns3:cad>44</ns3:cad>
          </ns3:TrackPointExtension>
        </extensions>
      </trkpt>
      <trkpt lat="43.45649373717606067657470703125" lon="1.437783055007457733154296875">
        <ele>183.399993896484375</ele>
        <time>2026-08-05T06:23:40.000Z</time>
        <extensions>
          <ns3:TrackPointExtension>
            <ns3:hr>82</ns3:hr>
            <ns3:cad>45</ns3:cad>
          </ns3:TrackPointExtension>
        </extensions>
      </trkpt>
      <trkpt lat="43.45649306662380695343017578125" lon="1.4377929456532001495361328125">
        <ele>183.399993896484375</ele>
        <time>2026-08-05T06:23:41.000Z</time>
        <extensions>
          <ns3:TrackPointExtension>
            <ns3:hr>82</ns3:hr>
            <ns3:cad>45</ns3:cad>
          </ns3:TrackPointExtension>
        </extensions>
      </trkpt>
      <trkpt lat="43.45649071969091892242431640625" lon="1.4378026686608791351318359375">
        <ele>183.399993896484375</ele>
        <time>2026-08-05T06:23:42.000Z</time>
        <extensions>
          <ns3:TrackPointExtension>
            <ns3:hr>82</ns3:hr>
            <ns3:cad>45</ns3:cad>
          </ns3:TrackPointExtension>
        </extensions>
      </trkpt>
      <trkpt lat="43.4564887918531894683837890625" lon="1.43781800754368305206298828125">
        <ele>183.399993896484375</ele>
        <time>2026-08-05T06:23:43.000Z</time>
        <extensions>
          <ns3:TrackPointExtension>
            <ns3:hr>82</ns3:hr>
            <ns3:cad>45</ns3:cad>
          </ns3:TrackPointExtension>
        </extensions>
      </trkpt>
      <trkpt lat="43.456484936177730560302734375" lon="1.43783611245453357696533203125">
        <ele>183.399993896484375</ele>
        <time>2026-08-05T06:23:44.000Z</time>
        <extensions>
          <ns3:TrackPointExtension>
            <ns3:hr>82</ns3:hr>
            <ns3:cad>44</ns3:cad>
          </ns3:TrackPointExtension>
        </extensions>
      </trkpt>
      <trkpt lat="43.4564814157783985137939453125" lon="1.4378502778708934783935546875">
        <ele>183.399993896484375</ele>
        <time>2026-08-05T06:23:45.000Z</time>
        <extensions>
          <ns3:TrackPointExtension>
            <ns3:hr>81</ns3:hr>
            <ns3:cad>44</ns3:cad>
          </ns3:TrackPointExtension>
        </extensions>
      </trkpt>
      <trkpt lat="43.4564787335693836212158203125" lon="1.4378600008785724639892578125">
        <ele>183.399993896484375</ele>
        <time>2026-08-05T06:23:46.000Z</time>
        <extensions>
          <ns3:TrackPointExtension>
            <ns3:hr>81</ns3:hr>
            <ns3:cad>44</ns3:cad>
          </ns3:TrackPointExtension>
        </extensions>
      </trkpt>
      <trkpt lat="43.4564760513603687286376953125" lon="1.43787500448524951934814453125">
        <ele>183.399993896484375</ele>
        <time>2026-08-05T06:23:47.000Z</time>
        <extensions>
          <ns3:TrackPointExtension>
            <ns3:hr>81</ns3:hr>
            <ns3:cad>45</ns3:cad>
          </ns3:TrackPointExtension>
        </extensions>
      </trkpt>
      <trkpt lat="43.45647110603749752044677734375" lon="1.43789310939610004425048828125">
        <ele>183.399993896484375</ele>
        <time>2026-08-05T06:23:48.000Z</time>
        <extensions>
          <ns3:TrackPointExtension>
            <ns3:hr>80</ns3:hr>
            <ns3:cad>45</ns3:cad>
          </ns3:TrackPointExtension>
        </extensions>
      </trkpt>
      <trkpt lat="43.456466160714626312255859375" lon="1.43790249712765216827392578125">
        <ele>183.399993896484375</ele>
        <time>2026-08-05T06:23:49.000Z</time>
        <extensions>
          <ns3:TrackPointExtension>
            <ns3:hr>80</ns3:hr>
            <ns3:cad>44</ns3:cad>
          </ns3:TrackPointExtension>
        </extensions>
      </trkpt>
      <trkpt lat="43.456461466848850250244140625" lon="1.43791624344885349273681640625">
        <ele>183.399993896484375</ele>
        <time>2026-08-05T06:23:50.000Z</time>
        <extensions>
          <ns3:TrackPointExtension>
            <ns3:hr>80</ns3:hr>
            <ns3:cad>44</ns3:cad>
          </ns3:TrackPointExtension>
        </extensions>
      </trkpt>
      <trkpt lat="43.45645752735435962677001953125" lon="1.43793418072164058685302734375">
        <ele>183.399993896484375</ele>
        <time>2026-08-05T06:23:51.000Z</time>
        <extensions>
          <ns3:TrackPointExtension>
            <ns3:hr>81</ns3:hr>
            <ns3:cad>44</ns3:cad>
          </ns3:TrackPointExtension>
        </extensions>
      </trkpt>
      <trkpt lat="43.45645316876471042633056640625" lon="1.43795195035636425018310546875">
        <ele>183.600006103515625</ele>
        <time>2026-08-05T06:23:52.000Z</time>
        <extensions>
          <ns3:TrackPointExtension>
            <ns3:hr>80</ns3:hr>
            <ns3:cad>43</ns3:cad>
          </ns3:TrackPointExtension>
        </extensions>
      </trkpt>
      <trkpt lat="43.45644981600344181060791015625" lon="1.43795982934534549713134765625">
        <ele>183.600006103515625</ele>
        <time>2026-08-05T06:23:53.000Z</time>
        <extensions>
          <ns3:TrackPointExtension>
            <ns3:hr>80</ns3:hr>
            <ns3:cad>43</ns3:cad>
          </ns3:TrackPointExtension>
        </extensions>
      </trkpt>
      <trkpt lat="43.45644478686153888702392578125" lon="1.43797139637172222137451171875">
        <ele>183.399993896484375</ele>
        <time>2026-08-05T06:23:54.000Z</time>
        <extensions>
          <ns3:TrackPointExtension>
            <ns3:hr>78</ns3:hr>
            <ns3:cad>44</ns3:cad>
          </ns3:TrackPointExtension>
        </extensions>
      </trkpt>
      <trkpt lat="43.45643975771963596343994140625" lon="1.43798522651195526123046875">
        <ele>183.600006103515625</ele>
        <time>2026-08-05T06:23:55.000Z</time>
        <extensions>
          <ns3:TrackPointExtension>
            <ns3:hr>76</ns3:hr>
            <ns3:cad>44</ns3:cad>
          </ns3:TrackPointExtension>
        </extensions>
      </trkpt>
      <trkpt lat="43.45643674023449420928955078125" lon="1.43799955956637859344482421875">
        <ele>183.600006103515625</ele>
        <time>2026-08-05T06:23:56.000Z</time>
        <extensions>
          <ns3:TrackPointExtension>
            <ns3:hr>74</ns3:hr>
            <ns3:cad>44</ns3:cad>
          </ns3:TrackPointExtension>
        </extensions>
      </trkpt>
      <trkpt lat="43.4564307890832424163818359375" lon="1.438009031116962432861328125">
        <ele>183.600006103515625</ele>
        <time>2026-08-05T06:23:57.000Z</time>
        <extensions>
          <ns3:TrackPointExtension>
            <ns3:hr>70</ns3:hr>
            <ns3:cad>44</ns3:cad>
          </ns3:TrackPointExtension>
        </extensions>
      </trkpt>
      <trkpt lat="43.45642752014100551605224609375" lon="1.43802009522914886474609375">
        <ele>183.399993896484375</ele>
        <time>2026-08-05T06:23:58.000Z</time>
        <extensions>
          <ns3:TrackPointExtension>
            <ns3:hr>69</ns3:hr>
            <ns3:cad>44</ns3:cad>
          </ns3:TrackPointExtension>
        </extensions>
      </trkpt>
      <trkpt lat="43.45642467029392719268798828125" lon="1.43803711049258708953857421875">
        <ele>183.399993896484375</ele>
        <time>2026-08-05T06:23:59.000Z</time>
        <extensions>
          <ns3:TrackPointExtension>
            <ns3:hr>69</ns3:hr>
            <ns3:cad>44</ns3:cad>
          </ns3:TrackPointExtension>
        </extensions>
      </trkpt>
      <trkpt lat="43.45642349682748317718505859375" lon="1.438047587871551513671875">
        <ele>183.399993896484375</ele>
        <time>2026-08-05T06:24:00.000Z</time>
        <extensions>
          <ns3:TrackPointExtension>
            <ns3:hr>69</ns3:hr>
            <ns3:cad>43</ns3:cad>
          </ns3:TrackPointExtension>
        </extensions>
      </trkpt>
      <trkpt lat="43.456417210400104522705078125" lon="1.43805605359375476837158203125">
        <ele>183.399993896484375</ele>
        <time>2026-08-05T06:24:01.000Z</time>
        <extensions>
          <ns3:TrackPointExtension>
            <ns3:hr>68</ns3:hr>
            <ns3:cad>43</ns3:cad>
          </ns3:TrackPointExtension>
        </extensions>
      </trkpt>
      <trkpt lat="43.45641142688691616058349609375" lon="1.4380668662488460540771484375">
        <ele>183.399993896484375</ele>
        <time>2026-08-05T06:24:02.000Z</time>
        <extensions>
          <ns3:TrackPointExtension>
            <ns3:hr>68</ns3:hr>
            <ns3:cad>44</ns3:cad>
          </ns3:TrackPointExtension>
        </extensions>
      </trkpt>
      <trkpt lat="43.45640975050628185272216796875" lon="1.43807851709425449371337890625">
        <ele>183.399993896484375</ele>
        <time>2026-08-05T06:24:03.000Z</time>
        <extensions>
          <ns3:TrackPointExtension>
            <ns3:hr>69</ns3:hr>
            <ns3:cad>44</ns3:cad>
          </ns3:TrackPointExtension>
        </extensions>
      </trkpt>
      <trkpt lat="43.456407487392425537109375" lon="1.43809276632964611053466796875">
        <ele>183.399993896484375</ele>
        <time>2026-08-05T06:24:04.000Z</time>
        <extensions>
          <ns3:TrackPointExtension>
            <ns3:hr>69</ns3:hr>
            <ns3:cad>45</ns3:cad>
          </ns3:TrackPointExtension>
        </extensions>
      </trkpt>
      <trkpt lat="43.45640505664050579071044921875" lon="1.43810433335602283477783203125">
        <ele>183.399993896484375</ele>
        <time>2026-08-05T06:24:05.000Z</time>
        <extensions>
          <ns3:TrackPointExtension>
            <ns3:hr>68</ns3:hr>
            <ns3:cad>46</ns3:cad>
          </ns3:TrackPointExtension>
        </extensions>
      </trkpt>
      <trkpt lat="43.45640254206955432891845703125" lon="1.43811623565852642059326171875">
        <ele>183.399993896484375</ele>
        <time>2026-08-05T06:24:06.000Z</time>
        <extensions>
          <ns3:TrackPointExtension>
            <ns3:hr>68</ns3:hr>
            <ns3:cad>46</ns3:cad>
          </ns3:TrackPointExtension>
        </extensions>
      </trkpt>
      <trkpt lat="43.4563999436795711517333984375" lon="1.43813551403582096099853515625">
        <ele>183.399993896484375</ele>
        <time>2026-08-05T06:24:07.000Z</time>
        <extensions>
          <ns3:TrackPointExtension>
            <ns3:hr>68</ns3:hr>
            <ns3:cad>46</ns3:cad>
          </ns3:TrackPointExtension>
        </extensions>
      </trkpt>
      <trkpt lat="43.45639617182314395904541015625" lon="1.4381550438702106475830078125">
        <ele>183.399993896484375</ele>
        <time>2026-08-05T06:24:08.000Z</time>
        <extensions>
          <ns3:TrackPointExtension>
            <ns3:hr>68</ns3:hr>
            <ns3:cad>48</ns3:cad>
          </ns3:TrackPointExtension>
        </extensions>
      </trkpt>
      <trkpt lat="43.45639365725219249725341796875" lon="1.4381677843630313873291015625">
        <ele>183.1999969482421875</ele>
        <time>2026-08-05T06:24:09.000Z</time>
        <extensions>
          <ns3:TrackPointExtension>
            <ns3:hr>68</ns3:hr>
            <ns3:cad>48</ns3:cad>
          </ns3:TrackPointExtension>
        </extensions>
      </trkpt>
      <trkpt lat="43.456391058862209320068359375" lon="1.4381803572177886962890625">
        <ele>183.1999969482421875</ele>
        <time>2026-08-05T06:24:10.000Z</time>
        <extensions>
          <ns3:TrackPointExtension>
            <ns3:hr>69</ns3:hr>
            <ns3:cad>48</ns3:cad>
          </ns3:TrackPointExtension>
        </extensions>
      </trkpt>
      <trkpt lat="43.45638728700578212738037109375" lon="1.43819100223481655120849609375">
        <ele>183.1999969482421875</ele>
        <time>2026-08-05T06:24:11.000Z</time>
        <extensions>
          <ns3:TrackPointExtension>
            <ns3:hr>68</ns3:hr>
            <ns3:cad>48</ns3:cad>
          </ns3:TrackPointExtension>
        </extensions>
      </trkpt>
      <trkpt lat="43.45638711936771869659423828125" lon="1.43820692785084247589111328125">
        <ele>183.1999969482421875</ele>
        <time>2026-08-05T06:24:12.000Z</time>
        <extensions>
          <ns3:TrackPointExtension>
            <ns3:hr>68</ns3:hr>
            <ns3:cad>47</ns3:cad>
          </ns3:TrackPointExtension>
        </extensions>
      </trkpt>
      <trkpt lat="43.45638359896838665008544921875" lon="1.43822402693331241607666015625">
        <ele>183.1999969482421875</ele>
        <time>2026-08-05T06:24:13.000Z</time>
        <extensions>
          <ns3:TrackPointExtension>
            <ns3:hr>68</ns3:hr>
            <ns3:cad>48</ns3:cad>
          </ns3:TrackPointExtension>
        </extensions>
      </trkpt>
      <trkpt lat="43.456380330026149749755859375" lon="1.43823592923581600189208984375">
        <ele>183.1999969482421875</ele>
        <time>2026-08-05T06:24:14.000Z</time>
        <extensions>
          <ns3:TrackPointExtension>
            <ns3:hr>69</ns3:hr>
            <ns3:cad>48</ns3:cad>
          </ns3:TrackPointExtension>
        </extensions>
      </trkpt>
      <trkpt lat="43.45637605525553226470947265625" lon="1.43824531696736812591552734375">
        <ele>183</ele>
        <time>2026-08-05T06:24:15.000Z</time>
        <extensions>
          <ns3:TrackPointExtension>
            <ns3:hr>69</ns3:hr>
            <ns3:cad>48</ns3:cad>
          </ns3:TrackPointExtension>
        </extensions>
      </trkpt>
      <trkpt lat="43.45637328922748565673828125" lon="1.43825923092663288116455078125">
        <ele>183</ele>
        <time>2026-08-05T06:24:16.000Z</time>
        <extensions>
          <ns3:TrackPointExtension>
            <ns3:hr>69</ns3:hr>
            <ns3:cad>48</ns3:cad>
          </ns3:TrackPointExtension>
        </extensions>
      </trkpt>
      <trkpt lat="43.45636918209493160247802734375" lon="1.4382757432758808135986328125">
        <ele>183</ele>
        <time>2026-08-05T06:24:17.000Z</time>
        <extensions>
          <ns3:TrackPointExtension>
            <ns3:hr>69</ns3:hr>
            <ns3:cad>47</ns3:cad>
          </ns3:TrackPointExtension>
        </extensions>
      </trkpt>
      <trkpt lat="43.456367589533329010009765625" lon="1.43829108215868473052978515625">
        <ele>183</ele>
        <time>2026-08-05T06:24:18.000Z</time>
        <extensions>
          <ns3:TrackPointExtension>
            <ns3:hr>69</ns3:hr>
            <ns3:cad>47</ns3:cad>
          </ns3:TrackPointExtension>
        </extensions>
      </trkpt>
      <trkpt lat="43.45636331476271152496337890625" lon="1.43830432556569576263427734375">
        <ele>183</ele>
        <time>2026-08-05T06:24:19.000Z</time>
        <extensions>
          <ns3:TrackPointExtension>
            <ns3:hr>70</ns3:hr>
            <ns3:cad>47</ns3:cad>
          </ns3:TrackPointExtension>
        </extensions>
      </trkpt>
      <trkpt lat="43.4563633985817432403564453125" lon="1.438316144049167633056640625">
        <ele>183</ele>
        <time>2026-08-05T06:24:20.000Z</time>
        <extensions>
          <ns3:TrackPointExtension>
            <ns3:hr>70</ns3:hr>
            <ns3:cad>47</ns3:cad>
          </ns3:TrackPointExtension>
        </extensions>
      </trkpt>
      <trkpt lat="43.45636063255369663238525390625" lon="1.438333578407764434814453125">
        <ele>183</ele>
        <time>2026-08-05T06:24:21.000Z</time>
        <extensions>
          <ns3:TrackPointExtension>
            <ns3:hr>70</ns3:hr>
            <ns3:cad>47</ns3:cad>
          </ns3:TrackPointExtension>
        </extensions>
      </trkpt>
      <trkpt lat="43.45635828562080860137939453125" lon="1.43835159949958324432373046875">
        <ele>183</ele>
        <time>2026-08-05T06:24:22.000Z</time>
        <extensions>
          <ns3:TrackPointExtension>
            <ns3:hr>70</ns3:hr>
            <ns3:cad>47</ns3:cad>
          </ns3:TrackPointExtension>
        </extensions>
      </trkpt>
      <trkpt lat="43.45635644160211086273193359375" lon="1.43836836330592632293701171875">
        <ele>183</ele>
        <time>2026-08-05T06:24:23.000Z</time>
        <extensions>
          <ns3:TrackPointExtension>
            <ns3:hr>70</ns3:hr>
            <ns3:cad>47</ns3:cad>
          </ns3:TrackPointExtension>
        </extensions>
      </trkpt>
      <trkpt lat="43.4563513286411762237548828125" lon="1.438379175961017608642578125">
        <ele>183</ele>
        <time>2026-08-05T06:24:24.000Z</time>
        <extensions>
          <ns3:TrackPointExtension>
            <ns3:hr>70</ns3:hr>
            <ns3:cad>47</ns3:cad>
          </ns3:TrackPointExtension>
        </extensions>
      </trkpt>
      <trkpt lat="43.45634940080344676971435546875" lon="1.43838814459741115570068359375">
        <ele>183</ele>
        <time>2026-08-05T06:24:25.000Z</time>
        <extensions>
          <ns3:TrackPointExtension>
            <ns3:hr>70</ns3:hr>
            <ns3:cad>47</ns3:cad>
          </ns3:TrackPointExtension>
        </extensions>
      </trkpt>
      <trkpt lat="43.45634780824184417724609375" lon="1.4384041540324687957763671875">
        <ele>183</ele>
        <time>2026-08-05T06:24:26.000Z</time>
        <extensions>
          <ns3:TrackPointExtension>
            <ns3:hr>70</ns3:hr>
            <ns3:cad>48</ns3:cad>
          </ns3:TrackPointExtension>
        </extensions>
      </trkpt>
      <trkpt lat="43.45634554512798786163330078125" lon="1.43842200748622417449951171875">
        <ele>183</ele>
        <time>2026-08-05T06:24:27.000Z</time>
        <extensions>
          <ns3:TrackPointExtension>
            <ns3:hr>69</ns3:hr>
            <ns3:cad>47</ns3:cad>
          </ns3:TrackPointExtension>
        </extensions>
      </trkpt>
      <trkpt lat="43.45634353347122669219970703125" lon="1.4384351670742034912109375">
        <ele>182.8000030517578125</ele>
        <time>2026-08-05T06:24:28.000Z</time>
        <extensions>
          <ns3:TrackPointExtension>
            <ns3:hr>70</ns3:hr>
            <ns3:cad>47</ns3:cad>
          </ns3:TrackPointExtension>
        </extensions>
      </trkpt>
      <trkpt lat="43.45634336583316326141357421875" lon="1.4384467341005802154541015625">
        <ele>182.8000030517578125</ele>
        <time>2026-08-05T06:24:29.000Z</time>
        <extensions>
          <ns3:TrackPointExtension>
            <ns3:hr>70</ns3:hr>
            <ns3:cad>47</ns3:cad>
          </ns3:TrackPointExtension>
        </extensions>
      </trkpt>
      <trkpt lat="43.45634378492832183837890625" lon="1.43846207298338413238525390625">
        <ele>182.8000030517578125</ele>
        <time>2026-08-05T06:24:30.000Z</time>
        <extensions>
          <ns3:TrackPointExtension>
            <ns3:hr>70</ns3:hr>
            <ns3:cad>48</ns3:cad>
          </ns3:TrackPointExtension>
        </extensions>
      </trkpt>
      <trkpt lat="43.45633984543383121490478515625" lon="1.43847741186618804931640625">
        <ele>182.8000030517578125</ele>
        <time>2026-08-05T06:24:31.000Z</time>
        <extensions>
          <ns3:TrackPointExtension>
            <ns3:hr>69</ns3:hr>
            <ns3:cad>48</ns3:cad>
          </ns3:TrackPointExtension>
        </extensions>
      </trkpt>
      <trkpt lat="43.45633749850094318389892578125" lon="1.4384899847209453582763671875">
        <ele>182.600006103515625</ele>
        <time>2026-08-05T06:24:32.000Z</time>
        <extensions>
          <ns3:TrackPointExtension>
            <ns3:hr>69</ns3:hr>
            <ns3:cad>48</ns3:cad>
          </ns3:TrackPointExtension>
        </extensions>
      </trkpt>
      <trkpt lat="43.4563332237303256988525390625" lon="1.4385027252137660980224609375">
        <ele>182.600006103515625</ele>
        <time>2026-08-05T06:24:33.000Z</time>
        <extensions>
          <ns3:TrackPointExtension>
            <ns3:hr>69</ns3:hr>
            <ns3:cad>48</ns3:cad>
          </ns3:TrackPointExtension>
        </extensions>
      </trkpt>
      <trkpt lat="43.45633029006421566009521484375" lon="1.4385188184678554534912109375">
        <ele>182.600006103515625</ele>
        <time>2026-08-05T06:24:34.000Z</time>
        <extensions>
          <ns3:TrackPointExtension>
            <ns3:hr>69</ns3:hr>
            <ns3:cad>48</ns3:cad>
          </ns3:TrackPointExtension>
        </extensions>
      </trkpt>
      <trkpt lat="43.4563278593122959136962890625" lon="1.438530050218105316162109375">
        <ele>182.600006103515625</ele>
        <time>2026-08-05T06:24:35.000Z</time>
        <extensions>
          <ns3:TrackPointExtension>
            <ns3:hr>69</ns3:hr>
            <ns3:cad>48</ns3:cad>
          </ns3:TrackPointExtension>
        </extensions>
      </trkpt>
      <trkpt lat="43.4563281945884227752685546875" lon="1.4385432936251163482666015625">
        <ele>182.600006103515625</ele>
        <time>2026-08-05T06:24:36.000Z</time>
        <extensions>
          <ns3:TrackPointExtension>
            <ns3:hr>69</ns3:hr>
            <ns3:cad>47</ns3:cad>
          </ns3:TrackPointExtension>
        </extensions>
      </trkpt>
      <trkpt lat="43.45632676966488361358642578125" lon="1.43856215290725231170654296875">
        <ele>182.600006103515625</ele>
        <time>2026-08-05T06:24:37.000Z</time>
        <extensions>
          <ns3:TrackPointExtension>
            <ns3:hr>68</ns3:hr>
            <ns3:cad>47</ns3:cad>
          </ns3:TrackPointExtension>
        </extensions>
      </trkpt>
      <trkpt lat="43.45632375217974185943603515625" lon="1.4385707862675189971923828125">
        <ele>182.600006103515625</ele>
        <time>2026-08-05T06:24:38.000Z</time>
        <extensions>
          <ns3:TrackPointExtension>
            <ns3:hr>68</ns3:hr>
            <ns3:cad>49</ns3:cad>
          </ns3:TrackPointExtension>
        </extensions>
      </trkpt>
      <trkpt lat="43.45632073469460010528564453125" lon="1.438584029674530029296875">
        <ele>182.399993896484375</ele>
        <time>2026-08-05T06:24:39.000Z</time>
        <extensions>
          <ns3:TrackPointExtension>
            <ns3:hr>68</ns3:hr>
            <ns3:cad>49</ns3:cad>
          </ns3:TrackPointExtension>
        </extensions>
      </trkpt>
      <trkpt lat="43.45631897449493408203125" lon="1.43860121257603168487548828125">
        <ele>182.399993896484375</ele>
        <time>2026-08-05T06:24:40.000Z</time>
        <extensions>
          <ns3:TrackPointExtension>
            <ns3:hr>68</ns3:hr>
            <ns3:cad>49</ns3:cad>
          </ns3:TrackPointExtension>
        </extensions>
      </trkpt>
      <trkpt lat="43.4563176333904266357421875" lon="1.43861646763980388641357421875">
        <ele>182.1999969482421875</ele>
        <time>2026-08-05T06:24:41.000Z</time>
        <extensions>
          <ns3:TrackPointExtension>
            <ns3:hr>68</ns3:hr>
            <ns3:cad>48</ns3:cad>
          </ns3:TrackPointExtension>
        </extensions>
      </trkpt>
      <trkpt lat="43.4563137777149677276611328125" lon="1.43862468190491199493408203125">
        <ele>182.1999969482421875</ele>
        <time>2026-08-05T06:24:42.000Z</time>
        <extensions>
          <ns3:TrackPointExtension>
            <ns3:hr>68</ns3:hr>
            <ns3:cad>47</ns3:cad>
          </ns3:TrackPointExtension>
        </extensions>
      </trkpt>
      <trkpt lat="43.45630950294435024261474609375" lon="1.43863406963646411895751953125">
        <ele>182.1999969482421875</ele>
        <time>2026-08-05T06:24:43.000Z</time>
        <extensions>
          <ns3:TrackPointExtension>
            <ns3:hr>67</ns3:hr>
            <ns3:cad>46</ns3:cad>
          </ns3:TrackPointExtension>
        </extensions>
      </trkpt>
      <trkpt lat="43.456309922039508819580078125" lon="1.43864882178604602813720703125">
        <ele>182.1999969482421875</ele>
        <time>2026-08-05T06:24:44.000Z</time>
        <extensions>
          <ns3:TrackPointExtension>
            <ns3:hr>67</ns3:hr>
            <ns3:cad>46</ns3:cad>
          </ns3:TrackPointExtension>
        </extensions>
      </trkpt>
      <trkpt lat="43.45630824565887451171875" lon="1.43866340629756450653076171875">
        <ele>182.1999969482421875</ele>
        <time>2026-08-05T06:24:45.000Z</time>
        <extensions>
          <ns3:TrackPointExtension>
            <ns3:hr>67</ns3:hr>
            <ns3:cad>46</ns3:cad>
          </ns3:TrackPointExtension>
        </extensions>
      </trkpt>
      <trkpt lat="43.45630665309727191925048828125" lon="1.438679583370685577392578125">
        <ele>182.1999969482421875</ele>
        <time>2026-08-05T06:24:46.000Z</time>
        <extensions>
          <ns3:TrackPointExtension>
            <ns3:hr>67</ns3:hr>
            <ns3:cad>46</ns3:cad>
          </ns3:TrackPointExtension>
        </extensions>
      </trkpt>
      <trkpt lat="43.45630531199276447296142578125" lon="1.4386941678822040557861328125">
        <ele>182.1999969482421875</ele>
        <time>2026-08-05T06:24:47.000Z</time>
        <extensions>
          <ns3:TrackPointExtension>
            <ns3:hr>67</ns3:hr>
            <ns3:cad>46</ns3:cad>
          </ns3:TrackPointExtension>
        </extensions>
      </trkpt>
      <trkpt lat="43.4563040547072887420654296875" lon="1.43870263360440731048583984375">
        <ele>182.1999969482421875</ele>
        <time>2026-08-05T06:24:48.000Z</time>
        <extensions>
          <ns3:TrackPointExtension>
            <ns3:hr>66</ns3:hr>
            <ns3:cad>47</ns3:cad>
          </ns3:TrackPointExtension>
        </extensions>
      </trkpt>
      <trkpt lat="43.45630112104117870330810546875" lon="1.4387166313827037811279296875">
        <ele>182</ele>
        <time>2026-08-05T06:24:49.000Z</time>
        <extensions>
          <ns3:TrackPointExtension>
            <ns3:hr>66</ns3:hr>
            <ns3:cad>47</ns3:cad>
          </ns3:TrackPointExtension>
        </extensions>
      </trkpt>
      <trkpt lat="43.4562983550131320953369140625" lon="1.43873079679906368255615234375">
        <ele>182</ele>
        <time>2026-08-05T06:24:50.000Z</time>
        <extensions>
          <ns3:TrackPointExtension>
            <ns3:hr>66</ns3:hr>
            <ns3:cad>47</ns3:cad>
          </ns3:TrackPointExtension>
        </extensions>
      </trkpt>
      <trkpt lat="43.4562970139086246490478515625" lon="1.43874404020607471466064453125">
        <ele>182</ele>
        <time>2026-08-05T06:24:51.000Z</time>
        <extensions>
          <ns3:TrackPointExtension>
            <ns3:hr>66</ns3:hr>
            <ns3:cad>48</ns3:cad>
          </ns3:TrackPointExtension>
        </extensions>
      </trkpt>
      <trkpt lat="43.4562943316996097564697265625" lon="1.43875946290791034698486328125">
        <ele>181.8000030517578125</ele>
        <time>2026-08-05T06:24:52.000Z</time>
        <extensions>
          <ns3:TrackPointExtension>
            <ns3:hr>66</ns3:hr>
            <ns3:cad>50</ns3:cad>
          </ns3:TrackPointExtension>
        </extensions>
      </trkpt>
      <trkpt lat="43.456293158233165740966796875" lon="1.438771784305572509765625">
        <ele>181.8000030517578125</ele>
        <time>2026-08-05T06:24:53.000Z</time>
        <extensions>
          <ns3:TrackPointExtension>
            <ns3:hr>66</ns3:hr>
            <ns3:cad>51</ns3:cad>
          </ns3:TrackPointExtension>
        </extensions>
      </trkpt>
      <trkpt lat="43.4562916494905948638916015625" lon="1.43878519535064697265625">
        <ele>181.8000030517578125</ele>
        <time>2026-08-05T06:24:54.000Z</time>
        <extensions>
          <ns3:TrackPointExtension>
            <ns3:hr>66</ns3:hr>
            <ns3:cad>51</ns3:cad>
          </ns3:TrackPointExtension>
        </extensions>
      </trkpt>
      <trkpt lat="43.45628871582448482513427734375" lon="1.438800953328609466552734375">
        <ele>181.600006103515625</ele>
        <time>2026-08-05T06:24:55.000Z</time>
        <extensions>
          <ns3:TrackPointExtension>
            <ns3:hr>67</ns3:hr>
            <ns3:cad>51</ns3:cad>
          </ns3:TrackPointExtension>
        </extensions>
      </trkpt>
      <trkpt lat="43.45628553070127964019775390625" lon="1.4388168789446353912353515625">
        <ele>181.600006103515625</ele>
        <time>2026-08-05T06:24:56.000Z</time>
        <extensions>
          <ns3:TrackPointExtension>
            <ns3:hr>66</ns3:hr>
            <ns3:cad>50</ns3:cad>
          </ns3:TrackPointExtension>
        </extensions>
      </trkpt>
      <trkpt lat="43.4562846086919307708740234375" lon="1.4388299547135829925537109375">
        <ele>181.600006103515625</ele>
        <time>2026-08-05T06:24:57.000Z</time>
        <extensions>
          <ns3:TrackPointExtension>
            <ns3:hr>67</ns3:hr>
            <ns3:cad>50</ns3:cad>
          </ns3:TrackPointExtension>
        </extensions>
      </trkpt>
      <trkpt lat="43.4562829323112964630126953125" lon="1.43884093500673770904541015625">
        <ele>181.600006103515625</ele>
        <time>2026-08-05T06:24:58.000Z</time>
        <extensions>
          <ns3:TrackPointExtension>
            <ns3:hr>67</ns3:hr>
            <ns3:cad>49</ns3:cad>
          </ns3:TrackPointExtension>
        </extensions>
      </trkpt>
      <trkpt lat="43.45628251321613788604736328125" lon="1.43885166384279727935791015625">
        <ele>181.600006103515625</ele>
        <time>2026-08-05T06:24:59.000Z</time>
        <extensions>
          <ns3:TrackPointExtension>
            <ns3:hr>66</ns3:hr>
            <ns3:cad>49</ns3:cad>
          </ns3:TrackPointExtension>
        </extensions>
      </trkpt>
      <trkpt lat="43.4562799148261547088623046875" lon="1.4388715289533138275146484375">
        <ele>181.399993896484375</ele>
        <time>2026-08-05T06:25:00.000Z</time>
        <extensions>
          <ns3:TrackPointExtension>
            <ns3:hr>66</ns3:hr>
            <ns3:cad>49</ns3:cad>
          </ns3:TrackPointExtension>
        </extensions>
      </trkpt>
      <trkpt lat="43.4562738798558712005615234375" lon="1.43888586200773715972900390625">
        <ele>181.399993896484375</ele>
        <time>2026-08-05T06:25:01.000Z</time>
        <extensions>
          <ns3:TrackPointExtension>
            <ns3:hr>66</ns3:hr>
            <ns3:cad>49</ns3:cad>
          </ns3:TrackPointExtension>
        </extensions>
      </trkpt>
      <trkpt lat="43.45627027563750743865966796875" lon="1.438896842300891876220703125">
        <ele>181.399993896484375</ele>
        <time>2026-08-05T06:25:02.000Z</time>
        <extensions>
          <ns3:TrackPointExtension>
            <ns3:hr>66</ns3:hr>
            <ns3:cad>48</ns3:cad>
          </ns3:TrackPointExtension>
        </extensions>
      </trkpt>
      <trkpt lat="43.456268012523651123046875" lon="1.438907571136951446533203125">
        <ele>181.399993896484375</ele>
        <time>2026-08-05T06:25:03.000Z</time>
        <extensions>
          <ns3:TrackPointExtension>
            <ns3:hr>67</ns3:hr>
            <ns3:cad>48</ns3:cad>
          </ns3:TrackPointExtension>
        </extensions>
      </trkpt>
      <trkpt lat="43.4562668390572071075439453125" lon="1.43891838379204273223876953125">
        <ele>181.1999969482421875</ele>
        <time>2026-08-05T06:25:04.000Z</time>
        <extensions>
          <ns3:TrackPointExtension>
            <ns3:hr>68</ns3:hr>
            <ns3:cad>48</ns3:cad>
          </ns3:TrackPointExtension>
        </extensions>
      </trkpt>
      <trkpt lat="43.45626323483884334564208984375" lon="1.43893497996032238006591796875">
        <ele>181.1999969482421875</ele>
        <time>2026-08-05T06:25:05.000Z</time>
        <extensions>
          <ns3:TrackPointExtension>
            <ns3:hr>68</ns3:hr>
            <ns3:cad>48</ns3:cad>
          </ns3:TrackPointExtension>
        </extensions>
      </trkpt>
      <trkpt lat="43.45626105554401874542236328125" lon="1.4389493130147457122802734375">
        <ele>181.1999969482421875</ele>
        <time>2026-08-05T06:25:06.000Z</time>
        <extensions>
          <ns3:TrackPointExtension>
            <ns3:hr>69</ns3:hr>
            <ns3:cad>48</ns3:cad>
          </ns3:TrackPointExtension>
        </extensions>
      </trkpt>
      <trkpt lat="43.45625736750662326812744140625" lon="1.43896096386015415191650390625">
        <ele>181</ele>
        <time>2026-08-05T06:25:07.000Z</time>
        <extensions>
          <ns3:TrackPointExtension>
            <ns3:hr>69</ns3:hr>
            <ns3:cad>48</ns3:cad>
          </ns3:TrackPointExtension>
        </extensions>
      </trkpt>
      <trkpt lat="43.456257618963718414306640625" lon="1.43897118978202342987060546875">
        <ele>181</ele>
        <time>2026-08-05T06:25:08.000Z</time>
        <extensions>
          <ns3:TrackPointExtension>
            <ns3:hr>70</ns3:hr>
            <ns3:cad>48</ns3:cad>
          </ns3:TrackPointExtension>
        </extensions>
      </trkpt>
      <trkpt lat="43.4562561102211475372314453125" lon="1.43899046815931797027587890625">
        <ele>181</ele>
        <time>2026-08-05T06:25:09.000Z</time>
        <extensions>
          <ns3:TrackPointExtension>
            <ns3:hr>70</ns3:hr>
            <ns3:cad>47</ns3:cad>
          </ns3:TrackPointExtension>
        </extensions>
      </trkpt>
      <trkpt lat="43.456256277859210968017578125" lon="1.43901075236499309539794921875">
        <ele>181</ele>
        <time>2026-08-05T06:25:10.000Z</time>
        <extensions>
          <ns3:TrackPointExtension>
            <ns3:hr>71</ns3:hr>
            <ns3:cad>47</ns3:cad>
          </ns3:TrackPointExtension>
        </extensions>
      </trkpt>
      <trkpt lat="43.456254936754703521728515625" lon="1.43902734853327274322509765625">
        <ele>181</ele>
        <time>2026-08-05T06:25:11.000Z</time>
        <extensions>
          <ns3:TrackPointExtension>
            <ns3:hr>71</ns3:hr>
            <ns3:cad>47</ns3:cad>
          </ns3:TrackPointExtension>
        </extensions>
      </trkpt>
      <trkpt lat="43.45625401474535465240478515625" lon="1.43904059194028377532958984375">
        <ele>180.8000030517578125</ele>
        <time>2026-08-05T06:25:12.000Z</time>
        <extensions>
          <ns3:TrackPointExtension>
            <ns3:hr>70</ns3:hr>
            <ns3:cad>47</ns3:cad>
          </ns3:TrackPointExtension>
        </extensions>
      </trkpt>
      <trkpt lat="43.45624915324151515960693359375" lon="1.4390498958528041839599609375">
        <ele>180.8000030517578125</ele>
        <time>2026-08-05T06:25:13.000Z</time>
        <extensions>
          <ns3:TrackPointExtension>
            <ns3:hr>70</ns3:hr>
            <ns3:cad>48</ns3:cad>
          </ns3:TrackPointExtension>
        </extensions>
      </trkpt>
      <trkpt lat="43.45624714158475399017333984375" lon="1.43906204961240291595458984375">
        <ele>180.8000030517578125</ele>
        <time>2026-08-05T06:25:14.000Z</time>
        <extensions>
          <ns3:TrackPointExtension>
            <ns3:hr>69</ns3:hr>
            <ns3:cad>48</ns3:cad>
          </ns3:TrackPointExtension>
        </extensions>
      </trkpt>
      <trkpt lat="43.45624596811830997467041015625" lon="1.43908116035163402557373046875">
        <ele>180.8000030517578125</ele>
        <time>2026-08-05T06:25:15.000Z</time>
        <extensions>
          <ns3:TrackPointExtension>
            <ns3:hr>69</ns3:hr>
            <ns3:cad>49</ns3:cad>
          </ns3:TrackPointExtension>
        </extensions>
      </trkpt>
      <trkpt lat="43.456245549023151397705078125" lon="1.439100690186023712158203125">
        <ele>180.600006103515625</ele>
        <time>2026-08-05T06:25:16.000Z</time>
        <extensions>
          <ns3:TrackPointExtension>
            <ns3:hr>69</ns3:hr>
            <ns3:cad>49</ns3:cad>
          </ns3:TrackPointExtension>
        </extensions>
      </trkpt>
      <trkpt lat="43.4562425315380096435546875" lon="1.439115107059478759765625">
        <ele>180.600006103515625</ele>
        <time>2026-08-05T06:25:17.000Z</time>
        <extensions>
          <ns3:TrackPointExtension>
            <ns3:hr>69</ns3:hr>
            <ns3:cad>49</ns3:cad>
          </ns3:TrackPointExtension>
        </extensions>
      </trkpt>
      <trkpt lat="43.45623808912932872772216796875" lon="1.43912675790488719940185546875">
        <ele>180.600006103515625</ele>
        <time>2026-08-05T06:25:18.000Z</time>
        <extensions>
          <ns3:TrackPointExtension>
            <ns3:hr>69</ns3:hr>
            <ns3:cad>49</ns3:cad>
          </ns3:TrackPointExtension>
        </extensions>
      </trkpt>
      <trkpt lat="43.45623658038675785064697265625" lon="1.4391380734741687774658203125">
        <ele>180.600006103515625</ele>
        <time>2026-08-05T06:25:19.000Z</time>
        <extensions>
          <ns3:TrackPointExtension>
            <ns3:hr>68</ns3:hr>
            <ns3:cad>48</ns3:cad>
          </ns3:TrackPointExtension>
        </extensions>
      </trkpt>
      <trkpt lat="43.456234149634838104248046875" lon="1.4391575194895267486572265625">
        <ele>180.600006103515625</ele>
        <time>2026-08-05T06:25:20.000Z</time>
        <extensions>
          <ns3:TrackPointExtension>
            <ns3:hr>68</ns3:hr>
            <ns3:cad>48</ns3:cad>
          </ns3:TrackPointExtension>
        </extensions>
      </trkpt>
      <trkpt lat="43.45623641274869441986083984375" lon="1.43917755223810672760009765625">
        <ele>180.399993896484375</ele>
        <time>2026-08-05T06:25:21.000Z</time>
        <extensions>
          <ns3:TrackPointExtension>
            <ns3:hr>68</ns3:hr>
            <ns3:cad>48</ns3:cad>
          </ns3:TrackPointExtension>
        </extensions>
      </trkpt>
      <trkpt lat="43.4562366642057895660400390625" lon="1.43918861635029315948486328125">
        <ele>180.399993896484375</ele>
        <time>2026-08-05T06:25:22.000Z</time>
        <extensions>
          <ns3:TrackPointExtension>
            <ns3:hr>67</ns3:hr>
            <ns3:cad>48</ns3:cad>
          </ns3:TrackPointExtension>
        </extensions>
      </trkpt>
      <trkpt lat="43.456233479082584381103515625" lon="1.43920185975730419158935546875">
        <ele>180.399993896484375</ele>
        <time>2026-08-05T06:25:23.000Z</time>
        <extensions>
          <ns3:TrackPointExtension>
            <ns3:hr>67</ns3:hr>
            <ns3:cad>48</ns3:cad>
          </ns3:TrackPointExtension>
        </extensions>
      </trkpt>
      <trkpt lat="43.45622937195003032684326171875" lon="1.4392156898975372314453125">
        <ele>180.399993896484375</ele>
        <time>2026-08-05T06:25:24.000Z</time>
        <extensions>
          <ns3:TrackPointExtension>
            <ns3:hr>67</ns3:hr>
            <ns3:cad>48</ns3:cad>
          </ns3:TrackPointExtension>
        </extensions>
      </trkpt>
      <trkpt lat="43.45622618682682514190673828125" lon="1.439231447875499725341796875">
        <ele>180.399993896484375</ele>
        <time>2026-08-05T06:25:25.000Z</time>
        <extensions>
          <ns3:TrackPointExtension>
            <ns3:hr>66</ns3:hr>
            <ns3:cad>48</ns3:cad>
          </ns3:TrackPointExtension>
        </extensions>
      </trkpt>
      <trkpt lat="43.45622451044619083404541015625" lon="1.439247541129589080810546875">
        <ele>180.399993896484375</ele>
        <time>2026-08-05T06:25:26.000Z</time>
        <extensions>
          <ns3:TrackPointExtension>
            <ns3:hr>66</ns3:hr>
            <ns3:cad>47</ns3:cad>
          </ns3:TrackPointExtension>
        </extensions>
      </trkpt>
      <trkpt lat="43.45622266642749309539794921875" lon="1.43926338292658329010009765625">
        <ele>180.1999969482421875</ele>
        <time>2026-08-05T06:25:27.000Z</time>
        <extensions>
          <ns3:TrackPointExtension>
            <ns3:hr>66</ns3:hr>
            <ns3:cad>47</ns3:cad>
          </ns3:TrackPointExtension>
        </extensions>
      </trkpt>
      <trkpt lat="43.4562222473323345184326171875" lon="1.4392765425145626068115234375">
        <ele>180.1999969482421875</ele>
        <time>2026-08-05T06:25:28.000Z</time>
        <extensions>
          <ns3:TrackPointExtension>
            <ns3:hr>66</ns3:hr>
            <ns3:cad>48</ns3:cad>
          </ns3:TrackPointExtension>
        </extensions>
      </trkpt>
      <trkpt lat="43.4562215767800807952880859375" lon="1.43928316421806812286376953125">
        <ele>180.1999969482421875</ele>
        <time>2026-08-05T06:25:29.000Z</time>
        <extensions>
          <ns3:TrackPointExtension>
            <ns3:hr>66</ns3:hr>
            <ns3:cad>48</ns3:cad>
          </ns3:TrackPointExtension>
        </extensions>
      </trkpt>
      <trkpt lat="43.45622048713266849517822265625" lon="1.43930110149085521697998046875">
        <ele>180</ele>
        <time>2026-08-05T06:25:30.000Z</time>
        <extensions>
          <ns3:TrackPointExtension>
            <ns3:hr>65</ns3:hr>
            <ns3:cad>48</ns3:cad>
          </ns3:TrackPointExtension>
        </extensions>
      </trkpt>
      <trkpt lat="43.4562192298471927642822265625" lon="1.43931618891656398773193359375">
        <ele>180</ele>
        <time>2026-08-05T06:25:31.000Z</time>
        <extensions>
          <ns3:TrackPointExtension>
            <ns3:hr>65</ns3:hr>
            <ns3:cad>47</ns3:cad>
          </ns3:TrackPointExtension>
        </extensions>
      </trkpt>
      <trkpt lat="43.4562182240188121795654296875" lon="1.4393291808664798736572265625">
        <ele>180</ele>
        <time>2026-08-05T06:25:32.000Z</time>
        <extensions>
          <ns3:TrackPointExtension>
            <ns3:hr>65</ns3:hr>
            <ns3:cad>47</ns3:cad>
          </ns3:TrackPointExtension>
        </extensions>
      </trkpt>
      <trkpt lat="43.4562158770859241485595703125" lon="1.43934200517833232879638671875">
        <ele>179.8000030517578125</ele>
        <time>2026-08-05T06:25:33.000Z</time>
        <extensions>
          <ns3:TrackPointExtension>
            <ns3:hr>65</ns3:hr>
            <ns3:cad>47</ns3:cad>
          </ns3:TrackPointExtension>
        </extensions>
      </trkpt>
      <trkpt lat="43.45621394924819469451904296875" lon="1.4393549971282482147216796875">
        <ele>179.8000030517578125</ele>
        <time>2026-08-05T06:25:34.000Z</time>
        <extensions>
          <ns3:TrackPointExtension>
            <ns3:hr>65</ns3:hr>
            <ns3:cad>47</ns3:cad>
          </ns3:TrackPointExtension>
        </extensions>
      </trkpt>
      <trkpt lat="43.45621562562882900238037109375" lon="1.43937134183943271636962890625">
        <ele>179.8000030517578125</ele>
        <time>2026-08-05T06:25:35.000Z</time>
        <extensions>
          <ns3:TrackPointExtension>
            <ns3:hr>64</ns3:hr>
            <ns3:cad>48</ns3:cad>
          </ns3:TrackPointExtension>
        </extensions>
      </trkpt>
      <trkpt lat="43.45621562562882900238037109375" lon="1.4393881894648075103759765625">
        <ele>179.8000030517578125</ele>
        <time>2026-08-05T06:25:36.000Z</time>
        <extensions>
          <ns3:TrackPointExtension>
            <ns3:hr>64</ns3:hr>
            <ns3:cad>49</ns3:cad>
          </ns3:TrackPointExtension>
        </extensions>
      </trkpt>
      <trkpt lat="43.4562155418097972869873046875" lon="1.4394034445285797119140625">
        <ele>179.8000030517578125</ele>
        <time>2026-08-05T06:25:37.000Z</time>
        <extensions>
          <ns3:TrackPointExtension>
            <ns3:hr>63</ns3:hr>
            <ns3:cad>49</ns3:cad>
          </ns3:TrackPointExtension>
        </extensions>
      </trkpt>
      <trkpt lat="43.45621327869594097137451171875" lon="1.43941660411655902862548828125">
        <ele>179.8000030517578125</ele>
        <time>2026-08-05T06:25:38.000Z</time>
        <extensions>
          <ns3:TrackPointExtension>
            <ns3:hr>63</ns3:hr>
            <ns3:cad>49</ns3:cad>
          </ns3:TrackPointExtension>
        </extensions>
      </trkpt>
      <trkpt lat="43.45621428452432155609130859375" lon="1.4394302666187286376953125">
        <ele>179.600006103515625</ele>
        <time>2026-08-05T06:25:39.000Z</time>
        <extensions>
          <ns3:TrackPointExtension>
            <ns3:hr>63</ns3:hr>
            <ns3:cad>48</ns3:cad>
          </ns3:TrackPointExtension>
        </extensions>
      </trkpt>
      <trkpt lat="43.456216715276241302490234375" lon="1.4394461922347545623779296875">
        <ele>179.600006103515625</ele>
        <time>2026-08-05T06:25:40.000Z</time>
        <extensions>
          <ns3:TrackPointExtension>
            <ns3:hr>62</ns3:hr>
            <ns3:cad>47</ns3:cad>
          </ns3:TrackPointExtension>
        </extensions>
      </trkpt>
      <trkpt lat="43.4562170505523681640625" lon="1.439460106194019317626953125">
        <ele>179.600006103515625</ele>
        <time>2026-08-05T06:25:41.000Z</time>
        <extensions>
          <ns3:TrackPointExtension>
            <ns3:hr>60</ns3:hr>
            <ns3:cad>47</ns3:cad>
          </ns3:TrackPointExtension>
        </extensions>
      </trkpt>
      <trkpt lat="43.4562170505523681640625" lon="1.4394753612577915191650390625">
        <ele>179.600006103515625</ele>
        <time>2026-08-05T06:25:42.000Z</time>
        <extensions>
          <ns3:TrackPointExtension>
            <ns3:hr>60</ns3:hr>
            <ns3:cad>47</ns3:cad>
          </ns3:TrackPointExtension>
        </extensions>
      </trkpt>
      <trkpt lat="43.45621461980044841766357421875" lon="1.43948701210319995880126953125">
        <ele>179.399993896484375</ele>
        <time>2026-08-05T06:25:43.000Z</time>
        <extensions>
          <ns3:TrackPointExtension>
            <ns3:hr>60</ns3:hr>
            <ns3:cad>47</ns3:cad>
          </ns3:TrackPointExtension>
        </extensions>
      </trkpt>
      <trkpt lat="43.45621311105787754058837890625" lon="1.439499668776988983154296875">
        <ele>179.399993896484375</ele>
        <time>2026-08-05T06:25:44.000Z</time>
        <extensions>
          <ns3:TrackPointExtension>
            <ns3:hr>59</ns3:hr>
            <ns3:cad>47</ns3:cad>
          </ns3:TrackPointExtension>
        </extensions>
      </trkpt>
      <trkpt lat="43.4562108479440212249755859375" lon="1.43951986916363239288330078125">
        <ele>179.399993896484375</ele>
        <time>2026-08-05T06:25:45.000Z</time>
        <extensions>
          <ns3:TrackPointExtension>
            <ns3:hr>59</ns3:hr>
            <ns3:cad>47</ns3:cad>
          </ns3:TrackPointExtension>
        </extensions>
      </trkpt>
      <trkpt lat="43.4562101773917675018310546875" lon="1.43953411839902400970458984375">
        <ele>179.1999969482421875</ele>
        <time>2026-08-05T06:25:46.000Z</time>
        <extensions>
          <ns3:TrackPointExtension>
            <ns3:hr>59</ns3:hr>
            <ns3:cad>48</ns3:cad>
          </ns3:TrackPointExtension>
        </extensions>
      </trkpt>
      <trkpt lat="43.45620699226856231689453125" lon="1.439546607434749603271484375">
        <ele>179.1999969482421875</ele>
        <time>2026-08-05T06:25:47.000Z</time>
        <extensions>
          <ns3:TrackPointExtension>
            <ns3:hr>59</ns3:hr>
            <ns3:cad>49</ns3:cad>
          </ns3:TrackPointExtension>
        </extensions>
      </trkpt>
      <trkpt lat="43.45620657317340373992919921875" lon="1.43955842591822147369384765625">
        <ele>179.1999969482421875</ele>
        <time>2026-08-05T06:25:48.000Z</time>
        <extensions>
          <ns3:TrackPointExtension>
            <ns3:hr>59</ns3:hr>
            <ns3:cad>50</ns3:cad>
          </ns3:TrackPointExtension>
        </extensions>
      </trkpt>
      <trkpt lat="43.4562064893543720245361328125" lon="1.43957711756229400634765625">
        <ele>179.1999969482421875</ele>
        <time>2026-08-05T06:25:49.000Z</time>
        <extensions>
          <ns3:TrackPointExtension>
            <ns3:hr>59</ns3:hr>
            <ns3:cad>50</ns3:cad>
          </ns3:TrackPointExtension>
        </extensions>
      </trkpt>
      <trkpt lat="43.4562048129737377166748046875" lon="1.4395967312157154083251953125">
        <ele>179.1999969482421875</ele>
        <time>2026-08-05T06:25:50.000Z</time>
        <extensions>
          <ns3:TrackPointExtension>
            <ns3:hr>58</ns3:hr>
            <ns3:cad>48</ns3:cad>
          </ns3:TrackPointExtension>
        </extensions>
      </trkpt>
      <trkpt lat="43.456203304231166839599609375" lon="1.43961089663207530975341796875">
        <ele>179.1999969482421875</ele>
        <time>2026-08-05T06:25:51.000Z</time>
        <extensions>
          <ns3:TrackPointExtension>
            <ns3:hr>58</ns3:hr>
            <ns3:cad>47</ns3:cad>
          </ns3:TrackPointExtension>
        </extensions>
      </trkpt>
      <trkpt lat="43.4562021307647228240966796875" lon="1.4396195299923419952392578125">
        <ele>179</ele>
        <time>2026-08-05T06:25:52.000Z</time>
        <extensions>
          <ns3:TrackPointExtension>
            <ns3:hr>58</ns3:hr>
            <ns3:cad>47</ns3:cad>
          </ns3:TrackPointExtension>
        </extensions>
      </trkpt>
      <trkpt lat="43.45619785599410533905029296875" lon="1.43963017500936985015869140625">
        <ele>179</ele>
        <time>2026-08-05T06:25:53.000Z</time>
        <extensions>
          <ns3:TrackPointExtension>
            <ns3:hr>58</ns3:hr>
            <ns3:cad>47</ns3:cad>
          </ns3:TrackPointExtension>
        </extensions>
      </trkpt>
      <trkpt lat="43.456198610365390777587890625" lon="1.4396448433399200439453125">
        <ele>178.8000030517578125</ele>
        <time>2026-08-05T06:25:54.000Z</time>
        <extensions>
          <ns3:TrackPointExtension>
            <ns3:hr>59</ns3:hr>
            <ns3:cad>47</ns3:cad>
          </ns3:TrackPointExtension>
        </extensions>
      </trkpt>
      <trkpt lat="43.456196598708629608154296875" lon="1.43966135568916797637939453125">
        <ele>178.8000030517578125</ele>
        <time>2026-08-05T06:25:55.000Z</time>
        <extensions>
          <ns3:TrackPointExtension>
            <ns3:hr>58</ns3:hr>
            <ns3:cad>47</ns3:cad>
          </ns3:TrackPointExtension>
        </extensions>
      </trkpt>
      <trkpt lat="43.45619433559477329254150390625" lon="1.439676024019718170166015625">
        <ele>178.600006103515625</ele>
        <time>2026-08-05T06:25:56.000Z</time>
        <extensions>
          <ns3:TrackPointExtension>
            <ns3:hr>58</ns3:hr>
            <ns3:cad>48</ns3:cad>
          </ns3:TrackPointExtension>
        </extensions>
      </trkpt>
      <trkpt lat="43.45619366504251956939697265625" lon="1.43968817777931690216064453125">
        <ele>178.399993896484375</ele>
        <time>2026-08-05T06:25:57.000Z</time>
        <extensions>
          <ns3:TrackPointExtension>
            <ns3:hr>58</ns3:hr>
            <ns3:cad>48</ns3:cad>
          </ns3:TrackPointExtension>
        </extensions>
      </trkpt>
      <trkpt lat="43.4561914019286632537841796875" lon="1.439696811139583587646484375">
        <ele>178.399993896484375</ele>
        <time>2026-08-05T06:25:58.000Z</time>
        <extensions>
          <ns3:TrackPointExtension>
            <ns3:hr>58</ns3:hr>
            <ns3:cad>49</ns3:cad>
          </ns3:TrackPointExtension>
        </extensions>
      </trkpt>
      <trkpt lat="43.4561883844435214996337890625" lon="1.4397090487182140350341796875">
        <ele>178.1999969482421875</ele>
        <time>2026-08-05T06:25:59.000Z</time>
        <extensions>
          <ns3:TrackPointExtension>
            <ns3:hr>57</ns3:hr>
            <ns3:cad>49</ns3:cad>
          </ns3:TrackPointExtension>
        </extensions>
      </trkpt>
      <trkpt lat="43.45618561841547489166259765625" lon="1.43972086720168590545654296875">
        <ele>178.1999969482421875</ele>
        <time>2026-08-05T06:26:00.000Z</time>
        <extensions>
          <ns3:TrackPointExtension>
            <ns3:hr>57</ns3:hr>
            <ns3:cad>49</ns3:cad>
          </ns3:TrackPointExtension>
        </extensions>
      </trkpt>
      <trkpt lat="43.456181176006793975830078125" lon="1.43973712809383869171142578125">
        <ele>178</ele>
        <time>2026-08-05T06:26:01.000Z</time>
        <extensions>
          <ns3:TrackPointExtension>
            <ns3:hr>57</ns3:hr>
            <ns3:cad>49</ns3:cad>
          </ns3:TrackPointExtension>
        </extensions>
      </trkpt>
      <trkpt lat="43.45618151128292083740234375" lon="1.43974768929183483123779296875">
        <ele>177.8000030517578125</ele>
        <time>2026-08-05T06:26:02.000Z</time>
        <extensions>
          <ns3:TrackPointExtension>
            <ns3:hr>57</ns3:hr>
            <ns3:cad>49</ns3:cad>
          </ns3:TrackPointExtension>
        </extensions>
      </trkpt>
      <trkpt lat="43.45618151128292083740234375" lon="1.43975724466145038604736328125">
        <ele>177.8000030517578125</ele>
        <time>2026-08-05T06:26:03.000Z</time>
        <extensions>
          <ns3:TrackPointExtension>
            <ns3:hr>58</ns3:hr>
            <ns3:cad>50</ns3:cad>
          </ns3:TrackPointExtension>
        </extensions>
      </trkpt>
      <trkpt lat="43.4561820141971111297607421875" lon="1.43977317027747631072998046875">
        <ele>177.600006103515625</ele>
        <time>2026-08-05T06:26:04.000Z</time>
        <extensions>
          <ns3:TrackPointExtension>
            <ns3:hr>58</ns3:hr>
            <ns3:cad>50</ns3:cad>
          </ns3:TrackPointExtension>
        </extensions>
      </trkpt>
      <trkpt lat="43.4561823494732379913330078125" lon="1.43979127518832683563232421875">
        <ele>177.399993896484375</ele>
        <time>2026-08-05T06:26:05.000Z</time>
        <extensions>
          <ns3:TrackPointExtension>
            <ns3:hr>58</ns3:hr>
            <ns3:cad>50</ns3:cad>
          </ns3:TrackPointExtension>
        </extensions>
      </trkpt>
      <trkpt lat="43.45617958344519138336181640625" lon="1.43980954773724079132080078125">
        <ele>177.399993896484375</ele>
        <time>2026-08-05T06:26:06.000Z</time>
        <extensions>
          <ns3:TrackPointExtension>
            <ns3:hr>58</ns3:hr>
            <ns3:cad>49</ns3:cad>
          </ns3:TrackPointExtension>
        </extensions>
      </trkpt>
      <trkpt lat="43.4561816789209842681884765625" lon="1.43982312642037868499755859375">
        <ele>177.1999969482421875</ele>
        <time>2026-08-05T06:26:07.000Z</time>
        <extensions>
          <ns3:TrackPointExtension>
            <ns3:hr>58</ns3:hr>
            <ns3:cad>49</ns3:cad>
          </ns3:TrackPointExtension>
        </extensions>
      </trkpt>
      <trkpt lat="43.45617874525487422943115234375" lon="1.4398367889225482940673828125">
        <ele>177.1999969482421875</ele>
        <time>2026-08-05T06:26:08.000Z</time>
        <extensions>
          <ns3:TrackPointExtension>
            <ns3:hr>58</ns3:hr>
            <ns3:cad>49</ns3:cad>
          </ns3:TrackPointExtension>
        </extensions>
      </trkpt>
      <trkpt lat="43.456177152693271636962890625" lon="1.43984843976795673370361328125">
        <ele>177</ele>
        <time>2026-08-05T06:26:09.000Z</time>
        <extensions>
          <ns3:TrackPointExtension>
            <ns3:hr>58</ns3:hr>
            <ns3:cad>47</ns3:cad>
          </ns3:TrackPointExtension>
        </extensions>
      </trkpt>
      <trkpt lat="43.45617187209427356719970703125" lon="1.4398589171469211578369140625">
        <ele>176.8000030517578125</ele>
        <time>2026-08-05T06:26:10.000Z</time>
        <extensions>
          <ns3:TrackPointExtension>
            <ns3:hr>57</ns3:hr>
            <ns3:cad>47</ns3:cad>
          </ns3:TrackPointExtension>
        </extensions>
      </trkpt>
      <trkpt lat="43.456169106066226959228515625" lon="1.43987216055393218994140625">
        <ele>176.600006103515625</ele>
        <time>2026-08-05T06:26:11.000Z</time>
        <extensions>
          <ns3:TrackPointExtension>
            <ns3:hr>58</ns3:hr>
            <ns3:cad>48</ns3:cad>
          </ns3:TrackPointExtension>
        </extensions>
      </trkpt>
      <trkpt lat="43.45616533420979976654052734375" lon="1.4398877508938312530517578125">
        <ele>176.600006103515625</ele>
        <time>2026-08-05T06:26:12.000Z</time>
        <extensions>
          <ns3:TrackPointExtension>
            <ns3:hr>58</ns3:hr>
            <ns3:cad>51</ns3:cad>
          </ns3:TrackPointExtension>
        </extensions>
      </trkpt>
      <trkpt lat="43.45616550184786319732666015625" lon="1.43989889882504940032958984375">
        <ele>176.399993896484375</ele>
        <time>2026-08-05T06:26:13.000Z</time>
        <extensions>
          <ns3:TrackPointExtension>
            <ns3:hr>58</ns3:hr>
            <ns3:cad>51</ns3:cad>
          </ns3:TrackPointExtension>
        </extensions>
      </trkpt>
      <trkpt lat="43.45616416074335575103759765625" lon="1.43990895710885524749755859375">
        <ele>176.399993896484375</ele>
        <time>2026-08-05T06:26:14.000Z</time>
        <extensions>
          <ns3:TrackPointExtension>
            <ns3:hr>58</ns3:hr>
            <ns3:cad>51</ns3:cad>
          </ns3:TrackPointExtension>
        </extensions>
      </trkpt>
      <trkpt lat="43.45616005361080169677734375" lon="1.43991784192621707916259765625">
        <ele>176.1999969482421875</ele>
        <time>2026-08-05T06:26:15.000Z</time>
        <extensions>
          <ns3:TrackPointExtension>
            <ns3:hr>59</ns3:hr>
            <ns3:cad>52</ns3:cad>
          </ns3:TrackPointExtension>
        </extensions>
      </trkpt>
      <trkpt lat="43.4561565332114696502685546875" lon="1.439927481114864349365234375">
        <ele>176</ele>
        <time>2026-08-05T06:26:16.000Z</time>
        <extensions>
          <ns3:TrackPointExtension>
            <ns3:hr>59</ns3:hr>
            <ns3:cad>52</ns3:cad>
          </ns3:TrackPointExtension>
        </extensions>
      </trkpt>
      <trkpt lat="43.45615209080278873443603515625" lon="1.4399350248277187347412109375">
        <ele>176</ele>
        <time>2026-08-05T06:26:17.000Z</time>
        <extensions>
          <ns3:TrackPointExtension>
            <ns3:hr>60</ns3:hr>
            <ns3:cad>52</ns3:cad>
          </ns3:TrackPointExtension>
        </extensions>
      </trkpt>
      <trkpt lat="43.45614823512732982635498046875" lon="1.4399467594921588897705078125">
        <ele>175.8000030517578125</ele>
        <time>2026-08-05T06:26:18.000Z</time>
        <extensions>
          <ns3:TrackPointExtension>
            <ns3:hr>61</ns3:hr>
            <ns3:cad>52</ns3:cad>
          </ns3:TrackPointExtension>
        </extensions>
      </trkpt>
      <trkpt lat="43.456141613423824310302734375" lon="1.43996310420334339141845703125">
        <ele>175.600006103515625</ele>
        <time>2026-08-05T06:26:19.000Z</time>
        <extensions>
          <ns3:TrackPointExtension>
            <ns3:hr>61</ns3:hr>
            <ns3:cad>50</ns3:cad>
          </ns3:TrackPointExtension>
        </extensions>
      </trkpt>
      <trkpt lat="43.4561367519199848175048828125" lon="1.43997567705810070037841796875">
        <ele>175.600006103515625</ele>
        <time>2026-08-05T06:26:20.000Z</time>
        <extensions>
          <ns3:TrackPointExtension>
            <ns3:hr>62</ns3:hr>
            <ns3:cad>50</ns3:cad>
          </ns3:TrackPointExtension>
        </extensions>
      </trkpt>
      <trkpt lat="43.45613029785454273223876953125" lon="1.43998757936060428619384765625">
        <ele>175.399993896484375</ele>
        <time>2026-08-05T06:26:21.000Z</time>
        <extensions>
          <ns3:TrackPointExtension>
            <ns3:hr>62</ns3:hr>
            <ns3:cad>51</ns3:cad>
          </ns3:TrackPointExtension>
        </extensions>
      </trkpt>
      <trkpt lat="43.4561250172555446624755859375" lon="1.43999830819666385650634765625">
        <ele>175.399993896484375</ele>
        <time>2026-08-05T06:26:22.000Z</time>
        <extensions>
          <ns3:TrackPointExtension>
            <ns3:hr>62</ns3:hr>
            <ns3:cad>51</ns3:cad>
          </ns3:TrackPointExtension>
        </extensions>
      </trkpt>
      <trkpt lat="43.456119485199451446533203125" lon="1.44001238979399204254150390625">
        <ele>175.1999969482421875</ele>
        <time>2026-08-05T06:26:23.000Z</time>
        <extensions>
          <ns3:TrackPointExtension>
            <ns3:hr>62</ns3:hr>
            <ns3:cad>51</ns3:cad>
          </ns3:TrackPointExtension>
        </extensions>
      </trkpt>
      <trkpt lat="43.4561169706284999847412109375" lon="1.44002663902938365936279296875">
        <ele>175</ele>
        <time>2026-08-05T06:26:24.000Z</time>
        <extensions>
          <ns3:TrackPointExtension>
            <ns3:hr>62</ns3:hr>
            <ns3:cad>51</ns3:cad>
          </ns3:TrackPointExtension>
        </extensions>
      </trkpt>
      <trkpt lat="43.45611101947724819183349609375" lon="1.44003979861736297607421875">
        <ele>174.8000030517578125</ele>
        <time>2026-08-05T06:26:25.000Z</time>
        <extensions>
          <ns3:TrackPointExtension>
            <ns3:hr>62</ns3:hr>
            <ns3:cad>50</ns3:cad>
          </ns3:TrackPointExtension>
        </extensions>
      </trkpt>
      <trkpt lat="43.456103391945362091064453125" lon="1.440048180520534515380859375">
        <ele>174.8000030517578125</ele>
        <time>2026-08-05T06:26:26.000Z</time>
        <extensions>
          <ns3:TrackPointExtension>
            <ns3:hr>62</ns3:hr>
            <ns3:cad>49</ns3:cad>
          </ns3:TrackPointExtension>
        </extensions>
      </trkpt>
      <trkpt lat="43.45609777607023715972900390625" lon="1.44005832262337207794189453125">
        <ele>174.600006103515625</ele>
        <time>2026-08-05T06:26:27.000Z</time>
        <extensions>
          <ns3:TrackPointExtension>
            <ns3:hr>62</ns3:hr>
            <ns3:cad>49</ns3:cad>
          </ns3:TrackPointExtension>
        </extensions>
      </trkpt>
      <trkpt lat="43.4560935012996196746826171875" lon="1.44006988964974880218505859375">
        <ele>174.600006103515625</ele>
        <time>2026-08-05T06:26:28.000Z</time>
        <extensions>
          <ns3:TrackPointExtension>
            <ns3:hr>63</ns3:hr>
            <ns3:cad>49</ns3:cad>
          </ns3:TrackPointExtension>
        </extensions>
      </trkpt>
      <trkpt lat="43.4560881368815898895263671875" lon="1.44008003175258636474609375">
        <ele>174.399993896484375</ele>
        <time>2026-08-05T06:26:29.000Z</time>
        <extensions>
          <ns3:TrackPointExtension>
            <ns3:hr>63</ns3:hr>
            <ns3:cad>49</ns3:cad>
          </ns3:TrackPointExtension>
        </extensions>
      </trkpt>
      <trkpt lat="43.45608201809227466583251953125" lon="1.44009972922503948211669921875">
        <ele>174.399993896484375</ele>
        <time>2026-08-05T06:26:30.000Z</time>
        <extensions>
          <ns3:TrackPointExtension>
            <ns3:hr>63</ns3:hr>
            <ns3:cad>49</ns3:cad>
          </ns3:TrackPointExtension>
        </extensions>
      </trkpt>
      <trkpt lat="43.45607782714068889617919921875" lon="1.44011649303138256072998046875">
        <ele>174.1999969482421875</ele>
        <time>2026-08-05T06:26:31.000Z</time>
        <extensions>
          <ns3:TrackPointExtension>
            <ns3:hr>63</ns3:hr>
            <ns3:cad>50</ns3:cad>
          </ns3:TrackPointExtension>
        </extensions>
      </trkpt>
      <trkpt lat="43.4560737200081348419189453125" lon="1.4401308260858058929443359375">
        <ele>174</ele>
        <time>2026-08-05T06:26:32.000Z</time>
        <extensions>
          <ns3:TrackPointExtension>
            <ns3:hr>62</ns3:hr>
            <ns3:cad>50</ns3:cad>
          </ns3:TrackPointExtension>
        </extensions>
      </trkpt>
      <trkpt lat="43.45606659539043903350830078125" lon="1.440139710903167724609375">
        <ele>174</ele>
        <time>2026-08-05T06:26:33.000Z</time>
        <extensions>
          <ns3:TrackPointExtension>
            <ns3:hr>63</ns3:hr>
            <ns3:cad>50</ns3:cad>
          </ns3:TrackPointExtension>
        </extensions>
      </trkpt>
      <trkpt lat="43.4560613147914409637451171875" lon="1.440150775015354156494140625">
        <ele>173.8000030517578125</ele>
        <time>2026-08-05T06:26:34.000Z</time>
        <extensions>
          <ns3:TrackPointExtension>
            <ns3:hr>63</ns3:hr>
            <ns3:cad>50</ns3:cad>
          </ns3:TrackPointExtension>
        </extensions>
      </trkpt>
      <trkpt lat="43.45605678856372833251953125" lon="1.44016393460333347320556640625">
        <ele>173.8000030517578125</ele>
        <time>2026-08-05T06:26:35.000Z</time>
        <extensions>
          <ns3:TrackPointExtension>
            <ns3:hr>64</ns3:hr>
            <ns3:cad>50</ns3:cad>
          </ns3:TrackPointExtension>
        </extensions>
      </trkpt>
      <trkpt lat="43.45605134032666683197021484375" lon="1.4401781000196933746337890625">
        <ele>173.8000030517578125</ele>
        <time>2026-08-05T06:26:36.000Z</time>
        <extensions>
          <ns3:TrackPointExtension>
            <ns3:hr>64</ns3:hr>
            <ns3:cad>50</ns3:cad>
          </ns3:TrackPointExtension>
        </extensions>
      </trkpt>
      <trkpt lat="43.4560494124889373779296875" lon="1.4401888288557529449462890625">
        <ele>173.600006103515625</ele>
        <time>2026-08-05T06:26:37.000Z</time>
        <extensions>
          <ns3:TrackPointExtension>
            <ns3:hr>65</ns3:hr>
            <ns3:cad>50</ns3:cad>
          </ns3:TrackPointExtension>
        </extensions>
      </trkpt>
      <trkpt lat="43.4560438804328441619873046875" lon="1.4401992224156856536865234375">
        <ele>173.600006103515625</ele>
        <time>2026-08-05T06:26:38.000Z</time>
        <extensions>
          <ns3:TrackPointExtension>
            <ns3:hr>65</ns3:hr>
            <ns3:cad>49</ns3:cad>
          </ns3:TrackPointExtension>
        </extensions>
      </trkpt>
      <trkpt lat="43.45604010857641696929931640625" lon="1.44021187908947467803955078125">
        <ele>173.399993896484375</ele>
        <time>2026-08-05T06:26:39.000Z</time>
        <extensions>
          <ns3:TrackPointExtension>
            <ns3:hr>66</ns3:hr>
            <ns3:cad>49</ns3:cad>
          </ns3:TrackPointExtension>
        </extensions>
      </trkpt>
      <trkpt lat="43.4560365043580532073974609375" lon="1.44022864289581775665283203125">
        <ele>173.399993896484375</ele>
        <time>2026-08-05T06:26:40.000Z</time>
        <extensions>
          <ns3:TrackPointExtension>
            <ns3:hr>67</ns3:hr>
            <ns3:cad>48</ns3:cad>
          </ns3:TrackPointExtension>
        </extensions>
      </trkpt>
      <trkpt lat="43.456034325063228607177734375" lon="1.44024926237761974334716796875">
        <ele>173.399993896484375</ele>
        <time>2026-08-05T06:26:41.000Z</time>
        <extensions>
          <ns3:TrackPointExtension>
            <ns3:hr>67</ns3:hr>
            <ns3:cad>48</ns3:cad>
          </ns3:TrackPointExtension>
        </extensions>
      </trkpt>
      <trkpt lat="43.45603357069194316864013671875" lon="1.44026636146008968353271484375">
        <ele>173.1999969482421875</ele>
        <time>2026-08-05T06:26:42.000Z</time>
        <extensions>
          <ns3:TrackPointExtension>
            <ns3:hr>66</ns3:hr>
            <ns3:cad>47</ns3:cad>
          </ns3:TrackPointExtension>
        </extensions>
      </trkpt>
      <trkpt lat="43.456030972301959991455078125" lon="1.4402837119996547698974609375">
        <ele>173.1999969482421875</ele>
        <time>2026-08-05T06:26:43.000Z</time>
        <extensions>
          <ns3:TrackPointExtension>
            <ns3:hr>66</ns3:hr>
            <ns3:cad>47</ns3:cad>
          </ns3:TrackPointExtension>
        </extensions>
      </trkpt>
      <trkpt lat="43.45603038556873798370361328125" lon="1.4402974583208560943603515625">
        <ele>173.1999969482421875</ele>
        <time>2026-08-05T06:26:44.000Z</time>
        <extensions>
          <ns3:TrackPointExtension>
            <ns3:hr>65</ns3:hr>
            <ns3:cad>47</ns3:cad>
          </ns3:TrackPointExtension>
        </extensions>
      </trkpt>
      <trkpt lat="43.45602937974035739898681640625" lon="1.4403101988136768341064453125">
        <ele>173</ele>
        <time>2026-08-05T06:26:45.000Z</time>
        <extensions>
          <ns3:TrackPointExtension>
            <ns3:hr>65</ns3:hr>
            <ns3:cad>48</ns3:cad>
          </ns3:TrackPointExtension>
        </extensions>
      </trkpt>
      <trkpt lat="43.45602736808359622955322265625" lon="1.44032805226743221282958984375">
        <ele>173</ele>
        <time>2026-08-05T06:26:46.000Z</time>
        <extensions>
          <ns3:TrackPointExtension>
            <ns3:hr>65</ns3:hr>
            <ns3:cad>49</ns3:cad>
          </ns3:TrackPointExtension>
        </extensions>
      </trkpt>
      <trkpt lat="43.456026278436183929443359375" lon="1.44034263677895069122314453125">
        <ele>173</ele>
        <time>2026-08-05T06:26:47.000Z</time>
        <extensions>
          <ns3:TrackPointExtension>
            <ns3:hr>65</ns3:hr>
            <ns3:cad>49</ns3:cad>
          </ns3:TrackPointExtension>
        </extensions>
      </trkpt>
      <trkpt lat="43.45602485351264476776123046875" lon="1.44035504199564456939697265625">
        <ele>172.8000030517578125</ele>
        <time>2026-08-05T06:26:48.000Z</time>
        <extensions>
          <ns3:TrackPointExtension>
            <ns3:hr>65</ns3:hr>
            <ns3:cad>49</ns3:cad>
          </ns3:TrackPointExtension>
        </extensions>
      </trkpt>
      <trkpt lat="43.4560224227607250213623046875" lon="1.44036744721233844757080078125">
        <ele>172.8000030517578125</ele>
        <time>2026-08-05T06:26:49.000Z</time>
        <extensions>
          <ns3:TrackPointExtension>
            <ns3:hr>65</ns3:hr>
            <ns3:cad>49</ns3:cad>
          </ns3:TrackPointExtension>
        </extensions>
      </trkpt>
      <trkpt lat="43.45602233894169330596923828125" lon="1.44037901423871517181396484375">
        <ele>172.8000030517578125</ele>
        <time>2026-08-05T06:26:50.000Z</time>
        <extensions>
          <ns3:TrackPointExtension>
            <ns3:hr>65</ns3:hr>
            <ns3:cad>49</ns3:cad>
          </ns3:TrackPointExtension>
        </extensions>
      </trkpt>
      <trkpt lat="43.45602049492299556732177734375" lon="1.440394856035709381103515625">
        <ele>172.8000030517578125</ele>
        <time>2026-08-05T06:26:51.000Z</time>
        <extensions>
          <ns3:TrackPointExtension>
            <ns3:hr>65</ns3:hr>
            <ns3:cad>48</ns3:cad>
          </ns3:TrackPointExtension>
        </extensions>
      </trkpt>
      <trkpt lat="43.45602317713201045989990234375" lon="1.44040952436625957489013671875">
        <ele>172.600006103515625</ele>
        <time>2026-08-05T06:26:52.000Z</time>
        <extensions>
          <ns3:TrackPointExtension>
            <ns3:hr>66</ns3:hr>
            <ns3:cad>48</ns3:cad>
          </ns3:TrackPointExtension>
        </extensions>
      </trkpt>
      <trkpt lat="43.4560214169323444366455078125" lon="1.44042243249714374542236328125">
        <ele>172.600006103515625</ele>
        <time>2026-08-05T06:26:53.000Z</time>
        <extensions>
          <ns3:TrackPointExtension>
            <ns3:hr>66</ns3:hr>
            <ns3:cad>48</ns3:cad>
          </ns3:TrackPointExtension>
        </extensions>
      </trkpt>
      <trkpt lat="43.45601965673267841339111328125" lon="1.4404319040477275848388671875">
        <ele>172.600006103515625</ele>
        <time>2026-08-05T06:26:54.000Z</time>
        <extensions>
          <ns3:TrackPointExtension>
            <ns3:hr>66</ns3:hr>
            <ns3:cad>48</ns3:cad>
          </ns3:TrackPointExtension>
        </extensions>
      </trkpt>
      <trkpt lat="43.45601831562817096710205078125" lon="1.4404483325779438018798828125">
        <ele>172.600006103515625</ele>
        <time>2026-08-05T06:26:55.000Z</time>
        <extensions>
          <ns3:TrackPointExtension>
            <ns3:hr>66</ns3:hr>
            <ns3:cad>48</ns3:cad>
          </ns3:TrackPointExtension>
        </extensions>
      </trkpt>
      <trkpt lat="43.45601747743785381317138671875" lon="1.440467275679111480712890625">
        <ele>172.600006103515625</ele>
        <time>2026-08-05T06:26:56.000Z</time>
        <extensions>
          <ns3:TrackPointExtension>
            <ns3:hr>66</ns3:hr>
            <ns3:cad>48</ns3:cad>
          </ns3:TrackPointExtension>
        </extensions>
      </trkpt>
      <trkpt lat="43.45601655542850494384765625" lon="1.4404852129518985748291015625">
        <ele>172.399993896484375</ele>
        <time>2026-08-05T06:26:57.000Z</time>
        <extensions>
          <ns3:TrackPointExtension>
            <ns3:hr>66</ns3:hr>
            <ns3:cad>47</ns3:cad>
          </ns3:TrackPointExtension>
        </extensions>
      </trkpt>
      <trkpt lat="43.4560143761336803436279296875" lon="1.44049703143537044525146484375">
        <ele>172.399993896484375</ele>
        <time>2026-08-05T06:26:58.000Z</time>
        <extensions>
          <ns3:TrackPointExtension>
            <ns3:hr>67</ns3:hr>
            <ns3:cad>47</ns3:cad>
          </ns3:TrackPointExtension>
        </extensions>
      </trkpt>
      <trkpt lat="43.456011526286602020263671875" lon="1.440509520471096038818359375">
        <ele>172.399993896484375</ele>
        <time>2026-08-05T06:26:59.000Z</time>
        <extensions>
          <ns3:TrackPointExtension>
            <ns3:hr>67</ns3:hr>
            <ns3:cad>47</ns3:cad>
          </ns3:TrackPointExtension>
        </extensions>
      </trkpt>
      <trkpt lat="43.45600808970630168914794921875" lon="1.44052435643970966339111328125">
        <ele>172.399993896484375</ele>
        <time>2026-08-05T06:27:00.000Z</time>
        <extensions>
          <ns3:TrackPointExtension>
            <ns3:hr>67</ns3:hr>
            <ns3:cad>47</ns3:cad>
          </ns3:TrackPointExtension>
        </extensions>
      </trkpt>
      <trkpt lat="43.45600314438343048095703125" lon="1.44054095260798931121826171875">
        <ele>172.399993896484375</ele>
        <time>2026-08-05T06:27:01.000Z</time>
        <extensions>
          <ns3:TrackPointExtension>
            <ns3:hr>67</ns3:hr>
            <ns3:cad>48</ns3:cad>
          </ns3:TrackPointExtension>
        </extensions>
      </trkpt>
      <trkpt lat="43.4560013003647327423095703125" lon="1.44055687822401523590087890625">
        <ele>172.399993896484375</ele>
        <time>2026-08-05T06:27:02.000Z</time>
        <extensions>
          <ns3:TrackPointExtension>
            <ns3:hr>68</ns3:hr>
            <ns3:cad>48</ns3:cad>
          </ns3:TrackPointExtension>
        </extensions>
      </trkpt>
      <trkpt lat="43.4560011327266693115234375" lon="1.44057012163102626800537109375">
        <ele>172.399993896484375</ele>
        <time>2026-08-05T06:27:03.000Z</time>
        <extensions>
          <ns3:TrackPointExtension>
            <ns3:hr>69</ns3:hr>
            <ns3:cad>48</ns3:cad>
          </ns3:TrackPointExtension>
        </extensions>
      </trkpt>
      <trkpt lat="43.4560013003647327423095703125" lon="1.44058722071349620819091796875">
        <ele>172.399993896484375</ele>
        <time>2026-08-05T06:27:04.000Z</time>
        <extensions>
          <ns3:TrackPointExtension>
            <ns3:hr>69</ns3:hr>
            <ns3:cad>48</ns3:cad>
          </ns3:TrackPointExtension>
        </extensions>
      </trkpt>
      <trkpt lat="43.4559992887079715728759765625" lon="1.44060281105339527130126953125">
        <ele>172.1999969482421875</ele>
        <time>2026-08-05T06:27:05.000Z</time>
        <extensions>
          <ns3:TrackPointExtension>
            <ns3:hr>69</ns3:hr>
            <ns3:cad>47</ns3:cad>
          </ns3:TrackPointExtension>
        </extensions>
      </trkpt>
      <trkpt lat="43.4559925831854343414306640625" lon="1.440618820488452911376953125">
        <ele>172.1999969482421875</ele>
        <time>2026-08-05T06:27:06.000Z</time>
        <extensions>
          <ns3:TrackPointExtension>
            <ns3:hr>69</ns3:hr>
            <ns3:cad>48</ns3:cad>
          </ns3:TrackPointExtension>
        </extensions>
      </trkpt>
      <trkpt lat="43.455993421375751495361328125" lon="1.44063533283770084381103515625">
        <ele>172.1999969482421875</ele>
        <time>2026-08-05T06:27:07.000Z</time>
        <extensions>
          <ns3:TrackPointExtension>
            <ns3:hr>69</ns3:hr>
            <ns3:cad>48</ns3:cad>
          </ns3:TrackPointExtension>
        </extensions>
      </trkpt>
      <trkpt lat="43.4559882245957851409912109375" lon="1.4406491629779338836669921875">
        <ele>172</ele>
        <time>2026-08-05T06:27:08.000Z</time>
        <extensions>
          <ns3:TrackPointExtension>
            <ns3:hr>70</ns3:hr>
            <ns3:cad>48</ns3:cad>
          </ns3:TrackPointExtension>
        </extensions>
      </trkpt>
      <trkpt lat="43.45598679967224597930908203125" lon="1.44066232256591320037841796875">
        <ele>172</ele>
        <time>2026-08-05T06:27:09.000Z</time>
        <extensions>
          <ns3:TrackPointExtension>
            <ns3:hr>69</ns3:hr>
            <ns3:cad>48</ns3:cad>
          </ns3:TrackPointExtension>
        </extensions>
      </trkpt>
      <trkpt lat="43.45598529092967510223388671875" lon="1.44067682325839996337890625">
        <ele>172</ele>
        <time>2026-08-05T06:27:10.000Z</time>
        <extensions>
          <ns3:TrackPointExtension>
            <ns3:hr>69</ns3:hr>
            <ns3:cad>48</ns3:cad>
          </ns3:TrackPointExtension>
        </extensions>
      </trkpt>
      <trkpt lat="43.45598436892032623291015625" lon="1.44069199450314044952392578125">
        <ele>172</ele>
        <time>2026-08-05T06:27:11.000Z</time>
        <extensions>
          <ns3:TrackPointExtension>
            <ns3:hr>70</ns3:hr>
            <ns3:cad>48</ns3:cad>
          </ns3:TrackPointExtension>
        </extensions>
      </trkpt>
      <trkpt lat="43.455984704196453094482421875" lon="1.44070825539529323577880859375">
        <ele>171.8000030517578125</ele>
        <time>2026-08-05T06:27:12.000Z</time>
        <extensions>
          <ns3:TrackPointExtension>
            <ns3:hr>70</ns3:hr>
            <ns3:cad>47</ns3:cad>
          </ns3:TrackPointExtension>
        </extensions>
      </trkpt>
      <trkpt lat="43.4559835307300090789794921875" lon="1.44071781076490879058837890625">
        <ele>171.8000030517578125</ele>
        <time>2026-08-05T06:27:13.000Z</time>
        <extensions>
          <ns3:TrackPointExtension>
            <ns3:hr>71</ns3:hr>
            <ns3:cad>47</ns3:cad>
          </ns3:TrackPointExtension>
        </extensions>
      </trkpt>
      <trkpt lat="43.4559828601777553558349609375" lon="1.44072619266808032989501953125">
        <ele>171.8000030517578125</ele>
        <time>2026-08-05T06:27:14.000Z</time>
        <extensions>
          <ns3:TrackPointExtension>
            <ns3:hr>71</ns3:hr>
            <ns3:cad>47</ns3:cad>
          </ns3:TrackPointExtension>
        </extensions>
      </trkpt>
      <trkpt lat="43.4559821896255016326904296875" lon="1.44074161536991596221923828125">
        <ele>171.8000030517578125</ele>
        <time>2026-08-05T06:27:15.000Z</time>
        <extensions>
          <ns3:TrackPointExtension>
            <ns3:hr>72</ns3:hr>
            <ns3:cad>48</ns3:cad>
          </ns3:TrackPointExtension>
        </extensions>
      </trkpt>
      <trkpt lat="43.4559875540435314178466796875" lon="1.440754942595958709716796875">
        <ele>171.8000030517578125</ele>
        <time>2026-08-05T06:27:16.000Z</time>
        <extensions>
          <ns3:TrackPointExtension>
            <ns3:hr>72</ns3:hr>
            <ns3:cad>49</ns3:cad>
          </ns3:TrackPointExtension>
        </extensions>
      </trkpt>
      <trkpt lat="43.45598897896707057952880859375" lon="1.44077313132584095001220703125">
        <ele>171.8000030517578125</ele>
        <time>2026-08-05T06:27:17.000Z</time>
        <extensions>
          <ns3:TrackPointExtension>
            <ns3:hr>72</ns3:hr>
            <ns3:cad>49</ns3:cad>
          </ns3:TrackPointExtension>
        </extensions>
      </trkpt>
      <trkpt lat="43.455986715853214263916015625" lon="1.44078771583735942840576171875">
        <ele>171.8000030517578125</ele>
        <time>2026-08-05T06:27:18.000Z</time>
        <extensions>
          <ns3:TrackPointExtension>
            <ns3:hr>72</ns3:hr>
            <ns3:cad>49</ns3:cad>
          </ns3:TrackPointExtension>
        </extensions>
      </trkpt>
      <trkpt lat="43.45598629675805568695068359375" lon="1.44080112688243389129638671875">
        <ele>171.8000030517578125</ele>
        <time>2026-08-05T06:27:19.000Z</time>
        <extensions>
          <ns3:TrackPointExtension>
            <ns3:hr>72</ns3:hr>
            <ns3:cad>49</ns3:cad>
          </ns3:TrackPointExtension>
        </extensions>
      </trkpt>
      <trkpt lat="43.45598797313868999481201171875" lon="1.4408171363174915313720703125">
        <ele>171.8000030517578125</ele>
        <time>2026-08-05T06:27:20.000Z</time>
        <extensions>
          <ns3:TrackPointExtension>
            <ns3:hr>72</ns3:hr>
            <ns3:cad>48</ns3:cad>
          </ns3:TrackPointExtension>
        </extensions>
      </trkpt>
      <trkpt lat="43.45599166117608547210693359375" lon="1.44083482213318347930908203125">
        <ele>171.8000030517578125</ele>
        <time>2026-08-05T06:27:21.000Z</time>
        <extensions>
          <ns3:TrackPointExtension>
            <ns3:hr>72</ns3:hr>
            <ns3:cad>48</ns3:cad>
          </ns3:TrackPointExtension>
        </extensions>
      </trkpt>
      <trkpt lat="43.455996774137020111083984375" lon="1.4408491551876068115234375">
        <ele>171.600006103515625</ele>
        <time>2026-08-05T06:27:22.000Z</time>
        <extensions>
          <ns3:TrackPointExtension>
            <ns3:hr>71</ns3:hr>
            <ns3:cad>48</ns3:cad>
          </ns3:TrackPointExtension>
        </extensions>
      </trkpt>
      <trkpt lat="43.45599853433668613433837890625" lon="1.4408627338707447052001953125">
        <ele>171.600006103515625</ele>
        <time>2026-08-05T06:27:23.000Z</time>
        <extensions>
          <ns3:TrackPointExtension>
            <ns3:hr>71</ns3:hr>
            <ns3:cad>48</ns3:cad>
          </ns3:TrackPointExtension>
        </extensions>
      </trkpt>
      <trkpt lat="43.45599954016506671905517578125" lon="1.44087731838226318359375">
        <ele>171.8000030517578125</ele>
        <time>2026-08-05T06:27:24.000Z</time>
        <extensions>
          <ns3:TrackPointExtension>
            <ns3:hr>71</ns3:hr>
            <ns3:cad>48</ns3:cad>
          </ns3:TrackPointExtension>
        </extensions>
      </trkpt>
      <trkpt lat="43.4559999592602252960205078125" lon="1.4408947527408599853515625">
        <ele>171.8000030517578125</ele>
        <time>2026-08-05T06:27:25.000Z</time>
        <extensions>
          <ns3:TrackPointExtension>
            <ns3:hr>71</ns3:hr>
            <ns3:cad>47</ns3:cad>
          </ns3:TrackPointExtension>
        </extensions>
      </trkpt>
      <trkpt lat="43.456004820764064788818359375" lon="1.4409100078046321868896484375">
        <ele>171.8000030517578125</ele>
        <time>2026-08-05T06:27:26.000Z</time>
        <extensions>
          <ns3:TrackPointExtension>
            <ns3:hr>71</ns3:hr>
            <ns3:cad>46</ns3:cad>
          </ns3:TrackPointExtension>
        </extensions>
      </trkpt>
      <trkpt lat="43.4560064971446990966796875" lon="1.44092434085905551910400390625">
        <ele>171.8000030517578125</ele>
        <time>2026-08-05T06:27:27.000Z</time>
        <extensions>
          <ns3:TrackPointExtension>
            <ns3:hr>70</ns3:hr>
            <ns3:cad>46</ns3:cad>
          </ns3:TrackPointExtension>
        </extensions>
      </trkpt>
      <trkpt lat="43.45600582659244537353515625" lon="1.44093456678092479705810546875">
        <ele>171.8000030517578125</ele>
        <time>2026-08-05T06:27:28.000Z</time>
        <extensions>
          <ns3:TrackPointExtension>
            <ns3:hr>71</ns3:hr>
            <ns3:cad>46</ns3:cad>
          </ns3:TrackPointExtension>
        </extensions>
      </trkpt>
      <trkpt lat="43.45600850880146026611328125" lon="1.44095040857791900634765625">
        <ele>171.8000030517578125</ele>
        <time>2026-08-05T06:27:29.000Z</time>
        <extensions>
          <ns3:TrackPointExtension>
            <ns3:hr>71</ns3:hr>
            <ns3:cad>46</ns3:cad>
          </ns3:TrackPointExtension>
        </extensions>
      </trkpt>
      <trkpt lat="43.45600708387792110443115234375" lon="1.44096457399427890777587890625">
        <ele>171.8000030517578125</ele>
        <time>2026-08-05T06:27:30.000Z</time>
        <extensions>
          <ns3:TrackPointExtension>
            <ns3:hr>71</ns3:hr>
            <ns3:cad>47</ns3:cad>
          </ns3:TrackPointExtension>
        </extensions>
      </trkpt>
      <trkpt lat="43.4560066647827625274658203125" lon="1.4409820921719074249267578125">
        <ele>171.8000030517578125</ele>
        <time>2026-08-05T06:27:31.000Z</time>
        <extensions>
          <ns3:TrackPointExtension>
            <ns3:hr>71</ns3:hr>
            <ns3:cad>47</ns3:cad>
          </ns3:TrackPointExtension>
        </extensions>
      </trkpt>
      <trkpt lat="43.456000126898288726806640625" lon="1.440989635884761810302734375">
        <ele>172</ele>
        <time>2026-08-05T06:27:32.000Z</time>
        <extensions>
          <ns3:TrackPointExtension>
            <ns3:hr>70</ns3:hr>
            <ns3:cad>47</ns3:cad>
          </ns3:TrackPointExtension>
        </extensions>
      </trkpt>
      <trkpt lat="43.45599736087024211883544921875" lon="1.44100346602499485015869140625">
        <ele>172</ele>
        <time>2026-08-05T06:27:33.000Z</time>
        <extensions>
          <ns3:TrackPointExtension>
            <ns3:hr>70</ns3:hr>
            <ns3:cad>47</ns3:cad>
          </ns3:TrackPointExtension>
        </extensions>
      </trkpt>
      <trkpt lat="43.45599786378443241119384765625" lon="1.44101587124168872833251953125">
        <ele>172</ele>
        <time>2026-08-05T06:27:34.000Z</time>
        <extensions>
          <ns3:TrackPointExtension>
            <ns3:hr>69</ns3:hr>
            <ns3:cad>47</ns3:cad>
          </ns3:TrackPointExtension>
        </extensions>
      </trkpt>
      <trkpt lat="43.4560009650886058807373046875" lon="1.4410297013819217681884765625">
        <ele>172</ele>
        <time>2026-08-05T06:27:35.000Z</time>
        <extensions>
          <ns3:TrackPointExtension>
            <ns3:hr>69</ns3:hr>
            <ns3:cad>47</ns3:cad>
          </ns3:TrackPointExtension>
        </extensions>
      </trkpt>
      <trkpt lat="43.45599920488893985748291015625" lon="1.44104185514152050018310546875">
        <ele>172</ele>
        <time>2026-08-05T06:27:36.000Z</time>
        <extensions>
          <ns3:TrackPointExtension>
            <ns3:hr>68</ns3:hr>
            <ns3:cad>47</ns3:cad>
          </ns3:TrackPointExtension>
        </extensions>
      </trkpt>
      <trkpt lat="43.45599551685154438018798828125" lon="1.4410514943301677703857421875">
        <ele>172</ele>
        <time>2026-08-05T06:27:37.000Z</time>
        <extensions>
          <ns3:TrackPointExtension>
            <ns3:hr>68</ns3:hr>
            <ns3:cad>47</ns3:cad>
          </ns3:TrackPointExtension>
        </extensions>
      </trkpt>
      <trkpt lat="43.45599233172833919525146484375" lon="1.441067419946193695068359375">
        <ele>172.1999969482421875</ele>
        <time>2026-08-05T06:27:38.000Z</time>
        <extensions>
          <ns3:TrackPointExtension>
            <ns3:hr>68</ns3:hr>
            <ns3:cad>47</ns3:cad>
          </ns3:TrackPointExtension>
        </extensions>
      </trkpt>
      <trkpt lat="43.4559909068048000335693359375" lon="1.44107823260128498077392578125">
        <ele>172.1999969482421875</ele>
        <time>2026-08-05T06:27:39.000Z</time>
        <extensions>
          <ns3:TrackPointExtension>
            <ns3:hr>69</ns3:hr>
            <ns3:cad>47</ns3:cad>
          </ns3:TrackPointExtension>
        </extensions>
      </trkpt>
      <trkpt lat="43.45598830841481685638427734375" lon="1.4410877041518688201904296875">
        <ele>172.1999969482421875</ele>
        <time>2026-08-05T06:27:40.000Z</time>
        <extensions>
          <ns3:TrackPointExtension>
            <ns3:hr>69</ns3:hr>
            <ns3:cad>47</ns3:cad>
          </ns3:TrackPointExtension>
        </extensions>
      </trkpt>
      <trkpt lat="43.4559875540435314178466796875" lon="1.44110136665403842926025390625">
        <ele>172.1999969482421875</ele>
        <time>2026-08-05T06:27:41.000Z</time>
        <extensions>
          <ns3:TrackPointExtension>
            <ns3:hr>69</ns3:hr>
            <ns3:cad>47</ns3:cad>
          </ns3:TrackPointExtension>
        </extensions>
      </trkpt>
      <trkpt lat="43.4559810161590576171875" lon="1.44112198613584041595458984375">
        <ele>172.1999969482421875</ele>
        <time>2026-08-05T06:27:42.000Z</time>
        <extensions>
          <ns3:TrackPointExtension>
            <ns3:hr>69</ns3:hr>
            <ns3:cad>44</ns3:cad>
          </ns3:TrackPointExtension>
        </extensions>
      </trkpt>
      <trkpt lat="43.4559798426926136016845703125" lon="1.4411406777799129486083984375">
        <ele>172.399993896484375</ele>
        <time>2026-08-05T06:27:43.000Z</time>
        <extensions>
          <ns3:TrackPointExtension>
            <ns3:hr>69</ns3:hr>
            <ns3:cad>43</ns3:cad>
          </ns3:TrackPointExtension>
        </extensions>
      </trkpt>
      <trkpt lat="43.4559769928455352783203125" lon="1.44115501083433628082275390625">
        <ele>172.399993896484375</ele>
        <time>2026-08-05T06:27:44.000Z</time>
        <extensions>
          <ns3:TrackPointExtension>
            <ns3:hr>70</ns3:hr>
            <ns3:cad>43</ns3:cad>
          </ns3:TrackPointExtension>
        </extensions>
      </trkpt>
      <trkpt lat="43.4559754841029644012451171875" lon="1.44116272218525409698486328125">
        <ele>172.399993896484375</ele>
        <time>2026-08-05T06:27:45.000Z</time>
        <extensions>
          <ns3:TrackPointExtension>
            <ns3:hr>71</ns3:hr>
            <ns3:cad>45</ns3:cad>
          </ns3:TrackPointExtension>
        </extensions>
      </trkpt>
      <trkpt lat="43.4559677727520465850830078125" lon="1.44118183292448520660400390625">
        <ele>172.399993896484375</ele>
        <time>2026-08-05T06:27:46.000Z</time>
        <extensions>
          <ns3:TrackPointExtension>
            <ns3:hr>72</ns3:hr>
            <ns3:cad>46</ns3:cad>
          </ns3:TrackPointExtension>
        </extensions>
      </trkpt>
      <trkpt lat="43.45596333034336566925048828125" lon="1.44120094366371631622314453125">
        <ele>172.399993896484375</ele>
        <time>2026-08-05T06:27:47.000Z</time>
        <extensions>
          <ns3:TrackPointExtension>
            <ns3:hr>73</ns3:hr>
            <ns3:cad>46</ns3:cad>
          </ns3:TrackPointExtension>
        </extensions>
      </trkpt>
      <trkpt lat="43.45596098341047763824462890625" lon="1.44121083430945873260498046875">
        <ele>172.399993896484375</ele>
        <time>2026-08-05T06:27:48.000Z</time>
        <extensions>
          <ns3:TrackPointExtension>
            <ns3:hr>74</ns3:hr>
            <ns3:cad>46</ns3:cad>
          </ns3:TrackPointExtension>
        </extensions>
      </trkpt>
      <trkpt lat="43.45595897175371646881103515625" lon="1.44121753983199596405029296875">
        <ele>172.600006103515625</ele>
        <time>2026-08-05T06:27:49.000Z</time>
        <extensions>
          <ns3:TrackPointExtension>
            <ns3:hr>76</ns3:hr>
            <ns3:cad>47</ns3:cad>
          </ns3:TrackPointExtension>
        </extensions>
      </trkpt>
      <trkpt lat="43.45595193095505237579345703125" lon="1.44123497419059276580810546875">
        <ele>172.600006103515625</ele>
        <time>2026-08-05T06:27:50.000Z</time>
        <extensions>
          <ns3:TrackPointExtension>
            <ns3:hr>77</ns3:hr>
            <ns3:cad>47</ns3:cad>
          </ns3:TrackPointExtension>
        </extensions>
      </trkpt>
      <trkpt lat="43.45594941638410091400146484375" lon="1.44124721176922321319580078125">
        <ele>172.600006103515625</ele>
        <time>2026-08-05T06:27:51.000Z</time>
        <extensions>
          <ns3:TrackPointExtension>
            <ns3:hr>78</ns3:hr>
            <ns3:cad>45</ns3:cad>
          </ns3:TrackPointExtension>
        </extensions>
      </trkpt>
      <trkpt lat="43.45594539307057857513427734375" lon="1.441255845129489898681640625">
        <ele>172.600006103515625</ele>
        <time>2026-08-05T06:27:52.000Z</time>
        <extensions>
          <ns3:TrackPointExtension>
            <ns3:hr>79</ns3:hr>
            <ns3:cad>45</ns3:cad>
          </ns3:TrackPointExtension>
        </extensions>
      </trkpt>
      <trkpt lat="43.455939777195453643798828125" lon="1.44127084873616695404052734375">
        <ele>172.8000030517578125</ele>
        <time>2026-08-05T06:27:53.000Z</time>
        <extensions>
          <ns3:TrackPointExtension>
            <ns3:hr>79</ns3:hr>
            <ns3:cad>44</ns3:cad>
          </ns3:TrackPointExtension>
        </extensions>
      </trkpt>
      <trkpt lat="43.45593533478677272796630859375" lon="1.4412851817905902862548828125">
        <ele>172.8000030517578125</ele>
        <time>2026-08-05T06:27:54.000Z</time>
        <extensions>
          <ns3:TrackPointExtension>
            <ns3:hr>80</ns3:hr>
            <ns3:cad>44</ns3:cad>
          </ns3:TrackPointExtension>
        </extensions>
      </trkpt>
      <trkpt lat="43.455933071672916412353515625" lon="1.4412932284176349639892578125">
        <ele>172.8000030517578125</ele>
        <time>2026-08-05T06:27:55.000Z</time>
        <extensions>
          <ns3:TrackPointExtension>
            <ns3:hr>80</ns3:hr>
            <ns3:cad>44</ns3:cad>
          </ns3:TrackPointExtension>
        </extensions>
      </trkpt>
      <trkpt lat="43.4559292159974575042724609375" lon="1.4412985928356647491455078125">
        <ele>173</ele>
        <time>2026-08-05T06:27:56.000Z</time>
        <extensions>
          <ns3:TrackPointExtension>
            <ns3:hr>81</ns3:hr>
            <ns3:cad>44</ns3:cad>
          </ns3:TrackPointExtension>
        </extensions>
      </trkpt>
      <trkpt lat="43.45592644996941089630126953125" lon="1.44131845794618129730224609375">
        <ele>173</ele>
        <time>2026-08-05T06:27:57.000Z</time>
        <extensions>
          <ns3:TrackPointExtension>
            <ns3:hr>81</ns3:hr>
            <ns3:cad>43</ns3:cad>
          </ns3:TrackPointExtension>
        </extensions>
      </trkpt>
      <trkpt lat="43.455928377807140350341796875" lon="1.441330276429653167724609375">
        <ele>173.1999969482421875</ele>
        <time>2026-08-05T06:27:58.000Z</time>
        <extensions>
          <ns3:TrackPointExtension>
            <ns3:hr>81</ns3:hr>
            <ns3:cad>43</ns3:cad>
          </ns3:TrackPointExtension>
        </extensions>
      </trkpt>
      <trkpt lat="43.45592896454036235809326171875" lon="1.44133958034217357635498046875">
        <ele>173.1999969482421875</ele>
        <time>2026-08-05T06:27:59.000Z</time>
        <extensions>
          <ns3:TrackPointExtension>
            <ns3:hr>82</ns3:hr>
            <ns3:cad>43</ns3:cad>
          </ns3:TrackPointExtension>
        </extensions>
      </trkpt>
      <trkpt lat="43.4559268690645694732666015625" lon="1.4413498900830745697021484375">
        <ele>173.399993896484375</ele>
        <time>2026-08-05T06:28:00.000Z</time>
        <extensions>
          <ns3:TrackPointExtension>
            <ns3:hr>82</ns3:hr>
            <ns3:cad>43</ns3:cad>
          </ns3:TrackPointExtension>
        </extensions>
      </trkpt>
      <trkpt lat="43.45592846162617206573486328125" lon="1.44136070273816585540771484375">
        <ele>173.399993896484375</ele>
        <time>2026-08-05T06:28:01.000Z</time>
        <extensions>
          <ns3:TrackPointExtension>
            <ns3:hr>82</ns3:hr>
            <ns3:cad>44</ns3:cad>
          </ns3:TrackPointExtension>
        </extensions>
      </trkpt>
      <trkpt lat="43.4559278748929500579833984375" lon="1.44137377850711345672607421875">
        <ele>173.600006103515625</ele>
        <time>2026-08-05T06:28:02.000Z</time>
        <extensions>
          <ns3:TrackPointExtension>
            <ns3:hr>83</ns3:hr>
            <ns3:cad>44</ns3:cad>
          </ns3:TrackPointExtension>
        </extensions>
      </trkpt>
      <trkpt lat="43.45592862926423549652099609375" lon="1.44138618372380733489990234375">
        <ele>173.8000030517578125</ele>
        <time>2026-08-05T06:28:03.000Z</time>
        <extensions>
          <ns3:TrackPointExtension>
            <ns3:hr>83</ns3:hr>
            <ns3:cad>44</ns3:cad>
          </ns3:TrackPointExtension>
        </extensions>
      </trkpt>
      <trkpt lat="43.455928377807140350341796875" lon="1.44140328280627727508544921875">
        <ele>173.8000030517578125</ele>
        <time>2026-08-05T06:28:04.000Z</time>
        <extensions>
          <ns3:TrackPointExtension>
            <ns3:hr>84</ns3:hr>
            <ns3:cad>0</ns3:cad>
          </ns3:TrackPointExtension>
        </extensions>
      </trkpt>
      <trkpt lat="43.4559278748929500579833984375" lon="1.44141174852848052978515625">
        <ele>174</ele>
        <time>2026-08-05T06:28:05.000Z</time>
        <extensions>
          <ns3:TrackPointExtension>
            <ns3:hr>84</ns3:hr>
            <ns3:cad>0</ns3:cad>
          </ns3:TrackPointExtension>
        </extensions>
      </trkpt>
      <trkpt lat="43.45592544414103031158447265625" lon="1.44141987897455692291259765625">
        <ele>174</ele>
        <time>2026-08-05T06:28:06.000Z</time>
        <extensions>
          <ns3:TrackPointExtension>
            <ns3:hr>85</ns3:hr>
            <ns3:cad>0</ns3:cad>
          </ns3:TrackPointExtension>
        </extensions>
      </trkpt>
      <trkpt lat="43.4559221751987934112548828125" lon="1.44143714569509029388427734375">
        <ele>174.1999969482421875</ele>
        <time>2026-08-05T06:28:07.000Z</time>
        <extensions>
          <ns3:TrackPointExtension>
            <ns3:hr>85</ns3:hr>
            <ns3:cad>0</ns3:cad>
          </ns3:TrackPointExtension>
        </extensions>
      </trkpt>
      <trkpt lat="43.4559208340942859649658203125" lon="1.4414491318166255950927734375">
        <ele>174.1999969482421875</ele>
        <time>2026-08-05T06:28:08.000Z</time>
        <extensions>
          <ns3:TrackPointExtension>
            <ns3:hr>86</ns3:hr>
            <ns3:cad>41</ns3:cad>
          </ns3:TrackPointExtension>
        </extensions>
      </trkpt>
      <trkpt lat="43.45592041499912738800048828125" lon="1.44145759753882884979248046875">
        <ele>174.399993896484375</ele>
        <time>2026-08-05T06:28:09.000Z</time>
        <extensions>
          <ns3:TrackPointExtension>
            <ns3:hr>86</ns3:hr>
            <ns3:cad>42</ns3:cad>
          </ns3:TrackPointExtension>
        </extensions>
      </trkpt>
      <trkpt lat="43.45591521821916103363037109375" lon="1.44147318787872791290283203125">
        <ele>174.399993896484375</ele>
        <time>2026-08-05T06:28:10.000Z</time>
        <extensions>
          <ns3:TrackPointExtension>
            <ns3:hr>86</ns3:hr>
            <ns3:cad>42</ns3:cad>
          </ns3:TrackPointExtension>
        </extensions>
      </trkpt>
      <trkpt lat="43.45591270364820957183837890625" lon="1.44148475490510463714599609375">
        <ele>174.600006103515625</ele>
        <time>2026-08-05T06:28:11.000Z</time>
        <extensions>
          <ns3:TrackPointExtension>
            <ns3:hr>87</ns3:hr>
            <ns3:cad>41</ns3:cad>
          </ns3:TrackPointExtension>
        </extensions>
      </trkpt>
      <trkpt lat="43.45591153018176555633544921875" lon="1.44149196334183216094970703125">
        <ele>174.600006103515625</ele>
        <time>2026-08-05T06:28:12.000Z</time>
        <extensions>
          <ns3:TrackPointExtension>
            <ns3:hr>87</ns3:hr>
            <ns3:cad>41</ns3:cad>
          </ns3:TrackPointExtension>
        </extensions>
      </trkpt>
      <trkpt lat="43.4559084288775920867919921875" lon="1.4415054582059383392333984375">
        <ele>174.8000030517578125</ele>
        <time>2026-08-05T06:28:13.000Z</time>
        <extensions>
          <ns3:TrackPointExtension>
            <ns3:hr>87</ns3:hr>
            <ns3:cad>41</ns3:cad>
          </ns3:TrackPointExtension>
        </extensions>
      </trkpt>
      <trkpt lat="43.455905579030513763427734375" lon="1.4415175281465053558349609375">
        <ele>175</ele>
        <time>2026-08-05T06:28:14.000Z</time>
        <extensions>
          <ns3:TrackPointExtension>
            <ns3:hr>88</ns3:hr>
            <ns3:cad>41</ns3:cad>
          </ns3:TrackPointExtension>
        </extensions>
      </trkpt>
      <trkpt lat="43.455903232097625732421875" lon="1.4415208809077739715576171875">
        <ele>175</ele>
        <time>2026-08-05T06:28:15.000Z</time>
        <extensions>
          <ns3:TrackPointExtension>
            <ns3:hr>88</ns3:hr>
            <ns3:cad>40</ns3:cad>
          </ns3:TrackPointExtension>
        </extensions>
      </trkpt>
      <trkpt lat="43.45589912496507167816162109375" lon="1.44153370521962642669677734375">
        <ele>175.1999969482421875</ele>
        <time>2026-08-05T06:28:16.000Z</time>
        <extensions>
          <ns3:TrackPointExtension>
            <ns3:hr>89</ns3:hr>
            <ns3:cad>40</ns3:cad>
          </ns3:TrackPointExtension>
        </extensions>
      </trkpt>
      <trkpt lat="43.45589526928961277008056640625" lon="1.441548876464366912841796875">
        <ele>175.1999969482421875</ele>
        <time>2026-08-05T06:28:17.000Z</time>
        <extensions>
          <ns3:TrackPointExtension>
            <ns3:hr>89</ns3:hr>
            <ns3:cad>41</ns3:cad>
          </ns3:TrackPointExtension>
        </extensions>
      </trkpt>
      <trkpt lat="43.45589376054704189300537109375" lon="1.4415564201772212982177734375">
        <ele>175.399993896484375</ele>
        <time>2026-08-05T06:28:18.000Z</time>
        <extensions>
          <ns3:TrackPointExtension>
            <ns3:hr>90</ns3:hr>
            <ns3:cad>41</ns3:cad>
          </ns3:TrackPointExtension>
        </extensions>
      </trkpt>
      <trkpt lat="43.4558933414518833160400390625" lon="1.44156941212713718414306640625">
        <ele>175.600006103515625</ele>
        <time>2026-08-05T06:28:19.000Z</time>
        <extensions>
          <ns3:TrackPointExtension>
            <ns3:hr>90</ns3:hr>
            <ns3:cad>41</ns3:cad>
          </ns3:TrackPointExtension>
        </extensions>
      </trkpt>
      <trkpt lat="43.45589476637542247772216796875" lon="1.44158340990543365478515625">
        <ele>175.600006103515625</ele>
        <time>2026-08-05T06:28:20.000Z</time>
        <extensions>
          <ns3:TrackPointExtension>
            <ns3:hr>89</ns3:hr>
            <ns3:cad>42</ns3:cad>
          </ns3:TrackPointExtension>
        </extensions>
      </trkpt>
      <trkpt lat="43.45589644275605678558349609375" lon="1.44159589894115924835205078125">
        <ele>175.8000030517578125</ele>
        <time>2026-08-05T06:28:21.000Z</time>
        <extensions>
          <ns3:TrackPointExtension>
            <ns3:hr>89</ns3:hr>
            <ns3:cad>43</ns3:cad>
          </ns3:TrackPointExtension>
        </extensions>
      </trkpt>
      <trkpt lat="43.45589258708059787750244140625" lon="1.44160612486302852630615234375">
        <ele>176</ele>
        <time>2026-08-05T06:28:22.000Z</time>
        <extensions>
          <ns3:TrackPointExtension>
            <ns3:hr>89</ns3:hr>
            <ns3:cad>43</ns3:cad>
          </ns3:TrackPointExtension>
        </extensions>
      </trkpt>
      <trkpt lat="43.45588973723351955413818359375" lon="1.44162087701261043548583984375">
        <ele>176</ele>
        <time>2026-08-05T06:28:23.000Z</time>
        <extensions>
          <ns3:TrackPointExtension>
            <ns3:hr>88</ns3:hr>
            <ns3:cad>43</ns3:cad>
          </ns3:TrackPointExtension>
        </extensions>
      </trkpt>
      <trkpt lat="43.4558879770338535308837890625" lon="1.44163378514349460601806640625">
        <ele>176.1999969482421875</ele>
        <time>2026-08-05T06:28:24.000Z</time>
        <extensions>
          <ns3:TrackPointExtension>
            <ns3:hr>88</ns3:hr>
            <ns3:cad>42</ns3:cad>
          </ns3:TrackPointExtension>
        </extensions>
      </trkpt>
      <trkpt lat="43.4558893181383609771728515625" lon="1.44163973629474639892578125">
        <ele>176.1999969482421875</ele>
        <time>2026-08-05T06:28:25.000Z</time>
        <extensions>
          <ns3:TrackPointExtension>
            <ns3:hr>89</ns3:hr>
            <ns3:cad>42</ns3:cad>
          </ns3:TrackPointExtension>
        </extensions>
      </trkpt>
      <trkpt lat="43.45588655211031436920166015625" lon="1.44165440462529659271240234375">
        <ele>176.399993896484375</ele>
        <time>2026-08-05T06:28:26.000Z</time>
        <extensions>
          <ns3:TrackPointExtension>
            <ns3:hr>90</ns3:hr>
            <ns3:cad>41</ns3:cad>
          </ns3:TrackPointExtension>
        </extensions>
      </trkpt>
      <trkpt lat="43.4558829478919506072998046875" lon="1.44167267717421054840087890625">
        <ele>176.399993896484375</ele>
        <time>2026-08-05T06:28:27.000Z</time>
        <extensions>
          <ns3:TrackPointExtension>
            <ns3:hr>90</ns3:hr>
            <ns3:cad>41</ns3:cad>
          </ns3:TrackPointExtension>
        </extensions>
      </trkpt>
      <trkpt lat="43.45587817020714282989501953125" lon="1.44168189726769924163818359375">
        <ele>176.600006103515625</ele>
        <time>2026-08-05T06:28:28.000Z</time>
        <extensions>
          <ns3:TrackPointExtension>
            <ns3:hr>91</ns3:hr>
            <ns3:cad>40</ns3:cad>
          </ns3:TrackPointExtension>
        </extensions>
      </trkpt>
      <trkpt lat="43.45587548799812793731689453125" lon="1.44169262610375881195068359375">
        <ele>176.8000030517578125</ele>
        <time>2026-08-05T06:28:29.000Z</time>
        <extensions>
          <ns3:TrackPointExtension>
            <ns3:hr>91</ns3:hr>
            <ns3:cad>40</ns3:cad>
          </ns3:TrackPointExtension>
        </extensions>
      </trkpt>
      <trkpt lat="43.45587129704654216766357421875" lon="1.4417089708149433135986328125">
        <ele>176.8000030517578125</ele>
        <time>2026-08-05T06:28:30.000Z</time>
        <extensions>
          <ns3:TrackPointExtension>
            <ns3:hr>92</ns3:hr>
            <ns3:cad>40</ns3:cad>
          </ns3:TrackPointExtension>
        </extensions>
      </trkpt>
      <trkpt lat="43.4558705426752567291259765625" lon="1.4417186938226222991943359375">
        <ele>177</ele>
        <time>2026-08-05T06:28:31.000Z</time>
        <extensions>
          <ns3:TrackPointExtension>
            <ns3:hr>92</ns3:hr>
            <ns3:cad>41</ns3:cad>
          </ns3:TrackPointExtension>
        </extensions>
      </trkpt>
      <trkpt lat="43.45587196759879589080810546875" lon="1.4417277462780475616455078125">
        <ele>177.1999969482421875</ele>
        <time>2026-08-05T06:28:32.000Z</time>
        <extensions>
          <ns3:TrackPointExtension>
            <ns3:hr>92</ns3:hr>
            <ns3:cad>42</ns3:cad>
          </ns3:TrackPointExtension>
        </extensions>
      </trkpt>
      <trkpt lat="43.45587314106523990631103515625" lon="1.44173671491444110870361328125">
        <ele>177.1999969482421875</ele>
        <time>2026-08-05T06:28:33.000Z</time>
        <extensions>
          <ns3:TrackPointExtension>
            <ns3:hr>93</ns3:hr>
            <ns3:cad>42</ns3:cad>
          </ns3:TrackPointExtension>
        </extensions>
      </trkpt>
      <trkpt lat="43.455870039761066436767578125" lon="1.441753394901752471923828125">
        <ele>177.399993896484375</ele>
        <time>2026-08-05T06:28:34.000Z</time>
        <extensions>
          <ns3:TrackPointExtension>
            <ns3:hr>93</ns3:hr>
            <ns3:cad>42</ns3:cad>
          </ns3:TrackPointExtension>
        </extensions>
      </trkpt>
      <trkpt lat="43.45586995594203472137451171875" lon="1.441762112081050872802734375">
        <ele>177.600006103515625</ele>
        <time>2026-08-05T06:28:35.000Z</time>
        <extensions>
          <ns3:TrackPointExtension>
            <ns3:hr>94</ns3:hr>
            <ns3:cad>42</ns3:cad>
          </ns3:TrackPointExtension>
        </extensions>
      </trkpt>
      <trkpt lat="43.45586794428527355194091796875" lon="1.44177208654582500457763671875">
        <ele>177.600006103515625</ele>
        <time>2026-08-05T06:28:36.000Z</time>
        <extensions>
          <ns3:TrackPointExtension>
            <ns3:hr>94</ns3:hr>
            <ns3:cad>42</ns3:cad>
          </ns3:TrackPointExtension>
        </extensions>
      </trkpt>
      <trkpt lat="43.45586895011365413665771484375" lon="1.44178926944732666015625">
        <ele>177.8000030517578125</ele>
        <time>2026-08-05T06:28:37.000Z</time>
        <extensions>
          <ns3:TrackPointExtension>
            <ns3:hr>95</ns3:hr>
            <ns3:cad>42</ns3:cad>
          </ns3:TrackPointExtension>
        </extensions>
      </trkpt>
      <trkpt lat="43.45586928538978099822998046875" lon="1.44179874099791049957275390625">
        <ele>177.8000030517578125</ele>
        <time>2026-08-05T06:28:38.000Z</time>
        <extensions>
          <ns3:TrackPointExtension>
            <ns3:hr>95</ns3:hr>
            <ns3:cad>42</ns3:cad>
          </ns3:TrackPointExtension>
        </extensions>
      </trkpt>
      <trkpt lat="43.45586610026657581329345703125" lon="1.44181407988071441650390625">
        <ele>178</ele>
        <time>2026-08-05T06:28:39.000Z</time>
        <extensions>
          <ns3:TrackPointExtension>
            <ns3:hr>95</ns3:hr>
            <ns3:cad>42</ns3:cad>
          </ns3:TrackPointExtension>
        </extensions>
      </trkpt>
      <trkpt lat="43.4558645077049732208251953125" lon="1.44182623364031314849853515625">
        <ele>178</ele>
        <time>2026-08-05T06:28:40.000Z</time>
        <extensions>
          <ns3:TrackPointExtension>
            <ns3:hr>96</ns3:hr>
            <ns3:cad>42</ns3:cad>
          </ns3:TrackPointExtension>
        </extensions>
      </trkpt>
      <trkpt lat="43.45586157403886318206787109375" lon="1.4418340288102626800537109375">
        <ele>178</ele>
        <time>2026-08-05T06:28:41.000Z</time>
        <extensions>
          <ns3:TrackPointExtension>
            <ns3:hr>96</ns3:hr>
            <ns3:cad>78</ns3:cad>
          </ns3:TrackPointExtension>
        </extensions>
      </trkpt>
      <trkpt lat="43.455861322581768035888671875" lon="1.4418447576463222503662109375">
        <ele>178.1999969482421875</ele>
        <time>2026-08-05T06:28:42.000Z</time>
        <extensions>
          <ns3:TrackPointExtension>
            <ns3:hr>96</ns3:hr>
            <ns3:cad>78</ns3:cad>
          </ns3:TrackPointExtension>
        </extensions>
      </trkpt>
      <trkpt lat="43.45586056821048259735107421875" lon="1.441858001053333282470703125">
        <ele>178.1999969482421875</ele>
        <time>2026-08-05T06:28:43.000Z</time>
        <extensions>
          <ns3:TrackPointExtension>
            <ns3:hr>96</ns3:hr>
            <ns3:cad>40</ns3:cad>
          </ns3:TrackPointExtension>
        </extensions>
      </trkpt>
      <trkpt lat="43.4558598138391971588134765625" lon="1.44187183119356632232666015625">
        <ele>178.399993896484375</ele>
        <time>2026-08-05T06:28:44.000Z</time>
        <extensions>
          <ns3:TrackPointExtension>
            <ns3:hr>96</ns3:hr>
            <ns3:cad>40</ns3:cad>
          </ns3:TrackPointExtension>
        </extensions>
      </trkpt>
      <trkpt lat="43.4558614902198314666748046875" lon="1.44188390113413333892822265625">
        <ele>178.399993896484375</ele>
        <time>2026-08-05T06:28:45.000Z</time>
        <extensions>
          <ns3:TrackPointExtension>
            <ns3:hr>97</ns3:hr>
            <ns3:cad>40</ns3:cad>
          </ns3:TrackPointExtension>
        </extensions>
      </trkpt>
      <trkpt lat="43.4558618254959583282470703125" lon="1.4419024251401424407958984375">
        <ele>178.399993896484375</ele>
        <time>2026-08-05T06:28:46.000Z</time>
        <extensions>
          <ns3:TrackPointExtension>
            <ns3:hr>97</ns3:hr>
            <ns3:cad>41</ns3:cad>
          </ns3:TrackPointExtension>
        </extensions>
      </trkpt>
      <trkpt lat="43.45586123876273632049560546875" lon="1.44191491417586803436279296875">
        <ele>178.600006103515625</ele>
        <time>2026-08-05T06:28:47.000Z</time>
        <extensions>
          <ns3:TrackPointExtension>
            <ns3:hr>97</ns3:hr>
            <ns3:cad>41</ns3:cad>
          </ns3:TrackPointExtension>
        </extensions>
      </trkpt>
      <trkpt lat="43.455861993134021759033203125" lon="1.4419255591928958892822265625">
        <ele>178.8000030517578125</ele>
        <time>2026-08-05T06:28:48.000Z</time>
        <extensions>
          <ns3:TrackPointExtension>
            <ns3:hr>98</ns3:hr>
            <ns3:cad>41</ns3:cad>
          </ns3:TrackPointExtension>
        </extensions>
      </trkpt>
      <trkpt lat="43.4558578021824359893798828125" lon="1.44194425083696842193603515625">
        <ele>178.8000030517578125</ele>
        <time>2026-08-05T06:28:49.000Z</time>
        <extensions>
          <ns3:TrackPointExtension>
            <ns3:hr>98</ns3:hr>
            <ns3:cad>41</ns3:cad>
          </ns3:TrackPointExtension>
        </extensions>
      </trkpt>
      <trkpt lat="43.45586023293435573577880859375" lon="1.44195615313947200775146484375">
        <ele>179</ele>
        <time>2026-08-05T06:28:50.000Z</time>
        <extensions>
          <ns3:TrackPointExtension>
            <ns3:hr>98</ns3:hr>
            <ns3:cad>41</ns3:cad>
          </ns3:TrackPointExtension>
        </extensions>
      </trkpt>
      <trkpt lat="43.455860316753387451171875" lon="1.44196487031877040863037109375">
        <ele>179</ele>
        <time>2026-08-05T06:28:51.000Z</time>
        <extensions>
          <ns3:TrackPointExtension>
            <ns3:hr>99</ns3:hr>
            <ns3:cad>79</ns3:cad>
          </ns3:TrackPointExtension>
        </extensions>
      </trkpt>
      <trkpt lat="43.45585788600146770477294921875" lon="1.441979371011257171630859375">
        <ele>179.1999969482421875</ele>
        <time>2026-08-05T06:28:52.000Z</time>
        <extensions>
          <ns3:TrackPointExtension>
            <ns3:hr>100</ns3:hr>
            <ns3:cad>79</ns3:cad>
          </ns3:TrackPointExtension>
        </extensions>
      </trkpt>
      <trkpt lat="43.455856628715991973876953125" lon="1.441992782056331634521484375">
        <ele>179.1999969482421875</ele>
        <time>2026-08-05T06:28:53.000Z</time>
        <extensions>
          <ns3:TrackPointExtension>
            <ns3:hr>100</ns3:hr>
            <ns3:cad>78</ns3:cad>
          </ns3:TrackPointExtension>
        </extensions>
      </trkpt>
      <trkpt lat="43.45585587434470653533935546875" lon="1.4419993199408054351806640625">
        <ele>179.399993896484375</ele>
        <time>2026-08-05T06:28:54.000Z</time>
        <extensions>
          <ns3:TrackPointExtension>
            <ns3:hr>100</ns3:hr>
            <ns3:cad>41</ns3:cad>
          </ns3:TrackPointExtension>
        </extensions>
      </trkpt>
      <trkpt lat="43.455854617059230804443359375" lon="1.44200510345399379730224609375">
        <ele>179.399993896484375</ele>
        <time>2026-08-05T06:28:55.000Z</time>
        <extensions>
          <ns3:TrackPointExtension>
            <ns3:hr>100</ns3:hr>
            <ns3:cad>41</ns3:cad>
          </ns3:TrackPointExtension>
        </extensions>
      </trkpt>
      <trkpt lat="43.45585830509662628173828125" lon="1.44201197661459445953369140625">
        <ele>179.399993896484375</ele>
        <time>2026-08-05T06:28:56.000Z</time>
        <extensions>
          <ns3:TrackPointExtension>
            <ns3:hr>101</ns3:hr>
            <ns3:cad>43</ns3:cad>
          </ns3:TrackPointExtension>
        </extensions>
      </trkpt>
      <trkpt lat="43.45585771836340427398681640625" lon="1.4420251362025737762451171875">
        <ele>179.399993896484375</ele>
        <time>2026-08-05T06:28:57.000Z</time>
        <extensions>
          <ns3:TrackPointExtension>
            <ns3:hr>101</ns3:hr>
            <ns3:cad>79</ns3:cad>
          </ns3:TrackPointExtension>
        </extensions>
      </trkpt>
      <trkpt lat="43.45585428178310394287109375" lon="1.44204148091375827789306640625">
        <ele>179.600006103515625</ele>
        <time>2026-08-05T06:28:58.000Z</time>
        <extensions>
          <ns3:TrackPointExtension>
            <ns3:hr>101</ns3:hr>
            <ns3:cad>79</ns3:cad>
          </ns3:TrackPointExtension>
        </extensions>
      </trkpt>
      <trkpt lat="43.45585520379245281219482421875" lon="1.4420506171882152557373046875">
        <ele>179.600006103515625</ele>
        <time>2026-08-05T06:28:59.000Z</time>
        <extensions>
          <ns3:TrackPointExtension>
            <ns3:hr>101</ns3:hr>
            <ns3:cad>79</ns3:cad>
          </ns3:TrackPointExtension>
        </extensions>
      </trkpt>
      <trkpt lat="43.4558524377644062042236328125" lon="1.44206142984330654144287109375">
        <ele>179.600006103515625</ele>
        <time>2026-08-05T06:29:00.000Z</time>
        <extensions>
          <ns3:TrackPointExtension>
            <ns3:hr>101</ns3:hr>
            <ns3:cad>79</ns3:cad>
          </ns3:TrackPointExtension>
        </extensions>
      </trkpt>
      <trkpt lat="43.4558510966598987579345703125" lon="1.4420737512409687042236328125">
        <ele>179.8000030517578125</ele>
        <time>2026-08-05T06:29:01.000Z</time>
        <extensions>
          <ns3:TrackPointExtension>
            <ns3:hr>101</ns3:hr>
            <ns3:cad>79</ns3:cad>
          </ns3:TrackPointExtension>
        </extensions>
      </trkpt>
      <trkpt lat="43.45584615133702754974365234375" lon="1.4420844800770282745361328125">
        <ele>179.8000030517578125</ele>
        <time>2026-08-05T06:29:02.000Z</time>
        <extensions>
          <ns3:TrackPointExtension>
            <ns3:hr>101</ns3:hr>
            <ns3:cad>41</ns3:cad>
          </ns3:TrackPointExtension>
        </extensions>
      </trkpt>
      <trkpt lat="43.455844558775424957275390625" lon="1.44209529273211956024169921875">
        <ele>179.8000030517578125</ele>
        <time>2026-08-05T06:29:03.000Z</time>
        <extensions>
          <ns3:TrackPointExtension>
            <ns3:hr>101</ns3:hr>
            <ns3:cad>41</ns3:cad>
          </ns3:TrackPointExtension>
        </extensions>
      </trkpt>
      <trkpt lat="43.45584397204220294952392578125" lon="1.44211172126233577728271484375">
        <ele>180</ele>
        <time>2026-08-05T06:29:04.000Z</time>
        <extensions>
          <ns3:TrackPointExtension>
            <ns3:hr>101</ns3:hr>
            <ns3:cad>41</ns3:cad>
          </ns3:TrackPointExtension>
        </extensions>
      </trkpt>
      <trkpt lat="43.45584263093769550323486328125" lon="1.44212714396417140960693359375">
        <ele>180</ele>
        <time>2026-08-05T06:29:05.000Z</time>
        <extensions>
          <ns3:TrackPointExtension>
            <ns3:hr>102</ns3:hr>
            <ns3:cad>44</ns3:cad>
          </ns3:TrackPointExtension>
        </extensions>
      </trkpt>
      <trkpt lat="43.45583952963352203369140625" lon="1.44213770516216754913330078125">
        <ele>180</ele>
        <time>2026-08-05T06:29:06.000Z</time>
        <extensions>
          <ns3:TrackPointExtension>
            <ns3:hr>101</ns3:hr>
            <ns3:cad>44</ns3:cad>
          </ns3:TrackPointExtension>
        </extensions>
      </trkpt>
      <trkpt lat="43.45583592541515827178955078125" lon="1.442146338522434234619140625">
        <ele>180</ele>
        <time>2026-08-05T06:29:07.000Z</time>
        <extensions>
          <ns3:TrackPointExtension>
            <ns3:hr>101</ns3:hr>
            <ns3:cad>44</ns3:cad>
          </ns3:TrackPointExtension>
        </extensions>
      </trkpt>
      <trkpt lat="43.4558323211967945098876953125" lon="1.44216218031942844390869140625">
        <ele>180</ele>
        <time>2026-08-05T06:29:08.000Z</time>
        <extensions>
          <ns3:TrackPointExtension>
            <ns3:hr>100</ns3:hr>
            <ns3:cad>44</ns3:cad>
          </ns3:TrackPointExtension>
        </extensions>
      </trkpt>
      <trkpt lat="43.45583173446357250213623046875" lon="1.44217475317418575286865234375">
        <ele>180</ele>
        <time>2026-08-05T06:29:09.000Z</time>
        <extensions>
          <ns3:TrackPointExtension>
            <ns3:hr>100</ns3:hr>
            <ns3:cad>45</ns3:cad>
          </ns3:TrackPointExtension>
        </extensions>
      </trkpt>
      <trkpt lat="43.4558306448161602020263671875" lon="1.442184560000896453857421875">
        <ele>180</ele>
        <time>2026-08-05T06:29:10.000Z</time>
        <extensions>
          <ns3:TrackPointExtension>
            <ns3:hr>99</ns3:hr>
            <ns3:cad>45</ns3:cad>
          </ns3:TrackPointExtension>
        </extensions>
      </trkpt>
      <trkpt lat="43.4558286331593990325927734375" lon="1.44220056943595409393310546875">
        <ele>180.1999969482421875</ele>
        <time>2026-08-05T06:29:11.000Z</time>
        <extensions>
          <ns3:TrackPointExtension>
            <ns3:hr>99</ns3:hr>
            <ns3:cad>44</ns3:cad>
          </ns3:TrackPointExtension>
        </extensions>
      </trkpt>
      <trkpt lat="43.45582871697843074798583984375" lon="1.4422142319381237030029296875">
        <ele>180.1999969482421875</ele>
        <time>2026-08-05T06:29:12.000Z</time>
        <extensions>
          <ns3:TrackPointExtension>
            <ns3:hr>99</ns3:hr>
            <ns3:cad>44</ns3:cad>
          </ns3:TrackPointExtension>
        </extensions>
      </trkpt>
      <trkpt lat="43.45582653768360614776611328125" lon="1.4422299899160861968994140625">
        <ele>180.1999969482421875</ele>
        <time>2026-08-05T06:29:13.000Z</time>
        <extensions>
          <ns3:TrackPointExtension>
            <ns3:hr>99</ns3:hr>
            <ns3:cad>43</ns3:cad>
          </ns3:TrackPointExtension>
        </extensions>
      </trkpt>
      <trkpt lat="43.45582435838878154754638671875" lon="1.44224180839955806732177734375">
        <ele>180.399993896484375</ele>
        <time>2026-08-05T06:29:14.000Z</time>
        <extensions>
          <ns3:TrackPointExtension>
            <ns3:hr>100</ns3:hr>
            <ns3:cad>43</ns3:cad>
          </ns3:TrackPointExtension>
        </extensions>
      </trkpt>
      <trkpt lat="43.455822765827178955078125" lon="1.44225471653044223785400390625">
        <ele>180.399993896484375</ele>
        <time>2026-08-05T06:29:15.000Z</time>
        <extensions>
          <ns3:TrackPointExtension>
            <ns3:hr>99</ns3:hr>
            <ns3:cad>43</ns3:cad>
          </ns3:TrackPointExtension>
        </extensions>
      </trkpt>
      <trkpt lat="43.4558205865323543548583984375" lon="1.442265696823596954345703125">
        <ele>180.399993896484375</ele>
        <time>2026-08-05T06:29:16.000Z</time>
        <extensions>
          <ns3:TrackPointExtension>
            <ns3:hr>99</ns3:hr>
            <ns3:cad>43</ns3:cad>
          </ns3:TrackPointExtension>
        </extensions>
      </trkpt>
      <trkpt lat="43.45582016743719577789306640625" lon="1.44227500073611736297607421875">
        <ele>180.600006103515625</ele>
        <time>2026-08-05T06:29:17.000Z</time>
        <extensions>
          <ns3:TrackPointExtension>
            <ns3:hr>99</ns3:hr>
            <ns3:cad>43</ns3:cad>
          </ns3:TrackPointExtension>
        </extensions>
      </trkpt>
      <trkpt lat="43.455816395580768585205078125" lon="1.4422900043427944183349609375">
        <ele>180.600006103515625</ele>
        <time>2026-08-05T06:29:18.000Z</time>
        <extensions>
          <ns3:TrackPointExtension>
            <ns3:hr>100</ns3:hr>
            <ns3:cad>41</ns3:cad>
          </ns3:TrackPointExtension>
        </extensions>
      </trkpt>
      <trkpt lat="43.455815725028514862060546875" lon="1.442304588854312896728515625">
        <ele>180.600006103515625</ele>
        <time>2026-08-05T06:29:19.000Z</time>
        <extensions>
          <ns3:TrackPointExtension>
            <ns3:hr>99</ns3:hr>
            <ns3:cad>41</ns3:cad>
          </ns3:TrackPointExtension>
        </extensions>
      </trkpt>
      <trkpt lat="43.455815725028514862060546875" lon="1.4423124678432941436767578125">
        <ele>180.600006103515625</ele>
        <time>2026-08-05T06:29:20.000Z</time>
        <extensions>
          <ns3:TrackPointExtension>
            <ns3:hr>99</ns3:hr>
            <ns3:cad>41</ns3:cad>
          </ns3:TrackPointExtension>
        </extensions>
      </trkpt>
      <trkpt lat="43.45581413246691226959228515625" lon="1.44232529215514659881591796875">
        <ele>180.600006103515625</ele>
        <time>2026-08-05T06:29:21.000Z</time>
        <extensions>
          <ns3:TrackPointExtension>
            <ns3:hr>99</ns3:hr>
            <ns3:cad>41</ns3:cad>
          </ns3:TrackPointExtension>
        </extensions>
      </trkpt>
      <trkpt lat="43.45581538975238800048828125" lon="1.4423396252095699310302734375">
        <ele>180.8000030517578125</ele>
        <time>2026-08-05T06:29:22.000Z</time>
        <extensions>
          <ns3:TrackPointExtension>
            <ns3:hr>99</ns3:hr>
            <ns3:cad>41</ns3:cad>
          </ns3:TrackPointExtension>
        </extensions>
      </trkpt>
      <trkpt lat="43.4558148868381977081298828125" lon="1.442350186407566070556640625">
        <ele>180.8000030517578125</ele>
        <time>2026-08-05T06:29:23.000Z</time>
        <extensions>
          <ns3:TrackPointExtension>
            <ns3:hr>99</ns3:hr>
            <ns3:cad>41</ns3:cad>
          </ns3:TrackPointExtension>
        </extensions>
      </trkpt>
      <trkpt lat="43.4558152221143245697021484375" lon="1.442363597452640533447265625">
        <ele>180.8000030517578125</ele>
        <time>2026-08-05T06:29:24.000Z</time>
        <extensions>
          <ns3:TrackPointExtension>
            <ns3:hr>99</ns3:hr>
            <ns3:cad>41</ns3:cad>
          </ns3:TrackPointExtension>
        </extensions>
      </trkpt>
      <trkpt lat="43.45581471920013427734375" lon="1.44237910397350788116455078125">
        <ele>180.8000030517578125</ele>
        <time>2026-08-05T06:29:25.000Z</time>
        <extensions>
          <ns3:TrackPointExtension>
            <ns3:hr>99</ns3:hr>
            <ns3:cad>41</ns3:cad>
          </ns3:TrackPointExtension>
        </extensions>
      </trkpt>
      <trkpt lat="43.45581497065722942352294921875" lon="1.44239469431340694427490234375">
        <ele>180.8000030517578125</ele>
        <time>2026-08-05T06:29:26.000Z</time>
        <extensions>
          <ns3:TrackPointExtension>
            <ns3:hr>99</ns3:hr>
            <ns3:cad>41</ns3:cad>
          </ns3:TrackPointExtension>
        </extensions>
      </trkpt>
      <trkpt lat="43.45581262372434139251708984375" lon="1.44240550696849822998046875">
        <ele>180.8000030517578125</ele>
        <time>2026-08-05T06:29:27.000Z</time>
        <extensions>
          <ns3:TrackPointExtension>
            <ns3:hr>98</ns3:hr>
            <ns3:cad>42</ns3:cad>
          </ns3:TrackPointExtension>
        </extensions>
      </trkpt>
      <trkpt lat="43.45581270754337310791015625" lon="1.44241799600422382354736328125">
        <ele>181</ele>
        <time>2026-08-05T06:29:28.000Z</time>
        <extensions>
          <ns3:TrackPointExtension>
            <ns3:hr>98</ns3:hr>
            <ns3:cad>44</ns3:cad>
          </ns3:TrackPointExtension>
        </extensions>
      </trkpt>
      <trkpt lat="43.45581136643886566162109375" lon="1.44243475981056690216064453125">
        <ele>181</ele>
        <time>2026-08-05T06:29:29.000Z</time>
        <extensions>
          <ns3:TrackPointExtension>
            <ns3:hr>98</ns3:hr>
            <ns3:cad>44</ns3:cad>
          </ns3:TrackPointExtension>
        </extensions>
      </trkpt>
      <trkpt lat="43.45581245608627796173095703125" lon="1.442448757588863372802734375">
        <ele>181</ele>
        <time>2026-08-05T06:29:30.000Z</time>
        <extensions>
          <ns3:TrackPointExtension>
            <ns3:hr>98</ns3:hr>
            <ns3:cad>44</ns3:cad>
          </ns3:TrackPointExtension>
        </extensions>
      </trkpt>
      <trkpt lat="43.4558118693530559539794921875" lon="1.442457474768161773681640625">
        <ele>181.1999969482421875</ele>
        <time>2026-08-05T06:29:31.000Z</time>
        <extensions>
          <ns3:TrackPointExtension>
            <ns3:hr>98</ns3:hr>
            <ns3:cad>44</ns3:cad>
          </ns3:TrackPointExtension>
        </extensions>
      </trkpt>
      <trkpt lat="43.45580994151532649993896484375" lon="1.4424692094326019287109375">
        <ele>181.1999969482421875</ele>
        <time>2026-08-05T06:29:32.000Z</time>
        <extensions>
          <ns3:TrackPointExtension>
            <ns3:hr>98</ns3:hr>
            <ns3:cad>43</ns3:cad>
          </ns3:TrackPointExtension>
        </extensions>
      </trkpt>
      <trkpt lat="43.455808348953723907470703125" lon="1.44248454831540584564208984375">
        <ele>181.1999969482421875</ele>
        <time>2026-08-05T06:29:33.000Z</time>
        <extensions>
          <ns3:TrackPointExtension>
            <ns3:hr>98</ns3:hr>
            <ns3:cad>44</ns3:cad>
          </ns3:TrackPointExtension>
        </extensions>
      </trkpt>
      <trkpt lat="43.45580893568694591522216796875" lon="1.44249393604695796966552734375">
        <ele>181.1999969482421875</ele>
        <time>2026-08-05T06:29:34.000Z</time>
        <extensions>
          <ns3:TrackPointExtension>
            <ns3:hr>98</ns3:hr>
            <ns3:cad>44</ns3:cad>
          </ns3:TrackPointExtension>
        </extensions>
      </trkpt>
      <trkpt lat="43.45580600202083587646484375" lon="1.44250432960689067840576171875">
        <ele>181.399993896484375</ele>
        <time>2026-08-05T06:29:35.000Z</time>
        <extensions>
          <ns3:TrackPointExtension>
            <ns3:hr>98</ns3:hr>
            <ns3:cad>44</ns3:cad>
          </ns3:TrackPointExtension>
        </extensions>
      </trkpt>
      <trkpt lat="43.4558031521737575531005859375" lon="1.44251841120421886444091796875">
        <ele>181.399993896484375</ele>
        <time>2026-08-05T06:29:36.000Z</time>
        <extensions>
          <ns3:TrackPointExtension>
            <ns3:hr>98</ns3:hr>
            <ns3:cad>44</ns3:cad>
          </ns3:TrackPointExtension>
        </extensions>
      </trkpt>
      <trkpt lat="43.45580508001148700714111328125" lon="1.4425277151167392730712890625">
        <ele>181.399993896484375</ele>
        <time>2026-08-05T06:29:37.000Z</time>
        <extensions>
          <ns3:TrackPointExtension>
            <ns3:hr>98</ns3:hr>
            <ns3:cad>44</ns3:cad>
          </ns3:TrackPointExtension>
        </extensions>
      </trkpt>
      <trkpt lat="43.4558054991066455841064453125" lon="1.442537941038608551025390625">
        <ele>181.399993896484375</ele>
        <time>2026-08-05T06:29:38.000Z</time>
        <extensions>
          <ns3:TrackPointExtension>
            <ns3:hr>97</ns3:hr>
            <ns3:cad>78</ns3:cad>
          </ns3:TrackPointExtension>
        </extensions>
      </trkpt>
      <trkpt lat="43.45580742694437503814697265625" lon="1.4425478316843509674072265625">
        <ele>181.600006103515625</ele>
        <time>2026-08-05T06:29:39.000Z</time>
        <extensions>
          <ns3:TrackPointExtension>
            <ns3:hr>97</ns3:hr>
            <ns3:cad>78</ns3:cad>
          </ns3:TrackPointExtension>
        </extensions>
      </trkpt>
      <trkpt lat="43.4558081813156604766845703125" lon="1.44255596213042736053466796875">
        <ele>181.600006103515625</ele>
        <time>2026-08-05T06:29:40.000Z</time>
        <extensions>
          <ns3:TrackPointExtension>
            <ns3:hr>97</ns3:hr>
            <ns3:cad>40</ns3:cad>
          </ns3:TrackPointExtension>
        </extensions>
      </trkpt>
      <trkpt lat="43.45580792985856533050537109375" lon="1.44256836734712123870849609375">
        <ele>181.600006103515625</ele>
        <time>2026-08-05T06:29:41.000Z</time>
        <extensions>
          <ns3:TrackPointExtension>
            <ns3:hr>98</ns3:hr>
            <ns3:cad>40</ns3:cad>
          </ns3:TrackPointExtension>
        </extensions>
      </trkpt>
      <trkpt lat="43.45580608583986759185791015625" lon="1.44258655607700347900390625">
        <ele>181.8000030517578125</ele>
        <time>2026-08-05T06:29:42.000Z</time>
        <extensions>
          <ns3:TrackPointExtension>
            <ns3:hr>98</ns3:hr>
            <ns3:cad>40</ns3:cad>
          </ns3:TrackPointExtension>
        </extensions>
      </trkpt>
      <trkpt lat="43.4558051638305187225341796875" lon="1.442601978778839111328125">
        <ele>181.8000030517578125</ele>
        <time>2026-08-05T06:29:43.000Z</time>
        <extensions>
          <ns3:TrackPointExtension>
            <ns3:hr>97</ns3:hr>
            <ns3:cad>42</ns3:cad>
          </ns3:TrackPointExtension>
        </extensions>
      </trkpt>
      <trkpt lat="43.4558044932782649993896484375" lon="1.44261262379586696624755859375">
        <ele>181.8000030517578125</ele>
        <time>2026-08-05T06:29:44.000Z</time>
        <extensions>
          <ns3:TrackPointExtension>
            <ns3:hr>97</ns3:hr>
            <ns3:cad>42</ns3:cad>
          </ns3:TrackPointExtension>
        </extensions>
      </trkpt>
      <trkpt lat="43.4558026492595672607421875" lon="1.44262804649770259857177734375">
        <ele>181.8000030517578125</ele>
        <time>2026-08-05T06:29:45.000Z</time>
        <extensions>
          <ns3:TrackPointExtension>
            <ns3:hr>97</ns3:hr>
            <ns3:cad>42</ns3:cad>
          </ns3:TrackPointExtension>
        </extensions>
      </trkpt>
      <trkpt lat="43.45580399036407470703125" lon="1.44264045171439647674560546875">
        <ele>182</ele>
        <time>2026-08-05T06:29:46.000Z</time>
        <extensions>
          <ns3:TrackPointExtension>
            <ns3:hr>97</ns3:hr>
            <ns3:cad>42</ns3:cad>
          </ns3:TrackPointExtension>
        </extensions>
      </trkpt>
      <trkpt lat="43.45580306835472583770751953125" lon="1.4426531083881855010986328125">
        <ele>182</ele>
        <time>2026-08-05T06:29:47.000Z</time>
        <extensions>
          <ns3:TrackPointExtension>
            <ns3:hr>96</ns3:hr>
            <ns3:cad>42</ns3:cad>
          </ns3:TrackPointExtension>
        </extensions>
      </trkpt>
      <trkpt lat="43.4558041580021381378173828125" lon="1.44266677089035511016845703125">
        <ele>182.1999969482421875</ele>
        <time>2026-08-05T06:29:48.000Z</time>
        <extensions>
          <ns3:TrackPointExtension>
            <ns3:hr>96</ns3:hr>
            <ns3:cad>42</ns3:cad>
          </ns3:TrackPointExtension>
        </extensions>
      </trkpt>
      <trkpt lat="43.45580457709729671478271484375" lon="1.44268437288701534271240234375">
        <ele>182.1999969482421875</ele>
        <time>2026-08-05T06:29:49.000Z</time>
        <extensions>
          <ns3:TrackPointExtension>
            <ns3:hr>95</ns3:hr>
            <ns3:cad>42</ns3:cad>
          </ns3:TrackPointExtension>
        </extensions>
      </trkpt>
      <trkpt lat="43.45580390654504299163818359375" lon="1.4426960237324237823486328125">
        <ele>182.1999969482421875</ele>
        <time>2026-08-05T06:29:50.000Z</time>
        <extensions>
          <ns3:TrackPointExtension>
            <ns3:hr>95</ns3:hr>
            <ns3:cad>42</ns3:cad>
          </ns3:TrackPointExtension>
        </extensions>
      </trkpt>
      <trkpt lat="43.45580122433602809906005859375" lon="1.44270683638751506805419921875">
        <ele>182.399993896484375</ele>
        <time>2026-08-05T06:29:51.000Z</time>
        <extensions>
          <ns3:TrackPointExtension>
            <ns3:hr>95</ns3:hr>
            <ns3:cad>41</ns3:cad>
          </ns3:TrackPointExtension>
        </extensions>
      </trkpt>
      <trkpt lat="43.4557984583079814910888671875" lon="1.44272468984127044677734375">
        <ele>182.399993896484375</ele>
        <time>2026-08-05T06:29:52.000Z</time>
        <extensions>
          <ns3:TrackPointExtension>
            <ns3:hr>95</ns3:hr>
            <ns3:cad>41</ns3:cad>
          </ns3:TrackPointExtension>
        </extensions>
      </trkpt>
      <trkpt lat="43.45579669810831546783447265625" lon="1.4427347481250762939453125">
        <ele>182.399993896484375</ele>
        <time>2026-08-05T06:29:53.000Z</time>
        <extensions>
          <ns3:TrackPointExtension>
            <ns3:hr>95</ns3:hr>
            <ns3:cad>80</ns3:cad>
          </ns3:TrackPointExtension>
        </extensions>
      </trkpt>
      <trkpt lat="43.455800302326679229736328125" lon="1.44274254329502582550048828125">
        <ele>182.600006103515625</ele>
        <time>2026-08-05T06:29:54.000Z</time>
        <extensions>
          <ns3:TrackPointExtension>
            <ns3:hr>95</ns3:hr>
            <ns3:cad>80</ns3:cad>
          </ns3:TrackPointExtension>
        </extensions>
      </trkpt>
      <trkpt lat="43.4558018110692501068115234375" lon="1.44275846891105175018310546875">
        <ele>182.600006103515625</ele>
        <time>2026-08-05T06:29:55.000Z</time>
        <extensions>
          <ns3:TrackPointExtension>
            <ns3:hr>94</ns3:hr>
            <ns3:cad>41</ns3:cad>
          </ns3:TrackPointExtension>
        </extensions>
      </trkpt>
      <trkpt lat="43.455800972878932952880859375" lon="1.44276358187198638916015625">
        <ele>182.8000030517578125</ele>
        <time>2026-08-05T06:29:56.000Z</time>
        <extensions>
          <ns3:TrackPointExtension>
            <ns3:hr>95</ns3:hr>
            <ns3:cad>41</ns3:cad>
          </ns3:TrackPointExtension>
        </extensions>
      </trkpt>
      <trkpt lat="43.45580139197409152984619140625" lon="1.4427691139280796051025390625">
        <ele>182.8000030517578125</ele>
        <time>2026-08-05T06:29:57.000Z</time>
        <extensions>
          <ns3:TrackPointExtension>
            <ns3:hr>95</ns3:hr>
            <ns3:cad>41</ns3:cad>
          </ns3:TrackPointExtension>
        </extensions>
      </trkpt>
      <trkpt lat="43.4558026492595672607421875" lon="1.44278076477348804473876953125">
        <ele>183</ele>
        <time>2026-08-05T06:29:58.000Z</time>
        <extensions>
          <ns3:TrackPointExtension>
            <ns3:hr>95</ns3:hr>
            <ns3:cad>41</ns3:cad>
          </ns3:TrackPointExtension>
        </extensions>
      </trkpt>
      <trkpt lat="43.45580508001148700714111328125" lon="1.4427905716001987457275390625">
        <ele>183</ele>
        <time>2026-08-05T06:29:59.000Z</time>
        <extensions>
          <ns3:TrackPointExtension>
            <ns3:hr>94</ns3:hr>
            <ns3:cad>41</ns3:cad>
          </ns3:TrackPointExtension>
        </extensions>
      </trkpt>
      <trkpt lat="43.45580759458243846893310546875" lon="1.44280121661722660064697265625">
        <ele>183</ele>
        <time>2026-08-05T06:30:00.000Z</time>
        <extensions>
          <ns3:TrackPointExtension>
            <ns3:hr>94</ns3:hr>
            <ns3:cad>41</ns3:cad>
          </ns3:TrackPointExtension>
        </extensions>
      </trkpt>
      <trkpt lat="43.455811031162738800048828125" lon="1.44281320273876190185546875">
        <ele>183.1999969482421875</ele>
        <time>2026-08-05T06:30:01.000Z</time>
        <extensions>
          <ns3:TrackPointExtension>
            <ns3:hr>94</ns3:hr>
            <ns3:cad>42</ns3:cad>
          </ns3:TrackPointExtension>
        </extensions>
      </trkpt>
      <trkpt lat="43.455811701714992523193359375" lon="1.442829631268978118896484375">
        <ele>183.1999969482421875</ele>
        <time>2026-08-05T06:30:02.000Z</time>
        <extensions>
          <ns3:TrackPointExtension>
            <ns3:hr>94</ns3:hr>
            <ns3:cad>43</ns3:cad>
          </ns3:TrackPointExtension>
        </extensions>
      </trkpt>
      <trkpt lat="43.45581128261983394622802734375" lon="1.44284161739051342010498046875">
        <ele>183.399993896484375</ele>
        <time>2026-08-05T06:30:03.000Z</time>
        <extensions>
          <ns3:TrackPointExtension>
            <ns3:hr>95</ns3:hr>
            <ns3:cad>43</ns3:cad>
          </ns3:TrackPointExtension>
        </extensions>
      </trkpt>
      <trkpt lat="43.455813713371753692626953125" lon="1.44285343587398529052734375">
        <ele>183.399993896484375</ele>
        <time>2026-08-05T06:30:04.000Z</time>
        <extensions>
          <ns3:TrackPointExtension>
            <ns3:hr>95</ns3:hr>
            <ns3:cad>45</ns3:cad>
          </ns3:TrackPointExtension>
        </extensions>
      </trkpt>
      <trkpt lat="43.45581329427659511566162109375" lon="1.44287564791738986968994140625">
        <ele>183.600006103515625</ele>
        <time>2026-08-05T06:30:05.000Z</time>
        <extensions>
          <ns3:TrackPointExtension>
            <ns3:hr>95</ns3:hr>
            <ns3:cad>45</ns3:cad>
          </ns3:TrackPointExtension>
        </extensions>
      </trkpt>
      <trkpt lat="43.45581647939980030059814453125" lon="1.4428884722292423248291015625">
        <ele>183.600006103515625</ele>
        <time>2026-08-05T06:30:06.000Z</time>
        <extensions>
          <ns3:TrackPointExtension>
            <ns3:hr>95</ns3:hr>
            <ns3:cad>41</ns3:cad>
          </ns3:TrackPointExtension>
        </extensions>
      </trkpt>
      <trkpt lat="43.4558172337710857391357421875" lon="1.4428985305130481719970703125">
        <ele>183.8000030517578125</ele>
        <time>2026-08-05T06:30:07.000Z</time>
        <extensions>
          <ns3:TrackPointExtension>
            <ns3:hr>95</ns3:hr>
            <ns3:cad>41</ns3:cad>
          </ns3:TrackPointExtension>
        </extensions>
      </trkpt>
      <trkpt lat="43.4558200836181640625" lon="1.44291252829134464263916015625">
        <ele>183.8000030517578125</ele>
        <time>2026-08-05T06:30:08.000Z</time>
        <extensions>
          <ns3:TrackPointExtension>
            <ns3:hr>96</ns3:hr>
            <ns3:cad>41</ns3:cad>
          </ns3:TrackPointExtension>
        </extensions>
      </trkpt>
      <trkpt lat="43.45581966452300548553466796875" lon="1.44292694516479969024658203125">
        <ele>184</ele>
        <time>2026-08-05T06:30:09.000Z</time>
        <extensions>
          <ns3:TrackPointExtension>
            <ns3:hr>97</ns3:hr>
            <ns3:cad>40</ns3:cad>
          </ns3:TrackPointExtension>
        </extensions>
      </trkpt>
      <trkpt lat="43.4558192454278469085693359375" lon="1.4429377578198909759521484375">
        <ele>184.1999969482421875</ele>
        <time>2026-08-05T06:30:10.000Z</time>
        <extensions>
          <ns3:TrackPointExtension>
            <ns3:hr>97</ns3:hr>
            <ns3:cad>40</ns3:cad>
          </ns3:TrackPointExtension>
        </extensions>
      </trkpt>
      <trkpt lat="43.455822430551052093505859375" lon="1.44294957630336284637451171875">
        <ele>184.1999969482421875</ele>
        <time>2026-08-05T06:30:11.000Z</time>
        <extensions>
          <ns3:TrackPointExtension>
            <ns3:hr>97</ns3:hr>
            <ns3:cad>41</ns3:cad>
          </ns3:TrackPointExtension>
        </extensions>
      </trkpt>
      <trkpt lat="43.45582452602684497833251953125" lon="1.442967094480991363525390625">
        <ele>184.399993896484375</ele>
        <time>2026-08-05T06:30:12.000Z</time>
        <extensions>
          <ns3:TrackPointExtension>
            <ns3:hr>97</ns3:hr>
            <ns3:cad>42</ns3:cad>
          </ns3:TrackPointExtension>
        </extensions>
      </trkpt>
      <trkpt lat="43.45582452602684497833251953125" lon="1.442982852458953857421875">
        <ele>184.399993896484375</ele>
        <time>2026-08-05T06:30:13.000Z</time>
        <extensions>
          <ns3:TrackPointExtension>
            <ns3:hr>97</ns3:hr>
            <ns3:cad>42</ns3:cad>
          </ns3:TrackPointExtension>
        </extensions>
      </trkpt>
      <trkpt lat="43.45582519657909870147705078125" lon="1.44299265928566455841064453125">
        <ele>184.600006103515625</ele>
        <time>2026-08-05T06:30:14.000Z</time>
        <extensions>
          <ns3:TrackPointExtension>
            <ns3:hr>97</ns3:hr>
            <ns3:cad>42</ns3:cad>
          </ns3:TrackPointExtension>
        </extensions>
      </trkpt>
      <trkpt lat="43.4558266215026378631591796875" lon="1.44300472922623157501220703125">
        <ele>184.600006103515625</ele>
        <time>2026-08-05T06:30:15.000Z</time>
        <extensions>
          <ns3:TrackPointExtension>
            <ns3:hr>97</ns3:hr>
            <ns3:cad>42</ns3:cad>
          </ns3:TrackPointExtension>
        </extensions>
      </trkpt>
      <trkpt lat="43.4558282978832721710205078125" lon="1.4430125243961811065673828125">
        <ele>184.8000030517578125</ele>
        <time>2026-08-05T06:30:16.000Z</time>
        <extensions>
          <ns3:TrackPointExtension>
            <ns3:hr>97</ns3:hr>
            <ns3:cad>42</ns3:cad>
          </ns3:TrackPointExtension>
        </extensions>
      </trkpt>
      <trkpt lat="43.4558323211967945098876953125" lon="1.44302937202155590057373046875">
        <ele>184.8000030517578125</ele>
        <time>2026-08-05T06:30:17.000Z</time>
        <extensions>
          <ns3:TrackPointExtension>
            <ns3:hr>97</ns3:hr>
            <ns3:cad>42</ns3:cad>
          </ns3:TrackPointExtension>
        </extensions>
      </trkpt>
      <trkpt lat="43.4558313153684139251708984375" lon="1.44304387271404266357421875">
        <ele>185</ele>
        <time>2026-08-05T06:30:18.000Z</time>
        <extensions>
          <ns3:TrackPointExtension>
            <ns3:hr>97</ns3:hr>
            <ns3:cad>42</ns3:cad>
          </ns3:TrackPointExtension>
        </extensions>
      </trkpt>
      <trkpt lat="43.4558299742639064788818359375" lon="1.44305485300719738006591796875">
        <ele>185.1999969482421875</ele>
        <time>2026-08-05T06:30:19.000Z</time>
        <extensions>
          <ns3:TrackPointExtension>
            <ns3:hr>97</ns3:hr>
            <ns3:cad>42</ns3:cad>
          </ns3:TrackPointExtension>
        </extensions>
      </trkpt>
      <trkpt lat="43.45583123154938220977783203125" lon="1.4430644921958446502685546875">
        <ele>185.1999969482421875</ele>
        <time>2026-08-05T06:30:20.000Z</time>
        <extensions>
          <ns3:TrackPointExtension>
            <ns3:hr>97</ns3:hr>
            <ns3:cad>42</ns3:cad>
          </ns3:TrackPointExtension>
        </extensions>
      </trkpt>
      <trkpt lat="43.4558308124542236328125" lon="1.44307781942188739776611328125">
        <ele>185.399993896484375</ele>
        <time>2026-08-05T06:30:21.000Z</time>
        <extensions>
          <ns3:TrackPointExtension>
            <ns3:hr>98</ns3:hr>
            <ns3:cad>74</ns3:cad>
          </ns3:TrackPointExtension>
        </extensions>
      </trkpt>
      <trkpt lat="43.45583014190196990966796875" lon="1.4430882968008518218994140625">
        <ele>185.399993896484375</ele>
        <time>2026-08-05T06:30:22.000Z</time>
        <extensions>
          <ns3:TrackPointExtension>
            <ns3:hr>98</ns3:hr>
            <ns3:cad>74</ns3:cad>
          </ns3:TrackPointExtension>
        </extensions>
      </trkpt>
      <trkpt lat="43.4558294713497161865234375" lon="1.44309818744659423828125">
        <ele>185.399993896484375</ele>
        <time>2026-08-05T06:30:23.000Z</time>
        <extensions>
          <ns3:TrackPointExtension>
            <ns3:hr>98</ns3:hr>
            <ns3:cad>76</ns3:cad>
          </ns3:TrackPointExtension>
        </extensions>
      </trkpt>
      <trkpt lat="43.455831147730350494384765625" lon="1.443109251558780670166015625">
        <ele>185.600006103515625</ele>
        <time>2026-08-05T06:30:24.000Z</time>
        <extensions>
          <ns3:TrackPointExtension>
            <ns3:hr>98</ns3:hr>
            <ns3:cad>76</ns3:cad>
          </ns3:TrackPointExtension>
        </extensions>
      </trkpt>
      <trkpt lat="43.455830477178096771240234375" lon="1.44311771728098392486572265625">
        <ele>185.600006103515625</ele>
        <time>2026-08-05T06:30:25.000Z</time>
        <extensions>
          <ns3:TrackPointExtension>
            <ns3:hr>98</ns3:hr>
            <ns3:cad>76</ns3:cad>
          </ns3:TrackPointExtension>
        </extensions>
      </trkpt>
      <trkpt lat="43.4558321535587310791015625" lon="1.44312844611704349517822265625">
        <ele>185.600006103515625</ele>
        <time>2026-08-05T06:30:26.000Z</time>
        <extensions>
          <ns3:TrackPointExtension>
            <ns3:hr>99</ns3:hr>
            <ns3:cad>41</ns3:cad>
          </ns3:TrackPointExtension>
        </extensions>
      </trkpt>
      <trkpt lat="43.4558336623013019561767578125" lon="1.44314604811370372772216796875">
        <ele>185.600006103515625</ele>
        <time>2026-08-05T06:30:27.000Z</time>
        <extensions>
          <ns3:TrackPointExtension>
            <ns3:hr>99</ns3:hr>
            <ns3:cad>41</ns3:cad>
          </ns3:TrackPointExtension>
        </extensions>
      </trkpt>
      <trkpt lat="43.45583458431065082550048828125" lon="1.4431623928248882293701171875">
        <ele>185.8000030517578125</ele>
        <time>2026-08-05T06:30:28.000Z</time>
        <extensions>
          <ns3:TrackPointExtension>
            <ns3:hr>100</ns3:hr>
            <ns3:cad>41</ns3:cad>
          </ns3:TrackPointExtension>
        </extensions>
      </trkpt>
      <trkpt lat="43.4558407030999660491943359375" lon="1.44316901452839374542236328125">
        <ele>185.8000030517578125</ele>
        <time>2026-08-05T06:30:29.000Z</time>
        <extensions>
          <ns3:TrackPointExtension>
            <ns3:hr>100</ns3:hr>
            <ns3:cad>41</ns3:cad>
          </ns3:TrackPointExtension>
        </extensions>
      </trkpt>
      <trkpt lat="43.45584087073802947998046875" lon="1.4431838504970073699951171875">
        <ele>185.8000030517578125</ele>
        <time>2026-08-05T06:30:30.000Z</time>
        <extensions>
          <ns3:TrackPointExtension>
            <ns3:hr>100</ns3:hr>
            <ns3:cad>41</ns3:cad>
          </ns3:TrackPointExtension>
        </extensions>
      </trkpt>
      <trkpt lat="43.4558423794806003570556640625" lon="1.44319701008498668670654296875">
        <ele>186</ele>
        <time>2026-08-05T06:30:31.000Z</time>
        <extensions>
          <ns3:TrackPointExtension>
            <ns3:hr>100</ns3:hr>
            <ns3:cad>41</ns3:cad>
          </ns3:TrackPointExtension>
        </extensions>
      </trkpt>
      <trkpt lat="43.4558460675179958343505859375" lon="1.4432079903781414031982421875">
        <ele>186</ele>
        <time>2026-08-05T06:30:32.000Z</time>
        <extensions>
          <ns3:TrackPointExtension>
            <ns3:hr>98</ns3:hr>
            <ns3:cad>41</ns3:cad>
          </ns3:TrackPointExtension>
        </extensions>
      </trkpt>
      <trkpt lat="43.45584883354604244232177734375" lon="1.44322047941386699676513671875">
        <ele>186.1999969482421875</ele>
        <time>2026-08-05T06:30:33.000Z</time>
        <extensions>
          <ns3:TrackPointExtension>
            <ns3:hr>98</ns3:hr>
            <ns3:cad>41</ns3:cad>
          </ns3:TrackPointExtension>
        </extensions>
      </trkpt>
      <trkpt lat="43.45584933646023273468017578125" lon="1.4432334713637828826904296875">
        <ele>186.1999969482421875</ele>
        <time>2026-08-05T06:30:34.000Z</time>
        <extensions>
          <ns3:TrackPointExtension>
            <ns3:hr>98</ns3:hr>
            <ns3:cad>41</ns3:cad>
          </ns3:TrackPointExtension>
        </extensions>
      </trkpt>
      <trkpt lat="43.45585185103118419647216796875" lon="1.4432488940656185150146484375">
        <ele>186.1999969482421875</ele>
        <time>2026-08-05T06:30:35.000Z</time>
        <extensions>
          <ns3:TrackPointExtension>
            <ns3:hr>98</ns3:hr>
            <ns3:cad>41</ns3:cad>
          </ns3:TrackPointExtension>
        </extensions>
      </trkpt>
      <trkpt lat="43.45585403032600879669189453125" lon="1.44326104782521724700927734375">
        <ele>186.1999969482421875</ele>
        <time>2026-08-05T06:30:36.000Z</time>
        <extensions>
          <ns3:TrackPointExtension>
            <ns3:hr>98</ns3:hr>
            <ns3:cad>42</ns3:cad>
          </ns3:TrackPointExtension>
        </extensions>
      </trkpt>
      <trkpt lat="43.45585704781115055084228515625" lon="1.44327546469867229461669921875">
        <ele>186.1999969482421875</ele>
        <time>2026-08-05T06:30:37.000Z</time>
        <extensions>
          <ns3:TrackPointExtension>
            <ns3:hr>98</ns3:hr>
            <ns3:cad>43</ns3:cad>
          </ns3:TrackPointExtension>
        </extensions>
      </trkpt>
      <trkpt lat="43.45586123876273632049560546875" lon="1.44329189322888851165771484375">
        <ele>186.399993896484375</ele>
        <time>2026-08-05T06:30:38.000Z</time>
        <extensions>
          <ns3:TrackPointExtension>
            <ns3:hr>98</ns3:hr>
            <ns3:cad>43</ns3:cad>
          </ns3:TrackPointExtension>
        </extensions>
      </trkpt>
      <trkpt lat="43.45586157403886318206787109375" lon="1.44330346025526523590087890625">
        <ele>186.399993896484375</ele>
        <time>2026-08-05T06:30:39.000Z</time>
        <extensions>
          <ns3:TrackPointExtension>
            <ns3:hr>97</ns3:hr>
            <ns3:cad>43</ns3:cad>
          </ns3:TrackPointExtension>
        </extensions>
      </trkpt>
      <trkpt lat="43.455859981477260589599609375" lon="1.44331251271069049835205078125">
        <ele>186.399993896484375</ele>
        <time>2026-08-05T06:30:40.000Z</time>
        <extensions>
          <ns3:TrackPointExtension>
            <ns3:hr>97</ns3:hr>
            <ns3:cad>43</ns3:cad>
          </ns3:TrackPointExtension>
        </extensions>
      </trkpt>
      <trkpt lat="43.45586023293435573577880859375" lon="1.44332642666995525360107421875">
        <ele>186.399993896484375</ele>
        <time>2026-08-05T06:30:41.000Z</time>
        <extensions>
          <ns3:TrackPointExtension>
            <ns3:hr>97</ns3:hr>
            <ns3:cad>42</ns3:cad>
          </ns3:TrackPointExtension>
        </extensions>
      </trkpt>
      <trkpt lat="43.45586157403886318206787109375" lon="1.4433382451534271240234375">
        <ele>186.600006103515625</ele>
        <time>2026-08-05T06:30:42.000Z</time>
        <extensions>
          <ns3:TrackPointExtension>
            <ns3:hr>97</ns3:hr>
            <ns3:cad>42</ns3:cad>
          </ns3:TrackPointExtension>
        </extensions>
      </trkpt>
      <trkpt lat="43.45586157403886318206787109375" lon="1.44334805198013782501220703125">
        <ele>186.600006103515625</ele>
        <time>2026-08-05T06:30:43.000Z</time>
        <extensions>
          <ns3:TrackPointExtension>
            <ns3:hr>96</ns3:hr>
            <ns3:cad>42</ns3:cad>
          </ns3:TrackPointExtension>
        </extensions>
      </trkpt>
      <trkpt lat="43.45586073584854602813720703125" lon="1.443361379206180572509765625">
        <ele>186.600006103515625</ele>
        <time>2026-08-05T06:30:44.000Z</time>
        <extensions>
          <ns3:TrackPointExtension>
            <ns3:hr>96</ns3:hr>
            <ns3:cad>43</ns3:cad>
          </ns3:TrackPointExtension>
        </extensions>
      </trkpt>
      <trkpt lat="43.4558635018765926361083984375" lon="1.44337185658514499664306640625">
        <ele>186.600006103515625</ele>
        <time>2026-08-05T06:30:45.000Z</time>
        <extensions>
          <ns3:TrackPointExtension>
            <ns3:hr>96</ns3:hr>
            <ns3:cad>43</ns3:cad>
          </ns3:TrackPointExtension>
        </extensions>
      </trkpt>
      <trkpt lat="43.4558668546378612518310546875" lon="1.44338183104991912841796875">
        <ele>186.600006103515625</ele>
        <time>2026-08-05T06:30:46.000Z</time>
        <extensions>
          <ns3:TrackPointExtension>
            <ns3:hr>96</ns3:hr>
            <ns3:cad>43</ns3:cad>
          </ns3:TrackPointExtension>
        </extensions>
      </trkpt>
      <trkpt lat="43.45586878247559070587158203125" lon="1.44339515827596187591552734375">
        <ele>186.600006103515625</ele>
        <time>2026-08-05T06:30:47.000Z</time>
        <extensions>
          <ns3:TrackPointExtension>
            <ns3:hr>96</ns3:hr>
            <ns3:cad>42</ns3:cad>
          </ns3:TrackPointExtension>
        </extensions>
      </trkpt>
      <trkpt lat="43.45586928538978099822998046875" lon="1.44340890459716320037841796875">
        <ele>186.600006103515625</ele>
        <time>2026-08-05T06:30:48.000Z</time>
        <extensions>
          <ns3:TrackPointExtension>
            <ns3:hr>96</ns3:hr>
            <ns3:cad>42</ns3:cad>
          </ns3:TrackPointExtension>
        </extensions>
      </trkpt>
      <trkpt lat="43.45587213523685932159423828125" lon="1.44342382438480854034423828125">
        <ele>186.8000030517578125</ele>
        <time>2026-08-05T06:30:49.000Z</time>
        <extensions>
          <ns3:TrackPointExtension>
            <ns3:hr>96</ns3:hr>
            <ns3:cad>42</ns3:cad>
          </ns3:TrackPointExtension>
        </extensions>
      </trkpt>
      <trkpt lat="43.4558712132275104522705078125" lon="1.44343740306794643402099609375">
        <ele>186.8000030517578125</ele>
        <time>2026-08-05T06:30:50.000Z</time>
        <extensions>
          <ns3:TrackPointExtension>
            <ns3:hr>96</ns3:hr>
            <ns3:cad>43</ns3:cad>
          </ns3:TrackPointExtension>
        </extensions>
      </trkpt>
      <trkpt lat="43.45587079413235187530517578125" lon="1.44344888627529144287109375">
        <ele>186.8000030517578125</ele>
        <time>2026-08-05T06:30:51.000Z</time>
        <extensions>
          <ns3:TrackPointExtension>
            <ns3:hr>95</ns3:hr>
            <ns3:cad>44</ns3:cad>
          </ns3:TrackPointExtension>
        </extensions>
      </trkpt>
      <trkpt lat="43.45587171614170074462890625" lon="1.44346305169165134429931640625">
        <ele>186.8000030517578125</ele>
        <time>2026-08-05T06:30:52.000Z</time>
        <extensions>
          <ns3:TrackPointExtension>
            <ns3:hr>96</ns3:hr>
            <ns3:cad>44</ns3:cad>
          </ns3:TrackPointExtension>
        </extensions>
      </trkpt>
      <trkpt lat="43.45587381161749362945556640625" lon="1.44347830675542354583740234375">
        <ele>186.8000030517578125</ele>
        <time>2026-08-05T06:30:53.000Z</time>
        <extensions>
          <ns3:TrackPointExtension>
            <ns3:hr>96</ns3:hr>
            <ns3:cad>44</ns3:cad>
          </ns3:TrackPointExtension>
        </extensions>
      </trkpt>
      <trkpt lat="43.45587632618844509124755859375" lon="1.4434882812201976776123046875">
        <ele>186.8000030517578125</ele>
        <time>2026-08-05T06:30:54.000Z</time>
        <extensions>
          <ns3:TrackPointExtension>
            <ns3:hr>96</ns3:hr>
            <ns3:cad>44</ns3:cad>
          </ns3:TrackPointExtension>
        </extensions>
      </trkpt>
      <trkpt lat="43.45587699674069881439208984375" lon="1.44349792040884494781494140625">
        <ele>187</ele>
        <time>2026-08-05T06:30:55.000Z</time>
        <extensions>
          <ns3:TrackPointExtension>
            <ns3:hr>96</ns3:hr>
            <ns3:cad>44</ns3:cad>
          </ns3:TrackPointExtension>
        </extensions>
      </trkpt>
      <trkpt lat="43.45587984658777713775634765625" lon="1.44351594150066375732421875">
        <ele>187</ele>
        <time>2026-08-05T06:30:56.000Z</time>
        <extensions>
          <ns3:TrackPointExtension>
            <ns3:hr>96</ns3:hr>
            <ns3:cad>44</ns3:cad>
          </ns3:TrackPointExtension>
        </extensions>
      </trkpt>
      <trkpt lat="43.4558816067874431610107421875" lon="1.44352893345057964324951171875">
        <ele>187</ele>
        <time>2026-08-05T06:30:57.000Z</time>
        <extensions>
          <ns3:TrackPointExtension>
            <ns3:hr>96</ns3:hr>
            <ns3:cad>44</ns3:cad>
          </ns3:TrackPointExtension>
        </extensions>
      </trkpt>
      <trkpt lat="43.4558846242725849151611328125" lon="1.44353848882019519805908203125">
        <ele>187</ele>
        <time>2026-08-05T06:30:58.000Z</time>
        <extensions>
          <ns3:TrackPointExtension>
            <ns3:hr>96</ns3:hr>
            <ns3:cad>44</ns3:cad>
          </ns3:TrackPointExtension>
        </extensions>
      </trkpt>
      <trkpt lat="43.45588722266256809234619140625" lon="1.44355324096977710723876953125">
        <ele>187.1999969482421875</ele>
        <time>2026-08-05T06:30:59.000Z</time>
        <extensions>
          <ns3:TrackPointExtension>
            <ns3:hr>95</ns3:hr>
            <ns3:cad>44</ns3:cad>
          </ns3:TrackPointExtension>
        </extensions>
      </trkpt>
      <trkpt lat="43.4558920003473758697509765625" lon="1.4435704238712787628173828125">
        <ele>187</ele>
        <time>2026-08-05T06:31:00.000Z</time>
        <extensions>
          <ns3:TrackPointExtension>
            <ns3:hr>95</ns3:hr>
            <ns3:cad>44</ns3:cad>
          </ns3:TrackPointExtension>
        </extensions>
      </trkpt>
      <trkpt lat="43.45589543692767620086669921875" lon="1.44358727149665355682373046875">
        <ele>187.1999969482421875</ele>
        <time>2026-08-05T06:31:01.000Z</time>
        <extensions>
          <ns3:TrackPointExtension>
            <ns3:hr>95</ns3:hr>
            <ns3:cad>44</ns3:cad>
          </ns3:TrackPointExtension>
        </extensions>
      </trkpt>
      <trkpt lat="43.45590096898376941680908203125" lon="1.44360504113137722015380859375">
        <ele>187.1999969482421875</ele>
        <time>2026-08-05T06:31:02.000Z</time>
        <extensions>
          <ns3:TrackPointExtension>
            <ns3:hr>94</ns3:hr>
            <ns3:cad>44</ns3:cad>
          </ns3:TrackPointExtension>
        </extensions>
      </trkpt>
      <trkpt lat="43.4559020586311817169189453125" lon="1.443618200719356536865234375">
        <ele>187</ele>
        <time>2026-08-05T06:31:03.000Z</time>
        <extensions>
          <ns3:TrackPointExtension>
            <ns3:hr>94</ns3:hr>
            <ns3:cad>44</ns3:cad>
          </ns3:TrackPointExtension>
        </extensions>
      </trkpt>
      <trkpt lat="43.45590616576373577117919921875" lon="1.44363035447895526885986328125">
        <ele>187</ele>
        <time>2026-08-05T06:31:04.000Z</time>
        <extensions>
          <ns3:TrackPointExtension>
            <ns3:hr>95</ns3:hr>
            <ns3:cad>44</ns3:cad>
          </ns3:TrackPointExtension>
        </extensions>
      </trkpt>
      <trkpt lat="43.45591035671532154083251953125" lon="1.4436466991901397705078125">
        <ele>187</ele>
        <time>2026-08-05T06:31:05.000Z</time>
        <extensions>
          <ns3:TrackPointExtension>
            <ns3:hr>95</ns3:hr>
            <ns3:cad>44</ns3:cad>
          </ns3:TrackPointExtension>
        </extensions>
      </trkpt>
      <trkpt lat="43.4559126198291778564453125" lon="1.4436626248061656951904296875">
        <ele>187</ele>
        <time>2026-08-05T06:31:06.000Z</time>
        <extensions>
          <ns3:TrackPointExtension>
            <ns3:hr>95</ns3:hr>
            <ns3:cad>45</ns3:cad>
          </ns3:TrackPointExtension>
        </extensions>
      </trkpt>
      <trkpt lat="43.4559154696762561798095703125" lon="1.4436763711273670196533203125">
        <ele>187</ele>
        <time>2026-08-05T06:31:07.000Z</time>
        <extensions>
          <ns3:TrackPointExtension>
            <ns3:hr>95</ns3:hr>
            <ns3:cad>48</ns3:cad>
          </ns3:TrackPointExtension>
        </extensions>
      </trkpt>
      <trkpt lat="43.45591731369495391845703125" lon="1.4436897821724414825439453125">
        <ele>187</ele>
        <time>2026-08-05T06:31:08.000Z</time>
        <extensions>
          <ns3:TrackPointExtension>
            <ns3:hr>95</ns3:hr>
            <ns3:cad>48</ns3:cad>
          </ns3:TrackPointExtension>
        </extensions>
      </trkpt>
      <trkpt lat="43.455919325351715087890625" lon="1.44370646215975284576416015625">
        <ele>187</ele>
        <time>2026-08-05T06:31:09.000Z</time>
        <extensions>
          <ns3:TrackPointExtension>
            <ns3:hr>94</ns3:hr>
            <ns3:cad>48</ns3:cad>
          </ns3:TrackPointExtension>
        </extensions>
      </trkpt>
      <trkpt lat="43.45591999590396881103515625" lon="1.443725489079952239990234375">
        <ele>187</ele>
        <time>2026-08-05T06:31:10.000Z</time>
        <extensions>
          <ns3:TrackPointExtension>
            <ns3:hr>94</ns3:hr>
            <ns3:cad>48</ns3:cad>
          </ns3:TrackPointExtension>
        </extensions>
      </trkpt>
      <trkpt lat="43.45591873861849308013916015625" lon="1.44373781047761440277099609375">
        <ele>187</ele>
        <time>2026-08-05T06:31:11.000Z</time>
        <extensions>
          <ns3:TrackPointExtension>
            <ns3:hr>94</ns3:hr>
            <ns3:cad>47</ns3:cad>
          </ns3:TrackPointExtension>
        </extensions>
      </trkpt>
      <trkpt lat="43.45591722987592220306396484375" lon="1.44374904222786426544189453125">
        <ele>187</ele>
        <time>2026-08-05T06:31:12.000Z</time>
        <extensions>
          <ns3:TrackPointExtension>
            <ns3:hr>94</ns3:hr>
            <ns3:cad>47</ns3:cad>
          </ns3:TrackPointExtension>
        </extensions>
      </trkpt>
      <trkpt lat="43.45591840334236621856689453125" lon="1.4437611959874629974365234375">
        <ele>187</ele>
        <time>2026-08-05T06:31:13.000Z</time>
        <extensions>
          <ns3:TrackPointExtension>
            <ns3:hr>94</ns3:hr>
            <ns3:cad>47</ns3:cad>
          </ns3:TrackPointExtension>
        </extensions>
      </trkpt>
      <trkpt lat="43.4559174813330173492431640625" lon="1.44377351738512516021728515625">
        <ele>187</ele>
        <time>2026-08-05T06:31:14.000Z</time>
        <extensions>
          <ns3:TrackPointExtension>
            <ns3:hr>94</ns3:hr>
            <ns3:cad>47</ns3:cad>
          </ns3:TrackPointExtension>
        </extensions>
      </trkpt>
      <trkpt lat="43.45591471530497074127197265625" lon="1.4437880180776119232177734375">
        <ele>186.8000030517578125</ele>
        <time>2026-08-05T06:31:15.000Z</time>
        <extensions>
          <ns3:TrackPointExtension>
            <ns3:hr>94</ns3:hr>
            <ns3:cad>47</ns3:cad>
          </ns3:TrackPointExtension>
        </extensions>
      </trkpt>
      <trkpt lat="43.4559117816388607025146484375" lon="1.443803943693637847900390625">
        <ele>186.8000030517578125</ele>
        <time>2026-08-05T06:31:16.000Z</time>
        <extensions>
          <ns3:TrackPointExtension>
            <ns3:hr>93</ns3:hr>
            <ns3:cad>46</ns3:cad>
          </ns3:TrackPointExtension>
        </extensions>
      </trkpt>
      <trkpt lat="43.4559077583253383636474609375" lon="1.4438175223767757415771484375">
        <ele>186.8000030517578125</ele>
        <time>2026-08-05T06:31:17.000Z</time>
        <extensions>
          <ns3:TrackPointExtension>
            <ns3:hr>93</ns3:hr>
            <ns3:cad>46</ns3:cad>
          </ns3:TrackPointExtension>
        </extensions>
      </trkpt>
      <trkpt lat="43.455904908478260040283203125" lon="1.44383269362151622772216796875">
        <ele>186.600006103515625</ele>
        <time>2026-08-05T06:31:18.000Z</time>
        <extensions>
          <ns3:TrackPointExtension>
            <ns3:hr>93</ns3:hr>
            <ns3:cad>47</ns3:cad>
          </ns3:TrackPointExtension>
        </extensions>
      </trkpt>
      <trkpt lat="43.4559020586311817169189453125" lon="1.44384711049497127532958984375">
        <ele>186.600006103515625</ele>
        <time>2026-08-05T06:31:19.000Z</time>
        <extensions>
          <ns3:TrackPointExtension>
            <ns3:hr>93</ns3:hr>
            <ns3:cad>48</ns3:cad>
          </ns3:TrackPointExtension>
        </extensions>
      </trkpt>
      <trkpt lat="43.45590163953602313995361328125" lon="1.4438621141016483306884765625">
        <ele>186.600006103515625</ele>
        <time>2026-08-05T06:31:20.000Z</time>
        <extensions>
          <ns3:TrackPointExtension>
            <ns3:hr>92</ns3:hr>
            <ns3:cad>49</ns3:cad>
          </ns3:TrackPointExtension>
        </extensions>
      </trkpt>
      <trkpt lat="43.4559007175266742706298828125" lon="1.44387678243219852447509765625">
        <ele>186.600006103515625</ele>
        <time>2026-08-05T06:31:21.000Z</time>
        <extensions>
          <ns3:TrackPointExtension>
            <ns3:hr>92</ns3:hr>
            <ns3:cad>49</ns3:cad>
          </ns3:TrackPointExtension>
        </extensions>
      </trkpt>
      <trkpt lat="43.455900214612483978271484375" lon="1.443893127143383026123046875">
        <ele>186.600006103515625</ele>
        <time>2026-08-05T06:31:22.000Z</time>
        <extensions>
          <ns3:TrackPointExtension>
            <ns3:hr>92</ns3:hr>
            <ns3:cad>47</ns3:cad>
          </ns3:TrackPointExtension>
        </extensions>
      </trkpt>
      <trkpt lat="43.45589946024119853973388671875" lon="1.4439093880355358123779296875">
        <ele>186.600006103515625</ele>
        <time>2026-08-05T06:31:23.000Z</time>
        <extensions>
          <ns3:TrackPointExtension>
            <ns3:hr>92</ns3:hr>
            <ns3:cad>47</ns3:cad>
          </ns3:TrackPointExtension>
        </extensions>
      </trkpt>
      <trkpt lat="43.4559013880789279937744140625" lon="1.44392338581383228302001953125">
        <ele>186.600006103515625</ele>
        <time>2026-08-05T06:31:24.000Z</time>
        <extensions>
          <ns3:TrackPointExtension>
            <ns3:hr>91</ns3:hr>
            <ns3:cad>47</ns3:cad>
          </ns3:TrackPointExtension>
        </extensions>
      </trkpt>
      <trkpt lat="43.45590231008827686309814453125" lon="1.4439372159540653228759765625">
        <ele>186.8000030517578125</ele>
        <time>2026-08-05T06:31:25.000Z</time>
        <extensions>
          <ns3:TrackPointExtension>
            <ns3:hr>91</ns3:hr>
            <ns3:cad>46</ns3:cad>
          </ns3:TrackPointExtension>
        </extensions>
      </trkpt>
      <trkpt lat="43.4559007175266742706298828125" lon="1.44395238719880580902099609375">
        <ele>186.8000030517578125</ele>
        <time>2026-08-05T06:31:26.000Z</time>
        <extensions>
          <ns3:TrackPointExtension>
            <ns3:hr>90</ns3:hr>
            <ns3:cad>46</ns3:cad>
          </ns3:TrackPointExtension>
        </extensions>
      </trkpt>
      <trkpt lat="43.45590197481215000152587890625" lon="1.44396412186324596405029296875">
        <ele>186.8000030517578125</ele>
        <time>2026-08-05T06:31:27.000Z</time>
        <extensions>
          <ns3:TrackPointExtension>
            <ns3:hr>90</ns3:hr>
            <ns3:cad>46</ns3:cad>
          </ns3:TrackPointExtension>
        </extensions>
      </trkpt>
      <trkpt lat="43.4559047408401966094970703125" lon="1.44397568888962268829345703125">
        <ele>187</ele>
        <time>2026-08-05T06:31:28.000Z</time>
        <extensions>
          <ns3:TrackPointExtension>
            <ns3:hr>90</ns3:hr>
            <ns3:cad>46</ns3:cad>
          </ns3:TrackPointExtension>
        </extensions>
      </trkpt>
      <trkpt lat="43.455905579030513763427734375" lon="1.443988345563411712646484375">
        <ele>187</ele>
        <time>2026-08-05T06:31:29.000Z</time>
        <extensions>
          <ns3:TrackPointExtension>
            <ns3:hr>89</ns3:hr>
            <ns3:cad>46</ns3:cad>
          </ns3:TrackPointExtension>
        </extensions>
      </trkpt>
      <trkpt lat="43.4559050761163234710693359375" lon="1.44400418736040592193603515625">
        <ele>187</ele>
        <time>2026-08-05T06:31:30.000Z</time>
        <extensions>
          <ns3:TrackPointExtension>
            <ns3:hr>89</ns3:hr>
            <ns3:cad>44</ns3:cad>
          </ns3:TrackPointExtension>
        </extensions>
      </trkpt>
      <trkpt lat="43.45590750686824321746826171875" lon="1.44402313046157360076904296875">
        <ele>187</ele>
        <time>2026-08-05T06:31:31.000Z</time>
        <extensions>
          <ns3:TrackPointExtension>
            <ns3:hr>89</ns3:hr>
            <ns3:cad>44</ns3:cad>
          </ns3:TrackPointExtension>
        </extensions>
      </trkpt>
      <trkpt lat="43.45590733923017978668212890625" lon="1.44403469748795032501220703125">
        <ele>187</ele>
        <time>2026-08-05T06:31:32.000Z</time>
        <extensions>
          <ns3:TrackPointExtension>
            <ns3:hr>88</ns3:hr>
            <ns3:cad>44</ns3:cad>
          </ns3:TrackPointExtension>
        </extensions>
      </trkpt>
      <trkpt lat="43.45590633340179920196533203125" lon="1.44404559396207332611083984375">
        <ele>187</ele>
        <time>2026-08-05T06:31:33.000Z</time>
        <extensions>
          <ns3:TrackPointExtension>
            <ns3:hr>88</ns3:hr>
            <ns3:cad>45</ns3:cad>
          </ns3:TrackPointExtension>
        </extensions>
      </trkpt>
      <trkpt lat="43.45590465702116489410400390625" lon="1.44405833445489406585693359375">
        <ele>187</ele>
        <time>2026-08-05T06:31:34.000Z</time>
        <extensions>
          <ns3:TrackPointExtension>
            <ns3:hr>88</ns3:hr>
            <ns3:cad>45</ns3:cad>
          </ns3:TrackPointExtension>
        </extensions>
      </trkpt>
      <trkpt lat="43.45590415410697460174560546875" lon="1.44407509826123714447021484375">
        <ele>187</ele>
        <time>2026-08-05T06:31:35.000Z</time>
        <extensions>
          <ns3:TrackPointExtension>
            <ns3:hr>88</ns3:hr>
            <ns3:cad>43</ns3:cad>
          </ns3:TrackPointExtension>
        </extensions>
      </trkpt>
      <trkpt lat="43.45590499229729175567626953125" lon="1.4440887607634067535400390625">
        <ele>187</ele>
        <time>2026-08-05T06:31:36.000Z</time>
        <extensions>
          <ns3:TrackPointExtension>
            <ns3:hr>88</ns3:hr>
            <ns3:cad>43</ns3:cad>
          </ns3:TrackPointExtension>
        </extensions>
      </trkpt>
      <trkpt lat="43.45590314827859401702880859375" lon="1.4440999925136566162109375">
        <ele>187</ele>
        <time>2026-08-05T06:31:37.000Z</time>
        <extensions>
          <ns3:TrackPointExtension>
            <ns3:hr>87</ns3:hr>
            <ns3:cad>45</ns3:cad>
          </ns3:TrackPointExtension>
        </extensions>
      </trkpt>
      <trkpt lat="43.4559044055640697479248046875" lon="1.444115750491619110107421875">
        <ele>187</ele>
        <time>2026-08-05T06:31:38.000Z</time>
        <extensions>
          <ns3:TrackPointExtension>
            <ns3:hr>87</ns3:hr>
            <ns3:cad>45</ns3:cad>
          </ns3:TrackPointExtension>
        </extensions>
      </trkpt>
      <trkpt lat="43.4559037350118160247802734375" lon="1.44413310103118419647216796875">
        <ele>187.1999969482421875</ele>
        <time>2026-08-05T06:31:39.000Z</time>
        <extensions>
          <ns3:TrackPointExtension>
            <ns3:hr>87</ns3:hr>
            <ns3:cad>45</ns3:cad>
          </ns3:TrackPointExtension>
        </extensions>
      </trkpt>
      <trkpt lat="43.4559027291834354400634765625" lon="1.4441440813243389129638671875">
        <ele>187.1999969482421875</ele>
        <time>2026-08-05T06:31:40.000Z</time>
        <extensions>
          <ns3:TrackPointExtension>
            <ns3:hr>87</ns3:hr>
            <ns3:cad>44</ns3:cad>
          </ns3:TrackPointExtension>
        </extensions>
      </trkpt>
      <trkpt lat="43.455900885164737701416015625" lon="1.4441574923694133758544921875">
        <ele>187.1999969482421875</ele>
        <time>2026-08-05T06:31:41.000Z</time>
        <extensions>
          <ns3:TrackPointExtension>
            <ns3:hr>87</ns3:hr>
            <ns3:cad>44</ns3:cad>
          </ns3:TrackPointExtension>
        </extensions>
      </trkpt>
      <trkpt lat="43.455901555716991424560546875" lon="1.44417366944253444671630859375">
        <ele>187.1999969482421875</ele>
        <time>2026-08-05T06:31:42.000Z</time>
        <extensions>
          <ns3:TrackPointExtension>
            <ns3:hr>86</ns3:hr>
            <ns3:cad>44</ns3:cad>
          </ns3:TrackPointExtension>
        </extensions>
      </trkpt>
      <trkpt lat="43.455901555716991424560546875" lon="1.44418959505856037139892578125">
        <ele>187.1999969482421875</ele>
        <time>2026-08-05T06:31:43.000Z</time>
        <extensions>
          <ns3:TrackPointExtension>
            <ns3:hr>86</ns3:hr>
            <ns3:cad>44</ns3:cad>
          </ns3:TrackPointExtension>
        </extensions>
      </trkpt>
      <trkpt lat="43.4559013880789279937744140625" lon="1.4442004077136516571044921875">
        <ele>187.1999969482421875</ele>
        <time>2026-08-05T06:31:44.000Z</time>
        <extensions>
          <ns3:TrackPointExtension>
            <ns3:hr>86</ns3:hr>
            <ns3:cad>44</ns3:cad>
          </ns3:TrackPointExtension>
        </extensions>
      </trkpt>
      <trkpt lat="43.455900214612483978271484375" lon="1.44421591423451900482177734375">
        <ele>187.1999969482421875</ele>
        <time>2026-08-05T06:31:45.000Z</time>
        <extensions>
          <ns3:TrackPointExtension>
            <ns3:hr>86</ns3:hr>
            <ns3:cad>44</ns3:cad>
          </ns3:TrackPointExtension>
        </extensions>
      </trkpt>
      <trkpt lat="43.4558980353176593780517578125" lon="1.4442349411547183990478515625">
        <ele>187.1999969482421875</ele>
        <time>2026-08-05T06:31:46.000Z</time>
        <extensions>
          <ns3:TrackPointExtension>
            <ns3:hr>86</ns3:hr>
            <ns3:cad>44</ns3:cad>
          </ns3:TrackPointExtension>
        </extensions>
      </trkpt>
      <trkpt lat="43.45589719712734222412109375" lon="1.44424608908593654632568359375">
        <ele>187.399993896484375</ele>
        <time>2026-08-05T06:31:47.000Z</time>
        <extensions>
          <ns3:TrackPointExtension>
            <ns3:hr>86</ns3:hr>
            <ns3:cad>44</ns3:cad>
          </ns3:TrackPointExtension>
        </extensions>
      </trkpt>
      <trkpt lat="43.45589661039412021636962890625" lon="1.4442540518939495086669921875">
        <ele>187.399993896484375</ele>
        <time>2026-08-05T06:31:48.000Z</time>
        <extensions>
          <ns3:TrackPointExtension>
            <ns3:hr>85</ns3:hr>
            <ns3:cad>44</ns3:cad>
          </ns3:TrackPointExtension>
        </extensions>
      </trkpt>
      <trkpt lat="43.4558956883847713470458984375" lon="1.44426964223384857177734375">
        <ele>187.399993896484375</ele>
        <time>2026-08-05T06:31:49.000Z</time>
        <extensions>
          <ns3:TrackPointExtension>
            <ns3:hr>85</ns3:hr>
            <ns3:cad>44</ns3:cad>
          </ns3:TrackPointExtension>
        </extensions>
      </trkpt>
      <trkpt lat="43.45589510165154933929443359375" lon="1.4442832209169864654541015625">
        <ele>187.600006103515625</ele>
        <time>2026-08-05T06:31:50.000Z</time>
        <extensions>
          <ns3:TrackPointExtension>
            <ns3:hr>85</ns3:hr>
            <ns3:cad>44</ns3:cad>
          </ns3:TrackPointExtension>
        </extensions>
      </trkpt>
      <trkpt lat="43.45589359290897846221923828125" lon="1.4442909322679042816162109375">
        <ele>187.600006103515625</ele>
        <time>2026-08-05T06:31:51.000Z</time>
        <extensions>
          <ns3:TrackPointExtension>
            <ns3:hr>86</ns3:hr>
            <ns3:cad>43</ns3:cad>
          </ns3:TrackPointExtension>
        </extensions>
      </trkpt>
      <trkpt lat="43.4558946825563907623291015625" lon="1.44430945627391338348388671875">
        <ele>187.600006103515625</ele>
        <time>2026-08-05T06:31:52.000Z</time>
        <extensions>
          <ns3:TrackPointExtension>
            <ns3:hr>86</ns3:hr>
            <ns3:cad>42</ns3:cad>
          </ns3:TrackPointExtension>
        </extensions>
      </trkpt>
      <trkpt lat="43.45589191652834415435791015625" lon="1.44433074630796909332275390625">
        <ele>187.600006103515625</ele>
        <time>2026-08-05T06:31:53.000Z</time>
        <extensions>
          <ns3:TrackPointExtension>
            <ns3:hr>86</ns3:hr>
            <ns3:cad>42</ns3:cad>
          </ns3:TrackPointExtension>
        </extensions>
      </trkpt>
      <trkpt lat="43.45589124597609043121337890625" lon="1.44434113986790180206298828125">
        <ele>187.600006103515625</ele>
        <time>2026-08-05T06:31:54.000Z</time>
        <extensions>
          <ns3:TrackPointExtension>
            <ns3:hr>85</ns3:hr>
            <ns3:cad>42</ns3:cad>
          </ns3:TrackPointExtension>
        </extensions>
      </trkpt>
      <trkpt lat="43.4558926708996295928955078125" lon="1.4443502761423587799072265625">
        <ele>187.600006103515625</ele>
        <time>2026-08-05T06:31:55.000Z</time>
        <extensions>
          <ns3:TrackPointExtension>
            <ns3:hr>86</ns3:hr>
            <ns3:cad>42</ns3:cad>
          </ns3:TrackPointExtension>
        </extensions>
      </trkpt>
      <trkpt lat="43.45589049160480499267578125" lon="1.4443640224635601043701171875">
        <ele>187.8000030517578125</ele>
        <time>2026-08-05T06:31:56.000Z</time>
        <extensions>
          <ns3:TrackPointExtension>
            <ns3:hr>86</ns3:hr>
            <ns3:cad>43</ns3:cad>
          </ns3:TrackPointExtension>
        </extensions>
      </trkpt>
      <trkpt lat="43.45588739030063152313232421875" lon="1.44437952898442745208740234375">
        <ele>187.8000030517578125</ele>
        <time>2026-08-05T06:31:57.000Z</time>
        <extensions>
          <ns3:TrackPointExtension>
            <ns3:hr>85</ns3:hr>
            <ns3:cad>44</ns3:cad>
          </ns3:TrackPointExtension>
        </extensions>
      </trkpt>
      <trkpt lat="43.4558852948248386383056640625" lon="1.44439109601080417633056640625">
        <ele>187.8000030517578125</ele>
        <time>2026-08-05T06:31:58.000Z</time>
        <extensions>
          <ns3:TrackPointExtension>
            <ns3:hr>86</ns3:hr>
            <ns3:cad>44</ns3:cad>
          </ns3:TrackPointExtension>
        </extensions>
      </trkpt>
      <trkpt lat="43.45588336698710918426513671875" lon="1.4444012381136417388916015625">
        <ele>187.8000030517578125</ele>
        <time>2026-08-05T06:31:59.000Z</time>
        <extensions>
          <ns3:TrackPointExtension>
            <ns3:hr>86</ns3:hr>
            <ns3:cad>44</ns3:cad>
          </ns3:TrackPointExtension>
        </extensions>
      </trkpt>
      <trkpt lat="43.45588646829128265380859375" lon="1.44441582262516021728515625">
        <ele>187.8000030517578125</ele>
        <time>2026-08-05T06:32:00.000Z</time>
        <extensions>
          <ns3:TrackPointExtension>
            <ns3:hr>87</ns3:hr>
            <ns3:cad>44</ns3:cad>
          </ns3:TrackPointExtension>
        </extensions>
      </trkpt>
      <trkpt lat="43.45588722266256809234619140625" lon="1.44443451426923274993896484375">
        <ele>187.8000030517578125</ele>
        <time>2026-08-05T06:32:01.000Z</time>
        <extensions>
          <ns3:TrackPointExtension>
            <ns3:hr>87</ns3:hr>
            <ns3:cad>44</ns3:cad>
          </ns3:TrackPointExtension>
        </extensions>
      </trkpt>
      <trkpt lat="43.4558869712054729461669921875" lon="1.444444991648197174072265625">
        <ele>188</ele>
        <time>2026-08-05T06:32:02.000Z</time>
        <extensions>
          <ns3:TrackPointExtension>
            <ns3:hr>87</ns3:hr>
            <ns3:cad>44</ns3:cad>
          </ns3:TrackPointExtension>
        </extensions>
      </trkpt>
      <trkpt lat="43.45588739030063152313232421875" lon="1.44445513375103473663330078125">
        <ele>188</ele>
        <time>2026-08-05T06:32:03.000Z</time>
        <extensions>
          <ns3:TrackPointExtension>
            <ns3:hr>87</ns3:hr>
            <ns3:cad>45</ns3:cad>
          </ns3:TrackPointExtension>
        </extensions>
      </trkpt>
      <trkpt lat="43.45588739030063152313232421875" lon="1.444472484290599822998046875">
        <ele>188</ele>
        <time>2026-08-05T06:32:04.000Z</time>
        <extensions>
          <ns3:TrackPointExtension>
            <ns3:hr>87</ns3:hr>
            <ns3:cad>45</ns3:cad>
          </ns3:TrackPointExtension>
        </extensions>
      </trkpt>
      <trkpt lat="43.45588655211031436920166015625" lon="1.44448195584118366241455078125">
        <ele>188</ele>
        <time>2026-08-05T06:32:05.000Z</time>
        <extensions>
          <ns3:TrackPointExtension>
            <ns3:hr>87</ns3:hr>
            <ns3:cad>43</ns3:cad>
          </ns3:TrackPointExtension>
        </extensions>
      </trkpt>
      <trkpt lat="43.45588386990129947662353515625" lon="1.44448799081146717071533203125">
        <ele>188</ele>
        <time>2026-08-05T06:32:06.000Z</time>
        <extensions>
          <ns3:TrackPointExtension>
            <ns3:hr>87</ns3:hr>
            <ns3:cad>43</ns3:cad>
          </ns3:TrackPointExtension>
        </extensions>
      </trkpt>
      <trkpt lat="43.45588655211031436920166015625" lon="1.444504670798778533935546875">
        <ele>188</ele>
        <time>2026-08-05T06:32:07.000Z</time>
        <extensions>
          <ns3:TrackPointExtension>
            <ns3:hr>87</ns3:hr>
            <ns3:cad>43</ns3:cad>
          </ns3:TrackPointExtension>
        </extensions>
      </trkpt>
      <trkpt lat="43.45588780939579010009765625" lon="1.4445202611386775970458984375">
        <ele>188</ele>
        <time>2026-08-05T06:32:08.000Z</time>
        <extensions>
          <ns3:TrackPointExtension>
            <ns3:hr>87</ns3:hr>
            <ns3:cad>43</ns3:cad>
          </ns3:TrackPointExtension>
        </extensions>
      </trkpt>
      <trkpt lat="43.45588705502450466156005859375" lon="1.44452939741313457489013671875">
        <ele>188.1999969482421875</ele>
        <time>2026-08-05T06:32:09.000Z</time>
        <extensions>
          <ns3:TrackPointExtension>
            <ns3:hr>88</ns3:hr>
            <ns3:cad>42</ns3:cad>
          </ns3:TrackPointExtension>
        </extensions>
      </trkpt>
      <trkpt lat="43.45588537864387035369873046875" lon="1.44454213790595531463623046875">
        <ele>188.1999969482421875</ele>
        <time>2026-08-05T06:32:10.000Z</time>
        <extensions>
          <ns3:TrackPointExtension>
            <ns3:hr>87</ns3:hr>
            <ns3:cad>42</ns3:cad>
          </ns3:TrackPointExtension>
        </extensions>
      </trkpt>
      <trkpt lat="43.45588588155806064605712890625" lon="1.44455454312264919281005859375">
        <ele>188.1999969482421875</ele>
        <time>2026-08-05T06:32:11.000Z</time>
        <extensions>
          <ns3:TrackPointExtension>
            <ns3:hr>87</ns3:hr>
            <ns3:cad>42</ns3:cad>
          </ns3:TrackPointExtension>
        </extensions>
      </trkpt>
      <trkpt lat="43.45588671974837779998779296875" lon="1.44457382149994373321533203125">
        <ele>188.1999969482421875</ele>
        <time>2026-08-05T06:32:12.000Z</time>
        <extensions>
          <ns3:TrackPointExtension>
            <ns3:hr>87</ns3:hr>
            <ns3:cad>43</ns3:cad>
          </ns3:TrackPointExtension>
        </extensions>
      </trkpt>
      <trkpt lat="43.455883450806140899658203125" lon="1.44458622671663761138916015625">
        <ele>188.1999969482421875</ele>
        <time>2026-08-05T06:32:13.000Z</time>
        <extensions>
          <ns3:TrackPointExtension>
            <ns3:hr>87</ns3:hr>
            <ns3:cad>43</ns3:cad>
          </ns3:TrackPointExtension>
        </extensions>
      </trkpt>
      <trkpt lat="43.4558806009590625762939453125" lon="1.44459611736238002777099609375">
        <ele>188.399993896484375</ele>
        <time>2026-08-05T06:32:14.000Z</time>
        <extensions>
          <ns3:TrackPointExtension>
            <ns3:hr>87</ns3:hr>
            <ns3:cad>43</ns3:cad>
          </ns3:TrackPointExtension>
        </extensions>
      </trkpt>
      <trkpt lat="43.455878756940364837646484375" lon="1.444614641368389129638671875">
        <ele>188.399993896484375</ele>
        <time>2026-08-05T06:32:15.000Z</time>
        <extensions>
          <ns3:TrackPointExtension>
            <ns3:hr>86</ns3:hr>
            <ns3:cad>43</ns3:cad>
          </ns3:TrackPointExtension>
        </extensions>
      </trkpt>
      <trkpt lat="43.45587842166423797607421875" lon="1.44462796859443187713623046875">
        <ele>188.399993896484375</ele>
        <time>2026-08-05T06:32:16.000Z</time>
        <extensions>
          <ns3:TrackPointExtension>
            <ns3:hr>86</ns3:hr>
            <ns3:cad>43</ns3:cad>
          </ns3:TrackPointExtension>
        </extensions>
      </trkpt>
      <trkpt lat="43.4558769129216670989990234375" lon="1.44463651813566684722900390625">
        <ele>188.399993896484375</ele>
        <time>2026-08-05T06:32:17.000Z</time>
        <extensions>
          <ns3:TrackPointExtension>
            <ns3:hr>86</ns3:hr>
            <ns3:cad>44</ns3:cad>
          </ns3:TrackPointExtension>
        </extensions>
      </trkpt>
      <trkpt lat="43.4558759070932865142822265625" lon="1.44465026445686817169189453125">
        <ele>188.399993896484375</ele>
        <time>2026-08-05T06:32:18.000Z</time>
        <extensions>
          <ns3:TrackPointExtension>
            <ns3:hr>85</ns3:hr>
            <ns3:cad>44</ns3:cad>
          </ns3:TrackPointExtension>
        </extensions>
      </trkpt>
      <trkpt lat="43.45587515272200107574462890625" lon="1.4446681179106235504150390625">
        <ele>188.399993896484375</ele>
        <time>2026-08-05T06:32:19.000Z</time>
        <extensions>
          <ns3:TrackPointExtension>
            <ns3:hr>85</ns3:hr>
            <ns3:cad>44</ns3:cad>
          </ns3:TrackPointExtension>
        </extensions>
      </trkpt>
      <trkpt lat="43.4558738954365253448486328125" lon="1.4446865580976009368896484375">
        <ele>188.399993896484375</ele>
        <time>2026-08-05T06:32:20.000Z</time>
        <extensions>
          <ns3:TrackPointExtension>
            <ns3:hr>85</ns3:hr>
            <ns3:cad>44</ns3:cad>
          </ns3:TrackPointExtension>
        </extensions>
      </trkpt>
      <trkpt lat="43.45587196759879589080810546875" lon="1.444701142609119415283203125">
        <ele>188.600006103515625</ele>
        <time>2026-08-05T06:32:21.000Z</time>
        <extensions>
          <ns3:TrackPointExtension>
            <ns3:hr>85</ns3:hr>
            <ns3:cad>44</ns3:cad>
          </ns3:TrackPointExtension>
        </extensions>
      </trkpt>
      <trkpt lat="43.455870039761066436767578125" lon="1.4447184093296527862548828125">
        <ele>188.600006103515625</ele>
        <time>2026-08-05T06:32:22.000Z</time>
        <extensions>
          <ns3:TrackPointExtension>
            <ns3:hr>85</ns3:hr>
            <ns3:cad>44</ns3:cad>
          </ns3:TrackPointExtension>
        </extensions>
      </trkpt>
      <trkpt lat="43.45586643554270267486572265625" lon="1.44473877735435962677001953125">
        <ele>188.600006103515625</ele>
        <time>2026-08-05T06:32:23.000Z</time>
        <extensions>
          <ns3:TrackPointExtension>
            <ns3:hr>84</ns3:hr>
            <ns3:cad>44</ns3:cad>
          </ns3:TrackPointExtension>
        </extensions>
      </trkpt>
      <trkpt lat="43.4558631666004657745361328125" lon="1.44474883563816547393798828125">
        <ele>188.600006103515625</ele>
        <time>2026-08-05T06:32:24.000Z</time>
        <extensions>
          <ns3:TrackPointExtension>
            <ns3:hr>84</ns3:hr>
            <ns3:cad>43</ns3:cad>
          </ns3:TrackPointExtension>
        </extensions>
      </trkpt>
      <trkpt lat="43.4558601491153240203857421875" lon="1.4447573013603687286376953125">
        <ele>188.600006103515625</ele>
        <time>2026-08-05T06:32:25.000Z</time>
        <extensions>
          <ns3:TrackPointExtension>
            <ns3:hr>84</ns3:hr>
            <ns3:cad>43</ns3:cad>
          </ns3:TrackPointExtension>
        </extensions>
      </trkpt>
      <trkpt lat="43.45585688017308712005615234375" lon="1.44477448426187038421630859375">
        <ele>188.8000030517578125</ele>
        <time>2026-08-05T06:32:26.000Z</time>
        <extensions>
          <ns3:TrackPointExtension>
            <ns3:hr>84</ns3:hr>
            <ns3:cad>43</ns3:cad>
          </ns3:TrackPointExtension>
        </extensions>
      </trkpt>
      <trkpt lat="43.455854617059230804443359375" lon="1.44478973932564258575439453125">
        <ele>188.8000030517578125</ele>
        <time>2026-08-05T06:32:27.000Z</time>
        <extensions>
          <ns3:TrackPointExtension>
            <ns3:hr>84</ns3:hr>
            <ns3:cad>43</ns3:cad>
          </ns3:TrackPointExtension>
        </extensions>
      </trkpt>
      <trkpt lat="43.45585302449762821197509765625" lon="1.4448002167046070098876953125">
        <ele>188.8000030517578125</ele>
        <time>2026-08-05T06:32:28.000Z</time>
        <extensions>
          <ns3:TrackPointExtension>
            <ns3:hr>84</ns3:hr>
            <ns3:cad>44</ns3:cad>
          </ns3:TrackPointExtension>
        </extensions>
      </trkpt>
      <trkpt lat="43.455852605402469635009765625" lon="1.44481304101645946502685546875">
        <ele>188.8000030517578125</ele>
        <time>2026-08-05T06:32:29.000Z</time>
        <extensions>
          <ns3:TrackPointExtension>
            <ns3:hr>84</ns3:hr>
            <ns3:cad>44</ns3:cad>
          </ns3:TrackPointExtension>
        </extensions>
      </trkpt>
      <trkpt lat="43.4558497555553913116455078125" lon="1.44483014009892940521240234375">
        <ele>188.8000030517578125</ele>
        <time>2026-08-05T06:32:30.000Z</time>
        <extensions>
          <ns3:TrackPointExtension>
            <ns3:hr>84</ns3:hr>
            <ns3:cad>44</ns3:cad>
          </ns3:TrackPointExtension>
        </extensions>
      </trkpt>
      <trkpt lat="43.45584690570831298828125" lon="1.4448414556682109832763671875">
        <ele>188.8000030517578125</ele>
        <time>2026-08-05T06:32:31.000Z</time>
        <extensions>
          <ns3:TrackPointExtension>
            <ns3:hr>84</ns3:hr>
            <ns3:cad>44</ns3:cad>
          </ns3:TrackPointExtension>
        </extensions>
      </trkpt>
      <trkpt lat="43.45584363676607608795166015625" lon="1.44485427998006343841552734375">
        <ele>189</ele>
        <time>2026-08-05T06:32:32.000Z</time>
        <extensions>
          <ns3:TrackPointExtension>
            <ns3:hr>84</ns3:hr>
            <ns3:cad>43</ns3:cad>
          </ns3:TrackPointExtension>
        </extensions>
      </trkpt>
      <trkpt lat="43.4558427147567272186279296875" lon="1.44487188197672367095947265625">
        <ele>189</ele>
        <time>2026-08-05T06:32:33.000Z</time>
        <extensions>
          <ns3:TrackPointExtension>
            <ns3:hr>84</ns3:hr>
            <ns3:cad>44</ns3:cad>
          </ns3:TrackPointExtension>
        </extensions>
      </trkpt>
      <trkpt lat="43.4558400325477123260498046875" lon="1.44488730467855930328369140625">
        <ele>189</ele>
        <time>2026-08-05T06:32:34.000Z</time>
        <extensions>
          <ns3:TrackPointExtension>
            <ns3:hr>84</ns3:hr>
            <ns3:cad>44</ns3:cad>
          </ns3:TrackPointExtension>
        </extensions>
      </trkpt>
      <trkpt lat="43.45583927817642688751220703125" lon="1.44490172155201435089111328125">
        <ele>189</ele>
        <time>2026-08-05T06:32:35.000Z</time>
        <extensions>
          <ns3:TrackPointExtension>
            <ns3:hr>84</ns3:hr>
            <ns3:cad>44</ns3:cad>
          </ns3:TrackPointExtension>
        </extensions>
      </trkpt>
      <trkpt lat="43.45583877526223659515380859375" lon="1.44491228275001049041748046875">
        <ele>189</ele>
        <time>2026-08-05T06:32:36.000Z</time>
        <extensions>
          <ns3:TrackPointExtension>
            <ns3:hr>83</ns3:hr>
            <ns3:cad>45</ns3:cad>
          </ns3:TrackPointExtension>
        </extensions>
      </trkpt>
      <trkpt lat="43.45583776943385601043701171875" lon="1.4449246041476726531982421875">
        <ele>189</ele>
        <time>2026-08-05T06:32:37.000Z</time>
        <extensions>
          <ns3:TrackPointExtension>
            <ns3:hr>83</ns3:hr>
            <ns3:cad>45</ns3:cad>
          </ns3:TrackPointExtension>
        </extensions>
      </trkpt>
      <trkpt lat="43.45584011636674404144287109375" lon="1.4449422061443328857421875">
        <ele>189</ele>
        <time>2026-08-05T06:32:38.000Z</time>
        <extensions>
          <ns3:TrackPointExtension>
            <ns3:hr>83</ns3:hr>
            <ns3:cad>45</ns3:cad>
          </ns3:TrackPointExtension>
        </extensions>
      </trkpt>
      <trkpt lat="43.4558383561670780181884765625" lon="1.44496056251227855682373046875">
        <ele>189</ele>
        <time>2026-08-05T06:32:39.000Z</time>
        <extensions>
          <ns3:TrackPointExtension>
            <ns3:hr>83</ns3:hr>
            <ns3:cad>45</ns3:cad>
          </ns3:TrackPointExtension>
        </extensions>
      </trkpt>
      <trkpt lat="43.4558348357677459716796875" lon="1.44497497938573360443115234375">
        <ele>189</ele>
        <time>2026-08-05T06:32:40.000Z</time>
        <extensions>
          <ns3:TrackPointExtension>
            <ns3:hr>84</ns3:hr>
            <ns3:cad>45</ns3:cad>
          </ns3:TrackPointExtension>
        </extensions>
      </trkpt>
      <trkpt lat="43.45583206973969936370849609375" lon="1.4449859596788883209228515625">
        <ele>189</ele>
        <time>2026-08-05T06:32:41.000Z</time>
        <extensions>
          <ns3:TrackPointExtension>
            <ns3:hr>83</ns3:hr>
            <ns3:cad>45</ns3:cad>
          </ns3:TrackPointExtension>
        </extensions>
      </trkpt>
      <trkpt lat="43.455831818282604217529296875" lon="1.44500280730426311492919921875">
        <ele>189</ele>
        <time>2026-08-05T06:32:42.000Z</time>
        <extensions>
          <ns3:TrackPointExtension>
            <ns3:hr>84</ns3:hr>
            <ns3:cad>45</ns3:cad>
          </ns3:TrackPointExtension>
        </extensions>
      </trkpt>
      <trkpt lat="43.45583257265388965606689453125" lon="1.44502124749124050140380859375">
        <ele>189</ele>
        <time>2026-08-05T06:32:43.000Z</time>
        <extensions>
          <ns3:TrackPointExtension>
            <ns3:hr>84</ns3:hr>
            <ns3:cad>45</ns3:cad>
          </ns3:TrackPointExtension>
        </extensions>
      </trkpt>
      <trkpt lat="43.45583307556807994842529296875" lon="1.4450362510979175567626953125">
        <ele>188.8000030517578125</ele>
        <time>2026-08-05T06:32:44.000Z</time>
        <extensions>
          <ns3:TrackPointExtension>
            <ns3:hr>84</ns3:hr>
            <ns3:cad>46</ns3:cad>
          </ns3:TrackPointExtension>
        </extensions>
      </trkpt>
      <trkpt lat="43.45582854934036731719970703125" lon="1.4450429566204547882080078125">
        <ele>188.8000030517578125</ele>
        <time>2026-08-05T06:32:45.000Z</time>
        <extensions>
          <ns3:TrackPointExtension>
            <ns3:hr>83</ns3:hr>
            <ns3:cad>47</ns3:cad>
          </ns3:TrackPointExtension>
        </extensions>
      </trkpt>
      <trkpt lat="43.4558267891407012939453125" lon="1.445057205855846405029296875">
        <ele>188.8000030517578125</ele>
        <time>2026-08-05T06:32:46.000Z</time>
        <extensions>
          <ns3:TrackPointExtension>
            <ns3:hr>83</ns3:hr>
            <ns3:cad>47</ns3:cad>
          </ns3:TrackPointExtension>
        </extensions>
      </trkpt>
      <trkpt lat="43.455828465521335601806640625" lon="1.4450736343860626220703125">
        <ele>188.8000030517578125</ele>
        <time>2026-08-05T06:32:47.000Z</time>
        <extensions>
          <ns3:TrackPointExtension>
            <ns3:hr>83</ns3:hr>
            <ns3:cad>47</ns3:cad>
          </ns3:TrackPointExtension>
        </extensions>
      </trkpt>
      <trkpt lat="43.4558319859206676483154296875" lon="1.445086039602756500244140625">
        <ele>188.8000030517578125</ele>
        <time>2026-08-05T06:32:48.000Z</time>
        <extensions>
          <ns3:TrackPointExtension>
            <ns3:hr>82</ns3:hr>
            <ns3:cad>46</ns3:cad>
          </ns3:TrackPointExtension>
        </extensions>
      </trkpt>
      <trkpt lat="43.4558336623013019561767578125" lon="1.44510104320943355560302734375">
        <ele>188.8000030517578125</ele>
        <time>2026-08-05T06:32:49.000Z</time>
        <extensions>
          <ns3:TrackPointExtension>
            <ns3:hr>82</ns3:hr>
            <ns3:cad>46</ns3:cad>
          </ns3:TrackPointExtension>
        </extensions>
      </trkpt>
      <trkpt lat="43.45583424903452396392822265625" lon="1.445114873349666595458984375">
        <ele>188.8000030517578125</ele>
        <time>2026-08-05T06:32:50.000Z</time>
        <extensions>
          <ns3:TrackPointExtension>
            <ns3:hr>82</ns3:hr>
            <ns3:cad>46</ns3:cad>
          </ns3:TrackPointExtension>
        </extensions>
      </trkpt>
      <trkpt lat="43.45583391375839710235595703125" lon="1.4451277814805507659912109375">
        <ele>188.600006103515625</ele>
        <time>2026-08-05T06:32:51.000Z</time>
        <extensions>
          <ns3:TrackPointExtension>
            <ns3:hr>81</ns3:hr>
            <ns3:cad>45</ns3:cad>
          </ns3:TrackPointExtension>
        </extensions>
      </trkpt>
      <trkpt lat="43.45583148300647735595703125" lon="1.4451428689062595367431640625">
        <ele>188.600006103515625</ele>
        <time>2026-08-05T06:32:52.000Z</time>
        <extensions>
          <ns3:TrackPointExtension>
            <ns3:hr>81</ns3:hr>
            <ns3:cad>45</ns3:cad>
          </ns3:TrackPointExtension>
        </extensions>
      </trkpt>
      <trkpt lat="43.45582754351198673248291015625" lon="1.44515938125550746917724609375">
        <ele>188.600006103515625</ele>
        <time>2026-08-05T06:32:53.000Z</time>
        <extensions>
          <ns3:TrackPointExtension>
            <ns3:hr>81</ns3:hr>
            <ns3:cad>48</ns3:cad>
          </ns3:TrackPointExtension>
        </extensions>
      </trkpt>
      <trkpt lat="43.45582586713135242462158203125" lon="1.44517279230058193206787109375">
        <ele>188.399993896484375</ele>
        <time>2026-08-05T06:32:54.000Z</time>
        <extensions>
          <ns3:TrackPointExtension>
            <ns3:hr>81</ns3:hr>
            <ns3:cad>48</ns3:cad>
          </ns3:TrackPointExtension>
        </extensions>
      </trkpt>
      <trkpt lat="43.4558242745697498321533203125" lon="1.44518888555467128753662109375">
        <ele>188.399993896484375</ele>
        <time>2026-08-05T06:32:55.000Z</time>
        <extensions>
          <ns3:TrackPointExtension>
            <ns3:hr>80</ns3:hr>
            <ns3:cad>49</ns3:cad>
          </ns3:TrackPointExtension>
        </extensions>
      </trkpt>
      <trkpt lat="43.45582184381783008575439453125" lon="1.4451996982097625732421875">
        <ele>188.399993896484375</ele>
        <time>2026-08-05T06:32:56.000Z</time>
        <extensions>
          <ns3:TrackPointExtension>
            <ns3:hr>80</ns3:hr>
            <ns3:cad>50</ns3:cad>
          </ns3:TrackPointExtension>
        </extensions>
      </trkpt>
      <trkpt lat="43.45581782050430774688720703125" lon="1.44521671347320079803466796875">
        <ele>188.1999969482421875</ele>
        <time>2026-08-05T06:32:57.000Z</time>
        <extensions>
          <ns3:TrackPointExtension>
            <ns3:hr>80</ns3:hr>
            <ns3:cad>50</ns3:cad>
          </ns3:TrackPointExtension>
        </extensions>
      </trkpt>
      <trkpt lat="43.455814383924007415771484375" lon="1.44523582421243190765380859375">
        <ele>188.1999969482421875</ele>
        <time>2026-08-05T06:32:58.000Z</time>
        <extensions>
          <ns3:TrackPointExtension>
            <ns3:hr>80</ns3:hr>
            <ns3:cad>50</ns3:cad>
          </ns3:TrackPointExtension>
        </extensions>
      </trkpt>
      <trkpt lat="43.4558118693530559539794921875" lon="1.4452525041997432708740234375">
        <ele>188.1999969482421875</ele>
        <time>2026-08-05T06:32:59.000Z</time>
        <extensions>
          <ns3:TrackPointExtension>
            <ns3:hr>80</ns3:hr>
            <ns3:cad>49</ns3:cad>
          </ns3:TrackPointExtension>
        </extensions>
      </trkpt>
      <trkpt lat="43.45580943860113620758056640625" lon="1.44526801072061061859130859375">
        <ele>188.1999969482421875</ele>
        <time>2026-08-05T06:33:00.000Z</time>
        <extensions>
          <ns3:TrackPointExtension>
            <ns3:hr>79</ns3:hr>
            <ns3:cad>50</ns3:cad>
          </ns3:TrackPointExtension>
        </extensions>
      </trkpt>
      <trkpt lat="43.45580575056374073028564453125" lon="1.44528209231793880462646484375">
        <ele>188.1999969482421875</ele>
        <time>2026-08-05T06:33:01.000Z</time>
        <extensions>
          <ns3:TrackPointExtension>
            <ns3:hr>79</ns3:hr>
            <ns3:cad>50</ns3:cad>
          </ns3:TrackPointExtension>
        </extensions>
      </trkpt>
      <trkpt lat="43.45580390654504299163818359375" lon="1.4452934078872203826904296875">
        <ele>188.1999969482421875</ele>
        <time>2026-08-05T06:33:02.000Z</time>
        <extensions>
          <ns3:TrackPointExtension>
            <ns3:hr>79</ns3:hr>
            <ns3:cad>50</ns3:cad>
          </ns3:TrackPointExtension>
        </extensions>
      </trkpt>
      <trkpt lat="43.45579854212701320648193359375" lon="1.44530992023646831512451171875">
        <ele>188.1999969482421875</ele>
        <time>2026-08-05T06:33:03.000Z</time>
        <extensions>
          <ns3:TrackPointExtension>
            <ns3:hr>79</ns3:hr>
            <ns3:cad>50</ns3:cad>
          </ns3:TrackPointExtension>
        </extensions>
      </trkpt>
      <trkpt lat="43.45579552464187145233154296875" lon="1.44532484002411365509033203125">
        <ele>188</ele>
        <time>2026-08-05T06:33:04.000Z</time>
        <extensions>
          <ns3:TrackPointExtension>
            <ns3:hr>79</ns3:hr>
            <ns3:cad>49</ns3:cad>
          </ns3:TrackPointExtension>
        </extensions>
      </trkpt>
      <trkpt lat="43.4557920880615711212158203125" lon="1.445335485041141510009765625">
        <ele>188</ele>
        <time>2026-08-05T06:33:05.000Z</time>
        <extensions>
          <ns3:TrackPointExtension>
            <ns3:hr>78</ns3:hr>
            <ns3:cad>49</ns3:cad>
          </ns3:TrackPointExtension>
        </extensions>
      </trkpt>
      <trkpt lat="43.45578898675739765167236328125" lon="1.44534344784915447235107421875">
        <ele>188</ele>
        <time>2026-08-05T06:33:06.000Z</time>
        <extensions>
          <ns3:TrackPointExtension>
            <ns3:hr>78</ns3:hr>
            <ns3:cad>49</ns3:cad>
          </ns3:TrackPointExtension>
        </extensions>
      </trkpt>
      <trkpt lat="43.45578580163419246673583984375" lon="1.4453561045229434967041015625">
        <ele>188</ele>
        <time>2026-08-05T06:33:07.000Z</time>
        <extensions>
          <ns3:TrackPointExtension>
            <ns3:hr>78</ns3:hr>
            <ns3:cad>49</ns3:cad>
          </ns3:TrackPointExtension>
        </extensions>
      </trkpt>
      <trkpt lat="43.4557830356061458587646484375" lon="1.44537211395800113677978515625">
        <ele>188</ele>
        <time>2026-08-05T06:33:08.000Z</time>
        <extensions>
          <ns3:TrackPointExtension>
            <ns3:hr>78</ns3:hr>
            <ns3:cad>49</ns3:cad>
          </ns3:TrackPointExtension>
        </extensions>
      </trkpt>
      <trkpt lat="43.4557783417403697967529296875" lon="1.44538418389856815338134765625">
        <ele>188</ele>
        <time>2026-08-05T06:33:09.000Z</time>
        <extensions>
          <ns3:TrackPointExtension>
            <ns3:hr>78</ns3:hr>
            <ns3:cad>49</ns3:cad>
          </ns3:TrackPointExtension>
        </extensions>
      </trkpt>
      <trkpt lat="43.4557723067700862884521484375" lon="1.4453960023820400238037109375">
        <ele>188</ele>
        <time>2026-08-05T06:33:10.000Z</time>
        <extensions>
          <ns3:TrackPointExtension>
            <ns3:hr>79</ns3:hr>
            <ns3:cad>48</ns3:cad>
          </ns3:TrackPointExtension>
        </extensions>
      </trkpt>
      <trkpt lat="43.45577054657042026519775390625" lon="1.44540815614163875579833984375">
        <ele>187.8000030517578125</ele>
        <time>2026-08-05T06:33:11.000Z</time>
        <extensions>
          <ns3:TrackPointExtension>
            <ns3:hr>78</ns3:hr>
            <ns3:cad>47</ns3:cad>
          </ns3:TrackPointExtension>
        </extensions>
      </trkpt>
      <trkpt lat="43.45576702617108821868896484375" lon="1.4454188011586666107177734375">
        <ele>187.8000030517578125</ele>
        <time>2026-08-05T06:33:12.000Z</time>
        <extensions>
          <ns3:TrackPointExtension>
            <ns3:hr>78</ns3:hr>
            <ns3:cad>47</ns3:cad>
          </ns3:TrackPointExtension>
        </extensions>
      </trkpt>
      <trkpt lat="43.45576367340981960296630859375" lon="1.44543330185115337371826171875">
        <ele>187.8000030517578125</ele>
        <time>2026-08-05T06:33:13.000Z</time>
        <extensions>
          <ns3:TrackPointExtension>
            <ns3:hr>78</ns3:hr>
            <ns3:cad>47</ns3:cad>
          </ns3:TrackPointExtension>
        </extensions>
      </trkpt>
      <trkpt lat="43.4557605721056461334228515625" lon="1.44544788636267185211181640625">
        <ele>187.8000030517578125</ele>
        <time>2026-08-05T06:33:14.000Z</time>
        <extensions>
          <ns3:TrackPointExtension>
            <ns3:hr>78</ns3:hr>
            <ns3:cad>47</ns3:cad>
          </ns3:TrackPointExtension>
        </extensions>
      </trkpt>
      <trkpt lat="43.4557542018592357635498046875" lon="1.44545945338904857635498046875">
        <ele>187.600006103515625</ele>
        <time>2026-08-05T06:33:15.000Z</time>
        <extensions>
          <ns3:TrackPointExtension>
            <ns3:hr>78</ns3:hr>
            <ns3:cad>48</ns3:cad>
          </ns3:TrackPointExtension>
        </extensions>
      </trkpt>
      <trkpt lat="43.45574858598411083221435546875" lon="1.44547127187252044677734375">
        <ele>187.600006103515625</ele>
        <time>2026-08-05T06:33:16.000Z</time>
        <extensions>
          <ns3:TrackPointExtension>
            <ns3:hr>79</ns3:hr>
            <ns3:cad>48</ns3:cad>
          </ns3:TrackPointExtension>
        </extensions>
      </trkpt>
      <trkpt lat="43.45574338920414447784423828125" lon="1.44548711366951465606689453125">
        <ele>187.600006103515625</ele>
        <time>2026-08-05T06:33:17.000Z</time>
        <extensions>
          <ns3:TrackPointExtension>
            <ns3:hr>79</ns3:hr>
            <ns3:cad>48</ns3:cad>
          </ns3:TrackPointExtension>
        </extensions>
      </trkpt>
      <trkpt lat="43.45573970116674900054931640625" lon="1.445501111447811126708984375">
        <ele>187.600006103515625</ele>
        <time>2026-08-05T06:33:18.000Z</time>
        <extensions>
          <ns3:TrackPointExtension>
            <ns3:hr>79</ns3:hr>
            <ns3:cad>48</ns3:cad>
          </ns3:TrackPointExtension>
        </extensions>
      </trkpt>
      <trkpt lat="43.4557354263961315155029296875" lon="1.44551225937902927398681640625">
        <ele>187.600006103515625</ele>
        <time>2026-08-05T06:33:19.000Z</time>
        <extensions>
          <ns3:TrackPointExtension>
            <ns3:hr>79</ns3:hr>
            <ns3:cad>47</ns3:cad>
          </ns3:TrackPointExtension>
        </extensions>
      </trkpt>
      <trkpt lat="43.4557302296161651611328125" lon="1.4455250836908817291259765625">
        <ele>187.399993896484375</ele>
        <time>2026-08-05T06:33:20.000Z</time>
        <extensions>
          <ns3:TrackPointExtension>
            <ns3:hr>80</ns3:hr>
            <ns3:cad>46</ns3:cad>
          </ns3:TrackPointExtension>
        </extensions>
      </trkpt>
      <trkpt lat="43.45572930760681629180908203125" lon="1.4455395005643367767333984375">
        <ele>187.399993896484375</ele>
        <time>2026-08-05T06:33:21.000Z</time>
        <extensions>
          <ns3:TrackPointExtension>
            <ns3:hr>79</ns3:hr>
            <ns3:cad>46</ns3:cad>
          </ns3:TrackPointExtension>
        </extensions>
      </trkpt>
      <trkpt lat="43.45572461374104022979736328125" lon="1.4455579407513141632080078125">
        <ele>187.399993896484375</ele>
        <time>2026-08-05T06:33:22.000Z</time>
        <extensions>
          <ns3:TrackPointExtension>
            <ns3:hr>79</ns3:hr>
            <ns3:cad>47</ns3:cad>
          </ns3:TrackPointExtension>
        </extensions>
      </trkpt>
      <trkpt lat="43.4557216800749301910400390625" lon="1.44557344727218151092529296875">
        <ele>187.399993896484375</ele>
        <time>2026-08-05T06:33:23.000Z</time>
        <extensions>
          <ns3:TrackPointExtension>
            <ns3:hr>79</ns3:hr>
            <ns3:cad>47</ns3:cad>
          </ns3:TrackPointExtension>
        </extensions>
      </trkpt>
      <trkpt lat="43.45571857877075672149658203125" lon="1.44558970816433429718017578125">
        <ele>187.399993896484375</ele>
        <time>2026-08-05T06:33:24.000Z</time>
        <extensions>
          <ns3:TrackPointExtension>
            <ns3:hr>79</ns3:hr>
            <ns3:cad>47</ns3:cad>
          </ns3:TrackPointExtension>
        </extensions>
      </trkpt>
      <trkpt lat="43.45571438781917095184326171875" lon="1.4455966651439666748046875">
        <ele>187.399993896484375</ele>
        <time>2026-08-05T06:33:25.000Z</time>
        <extensions>
          <ns3:TrackPointExtension>
            <ns3:hr>79</ns3:hr>
            <ns3:cad>47</ns3:cad>
          </ns3:TrackPointExtension>
        </extensions>
      </trkpt>
      <trkpt lat="43.455711118876934051513671875" lon="1.44560915417969226837158203125">
        <ele>187.1999969482421875</ele>
        <time>2026-08-05T06:33:26.000Z</time>
        <extensions>
          <ns3:TrackPointExtension>
            <ns3:hr>79</ns3:hr>
            <ns3:cad>47</ns3:cad>
          </ns3:TrackPointExtension>
        </extensions>
      </trkpt>
      <trkpt lat="43.45570583827793598175048828125" lon="1.44562281668186187744140625">
        <ele>187.1999969482421875</ele>
        <time>2026-08-05T06:33:27.000Z</time>
        <extensions>
          <ns3:TrackPointExtension>
            <ns3:hr>78</ns3:hr>
            <ns3:cad>48</ns3:cad>
          </ns3:TrackPointExtension>
        </extensions>
      </trkpt>
      <trkpt lat="43.4557018987834453582763671875" lon="1.44563647918403148651123046875">
        <ele>187.1999969482421875</ele>
        <time>2026-08-05T06:33:28.000Z</time>
        <extensions>
          <ns3:TrackPointExtension>
            <ns3:hr>78</ns3:hr>
            <ns3:cad>48</ns3:cad>
          </ns3:TrackPointExtension>
        </extensions>
      </trkpt>
      <trkpt lat="43.45569561235606670379638671875" lon="1.4456501416862010955810546875">
        <ele>187.1999969482421875</ele>
        <time>2026-08-05T06:33:29.000Z</time>
        <extensions>
          <ns3:TrackPointExtension>
            <ns3:hr>78</ns3:hr>
            <ns3:cad>48</ns3:cad>
          </ns3:TrackPointExtension>
        </extensions>
      </trkpt>
      <trkpt lat="43.45569175668060779571533203125" lon="1.44566145725548267364501953125">
        <ele>187</ele>
        <time>2026-08-05T06:33:30.000Z</time>
        <extensions>
          <ns3:TrackPointExtension>
            <ns3:hr>79</ns3:hr>
            <ns3:cad>48</ns3:cad>
          </ns3:TrackPointExtension>
        </extensions>
      </trkpt>
      <trkpt lat="43.45568790100514888763427734375" lon="1.4456732757389545440673828125">
        <ele>187</ele>
        <time>2026-08-05T06:33:31.000Z</time>
        <extensions>
          <ns3:TrackPointExtension>
            <ns3:hr>78</ns3:hr>
            <ns3:cad>48</ns3:cad>
          </ns3:TrackPointExtension>
        </extensions>
      </trkpt>
      <trkpt lat="43.455684296786785125732421875" lon="1.44568475894629955291748046875">
        <ele>186.8000030517578125</ele>
        <time>2026-08-05T06:33:32.000Z</time>
        <extensions>
          <ns3:TrackPointExtension>
            <ns3:hr>78</ns3:hr>
            <ns3:cad>48</ns3:cad>
          </ns3:TrackPointExtension>
        </extensions>
      </trkpt>
      <trkpt lat="43.45568169839680194854736328125" lon="1.4456977508962154388427734375">
        <ele>186.8000030517578125</ele>
        <time>2026-08-05T06:33:33.000Z</time>
        <extensions>
          <ns3:TrackPointExtension>
            <ns3:hr>78</ns3:hr>
            <ns3:cad>48</ns3:cad>
          </ns3:TrackPointExtension>
        </extensions>
      </trkpt>
      <trkpt lat="43.45567884854972362518310546875" lon="1.4457141794264316558837890625">
        <ele>186.8000030517578125</ele>
        <time>2026-08-05T06:33:34.000Z</time>
        <extensions>
          <ns3:TrackPointExtension>
            <ns3:hr>78</ns3:hr>
            <ns3:cad>49</ns3:cad>
          </ns3:TrackPointExtension>
        </extensions>
      </trkpt>
      <trkpt lat="43.45567231066524982452392578125" lon="1.44572398625314235687255859375">
        <ele>186.8000030517578125</ele>
        <time>2026-08-05T06:33:35.000Z</time>
        <extensions>
          <ns3:TrackPointExtension>
            <ns3:hr>77</ns3:hr>
            <ns3:cad>48</ns3:cad>
          </ns3:TrackPointExtension>
        </extensions>
      </trkpt>
      <trkpt lat="43.45566744916141033172607421875" lon="1.44573655910789966583251953125">
        <ele>186.600006103515625</ele>
        <time>2026-08-05T06:33:36.000Z</time>
        <extensions>
          <ns3:TrackPointExtension>
            <ns3:hr>77</ns3:hr>
            <ns3:cad>47</ns3:cad>
          </ns3:TrackPointExtension>
        </extensions>
      </trkpt>
      <trkpt lat="43.45566786825656890869140625" lon="1.44575634039938449859619140625">
        <ele>186.600006103515625</ele>
        <time>2026-08-05T06:33:37.000Z</time>
        <extensions>
          <ns3:TrackPointExtension>
            <ns3:hr>77</ns3:hr>
            <ns3:cad>47</ns3:cad>
          </ns3:TrackPointExtension>
        </extensions>
      </trkpt>
      <trkpt lat="43.45566292293369770050048828125" lon="1.44577427767217159271240234375">
        <ele>186.600006103515625</ele>
        <time>2026-08-05T06:33:38.000Z</time>
        <extensions>
          <ns3:TrackPointExtension>
            <ns3:hr>77</ns3:hr>
            <ns3:cad>47</ns3:cad>
          </ns3:TrackPointExtension>
        </extensions>
      </trkpt>
      <trkpt lat="43.45565848052501678466796875" lon="1.44578643143177032470703125">
        <ele>186.600006103515625</ele>
        <time>2026-08-05T06:33:39.000Z</time>
        <extensions>
          <ns3:TrackPointExtension>
            <ns3:hr>77</ns3:hr>
            <ns3:cad>47</ns3:cad>
          </ns3:TrackPointExtension>
        </extensions>
      </trkpt>
      <trkpt lat="43.45565378665924072265625" lon="1.445796489715576171875">
        <ele>186.399993896484375</ele>
        <time>2026-08-05T06:33:40.000Z</time>
        <extensions>
          <ns3:TrackPointExtension>
            <ns3:hr>76</ns3:hr>
            <ns3:cad>48</ns3:cad>
          </ns3:TrackPointExtension>
        </extensions>
      </trkpt>
      <trkpt lat="43.45564934425055980682373046875" lon="1.4458087272942066192626953125">
        <ele>186.399993896484375</ele>
        <time>2026-08-05T06:33:41.000Z</time>
        <extensions>
          <ns3:TrackPointExtension>
            <ns3:hr>77</ns3:hr>
            <ns3:cad>48</ns3:cad>
          </ns3:TrackPointExtension>
        </extensions>
      </trkpt>
      <trkpt lat="43.4556449018418788909912109375" lon="1.4458238147199153900146484375">
        <ele>186.1999969482421875</ele>
        <time>2026-08-05T06:33:42.000Z</time>
        <extensions>
          <ns3:TrackPointExtension>
            <ns3:hr>76</ns3:hr>
            <ns3:cad>48</ns3:cad>
          </ns3:TrackPointExtension>
        </extensions>
      </trkpt>
      <trkpt lat="43.45563962124288082122802734375" lon="1.44584133289754390716552734375">
        <ele>186.1999969482421875</ele>
        <time>2026-08-05T06:33:43.000Z</time>
        <extensions>
          <ns3:TrackPointExtension>
            <ns3:hr>76</ns3:hr>
            <ns3:cad>48</ns3:cad>
          </ns3:TrackPointExtension>
        </extensions>
      </trkpt>
      <trkpt lat="43.45563677139580249786376953125" lon="1.445851810276508331298828125">
        <ele>186.1999969482421875</ele>
        <time>2026-08-05T06:33:44.000Z</time>
        <extensions>
          <ns3:TrackPointExtension>
            <ns3:hr>76</ns3:hr>
            <ns3:cad>48</ns3:cad>
          </ns3:TrackPointExtension>
        </extensions>
      </trkpt>
      <trkpt lat="43.45563107170164585113525390625" lon="1.44586262293159961700439453125">
        <ele>186</ele>
        <time>2026-08-05T06:33:45.000Z</time>
        <extensions>
          <ns3:TrackPointExtension>
            <ns3:hr>77</ns3:hr>
            <ns3:cad>48</ns3:cad>
          </ns3:TrackPointExtension>
        </extensions>
      </trkpt>
      <trkpt lat="43.45562771894037723541259765625" lon="1.4458747766911983489990234375">
        <ele>186</ele>
        <time>2026-08-05T06:33:46.000Z</time>
        <extensions>
          <ns3:TrackPointExtension>
            <ns3:hr>76</ns3:hr>
            <ns3:cad>48</ns3:cad>
          </ns3:TrackPointExtension>
        </extensions>
      </trkpt>
      <trkpt lat="43.455621264874935150146484375" lon="1.4458908699452877044677734375">
        <ele>186</ele>
        <time>2026-08-05T06:33:47.000Z</time>
        <extensions>
          <ns3:TrackPointExtension>
            <ns3:hr>77</ns3:hr>
            <ns3:cad>48</ns3:cad>
          </ns3:TrackPointExtension>
        </extensions>
      </trkpt>
      <trkpt lat="43.4556162357330322265625" lon="1.4459052868187427520751953125">
        <ele>186</ele>
        <time>2026-08-05T06:33:48.000Z</time>
        <extensions>
          <ns3:TrackPointExtension>
            <ns3:hr>77</ns3:hr>
            <ns3:cad>48</ns3:cad>
          </ns3:TrackPointExtension>
        </extensions>
      </trkpt>
      <trkpt lat="43.45561246387660503387451171875" lon="1.44591785967350006103515625">
        <ele>186</ele>
        <time>2026-08-05T06:33:49.000Z</time>
        <extensions>
          <ns3:TrackPointExtension>
            <ns3:hr>77</ns3:hr>
            <ns3:cad>48</ns3:cad>
          </ns3:TrackPointExtension>
        </extensions>
      </trkpt>
      <trkpt lat="43.45560860820114612579345703125" lon="1.44592766650021076202392578125">
        <ele>186</ele>
        <time>2026-08-05T06:33:50.000Z</time>
        <extensions>
          <ns3:TrackPointExtension>
            <ns3:hr>77</ns3:hr>
            <ns3:cad>48</ns3:cad>
          </ns3:TrackPointExtension>
        </extensions>
      </trkpt>
      <trkpt lat="43.455602824687957763671875" lon="1.445940323173999786376953125">
        <ele>186</ele>
        <time>2026-08-05T06:33:51.000Z</time>
        <extensions>
          <ns3:TrackPointExtension>
            <ns3:hr>77</ns3:hr>
            <ns3:cad>48</ns3:cad>
          </ns3:TrackPointExtension>
        </extensions>
      </trkpt>
      <trkpt lat="43.45559570007026195526123046875" lon="1.44595599733293056488037109375">
        <ele>186</ele>
        <time>2026-08-05T06:33:52.000Z</time>
        <extensions>
          <ns3:TrackPointExtension>
            <ns3:hr>77</ns3:hr>
            <ns3:cad>47</ns3:cad>
          </ns3:TrackPointExtension>
        </extensions>
      </trkpt>
      <trkpt lat="43.45559134148061275482177734375" lon="1.4459676481783390045166015625">
        <ele>185.8000030517578125</ele>
        <time>2026-08-05T06:33:53.000Z</time>
        <extensions>
          <ns3:TrackPointExtension>
            <ns3:hr>76</ns3:hr>
            <ns3:cad>46</ns3:cad>
          </ns3:TrackPointExtension>
        </extensions>
      </trkpt>
      <trkpt lat="43.4555858932435512542724609375" lon="1.4459793828427791595458984375">
        <ele>185.600006103515625</ele>
        <time>2026-08-05T06:33:54.000Z</time>
        <extensions>
          <ns3:TrackPointExtension>
            <ns3:hr>77</ns3:hr>
            <ns3:cad>46</ns3:cad>
          </ns3:TrackPointExtension>
        </extensions>
      </trkpt>
      <trkpt lat="43.45557910390198230743408203125" lon="1.4459914527833461761474609375">
        <ele>185.399993896484375</ele>
        <time>2026-08-05T06:33:55.000Z</time>
        <extensions>
          <ns3:TrackPointExtension>
            <ns3:hr>77</ns3:hr>
            <ns3:cad>51</ns3:cad>
          </ns3:TrackPointExtension>
        </extensions>
      </trkpt>
      <trkpt lat="43.4555748291313648223876953125" lon="1.4460065402090549468994140625">
        <ele>185.1999969482421875</ele>
        <time>2026-08-05T06:33:56.000Z</time>
        <extensions>
          <ns3:TrackPointExtension>
            <ns3:hr>77</ns3:hr>
            <ns3:cad>51</ns3:cad>
          </ns3:TrackPointExtension>
        </extensions>
      </trkpt>
      <trkpt lat="43.4555724821984767913818359375" lon="1.44602246582508087158203125">
        <ele>185.1999969482421875</ele>
        <time>2026-08-05T06:33:57.000Z</time>
        <extensions>
          <ns3:TrackPointExtension>
            <ns3:hr>78</ns3:hr>
            <ns3:cad>53</ns3:cad>
          </ns3:TrackPointExtension>
        </extensions>
      </trkpt>
      <trkpt lat="43.4555701352655887603759765625" lon="1.446037553250789642333984375">
        <ele>185</ele>
        <time>2026-08-05T06:33:58.000Z</time>
        <extensions>
          <ns3:TrackPointExtension>
            <ns3:hr>78</ns3:hr>
            <ns3:cad>53</ns3:cad>
          </ns3:TrackPointExtension>
        </extensions>
      </trkpt>
      <trkpt lat="43.455566279590129852294921875" lon="1.44605121575295925140380859375">
        <ele>185</ele>
        <time>2026-08-05T06:33:59.000Z</time>
        <extensions>
          <ns3:TrackPointExtension>
            <ns3:hr>78</ns3:hr>
            <ns3:cad>53</ns3:cad>
          </ns3:TrackPointExtension>
        </extensions>
      </trkpt>
      <trkpt lat="43.4555607475340366363525390625" lon="1.44606496207416057586669921875">
        <ele>184.8000030517578125</ele>
        <time>2026-08-05T06:34:00.000Z</time>
        <extensions>
          <ns3:TrackPointExtension>
            <ns3:hr>78</ns3:hr>
            <ns3:cad>52</ns3:cad>
          </ns3:TrackPointExtension>
        </extensions>
      </trkpt>
      <trkpt lat="43.45555446110665798187255859375" lon="1.44607703201472759246826171875">
        <ele>184.600006103515625</ele>
        <time>2026-08-05T06:34:01.000Z</time>
        <extensions>
          <ns3:TrackPointExtension>
            <ns3:hr>78</ns3:hr>
            <ns3:cad>52</ns3:cad>
          </ns3:TrackPointExtension>
        </extensions>
      </trkpt>
      <trkpt lat="43.45554775558412075042724609375" lon="1.44608558155596256256103515625">
        <ele>184.600006103515625</ele>
        <time>2026-08-05T06:34:02.000Z</time>
        <extensions>
          <ns3:TrackPointExtension>
            <ns3:hr>79</ns3:hr>
            <ns3:cad>50</ns3:cad>
          </ns3:TrackPointExtension>
        </extensions>
      </trkpt>
      <trkpt lat="43.4555436484515666961669921875" lon="1.4460987411439418792724609375">
        <ele>184.399993896484375</ele>
        <time>2026-08-05T06:34:03.000Z</time>
        <extensions>
          <ns3:TrackPointExtension>
            <ns3:hr>79</ns3:hr>
            <ns3:cad>49</ns3:cad>
          </ns3:TrackPointExtension>
        </extensions>
      </trkpt>
      <trkpt lat="43.45554004423320293426513671875" lon="1.446107290685176849365234375">
        <ele>184.399993896484375</ele>
        <time>2026-08-05T06:34:04.000Z</time>
        <extensions>
          <ns3:TrackPointExtension>
            <ns3:hr>79</ns3:hr>
            <ns3:cad>48</ns3:cad>
          </ns3:TrackPointExtension>
        </extensions>
      </trkpt>
      <trkpt lat="43.45553367398679256439208984375" lon="1.44612011499702930450439453125">
        <ele>184.1999969482421875</ele>
        <time>2026-08-05T06:34:05.000Z</time>
        <extensions>
          <ns3:TrackPointExtension>
            <ns3:hr>79</ns3:hr>
            <ns3:cad>48</ns3:cad>
          </ns3:TrackPointExtension>
        </extensions>
      </trkpt>
      <trkpt lat="43.45553266815841197967529296875" lon="1.4461322687566280364990234375">
        <ele>184.1999969482421875</ele>
        <time>2026-08-05T06:34:06.000Z</time>
        <extensions>
          <ns3:TrackPointExtension>
            <ns3:hr>79</ns3:hr>
            <ns3:cad>50</ns3:cad>
          </ns3:TrackPointExtension>
        </extensions>
      </trkpt>
      <trkpt lat="43.45552797429263591766357421875" lon="1.4461497031152248382568359375">
        <ele>184.1999969482421875</ele>
        <time>2026-08-05T06:34:07.000Z</time>
        <extensions>
          <ns3:TrackPointExtension>
            <ns3:hr>78</ns3:hr>
            <ns3:cad>50</ns3:cad>
          </ns3:TrackPointExtension>
        </extensions>
      </trkpt>
      <trkpt lat="43.45552529208362102508544921875" lon="1.446164287626743316650390625">
        <ele>184</ele>
        <time>2026-08-05T06:34:08.000Z</time>
        <extensions>
          <ns3:TrackPointExtension>
            <ns3:hr>79</ns3:hr>
            <ns3:cad>49</ns3:cad>
          </ns3:TrackPointExtension>
        </extensions>
      </trkpt>
      <trkpt lat="43.45552043057978153228759765625" lon="1.44617694430053234100341796875">
        <ele>184</ele>
        <time>2026-08-05T06:34:09.000Z</time>
        <extensions>
          <ns3:TrackPointExtension>
            <ns3:hr>78</ns3:hr>
            <ns3:cad>49</ns3:cad>
          </ns3:TrackPointExtension>
        </extensions>
      </trkpt>
      <trkpt lat="43.455514647066593170166015625" lon="1.44619052298367023468017578125">
        <ele>183.8000030517578125</ele>
        <time>2026-08-05T06:34:10.000Z</time>
        <extensions>
          <ns3:TrackPointExtension>
            <ns3:hr>78</ns3:hr>
            <ns3:cad>49</ns3:cad>
          </ns3:TrackPointExtension>
        </extensions>
      </trkpt>
      <trkpt lat="43.4555111266672611236572265625" lon="1.446202509105205535888671875">
        <ele>183.8000030517578125</ele>
        <time>2026-08-05T06:34:11.000Z</time>
        <extensions>
          <ns3:TrackPointExtension>
            <ns3:hr>78</ns3:hr>
            <ns3:cad>50</ns3:cad>
          </ns3:TrackPointExtension>
        </extensions>
      </trkpt>
      <trkpt lat="43.4555040858685970306396484375" lon="1.44621818326413631439208984375">
        <ele>183.600006103515625</ele>
        <time>2026-08-05T06:34:12.000Z</time>
        <extensions>
          <ns3:TrackPointExtension>
            <ns3:hr>78</ns3:hr>
            <ns3:cad>50</ns3:cad>
          </ns3:TrackPointExtension>
        </extensions>
      </trkpt>
      <trkpt lat="43.45549846999347209930419921875" lon="1.44623008556663990020751953125">
        <ele>183.600006103515625</ele>
        <time>2026-08-05T06:34:13.000Z</time>
        <extensions>
          <ns3:TrackPointExtension>
            <ns3:hr>77</ns3:hr>
            <ns3:cad>50</ns3:cad>
          </ns3:TrackPointExtension>
        </extensions>
      </trkpt>
      <trkpt lat="43.455495536327362060546875" lon="1.446242742240428924560546875">
        <ele>183.600006103515625</ele>
        <time>2026-08-05T06:34:14.000Z</time>
        <extensions>
          <ns3:TrackPointExtension>
            <ns3:hr>77</ns3:hr>
            <ns3:cad>50</ns3:cad>
          </ns3:TrackPointExtension>
        </extensions>
      </trkpt>
      <trkpt lat="43.455490171909332275390625" lon="1.44625472836196422576904296875">
        <ele>183.399993896484375</ele>
        <time>2026-08-05T06:34:15.000Z</time>
        <extensions>
          <ns3:TrackPointExtension>
            <ns3:hr>77</ns3:hr>
            <ns3:cad>50</ns3:cad>
          </ns3:TrackPointExtension>
        </extensions>
      </trkpt>
      <trkpt lat="43.4554839693009853363037109375" lon="1.44626746885478496551513671875">
        <ele>183.399993896484375</ele>
        <time>2026-08-05T06:34:16.000Z</time>
        <extensions>
          <ns3:TrackPointExtension>
            <ns3:hr>75</ns3:hr>
            <ns3:cad>50</ns3:cad>
          </ns3:TrackPointExtension>
        </extensions>
      </trkpt>
      <trkpt lat="43.45547785051167011260986328125" lon="1.44627995789051055908203125">
        <ele>183.399993896484375</ele>
        <time>2026-08-05T06:34:17.000Z</time>
        <extensions>
          <ns3:TrackPointExtension>
            <ns3:hr>74</ns3:hr>
            <ns3:cad>49</ns3:cad>
          </ns3:TrackPointExtension>
        </extensions>
      </trkpt>
      <trkpt lat="43.455474413931369781494140625" lon="1.44629471004009246826171875">
        <ele>183.399993896484375</ele>
        <time>2026-08-05T06:34:18.000Z</time>
        <extensions>
          <ns3:TrackPointExtension>
            <ns3:hr>71</ns3:hr>
            <ns3:cad>48</ns3:cad>
          </ns3:TrackPointExtension>
        </extensions>
      </trkpt>
      <trkpt lat="43.4554678760468959808349609375" lon="1.4463113062083721160888671875">
        <ele>183.399993896484375</ele>
        <time>2026-08-05T06:34:19.000Z</time>
        <extensions>
          <ns3:TrackPointExtension>
            <ns3:hr>70</ns3:hr>
            <ns3:cad>49</ns3:cad>
          </ns3:TrackPointExtension>
        </extensions>
      </trkpt>
      <trkpt lat="43.455461002886295318603515625" lon="1.4463243819773197174072265625">
        <ele>183.399993896484375</ele>
        <time>2026-08-05T06:34:20.000Z</time>
        <extensions>
          <ns3:TrackPointExtension>
            <ns3:hr>70</ns3:hr>
            <ns3:cad>49</ns3:cad>
          </ns3:TrackPointExtension>
        </extensions>
      </trkpt>
      <trkpt lat="43.45545857213437557220458984375" lon="1.44633586518466472625732421875">
        <ele>183.399993896484375</ele>
        <time>2026-08-05T06:34:21.000Z</time>
        <extensions>
          <ns3:TrackPointExtension>
            <ns3:hr>69</ns3:hr>
            <ns3:cad>49</ns3:cad>
          </ns3:TrackPointExtension>
        </extensions>
      </trkpt>
      <trkpt lat="43.45545220188796520233154296875" lon="1.4463491924107074737548828125">
        <ele>183.1999969482421875</ele>
        <time>2026-08-05T06:34:22.000Z</time>
        <extensions>
          <ns3:TrackPointExtension>
            <ns3:hr>69</ns3:hr>
            <ns3:cad>49</ns3:cad>
          </ns3:TrackPointExtension>
        </extensions>
      </trkpt>
      <trkpt lat="43.45545136369764804840087890625" lon="1.4463582448661327362060546875">
        <ele>183.1999969482421875</ele>
        <time>2026-08-05T06:34:23.000Z</time>
        <extensions>
          <ns3:TrackPointExtension>
            <ns3:hr>69</ns3:hr>
            <ns3:cad>49</ns3:cad>
          </ns3:TrackPointExtension>
        </extensions>
      </trkpt>
      <trkpt lat="43.4554497711360454559326171875" lon="1.44637224264442920684814453125">
        <ele>183.1999969482421875</ele>
        <time>2026-08-05T06:34:24.000Z</time>
        <extensions>
          <ns3:TrackPointExtension>
            <ns3:hr>69</ns3:hr>
            <ns3:cad>49</ns3:cad>
          </ns3:TrackPointExtension>
        </extensions>
      </trkpt>
      <trkpt lat="43.45544381998479366302490234375" lon="1.44638733007013797760009765625">
        <ele>183.1999969482421875</ele>
        <time>2026-08-05T06:34:25.000Z</time>
        <extensions>
          <ns3:TrackPointExtension>
            <ns3:hr>69</ns3:hr>
            <ns3:cad>49</ns3:cad>
          </ns3:TrackPointExtension>
        </extensions>
      </trkpt>
      <trkpt lat="43.45543979667127132415771484375" lon="1.4463991485536098480224609375">
        <ele>183</ele>
        <time>2026-08-05T06:34:26.000Z</time>
        <extensions>
          <ns3:TrackPointExtension>
            <ns3:hr>69</ns3:hr>
            <ns3:cad>49</ns3:cad>
          </ns3:TrackPointExtension>
        </extensions>
      </trkpt>
      <trkpt lat="43.455432839691638946533203125" lon="1.44641004502773284912109375">
        <ele>183</ele>
        <time>2026-08-05T06:34:27.000Z</time>
        <extensions>
          <ns3:TrackPointExtension>
            <ns3:hr>69</ns3:hr>
            <ns3:cad>49</ns3:cad>
          </ns3:TrackPointExtension>
        </extensions>
      </trkpt>
      <trkpt lat="43.4554279781877994537353515625" lon="1.4464236237108707427978515625">
        <ele>183</ele>
        <time>2026-08-05T06:34:28.000Z</time>
        <extensions>
          <ns3:TrackPointExtension>
            <ns3:hr>70</ns3:hr>
            <ns3:cad>49</ns3:cad>
          </ns3:TrackPointExtension>
        </extensions>
      </trkpt>
      <trkpt lat="43.45542236231267452239990234375" lon="1.44643996842205524444580078125">
        <ele>182.8000030517578125</ele>
        <time>2026-08-05T06:34:29.000Z</time>
        <extensions>
          <ns3:TrackPointExtension>
            <ns3:hr>69</ns3:hr>
            <ns3:cad>48</ns3:cad>
          </ns3:TrackPointExtension>
        </extensions>
      </trkpt>
      <trkpt lat="43.45541884191334247589111328125" lon="1.44645430147647857666015625">
        <ele>182.8000030517578125</ele>
        <time>2026-08-05T06:34:30.000Z</time>
        <extensions>
          <ns3:TrackPointExtension>
            <ns3:hr>69</ns3:hr>
            <ns3:cad>48</ns3:cad>
          </ns3:TrackPointExtension>
        </extensions>
      </trkpt>
      <trkpt lat="43.45541364513337612152099609375" lon="1.44646561704576015472412109375">
        <ele>182.600006103515625</ele>
        <time>2026-08-05T06:34:31.000Z</time>
        <extensions>
          <ns3:TrackPointExtension>
            <ns3:hr>69</ns3:hr>
            <ns3:cad>49</ns3:cad>
          </ns3:TrackPointExtension>
        </extensions>
      </trkpt>
      <trkpt lat="43.45541196875274181365966796875" lon="1.4464791119098663330078125">
        <ele>182.600006103515625</ele>
        <time>2026-08-05T06:34:32.000Z</time>
        <extensions>
          <ns3:TrackPointExtension>
            <ns3:hr>70</ns3:hr>
            <ns3:cad>49</ns3:cad>
          </ns3:TrackPointExtension>
        </extensions>
      </trkpt>
      <trkpt lat="43.4554102085530757904052734375" lon="1.4464863203465938568115234375">
        <ele>182.399993896484375</ele>
        <time>2026-08-05T06:34:33.000Z</time>
        <extensions>
          <ns3:TrackPointExtension>
            <ns3:hr>69</ns3:hr>
            <ns3:cad>50</ns3:cad>
          </ns3:TrackPointExtension>
        </extensions>
      </trkpt>
      <trkpt lat="43.45540207810699939727783203125" lon="1.4465010724961757659912109375">
        <ele>182.399993896484375</ele>
        <time>2026-08-05T06:34:34.000Z</time>
        <extensions>
          <ns3:TrackPointExtension>
            <ns3:hr>69</ns3:hr>
            <ns3:cad>50</ns3:cad>
          </ns3:TrackPointExtension>
        </extensions>
      </trkpt>
      <trkpt lat="43.45539520494639873504638671875" lon="1.4465138129889965057373046875">
        <ele>182.399993896484375</ele>
        <time>2026-08-05T06:34:35.000Z</time>
        <extensions>
          <ns3:TrackPointExtension>
            <ns3:hr>69</ns3:hr>
            <ns3:cad>50</ns3:cad>
          </ns3:TrackPointExtension>
        </extensions>
      </trkpt>
      <trkpt lat="43.45538849942386150360107421875" lon="1.44653015770018100738525390625">
        <ele>182.1999969482421875</ele>
        <time>2026-08-05T06:34:36.000Z</time>
        <extensions>
          <ns3:TrackPointExtension>
            <ns3:hr>68</ns3:hr>
            <ns3:cad>50</ns3:cad>
          </ns3:TrackPointExtension>
        </extensions>
      </trkpt>
      <trkpt lat="43.45538279972970485687255859375" lon="1.44654541276395320892333984375">
        <ele>182.1999969482421875</ele>
        <time>2026-08-05T06:34:37.000Z</time>
        <extensions>
          <ns3:TrackPointExtension>
            <ns3:hr>69</ns3:hr>
            <ns3:cad>50</ns3:cad>
          </ns3:TrackPointExtension>
        </extensions>
      </trkpt>
      <trkpt lat="43.45537777058780193328857421875" lon="1.4465553872287273406982421875">
        <ele>182</ele>
        <time>2026-08-05T06:34:38.000Z</time>
        <extensions>
          <ns3:TrackPointExtension>
            <ns3:hr>68</ns3:hr>
            <ns3:cad>50</ns3:cad>
          </ns3:TrackPointExtension>
        </extensions>
      </trkpt>
      <trkpt lat="43.45537282526493072509765625" lon="1.4465651102364063262939453125">
        <ele>182</ele>
        <time>2026-08-05T06:34:39.000Z</time>
        <extensions>
          <ns3:TrackPointExtension>
            <ns3:hr>68</ns3:hr>
            <ns3:cad>50</ns3:cad>
          </ns3:TrackPointExtension>
        </extensions>
      </trkpt>
      <trkpt lat="43.45536720938980579376220703125" lon="1.44658011384308338165283203125">
        <ele>182</ele>
        <time>2026-08-05T06:34:40.000Z</time>
        <extensions>
          <ns3:TrackPointExtension>
            <ns3:hr>68</ns3:hr>
            <ns3:cad>49</ns3:cad>
          </ns3:TrackPointExtension>
        </extensions>
      </trkpt>
      <trkpt lat="43.45536368899047374725341796875" lon="1.446597464382648468017578125">
        <ele>182</ele>
        <time>2026-08-05T06:34:41.000Z</time>
        <extensions>
          <ns3:TrackPointExtension>
            <ns3:hr>68</ns3:hr>
            <ns3:cad>49</ns3:cad>
          </ns3:TrackPointExtension>
        </extensions>
      </trkpt>
      <trkpt lat="43.4553595818579196929931640625" lon="1.44661230035126209259033203125">
        <ele>181.8000030517578125</ele>
        <time>2026-08-05T06:34:42.000Z</time>
        <extensions>
          <ns3:TrackPointExtension>
            <ns3:hr>68</ns3:hr>
            <ns3:cad>50</ns3:cad>
          </ns3:TrackPointExtension>
        </extensions>
      </trkpt>
      <trkpt lat="43.4553525410592555999755859375" lon="1.44662135280668735504150390625">
        <ele>181.8000030517578125</ele>
        <time>2026-08-05T06:34:43.000Z</time>
        <extensions>
          <ns3:TrackPointExtension>
            <ns3:hr>68</ns3:hr>
            <ns3:cad>50</ns3:cad>
          </ns3:TrackPointExtension>
        </extensions>
      </trkpt>
      <trkpt lat="43.45534675754606723785400390625" lon="1.446634344756603240966796875">
        <ele>181.600006103515625</ele>
        <time>2026-08-05T06:34:44.000Z</time>
        <extensions>
          <ns3:TrackPointExtension>
            <ns3:hr>68</ns3:hr>
            <ns3:cad>49</ns3:cad>
          </ns3:TrackPointExtension>
        </extensions>
      </trkpt>
      <trkpt lat="43.4553428180515766143798828125" lon="1.44664616324007511138916015625">
        <ele>181.600006103515625</ele>
        <time>2026-08-05T06:34:45.000Z</time>
        <extensions>
          <ns3:TrackPointExtension>
            <ns3:hr>68</ns3:hr>
            <ns3:cad>47</ns3:cad>
          </ns3:TrackPointExtension>
        </extensions>
      </trkpt>
      <trkpt lat="43.455336950719356536865234375" lon="1.4466593228280544281005859375">
        <ele>181.399993896484375</ele>
        <time>2026-08-05T06:34:46.000Z</time>
        <extensions>
          <ns3:TrackPointExtension>
            <ns3:hr>68</ns3:hr>
            <ns3:cad>47</ns3:cad>
          </ns3:TrackPointExtension>
        </extensions>
      </trkpt>
      <trkpt lat="43.45533083193004131317138671875" lon="1.44666862674057483673095703125">
        <ele>181.399993896484375</ele>
        <time>2026-08-05T06:34:47.000Z</time>
        <extensions>
          <ns3:TrackPointExtension>
            <ns3:hr>67</ns3:hr>
            <ns3:cad>47</ns3:cad>
          </ns3:TrackPointExtension>
        </extensions>
      </trkpt>
      <trkpt lat="43.4553263895213603973388671875" lon="1.446683965623378753662109375">
        <ele>181.399993896484375</ele>
        <time>2026-08-05T06:34:48.000Z</time>
        <extensions>
          <ns3:TrackPointExtension>
            <ns3:hr>68</ns3:hr>
            <ns3:cad>49</ns3:cad>
          </ns3:TrackPointExtension>
        </extensions>
      </trkpt>
      <trkpt lat="43.45532077364623546600341796875" lon="1.446695029735565185546875">
        <ele>181.399993896484375</ele>
        <time>2026-08-05T06:34:49.000Z</time>
        <extensions>
          <ns3:TrackPointExtension>
            <ns3:hr>68</ns3:hr>
            <ns3:cad>49</ns3:cad>
          </ns3:TrackPointExtension>
        </extensions>
      </trkpt>
      <trkpt lat="43.4553158283233642578125" lon="1.446712799370288848876953125">
        <ele>181.1999969482421875</ele>
        <time>2026-08-05T06:34:50.000Z</time>
        <extensions>
          <ns3:TrackPointExtension>
            <ns3:hr>68</ns3:hr>
            <ns3:cad>49</ns3:cad>
          </ns3:TrackPointExtension>
        </extensions>
      </trkpt>
      <trkpt lat="43.4553102962672710418701171875" lon="1.446727216243743896484375">
        <ele>181.1999969482421875</ele>
        <time>2026-08-05T06:34:51.000Z</time>
        <extensions>
          <ns3:TrackPointExtension>
            <ns3:hr>69</ns3:hr>
            <ns3:cad>49</ns3:cad>
          </ns3:TrackPointExtension>
        </extensions>
      </trkpt>
      <trkpt lat="43.455306775867938995361328125" lon="1.446737609803676605224609375">
        <ele>181.1999969482421875</ele>
        <time>2026-08-05T06:34:52.000Z</time>
        <extensions>
          <ns3:TrackPointExtension>
            <ns3:hr>69</ns3:hr>
            <ns3:cad>49</ns3:cad>
          </ns3:TrackPointExtension>
        </extensions>
      </trkpt>
      <trkpt lat="43.45530065707862377166748046875" lon="1.4467513561248779296875">
        <ele>181</ele>
        <time>2026-08-05T06:34:53.000Z</time>
        <extensions>
          <ns3:TrackPointExtension>
            <ns3:hr>70</ns3:hr>
            <ns3:cad>48</ns3:cad>
          </ns3:TrackPointExtension>
        </extensions>
      </trkpt>
      <trkpt lat="43.45529428683221340179443359375" lon="1.44676233641803264617919921875">
        <ele>181</ele>
        <time>2026-08-05T06:34:54.000Z</time>
        <extensions>
          <ns3:TrackPointExtension>
            <ns3:hr>71</ns3:hr>
            <ns3:cad>47</ns3:cad>
          </ns3:TrackPointExtension>
        </extensions>
      </trkpt>
      <trkpt lat="43.45528858713805675506591796875" lon="1.4467741549015045166015625">
        <ele>181</ele>
        <time>2026-08-05T06:34:55.000Z</time>
        <extensions>
          <ns3:TrackPointExtension>
            <ns3:hr>72</ns3:hr>
            <ns3:cad>47</ns3:cad>
          </ns3:TrackPointExtension>
        </extensions>
      </trkpt>
      <trkpt lat="43.45528556965291500091552734375" lon="1.44678421318531036376953125">
        <ele>180.8000030517578125</ele>
        <time>2026-08-05T06:34:56.000Z</time>
        <extensions>
          <ns3:TrackPointExtension>
            <ns3:hr>75</ns3:hr>
            <ns3:cad>47</ns3:cad>
          </ns3:TrackPointExtension>
        </extensions>
      </trkpt>
      <trkpt lat="43.455281294882297515869140625" lon="1.44680089317262172698974609375">
        <ele>180.8000030517578125</ele>
        <time>2026-08-05T06:34:57.000Z</time>
        <extensions>
          <ns3:TrackPointExtension>
            <ns3:hr>77</ns3:hr>
            <ns3:cad>47</ns3:cad>
          </ns3:TrackPointExtension>
        </extensions>
      </trkpt>
      <trkpt lat="43.45528037287294864654541015625" lon="1.446817405521869659423828125">
        <ele>180.600006103515625</ele>
        <time>2026-08-05T06:34:58.000Z</time>
        <extensions>
          <ns3:TrackPointExtension>
            <ns3:hr>77</ns3:hr>
            <ns3:cad>48</ns3:cad>
          </ns3:TrackPointExtension>
        </extensions>
      </trkpt>
      <trkpt lat="43.45527769066393375396728515625" lon="1.44683157093822956085205078125">
        <ele>180.600006103515625</ele>
        <time>2026-08-05T06:34:59.000Z</time>
        <extensions>
          <ns3:TrackPointExtension>
            <ns3:hr>77</ns3:hr>
            <ns3:cad>49</ns3:cad>
          </ns3:TrackPointExtension>
        </extensions>
      </trkpt>
      <trkpt lat="43.45527232624590396881103515625" lon="1.44684297032654285430908203125">
        <ele>180.600006103515625</ele>
        <time>2026-08-05T06:35:00.000Z</time>
        <extensions>
          <ns3:TrackPointExtension>
            <ns3:hr>76</ns3:hr>
            <ns3:cad>50</ns3:cad>
          </ns3:TrackPointExtension>
        </extensions>
      </trkpt>
      <trkpt lat="43.45527132041752338409423828125" lon="1.446852274239063262939453125">
        <ele>180.399993896484375</ele>
        <time>2026-08-05T06:35:01.000Z</time>
        <extensions>
          <ns3:TrackPointExtension>
            <ns3:hr>76</ns3:hr>
            <ns3:cad>51</ns3:cad>
          </ns3:TrackPointExtension>
        </extensions>
      </trkpt>
      <trkpt lat="43.4552710689604282379150390625" lon="1.44686711020767688751220703125">
        <ele>180.399993896484375</ele>
        <time>2026-08-05T06:35:02.000Z</time>
        <extensions>
          <ns3:TrackPointExtension>
            <ns3:hr>75</ns3:hr>
            <ns3:cad>51</ns3:cad>
          </ns3:TrackPointExtension>
        </extensions>
      </trkpt>
      <trkpt lat="43.45527048222720623016357421875" lon="1.44688387401401996612548828125">
        <ele>180.399993896484375</ele>
        <time>2026-08-05T06:35:03.000Z</time>
        <extensions>
          <ns3:TrackPointExtension>
            <ns3:hr>75</ns3:hr>
            <ns3:cad>52</ns3:cad>
          </ns3:TrackPointExtension>
        </extensions>
      </trkpt>
      <trkpt lat="43.45527081750333309173583984375" lon="1.4468987099826335906982421875">
        <ele>180.399993896484375</ele>
        <time>2026-08-05T06:35:04.000Z</time>
        <extensions>
          <ns3:TrackPointExtension>
            <ns3:hr>75</ns3:hr>
            <ns3:cad>52</ns3:cad>
          </ns3:TrackPointExtension>
        </extensions>
      </trkpt>
      <trkpt lat="43.45526763238012790679931640625" lon="1.44691052846610546112060546875">
        <ele>180.1999969482421875</ele>
        <time>2026-08-05T06:35:05.000Z</time>
        <extensions>
          <ns3:TrackPointExtension>
            <ns3:hr>75</ns3:hr>
            <ns3:cad>50</ns3:cad>
          </ns3:TrackPointExtension>
        </extensions>
      </trkpt>
      <trkpt lat="43.455265872180461883544921875" lon="1.44692159257829189300537109375">
        <ele>180.1999969482421875</ele>
        <time>2026-08-05T06:35:06.000Z</time>
        <extensions>
          <ns3:TrackPointExtension>
            <ns3:hr>75</ns3:hr>
            <ns3:cad>49</ns3:cad>
          </ns3:TrackPointExtension>
        </extensions>
      </trkpt>
      <trkpt lat="43.4552646987140178680419921875" lon="1.44693802110850811004638671875">
        <ele>180</ele>
        <time>2026-08-05T06:35:07.000Z</time>
        <extensions>
          <ns3:TrackPointExtension>
            <ns3:hr>74</ns3:hr>
            <ns3:cad>47</ns3:cad>
          </ns3:TrackPointExtension>
        </extensions>
      </trkpt>
      <trkpt lat="43.45526293851435184478759765625" lon="1.4469530247151851654052734375">
        <ele>180</ele>
        <time>2026-08-05T06:35:08.000Z</time>
        <extensions>
          <ns3:TrackPointExtension>
            <ns3:hr>75</ns3:hr>
            <ns3:cad>47</ns3:cad>
          </ns3:TrackPointExtension>
        </extensions>
      </trkpt>
      <trkpt lat="43.45526226796209812164306640625" lon="1.4469650946557521820068359375">
        <ele>179.8000030517578125</ele>
        <time>2026-08-05T06:35:09.000Z</time>
        <extensions>
          <ns3:TrackPointExtension>
            <ns3:hr>75</ns3:hr>
            <ns3:cad>48</ns3:cad>
          </ns3:TrackPointExtension>
        </extensions>
      </trkpt>
      <trkpt lat="43.45525941811501979827880859375" lon="1.44698009826242923736572265625">
        <ele>179.8000030517578125</ele>
        <time>2026-08-05T06:35:10.000Z</time>
        <extensions>
          <ns3:TrackPointExtension>
            <ns3:hr>75</ns3:hr>
            <ns3:cad>48</ns3:cad>
          </ns3:TrackPointExtension>
        </extensions>
      </trkpt>
      <trkpt lat="43.45525573007762432098388671875" lon="1.4469912461936473846435546875">
        <ele>179.8000030517578125</ele>
        <time>2026-08-05T06:35:11.000Z</time>
        <extensions>
          <ns3:TrackPointExtension>
            <ns3:hr>75</ns3:hr>
            <ns3:cad>48</ns3:cad>
          </ns3:TrackPointExtension>
        </extensions>
      </trkpt>
      <trkpt lat="43.45525472424924373626708984375" lon="1.44700390286743640899658203125">
        <ele>179.600006103515625</ele>
        <time>2026-08-05T06:35:12.000Z</time>
        <extensions>
          <ns3:TrackPointExtension>
            <ns3:hr>75</ns3:hr>
            <ns3:cad>48</ns3:cad>
          </ns3:TrackPointExtension>
        </extensions>
      </trkpt>
      <trkpt lat="43.455254137516021728515625" lon="1.44701890647411346435546875">
        <ele>179.600006103515625</ele>
        <time>2026-08-05T06:35:13.000Z</time>
        <extensions>
          <ns3:TrackPointExtension>
            <ns3:hr>75</ns3:hr>
            <ns3:cad>48</ns3:cad>
          </ns3:TrackPointExtension>
        </extensions>
      </trkpt>
      <trkpt lat="43.455251790583133697509765625" lon="1.4470344968140125274658203125">
        <ele>179.399993896484375</ele>
        <time>2026-08-05T06:35:14.000Z</time>
        <extensions>
          <ns3:TrackPointExtension>
            <ns3:hr>75</ns3:hr>
            <ns3:cad>48</ns3:cad>
          </ns3:TrackPointExtension>
        </extensions>
      </trkpt>
      <trkpt lat="43.4552522934973239898681640625" lon="1.44705017097294330596923828125">
        <ele>179.1999969482421875</ele>
        <time>2026-08-05T06:35:15.000Z</time>
        <extensions>
          <ns3:TrackPointExtension>
            <ns3:hr>75</ns3:hr>
            <ns3:cad>48</ns3:cad>
          </ns3:TrackPointExtension>
        </extensions>
      </trkpt>
      <trkpt lat="43.4552526287734508514404296875" lon="1.447059810161590576171875">
        <ele>179.1999969482421875</ele>
        <time>2026-08-05T06:35:16.000Z</time>
        <extensions>
          <ns3:TrackPointExtension>
            <ns3:hr>74</ns3:hr>
            <ns3:cad>49</ns3:cad>
          </ns3:TrackPointExtension>
        </extensions>
      </trkpt>
      <trkpt lat="43.4552526287734508514404296875" lon="1.4470713771879673004150390625">
        <ele>179</ele>
        <time>2026-08-05T06:35:17.000Z</time>
        <extensions>
          <ns3:TrackPointExtension>
            <ns3:hr>74</ns3:hr>
            <ns3:cad>49</ns3:cad>
          </ns3:TrackPointExtension>
        </extensions>
      </trkpt>
      <trkpt lat="43.4552519582211971282958984375" lon="1.4470861293375492095947265625">
        <ele>179</ele>
        <time>2026-08-05T06:35:18.000Z</time>
        <extensions>
          <ns3:TrackPointExtension>
            <ns3:hr>74</ns3:hr>
            <ns3:cad>50</ns3:cad>
          </ns3:TrackPointExtension>
        </extensions>
      </trkpt>
      <trkpt lat="43.455249108374118804931640625" lon="1.44709928892552852630615234375">
        <ele>178.8000030517578125</ele>
        <time>2026-08-05T06:35:19.000Z</time>
        <extensions>
          <ns3:TrackPointExtension>
            <ns3:hr>74</ns3:hr>
            <ns3:cad>50</ns3:cad>
          </ns3:TrackPointExtension>
        </extensions>
      </trkpt>
      <trkpt lat="43.45524634234607219696044921875" lon="1.44711253233253955841064453125">
        <ele>178.8000030517578125</ele>
        <time>2026-08-05T06:35:20.000Z</time>
        <extensions>
          <ns3:TrackPointExtension>
            <ns3:hr>73</ns3:hr>
            <ns3:cad>51</ns3:cad>
          </ns3:TrackPointExtension>
        </extensions>
      </trkpt>
      <trkpt lat="43.4552465938031673431396484375" lon="1.44712912850081920623779296875">
        <ele>178.600006103515625</ele>
        <time>2026-08-05T06:35:21.000Z</time>
        <extensions>
          <ns3:TrackPointExtension>
            <ns3:hr>73</ns3:hr>
            <ns3:cad>51</ns3:cad>
          </ns3:TrackPointExtension>
        </extensions>
      </trkpt>
      <trkpt lat="43.4552462585270404815673828125" lon="1.4471417851746082305908203125">
        <ele>178.399993896484375</ele>
        <time>2026-08-05T06:35:22.000Z</time>
        <extensions>
          <ns3:TrackPointExtension>
            <ns3:hr>73</ns3:hr>
            <ns3:cad>51</ns3:cad>
          </ns3:TrackPointExtension>
        </extensions>
      </trkpt>
      <trkpt lat="43.45524349249899387359619140625" lon="1.44715393893420696258544921875">
        <ele>178.399993896484375</ele>
        <time>2026-08-05T06:35:23.000Z</time>
        <extensions>
          <ns3:TrackPointExtension>
            <ns3:hr>73</ns3:hr>
            <ns3:cad>51</ns3:cad>
          </ns3:TrackPointExtension>
        </extensions>
      </trkpt>
      <trkpt lat="43.455241061747074127197265625" lon="1.44716734997928142547607421875">
        <ele>178.399993896484375</ele>
        <time>2026-08-05T06:35:24.000Z</time>
        <extensions>
          <ns3:TrackPointExtension>
            <ns3:hr>73</ns3:hr>
            <ns3:cad>50</ns3:cad>
          </ns3:TrackPointExtension>
        </extensions>
      </trkpt>
      <trkpt lat="43.45523896627128124237060546875" lon="1.44718118011951446533203125">
        <ele>178.1999969482421875</ele>
        <time>2026-08-05T06:35:25.000Z</time>
        <extensions>
          <ns3:TrackPointExtension>
            <ns3:hr>74</ns3:hr>
            <ns3:cad>50</ns3:cad>
          </ns3:TrackPointExtension>
        </extensions>
      </trkpt>
      <trkpt lat="43.455236367881298065185546875" lon="1.44719668664038181304931640625">
        <ele>178.1999969482421875</ele>
        <time>2026-08-05T06:35:26.000Z</time>
        <extensions>
          <ns3:TrackPointExtension>
            <ns3:hr>74</ns3:hr>
            <ns3:cad>50</ns3:cad>
          </ns3:TrackPointExtension>
        </extensions>
      </trkpt>
      <trkpt lat="43.45523611642420291900634765625" lon="1.44721177406609058380126953125">
        <ele>178</ele>
        <time>2026-08-05T06:35:27.000Z</time>
        <extensions>
          <ns3:TrackPointExtension>
            <ns3:hr>74</ns3:hr>
            <ns3:cad>50</ns3:cad>
          </ns3:TrackPointExtension>
        </extensions>
      </trkpt>
      <trkpt lat="43.45523611642420291900634765625" lon="1.44722401164472103118896484375">
        <ele>178</ele>
        <time>2026-08-05T06:35:28.000Z</time>
        <extensions>
          <ns3:TrackPointExtension>
            <ns3:hr>74</ns3:hr>
            <ns3:cad>49</ns3:cad>
          </ns3:TrackPointExtension>
        </extensions>
      </trkpt>
      <trkpt lat="43.45523276366293430328369140625" lon="1.4472354948520660400390625">
        <ele>177.8000030517578125</ele>
        <time>2026-08-05T06:35:29.000Z</time>
        <extensions>
          <ns3:TrackPointExtension>
            <ns3:hr>74</ns3:hr>
            <ns3:cad>48</ns3:cad>
          </ns3:TrackPointExtension>
        </extensions>
      </trkpt>
      <trkpt lat="43.45523075200617313385009765625" lon="1.44725049845874309539794921875">
        <ele>177.8000030517578125</ele>
        <time>2026-08-05T06:35:30.000Z</time>
        <extensions>
          <ns3:TrackPointExtension>
            <ns3:hr>74</ns3:hr>
            <ns3:cad>48</ns3:cad>
          </ns3:TrackPointExtension>
        </extensions>
      </trkpt>
      <trkpt lat="43.45522924326360225677490234375" lon="1.4472661726176738739013671875">
        <ele>177.8000030517578125</ele>
        <time>2026-08-05T06:35:31.000Z</time>
        <extensions>
          <ns3:TrackPointExtension>
            <ns3:hr>74</ns3:hr>
            <ns3:cad>49</ns3:cad>
          </ns3:TrackPointExtension>
        </extensions>
      </trkpt>
      <trkpt lat="43.45522798597812652587890625" lon="1.4472802542150020599365234375">
        <ele>177.8000030517578125</ele>
        <time>2026-08-05T06:35:32.000Z</time>
        <extensions>
          <ns3:TrackPointExtension>
            <ns3:hr>74</ns3:hr>
            <ns3:cad>51</ns3:cad>
          </ns3:TrackPointExtension>
        </extensions>
      </trkpt>
      <trkpt lat="43.45522530376911163330078125" lon="1.44729358144104480743408203125">
        <ele>177.600006103515625</ele>
        <time>2026-08-05T06:35:33.000Z</time>
        <extensions>
          <ns3:TrackPointExtension>
            <ns3:hr>74</ns3:hr>
            <ns3:cad>51</ns3:cad>
          </ns3:TrackPointExtension>
        </extensions>
      </trkpt>
      <trkpt lat="43.45522253774106502532958984375" lon="1.44730665720999240875244140625">
        <ele>177.600006103515625</ele>
        <time>2026-08-05T06:35:34.000Z</time>
        <extensions>
          <ns3:TrackPointExtension>
            <ns3:hr>73</ns3:hr>
            <ns3:cad>51</ns3:cad>
          </ns3:TrackPointExtension>
        </extensions>
      </trkpt>
      <trkpt lat="43.455219268798828125" lon="1.4473198167979717254638671875">
        <ele>177.600006103515625</ele>
        <time>2026-08-05T06:35:35.000Z</time>
        <extensions>
          <ns3:TrackPointExtension>
            <ns3:hr>73</ns3:hr>
            <ns3:cad>49</ns3:cad>
          </ns3:TrackPointExtension>
        </extensions>
      </trkpt>
      <trkpt lat="43.4552152454853057861328125" lon="1.44733968190848827362060546875">
        <ele>177.600006103515625</ele>
        <time>2026-08-05T06:35:36.000Z</time>
        <extensions>
          <ns3:TrackPointExtension>
            <ns3:hr>73</ns3:hr>
            <ns3:cad>49</ns3:cad>
          </ns3:TrackPointExtension>
        </extensions>
      </trkpt>
      <trkpt lat="43.45521189272403717041015625" lon="1.44735015928745269775390625">
        <ele>177.600006103515625</ele>
        <time>2026-08-05T06:35:37.000Z</time>
        <extensions>
          <ns3:TrackPointExtension>
            <ns3:hr>73</ns3:hr>
            <ns3:cad>49</ns3:cad>
          </ns3:TrackPointExtension>
        </extensions>
      </trkpt>
      <trkpt lat="43.45520962961018085479736328125" lon="1.44736315123736858367919921875">
        <ele>177.600006103515625</ele>
        <time>2026-08-05T06:35:38.000Z</time>
        <extensions>
          <ns3:TrackPointExtension>
            <ns3:hr>72</ns3:hr>
            <ns3:cad>48</ns3:cad>
          </ns3:TrackPointExtension>
        </extensions>
      </trkpt>
      <trkpt lat="43.45520560629665851593017578125" lon="1.44737672992050647735595703125">
        <ele>177.600006103515625</ele>
        <time>2026-08-05T06:35:39.000Z</time>
        <extensions>
          <ns3:TrackPointExtension>
            <ns3:hr>70</ns3:hr>
            <ns3:cad>47</ns3:cad>
          </ns3:TrackPointExtension>
        </extensions>
      </trkpt>
      <trkpt lat="43.45520426519215106964111328125" lon="1.4473932422697544097900390625">
        <ele>177.600006103515625</ele>
        <time>2026-08-05T06:35:40.000Z</time>
        <extensions>
          <ns3:TrackPointExtension>
            <ns3:hr>69</ns3:hr>
            <ns3:cad>47</ns3:cad>
          </ns3:TrackPointExtension>
        </extensions>
      </trkpt>
      <trkpt lat="43.4552033431828022003173828125" lon="1.44740405492484569549560546875">
        <ele>177.600006103515625</ele>
        <time>2026-08-05T06:35:41.000Z</time>
        <extensions>
          <ns3:TrackPointExtension>
            <ns3:hr>67</ns3:hr>
            <ns3:cad>49</ns3:cad>
          </ns3:TrackPointExtension>
        </extensions>
      </trkpt>
      <trkpt lat="43.45520007424056529998779296875" lon="1.447416208684444427490234375">
        <ele>177.600006103515625</ele>
        <time>2026-08-05T06:35:42.000Z</time>
        <extensions>
          <ns3:TrackPointExtension>
            <ns3:hr>67</ns3:hr>
            <ns3:cad>49</ns3:cad>
          </ns3:TrackPointExtension>
        </extensions>
      </trkpt>
      <trkpt lat="43.45519722439348697662353515625" lon="1.44742836244404315948486328125">
        <ele>177.8000030517578125</ele>
        <time>2026-08-05T06:35:43.000Z</time>
        <extensions>
          <ns3:TrackPointExtension>
            <ns3:hr>65</ns3:hr>
            <ns3:cad>48</ns3:cad>
          </ns3:TrackPointExtension>
        </extensions>
      </trkpt>
      <trkpt lat="43.4551936201751232147216796875" lon="1.44744579680263996124267578125">
        <ele>177.8000030517578125</ele>
        <time>2026-08-05T06:35:44.000Z</time>
        <extensions>
          <ns3:TrackPointExtension>
            <ns3:hr>63</ns3:hr>
            <ns3:cad>48</ns3:cad>
          </ns3:TrackPointExtension>
        </extensions>
      </trkpt>
      <trkpt lat="43.4551911056041717529296875" lon="1.44745887257158756256103515625">
        <ele>178</ele>
        <time>2026-08-05T06:35:45.000Z</time>
        <extensions>
          <ns3:TrackPointExtension>
            <ns3:hr>63</ns3:hr>
            <ns3:cad>48</ns3:cad>
          </ns3:TrackPointExtension>
        </extensions>
      </trkpt>
      <trkpt lat="43.455188758671283721923828125" lon="1.4474723674356937408447265625">
        <ele>178</ele>
        <time>2026-08-05T06:35:46.000Z</time>
        <extensions>
          <ns3:TrackPointExtension>
            <ns3:hr>63</ns3:hr>
            <ns3:cad>47</ns3:cad>
          </ns3:TrackPointExtension>
        </extensions>
      </trkpt>
      <trkpt lat="43.45518817193806171417236328125" lon="1.447489298880100250244140625">
        <ele>178.1999969482421875</ele>
        <time>2026-08-05T06:35:47.000Z</time>
        <extensions>
          <ns3:TrackPointExtension>
            <ns3:hr>62</ns3:hr>
            <ns3:cad>46</ns3:cad>
          </ns3:TrackPointExtension>
        </extensions>
      </trkpt>
      <trkpt lat="43.45518750138580799102783203125" lon="1.4475052244961261749267578125">
        <ele>178.399993896484375</ele>
        <time>2026-08-05T06:35:48.000Z</time>
        <extensions>
          <ns3:TrackPointExtension>
            <ns3:hr>62</ns3:hr>
            <ns3:cad>46</ns3:cad>
          </ns3:TrackPointExtension>
        </extensions>
      </trkpt>
      <trkpt lat="43.455188088119029998779296875" lon="1.44751503132283687591552734375">
        <ele>178.399993896484375</ele>
        <time>2026-08-05T06:35:49.000Z</time>
        <extensions>
          <ns3:TrackPointExtension>
            <ns3:hr>62</ns3:hr>
            <ns3:cad>44</ns3:cad>
          </ns3:TrackPointExtension>
        </extensions>
      </trkpt>
      <trkpt lat="43.45518884249031543731689453125" lon="1.44752592779695987701416015625">
        <ele>178.600006103515625</ele>
        <time>2026-08-05T06:35:50.000Z</time>
        <extensions>
          <ns3:TrackPointExtension>
            <ns3:hr>62</ns3:hr>
            <ns3:cad>44</ns3:cad>
          </ns3:TrackPointExtension>
        </extensions>
      </trkpt>
      <trkpt lat="43.455186076462268829345703125" lon="1.44754319451749324798583984375">
        <ele>178.600006103515625</ele>
        <time>2026-08-05T06:35:51.000Z</time>
        <extensions>
          <ns3:TrackPointExtension>
            <ns3:hr>62</ns3:hr>
            <ns3:cad>44</ns3:cad>
          </ns3:TrackPointExtension>
        </extensions>
      </trkpt>
      <trkpt lat="43.4551842324435710906982421875" lon="1.44755777902901172637939453125">
        <ele>178.600006103515625</ele>
        <time>2026-08-05T06:35:52.000Z</time>
        <extensions>
          <ns3:TrackPointExtension>
            <ns3:hr>62</ns3:hr>
            <ns3:cad>44</ns3:cad>
          </ns3:TrackPointExtension>
        </extensions>
      </trkpt>
      <trkpt lat="43.4551815502345561981201171875" lon="1.4475667476654052734375">
        <ele>178.8000030517578125</ele>
        <time>2026-08-05T06:35:53.000Z</time>
        <extensions>
          <ns3:TrackPointExtension>
            <ns3:hr>62</ns3:hr>
            <ns3:cad>44</ns3:cad>
          </ns3:TrackPointExtension>
        </extensions>
      </trkpt>
      <trkpt lat="43.45517744310200214385986328125" lon="1.447574794292449951171875">
        <ele>179</ele>
        <time>2026-08-05T06:35:54.000Z</time>
        <extensions>
          <ns3:TrackPointExtension>
            <ns3:hr>62</ns3:hr>
            <ns3:cad>44</ns3:cad>
          </ns3:TrackPointExtension>
        </extensions>
      </trkpt>
      <trkpt lat="43.45517492853105068206787109375" lon="1.44758887588977813720703125">
        <ele>179</ele>
        <time>2026-08-05T06:35:55.000Z</time>
        <extensions>
          <ns3:TrackPointExtension>
            <ns3:hr>63</ns3:hr>
            <ns3:cad>44</ns3:cad>
          </ns3:TrackPointExtension>
        </extensions>
      </trkpt>
      <trkpt lat="43.45517442561686038970947265625" lon="1.44760371185839176177978515625">
        <ele>179.1999969482421875</ele>
        <time>2026-08-05T06:35:56.000Z</time>
        <extensions>
          <ns3:TrackPointExtension>
            <ns3:hr>63</ns3:hr>
            <ns3:cad>46</ns3:cad>
          </ns3:TrackPointExtension>
        </extensions>
      </trkpt>
      <trkpt lat="43.45517241396009922027587890625" lon="1.44761444069445133209228515625">
        <ele>179.1999969482421875</ele>
        <time>2026-08-05T06:35:57.000Z</time>
        <extensions>
          <ns3:TrackPointExtension>
            <ns3:hr>64</ns3:hr>
            <ns3:cad>46</ns3:cad>
          </ns3:TrackPointExtension>
        </extensions>
      </trkpt>
      <trkpt lat="43.455171324312686920166015625" lon="1.44762366078794002532958984375">
        <ele>179.399993896484375</ele>
        <time>2026-08-05T06:35:58.000Z</time>
        <extensions>
          <ns3:TrackPointExtension>
            <ns3:hr>64</ns3:hr>
            <ns3:cad>46</ns3:cad>
          </ns3:TrackPointExtension>
        </extensions>
      </trkpt>
      <trkpt lat="43.45516855828464031219482421875" lon="1.44763824529945850372314453125">
        <ele>179.399993896484375</ele>
        <time>2026-08-05T06:35:59.000Z</time>
        <extensions>
          <ns3:TrackPointExtension>
            <ns3:hr>65</ns3:hr>
            <ns3:cad>45</ns3:cad>
          </ns3:TrackPointExtension>
        </extensions>
      </trkpt>
      <trkpt lat="43.455167300999164581298828125" lon="1.44764997996389865875244140625">
        <ele>179.600006103515625</ele>
        <time>2026-08-05T06:36:00.000Z</time>
        <extensions>
          <ns3:TrackPointExtension>
            <ns3:hr>65</ns3:hr>
            <ns3:cad>44</ns3:cad>
          </ns3:TrackPointExtension>
        </extensions>
      </trkpt>
      <trkpt lat="43.45516554079949855804443359375" lon="1.447657607495784759521484375">
        <ele>179.8000030517578125</ele>
        <time>2026-08-05T06:36:01.000Z</time>
        <extensions>
          <ns3:TrackPointExtension>
            <ns3:hr>66</ns3:hr>
            <ns3:cad>44</ns3:cad>
          </ns3:TrackPointExtension>
        </extensions>
      </trkpt>
      <trkpt lat="43.4551624394953250885009765625" lon="1.44766867160797119140625">
        <ele>179.8000030517578125</ele>
        <time>2026-08-05T06:36:02.000Z</time>
        <extensions>
          <ns3:TrackPointExtension>
            <ns3:hr>66</ns3:hr>
            <ns3:cad>43</ns3:cad>
          </ns3:TrackPointExtension>
        </extensions>
      </trkpt>
      <trkpt lat="43.45516227185726165771484375" lon="1.44768283702433109283447265625">
        <ele>180</ele>
        <time>2026-08-05T06:36:03.000Z</time>
        <extensions>
          <ns3:TrackPointExtension>
            <ns3:hr>67</ns3:hr>
            <ns3:cad>43</ns3:cad>
          </ns3:TrackPointExtension>
        </extensions>
      </trkpt>
      <trkpt lat="43.45515984110534191131591796875" lon="1.44769993610680103302001953125">
        <ele>180.1999969482421875</ele>
        <time>2026-08-05T06:36:04.000Z</time>
        <extensions>
          <ns3:TrackPointExtension>
            <ns3:hr>68</ns3:hr>
            <ns3:cad>43</ns3:cad>
          </ns3:TrackPointExtension>
        </extensions>
      </trkpt>
      <trkpt lat="43.455160595476627349853515625" lon="1.447708904743194580078125">
        <ele>180.1999969482421875</ele>
        <time>2026-08-05T06:36:05.000Z</time>
        <extensions>
          <ns3:TrackPointExtension>
            <ns3:hr>68</ns3:hr>
            <ns3:cad>43</ns3:cad>
          </ns3:TrackPointExtension>
        </extensions>
      </trkpt>
      <trkpt lat="43.45516034401953220367431640625" lon="1.44771552644670009613037109375">
        <ele>180.399993896484375</ele>
        <time>2026-08-05T06:36:06.000Z</time>
        <extensions>
          <ns3:TrackPointExtension>
            <ns3:hr>69</ns3:hr>
            <ns3:cad>43</ns3:cad>
          </ns3:TrackPointExtension>
        </extensions>
      </trkpt>
      <trkpt lat="43.45515850000083446502685546875" lon="1.4477312006056308746337890625">
        <ele>180.600006103515625</ele>
        <time>2026-08-05T06:36:07.000Z</time>
        <extensions>
          <ns3:TrackPointExtension>
            <ns3:hr>70</ns3:hr>
            <ns3:cad>44</ns3:cad>
          </ns3:TrackPointExtension>
        </extensions>
      </trkpt>
      <trkpt lat="43.45516369678080081939697265625" lon="1.44772927276790142059326171875">
        <ele>180.8000030517578125</ele>
        <time>2026-08-05T06:36:08.000Z</time>
        <extensions>
          <ns3:TrackPointExtension>
            <ns3:hr>70</ns3:hr>
            <ns3:cad>44</ns3:cad>
          </ns3:TrackPointExtension>
        </extensions>
      </trkpt>
      <trkpt lat="43.45516361296176910400390625" lon="1.44773849286139011383056640625">
        <ele>181</ele>
        <time>2026-08-05T06:36:09.000Z</time>
        <extensions>
          <ns3:TrackPointExtension>
            <ns3:hr>71</ns3:hr>
            <ns3:cad>46</ns3:cad>
          </ns3:TrackPointExtension>
        </extensions>
      </trkpt>
      <trkpt lat="43.4551624394953250885009765625" lon="1.44775341264903545379638671875">
        <ele>181</ele>
        <time>2026-08-05T06:36:10.000Z</time>
        <extensions>
          <ns3:TrackPointExtension>
            <ns3:hr>72</ns3:hr>
            <ns3:cad>44</ns3:cad>
          </ns3:TrackPointExtension>
        </extensions>
      </trkpt>
      <trkpt lat="43.455159924924373626708984375" lon="1.44776590168476104736328125">
        <ele>181.1999969482421875</ele>
        <time>2026-08-05T06:36:11.000Z</time>
        <extensions>
          <ns3:TrackPointExtension>
            <ns3:hr>72</ns3:hr>
            <ns3:cad>44</ns3:cad>
          </ns3:TrackPointExtension>
        </extensions>
      </trkpt>
      <trkpt lat="43.45515933819115161895751953125" lon="1.44777595996856689453125">
        <ele>181.399993896484375</ele>
        <time>2026-08-05T06:36:12.000Z</time>
        <extensions>
          <ns3:TrackPointExtension>
            <ns3:hr>73</ns3:hr>
            <ns3:cad>43</ns3:cad>
          </ns3:TrackPointExtension>
        </extensions>
      </trkpt>
      <trkpt lat="43.45515833236277103424072265625" lon="1.44778962247073650360107421875">
        <ele>181.600006103515625</ele>
        <time>2026-08-05T06:36:13.000Z</time>
        <extensions>
          <ns3:TrackPointExtension>
            <ns3:hr>73</ns3:hr>
            <ns3:cad>43</ns3:cad>
          </ns3:TrackPointExtension>
        </extensions>
      </trkpt>
      <trkpt lat="43.45515531487762928009033203125" lon="1.4478029496967792510986328125">
        <ele>181.600006103515625</ele>
        <time>2026-08-05T06:36:14.000Z</time>
        <extensions>
          <ns3:TrackPointExtension>
            <ns3:hr>74</ns3:hr>
            <ns3:cad>43</ns3:cad>
          </ns3:TrackPointExtension>
        </extensions>
      </trkpt>
      <trkpt lat="43.45515330322086811065673828125" lon="1.4478130079805850982666015625">
        <ele>181.8000030517578125</ele>
        <time>2026-08-05T06:36:15.000Z</time>
        <extensions>
          <ns3:TrackPointExtension>
            <ns3:hr>74</ns3:hr>
            <ns3:cad>43</ns3:cad>
          </ns3:TrackPointExtension>
        </extensions>
      </trkpt>
      <trkpt lat="43.45515011809766292572021484375" lon="1.4478255808353424072265625">
        <ele>182</ele>
        <time>2026-08-05T06:36:16.000Z</time>
        <extensions>
          <ns3:TrackPointExtension>
            <ns3:hr>75</ns3:hr>
            <ns3:cad>42</ns3:cad>
          </ns3:TrackPointExtension>
        </extensions>
      </trkpt>
      <trkpt lat="43.45514425076544284820556640625" lon="1.4478421770036220550537109375">
        <ele>182</ele>
        <time>2026-08-05T06:36:17.000Z</time>
        <extensions>
          <ns3:TrackPointExtension>
            <ns3:hr>75</ns3:hr>
            <ns3:cad>43</ns3:cad>
          </ns3:TrackPointExtension>
        </extensions>
      </trkpt>
      <trkpt lat="43.4551426582038402557373046875" lon="1.4478539116680622100830078125">
        <ele>182</ele>
        <time>2026-08-05T06:36:18.000Z</time>
        <extensions>
          <ns3:TrackPointExtension>
            <ns3:hr>76</ns3:hr>
            <ns3:cad>43</ns3:cad>
          </ns3:TrackPointExtension>
        </extensions>
      </trkpt>
      <trkpt lat="43.4551401436328887939453125" lon="1.44786355085670948028564453125">
        <ele>182.1999969482421875</ele>
        <time>2026-08-05T06:36:19.000Z</time>
        <extensions>
          <ns3:TrackPointExtension>
            <ns3:hr>76</ns3:hr>
            <ns3:cad>43</ns3:cad>
          </ns3:TrackPointExtension>
        </extensions>
      </trkpt>
      <trkpt lat="43.45513788051903247833251953125" lon="1.447878219187259674072265625">
        <ele>182.399993896484375</ele>
        <time>2026-08-05T06:36:20.000Z</time>
        <extensions>
          <ns3:TrackPointExtension>
            <ns3:hr>76</ns3:hr>
            <ns3:cad>43</ns3:cad>
          </ns3:TrackPointExtension>
        </extensions>
      </trkpt>
      <trkpt lat="43.45513687469065189361572265625" lon="1.4478897862136363983154296875">
        <ele>182.399993896484375</ele>
        <time>2026-08-05T06:36:21.000Z</time>
        <extensions>
          <ns3:TrackPointExtension>
            <ns3:hr>76</ns3:hr>
            <ns3:cad>42</ns3:cad>
          </ns3:TrackPointExtension>
        </extensions>
      </trkpt>
      <trkpt lat="43.45513620413839817047119140625" lon="1.447898335754871368408203125">
        <ele>182.600006103515625</ele>
        <time>2026-08-05T06:36:22.000Z</time>
        <extensions>
          <ns3:TrackPointExtension>
            <ns3:hr>76</ns3:hr>
            <ns3:cad>41</ns3:cad>
          </ns3:TrackPointExtension>
        </extensions>
      </trkpt>
      <trkpt lat="43.45513813197612762451171875" lon="1.44790847785770893096923828125">
        <ele>182.8000030517578125</ele>
        <time>2026-08-05T06:36:23.000Z</time>
        <extensions>
          <ns3:TrackPointExtension>
            <ns3:hr>76</ns3:hr>
            <ns3:cad>41</ns3:cad>
          </ns3:TrackPointExtension>
        </extensions>
      </trkpt>
      <trkpt lat="43.45513938926160335540771484375" lon="1.4479233138263225555419921875">
        <ele>182.8000030517578125</ele>
        <time>2026-08-05T06:36:24.000Z</time>
        <extensions>
          <ns3:TrackPointExtension>
            <ns3:hr>77</ns3:hr>
            <ns3:cad>42</ns3:cad>
          </ns3:TrackPointExtension>
        </extensions>
      </trkpt>
      <trkpt lat="43.455137126147747039794921875" lon="1.44793488085269927978515625">
        <ele>183</ele>
        <time>2026-08-05T06:36:25.000Z</time>
        <extensions>
          <ns3:TrackPointExtension>
            <ns3:hr>77</ns3:hr>
            <ns3:cad>43</ns3:cad>
          </ns3:TrackPointExtension>
        </extensions>
      </trkpt>
      <trkpt lat="43.45514005981385707855224609375" lon="1.44794066436588764190673828125">
        <ele>183</ele>
        <time>2026-08-05T06:36:26.000Z</time>
        <extensions>
          <ns3:TrackPointExtension>
            <ns3:hr>77</ns3:hr>
            <ns3:cad>43</ns3:cad>
          </ns3:TrackPointExtension>
        </extensions>
      </trkpt>
      <trkpt lat="43.45513436011970043182373046875" lon="1.4479570090770721435546875">
        <ele>183.1999969482421875</ele>
        <time>2026-08-05T06:36:27.000Z</time>
        <extensions>
          <ns3:TrackPointExtension>
            <ns3:hr>78</ns3:hr>
            <ns3:cad>43</ns3:cad>
          </ns3:TrackPointExtension>
        </extensions>
      </trkpt>
      <trkpt lat="43.45513519831001758575439453125" lon="1.44797100685536861419677734375">
        <ele>183.399993896484375</ele>
        <time>2026-08-05T06:36:28.000Z</time>
        <extensions>
          <ns3:TrackPointExtension>
            <ns3:hr>78</ns3:hr>
            <ns3:cad>42</ns3:cad>
          </ns3:TrackPointExtension>
        </extensions>
      </trkpt>
      <trkpt lat="43.4551356174051761627197265625" lon="1.44798181951045989990234375">
        <ele>183.399993896484375</ele>
        <time>2026-08-05T06:36:29.000Z</time>
        <extensions>
          <ns3:TrackPointExtension>
            <ns3:hr>79</ns3:hr>
            <ns3:cad>42</ns3:cad>
          </ns3:TrackPointExtension>
        </extensions>
      </trkpt>
      <trkpt lat="43.4551342763006687164306640625" lon="1.4479923807084560394287109375">
        <ele>183.600006103515625</ele>
        <time>2026-08-05T06:36:30.000Z</time>
        <extensions>
          <ns3:TrackPointExtension>
            <ns3:hr>79</ns3:hr>
            <ns3:cad>43</ns3:cad>
          </ns3:TrackPointExtension>
        </extensions>
      </trkpt>
      <trkpt lat="43.45513402484357357025146484375" lon="1.447999589145183563232421875">
        <ele>183.8000030517578125</ele>
        <time>2026-08-05T06:36:31.000Z</time>
        <extensions>
          <ns3:TrackPointExtension>
            <ns3:hr>79</ns3:hr>
            <ns3:cad>43</ns3:cad>
          </ns3:TrackPointExtension>
        </extensions>
      </trkpt>
      <trkpt lat="43.4551319293677806854248046875" lon="1.44800662994384765625">
        <ele>183.8000030517578125</ele>
        <time>2026-08-05T06:36:32.000Z</time>
        <extensions>
          <ns3:TrackPointExtension>
            <ns3:hr>80</ns3:hr>
            <ns3:cad>42</ns3:cad>
          </ns3:TrackPointExtension>
        </extensions>
      </trkpt>
      <trkpt lat="43.45513067208230495452880859375" lon="1.4480192027986049652099609375">
        <ele>184</ele>
        <time>2026-08-05T06:36:33.000Z</time>
        <extensions>
          <ns3:TrackPointExtension>
            <ns3:hr>80</ns3:hr>
            <ns3:cad>42</ns3:cad>
          </ns3:TrackPointExtension>
        </extensions>
      </trkpt>
      <trkpt lat="43.45512849278748035430908203125" lon="1.44803269766271114349365234375">
        <ele>184.1999969482421875</ele>
        <time>2026-08-05T06:36:34.000Z</time>
        <extensions>
          <ns3:TrackPointExtension>
            <ns3:hr>81</ns3:hr>
            <ns3:cad>42</ns3:cad>
          </ns3:TrackPointExtension>
        </extensions>
      </trkpt>
      <trkpt lat="43.45512472093105316162109375" lon="1.4480460248887538909912109375">
        <ele>184.1999969482421875</ele>
        <time>2026-08-05T06:36:35.000Z</time>
        <extensions>
          <ns3:TrackPointExtension>
            <ns3:hr>81</ns3:hr>
            <ns3:cad>76</ns3:cad>
          </ns3:TrackPointExtension>
        </extensions>
      </trkpt>
      <trkpt lat="43.45512296073138713836669921875" lon="1.448061950504779815673828125">
        <ele>184.399993896484375</ele>
        <time>2026-08-05T06:36:36.000Z</time>
        <extensions>
          <ns3:TrackPointExtension>
            <ns3:hr>81</ns3:hr>
            <ns3:cad>76</ns3:cad>
          </ns3:TrackPointExtension>
        </extensions>
      </trkpt>
      <trkpt lat="43.45512011088430881500244140625" lon="1.44807259552180767059326171875">
        <ele>184.399993896484375</ele>
        <time>2026-08-05T06:36:37.000Z</time>
        <extensions>
          <ns3:TrackPointExtension>
            <ns3:hr>82</ns3:hr>
            <ns3:cad>76</ns3:cad>
          </ns3:TrackPointExtension>
        </extensions>
      </trkpt>
      <trkpt lat="43.45512195490300655364990234375" lon="1.44808240234851837158203125">
        <ele>184.600006103515625</ele>
        <time>2026-08-05T06:36:38.000Z</time>
        <extensions>
          <ns3:TrackPointExtension>
            <ns3:hr>82</ns3:hr>
            <ns3:cad>76</ns3:cad>
          </ns3:TrackPointExtension>
        </extensions>
      </trkpt>
      <trkpt lat="43.455123044550418853759765625" lon="1.4480963163077831268310546875">
        <ele>184.600006103515625</ele>
        <time>2026-08-05T06:36:39.000Z</time>
        <extensions>
          <ns3:TrackPointExtension>
            <ns3:hr>83</ns3:hr>
            <ns3:cad>77</ns3:cad>
          </ns3:TrackPointExtension>
        </extensions>
      </trkpt>
      <trkpt lat="43.45512245781719684600830078125" lon="1.4481072127819061279296875">
        <ele>184.8000030517578125</ele>
        <time>2026-08-05T06:36:40.000Z</time>
        <extensions>
          <ns3:TrackPointExtension>
            <ns3:hr>84</ns3:hr>
            <ns3:cad>77</ns3:cad>
          </ns3:TrackPointExtension>
        </extensions>
      </trkpt>
      <trkpt lat="43.45512195490300655364990234375" lon="1.448116600513458251953125">
        <ele>184.8000030517578125</ele>
        <time>2026-08-05T06:36:41.000Z</time>
        <extensions>
          <ns3:TrackPointExtension>
            <ns3:hr>85</ns3:hr>
            <ns3:cad>77</ns3:cad>
          </ns3:TrackPointExtension>
        </extensions>
      </trkpt>
      <trkpt lat="43.45512463711202144622802734375" lon="1.44813428632915019989013671875">
        <ele>185</ele>
        <time>2026-08-05T06:36:42.000Z</time>
        <extensions>
          <ns3:TrackPointExtension>
            <ns3:hr>86</ns3:hr>
            <ns3:cad>42</ns3:cad>
          </ns3:TrackPointExtension>
        </extensions>
      </trkpt>
      <trkpt lat="43.45512463711202144622802734375" lon="1.44814367406070232391357421875">
        <ele>185.1999969482421875</ele>
        <time>2026-08-05T06:36:43.000Z</time>
        <extensions>
          <ns3:TrackPointExtension>
            <ns3:hr>86</ns3:hr>
            <ns3:cad>41</ns3:cad>
          </ns3:TrackPointExtension>
        </extensions>
      </trkpt>
      <trkpt lat="43.455125391483306884765625" lon="1.44815557636320590972900390625">
        <ele>185.1999969482421875</ele>
        <time>2026-08-05T06:36:44.000Z</time>
        <extensions>
          <ns3:TrackPointExtension>
            <ns3:hr>87</ns3:hr>
            <ns3:cad>42</ns3:cad>
          </ns3:TrackPointExtension>
        </extensions>
      </trkpt>
      <trkpt lat="43.455125726759433746337890625" lon="1.4481697417795658111572265625">
        <ele>185.399993896484375</ele>
        <time>2026-08-05T06:36:45.000Z</time>
        <extensions>
          <ns3:TrackPointExtension>
            <ns3:hr>87</ns3:hr>
            <ns3:cad>79</ns3:cad>
          </ns3:TrackPointExtension>
        </extensions>
      </trkpt>
      <trkpt lat="43.4551248885691165924072265625" lon="1.4481769502162933349609375">
        <ele>185.399993896484375</ele>
        <time>2026-08-05T06:36:46.000Z</time>
        <extensions>
          <ns3:TrackPointExtension>
            <ns3:hr>89</ns3:hr>
            <ns3:cad>79</ns3:cad>
          </ns3:TrackPointExtension>
        </extensions>
      </trkpt>
      <trkpt lat="43.45512731932103633880615234375" lon="1.4481865055859088897705078125">
        <ele>185.600006103515625</ele>
        <time>2026-08-05T06:36:47.000Z</time>
        <extensions>
          <ns3:TrackPointExtension>
            <ns3:hr>93</ns3:hr>
            <ns3:cad>79</ns3:cad>
          </ns3:TrackPointExtension>
        </extensions>
      </trkpt>
      <trkpt lat="43.455127067863941192626953125" lon="1.4482010900974273681640625">
        <ele>185.600006103515625</ele>
        <time>2026-08-05T06:36:48.000Z</time>
        <extensions>
          <ns3:TrackPointExtension>
            <ns3:hr>100</ns3:hr>
            <ns3:cad>79</ns3:cad>
          </ns3:TrackPointExtension>
        </extensions>
      </trkpt>
      <trkpt lat="43.455126397311687469482421875" lon="1.44821223802864551544189453125">
        <ele>185.8000030517578125</ele>
        <time>2026-08-05T06:36:49.000Z</time>
        <extensions>
          <ns3:TrackPointExtension>
            <ns3:hr>101</ns3:hr>
            <ns3:cad>79</ns3:cad>
          </ns3:TrackPointExtension>
        </extensions>
      </trkpt>
      <trkpt lat="43.45512430183589458465576171875" lon="1.44821978174149990081787109375">
        <ele>185.8000030517578125</ele>
        <time>2026-08-05T06:36:50.000Z</time>
        <extensions>
          <ns3:TrackPointExtension>
            <ns3:hr>103</ns3:hr>
            <ns3:cad>40</ns3:cad>
          </ns3:TrackPointExtension>
        </extensions>
      </trkpt>
      <trkpt lat="43.45512472093105316162109375" lon="1.44823721610009670257568359375">
        <ele>186</ele>
        <time>2026-08-05T06:36:51.000Z</time>
        <extensions>
          <ns3:TrackPointExtension>
            <ns3:hr>104</ns3:hr>
            <ns3:cad>40</ns3:cad>
          </ns3:TrackPointExtension>
        </extensions>
      </trkpt>
      <trkpt lat="43.45512262545526027679443359375" lon="1.4482451789081096649169921875">
        <ele>186</ele>
        <time>2026-08-05T06:36:52.000Z</time>
        <extensions>
          <ns3:TrackPointExtension>
            <ns3:hr>104</ns3:hr>
            <ns3:cad>40</ns3:cad>
          </ns3:TrackPointExtension>
        </extensions>
      </trkpt>
      <trkpt lat="43.455121703445911407470703125" lon="1.4482493698596954345703125">
        <ele>186.1999969482421875</ele>
        <time>2026-08-05T06:36:53.000Z</time>
        <extensions>
          <ns3:TrackPointExtension>
            <ns3:hr>105</ns3:hr>
            <ns3:cad>41</ns3:cad>
          </ns3:TrackPointExtension>
        </extensions>
      </trkpt>
      <trkpt lat="43.45512229017913341522216796875" lon="1.44826537929475307464599609375">
        <ele>186.1999969482421875</ele>
        <time>2026-08-05T06:36:54.000Z</time>
        <extensions>
          <ns3:TrackPointExtension>
            <ns3:hr>105</ns3:hr>
            <ns3:cad>41</ns3:cad>
          </ns3:TrackPointExtension>
        </extensions>
      </trkpt>
      <trkpt lat="43.45512212254106998443603515625" lon="1.44827493466436862945556640625">
        <ele>186.399993896484375</ele>
        <time>2026-08-05T06:36:55.000Z</time>
        <extensions>
          <ns3:TrackPointExtension>
            <ns3:hr>105</ns3:hr>
            <ns3:cad>41</ns3:cad>
          </ns3:TrackPointExtension>
        </extensions>
      </trkpt>
      <trkpt lat="43.4551212005317211151123046875" lon="1.44828801043331623077392578125">
        <ele>186.399993896484375</ele>
        <time>2026-08-05T06:36:56.000Z</time>
        <extensions>
          <ns3:TrackPointExtension>
            <ns3:hr>105</ns3:hr>
            <ns3:cad>41</ns3:cad>
          </ns3:TrackPointExtension>
        </extensions>
      </trkpt>
      <trkpt lat="43.45512262545526027679443359375" lon="1.4483028464019298553466796875">
        <ele>186.600006103515625</ele>
        <time>2026-08-05T06:36:57.000Z</time>
        <extensions>
          <ns3:TrackPointExtension>
            <ns3:hr>106</ns3:hr>
            <ns3:cad>78</ns3:cad>
          </ns3:TrackPointExtension>
        </extensions>
      </trkpt>
      <trkpt lat="43.4551252238452434539794921875" lon="1.44831416197121143341064453125">
        <ele>186.600006103515625</ele>
        <time>2026-08-05T06:36:58.000Z</time>
        <extensions>
          <ns3:TrackPointExtension>
            <ns3:hr>106</ns3:hr>
            <ns3:cad>78</ns3:cad>
          </ns3:TrackPointExtension>
        </extensions>
      </trkpt>
      <trkpt lat="43.4551238827407360076904296875" lon="1.44832857884466648101806640625">
        <ele>186.8000030517578125</ele>
        <time>2026-08-05T06:36:59.000Z</time>
        <extensions>
          <ns3:TrackPointExtension>
            <ns3:hr>106</ns3:hr>
            <ns3:cad>78</ns3:cad>
          </ns3:TrackPointExtension>
        </extensions>
      </trkpt>
      <trkpt lat="43.45512648113071918487548828125" lon="1.44834701903164386749267578125">
        <ele>186.8000030517578125</ele>
        <time>2026-08-05T06:37:00.000Z</time>
        <extensions>
          <ns3:TrackPointExtension>
            <ns3:hr>106</ns3:hr>
            <ns3:cad>78</ns3:cad>
          </ns3:TrackPointExtension>
        </extensions>
      </trkpt>
      <trkpt lat="43.455126397311687469482421875" lon="1.4483538083732128143310546875">
        <ele>186.8000030517578125</ele>
        <time>2026-08-05T06:37:01.000Z</time>
        <extensions>
          <ns3:TrackPointExtension>
            <ns3:hr>107</ns3:hr>
            <ns3:cad>78</ns3:cad>
          </ns3:TrackPointExtension>
        </extensions>
      </trkpt>
      <trkpt lat="43.4551272355020046234130859375" lon="1.448363028466701507568359375">
        <ele>187</ele>
        <time>2026-08-05T06:37:02.000Z</time>
        <extensions>
          <ns3:TrackPointExtension>
            <ns3:hr>107</ns3:hr>
            <ns3:cad>77</ns3:cad>
          </ns3:TrackPointExtension>
        </extensions>
      </trkpt>
      <trkpt lat="43.4551267325878143310546875" lon="1.44837342202663421630859375">
        <ele>187</ele>
        <time>2026-08-05T06:37:03.000Z</time>
        <extensions>
          <ns3:TrackPointExtension>
            <ns3:hr>108</ns3:hr>
            <ns3:cad>40</ns3:cad>
          </ns3:TrackPointExtension>
        </extensions>
      </trkpt>
      <trkpt lat="43.45512798987329006195068359375" lon="1.448385156691074371337890625">
        <ele>187.1999969482421875</ele>
        <time>2026-08-05T06:37:04.000Z</time>
        <extensions>
          <ns3:TrackPointExtension>
            <ns3:hr>109</ns3:hr>
            <ns3:cad>40</ns3:cad>
          </ns3:TrackPointExtension>
        </extensions>
      </trkpt>
      <trkpt lat="43.45512866042554378509521484375" lon="1.44839362241327762603759765625">
        <ele>187.1999969482421875</ele>
        <time>2026-08-05T06:37:05.000Z</time>
        <extensions>
          <ns3:TrackPointExtension>
            <ns3:hr>109</ns3:hr>
            <ns3:cad>40</ns3:cad>
          </ns3:TrackPointExtension>
        </extensions>
      </trkpt>
      <trkpt lat="43.4551294147968292236328125" lon="1.44840837456285953521728515625">
        <ele>187.399993896484375</ele>
        <time>2026-08-05T06:37:06.000Z</time>
        <extensions>
          <ns3:TrackPointExtension>
            <ns3:hr>108</ns3:hr>
            <ns3:cad>41</ns3:cad>
          </ns3:TrackPointExtension>
        </extensions>
      </trkpt>
      <trkpt lat="43.45513218082487583160400390625" lon="1.448424719274044036865234375">
        <ele>187.399993896484375</ele>
        <time>2026-08-05T06:37:07.000Z</time>
        <extensions>
          <ns3:TrackPointExtension>
            <ns3:hr>108</ns3:hr>
            <ns3:cad>42</ns3:cad>
          </ns3:TrackPointExtension>
        </extensions>
      </trkpt>
      <trkpt lat="43.4551309235394001007080078125" lon="1.44843452610075473785400390625">
        <ele>187.600006103515625</ele>
        <time>2026-08-05T06:37:08.000Z</time>
        <extensions>
          <ns3:TrackPointExtension>
            <ns3:hr>108</ns3:hr>
            <ns3:cad>42</ns3:cad>
          </ns3:TrackPointExtension>
        </extensions>
      </trkpt>
      <trkpt lat="43.45513285137712955474853515625" lon="1.44844391383230686187744140625">
        <ele>187.600006103515625</ele>
        <time>2026-08-05T06:37:09.000Z</time>
        <extensions>
          <ns3:TrackPointExtension>
            <ns3:hr>108</ns3:hr>
            <ns3:cad>42</ns3:cad>
          </ns3:TrackPointExtension>
        </extensions>
      </trkpt>
      <trkpt lat="43.45513637177646160125732421875" lon="1.44846101291477680206298828125">
        <ele>187.600006103515625</ele>
        <time>2026-08-05T06:37:10.000Z</time>
        <extensions>
          <ns3:TrackPointExtension>
            <ns3:hr>107</ns3:hr>
            <ns3:cad>41</ns3:cad>
          </ns3:TrackPointExtension>
        </extensions>
      </trkpt>
      <trkpt lat="43.4551396407186985015869140625" lon="1.44846973009407520294189453125">
        <ele>187.8000030517578125</ele>
        <time>2026-08-05T06:37:11.000Z</time>
        <extensions>
          <ns3:TrackPointExtension>
            <ns3:hr>107</ns3:hr>
            <ns3:cad>41</ns3:cad>
          </ns3:TrackPointExtension>
        </extensions>
      </trkpt>
      <trkpt lat="43.45514140091836452484130859375" lon="1.44848045893013477325439453125">
        <ele>187.8000030517578125</ele>
        <time>2026-08-05T06:37:12.000Z</time>
        <extensions>
          <ns3:TrackPointExtension>
            <ns3:hr>107</ns3:hr>
            <ns3:cad>41</ns3:cad>
          </ns3:TrackPointExtension>
        </extensions>
      </trkpt>
      <trkpt lat="43.4551433287560939788818359375" lon="1.448495797812938690185546875">
        <ele>188</ele>
        <time>2026-08-05T06:37:13.000Z</time>
        <extensions>
          <ns3:TrackPointExtension>
            <ns3:hr>108</ns3:hr>
            <ns3:cad>41</ns3:cad>
          </ns3:TrackPointExtension>
        </extensions>
      </trkpt>
      <trkpt lat="43.45514349639415740966796875" lon="1.44850309006869792938232421875">
        <ele>188</ele>
        <time>2026-08-05T06:37:14.000Z</time>
        <extensions>
          <ns3:TrackPointExtension>
            <ns3:hr>107</ns3:hr>
            <ns3:cad>41</ns3:cad>
          </ns3:TrackPointExtension>
        </extensions>
      </trkpt>
      <trkpt lat="43.45514215528964996337890625" lon="1.448518596589565277099609375">
        <ele>188.1999969482421875</ele>
        <time>2026-08-05T06:37:15.000Z</time>
        <extensions>
          <ns3:TrackPointExtension>
            <ns3:hr>107</ns3:hr>
            <ns3:cad>78</ns3:cad>
          </ns3:TrackPointExtension>
        </extensions>
      </trkpt>
      <trkpt lat="43.455141820013523101806640625" lon="1.44853527657687664031982421875">
        <ele>188.1999969482421875</ele>
        <time>2026-08-05T06:37:16.000Z</time>
        <extensions>
          <ns3:TrackPointExtension>
            <ns3:hr>107</ns3:hr>
            <ns3:cad>79</ns3:cad>
          </ns3:TrackPointExtension>
        </extensions>
      </trkpt>
      <trkpt lat="43.45513989217579364776611328125" lon="1.44854717887938022613525390625">
        <ele>188.399993896484375</ele>
        <time>2026-08-05T06:37:17.000Z</time>
        <extensions>
          <ns3:TrackPointExtension>
            <ns3:hr>107</ns3:hr>
            <ns3:cad>79</ns3:cad>
          </ns3:TrackPointExtension>
        </extensions>
      </trkpt>
      <trkpt lat="43.4551396407186985015869140625" lon="1.44855908118188381195068359375">
        <ele>188.600006103515625</ele>
        <time>2026-08-05T06:37:18.000Z</time>
        <extensions>
          <ns3:TrackPointExtension>
            <ns3:hr>107</ns3:hr>
            <ns3:cad>41</ns3:cad>
          </ns3:TrackPointExtension>
        </extensions>
      </trkpt>
      <trkpt lat="43.45514441840350627899169921875" lon="1.4485765993595123291015625">
        <ele>188.600006103515625</ele>
        <time>2026-08-05T06:37:19.000Z</time>
        <extensions>
          <ns3:TrackPointExtension>
            <ns3:hr>107</ns3:hr>
            <ns3:cad>41</ns3:cad>
          </ns3:TrackPointExtension>
        </extensions>
      </trkpt>
      <trkpt lat="43.4551450051367282867431640625" lon="1.4485861547291278839111328125">
        <ele>188.8000030517578125</ele>
        <time>2026-08-05T06:37:20.000Z</time>
        <extensions>
          <ns3:TrackPointExtension>
            <ns3:hr>107</ns3:hr>
            <ns3:cad>41</ns3:cad>
          </ns3:TrackPointExtension>
        </extensions>
      </trkpt>
      <trkpt lat="43.45514458604156970977783203125" lon="1.44859445281326770782470703125">
        <ele>188.8000030517578125</ele>
        <time>2026-08-05T06:37:21.000Z</time>
        <extensions>
          <ns3:TrackPointExtension>
            <ns3:hr>107</ns3:hr>
            <ns3:cad>41</ns3:cad>
          </ns3:TrackPointExtension>
        </extensions>
      </trkpt>
      <trkpt lat="43.455142490565776824951171875" lon="1.44860920496284961700439453125">
        <ele>189</ele>
        <time>2026-08-05T06:37:22.000Z</time>
        <extensions>
          <ns3:TrackPointExtension>
            <ns3:hr>107</ns3:hr>
            <ns3:cad>41</ns3:cad>
          </ns3:TrackPointExtension>
        </extensions>
      </trkpt>
      <trkpt lat="43.45514525659382343292236328125" lon="1.448619179427623748779296875">
        <ele>189</ele>
        <time>2026-08-05T06:37:23.000Z</time>
        <extensions>
          <ns3:TrackPointExtension>
            <ns3:hr>107</ns3:hr>
            <ns3:cad>41</ns3:cad>
          </ns3:TrackPointExtension>
        </extensions>
      </trkpt>
      <trkpt lat="43.4551483578979969024658203125" lon="1.44862714223563671112060546875">
        <ele>189</ele>
        <time>2026-08-05T06:37:24.000Z</time>
        <extensions>
          <ns3:TrackPointExtension>
            <ns3:hr>107</ns3:hr>
            <ns3:cad>41</ns3:cad>
          </ns3:TrackPointExtension>
        </extensions>
      </trkpt>
      <trkpt lat="43.4551481902599334716796875" lon="1.44864323548972606658935546875">
        <ele>189.1999969482421875</ele>
        <time>2026-08-05T06:37:25.000Z</time>
        <extensions>
          <ns3:TrackPointExtension>
            <ns3:hr>107</ns3:hr>
            <ns3:cad>41</ns3:cad>
          </ns3:TrackPointExtension>
        </extensions>
      </trkpt>
      <trkpt lat="43.45514743588864803314208984375" lon="1.4486562274396419525146484375">
        <ele>189.1999969482421875</ele>
        <time>2026-08-05T06:37:26.000Z</time>
        <extensions>
          <ns3:TrackPointExtension>
            <ns3:hr>108</ns3:hr>
            <ns3:cad>41</ns3:cad>
          </ns3:TrackPointExtension>
        </extensions>
      </trkpt>
      <trkpt lat="43.45514995045959949493408203125" lon="1.44866955466568470001220703125">
        <ele>189.399993896484375</ele>
        <time>2026-08-05T06:37:27.000Z</time>
        <extensions>
          <ns3:TrackPointExtension>
            <ns3:hr>107</ns3:hr>
            <ns3:cad>41</ns3:cad>
          </ns3:TrackPointExtension>
        </extensions>
      </trkpt>
      <trkpt lat="43.45515179447829723358154296875" lon="1.44868162460625171661376953125">
        <ele>189.399993896484375</ele>
        <time>2026-08-05T06:37:28.000Z</time>
        <extensions>
          <ns3:TrackPointExtension>
            <ns3:hr>107</ns3:hr>
            <ns3:cad>41</ns3:cad>
          </ns3:TrackPointExtension>
        </extensions>
      </trkpt>
      <trkpt lat="43.45515154302120208740234375" lon="1.4486961252987384796142578125">
        <ele>189.600006103515625</ele>
        <time>2026-08-05T06:37:29.000Z</time>
        <extensions>
          <ns3:TrackPointExtension>
            <ns3:hr>108</ns3:hr>
            <ns3:cad>41</ns3:cad>
          </ns3:TrackPointExtension>
        </extensions>
      </trkpt>
      <trkpt lat="43.45515246503055095672607421875" lon="1.44870811142027378082275390625">
        <ele>189.8000030517578125</ele>
        <time>2026-08-05T06:37:30.000Z</time>
        <extensions>
          <ns3:TrackPointExtension>
            <ns3:hr>108</ns3:hr>
            <ns3:cad>43</ns3:cad>
          </ns3:TrackPointExtension>
        </extensions>
      </trkpt>
      <trkpt lat="43.45515380613505840301513671875" lon="1.44871867261826992034912109375">
        <ele>189.8000030517578125</ele>
        <time>2026-08-05T06:37:31.000Z</time>
        <extensions>
          <ns3:TrackPointExtension>
            <ns3:hr>108</ns3:hr>
            <ns3:cad>43</ns3:cad>
          </ns3:TrackPointExtension>
        </extensions>
      </trkpt>
      <trkpt lat="43.45515464432537555694580078125" lon="1.44873208366334438323974609375">
        <ele>189.8000030517578125</ele>
        <time>2026-08-05T06:37:32.000Z</time>
        <extensions>
          <ns3:TrackPointExtension>
            <ns3:hr>108</ns3:hr>
            <ns3:cad>41</ns3:cad>
          </ns3:TrackPointExtension>
        </extensions>
      </trkpt>
      <trkpt lat="43.45515347085893154144287109375" lon="1.44874666817486286163330078125">
        <ele>189.8000030517578125</ele>
        <time>2026-08-05T06:37:33.000Z</time>
        <extensions>
          <ns3:TrackPointExtension>
            <ns3:hr>108</ns3:hr>
            <ns3:cad>41</ns3:cad>
          </ns3:TrackPointExtension>
        </extensions>
      </trkpt>
      <trkpt lat="43.45515531487762928009033203125" lon="1.44875739701092243194580078125">
        <ele>189.8000030517578125</ele>
        <time>2026-08-05T06:37:34.000Z</time>
        <extensions>
          <ns3:TrackPointExtension>
            <ns3:hr>108</ns3:hr>
            <ns3:cad>41</ns3:cad>
          </ns3:TrackPointExtension>
        </extensions>
      </trkpt>
      <trkpt lat="43.45515615306794643402099609375" lon="1.448770053684711456298828125">
        <ele>190</ele>
        <time>2026-08-05T06:37:35.000Z</time>
        <extensions>
          <ns3:TrackPointExtension>
            <ns3:hr>108</ns3:hr>
            <ns3:cad>41</ns3:cad>
          </ns3:TrackPointExtension>
        </extensions>
      </trkpt>
      <trkpt lat="43.455157242715358734130859375" lon="1.4487858116626739501953125">
        <ele>190</ele>
        <time>2026-08-05T06:37:36.000Z</time>
        <extensions>
          <ns3:TrackPointExtension>
            <ns3:hr>109</ns3:hr>
            <ns3:cad>42</ns3:cad>
          </ns3:TrackPointExtension>
        </extensions>
      </trkpt>
      <trkpt lat="43.45515531487762928009033203125" lon="1.44879913888871669769287109375">
        <ele>190.1999969482421875</ele>
        <time>2026-08-05T06:37:37.000Z</time>
        <extensions>
          <ns3:TrackPointExtension>
            <ns3:hr>109</ns3:hr>
            <ns3:cad>42</ns3:cad>
          </ns3:TrackPointExtension>
        </extensions>
      </trkpt>
      <trkpt lat="43.45515464432537555694580078125" lon="1.44880902953445911407470703125">
        <ele>190.1999969482421875</ele>
        <time>2026-08-05T06:37:38.000Z</time>
        <extensions>
          <ns3:TrackPointExtension>
            <ns3:hr>110</ns3:hr>
            <ns3:cad>43</ns3:cad>
          </ns3:TrackPointExtension>
        </extensions>
      </trkpt>
      <trkpt lat="43.4551523812115192413330078125" lon="1.44882344640791416168212890625">
        <ele>190.399993896484375</ele>
        <time>2026-08-05T06:37:39.000Z</time>
        <extensions>
          <ns3:TrackPointExtension>
            <ns3:hr>110</ns3:hr>
            <ns3:cad>43</ns3:cad>
          </ns3:TrackPointExtension>
        </extensions>
      </trkpt>
      <trkpt lat="43.45515078864991664886474609375" lon="1.4488386176526546478271484375">
        <ele>190.399993896484375</ele>
        <time>2026-08-05T06:37:40.000Z</time>
        <extensions>
          <ns3:TrackPointExtension>
            <ns3:hr>109</ns3:hr>
            <ns3:cad>43</ns3:cad>
          </ns3:TrackPointExtension>
        </extensions>
      </trkpt>
      <trkpt lat="43.45515162684023380279541015625" lon="1.44884683191776275634765625">
        <ele>190.600006103515625</ele>
        <time>2026-08-05T06:37:41.000Z</time>
        <extensions>
          <ns3:TrackPointExtension>
            <ns3:hr>109</ns3:hr>
            <ns3:cad>43</ns3:cad>
          </ns3:TrackPointExtension>
        </extensions>
      </trkpt>
      <trkpt lat="43.45515154302120208740234375" lon="1.44885965622961521148681640625">
        <ele>190.600006103515625</ele>
        <time>2026-08-05T06:37:42.000Z</time>
        <extensions>
          <ns3:TrackPointExtension>
            <ns3:hr>108</ns3:hr>
            <ns3:cad>43</ns3:cad>
          </ns3:TrackPointExtension>
        </extensions>
      </trkpt>
      <trkpt lat="43.4551530517637729644775390625" lon="1.44887256436049938201904296875">
        <ele>190.8000030517578125</ele>
        <time>2026-08-05T06:37:43.000Z</time>
        <extensions>
          <ns3:TrackPointExtension>
            <ns3:hr>107</ns3:hr>
            <ns3:cad>42</ns3:cad>
          </ns3:TrackPointExtension>
        </extensions>
      </trkpt>
      <trkpt lat="43.45515280030667781829833984375" lon="1.4488865621387958526611328125">
        <ele>190.8000030517578125</ele>
        <time>2026-08-05T06:37:44.000Z</time>
        <extensions>
          <ns3:TrackPointExtension>
            <ns3:hr>107</ns3:hr>
            <ns3:cad>42</ns3:cad>
          </ns3:TrackPointExtension>
        </extensions>
      </trkpt>
      <trkpt lat="43.4551503695547580718994140625" lon="1.44890005700290203094482421875">
        <ele>191</ele>
        <time>2026-08-05T06:37:45.000Z</time>
        <extensions>
          <ns3:TrackPointExtension>
            <ns3:hr>107</ns3:hr>
            <ns3:cad>42</ns3:cad>
          </ns3:TrackPointExtension>
        </extensions>
      </trkpt>
      <trkpt lat="43.45514944754540920257568359375" lon="1.44891480915248394012451171875">
        <ele>191</ele>
        <time>2026-08-05T06:37:46.000Z</time>
        <extensions>
          <ns3:TrackPointExtension>
            <ns3:hr>106</ns3:hr>
            <ns3:cad>42</ns3:cad>
          </ns3:TrackPointExtension>
        </extensions>
      </trkpt>
      <trkpt lat="43.45515112392604351043701171875" lon="1.448927633464336395263671875">
        <ele>191.1999969482421875</ele>
        <time>2026-08-05T06:37:47.000Z</time>
        <extensions>
          <ns3:TrackPointExtension>
            <ns3:hr>106</ns3:hr>
            <ns3:cad>42</ns3:cad>
          </ns3:TrackPointExtension>
        </extensions>
      </trkpt>
      <trkpt lat="43.45515011809766292572021484375" lon="1.44893660210072994232177734375">
        <ele>191.1999969482421875</ele>
        <time>2026-08-05T06:37:48.000Z</time>
        <extensions>
          <ns3:TrackPointExtension>
            <ns3:hr>106</ns3:hr>
            <ns3:cad>44</ns3:cad>
          </ns3:TrackPointExtension>
        </extensions>
      </trkpt>
      <trkpt lat="43.4551480226218700408935546875" lon="1.44895135425031185150146484375">
        <ele>191.399993896484375</ele>
        <time>2026-08-05T06:37:49.000Z</time>
        <extensions>
          <ns3:TrackPointExtension>
            <ns3:hr>107</ns3:hr>
            <ns3:cad>44</ns3:cad>
          </ns3:TrackPointExtension>
        </extensions>
      </trkpt>
      <trkpt lat="43.4551473520696163177490234375" lon="1.44896895624697208404541015625">
        <ele>191.399993896484375</ele>
        <time>2026-08-05T06:37:50.000Z</time>
        <extensions>
          <ns3:TrackPointExtension>
            <ns3:hr>106</ns3:hr>
            <ns3:cad>44</ns3:cad>
          </ns3:TrackPointExtension>
        </extensions>
      </trkpt>
      <trkpt lat="43.45514643006026744842529296875" lon="1.4489821158349514007568359375">
        <ele>191.600006103515625</ele>
        <time>2026-08-05T06:37:51.000Z</time>
        <extensions>
          <ns3:TrackPointExtension>
            <ns3:hr>106</ns3:hr>
            <ns3:cad>45</ns3:cad>
          </ns3:TrackPointExtension>
        </extensions>
      </trkpt>
      <trkpt lat="43.4551441669464111328125" lon="1.44899259321391582489013671875">
        <ele>191.600006103515625</ele>
        <time>2026-08-05T06:37:52.000Z</time>
        <extensions>
          <ns3:TrackPointExtension>
            <ns3:hr>106</ns3:hr>
            <ns3:cad>44</ns3:cad>
          </ns3:TrackPointExtension>
        </extensions>
      </trkpt>
      <trkpt lat="43.45514106564223766326904296875" lon="1.44900801591575145721435546875">
        <ele>191.600006103515625</ele>
        <time>2026-08-05T06:37:53.000Z</time>
        <extensions>
          <ns3:TrackPointExtension>
            <ns3:hr>107</ns3:hr>
            <ns3:cad>44</ns3:cad>
          </ns3:TrackPointExtension>
        </extensions>
      </trkpt>
      <trkpt lat="43.45513947308063507080078125" lon="1.44902260042726993560791015625">
        <ele>191.8000030517578125</ele>
        <time>2026-08-05T06:37:54.000Z</time>
        <extensions>
          <ns3:TrackPointExtension>
            <ns3:hr>106</ns3:hr>
            <ns3:cad>44</ns3:cad>
          </ns3:TrackPointExtension>
        </extensions>
      </trkpt>
      <trkpt lat="43.45513972453773021697998046875" lon="1.44903416745364665985107421875">
        <ele>191.8000030517578125</ele>
        <time>2026-08-05T06:37:55.000Z</time>
        <extensions>
          <ns3:TrackPointExtension>
            <ns3:hr>106</ns3:hr>
            <ns3:cad>44</ns3:cad>
          </ns3:TrackPointExtension>
        </extensions>
      </trkpt>
      <trkpt lat="43.45514156855642795562744140625" lon="1.4490444771945476531982421875">
        <ele>191.8000030517578125</ele>
        <time>2026-08-05T06:37:56.000Z</time>
        <extensions>
          <ns3:TrackPointExtension>
            <ns3:hr>106</ns3:hr>
            <ns3:cad>43</ns3:cad>
          </ns3:TrackPointExtension>
        </extensions>
      </trkpt>
      <trkpt lat="43.45513989217579364776611328125" lon="1.44905596040189266204833984375">
        <ele>192</ele>
        <time>2026-08-05T06:37:57.000Z</time>
        <extensions>
          <ns3:TrackPointExtension>
            <ns3:hr>106</ns3:hr>
            <ns3:cad>43</ns3:cad>
          </ns3:TrackPointExtension>
        </extensions>
      </trkpt>
      <trkpt lat="43.45513821579515933990478515625" lon="1.44906484521925449371337890625">
        <ele>192.1999969482421875</ele>
        <time>2026-08-05T06:37:58.000Z</time>
        <extensions>
          <ns3:TrackPointExtension>
            <ns3:hr>105</ns3:hr>
            <ns3:cad>43</ns3:cad>
          </ns3:TrackPointExtension>
        </extensions>
      </trkpt>
      <trkpt lat="43.45513679087162017822265625" lon="1.44907414913177490234375">
        <ele>192.1999969482421875</ele>
        <time>2026-08-05T06:37:59.000Z</time>
        <extensions>
          <ns3:TrackPointExtension>
            <ns3:hr>105</ns3:hr>
            <ns3:cad>43</ns3:cad>
          </ns3:TrackPointExtension>
        </extensions>
      </trkpt>
      <trkpt lat="43.45513720996677875518798828125" lon="1.44908479414880275726318359375">
        <ele>192.1999969482421875</ele>
        <time>2026-08-05T06:38:00.000Z</time>
        <extensions>
          <ns3:TrackPointExtension>
            <ns3:hr>105</ns3:hr>
            <ns3:cad>43</ns3:cad>
          </ns3:TrackPointExtension>
        </extensions>
      </trkpt>
      <trkpt lat="43.45513570122420787811279296875" lon="1.4490937627851963043212890625">
        <ele>192.399993896484375</ele>
        <time>2026-08-05T06:38:01.000Z</time>
        <extensions>
          <ns3:TrackPointExtension>
            <ns3:hr>105</ns3:hr>
            <ns3:cad>40</ns3:cad>
          </ns3:TrackPointExtension>
        </extensions>
      </trkpt>
      <trkpt lat="43.45513318665325641632080078125" lon="1.449101306498050689697265625">
        <ele>192.399993896484375</ele>
        <time>2026-08-05T06:38:02.000Z</time>
        <extensions>
          <ns3:TrackPointExtension>
            <ns3:hr>105</ns3:hr>
            <ns3:cad>40</ns3:cad>
          </ns3:TrackPointExtension>
        </extensions>
      </trkpt>
      <trkpt lat="43.4551292471587657928466796875" lon="1.44910926930606365203857421875">
        <ele>192.399993896484375</ele>
        <time>2026-08-05T06:38:03.000Z</time>
        <extensions>
          <ns3:TrackPointExtension>
            <ns3:hr>105</ns3:hr>
            <ns3:cad>0</ns3:cad>
          </ns3:TrackPointExtension>
        </extensions>
      </trkpt>
      <trkpt lat="43.45513167791068553924560546875" lon="1.44910625182092189788818359375">
        <ele>192.399993896484375</ele>
        <time>2026-08-05T06:38:04.000Z</time>
        <extensions>
          <ns3:TrackPointExtension>
            <ns3:hr>104</ns3:hr>
            <ns3:cad>0</ns3:cad>
          </ns3:TrackPointExtension>
        </extensions>
      </trkpt>
      <trkpt lat="43.45512882806360721588134765625" lon="1.44910960458219051361083984375">
        <ele>192.399993896484375</ele>
        <time>2026-08-05T06:38:05.000Z</time>
        <extensions>
          <ns3:TrackPointExtension>
            <ns3:hr>104</ns3:hr>
            <ns3:cad>0</ns3:cad>
          </ns3:TrackPointExtension>
        </extensions>
      </trkpt>
      <trkpt lat="43.45512807369232177734375" lon="1.4491085149347782135009765625">
        <ele>192.399993896484375</ele>
        <time>2026-08-05T06:38:06.000Z</time>
        <extensions>
          <ns3:TrackPointExtension>
            <ns3:hr>104</ns3:hr>
            <ns3:cad>0</ns3:cad>
          </ns3:TrackPointExtension>
        </extensions>
      </trkpt>
      <trkpt lat="43.45512346364557743072509765625" lon="1.44910993985831737518310546875">
        <ele>192.399993896484375</ele>
        <time>2026-08-05T06:38:07.000Z</time>
        <extensions>
          <ns3:TrackPointExtension>
            <ns3:hr>104</ns3:hr>
            <ns3:cad>0</ns3:cad>
          </ns3:TrackPointExtension>
        </extensions>
      </trkpt>
      <trkpt lat="43.45512874424457550048828125" lon="1.44910859875380992889404296875">
        <ele>192.399993896484375</ele>
        <time>2026-08-05T06:38:08.000Z</time>
        <extensions>
          <ns3:TrackPointExtension>
            <ns3:hr>104</ns3:hr>
            <ns3:cad>0</ns3:cad>
          </ns3:TrackPointExtension>
        </extensions>
      </trkpt>
      <trkpt lat="43.45512832514941692352294921875" lon="1.449108682572841644287109375">
        <ele>192.399993896484375</ele>
        <time>2026-08-05T06:38:09.000Z</time>
        <extensions>
          <ns3:TrackPointExtension>
            <ns3:hr>104</ns3:hr>
            <ns3:cad>0</ns3:cad>
          </ns3:TrackPointExtension>
        </extensions>
      </trkpt>
      <trkpt lat="43.45512681640684604644775390625" lon="1.4491118676960468292236328125">
        <ele>192.399993896484375</ele>
        <time>2026-08-05T06:38:10.000Z</time>
        <extensions>
          <ns3:TrackPointExtension>
            <ns3:hr>103</ns3:hr>
            <ns3:cad>0</ns3:cad>
          </ns3:TrackPointExtension>
        </extensions>
      </trkpt>
      <trkpt lat="43.45512681640684604644775390625" lon="1.44911237061023712158203125">
        <ele>192.399993896484375</ele>
        <time>2026-08-05T06:38:11.000Z</time>
        <extensions>
          <ns3:TrackPointExtension>
            <ns3:hr>103</ns3:hr>
            <ns3:cad>0</ns3:cad>
          </ns3:TrackPointExtension>
        </extensions>
      </trkpt>
      <trkpt lat="43.45512681640684604644775390625" lon="1.44911237061023712158203125">
        <ele>192.399993896484375</ele>
        <time>2026-08-05T06:38:12.000Z</time>
        <extensions>
          <ns3:TrackPointExtension>
            <ns3:hr>103</ns3:hr>
            <ns3:cad>0</ns3:cad>
          </ns3:TrackPointExtension>
        </extensions>
      </trkpt>
      <trkpt lat="43.45512681640684604644775390625" lon="1.44911237061023712158203125">
        <ele>192.399993896484375</ele>
        <time>2026-08-05T06:38:13.000Z</time>
        <extensions>
          <ns3:TrackPointExtension>
            <ns3:hr>103</ns3:hr>
            <ns3:cad>0</ns3:cad>
          </ns3:TrackPointExtension>
        </extensions>
      </trkpt>
      <trkpt lat="43.45512681640684604644775390625" lon="1.44911237061023712158203125">
        <ele>192.600006103515625</ele>
        <time>2026-08-05T06:38:14.000Z</time>
        <extensions>
          <ns3:TrackPointExtension>
            <ns3:hr>103</ns3:hr>
            <ns3:cad>0</ns3:cad>
          </ns3:TrackPointExtension>
        </extensions>
      </trkpt>
      <trkpt lat="43.45512681640684604644775390625" lon="1.44911237061023712158203125">
        <ele>192.399993896484375</ele>
        <time>2026-08-05T06:38:15.000Z</time>
        <extensions>
          <ns3:TrackPointExtension>
            <ns3:hr>102</ns3:hr>
            <ns3:cad>0</ns3:cad>
          </ns3:TrackPointExtension>
        </extensions>
      </trkpt>
      <trkpt lat="43.45512681640684604644775390625" lon="1.44911237061023712158203125">
        <ele>192.399993896484375</ele>
        <time>2026-08-05T06:38:16.000Z</time>
        <extensions>
          <ns3:TrackPointExtension>
            <ns3:hr>102</ns3:hr>
            <ns3:cad>0</ns3:cad>
          </ns3:TrackPointExtension>
        </extensions>
      </trkpt>
      <trkpt lat="43.45512681640684604644775390625" lon="1.44911237061023712158203125">
        <ele>192.399993896484375</ele>
        <time>2026-08-05T06:38:17.000Z</time>
        <extensions>
          <ns3:TrackPointExtension>
            <ns3:hr>102</ns3:hr>
            <ns3:cad>0</ns3:cad>
          </ns3:TrackPointExtension>
        </extensions>
      </trkpt>
      <trkpt lat="43.45512681640684604644775390625" lon="1.44911237061023712158203125">
        <ele>192.399993896484375</ele>
        <time>2026-08-05T06:38:18.000Z</time>
        <extensions>
          <ns3:TrackPointExtension>
            <ns3:hr>101</ns3:hr>
            <ns3:cad>0</ns3:cad>
          </ns3:TrackPointExtension>
        </extensions>
      </trkpt>
      <trkpt lat="43.45512681640684604644775390625" lon="1.44911237061023712158203125">
        <ele>192.399993896484375</ele>
        <time>2026-08-05T06:38:19.000Z</time>
        <extensions>
          <ns3:TrackPointExtension>
            <ns3:hr>101</ns3:hr>
            <ns3:cad>0</ns3:cad>
          </ns3:TrackPointExtension>
        </extensions>
      </trkpt>
      <trkpt lat="43.45512681640684604644775390625" lon="1.44911237061023712158203125">
        <ele>192.399993896484375</ele>
        <time>2026-08-05T06:38:20.000Z</time>
        <extensions>
          <ns3:TrackPointExtension>
            <ns3:hr>101</ns3:hr>
            <ns3:cad>0</ns3:cad>
          </ns3:TrackPointExtension>
        </extensions>
      </trkpt>
      <trkpt lat="43.45512681640684604644775390625" lon="1.44911237061023712158203125">
        <ele>192.399993896484375</ele>
        <time>2026-08-05T06:38:21.000Z</time>
        <extensions>
          <ns3:TrackPointExtension>
            <ns3:hr>100</ns3:hr>
            <ns3:cad>0</ns3:cad>
          </ns3:TrackPointExtension>
        </extensions>
      </trkpt>
      <trkpt lat="43.45512681640684604644775390625" lon="1.44911237061023712158203125">
        <ele>192.399993896484375</ele>
        <time>2026-08-05T06:38:22.000Z</time>
        <extensions>
          <ns3:TrackPointExtension>
            <ns3:hr>99</ns3:hr>
            <ns3:cad>0</ns3:cad>
          </ns3:TrackPointExtension>
        </extensions>
      </trkpt>
      <trkpt lat="43.45512681640684604644775390625" lon="1.44911237061023712158203125">
        <ele>192.399993896484375</ele>
        <time>2026-08-05T06:38:23.000Z</time>
        <extensions>
          <ns3:TrackPointExtension>
            <ns3:hr>97</ns3:hr>
            <ns3:cad>0</ns3:cad>
          </ns3:TrackPointExtension>
        </extensions>
      </trkpt>
      <trkpt lat="43.45512681640684604644775390625" lon="1.44911237061023712158203125">
        <ele>192.399993896484375</ele>
        <time>2026-08-05T06:38:24.000Z</time>
        <extensions>
          <ns3:TrackPointExtension>
            <ns3:hr>96</ns3:hr>
            <ns3:cad>0</ns3:cad>
          </ns3:TrackPointExtension>
        </extensions>
      </trkpt>
      <trkpt lat="43.45512681640684604644775390625" lon="1.44911237061023712158203125">
        <ele>192.399993896484375</ele>
        <time>2026-08-05T06:38:25.000Z</time>
        <extensions>
          <ns3:TrackPointExtension>
            <ns3:hr>96</ns3:hr>
            <ns3:cad>0</ns3:cad>
          </ns3:TrackPointExtension>
        </extensions>
      </trkpt>
      <trkpt lat="43.45512681640684604644775390625" lon="1.44911237061023712158203125">
        <ele>192.399993896484375</ele>
        <time>2026-08-05T06:38:26.000Z</time>
        <extensions>
          <ns3:TrackPointExtension>
            <ns3:hr>96</ns3:hr>
            <ns3:cad>0</ns3:cad>
          </ns3:TrackPointExtension>
        </extensions>
      </trkpt>
      <trkpt lat="43.45512681640684604644775390625" lon="1.44911237061023712158203125">
        <ele>192.399993896484375</ele>
        <time>2026-08-05T06:38:27.000Z</time>
        <extensions>
          <ns3:TrackPointExtension>
            <ns3:hr>96</ns3:hr>
            <ns3:cad>0</ns3:cad>
          </ns3:TrackPointExtension>
        </extensions>
      </trkpt>
      <trkpt lat="43.45512681640684604644775390625" lon="1.44911237061023712158203125">
        <ele>192.399993896484375</ele>
        <time>2026-08-05T06:38:28.000Z</time>
        <extensions>
          <ns3:TrackPointExtension>
            <ns3:hr>95</ns3:hr>
            <ns3:cad>0</ns3:cad>
          </ns3:TrackPointExtension>
        </extensions>
      </trkpt>
      <trkpt lat="43.45512681640684604644775390625" lon="1.44911237061023712158203125">
        <ele>192.399993896484375</ele>
        <time>2026-08-05T06:38:29.000Z</time>
        <extensions>
          <ns3:TrackPointExtension>
            <ns3:hr>96</ns3:hr>
            <ns3:cad>0</ns3:cad>
          </ns3:TrackPointExtension>
        </extensions>
      </trkpt>
      <trkpt lat="43.45512681640684604644775390625" lon="1.44911237061023712158203125">
        <ele>192.399993896484375</ele>
        <time>2026-08-05T06:38:30.000Z</time>
        <extensions>
          <ns3:TrackPointExtension>
            <ns3:hr>96</ns3:hr>
            <ns3:cad>0</ns3:cad>
          </ns3:TrackPointExtension>
        </extensions>
      </trkpt>
      <trkpt lat="43.45512681640684604644775390625" lon="1.44911237061023712158203125">
        <ele>192.399993896484375</ele>
        <time>2026-08-05T06:38:31.000Z</time>
        <extensions>
          <ns3:TrackPointExtension>
            <ns3:hr>96</ns3:hr>
            <ns3:cad>0</ns3:cad>
          </ns3:TrackPointExtension>
        </extensions>
      </trkpt>
      <trkpt lat="43.45512681640684604644775390625" lon="1.44911237061023712158203125">
        <ele>192.399993896484375</ele>
        <time>2026-08-05T06:38:32.000Z</time>
        <extensions>
          <ns3:TrackPointExtension>
            <ns3:hr>96</ns3:hr>
            <ns3:cad>0</ns3:cad>
          </ns3:TrackPointExtension>
        </extensions>
      </trkpt>
      <trkpt lat="43.45512681640684604644775390625" lon="1.44911237061023712158203125">
        <ele>192.399993896484375</ele>
        <time>2026-08-05T06:38:33.000Z</time>
        <extensions>
          <ns3:TrackPointExtension>
            <ns3:hr>96</ns3:hr>
            <ns3:cad>0</ns3:cad>
          </ns3:TrackPointExtension>
        </extensions>
      </trkpt>
      <trkpt lat="43.45512681640684604644775390625" lon="1.44911237061023712158203125">
        <ele>192.399993896484375</ele>
        <time>2026-08-05T06:38:34.000Z</time>
        <extensions>
          <ns3:TrackPointExtension>
            <ns3:hr>96</ns3:hr>
            <ns3:cad>0</ns3:cad>
          </ns3:TrackPointExtension>
        </extensions>
      </trkpt>
      <trkpt lat="43.45512681640684604644775390625" lon="1.44911237061023712158203125">
        <ele>192.399993896484375</ele>
        <time>2026-08-05T06:38:35.000Z</time>
        <extensions>
          <ns3:TrackPointExtension>
            <ns3:hr>97</ns3:hr>
            <ns3:cad>0</ns3:cad>
          </ns3:TrackPointExtension>
        </extensions>
      </trkpt>
      <trkpt lat="43.45512681640684604644775390625" lon="1.44911237061023712158203125">
        <ele>192.399993896484375</ele>
        <time>2026-08-05T06:38:36.000Z</time>
        <extensions>
          <ns3:TrackPointExtension>
            <ns3:hr>97</ns3:hr>
            <ns3:cad>0</ns3:cad>
          </ns3:TrackPointExtension>
        </extensions>
      </trkpt>
      <trkpt lat="43.45512681640684604644775390625" lon="1.44911237061023712158203125">
        <ele>192.399993896484375</ele>
        <time>2026-08-05T06:38:37.000Z</time>
        <extensions>
          <ns3:TrackPointExtension>
            <ns3:hr>97</ns3:hr>
            <ns3:cad>0</ns3:cad>
          </ns3:TrackPointExtension>
        </extensions>
      </trkpt>
      <trkpt lat="43.45512681640684604644775390625" lon="1.44911237061023712158203125">
        <ele>192.399993896484375</ele>
        <time>2026-08-05T06:38:38.000Z</time>
        <extensions>
          <ns3:TrackPointExtension>
            <ns3:hr>97</ns3:hr>
            <ns3:cad>0</ns3:cad>
          </ns3:TrackPointExtension>
        </extensions>
      </trkpt>
      <trkpt lat="43.45512681640684604644775390625" lon="1.44911237061023712158203125">
        <ele>192.399993896484375</ele>
        <time>2026-08-05T06:38:39.000Z</time>
        <extensions>
          <ns3:TrackPointExtension>
            <ns3:hr>97</ns3:hr>
            <ns3:cad>0</ns3:cad>
          </ns3:TrackPointExtension>
        </extensions>
      </trkpt>
      <trkpt lat="43.45512681640684604644775390625" lon="1.44911237061023712158203125">
        <ele>192.399993896484375</ele>
        <time>2026-08-05T06:38:40.000Z</time>
        <extensions>
          <ns3:TrackPointExtension>
            <ns3:hr>96</ns3:hr>
            <ns3:cad>0</ns3:cad>
          </ns3:TrackPointExtension>
        </extensions>
      </trkpt>
      <trkpt lat="43.45512681640684604644775390625" lon="1.44911237061023712158203125">
        <ele>192.399993896484375</ele>
        <time>2026-08-05T06:38:41.000Z</time>
        <extensions>
          <ns3:TrackPointExtension>
            <ns3:hr>96</ns3:hr>
            <ns3:cad>0</ns3:cad>
          </ns3:TrackPointExtension>
        </extensions>
      </trkpt>
      <trkpt lat="43.45512681640684604644775390625" lon="1.44911237061023712158203125">
        <ele>192.399993896484375</ele>
        <time>2026-08-05T06:38:42.000Z</time>
        <extensions>
          <ns3:TrackPointExtension>
            <ns3:hr>95</ns3:hr>
            <ns3:cad>0</ns3:cad>
          </ns3:TrackPointExtension>
        </extensions>
      </trkpt>
      <trkpt lat="43.45512681640684604644775390625" lon="1.44911237061023712158203125">
        <ele>192.399993896484375</ele>
        <time>2026-08-05T06:38:43.000Z</time>
        <extensions>
          <ns3:TrackPointExtension>
            <ns3:hr>94</ns3:hr>
            <ns3:cad>0</ns3:cad>
          </ns3:TrackPointExtension>
        </extensions>
      </trkpt>
      <trkpt lat="43.45512681640684604644775390625" lon="1.44911237061023712158203125">
        <ele>192.399993896484375</ele>
        <time>2026-08-05T06:38:44.000Z</time>
        <extensions>
          <ns3:TrackPointExtension>
            <ns3:hr>95</ns3:hr>
            <ns3:cad>0</ns3:cad>
          </ns3:TrackPointExtension>
        </extensions>
      </trkpt>
      <trkpt lat="43.45512681640684604644775390625" lon="1.44911237061023712158203125">
        <ele>192.399993896484375</ele>
        <time>2026-08-05T06:38:45.000Z</time>
        <extensions>
          <ns3:TrackPointExtension>
            <ns3:hr>95</ns3:hr>
            <ns3:cad>0</ns3:cad>
          </ns3:TrackPointExtension>
        </extensions>
      </trkpt>
      <trkpt lat="43.45512681640684604644775390625" lon="1.44911237061023712158203125">
        <ele>192.1999969482421875</ele>
        <time>2026-08-05T06:38:46.000Z</time>
        <extensions>
          <ns3:TrackPointExtension>
            <ns3:hr>94</ns3:hr>
            <ns3:cad>0</ns3:cad>
          </ns3:TrackPointExtension>
        </extensions>
      </trkpt>
      <trkpt lat="43.45512681640684604644775390625" lon="1.44911237061023712158203125">
        <ele>192.1999969482421875</ele>
        <time>2026-08-05T06:38:47.000Z</time>
        <extensions>
          <ns3:TrackPointExtension>
            <ns3:hr>94</ns3:hr>
            <ns3:cad>0</ns3:cad>
          </ns3:TrackPointExtension>
        </extensions>
      </trkpt>
      <trkpt lat="43.45512681640684604644775390625" lon="1.44911237061023712158203125">
        <ele>192.1999969482421875</ele>
        <time>2026-08-05T06:38:48.000Z</time>
        <extensions>
          <ns3:TrackPointExtension>
            <ns3:hr>94</ns3:hr>
            <ns3:cad>0</ns3:cad>
          </ns3:TrackPointExtension>
        </extensions>
      </trkpt>
      <trkpt lat="43.45512681640684604644775390625" lon="1.44911237061023712158203125">
        <ele>192.399993896484375</ele>
        <time>2026-08-05T06:38:49.000Z</time>
        <extensions>
          <ns3:TrackPointExtension>
            <ns3:hr>94</ns3:hr>
            <ns3:cad>0</ns3:cad>
          </ns3:TrackPointExtension>
        </extensions>
      </trkpt>
      <trkpt lat="43.45512681640684604644775390625" lon="1.44911237061023712158203125">
        <ele>192.399993896484375</ele>
        <time>2026-08-05T06:38:50.000Z</time>
        <extensions>
          <ns3:TrackPointExtension>
            <ns3:hr>94</ns3:hr>
            <ns3:cad>0</ns3:cad>
          </ns3:TrackPointExtension>
        </extensions>
      </trkpt>
      <trkpt lat="43.45512681640684604644775390625" lon="1.44911237061023712158203125">
        <ele>192.399993896484375</ele>
        <time>2026-08-05T06:38:51.000Z</time>
        <extensions>
          <ns3:TrackPointExtension>
            <ns3:hr>94</ns3:hr>
            <ns3:cad>0</ns3:cad>
          </ns3:TrackPointExtension>
        </extensions>
      </trkpt>
      <trkpt lat="43.45512681640684604644775390625" lon="1.44911237061023712158203125">
        <ele>192.399993896484375</ele>
        <time>2026-08-05T06:38:52.000Z</time>
        <extensions>
          <ns3:TrackPointExtension>
            <ns3:hr>94</ns3:hr>
            <ns3:cad>0</ns3:cad>
          </ns3:TrackPointExtension>
        </extensions>
      </trkpt>
      <trkpt lat="43.45512681640684604644775390625" lon="1.44911237061023712158203125">
        <ele>192.399993896484375</ele>
        <time>2026-08-05T06:38:53.000Z</time>
        <extensions>
          <ns3:TrackPointExtension>
            <ns3:hr>94</ns3:hr>
            <ns3:cad>0</ns3:cad>
          </ns3:TrackPointExtension>
        </extensions>
      </trkpt>
      <trkpt lat="43.45512681640684604644775390625" lon="1.44911237061023712158203125">
        <ele>192.399993896484375</ele>
        <time>2026-08-05T06:38:54.000Z</time>
        <extensions>
          <ns3:TrackPointExtension>
            <ns3:hr>93</ns3:hr>
            <ns3:cad>0</ns3:cad>
          </ns3:TrackPointExtension>
        </extensions>
      </trkpt>
      <trkpt lat="43.45512681640684604644775390625" lon="1.44911237061023712158203125">
        <ele>192.1999969482421875</ele>
        <time>2026-08-05T06:38:55.000Z</time>
        <extensions>
          <ns3:TrackPointExtension>
            <ns3:hr>93</ns3:hr>
            <ns3:cad>0</ns3:cad>
          </ns3:TrackPointExtension>
        </extensions>
      </trkpt>
      <trkpt lat="43.45512681640684604644775390625" lon="1.44911237061023712158203125">
        <ele>192.399993896484375</ele>
        <time>2026-08-05T06:38:56.000Z</time>
        <extensions>
          <ns3:TrackPointExtension>
            <ns3:hr>93</ns3:hr>
            <ns3:cad>0</ns3:cad>
          </ns3:TrackPointExtension>
        </extensions>
      </trkpt>
      <trkpt lat="43.45512681640684604644775390625" lon="1.44911237061023712158203125">
        <ele>192.399993896484375</ele>
        <time>2026-08-05T06:38:57.000Z</time>
        <extensions>
          <ns3:TrackPointExtension>
            <ns3:hr>93</ns3:hr>
            <ns3:cad>0</ns3:cad>
          </ns3:TrackPointExtension>
        </extensions>
      </trkpt>
      <trkpt lat="43.45512681640684604644775390625" lon="1.44911237061023712158203125">
        <ele>192.399993896484375</ele>
        <time>2026-08-05T06:38:58.000Z</time>
        <extensions>
          <ns3:TrackPointExtension>
            <ns3:hr>93</ns3:hr>
            <ns3:cad>0</ns3:cad>
          </ns3:TrackPointExtension>
        </extensions>
      </trkpt>
      <trkpt lat="43.45512681640684604644775390625" lon="1.44911237061023712158203125">
        <ele>192.600006103515625</ele>
        <time>2026-08-05T06:38:59.000Z</time>
        <extensions>
          <ns3:TrackPointExtension>
            <ns3:hr>93</ns3:hr>
            <ns3:cad>0</ns3:cad>
          </ns3:TrackPointExtension>
        </extensions>
      </trkpt>
      <trkpt lat="43.45512681640684604644775390625" lon="1.44911237061023712158203125">
        <ele>192.600006103515625</ele>
        <time>2026-08-05T06:39:00.000Z</time>
        <extensions>
          <ns3:TrackPointExtension>
            <ns3:hr>93</ns3:hr>
            <ns3:cad>0</ns3:cad>
          </ns3:TrackPointExtension>
        </extensions>
      </trkpt>
      <trkpt lat="43.45512681640684604644775390625" lon="1.44911237061023712158203125">
        <ele>192.600006103515625</ele>
        <time>2026-08-05T06:39:01.000Z</time>
        <extensions>
          <ns3:TrackPointExtension>
            <ns3:hr>93</ns3:hr>
            <ns3:cad>0</ns3:cad>
          </ns3:TrackPointExtension>
        </extensions>
      </trkpt>
      <trkpt lat="43.45512681640684604644775390625" lon="1.44911237061023712158203125">
        <ele>192.600006103515625</ele>
        <time>2026-08-05T06:39:02.000Z</time>
        <extensions>
          <ns3:TrackPointExtension>
            <ns3:hr>93</ns3:hr>
            <ns3:cad>0</ns3:cad>
          </ns3:TrackPointExtension>
        </extensions>
      </trkpt>
      <trkpt lat="43.45512681640684604644775390625" lon="1.44911237061023712158203125">
        <ele>192.600006103515625</ele>
        <time>2026-08-05T06:39:03.000Z</time>
        <extensions>
          <ns3:TrackPointExtension>
            <ns3:hr>93</ns3:hr>
            <ns3:cad>0</ns3:cad>
          </ns3:TrackPointExtension>
        </extensions>
      </trkpt>
      <trkpt lat="43.45512681640684604644775390625" lon="1.44911237061023712158203125">
        <ele>192.600006103515625</ele>
        <time>2026-08-05T06:39:04.000Z</time>
        <extensions>
          <ns3:TrackPointExtension>
            <ns3:hr>93</ns3:hr>
            <ns3:cad>0</ns3:cad>
          </ns3:TrackPointExtension>
        </extensions>
      </trkpt>
      <trkpt lat="43.45512681640684604644775390625" lon="1.44911237061023712158203125">
        <ele>192.600006103515625</ele>
        <time>2026-08-05T06:39:05.000Z</time>
        <extensions>
          <ns3:TrackPointExtension>
            <ns3:hr>92</ns3:hr>
            <ns3:cad>0</ns3:cad>
          </ns3:TrackPointExtension>
        </extensions>
      </trkpt>
      <trkpt lat="43.45512681640684604644775390625" lon="1.44911237061023712158203125">
        <ele>192.600006103515625</ele>
        <time>2026-08-05T06:39:06.000Z</time>
        <extensions>
          <ns3:TrackPointExtension>
            <ns3:hr>92</ns3:hr>
            <ns3:cad>0</ns3:cad>
          </ns3:TrackPointExtension>
        </extensions>
      </trkpt>
      <trkpt lat="43.45512681640684604644775390625" lon="1.44911237061023712158203125">
        <ele>192.600006103515625</ele>
        <time>2026-08-05T06:39:07.000Z</time>
        <extensions>
          <ns3:TrackPointExtension>
            <ns3:hr>92</ns3:hr>
            <ns3:cad>0</ns3:cad>
          </ns3:TrackPointExtension>
        </extensions>
      </trkpt>
      <trkpt lat="43.45512681640684604644775390625" lon="1.44911237061023712158203125">
        <ele>192.600006103515625</ele>
        <time>2026-08-05T06:39:08.000Z</time>
        <extensions>
          <ns3:TrackPointExtension>
            <ns3:hr>92</ns3:hr>
            <ns3:cad>0</ns3:cad>
          </ns3:TrackPointExtension>
        </extensions>
      </trkpt>
      <trkpt lat="43.45512681640684604644775390625" lon="1.44911237061023712158203125">
        <ele>192.600006103515625</ele>
        <time>2026-08-05T06:39:09.000Z</time>
        <extensions>
          <ns3:TrackPointExtension>
            <ns3:hr>92</ns3:hr>
            <ns3:cad>0</ns3:cad>
          </ns3:TrackPointExtension>
        </extensions>
      </trkpt>
      <trkpt lat="43.45512681640684604644775390625" lon="1.44911237061023712158203125">
        <ele>192.600006103515625</ele>
        <time>2026-08-05T06:39:10.000Z</time>
        <extensions>
          <ns3:TrackPointExtension>
            <ns3:hr>91</ns3:hr>
            <ns3:cad>0</ns3:cad>
          </ns3:TrackPointExtension>
        </extensions>
      </trkpt>
      <trkpt lat="43.45512681640684604644775390625" lon="1.44911237061023712158203125">
        <ele>192.600006103515625</ele>
        <time>2026-08-05T06:39:11.000Z</time>
        <extensions>
          <ns3:TrackPointExtension>
            <ns3:hr>91</ns3:hr>
            <ns3:cad>0</ns3:cad>
          </ns3:TrackPointExtension>
        </extensions>
      </trkpt>
      <trkpt lat="43.45512681640684604644775390625" lon="1.44911237061023712158203125">
        <ele>192.600006103515625</ele>
        <time>2026-08-05T06:39:12.000Z</time>
        <extensions>
          <ns3:TrackPointExtension>
            <ns3:hr>91</ns3:hr>
            <ns3:cad>0</ns3:cad>
          </ns3:TrackPointExtension>
        </extensions>
      </trkpt>
      <trkpt lat="43.45512681640684604644775390625" lon="1.44911237061023712158203125">
        <ele>192.600006103515625</ele>
        <time>2026-08-05T06:39:13.000Z</time>
        <extensions>
          <ns3:TrackPointExtension>
            <ns3:hr>90</ns3:hr>
            <ns3:cad>0</ns3:cad>
          </ns3:TrackPointExtension>
        </extensions>
      </trkpt>
      <trkpt lat="43.45512681640684604644775390625" lon="1.44911237061023712158203125">
        <ele>192.600006103515625</ele>
        <time>2026-08-05T06:39:14.000Z</time>
        <extensions>
          <ns3:TrackPointExtension>
            <ns3:hr>90</ns3:hr>
            <ns3:cad>0</ns3:cad>
          </ns3:TrackPointExtension>
        </extensions>
      </trkpt>
      <trkpt lat="43.45512681640684604644775390625" lon="1.44911237061023712158203125">
        <ele>192.600006103515625</ele>
        <time>2026-08-05T06:39:15.000Z</time>
        <extensions>
          <ns3:TrackPointExtension>
            <ns3:hr>89</ns3:hr>
            <ns3:cad>0</ns3:cad>
          </ns3:TrackPointExtension>
        </extensions>
      </trkpt>
      <trkpt lat="43.45512681640684604644775390625" lon="1.44911237061023712158203125">
        <ele>192.600006103515625</ele>
        <time>2026-08-05T06:39:16.000Z</time>
        <extensions>
          <ns3:TrackPointExtension>
            <ns3:hr>89</ns3:hr>
            <ns3:cad>0</ns3:cad>
          </ns3:TrackPointExtension>
        </extensions>
      </trkpt>
      <trkpt lat="43.45512681640684604644775390625" lon="1.44911237061023712158203125">
        <ele>192.600006103515625</ele>
        <time>2026-08-05T06:39:17.000Z</time>
        <extensions>
          <ns3:TrackPointExtension>
            <ns3:hr>88</ns3:hr>
            <ns3:cad>0</ns3:cad>
          </ns3:TrackPointExtension>
        </extensions>
      </trkpt>
      <trkpt lat="43.45512681640684604644775390625" lon="1.44911237061023712158203125">
        <ele>192.600006103515625</ele>
        <time>2026-08-05T06:39:18.000Z</time>
        <extensions>
          <ns3:TrackPointExtension>
            <ns3:hr>88</ns3:hr>
            <ns3:cad>0</ns3:cad>
          </ns3:TrackPointExtension>
        </extensions>
      </trkpt>
      <trkpt lat="43.45512681640684604644775390625" lon="1.44911237061023712158203125">
        <ele>192.600006103515625</ele>
        <time>2026-08-05T06:39:19.000Z</time>
        <extensions>
          <ns3:TrackPointExtension>
            <ns3:hr>88</ns3:hr>
            <ns3:cad>0</ns3:cad>
          </ns3:TrackPointExtension>
        </extensions>
      </trkpt>
      <trkpt lat="43.45512681640684604644775390625" lon="1.44911237061023712158203125">
        <ele>192.600006103515625</ele>
        <time>2026-08-05T06:39:20.000Z</time>
        <extensions>
          <ns3:TrackPointExtension>
            <ns3:hr>87</ns3:hr>
            <ns3:cad>0</ns3:cad>
          </ns3:TrackPointExtension>
        </extensions>
      </trkpt>
      <trkpt lat="43.4551309235394001007080078125" lon="1.449112035334110260009765625">
        <ele>192.600006103515625</ele>
        <time>2026-08-05T06:39:21.000Z</time>
        <extensions>
          <ns3:TrackPointExtension>
            <ns3:hr>87</ns3:hr>
            <ns3:cad>0</ns3:cad>
          </ns3:TrackPointExtension>
        </extensions>
      </trkpt>
      <trkpt lat="43.45513285137712955474853515625" lon="1.44910910166800022125244140625">
        <ele>192.600006103515625</ele>
        <time>2026-08-05T06:39:22.000Z</time>
        <extensions>
          <ns3:TrackPointExtension>
            <ns3:hr>87</ns3:hr>
            <ns3:cad>0</ns3:cad>
          </ns3:TrackPointExtension>
        </extensions>
      </trkpt>
      <trkpt lat="43.45512681640684604644775390625" lon="1.44911237061023712158203125">
        <ele>192.600006103515625</ele>
        <time>2026-08-05T06:39:23.000Z</time>
        <extensions>
          <ns3:TrackPointExtension>
            <ns3:hr>86</ns3:hr>
            <ns3:cad>0</ns3:cad>
          </ns3:TrackPointExtension>
        </extensions>
      </trkpt>
      <trkpt lat="43.45512681640684604644775390625" lon="1.44911237061023712158203125">
        <ele>192.600006103515625</ele>
        <time>2026-08-05T06:39:24.000Z</time>
        <extensions>
          <ns3:TrackPointExtension>
            <ns3:hr>86</ns3:hr>
            <ns3:cad>0</ns3:cad>
          </ns3:TrackPointExtension>
        </extensions>
      </trkpt>
      <trkpt lat="43.45512681640684604644775390625" lon="1.44911237061023712158203125">
        <ele>192.600006103515625</ele>
        <time>2026-08-05T06:39:25.000Z</time>
        <extensions>
          <ns3:TrackPointExtension>
            <ns3:hr>85</ns3:hr>
            <ns3:cad>0</ns3:cad>
          </ns3:TrackPointExtension>
        </extensions>
      </trkpt>
      <trkpt lat="43.45512681640684604644775390625" lon="1.44911237061023712158203125">
        <ele>192.600006103515625</ele>
        <time>2026-08-05T06:39:26.000Z</time>
        <extensions>
          <ns3:TrackPointExtension>
            <ns3:hr>82</ns3:hr>
            <ns3:cad>0</ns3:cad>
          </ns3:TrackPointExtension>
        </extensions>
      </trkpt>
      <trkpt lat="43.45512681640684604644775390625" lon="1.44911237061023712158203125">
        <ele>192.399993896484375</ele>
        <time>2026-08-05T06:39:27.000Z</time>
        <extensions>
          <ns3:TrackPointExtension>
            <ns3:hr>81</ns3:hr>
            <ns3:cad>0</ns3:cad>
          </ns3:TrackPointExtension>
        </extensions>
      </trkpt>
      <trkpt lat="43.45512681640684604644775390625" lon="1.44911237061023712158203125">
        <ele>192.399993896484375</ele>
        <time>2026-08-05T06:39:28.000Z</time>
        <extensions>
          <ns3:TrackPointExtension>
            <ns3:hr>79</ns3:hr>
            <ns3:cad>0</ns3:cad>
          </ns3:TrackPointExtension>
        </extensions>
      </trkpt>
      <trkpt lat="43.45512681640684604644775390625" lon="1.44911237061023712158203125">
        <ele>192.399993896484375</ele>
        <time>2026-08-05T06:39:29.000Z</time>
        <extensions>
          <ns3:TrackPointExtension>
            <ns3:hr>79</ns3:hr>
            <ns3:cad>0</ns3:cad>
          </ns3:TrackPointExtension>
        </extensions>
      </trkpt>
      <trkpt lat="43.45512681640684604644775390625" lon="1.44911237061023712158203125">
        <ele>192.399993896484375</ele>
        <time>2026-08-05T06:39:30.000Z</time>
        <extensions>
          <ns3:TrackPointExtension>
            <ns3:hr>78</ns3:hr>
            <ns3:cad>0</ns3:cad>
          </ns3:TrackPointExtension>
        </extensions>
      </trkpt>
      <trkpt lat="43.45512681640684604644775390625" lon="1.44911237061023712158203125">
        <ele>192.600006103515625</ele>
        <time>2026-08-05T06:39:31.000Z</time>
        <extensions>
          <ns3:TrackPointExtension>
            <ns3:hr>76</ns3:hr>
            <ns3:cad>0</ns3:cad>
          </ns3:TrackPointExtension>
        </extensions>
      </trkpt>
      <trkpt lat="43.45512681640684604644775390625" lon="1.44911237061023712158203125">
        <ele>192.600006103515625</ele>
        <time>2026-08-05T06:39:32.000Z</time>
        <extensions>
          <ns3:TrackPointExtension>
            <ns3:hr>75</ns3:hr>
            <ns3:cad>0</ns3:cad>
          </ns3:TrackPointExtension>
        </extensions>
      </trkpt>
      <trkpt lat="43.45512681640684604644775390625" lon="1.44911237061023712158203125">
        <ele>192.600006103515625</ele>
        <time>2026-08-05T06:39:33.000Z</time>
        <extensions>
          <ns3:TrackPointExtension>
            <ns3:hr>74</ns3:hr>
            <ns3:cad>0</ns3:cad>
          </ns3:TrackPointExtension>
        </extensions>
      </trkpt>
      <trkpt lat="43.45512681640684604644775390625" lon="1.44911237061023712158203125">
        <ele>192.600006103515625</ele>
        <time>2026-08-05T06:39:34.000Z</time>
        <extensions>
          <ns3:TrackPointExtension>
            <ns3:hr>73</ns3:hr>
            <ns3:cad>0</ns3:cad>
          </ns3:TrackPointExtension>
        </extensions>
      </trkpt>
      <trkpt lat="43.45512681640684604644775390625" lon="1.44911237061023712158203125">
        <ele>192.600006103515625</ele>
        <time>2026-08-05T06:39:35.000Z</time>
        <extensions>
          <ns3:TrackPointExtension>
            <ns3:hr>72</ns3:hr>
            <ns3:cad>0</ns3:cad>
          </ns3:TrackPointExtension>
        </extensions>
      </trkpt>
      <trkpt lat="43.45512681640684604644775390625" lon="1.44911237061023712158203125">
        <ele>192.600006103515625</ele>
        <time>2026-08-05T06:39:36.000Z</time>
        <extensions>
          <ns3:TrackPointExtension>
            <ns3:hr>71</ns3:hr>
            <ns3:cad>0</ns3:cad>
          </ns3:TrackPointExtension>
        </extensions>
      </trkpt>
      <trkpt lat="43.45512681640684604644775390625" lon="1.44911237061023712158203125">
        <ele>192.600006103515625</ele>
        <time>2026-08-05T06:39:37.000Z</time>
        <extensions>
          <ns3:TrackPointExtension>
            <ns3:hr>66</ns3:hr>
            <ns3:cad>0</ns3:cad>
          </ns3:TrackPointExtension>
        </extensions>
      </trkpt>
      <trkpt lat="43.45512681640684604644775390625" lon="1.44911237061023712158203125">
        <ele>192.600006103515625</ele>
        <time>2026-08-05T06:39:38.000Z</time>
        <extensions>
          <ns3:TrackPointExtension>
            <ns3:hr>64</ns3:hr>
            <ns3:cad>0</ns3:cad>
          </ns3:TrackPointExtension>
        </extensions>
      </trkpt>
      <trkpt lat="43.45512681640684604644775390625" lon="1.44911237061023712158203125">
        <ele>192.600006103515625</ele>
        <time>2026-08-05T06:39:39.000Z</time>
        <extensions>
          <ns3:TrackPointExtension>
            <ns3:hr>63</ns3:hr>
            <ns3:cad>0</ns3:cad>
          </ns3:TrackPointExtension>
        </extensions>
      </trkpt>
      <trkpt lat="43.45512681640684604644775390625" lon="1.44911237061023712158203125">
        <ele>192.600006103515625</ele>
        <time>2026-08-05T06:39:40.000Z</time>
        <extensions>
          <ns3:TrackPointExtension>
            <ns3:hr>63</ns3:hr>
            <ns3:cad>0</ns3:cad>
          </ns3:TrackPointExtension>
        </extensions>
      </trkpt>
      <trkpt lat="43.45512681640684604644775390625" lon="1.44911237061023712158203125">
        <ele>192.600006103515625</ele>
        <time>2026-08-05T06:39:41.000Z</time>
        <extensions>
          <ns3:TrackPointExtension>
            <ns3:hr>63</ns3:hr>
            <ns3:cad>0</ns3:cad>
          </ns3:TrackPointExtension>
        </extensions>
      </trkpt>
      <trkpt lat="43.45512681640684604644775390625" lon="1.44911237061023712158203125">
        <ele>192.600006103515625</ele>
        <time>2026-08-05T06:39:42.000Z</time>
        <extensions>
          <ns3:TrackPointExtension>
            <ns3:hr>62</ns3:hr>
            <ns3:cad>0</ns3:cad>
          </ns3:TrackPointExtension>
        </extensions>
      </trkpt>
      <trkpt lat="43.45512681640684604644775390625" lon="1.44911237061023712158203125">
        <ele>192.600006103515625</ele>
        <time>2026-08-05T06:39:43.000Z</time>
        <extensions>
          <ns3:TrackPointExtension>
            <ns3:hr>62</ns3:hr>
            <ns3:cad>0</ns3:cad>
          </ns3:TrackPointExtension>
        </extensions>
      </trkpt>
      <trkpt lat="43.45512681640684604644775390625" lon="1.44911237061023712158203125">
        <ele>192.600006103515625</ele>
        <time>2026-08-05T06:39:44.000Z</time>
        <extensions>
          <ns3:TrackPointExtension>
            <ns3:hr>62</ns3:hr>
            <ns3:cad>0</ns3:cad>
          </ns3:TrackPointExtension>
        </extensions>
      </trkpt>
      <trkpt lat="43.45512681640684604644775390625" lon="1.44911237061023712158203125">
        <ele>192.600006103515625</ele>
        <time>2026-08-05T06:39:45.000Z</time>
        <extensions>
          <ns3:TrackPointExtension>
            <ns3:hr>62</ns3:hr>
            <ns3:cad>0</ns3:cad>
          </ns3:TrackPointExtension>
        </extensions>
      </trkpt>
      <trkpt lat="43.45512681640684604644775390625" lon="1.44911237061023712158203125">
        <ele>192.600006103515625</ele>
        <time>2026-08-05T06:39:46.000Z</time>
        <extensions>
          <ns3:TrackPointExtension>
            <ns3:hr>62</ns3:hr>
            <ns3:cad>0</ns3:cad>
          </ns3:TrackPointExtension>
        </extensions>
      </trkpt>
      <trkpt lat="43.45512681640684604644775390625" lon="1.44911237061023712158203125">
        <ele>192.600006103515625</ele>
        <time>2026-08-05T06:39:47.000Z</time>
        <extensions>
          <ns3:TrackPointExtension>
            <ns3:hr>62</ns3:hr>
            <ns3:cad>0</ns3:cad>
          </ns3:TrackPointExtension>
        </extensions>
      </trkpt>
      <trkpt lat="43.45512681640684604644775390625" lon="1.44911237061023712158203125">
        <ele>192.600006103515625</ele>
        <time>2026-08-05T06:39:48.000Z</time>
        <extensions>
          <ns3:TrackPointExtension>
            <ns3:hr>62</ns3:hr>
            <ns3:cad>0</ns3:cad>
          </ns3:TrackPointExtension>
        </extensions>
      </trkpt>
      <trkpt lat="43.45512681640684604644775390625" lon="1.44911237061023712158203125">
        <ele>192.600006103515625</ele>
        <time>2026-08-05T06:39:49.000Z</time>
        <extensions>
          <ns3:TrackPointExtension>
            <ns3:hr>62</ns3:hr>
            <ns3:cad>0</ns3:cad>
          </ns3:TrackPointExtension>
        </extensions>
      </trkpt>
      <trkpt lat="43.45512681640684604644775390625" lon="1.44911237061023712158203125">
        <ele>192.600006103515625</ele>
        <time>2026-08-05T06:39:50.000Z</time>
        <extensions>
          <ns3:TrackPointExtension>
            <ns3:hr>63</ns3:hr>
            <ns3:cad>0</ns3:cad>
          </ns3:TrackPointExtension>
        </extensions>
      </trkpt>
      <trkpt lat="43.45512681640684604644775390625" lon="1.44911237061023712158203125">
        <ele>192.600006103515625</ele>
        <time>2026-08-05T06:39:51.000Z</time>
        <extensions>
          <ns3:TrackPointExtension>
            <ns3:hr>63</ns3:hr>
            <ns3:cad>0</ns3:cad>
          </ns3:TrackPointExtension>
        </extensions>
      </trkpt>
      <trkpt lat="43.45512681640684604644775390625" lon="1.44911237061023712158203125">
        <ele>192.8000030517578125</ele>
        <time>2026-08-05T06:39:52.000Z</time>
        <extensions>
          <ns3:TrackPointExtension>
            <ns3:hr>63</ns3:hr>
            <ns3:cad>0</ns3:cad>
          </ns3:TrackPointExtension>
        </extensions>
      </trkpt>
      <trkpt lat="43.45512681640684604644775390625" lon="1.44911237061023712158203125">
        <ele>192.8000030517578125</ele>
        <time>2026-08-05T06:39:53.000Z</time>
        <extensions>
          <ns3:TrackPointExtension>
            <ns3:hr>63</ns3:hr>
            <ns3:cad>0</ns3:cad>
          </ns3:TrackPointExtension>
        </extensions>
      </trkpt>
      <trkpt lat="43.45512681640684604644775390625" lon="1.44911237061023712158203125">
        <ele>192.600006103515625</ele>
        <time>2026-08-05T06:39:54.000Z</time>
        <extensions>
          <ns3:TrackPointExtension>
            <ns3:hr>63</ns3:hr>
            <ns3:cad>0</ns3:cad>
          </ns3:TrackPointExtension>
        </extensions>
      </trkpt>
      <trkpt lat="43.45512681640684604644775390625" lon="1.44911237061023712158203125">
        <ele>192.600006103515625</ele>
        <time>2026-08-05T06:39:55.000Z</time>
        <extensions>
          <ns3:TrackPointExtension>
            <ns3:hr>63</ns3:hr>
            <ns3:cad>0</ns3:cad>
          </ns3:TrackPointExtension>
        </extensions>
      </trkpt>
      <trkpt lat="43.45512681640684604644775390625" lon="1.44911237061023712158203125">
        <ele>192.600006103515625</ele>
        <time>2026-08-05T06:39:56.000Z</time>
        <extensions>
          <ns3:TrackPointExtension>
            <ns3:hr>62</ns3:hr>
            <ns3:cad>0</ns3:cad>
          </ns3:TrackPointExtension>
        </extensions>
      </trkpt>
      <trkpt lat="43.45512681640684604644775390625" lon="1.44911237061023712158203125">
        <ele>192.399993896484375</ele>
        <time>2026-08-05T06:39:57.000Z</time>
        <extensions>
          <ns3:TrackPointExtension>
            <ns3:hr>63</ns3:hr>
            <ns3:cad>0</ns3:cad>
          </ns3:TrackPointExtension>
        </extensions>
      </trkpt>
      <trkpt lat="43.45512681640684604644775390625" lon="1.44911237061023712158203125">
        <ele>192.399993896484375</ele>
        <time>2026-08-05T06:39:58.000Z</time>
        <extensions>
          <ns3:TrackPointExtension>
            <ns3:hr>63</ns3:hr>
            <ns3:cad>0</ns3:cad>
          </ns3:TrackPointExtension>
        </extensions>
      </trkpt>
      <trkpt lat="43.45512681640684604644775390625" lon="1.44911237061023712158203125">
        <ele>192.399993896484375</ele>
        <time>2026-08-05T06:39:59.000Z</time>
        <extensions>
          <ns3:TrackPointExtension>
            <ns3:hr>63</ns3:hr>
            <ns3:cad>0</ns3:cad>
          </ns3:TrackPointExtension>
        </extensions>
      </trkpt>
      <trkpt lat="43.45512681640684604644775390625" lon="1.44911237061023712158203125">
        <ele>192.399993896484375</ele>
        <time>2026-08-05T06:40:00.000Z</time>
        <extensions>
          <ns3:TrackPointExtension>
            <ns3:hr>63</ns3:hr>
            <ns3:cad>0</ns3:cad>
          </ns3:TrackPointExtension>
        </extensions>
      </trkpt>
      <trkpt lat="43.45512681640684604644775390625" lon="1.44911237061023712158203125">
        <ele>192.399993896484375</ele>
        <time>2026-08-05T06:40:01.000Z</time>
        <extensions>
          <ns3:TrackPointExtension>
            <ns3:hr>63</ns3:hr>
            <ns3:cad>0</ns3:cad>
          </ns3:TrackPointExtension>
        </extensions>
      </trkpt>
      <trkpt lat="43.45512681640684604644775390625" lon="1.44911237061023712158203125">
        <ele>192.399993896484375</ele>
        <time>2026-08-05T06:40:02.000Z</time>
        <extensions>
          <ns3:TrackPointExtension>
            <ns3:hr>63</ns3:hr>
            <ns3:cad>0</ns3:cad>
          </ns3:TrackPointExtension>
        </extensions>
      </trkpt>
      <trkpt lat="43.45512681640684604644775390625" lon="1.44911237061023712158203125">
        <ele>192.399993896484375</ele>
        <time>2026-08-05T06:40:03.000Z</time>
        <extensions>
          <ns3:TrackPointExtension>
            <ns3:hr>63</ns3:hr>
            <ns3:cad>0</ns3:cad>
          </ns3:TrackPointExtension>
        </extensions>
      </trkpt>
      <trkpt lat="43.45512681640684604644775390625" lon="1.44911237061023712158203125">
        <ele>192.600006103515625</ele>
        <time>2026-08-05T06:40:04.000Z</time>
        <extensions>
          <ns3:TrackPointExtension>
            <ns3:hr>62</ns3:hr>
            <ns3:cad>0</ns3:cad>
          </ns3:TrackPointExtension>
        </extensions>
      </trkpt>
      <trkpt lat="43.45512681640684604644775390625" lon="1.44911237061023712158203125">
        <ele>192.600006103515625</ele>
        <time>2026-08-05T06:40:05.000Z</time>
        <extensions>
          <ns3:TrackPointExtension>
            <ns3:hr>62</ns3:hr>
            <ns3:cad>0</ns3:cad>
          </ns3:TrackPointExtension>
        </extensions>
      </trkpt>
      <trkpt lat="43.45512681640684604644775390625" lon="1.44911237061023712158203125">
        <ele>192.600006103515625</ele>
        <time>2026-08-05T06:40:06.000Z</time>
        <extensions>
          <ns3:TrackPointExtension>
            <ns3:hr>60</ns3:hr>
            <ns3:cad>0</ns3:cad>
          </ns3:TrackPointExtension>
        </extensions>
      </trkpt>
      <trkpt lat="43.45512681640684604644775390625" lon="1.44911237061023712158203125">
        <ele>192.8000030517578125</ele>
        <time>2026-08-05T06:40:07.000Z</time>
        <extensions>
          <ns3:TrackPointExtension>
            <ns3:hr>60</ns3:hr>
            <ns3:cad>0</ns3:cad>
          </ns3:TrackPointExtension>
        </extensions>
      </trkpt>
      <trkpt lat="43.45512681640684604644775390625" lon="1.44911237061023712158203125">
        <ele>192.8000030517578125</ele>
        <time>2026-08-05T06:40:08.000Z</time>
        <extensions>
          <ns3:TrackPointExtension>
            <ns3:hr>61</ns3:hr>
            <ns3:cad>0</ns3:cad>
          </ns3:TrackPointExtension>
        </extensions>
      </trkpt>
      <trkpt lat="43.45512681640684604644775390625" lon="1.44911237061023712158203125">
        <ele>192.8000030517578125</ele>
        <time>2026-08-05T06:40:09.000Z</time>
        <extensions>
          <ns3:TrackPointExtension>
            <ns3:hr>61</ns3:hr>
            <ns3:cad>0</ns3:cad>
          </ns3:TrackPointExtension>
        </extensions>
      </trkpt>
      <trkpt lat="43.45512681640684604644775390625" lon="1.44911237061023712158203125">
        <ele>192.8000030517578125</ele>
        <time>2026-08-05T06:40:10.000Z</time>
        <extensions>
          <ns3:TrackPointExtension>
            <ns3:hr>61</ns3:hr>
            <ns3:cad>0</ns3:cad>
          </ns3:TrackPointExtension>
        </extensions>
      </trkpt>
      <trkpt lat="43.45512681640684604644775390625" lon="1.44911237061023712158203125">
        <ele>192.8000030517578125</ele>
        <time>2026-08-05T06:40:11.000Z</time>
        <extensions>
          <ns3:TrackPointExtension>
            <ns3:hr>61</ns3:hr>
            <ns3:cad>0</ns3:cad>
          </ns3:TrackPointExtension>
        </extensions>
      </trkpt>
      <trkpt lat="43.45512681640684604644775390625" lon="1.44911237061023712158203125">
        <ele>192.600006103515625</ele>
        <time>2026-08-05T06:40:12.000Z</time>
        <extensions>
          <ns3:TrackPointExtension>
            <ns3:hr>62</ns3:hr>
            <ns3:cad>0</ns3:cad>
          </ns3:TrackPointExtension>
        </extensions>
      </trkpt>
      <trkpt lat="43.45512681640684604644775390625" lon="1.44911237061023712158203125">
        <ele>192.600006103515625</ele>
        <time>2026-08-05T06:40:13.000Z</time>
        <extensions>
          <ns3:TrackPointExtension>
            <ns3:hr>61</ns3:hr>
            <ns3:cad>0</ns3:cad>
          </ns3:TrackPointExtension>
        </extensions>
      </trkpt>
      <trkpt lat="43.45512681640684604644775390625" lon="1.44911237061023712158203125">
        <ele>192.600006103515625</ele>
        <time>2026-08-05T06:40:14.000Z</time>
        <extensions>
          <ns3:TrackPointExtension>
            <ns3:hr>61</ns3:hr>
            <ns3:cad>0</ns3:cad>
          </ns3:TrackPointExtension>
        </extensions>
      </trkpt>
      <trkpt lat="43.45512681640684604644775390625" lon="1.44911237061023712158203125">
        <ele>192.600006103515625</ele>
        <time>2026-08-05T06:40:15.000Z</time>
        <extensions>
          <ns3:TrackPointExtension>
            <ns3:hr>64</ns3:hr>
            <ns3:cad>0</ns3:cad>
          </ns3:TrackPointExtension>
        </extensions>
      </trkpt>
      <trkpt lat="43.45512681640684604644775390625" lon="1.44911237061023712158203125">
        <ele>192.600006103515625</ele>
        <time>2026-08-05T06:40:16.000Z</time>
        <extensions>
          <ns3:TrackPointExtension>
            <ns3:hr>65</ns3:hr>
            <ns3:cad>0</ns3:cad>
          </ns3:TrackPointExtension>
        </extensions>
      </trkpt>
      <trkpt lat="43.45512681640684604644775390625" lon="1.44911237061023712158203125">
        <ele>192.600006103515625</ele>
        <time>2026-08-05T06:40:17.000Z</time>
        <extensions>
          <ns3:TrackPointExtension>
            <ns3:hr>66</ns3:hr>
            <ns3:cad>0</ns3:cad>
          </ns3:TrackPointExtension>
        </extensions>
      </trkpt>
      <trkpt lat="43.45512681640684604644775390625" lon="1.44911237061023712158203125">
        <ele>192.600006103515625</ele>
        <time>2026-08-05T06:40:18.000Z</time>
        <extensions>
          <ns3:TrackPointExtension>
            <ns3:hr>66</ns3:hr>
            <ns3:cad>0</ns3:cad>
          </ns3:TrackPointExtension>
        </extensions>
      </trkpt>
      <trkpt lat="43.45512681640684604644775390625" lon="1.44911237061023712158203125">
        <ele>192.600006103515625</ele>
        <time>2026-08-05T06:40:19.000Z</time>
        <extensions>
          <ns3:TrackPointExtension>
            <ns3:hr>66</ns3:hr>
            <ns3:cad>0</ns3:cad>
          </ns3:TrackPointExtension>
        </extensions>
      </trkpt>
      <trkpt lat="43.45512681640684604644775390625" lon="1.44911237061023712158203125">
        <ele>192.600006103515625</ele>
        <time>2026-08-05T06:40:20.000Z</time>
        <extensions>
          <ns3:TrackPointExtension>
            <ns3:hr>66</ns3:hr>
            <ns3:cad>0</ns3:cad>
          </ns3:TrackPointExtension>
        </extensions>
      </trkpt>
      <trkpt lat="43.45512681640684604644775390625" lon="1.44911237061023712158203125">
        <ele>192.600006103515625</ele>
        <time>2026-08-05T06:40:21.000Z</time>
        <extensions>
          <ns3:TrackPointExtension>
            <ns3:hr>66</ns3:hr>
            <ns3:cad>0</ns3:cad>
          </ns3:TrackPointExtension>
        </extensions>
      </trkpt>
      <trkpt lat="43.45512681640684604644775390625" lon="1.44911237061023712158203125">
        <ele>192.600006103515625</ele>
        <time>2026-08-05T06:40:22.000Z</time>
        <extensions>
          <ns3:TrackPointExtension>
            <ns3:hr>65</ns3:hr>
            <ns3:cad>0</ns3:cad>
          </ns3:TrackPointExtension>
        </extensions>
      </trkpt>
      <trkpt lat="43.45512681640684604644775390625" lon="1.44911237061023712158203125">
        <ele>192.600006103515625</ele>
        <time>2026-08-05T06:40:23.000Z</time>
        <extensions>
          <ns3:TrackPointExtension>
            <ns3:hr>64</ns3:hr>
            <ns3:cad>0</ns3:cad>
          </ns3:TrackPointExtension>
        </extensions>
      </trkpt>
      <trkpt lat="43.45512681640684604644775390625" lon="1.44911237061023712158203125">
        <ele>192.600006103515625</ele>
        <time>2026-08-05T06:40:24.000Z</time>
        <extensions>
          <ns3:TrackPointExtension>
            <ns3:hr>62</ns3:hr>
            <ns3:cad>0</ns3:cad>
          </ns3:TrackPointExtension>
        </extensions>
      </trkpt>
      <trkpt lat="43.45512681640684604644775390625" lon="1.44911237061023712158203125">
        <ele>192.600006103515625</ele>
        <time>2026-08-05T06:40:25.000Z</time>
        <extensions>
          <ns3:TrackPointExtension>
            <ns3:hr>63</ns3:hr>
            <ns3:cad>0</ns3:cad>
          </ns3:TrackPointExtension>
        </extensions>
      </trkpt>
      <trkpt lat="43.45512681640684604644775390625" lon="1.44911237061023712158203125">
        <ele>192.600006103515625</ele>
        <time>2026-08-05T06:40:26.000Z</time>
        <extensions>
          <ns3:TrackPointExtension>
            <ns3:hr>63</ns3:hr>
            <ns3:cad>0</ns3:cad>
          </ns3:TrackPointExtension>
        </extensions>
      </trkpt>
      <trkpt lat="43.45512681640684604644775390625" lon="1.44911237061023712158203125">
        <ele>192.600006103515625</ele>
        <time>2026-08-05T06:40:27.000Z</time>
        <extensions>
          <ns3:TrackPointExtension>
            <ns3:hr>63</ns3:hr>
            <ns3:cad>0</ns3:cad>
          </ns3:TrackPointExtension>
        </extensions>
      </trkpt>
      <trkpt lat="43.45512681640684604644775390625" lon="1.44911237061023712158203125">
        <ele>192.600006103515625</ele>
        <time>2026-08-05T06:40:28.000Z</time>
        <extensions>
          <ns3:TrackPointExtension>
            <ns3:hr>63</ns3:hr>
            <ns3:cad>0</ns3:cad>
          </ns3:TrackPointExtension>
        </extensions>
      </trkpt>
      <trkpt lat="43.45512681640684604644775390625" lon="1.44911237061023712158203125">
        <ele>192.600006103515625</ele>
        <time>2026-08-05T06:40:29.000Z</time>
        <extensions>
          <ns3:TrackPointExtension>
            <ns3:hr>64</ns3:hr>
            <ns3:cad>0</ns3:cad>
          </ns3:TrackPointExtension>
        </extensions>
      </trkpt>
      <trkpt lat="43.45512681640684604644775390625" lon="1.44911237061023712158203125">
        <ele>192.600006103515625</ele>
        <time>2026-08-05T06:40:30.000Z</time>
        <extensions>
          <ns3:TrackPointExtension>
            <ns3:hr>63</ns3:hr>
            <ns3:cad>0</ns3:cad>
          </ns3:TrackPointExtension>
        </extensions>
      </trkpt>
      <trkpt lat="43.45512681640684604644775390625" lon="1.44911237061023712158203125">
        <ele>192.600006103515625</ele>
        <time>2026-08-05T06:40:31.000Z</time>
        <extensions>
          <ns3:TrackPointExtension>
            <ns3:hr>63</ns3:hr>
            <ns3:cad>0</ns3:cad>
          </ns3:TrackPointExtension>
        </extensions>
      </trkpt>
      <trkpt lat="43.45512681640684604644775390625" lon="1.44911237061023712158203125">
        <ele>192.600006103515625</ele>
        <time>2026-08-05T06:40:32.000Z</time>
        <extensions>
          <ns3:TrackPointExtension>
            <ns3:hr>62</ns3:hr>
            <ns3:cad>0</ns3:cad>
          </ns3:TrackPointExtension>
        </extensions>
      </trkpt>
      <trkpt lat="43.45512681640684604644775390625" lon="1.44911237061023712158203125">
        <ele>192.600006103515625</ele>
        <time>2026-08-05T06:40:33.000Z</time>
        <extensions>
          <ns3:TrackPointExtension>
            <ns3:hr>62</ns3:hr>
            <ns3:cad>0</ns3:cad>
          </ns3:TrackPointExtension>
        </extensions>
      </trkpt>
      <trkpt lat="43.45512681640684604644775390625" lon="1.44911237061023712158203125">
        <ele>192.600006103515625</ele>
        <time>2026-08-05T06:40:34.000Z</time>
        <extensions>
          <ns3:TrackPointExtension>
            <ns3:hr>61</ns3:hr>
            <ns3:cad>0</ns3:cad>
          </ns3:TrackPointExtension>
        </extensions>
      </trkpt>
      <trkpt lat="43.45512681640684604644775390625" lon="1.44911237061023712158203125">
        <ele>192.600006103515625</ele>
        <time>2026-08-05T06:40:35.000Z</time>
        <extensions>
          <ns3:TrackPointExtension>
            <ns3:hr>59</ns3:hr>
            <ns3:cad>0</ns3:cad>
          </ns3:TrackPointExtension>
        </extensions>
      </trkpt>
      <trkpt lat="43.45512681640684604644775390625" lon="1.44911237061023712158203125">
        <ele>192.600006103515625</ele>
        <time>2026-08-05T06:40:36.000Z</time>
        <extensions>
          <ns3:TrackPointExtension>
            <ns3:hr>58</ns3:hr>
            <ns3:cad>0</ns3:cad>
          </ns3:TrackPointExtension>
        </extensions>
      </trkpt>
      <trkpt lat="43.45512681640684604644775390625" lon="1.44911237061023712158203125">
        <ele>192.600006103515625</ele>
        <time>2026-08-05T06:40:37.000Z</time>
        <extensions>
          <ns3:TrackPointExtension>
            <ns3:hr>57</ns3:hr>
            <ns3:cad>0</ns3:cad>
          </ns3:TrackPointExtension>
        </extensions>
      </trkpt>
      <trkpt lat="43.45512681640684604644775390625" lon="1.44911237061023712158203125">
        <ele>192.600006103515625</ele>
        <time>2026-08-05T06:40:38.000Z</time>
        <extensions>
          <ns3:TrackPointExtension>
            <ns3:hr>56</ns3:hr>
            <ns3:cad>0</ns3:cad>
          </ns3:TrackPointExtension>
        </extensions>
      </trkpt>
      <trkpt lat="43.45512681640684604644775390625" lon="1.44911237061023712158203125">
        <ele>192.8000030517578125</ele>
        <time>2026-08-05T06:40:39.000Z</time>
        <extensions>
          <ns3:TrackPointExtension>
            <ns3:hr>56</ns3:hr>
            <ns3:cad>0</ns3:cad>
          </ns3:TrackPointExtension>
        </extensions>
      </trkpt>
      <trkpt lat="43.45512681640684604644775390625" lon="1.44911237061023712158203125">
        <ele>192.8000030517578125</ele>
        <time>2026-08-05T06:40:40.000Z</time>
        <extensions>
          <ns3:TrackPointExtension>
            <ns3:hr>57</ns3:hr>
            <ns3:cad>0</ns3:cad>
          </ns3:TrackPointExtension>
        </extensions>
      </trkpt>
      <trkpt lat="43.45512681640684604644775390625" lon="1.44911237061023712158203125">
        <ele>192.8000030517578125</ele>
        <time>2026-08-05T06:40:41.000Z</time>
        <extensions>
          <ns3:TrackPointExtension>
            <ns3:hr>57</ns3:hr>
            <ns3:cad>0</ns3:cad>
          </ns3:TrackPointExtension>
        </extensions>
      </trkpt>
      <trkpt lat="43.45512681640684604644775390625" lon="1.44911237061023712158203125">
        <ele>192.600006103515625</ele>
        <time>2026-08-05T06:40:42.000Z</time>
        <extensions>
          <ns3:TrackPointExtension>
            <ns3:hr>57</ns3:hr>
            <ns3:cad>0</ns3:cad>
          </ns3:TrackPointExtension>
        </extensions>
      </trkpt>
      <trkpt lat="43.45512681640684604644775390625" lon="1.44911237061023712158203125">
        <ele>192.600006103515625</ele>
        <time>2026-08-05T06:40:43.000Z</time>
        <extensions>
          <ns3:TrackPointExtension>
            <ns3:hr>60</ns3:hr>
            <ns3:cad>0</ns3:cad>
          </ns3:TrackPointExtension>
        </extensions>
      </trkpt>
      <trkpt lat="43.45512681640684604644775390625" lon="1.44911237061023712158203125">
        <ele>192.600006103515625</ele>
        <time>2026-08-05T06:40:44.000Z</time>
        <extensions>
          <ns3:TrackPointExtension>
            <ns3:hr>61</ns3:hr>
            <ns3:cad>0</ns3:cad>
          </ns3:TrackPointExtension>
        </extensions>
      </trkpt>
      <trkpt lat="43.45512681640684604644775390625" lon="1.44911237061023712158203125">
        <ele>192.600006103515625</ele>
        <time>2026-08-05T06:40:45.000Z</time>
        <extensions>
          <ns3:TrackPointExtension>
            <ns3:hr>61</ns3:hr>
            <ns3:cad>0</ns3:cad>
          </ns3:TrackPointExtension>
        </extensions>
      </trkpt>
      <trkpt lat="43.45512681640684604644775390625" lon="1.44911237061023712158203125">
        <ele>192.600006103515625</ele>
        <time>2026-08-05T06:40:46.000Z</time>
        <extensions>
          <ns3:TrackPointExtension>
            <ns3:hr>62</ns3:hr>
            <ns3:cad>0</ns3:cad>
          </ns3:TrackPointExtension>
        </extensions>
      </trkpt>
      <trkpt lat="43.45512681640684604644775390625" lon="1.44911237061023712158203125">
        <ele>192.600006103515625</ele>
        <time>2026-08-05T06:40:47.000Z</time>
        <extensions>
          <ns3:TrackPointExtension>
            <ns3:hr>62</ns3:hr>
            <ns3:cad>0</ns3:cad>
          </ns3:TrackPointExtension>
        </extensions>
      </trkpt>
      <trkpt lat="43.45512681640684604644775390625" lon="1.44911237061023712158203125">
        <ele>192.600006103515625</ele>
        <time>2026-08-05T06:40:48.000Z</time>
        <extensions>
          <ns3:TrackPointExtension>
            <ns3:hr>63</ns3:hr>
            <ns3:cad>0</ns3:cad>
          </ns3:TrackPointExtension>
        </extensions>
      </trkpt>
      <trkpt lat="43.45512681640684604644775390625" lon="1.44911237061023712158203125">
        <ele>192.600006103515625</ele>
        <time>2026-08-05T06:40:49.000Z</time>
        <extensions>
          <ns3:TrackPointExtension>
            <ns3:hr>63</ns3:hr>
            <ns3:cad>0</ns3:cad>
          </ns3:TrackPointExtension>
        </extensions>
      </trkpt>
      <trkpt lat="43.45512681640684604644775390625" lon="1.44911237061023712158203125">
        <ele>192.600006103515625</ele>
        <time>2026-08-05T06:40:50.000Z</time>
        <extensions>
          <ns3:TrackPointExtension>
            <ns3:hr>63</ns3:hr>
            <ns3:cad>0</ns3:cad>
          </ns3:TrackPointExtension>
        </extensions>
      </trkpt>
      <trkpt lat="43.45512681640684604644775390625" lon="1.44911237061023712158203125">
        <ele>192.600006103515625</ele>
        <time>2026-08-05T06:40:51.000Z</time>
        <extensions>
          <ns3:TrackPointExtension>
            <ns3:hr>63</ns3:hr>
            <ns3:cad>0</ns3:cad>
          </ns3:TrackPointExtension>
        </extensions>
      </trkpt>
      <trkpt lat="43.45512681640684604644775390625" lon="1.44911237061023712158203125">
        <ele>192.600006103515625</ele>
        <time>2026-08-05T06:40:52.000Z</time>
        <extensions>
          <ns3:TrackPointExtension>
            <ns3:hr>63</ns3:hr>
            <ns3:cad>0</ns3:cad>
          </ns3:TrackPointExtension>
        </extensions>
      </trkpt>
      <trkpt lat="43.45512681640684604644775390625" lon="1.44911237061023712158203125">
        <ele>192.600006103515625</ele>
        <time>2026-08-05T06:40:53.000Z</time>
        <extensions>
          <ns3:TrackPointExtension>
            <ns3:hr>62</ns3:hr>
            <ns3:cad>0</ns3:cad>
          </ns3:TrackPointExtension>
        </extensions>
      </trkpt>
      <trkpt lat="43.45512681640684604644775390625" lon="1.44911237061023712158203125">
        <ele>192.600006103515625</ele>
        <time>2026-08-05T06:40:54.000Z</time>
        <extensions>
          <ns3:TrackPointExtension>
            <ns3:hr>62</ns3:hr>
            <ns3:cad>0</ns3:cad>
          </ns3:TrackPointExtension>
        </extensions>
      </trkpt>
      <trkpt lat="43.45512681640684604644775390625" lon="1.44911237061023712158203125">
        <ele>192.600006103515625</ele>
        <time>2026-08-05T06:40:55.000Z</time>
        <extensions>
          <ns3:TrackPointExtension>
            <ns3:hr>62</ns3:hr>
            <ns3:cad>0</ns3:cad>
          </ns3:TrackPointExtension>
        </extensions>
      </trkpt>
      <trkpt lat="43.45512681640684604644775390625" lon="1.44911237061023712158203125">
        <ele>192.600006103515625</ele>
        <time>2026-08-05T06:40:56.000Z</time>
        <extensions>
          <ns3:TrackPointExtension>
            <ns3:hr>62</ns3:hr>
            <ns3:cad>0</ns3:cad>
          </ns3:TrackPointExtension>
        </extensions>
      </trkpt>
      <trkpt lat="43.45512681640684604644775390625" lon="1.44911237061023712158203125">
        <ele>192.600006103515625</ele>
        <time>2026-08-05T06:40:57.000Z</time>
        <extensions>
          <ns3:TrackPointExtension>
            <ns3:hr>61</ns3:hr>
            <ns3:cad>0</ns3:cad>
          </ns3:TrackPointExtension>
        </extensions>
      </trkpt>
      <trkpt lat="43.45512681640684604644775390625" lon="1.44911237061023712158203125">
        <ele>192.600006103515625</ele>
        <time>2026-08-05T06:40:58.000Z</time>
        <extensions>
          <ns3:TrackPointExtension>
            <ns3:hr>61</ns3:hr>
            <ns3:cad>0</ns3:cad>
          </ns3:TrackPointExtension>
        </extensions>
      </trkpt>
      <trkpt lat="43.45512681640684604644775390625" lon="1.44911237061023712158203125">
        <ele>192.600006103515625</ele>
        <time>2026-08-05T06:40:59.000Z</time>
        <extensions>
          <ns3:TrackPointExtension>
            <ns3:hr>60</ns3:hr>
            <ns3:cad>0</ns3:cad>
          </ns3:TrackPointExtension>
        </extensions>
      </trkpt>
      <trkpt lat="43.45512681640684604644775390625" lon="1.44911237061023712158203125">
        <ele>192.600006103515625</ele>
        <time>2026-08-05T06:41:00.000Z</time>
        <extensions>
          <ns3:TrackPointExtension>
            <ns3:hr>60</ns3:hr>
            <ns3:cad>0</ns3:cad>
          </ns3:TrackPointExtension>
        </extensions>
      </trkpt>
      <trkpt lat="43.45512681640684604644775390625" lon="1.44911237061023712158203125">
        <ele>192.600006103515625</ele>
        <time>2026-08-05T06:41:01.000Z</time>
        <extensions>
          <ns3:TrackPointExtension>
            <ns3:hr>60</ns3:hr>
            <ns3:cad>0</ns3:cad>
          </ns3:TrackPointExtension>
        </extensions>
      </trkpt>
      <trkpt lat="43.45512681640684604644775390625" lon="1.44911237061023712158203125">
        <ele>192.600006103515625</ele>
        <time>2026-08-05T06:41:02.000Z</time>
        <extensions>
          <ns3:TrackPointExtension>
            <ns3:hr>60</ns3:hr>
            <ns3:cad>0</ns3:cad>
          </ns3:TrackPointExtension>
        </extensions>
      </trkpt>
      <trkpt lat="43.45512681640684604644775390625" lon="1.44911237061023712158203125">
        <ele>192.600006103515625</ele>
        <time>2026-08-05T06:41:03.000Z</time>
        <extensions>
          <ns3:TrackPointExtension>
            <ns3:hr>59</ns3:hr>
            <ns3:cad>0</ns3:cad>
          </ns3:TrackPointExtension>
        </extensions>
      </trkpt>
      <trkpt lat="43.45512681640684604644775390625" lon="1.44911237061023712158203125">
        <ele>192.600006103515625</ele>
        <time>2026-08-05T06:41:04.000Z</time>
        <extensions>
          <ns3:TrackPointExtension>
            <ns3:hr>60</ns3:hr>
            <ns3:cad>0</ns3:cad>
          </ns3:TrackPointExtension>
        </extensions>
      </trkpt>
      <trkpt lat="43.45512681640684604644775390625" lon="1.44911237061023712158203125">
        <ele>192.600006103515625</ele>
        <time>2026-08-05T06:41:05.000Z</time>
        <extensions>
          <ns3:TrackPointExtension>
            <ns3:hr>60</ns3:hr>
            <ns3:cad>0</ns3:cad>
          </ns3:TrackPointExtension>
        </extensions>
      </trkpt>
      <trkpt lat="43.45512681640684604644775390625" lon="1.44911237061023712158203125">
        <ele>192.600006103515625</ele>
        <time>2026-08-05T06:41:06.000Z</time>
        <extensions>
          <ns3:TrackPointExtension>
            <ns3:hr>59</ns3:hr>
            <ns3:cad>0</ns3:cad>
          </ns3:TrackPointExtension>
        </extensions>
      </trkpt>
      <trkpt lat="43.45512681640684604644775390625" lon="1.44911237061023712158203125">
        <ele>192.600006103515625</ele>
        <time>2026-08-05T06:41:07.000Z</time>
        <extensions>
          <ns3:TrackPointExtension>
            <ns3:hr>60</ns3:hr>
            <ns3:cad>0</ns3:cad>
          </ns3:TrackPointExtension>
        </extensions>
      </trkpt>
      <trkpt lat="43.45512681640684604644775390625" lon="1.44911237061023712158203125">
        <ele>192.399993896484375</ele>
        <time>2026-08-05T06:41:08.000Z</time>
        <extensions>
          <ns3:TrackPointExtension>
            <ns3:hr>60</ns3:hr>
            <ns3:cad>0</ns3:cad>
          </ns3:TrackPointExtension>
        </extensions>
      </trkpt>
      <trkpt lat="43.45512681640684604644775390625" lon="1.44911237061023712158203125">
        <ele>192.399993896484375</ele>
        <time>2026-08-05T06:41:09.000Z</time>
        <extensions>
          <ns3:TrackPointExtension>
            <ns3:hr>61</ns3:hr>
            <ns3:cad>0</ns3:cad>
          </ns3:TrackPointExtension>
        </extensions>
      </trkpt>
      <trkpt lat="43.45512681640684604644775390625" lon="1.44911237061023712158203125">
        <ele>192.399993896484375</ele>
        <time>2026-08-05T06:41:10.000Z</time>
        <extensions>
          <ns3:TrackPointExtension>
            <ns3:hr>63</ns3:hr>
            <ns3:cad>0</ns3:cad>
          </ns3:TrackPointExtension>
        </extensions>
      </trkpt>
      <trkpt lat="43.45512681640684604644775390625" lon="1.44911237061023712158203125">
        <ele>192.399993896484375</ele>
        <time>2026-08-05T06:41:11.000Z</time>
        <extensions>
          <ns3:TrackPointExtension>
            <ns3:hr>64</ns3:hr>
            <ns3:cad>0</ns3:cad>
          </ns3:TrackPointExtension>
        </extensions>
      </trkpt>
      <trkpt lat="43.45512681640684604644775390625" lon="1.44911237061023712158203125">
        <ele>192.600006103515625</ele>
        <time>2026-08-05T06:41:12.000Z</time>
        <extensions>
          <ns3:TrackPointExtension>
            <ns3:hr>65</ns3:hr>
            <ns3:cad>0</ns3:cad>
          </ns3:TrackPointExtension>
        </extensions>
      </trkpt>
      <trkpt lat="43.45512681640684604644775390625" lon="1.44911237061023712158203125">
        <ele>192.600006103515625</ele>
        <time>2026-08-05T06:41:13.000Z</time>
        <extensions>
          <ns3:TrackPointExtension>
            <ns3:hr>65</ns3:hr>
            <ns3:cad>0</ns3:cad>
          </ns3:TrackPointExtension>
        </extensions>
      </trkpt>
      <trkpt lat="43.45512681640684604644775390625" lon="1.44911237061023712158203125">
        <ele>192.600006103515625</ele>
        <time>2026-08-05T06:41:14.000Z</time>
        <extensions>
          <ns3:TrackPointExtension>
            <ns3:hr>65</ns3:hr>
            <ns3:cad>0</ns3:cad>
          </ns3:TrackPointExtension>
        </extensions>
      </trkpt>
      <trkpt lat="43.45512681640684604644775390625" lon="1.44911237061023712158203125">
        <ele>192.600006103515625</ele>
        <time>2026-08-05T06:41:15.000Z</time>
        <extensions>
          <ns3:TrackPointExtension>
            <ns3:hr>65</ns3:hr>
            <ns3:cad>0</ns3:cad>
          </ns3:TrackPointExtension>
        </extensions>
      </trkpt>
      <trkpt lat="43.45512681640684604644775390625" lon="1.44911237061023712158203125">
        <ele>192.600006103515625</ele>
        <time>2026-08-05T06:41:16.000Z</time>
        <extensions>
          <ns3:TrackPointExtension>
            <ns3:hr>66</ns3:hr>
            <ns3:cad>0</ns3:cad>
          </ns3:TrackPointExtension>
        </extensions>
      </trkpt>
      <trkpt lat="43.45512681640684604644775390625" lon="1.44911237061023712158203125">
        <ele>192.399993896484375</ele>
        <time>2026-08-05T06:41:17.000Z</time>
        <extensions>
          <ns3:TrackPointExtension>
            <ns3:hr>67</ns3:hr>
            <ns3:cad>0</ns3:cad>
          </ns3:TrackPointExtension>
        </extensions>
      </trkpt>
      <trkpt lat="43.45512681640684604644775390625" lon="1.44911237061023712158203125">
        <ele>192.399993896484375</ele>
        <time>2026-08-05T06:41:18.000Z</time>
        <extensions>
          <ns3:TrackPointExtension>
            <ns3:hr>67</ns3:hr>
            <ns3:cad>0</ns3:cad>
          </ns3:TrackPointExtension>
        </extensions>
      </trkpt>
      <trkpt lat="43.45512681640684604644775390625" lon="1.44911237061023712158203125">
        <ele>192.399993896484375</ele>
        <time>2026-08-05T06:41:19.000Z</time>
        <extensions>
          <ns3:TrackPointExtension>
            <ns3:hr>67</ns3:hr>
            <ns3:cad>0</ns3:cad>
          </ns3:TrackPointExtension>
        </extensions>
      </trkpt>
      <trkpt lat="43.45512681640684604644775390625" lon="1.44911237061023712158203125">
        <ele>192.399993896484375</ele>
        <time>2026-08-05T06:41:20.000Z</time>
        <extensions>
          <ns3:TrackPointExtension>
            <ns3:hr>67</ns3:hr>
            <ns3:cad>0</ns3:cad>
          </ns3:TrackPointExtension>
        </extensions>
      </trkpt>
      <trkpt lat="43.45512681640684604644775390625" lon="1.44911237061023712158203125">
        <ele>192.399993896484375</ele>
        <time>2026-08-05T06:41:21.000Z</time>
        <extensions>
          <ns3:TrackPointExtension>
            <ns3:hr>65</ns3:hr>
            <ns3:cad>0</ns3:cad>
          </ns3:TrackPointExtension>
        </extensions>
      </trkpt>
      <trkpt lat="43.45512681640684604644775390625" lon="1.44911237061023712158203125">
        <ele>192.399993896484375</ele>
        <time>2026-08-05T06:41:22.000Z</time>
        <extensions>
          <ns3:TrackPointExtension>
            <ns3:hr>63</ns3:hr>
            <ns3:cad>0</ns3:cad>
          </ns3:TrackPointExtension>
        </extensions>
      </trkpt>
      <trkpt lat="43.45512681640684604644775390625" lon="1.44911237061023712158203125">
        <ele>192.399993896484375</ele>
        <time>2026-08-05T06:41:23.000Z</time>
        <extensions>
          <ns3:TrackPointExtension>
            <ns3:hr>62</ns3:hr>
            <ns3:cad>0</ns3:cad>
          </ns3:TrackPointExtension>
        </extensions>
      </trkpt>
      <trkpt lat="43.45512681640684604644775390625" lon="1.44911237061023712158203125">
        <ele>192.399993896484375</ele>
        <time>2026-08-05T06:41:24.000Z</time>
        <extensions>
          <ns3:TrackPointExtension>
            <ns3:hr>61</ns3:hr>
            <ns3:cad>0</ns3:cad>
          </ns3:TrackPointExtension>
        </extensions>
      </trkpt>
      <trkpt lat="43.45512681640684604644775390625" lon="1.44911237061023712158203125">
        <ele>192.399993896484375</ele>
        <time>2026-08-05T06:41:25.000Z</time>
        <extensions>
          <ns3:TrackPointExtension>
            <ns3:hr>61</ns3:hr>
            <ns3:cad>0</ns3:cad>
          </ns3:TrackPointExtension>
        </extensions>
      </trkpt>
      <trkpt lat="43.45512681640684604644775390625" lon="1.44911237061023712158203125">
        <ele>192.600006103515625</ele>
        <time>2026-08-05T06:41:26.000Z</time>
        <extensions>
          <ns3:TrackPointExtension>
            <ns3:hr>61</ns3:hr>
            <ns3:cad>0</ns3:cad>
          </ns3:TrackPointExtension>
        </extensions>
      </trkpt>
      <trkpt lat="43.45512681640684604644775390625" lon="1.44911237061023712158203125">
        <ele>192.600006103515625</ele>
        <time>2026-08-05T06:41:27.000Z</time>
        <extensions>
          <ns3:TrackPointExtension>
            <ns3:hr>61</ns3:hr>
            <ns3:cad>0</ns3:cad>
          </ns3:TrackPointExtension>
        </extensions>
      </trkpt>
      <trkpt lat="43.45512681640684604644775390625" lon="1.44911237061023712158203125">
        <ele>192.600006103515625</ele>
        <time>2026-08-05T06:41:28.000Z</time>
        <extensions>
          <ns3:TrackPointExtension>
            <ns3:hr>62</ns3:hr>
            <ns3:cad>0</ns3:cad>
          </ns3:TrackPointExtension>
        </extensions>
      </trkpt>
      <trkpt lat="43.45512681640684604644775390625" lon="1.44911237061023712158203125">
        <ele>192.600006103515625</ele>
        <time>2026-08-05T06:41:29.000Z</time>
        <extensions>
          <ns3:TrackPointExtension>
            <ns3:hr>62</ns3:hr>
            <ns3:cad>0</ns3:cad>
          </ns3:TrackPointExtension>
        </extensions>
      </trkpt>
      <trkpt lat="43.45512681640684604644775390625" lon="1.44911237061023712158203125">
        <ele>192.600006103515625</ele>
        <time>2026-08-05T06:41:30.000Z</time>
        <extensions>
          <ns3:TrackPointExtension>
            <ns3:hr>63</ns3:hr>
            <ns3:cad>0</ns3:cad>
          </ns3:TrackPointExtension>
        </extensions>
      </trkpt>
      <trkpt lat="43.45512681640684604644775390625" lon="1.44911237061023712158203125">
        <ele>192.600006103515625</ele>
        <time>2026-08-05T06:41:31.000Z</time>
        <extensions>
          <ns3:TrackPointExtension>
            <ns3:hr>64</ns3:hr>
            <ns3:cad>0</ns3:cad>
          </ns3:TrackPointExtension>
        </extensions>
      </trkpt>
      <trkpt lat="43.45512681640684604644775390625" lon="1.44911237061023712158203125">
        <ele>192.600006103515625</ele>
        <time>2026-08-05T06:41:32.000Z</time>
        <extensions>
          <ns3:TrackPointExtension>
            <ns3:hr>64</ns3:hr>
            <ns3:cad>0</ns3:cad>
          </ns3:TrackPointExtension>
        </extensions>
      </trkpt>
      <trkpt lat="43.455129079520702362060546875" lon="1.4491101913154125213623046875">
        <ele>192.600006103515625</ele>
        <time>2026-08-05T06:41:33.000Z</time>
        <extensions>
          <ns3:TrackPointExtension>
            <ns3:hr>64</ns3:hr>
            <ns3:cad>0</ns3:cad>
          </ns3:TrackPointExtension>
        </extensions>
      </trkpt>
      <trkpt lat="43.45512681640684604644775390625" lon="1.44911237061023712158203125">
        <ele>192.600006103515625</ele>
        <time>2026-08-05T06:41:34.000Z</time>
        <extensions>
          <ns3:TrackPointExtension>
            <ns3:hr>66</ns3:hr>
            <ns3:cad>0</ns3:cad>
          </ns3:TrackPointExtension>
        </extensions>
      </trkpt>
      <trkpt lat="43.45512681640684604644775390625" lon="1.44911237061023712158203125">
        <ele>192.600006103515625</ele>
        <time>2026-08-05T06:41:35.000Z</time>
        <extensions>
          <ns3:TrackPointExtension>
            <ns3:hr>67</ns3:hr>
            <ns3:cad>0</ns3:cad>
          </ns3:TrackPointExtension>
        </extensions>
      </trkpt>
      <trkpt lat="43.45512681640684604644775390625" lon="1.44911237061023712158203125">
        <ele>192.399993896484375</ele>
        <time>2026-08-05T06:41:36.000Z</time>
        <extensions>
          <ns3:TrackPointExtension>
            <ns3:hr>67</ns3:hr>
            <ns3:cad>0</ns3:cad>
          </ns3:TrackPointExtension>
        </extensions>
      </trkpt>
      <trkpt lat="43.45512681640684604644775390625" lon="1.44911237061023712158203125">
        <ele>192.399993896484375</ele>
        <time>2026-08-05T06:41:37.000Z</time>
        <extensions>
          <ns3:TrackPointExtension>
            <ns3:hr>68</ns3:hr>
            <ns3:cad>0</ns3:cad>
          </ns3:TrackPointExtension>
        </extensions>
      </trkpt>
      <trkpt lat="43.45512681640684604644775390625" lon="1.44911237061023712158203125">
        <ele>192.399993896484375</ele>
        <time>2026-08-05T06:41:38.000Z</time>
        <extensions>
          <ns3:TrackPointExtension>
            <ns3:hr>68</ns3:hr>
            <ns3:cad>0</ns3:cad>
          </ns3:TrackPointExtension>
        </extensions>
      </trkpt>
      <trkpt lat="43.45512681640684604644775390625" lon="1.44911237061023712158203125">
        <ele>192.399993896484375</ele>
        <time>2026-08-05T06:41:39.000Z</time>
        <extensions>
          <ns3:TrackPointExtension>
            <ns3:hr>68</ns3:hr>
            <ns3:cad>0</ns3:cad>
          </ns3:TrackPointExtension>
        </extensions>
      </trkpt>
      <trkpt lat="43.45512681640684604644775390625" lon="1.44911237061023712158203125">
        <ele>192.399993896484375</ele>
        <time>2026-08-05T06:41:40.000Z</time>
        <extensions>
          <ns3:TrackPointExtension>
            <ns3:hr>68</ns3:hr>
            <ns3:cad>0</ns3:cad>
          </ns3:TrackPointExtension>
        </extensions>
      </trkpt>
      <trkpt lat="43.45512681640684604644775390625" lon="1.44911237061023712158203125">
        <ele>192.399993896484375</ele>
        <time>2026-08-05T06:41:41.000Z</time>
        <extensions>
          <ns3:TrackPointExtension>
            <ns3:hr>69</ns3:hr>
            <ns3:cad>0</ns3:cad>
          </ns3:TrackPointExtension>
        </extensions>
      </trkpt>
      <trkpt lat="43.45512681640684604644775390625" lon="1.44911237061023712158203125">
        <ele>192.399993896484375</ele>
        <time>2026-08-05T06:41:42.000Z</time>
        <extensions>
          <ns3:TrackPointExtension>
            <ns3:hr>68</ns3:hr>
            <ns3:cad>0</ns3:cad>
          </ns3:TrackPointExtension>
        </extensions>
      </trkpt>
      <trkpt lat="43.45512681640684604644775390625" lon="1.44911237061023712158203125">
        <ele>192.399993896484375</ele>
        <time>2026-08-05T06:41:43.000Z</time>
        <extensions>
          <ns3:TrackPointExtension>
            <ns3:hr>68</ns3:hr>
            <ns3:cad>0</ns3:cad>
          </ns3:TrackPointExtension>
        </extensions>
      </trkpt>
      <trkpt lat="43.45512681640684604644775390625" lon="1.44911237061023712158203125">
        <ele>192.399993896484375</ele>
        <time>2026-08-05T06:41:44.000Z</time>
        <extensions>
          <ns3:TrackPointExtension>
            <ns3:hr>68</ns3:hr>
            <ns3:cad>0</ns3:cad>
          </ns3:TrackPointExtension>
        </extensions>
      </trkpt>
      <trkpt lat="43.45512681640684604644775390625" lon="1.44911237061023712158203125">
        <ele>192.399993896484375</ele>
        <time>2026-08-05T06:41:45.000Z</time>
        <extensions>
          <ns3:TrackPointExtension>
            <ns3:hr>68</ns3:hr>
            <ns3:cad>0</ns3:cad>
          </ns3:TrackPointExtension>
        </extensions>
      </trkpt>
      <trkpt lat="43.45512681640684604644775390625" lon="1.44911237061023712158203125">
        <ele>192.399993896484375</ele>
        <time>2026-08-05T06:41:46.000Z</time>
        <extensions>
          <ns3:TrackPointExtension>
            <ns3:hr>68</ns3:hr>
            <ns3:cad>0</ns3:cad>
          </ns3:TrackPointExtension>
        </extensions>
      </trkpt>
      <trkpt lat="43.45512681640684604644775390625" lon="1.44911237061023712158203125">
        <ele>192.399993896484375</ele>
        <time>2026-08-05T06:41:47.000Z</time>
        <extensions>
          <ns3:TrackPointExtension>
            <ns3:hr>68</ns3:hr>
            <ns3:cad>0</ns3:cad>
          </ns3:TrackPointExtension>
        </extensions>
      </trkpt>
      <trkpt lat="43.4551258943974971771240234375" lon="1.4491179026663303375244140625">
        <ele>192.399993896484375</ele>
        <time>2026-08-05T06:41:48.000Z</time>
        <extensions>
          <ns3:TrackPointExtension>
            <ns3:hr>68</ns3:hr>
            <ns3:cad>0</ns3:cad>
          </ns3:TrackPointExtension>
        </extensions>
      </trkpt>
      <trkpt lat="43.455128408968448638916015625" lon="1.44913516938686370849609375">
        <ele>192.399993896484375</ele>
        <time>2026-08-05T06:41:49.000Z</time>
        <extensions>
          <ns3:TrackPointExtension>
            <ns3:hr>68</ns3:hr>
            <ns3:cad>0</ns3:cad>
          </ns3:TrackPointExtension>
        </extensions>
      </trkpt>
      <trkpt lat="43.455133102834224700927734375" lon="1.44914899952709674835205078125">
        <ele>192.399993896484375</ele>
        <time>2026-08-05T06:41:50.000Z</time>
        <extensions>
          <ns3:TrackPointExtension>
            <ns3:hr>68</ns3:hr>
            <ns3:cad>0</ns3:cad>
          </ns3:TrackPointExtension>
        </extensions>
      </trkpt>
      <trkpt lat="43.4551315940916538238525390625" lon="1.4491651766002178192138671875">
        <ele>192.399993896484375</ele>
        <time>2026-08-05T06:41:51.000Z</time>
        <extensions>
          <ns3:TrackPointExtension>
            <ns3:hr>68</ns3:hr>
            <ns3:cad>0</ns3:cad>
          </ns3:TrackPointExtension>
        </extensions>
      </trkpt>
      <trkpt lat="43.455131091177463531494140625" lon="1.44918210804462432861328125">
        <ele>192.399993896484375</ele>
        <time>2026-08-05T06:41:52.000Z</time>
        <extensions>
          <ns3:TrackPointExtension>
            <ns3:hr>67</ns3:hr>
            <ns3:cad>0</ns3:cad>
          </ns3:TrackPointExtension>
        </extensions>
      </trkpt>
      <trkpt lat="43.4551294147968292236328125" lon="1.44919912330806255340576171875">
        <ele>192.399993896484375</ele>
        <time>2026-08-05T06:41:53.000Z</time>
        <extensions>
          <ns3:TrackPointExtension>
            <ns3:hr>67</ns3:hr>
            <ns3:cad>0</ns3:cad>
          </ns3:TrackPointExtension>
        </extensions>
      </trkpt>
      <trkpt lat="43.4551248885691165924072265625" lon="1.449216306209564208984375">
        <ele>192.399993896484375</ele>
        <time>2026-08-05T06:41:54.000Z</time>
        <extensions>
          <ns3:TrackPointExtension>
            <ns3:hr>68</ns3:hr>
            <ns3:cad>0</ns3:cad>
          </ns3:TrackPointExtension>
        </extensions>
      </trkpt>
      <trkpt lat="43.455120362341403961181640625" lon="1.4492295496165752410888671875">
        <ele>192.399993896484375</ele>
        <time>2026-08-05T06:41:55.000Z</time>
        <extensions>
          <ns3:TrackPointExtension>
            <ns3:hr>68</ns3:hr>
            <ns3:cad>47</ns3:cad>
          </ns3:TrackPointExtension>
        </extensions>
      </trkpt>
      <trkpt lat="43.45511541701853275299072265625" lon="1.449244134128093719482421875">
        <ele>192.1999969482421875</ele>
        <time>2026-08-05T06:41:56.000Z</time>
        <extensions>
          <ns3:TrackPointExtension>
            <ns3:hr>68</ns3:hr>
            <ns3:cad>47</ns3:cad>
          </ns3:TrackPointExtension>
        </extensions>
      </trkpt>
      <trkpt lat="43.455109298229217529296875" lon="1.44925746135413646697998046875">
        <ele>192</ele>
        <time>2026-08-05T06:41:57.000Z</time>
        <extensions>
          <ns3:TrackPointExtension>
            <ns3:hr>68</ns3:hr>
            <ns3:cad>50</ns3:cad>
          </ns3:TrackPointExtension>
        </extensions>
      </trkpt>
      <trkpt lat="43.4551034308969974517822265625" lon="1.44927087239921092987060546875">
        <ele>192</ele>
        <time>2026-08-05T06:41:58.000Z</time>
        <extensions>
          <ns3:TrackPointExtension>
            <ns3:hr>67</ns3:hr>
            <ns3:cad>50</ns3:cad>
          </ns3:TrackPointExtension>
        </extensions>
      </trkpt>
      <trkpt lat="43.4550980664789676666259765625" lon="1.44928537309169769287109375">
        <ele>191.8000030517578125</ele>
        <time>2026-08-05T06:41:59.000Z</time>
        <extensions>
          <ns3:TrackPointExtension>
            <ns3:hr>67</ns3:hr>
            <ns3:cad>50</ns3:cad>
          </ns3:TrackPointExtension>
        </extensions>
      </trkpt>
      <trkpt lat="43.45509295351803302764892578125" lon="1.449301801621913909912109375">
        <ele>191.8000030517578125</ele>
        <time>2026-08-05T06:42:00.000Z</time>
        <extensions>
          <ns3:TrackPointExtension>
            <ns3:hr>67</ns3:hr>
            <ns3:cad>49</ns3:cad>
          </ns3:TrackPointExtension>
        </extensions>
      </trkpt>
      <trkpt lat="43.45508792437613010406494140625" lon="1.449316553771495819091796875">
        <ele>191.600006103515625</ele>
        <time>2026-08-05T06:42:01.000Z</time>
        <extensions>
          <ns3:TrackPointExtension>
            <ns3:hr>67</ns3:hr>
            <ns3:cad>49</ns3:cad>
          </ns3:TrackPointExtension>
        </extensions>
      </trkpt>
      <trkpt lat="43.4550849907100200653076171875" lon="1.44932988099753856658935546875">
        <ele>191.600006103515625</ele>
        <time>2026-08-05T06:42:02.000Z</time>
        <extensions>
          <ns3:TrackPointExtension>
            <ns3:hr>67</ns3:hr>
            <ns3:cad>49</ns3:cad>
          </ns3:TrackPointExtension>
        </extensions>
      </trkpt>
      <trkpt lat="43.45508071593940258026123046875" lon="1.44934077747166156768798828125">
        <ele>191.600006103515625</ele>
        <time>2026-08-05T06:42:03.000Z</time>
        <extensions>
          <ns3:TrackPointExtension>
            <ns3:hr>67</ns3:hr>
            <ns3:cad>50</ns3:cad>
          </ns3:TrackPointExtension>
        </extensions>
      </trkpt>
      <trkpt lat="43.4550779499113559722900390625" lon="1.4493485726416110992431640625">
        <ele>191.399993896484375</ele>
        <time>2026-08-05T06:42:04.000Z</time>
        <extensions>
          <ns3:TrackPointExtension>
            <ns3:hr>68</ns3:hr>
            <ns3:cad>50</ns3:cad>
          </ns3:TrackPointExtension>
        </extensions>
      </trkpt>
      <trkpt lat="43.45507551915943622589111328125" lon="1.44936055876314640045166015625">
        <ele>191.399993896484375</ele>
        <time>2026-08-05T06:42:05.000Z</time>
        <extensions>
          <ns3:TrackPointExtension>
            <ns3:hr>70</ns3:hr>
            <ns3:cad>50</ns3:cad>
          </ns3:TrackPointExtension>
        </extensions>
      </trkpt>
      <trkpt lat="43.455071412026882171630859375" lon="1.44937346689403057098388671875">
        <ele>191.1999969482421875</ele>
        <time>2026-08-05T06:42:06.000Z</time>
        <extensions>
          <ns3:TrackPointExtension>
            <ns3:hr>73</ns3:hr>
            <ns3:cad>50</ns3:cad>
          </ns3:TrackPointExtension>
        </extensions>
      </trkpt>
      <trkpt lat="43.455066382884979248046875" lon="1.4493831060826778411865234375">
        <ele>191.1999969482421875</ele>
        <time>2026-08-05T06:42:07.000Z</time>
        <extensions>
          <ns3:TrackPointExtension>
            <ns3:hr>74</ns3:hr>
            <ns3:cad>50</ns3:cad>
          </ns3:TrackPointExtension>
        </extensions>
      </trkpt>
      <trkpt lat="43.45506043173372745513916015625" lon="1.44939240999519824981689453125">
        <ele>191.1999969482421875</ele>
        <time>2026-08-05T06:42:08.000Z</time>
        <extensions>
          <ns3:TrackPointExtension>
            <ns3:hr>74</ns3:hr>
            <ns3:cad>49</ns3:cad>
          </ns3:TrackPointExtension>
        </extensions>
      </trkpt>
      <trkpt lat="43.4550588391721248626708984375" lon="1.4494028873741626739501953125">
        <ele>191.1999969482421875</ele>
        <time>2026-08-05T06:42:09.000Z</time>
        <extensions>
          <ns3:TrackPointExtension>
            <ns3:hr>73</ns3:hr>
            <ns3:cad>48</ns3:cad>
          </ns3:TrackPointExtension>
        </extensions>
      </trkpt>
      <trkpt lat="43.45505221746861934661865234375" lon="1.44941587932407855987548828125">
        <ele>191</ele>
        <time>2026-08-05T06:42:10.000Z</time>
        <extensions>
          <ns3:TrackPointExtension>
            <ns3:hr>73</ns3:hr>
            <ns3:cad>48</ns3:cad>
          </ns3:TrackPointExtension>
        </extensions>
      </trkpt>
      <trkpt lat="43.45504651777446269989013671875" lon="1.44942861981689929962158203125">
        <ele>191</ele>
        <time>2026-08-05T06:42:11.000Z</time>
        <extensions>
          <ns3:TrackPointExtension>
            <ns3:hr>73</ns3:hr>
            <ns3:cad>48</ns3:cad>
          </ns3:TrackPointExtension>
        </extensions>
      </trkpt>
      <trkpt lat="43.45504182390868663787841796875" lon="1.44943892955780029296875">
        <ele>191</ele>
        <time>2026-08-05T06:42:12.000Z</time>
        <extensions>
          <ns3:TrackPointExtension>
            <ns3:hr>73</ns3:hr>
            <ns3:cad>47</ns3:cad>
          </ns3:TrackPointExtension>
        </extensions>
      </trkpt>
      <trkpt lat="43.4550353698432445526123046875" lon="1.44944538362324237823486328125">
        <ele>190.8000030517578125</ele>
        <time>2026-08-05T06:42:13.000Z</time>
        <extensions>
          <ns3:TrackPointExtension>
            <ns3:hr>74</ns3:hr>
            <ns3:cad>47</ns3:cad>
          </ns3:TrackPointExtension>
        </extensions>
      </trkpt>
      <trkpt lat="43.4550300054252147674560546875" lon="1.44945594482123851776123046875">
        <ele>190.8000030517578125</ele>
        <time>2026-08-05T06:42:14.000Z</time>
        <extensions>
          <ns3:TrackPointExtension>
            <ns3:hr>74</ns3:hr>
            <ns3:cad>48</ns3:cad>
          </ns3:TrackPointExtension>
        </extensions>
      </trkpt>
      <trkpt lat="43.4550232999026775360107421875" lon="1.44946885295212268829345703125">
        <ele>190.8000030517578125</ele>
        <time>2026-08-05T06:42:15.000Z</time>
        <extensions>
          <ns3:TrackPointExtension>
            <ns3:hr>73</ns3:hr>
            <ns3:cad>48</ns3:cad>
          </ns3:TrackPointExtension>
        </extensions>
      </trkpt>
      <trkpt lat="43.45501743257045745849609375" lon="1.449482850730419158935546875">
        <ele>190.600006103515625</ele>
        <time>2026-08-05T06:42:16.000Z</time>
        <extensions>
          <ns3:TrackPointExtension>
            <ns3:hr>73</ns3:hr>
            <ns3:cad>48</ns3:cad>
          </ns3:TrackPointExtension>
        </extensions>
      </trkpt>
      <trkpt lat="43.4550115652382373809814453125" lon="1.44949114881455898284912109375">
        <ele>190.600006103515625</ele>
        <time>2026-08-05T06:42:17.000Z</time>
        <extensions>
          <ns3:TrackPointExtension>
            <ns3:hr>73</ns3:hr>
            <ns3:cad>47</ns3:cad>
          </ns3:TrackPointExtension>
        </extensions>
      </trkpt>
      <trkpt lat="43.45500578172504901885986328125" lon="1.44950003363192081451416015625">
        <ele>190.399993896484375</ele>
        <time>2026-08-05T06:42:18.000Z</time>
        <extensions>
          <ns3:TrackPointExtension>
            <ns3:hr>73</ns3:hr>
            <ns3:cad>46</ns3:cad>
          </ns3:TrackPointExtension>
        </extensions>
      </trkpt>
      <trkpt lat="43.45499924384057521820068359375" lon="1.44950908608734607696533203125">
        <ele>190.399993896484375</ele>
        <time>2026-08-05T06:42:19.000Z</time>
        <extensions>
          <ns3:TrackPointExtension>
            <ns3:hr>73</ns3:hr>
            <ns3:cad>46</ns3:cad>
          </ns3:TrackPointExtension>
        </extensions>
      </trkpt>
      <trkpt lat="43.4549927897751331329345703125" lon="1.4495209045708179473876953125">
        <ele>190.1999969482421875</ele>
        <time>2026-08-05T06:42:20.000Z</time>
        <extensions>
          <ns3:TrackPointExtension>
            <ns3:hr>73</ns3:hr>
            <ns3:cad>48</ns3:cad>
          </ns3:TrackPointExtension>
        </extensions>
      </trkpt>
      <trkpt lat="43.45498683862388134002685546875" lon="1.44953339360654354095458984375">
        <ele>190.1999969482421875</ele>
        <time>2026-08-05T06:42:21.000Z</time>
        <extensions>
          <ns3:TrackPointExtension>
            <ns3:hr>73</ns3:hr>
            <ns3:cad>48</ns3:cad>
          </ns3:TrackPointExtension>
        </extensions>
      </trkpt>
      <trkpt lat="43.4549800492823123931884765625" lon="1.44954445771872997283935546875">
        <ele>190.1999969482421875</ele>
        <time>2026-08-05T06:42:22.000Z</time>
        <extensions>
          <ns3:TrackPointExtension>
            <ns3:hr>73</ns3:hr>
            <ns3:cad>47</ns3:cad>
          </ns3:TrackPointExtension>
        </extensions>
      </trkpt>
      <trkpt lat="43.45497158356010913848876953125" lon="1.44955225288867950439453125">
        <ele>190</ele>
        <time>2026-08-05T06:42:23.000Z</time>
        <extensions>
          <ns3:TrackPointExtension>
            <ns3:hr>73</ns3:hr>
            <ns3:cad>47</ns3:cad>
          </ns3:TrackPointExtension>
        </extensions>
      </trkpt>
      <trkpt lat="43.45496353693306446075439453125" lon="1.44956038333475589752197265625">
        <ele>190</ele>
        <time>2026-08-05T06:42:24.000Z</time>
        <extensions>
          <ns3:TrackPointExtension>
            <ns3:hr>73</ns3:hr>
            <ns3:cad>47</ns3:cad>
          </ns3:TrackPointExtension>
        </extensions>
      </trkpt>
      <trkpt lat="43.4549559094011783599853515625" lon="1.44956809468567371368408203125">
        <ele>189.8000030517578125</ele>
        <time>2026-08-05T06:42:25.000Z</time>
        <extensions>
          <ns3:TrackPointExtension>
            <ns3:hr>73</ns3:hr>
            <ns3:cad>48</ns3:cad>
          </ns3:TrackPointExtension>
        </extensions>
      </trkpt>
      <trkpt lat="43.4549455158412456512451171875" lon="1.44957882352173328399658203125">
        <ele>189.8000030517578125</ele>
        <time>2026-08-05T06:42:26.000Z</time>
        <extensions>
          <ns3:TrackPointExtension>
            <ns3:hr>73</ns3:hr>
            <ns3:cad>49</ns3:cad>
          </ns3:TrackPointExtension>
        </extensions>
      </trkpt>
      <trkpt lat="43.45493788830935955047607421875" lon="1.44958821125328540802001953125">
        <ele>189.600006103515625</ele>
        <time>2026-08-05T06:42:27.000Z</time>
        <extensions>
          <ns3:TrackPointExtension>
            <ns3:hr>74</ns3:hr>
            <ns3:cad>49</ns3:cad>
          </ns3:TrackPointExtension>
        </extensions>
      </trkpt>
      <trkpt lat="43.4549295902252197265625" lon="1.4495943300426006317138671875">
        <ele>189.600006103515625</ele>
        <time>2026-08-05T06:42:28.000Z</time>
        <extensions>
          <ns3:TrackPointExtension>
            <ns3:hr>74</ns3:hr>
            <ns3:cad>49</ns3:cad>
          </ns3:TrackPointExtension>
        </extensions>
      </trkpt>
      <trkpt lat="43.454921543598175048828125" lon="1.44959810189902782440185546875">
        <ele>189.399993896484375</ele>
        <time>2026-08-05T06:42:29.000Z</time>
        <extensions>
          <ns3:TrackPointExtension>
            <ns3:hr>74</ns3:hr>
            <ns3:cad>49</ns3:cad>
          </ns3:TrackPointExtension>
        </extensions>
      </trkpt>
      <trkpt lat="43.45491156913340091705322265625" lon="1.4496047236025333404541015625">
        <ele>189.399993896484375</ele>
        <time>2026-08-05T06:42:30.000Z</time>
        <extensions>
          <ns3:TrackPointExtension>
            <ns3:hr>74</ns3:hr>
            <ns3:cad>49</ns3:cad>
          </ns3:TrackPointExtension>
        </extensions>
      </trkpt>
      <trkpt lat="43.4549059532582759857177734375" lon="1.44961050711572170257568359375">
        <ele>189.1999969482421875</ele>
        <time>2026-08-05T06:42:31.000Z</time>
        <extensions>
          <ns3:TrackPointExtension>
            <ns3:hr>74</ns3:hr>
            <ns3:cad>49</ns3:cad>
          </ns3:TrackPointExtension>
        </extensions>
      </trkpt>
      <trkpt lat="43.45489564351737499237060546875" lon="1.44962123595178127288818359375">
        <ele>189</ele>
        <time>2026-08-05T06:42:32.000Z</time>
        <extensions>
          <ns3:TrackPointExtension>
            <ns3:hr>74</ns3:hr>
            <ns3:cad>49</ns3:cad>
          </ns3:TrackPointExtension>
        </extensions>
      </trkpt>
      <trkpt lat="43.45488608814775943756103515625" lon="1.44963028840720653533935546875">
        <ele>189</ele>
        <time>2026-08-05T06:42:33.000Z</time>
        <extensions>
          <ns3:TrackPointExtension>
            <ns3:hr>73</ns3:hr>
            <ns3:cad>50</ns3:cad>
          </ns3:TrackPointExtension>
        </extensions>
      </trkpt>
      <trkpt lat="43.45487619750201702117919921875" lon="1.4496387541294097900390625">
        <ele>188.8000030517578125</ele>
        <time>2026-08-05T06:42:34.000Z</time>
        <extensions>
          <ns3:TrackPointExtension>
            <ns3:hr>70</ns3:hr>
            <ns3:cad>50</ns3:cad>
          </ns3:TrackPointExtension>
        </extensions>
      </trkpt>
      <trkpt lat="43.4548667259514331817626953125" lon="1.4496462978422641754150390625">
        <ele>188.8000030517578125</ele>
        <time>2026-08-05T06:42:35.000Z</time>
        <extensions>
          <ns3:TrackPointExtension>
            <ns3:hr>69</ns3:hr>
            <ns3:cad>50</ns3:cad>
          </ns3:TrackPointExtension>
        </extensions>
      </trkpt>
      <trkpt lat="43.45485909841954708099365234375" lon="1.44965291954576969146728515625">
        <ele>188.8000030517578125</ele>
        <time>2026-08-05T06:42:36.000Z</time>
        <extensions>
          <ns3:TrackPointExtension>
            <ns3:hr>68</ns3:hr>
            <ns3:cad>50</ns3:cad>
          </ns3:TrackPointExtension>
        </extensions>
      </trkpt>
      <trkpt lat="43.45485239289700984954833984375" lon="1.4496607147157192230224609375">
        <ele>188.8000030517578125</ele>
        <time>2026-08-05T06:42:37.000Z</time>
        <extensions>
          <ns3:TrackPointExtension>
            <ns3:hr>68</ns3:hr>
            <ns3:cad>49</ns3:cad>
          </ns3:TrackPointExtension>
        </extensions>
      </trkpt>
      <trkpt lat="43.4548449330031871795654296875" lon="1.44966892898082733154296875">
        <ele>188.8000030517578125</ele>
        <time>2026-08-05T06:42:38.000Z</time>
        <extensions>
          <ns3:TrackPointExtension>
            <ns3:hr>68</ns3:hr>
            <ns3:cad>49</ns3:cad>
          </ns3:TrackPointExtension>
        </extensions>
      </trkpt>
      <trkpt lat="43.45483881421387195587158203125" lon="1.44967772997915744781494140625">
        <ele>188.8000030517578125</ele>
        <time>2026-08-05T06:42:39.000Z</time>
        <extensions>
          <ns3:TrackPointExtension>
            <ns3:hr>69</ns3:hr>
            <ns3:cad>49</ns3:cad>
          </ns3:TrackPointExtension>
        </extensions>
      </trkpt>
      <trkpt lat="43.4548328630626201629638671875" lon="1.44968443550169467926025390625">
        <ele>188.8000030517578125</ele>
        <time>2026-08-05T06:42:40.000Z</time>
        <extensions>
          <ns3:TrackPointExtension>
            <ns3:hr>69</ns3:hr>
            <ns3:cad>50</ns3:cad>
          </ns3:TrackPointExtension>
        </extensions>
      </trkpt>
      <trkpt lat="43.4548278339207172393798828125" lon="1.44969181157648563385009765625">
        <ele>188.600006103515625</ele>
        <time>2026-08-05T06:42:41.000Z</time>
        <extensions>
          <ns3:TrackPointExtension>
            <ns3:hr>69</ns3:hr>
            <ns3:cad>52</ns3:cad>
          </ns3:TrackPointExtension>
        </extensions>
      </trkpt>
      <trkpt lat="43.454821296036243438720703125" lon="1.4496992714703083038330078125">
        <ele>188.600006103515625</ele>
        <time>2026-08-05T06:42:42.000Z</time>
        <extensions>
          <ns3:TrackPointExtension>
            <ns3:hr>70</ns3:hr>
            <ns3:cad>48</ns3:cad>
          </ns3:TrackPointExtension>
        </extensions>
      </trkpt>
      <trkpt lat="43.45481584779918193817138671875" lon="1.4497059769928455352783203125">
        <ele>188.600006103515625</ele>
        <time>2026-08-05T06:42:43.000Z</time>
        <extensions>
          <ns3:TrackPointExtension>
            <ns3:hr>70</ns3:hr>
            <ns3:cad>48</ns3:cad>
          </ns3:TrackPointExtension>
        </extensions>
      </trkpt>
      <trkpt lat="43.45481132157146930694580078125" lon="1.44971050322055816650390625">
        <ele>188.399993896484375</ele>
        <time>2026-08-05T06:42:44.000Z</time>
        <extensions>
          <ns3:TrackPointExtension>
            <ns3:hr>70</ns3:hr>
            <ns3:cad>45</ns3:cad>
          </ns3:TrackPointExtension>
        </extensions>
      </trkpt>
      <trkpt lat="43.45480444841086864471435546875" lon="1.44971746020019054412841796875">
        <ele>188.399993896484375</ele>
        <time>2026-08-05T06:42:45.000Z</time>
        <extensions>
          <ns3:TrackPointExtension>
            <ns3:hr>70</ns3:hr>
            <ns3:cad>43</ns3:cad>
          </ns3:TrackPointExtension>
        </extensions>
      </trkpt>
      <trkpt lat="43.4548006765544414520263671875" lon="1.44972684793174266815185546875">
        <ele>188.399993896484375</ele>
        <time>2026-08-05T06:42:46.000Z</time>
        <extensions>
          <ns3:TrackPointExtension>
            <ns3:hr>70</ns3:hr>
            <ns3:cad>43</ns3:cad>
          </ns3:TrackPointExtension>
        </extensions>
      </trkpt>
      <trkpt lat="43.4547966532409191131591796875" lon="1.4497405104339122772216796875">
        <ele>188.1999969482421875</ele>
        <time>2026-08-05T06:42:47.000Z</time>
        <extensions>
          <ns3:TrackPointExtension>
            <ns3:hr>70</ns3:hr>
            <ns3:cad>44</ns3:cad>
          </ns3:TrackPointExtension>
        </extensions>
      </trkpt>
      <trkpt lat="43.45479078590869903564453125" lon="1.44975568167865276336669921875">
        <ele>188.1999969482421875</ele>
        <time>2026-08-05T06:42:48.000Z</time>
        <extensions>
          <ns3:TrackPointExtension>
            <ns3:hr>69</ns3:hr>
            <ns3:cad>45</ns3:cad>
          </ns3:TrackPointExtension>
        </extensions>
      </trkpt>
      <trkpt lat="43.45478382892906665802001953125" lon="1.44976858980953693389892578125">
        <ele>188.1999969482421875</ele>
        <time>2026-08-05T06:42:49.000Z</time>
        <extensions>
          <ns3:TrackPointExtension>
            <ns3:hr>70</ns3:hr>
            <ns3:cad>50</ns3:cad>
          </ns3:TrackPointExtension>
        </extensions>
      </trkpt>
      <trkpt lat="43.4547798894345760345458984375" lon="1.44977596588432788848876953125">
        <ele>188.1999969482421875</ele>
        <time>2026-08-05T06:42:50.000Z</time>
        <extensions>
          <ns3:TrackPointExtension>
            <ns3:hr>70</ns3:hr>
            <ns3:cad>50</ns3:cad>
          </ns3:TrackPointExtension>
        </extensions>
      </trkpt>
      <trkpt lat="43.45477527938783168792724609375" lon="1.44978971220552921295166015625">
        <ele>188</ele>
        <time>2026-08-05T06:42:51.000Z</time>
        <extensions>
          <ns3:TrackPointExtension>
            <ns3:hr>70</ns3:hr>
            <ns3:cad>52</ns3:cad>
          </ns3:TrackPointExtension>
        </extensions>
      </trkpt>
      <trkpt lat="43.4547715075314044952392578125" lon="1.44980572164058685302734375">
        <ele>188</ele>
        <time>2026-08-05T06:42:52.000Z</time>
        <extensions>
          <ns3:TrackPointExtension>
            <ns3:hr>70</ns3:hr>
            <ns3:cad>52</ns3:cad>
          </ns3:TrackPointExtension>
        </extensions>
      </trkpt>
      <trkpt lat="43.4547678194940090179443359375" lon="1.449821479618549346923828125">
        <ele>188</ele>
        <time>2026-08-05T06:42:53.000Z</time>
        <extensions>
          <ns3:TrackPointExtension>
            <ns3:hr>70</ns3:hr>
            <ns3:cad>52</ns3:cad>
          </ns3:TrackPointExtension>
        </extensions>
      </trkpt>
      <trkpt lat="43.45476572401821613311767578125" lon="1.4498345553874969482421875">
        <ele>188</ele>
        <time>2026-08-05T06:42:54.000Z</time>
        <extensions>
          <ns3:TrackPointExtension>
            <ns3:hr>70</ns3:hr>
            <ns3:cad>49</ns3:cad>
          </ns3:TrackPointExtension>
        </extensions>
      </trkpt>
      <trkpt lat="43.4547604434192180633544921875" lon="1.449851654469966888427734375">
        <ele>188</ele>
        <time>2026-08-05T06:42:55.000Z</time>
        <extensions>
          <ns3:TrackPointExtension>
            <ns3:hr>70</ns3:hr>
            <ns3:cad>48</ns3:cad>
          </ns3:TrackPointExtension>
        </extensions>
      </trkpt>
      <trkpt lat="43.4547534026205539703369140625" lon="1.4498659037053585052490234375">
        <ele>187.8000030517578125</ele>
        <time>2026-08-05T06:42:56.000Z</time>
        <extensions>
          <ns3:TrackPointExtension>
            <ns3:hr>70</ns3:hr>
            <ns3:cad>48</ns3:cad>
          </ns3:TrackPointExtension>
        </extensions>
      </trkpt>
      <trkpt lat="43.45474476926028728485107421875" lon="1.44988040439784526824951171875">
        <ele>187.8000030517578125</ele>
        <time>2026-08-05T06:42:57.000Z</time>
        <extensions>
          <ns3:TrackPointExtension>
            <ns3:hr>70</ns3:hr>
            <ns3:cad>48</ns3:cad>
          </ns3:TrackPointExtension>
        </extensions>
      </trkpt>
      <trkpt lat="43.454741500318050384521484375" lon="1.44989163614809513092041015625">
        <ele>187.8000030517578125</ele>
        <time>2026-08-05T06:42:58.000Z</time>
        <extensions>
          <ns3:TrackPointExtension>
            <ns3:hr>70</ns3:hr>
            <ns3:cad>48</ns3:cad>
          </ns3:TrackPointExtension>
        </extensions>
      </trkpt>
      <trkpt lat="43.45473722554743289947509765625" lon="1.44990555010735988616943359375">
        <ele>187.8000030517578125</ele>
        <time>2026-08-05T06:42:59.000Z</time>
        <extensions>
          <ns3:TrackPointExtension>
            <ns3:hr>70</ns3:hr>
            <ns3:cad>49</ns3:cad>
          </ns3:TrackPointExtension>
        </extensions>
      </trkpt>
      <trkpt lat="43.45473538152873516082763671875" lon="1.4499141834676265716552734375">
        <ele>187.600006103515625</ele>
        <time>2026-08-05T06:43:00.000Z</time>
        <extensions>
          <ns3:TrackPointExtension>
            <ns3:hr>70</ns3:hr>
            <ns3:cad>49</ns3:cad>
          </ns3:TrackPointExtension>
        </extensions>
      </trkpt>
      <trkpt lat="43.45473219640552997589111328125" lon="1.44992415793240070343017578125">
        <ele>187.600006103515625</ele>
        <time>2026-08-05T06:43:01.000Z</time>
        <extensions>
          <ns3:TrackPointExtension>
            <ns3:hr>70</ns3:hr>
            <ns3:cad>48</ns3:cad>
          </ns3:TrackPointExtension>
        </extensions>
      </trkpt>
      <trkpt lat="43.45473001711070537567138671875" lon="1.44993371330201625823974609375">
        <ele>187.600006103515625</ele>
        <time>2026-08-05T06:43:02.000Z</time>
        <extensions>
          <ns3:TrackPointExtension>
            <ns3:hr>71</ns3:hr>
            <ns3:cad>47</ns3:cad>
          </ns3:TrackPointExtension>
        </extensions>
      </trkpt>
      <trkpt lat="43.45472515560686588287353515625" lon="1.449945531785488128662109375">
        <ele>187.600006103515625</ele>
        <time>2026-08-05T06:43:03.000Z</time>
        <extensions>
          <ns3:TrackPointExtension>
            <ns3:hr>71</ns3:hr>
            <ns3:cad>47</ns3:cad>
          </ns3:TrackPointExtension>
        </extensions>
      </trkpt>
      <trkpt lat="43.45472373068332672119140625" lon="1.44995198585093021392822265625">
        <ele>187.399993896484375</ele>
        <time>2026-08-05T06:43:04.000Z</time>
        <extensions>
          <ns3:TrackPointExtension>
            <ns3:hr>71</ns3:hr>
            <ns3:cad>47</ns3:cad>
          </ns3:TrackPointExtension>
        </extensions>
      </trkpt>
      <trkpt lat="43.45472163520753383636474609375" lon="1.44996472634375095367431640625">
        <ele>187.399993896484375</ele>
        <time>2026-08-05T06:43:05.000Z</time>
        <extensions>
          <ns3:TrackPointExtension>
            <ns3:hr>72</ns3:hr>
            <ns3:cad>47</ns3:cad>
          </ns3:TrackPointExtension>
        </extensions>
      </trkpt>
      <trkpt lat="43.454717360436916351318359375" lon="1.4499768801033496856689453125">
        <ele>187.399993896484375</ele>
        <time>2026-08-05T06:43:06.000Z</time>
        <extensions>
          <ns3:TrackPointExtension>
            <ns3:hr>72</ns3:hr>
            <ns3:cad>47</ns3:cad>
          </ns3:TrackPointExtension>
        </extensions>
      </trkpt>
      <trkpt lat="43.45471291802823543548583984375" lon="1.44998936913907527923583984375">
        <ele>187.399993896484375</ele>
        <time>2026-08-05T06:43:07.000Z</time>
        <extensions>
          <ns3:TrackPointExtension>
            <ns3:hr>72</ns3:hr>
            <ns3:cad>46</ns3:cad>
          </ns3:TrackPointExtension>
        </extensions>
      </trkpt>
      <trkpt lat="43.454707972705364227294921875" lon="1.45000009797513484954833984375">
        <ele>187.399993896484375</ele>
        <time>2026-08-05T06:43:08.000Z</time>
        <extensions>
          <ns3:TrackPointExtension>
            <ns3:hr>72</ns3:hr>
            <ns3:cad>46</ns3:cad>
          </ns3:TrackPointExtension>
        </extensions>
      </trkpt>
      <trkpt lat="43.45470369793474674224853515625" lon="1.45001049153506755828857421875">
        <ele>187.399993896484375</ele>
        <time>2026-08-05T06:43:09.000Z</time>
        <extensions>
          <ns3:TrackPointExtension>
            <ns3:hr>72</ns3:hr>
            <ns3:cad>46</ns3:cad>
          </ns3:TrackPointExtension>
        </extensions>
      </trkpt>
      <trkpt lat="43.4547014348208904266357421875" lon="1.4500211365520954132080078125">
        <ele>187.1999969482421875</ele>
        <time>2026-08-05T06:43:10.000Z</time>
        <extensions>
          <ns3:TrackPointExtension>
            <ns3:hr>72</ns3:hr>
            <ns3:cad>47</ns3:cad>
          </ns3:TrackPointExtension>
        </extensions>
      </trkpt>
      <trkpt lat="43.4546948969364166259765625" lon="1.45003479905426502227783203125">
        <ele>187.1999969482421875</ele>
        <time>2026-08-05T06:43:11.000Z</time>
        <extensions>
          <ns3:TrackPointExtension>
            <ns3:hr>71</ns3:hr>
            <ns3:cad>48</ns3:cad>
          </ns3:TrackPointExtension>
        </extensions>
      </trkpt>
      <trkpt lat="43.4546895325183868408203125" lon="1.450047455728054046630859375">
        <ele>187.1999969482421875</ele>
        <time>2026-08-05T06:43:12.000Z</time>
        <extensions>
          <ns3:TrackPointExtension>
            <ns3:hr>71</ns3:hr>
            <ns3:cad>48</ns3:cad>
          </ns3:TrackPointExtension>
        </extensions>
      </trkpt>
      <trkpt lat="43.45468483865261077880859375" lon="1.45005843602120876312255859375">
        <ele>187</ele>
        <time>2026-08-05T06:43:13.000Z</time>
        <extensions>
          <ns3:TrackPointExtension>
            <ns3:hr>71</ns3:hr>
            <ns3:cad>48</ns3:cad>
          </ns3:TrackPointExtension>
        </extensions>
      </trkpt>
      <trkpt lat="43.45467955805361270904541015625" lon="1.45007084123790264129638671875">
        <ele>187</ele>
        <time>2026-08-05T06:43:14.000Z</time>
        <extensions>
          <ns3:TrackPointExtension>
            <ns3:hr>71</ns3:hr>
            <ns3:cad>48</ns3:cad>
          </ns3:TrackPointExtension>
        </extensions>
      </trkpt>
      <trkpt lat="43.454674445092678070068359375" lon="1.45008643157780170440673828125">
        <ele>187</ele>
        <time>2026-08-05T06:43:15.000Z</time>
        <extensions>
          <ns3:TrackPointExtension>
            <ns3:hr>71</ns3:hr>
            <ns3:cad>48</ns3:cad>
          </ns3:TrackPointExtension>
        </extensions>
      </trkpt>
      <trkpt lat="43.4546719305217266082763671875" lon="1.4500999264419078826904296875">
        <ele>187</ele>
        <time>2026-08-05T06:43:16.000Z</time>
        <extensions>
          <ns3:TrackPointExtension>
            <ns3:hr>70</ns3:hr>
            <ns3:cad>48</ns3:cad>
          </ns3:TrackPointExtension>
        </extensions>
      </trkpt>
      <trkpt lat="43.45466815866529941558837890625" lon="1.45011224783957004547119140625">
        <ele>186.8000030517578125</ele>
        <time>2026-08-05T06:43:17.000Z</time>
        <extensions>
          <ns3:TrackPointExtension>
            <ns3:hr>70</ns3:hr>
            <ns3:cad>47</ns3:cad>
          </ns3:TrackPointExtension>
        </extensions>
      </trkpt>
      <trkpt lat="43.45466145314276218414306640625" lon="1.450122557580471038818359375">
        <ele>186.8000030517578125</ele>
        <time>2026-08-05T06:43:18.000Z</time>
        <extensions>
          <ns3:TrackPointExtension>
            <ns3:hr>70</ns3:hr>
            <ns3:cad>46</ns3:cad>
          </ns3:TrackPointExtension>
        </extensions>
      </trkpt>
      <trkpt lat="43.454657681286334991455078125" lon="1.45013303495943546295166015625">
        <ele>186.600006103515625</ele>
        <time>2026-08-05T06:43:19.000Z</time>
        <extensions>
          <ns3:TrackPointExtension>
            <ns3:hr>70</ns3:hr>
            <ns3:cad>46</ns3:cad>
          </ns3:TrackPointExtension>
        </extensions>
      </trkpt>
      <trkpt lat="43.45465575344860553741455078125" lon="1.4501475356519222259521484375">
        <ele>186.600006103515625</ele>
        <time>2026-08-05T06:43:20.000Z</time>
        <extensions>
          <ns3:TrackPointExtension>
            <ns3:hr>70</ns3:hr>
            <ns3:cad>46</ns3:cad>
          </ns3:TrackPointExtension>
        </extensions>
      </trkpt>
      <trkpt lat="43.4546541608870029449462890625" lon="1.4501629583537578582763671875">
        <ele>186.399993896484375</ele>
        <time>2026-08-05T06:43:21.000Z</time>
        <extensions>
          <ns3:TrackPointExtension>
            <ns3:hr>70</ns3:hr>
            <ns3:cad>46</ns3:cad>
          </ns3:TrackPointExtension>
        </extensions>
      </trkpt>
      <trkpt lat="43.4546508081257343292236328125" lon="1.450176537036895751953125">
        <ele>186.1999969482421875</ele>
        <time>2026-08-05T06:43:22.000Z</time>
        <extensions>
          <ns3:TrackPointExtension>
            <ns3:hr>70</ns3:hr>
            <ns3:cad>47</ns3:cad>
          </ns3:TrackPointExtension>
        </extensions>
      </trkpt>
      <trkpt lat="43.45464753918349742889404296875" lon="1.45019170828163623809814453125">
        <ele>186.1999969482421875</ele>
        <time>2026-08-05T06:43:23.000Z</time>
        <extensions>
          <ns3:TrackPointExtension>
            <ns3:hr>70</ns3:hr>
            <ns3:cad>48</ns3:cad>
          </ns3:TrackPointExtension>
        </extensions>
      </trkpt>
      <trkpt lat="43.4546420909464359283447265625" lon="1.45020210184156894683837890625">
        <ele>186</ele>
        <time>2026-08-05T06:43:24.000Z</time>
        <extensions>
          <ns3:TrackPointExtension>
            <ns3:hr>69</ns3:hr>
            <ns3:cad>48</ns3:cad>
          </ns3:TrackPointExtension>
        </extensions>
      </trkpt>
      <trkpt lat="43.45463798381388187408447265625" lon="1.45021341741085052490234375">
        <ele>186</ele>
        <time>2026-08-05T06:43:25.000Z</time>
        <extensions>
          <ns3:TrackPointExtension>
            <ns3:hr>69</ns3:hr>
            <ns3:cad>49</ns3:cad>
          </ns3:TrackPointExtension>
        </extensions>
      </trkpt>
      <trkpt lat="43.45463295467197895050048828125" lon="1.450225152075290679931640625">
        <ele>186</ele>
        <time>2026-08-05T06:43:26.000Z</time>
        <extensions>
          <ns3:TrackPointExtension>
            <ns3:hr>69</ns3:hr>
            <ns3:cad>50</ns3:cad>
          </ns3:TrackPointExtension>
        </extensions>
      </trkpt>
      <trkpt lat="43.45462851226329803466796875" lon="1.4502377249300479888916015625">
        <ele>186</ele>
        <time>2026-08-05T06:43:27.000Z</time>
        <extensions>
          <ns3:TrackPointExtension>
            <ns3:hr>69</ns3:hr>
            <ns3:cad>49</ns3:cad>
          </ns3:TrackPointExtension>
        </extensions>
      </trkpt>
      <trkpt lat="43.45462490804493427276611328125" lon="1.45024803467094898223876953125">
        <ele>186</ele>
        <time>2026-08-05T06:43:28.000Z</time>
        <extensions>
          <ns3:TrackPointExtension>
            <ns3:hr>70</ns3:hr>
            <ns3:cad>49</ns3:cad>
          </ns3:TrackPointExtension>
        </extensions>
      </trkpt>
      <trkpt lat="43.454620800912380218505859375" lon="1.45025893114507198333740234375">
        <ele>186</ele>
        <time>2026-08-05T06:43:29.000Z</time>
        <extensions>
          <ns3:TrackPointExtension>
            <ns3:hr>70</ns3:hr>
            <ns3:cad>48</ns3:cad>
          </ns3:TrackPointExtension>
        </extensions>
      </trkpt>
      <trkpt lat="43.45461686141788959503173828125" lon="1.450274102389812469482421875">
        <ele>185.8000030517578125</ele>
        <time>2026-08-05T06:43:30.000Z</time>
        <extensions>
          <ns3:TrackPointExtension>
            <ns3:hr>71</ns3:hr>
            <ns3:cad>48</ns3:cad>
          </ns3:TrackPointExtension>
        </extensions>
      </trkpt>
      <trkpt lat="43.45461308956146240234375" lon="1.4502870105206966400146484375">
        <ele>185.8000030517578125</ele>
        <time>2026-08-05T06:43:31.000Z</time>
        <extensions>
          <ns3:TrackPointExtension>
            <ns3:hr>71</ns3:hr>
            <ns3:cad>47</ns3:cad>
          </ns3:TrackPointExtension>
        </extensions>
      </trkpt>
      <trkpt lat="43.4546095691621303558349609375" lon="1.4503027684986591339111328125">
        <ele>185.8000030517578125</ele>
        <time>2026-08-05T06:43:32.000Z</time>
        <extensions>
          <ns3:TrackPointExtension>
            <ns3:hr>72</ns3:hr>
            <ns3:cad>47</ns3:cad>
          </ns3:TrackPointExtension>
        </extensions>
      </trkpt>
      <trkpt lat="43.45460529439151287078857421875" lon="1.45031626336276531219482421875">
        <ele>185.8000030517578125</ele>
        <time>2026-08-05T06:43:33.000Z</time>
        <extensions>
          <ns3:TrackPointExtension>
            <ns3:hr>72</ns3:hr>
            <ns3:cad>47</ns3:cad>
          </ns3:TrackPointExtension>
        </extensions>
      </trkpt>
      <trkpt lat="43.454599678516387939453125" lon="1.45033143460750579833984375">
        <ele>185.8000030517578125</ele>
        <time>2026-08-05T06:43:34.000Z</time>
        <extensions>
          <ns3:TrackPointExtension>
            <ns3:hr>73</ns3:hr>
            <ns3:cad>47</ns3:cad>
          </ns3:TrackPointExtension>
        </extensions>
      </trkpt>
      <trkpt lat="43.4545974992215633392333984375" lon="1.4503426663577556610107421875">
        <ele>185.8000030517578125</ele>
        <time>2026-08-05T06:43:35.000Z</time>
        <extensions>
          <ns3:TrackPointExtension>
            <ns3:hr>72</ns3:hr>
            <ns3:cad>47</ns3:cad>
          </ns3:TrackPointExtension>
        </extensions>
      </trkpt>
      <trkpt lat="43.454594314098358154296875" lon="1.45035414956510066986083984375">
        <ele>185.8000030517578125</ele>
        <time>2026-08-05T06:43:36.000Z</time>
        <extensions>
          <ns3:TrackPointExtension>
            <ns3:hr>72</ns3:hr>
            <ns3:cad>47</ns3:cad>
          </ns3:TrackPointExtension>
        </extensions>
      </trkpt>
      <trkpt lat="43.4545921348035335540771484375" lon="1.45036756061017513275146484375">
        <ele>185.8000030517578125</ele>
        <time>2026-08-05T06:43:37.000Z</time>
        <extensions>
          <ns3:TrackPointExtension>
            <ns3:hr>72</ns3:hr>
            <ns3:cad>47</ns3:cad>
          </ns3:TrackPointExtension>
        </extensions>
      </trkpt>
      <trkpt lat="43.454588614404201507568359375" lon="1.45038239657878875732421875">
        <ele>186</ele>
        <time>2026-08-05T06:43:38.000Z</time>
        <extensions>
          <ns3:TrackPointExtension>
            <ns3:hr>72</ns3:hr>
            <ns3:cad>46</ns3:cad>
          </ns3:TrackPointExtension>
        </extensions>
      </trkpt>
      <trkpt lat="43.45458987168967723846435546875" lon="1.45039639435708522796630859375">
        <ele>186</ele>
        <time>2026-08-05T06:43:39.000Z</time>
        <extensions>
          <ns3:TrackPointExtension>
            <ns3:hr>72</ns3:hr>
            <ns3:cad>46</ns3:cad>
          </ns3:TrackPointExtension>
        </extensions>
      </trkpt>
      <trkpt lat="43.4545850940048694610595703125" lon="1.45040921866893768310546875">
        <ele>186</ele>
        <time>2026-08-05T06:43:40.000Z</time>
        <extensions>
          <ns3:TrackPointExtension>
            <ns3:hr>71</ns3:hr>
            <ns3:cad>45</ns3:cad>
          </ns3:TrackPointExtension>
        </extensions>
      </trkpt>
      <trkpt lat="43.45458098687231540679931640625" lon="1.45041835494339466094970703125">
        <ele>186</ele>
        <time>2026-08-05T06:43:41.000Z</time>
        <extensions>
          <ns3:TrackPointExtension>
            <ns3:hr>71</ns3:hr>
            <ns3:cad>45</ns3:cad>
          </ns3:TrackPointExtension>
        </extensions>
      </trkpt>
      <trkpt lat="43.45457646064460277557373046875" lon="1.45043008960783481597900390625">
        <ele>186</ele>
        <time>2026-08-05T06:43:42.000Z</time>
        <extensions>
          <ns3:TrackPointExtension>
            <ns3:hr>70</ns3:hr>
            <ns3:cad>45</ns3:cad>
          </ns3:TrackPointExtension>
        </extensions>
      </trkpt>
      <trkpt lat="43.45456891693174839019775390625" lon="1.45044500939548015594482421875">
        <ele>186</ele>
        <time>2026-08-05T06:43:43.000Z</time>
        <extensions>
          <ns3:TrackPointExtension>
            <ns3:hr>70</ns3:hr>
            <ns3:cad>45</ns3:cad>
          </ns3:TrackPointExtension>
        </extensions>
      </trkpt>
      <trkpt lat="43.45456187613308429718017578125" lon="1.4504566602408885955810546875">
        <ele>186</ele>
        <time>2026-08-05T06:43:44.000Z</time>
        <extensions>
          <ns3:TrackPointExtension>
            <ns3:hr>70</ns3:hr>
            <ns3:cad>46</ns3:cad>
          </ns3:TrackPointExtension>
        </extensions>
      </trkpt>
      <trkpt lat="43.454554080963134765625" lon="1.45046956837177276611328125">
        <ele>186</ele>
        <time>2026-08-05T06:43:45.000Z</time>
        <extensions>
          <ns3:TrackPointExtension>
            <ns3:hr>70</ns3:hr>
            <ns3:cad>47</ns3:cad>
          </ns3:TrackPointExtension>
        </extensions>
      </trkpt>
      <trkpt lat="43.45454695634543895721435546875" lon="1.450481303036212921142578125">
        <ele>186</ele>
        <time>2026-08-05T06:43:46.000Z</time>
        <extensions>
          <ns3:TrackPointExtension>
            <ns3:hr>70</ns3:hr>
            <ns3:cad>47</ns3:cad>
          </ns3:TrackPointExtension>
        </extensions>
      </trkpt>
      <trkpt lat="43.4545393288135528564453125" lon="1.4504925347864627838134765625">
        <ele>186</ele>
        <time>2026-08-05T06:43:47.000Z</time>
        <extensions>
          <ns3:TrackPointExtension>
            <ns3:hr>70</ns3:hr>
            <ns3:cad>47</ns3:cad>
          </ns3:TrackPointExtension>
        </extensions>
      </trkpt>
      <trkpt lat="43.4545317851006984710693359375" lon="1.45050552673637866973876953125">
        <ele>185.8000030517578125</ele>
        <time>2026-08-05T06:43:48.000Z</time>
        <extensions>
          <ns3:TrackPointExtension>
            <ns3:hr>69</ns3:hr>
            <ns3:cad>47</ns3:cad>
          </ns3:TrackPointExtension>
        </extensions>
      </trkpt>
      <trkpt lat="43.45452650450170040130615234375" lon="1.45052044652402400970458984375">
        <ele>185.8000030517578125</ele>
        <time>2026-08-05T06:43:49.000Z</time>
        <extensions>
          <ns3:TrackPointExtension>
            <ns3:hr>70</ns3:hr>
            <ns3:cad>47</ns3:cad>
          </ns3:TrackPointExtension>
        </extensions>
      </trkpt>
      <trkpt lat="43.454518206417560577392578125" lon="1.45052899606525897979736328125">
        <ele>185.8000030517578125</ele>
        <time>2026-08-05T06:43:50.000Z</time>
        <extensions>
          <ns3:TrackPointExtension>
            <ns3:hr>70</ns3:hr>
            <ns3:cad>47</ns3:cad>
          </ns3:TrackPointExtension>
        </extensions>
      </trkpt>
      <trkpt lat="43.45451141707599163055419921875" lon="1.45053670741617679595947265625">
        <ele>185.8000030517578125</ele>
        <time>2026-08-05T06:43:51.000Z</time>
        <extensions>
          <ns3:TrackPointExtension>
            <ns3:hr>70</ns3:hr>
            <ns3:cad>47</ns3:cad>
          </ns3:TrackPointExtension>
        </extensions>
      </trkpt>
      <trkpt lat="43.45450378954410552978515625" lon="1.45054626278579235076904296875">
        <ele>185.8000030517578125</ele>
        <time>2026-08-05T06:43:52.000Z</time>
        <extensions>
          <ns3:TrackPointExtension>
            <ns3:hr>69</ns3:hr>
            <ns3:cad>46</ns3:cad>
          </ns3:TrackPointExtension>
        </extensions>
      </trkpt>
      <trkpt lat="43.454497754573822021484375" lon="1.45055430941283702850341796875">
        <ele>185.600006103515625</ele>
        <time>2026-08-05T06:43:53.000Z</time>
        <extensions>
          <ns3:TrackPointExtension>
            <ns3:hr>69</ns3:hr>
            <ns3:cad>46</ns3:cad>
          </ns3:TrackPointExtension>
        </extensions>
      </trkpt>
      <trkpt lat="43.45448945648968219757080078125" lon="1.4505659602582454681396484375">
        <ele>185.600006103515625</ele>
        <time>2026-08-05T06:43:54.000Z</time>
        <extensions>
          <ns3:TrackPointExtension>
            <ns3:hr>69</ns3:hr>
            <ns3:cad>47</ns3:cad>
          </ns3:TrackPointExtension>
        </extensions>
      </trkpt>
      <trkpt lat="43.45448208041489124298095703125" lon="1.450576521456241607666015625">
        <ele>185.399993896484375</ele>
        <time>2026-08-05T06:43:55.000Z</time>
        <extensions>
          <ns3:TrackPointExtension>
            <ns3:hr>69</ns3:hr>
            <ns3:cad>48</ns3:cad>
          </ns3:TrackPointExtension>
        </extensions>
      </trkpt>
      <trkpt lat="43.454475291073322296142578125" lon="1.45058356225490570068359375">
        <ele>185.399993896484375</ele>
        <time>2026-08-05T06:43:56.000Z</time>
        <extensions>
          <ns3:TrackPointExtension>
            <ns3:hr>69</ns3:hr>
            <ns3:cad>49</ns3:cad>
          </ns3:TrackPointExtension>
        </extensions>
      </trkpt>
      <trkpt lat="43.45446917228400707244873046875" lon="1.4505947940051555633544921875">
        <ele>185.1999969482421875</ele>
        <time>2026-08-05T06:43:57.000Z</time>
        <extensions>
          <ns3:TrackPointExtension>
            <ns3:hr>69</ns3:hr>
            <ns3:cad>48</ns3:cad>
          </ns3:TrackPointExtension>
        </extensions>
      </trkpt>
      <trkpt lat="43.45446087419986724853515625" lon="1.45060577429831027984619140625">
        <ele>185.1999969482421875</ele>
        <time>2026-08-05T06:43:58.000Z</time>
        <extensions>
          <ns3:TrackPointExtension>
            <ns3:hr>69</ns3:hr>
            <ns3:cad>48</ns3:cad>
          </ns3:TrackPointExtension>
        </extensions>
      </trkpt>
      <trkpt lat="43.45445148646831512451171875" lon="1.45061465911567211151123046875">
        <ele>185</ele>
        <time>2026-08-05T06:43:59.000Z</time>
        <extensions>
          <ns3:TrackPointExtension>
            <ns3:hr>69</ns3:hr>
            <ns3:cad>48</ns3:cad>
          </ns3:TrackPointExtension>
        </extensions>
      </trkpt>
      <trkpt lat="43.4544422663748264312744140625" lon="1.45061985589563846588134765625">
        <ele>185</ele>
        <time>2026-08-05T06:44:00.000Z</time>
        <extensions>
          <ns3:TrackPointExtension>
            <ns3:hr>69</ns3:hr>
            <ns3:cad>48</ns3:cad>
          </ns3:TrackPointExtension>
        </extensions>
      </trkpt>
      <trkpt lat="43.45443271100521087646484375" lon="1.45062781870365142822265625">
        <ele>185</ele>
        <time>2026-08-05T06:44:01.000Z</time>
        <extensions>
          <ns3:TrackPointExtension>
            <ns3:hr>69</ns3:hr>
            <ns3:cad>48</ns3:cad>
          </ns3:TrackPointExtension>
        </extensions>
      </trkpt>
      <trkpt lat="43.4544268436729907989501953125" lon="1.45063829608261585235595703125">
        <ele>184.8000030517578125</ele>
        <time>2026-08-05T06:44:02.000Z</time>
        <extensions>
          <ns3:TrackPointExtension>
            <ns3:hr>69</ns3:hr>
            <ns3:cad>48</ns3:cad>
          </ns3:TrackPointExtension>
        </extensions>
      </trkpt>
      <trkpt lat="43.45441737212240695953369140625" lon="1.45064768381416797637939453125">
        <ele>184.8000030517578125</ele>
        <time>2026-08-05T06:44:03.000Z</time>
        <extensions>
          <ns3:TrackPointExtension>
            <ns3:hr>69</ns3:hr>
            <ns3:cad>48</ns3:cad>
          </ns3:TrackPointExtension>
        </extensions>
      </trkpt>
      <trkpt lat="43.4544104151427745819091796875" lon="1.4506588317453861236572265625">
        <ele>184.8000030517578125</ele>
        <time>2026-08-05T06:44:04.000Z</time>
        <extensions>
          <ns3:TrackPointExtension>
            <ns3:hr>68</ns3:hr>
            <ns3:cad>48</ns3:cad>
          </ns3:TrackPointExtension>
        </extensions>
      </trkpt>
      <trkpt lat="43.45439960248768329620361328125" lon="1.4506665430963039398193359375">
        <ele>184.600006103515625</ele>
        <time>2026-08-05T06:44:05.000Z</time>
        <extensions>
          <ns3:TrackPointExtension>
            <ns3:hr>68</ns3:hr>
            <ns3:cad>48</ns3:cad>
          </ns3:TrackPointExtension>
        </extensions>
      </trkpt>
      <trkpt lat="43.45439189113676548004150390625" lon="1.4506714046001434326171875">
        <ele>184.600006103515625</ele>
        <time>2026-08-05T06:44:06.000Z</time>
        <extensions>
          <ns3:TrackPointExtension>
            <ns3:hr>68</ns3:hr>
            <ns3:cad>47</ns3:cad>
          </ns3:TrackPointExtension>
        </extensions>
      </trkpt>
      <trkpt lat="43.45438443124294281005859375" lon="1.45067341625690460205078125">
        <ele>184.399993896484375</ele>
        <time>2026-08-05T06:44:07.000Z</time>
        <extensions>
          <ns3:TrackPointExtension>
            <ns3:hr>68</ns3:hr>
            <ns3:cad>47</ns3:cad>
          </ns3:TrackPointExtension>
        </extensions>
      </trkpt>
      <trkpt lat="43.4543795697391033172607421875" lon="1.45068238489329814910888671875">
        <ele>184.399993896484375</ele>
        <time>2026-08-05T06:44:08.000Z</time>
        <extensions>
          <ns3:TrackPointExtension>
            <ns3:hr>67</ns3:hr>
            <ns3:cad>50</ns3:cad>
          </ns3:TrackPointExtension>
        </extensions>
      </trkpt>
      <trkpt lat="43.45437697134912014007568359375" lon="1.450694538652896881103515625">
        <ele>184.1999969482421875</ele>
        <time>2026-08-05T06:44:09.000Z</time>
        <extensions>
          <ns3:TrackPointExtension>
            <ns3:hr>67</ns3:hr>
            <ns3:cad>50</ns3:cad>
          </ns3:TrackPointExtension>
        </extensions>
      </trkpt>
      <trkpt lat="43.454373367130756378173828125" lon="1.45070518366992473602294921875">
        <ele>184.1999969482421875</ele>
        <time>2026-08-05T06:44:10.000Z</time>
        <extensions>
          <ns3:TrackPointExtension>
            <ns3:hr>68</ns3:hr>
            <ns3:cad>50</ns3:cad>
          </ns3:TrackPointExtension>
        </extensions>
      </trkpt>
      <trkpt lat="43.45436657778918743133544921875" lon="1.45071364939212799072265625">
        <ele>184</ele>
        <time>2026-08-05T06:44:11.000Z</time>
        <extensions>
          <ns3:TrackPointExtension>
            <ns3:hr>67</ns3:hr>
            <ns3:cad>0</ns3:cad>
          </ns3:TrackPointExtension>
        </extensions>
      </trkpt>
      <trkpt lat="43.454359285533428192138671875" lon="1.450724042952060699462890625">
        <ele>184</ele>
        <time>2026-08-05T06:44:12.000Z</time>
        <extensions>
          <ns3:TrackPointExtension>
            <ns3:hr>67</ns3:hr>
            <ns3:cad>0</ns3:cad>
          </ns3:TrackPointExtension>
        </extensions>
      </trkpt>
      <trkpt lat="43.454353250563144683837890625" lon="1.4507346041500568389892578125">
        <ele>184</ele>
        <time>2026-08-05T06:44:13.000Z</time>
        <extensions>
          <ns3:TrackPointExtension>
            <ns3:hr>67</ns3:hr>
            <ns3:cad>0</ns3:cad>
          </ns3:TrackPointExtension>
        </extensions>
      </trkpt>
      <trkpt lat="43.45434688031673431396484375" lon="1.4507473446428775787353515625">
        <ele>183.8000030517578125</ele>
        <time>2026-08-05T06:44:14.000Z</time>
        <extensions>
          <ns3:TrackPointExtension>
            <ns3:hr>66</ns3:hr>
            <ns3:cad>0</ns3:cad>
          </ns3:TrackPointExtension>
        </extensions>
      </trkpt>
      <trkpt lat="43.45434159971773624420166015625" lon="1.4507607556879520416259765625">
        <ele>183.8000030517578125</ele>
        <time>2026-08-05T06:44:15.000Z</time>
        <extensions>
          <ns3:TrackPointExtension>
            <ns3:hr>66</ns3:hr>
            <ns3:cad>0</ns3:cad>
          </ns3:TrackPointExtension>
        </extensions>
      </trkpt>
      <trkpt lat="43.45433590002357959747314453125" lon="1.45077056251466274261474609375">
        <ele>183.600006103515625</ele>
        <time>2026-08-05T06:44:16.000Z</time>
        <extensions>
          <ns3:TrackPointExtension>
            <ns3:hr>66</ns3:hr>
            <ns3:cad>45</ns3:cad>
          </ns3:TrackPointExtension>
        </extensions>
      </trkpt>
      <trkpt lat="43.45432944595813751220703125" lon="1.4507808722555637359619140625">
        <ele>183.600006103515625</ele>
        <time>2026-08-05T06:44:17.000Z</time>
        <extensions>
          <ns3:TrackPointExtension>
            <ns3:hr>66</ns3:hr>
            <ns3:cad>46</ns3:cad>
          </ns3:TrackPointExtension>
        </extensions>
      </trkpt>
      <trkpt lat="43.45432450063526630401611328125" lon="1.450792439281940460205078125">
        <ele>183.399993896484375</ele>
        <time>2026-08-05T06:44:18.000Z</time>
        <extensions>
          <ns3:TrackPointExtension>
            <ns3:hr>66</ns3:hr>
            <ns3:cad>46</ns3:cad>
          </ns3:TrackPointExtension>
        </extensions>
      </trkpt>
      <trkpt lat="43.45431863330304622650146484375" lon="1.450803838670253753662109375">
        <ele>183.399993896484375</ele>
        <time>2026-08-05T06:44:19.000Z</time>
        <extensions>
          <ns3:TrackPointExtension>
            <ns3:hr>66</ns3:hr>
            <ns3:cad>48</ns3:cad>
          </ns3:TrackPointExtension>
        </extensions>
      </trkpt>
      <trkpt lat="43.4543141908943653106689453125" lon="1.450815238058567047119140625">
        <ele>183.1999969482421875</ele>
        <time>2026-08-05T06:44:20.000Z</time>
        <extensions>
          <ns3:TrackPointExtension>
            <ns3:hr>66</ns3:hr>
            <ns3:cad>48</ns3:cad>
          </ns3:TrackPointExtension>
        </extensions>
      </trkpt>
      <trkpt lat="43.4543115086853504180908203125" lon="1.450824625790119171142578125">
        <ele>183.1999969482421875</ele>
        <time>2026-08-05T06:44:21.000Z</time>
        <extensions>
          <ns3:TrackPointExtension>
            <ns3:hr>67</ns3:hr>
            <ns3:cad>49</ns3:cad>
          </ns3:TrackPointExtension>
        </extensions>
      </trkpt>
      <trkpt lat="43.45430488698184490203857421875" lon="1.45083929412066936492919921875">
        <ele>183</ele>
        <time>2026-08-05T06:44:22.000Z</time>
        <extensions>
          <ns3:TrackPointExtension>
            <ns3:hr>68</ns3:hr>
            <ns3:cad>49</ns3:cad>
          </ns3:TrackPointExtension>
        </extensions>
      </trkpt>
      <trkpt lat="43.45429901964962482452392578125" lon="1.45084817893803119659423828125">
        <ele>183</ele>
        <time>2026-08-05T06:44:23.000Z</time>
        <extensions>
          <ns3:TrackPointExtension>
            <ns3:hr>68</ns3:hr>
            <ns3:cad>48</ns3:cad>
          </ns3:TrackPointExtension>
        </extensions>
      </trkpt>
      <trkpt lat="43.45429382286965847015380859375" lon="1.4508593268692493438720703125">
        <ele>182.8000030517578125</ele>
        <time>2026-08-05T06:44:24.000Z</time>
        <extensions>
          <ns3:TrackPointExtension>
            <ns3:hr>68</ns3:hr>
            <ns3:cad>48</ns3:cad>
          </ns3:TrackPointExtension>
        </extensions>
      </trkpt>
      <trkpt lat="43.4542893804609775543212890625" lon="1.45087265409529209136962890625">
        <ele>182.8000030517578125</ele>
        <time>2026-08-05T06:44:25.000Z</time>
        <extensions>
          <ns3:TrackPointExtension>
            <ns3:hr>68</ns3:hr>
            <ns3:cad>48</ns3:cad>
          </ns3:TrackPointExtension>
        </extensions>
      </trkpt>
      <trkpt lat="43.454280830919742584228515625" lon="1.45088422112166881561279296875">
        <ele>182.600006103515625</ele>
        <time>2026-08-05T06:44:26.000Z</time>
        <extensions>
          <ns3:TrackPointExtension>
            <ns3:hr>67</ns3:hr>
            <ns3:cad>48</ns3:cad>
          </ns3:TrackPointExtension>
        </extensions>
      </trkpt>
      <trkpt lat="43.45427253283560276031494140625" lon="1.4508915133774280548095703125">
        <ele>182.600006103515625</ele>
        <time>2026-08-05T06:44:27.000Z</time>
        <extensions>
          <ns3:TrackPointExtension>
            <ns3:hr>67</ns3:hr>
            <ns3:cad>49</ns3:cad>
          </ns3:TrackPointExtension>
        </extensions>
      </trkpt>
      <trkpt lat="43.4542669169604778289794921875" lon="1.45089427940547466278076171875">
        <ele>182.600006103515625</ele>
        <time>2026-08-05T06:44:28.000Z</time>
        <extensions>
          <ns3:TrackPointExtension>
            <ns3:hr>67</ns3:hr>
            <ns3:cad>49</ns3:cad>
          </ns3:TrackPointExtension>
        </extensions>
      </trkpt>
      <trkpt lat="43.4542598761618137359619140625" lon="1.45090878009796142578125">
        <ele>182.600006103515625</ele>
        <time>2026-08-05T06:44:29.000Z</time>
        <extensions>
          <ns3:TrackPointExtension>
            <ns3:hr>68</ns3:hr>
            <ns3:cad>49</ns3:cad>
          </ns3:TrackPointExtension>
        </extensions>
      </trkpt>
      <trkpt lat="43.454256355762481689453125" lon="1.45092076621949672698974609375">
        <ele>182.600006103515625</ele>
        <time>2026-08-05T06:44:30.000Z</time>
        <extensions>
          <ns3:TrackPointExtension>
            <ns3:hr>68</ns3:hr>
            <ns3:cad>49</ns3:cad>
          </ns3:TrackPointExtension>
        </extensions>
      </trkpt>
      <trkpt lat="43.4542504884302616119384765625" lon="1.45093484781682491302490234375">
        <ele>182.600006103515625</ele>
        <time>2026-08-05T06:44:31.000Z</time>
        <extensions>
          <ns3:TrackPointExtension>
            <ns3:hr>68</ns3:hr>
            <ns3:cad>49</ns3:cad>
          </ns3:TrackPointExtension>
        </extensions>
      </trkpt>
      <trkpt lat="43.454244621098041534423828125" lon="1.45094490610063076019287109375">
        <ele>182.600006103515625</ele>
        <time>2026-08-05T06:44:32.000Z</time>
        <extensions>
          <ns3:TrackPointExtension>
            <ns3:hr>69</ns3:hr>
            <ns3:cad>48</ns3:cad>
          </ns3:TrackPointExtension>
        </extensions>
      </trkpt>
      <trkpt lat="43.45423934049904346466064453125" lon="1.4509570598602294921875">
        <ele>182.600006103515625</ele>
        <time>2026-08-05T06:44:33.000Z</time>
        <extensions>
          <ns3:TrackPointExtension>
            <ns3:hr>70</ns3:hr>
            <ns3:cad>47</ns3:cad>
          </ns3:TrackPointExtension>
        </extensions>
      </trkpt>
      <trkpt lat="43.45423146151006221771240234375" lon="1.45097256638109683990478515625">
        <ele>182.600006103515625</ele>
        <time>2026-08-05T06:44:34.000Z</time>
        <extensions>
          <ns3:TrackPointExtension>
            <ns3:hr>70</ns3:hr>
            <ns3:cad>47</ns3:cad>
          </ns3:TrackPointExtension>
        </extensions>
      </trkpt>
      <trkpt lat="43.45422995276749134063720703125" lon="1.45098430104553699493408203125">
        <ele>182.399993896484375</ele>
        <time>2026-08-05T06:44:35.000Z</time>
        <extensions>
          <ns3:TrackPointExtension>
            <ns3:hr>71</ns3:hr>
            <ns3:cad>47</ns3:cad>
          </ns3:TrackPointExtension>
        </extensions>
      </trkpt>
      <trkpt lat="43.454224504530429840087890625" lon="1.45099570043385028839111328125">
        <ele>182.399993896484375</ele>
        <time>2026-08-05T06:44:36.000Z</time>
        <extensions>
          <ns3:TrackPointExtension>
            <ns3:hr>71</ns3:hr>
            <ns3:cad>47</ns3:cad>
          </ns3:TrackPointExtension>
        </extensions>
      </trkpt>
      <trkpt lat="43.454218804836273193359375" lon="1.4510065130889415740966796875">
        <ele>182.399993896484375</ele>
        <time>2026-08-05T06:44:37.000Z</time>
        <extensions>
          <ns3:TrackPointExtension>
            <ns3:hr>71</ns3:hr>
            <ns3:cad>47</ns3:cad>
          </ns3:TrackPointExtension>
        </extensions>
      </trkpt>
      <trkpt lat="43.4542115963995456695556640625" lon="1.4510199241340160369873046875">
        <ele>182.399993896484375</ele>
        <time>2026-08-05T06:44:38.000Z</time>
        <extensions>
          <ns3:TrackPointExtension>
            <ns3:hr>71</ns3:hr>
            <ns3:cad>47</ns3:cad>
          </ns3:TrackPointExtension>
        </extensions>
      </trkpt>
      <trkpt lat="43.4542035497725009918212890625" lon="1.4510363526642322540283203125">
        <ele>182.399993896484375</ele>
        <time>2026-08-05T06:44:39.000Z</time>
        <extensions>
          <ns3:TrackPointExtension>
            <ns3:hr>71</ns3:hr>
            <ns3:cad>47</ns3:cad>
          </ns3:TrackPointExtension>
        </extensions>
      </trkpt>
      <trkpt lat="43.45419776625931262969970703125" lon="1.45104750059545040130615234375">
        <ele>182.399993896484375</ele>
        <time>2026-08-05T06:44:40.000Z</time>
        <extensions>
          <ns3:TrackPointExtension>
            <ns3:hr>72</ns3:hr>
            <ns3:cad>47</ns3:cad>
          </ns3:TrackPointExtension>
        </extensions>
      </trkpt>
      <trkpt lat="43.454190306365489959716796875" lon="1.45105990581214427947998046875">
        <ele>182.399993896484375</ele>
        <time>2026-08-05T06:44:41.000Z</time>
        <extensions>
          <ns3:TrackPointExtension>
            <ns3:hr>72</ns3:hr>
            <ns3:cad>47</ns3:cad>
          </ns3:TrackPointExtension>
        </extensions>
      </trkpt>
      <trkpt lat="43.4541879594326019287109375" lon="1.4510715566575527191162109375">
        <ele>182.399993896484375</ele>
        <time>2026-08-05T06:44:42.000Z</time>
        <extensions>
          <ns3:TrackPointExtension>
            <ns3:hr>72</ns3:hr>
            <ns3:cad>49</ns3:cad>
          </ns3:TrackPointExtension>
        </extensions>
      </trkpt>
      <trkpt lat="43.45418301410973072052001953125" lon="1.45108781754970550537109375">
        <ele>182.399993896484375</ele>
        <time>2026-08-05T06:44:43.000Z</time>
        <extensions>
          <ns3:TrackPointExtension>
            <ns3:hr>72</ns3:hr>
            <ns3:cad>49</ns3:cad>
          </ns3:TrackPointExtension>
        </extensions>
      </trkpt>
      <trkpt lat="43.45417731441557407379150390625" lon="1.45109946839511394500732421875">
        <ele>182.399993896484375</ele>
        <time>2026-08-05T06:44:44.000Z</time>
        <extensions>
          <ns3:TrackPointExtension>
            <ns3:hr>72</ns3:hr>
            <ns3:cad>49</ns3:cad>
          </ns3:TrackPointExtension>
        </extensions>
      </trkpt>
      <trkpt lat="43.45417597331106662750244140625" lon="1.45110717974603176116943359375">
        <ele>182.399993896484375</ele>
        <time>2026-08-05T06:44:45.000Z</time>
        <extensions>
          <ns3:TrackPointExtension>
            <ns3:hr>72</ns3:hr>
            <ns3:cad>48</ns3:cad>
          </ns3:TrackPointExtension>
        </extensions>
      </trkpt>
      <trkpt lat="43.4541727043688297271728515625" lon="1.4511193335056304931640625">
        <ele>182.399993896484375</ele>
        <time>2026-08-05T06:44:46.000Z</time>
        <extensions>
          <ns3:TrackPointExtension>
            <ns3:hr>72</ns3:hr>
            <ns3:cad>47</ns3:cad>
          </ns3:TrackPointExtension>
        </extensions>
      </trkpt>
      <trkpt lat="43.45416692085564136505126953125" lon="1.451133750379085540771484375">
        <ele>182.399993896484375</ele>
        <time>2026-08-05T06:44:47.000Z</time>
        <extensions>
          <ns3:TrackPointExtension>
            <ns3:hr>72</ns3:hr>
            <ns3:cad>47</ns3:cad>
          </ns3:TrackPointExtension>
        </extensions>
      </trkpt>
      <trkpt lat="43.45416407100856304168701171875" lon="1.45114456303417682647705078125">
        <ele>182.399993896484375</ele>
        <time>2026-08-05T06:44:48.000Z</time>
        <extensions>
          <ns3:TrackPointExtension>
            <ns3:hr>72</ns3:hr>
            <ns3:cad>47</ns3:cad>
          </ns3:TrackPointExtension>
        </extensions>
      </trkpt>
      <trkpt lat="43.4541602991521358489990234375" lon="1.451155878603458404541015625">
        <ele>182.399993896484375</ele>
        <time>2026-08-05T06:44:49.000Z</time>
        <extensions>
          <ns3:TrackPointExtension>
            <ns3:hr>71</ns3:hr>
            <ns3:cad>47</ns3:cad>
          </ns3:TrackPointExtension>
        </extensions>
      </trkpt>
      <trkpt lat="43.45415267162024974822998046875" lon="1.4511704631149768829345703125">
        <ele>182.399993896484375</ele>
        <time>2026-08-05T06:44:50.000Z</time>
        <extensions>
          <ns3:TrackPointExtension>
            <ns3:hr>72</ns3:hr>
            <ns3:cad>47</ns3:cad>
          </ns3:TrackPointExtension>
        </extensions>
      </trkpt>
      <trkpt lat="43.4541455470025539398193359375" lon="1.4511842094361782073974609375">
        <ele>182.399993896484375</ele>
        <time>2026-08-05T06:44:51.000Z</time>
        <extensions>
          <ns3:TrackPointExtension>
            <ns3:hr>72</ns3:hr>
            <ns3:cad>47</ns3:cad>
          </ns3:TrackPointExtension>
        </extensions>
      </trkpt>
      <trkpt lat="43.454139344394207000732421875" lon="1.45119669847190380096435546875">
        <ele>182.399993896484375</ele>
        <time>2026-08-05T06:44:52.000Z</time>
        <extensions>
          <ns3:TrackPointExtension>
            <ns3:hr>72</ns3:hr>
            <ns3:cad>47</ns3:cad>
          </ns3:TrackPointExtension>
        </extensions>
      </trkpt>
      <trkpt lat="43.45413473434746265411376953125" lon="1.45120927132666110992431640625">
        <ele>182.399993896484375</ele>
        <time>2026-08-05T06:44:53.000Z</time>
        <extensions>
          <ns3:TrackPointExtension>
            <ns3:hr>72</ns3:hr>
            <ns3:cad>47</ns3:cad>
          </ns3:TrackPointExtension>
        </extensions>
      </trkpt>
      <trkpt lat="43.4541294537484645843505859375" lon="1.4512241072952747344970703125">
        <ele>182.399993896484375</ele>
        <time>2026-08-05T06:44:54.000Z</time>
        <extensions>
          <ns3:TrackPointExtension>
            <ns3:hr>72</ns3:hr>
            <ns3:cad>47</ns3:cad>
          </ns3:TrackPointExtension>
        </extensions>
      </trkpt>
      <trkpt lat="43.4541235864162445068359375" lon="1.45123760215938091278076171875">
        <ele>182.399993896484375</ele>
        <time>2026-08-05T06:44:55.000Z</time>
        <extensions>
          <ns3:TrackPointExtension>
            <ns3:hr>72</ns3:hr>
            <ns3:cad>47</ns3:cad>
          </ns3:TrackPointExtension>
        </extensions>
      </trkpt>
      <trkpt lat="43.45411662943661212921142578125" lon="1.451249085366725921630859375">
        <ele>182.399993896484375</ele>
        <time>2026-08-05T06:44:56.000Z</time>
        <extensions>
          <ns3:TrackPointExtension>
            <ns3:hr>73</ns3:hr>
            <ns3:cad>47</ns3:cad>
          </ns3:TrackPointExtension>
        </extensions>
      </trkpt>
      <trkpt lat="43.45411227084696292877197265625" lon="1.45126056857407093048095703125">
        <ele>182.399993896484375</ele>
        <time>2026-08-05T06:44:57.000Z</time>
        <extensions>
          <ns3:TrackPointExtension>
            <ns3:hr>73</ns3:hr>
            <ns3:cad>0</ns3:cad>
          </ns3:TrackPointExtension>
        </extensions>
      </trkpt>
      <trkpt lat="43.45410740934312343597412109375" lon="1.45127196796238422393798828125">
        <ele>182.399993896484375</ele>
        <time>2026-08-05T06:44:58.000Z</time>
        <extensions>
          <ns3:TrackPointExtension>
            <ns3:hr>73</ns3:hr>
            <ns3:cad>0</ns3:cad>
          </ns3:TrackPointExtension>
        </extensions>
      </trkpt>
      <trkpt lat="43.45410120673477649688720703125" lon="1.4512807689607143402099609375">
        <ele>182.399993896484375</ele>
        <time>2026-08-05T06:44:59.000Z</time>
        <extensions>
          <ns3:TrackPointExtension>
            <ns3:hr>73</ns3:hr>
            <ns3:cad>0</ns3:cad>
          </ns3:TrackPointExtension>
        </extensions>
      </trkpt>
      <trkpt lat="43.45409684814512729644775390625" lon="1.45129141397774219512939453125">
        <ele>182.399993896484375</ele>
        <time>2026-08-05T06:45:00.000Z</time>
        <extensions>
          <ns3:TrackPointExtension>
            <ns3:hr>73</ns3:hr>
            <ns3:cad>0</ns3:cad>
          </ns3:TrackPointExtension>
        </extensions>
      </trkpt>
      <trkpt lat="43.454093076288700103759765625" lon="1.4513065852224826812744140625">
        <ele>182.399993896484375</ele>
        <time>2026-08-05T06:45:01.000Z</time>
        <extensions>
          <ns3:TrackPointExtension>
            <ns3:hr>73</ns3:hr>
            <ns3:cad>47</ns3:cad>
          </ns3:TrackPointExtension>
        </extensions>
      </trkpt>
      <trkpt lat="43.45408561639487743377685546875" lon="1.45131689496338367462158203125">
        <ele>182.399993896484375</ele>
        <time>2026-08-05T06:45:02.000Z</time>
        <extensions>
          <ns3:TrackPointExtension>
            <ns3:hr>73</ns3:hr>
            <ns3:cad>47</ns3:cad>
          </ns3:TrackPointExtension>
        </extensions>
      </trkpt>
      <trkpt lat="43.4540778212249279022216796875" lon="1.45132695324718952178955078125">
        <ele>182.399993896484375</ele>
        <time>2026-08-05T06:45:03.000Z</time>
        <extensions>
          <ns3:TrackPointExtension>
            <ns3:hr>73</ns3:hr>
            <ns3:cad>46</ns3:cad>
          </ns3:TrackPointExtension>
        </extensions>
      </trkpt>
      <trkpt lat="43.45407153479754924774169921875" lon="1.45134237594902515411376953125">
        <ele>182.399993896484375</ele>
        <time>2026-08-05T06:45:04.000Z</time>
        <extensions>
          <ns3:TrackPointExtension>
            <ns3:hr>73</ns3:hr>
            <ns3:cad>46</ns3:cad>
          </ns3:TrackPointExtension>
        </extensions>
      </trkpt>
      <trkpt lat="43.45406591892242431640625" lon="1.45135662518441677093505859375">
        <ele>182.1999969482421875</ele>
        <time>2026-08-05T06:45:05.000Z</time>
        <extensions>
          <ns3:TrackPointExtension>
            <ns3:hr>73</ns3:hr>
            <ns3:cad>46</ns3:cad>
          </ns3:TrackPointExtension>
        </extensions>
      </trkpt>
      <trkpt lat="43.4540600515902042388916015625" lon="1.4513689465820789337158203125">
        <ele>182.1999969482421875</ele>
        <time>2026-08-05T06:45:06.000Z</time>
        <extensions>
          <ns3:TrackPointExtension>
            <ns3:hr>73</ns3:hr>
            <ns3:cad>46</ns3:cad>
          </ns3:TrackPointExtension>
        </extensions>
      </trkpt>
      <trkpt lat="43.45405359752476215362548828125" lon="1.4513823576271533966064453125">
        <ele>182.1999969482421875</ele>
        <time>2026-08-05T06:45:07.000Z</time>
        <extensions>
          <ns3:TrackPointExtension>
            <ns3:hr>73</ns3:hr>
            <ns3:cad>48</ns3:cad>
          </ns3:TrackPointExtension>
        </extensions>
      </trkpt>
      <trkpt lat="43.45404152758419513702392578125" lon="1.45139585249125957489013671875">
        <ele>182.1999969482421875</ele>
        <time>2026-08-05T06:45:08.000Z</time>
        <extensions>
          <ns3:TrackPointExtension>
            <ns3:hr>73</ns3:hr>
            <ns3:cad>48</ns3:cad>
          </ns3:TrackPointExtension>
        </extensions>
      </trkpt>
      <trkpt lat="43.454036079347133636474609375" lon="1.451408006250858306884765625">
        <ele>182.1999969482421875</ele>
        <time>2026-08-05T06:45:09.000Z</time>
        <extensions>
          <ns3:TrackPointExtension>
            <ns3:hr>71</ns3:hr>
            <ns3:cad>48</ns3:cad>
          </ns3:TrackPointExtension>
        </extensions>
      </trkpt>
      <trkpt lat="43.45403130166232585906982421875" lon="1.45141965709626674652099609375">
        <ele>182.1999969482421875</ele>
        <time>2026-08-05T06:45:10.000Z</time>
        <extensions>
          <ns3:TrackPointExtension>
            <ns3:hr>70</ns3:hr>
            <ns3:cad>48</ns3:cad>
          </ns3:TrackPointExtension>
        </extensions>
      </trkpt>
      <trkpt lat="43.45402509905397891998291015625" lon="1.45143340341746807098388671875">
        <ele>182.1999969482421875</ele>
        <time>2026-08-05T06:45:11.000Z</time>
        <extensions>
          <ns3:TrackPointExtension>
            <ns3:hr>65</ns3:hr>
            <ns3:cad>47</ns3:cad>
          </ns3:TrackPointExtension>
        </extensions>
      </trkpt>
      <trkpt lat="43.45402074046432971954345703125" lon="1.4514447189867496490478515625">
        <ele>182.1999969482421875</ele>
        <time>2026-08-05T06:45:12.000Z</time>
        <extensions>
          <ns3:TrackPointExtension>
            <ns3:hr>60</ns3:hr>
            <ns3:cad>47</ns3:cad>
          </ns3:TrackPointExtension>
        </extensions>
      </trkpt>
      <trkpt lat="43.45401369966566562652587890625" lon="1.45145662128925323486328125">
        <ele>182.1999969482421875</ele>
        <time>2026-08-05T06:45:13.000Z</time>
        <extensions>
          <ns3:TrackPointExtension>
            <ns3:hr>59</ns3:hr>
            <ns3:cad>47</ns3:cad>
          </ns3:TrackPointExtension>
        </extensions>
      </trkpt>
      <trkpt lat="43.454007245600223541259765625" lon="1.45146642811596393585205078125">
        <ele>182.1999969482421875</ele>
        <time>2026-08-05T06:45:14.000Z</time>
        <extensions>
          <ns3:TrackPointExtension>
            <ns3:hr>59</ns3:hr>
            <ns3:cad>47</ns3:cad>
          </ns3:TrackPointExtension>
        </extensions>
      </trkpt>
      <trkpt lat="43.45400154590606689453125" lon="1.45147942006587982177734375">
        <ele>182.1999969482421875</ele>
        <time>2026-08-05T06:45:15.000Z</time>
        <extensions>
          <ns3:TrackPointExtension>
            <ns3:hr>59</ns3:hr>
            <ns3:cad>47</ns3:cad>
          </ns3:TrackPointExtension>
        </extensions>
      </trkpt>
      <trkpt lat="43.4539950080215930938720703125" lon="1.45149056799709796905517578125">
        <ele>182.1999969482421875</ele>
        <time>2026-08-05T06:45:16.000Z</time>
        <extensions>
          <ns3:TrackPointExtension>
            <ns3:hr>60</ns3:hr>
            <ns3:cad>47</ns3:cad>
          </ns3:TrackPointExtension>
        </extensions>
      </trkpt>
      <trkpt lat="43.45398989506065845489501953125" lon="1.45150213502347469329833984375">
        <ele>182.1999969482421875</ele>
        <time>2026-08-05T06:45:17.000Z</time>
        <extensions>
          <ns3:TrackPointExtension>
            <ns3:hr>60</ns3:hr>
            <ns3:cad>47</ns3:cad>
          </ns3:TrackPointExtension>
        </extensions>
      </trkpt>
      <trkpt lat="43.45398151315748691558837890625" lon="1.4515111036598682403564453125">
        <ele>182.399993896484375</ele>
        <time>2026-08-05T06:45:18.000Z</time>
        <extensions>
          <ns3:TrackPointExtension>
            <ns3:hr>60</ns3:hr>
            <ns3:cad>48</ns3:cad>
          </ns3:TrackPointExtension>
        </extensions>
      </trkpt>
      <trkpt lat="43.45397531054913997650146484375" lon="1.451521329581737518310546875">
        <ele>182.399993896484375</ele>
        <time>2026-08-05T06:45:19.000Z</time>
        <extensions>
          <ns3:TrackPointExtension>
            <ns3:hr>60</ns3:hr>
            <ns3:cad>48</ns3:cad>
          </ns3:TrackPointExtension>
        </extensions>
      </trkpt>
      <trkpt lat="43.45396676100790500640869140625" lon="1.45153566263616085052490234375">
        <ele>182.399993896484375</ele>
        <time>2026-08-05T06:45:20.000Z</time>
        <extensions>
          <ns3:TrackPointExtension>
            <ns3:hr>60</ns3:hr>
            <ns3:cad>49</ns3:cad>
          </ns3:TrackPointExtension>
        </extensions>
      </trkpt>
      <trkpt lat="43.4539584629237651824951171875" lon="1.45154655911028385162353515625">
        <ele>182.399993896484375</ele>
        <time>2026-08-05T06:45:21.000Z</time>
        <extensions>
          <ns3:TrackPointExtension>
            <ns3:hr>60</ns3:hr>
            <ns3:cad>49</ns3:cad>
          </ns3:TrackPointExtension>
        </extensions>
      </trkpt>
      <trkpt lat="43.45395150594413280487060546875" lon="1.4515587128698825836181640625">
        <ele>182.399993896484375</ele>
        <time>2026-08-05T06:45:22.000Z</time>
        <extensions>
          <ns3:TrackPointExtension>
            <ns3:hr>60</ns3:hr>
            <ns3:cad>48</ns3:cad>
          </ns3:TrackPointExtension>
        </extensions>
      </trkpt>
      <trkpt lat="43.4539433754980564117431640625" lon="1.451568938791751861572265625">
        <ele>182.399993896484375</ele>
        <time>2026-08-05T06:45:23.000Z</time>
        <extensions>
          <ns3:TrackPointExtension>
            <ns3:hr>61</ns3:hr>
            <ns3:cad>47</ns3:cad>
          </ns3:TrackPointExtension>
        </extensions>
      </trkpt>
      <trkpt lat="43.45393591560423374176025390625" lon="1.45157623104751110076904296875">
        <ele>182.399993896484375</ele>
        <time>2026-08-05T06:45:24.000Z</time>
        <extensions>
          <ns3:TrackPointExtension>
            <ns3:hr>60</ns3:hr>
            <ns3:cad>47</ns3:cad>
          </ns3:TrackPointExtension>
        </extensions>
      </trkpt>
      <trkpt lat="43.45392921008169651031494140625" lon="1.451581008732318878173828125">
        <ele>182.399993896484375</ele>
        <time>2026-08-05T06:45:25.000Z</time>
        <extensions>
          <ns3:TrackPointExtension>
            <ns3:hr>60</ns3:hr>
            <ns3:cad>47</ns3:cad>
          </ns3:TrackPointExtension>
        </extensions>
      </trkpt>
      <trkpt lat="43.45392175018787384033203125" lon="1.451590061187744140625">
        <ele>182.399993896484375</ele>
        <time>2026-08-05T06:45:26.000Z</time>
        <extensions>
          <ns3:TrackPointExtension>
            <ns3:hr>60</ns3:hr>
            <ns3:cad>46</ns3:cad>
          </ns3:TrackPointExtension>
        </extensions>
      </trkpt>
      <trkpt lat="43.45391596667468547821044921875" lon="1.45159919746220111846923828125">
        <ele>182.399993896484375</ele>
        <time>2026-08-05T06:45:27.000Z</time>
        <extensions>
          <ns3:TrackPointExtension>
            <ns3:hr>60</ns3:hr>
            <ns3:cad>46</ns3:cad>
          </ns3:TrackPointExtension>
        </extensions>
      </trkpt>
      <trkpt lat="43.45391043461859226226806640625" lon="1.45161227323114871978759765625">
        <ele>182.399993896484375</ele>
        <time>2026-08-05T06:45:28.000Z</time>
        <extensions>
          <ns3:TrackPointExtension>
            <ns3:hr>60</ns3:hr>
            <ns3:cad>46</ns3:cad>
          </ns3:TrackPointExtension>
        </extensions>
      </trkpt>
      <trkpt lat="43.45390087924897670745849609375" lon="1.4516220800578594207763671875">
        <ele>182.399993896484375</ele>
        <time>2026-08-05T06:45:29.000Z</time>
        <extensions>
          <ns3:TrackPointExtension>
            <ns3:hr>59</ns3:hr>
            <ns3:cad>46</ns3:cad>
          </ns3:TrackPointExtension>
        </extensions>
      </trkpt>
      <trkpt lat="43.45389492809772491455078125" lon="1.45162987522780895233154296875">
        <ele>182.600006103515625</ele>
        <time>2026-08-05T06:45:30.000Z</time>
        <extensions>
          <ns3:TrackPointExtension>
            <ns3:hr>59</ns3:hr>
            <ns3:cad>45</ns3:cad>
          </ns3:TrackPointExtension>
        </extensions>
      </trkpt>
      <trkpt lat="43.45388646237552165985107421875" lon="1.451635323464870452880859375">
        <ele>182.600006103515625</ele>
        <time>2026-08-05T06:45:31.000Z</time>
        <extensions>
          <ns3:TrackPointExtension>
            <ns3:hr>59</ns3:hr>
            <ns3:cad>44</ns3:cad>
          </ns3:TrackPointExtension>
        </extensions>
      </trkpt>
      <trkpt lat="43.453876487910747528076171875" lon="1.45164814777672290802001953125">
        <ele>182.600006103515625</ele>
        <time>2026-08-05T06:45:32.000Z</time>
        <extensions>
          <ns3:TrackPointExtension>
            <ns3:hr>59</ns3:hr>
            <ns3:cad>44</ns3:cad>
          </ns3:TrackPointExtension>
        </extensions>
      </trkpt>
      <trkpt lat="43.453867100179195404052734375" lon="1.45166315138339996337890625">
        <ele>182.600006103515625</ele>
        <time>2026-08-05T06:45:33.000Z</time>
        <extensions>
          <ns3:TrackPointExtension>
            <ns3:hr>59</ns3:hr>
            <ns3:cad>45</ns3:cad>
          </ns3:TrackPointExtension>
        </extensions>
      </trkpt>
      <trkpt lat="43.45385930500924587249755859375" lon="1.45167295821011066436767578125">
        <ele>182.600006103515625</ele>
        <time>2026-08-05T06:45:34.000Z</time>
        <extensions>
          <ns3:TrackPointExtension>
            <ns3:hr>60</ns3:hr>
            <ns3:cad>45</ns3:cad>
          </ns3:TrackPointExtension>
        </extensions>
      </trkpt>
      <trkpt lat="43.45385544933378696441650390625" lon="1.4516847766935825347900390625">
        <ele>182.399993896484375</ele>
        <time>2026-08-05T06:45:35.000Z</time>
        <extensions>
          <ns3:TrackPointExtension>
            <ns3:hr>59</ns3:hr>
            <ns3:cad>45</ns3:cad>
          </ns3:TrackPointExtension>
        </extensions>
      </trkpt>
      <trkpt lat="43.453848324716091156005859375" lon="1.4516933262348175048828125">
        <ele>182.399993896484375</ele>
        <time>2026-08-05T06:45:36.000Z</time>
        <extensions>
          <ns3:TrackPointExtension>
            <ns3:hr>59</ns3:hr>
            <ns3:cad>45</ns3:cad>
          </ns3:TrackPointExtension>
        </extensions>
      </trkpt>
      <trkpt lat="43.45384036190807819366455078125" lon="1.451702378690242767333984375">
        <ele>182.399993896484375</ele>
        <time>2026-08-05T06:45:37.000Z</time>
        <extensions>
          <ns3:TrackPointExtension>
            <ns3:hr>60</ns3:hr>
            <ns3:cad>45</ns3:cad>
          </ns3:TrackPointExtension>
        </extensions>
      </trkpt>
      <trkpt lat="43.45383399166166782379150390625" lon="1.45170874893665313720703125">
        <ele>182.600006103515625</ele>
        <time>2026-08-05T06:45:38.000Z</time>
        <extensions>
          <ns3:TrackPointExtension>
            <ns3:hr>60</ns3:hr>
            <ns3:cad>46</ns3:cad>
          </ns3:TrackPointExtension>
        </extensions>
      </trkpt>
      <trkpt lat="43.45382829196751117706298828125" lon="1.45171335898339748382568359375">
        <ele>182.600006103515625</ele>
        <time>2026-08-05T06:45:39.000Z</time>
        <extensions>
          <ns3:TrackPointExtension>
            <ns3:hr>60</ns3:hr>
            <ns3:cad>46</ns3:cad>
          </ns3:TrackPointExtension>
        </extensions>
      </trkpt>
      <trkpt lat="43.45382007770240306854248046875" lon="1.4517201483249664306640625">
        <ele>182.600006103515625</ele>
        <time>2026-08-05T06:45:40.000Z</time>
        <extensions>
          <ns3:TrackPointExtension>
            <ns3:hr>59</ns3:hr>
            <ns3:cad>45</ns3:cad>
          </ns3:TrackPointExtension>
        </extensions>
      </trkpt>
      <trkpt lat="43.4538119472563266754150390625" lon="1.45172760821878910064697265625">
        <ele>182.8000030517578125</ele>
        <time>2026-08-05T06:45:41.000Z</time>
        <extensions>
          <ns3:TrackPointExtension>
            <ns3:hr>60</ns3:hr>
            <ns3:cad>44</ns3:cad>
          </ns3:TrackPointExtension>
        </extensions>
      </trkpt>
      <trkpt lat="43.45380398444831371307373046875" lon="1.4517343975603580474853515625">
        <ele>182.8000030517578125</ele>
        <time>2026-08-05T06:45:42.000Z</time>
        <extensions>
          <ns3:TrackPointExtension>
            <ns3:hr>60</ns3:hr>
            <ns3:cad>44</ns3:cad>
          </ns3:TrackPointExtension>
        </extensions>
      </trkpt>
      <trkpt lat="43.4537990391254425048828125" lon="1.4517441205680370330810546875">
        <ele>182.8000030517578125</ele>
        <time>2026-08-05T06:45:43.000Z</time>
        <extensions>
          <ns3:TrackPointExtension>
            <ns3:hr>59</ns3:hr>
            <ns3:cad>44</ns3:cad>
          </ns3:TrackPointExtension>
        </extensions>
      </trkpt>
      <trkpt lat="43.45379157923161983489990234375" lon="1.4517576992511749267578125">
        <ele>182.8000030517578125</ele>
        <time>2026-08-05T06:45:44.000Z</time>
        <extensions>
          <ns3:TrackPointExtension>
            <ns3:hr>60</ns3:hr>
            <ns3:cad>44</ns3:cad>
          </ns3:TrackPointExtension>
        </extensions>
      </trkpt>
      <trkpt lat="43.45378495752811431884765625" lon="1.45176013000309467315673828125">
        <ele>182.8000030517578125</ele>
        <time>2026-08-05T06:45:45.000Z</time>
        <extensions>
          <ns3:TrackPointExtension>
            <ns3:hr>60</ns3:hr>
            <ns3:cad>44</ns3:cad>
          </ns3:TrackPointExtension>
        </extensions>
      </trkpt>
      <trkpt lat="43.453778587281703948974609375" lon="1.45176851190626621246337890625">
        <ele>183</ele>
        <time>2026-08-05T06:45:46.000Z</time>
        <extensions>
          <ns3:TrackPointExtension>
            <ns3:hr>60</ns3:hr>
            <ns3:cad>44</ns3:cad>
          </ns3:TrackPointExtension>
        </extensions>
      </trkpt>
      <trkpt lat="43.4537713788449764251708984375" lon="1.45177957601845264434814453125">
        <ele>183</ele>
        <time>2026-08-05T06:45:47.000Z</time>
        <extensions>
          <ns3:TrackPointExtension>
            <ns3:hr>60</ns3:hr>
            <ns3:cad>45</ns3:cad>
          </ns3:TrackPointExtension>
        </extensions>
      </trkpt>
      <trkpt lat="43.45376341603696346282958984375" lon="1.451788879930973052978515625">
        <ele>183</ele>
        <time>2026-08-05T06:45:48.000Z</time>
        <extensions>
          <ns3:TrackPointExtension>
            <ns3:hr>60</ns3:hr>
            <ns3:cad>45</ns3:cad>
          </ns3:TrackPointExtension>
        </extensions>
      </trkpt>
      <trkpt lat="43.4537586383521556854248046875" lon="1.451796591281890869140625">
        <ele>183</ele>
        <time>2026-08-05T06:45:49.000Z</time>
        <extensions>
          <ns3:TrackPointExtension>
            <ns3:hr>61</ns3:hr>
            <ns3:cad>44</ns3:cad>
          </ns3:TrackPointExtension>
        </extensions>
      </trkpt>
      <trkpt lat="43.45375117845833301544189453125" lon="1.45180857740342617034912109375">
        <ele>183</ele>
        <time>2026-08-05T06:45:50.000Z</time>
        <extensions>
          <ns3:TrackPointExtension>
            <ns3:hr>61</ns3:hr>
            <ns3:cad>42</ns3:cad>
          </ns3:TrackPointExtension>
        </extensions>
      </trkpt>
      <trkpt lat="43.45374413765966892242431640625" lon="1.45182131789624691009521484375">
        <ele>183</ele>
        <time>2026-08-05T06:45:51.000Z</time>
        <extensions>
          <ns3:TrackPointExtension>
            <ns3:hr>61</ns3:hr>
            <ns3:cad>42</ns3:cad>
          </ns3:TrackPointExtension>
        </extensions>
      </trkpt>
      <trkpt lat="43.4537371806800365447998046875" lon="1.4518282748758792877197265625">
        <ele>183.1999969482421875</ele>
        <time>2026-08-05T06:45:52.000Z</time>
        <extensions>
          <ns3:TrackPointExtension>
            <ns3:hr>61</ns3:hr>
            <ns3:cad>41</ns3:cad>
          </ns3:TrackPointExtension>
        </extensions>
      </trkpt>
      <trkpt lat="43.4537319839000701904296875" lon="1.45183238200843334197998046875">
        <ele>183.1999969482421875</ele>
        <time>2026-08-05T06:45:53.000Z</time>
        <extensions>
          <ns3:TrackPointExtension>
            <ns3:hr>61</ns3:hr>
            <ns3:cad>41</ns3:cad>
          </ns3:TrackPointExtension>
        </extensions>
      </trkpt>
      <trkpt lat="43.45372050069272518157958984375" lon="1.451842524111270904541015625">
        <ele>183.1999969482421875</ele>
        <time>2026-08-05T06:45:54.000Z</time>
        <extensions>
          <ns3:TrackPointExtension>
            <ns3:hr>61</ns3:hr>
            <ns3:cad>42</ns3:cad>
          </ns3:TrackPointExtension>
        </extensions>
      </trkpt>
      <trkpt lat="43.4537105262279510498046875" lon="1.45185316912829875946044921875">
        <ele>183.1999969482421875</ele>
        <time>2026-08-05T06:45:55.000Z</time>
        <extensions>
          <ns3:TrackPointExtension>
            <ns3:hr>62</ns3:hr>
            <ns3:cad>43</ns3:cad>
          </ns3:TrackPointExtension>
        </extensions>
      </trkpt>
      <trkpt lat="43.4537070058286190032958984375" lon="1.451863311231136322021484375">
        <ele>183.1999969482421875</ele>
        <time>2026-08-05T06:45:56.000Z</time>
        <extensions>
          <ns3:TrackPointExtension>
            <ns3:hr>62</ns3:hr>
            <ns3:cad>45</ns3:cad>
          </ns3:TrackPointExtension>
        </extensions>
      </trkpt>
      <trkpt lat="43.453702814877033233642578125" lon="1.45187311805784702301025390625">
        <ele>183.1999969482421875</ele>
        <time>2026-08-05T06:45:57.000Z</time>
        <extensions>
          <ns3:TrackPointExtension>
            <ns3:hr>62</ns3:hr>
            <ns3:cad>45</ns3:cad>
          </ns3:TrackPointExtension>
        </extensions>
      </trkpt>
      <trkpt lat="43.45369510352611541748046875" lon="1.45188451744616031646728515625">
        <ele>183.1999969482421875</ele>
        <time>2026-08-05T06:45:58.000Z</time>
        <extensions>
          <ns3:TrackPointExtension>
            <ns3:hr>62</ns3:hr>
            <ns3:cad>43</ns3:cad>
          </ns3:TrackPointExtension>
        </extensions>
      </trkpt>
      <trkpt lat="43.453690744936466217041015625" lon="1.4518963359296321868896484375">
        <ele>183.399993896484375</ele>
        <time>2026-08-05T06:45:59.000Z</time>
        <extensions>
          <ns3:TrackPointExtension>
            <ns3:hr>62</ns3:hr>
            <ns3:cad>43</ns3:cad>
          </ns3:TrackPointExtension>
        </extensions>
      </trkpt>
      <trkpt lat="43.4536863863468170166015625" lon="1.451906897127628326416015625">
        <ele>183.399993896484375</ele>
        <time>2026-08-05T06:46:00.000Z</time>
        <extensions>
          <ns3:TrackPointExtension>
            <ns3:hr>63</ns3:hr>
            <ns3:cad>44</ns3:cad>
          </ns3:TrackPointExtension>
        </extensions>
      </trkpt>
      <trkpt lat="43.45368814654648303985595703125" lon="1.451912932097911834716796875">
        <ele>183.399993896484375</ele>
        <time>2026-08-05T06:46:01.000Z</time>
        <extensions>
          <ns3:TrackPointExtension>
            <ns3:hr>63</ns3:hr>
            <ns3:cad>46</ns3:cad>
          </ns3:TrackPointExtension>
        </extensions>
      </trkpt>
      <trkpt lat="43.4536865539848804473876953125" lon="1.4519255049526691436767578125">
        <ele>183.399993896484375</ele>
        <time>2026-08-05T06:46:02.000Z</time>
        <extensions>
          <ns3:TrackPointExtension>
            <ns3:hr>63</ns3:hr>
            <ns3:cad>46</ns3:cad>
          </ns3:TrackPointExtension>
        </extensions>
      </trkpt>
      <trkpt lat="43.45368345268070697784423828125" lon="1.4519399218261241912841796875">
        <ele>183.399993896484375</ele>
        <time>2026-08-05T06:46:03.000Z</time>
        <extensions>
          <ns3:TrackPointExtension>
            <ns3:hr>63</ns3:hr>
            <ns3:cad>46</ns3:cad>
          </ns3:TrackPointExtension>
        </extensions>
      </trkpt>
      <trkpt lat="43.4536808542907238006591796875" lon="1.4519519917666912078857421875">
        <ele>183.399993896484375</ele>
        <time>2026-08-05T06:46:04.000Z</time>
        <extensions>
          <ns3:TrackPointExtension>
            <ns3:hr>64</ns3:hr>
            <ns3:cad>47</ns3:cad>
          </ns3:TrackPointExtension>
        </extensions>
      </trkpt>
      <trkpt lat="43.45367590896785259246826171875" lon="1.451961882412433624267578125">
        <ele>183.399993896484375</ele>
        <time>2026-08-05T06:46:05.000Z</time>
        <extensions>
          <ns3:TrackPointExtension>
            <ns3:hr>64</ns3:hr>
            <ns3:cad>47</ns3:cad>
          </ns3:TrackPointExtension>
        </extensions>
      </trkpt>
      <trkpt lat="43.45367222093045711517333984375" lon="1.45197696983814239501953125">
        <ele>183.399993896484375</ele>
        <time>2026-08-05T06:46:06.000Z</time>
        <extensions>
          <ns3:TrackPointExtension>
            <ns3:hr>65</ns3:hr>
            <ns3:cad>47</ns3:cad>
          </ns3:TrackPointExtension>
        </extensions>
      </trkpt>
      <trkpt lat="43.453666605055332183837890625" lon="1.451992727816104888916015625">
        <ele>183.399993896484375</ele>
        <time>2026-08-05T06:46:07.000Z</time>
        <extensions>
          <ns3:TrackPointExtension>
            <ns3:hr>65</ns3:hr>
            <ns3:cad>0</ns3:cad>
          </ns3:TrackPointExtension>
        </extensions>
      </trkpt>
      <trkpt lat="43.4536640904843807220458984375" lon="1.452008150517940521240234375">
        <ele>183.399993896484375</ele>
        <time>2026-08-05T06:46:08.000Z</time>
        <extensions>
          <ns3:TrackPointExtension>
            <ns3:hr>66</ns3:hr>
            <ns3:cad>0</ns3:cad>
          </ns3:TrackPointExtension>
        </extensions>
      </trkpt>
      <trkpt lat="43.45366518013179302215576171875" lon="1.4520260877907276153564453125">
        <ele>183.399993896484375</ele>
        <time>2026-08-05T06:46:09.000Z</time>
        <extensions>
          <ns3:TrackPointExtension>
            <ns3:hr>66</ns3:hr>
            <ns3:cad>0</ns3:cad>
          </ns3:TrackPointExtension>
        </extensions>
      </trkpt>
      <trkpt lat="43.4536637552082538604736328125" lon="1.45203891210258007049560546875">
        <ele>183.399993896484375</ele>
        <time>2026-08-05T06:46:10.000Z</time>
        <extensions>
          <ns3:TrackPointExtension>
            <ns3:hr>66</ns3:hr>
            <ns3:cad>0</ns3:cad>
          </ns3:TrackPointExtension>
        </extensions>
      </trkpt>
      <trkpt lat="43.45366450957953929901123046875" lon="1.45204897038638591766357421875">
        <ele>183.399993896484375</ele>
        <time>2026-08-05T06:46:11.000Z</time>
        <extensions>
          <ns3:TrackPointExtension>
            <ns3:hr>66</ns3:hr>
            <ns3:cad>48</ns3:cad>
          </ns3:TrackPointExtension>
        </extensions>
      </trkpt>
      <trkpt lat="43.4536622464656829833984375" lon="1.45206053741276264190673828125">
        <ele>183.399993896484375</ele>
        <time>2026-08-05T06:46:12.000Z</time>
        <extensions>
          <ns3:TrackPointExtension>
            <ns3:hr>67</ns3:hr>
            <ns3:cad>48</ns3:cad>
          </ns3:TrackPointExtension>
        </extensions>
      </trkpt>
      <trkpt lat="43.45366165973246097564697265625" lon="1.45207344554364681243896484375">
        <ele>183.399993896484375</ele>
        <time>2026-08-05T06:46:13.000Z</time>
        <extensions>
          <ns3:TrackPointExtension>
            <ns3:hr>67</ns3:hr>
            <ns3:cad>47</ns3:cad>
          </ns3:TrackPointExtension>
        </extensions>
      </trkpt>
      <trkpt lat="43.45366216264665126800537109375" lon="1.4520864374935626983642578125">
        <ele>183.399993896484375</ele>
        <time>2026-08-05T06:46:14.000Z</time>
        <extensions>
          <ns3:TrackPointExtension>
            <ns3:hr>67</ns3:hr>
            <ns3:cad>47</ns3:cad>
          </ns3:TrackPointExtension>
        </extensions>
      </trkpt>
      <trkpt lat="43.4536607377231121063232421875" lon="1.45210278220474720001220703125">
        <ele>183.399993896484375</ele>
        <time>2026-08-05T06:46:15.000Z</time>
        <extensions>
          <ns3:TrackPointExtension>
            <ns3:hr>67</ns3:hr>
            <ns3:cad>47</ns3:cad>
          </ns3:TrackPointExtension>
        </extensions>
      </trkpt>
      <trkpt lat="43.4536610729992389678955078125" lon="1.452117450535297393798828125">
        <ele>183.399993896484375</ele>
        <time>2026-08-05T06:46:16.000Z</time>
        <extensions>
          <ns3:TrackPointExtension>
            <ns3:hr>67</ns3:hr>
            <ns3:cad>48</ns3:cad>
          </ns3:TrackPointExtension>
        </extensions>
      </trkpt>
      <trkpt lat="43.45366283319890499114990234375" lon="1.45212826319038867950439453125">
        <ele>183.600006103515625</ele>
        <time>2026-08-05T06:46:17.000Z</time>
        <extensions>
          <ns3:TrackPointExtension>
            <ns3:hr>67</ns3:hr>
            <ns3:cad>48</ns3:cad>
          </ns3:TrackPointExtension>
        </extensions>
      </trkpt>
      <trkpt lat="43.45365847460925579071044921875" lon="1.4521420933306217193603515625">
        <ele>183.600006103515625</ele>
        <time>2026-08-05T06:46:18.000Z</time>
        <extensions>
          <ns3:TrackPointExtension>
            <ns3:hr>67</ns3:hr>
            <ns3:cad>47</ns3:cad>
          </ns3:TrackPointExtension>
        </extensions>
      </trkpt>
      <trkpt lat="43.45366316847503185272216796875" lon="1.45215407945215702056884765625">
        <ele>183.600006103515625</ele>
        <time>2026-08-05T06:46:19.000Z</time>
        <extensions>
          <ns3:TrackPointExtension>
            <ns3:hr>68</ns3:hr>
            <ns3:cad>47</ns3:cad>
          </ns3:TrackPointExtension>
        </extensions>
      </trkpt>
      <trkpt lat="43.45366157591342926025390625" lon="1.45216614939272403717041015625">
        <ele>183.600006103515625</ele>
        <time>2026-08-05T06:46:20.000Z</time>
        <extensions>
          <ns3:TrackPointExtension>
            <ns3:hr>68</ns3:hr>
            <ns3:cad>47</ns3:cad>
          </ns3:TrackPointExtension>
        </extensions>
      </trkpt>
      <trkpt lat="43.45366425812244415283203125" lon="1.4521796442568302154541015625">
        <ele>183.600006103515625</ele>
        <time>2026-08-05T06:46:21.000Z</time>
        <extensions>
          <ns3:TrackPointExtension>
            <ns3:hr>67</ns3:hr>
            <ns3:cad>47</ns3:cad>
          </ns3:TrackPointExtension>
        </extensions>
      </trkpt>
      <trkpt lat="43.45366266556084156036376953125" lon="1.45219615660607814788818359375">
        <ele>183.600006103515625</ele>
        <time>2026-08-05T06:46:22.000Z</time>
        <extensions>
          <ns3:TrackPointExtension>
            <ns3:hr>67</ns3:hr>
            <ns3:cad>47</ns3:cad>
          </ns3:TrackPointExtension>
        </extensions>
      </trkpt>
      <trkpt lat="43.45366199500858783721923828125" lon="1.45220705308020114898681640625">
        <ele>183.600006103515625</ele>
        <time>2026-08-05T06:46:23.000Z</time>
        <extensions>
          <ns3:TrackPointExtension>
            <ns3:hr>66</ns3:hr>
            <ns3:cad>47</ns3:cad>
          </ns3:TrackPointExtension>
        </extensions>
      </trkpt>
      <trkpt lat="43.45366685651242733001708984375" lon="1.45222398452460765838623046875">
        <ele>183.600006103515625</ele>
        <time>2026-08-05T06:46:24.000Z</time>
        <extensions>
          <ns3:TrackPointExtension>
            <ns3:hr>66</ns3:hr>
            <ns3:cad>47</ns3:cad>
          </ns3:TrackPointExtension>
        </extensions>
      </trkpt>
      <trkpt lat="43.4536622464656829833984375" lon="1.45224125124514102935791015625">
        <ele>183.600006103515625</ele>
        <time>2026-08-05T06:46:25.000Z</time>
        <extensions>
          <ns3:TrackPointExtension>
            <ns3:hr>66</ns3:hr>
            <ns3:cad>47</ns3:cad>
          </ns3:TrackPointExtension>
        </extensions>
      </trkpt>
      <trkpt lat="43.45366199500858783721923828125" lon="1.4522537402808666229248046875">
        <ele>183.600006103515625</ele>
        <time>2026-08-05T06:46:26.000Z</time>
        <extensions>
          <ns3:TrackPointExtension>
            <ns3:hr>66</ns3:hr>
            <ns3:cad>47</ns3:cad>
          </ns3:TrackPointExtension>
        </extensions>
      </trkpt>
      <trkpt lat="43.45366031862795352935791015625" lon="1.452262960374355316162109375">
        <ele>183.8000030517578125</ele>
        <time>2026-08-05T06:46:27.000Z</time>
        <extensions>
          <ns3:TrackPointExtension>
            <ns3:hr>66</ns3:hr>
            <ns3:cad>46</ns3:cad>
          </ns3:TrackPointExtension>
        </extensions>
      </trkpt>
      <trkpt lat="43.45365964807569980621337890625" lon="1.4522768743336200714111328125">
        <ele>183.8000030517578125</ele>
        <time>2026-08-05T06:46:28.000Z</time>
        <extensions>
          <ns3:TrackPointExtension>
            <ns3:hr>66</ns3:hr>
            <ns3:cad>45</ns3:cad>
          </ns3:TrackPointExtension>
        </extensions>
      </trkpt>
      <trkpt lat="43.453659899532794952392578125" lon="1.4522969909012317657470703125">
        <ele>183.8000030517578125</ele>
        <time>2026-08-05T06:46:29.000Z</time>
        <extensions>
          <ns3:TrackPointExtension>
            <ns3:hr>66</ns3:hr>
            <ns3:cad>45</ns3:cad>
          </ns3:TrackPointExtension>
        </extensions>
      </trkpt>
      <trkpt lat="43.45366023480892181396484375" lon="1.45230998285114765167236328125">
        <ele>183.8000030517578125</ele>
        <time>2026-08-05T06:46:30.000Z</time>
        <extensions>
          <ns3:TrackPointExtension>
            <ns3:hr>67</ns3:hr>
            <ns3:cad>45</ns3:cad>
          </ns3:TrackPointExtension>
        </extensions>
      </trkpt>
      <trkpt lat="43.45366157591342926025390625" lon="1.4523207955062389373779296875">
        <ele>183.8000030517578125</ele>
        <time>2026-08-05T06:46:31.000Z</time>
        <extensions>
          <ns3:TrackPointExtension>
            <ns3:hr>69</ns3:hr>
            <ns3:cad>45</ns3:cad>
          </ns3:TrackPointExtension>
        </extensions>
      </trkpt>
      <trkpt lat="43.4536600671708583831787109375" lon="1.45233915187418460845947265625">
        <ele>184</ele>
        <time>2026-08-05T06:46:32.000Z</time>
        <extensions>
          <ns3:TrackPointExtension>
            <ns3:hr>70</ns3:hr>
            <ns3:cad>45</ns3:cad>
          </ns3:TrackPointExtension>
        </extensions>
      </trkpt>
      <trkpt lat="43.45365914516150951385498046875" lon="1.45235105417668819427490234375">
        <ele>184</ele>
        <time>2026-08-05T06:46:33.000Z</time>
        <extensions>
          <ns3:TrackPointExtension>
            <ns3:hr>72</ns3:hr>
            <ns3:cad>45</ns3:cad>
          </ns3:TrackPointExtension>
        </extensions>
      </trkpt>
      <trkpt lat="43.4536567144095897674560546875" lon="1.4523687399923801422119140625">
        <ele>184</ele>
        <time>2026-08-05T06:46:34.000Z</time>
        <extensions>
          <ns3:TrackPointExtension>
            <ns3:hr>72</ns3:hr>
            <ns3:cad>46</ns3:cad>
          </ns3:TrackPointExtension>
        </extensions>
      </trkpt>
      <trkpt lat="43.45365495420992374420166015625" lon="1.4523787982761859893798828125">
        <ele>184</ele>
        <time>2026-08-05T06:46:35.000Z</time>
        <extensions>
          <ns3:TrackPointExtension>
            <ns3:hr>73</ns3:hr>
            <ns3:cad>46</ns3:cad>
          </ns3:TrackPointExtension>
        </extensions>
      </trkpt>
      <trkpt lat="43.45365143381059169769287109375" lon="1.45239405333995819091796875">
        <ele>184</ele>
        <time>2026-08-05T06:46:36.000Z</time>
        <extensions>
          <ns3:TrackPointExtension>
            <ns3:hr>73</ns3:hr>
            <ns3:cad>46</ns3:cad>
          </ns3:TrackPointExtension>
        </extensions>
      </trkpt>
      <trkpt lat="43.45364741049706935882568359375" lon="1.452405117452144622802734375">
        <ele>184</ele>
        <time>2026-08-05T06:46:37.000Z</time>
        <extensions>
          <ns3:TrackPointExtension>
            <ns3:hr>74</ns3:hr>
            <ns3:cad>46</ns3:cad>
          </ns3:TrackPointExtension>
        </extensions>
      </trkpt>
      <trkpt lat="43.4536443091928958892822265625" lon="1.452417857944965362548828125">
        <ele>184</ele>
        <time>2026-08-05T06:46:38.000Z</time>
        <extensions>
          <ns3:TrackPointExtension>
            <ns3:hr>74</ns3:hr>
            <ns3:cad>45</ns3:cad>
          </ns3:TrackPointExtension>
        </extensions>
      </trkpt>
      <trkpt lat="43.45364154316484928131103515625" lon="1.4524294249713420867919921875">
        <ele>184</ele>
        <time>2026-08-05T06:46:39.000Z</time>
        <extensions>
          <ns3:TrackPointExtension>
            <ns3:hr>75</ns3:hr>
            <ns3:cad>44</ns3:cad>
          </ns3:TrackPointExtension>
        </extensions>
      </trkpt>
      <trkpt lat="43.4536399506032466888427734375" lon="1.45244308747351169586181640625">
        <ele>184</ele>
        <time>2026-08-05T06:46:40.000Z</time>
        <extensions>
          <ns3:TrackPointExtension>
            <ns3:hr>75</ns3:hr>
            <ns3:cad>44</ns3:cad>
          </ns3:TrackPointExtension>
        </extensions>
      </trkpt>
      <trkpt lat="43.4536354243755340576171875" lon="1.452456079423427581787109375">
        <ele>184</ele>
        <time>2026-08-05T06:46:41.000Z</time>
        <extensions>
          <ns3:TrackPointExtension>
            <ns3:hr>75</ns3:hr>
            <ns3:cad>44</ns3:cad>
          </ns3:TrackPointExtension>
        </extensions>
      </trkpt>
      <trkpt lat="43.45363383181393146514892578125" lon="1.45246923901140689849853515625">
        <ele>184</ele>
        <time>2026-08-05T06:46:42.000Z</time>
        <extensions>
          <ns3:TrackPointExtension>
            <ns3:hr>76</ns3:hr>
            <ns3:cad>45</ns3:cad>
          </ns3:TrackPointExtension>
        </extensions>
      </trkpt>
      <trkpt lat="43.45363165251910686492919921875" lon="1.45248265005648136138916015625">
        <ele>184</ele>
        <time>2026-08-05T06:46:43.000Z</time>
        <extensions>
          <ns3:TrackPointExtension>
            <ns3:hr>76</ns3:hr>
            <ns3:cad>46</ns3:cad>
          </ns3:TrackPointExtension>
        </extensions>
      </trkpt>
      <trkpt lat="43.453626371920108795166015625" lon="1.45249891094863414764404296875">
        <ele>184</ele>
        <time>2026-08-05T06:46:44.000Z</time>
        <extensions>
          <ns3:TrackPointExtension>
            <ns3:hr>77</ns3:hr>
            <ns3:cad>46</ns3:cad>
          </ns3:TrackPointExtension>
        </extensions>
      </trkpt>
      <trkpt lat="43.45362260006368160247802734375" lon="1.4525142498314380645751953125">
        <ele>184</ele>
        <time>2026-08-05T06:46:45.000Z</time>
        <extensions>
          <ns3:TrackPointExtension>
            <ns3:hr>79</ns3:hr>
            <ns3:cad>46</ns3:cad>
          </ns3:TrackPointExtension>
        </extensions>
      </trkpt>
      <trkpt lat="43.45361790619790554046630859375" lon="1.4525283314287662506103515625">
        <ele>184</ele>
        <time>2026-08-05T06:46:46.000Z</time>
        <extensions>
          <ns3:TrackPointExtension>
            <ns3:hr>80</ns3:hr>
            <ns3:cad>46</ns3:cad>
          </ns3:TrackPointExtension>
        </extensions>
      </trkpt>
      <trkpt lat="43.453613631427288055419921875" lon="1.45254417322576045989990234375">
        <ele>184.1999969482421875</ele>
        <time>2026-08-05T06:46:47.000Z</time>
        <extensions>
          <ns3:TrackPointExtension>
            <ns3:hr>80</ns3:hr>
            <ns3:cad>46</ns3:cad>
          </ns3:TrackPointExtension>
        </extensions>
      </trkpt>
      <trkpt lat="43.45360835082828998565673828125" lon="1.45255942828953266143798828125">
        <ele>184.1999969482421875</ele>
        <time>2026-08-05T06:46:48.000Z</time>
        <extensions>
          <ns3:TrackPointExtension>
            <ns3:hr>80</ns3:hr>
            <ns3:cad>46</ns3:cad>
          </ns3:TrackPointExtension>
        </extensions>
      </trkpt>
      <trkpt lat="43.45360265113413333892822265625" lon="1.452575437724590301513671875">
        <ele>184.1999969482421875</ele>
        <time>2026-08-05T06:46:49.000Z</time>
        <extensions>
          <ns3:TrackPointExtension>
            <ns3:hr>81</ns3:hr>
            <ns3:cad>46</ns3:cad>
          </ns3:TrackPointExtension>
        </extensions>
      </trkpt>
      <trkpt lat="43.45359963364899158477783203125" lon="1.45258851349353790283203125">
        <ele>184.1999969482421875</ele>
        <time>2026-08-05T06:46:50.000Z</time>
        <extensions>
          <ns3:TrackPointExtension>
            <ns3:hr>80</ns3:hr>
            <ns3:cad>46</ns3:cad>
          </ns3:TrackPointExtension>
        </extensions>
      </trkpt>
      <trkpt lat="43.4535977058112621307373046875" lon="1.45259865559637546539306640625">
        <ele>184.1999969482421875</ele>
        <time>2026-08-05T06:46:51.000Z</time>
        <extensions>
          <ns3:TrackPointExtension>
            <ns3:hr>80</ns3:hr>
            <ns3:cad>46</ns3:cad>
          </ns3:TrackPointExtension>
        </extensions>
      </trkpt>
      <trkpt lat="43.45359443686902523040771484375" lon="1.45261005498468875885009765625">
        <ele>184.1999969482421875</ele>
        <time>2026-08-05T06:46:52.000Z</time>
        <extensions>
          <ns3:TrackPointExtension>
            <ns3:hr>80</ns3:hr>
            <ns3:cad>46</ns3:cad>
          </ns3:TrackPointExtension>
        </extensions>
      </trkpt>
      <trkpt lat="43.45359141938388347625732421875" lon="1.45262581296265125274658203125">
        <ele>184.399993896484375</ele>
        <time>2026-08-05T06:46:53.000Z</time>
        <extensions>
          <ns3:TrackPointExtension>
            <ns3:hr>81</ns3:hr>
            <ns3:cad>45</ns3:cad>
          </ns3:TrackPointExtension>
        </extensions>
      </trkpt>
      <trkpt lat="43.4535873122513294219970703125" lon="1.4526383019983768463134765625">
        <ele>184.399993896484375</ele>
        <time>2026-08-05T06:46:54.000Z</time>
        <extensions>
          <ns3:TrackPointExtension>
            <ns3:hr>80</ns3:hr>
            <ns3:cad>44</ns3:cad>
          </ns3:TrackPointExtension>
        </extensions>
      </trkpt>
      <trkpt lat="43.4535836242139339447021484375" lon="1.45264827646315097808837890625">
        <ele>184.399993896484375</ele>
        <time>2026-08-05T06:46:55.000Z</time>
        <extensions>
          <ns3:TrackPointExtension>
            <ns3:hr>80</ns3:hr>
            <ns3:cad>43</ns3:cad>
          </ns3:TrackPointExtension>
        </extensions>
      </trkpt>
      <trkpt lat="43.45357884652912616729736328125" lon="1.4526627771556377410888671875">
        <ele>184.399993896484375</ele>
        <time>2026-08-05T06:46:56.000Z</time>
        <extensions>
          <ns3:TrackPointExtension>
            <ns3:hr>81</ns3:hr>
            <ns3:cad>43</ns3:cad>
          </ns3:TrackPointExtension>
        </extensions>
      </trkpt>
      <trkpt lat="43.4535705484449863433837890625" lon="1.45267476327717304229736328125">
        <ele>184.399993896484375</ele>
        <time>2026-08-05T06:46:57.000Z</time>
        <extensions>
          <ns3:TrackPointExtension>
            <ns3:hr>80</ns3:hr>
            <ns3:cad>44</ns3:cad>
          </ns3:TrackPointExtension>
        </extensions>
      </trkpt>
      <trkpt lat="43.45356275327503681182861328125" lon="1.45268867723643779754638671875">
        <ele>184.399993896484375</ele>
        <time>2026-08-05T06:46:58.000Z</time>
        <extensions>
          <ns3:TrackPointExtension>
            <ns3:hr>80</ns3:hr>
            <ns3:cad>44</ns3:cad>
          </ns3:TrackPointExtension>
        </extensions>
      </trkpt>
      <trkpt lat="43.453556634485721588134765625" lon="1.45270057953894138336181640625">
        <ele>184.399993896484375</ele>
        <time>2026-08-05T06:46:59.000Z</time>
        <extensions>
          <ns3:TrackPointExtension>
            <ns3:hr>81</ns3:hr>
            <ns3:cad>44</ns3:cad>
          </ns3:TrackPointExtension>
        </extensions>
      </trkpt>
      <trkpt lat="43.4535511024296283721923828125" lon="1.4527100510895252227783203125">
        <ele>184.399993896484375</ele>
        <time>2026-08-05T06:47:00.000Z</time>
        <extensions>
          <ns3:TrackPointExtension>
            <ns3:hr>80</ns3:hr>
            <ns3:cad>45</ns3:cad>
          </ns3:TrackPointExtension>
        </extensions>
      </trkpt>
      <trkpt lat="43.4535464085638523101806640625" lon="1.45272036083042621612548828125">
        <ele>184.399993896484375</ele>
        <time>2026-08-05T06:47:01.000Z</time>
        <extensions>
          <ns3:TrackPointExtension>
            <ns3:hr>80</ns3:hr>
            <ns3:cad>46</ns3:cad>
          </ns3:TrackPointExtension>
        </extensions>
      </trkpt>
      <trkpt lat="43.45354213379323482513427734375" lon="1.4527294971048831939697265625">
        <ele>184.600006103515625</ele>
        <time>2026-08-05T06:47:02.000Z</time>
        <extensions>
          <ns3:TrackPointExtension>
            <ns3:hr>81</ns3:hr>
            <ns3:cad>47</ns3:cad>
          </ns3:TrackPointExtension>
        </extensions>
      </trkpt>
      <trkpt lat="43.45354096032679080963134765625" lon="1.45274232141673564910888671875">
        <ele>184.600006103515625</ele>
        <time>2026-08-05T06:47:03.000Z</time>
        <extensions>
          <ns3:TrackPointExtension>
            <ns3:hr>80</ns3:hr>
            <ns3:cad>47</ns3:cad>
          </ns3:TrackPointExtension>
        </extensions>
      </trkpt>
      <trkpt lat="43.4535390324890613555908203125" lon="1.45274919457733631134033203125">
        <ele>184.600006103515625</ele>
        <time>2026-08-05T06:47:04.000Z</time>
        <extensions>
          <ns3:TrackPointExtension>
            <ns3:hr>80</ns3:hr>
            <ns3:cad>48</ns3:cad>
          </ns3:TrackPointExtension>
        </extensions>
      </trkpt>
      <trkpt lat="43.45353207550942897796630859375" lon="1.4527596719563007354736328125">
        <ele>184.600006103515625</ele>
        <time>2026-08-05T06:47:05.000Z</time>
        <extensions>
          <ns3:TrackPointExtension>
            <ns3:hr>81</ns3:hr>
            <ns3:cad>48</ns3:cad>
          </ns3:TrackPointExtension>
        </extensions>
      </trkpt>
      <trkpt lat="43.4535246156156063079833984375" lon="1.45277065224945545196533203125">
        <ele>184.600006103515625</ele>
        <time>2026-08-05T06:47:06.000Z</time>
        <extensions>
          <ns3:TrackPointExtension>
            <ns3:hr>80</ns3:hr>
            <ns3:cad>47</ns3:cad>
          </ns3:TrackPointExtension>
        </extensions>
      </trkpt>
      <trkpt lat="43.45351941883563995361328125" lon="1.45278624258935451507568359375">
        <ele>184.600006103515625</ele>
        <time>2026-08-05T06:47:07.000Z</time>
        <extensions>
          <ns3:TrackPointExtension>
            <ns3:hr>80</ns3:hr>
            <ns3:cad>47</ns3:cad>
          </ns3:TrackPointExtension>
        </extensions>
      </trkpt>
      <trkpt lat="43.45351262949407100677490234375" lon="1.4528012461960315704345703125">
        <ele>184.600006103515625</ele>
        <time>2026-08-05T06:47:08.000Z</time>
        <extensions>
          <ns3:TrackPointExtension>
            <ns3:hr>81</ns3:hr>
            <ns3:cad>47</ns3:cad>
          </ns3:TrackPointExtension>
        </extensions>
      </trkpt>
      <trkpt lat="43.4535075165331363677978515625" lon="1.4528143219649791717529296875">
        <ele>184.600006103515625</ele>
        <time>2026-08-05T06:47:09.000Z</time>
        <extensions>
          <ns3:TrackPointExtension>
            <ns3:hr>81</ns3:hr>
            <ns3:cad>47</ns3:cad>
          </ns3:TrackPointExtension>
        </extensions>
      </trkpt>
      <trkpt lat="43.45349988900125026702880859375" lon="1.45282530225813388824462890625">
        <ele>184.600006103515625</ele>
        <time>2026-08-05T06:47:10.000Z</time>
        <extensions>
          <ns3:TrackPointExtension>
            <ns3:hr>81</ns3:hr>
            <ns3:cad>46</ns3:cad>
          </ns3:TrackPointExtension>
        </extensions>
      </trkpt>
      <trkpt lat="43.45349636860191822052001953125" lon="1.45283921621739864349365234375">
        <ele>184.600006103515625</ele>
        <time>2026-08-05T06:47:11.000Z</time>
        <extensions>
          <ns3:TrackPointExtension>
            <ns3:hr>80</ns3:hr>
            <ns3:cad>46</ns3:cad>
          </ns3:TrackPointExtension>
        </extensions>
      </trkpt>
      <trkpt lat="43.45349335111677646636962890625" lon="1.45285011269152164459228515625">
        <ele>184.600006103515625</ele>
        <time>2026-08-05T06:47:12.000Z</time>
        <extensions>
          <ns3:TrackPointExtension>
            <ns3:hr>81</ns3:hr>
            <ns3:cad>46</ns3:cad>
          </ns3:TrackPointExtension>
        </extensions>
      </trkpt>
      <trkpt lat="43.4534890763461589813232421875" lon="1.45285933278501033782958984375">
        <ele>184.600006103515625</ele>
        <time>2026-08-05T06:47:13.000Z</time>
        <extensions>
          <ns3:TrackPointExtension>
            <ns3:hr>81</ns3:hr>
            <ns3:cad>45</ns3:cad>
          </ns3:TrackPointExtension>
        </extensions>
      </trkpt>
      <trkpt lat="43.4534840472042560577392578125" lon="1.45286855287849903106689453125">
        <ele>184.600006103515625</ele>
        <time>2026-08-05T06:47:14.000Z</time>
        <extensions>
          <ns3:TrackPointExtension>
            <ns3:hr>81</ns3:hr>
            <ns3:cad>44</ns3:cad>
          </ns3:TrackPointExtension>
        </extensions>
      </trkpt>
      <trkpt lat="43.453479520976543426513671875" lon="1.45288623869419097900390625">
        <ele>184.600006103515625</ele>
        <time>2026-08-05T06:47:15.000Z</time>
        <extensions>
          <ns3:TrackPointExtension>
            <ns3:hr>81</ns3:hr>
            <ns3:cad>44</ns3:cad>
          </ns3:TrackPointExtension>
        </extensions>
      </trkpt>
      <trkpt lat="43.4534790180623531341552734375" lon="1.452901326119899749755859375">
        <ele>184.600006103515625</ele>
        <time>2026-08-05T06:47:16.000Z</time>
        <extensions>
          <ns3:TrackPointExtension>
            <ns3:hr>80</ns3:hr>
            <ns3:cad>44</ns3:cad>
          </ns3:TrackPointExtension>
        </extensions>
      </trkpt>
      <trkpt lat="43.453474156558513641357421875" lon="1.452913396060466766357421875">
        <ele>184.600006103515625</ele>
        <time>2026-08-05T06:47:17.000Z</time>
        <extensions>
          <ns3:TrackPointExtension>
            <ns3:hr>81</ns3:hr>
            <ns3:cad>45</ns3:cad>
          </ns3:TrackPointExtension>
        </extensions>
      </trkpt>
      <trkpt lat="43.45346854068338871002197265625" lon="1.4529252983629703521728515625">
        <ele>184.600006103515625</ele>
        <time>2026-08-05T06:47:18.000Z</time>
        <extensions>
          <ns3:TrackPointExtension>
            <ns3:hr>80</ns3:hr>
            <ns3:cad>45</ns3:cad>
          </ns3:TrackPointExtension>
        </extensions>
      </trkpt>
      <trkpt lat="43.45346577465534210205078125" lon="1.45293862558901309967041015625">
        <ele>184.600006103515625</ele>
        <time>2026-08-05T06:47:19.000Z</time>
        <extensions>
          <ns3:TrackPointExtension>
            <ns3:hr>80</ns3:hr>
            <ns3:cad>45</ns3:cad>
          </ns3:TrackPointExtension>
        </extensions>
      </trkpt>
      <trkpt lat="43.45346434973180294036865234375" lon="1.45295086316764354705810546875">
        <ele>184.600006103515625</ele>
        <time>2026-08-05T06:47:20.000Z</time>
        <extensions>
          <ns3:TrackPointExtension>
            <ns3:hr>80</ns3:hr>
            <ns3:cad>45</ns3:cad>
          </ns3:TrackPointExtension>
        </extensions>
      </trkpt>
      <trkpt lat="43.4534605778753757476806640625" lon="1.45296393893659114837646484375">
        <ele>184.600006103515625</ele>
        <time>2026-08-05T06:47:21.000Z</time>
        <extensions>
          <ns3:TrackPointExtension>
            <ns3:hr>80</ns3:hr>
            <ns3:cad>45</ns3:cad>
          </ns3:TrackPointExtension>
        </extensions>
      </trkpt>
      <trkpt lat="43.45345546491444110870361328125" lon="1.4529776014387607574462890625">
        <ele>184.600006103515625</ele>
        <time>2026-08-05T06:47:22.000Z</time>
        <extensions>
          <ns3:TrackPointExtension>
            <ns3:hr>80</ns3:hr>
            <ns3:cad>45</ns3:cad>
          </ns3:TrackPointExtension>
        </extensions>
      </trkpt>
      <trkpt lat="43.45344976522028446197509765625" lon="1.452992856502532958984375">
        <ele>184.8000030517578125</ele>
        <time>2026-08-05T06:47:23.000Z</time>
        <extensions>
          <ns3:TrackPointExtension>
            <ns3:hr>80</ns3:hr>
            <ns3:cad>44</ns3:cad>
          </ns3:TrackPointExtension>
        </extensions>
      </trkpt>
      <trkpt lat="43.45344909466803073883056640625" lon="1.453006267547607421875">
        <ele>184.8000030517578125</ele>
        <time>2026-08-05T06:47:24.000Z</time>
        <extensions>
          <ns3:TrackPointExtension>
            <ns3:hr>80</ns3:hr>
            <ns3:cad>44</ns3:cad>
          </ns3:TrackPointExtension>
        </extensions>
      </trkpt>
      <trkpt lat="43.4534438140690326690673828125" lon="1.45301791839301586151123046875">
        <ele>184.8000030517578125</ele>
        <time>2026-08-05T06:47:25.000Z</time>
        <extensions>
          <ns3:TrackPointExtension>
            <ns3:hr>79</ns3:hr>
            <ns3:cad>45</ns3:cad>
          </ns3:TrackPointExtension>
        </extensions>
      </trkpt>
      <trkpt lat="43.4534387849271297454833984375" lon="1.4530312456190586090087890625">
        <ele>184.8000030517578125</ele>
        <time>2026-08-05T06:47:26.000Z</time>
        <extensions>
          <ns3:TrackPointExtension>
            <ns3:hr>80</ns3:hr>
            <ns3:cad>45</ns3:cad>
          </ns3:TrackPointExtension>
        </extensions>
      </trkpt>
      <trkpt lat="43.45343836583197116851806640625" lon="1.45304474048316478729248046875">
        <ele>184.8000030517578125</ele>
        <time>2026-08-05T06:47:27.000Z</time>
        <extensions>
          <ns3:TrackPointExtension>
            <ns3:hr>79</ns3:hr>
            <ns3:cad>46</ns3:cad>
          </ns3:TrackPointExtension>
        </extensions>
      </trkpt>
      <trkpt lat="43.45343249849975109100341796875" lon="1.45305924117565155029296875">
        <ele>184.8000030517578125</ele>
        <time>2026-08-05T06:47:28.000Z</time>
        <extensions>
          <ns3:TrackPointExtension>
            <ns3:hr>79</ns3:hr>
            <ns3:cad>46</ns3:cad>
          </ns3:TrackPointExtension>
        </extensions>
      </trkpt>
      <trkpt lat="43.4534293971955776214599609375" lon="1.45307122729718685150146484375">
        <ele>184.8000030517578125</ele>
        <time>2026-08-05T06:47:29.000Z</time>
        <extensions>
          <ns3:TrackPointExtension>
            <ns3:hr>79</ns3:hr>
            <ns3:cad>46</ns3:cad>
          </ns3:TrackPointExtension>
        </extensions>
      </trkpt>
      <trkpt lat="43.453426547348499298095703125" lon="1.45308346487581729888916015625">
        <ele>184.8000030517578125</ele>
        <time>2026-08-05T06:47:30.000Z</time>
        <extensions>
          <ns3:TrackPointExtension>
            <ns3:hr>79</ns3:hr>
            <ns3:cad>46</ns3:cad>
          </ns3:TrackPointExtension>
        </extensions>
      </trkpt>
      <trkpt lat="43.45342629589140415191650390625" lon="1.45309754647314548492431640625">
        <ele>185</ele>
        <time>2026-08-05T06:47:31.000Z</time>
        <extensions>
          <ns3:TrackPointExtension>
            <ns3:hr>80</ns3:hr>
            <ns3:cad>46</ns3:cad>
          </ns3:TrackPointExtension>
        </extensions>
      </trkpt>
      <trkpt lat="43.45342277549207210540771484375" lon="1.45311296917498111724853515625">
        <ele>185</ele>
        <time>2026-08-05T06:47:32.000Z</time>
        <extensions>
          <ns3:TrackPointExtension>
            <ns3:hr>80</ns3:hr>
            <ns3:cad>46</ns3:cad>
          </ns3:TrackPointExtension>
        </extensions>
      </trkpt>
      <trkpt lat="43.45342176966369152069091796875" lon="1.4531210996210575103759765625">
        <ele>185</ele>
        <time>2026-08-05T06:47:33.000Z</time>
        <extensions>
          <ns3:TrackPointExtension>
            <ns3:hr>80</ns3:hr>
            <ns3:cad>47</ns3:cad>
          </ns3:TrackPointExtension>
        </extensions>
      </trkpt>
      <trkpt lat="43.4534181654453277587890625" lon="1.4531335048377513885498046875">
        <ele>185</ele>
        <time>2026-08-05T06:47:34.000Z</time>
        <extensions>
          <ns3:TrackPointExtension>
            <ns3:hr>80</ns3:hr>
            <ns3:cad>47</ns3:cad>
          </ns3:TrackPointExtension>
        </extensions>
      </trkpt>
      <trkpt lat="43.45341858454048633575439453125" lon="1.45314775407314300537109375">
        <ele>185</ele>
        <time>2026-08-05T06:47:35.000Z</time>
        <extensions>
          <ns3:TrackPointExtension>
            <ns3:hr>80</ns3:hr>
            <ns3:cad>47</ns3:cad>
          </ns3:TrackPointExtension>
        </extensions>
      </trkpt>
      <trkpt lat="43.4534169919788837432861328125" lon="1.45316326059401035308837890625">
        <ele>185</ele>
        <time>2026-08-05T06:47:36.000Z</time>
        <extensions>
          <ns3:TrackPointExtension>
            <ns3:hr>79</ns3:hr>
            <ns3:cad>47</ns3:cad>
          </ns3:TrackPointExtension>
        </extensions>
      </trkpt>
      <trkpt lat="43.45341690815985202789306640625" lon="1.45317616872489452362060546875">
        <ele>185</ele>
        <time>2026-08-05T06:47:37.000Z</time>
        <extensions>
          <ns3:TrackPointExtension>
            <ns3:hr>80</ns3:hr>
            <ns3:cad>47</ns3:cad>
          </ns3:TrackPointExtension>
        </extensions>
      </trkpt>
      <trkpt lat="43.453413136303424835205078125" lon="1.4531905017793178558349609375">
        <ele>185.1999969482421875</ele>
        <time>2026-08-05T06:47:38.000Z</time>
        <extensions>
          <ns3:TrackPointExtension>
            <ns3:hr>80</ns3:hr>
            <ns3:cad>47</ns3:cad>
          </ns3:TrackPointExtension>
        </extensions>
      </trkpt>
      <trkpt lat="43.453410454094409942626953125" lon="1.4532055892050266265869140625">
        <ele>185.1999969482421875</ele>
        <time>2026-08-05T06:47:39.000Z</time>
        <extensions>
          <ns3:TrackPointExtension>
            <ns3:hr>80</ns3:hr>
            <ns3:cad>46</ns3:cad>
          </ns3:TrackPointExtension>
        </extensions>
      </trkpt>
      <trkpt lat="43.453409112989902496337890625" lon="1.45322428084909915924072265625">
        <ele>185.1999969482421875</ele>
        <time>2026-08-05T06:47:40.000Z</time>
        <extensions>
          <ns3:TrackPointExtension>
            <ns3:hr>80</ns3:hr>
            <ns3:cad>46</ns3:cad>
          </ns3:TrackPointExtension>
        </extensions>
      </trkpt>
      <trkpt lat="43.45341070555150508880615234375" lon="1.45323802717030048370361328125">
        <ele>185.1999969482421875</ele>
        <time>2026-08-05T06:47:41.000Z</time>
        <extensions>
          <ns3:TrackPointExtension>
            <ns3:hr>80</ns3:hr>
            <ns3:cad>46</ns3:cad>
          </ns3:TrackPointExtension>
        </extensions>
      </trkpt>
      <trkpt lat="43.45340953208506107330322265625" lon="1.453252695500850677490234375">
        <ele>185.1999969482421875</ele>
        <time>2026-08-05T06:47:42.000Z</time>
        <extensions>
          <ns3:TrackPointExtension>
            <ns3:hr>81</ns3:hr>
            <ns3:cad>46</ns3:cad>
          </ns3:TrackPointExtension>
        </extensions>
      </trkpt>
      <trkpt lat="43.4534074366092681884765625" lon="1.4532651007175445556640625">
        <ele>185.1999969482421875</ele>
        <time>2026-08-05T06:47:43.000Z</time>
        <extensions>
          <ns3:TrackPointExtension>
            <ns3:hr>81</ns3:hr>
            <ns3:cad>46</ns3:cad>
          </ns3:TrackPointExtension>
        </extensions>
      </trkpt>
      <trkpt lat="43.45340433530509471893310546875" lon="1.4532786794006824493408203125">
        <ele>185.1999969482421875</ele>
        <time>2026-08-05T06:47:44.000Z</time>
        <extensions>
          <ns3:TrackPointExtension>
            <ns3:hr>81</ns3:hr>
            <ns3:cad>46</ns3:cad>
          </ns3:TrackPointExtension>
        </extensions>
      </trkpt>
      <trkpt lat="43.45339964143931865692138671875" lon="1.4532910846173763275146484375">
        <ele>185.1999969482421875</ele>
        <time>2026-08-05T06:47:45.000Z</time>
        <extensions>
          <ns3:TrackPointExtension>
            <ns3:hr>81</ns3:hr>
            <ns3:cad>46</ns3:cad>
          </ns3:TrackPointExtension>
        </extensions>
      </trkpt>
      <trkpt lat="43.45339645631611347198486328125" lon="1.45330407656729221343994140625">
        <ele>185.1999969482421875</ele>
        <time>2026-08-05T06:47:46.000Z</time>
        <extensions>
          <ns3:TrackPointExtension>
            <ns3:hr>80</ns3:hr>
            <ns3:cad>46</ns3:cad>
          </ns3:TrackPointExtension>
        </extensions>
      </trkpt>
      <trkpt lat="43.45339327119290828704833984375" lon="1.45331648178398609161376953125">
        <ele>185.1999969482421875</ele>
        <time>2026-08-05T06:47:47.000Z</time>
        <extensions>
          <ns3:TrackPointExtension>
            <ns3:hr>80</ns3:hr>
            <ns3:cad>48</ns3:cad>
          </ns3:TrackPointExtension>
        </extensions>
      </trkpt>
      <trkpt lat="43.45338975079357624053955078125" lon="1.45333006046712398529052734375">
        <ele>185.1999969482421875</ele>
        <time>2026-08-05T06:47:48.000Z</time>
        <extensions>
          <ns3:TrackPointExtension>
            <ns3:hr>80</ns3:hr>
            <ns3:cad>48</ns3:cad>
          </ns3:TrackPointExtension>
        </extensions>
      </trkpt>
      <trkpt lat="43.45338639803230762481689453125" lon="1.4533453993499279022216796875">
        <ele>185.1999969482421875</ele>
        <time>2026-08-05T06:47:49.000Z</time>
        <extensions>
          <ns3:TrackPointExtension>
            <ns3:hr>79</ns3:hr>
            <ns3:cad>47</ns3:cad>
          </ns3:TrackPointExtension>
        </extensions>
      </trkpt>
      <trkpt lat="43.45338438637554645538330078125" lon="1.45336098968982696533203125">
        <ele>185.1999969482421875</ele>
        <time>2026-08-05T06:47:50.000Z</time>
        <extensions>
          <ns3:TrackPointExtension>
            <ns3:hr>79</ns3:hr>
            <ns3:cad>47</ns3:cad>
          </ns3:TrackPointExtension>
        </extensions>
      </trkpt>
      <trkpt lat="43.45338220708072185516357421875" lon="1.45337414927780628204345703125">
        <ele>185.399993896484375</ele>
        <time>2026-08-05T06:47:51.000Z</time>
        <extensions>
          <ns3:TrackPointExtension>
            <ns3:hr>79</ns3:hr>
            <ns3:cad>47</ns3:cad>
          </ns3:TrackPointExtension>
        </extensions>
      </trkpt>
      <trkpt lat="43.4533787705004215240478515625" lon="1.4533873088657855987548828125">
        <ele>185.399993896484375</ele>
        <time>2026-08-05T06:47:52.000Z</time>
        <extensions>
          <ns3:TrackPointExtension>
            <ns3:hr>79</ns3:hr>
            <ns3:cad>47</ns3:cad>
          </ns3:TrackPointExtension>
        </extensions>
      </trkpt>
      <trkpt lat="43.45337457954883575439453125" lon="1.45340256392955780029296875">
        <ele>185.399993896484375</ele>
        <time>2026-08-05T06:47:53.000Z</time>
        <extensions>
          <ns3:TrackPointExtension>
            <ns3:hr>78</ns3:hr>
            <ns3:cad>47</ns3:cad>
          </ns3:TrackPointExtension>
        </extensions>
      </trkpt>
      <trkpt lat="43.4533713944256305694580078125" lon="1.4534168131649494171142578125">
        <ele>185.399993896484375</ele>
        <time>2026-08-05T06:47:54.000Z</time>
        <extensions>
          <ns3:TrackPointExtension>
            <ns3:hr>78</ns3:hr>
            <ns3:cad>47</ns3:cad>
          </ns3:TrackPointExtension>
        </extensions>
      </trkpt>
      <trkpt lat="43.45336854457855224609375" lon="1.45342896692454814910888671875">
        <ele>185.399993896484375</ele>
        <time>2026-08-05T06:47:55.000Z</time>
        <extensions>
          <ns3:TrackPointExtension>
            <ns3:hr>78</ns3:hr>
            <ns3:cad>48</ns3:cad>
          </ns3:TrackPointExtension>
        </extensions>
      </trkpt>
      <trkpt lat="43.453364856541156768798828125" lon="1.45343969576060771942138671875">
        <ele>185.399993896484375</ele>
        <time>2026-08-05T06:47:56.000Z</time>
        <extensions>
          <ns3:TrackPointExtension>
            <ns3:hr>78</ns3:hr>
            <ns3:cad>48</ns3:cad>
          </ns3:TrackPointExtension>
        </extensions>
      </trkpt>
      <trkpt lat="43.4533596597611904144287109375" lon="1.45345562137663364410400390625">
        <ele>185.399993896484375</ele>
        <time>2026-08-05T06:47:57.000Z</time>
        <extensions>
          <ns3:TrackPointExtension>
            <ns3:hr>79</ns3:hr>
            <ns3:cad>47</ns3:cad>
          </ns3:TrackPointExtension>
        </extensions>
      </trkpt>
      <trkpt lat="43.453354798257350921630859375" lon="1.4534704573452472686767578125">
        <ele>185.399993896484375</ele>
        <time>2026-08-05T06:47:58.000Z</time>
        <extensions>
          <ns3:TrackPointExtension>
            <ns3:hr>79</ns3:hr>
            <ns3:cad>47</ns3:cad>
          </ns3:TrackPointExtension>
        </extensions>
      </trkpt>
      <trkpt lat="43.45335219986736774444580078125" lon="1.453486382961273193359375">
        <ele>185.600006103515625</ele>
        <time>2026-08-05T06:47:59.000Z</time>
        <extensions>
          <ns3:TrackPointExtension>
            <ns3:hr>79</ns3:hr>
            <ns3:cad>45</ns3:cad>
          </ns3:TrackPointExtension>
        </extensions>
      </trkpt>
      <trkpt lat="43.45334901474416255950927734375" lon="1.4534984529018402099609375">
        <ele>185.600006103515625</ele>
        <time>2026-08-05T06:48:00.000Z</time>
        <extensions>
          <ns3:TrackPointExtension>
            <ns3:hr>79</ns3:hr>
            <ns3:cad>45</ns3:cad>
          </ns3:TrackPointExtension>
        </extensions>
      </trkpt>
      <trkpt lat="43.4533489309251308441162109375" lon="1.45351655781269073486328125">
        <ele>185.600006103515625</ele>
        <time>2026-08-05T06:48:01.000Z</time>
        <extensions>
          <ns3:TrackPointExtension>
            <ns3:hr>79</ns3:hr>
            <ns3:cad>43</ns3:cad>
          </ns3:TrackPointExtension>
        </extensions>
      </trkpt>
      <trkpt lat="43.45334918238222599029541015625" lon="1.45353072322905063629150390625">
        <ele>185.600006103515625</ele>
        <time>2026-08-05T06:48:02.000Z</time>
        <extensions>
          <ns3:TrackPointExtension>
            <ns3:hr>79</ns3:hr>
            <ns3:cad>43</ns3:cad>
          </ns3:TrackPointExtension>
        </extensions>
      </trkpt>
      <trkpt lat="43.45334566198289394378662109375" lon="1.45354279316961765289306640625">
        <ele>185.600006103515625</ele>
        <time>2026-08-05T06:48:03.000Z</time>
        <extensions>
          <ns3:TrackPointExtension>
            <ns3:hr>80</ns3:hr>
            <ns3:cad>44</ns3:cad>
          </ns3:TrackPointExtension>
        </extensions>
      </trkpt>
      <trkpt lat="43.45334046520292758941650390625" lon="1.4535536058247089385986328125">
        <ele>185.8000030517578125</ele>
        <time>2026-08-05T06:48:04.000Z</time>
        <extensions>
          <ns3:TrackPointExtension>
            <ns3:hr>79</ns3:hr>
            <ns3:cad>44</ns3:cad>
          </ns3:TrackPointExtension>
        </extensions>
      </trkpt>
      <trkpt lat="43.45333895646035671234130859375" lon="1.4535680226981639862060546875">
        <ele>185.8000030517578125</ele>
        <time>2026-08-05T06:48:05.000Z</time>
        <extensions>
          <ns3:TrackPointExtension>
            <ns3:hr>79</ns3:hr>
            <ns3:cad>45</ns3:cad>
          </ns3:TrackPointExtension>
        </extensions>
      </trkpt>
      <trkpt lat="43.45333878882229328155517578125" lon="1.4535824395716190338134765625">
        <ele>185.8000030517578125</ele>
        <time>2026-08-05T06:48:06.000Z</time>
        <extensions>
          <ns3:TrackPointExtension>
            <ns3:hr>80</ns3:hr>
            <ns3:cad>45</ns3:cad>
          </ns3:TrackPointExtension>
        </extensions>
      </trkpt>
      <trkpt lat="43.45333828590810298919677734375" lon="1.4535968564450740814208984375">
        <ele>185.8000030517578125</ele>
        <time>2026-08-05T06:48:07.000Z</time>
        <extensions>
          <ns3:TrackPointExtension>
            <ns3:hr>80</ns3:hr>
            <ns3:cad>45</ns3:cad>
          </ns3:TrackPointExtension>
        </extensions>
      </trkpt>
      <trkpt lat="43.45333778299391269683837890625" lon="1.453613452613353729248046875">
        <ele>186</ele>
        <time>2026-08-05T06:48:08.000Z</time>
        <extensions>
          <ns3:TrackPointExtension>
            <ns3:hr>80</ns3:hr>
            <ns3:cad>45</ns3:cad>
          </ns3:TrackPointExtension>
        </extensions>
      </trkpt>
      <trkpt lat="43.45333694480359554290771484375" lon="1.4536253549158573150634765625">
        <ele>186</ele>
        <time>2026-08-05T06:48:09.000Z</time>
        <extensions>
          <ns3:TrackPointExtension>
            <ns3:hr>80</ns3:hr>
            <ns3:cad>44</ns3:cad>
          </ns3:TrackPointExtension>
        </extensions>
      </trkpt>
      <trkpt lat="43.45333610661327838897705078125" lon="1.453637592494487762451171875">
        <ele>186</ele>
        <time>2026-08-05T06:48:10.000Z</time>
        <extensions>
          <ns3:TrackPointExtension>
            <ns3:hr>80</ns3:hr>
            <ns3:cad>44</ns3:cad>
          </ns3:TrackPointExtension>
        </extensions>
      </trkpt>
      <trkpt lat="43.4533291496336460113525390625" lon="1.45364924333989620208740234375">
        <ele>186</ele>
        <time>2026-08-05T06:48:11.000Z</time>
        <extensions>
          <ns3:TrackPointExtension>
            <ns3:hr>80</ns3:hr>
            <ns3:cad>44</ns3:cad>
          </ns3:TrackPointExtension>
        </extensions>
      </trkpt>
      <trkpt lat="43.453325293958187103271484375" lon="1.45365963689982891082763671875">
        <ele>186</ele>
        <time>2026-08-05T06:48:12.000Z</time>
        <extensions>
          <ns3:TrackPointExtension>
            <ns3:hr>80</ns3:hr>
            <ns3:cad>46</ns3:cad>
          </ns3:TrackPointExtension>
        </extensions>
      </trkpt>
      <trkpt lat="43.45332034863531589508056640625" lon="1.45367539487779140472412109375">
        <ele>186</ele>
        <time>2026-08-05T06:48:13.000Z</time>
        <extensions>
          <ns3:TrackPointExtension>
            <ns3:hr>81</ns3:hr>
            <ns3:cad>46</ns3:cad>
          </ns3:TrackPointExtension>
        </extensions>
      </trkpt>
      <trkpt lat="43.4533140622079372406005859375" lon="1.4536888897418975830078125">
        <ele>186.1999969482421875</ele>
        <time>2026-08-05T06:48:14.000Z</time>
        <extensions>
          <ns3:TrackPointExtension>
            <ns3:hr>81</ns3:hr>
            <ns3:cad>46</ns3:cad>
          </ns3:TrackPointExtension>
        </extensions>
      </trkpt>
      <trkpt lat="43.45330945216119289398193359375" lon="1.453700624406337738037109375">
        <ele>186.1999969482421875</ele>
        <time>2026-08-05T06:48:15.000Z</time>
        <extensions>
          <ns3:TrackPointExtension>
            <ns3:hr>81</ns3:hr>
            <ns3:cad>46</ns3:cad>
          </ns3:TrackPointExtension>
        </extensions>
      </trkpt>
      <trkpt lat="43.45330157317221164703369140625" lon="1.45371059887111186981201171875">
        <ele>186.1999969482421875</ele>
        <time>2026-08-05T06:48:16.000Z</time>
        <extensions>
          <ns3:TrackPointExtension>
            <ns3:hr>81</ns3:hr>
            <ns3:cad>45</ns3:cad>
          </ns3:TrackPointExtension>
        </extensions>
      </trkpt>
      <trkpt lat="43.453297130763530731201171875" lon="1.45372669212520122528076171875">
        <ele>186.1999969482421875</ele>
        <time>2026-08-05T06:48:17.000Z</time>
        <extensions>
          <ns3:TrackPointExtension>
            <ns3:hr>81</ns3:hr>
            <ns3:cad>45</ns3:cad>
          </ns3:TrackPointExtension>
        </extensions>
      </trkpt>
      <trkpt lat="43.4532915987074375152587890625" lon="1.45374245010316371917724609375">
        <ele>186.1999969482421875</ele>
        <time>2026-08-05T06:48:18.000Z</time>
        <extensions>
          <ns3:TrackPointExtension>
            <ns3:hr>82</ns3:hr>
            <ns3:cad>44</ns3:cad>
          </ns3:TrackPointExtension>
        </extensions>
      </trkpt>
      <trkpt lat="43.45328564755618572235107421875" lon="1.4537520892918109893798828125">
        <ele>186.1999969482421875</ele>
        <time>2026-08-05T06:48:19.000Z</time>
        <extensions>
          <ns3:TrackPointExtension>
            <ns3:hr>82</ns3:hr>
            <ns3:cad>44</ns3:cad>
          </ns3:TrackPointExtension>
        </extensions>
      </trkpt>
      <trkpt lat="43.45327936112880706787109375" lon="1.4537638239562511444091796875">
        <ele>186.1999969482421875</ele>
        <time>2026-08-05T06:48:20.000Z</time>
        <extensions>
          <ns3:TrackPointExtension>
            <ns3:hr>82</ns3:hr>
            <ns3:cad>44</ns3:cad>
          </ns3:TrackPointExtension>
        </extensions>
      </trkpt>
      <trkpt lat="43.45327558927237987518310546875" lon="1.45377673208713531494140625">
        <ele>186.1999969482421875</ele>
        <time>2026-08-05T06:48:21.000Z</time>
        <extensions>
          <ns3:TrackPointExtension>
            <ns3:hr>82</ns3:hr>
            <ns3:cad>45</ns3:cad>
          </ns3:TrackPointExtension>
        </extensions>
      </trkpt>
      <trkpt lat="43.4532698057591915130615234375" lon="1.45379056222736835479736328125">
        <ele>186.399993896484375</ele>
        <time>2026-08-05T06:48:22.000Z</time>
        <extensions>
          <ns3:TrackPointExtension>
            <ns3:hr>82</ns3:hr>
            <ns3:cad>45</ns3:cad>
          </ns3:TrackPointExtension>
        </extensions>
      </trkpt>
      <trkpt lat="43.4532654471695423126220703125" lon="1.4537996985018253326416015625">
        <ele>186.399993896484375</ele>
        <time>2026-08-05T06:48:23.000Z</time>
        <extensions>
          <ns3:TrackPointExtension>
            <ns3:hr>83</ns3:hr>
            <ns3:cad>45</ns3:cad>
          </ns3:TrackPointExtension>
        </extensions>
      </trkpt>
      <trkpt lat="43.45326125621795654296875" lon="1.45381520502269268035888671875">
        <ele>186.399993896484375</ele>
        <time>2026-08-05T06:48:24.000Z</time>
        <extensions>
          <ns3:TrackPointExtension>
            <ns3:hr>83</ns3:hr>
            <ns3:cad>45</ns3:cad>
          </ns3:TrackPointExtension>
        </extensions>
      </trkpt>
      <trkpt lat="43.45325362868607044219970703125" lon="1.453826017677783966064453125">
        <ele>186.399993896484375</ele>
        <time>2026-08-05T06:48:25.000Z</time>
        <extensions>
          <ns3:TrackPointExtension>
            <ns3:hr>83</ns3:hr>
            <ns3:cad>45</ns3:cad>
          </ns3:TrackPointExtension>
        </extensions>
      </trkpt>
      <trkpt lat="43.4532491862773895263671875" lon="1.4538422785699367523193359375">
        <ele>186.399993896484375</ele>
        <time>2026-08-05T06:48:26.000Z</time>
        <extensions>
          <ns3:TrackPointExtension>
            <ns3:hr>83</ns3:hr>
            <ns3:cad>46</ns3:cad>
          </ns3:TrackPointExtension>
        </extensions>
      </trkpt>
      <trkpt lat="43.4532465040683746337890625" lon="1.45385677926242351531982421875">
        <ele>186.399993896484375</ele>
        <time>2026-08-05T06:48:27.000Z</time>
        <extensions>
          <ns3:TrackPointExtension>
            <ns3:hr>84</ns3:hr>
            <ns3:cad>46</ns3:cad>
          </ns3:TrackPointExtension>
        </extensions>
      </trkpt>
      <trkpt lat="43.4532411396503448486328125" lon="1.453865580260753631591796875">
        <ele>186.399993896484375</ele>
        <time>2026-08-05T06:48:28.000Z</time>
        <extensions>
          <ns3:TrackPointExtension>
            <ns3:hr>84</ns3:hr>
            <ns3:cad>45</ns3:cad>
          </ns3:TrackPointExtension>
        </extensions>
      </trkpt>
      <trkpt lat="43.4532319195568561553955078125" lon="1.4538758061826229095458984375">
        <ele>186.399993896484375</ele>
        <time>2026-08-05T06:48:29.000Z</time>
        <extensions>
          <ns3:TrackPointExtension>
            <ns3:hr>84</ns3:hr>
            <ns3:cad>44</ns3:cad>
          </ns3:TrackPointExtension>
        </extensions>
      </trkpt>
      <trkpt lat="43.4532258845865726470947265625" lon="1.4538848586380481719970703125">
        <ele>186.399993896484375</ele>
        <time>2026-08-05T06:48:30.000Z</time>
        <extensions>
          <ns3:TrackPointExtension>
            <ns3:hr>84</ns3:hr>
            <ns3:cad>44</ns3:cad>
          </ns3:TrackPointExtension>
        </extensions>
      </trkpt>
      <trkpt lat="43.45322328619658946990966796875" lon="1.45389952696859836578369140625">
        <ele>186.399993896484375</ele>
        <time>2026-08-05T06:48:31.000Z</time>
        <extensions>
          <ns3:TrackPointExtension>
            <ns3:hr>85</ns3:hr>
            <ns3:cad>44</ns3:cad>
          </ns3:TrackPointExtension>
        </extensions>
      </trkpt>
      <trkpt lat="43.45321674831211566925048828125" lon="1.4539150334894657135009765625">
        <ele>186.399993896484375</ele>
        <time>2026-08-05T06:48:32.000Z</time>
        <extensions>
          <ns3:TrackPointExtension>
            <ns3:hr>85</ns3:hr>
            <ns3:cad>44</ns3:cad>
          </ns3:TrackPointExtension>
        </extensions>
      </trkpt>
      <trkpt lat="43.45321171917021274566650390625" lon="1.45392735488712787628173828125">
        <ele>186.399993896484375</ele>
        <time>2026-08-05T06:48:33.000Z</time>
        <extensions>
          <ns3:TrackPointExtension>
            <ns3:hr>85</ns3:hr>
            <ns3:cad>44</ns3:cad>
          </ns3:TrackPointExtension>
        </extensions>
      </trkpt>
      <trkpt lat="43.45320585183799266815185546875" lon="1.45393976010382175445556640625">
        <ele>186.399993896484375</ele>
        <time>2026-08-05T06:48:34.000Z</time>
        <extensions>
          <ns3:TrackPointExtension>
            <ns3:hr>85</ns3:hr>
            <ns3:cad>46</ns3:cad>
          </ns3:TrackPointExtension>
        </extensions>
      </trkpt>
      <trkpt lat="43.45319881103932857513427734375" lon="1.45395283587276935577392578125">
        <ele>186.399993896484375</ele>
        <time>2026-08-05T06:48:35.000Z</time>
        <extensions>
          <ns3:TrackPointExtension>
            <ns3:hr>84</ns3:hr>
            <ns3:cad>46</ns3:cad>
          </ns3:TrackPointExtension>
        </extensions>
      </trkpt>
      <trkpt lat="43.4531943686306476593017578125" lon="1.4539663307368755340576171875">
        <ele>186.399993896484375</ele>
        <time>2026-08-05T06:48:36.000Z</time>
        <extensions>
          <ns3:TrackPointExtension>
            <ns3:hr>85</ns3:hr>
            <ns3:cad>44</ns3:cad>
          </ns3:TrackPointExtension>
        </extensions>
      </trkpt>
      <trkpt lat="43.45318841747939586639404296875" lon="1.45397546701133251190185546875">
        <ele>186.399993896484375</ele>
        <time>2026-08-05T06:48:37.000Z</time>
        <extensions>
          <ns3:TrackPointExtension>
            <ns3:hr>85</ns3:hr>
            <ns3:cad>44</ns3:cad>
          </ns3:TrackPointExtension>
        </extensions>
      </trkpt>
      <trkpt lat="43.453179113566875457763671875" lon="1.453987620770931243896484375">
        <ele>186.399993896484375</ele>
        <time>2026-08-05T06:48:38.000Z</time>
        <extensions>
          <ns3:TrackPointExtension>
            <ns3:hr>85</ns3:hr>
            <ns3:cad>44</ns3:cad>
          </ns3:TrackPointExtension>
        </extensions>
      </trkpt>
      <trkpt lat="43.45317207276821136474609375" lon="1.45399407483637332916259765625">
        <ele>186.399993896484375</ele>
        <time>2026-08-05T06:48:39.000Z</time>
        <extensions>
          <ns3:TrackPointExtension>
            <ns3:hr>84</ns3:hr>
            <ns3:cad>45</ns3:cad>
          </ns3:TrackPointExtension>
        </extensions>
      </trkpt>
      <trkpt lat="43.45316243357956409454345703125" lon="1.45400128327310085296630859375">
        <ele>186.399993896484375</ele>
        <time>2026-08-05T06:48:40.000Z</time>
        <extensions>
          <ns3:TrackPointExtension>
            <ns3:hr>85</ns3:hr>
            <ns3:cad>46</ns3:cad>
          </ns3:TrackPointExtension>
        </extensions>
      </trkpt>
      <trkpt lat="43.45315438695251941680908203125" lon="1.45400564186275005340576171875">
        <ele>186.399993896484375</ele>
        <time>2026-08-05T06:48:41.000Z</time>
        <extensions>
          <ns3:TrackPointExtension>
            <ns3:hr>85</ns3:hr>
            <ns3:cad>46</ns3:cad>
          </ns3:TrackPointExtension>
        </extensions>
      </trkpt>
      <trkpt lat="43.453144244849681854248046875" lon="1.45401469431817531585693359375">
        <ele>186.399993896484375</ele>
        <time>2026-08-05T06:48:42.000Z</time>
        <extensions>
          <ns3:TrackPointExtension>
            <ns3:hr>84</ns3:hr>
            <ns3:cad>46</ns3:cad>
          </ns3:TrackPointExtension>
        </extensions>
      </trkpt>
      <trkpt lat="43.45313762314617633819580078125" lon="1.45402349531650543212890625">
        <ele>186.399993896484375</ele>
        <time>2026-08-05T06:48:43.000Z</time>
        <extensions>
          <ns3:TrackPointExtension>
            <ns3:hr>85</ns3:hr>
            <ns3:cad>46</ns3:cad>
          </ns3:TrackPointExtension>
        </extensions>
      </trkpt>
      <trkpt lat="43.453132845461368560791015625" lon="1.4540370739996433258056640625">
        <ele>186.399993896484375</ele>
        <time>2026-08-05T06:48:44.000Z</time>
        <extensions>
          <ns3:TrackPointExtension>
            <ns3:hr>85</ns3:hr>
            <ns3:cad>44</ns3:cad>
          </ns3:TrackPointExtension>
        </extensions>
      </trkpt>
      <trkpt lat="43.45312873832881450653076171875" lon="1.45404570735991001129150390625">
        <ele>186.399993896484375</ele>
        <time>2026-08-05T06:48:45.000Z</time>
        <extensions>
          <ns3:TrackPointExtension>
            <ns3:hr>85</ns3:hr>
            <ns3:cad>44</ns3:cad>
          </ns3:TrackPointExtension>
        </extensions>
      </trkpt>
      <trkpt lat="43.45312588848173618316650390625" lon="1.45405643619596958160400390625">
        <ele>186.399993896484375</ele>
        <time>2026-08-05T06:48:46.000Z</time>
        <extensions>
          <ns3:TrackPointExtension>
            <ns3:hr>85</ns3:hr>
            <ns3:cad>44</ns3:cad>
          </ns3:TrackPointExtension>
        </extensions>
      </trkpt>
      <trkpt lat="43.45312320627272129058837890625" lon="1.4540672488510608673095703125">
        <ele>186.399993896484375</ele>
        <time>2026-08-05T06:48:47.000Z</time>
        <extensions>
          <ns3:TrackPointExtension>
            <ns3:hr>85</ns3:hr>
            <ns3:cad>44</ns3:cad>
          </ns3:TrackPointExtension>
        </extensions>
      </trkpt>
      <trkpt lat="43.45311968587338924407958984375" lon="1.4540820010006427764892578125">
        <ele>186.399993896484375</ele>
        <time>2026-08-05T06:48:48.000Z</time>
        <extensions>
          <ns3:TrackPointExtension>
            <ns3:hr>85</ns3:hr>
            <ns3:cad>44</ns3:cad>
          </ns3:TrackPointExtension>
        </extensions>
      </trkpt>
      <trkpt lat="43.45311683602631092071533203125" lon="1.4540944062173366546630859375">
        <ele>186.399993896484375</ele>
        <time>2026-08-05T06:48:49.000Z</time>
        <extensions>
          <ns3:TrackPointExtension>
            <ns3:hr>85</ns3:hr>
            <ns3:cad>43</ns3:cad>
          </ns3:TrackPointExtension>
        </extensions>
      </trkpt>
      <trkpt lat="43.45311415381729602813720703125" lon="1.45410924218595027923583984375">
        <ele>186.399993896484375</ele>
        <time>2026-08-05T06:48:50.000Z</time>
        <extensions>
          <ns3:TrackPointExtension>
            <ns3:hr>86</ns3:hr>
            <ns3:cad>43</ns3:cad>
          </ns3:TrackPointExtension>
        </extensions>
      </trkpt>
      <trkpt lat="43.45311096869409084320068359375" lon="1.45412516780197620391845703125">
        <ele>186.399993896484375</ele>
        <time>2026-08-05T06:48:51.000Z</time>
        <extensions>
          <ns3:TrackPointExtension>
            <ns3:hr>86</ns3:hr>
            <ns3:cad>43</ns3:cad>
          </ns3:TrackPointExtension>
        </extensions>
      </trkpt>
      <trkpt lat="43.45311013050377368927001953125" lon="1.4541395008563995361328125">
        <ele>186.399993896484375</ele>
        <time>2026-08-05T06:48:52.000Z</time>
        <extensions>
          <ns3:TrackPointExtension>
            <ns3:hr>87</ns3:hr>
            <ns3:cad>44</ns3:cad>
          </ns3:TrackPointExtension>
        </extensions>
      </trkpt>
      <trkpt lat="43.45310979522764682769775390625" lon="1.45415483973920345306396484375">
        <ele>186.399993896484375</ele>
        <time>2026-08-05T06:48:53.000Z</time>
        <extensions>
          <ns3:TrackPointExtension>
            <ns3:hr>87</ns3:hr>
            <ns3:cad>45</ns3:cad>
          </ns3:TrackPointExtension>
        </extensions>
      </trkpt>
      <trkpt lat="43.4531071968376636505126953125" lon="1.4541654847562313079833984375">
        <ele>186.399993896484375</ele>
        <time>2026-08-05T06:48:54.000Z</time>
        <extensions>
          <ns3:TrackPointExtension>
            <ns3:hr>87</ns3:hr>
            <ns3:cad>45</ns3:cad>
          </ns3:TrackPointExtension>
        </extensions>
      </trkpt>
      <trkpt lat="43.4531045146286487579345703125" lon="1.4541768841445446014404296875">
        <ele>186.399993896484375</ele>
        <time>2026-08-05T06:48:55.000Z</time>
        <extensions>
          <ns3:TrackPointExtension>
            <ns3:hr>87</ns3:hr>
            <ns3:cad>45</ns3:cad>
          </ns3:TrackPointExtension>
        </extensions>
      </trkpt>
      <trkpt lat="43.45310023985803127288818359375" lon="1.4541882835328578948974609375">
        <ele>186.600006103515625</ele>
        <time>2026-08-05T06:48:56.000Z</time>
        <extensions>
          <ns3:TrackPointExtension>
            <ns3:hr>87</ns3:hr>
            <ns3:cad>44</ns3:cad>
          </ns3:TrackPointExtension>
        </extensions>
      </trkpt>
      <trkpt lat="43.45309604890644550323486328125" lon="1.45419356413185596466064453125">
        <ele>186.600006103515625</ele>
        <time>2026-08-05T06:48:57.000Z</time>
        <extensions>
          <ns3:TrackPointExtension>
            <ns3:hr>88</ns3:hr>
            <ns3:cad>43</ns3:cad>
          </ns3:TrackPointExtension>
        </extensions>
      </trkpt>
      <trkpt lat="43.45309085212647914886474609375" lon="1.45420278422534465789794921875">
        <ele>186.600006103515625</ele>
        <time>2026-08-05T06:48:58.000Z</time>
        <extensions>
          <ns3:TrackPointExtension>
            <ns3:hr>87</ns3:hr>
            <ns3:cad>43</ns3:cad>
          </ns3:TrackPointExtension>
        </extensions>
      </trkpt>
      <trkpt lat="43.45308959484100341796875" lon="1.45421535708010196685791015625">
        <ele>186.8000030517578125</ele>
        <time>2026-08-05T06:48:59.000Z</time>
        <extensions>
          <ns3:TrackPointExtension>
            <ns3:hr>87</ns3:hr>
            <ns3:cad>42</ns3:cad>
          </ns3:TrackPointExtension>
        </extensions>
      </trkpt>
      <trkpt lat="43.4530857391655445098876953125" lon="1.454231031239032745361328125">
        <ele>186.8000030517578125</ele>
        <time>2026-08-05T06:49:00.000Z</time>
        <extensions>
          <ns3:TrackPointExtension>
            <ns3:hr>87</ns3:hr>
            <ns3:cad>42</ns3:cad>
          </ns3:TrackPointExtension>
        </extensions>
      </trkpt>
      <trkpt lat="43.45308682881295680999755859375" lon="1.45424217917025089263916015625">
        <ele>186.8000030517578125</ele>
        <time>2026-08-05T06:49:01.000Z</time>
        <extensions>
          <ns3:TrackPointExtension>
            <ns3:hr>87</ns3:hr>
            <ns3:cad>43</ns3:cad>
          </ns3:TrackPointExtension>
        </extensions>
      </trkpt>
      <trkpt lat="43.4530887566506862640380859375" lon="1.4542610384523868560791015625">
        <ele>186.8000030517578125</ele>
        <time>2026-08-05T06:49:02.000Z</time>
        <extensions>
          <ns3:TrackPointExtension>
            <ns3:hr>86</ns3:hr>
            <ns3:cad>43</ns3:cad>
          </ns3:TrackPointExtension>
        </extensions>
      </trkpt>
      <trkpt lat="43.45308900810778141021728515625" lon="1.45428098738193511962890625">
        <ele>186.8000030517578125</ele>
        <time>2026-08-05T06:49:03.000Z</time>
        <extensions>
          <ns3:TrackPointExtension>
            <ns3:hr>86</ns3:hr>
            <ns3:cad>43</ns3:cad>
          </ns3:TrackPointExtension>
        </extensions>
      </trkpt>
      <trkpt lat="43.4530904330313205718994140625" lon="1.45429112948477268218994140625">
        <ele>186.8000030517578125</ele>
        <time>2026-08-05T06:49:04.000Z</time>
        <extensions>
          <ns3:TrackPointExtension>
            <ns3:hr>86</ns3:hr>
            <ns3:cad>43</ns3:cad>
          </ns3:TrackPointExtension>
        </extensions>
      </trkpt>
      <trkpt lat="43.45309219323098659515380859375" lon="1.454301439225673675537109375">
        <ele>186.8000030517578125</ele>
        <time>2026-08-05T06:49:05.000Z</time>
        <extensions>
          <ns3:TrackPointExtension>
            <ns3:hr>87</ns3:hr>
            <ns3:cad>43</ns3:cad>
          </ns3:TrackPointExtension>
        </extensions>
      </trkpt>
      <trkpt lat="43.453095294535160064697265625" lon="1.45432080142199993133544921875">
        <ele>186.8000030517578125</ele>
        <time>2026-08-05T06:49:06.000Z</time>
        <extensions>
          <ns3:TrackPointExtension>
            <ns3:hr>86</ns3:hr>
            <ns3:cad>45</ns3:cad>
          </ns3:TrackPointExtension>
        </extensions>
      </trkpt>
      <trkpt lat="43.45309697091579437255859375" lon="1.45433471538126468658447265625">
        <ele>186.8000030517578125</ele>
        <time>2026-08-05T06:49:07.000Z</time>
        <extensions>
          <ns3:TrackPointExtension>
            <ns3:hr>86</ns3:hr>
            <ns3:cad>44</ns3:cad>
          </ns3:TrackPointExtension>
        </extensions>
      </trkpt>
      <trkpt lat="43.45309018157422542572021484375" lon="1.45434661768376827239990234375">
        <ele>187</ele>
        <time>2026-08-05T06:49:08.000Z</time>
        <extensions>
          <ns3:TrackPointExtension>
            <ns3:hr>87</ns3:hr>
            <ns3:cad>44</ns3:cad>
          </ns3:TrackPointExtension>
        </extensions>
      </trkpt>
      <trkpt lat="43.4530954621732234954833984375" lon="1.4543545804917812347412109375">
        <ele>187</ele>
        <time>2026-08-05T06:49:09.000Z</time>
        <extensions>
          <ns3:TrackPointExtension>
            <ns3:hr>86</ns3:hr>
            <ns3:cad>44</ns3:cad>
          </ns3:TrackPointExtension>
        </extensions>
      </trkpt>
      <trkpt lat="43.45309428870677947998046875" lon="1.45436556078493595123291015625">
        <ele>187</ele>
        <time>2026-08-05T06:49:10.000Z</time>
        <extensions>
          <ns3:TrackPointExtension>
            <ns3:hr>86</ns3:hr>
            <ns3:cad>43</ns3:cad>
          </ns3:TrackPointExtension>
        </extensions>
      </trkpt>
      <trkpt lat="43.45309370197355747222900390625" lon="1.45438148640096187591552734375">
        <ele>187</ele>
        <time>2026-08-05T06:49:11.000Z</time>
        <extensions>
          <ns3:TrackPointExtension>
            <ns3:hr>86</ns3:hr>
            <ns3:cad>0</ns3:cad>
          </ns3:TrackPointExtension>
        </extensions>
      </trkpt>
      <trkpt lat="43.4530964680016040802001953125" lon="1.4543985016644001007080078125">
        <ele>187.1999969482421875</ele>
        <time>2026-08-05T06:49:12.000Z</time>
        <extensions>
          <ns3:TrackPointExtension>
            <ns3:hr>86</ns3:hr>
            <ns3:cad>0</ns3:cad>
          </ns3:TrackPointExtension>
        </extensions>
      </trkpt>
      <trkpt lat="43.45310141332447528839111328125" lon="1.4544117450714111328125">
        <ele>187.1999969482421875</ele>
        <time>2026-08-05T06:49:13.000Z</time>
        <extensions>
          <ns3:TrackPointExtension>
            <ns3:hr>86</ns3:hr>
            <ns3:cad>0</ns3:cad>
          </ns3:TrackPointExtension>
        </extensions>
      </trkpt>
      <trkpt lat="43.4531021676957607269287109375" lon="1.4544243179261684417724609375">
        <ele>187.1999969482421875</ele>
        <time>2026-08-05T06:49:14.000Z</time>
        <extensions>
          <ns3:TrackPointExtension>
            <ns3:hr>86</ns3:hr>
            <ns3:cad>43</ns3:cad>
          </ns3:TrackPointExtension>
        </extensions>
      </trkpt>
      <trkpt lat="43.45310191623866558074951171875" lon="1.45443730987608432769775390625">
        <ele>187.1999969482421875</ele>
        <time>2026-08-05T06:49:15.000Z</time>
        <extensions>
          <ns3:TrackPointExtension>
            <ns3:hr>85</ns3:hr>
            <ns3:cad>43</ns3:cad>
          </ns3:TrackPointExtension>
        </extensions>
      </trkpt>
      <trkpt lat="43.4531016647815704345703125" lon="1.454449631273746490478515625">
        <ele>187.1999969482421875</ele>
        <time>2026-08-05T06:49:16.000Z</time>
        <extensions>
          <ns3:TrackPointExtension>
            <ns3:hr>86</ns3:hr>
            <ns3:cad>43</ns3:cad>
          </ns3:TrackPointExtension>
        </extensions>
      </trkpt>
      <trkpt lat="43.453103341162204742431640625" lon="1.4544605277478694915771484375">
        <ele>187.1999969482421875</ele>
        <time>2026-08-05T06:49:17.000Z</time>
        <extensions>
          <ns3:TrackPointExtension>
            <ns3:hr>86</ns3:hr>
            <ns3:cad>43</ns3:cad>
          </ns3:TrackPointExtension>
        </extensions>
      </trkpt>
      <trkpt lat="43.45310141332447528839111328125" lon="1.4544672332704067230224609375">
        <ele>187.1999969482421875</ele>
        <time>2026-08-05T06:49:18.000Z</time>
        <extensions>
          <ns3:TrackPointExtension>
            <ns3:hr>85</ns3:hr>
            <ns3:cad>44</ns3:cad>
          </ns3:TrackPointExtension>
        </extensions>
      </trkpt>
      <trkpt lat="43.453100658953189849853515625" lon="1.454484499990940093994140625">
        <ele>187.1999969482421875</ele>
        <time>2026-08-05T06:49:19.000Z</time>
        <extensions>
          <ns3:TrackPointExtension>
            <ns3:hr>86</ns3:hr>
            <ns3:cad>44</ns3:cad>
          </ns3:TrackPointExtension>
        </extensions>
      </trkpt>
      <trkpt lat="43.45310275442898273468017578125" lon="1.45449598319828510284423828125">
        <ele>187.1999969482421875</ele>
        <time>2026-08-05T06:49:20.000Z</time>
        <extensions>
          <ns3:TrackPointExtension>
            <ns3:hr>86</ns3:hr>
            <ns3:cad>44</ns3:cad>
          </ns3:TrackPointExtension>
        </extensions>
      </trkpt>
      <trkpt lat="43.453104682266712188720703125" lon="1.454511322081089019775390625">
        <ele>187.1999969482421875</ele>
        <time>2026-08-05T06:49:21.000Z</time>
        <extensions>
          <ns3:TrackPointExtension>
            <ns3:hr>86</ns3:hr>
            <ns3:cad>44</ns3:cad>
          </ns3:TrackPointExtension>
        </extensions>
      </trkpt>
      <trkpt lat="43.4531051851809024810791015625" lon="1.45452531985938549041748046875">
        <ele>187.1999969482421875</ele>
        <time>2026-08-05T06:49:22.000Z</time>
        <extensions>
          <ns3:TrackPointExtension>
            <ns3:hr>86</ns3:hr>
            <ns3:cad>45</ns3:cad>
          </ns3:TrackPointExtension>
        </extensions>
      </trkpt>
      <trkpt lat="43.45310392789542675018310546875" lon="1.45453982055187225341796875">
        <ele>187.1999969482421875</ele>
        <time>2026-08-05T06:49:23.000Z</time>
        <extensions>
          <ns3:TrackPointExtension>
            <ns3:hr>86</ns3:hr>
            <ns3:cad>45</ns3:cad>
          </ns3:TrackPointExtension>
        </extensions>
      </trkpt>
      <trkpt lat="43.45310426317155361175537109375" lon="1.45455323159694671630859375">
        <ele>187.1999969482421875</ele>
        <time>2026-08-05T06:49:24.000Z</time>
        <extensions>
          <ns3:TrackPointExtension>
            <ns3:hr>86</ns3:hr>
            <ns3:cad>47</ns3:cad>
          </ns3:TrackPointExtension>
        </extensions>
      </trkpt>
      <trkpt lat="43.45310593955218791961669921875" lon="1.45456798374652862548828125">
        <ele>187.1999969482421875</ele>
        <time>2026-08-05T06:49:25.000Z</time>
        <extensions>
          <ns3:TrackPointExtension>
            <ns3:hr>86</ns3:hr>
            <ns3:cad>47</ns3:cad>
          </ns3:TrackPointExtension>
        </extensions>
      </trkpt>
      <trkpt lat="43.453106023371219635009765625" lon="1.45457804203033447265625">
        <ele>187.1999969482421875</ele>
        <time>2026-08-05T06:49:26.000Z</time>
        <extensions>
          <ns3:TrackPointExtension>
            <ns3:hr>87</ns3:hr>
            <ns3:cad>47</ns3:cad>
          </ns3:TrackPointExtension>
        </extensions>
      </trkpt>
      <trkpt lat="43.4531068615615367889404296875" lon="1.45459078252315521240234375">
        <ele>187.1999969482421875</ele>
        <time>2026-08-05T06:49:27.000Z</time>
        <extensions>
          <ns3:TrackPointExtension>
            <ns3:hr>87</ns3:hr>
            <ns3:cad>47</ns3:cad>
          </ns3:TrackPointExtension>
        </extensions>
      </trkpt>
      <trkpt lat="43.4531075321137905120849609375" lon="1.45460478030145168304443359375">
        <ele>187.1999969482421875</ele>
        <time>2026-08-05T06:49:28.000Z</time>
        <extensions>
          <ns3:TrackPointExtension>
            <ns3:hr>87</ns3:hr>
            <ns3:cad>47</ns3:cad>
          </ns3:TrackPointExtension>
        </extensions>
      </trkpt>
      <trkpt lat="43.4531075321137905120849609375" lon="1.45461534149944782257080078125">
        <ele>187.1999969482421875</ele>
        <time>2026-08-05T06:49:29.000Z</time>
        <extensions>
          <ns3:TrackPointExtension>
            <ns3:hr>86</ns3:hr>
            <ns3:cad>47</ns3:cad>
          </ns3:TrackPointExtension>
        </extensions>
      </trkpt>
      <trkpt lat="43.4531068615615367889404296875" lon="1.45463026128709316253662109375">
        <ele>187.1999969482421875</ele>
        <time>2026-08-05T06:49:30.000Z</time>
        <extensions>
          <ns3:TrackPointExtension>
            <ns3:hr>86</ns3:hr>
            <ns3:cad>47</ns3:cad>
          </ns3:TrackPointExtension>
        </extensions>
      </trkpt>
      <trkpt lat="43.4531043469905853271484375" lon="1.4546469412744045257568359375">
        <ele>187.1999969482421875</ele>
        <time>2026-08-05T06:49:31.000Z</time>
        <extensions>
          <ns3:TrackPointExtension>
            <ns3:hr>86</ns3:hr>
            <ns3:cad>46</ns3:cad>
          </ns3:TrackPointExtension>
        </extensions>
      </trkpt>
      <trkpt lat="43.453102670609951019287109375" lon="1.45465917885303497314453125">
        <ele>187.1999969482421875</ele>
        <time>2026-08-05T06:49:32.000Z</time>
        <extensions>
          <ns3:TrackPointExtension>
            <ns3:hr>86</ns3:hr>
            <ns3:cad>46</ns3:cad>
          </ns3:TrackPointExtension>
        </extensions>
      </trkpt>
      <trkpt lat="43.453100658953189849853515625" lon="1.4546727575361728668212890625">
        <ele>187.1999969482421875</ele>
        <time>2026-08-05T06:49:33.000Z</time>
        <extensions>
          <ns3:TrackPointExtension>
            <ns3:hr>85</ns3:hr>
            <ns3:cad>45</ns3:cad>
          </ns3:TrackPointExtension>
        </extensions>
      </trkpt>
      <trkpt lat="43.4531001560389995574951171875" lon="1.454689018428325653076171875">
        <ele>187.399993896484375</ele>
        <time>2026-08-05T06:49:34.000Z</time>
        <extensions>
          <ns3:TrackPointExtension>
            <ns3:hr>86</ns3:hr>
            <ns3:cad>45</ns3:cad>
          </ns3:TrackPointExtension>
        </extensions>
      </trkpt>
      <trkpt lat="43.45309965312480926513671875" lon="1.45470150746405124664306640625">
        <ele>187.399993896484375</ele>
        <time>2026-08-05T06:49:35.000Z</time>
        <extensions>
          <ns3:TrackPointExtension>
            <ns3:hr>86</ns3:hr>
            <ns3:cad>45</ns3:cad>
          </ns3:TrackPointExtension>
        </extensions>
      </trkpt>
      <trkpt lat="43.45309722237288951873779296875" lon="1.45471391268074512481689453125">
        <ele>187.399993896484375</ele>
        <time>2026-08-05T06:49:36.000Z</time>
        <extensions>
          <ns3:TrackPointExtension>
            <ns3:hr>86</ns3:hr>
            <ns3:cad>44</ns3:cad>
          </ns3:TrackPointExtension>
        </extensions>
      </trkpt>
      <trkpt lat="43.453096635639667510986328125" lon="1.4547250606119632720947265625">
        <ele>187.399993896484375</ele>
        <time>2026-08-05T06:49:37.000Z</time>
        <extensions>
          <ns3:TrackPointExtension>
            <ns3:hr>86</ns3:hr>
            <ns3:cad>43</ns3:cad>
          </ns3:TrackPointExtension>
        </extensions>
      </trkpt>
      <trkpt lat="43.45309236086905002593994140625" lon="1.45474157296121120452880859375">
        <ele>187.399993896484375</ele>
        <time>2026-08-05T06:49:38.000Z</time>
        <extensions>
          <ns3:TrackPointExtension>
            <ns3:hr>86</ns3:hr>
            <ns3:cad>43</ns3:cad>
          </ns3:TrackPointExtension>
        </extensions>
      </trkpt>
      <trkpt lat="43.4530894272029399871826171875" lon="1.45475448109209537506103515625">
        <ele>187.600006103515625</ele>
        <time>2026-08-05T06:49:39.000Z</time>
        <extensions>
          <ns3:TrackPointExtension>
            <ns3:hr>86</ns3:hr>
            <ns3:cad>43</ns3:cad>
          </ns3:TrackPointExtension>
        </extensions>
      </trkpt>
      <trkpt lat="43.4530909359455108642578125" lon="1.4547592587769031524658203125">
        <ele>187.600006103515625</ele>
        <time>2026-08-05T06:49:40.000Z</time>
        <extensions>
          <ns3:TrackPointExtension>
            <ns3:hr>87</ns3:hr>
            <ns3:cad>43</ns3:cad>
          </ns3:TrackPointExtension>
        </extensions>
      </trkpt>
      <trkpt lat="43.453087918460369110107421875" lon="1.45478121936321258544921875">
        <ele>187.600006103515625</ele>
        <time>2026-08-05T06:49:41.000Z</time>
        <extensions>
          <ns3:TrackPointExtension>
            <ns3:hr>86</ns3:hr>
            <ns3:cad>44</ns3:cad>
          </ns3:TrackPointExtension>
        </extensions>
      </trkpt>
      <trkpt lat="43.4530890919268131256103515625" lon="1.45479999482631683349609375">
        <ele>187.600006103515625</ele>
        <time>2026-08-05T06:49:42.000Z</time>
        <extensions>
          <ns3:TrackPointExtension>
            <ns3:hr>86</ns3:hr>
            <ns3:cad>43</ns3:cad>
          </ns3:TrackPointExtension>
        </extensions>
      </trkpt>
      <trkpt lat="43.453086577355861663818359375" lon="1.45481416024267673492431640625">
        <ele>187.600006103515625</ele>
        <time>2026-08-05T06:49:43.000Z</time>
        <extensions>
          <ns3:TrackPointExtension>
            <ns3:hr>86</ns3:hr>
            <ns3:cad>43</ns3:cad>
          </ns3:TrackPointExtension>
        </extensions>
      </trkpt>
      <trkpt lat="43.45309135504066944122314453125" lon="1.45481885410845279693603515625">
        <ele>187.600006103515625</ele>
        <time>2026-08-05T06:49:44.000Z</time>
        <extensions>
          <ns3:TrackPointExtension>
            <ns3:hr>86</ns3:hr>
            <ns3:cad>43</ns3:cad>
          </ns3:TrackPointExtension>
        </extensions>
      </trkpt>
      <trkpt lat="43.45309051685035228729248046875" lon="1.4548368752002716064453125">
        <ele>187.8000030517578125</ele>
        <time>2026-08-05T06:49:45.000Z</time>
        <extensions>
          <ns3:TrackPointExtension>
            <ns3:hr>86</ns3:hr>
            <ns3:cad>43</ns3:cad>
          </ns3:TrackPointExtension>
        </extensions>
      </trkpt>
      <trkpt lat="43.4530904330313205718994140625" lon="1.45484752021729946136474609375">
        <ele>187.8000030517578125</ele>
        <time>2026-08-05T06:49:46.000Z</time>
        <extensions>
          <ns3:TrackPointExtension>
            <ns3:hr>86</ns3:hr>
            <ns3:cad>43</ns3:cad>
          </ns3:TrackPointExtension>
        </extensions>
      </trkpt>
      <trkpt lat="43.45308951102197170257568359375" lon="1.45485640503466129302978515625">
        <ele>187.8000030517578125</ele>
        <time>2026-08-05T06:49:47.000Z</time>
        <extensions>
          <ns3:TrackPointExtension>
            <ns3:hr>85</ns3:hr>
            <ns3:cad>44</ns3:cad>
          </ns3:TrackPointExtension>
        </extensions>
      </trkpt>
      <trkpt lat="43.453088589012622833251953125" lon="1.45486864261329174041748046875">
        <ele>187.8000030517578125</ele>
        <time>2026-08-05T06:49:48.000Z</time>
        <extensions>
          <ns3:TrackPointExtension>
            <ns3:hr>85</ns3:hr>
            <ns3:cad>44</ns3:cad>
          </ns3:TrackPointExtension>
        </extensions>
      </trkpt>
      <trkpt lat="43.45308716408908367156982421875" lon="1.45488775335252285003662109375">
        <ele>187.8000030517578125</ele>
        <time>2026-08-05T06:49:49.000Z</time>
        <extensions>
          <ns3:TrackPointExtension>
            <ns3:hr>85</ns3:hr>
            <ns3:cad>44</ns3:cad>
          </ns3:TrackPointExtension>
        </extensions>
      </trkpt>
      <trkpt lat="43.45308565534651279449462890625" lon="1.454903595149517059326171875">
        <ele>187.8000030517578125</ele>
        <time>2026-08-05T06:49:50.000Z</time>
        <extensions>
          <ns3:TrackPointExtension>
            <ns3:hr>84</ns3:hr>
            <ns3:cad>44</ns3:cad>
          </ns3:TrackPointExtension>
        </extensions>
      </trkpt>
      <trkpt lat="43.45308632589876651763916015625" lon="1.4549168385565280914306640625">
        <ele>187.8000030517578125</ele>
        <time>2026-08-05T06:49:51.000Z</time>
        <extensions>
          <ns3:TrackPointExtension>
            <ns3:hr>84</ns3:hr>
            <ns3:cad>44</ns3:cad>
          </ns3:TrackPointExtension>
        </extensions>
      </trkpt>
      <trkpt lat="43.45308515243232250213623046875" lon="1.45492899231612682342529296875">
        <ele>188</ele>
        <time>2026-08-05T06:49:52.000Z</time>
        <extensions>
          <ns3:TrackPointExtension>
            <ns3:hr>83</ns3:hr>
            <ns3:cad>44</ns3:cad>
          </ns3:TrackPointExtension>
        </extensions>
      </trkpt>
      <trkpt lat="43.45308498479425907135009765625" lon="1.454945169389247894287109375">
        <ele>188</ele>
        <time>2026-08-05T06:49:53.000Z</time>
        <extensions>
          <ns3:TrackPointExtension>
            <ns3:hr>82</ns3:hr>
            <ns3:cad>45</ns3:cad>
          </ns3:TrackPointExtension>
        </extensions>
      </trkpt>
      <trkpt lat="43.45308666117489337921142578125" lon="1.454954557120800018310546875">
        <ele>188</ele>
        <time>2026-08-05T06:49:54.000Z</time>
        <extensions>
          <ns3:TrackPointExtension>
            <ns3:hr>81</ns3:hr>
            <ns3:cad>45</ns3:cad>
          </ns3:TrackPointExtension>
        </extensions>
      </trkpt>
      <trkpt lat="43.45308783464133739471435546875" lon="1.45496101118624210357666015625">
        <ele>188</ele>
        <time>2026-08-05T06:49:55.000Z</time>
        <extensions>
          <ns3:TrackPointExtension>
            <ns3:hr>81</ns3:hr>
            <ns3:cad>45</ns3:cad>
          </ns3:TrackPointExtension>
        </extensions>
      </trkpt>
      <trkpt lat="43.4530842304229736328125" lon="1.45498012192547321319580078125">
        <ele>188</ele>
        <time>2026-08-05T06:49:56.000Z</time>
        <extensions>
          <ns3:TrackPointExtension>
            <ns3:hr>81</ns3:hr>
            <ns3:cad>44</ns3:cad>
          </ns3:TrackPointExtension>
        </extensions>
      </trkpt>
      <trkpt lat="43.4530847333371639251708984375" lon="1.45499269478023052215576171875">
        <ele>188</ele>
        <time>2026-08-05T06:49:57.000Z</time>
        <extensions>
          <ns3:TrackPointExtension>
            <ns3:hr>80</ns3:hr>
            <ns3:cad>44</ns3:cad>
          </ns3:TrackPointExtension>
        </extensions>
      </trkpt>
      <trkpt lat="43.4530830569565296173095703125" lon="1.4550083689391613006591796875">
        <ele>188.1999969482421875</ele>
        <time>2026-08-05T06:49:58.000Z</time>
        <extensions>
          <ns3:TrackPointExtension>
            <ns3:hr>81</ns3:hr>
            <ns3:cad>44</ns3:cad>
          </ns3:TrackPointExtension>
        </extensions>
      </trkpt>
      <trkpt lat="43.4530810452997684478759765625" lon="1.45501700229942798614501953125">
        <ele>188.1999969482421875</ele>
        <time>2026-08-05T06:49:59.000Z</time>
        <extensions>
          <ns3:TrackPointExtension>
            <ns3:hr>82</ns3:hr>
            <ns3:cad>44</ns3:cad>
          </ns3:TrackPointExtension>
        </extensions>
      </trkpt>
      <trkpt lat="43.45308045856654644012451171875" lon="1.4550380408763885498046875">
        <ele>188.1999969482421875</ele>
        <time>2026-08-05T06:50:00.000Z</time>
        <extensions>
          <ns3:TrackPointExtension>
            <ns3:hr>82</ns3:hr>
            <ns3:cad>43</ns3:cad>
          </ns3:TrackPointExtension>
        </extensions>
      </trkpt>
      <trkpt lat="43.45308221876621246337890625" lon="1.45505438558757305145263671875">
        <ele>188.1999969482421875</ele>
        <time>2026-08-05T06:50:01.000Z</time>
        <extensions>
          <ns3:TrackPointExtension>
            <ns3:hr>83</ns3:hr>
            <ns3:cad>43</ns3:cad>
          </ns3:TrackPointExtension>
        </extensions>
      </trkpt>
      <trkpt lat="43.4530803747475147247314453125" lon="1.45506746135652065277099609375">
        <ele>188.1999969482421875</ele>
        <time>2026-08-05T06:50:02.000Z</time>
        <extensions>
          <ns3:TrackPointExtension>
            <ns3:hr>83</ns3:hr>
            <ns3:cad>43</ns3:cad>
          </ns3:TrackPointExtension>
        </extensions>
      </trkpt>
      <trkpt lat="43.4530803747475147247314453125" lon="1.4550791122019290924072265625">
        <ele>188.1999969482421875</ele>
        <time>2026-08-05T06:50:03.000Z</time>
        <extensions>
          <ns3:TrackPointExtension>
            <ns3:hr>84</ns3:hr>
            <ns3:cad>43</ns3:cad>
          </ns3:TrackPointExtension>
        </extensions>
      </trkpt>
      <trkpt lat="43.45307542942464351654052734375" lon="1.4550985582172870635986328125">
        <ele>188.1999969482421875</ele>
        <time>2026-08-05T06:50:04.000Z</time>
        <extensions>
          <ns3:TrackPointExtension>
            <ns3:hr>84</ns3:hr>
            <ns3:cad>43</ns3:cad>
          </ns3:TrackPointExtension>
        </extensions>
      </trkpt>
      <trkpt lat="43.45306922681629657745361328125" lon="1.4551153220236301422119140625">
        <ele>188.1999969482421875</ele>
        <time>2026-08-05T06:50:05.000Z</time>
        <extensions>
          <ns3:TrackPointExtension>
            <ns3:hr>84</ns3:hr>
            <ns3:cad>43</ns3:cad>
          </ns3:TrackPointExtension>
        </extensions>
      </trkpt>
      <trkpt lat="43.45306738279759883880615234375" lon="1.4551283977925777435302734375">
        <ele>188.1999969482421875</ele>
        <time>2026-08-05T06:50:06.000Z</time>
        <extensions>
          <ns3:TrackPointExtension>
            <ns3:hr>85</ns3:hr>
            <ns3:cad>43</ns3:cad>
          </ns3:TrackPointExtension>
        </extensions>
      </trkpt>
      <trkpt lat="43.4530592523515224456787109375" lon="1.45513535477221012115478515625">
        <ele>188.1999969482421875</ele>
        <time>2026-08-05T06:50:07.000Z</time>
        <extensions>
          <ns3:TrackPointExtension>
            <ns3:hr>85</ns3:hr>
            <ns3:cad>43</ns3:cad>
          </ns3:TrackPointExtension>
        </extensions>
      </trkpt>
      <trkpt lat="43.453049361705780029296875" lon="1.455152034759521484375">
        <ele>188.1999969482421875</ele>
        <time>2026-08-05T06:50:08.000Z</time>
        <extensions>
          <ns3:TrackPointExtension>
            <ns3:hr>86</ns3:hr>
            <ns3:cad>46</ns3:cad>
          </ns3:TrackPointExtension>
        </extensions>
      </trkpt>
      <trkpt lat="43.4530458413064479827880859375" lon="1.45516284741461277008056640625">
        <ele>188.1999969482421875</ele>
        <time>2026-08-05T06:50:09.000Z</time>
        <extensions>
          <ns3:TrackPointExtension>
            <ns3:hr>86</ns3:hr>
            <ns3:cad>46</ns3:cad>
          </ns3:TrackPointExtension>
        </extensions>
      </trkpt>
      <trkpt lat="43.45304542221128940582275390625" lon="1.45517156459391117095947265625">
        <ele>188.1999969482421875</ele>
        <time>2026-08-05T06:50:10.000Z</time>
        <extensions>
          <ns3:TrackPointExtension>
            <ns3:hr>86</ns3:hr>
            <ns3:cad>46</ns3:cad>
          </ns3:TrackPointExtension>
        </extensions>
      </trkpt>
      <trkpt lat="43.45304424874484539031982421875" lon="1.45518531091511249542236328125">
        <ele>188.399993896484375</ele>
        <time>2026-08-05T06:50:11.000Z</time>
        <extensions>
          <ns3:TrackPointExtension>
            <ns3:hr>86</ns3:hr>
            <ns3:cad>46</ns3:cad>
          </ns3:TrackPointExtension>
        </extensions>
      </trkpt>
      <trkpt lat="43.45304374583065509796142578125" lon="1.45520207472145557403564453125">
        <ele>188.399993896484375</ele>
        <time>2026-08-05T06:50:12.000Z</time>
        <extensions>
          <ns3:TrackPointExtension>
            <ns3:hr>86</ns3:hr>
            <ns3:cad>46</ns3:cad>
          </ns3:TrackPointExtension>
        </extensions>
      </trkpt>
      <trkpt lat="43.453044332563877105712890625" lon="1.45521028898656368255615234375">
        <ele>188.399993896484375</ele>
        <time>2026-08-05T06:50:13.000Z</time>
        <extensions>
          <ns3:TrackPointExtension>
            <ns3:hr>86</ns3:hr>
            <ns3:cad>46</ns3:cad>
          </ns3:TrackPointExtension>
        </extensions>
      </trkpt>
      <trkpt lat="43.45304391346871852874755859375" lon="1.45521833561360836029052734375">
        <ele>188.399993896484375</ele>
        <time>2026-08-05T06:50:14.000Z</time>
        <extensions>
          <ns3:TrackPointExtension>
            <ns3:hr>86</ns3:hr>
            <ns3:cad>43</ns3:cad>
          </ns3:TrackPointExtension>
        </extensions>
      </trkpt>
      <trkpt lat="43.4530426561832427978515625" lon="1.45524230785667896270751953125">
        <ele>188.399993896484375</ele>
        <time>2026-08-05T06:50:15.000Z</time>
        <extensions>
          <ns3:TrackPointExtension>
            <ns3:hr>86</ns3:hr>
            <ns3:cad>79</ns3:cad>
          </ns3:TrackPointExtension>
        </extensions>
      </trkpt>
      <trkpt lat="43.453043662011623382568359375" lon="1.45525605417788028717041015625">
        <ele>188.399993896484375</ele>
        <time>2026-08-05T06:50:16.000Z</time>
        <extensions>
          <ns3:TrackPointExtension>
            <ns3:hr>86</ns3:hr>
            <ns3:cad>79</ns3:cad>
          </ns3:TrackPointExtension>
        </extensions>
      </trkpt>
      <trkpt lat="43.4530391357839107513427734375" lon="1.45526829175651073455810546875">
        <ele>188.399993896484375</ele>
        <time>2026-08-05T06:50:17.000Z</time>
        <extensions>
          <ns3:TrackPointExtension>
            <ns3:hr>86</ns3:hr>
            <ns3:cad>79</ns3:cad>
          </ns3:TrackPointExtension>
        </extensions>
      </trkpt>
      <trkpt lat="43.45303419046103954315185546875" lon="1.455277763307094573974609375">
        <ele>188.399993896484375</ele>
        <time>2026-08-05T06:50:18.000Z</time>
        <extensions>
          <ns3:TrackPointExtension>
            <ns3:hr>86</ns3:hr>
            <ns3:cad>44</ns3:cad>
          </ns3:TrackPointExtension>
        </extensions>
      </trkpt>
      <trkpt lat="43.4530284069478511810302734375" lon="1.4552943594753742218017578125">
        <ele>188.399993896484375</ele>
        <time>2026-08-05T06:50:19.000Z</time>
        <extensions>
          <ns3:TrackPointExtension>
            <ns3:hr>86</ns3:hr>
            <ns3:cad>44</ns3:cad>
          </ns3:TrackPointExtension>
        </extensions>
      </trkpt>
      <trkpt lat="43.45302362926304340362548828125" lon="1.45530223846435546875">
        <ele>188.600006103515625</ele>
        <time>2026-08-05T06:50:20.000Z</time>
        <extensions>
          <ns3:TrackPointExtension>
            <ns3:hr>86</ns3:hr>
            <ns3:cad>44</ns3:cad>
          </ns3:TrackPointExtension>
        </extensions>
      </trkpt>
      <trkpt lat="43.45302061177790164947509765625" lon="1.45530886016786098480224609375">
        <ele>188.600006103515625</ele>
        <time>2026-08-05T06:50:21.000Z</time>
        <extensions>
          <ns3:TrackPointExtension>
            <ns3:hr>85</ns3:hr>
            <ns3:cad>44</ns3:cad>
          </ns3:TrackPointExtension>
        </extensions>
      </trkpt>
      <trkpt lat="43.45301625318825244903564453125" lon="1.45532696507871150970458984375">
        <ele>188.600006103515625</ele>
        <time>2026-08-05T06:50:22.000Z</time>
        <extensions>
          <ns3:TrackPointExtension>
            <ns3:hr>86</ns3:hr>
            <ns3:cad>45</ns3:cad>
          </ns3:TrackPointExtension>
        </extensions>
      </trkpt>
      <trkpt lat="43.45301105640828609466552734375" lon="1.45534020848572254180908203125">
        <ele>188.600006103515625</ele>
        <time>2026-08-05T06:50:23.000Z</time>
        <extensions>
          <ns3:TrackPointExtension>
            <ns3:hr>85</ns3:hr>
            <ns3:cad>46</ns3:cad>
          </ns3:TrackPointExtension>
        </extensions>
      </trkpt>
      <trkpt lat="43.45300636254251003265380859375" lon="1.4553480036556720733642578125">
        <ele>188.600006103515625</ele>
        <time>2026-08-05T06:50:24.000Z</time>
        <extensions>
          <ns3:TrackPointExtension>
            <ns3:hr>85</ns3:hr>
            <ns3:cad>46</ns3:cad>
          </ns3:TrackPointExtension>
        </extensions>
      </trkpt>
      <trkpt lat="43.453008122742176055908203125" lon="1.45535881631076335906982421875">
        <ele>188.600006103515625</ele>
        <time>2026-08-05T06:50:25.000Z</time>
        <extensions>
          <ns3:TrackPointExtension>
            <ns3:hr>85</ns3:hr>
            <ns3:cad>43</ns3:cad>
          </ns3:TrackPointExtension>
        </extensions>
      </trkpt>
      <trkpt lat="43.45300669781863689422607421875" lon="1.45538077689707279205322265625">
        <ele>188.600006103515625</ele>
        <time>2026-08-05T06:50:26.000Z</time>
        <extensions>
          <ns3:TrackPointExtension>
            <ns3:hr>85</ns3:hr>
            <ns3:cad>43</ns3:cad>
          </ns3:TrackPointExtension>
        </extensions>
      </trkpt>
      <trkpt lat="43.4530042670667171478271484375" lon="1.45539938472211360931396484375">
        <ele>188.600006103515625</ele>
        <time>2026-08-05T06:50:27.000Z</time>
        <extensions>
          <ns3:TrackPointExtension>
            <ns3:hr>84</ns3:hr>
            <ns3:cad>43</ns3:cad>
          </ns3:TrackPointExtension>
        </extensions>
      </trkpt>
      <trkpt lat="43.452998064458370208740234375" lon="1.455403827130794525146484375">
        <ele>188.600006103515625</ele>
        <time>2026-08-05T06:50:28.000Z</time>
        <extensions>
          <ns3:TrackPointExtension>
            <ns3:hr>84</ns3:hr>
            <ns3:cad>43</ns3:cad>
          </ns3:TrackPointExtension>
        </extensions>
      </trkpt>
      <trkpt lat="43.4529928676784038543701171875" lon="1.45541229285299777984619140625">
        <ele>188.600006103515625</ele>
        <time>2026-08-05T06:50:29.000Z</time>
        <extensions>
          <ns3:TrackPointExtension>
            <ns3:hr>84</ns3:hr>
            <ns3:cad>43</ns3:cad>
          </ns3:TrackPointExtension>
        </extensions>
      </trkpt>
      <trkpt lat="43.4529891796410083770751953125" lon="1.45542905665934085845947265625">
        <ele>188.600006103515625</ele>
        <time>2026-08-05T06:50:30.000Z</time>
        <extensions>
          <ns3:TrackPointExtension>
            <ns3:hr>84</ns3:hr>
            <ns3:cad>43</ns3:cad>
          </ns3:TrackPointExtension>
        </extensions>
      </trkpt>
      <trkpt lat="43.45298758707940578460693359375" lon="1.45543727092444896697998046875">
        <ele>188.8000030517578125</ele>
        <time>2026-08-05T06:50:31.000Z</time>
        <extensions>
          <ns3:TrackPointExtension>
            <ns3:hr>85</ns3:hr>
            <ns3:cad>43</ns3:cad>
          </ns3:TrackPointExtension>
        </extensions>
      </trkpt>
      <trkpt lat="43.45298834145069122314453125" lon="1.4554465748369693756103515625">
        <ele>188.8000030517578125</ele>
        <time>2026-08-05T06:50:32.000Z</time>
        <extensions>
          <ns3:TrackPointExtension>
            <ns3:hr>84</ns3:hr>
            <ns3:cad>44</ns3:cad>
          </ns3:TrackPointExtension>
        </extensions>
      </trkpt>
      <trkpt lat="43.45298725180327892303466796875" lon="1.45546308718621730804443359375">
        <ele>188.8000030517578125</ele>
        <time>2026-08-05T06:50:33.000Z</time>
        <extensions>
          <ns3:TrackPointExtension>
            <ns3:hr>85</ns3:hr>
            <ns3:cad>44</ns3:cad>
          </ns3:TrackPointExtension>
        </extensions>
      </trkpt>
      <trkpt lat="43.4529834799468517303466796875" lon="1.45548127591609954833984375">
        <ele>188.8000030517578125</ele>
        <time>2026-08-05T06:50:34.000Z</time>
        <extensions>
          <ns3:TrackPointExtension>
            <ns3:hr>85</ns3:hr>
            <ns3:cad>46</ns3:cad>
          </ns3:TrackPointExtension>
        </extensions>
      </trkpt>
      <trkpt lat="43.45298624597489833831787109375" lon="1.45549158565700054168701171875">
        <ele>188.8000030517578125</ele>
        <time>2026-08-05T06:50:35.000Z</time>
        <extensions>
          <ns3:TrackPointExtension>
            <ns3:hr>85</ns3:hr>
            <ns3:cad>46</ns3:cad>
          </ns3:TrackPointExtension>
        </extensions>
      </trkpt>
      <trkpt lat="43.45298658125102519989013671875" lon="1.45549862645566463470458984375">
        <ele>189</ele>
        <time>2026-08-05T06:50:36.000Z</time>
        <extensions>
          <ns3:TrackPointExtension>
            <ns3:hr>84</ns3:hr>
            <ns3:cad>46</ns3:cad>
          </ns3:TrackPointExtension>
        </extensions>
      </trkpt>
      <trkpt lat="43.45298607833683490753173828125" lon="1.4555156417191028594970703125">
        <ele>189</ele>
        <time>2026-08-05T06:50:37.000Z</time>
        <extensions>
          <ns3:TrackPointExtension>
            <ns3:hr>85</ns3:hr>
            <ns3:cad>46</ns3:cad>
          </ns3:TrackPointExtension>
        </extensions>
      </trkpt>
      <trkpt lat="43.45298440195620059967041015625" lon="1.45553450100123882293701171875">
        <ele>189</ele>
        <time>2026-08-05T06:50:38.000Z</time>
        <extensions>
          <ns3:TrackPointExtension>
            <ns3:hr>85</ns3:hr>
            <ns3:cad>41</ns3:cad>
          </ns3:TrackPointExtension>
        </extensions>
      </trkpt>
      <trkpt lat="43.4529858268797397613525390625" lon="1.45554489456117153167724609375">
        <ele>189</ele>
        <time>2026-08-05T06:50:39.000Z</time>
        <extensions>
          <ns3:TrackPointExtension>
            <ns3:hr>85</ns3:hr>
            <ns3:cad>41</ns3:cad>
          </ns3:TrackPointExtension>
        </extensions>
      </trkpt>
      <trkpt lat="43.452987335622310638427734375" lon="1.45556232891976833343505859375">
        <ele>189</ele>
        <time>2026-08-05T06:50:40.000Z</time>
        <extensions>
          <ns3:TrackPointExtension>
            <ns3:hr>84</ns3:hr>
            <ns3:cad>41</ns3:cad>
          </ns3:TrackPointExtension>
        </extensions>
      </trkpt>
      <trkpt lat="43.45298968255519866943359375" lon="1.45557188428938388824462890625">
        <ele>189</ele>
        <time>2026-08-05T06:50:41.000Z</time>
        <extensions>
          <ns3:TrackPointExtension>
            <ns3:hr>85</ns3:hr>
            <ns3:cad>41</ns3:cad>
          </ns3:TrackPointExtension>
        </extensions>
      </trkpt>
      <trkpt lat="43.45299311913549900054931640625" lon="1.4555771648883819580078125">
        <ele>189.1999969482421875</ele>
        <time>2026-08-05T06:50:42.000Z</time>
        <extensions>
          <ns3:TrackPointExtension>
            <ns3:hr>85</ns3:hr>
            <ns3:cad>41</ns3:cad>
          </ns3:TrackPointExtension>
        </extensions>
      </trkpt>
      <trkpt lat="43.45299429260194301605224609375" lon="1.45559702999889850616455078125">
        <ele>189.1999969482421875</ele>
        <time>2026-08-05T06:50:43.000Z</time>
        <extensions>
          <ns3:TrackPointExtension>
            <ns3:hr>85</ns3:hr>
            <ns3:cad>41</ns3:cad>
          </ns3:TrackPointExtension>
        </extensions>
      </trkpt>
      <trkpt lat="43.45299580134451389312744140625" lon="1.4556078426539897918701171875">
        <ele>189.1999969482421875</ele>
        <time>2026-08-05T06:50:44.000Z</time>
        <extensions>
          <ns3:TrackPointExtension>
            <ns3:hr>85</ns3:hr>
            <ns3:cad>41</ns3:cad>
          </ns3:TrackPointExtension>
        </extensions>
      </trkpt>
      <trkpt lat="43.45300015993416309356689453125" lon="1.45561915822327136993408203125">
        <ele>189.399993896484375</ele>
        <time>2026-08-05T06:50:45.000Z</time>
        <extensions>
          <ns3:TrackPointExtension>
            <ns3:hr>85</ns3:hr>
            <ns3:cad>41</ns3:cad>
          </ns3:TrackPointExtension>
        </extensions>
      </trkpt>
      <trkpt lat="43.45300284214317798614501953125" lon="1.4556363411247730255126953125">
        <ele>189.399993896484375</ele>
        <time>2026-08-05T06:50:46.000Z</time>
        <extensions>
          <ns3:TrackPointExtension>
            <ns3:hr>85</ns3:hr>
            <ns3:cad>41</ns3:cad>
          </ns3:TrackPointExtension>
        </extensions>
      </trkpt>
      <trkpt lat="43.4530077874660491943359375" lon="1.45564950071275234222412109375">
        <ele>189.600006103515625</ele>
        <time>2026-08-05T06:50:47.000Z</time>
        <extensions>
          <ns3:TrackPointExtension>
            <ns3:hr>85</ns3:hr>
            <ns3:cad>41</ns3:cad>
          </ns3:TrackPointExtension>
        </extensions>
      </trkpt>
      <trkpt lat="43.45301323570311069488525390625" lon="1.45566006191074848175048828125">
        <ele>189.600006103515625</ele>
        <time>2026-08-05T06:50:48.000Z</time>
        <extensions>
          <ns3:TrackPointExtension>
            <ns3:hr>85</ns3:hr>
            <ns3:cad>40</ns3:cad>
          </ns3:TrackPointExtension>
        </extensions>
      </trkpt>
      <trkpt lat="43.45301457680761814117431640625" lon="1.455670706927776336669921875">
        <ele>189.600006103515625</ele>
        <time>2026-08-05T06:50:49.000Z</time>
        <extensions>
          <ns3:TrackPointExtension>
            <ns3:hr>86</ns3:hr>
            <ns3:cad>40</ns3:cad>
          </ns3:TrackPointExtension>
        </extensions>
      </trkpt>
      <trkpt lat="43.45301792956888675689697265625" lon="1.455688811838626861572265625">
        <ele>189.8000030517578125</ele>
        <time>2026-08-05T06:50:50.000Z</time>
        <extensions>
          <ns3:TrackPointExtension>
            <ns3:hr>86</ns3:hr>
            <ns3:cad>41</ns3:cad>
          </ns3:TrackPointExtension>
        </extensions>
      </trkpt>
      <trkpt lat="43.4530198574066162109375" lon="1.45570331253111362457275390625">
        <ele>189.8000030517578125</ele>
        <time>2026-08-05T06:50:51.000Z</time>
        <extensions>
          <ns3:TrackPointExtension>
            <ns3:hr>86</ns3:hr>
            <ns3:cad>41</ns3:cad>
          </ns3:TrackPointExtension>
        </extensions>
      </trkpt>
      <trkpt lat="43.45301927067339420318603515625" lon="1.4557112753391265869140625">
        <ele>190</ele>
        <time>2026-08-05T06:50:52.000Z</time>
        <extensions>
          <ns3:TrackPointExtension>
            <ns3:hr>86</ns3:hr>
            <ns3:cad>41</ns3:cad>
          </ns3:TrackPointExtension>
        </extensions>
      </trkpt>
      <trkpt lat="43.4530186839401721954345703125" lon="1.455733738839626312255859375">
        <ele>190</ele>
        <time>2026-08-05T06:50:53.000Z</time>
        <extensions>
          <ns3:TrackPointExtension>
            <ns3:hr>86</ns3:hr>
            <ns3:cad>41</ns3:cad>
          </ns3:TrackPointExtension>
        </extensions>
      </trkpt>
      <trkpt lat="43.4530163370072841644287109375" lon="1.455745138227939605712890625">
        <ele>190.1999969482421875</ele>
        <time>2026-08-05T06:50:54.000Z</time>
        <extensions>
          <ns3:TrackPointExtension>
            <ns3:hr>86</ns3:hr>
            <ns3:cad>41</ns3:cad>
          </ns3:TrackPointExtension>
        </extensions>
      </trkpt>
      <trkpt lat="43.45301340334117412567138671875" lon="1.45575310103595256805419921875">
        <ele>190.1999969482421875</ele>
        <time>2026-08-05T06:50:55.000Z</time>
        <extensions>
          <ns3:TrackPointExtension>
            <ns3:hr>86</ns3:hr>
            <ns3:cad>43</ns3:cad>
          </ns3:TrackPointExtension>
        </extensions>
      </trkpt>
      <trkpt lat="43.45301206223666667938232421875" lon="1.4557657577097415924072265625">
        <ele>190.1999969482421875</ele>
        <time>2026-08-05T06:50:56.000Z</time>
        <extensions>
          <ns3:TrackPointExtension>
            <ns3:hr>86</ns3:hr>
            <ns3:cad>43</ns3:cad>
          </ns3:TrackPointExtension>
        </extensions>
      </trkpt>
      <trkpt lat="43.45301172696053981781005859375" lon="1.45577774383127689361572265625">
        <ele>190.399993896484375</ele>
        <time>2026-08-05T06:50:57.000Z</time>
        <extensions>
          <ns3:TrackPointExtension>
            <ns3:hr>86</ns3:hr>
            <ns3:cad>41</ns3:cad>
          </ns3:TrackPointExtension>
        </extensions>
      </trkpt>
      <trkpt lat="43.4530160017311573028564453125" lon="1.4557895623147487640380859375">
        <ele>190.399993896484375</ele>
        <time>2026-08-05T06:50:58.000Z</time>
        <extensions>
          <ns3:TrackPointExtension>
            <ns3:hr>86</ns3:hr>
            <ns3:cad>41</ns3:cad>
          </ns3:TrackPointExtension>
        </extensions>
      </trkpt>
      <trkpt lat="43.453014828264713287353515625" lon="1.45580171607434749603271484375">
        <ele>190.600006103515625</ele>
        <time>2026-08-05T06:50:59.000Z</time>
        <extensions>
          <ns3:TrackPointExtension>
            <ns3:hr>87</ns3:hr>
            <ns3:cad>41</ns3:cad>
          </ns3:TrackPointExtension>
        </extensions>
      </trkpt>
      <trkpt lat="43.45301206223666667938232421875" lon="1.45581210963428020477294921875">
        <ele>190.600006103515625</ele>
        <time>2026-08-05T06:51:00.000Z</time>
        <extensions>
          <ns3:TrackPointExtension>
            <ns3:hr>87</ns3:hr>
            <ns3:cad>41</ns3:cad>
          </ns3:TrackPointExtension>
        </extensions>
      </trkpt>
      <trkpt lat="43.45300845801830291748046875" lon="1.45582417957484722137451171875">
        <ele>190.600006103515625</ele>
        <time>2026-08-05T06:51:01.000Z</time>
        <extensions>
          <ns3:TrackPointExtension>
            <ns3:hr>87</ns3:hr>
            <ns3:cad>43</ns3:cad>
          </ns3:TrackPointExtension>
        </extensions>
      </trkpt>
      <trkpt lat="43.45300552435219287872314453125" lon="1.455835998058319091796875">
        <ele>190.600006103515625</ele>
        <time>2026-08-05T06:51:02.000Z</time>
        <extensions>
          <ns3:TrackPointExtension>
            <ns3:hr>87</ns3:hr>
            <ns3:cad>43</ns3:cad>
          </ns3:TrackPointExtension>
        </extensions>
      </trkpt>
      <trkpt lat="43.4530024230480194091796875" lon="1.4558455534279346466064453125">
        <ele>190.8000030517578125</ele>
        <time>2026-08-05T06:51:03.000Z</time>
        <extensions>
          <ns3:TrackPointExtension>
            <ns3:hr>88</ns3:hr>
            <ns3:cad>44</ns3:cad>
          </ns3:TrackPointExtension>
        </extensions>
      </trkpt>
      <trkpt lat="43.452998735010623931884765625" lon="1.45585921593010425567626953125">
        <ele>190.8000030517578125</ele>
        <time>2026-08-05T06:51:04.000Z</time>
        <extensions>
          <ns3:TrackPointExtension>
            <ns3:hr>88</ns3:hr>
            <ns3:cad>44</ns3:cad>
          </ns3:TrackPointExtension>
        </extensions>
      </trkpt>
      <trkpt lat="43.452994711697101593017578125" lon="1.4558730460703372955322265625">
        <ele>190.8000030517578125</ele>
        <time>2026-08-05T06:51:05.000Z</time>
        <extensions>
          <ns3:TrackPointExtension>
            <ns3:hr>88</ns3:hr>
            <ns3:cad>44</ns3:cad>
          </ns3:TrackPointExtension>
        </extensions>
      </trkpt>
      <trkpt lat="43.4529888443648815155029296875" lon="1.45588872022926807403564453125">
        <ele>190.600006103515625</ele>
        <time>2026-08-05T06:51:06.000Z</time>
        <extensions>
          <ns3:TrackPointExtension>
            <ns3:hr>89</ns3:hr>
            <ns3:cad>43</ns3:cad>
          </ns3:TrackPointExtension>
        </extensions>
      </trkpt>
      <trkpt lat="43.45298607833683490753173828125" lon="1.4558998681604862213134765625">
        <ele>190.8000030517578125</ele>
        <time>2026-08-05T06:51:07.000Z</time>
        <extensions>
          <ns3:TrackPointExtension>
            <ns3:hr>88</ns3:hr>
            <ns3:cad>43</ns3:cad>
          </ns3:TrackPointExtension>
        </extensions>
      </trkpt>
      <trkpt lat="43.45297987572848796844482421875" lon="1.45591537468135356903076171875">
        <ele>190.600006103515625</ele>
        <time>2026-08-05T06:51:08.000Z</time>
        <extensions>
          <ns3:TrackPointExtension>
            <ns3:hr>88</ns3:hr>
            <ns3:cad>45</ns3:cad>
          </ns3:TrackPointExtension>
        </extensions>
      </trkpt>
      <trkpt lat="43.45297702588140964508056640625" lon="1.455927528440952301025390625">
        <ele>190.600006103515625</ele>
        <time>2026-08-05T06:51:09.000Z</time>
        <extensions>
          <ns3:TrackPointExtension>
            <ns3:hr>88</ns3:hr>
            <ns3:cad>45</ns3:cad>
          </ns3:TrackPointExtension>
        </extensions>
      </trkpt>
      <trkpt lat="43.452971242368221282958984375" lon="1.4559404365718364715576171875">
        <ele>190.600006103515625</ele>
        <time>2026-08-05T06:51:10.000Z</time>
        <extensions>
          <ns3:TrackPointExtension>
            <ns3:hr>88</ns3:hr>
            <ns3:cad>45</ns3:cad>
          </ns3:TrackPointExtension>
        </extensions>
      </trkpt>
      <trkpt lat="43.452968895435333251953125" lon="1.45595259033143520355224609375">
        <ele>190.600006103515625</ele>
        <time>2026-08-05T06:51:11.000Z</time>
        <extensions>
          <ns3:TrackPointExtension>
            <ns3:hr>87</ns3:hr>
            <ns3:cad>46</ns3:cad>
          </ns3:TrackPointExtension>
        </extensions>
      </trkpt>
      <trkpt lat="43.45296579413115978240966796875" lon="1.45597052760422229766845703125">
        <ele>190.600006103515625</ele>
        <time>2026-08-05T06:51:12.000Z</time>
        <extensions>
          <ns3:TrackPointExtension>
            <ns3:hr>86</ns3:hr>
            <ns3:cad>46</ns3:cad>
          </ns3:TrackPointExtension>
        </extensions>
      </trkpt>
      <trkpt lat="43.452963866293430328369140625" lon="1.45598695613443851470947265625">
        <ele>190.600006103515625</ele>
        <time>2026-08-05T06:51:13.000Z</time>
        <extensions>
          <ns3:TrackPointExtension>
            <ns3:hr>86</ns3:hr>
            <ns3:cad>46</ns3:cad>
          </ns3:TrackPointExtension>
        </extensions>
      </trkpt>
      <trkpt lat="43.4529633633792400360107421875" lon="1.4559994451701641082763671875">
        <ele>190.8000030517578125</ele>
        <time>2026-08-05T06:51:14.000Z</time>
        <extensions>
          <ns3:TrackPointExtension>
            <ns3:hr>86</ns3:hr>
            <ns3:cad>46</ns3:cad>
          </ns3:TrackPointExtension>
        </extensions>
      </trkpt>
      <trkpt lat="43.4529590047895908355712890625" lon="1.45601025782525539398193359375">
        <ele>190.8000030517578125</ele>
        <time>2026-08-05T06:51:15.000Z</time>
        <extensions>
          <ns3:TrackPointExtension>
            <ns3:hr>86</ns3:hr>
            <ns3:cad>46</ns3:cad>
          </ns3:TrackPointExtension>
        </extensions>
      </trkpt>
      <trkpt lat="43.452956490218639373779296875" lon="1.45602350123226642608642578125">
        <ele>190.8000030517578125</ele>
        <time>2026-08-05T06:51:16.000Z</time>
        <extensions>
          <ns3:TrackPointExtension>
            <ns3:hr>86</ns3:hr>
            <ns3:cad>44</ns3:cad>
          </ns3:TrackPointExtension>
        </extensions>
      </trkpt>
      <trkpt lat="43.45295674167573451995849609375" lon="1.45603154785931110382080078125">
        <ele>190.8000030517578125</ele>
        <time>2026-08-05T06:51:17.000Z</time>
        <extensions>
          <ns3:TrackPointExtension>
            <ns3:hr>87</ns3:hr>
            <ns3:cad>44</ns3:cad>
          </ns3:TrackPointExtension>
        </extensions>
      </trkpt>
      <trkpt lat="43.452953137457370758056640625" lon="1.45604185760021209716796875">
        <ele>190.8000030517578125</ele>
        <time>2026-08-05T06:51:18.000Z</time>
        <extensions>
          <ns3:TrackPointExtension>
            <ns3:hr>87</ns3:hr>
            <ns3:cad>44</ns3:cad>
          </ns3:TrackPointExtension>
        </extensions>
      </trkpt>
      <trkpt lat="43.45295104198157787322998046875" lon="1.456054933369159698486328125">
        <ele>190.8000030517578125</ele>
        <time>2026-08-05T06:51:19.000Z</time>
        <extensions>
          <ns3:TrackPointExtension>
            <ns3:hr>87</ns3:hr>
            <ns3:cad>44</ns3:cad>
          </ns3:TrackPointExtension>
        </extensions>
      </trkpt>
      <trkpt lat="43.45295171253383159637451171875" lon="1.45607077516615390777587890625">
        <ele>190.8000030517578125</ele>
        <time>2026-08-05T06:51:20.000Z</time>
        <extensions>
          <ns3:TrackPointExtension>
            <ns3:hr>87</ns3:hr>
            <ns3:cad>45</ns3:cad>
          </ns3:TrackPointExtension>
        </extensions>
      </trkpt>
      <trkpt lat="43.45294986851513385772705078125" lon="1.45608653314411640167236328125">
        <ele>190.8000030517578125</ele>
        <time>2026-08-05T06:51:21.000Z</time>
        <extensions>
          <ns3:TrackPointExtension>
            <ns3:hr>86</ns3:hr>
            <ns3:cad>45</ns3:cad>
          </ns3:TrackPointExtension>
        </extensions>
      </trkpt>
      <trkpt lat="43.452948443591594696044921875" lon="1.45609759725630283355712890625">
        <ele>190.8000030517578125</ele>
        <time>2026-08-05T06:51:22.000Z</time>
        <extensions>
          <ns3:TrackPointExtension>
            <ns3:hr>86</ns3:hr>
            <ns3:cad>45</ns3:cad>
          </ns3:TrackPointExtension>
        </extensions>
      </trkpt>
      <trkpt lat="43.4529449231922626495361328125" lon="1.456110589206218719482421875">
        <ele>190.8000030517578125</ele>
        <time>2026-08-05T06:51:23.000Z</time>
        <extensions>
          <ns3:TrackPointExtension>
            <ns3:hr>86</ns3:hr>
            <ns3:cad>44</ns3:cad>
          </ns3:TrackPointExtension>
        </extensions>
      </trkpt>
      <trkpt lat="43.452939055860042572021484375" lon="1.45612358115613460540771484375">
        <ele>190.8000030517578125</ele>
        <time>2026-08-05T06:51:24.000Z</time>
        <extensions>
          <ns3:TrackPointExtension>
            <ns3:hr>86</ns3:hr>
            <ns3:cad>44</ns3:cad>
          </ns3:TrackPointExtension>
        </extensions>
      </trkpt>
      <trkpt lat="43.45293142832815647125244140625" lon="1.45613699220120906829833984375">
        <ele>190.8000030517578125</ele>
        <time>2026-08-05T06:51:25.000Z</time>
        <extensions>
          <ns3:TrackPointExtension>
            <ns3:hr>87</ns3:hr>
            <ns3:cad>44</ns3:cad>
          </ns3:TrackPointExtension>
        </extensions>
      </trkpt>
      <trkpt lat="43.4529268182814121246337890625" lon="1.45615057088434696197509765625">
        <ele>190.8000030517578125</ele>
        <time>2026-08-05T06:51:26.000Z</time>
        <extensions>
          <ns3:TrackPointExtension>
            <ns3:hr>86</ns3:hr>
            <ns3:cad>45</ns3:cad>
          </ns3:TrackPointExtension>
        </extensions>
      </trkpt>
      <trkpt lat="43.452921621501445770263671875" lon="1.45616213791072368621826171875">
        <ele>190.8000030517578125</ele>
        <time>2026-08-05T06:51:27.000Z</time>
        <extensions>
          <ns3:TrackPointExtension>
            <ns3:hr>87</ns3:hr>
            <ns3:cad>45</ns3:cad>
          </ns3:TrackPointExtension>
        </extensions>
      </trkpt>
      <trkpt lat="43.45291567035019397735595703125" lon="1.45617437548935413360595703125">
        <ele>190.8000030517578125</ele>
        <time>2026-08-05T06:51:28.000Z</time>
        <extensions>
          <ns3:TrackPointExtension>
            <ns3:hr>87</ns3:hr>
            <ns3:cad>44</ns3:cad>
          </ns3:TrackPointExtension>
        </extensions>
      </trkpt>
      <trkpt lat="43.4529070369899272918701171875" lon="1.45618527196347713470458984375">
        <ele>190.8000030517578125</ele>
        <time>2026-08-05T06:51:29.000Z</time>
        <extensions>
          <ns3:TrackPointExtension>
            <ns3:hr>86</ns3:hr>
            <ns3:cad>44</ns3:cad>
          </ns3:TrackPointExtension>
        </extensions>
      </trkpt>
      <trkpt lat="43.45290276221930980682373046875" lon="1.4561949111521244049072265625">
        <ele>190.8000030517578125</ele>
        <time>2026-08-05T06:51:30.000Z</time>
        <extensions>
          <ns3:TrackPointExtension>
            <ns3:hr>86</ns3:hr>
            <ns3:cad>44</ns3:cad>
          </ns3:TrackPointExtension>
        </extensions>
      </trkpt>
      <trkpt lat="43.45289555378258228302001953125" lon="1.45620371215045452117919921875">
        <ele>190.8000030517578125</ele>
        <time>2026-08-05T06:51:31.000Z</time>
        <extensions>
          <ns3:TrackPointExtension>
            <ns3:hr>86</ns3:hr>
            <ns3:cad>45</ns3:cad>
          </ns3:TrackPointExtension>
        </extensions>
      </trkpt>
      <trkpt lat="43.45289102755486965179443359375" lon="1.45621075294911861419677734375">
        <ele>190.600006103515625</ele>
        <time>2026-08-05T06:51:32.000Z</time>
        <extensions>
          <ns3:TrackPointExtension>
            <ns3:hr>86</ns3:hr>
            <ns3:cad>45</ns3:cad>
          </ns3:TrackPointExtension>
        </extensions>
      </trkpt>
      <trkpt lat="43.452883064746856689453125" lon="1.45621997304260730743408203125">
        <ele>190.600006103515625</ele>
        <time>2026-08-05T06:51:33.000Z</time>
        <extensions>
          <ns3:TrackPointExtension>
            <ns3:hr>85</ns3:hr>
            <ns3:cad>45</ns3:cad>
          </ns3:TrackPointExtension>
        </extensions>
      </trkpt>
      <trkpt lat="43.45287359319627285003662109375" lon="1.4562287740409374237060546875">
        <ele>190.600006103515625</ele>
        <time>2026-08-05T06:51:34.000Z</time>
        <extensions>
          <ns3:TrackPointExtension>
            <ns3:hr>85</ns3:hr>
            <ns3:cad>47</ns3:cad>
          </ns3:TrackPointExtension>
        </extensions>
      </trkpt>
      <trkpt lat="43.45286571420729160308837890625" lon="1.4562361501157283782958984375">
        <ele>190.600006103515625</ele>
        <time>2026-08-05T06:51:35.000Z</time>
        <extensions>
          <ns3:TrackPointExtension>
            <ns3:hr>85</ns3:hr>
            <ns3:cad>49</ns3:cad>
          </ns3:TrackPointExtension>
        </extensions>
      </trkpt>
      <trkpt lat="43.4528614394366741180419921875" lon="1.45624729804694652557373046875">
        <ele>190.399993896484375</ele>
        <time>2026-08-05T06:51:36.000Z</time>
        <extensions>
          <ns3:TrackPointExtension>
            <ns3:hr>84</ns3:hr>
            <ns3:cad>49</ns3:cad>
          </ns3:TrackPointExtension>
        </extensions>
      </trkpt>
      <trkpt lat="43.45285381190478801727294921875" lon="1.456260122358798980712890625">
        <ele>190.399993896484375</ele>
        <time>2026-08-05T06:51:37.000Z</time>
        <extensions>
          <ns3:TrackPointExtension>
            <ns3:hr>84</ns3:hr>
            <ns3:cad>48</ns3:cad>
          </ns3:TrackPointExtension>
        </extensions>
      </trkpt>
      <trkpt lat="43.45284895040094852447509765625" lon="1.45626674406230449676513671875">
        <ele>190.399993896484375</ele>
        <time>2026-08-05T06:51:38.000Z</time>
        <extensions>
          <ns3:TrackPointExtension>
            <ns3:hr>84</ns3:hr>
            <ns3:cad>48</ns3:cad>
          </ns3:TrackPointExtension>
        </extensions>
      </trkpt>
      <trkpt lat="43.452845178544521331787109375" lon="1.4562794007360935211181640625">
        <ele>190.1999969482421875</ele>
        <time>2026-08-05T06:51:39.000Z</time>
        <extensions>
          <ns3:TrackPointExtension>
            <ns3:hr>84</ns3:hr>
            <ns3:cad>48</ns3:cad>
          </ns3:TrackPointExtension>
        </extensions>
      </trkpt>
      <trkpt lat="43.4528433345258235931396484375" lon="1.45629071630537509918212890625">
        <ele>190.1999969482421875</ele>
        <time>2026-08-05T06:51:40.000Z</time>
        <extensions>
          <ns3:TrackPointExtension>
            <ns3:hr>84</ns3:hr>
            <ns3:cad>48</ns3:cad>
          </ns3:TrackPointExtension>
        </extensions>
      </trkpt>
      <trkpt lat="43.45284283161163330078125" lon="1.45630463026463985443115234375">
        <ele>190.1999969482421875</ele>
        <time>2026-08-05T06:51:41.000Z</time>
        <extensions>
          <ns3:TrackPointExtension>
            <ns3:hr>83</ns3:hr>
            <ns3:cad>47</ns3:cad>
          </ns3:TrackPointExtension>
        </extensions>
      </trkpt>
      <trkpt lat="43.45283738337457180023193359375" lon="1.45631619729101657867431640625">
        <ele>190.1999969482421875</ele>
        <time>2026-08-05T06:51:42.000Z</time>
        <extensions>
          <ns3:TrackPointExtension>
            <ns3:hr>83</ns3:hr>
            <ns3:cad>47</ns3:cad>
          </ns3:TrackPointExtension>
        </extensions>
      </trkpt>
      <trkpt lat="43.45283604227006435394287109375" lon="1.4563276804983615875244140625">
        <ele>190.1999969482421875</ele>
        <time>2026-08-05T06:51:43.000Z</time>
        <extensions>
          <ns3:TrackPointExtension>
            <ns3:hr>83</ns3:hr>
            <ns3:cad>47</ns3:cad>
          </ns3:TrackPointExtension>
        </extensions>
      </trkpt>
      <trkpt lat="43.45283545553684234619140625" lon="1.45634033717215061187744140625">
        <ele>190</ele>
        <time>2026-08-05T06:51:44.000Z</time>
        <extensions>
          <ns3:TrackPointExtension>
            <ns3:hr>83</ns3:hr>
            <ns3:cad>47</ns3:cad>
          </ns3:TrackPointExtension>
        </extensions>
      </trkpt>
      <trkpt lat="43.452836461365222930908203125" lon="1.4563531614840030670166015625">
        <ele>190</ele>
        <time>2026-08-05T06:51:45.000Z</time>
        <extensions>
          <ns3:TrackPointExtension>
            <ns3:hr>83</ns3:hr>
            <ns3:cad>47</ns3:cad>
          </ns3:TrackPointExtension>
        </extensions>
      </trkpt>
      <trkpt lat="43.4528361260890960693359375" lon="1.4563642255961894989013671875">
        <ele>190</ele>
        <time>2026-08-05T06:51:46.000Z</time>
        <extensions>
          <ns3:TrackPointExtension>
            <ns3:hr>82</ns3:hr>
            <ns3:cad>47</ns3:cad>
          </ns3:TrackPointExtension>
        </extensions>
      </trkpt>
      <trkpt lat="43.45284123905003070831298828125" lon="1.45638274960219860076904296875">
        <ele>190</ele>
        <time>2026-08-05T06:51:47.000Z</time>
        <extensions>
          <ns3:TrackPointExtension>
            <ns3:hr>82</ns3:hr>
            <ns3:cad>47</ns3:cad>
          </ns3:TrackPointExtension>
        </extensions>
      </trkpt>
      <trkpt lat="43.4528409875929355621337890625" lon="1.45639733411371707916259765625">
        <ele>190</ele>
        <time>2026-08-05T06:51:48.000Z</time>
        <extensions>
          <ns3:TrackPointExtension>
            <ns3:hr>82</ns3:hr>
            <ns3:cad>50</ns3:cad>
          </ns3:TrackPointExtension>
        </extensions>
      </trkpt>
      <trkpt lat="43.4528403170406818389892578125" lon="1.45640923641622066497802734375">
        <ele>190.1999969482421875</ele>
        <time>2026-08-05T06:51:49.000Z</time>
        <extensions>
          <ns3:TrackPointExtension>
            <ns3:hr>82</ns3:hr>
            <ns3:cad>50</ns3:cad>
          </ns3:TrackPointExtension>
        </extensions>
      </trkpt>
      <trkpt lat="43.45284023322165012359619140625" lon="1.45642030052840709686279296875">
        <ele>190.1999969482421875</ele>
        <time>2026-08-05T06:51:50.000Z</time>
        <extensions>
          <ns3:TrackPointExtension>
            <ns3:hr>82</ns3:hr>
            <ns3:cad>48</ns3:cad>
          </ns3:TrackPointExtension>
        </extensions>
      </trkpt>
      <trkpt lat="43.45283947885036468505859375" lon="1.45643480122089385986328125">
        <ele>190.1999969482421875</ele>
        <time>2026-08-05T06:51:51.000Z</time>
        <extensions>
          <ns3:TrackPointExtension>
            <ns3:hr>82</ns3:hr>
            <ns3:cad>47</ns3:cad>
          </ns3:TrackPointExtension>
        </extensions>
      </trkpt>
      <trkpt lat="43.45284174196422100067138671875" lon="1.45644661970436573028564453125">
        <ele>190.399993896484375</ele>
        <time>2026-08-05T06:51:52.000Z</time>
        <extensions>
          <ns3:TrackPointExtension>
            <ns3:hr>82</ns3:hr>
            <ns3:cad>47</ns3:cad>
          </ns3:TrackPointExtension>
        </extensions>
      </trkpt>
      <trkpt lat="43.45284291543066501617431640625" lon="1.4564567618072032928466796875">
        <ele>190.399993896484375</ele>
        <time>2026-08-05T06:51:53.000Z</time>
        <extensions>
          <ns3:TrackPointExtension>
            <ns3:hr>81</ns3:hr>
            <ns3:cad>47</ns3:cad>
          </ns3:TrackPointExtension>
        </extensions>
      </trkpt>
      <trkpt lat="43.45284593291580677032470703125" lon="1.45646790973842144012451171875">
        <ele>190.600006103515625</ele>
        <time>2026-08-05T06:51:54.000Z</time>
        <extensions>
          <ns3:TrackPointExtension>
            <ns3:hr>81</ns3:hr>
            <ns3:cad>46</ns3:cad>
          </ns3:TrackPointExtension>
        </extensions>
      </trkpt>
      <trkpt lat="43.45284752547740936279296875" lon="1.4564765430986881256103515625">
        <ele>190.600006103515625</ele>
        <time>2026-08-05T06:51:55.000Z</time>
        <extensions>
          <ns3:TrackPointExtension>
            <ns3:hr>81</ns3:hr>
            <ns3:cad>45</ns3:cad>
          </ns3:TrackPointExtension>
        </extensions>
      </trkpt>
      <trkpt lat="43.45285020768642425537109375" lon="1.456485427916049957275390625">
        <ele>190.600006103515625</ele>
        <time>2026-08-05T06:51:56.000Z</time>
        <extensions>
          <ns3:TrackPointExtension>
            <ns3:hr>81</ns3:hr>
            <ns3:cad>45</ns3:cad>
          </ns3:TrackPointExtension>
        </extensions>
      </trkpt>
      <trkpt lat="43.4528537280857563018798828125" lon="1.456495486199855804443359375">
        <ele>190.600006103515625</ele>
        <time>2026-08-05T06:51:57.000Z</time>
        <extensions>
          <ns3:TrackPointExtension>
            <ns3:hr>81</ns3:hr>
            <ns3:cad>45</ns3:cad>
          </ns3:TrackPointExtension>
        </extensions>
      </trkpt>
      <trkpt lat="43.45285716466605663299560546875" lon="1.45650680176913738250732421875">
        <ele>190.600006103515625</ele>
        <time>2026-08-05T06:51:58.000Z</time>
        <extensions>
          <ns3:TrackPointExtension>
            <ns3:hr>81</ns3:hr>
            <ns3:cad>44</ns3:cad>
          </ns3:TrackPointExtension>
        </extensions>
      </trkpt>
      <trkpt lat="43.45286495983600616455078125" lon="1.4565238170325756072998046875">
        <ele>190.600006103515625</ele>
        <time>2026-08-05T06:51:59.000Z</time>
        <extensions>
          <ns3:TrackPointExtension>
            <ns3:hr>80</ns3:hr>
            <ns3:cad>42</ns3:cad>
          </ns3:TrackPointExtension>
        </extensions>
      </trkpt>
      <trkpt lat="43.45287057571113109588623046875" lon="1.45653731189668178558349609375">
        <ele>190.600006103515625</ele>
        <time>2026-08-05T06:52:00.000Z</time>
        <extensions>
          <ns3:TrackPointExtension>
            <ns3:hr>80</ns3:hr>
            <ns3:cad>42</ns3:cad>
          </ns3:TrackPointExtension>
        </extensions>
      </trkpt>
      <trkpt lat="43.452874012291431427001953125" lon="1.45654619671404361724853515625">
        <ele>190.600006103515625</ele>
        <time>2026-08-05T06:52:01.000Z</time>
        <extensions>
          <ns3:TrackPointExtension>
            <ns3:hr>80</ns3:hr>
            <ns3:cad>43</ns3:cad>
          </ns3:TrackPointExtension>
        </extensions>
      </trkpt>
      <trkpt lat="43.4528815560042858123779296875" lon="1.4565573446452617645263671875">
        <ele>190.600006103515625</ele>
        <time>2026-08-05T06:52:02.000Z</time>
        <extensions>
          <ns3:TrackPointExtension>
            <ns3:hr>80</ns3:hr>
            <ns3:cad>43</ns3:cad>
          </ns3:TrackPointExtension>
        </extensions>
      </trkpt>
      <trkpt lat="43.45288633368909358978271484375" lon="1.4565714262425899505615234375">
        <ele>190.600006103515625</ele>
        <time>2026-08-05T06:52:03.000Z</time>
        <extensions>
          <ns3:TrackPointExtension>
            <ns3:hr>80</ns3:hr>
            <ns3:cad>45</ns3:cad>
          </ns3:TrackPointExtension>
        </extensions>
      </trkpt>
      <trkpt lat="43.45288968645036220550537109375" lon="1.45658391527831554412841796875">
        <ele>190.600006103515625</ele>
        <time>2026-08-05T06:52:04.000Z</time>
        <extensions>
          <ns3:TrackPointExtension>
            <ns3:hr>80</ns3:hr>
            <ns3:cad>47</ns3:cad>
          </ns3:TrackPointExtension>
        </extensions>
      </trkpt>
      <trkpt lat="43.4528926201164722442626953125" lon="1.4565945602953433990478515625">
        <ele>190.600006103515625</ele>
        <time>2026-08-05T06:52:05.000Z</time>
        <extensions>
          <ns3:TrackPointExtension>
            <ns3:hr>80</ns3:hr>
            <ns3:cad>47</ns3:cad>
          </ns3:TrackPointExtension>
        </extensions>
      </trkpt>
      <trkpt lat="43.4528949670493602752685546875" lon="1.45660906098783016204833984375">
        <ele>190.600006103515625</ele>
        <time>2026-08-05T06:52:06.000Z</time>
        <extensions>
          <ns3:TrackPointExtension>
            <ns3:hr>80</ns3:hr>
            <ns3:cad>47</ns3:cad>
          </ns3:TrackPointExtension>
        </extensions>
      </trkpt>
      <trkpt lat="43.452894799411296844482421875" lon="1.4566243998706340789794921875">
        <ele>190.600006103515625</ele>
        <time>2026-08-05T06:52:07.000Z</time>
        <extensions>
          <ns3:TrackPointExtension>
            <ns3:hr>80</ns3:hr>
            <ns3:cad>47</ns3:cad>
          </ns3:TrackPointExtension>
        </extensions>
      </trkpt>
      <trkpt lat="43.45289974473416805267333984375" lon="1.45663739182054996490478515625">
        <ele>190.8000030517578125</ele>
        <time>2026-08-05T06:52:08.000Z</time>
        <extensions>
          <ns3:TrackPointExtension>
            <ns3:hr>80</ns3:hr>
            <ns3:cad>46</ns3:cad>
          </ns3:TrackPointExtension>
        </extensions>
      </trkpt>
      <trkpt lat="43.45290292985737323760986328125" lon="1.4566539041697978973388671875">
        <ele>190.8000030517578125</ele>
        <time>2026-08-05T06:52:09.000Z</time>
        <extensions>
          <ns3:TrackPointExtension>
            <ns3:hr>80</ns3:hr>
            <ns3:cad>46</ns3:cad>
          </ns3:TrackPointExtension>
        </extensions>
      </trkpt>
      <trkpt lat="43.4529013372957706451416015625" lon="1.4566663093864917755126953125">
        <ele>190.8000030517578125</ele>
        <time>2026-08-05T06:52:10.000Z</time>
        <extensions>
          <ns3:TrackPointExtension>
            <ns3:hr>80</ns3:hr>
            <ns3:cad>46</ns3:cad>
          </ns3:TrackPointExtension>
        </extensions>
      </trkpt>
      <trkpt lat="43.4529023431241512298583984375" lon="1.45667779259383678436279296875">
        <ele>190.8000030517578125</ele>
        <time>2026-08-05T06:52:11.000Z</time>
        <extensions>
          <ns3:TrackPointExtension>
            <ns3:hr>80</ns3:hr>
            <ns3:cad>46</ns3:cad>
          </ns3:TrackPointExtension>
        </extensions>
      </trkpt>
      <trkpt lat="43.4528979845345020294189453125" lon="1.45669606514275074005126953125">
        <ele>191</ele>
        <time>2026-08-05T06:52:12.000Z</time>
        <extensions>
          <ns3:TrackPointExtension>
            <ns3:hr>80</ns3:hr>
            <ns3:cad>46</ns3:cad>
          </ns3:TrackPointExtension>
        </extensions>
      </trkpt>
      <trkpt lat="43.452900163829326629638671875" lon="1.4567075483500957489013671875">
        <ele>191</ele>
        <time>2026-08-05T06:52:13.000Z</time>
        <extensions>
          <ns3:TrackPointExtension>
            <ns3:hr>80</ns3:hr>
            <ns3:cad>46</ns3:cad>
          </ns3:TrackPointExtension>
        </extensions>
      </trkpt>
      <trkpt lat="43.45290360040962696075439453125" lon="1.4567226357758045196533203125">
        <ele>191</ele>
        <time>2026-08-05T06:52:14.000Z</time>
        <extensions>
          <ns3:TrackPointExtension>
            <ns3:hr>79</ns3:hr>
            <ns3:cad>46</ns3:cad>
          </ns3:TrackPointExtension>
        </extensions>
      </trkpt>
      <trkpt lat="43.452906869351863861083984375" lon="1.4567363820970058441162109375">
        <ele>191.1999969482421875</ele>
        <time>2026-08-05T06:52:15.000Z</time>
        <extensions>
          <ns3:TrackPointExtension>
            <ns3:hr>80</ns3:hr>
            <ns3:cad>45</ns3:cad>
          </ns3:TrackPointExtension>
        </extensions>
      </trkpt>
      <trkpt lat="43.45291047357022762298583984375" lon="1.4567521400749683380126953125">
        <ele>191.1999969482421875</ele>
        <time>2026-08-05T06:52:16.000Z</time>
        <extensions>
          <ns3:TrackPointExtension>
            <ns3:hr>80</ns3:hr>
            <ns3:cad>45</ns3:cad>
          </ns3:TrackPointExtension>
        </extensions>
      </trkpt>
      <trkpt lat="43.45291114412248134613037109375" lon="1.45676471292972564697265625">
        <ele>191.1999969482421875</ele>
        <time>2026-08-05T06:52:17.000Z</time>
        <extensions>
          <ns3:TrackPointExtension>
            <ns3:hr>80</ns3:hr>
            <ns3:cad>45</ns3:cad>
          </ns3:TrackPointExtension>
        </extensions>
      </trkpt>
      <trkpt lat="43.45291248522698879241943359375" lon="1.4567752741277217864990234375">
        <ele>191.399993896484375</ele>
        <time>2026-08-05T06:52:18.000Z</time>
        <extensions>
          <ns3:TrackPointExtension>
            <ns3:hr>79</ns3:hr>
            <ns3:cad>46</ns3:cad>
          </ns3:TrackPointExtension>
        </extensions>
      </trkpt>
      <trkpt lat="43.452915251255035400390625" lon="1.45678742788732051849365234375">
        <ele>191.399993896484375</ele>
        <time>2026-08-05T06:52:19.000Z</time>
        <extensions>
          <ns3:TrackPointExtension>
            <ns3:hr>80</ns3:hr>
            <ns3:cad>46</ns3:cad>
          </ns3:TrackPointExtension>
        </extensions>
      </trkpt>
      <trkpt lat="43.45291516743600368499755859375" lon="1.4568007551133632659912109375">
        <ele>191.399993896484375</ele>
        <time>2026-08-05T06:52:20.000Z</time>
        <extensions>
          <ns3:TrackPointExtension>
            <ns3:hr>80</ns3:hr>
            <ns3:cad>46</ns3:cad>
          </ns3:TrackPointExtension>
        </extensions>
      </trkpt>
      <trkpt lat="43.4529157541692256927490234375" lon="1.4568151719868183135986328125">
        <ele>191.399993896484375</ele>
        <time>2026-08-05T06:52:21.000Z</time>
        <extensions>
          <ns3:TrackPointExtension>
            <ns3:hr>80</ns3:hr>
            <ns3:cad>46</ns3:cad>
          </ns3:TrackPointExtension>
        </extensions>
      </trkpt>
      <trkpt lat="43.4529177658259868621826171875" lon="1.4568289183080196380615234375">
        <ele>191.399993896484375</ele>
        <time>2026-08-05T06:52:22.000Z</time>
        <extensions>
          <ns3:TrackPointExtension>
            <ns3:hr>80</ns3:hr>
            <ns3:cad>46</ns3:cad>
          </ns3:TrackPointExtension>
        </extensions>
      </trkpt>
      <trkpt lat="43.452916927635669708251953125" lon="1.45684115588665008544921875">
        <ele>191.399993896484375</ele>
        <time>2026-08-05T06:52:23.000Z</time>
        <extensions>
          <ns3:TrackPointExtension>
            <ns3:hr>81</ns3:hr>
            <ns3:cad>45</ns3:cad>
          </ns3:TrackPointExtension>
        </extensions>
      </trkpt>
      <trkpt lat="43.4529170952737331390380859375" lon="1.4568560756742954254150390625">
        <ele>191.399993896484375</ele>
        <time>2026-08-05T06:52:24.000Z</time>
        <extensions>
          <ns3:TrackPointExtension>
            <ns3:hr>81</ns3:hr>
            <ns3:cad>44</ns3:cad>
          </ns3:TrackPointExtension>
        </extensions>
      </trkpt>
      <trkpt lat="43.45291416160762310028076171875" lon="1.45686940290033817291259765625">
        <ele>191.399993896484375</ele>
        <time>2026-08-05T06:52:25.000Z</time>
        <extensions>
          <ns3:TrackPointExtension>
            <ns3:hr>82</ns3:hr>
            <ns3:cad>44</ns3:cad>
          </ns3:TrackPointExtension>
        </extensions>
      </trkpt>
      <trkpt lat="43.45291282050311565399169921875" lon="1.45688013173639774322509765625">
        <ele>191.600006103515625</ele>
        <time>2026-08-05T06:52:26.000Z</time>
        <extensions>
          <ns3:TrackPointExtension>
            <ns3:hr>82</ns3:hr>
            <ns3:cad>44</ns3:cad>
          </ns3:TrackPointExtension>
        </extensions>
      </trkpt>
      <trkpt lat="43.45290963537991046905517578125" lon="1.45689320750534534454345703125">
        <ele>191.600006103515625</ele>
        <time>2026-08-05T06:52:27.000Z</time>
        <extensions>
          <ns3:TrackPointExtension>
            <ns3:hr>82</ns3:hr>
            <ns3:cad>45</ns3:cad>
          </ns3:TrackPointExtension>
        </extensions>
      </trkpt>
      <trkpt lat="43.45290712080895900726318359375" lon="1.45690510980784893035888671875">
        <ele>191.600006103515625</ele>
        <time>2026-08-05T06:52:28.000Z</time>
        <extensions>
          <ns3:TrackPointExtension>
            <ns3:hr>83</ns3:hr>
            <ns3:cad>45</ns3:cad>
          </ns3:TrackPointExtension>
        </extensions>
      </trkpt>
      <trkpt lat="43.45290812663733959197998046875" lon="1.456919275224208831787109375">
        <ele>191.600006103515625</ele>
        <time>2026-08-05T06:52:29.000Z</time>
        <extensions>
          <ns3:TrackPointExtension>
            <ns3:hr>83</ns3:hr>
            <ns3:cad>45</ns3:cad>
          </ns3:TrackPointExtension>
        </extensions>
      </trkpt>
      <trkpt lat="43.4529093839228153228759765625" lon="1.4569311775267124176025390625">
        <ele>191.600006103515625</ele>
        <time>2026-08-05T06:52:30.000Z</time>
        <extensions>
          <ns3:TrackPointExtension>
            <ns3:hr>83</ns3:hr>
            <ns3:cad>45</ns3:cad>
          </ns3:TrackPointExtension>
        </extensions>
      </trkpt>
      <trkpt lat="43.45290728844702243804931640625" lon="1.4569477736949920654296875">
        <ele>191.8000030517578125</ele>
        <time>2026-08-05T06:52:31.000Z</time>
        <extensions>
          <ns3:TrackPointExtension>
            <ns3:hr>84</ns3:hr>
            <ns3:cad>45</ns3:cad>
          </ns3:TrackPointExtension>
        </extensions>
      </trkpt>
      <trkpt lat="43.45290829427540302276611328125" lon="1.45696059800684452056884765625">
        <ele>191.8000030517578125</ele>
        <time>2026-08-05T06:52:32.000Z</time>
        <extensions>
          <ns3:TrackPointExtension>
            <ns3:hr>84</ns3:hr>
            <ns3:cad>44</ns3:cad>
          </ns3:TrackPointExtension>
        </extensions>
      </trkpt>
      <trkpt lat="43.45290661789476871490478515625" lon="1.45697333849966526031494140625">
        <ele>191.8000030517578125</ele>
        <time>2026-08-05T06:52:33.000Z</time>
        <extensions>
          <ns3:TrackPointExtension>
            <ns3:hr>84</ns3:hr>
            <ns3:cad>44</ns3:cad>
          </ns3:TrackPointExtension>
        </extensions>
      </trkpt>
      <trkpt lat="43.4529053606092929840087890625" lon="1.456986330449581146240234375">
        <ele>191.8000030517578125</ele>
        <time>2026-08-05T06:52:34.000Z</time>
        <extensions>
          <ns3:TrackPointExtension>
            <ns3:hr>84</ns3:hr>
            <ns3:cad>44</ns3:cad>
          </ns3:TrackPointExtension>
        </extensions>
      </trkpt>
      <trkpt lat="43.4529050253331661224365234375" lon="1.45700150169432163238525390625">
        <ele>191.8000030517578125</ele>
        <time>2026-08-05T06:52:35.000Z</time>
        <extensions>
          <ns3:TrackPointExtension>
            <ns3:hr>85</ns3:hr>
            <ns3:cad>44</ns3:cad>
          </ns3:TrackPointExtension>
        </extensions>
      </trkpt>
      <trkpt lat="43.4529040195047855377197265625" lon="1.4570173434913158416748046875">
        <ele>191.8000030517578125</ele>
        <time>2026-08-05T06:52:36.000Z</time>
        <extensions>
          <ns3:TrackPointExtension>
            <ns3:hr>85</ns3:hr>
            <ns3:cad>44</ns3:cad>
          </ns3:TrackPointExtension>
        </extensions>
      </trkpt>
      <trkpt lat="43.4529056958854198455810546875" lon="1.45702891051769256591796875">
        <ele>191.8000030517578125</ele>
        <time>2026-08-05T06:52:37.000Z</time>
        <extensions>
          <ns3:TrackPointExtension>
            <ns3:hr>85</ns3:hr>
            <ns3:cad>43</ns3:cad>
          </ns3:TrackPointExtension>
        </extensions>
      </trkpt>
      <trkpt lat="43.4529070369899272918701171875" lon="1.4570485241711139678955078125">
        <ele>191.8000030517578125</ele>
        <time>2026-08-05T06:52:38.000Z</time>
        <extensions>
          <ns3:TrackPointExtension>
            <ns3:hr>85</ns3:hr>
            <ns3:cad>43</ns3:cad>
          </ns3:TrackPointExtension>
        </extensions>
      </trkpt>
      <trkpt lat="43.452910222113132476806640625" lon="1.4570609293878078460693359375">
        <ele>191.8000030517578125</ele>
        <time>2026-08-05T06:52:39.000Z</time>
        <extensions>
          <ns3:TrackPointExtension>
            <ns3:hr>84</ns3:hr>
            <ns3:cad>42</ns3:cad>
          </ns3:TrackPointExtension>
        </extensions>
      </trkpt>
      <trkpt lat="43.4529110603034496307373046875" lon="1.45707459188997745513916015625">
        <ele>192</ele>
        <time>2026-08-05T06:52:40.000Z</time>
        <extensions>
          <ns3:TrackPointExtension>
            <ns3:hr>84</ns3:hr>
            <ns3:cad>42</ns3:cad>
          </ns3:TrackPointExtension>
        </extensions>
      </trkpt>
      <trkpt lat="43.452912904322147369384765625" lon="1.45708280615508556365966796875">
        <ele>192</ele>
        <time>2026-08-05T06:52:41.000Z</time>
        <extensions>
          <ns3:TrackPointExtension>
            <ns3:hr>83</ns3:hr>
            <ns3:cad>43</ns3:cad>
          </ns3:TrackPointExtension>
        </extensions>
      </trkpt>
      <trkpt lat="43.4529120661318302154541015625" lon="1.45708917640149593353271484375">
        <ele>192</ele>
        <time>2026-08-05T06:52:42.000Z</time>
        <extensions>
          <ns3:TrackPointExtension>
            <ns3:hr>83</ns3:hr>
            <ns3:cad>43</ns3:cad>
          </ns3:TrackPointExtension>
        </extensions>
      </trkpt>
      <trkpt lat="43.4529157541692256927490234375" lon="1.4571045152842998504638671875">
        <ele>192</ele>
        <time>2026-08-05T06:52:43.000Z</time>
        <extensions>
          <ns3:TrackPointExtension>
            <ns3:hr>82</ns3:hr>
            <ns3:cad>43</ns3:cad>
          </ns3:TrackPointExtension>
        </extensions>
      </trkpt>
      <trkpt lat="43.4529167599976062774658203125" lon="1.4571196027100086212158203125">
        <ele>192.1999969482421875</ele>
        <time>2026-08-05T06:52:44.000Z</time>
        <extensions>
          <ns3:TrackPointExtension>
            <ns3:hr>82</ns3:hr>
            <ns3:cad>44</ns3:cad>
          </ns3:TrackPointExtension>
        </extensions>
      </trkpt>
      <trkpt lat="43.45291617326438426971435546875" lon="1.4571293257176876068115234375">
        <ele>192.1999969482421875</ele>
        <time>2026-08-05T06:52:45.000Z</time>
        <extensions>
          <ns3:TrackPointExtension>
            <ns3:hr>82</ns3:hr>
            <ns3:cad>44</ns3:cad>
          </ns3:TrackPointExtension>
        </extensions>
      </trkpt>
      <trkpt lat="43.45291592180728912353515625" lon="1.45714164711534976959228515625">
        <ele>192</ele>
        <time>2026-08-05T06:52:46.000Z</time>
        <extensions>
          <ns3:TrackPointExtension>
            <ns3:hr>81</ns3:hr>
            <ns3:cad>46</ns3:cad>
          </ns3:TrackPointExtension>
        </extensions>
      </trkpt>
      <trkpt lat="43.45291550271213054656982421875" lon="1.45715723745524883270263671875">
        <ele>192</ele>
        <time>2026-08-05T06:52:47.000Z</time>
        <extensions>
          <ns3:TrackPointExtension>
            <ns3:hr>82</ns3:hr>
            <ns3:cad>47</ns3:cad>
          </ns3:TrackPointExtension>
        </extensions>
      </trkpt>
      <trkpt lat="43.4529127366840839385986328125" lon="1.4571708999574184417724609375">
        <ele>192</ele>
        <time>2026-08-05T06:52:48.000Z</time>
        <extensions>
          <ns3:TrackPointExtension>
            <ns3:hr>82</ns3:hr>
            <ns3:cad>47</ns3:cad>
          </ns3:TrackPointExtension>
        </extensions>
      </trkpt>
      <trkpt lat="43.45291265286505222320556640625" lon="1.45718590356409549713134765625">
        <ele>192.1999969482421875</ele>
        <time>2026-08-05T06:52:49.000Z</time>
        <extensions>
          <ns3:TrackPointExtension>
            <ns3:hr>81</ns3:hr>
            <ns3:cad>47</ns3:cad>
          </ns3:TrackPointExtension>
        </extensions>
      </trkpt>
      <trkpt lat="43.45290946774184703826904296875" lon="1.4572050981223583221435546875">
        <ele>192.1999969482421875</ele>
        <time>2026-08-05T06:52:50.000Z</time>
        <extensions>
          <ns3:TrackPointExtension>
            <ns3:hr>82</ns3:hr>
            <ns3:cad>46</ns3:cad>
          </ns3:TrackPointExtension>
        </extensions>
      </trkpt>
      <trkpt lat="43.4529124014079570770263671875" lon="1.457219682633876800537109375">
        <ele>192.1999969482421875</ele>
        <time>2026-08-05T06:52:51.000Z</time>
        <extensions>
          <ns3:TrackPointExtension>
            <ns3:hr>81</ns3:hr>
            <ns3:cad>46</ns3:cad>
          </ns3:TrackPointExtension>
        </extensions>
      </trkpt>
      <trkpt lat="43.4529127366840839385986328125" lon="1.457235775887966156005859375">
        <ele>192.1999969482421875</ele>
        <time>2026-08-05T06:52:52.000Z</time>
        <extensions>
          <ns3:TrackPointExtension>
            <ns3:hr>81</ns3:hr>
            <ns3:cad>46</ns3:cad>
          </ns3:TrackPointExtension>
        </extensions>
      </trkpt>
      <trkpt lat="43.452915251255035400390625" lon="1.4572403021156787872314453125">
        <ele>192.399993896484375</ele>
        <time>2026-08-05T06:52:53.000Z</time>
        <extensions>
          <ns3:TrackPointExtension>
            <ns3:hr>81</ns3:hr>
            <ns3:cad>46</ns3:cad>
          </ns3:TrackPointExtension>
        </extensions>
      </trkpt>
      <trkpt lat="43.45291852019727230072021484375" lon="1.45724977366626262664794921875">
        <ele>192.399993896484375</ele>
        <time>2026-08-05T06:52:54.000Z</time>
        <extensions>
          <ns3:TrackPointExtension>
            <ns3:hr>80</ns3:hr>
            <ns3:cad>44</ns3:cad>
          </ns3:TrackPointExtension>
        </extensions>
      </trkpt>
      <trkpt lat="43.4529184363782405853271484375" lon="1.45727039314806461334228515625">
        <ele>192.399993896484375</ele>
        <time>2026-08-05T06:52:55.000Z</time>
        <extensions>
          <ns3:TrackPointExtension>
            <ns3:hr>80</ns3:hr>
            <ns3:cad>44</ns3:cad>
          </ns3:TrackPointExtension>
        </extensions>
      </trkpt>
      <trkpt lat="43.452918939292430877685546875" lon="1.4572875760495662689208984375">
        <ele>192.399993896484375</ele>
        <time>2026-08-05T06:52:56.000Z</time>
        <extensions>
          <ns3:TrackPointExtension>
            <ns3:hr>80</ns3:hr>
            <ns3:cad>45</ns3:cad>
          </ns3:TrackPointExtension>
        </extensions>
      </trkpt>
      <trkpt lat="43.45292019657790660858154296875" lon="1.45729637704789638519287109375">
        <ele>192.1999969482421875</ele>
        <time>2026-08-05T06:52:57.000Z</time>
        <extensions>
          <ns3:TrackPointExtension>
            <ns3:hr>79</ns3:hr>
            <ns3:cad>45</ns3:cad>
          </ns3:TrackPointExtension>
        </extensions>
      </trkpt>
      <trkpt lat="43.4529217891395092010498046875" lon="1.4573043398559093475341796875">
        <ele>192.1999969482421875</ele>
        <time>2026-08-05T06:52:58.000Z</time>
        <extensions>
          <ns3:TrackPointExtension>
            <ns3:hr>79</ns3:hr>
            <ns3:cad>45</ns3:cad>
          </ns3:TrackPointExtension>
        </extensions>
      </trkpt>
      <trkpt lat="43.4529246389865875244140625" lon="1.45731800235807895660400390625">
        <ele>192.1999969482421875</ele>
        <time>2026-08-05T06:52:59.000Z</time>
        <extensions>
          <ns3:TrackPointExtension>
            <ns3:hr>79</ns3:hr>
            <ns3:cad>45</ns3:cad>
          </ns3:TrackPointExtension>
        </extensions>
      </trkpt>
      <trkpt lat="43.45293059013783931732177734375" lon="1.457333676517009735107421875">
        <ele>192.1999969482421875</ele>
        <time>2026-08-05T06:53:00.000Z</time>
        <extensions>
          <ns3:TrackPointExtension>
            <ns3:hr>79</ns3:hr>
            <ns3:cad>45</ns3:cad>
          </ns3:TrackPointExtension>
        </extensions>
      </trkpt>
      <trkpt lat="43.45293092541396617889404296875" lon="1.457348763942718505859375">
        <ele>192.1999969482421875</ele>
        <time>2026-08-05T06:53:01.000Z</time>
        <extensions>
          <ns3:TrackPointExtension>
            <ns3:hr>79</ns3:hr>
            <ns3:cad>45</ns3:cad>
          </ns3:TrackPointExtension>
        </extensions>
      </trkpt>
      <trkpt lat="43.4529301710426807403564453125" lon="1.457359492778778076171875">
        <ele>192.1999969482421875</ele>
        <time>2026-08-05T06:53:02.000Z</time>
        <extensions>
          <ns3:TrackPointExtension>
            <ns3:hr>79</ns3:hr>
            <ns3:cad>45</ns3:cad>
          </ns3:TrackPointExtension>
        </extensions>
      </trkpt>
      <trkpt lat="43.452930338680744171142578125" lon="1.45737198181450366973876953125">
        <ele>192.1999969482421875</ele>
        <time>2026-08-05T06:53:03.000Z</time>
        <extensions>
          <ns3:TrackPointExtension>
            <ns3:hr>79</ns3:hr>
            <ns3:cad>45</ns3:cad>
          </ns3:TrackPointExtension>
        </extensions>
      </trkpt>
      <trkpt lat="43.45293394289910793304443359375" lon="1.45739058963954448699951171875">
        <ele>192.1999969482421875</ele>
        <time>2026-08-05T06:53:04.000Z</time>
        <extensions>
          <ns3:TrackPointExtension>
            <ns3:hr>79</ns3:hr>
            <ns3:cad>45</ns3:cad>
          </ns3:TrackPointExtension>
        </extensions>
      </trkpt>
      <trkpt lat="43.45293545164167881011962890625" lon="1.45740701816976070404052734375">
        <ele>192.1999969482421875</ele>
        <time>2026-08-05T06:53:05.000Z</time>
        <extensions>
          <ns3:TrackPointExtension>
            <ns3:hr>79</ns3:hr>
            <ns3:cad>46</ns3:cad>
          </ns3:TrackPointExtension>
        </extensions>
      </trkpt>
      <trkpt lat="43.452935703098773956298828125" lon="1.45741992630064487457275390625">
        <ele>192.1999969482421875</ele>
        <time>2026-08-05T06:53:06.000Z</time>
        <extensions>
          <ns3:TrackPointExtension>
            <ns3:hr>79</ns3:hr>
            <ns3:cad>46</ns3:cad>
          </ns3:TrackPointExtension>
        </extensions>
      </trkpt>
      <trkpt lat="43.4529358707368373870849609375" lon="1.4574300684034824371337890625">
        <ele>192.1999969482421875</ele>
        <time>2026-08-05T06:53:07.000Z</time>
        <extensions>
          <ns3:TrackPointExtension>
            <ns3:hr>80</ns3:hr>
            <ns3:cad>46</ns3:cad>
          </ns3:TrackPointExtension>
        </extensions>
      </trkpt>
      <trkpt lat="43.45293159596621990203857421875" lon="1.4574475027620792388916015625">
        <ele>192.1999969482421875</ele>
        <time>2026-08-05T06:53:08.000Z</time>
        <extensions>
          <ns3:TrackPointExtension>
            <ns3:hr>79</ns3:hr>
            <ns3:cad>46</ns3:cad>
          </ns3:TrackPointExtension>
        </extensions>
      </trkpt>
      <trkpt lat="43.452931679785251617431640625" lon="1.4574629254639148712158203125">
        <ele>192.399993896484375</ele>
        <time>2026-08-05T06:53:09.000Z</time>
        <extensions>
          <ns3:TrackPointExtension>
            <ns3:hr>79</ns3:hr>
            <ns3:cad>47</ns3:cad>
          </ns3:TrackPointExtension>
        </extensions>
      </trkpt>
      <trkpt lat="43.4529298357665538787841796875" lon="1.45747742615640163421630859375">
        <ele>192.399993896484375</ele>
        <time>2026-08-05T06:53:10.000Z</time>
        <extensions>
          <ns3:TrackPointExtension>
            <ns3:hr>80</ns3:hr>
            <ns3:cad>47</ns3:cad>
          </ns3:TrackPointExtension>
        </extensions>
      </trkpt>
      <trkpt lat="43.4529298357665538787841796875" lon="1.4574934355914592742919921875">
        <ele>192.399993896484375</ele>
        <time>2026-08-05T06:53:11.000Z</time>
        <extensions>
          <ns3:TrackPointExtension>
            <ns3:hr>80</ns3:hr>
            <ns3:cad>47</ns3:cad>
          </ns3:TrackPointExtension>
        </extensions>
      </trkpt>
      <trkpt lat="43.45293193124234676361083984375" lon="1.457501985132694244384765625">
        <ele>192.399993896484375</ele>
        <time>2026-08-05T06:53:12.000Z</time>
        <extensions>
          <ns3:TrackPointExtension>
            <ns3:hr>80</ns3:hr>
            <ns3:cad>47</ns3:cad>
          </ns3:TrackPointExtension>
        </extensions>
      </trkpt>
      <trkpt lat="43.45293335616588592529296875" lon="1.4575162343680858612060546875">
        <ele>192.399993896484375</ele>
        <time>2026-08-05T06:53:13.000Z</time>
        <extensions>
          <ns3:TrackPointExtension>
            <ns3:hr>81</ns3:hr>
            <ns3:cad>47</ns3:cad>
          </ns3:TrackPointExtension>
        </extensions>
      </trkpt>
      <trkpt lat="43.45293461345136165618896484375" lon="1.457536853849887847900390625">
        <ele>192.399993896484375</ele>
        <time>2026-08-05T06:53:14.000Z</time>
        <extensions>
          <ns3:TrackPointExtension>
            <ns3:hr>81</ns3:hr>
            <ns3:cad>47</ns3:cad>
          </ns3:TrackPointExtension>
        </extensions>
      </trkpt>
      <trkpt lat="43.45293494872748851776123046875" lon="1.45754531957209110260009765625">
        <ele>192.399993896484375</ele>
        <time>2026-08-05T06:53:15.000Z</time>
        <extensions>
          <ns3:TrackPointExtension>
            <ns3:hr>81</ns3:hr>
            <ns3:cad>47</ns3:cad>
          </ns3:TrackPointExtension>
        </extensions>
      </trkpt>
      <trkpt lat="43.452937714755535125732421875" lon="1.457552276551723480224609375">
        <ele>192.399993896484375</ele>
        <time>2026-08-05T06:53:16.000Z</time>
        <extensions>
          <ns3:TrackPointExtension>
            <ns3:hr>81</ns3:hr>
            <ns3:cad>47</ns3:cad>
          </ns3:TrackPointExtension>
        </extensions>
      </trkpt>
      <trkpt lat="43.4529422409832477569580078125" lon="1.45756443031132221221923828125">
        <ele>192.399993896484375</ele>
        <time>2026-08-05T06:53:17.000Z</time>
        <extensions>
          <ns3:TrackPointExtension>
            <ns3:hr>81</ns3:hr>
            <ns3:cad>47</ns3:cad>
          </ns3:TrackPointExtension>
        </extensions>
      </trkpt>
      <trkpt lat="43.4529432468116283416748046875" lon="1.457576416432857513427734375">
        <ele>192.399993896484375</ele>
        <time>2026-08-05T06:53:18.000Z</time>
        <extensions>
          <ns3:TrackPointExtension>
            <ns3:hr>81</ns3:hr>
            <ns3:cad>47</ns3:cad>
          </ns3:TrackPointExtension>
        </extensions>
      </trkpt>
      <trkpt lat="43.45294601283967494964599609375" lon="1.45757365040481090545654296875">
        <ele>192.399993896484375</ele>
        <time>2026-08-05T06:53:19.000Z</time>
        <extensions>
          <ns3:TrackPointExtension>
            <ns3:hr>81</ns3:hr>
            <ns3:cad>47</ns3:cad>
          </ns3:TrackPointExtension>
        </extensions>
      </trkpt>
      <trkpt lat="43.4529476054012775421142578125" lon="1.4575853012502193450927734375">
        <ele>192.399993896484375</ele>
        <time>2026-08-05T06:53:20.000Z</time>
        <extensions>
          <ns3:TrackPointExtension>
            <ns3:hr>81</ns3:hr>
            <ns3:cad>47</ns3:cad>
          </ns3:TrackPointExtension>
        </extensions>
      </trkpt>
      <trkpt lat="43.45294886268675327301025390625" lon="1.45760080777108669281005859375">
        <ele>192.600006103515625</ele>
        <time>2026-08-05T06:53:21.000Z</time>
        <extensions>
          <ns3:TrackPointExtension>
            <ns3:hr>82</ns3:hr>
            <ns3:cad>47</ns3:cad>
          </ns3:TrackPointExtension>
        </extensions>
      </trkpt>
      <trkpt lat="43.4529514610767364501953125" lon="1.457616984844207763671875">
        <ele>192.600006103515625</ele>
        <time>2026-08-05T06:53:22.000Z</time>
        <extensions>
          <ns3:TrackPointExtension>
            <ns3:hr>82</ns3:hr>
            <ns3:cad>47</ns3:cad>
          </ns3:TrackPointExtension>
        </extensions>
      </trkpt>
      <trkpt lat="43.4529522992670536041259765625" lon="1.4576312340795993804931640625">
        <ele>192.600006103515625</ele>
        <time>2026-08-05T06:53:23.000Z</time>
        <extensions>
          <ns3:TrackPointExtension>
            <ns3:hr>82</ns3:hr>
            <ns3:cad>47</ns3:cad>
          </ns3:TrackPointExtension>
        </extensions>
      </trkpt>
      <trkpt lat="43.4529563225805759429931640625" lon="1.45764422602951526641845703125">
        <ele>192.600006103515625</ele>
        <time>2026-08-05T06:53:24.000Z</time>
        <extensions>
          <ns3:TrackPointExtension>
            <ns3:hr>82</ns3:hr>
            <ns3:cad>47</ns3:cad>
          </ns3:TrackPointExtension>
        </extensions>
      </trkpt>
      <trkpt lat="43.45295925624668598175048828125" lon="1.45766216330230236053466796875">
        <ele>192.600006103515625</ele>
        <time>2026-08-05T06:53:25.000Z</time>
        <extensions>
          <ns3:TrackPointExtension>
            <ns3:hr>82</ns3:hr>
            <ns3:cad>47</ns3:cad>
          </ns3:TrackPointExtension>
        </extensions>
      </trkpt>
      <trkpt lat="43.45295975916087627410888671875" lon="1.45767188630998134613037109375">
        <ele>192.600006103515625</ele>
        <time>2026-08-05T06:53:26.000Z</time>
        <extensions>
          <ns3:TrackPointExtension>
            <ns3:hr>82</ns3:hr>
            <ns3:cad>47</ns3:cad>
          </ns3:TrackPointExtension>
        </extensions>
      </trkpt>
      <trkpt lat="43.45296093262732028961181640625" lon="1.45767976529896259307861328125">
        <ele>192.600006103515625</ele>
        <time>2026-08-05T06:53:27.000Z</time>
        <extensions>
          <ns3:TrackPointExtension>
            <ns3:hr>83</ns3:hr>
            <ns3:cad>47</ns3:cad>
          </ns3:TrackPointExtension>
        </extensions>
      </trkpt>
      <trkpt lat="43.452963531017303466796875" lon="1.45769418217241764068603515625">
        <ele>192.600006103515625</ele>
        <time>2026-08-05T06:53:28.000Z</time>
        <extensions>
          <ns3:TrackPointExtension>
            <ns3:hr>83</ns3:hr>
            <ns3:cad>46</ns3:cad>
          </ns3:TrackPointExtension>
        </extensions>
      </trkpt>
      <trkpt lat="43.4529720805585384368896484375" lon="1.45770038478076457977294921875">
        <ele>192.600006103515625</ele>
        <time>2026-08-05T06:53:29.000Z</time>
        <extensions>
          <ns3:TrackPointExtension>
            <ns3:hr>83</ns3:hr>
            <ns3:cad>45</ns3:cad>
          </ns3:TrackPointExtension>
        </extensions>
      </trkpt>
      <trkpt lat="43.452978618443012237548828125" lon="1.45771077834069728851318359375">
        <ele>192.600006103515625</ele>
        <time>2026-08-05T06:53:30.000Z</time>
        <extensions>
          <ns3:TrackPointExtension>
            <ns3:hr>83</ns3:hr>
            <ns3:cad>45</ns3:cad>
          </ns3:TrackPointExtension>
        </extensions>
      </trkpt>
      <trkpt lat="43.45298406668007373809814453125" lon="1.45772360265254974365234375">
        <ele>192.600006103515625</ele>
        <time>2026-08-05T06:53:31.000Z</time>
        <extensions>
          <ns3:TrackPointExtension>
            <ns3:hr>83</ns3:hr>
            <ns3:cad>44</ns3:cad>
          </ns3:TrackPointExtension>
        </extensions>
      </trkpt>
      <trkpt lat="43.45299093984067440032958984375" lon="1.4577351696789264678955078125">
        <ele>192.600006103515625</ele>
        <time>2026-08-05T06:53:32.000Z</time>
        <extensions>
          <ns3:TrackPointExtension>
            <ns3:hr>83</ns3:hr>
            <ns3:cad>44</ns3:cad>
          </ns3:TrackPointExtension>
        </extensions>
      </trkpt>
      <trkpt lat="43.4529943764209747314453125" lon="1.45774899981915950775146484375">
        <ele>192.600006103515625</ele>
        <time>2026-08-05T06:53:33.000Z</time>
        <extensions>
          <ns3:TrackPointExtension>
            <ns3:hr>83</ns3:hr>
            <ns3:cad>46</ns3:cad>
          </ns3:TrackPointExtension>
        </extensions>
      </trkpt>
      <trkpt lat="43.45299680717289447784423828125" lon="1.45775805227458477020263671875">
        <ele>192.600006103515625</ele>
        <time>2026-08-05T06:53:34.000Z</time>
        <extensions>
          <ns3:TrackPointExtension>
            <ns3:hr>82</ns3:hr>
            <ns3:cad>46</ns3:cad>
          </ns3:TrackPointExtension>
        </extensions>
      </trkpt>
      <trkpt lat="43.45300041139125823974609375" lon="1.4577713795006275177001953125">
        <ele>192.600006103515625</ele>
        <time>2026-08-05T06:53:35.000Z</time>
        <extensions>
          <ns3:TrackPointExtension>
            <ns3:hr>83</ns3:hr>
            <ns3:cad>46</ns3:cad>
          </ns3:TrackPointExtension>
        </extensions>
      </trkpt>
      <trkpt lat="43.45300451852381229400634765625" lon="1.45778420381247997283935546875">
        <ele>192.600006103515625</ele>
        <time>2026-08-05T06:53:36.000Z</time>
        <extensions>
          <ns3:TrackPointExtension>
            <ns3:hr>83</ns3:hr>
            <ns3:cad>46</ns3:cad>
          </ns3:TrackPointExtension>
        </extensions>
      </trkpt>
      <trkpt lat="43.4530099667608737945556640625" lon="1.4577982015907764434814453125">
        <ele>192.600006103515625</ele>
        <time>2026-08-05T06:53:37.000Z</time>
        <extensions>
          <ns3:TrackPointExtension>
            <ns3:hr>83</ns3:hr>
            <ns3:cad>46</ns3:cad>
          </ns3:TrackPointExtension>
        </extensions>
      </trkpt>
      <trkpt lat="43.453017510473728179931640625" lon="1.45781102590262889862060546875">
        <ele>192.8000030517578125</ele>
        <time>2026-08-05T06:53:38.000Z</time>
        <extensions>
          <ns3:TrackPointExtension>
            <ns3:hr>82</ns3:hr>
            <ns3:cad>46</ns3:cad>
          </ns3:TrackPointExtension>
        </extensions>
      </trkpt>
      <trkpt lat="43.45302144996821880340576171875" lon="1.45782410167157649993896484375">
        <ele>192.8000030517578125</ele>
        <time>2026-08-05T06:53:39.000Z</time>
        <extensions>
          <ns3:TrackPointExtension>
            <ns3:hr>83</ns3:hr>
            <ns3:cad>47</ns3:cad>
          </ns3:TrackPointExtension>
        </extensions>
      </trkpt>
      <trkpt lat="43.453024215996265411376953125" lon="1.45783198066055774688720703125">
        <ele>193</ele>
        <time>2026-08-05T06:53:40.000Z</time>
        <extensions>
          <ns3:TrackPointExtension>
            <ns3:hr>82</ns3:hr>
            <ns3:cad>47</ns3:cad>
          </ns3:TrackPointExtension>
        </extensions>
      </trkpt>
      <trkpt lat="43.453027568757534027099609375" lon="1.45784698426723480224609375">
        <ele>193</ele>
        <time>2026-08-05T06:53:41.000Z</time>
        <extensions>
          <ns3:TrackPointExtension>
            <ns3:hr>82</ns3:hr>
            <ns3:cad>47</ns3:cad>
          </ns3:TrackPointExtension>
        </extensions>
      </trkpt>
      <trkpt lat="43.45302798785269260406494140625" lon="1.457858048379421234130859375">
        <ele>193</ele>
        <time>2026-08-05T06:53:42.000Z</time>
        <extensions>
          <ns3:TrackPointExtension>
            <ns3:hr>82</ns3:hr>
            <ns3:cad>46</ns3:cad>
          </ns3:TrackPointExtension>
        </extensions>
      </trkpt>
      <trkpt lat="43.45302983187139034271240234375" lon="1.45786668173968791961669921875">
        <ele>193</ele>
        <time>2026-08-05T06:53:43.000Z</time>
        <extensions>
          <ns3:TrackPointExtension>
            <ns3:hr>83</ns3:hr>
            <ns3:cad>46</ns3:cad>
          </ns3:TrackPointExtension>
        </extensions>
      </trkpt>
      <trkpt lat="43.4530314244329929351806640625" lon="1.45788009278476238250732421875">
        <ele>193</ele>
        <time>2026-08-05T06:53:44.000Z</time>
        <extensions>
          <ns3:TrackPointExtension>
            <ns3:hr>82</ns3:hr>
            <ns3:cad>44</ns3:cad>
          </ns3:TrackPointExtension>
        </extensions>
      </trkpt>
      <trkpt lat="43.45303368754684925079345703125" lon="1.45789534784853458404541015625">
        <ele>193.1999969482421875</ele>
        <time>2026-08-05T06:53:45.000Z</time>
        <extensions>
          <ns3:TrackPointExtension>
            <ns3:hr>82</ns3:hr>
            <ns3:cad>42</ns3:cad>
          </ns3:TrackPointExtension>
        </extensions>
      </trkpt>
      <trkpt lat="43.45303771086037158966064453125" lon="1.4579061605036258697509765625">
        <ele>193.1999969482421875</ele>
        <time>2026-08-05T06:53:46.000Z</time>
        <extensions>
          <ns3:TrackPointExtension>
            <ns3:hr>82</ns3:hr>
            <ns3:cad>42</ns3:cad>
          </ns3:TrackPointExtension>
        </extensions>
      </trkpt>
      <trkpt lat="43.453038632869720458984375" lon="1.457919068634510040283203125">
        <ele>193.1999969482421875</ele>
        <time>2026-08-05T06:53:47.000Z</time>
        <extensions>
          <ns3:TrackPointExtension>
            <ns3:hr>83</ns3:hr>
            <ns3:cad>42</ns3:cad>
          </ns3:TrackPointExtension>
        </extensions>
      </trkpt>
      <trkpt lat="43.45304123125970363616943359375" lon="1.45793625153601169586181640625">
        <ele>193.1999969482421875</ele>
        <time>2026-08-05T06:53:48.000Z</time>
        <extensions>
          <ns3:TrackPointExtension>
            <ns3:hr>82</ns3:hr>
            <ns3:cad>43</ns3:cad>
          </ns3:TrackPointExtension>
        </extensions>
      </trkpt>
      <trkpt lat="43.45304056070744991302490234375" lon="1.45794647745788097381591796875">
        <ele>193.399993896484375</ele>
        <time>2026-08-05T06:53:49.000Z</time>
        <extensions>
          <ns3:TrackPointExtension>
            <ns3:hr>82</ns3:hr>
            <ns3:cad>43</ns3:cad>
          </ns3:TrackPointExtension>
        </extensions>
      </trkpt>
      <trkpt lat="43.453038968145847320556640625" lon="1.45795586518943309783935546875">
        <ele>193.399993896484375</ele>
        <time>2026-08-05T06:53:50.000Z</time>
        <extensions>
          <ns3:TrackPointExtension>
            <ns3:hr>82</ns3:hr>
            <ns3:cad>43</ns3:cad>
          </ns3:TrackPointExtension>
        </extensions>
      </trkpt>
      <trkpt lat="43.45303720794618129730224609375" lon="1.457972042262554168701171875">
        <ele>193.399993896484375</ele>
        <time>2026-08-05T06:53:51.000Z</time>
        <extensions>
          <ns3:TrackPointExtension>
            <ns3:hr>82</ns3:hr>
            <ns3:cad>43</ns3:cad>
          </ns3:TrackPointExtension>
        </extensions>
      </trkpt>
      <trkpt lat="43.45303854905068874359130859375" lon="1.45798251964151859283447265625">
        <ele>193.399993896484375</ele>
        <time>2026-08-05T06:53:52.000Z</time>
        <extensions>
          <ns3:TrackPointExtension>
            <ns3:hr>82</ns3:hr>
            <ns3:cad>43</ns3:cad>
          </ns3:TrackPointExtension>
        </extensions>
      </trkpt>
      <trkpt lat="43.45303989015519618988037109375" lon="1.45799425430595874786376953125">
        <ele>193.399993896484375</ele>
        <time>2026-08-05T06:53:53.000Z</time>
        <extensions>
          <ns3:TrackPointExtension>
            <ns3:hr>82</ns3:hr>
            <ns3:cad>42</ns3:cad>
          </ns3:TrackPointExtension>
        </extensions>
      </trkpt>
      <trkpt lat="43.45304332673549652099609375" lon="1.4580072462558746337890625">
        <ele>193.399993896484375</ele>
        <time>2026-08-05T06:53:54.000Z</time>
        <extensions>
          <ns3:TrackPointExtension>
            <ns3:hr>82</ns3:hr>
            <ns3:cad>42</ns3:cad>
          </ns3:TrackPointExtension>
        </extensions>
      </trkpt>
      <trkpt lat="43.45304626040160655975341796875" lon="1.45802292041480541229248046875">
        <ele>193.399993896484375</ele>
        <time>2026-08-05T06:53:55.000Z</time>
        <extensions>
          <ns3:TrackPointExtension>
            <ns3:hr>81</ns3:hr>
            <ns3:cad>43</ns3:cad>
          </ns3:TrackPointExtension>
        </extensions>
      </trkpt>
      <trkpt lat="43.45304911024868488311767578125" lon="1.45803968422114849090576171875">
        <ele>193.399993896484375</ele>
        <time>2026-08-05T06:53:56.000Z</time>
        <extensions>
          <ns3:TrackPointExtension>
            <ns3:hr>81</ns3:hr>
            <ns3:cad>45</ns3:cad>
          </ns3:TrackPointExtension>
        </extensions>
      </trkpt>
      <trkpt lat="43.45305145718157291412353515625" lon="1.4580528438091278076171875">
        <ele>193.399993896484375</ele>
        <time>2026-08-05T06:53:57.000Z</time>
        <extensions>
          <ns3:TrackPointExtension>
            <ns3:hr>81</ns3:hr>
            <ns3:cad>45</ns3:cad>
          </ns3:TrackPointExtension>
        </extensions>
      </trkpt>
      <trkpt lat="43.45305363647639751434326171875" lon="1.4580637402832508087158203125">
        <ele>193.399993896484375</ele>
        <time>2026-08-05T06:53:58.000Z</time>
        <extensions>
          <ns3:TrackPointExtension>
            <ns3:hr>82</ns3:hr>
            <ns3:cad>45</ns3:cad>
          </ns3:TrackPointExtension>
        </extensions>
      </trkpt>
      <trkpt lat="43.45305615104734897613525390625" lon="1.45807497203350067138671875">
        <ele>193.399993896484375</ele>
        <time>2026-08-05T06:53:59.000Z</time>
        <extensions>
          <ns3:TrackPointExtension>
            <ns3:hr>82</ns3:hr>
            <ns3:cad>45</ns3:cad>
          </ns3:TrackPointExtension>
        </extensions>
      </trkpt>
      <trkpt lat="43.4530605934560298919677734375" lon="1.45808947272598743438720703125">
        <ele>193.600006103515625</ele>
        <time>2026-08-05T06:54:00.000Z</time>
        <extensions>
          <ns3:TrackPointExtension>
            <ns3:hr>82</ns3:hr>
            <ns3:cad>45</ns3:cad>
          </ns3:TrackPointExtension>
        </extensions>
      </trkpt>
      <trkpt lat="43.4530629403889179229736328125" lon="1.4581009559333324432373046875">
        <ele>193.600006103515625</ele>
        <time>2026-08-05T06:54:01.000Z</time>
        <extensions>
          <ns3:TrackPointExtension>
            <ns3:hr>82</ns3:hr>
            <ns3:cad>45</ns3:cad>
          </ns3:TrackPointExtension>
        </extensions>
      </trkpt>
      <trkpt lat="43.45306344330310821533203125" lon="1.45811109803617000579833984375">
        <ele>193.600006103515625</ele>
        <time>2026-08-05T06:54:02.000Z</time>
        <extensions>
          <ns3:TrackPointExtension>
            <ns3:hr>82</ns3:hr>
            <ns3:cad>45</ns3:cad>
          </ns3:TrackPointExtension>
        </extensions>
      </trkpt>
      <trkpt lat="43.45306972973048686981201171875" lon="1.458121575415134429931640625">
        <ele>193.8000030517578125</ele>
        <time>2026-08-05T06:54:03.000Z</time>
        <extensions>
          <ns3:TrackPointExtension>
            <ns3:hr>82</ns3:hr>
            <ns3:cad>45</ns3:cad>
          </ns3:TrackPointExtension>
        </extensions>
      </trkpt>
      <trkpt lat="43.453081212937831878662109375" lon="1.4581297896802425384521484375">
        <ele>193.8000030517578125</ele>
        <time>2026-08-05T06:54:04.000Z</time>
        <extensions>
          <ns3:TrackPointExtension>
            <ns3:hr>82</ns3:hr>
            <ns3:cad>45</ns3:cad>
          </ns3:TrackPointExtension>
        </extensions>
      </trkpt>
      <trkpt lat="43.4530968032777309417724609375" lon="1.45813389681279659271240234375">
        <ele>193.8000030517578125</ele>
        <time>2026-08-05T06:54:05.000Z</time>
        <extensions>
          <ns3:TrackPointExtension>
            <ns3:hr>83</ns3:hr>
            <ns3:cad>47</ns3:cad>
          </ns3:TrackPointExtension>
        </extensions>
      </trkpt>
      <trkpt lat="43.453108370304107666015625" lon="1.4581391774117946624755859375">
        <ele>194</ele>
        <time>2026-08-05T06:54:06.000Z</time>
        <extensions>
          <ns3:TrackPointExtension>
            <ns3:hr>83</ns3:hr>
            <ns3:cad>47</ns3:cad>
          </ns3:TrackPointExtension>
        </extensions>
      </trkpt>
      <trkpt lat="43.453116081655025482177734375" lon="1.45814596675336360931396484375">
        <ele>194</ele>
        <time>2026-08-05T06:54:07.000Z</time>
        <extensions>
          <ns3:TrackPointExtension>
            <ns3:hr>83</ns3:hr>
            <ns3:cad>47</ns3:cad>
          </ns3:TrackPointExtension>
        </extensions>
      </trkpt>
      <trkpt lat="43.453123457729816436767578125" lon="1.45816021598875522613525390625">
        <ele>194.1999969482421875</ele>
        <time>2026-08-05T06:54:08.000Z</time>
        <extensions>
          <ns3:TrackPointExtension>
            <ns3:hr>83</ns3:hr>
            <ns3:cad>47</ns3:cad>
          </ns3:TrackPointExtension>
        </extensions>
      </trkpt>
      <trkpt lat="43.4531283192336559295654296875" lon="1.45817689597606658935546875">
        <ele>194.399993896484375</ele>
        <time>2026-08-05T06:54:09.000Z</time>
        <extensions>
          <ns3:TrackPointExtension>
            <ns3:hr>83</ns3:hr>
            <ns3:cad>46</ns3:cad>
          </ns3:TrackPointExtension>
        </extensions>
      </trkpt>
      <trkpt lat="43.453128151595592498779296875" lon="1.458189301192760467529296875">
        <ele>194.399993896484375</ele>
        <time>2026-08-05T06:54:10.000Z</time>
        <extensions>
          <ns3:TrackPointExtension>
            <ns3:hr>83</ns3:hr>
            <ns3:cad>44</ns3:cad>
          </ns3:TrackPointExtension>
        </extensions>
      </trkpt>
      <trkpt lat="43.4531293250620365142822265625" lon="1.45820162259042263031005859375">
        <ele>194.600006103515625</ele>
        <time>2026-08-05T06:54:11.000Z</time>
        <extensions>
          <ns3:TrackPointExtension>
            <ns3:hr>84</ns3:hr>
            <ns3:cad>45</ns3:cad>
          </ns3:TrackPointExtension>
        </extensions>
      </trkpt>
      <trkpt lat="43.4531279839575290679931640625" lon="1.45821989513933658599853515625">
        <ele>194.600006103515625</ele>
        <time>2026-08-05T06:54:12.000Z</time>
        <extensions>
          <ns3:TrackPointExtension>
            <ns3:hr>84</ns3:hr>
            <ns3:cad>45</ns3:cad>
          </ns3:TrackPointExtension>
        </extensions>
      </trkpt>
      <trkpt lat="43.45312588848173618316650390625" lon="1.458230204880237579345703125">
        <ele>194.600006103515625</ele>
        <time>2026-08-05T06:54:13.000Z</time>
        <extensions>
          <ns3:TrackPointExtension>
            <ns3:hr>84</ns3:hr>
            <ns3:cad>45</ns3:cad>
          </ns3:TrackPointExtension>
        </extensions>
      </trkpt>
      <trkpt lat="43.45312437973916530609130859375" lon="1.4582394249737262725830078125">
        <ele>194.600006103515625</ele>
        <time>2026-08-05T06:54:14.000Z</time>
        <extensions>
          <ns3:TrackPointExtension>
            <ns3:hr>84</ns3:hr>
            <ns3:cad>44</ns3:cad>
          </ns3:TrackPointExtension>
        </extensions>
      </trkpt>
      <trkpt lat="43.45312437973916530609130859375" lon="1.4582558535039424896240234375">
        <ele>194.600006103515625</ele>
        <time>2026-08-05T06:54:15.000Z</time>
        <extensions>
          <ns3:TrackPointExtension>
            <ns3:hr>84</ns3:hr>
            <ns3:cad>44</ns3:cad>
          </ns3:TrackPointExtension>
        </extensions>
      </trkpt>
      <trkpt lat="43.4531219489872455596923828125" lon="1.458271779119968414306640625">
        <ele>194.399993896484375</ele>
        <time>2026-08-05T06:54:16.000Z</time>
        <extensions>
          <ns3:TrackPointExtension>
            <ns3:hr>85</ns3:hr>
            <ns3:cad>43</ns3:cad>
          </ns3:TrackPointExtension>
        </extensions>
      </trkpt>
      <trkpt lat="43.45312035642564296722412109375" lon="1.45828208886086940765380859375">
        <ele>194.399993896484375</ele>
        <time>2026-08-05T06:54:17.000Z</time>
        <extensions>
          <ns3:TrackPointExtension>
            <ns3:hr>84</ns3:hr>
            <ns3:cad>43</ns3:cad>
          </ns3:TrackPointExtension>
        </extensions>
      </trkpt>
      <trkpt lat="43.453119099140167236328125" lon="1.45829013548791408538818359375">
        <ele>194.399993896484375</ele>
        <time>2026-08-05T06:54:18.000Z</time>
        <extensions>
          <ns3:TrackPointExtension>
            <ns3:hr>84</ns3:hr>
            <ns3:cad>43</ns3:cad>
          </ns3:TrackPointExtension>
        </extensions>
      </trkpt>
      <trkpt lat="43.45312102697789669036865234375" lon="1.45830404944717884063720703125">
        <ele>194.399993896484375</ele>
        <time>2026-08-05T06:54:19.000Z</time>
        <extensions>
          <ns3:TrackPointExtension>
            <ns3:hr>85</ns3:hr>
            <ns3:cad>43</ns3:cad>
          </ns3:TrackPointExtension>
        </extensions>
      </trkpt>
      <trkpt lat="43.4531209431588649749755859375" lon="1.45831611938774585723876953125">
        <ele>194.399993896484375</ele>
        <time>2026-08-05T06:54:20.000Z</time>
        <extensions>
          <ns3:TrackPointExtension>
            <ns3:hr>84</ns3:hr>
            <ns3:cad>43</ns3:cad>
          </ns3:TrackPointExtension>
        </extensions>
      </trkpt>
      <trkpt lat="43.45312320627272129058837890625" lon="1.4583265967667102813720703125">
        <ele>194.399993896484375</ele>
        <time>2026-08-05T06:54:21.000Z</time>
        <extensions>
          <ns3:TrackPointExtension>
            <ns3:hr>84</ns3:hr>
            <ns3:cad>44</ns3:cad>
          </ns3:TrackPointExtension>
        </extensions>
      </trkpt>
      <trkpt lat="43.4531249664723873138427734375" lon="1.45833690650761127471923828125">
        <ele>194.399993896484375</ele>
        <time>2026-08-05T06:54:22.000Z</time>
        <extensions>
          <ns3:TrackPointExtension>
            <ns3:hr>84</ns3:hr>
            <ns3:cad>44</ns3:cad>
          </ns3:TrackPointExtension>
        </extensions>
      </trkpt>
      <trkpt lat="43.4531279839575290679931640625" lon="1.4583505690097808837890625">
        <ele>194.399993896484375</ele>
        <time>2026-08-05T06:54:23.000Z</time>
        <extensions>
          <ns3:TrackPointExtension>
            <ns3:hr>84</ns3:hr>
            <ns3:cad>42</ns3:cad>
          </ns3:TrackPointExtension>
        </extensions>
      </trkpt>
      <trkpt lat="43.45312773250043392181396484375" lon="1.45836071111261844635009765625">
        <ele>194.399993896484375</ele>
        <time>2026-08-05T06:54:24.000Z</time>
        <extensions>
          <ns3:TrackPointExtension>
            <ns3:hr>84</ns3:hr>
            <ns3:cad>41</ns3:cad>
          </ns3:TrackPointExtension>
        </extensions>
      </trkpt>
      <trkpt lat="43.45312773250043392181396484375" lon="1.45837680436670780181884765625">
        <ele>194.399993896484375</ele>
        <time>2026-08-05T06:54:25.000Z</time>
        <extensions>
          <ns3:TrackPointExtension>
            <ns3:hr>84</ns3:hr>
            <ns3:cad>41</ns3:cad>
          </ns3:TrackPointExtension>
        </extensions>
      </trkpt>
      <trkpt lat="43.4531303308904170989990234375" lon="1.4583859406411647796630859375">
        <ele>194.399993896484375</ele>
        <time>2026-08-05T06:54:26.000Z</time>
        <extensions>
          <ns3:TrackPointExtension>
            <ns3:hr>84</ns3:hr>
            <ns3:cad>42</ns3:cad>
          </ns3:TrackPointExtension>
        </extensions>
      </trkpt>
      <trkpt lat="43.4531293250620365142822265625" lon="1.45839122124016284942626953125">
        <ele>194.600006103515625</ele>
        <time>2026-08-05T06:54:27.000Z</time>
        <extensions>
          <ns3:TrackPointExtension>
            <ns3:hr>84</ns3:hr>
            <ns3:cad>42</ns3:cad>
          </ns3:TrackPointExtension>
        </extensions>
      </trkpt>
      <trkpt lat="43.45312655903398990631103515625" lon="1.458406560122966766357421875">
        <ele>194.600006103515625</ele>
        <time>2026-08-05T06:54:28.000Z</time>
        <extensions>
          <ns3:TrackPointExtension>
            <ns3:hr>84</ns3:hr>
            <ns3:cad>42</ns3:cad>
          </ns3:TrackPointExtension>
        </extensions>
      </trkpt>
      <trkpt lat="43.453128822147846221923828125" lon="1.45842231810092926025390625">
        <ele>194.600006103515625</ele>
        <time>2026-08-05T06:54:29.000Z</time>
        <extensions>
          <ns3:TrackPointExtension>
            <ns3:hr>83</ns3:hr>
            <ns3:cad>42</ns3:cad>
          </ns3:TrackPointExtension>
        </extensions>
      </trkpt>
      <trkpt lat="43.45313326455652713775634765625" lon="1.458434052765369415283203125">
        <ele>194.600006103515625</ele>
        <time>2026-08-05T06:54:30.000Z</time>
        <extensions>
          <ns3:TrackPointExtension>
            <ns3:hr>84</ns3:hr>
            <ns3:cad>42</ns3:cad>
          </ns3:TrackPointExtension>
        </extensions>
      </trkpt>
      <trkpt lat="43.45313795842230319976806640625" lon="1.4584452845156192779541015625">
        <ele>194.600006103515625</ele>
        <time>2026-08-05T06:54:31.000Z</time>
        <extensions>
          <ns3:TrackPointExtension>
            <ns3:hr>84</ns3:hr>
            <ns3:cad>42</ns3:cad>
          </ns3:TrackPointExtension>
        </extensions>
      </trkpt>
      <trkpt lat="43.453142233192920684814453125" lon="1.45845743827521800994873046875">
        <ele>194.600006103515625</ele>
        <time>2026-08-05T06:54:32.000Z</time>
        <extensions>
          <ns3:TrackPointExtension>
            <ns3:hr>83</ns3:hr>
            <ns3:cad>43</ns3:cad>
          </ns3:TrackPointExtension>
        </extensions>
      </trkpt>
      <trkpt lat="43.45314969308674335479736328125" lon="1.458464898169040679931640625">
        <ele>194.600006103515625</ele>
        <time>2026-08-05T06:54:33.000Z</time>
        <extensions>
          <ns3:TrackPointExtension>
            <ns3:hr>83</ns3:hr>
            <ns3:cad>45</ns3:cad>
          </ns3:TrackPointExtension>
        </extensions>
      </trkpt>
      <trkpt lat="43.4531568177044391632080078125" lon="1.4584774710237979888916015625">
        <ele>194.600006103515625</ele>
        <time>2026-08-05T06:54:34.000Z</time>
        <extensions>
          <ns3:TrackPointExtension>
            <ns3:hr>83</ns3:hr>
            <ns3:cad>45</ns3:cad>
          </ns3:TrackPointExtension>
        </extensions>
      </trkpt>
      <trkpt lat="43.45316193066537380218505859375" lon="1.45849096588790416717529296875">
        <ele>194.600006103515625</ele>
        <time>2026-08-05T06:54:35.000Z</time>
        <extensions>
          <ns3:TrackPointExtension>
            <ns3:hr>83</ns3:hr>
            <ns3:cad>45</ns3:cad>
          </ns3:TrackPointExtension>
        </extensions>
      </trkpt>
      <trkpt lat="43.45316670835018157958984375" lon="1.45850085653364658355712890625">
        <ele>194.600006103515625</ele>
        <time>2026-08-05T06:54:36.000Z</time>
        <extensions>
          <ns3:TrackPointExtension>
            <ns3:hr>83</ns3:hr>
            <ns3:cad>46</ns3:cad>
          </ns3:TrackPointExtension>
        </extensions>
      </trkpt>
      <trkpt lat="43.45316930674016475677490234375" lon="1.45851217210292816162109375">
        <ele>194.600006103515625</ele>
        <time>2026-08-05T06:54:37.000Z</time>
        <extensions>
          <ns3:TrackPointExtension>
            <ns3:hr>84</ns3:hr>
            <ns3:cad>47</ns3:cad>
          </ns3:TrackPointExtension>
        </extensions>
      </trkpt>
      <trkpt lat="43.45316930674016475677490234375" lon="1.4585317857563495635986328125">
        <ele>194.8000030517578125</ele>
        <time>2026-08-05T06:54:38.000Z</time>
        <extensions>
          <ns3:TrackPointExtension>
            <ns3:hr>83</ns3:hr>
            <ns3:cad>48</ns3:cad>
          </ns3:TrackPointExtension>
        </extensions>
      </trkpt>
      <trkpt lat="43.4531698934733867645263671875" lon="1.4585465379059314727783203125">
        <ele>194.8000030517578125</ele>
        <time>2026-08-05T06:54:39.000Z</time>
        <extensions>
          <ns3:TrackPointExtension>
            <ns3:hr>83</ns3:hr>
            <ns3:cad>48</ns3:cad>
          </ns3:TrackPointExtension>
        </extensions>
      </trkpt>
      <trkpt lat="43.4531695581972599029541015625" lon="1.458560116589069366455078125">
        <ele>194.8000030517578125</ele>
        <time>2026-08-05T06:54:40.000Z</time>
        <extensions>
          <ns3:TrackPointExtension>
            <ns3:hr>83</ns3:hr>
            <ns3:cad>47</ns3:cad>
          </ns3:TrackPointExtension>
        </extensions>
      </trkpt>
      <trkpt lat="43.45317282713949680328369140625" lon="1.45857227034866809844970703125">
        <ele>194.8000030517578125</ele>
        <time>2026-08-05T06:54:41.000Z</time>
        <extensions>
          <ns3:TrackPointExtension>
            <ns3:hr>83</ns3:hr>
            <ns3:cad>46</ns3:cad>
          </ns3:TrackPointExtension>
        </extensions>
      </trkpt>
      <trkpt lat="43.4531794488430023193359375" lon="1.458583585917949676513671875">
        <ele>194.8000030517578125</ele>
        <time>2026-08-05T06:54:42.000Z</time>
        <extensions>
          <ns3:TrackPointExtension>
            <ns3:hr>83</ns3:hr>
            <ns3:cad>45</ns3:cad>
          </ns3:TrackPointExtension>
        </extensions>
      </trkpt>
      <trkpt lat="43.45318414270877838134765625" lon="1.45859842188656330108642578125">
        <ele>195</ele>
        <time>2026-08-05T06:54:43.000Z</time>
        <extensions>
          <ns3:TrackPointExtension>
            <ns3:hr>83</ns3:hr>
            <ns3:cad>45</ns3:cad>
          </ns3:TrackPointExtension>
        </extensions>
      </trkpt>
      <trkpt lat="43.45318657346069812774658203125" lon="1.458613090217113494873046875">
        <ele>195</ele>
        <time>2026-08-05T06:54:44.000Z</time>
        <extensions>
          <ns3:TrackPointExtension>
            <ns3:hr>83</ns3:hr>
            <ns3:cad>44</ns3:cad>
          </ns3:TrackPointExtension>
        </extensions>
      </trkpt>
      <trkpt lat="43.45319177024066448211669921875" lon="1.4586241543292999267578125">
        <ele>195</ele>
        <time>2026-08-05T06:54:45.000Z</time>
        <extensions>
          <ns3:TrackPointExtension>
            <ns3:hr>83</ns3:hr>
            <ns3:cad>44</ns3:cad>
          </ns3:TrackPointExtension>
        </extensions>
      </trkpt>
      <trkpt lat="43.45319487154483795166015625" lon="1.4586384035646915435791015625">
        <ele>195</ele>
        <time>2026-08-05T06:54:46.000Z</time>
        <extensions>
          <ns3:TrackPointExtension>
            <ns3:hr>83</ns3:hr>
            <ns3:cad>45</ns3:cad>
          </ns3:TrackPointExtension>
        </extensions>
      </trkpt>
      <trkpt lat="43.4531967155635356903076171875" lon="1.4586563408374786376953125">
        <ele>195</ele>
        <time>2026-08-05T06:54:47.000Z</time>
        <extensions>
          <ns3:TrackPointExtension>
            <ns3:hr>83</ns3:hr>
            <ns3:cad>45</ns3:cad>
          </ns3:TrackPointExtension>
        </extensions>
      </trkpt>
      <trkpt lat="43.45319646410644054412841796875" lon="1.45867000333964824676513671875">
        <ele>195.1999969482421875</ele>
        <time>2026-08-05T06:54:48.000Z</time>
        <extensions>
          <ns3:TrackPointExtension>
            <ns3:hr>83</ns3:hr>
            <ns3:cad>45</ns3:cad>
          </ns3:TrackPointExtension>
        </extensions>
      </trkpt>
      <trkpt lat="43.45319814048707485198974609375" lon="1.458679474890232086181640625">
        <ele>195.1999969482421875</ele>
        <time>2026-08-05T06:54:49.000Z</time>
        <extensions>
          <ns3:TrackPointExtension>
            <ns3:hr>83</ns3:hr>
            <ns3:cad>45</ns3:cad>
          </ns3:TrackPointExtension>
        </extensions>
      </trkpt>
      <trkpt lat="43.453199230134487152099609375" lon="1.45869364030659198760986328125">
        <ele>195.1999969482421875</ele>
        <time>2026-08-05T06:54:50.000Z</time>
        <extensions>
          <ns3:TrackPointExtension>
            <ns3:hr>84</ns3:hr>
            <ns3:cad>45</ns3:cad>
          </ns3:TrackPointExtension>
        </extensions>
      </trkpt>
      <trkpt lat="43.45320501364767551422119140625" lon="1.4587044529616832733154296875">
        <ele>195.1999969482421875</ele>
        <time>2026-08-05T06:54:51.000Z</time>
        <extensions>
          <ns3:TrackPointExtension>
            <ns3:hr>83</ns3:hr>
            <ns3:cad>45</ns3:cad>
          </ns3:TrackPointExtension>
        </extensions>
      </trkpt>
      <trkpt lat="43.45320828258991241455078125" lon="1.45871736109256744384765625">
        <ele>195.1999969482421875</ele>
        <time>2026-08-05T06:54:52.000Z</time>
        <extensions>
          <ns3:TrackPointExtension>
            <ns3:hr>84</ns3:hr>
            <ns3:cad>46</ns3:cad>
          </ns3:TrackPointExtension>
        </extensions>
      </trkpt>
      <trkpt lat="43.4532087855041027069091796875" lon="1.4587336219847202301025390625">
        <ele>195.1999969482421875</ele>
        <time>2026-08-05T06:54:53.000Z</time>
        <extensions>
          <ns3:TrackPointExtension>
            <ns3:hr>84</ns3:hr>
            <ns3:cad>46</ns3:cad>
          </ns3:TrackPointExtension>
        </extensions>
      </trkpt>
      <trkpt lat="43.45321088097989559173583984375" lon="1.45875155925750732421875">
        <ele>195.1999969482421875</ele>
        <time>2026-08-05T06:54:54.000Z</time>
        <extensions>
          <ns3:TrackPointExtension>
            <ns3:hr>83</ns3:hr>
            <ns3:cad>46</ns3:cad>
          </ns3:TrackPointExtension>
        </extensions>
      </trkpt>
      <trkpt lat="43.45321238972246646881103515625" lon="1.4587661437690258026123046875">
        <ele>195.1999969482421875</ele>
        <time>2026-08-05T06:54:55.000Z</time>
        <extensions>
          <ns3:TrackPointExtension>
            <ns3:hr>84</ns3:hr>
            <ns3:cad>47</ns3:cad>
          </ns3:TrackPointExtension>
        </extensions>
      </trkpt>
      <trkpt lat="43.45321322791278362274169921875" lon="1.4587765373289585113525390625">
        <ele>195.1999969482421875</ele>
        <time>2026-08-05T06:54:56.000Z</time>
        <extensions>
          <ns3:TrackPointExtension>
            <ns3:hr>85</ns3:hr>
            <ns3:cad>49</ns3:cad>
          </ns3:TrackPointExtension>
        </extensions>
      </trkpt>
      <trkpt lat="43.4532124735414981842041015625" lon="1.4587877690792083740234375">
        <ele>195.399993896484375</ele>
        <time>2026-08-05T06:54:57.000Z</time>
        <extensions>
          <ns3:TrackPointExtension>
            <ns3:hr>85</ns3:hr>
            <ns3:cad>49</ns3:cad>
          </ns3:TrackPointExtension>
        </extensions>
      </trkpt>
      <trkpt lat="43.45321238972246646881103515625" lon="1.45880076102912425994873046875">
        <ele>195.399993896484375</ele>
        <time>2026-08-05T06:54:58.000Z</time>
        <extensions>
          <ns3:TrackPointExtension>
            <ns3:hr>85</ns3:hr>
            <ns3:cad>49</ns3:cad>
          </ns3:TrackPointExtension>
        </extensions>
      </trkpt>
      <trkpt lat="43.45320987515151500701904296875" lon="1.45881735719740390777587890625">
        <ele>195.600006103515625</ele>
        <time>2026-08-05T06:54:59.000Z</time>
        <extensions>
          <ns3:TrackPointExtension>
            <ns3:hr>85</ns3:hr>
            <ns3:cad>46</ns3:cad>
          </ns3:TrackPointExtension>
        </extensions>
      </trkpt>
      <trkpt lat="43.45321155153214931488037109375" lon="1.45883445627987384796142578125">
        <ele>195.600006103515625</ele>
        <time>2026-08-05T06:55:00.000Z</time>
        <extensions>
          <ns3:TrackPointExtension>
            <ns3:hr>86</ns3:hr>
            <ns3:cad>45</ns3:cad>
          </ns3:TrackPointExtension>
        </extensions>
      </trkpt>
      <trkpt lat="43.4532091207802295684814453125" lon="1.45884820260107517242431640625">
        <ele>195.600006103515625</ele>
        <time>2026-08-05T06:55:01.000Z</time>
        <extensions>
          <ns3:TrackPointExtension>
            <ns3:hr>86</ns3:hr>
            <ns3:cad>43</ns3:cad>
          </ns3:TrackPointExtension>
        </extensions>
      </trkpt>
      <trkpt lat="43.45320694148540496826171875" lon="1.45886194892227649688720703125">
        <ele>195.600006103515625</ele>
        <time>2026-08-05T06:55:02.000Z</time>
        <extensions>
          <ns3:TrackPointExtension>
            <ns3:hr>86</ns3:hr>
            <ns3:cad>43</ns3:cad>
          </ns3:TrackPointExtension>
        </extensions>
      </trkpt>
      <trkpt lat="43.453205265104770660400390625" lon="1.45887720398604869842529296875">
        <ele>195.600006103515625</ele>
        <time>2026-08-05T06:55:03.000Z</time>
        <extensions>
          <ns3:TrackPointExtension>
            <ns3:hr>86</ns3:hr>
            <ns3:cad>43</ns3:cad>
          </ns3:TrackPointExtension>
        </extensions>
      </trkpt>
      <trkpt lat="43.45320652239024639129638671875" lon="1.45888860337436199188232421875">
        <ele>195.600006103515625</ele>
        <time>2026-08-05T06:55:04.000Z</time>
        <extensions>
          <ns3:TrackPointExtension>
            <ns3:hr>86</ns3:hr>
            <ns3:cad>45</ns3:cad>
          </ns3:TrackPointExtension>
        </extensions>
      </trkpt>
      <trkpt lat="43.45320568419992923736572265625" lon="1.45890469662845134735107421875">
        <ele>195.399993896484375</ele>
        <time>2026-08-05T06:55:05.000Z</time>
        <extensions>
          <ns3:TrackPointExtension>
            <ns3:hr>86</ns3:hr>
            <ns3:cad>46</ns3:cad>
          </ns3:TrackPointExtension>
        </extensions>
      </trkpt>
      <trkpt lat="43.45320367254316806793212890625" lon="1.4589165151119232177734375">
        <ele>195.399993896484375</ele>
        <time>2026-08-05T06:55:06.000Z</time>
        <extensions>
          <ns3:TrackPointExtension>
            <ns3:hr>86</ns3:hr>
            <ns3:cad>46</ns3:cad>
          </ns3:TrackPointExtension>
        </extensions>
      </trkpt>
      <trkpt lat="43.45320099033415317535400390625" lon="1.45892431028187274932861328125">
        <ele>195.1999969482421875</ele>
        <time>2026-08-05T06:55:07.000Z</time>
        <extensions>
          <ns3:TrackPointExtension>
            <ns3:hr>87</ns3:hr>
            <ns3:cad>47</ns3:cad>
          </ns3:TrackPointExtension>
        </extensions>
      </trkpt>
      <trkpt lat="43.4532064385712146759033203125" lon="1.45893520675599575042724609375">
        <ele>195.1999969482421875</ele>
        <time>2026-08-05T06:55:08.000Z</time>
        <extensions>
          <ns3:TrackPointExtension>
            <ns3:hr>86</ns3:hr>
            <ns3:cad>47</ns3:cad>
          </ns3:TrackPointExtension>
        </extensions>
      </trkpt>
      <trkpt lat="43.453209958970546722412109375" lon="1.45894928835332393646240234375">
        <ele>195.1999969482421875</ele>
        <time>2026-08-05T06:55:09.000Z</time>
        <extensions>
          <ns3:TrackPointExtension>
            <ns3:hr>86</ns3:hr>
            <ns3:cad>47</ns3:cad>
          </ns3:TrackPointExtension>
        </extensions>
      </trkpt>
      <trkpt lat="43.45321406610310077667236328125" lon="1.45896144211292266845703125">
        <ele>195.1999969482421875</ele>
        <time>2026-08-05T06:55:10.000Z</time>
        <extensions>
          <ns3:TrackPointExtension>
            <ns3:hr>87</ns3:hr>
            <ns3:cad>47</ns3:cad>
          </ns3:TrackPointExtension>
        </extensions>
      </trkpt>
      <trkpt lat="43.45321674831211566925048828125" lon="1.45896588452160358428955078125">
        <ele>195.1999969482421875</ele>
        <time>2026-08-05T06:55:11.000Z</time>
        <extensions>
          <ns3:TrackPointExtension>
            <ns3:hr>86</ns3:hr>
            <ns3:cad>50</ns3:cad>
          </ns3:TrackPointExtension>
        </extensions>
      </trkpt>
      <trkpt lat="43.453223370015621185302734375" lon="1.45898281596601009368896484375">
        <ele>195.399993896484375</ele>
        <time>2026-08-05T06:55:12.000Z</time>
        <extensions>
          <ns3:TrackPointExtension>
            <ns3:hr>86</ns3:hr>
            <ns3:cad>47</ns3:cad>
          </ns3:TrackPointExtension>
        </extensions>
      </trkpt>
      <trkpt lat="43.45322982408106327056884765625" lon="1.4589914493262767791748046875">
        <ele>195.600006103515625</ele>
        <time>2026-08-05T06:55:13.000Z</time>
        <extensions>
          <ns3:TrackPointExtension>
            <ns3:hr>87</ns3:hr>
            <ns3:cad>47</ns3:cad>
          </ns3:TrackPointExtension>
        </extensions>
      </trkpt>
      <trkpt lat="43.45323267392814159393310546875" lon="1.45900192670524120330810546875">
        <ele>195.8000030517578125</ele>
        <time>2026-08-05T06:55:14.000Z</time>
        <extensions>
          <ns3:TrackPointExtension>
            <ns3:hr>86</ns3:hr>
            <ns3:cad>45</ns3:cad>
          </ns3:TrackPointExtension>
        </extensions>
      </trkpt>
      <trkpt lat="43.45323770307004451751708984375" lon="1.45901081152260303497314453125">
        <ele>195.8000030517578125</ele>
        <time>2026-08-05T06:55:15.000Z</time>
        <extensions>
          <ns3:TrackPointExtension>
            <ns3:hr>86</ns3:hr>
            <ns3:cad>44</ns3:cad>
          </ns3:TrackPointExtension>
        </extensions>
      </trkpt>
      <trkpt lat="43.45325119793415069580078125" lon="1.4590243063867092132568359375">
        <ele>196</ele>
        <time>2026-08-05T06:55:16.000Z</time>
        <extensions>
          <ns3:TrackPointExtension>
            <ns3:hr>86</ns3:hr>
            <ns3:cad>44</ns3:cad>
          </ns3:TrackPointExtension>
        </extensions>
      </trkpt>
      <trkpt lat="43.4532597474753856658935546875" lon="1.4590263180434703826904296875">
        <ele>196.1999969482421875</ele>
        <time>2026-08-05T06:55:17.000Z</time>
        <extensions>
          <ns3:TrackPointExtension>
            <ns3:hr>86</ns3:hr>
            <ns3:cad>43</ns3:cad>
          </ns3:TrackPointExtension>
        </extensions>
      </trkpt>
      <trkpt lat="43.453264273703098297119140625" lon="1.4590266533195972442626953125">
        <ele>196.1999969482421875</ele>
        <time>2026-08-05T06:55:18.000Z</time>
        <extensions>
          <ns3:TrackPointExtension>
            <ns3:hr>85</ns3:hr>
            <ns3:cad>43</ns3:cad>
          </ns3:TrackPointExtension>
        </extensions>
      </trkpt>
      <trkpt lat="43.4532724879682064056396484375" lon="1.45903520286083221435546875">
        <ele>196.399993896484375</ele>
        <time>2026-08-05T06:55:19.000Z</time>
        <extensions>
          <ns3:TrackPointExtension>
            <ns3:hr>85</ns3:hr>
            <ns3:cad>42</ns3:cad>
          </ns3:TrackPointExtension>
        </extensions>
      </trkpt>
      <trkpt lat="43.45327978022396564483642578125" lon="1.45903897471725940704345703125">
        <ele>196.399993896484375</ele>
        <time>2026-08-05T06:55:20.000Z</time>
        <extensions>
          <ns3:TrackPointExtension>
            <ns3:hr>84</ns3:hr>
            <ns3:cad>42</ns3:cad>
          </ns3:TrackPointExtension>
        </extensions>
      </trkpt>
      <trkpt lat="43.4532832168042659759521484375" lon="1.45904500968754291534423828125">
        <ele>196.600006103515625</ele>
        <time>2026-08-05T06:55:21.000Z</time>
        <extensions>
          <ns3:TrackPointExtension>
            <ns3:hr>84</ns3:hr>
            <ns3:cad>42</ns3:cad>
          </ns3:TrackPointExtension>
        </extensions>
      </trkpt>
      <trkpt lat="43.4532875753939151763916015625" lon="1.45905439741909503936767578125">
        <ele>196.8000030517578125</ele>
        <time>2026-08-05T06:55:22.000Z</time>
        <extensions>
          <ns3:TrackPointExtension>
            <ns3:hr>84</ns3:hr>
            <ns3:cad>42</ns3:cad>
          </ns3:TrackPointExtension>
        </extensions>
      </trkpt>
      <trkpt lat="43.45329671166837215423583984375" lon="1.45906764082610607147216796875">
        <ele>196.8000030517578125</ele>
        <time>2026-08-05T06:55:23.000Z</time>
        <extensions>
          <ns3:TrackPointExtension>
            <ns3:hr>84</ns3:hr>
            <ns3:cad>42</ns3:cad>
          </ns3:TrackPointExtension>
        </extensions>
      </trkpt>
      <trkpt lat="43.4533013217151165008544921875" lon="1.45907669328153133392333984375">
        <ele>197</ele>
        <time>2026-08-05T06:55:24.000Z</time>
        <extensions>
          <ns3:TrackPointExtension>
            <ns3:hr>83</ns3:hr>
            <ns3:cad>41</ns3:cad>
          </ns3:TrackPointExtension>
        </extensions>
      </trkpt>
      <trkpt lat="43.4533036686480045318603515625" lon="1.45908155478537082672119140625">
        <ele>197</ele>
        <time>2026-08-05T06:55:25.000Z</time>
        <extensions>
          <ns3:TrackPointExtension>
            <ns3:hr>83</ns3:hr>
            <ns3:cad>41</ns3:cad>
          </ns3:TrackPointExtension>
        </extensions>
      </trkpt>
      <trkpt lat="43.45331498421728610992431640625" lon="1.45910091698169708251953125">
        <ele>197.1999969482421875</ele>
        <time>2026-08-05T06:55:26.000Z</time>
        <extensions>
          <ns3:TrackPointExtension>
            <ns3:hr>84</ns3:hr>
            <ns3:cad>41</ns3:cad>
          </ns3:TrackPointExtension>
        </extensions>
      </trkpt>
      <trkpt lat="43.45332152210175991058349609375" lon="1.45911055617034435272216796875">
        <ele>197.399993896484375</ele>
        <time>2026-08-05T06:55:27.000Z</time>
        <extensions>
          <ns3:TrackPointExtension>
            <ns3:hr>85</ns3:hr>
            <ns3:cad>41</ns3:cad>
          </ns3:TrackPointExtension>
        </extensions>
      </trkpt>
      <trkpt lat="43.45332521013915538787841796875" lon="1.45911701023578643798828125">
        <ele>197.399993896484375</ele>
        <time>2026-08-05T06:55:28.000Z</time>
        <extensions>
          <ns3:TrackPointExtension>
            <ns3:hr>85</ns3:hr>
            <ns3:cad>42</ns3:cad>
          </ns3:TrackPointExtension>
        </extensions>
      </trkpt>
      <trkpt lat="43.45332940109074115753173828125" lon="1.45912782289087772369384765625">
        <ele>197.600006103515625</ele>
        <time>2026-08-05T06:55:29.000Z</time>
        <extensions>
          <ns3:TrackPointExtension>
            <ns3:hr>86</ns3:hr>
            <ns3:cad>42</ns3:cad>
          </ns3:TrackPointExtension>
        </extensions>
      </trkpt>
      <trkpt lat="43.4533376991748809814453125" lon="1.45914492197334766387939453125">
        <ele>197.600006103515625</ele>
        <time>2026-08-05T06:55:30.000Z</time>
        <extensions>
          <ns3:TrackPointExtension>
            <ns3:hr>86</ns3:hr>
            <ns3:cad>43</ns3:cad>
          </ns3:TrackPointExtension>
        </extensions>
      </trkpt>
      <trkpt lat="43.453340716660022735595703125" lon="1.4591577462852001190185546875">
        <ele>197.8000030517578125</ele>
        <time>2026-08-05T06:55:31.000Z</time>
        <extensions>
          <ns3:TrackPointExtension>
            <ns3:hr>87</ns3:hr>
            <ns3:cad>43</ns3:cad>
          </ns3:TrackPointExtension>
        </extensions>
      </trkpt>
      <trkpt lat="43.45334616489708423614501953125" lon="1.45916101522743701934814453125">
        <ele>197.8000030517578125</ele>
        <time>2026-08-05T06:55:32.000Z</time>
        <extensions>
          <ns3:TrackPointExtension>
            <ns3:hr>88</ns3:hr>
            <ns3:cad>44</ns3:cad>
          </ns3:TrackPointExtension>
        </extensions>
      </trkpt>
      <trkpt lat="43.45335320569574832916259765625" lon="1.45917643792927265167236328125">
        <ele>198</ele>
        <time>2026-08-05T06:55:33.000Z</time>
        <extensions>
          <ns3:TrackPointExtension>
            <ns3:hr>88</ns3:hr>
            <ns3:cad>44</ns3:cad>
          </ns3:TrackPointExtension>
        </extensions>
      </trkpt>
      <trkpt lat="43.45335219986736774444580078125" lon="1.45918071269989013671875">
        <ele>198</ele>
        <time>2026-08-05T06:55:34.000Z</time>
        <extensions>
          <ns3:TrackPointExtension>
            <ns3:hr>89</ns3:hr>
            <ns3:cad>44</ns3:cad>
          </ns3:TrackPointExtension>
        </extensions>
      </trkpt>
      <trkpt lat="43.4533553011715412139892578125" lon="1.45918213762342929840087890625">
        <ele>198</ele>
        <time>2026-08-05T06:55:35.000Z</time>
        <extensions>
          <ns3:TrackPointExtension>
            <ns3:hr>90</ns3:hr>
            <ns3:cad>0</ns3:cad>
          </ns3:TrackPointExtension>
        </extensions>
      </trkpt>
      <trkpt lat="43.4533631801605224609375" lon="1.45918666385114192962646484375">
        <ele>198.1999969482421875</ele>
        <time>2026-08-05T06:55:36.000Z</time>
        <extensions>
          <ns3:TrackPointExtension>
            <ns3:hr>91</ns3:hr>
            <ns3:cad>0</ns3:cad>
          </ns3:TrackPointExtension>
        </extensions>
      </trkpt>
      <trkpt lat="43.45336594618856906890869140625" lon="1.4591939561069011688232421875">
        <ele>198.1999969482421875</ele>
        <time>2026-08-05T06:55:37.000Z</time>
        <extensions>
          <ns3:TrackPointExtension>
            <ns3:hr>92</ns3:hr>
            <ns3:cad>0</ns3:cad>
          </ns3:TrackPointExtension>
        </extensions>
      </trkpt>
      <trkpt lat="43.4533670358359813690185546875" lon="1.45919873379170894622802734375">
        <ele>198.1999969482421875</ele>
        <time>2026-08-05T06:55:38.000Z</time>
        <extensions>
          <ns3:TrackPointExtension>
            <ns3:hr>92</ns3:hr>
            <ns3:cad>0</ns3:cad>
          </ns3:TrackPointExtension>
        </extensions>
      </trkpt>
      <trkpt lat="43.45337265171110630035400390625" lon="1.459210216999053955078125">
        <ele>198.1999969482421875</ele>
        <time>2026-08-05T06:55:39.000Z</time>
        <extensions>
          <ns3:TrackPointExtension>
            <ns3:hr>93</ns3:hr>
            <ns3:cad>43</ns3:cad>
          </ns3:TrackPointExtension>
        </extensions>
      </trkpt>
      <trkpt lat="43.45337617211043834686279296875" lon="1.45922161638736724853515625">
        <ele>198</ele>
        <time>2026-08-05T06:55:40.000Z</time>
        <extensions>
          <ns3:TrackPointExtension>
            <ns3:hr>94</ns3:hr>
            <ns3:cad>43</ns3:cad>
          </ns3:TrackPointExtension>
        </extensions>
      </trkpt>
      <trkpt lat="43.4533806145191192626953125" lon="1.459232009947299957275390625">
        <ele>198</ele>
        <time>2026-08-05T06:55:41.000Z</time>
        <extensions>
          <ns3:TrackPointExtension>
            <ns3:hr>95</ns3:hr>
            <ns3:cad>43</ns3:cad>
          </ns3:TrackPointExtension>
        </extensions>
      </trkpt>
      <trkpt lat="43.45338405109941959381103515625" lon="1.4592397212982177734375">
        <ele>197.8000030517578125</ele>
        <time>2026-08-05T06:55:42.000Z</time>
        <extensions>
          <ns3:TrackPointExtension>
            <ns3:hr>96</ns3:hr>
            <ns3:cad>43</ns3:cad>
          </ns3:TrackPointExtension>
        </extensions>
      </trkpt>
      <trkpt lat="43.45338664948940277099609375" lon="1.459253467619419097900390625">
        <ele>197.8000030517578125</ele>
        <time>2026-08-05T06:55:43.000Z</time>
        <extensions>
          <ns3:TrackPointExtension>
            <ns3:hr>97</ns3:hr>
            <ns3:cad>47</ns3:cad>
          </ns3:TrackPointExtension>
        </extensions>
      </trkpt>
      <trkpt lat="43.45338321290910243988037109375" lon="1.4592646993696689605712890625">
        <ele>197.600006103515625</ele>
        <time>2026-08-05T06:55:44.000Z</time>
        <extensions>
          <ns3:TrackPointExtension>
            <ns3:hr>97</ns3:hr>
            <ns3:cad>47</ns3:cad>
          </ns3:TrackPointExtension>
        </extensions>
      </trkpt>
      <trkpt lat="43.453384973108768463134765625" lon="1.459280960261821746826171875">
        <ele>197.600006103515625</ele>
        <time>2026-08-05T06:55:45.000Z</time>
        <extensions>
          <ns3:TrackPointExtension>
            <ns3:hr>97</ns3:hr>
            <ns3:cad>47</ns3:cad>
          </ns3:TrackPointExtension>
        </extensions>
      </trkpt>
      <trkpt lat="43.453387655317783355712890625" lon="1.45929663442075252532958984375">
        <ele>197.399993896484375</ele>
        <time>2026-08-05T06:55:46.000Z</time>
        <extensions>
          <ns3:TrackPointExtension>
            <ns3:hr>97</ns3:hr>
            <ns3:cad>49</ns3:cad>
          </ns3:TrackPointExtension>
        </extensions>
      </trkpt>
      <trkpt lat="43.45339528284966945648193359375" lon="1.45930702798068523406982421875">
        <ele>197.399993896484375</ele>
        <time>2026-08-05T06:55:47.000Z</time>
        <extensions>
          <ns3:TrackPointExtension>
            <ns3:hr>97</ns3:hr>
            <ns3:cad>50</ns3:cad>
          </ns3:TrackPointExtension>
        </extensions>
      </trkpt>
      <trkpt lat="43.453403748571872711181640625" lon="1.4593186788260936737060546875">
        <ele>197.1999969482421875</ele>
        <time>2026-08-05T06:55:48.000Z</time>
        <extensions>
          <ns3:TrackPointExtension>
            <ns3:hr>97</ns3:hr>
            <ns3:cad>50</ns3:cad>
          </ns3:TrackPointExtension>
        </extensions>
      </trkpt>
      <trkpt lat="43.45340634696185588836669921875" lon="1.4593324251472949981689453125">
        <ele>197.1999969482421875</ele>
        <time>2026-08-05T06:55:49.000Z</time>
        <extensions>
          <ns3:TrackPointExtension>
            <ns3:hr>98</ns3:hr>
            <ns3:cad>50</ns3:cad>
          </ns3:TrackPointExtension>
        </extensions>
      </trkpt>
      <trkpt lat="43.4534133039414882659912109375" lon="1.45934692583978176116943359375">
        <ele>197.1999969482421875</ele>
        <time>2026-08-05T06:55:50.000Z</time>
        <extensions>
          <ns3:TrackPointExtension>
            <ns3:hr>98</ns3:hr>
            <ns3:cad>49</ns3:cad>
          </ns3:TrackPointExtension>
        </extensions>
      </trkpt>
      <trkpt lat="43.45341774635016918182373046875" lon="1.4593565650284290313720703125">
        <ele>197.1999969482421875</ele>
        <time>2026-08-05T06:55:51.000Z</time>
        <extensions>
          <ns3:TrackPointExtension>
            <ns3:hr>99</ns3:hr>
            <ns3:cad>49</ns3:cad>
          </ns3:TrackPointExtension>
        </extensions>
      </trkpt>
      <trkpt lat="43.453420512378215789794921875" lon="1.45936788059771060943603515625">
        <ele>197.1999969482421875</ele>
        <time>2026-08-05T06:55:52.000Z</time>
        <extensions>
          <ns3:TrackPointExtension>
            <ns3:hr>99</ns3:hr>
            <ns3:cad>49</ns3:cad>
          </ns3:TrackPointExtension>
        </extensions>
      </trkpt>
      <trkpt lat="43.45342294313013553619384765625" lon="1.459376178681850433349609375">
        <ele>197.1999969482421875</ele>
        <time>2026-08-05T06:55:53.000Z</time>
        <extensions>
          <ns3:TrackPointExtension>
            <ns3:hr>99</ns3:hr>
            <ns3:cad>50</ns3:cad>
          </ns3:TrackPointExtension>
        </extensions>
      </trkpt>
      <trkpt lat="43.45343048684298992156982421875" lon="1.4593921042978763580322265625">
        <ele>197.1999969482421875</ele>
        <time>2026-08-05T06:55:54.000Z</time>
        <extensions>
          <ns3:TrackPointExtension>
            <ns3:hr>98</ns3:hr>
            <ns3:cad>50</ns3:cad>
          </ns3:TrackPointExtension>
        </extensions>
      </trkpt>
      <trkpt lat="43.45343601889908313751220703125" lon="1.459402330219745635986328125">
        <ele>197</ele>
        <time>2026-08-05T06:55:55.000Z</time>
        <extensions>
          <ns3:TrackPointExtension>
            <ns3:hr>97</ns3:hr>
            <ns3:cad>48</ns3:cad>
          </ns3:TrackPointExtension>
        </extensions>
      </trkpt>
      <trkpt lat="43.4534404613077640533447265625" lon="1.45941548980772495269775390625">
        <ele>197</ele>
        <time>2026-08-05T06:55:56.000Z</time>
        <extensions>
          <ns3:TrackPointExtension>
            <ns3:hr>97</ns3:hr>
            <ns3:cad>48</ns3:cad>
          </ns3:TrackPointExtension>
        </extensions>
      </trkpt>
      <trkpt lat="43.453444652259349822998046875" lon="1.45942621864378452301025390625">
        <ele>197</ele>
        <time>2026-08-05T06:55:57.000Z</time>
        <extensions>
          <ns3:TrackPointExtension>
            <ns3:hr>96</ns3:hr>
            <ns3:cad>47</ns3:cad>
          </ns3:TrackPointExtension>
        </extensions>
      </trkpt>
      <trkpt lat="43.4534515254199504852294921875" lon="1.459439881145954132080078125">
        <ele>197</ele>
        <time>2026-08-05T06:55:58.000Z</time>
        <extensions>
          <ns3:TrackPointExtension>
            <ns3:hr>95</ns3:hr>
            <ns3:cad>44</ns3:cad>
          </ns3:TrackPointExtension>
        </extensions>
      </trkpt>
      <trkpt lat="43.45345311798155307769775390625" lon="1.459446251392364501953125">
        <ele>197</ele>
        <time>2026-08-05T06:55:59.000Z</time>
        <extensions>
          <ns3:TrackPointExtension>
            <ns3:hr>94</ns3:hr>
            <ns3:cad>44</ns3:cad>
          </ns3:TrackPointExtension>
        </extensions>
      </trkpt>
      <trkpt lat="43.4534552134573459625244140625" lon="1.459457315504550933837890625">
        <ele>197</ele>
        <time>2026-08-05T06:56:00.000Z</time>
        <extensions>
          <ns3:TrackPointExtension>
            <ns3:hr>94</ns3:hr>
            <ns3:cad>44</ns3:cad>
          </ns3:TrackPointExtension>
        </extensions>
      </trkpt>
      <trkpt lat="43.45346183516085147857666015625" lon="1.45946879871189594268798828125">
        <ele>197</ele>
        <time>2026-08-05T06:56:01.000Z</time>
        <extensions>
          <ns3:TrackPointExtension>
            <ns3:hr>94</ns3:hr>
            <ns3:cad>44</ns3:cad>
          </ns3:TrackPointExtension>
        </extensions>
      </trkpt>
      <trkpt lat="43.45347155816853046417236328125" lon="1.4594797790050506591796875">
        <ele>197</ele>
        <time>2026-08-05T06:56:02.000Z</time>
        <extensions>
          <ns3:TrackPointExtension>
            <ns3:hr>94</ns3:hr>
            <ns3:cad>44</ns3:cad>
          </ns3:TrackPointExtension>
        </extensions>
      </trkpt>
      <trkpt lat="43.45347776077687740325927734375" lon="1.45948958583176136016845703125">
        <ele>197</ele>
        <time>2026-08-05T06:56:03.000Z</time>
        <extensions>
          <ns3:TrackPointExtension>
            <ns3:hr>94</ns3:hr>
            <ns3:cad>44</ns3:cad>
          </ns3:TrackPointExtension>
        </extensions>
      </trkpt>
      <trkpt lat="43.4534827060997486114501953125" lon="1.459496878087520599365234375">
        <ele>197</ele>
        <time>2026-08-05T06:56:04.000Z</time>
        <extensions>
          <ns3:TrackPointExtension>
            <ns3:hr>93</ns3:hr>
            <ns3:cad>44</ns3:cad>
          </ns3:TrackPointExtension>
        </extensions>
      </trkpt>
      <trkpt lat="43.45348656177520751953125" lon="1.4595054276287555694580078125">
        <ele>196.8000030517578125</ele>
        <time>2026-08-05T06:56:05.000Z</time>
        <extensions>
          <ns3:TrackPointExtension>
            <ns3:hr>94</ns3:hr>
            <ns3:cad>45</ns3:cad>
          </ns3:TrackPointExtension>
        </extensions>
      </trkpt>
      <trkpt lat="43.4534930996596813201904296875" lon="1.45951422862708568572998046875">
        <ele>196.8000030517578125</ele>
        <time>2026-08-05T06:56:06.000Z</time>
        <extensions>
          <ns3:TrackPointExtension>
            <ns3:hr>93</ns3:hr>
            <ns3:cad>46</ns3:cad>
          </ns3:TrackPointExtension>
        </extensions>
      </trkpt>
      <trkpt lat="43.453497625887393951416015625" lon="1.45952160470187664031982421875">
        <ele>196.8000030517578125</ele>
        <time>2026-08-05T06:56:07.000Z</time>
        <extensions>
          <ns3:TrackPointExtension>
            <ns3:hr>93</ns3:hr>
            <ns3:cad>46</ns3:cad>
          </ns3:TrackPointExtension>
        </extensions>
      </trkpt>
      <trkpt lat="43.453502319753170013427734375" lon="1.4595299027860164642333984375">
        <ele>197</ele>
        <time>2026-08-05T06:56:08.000Z</time>
        <extensions>
          <ns3:TrackPointExtension>
            <ns3:hr>93</ns3:hr>
            <ns3:cad>45</ns3:cad>
          </ns3:TrackPointExtension>
        </extensions>
      </trkpt>
      <trkpt lat="43.45351145602762699127197265625" lon="1.4595396257936954498291015625">
        <ele>197</ele>
        <time>2026-08-05T06:56:09.000Z</time>
        <extensions>
          <ns3:TrackPointExtension>
            <ns3:hr>92</ns3:hr>
            <ns3:cad>45</ns3:cad>
          </ns3:TrackPointExtension>
        </extensions>
      </trkpt>
      <trkpt lat="43.45351941883563995361328125" lon="1.45954708568751811981201171875">
        <ele>197</ele>
        <time>2026-08-05T06:56:10.000Z</time>
        <extensions>
          <ns3:TrackPointExtension>
            <ns3:hr>91</ns3:hr>
            <ns3:cad>42</ns3:cad>
          </ns3:TrackPointExtension>
        </extensions>
      </trkpt>
      <trkpt lat="43.453525789082050323486328125" lon="1.459555216133594512939453125">
        <ele>197</ele>
        <time>2026-08-05T06:56:11.000Z</time>
        <extensions>
          <ns3:TrackPointExtension>
            <ns3:hr>91</ns3:hr>
            <ns3:cad>41</ns3:cad>
          </ns3:TrackPointExtension>
        </extensions>
      </trkpt>
      <trkpt lat="43.453532159328460693359375" lon="1.45956586115062236785888671875">
        <ele>197</ele>
        <time>2026-08-05T06:56:12.000Z</time>
        <extensions>
          <ns3:TrackPointExtension>
            <ns3:hr>91</ns3:hr>
            <ns3:cad>41</ns3:cad>
          </ns3:TrackPointExtension>
        </extensions>
      </trkpt>
      <trkpt lat="43.45353760756552219390869140625" lon="1.459574662148952484130859375">
        <ele>196.8000030517578125</ele>
        <time>2026-08-05T06:56:13.000Z</time>
        <extensions>
          <ns3:TrackPointExtension>
            <ns3:hr>90</ns3:hr>
            <ns3:cad>41</ns3:cad>
          </ns3:TrackPointExtension>
        </extensions>
      </trkpt>
      <trkpt lat="43.4535420499742031097412109375" lon="1.45958011038601398468017578125">
        <ele>196.8000030517578125</ele>
        <time>2026-08-05T06:56:14.000Z</time>
        <extensions>
          <ns3:TrackPointExtension>
            <ns3:hr>90</ns3:hr>
            <ns3:cad>43</ns3:cad>
          </ns3:TrackPointExtension>
        </extensions>
      </trkpt>
      <trkpt lat="43.4535474143922328948974609375" lon="1.45959067158401012420654296875">
        <ele>196.8000030517578125</ele>
        <time>2026-08-05T06:56:15.000Z</time>
        <extensions>
          <ns3:TrackPointExtension>
            <ns3:hr>90</ns3:hr>
            <ns3:cad>43</ns3:cad>
          </ns3:TrackPointExtension>
        </extensions>
      </trkpt>
      <trkpt lat="43.45355118624866008758544921875" lon="1.459599472582340240478515625">
        <ele>196.8000030517578125</ele>
        <time>2026-08-05T06:56:16.000Z</time>
        <extensions>
          <ns3:TrackPointExtension>
            <ns3:hr>90</ns3:hr>
            <ns3:cad>44</ns3:cad>
          </ns3:TrackPointExtension>
        </extensions>
      </trkpt>
      <trkpt lat="43.45355772413313388824462890625" lon="1.45960994996130466461181640625">
        <ele>196.8000030517578125</ele>
        <time>2026-08-05T06:56:17.000Z</time>
        <extensions>
          <ns3:TrackPointExtension>
            <ns3:hr>90</ns3:hr>
            <ns3:cad>44</ns3:cad>
          </ns3:TrackPointExtension>
        </extensions>
      </trkpt>
      <trkpt lat="43.45356074161827564239501953125" lon="1.45961883477866649627685546875">
        <ele>197</ele>
        <time>2026-08-05T06:56:18.000Z</time>
        <extensions>
          <ns3:TrackPointExtension>
            <ns3:hr>90</ns3:hr>
            <ns3:cad>44</ns3:cad>
          </ns3:TrackPointExtension>
        </extensions>
      </trkpt>
      <trkpt lat="43.453564010560512542724609375" lon="1.45962889306247234344482421875">
        <ele>197</ele>
        <time>2026-08-05T06:56:19.000Z</time>
        <extensions>
          <ns3:TrackPointExtension>
            <ns3:hr>90</ns3:hr>
            <ns3:cad>44</ns3:cad>
          </ns3:TrackPointExtension>
        </extensions>
      </trkpt>
      <trkpt lat="43.45356979407370090484619140625" lon="1.459641046822071075439453125">
        <ele>197</ele>
        <time>2026-08-05T06:56:20.000Z</time>
        <extensions>
          <ns3:TrackPointExtension>
            <ns3:hr>89</ns3:hr>
            <ns3:cad>44</ns3:cad>
          </ns3:TrackPointExtension>
        </extensions>
      </trkpt>
      <trkpt lat="43.4535775892436504364013671875" lon="1.45965102128684520721435546875">
        <ele>197</ele>
        <time>2026-08-05T06:56:21.000Z</time>
        <extensions>
          <ns3:TrackPointExtension>
            <ns3:hr>89</ns3:hr>
            <ns3:cad>44</ns3:cad>
          </ns3:TrackPointExtension>
        </extensions>
      </trkpt>
      <trkpt lat="43.45358689315617084503173828125" lon="1.45965957082808017730712890625">
        <ele>197</ele>
        <time>2026-08-05T06:56:22.000Z</time>
        <extensions>
          <ns3:TrackPointExtension>
            <ns3:hr>89</ns3:hr>
            <ns3:cad>44</ns3:cad>
          </ns3:TrackPointExtension>
        </extensions>
      </trkpt>
      <trkpt lat="43.45359192229807376861572265625" lon="1.45967046730220317840576171875">
        <ele>197</ele>
        <time>2026-08-05T06:56:23.000Z</time>
        <extensions>
          <ns3:TrackPointExtension>
            <ns3:hr>89</ns3:hr>
            <ns3:cad>44</ns3:cad>
          </ns3:TrackPointExtension>
        </extensions>
      </trkpt>
      <trkpt lat="43.45359812490642070770263671875" lon="1.45968253724277019500732421875">
        <ele>197</ele>
        <time>2026-08-05T06:56:24.000Z</time>
        <extensions>
          <ns3:TrackPointExtension>
            <ns3:hr>88</ns3:hr>
            <ns3:cad>44</ns3:cad>
          </ns3:TrackPointExtension>
        </extensions>
      </trkpt>
      <trkpt lat="43.45360390841960906982421875" lon="1.45969443954527378082275390625">
        <ele>197.1999969482421875</ele>
        <time>2026-08-05T06:56:25.000Z</time>
        <extensions>
          <ns3:TrackPointExtension>
            <ns3:hr>88</ns3:hr>
            <ns3:cad>44</ns3:cad>
          </ns3:TrackPointExtension>
        </extensions>
      </trkpt>
      <trkpt lat="43.4536101110279560089111328125" lon="1.4597079344093799591064453125">
        <ele>197.1999969482421875</ele>
        <time>2026-08-05T06:56:26.000Z</time>
        <extensions>
          <ns3:TrackPointExtension>
            <ns3:hr>87</ns3:hr>
            <ns3:cad>44</ns3:cad>
          </ns3:TrackPointExtension>
        </extensions>
      </trkpt>
      <trkpt lat="43.45361597836017608642578125" lon="1.4597211778163909912109375">
        <ele>197.1999969482421875</ele>
        <time>2026-08-05T06:56:27.000Z</time>
        <extensions>
          <ns3:TrackPointExtension>
            <ns3:hr>86</ns3:hr>
            <ns3:cad>45</ns3:cad>
          </ns3:TrackPointExtension>
        </extensions>
      </trkpt>
      <trkpt lat="43.45362402498722076416015625" lon="1.45974020473659038543701171875">
        <ele>197.1999969482421875</ele>
        <time>2026-08-05T06:56:28.000Z</time>
        <extensions>
          <ns3:TrackPointExtension>
            <ns3:hr>85</ns3:hr>
            <ns3:cad>46</ns3:cad>
          </ns3:TrackPointExtension>
        </extensions>
      </trkpt>
      <trkpt lat="43.45362846739590167999267578125" lon="1.45974054001271724700927734375">
        <ele>197.1999969482421875</ele>
        <time>2026-08-05T06:56:29.000Z</time>
        <extensions>
          <ns3:TrackPointExtension>
            <ns3:hr>84</ns3:hr>
            <ns3:cad>46</ns3:cad>
          </ns3:TrackPointExtension>
        </extensions>
      </trkpt>
      <trkpt lat="43.45363601110875606536865234375" lon="1.45975260995328426361083984375">
        <ele>197.1999969482421875</ele>
        <time>2026-08-05T06:56:30.000Z</time>
        <extensions>
          <ns3:TrackPointExtension>
            <ns3:hr>84</ns3:hr>
            <ns3:cad>46</ns3:cad>
          </ns3:TrackPointExtension>
        </extensions>
      </trkpt>
      <trkpt lat="43.453643806278705596923828125" lon="1.4597689546644687652587890625">
        <ele>197.1999969482421875</ele>
        <time>2026-08-05T06:56:31.000Z</time>
        <extensions>
          <ns3:TrackPointExtension>
            <ns3:hr>84</ns3:hr>
            <ns3:cad>47</ns3:cad>
          </ns3:TrackPointExtension>
        </extensions>
      </trkpt>
      <trkpt lat="43.45365361310541629791259765625" lon="1.459777168929576873779296875">
        <ele>197.1999969482421875</ele>
        <time>2026-08-05T06:56:32.000Z</time>
        <extensions>
          <ns3:TrackPointExtension>
            <ns3:hr>84</ns3:hr>
            <ns3:cad>47</ns3:cad>
          </ns3:TrackPointExtension>
        </extensions>
      </trkpt>
      <trkpt lat="43.453663252294063568115234375" lon="1.459787897765636444091796875">
        <ele>197.1999969482421875</ele>
        <time>2026-08-05T06:56:33.000Z</time>
        <extensions>
          <ns3:TrackPointExtension>
            <ns3:hr>84</ns3:hr>
            <ns3:cad>47</ns3:cad>
          </ns3:TrackPointExtension>
        </extensions>
      </trkpt>
      <trkpt lat="43.45367171801626682281494140625" lon="1.45979837514460086822509765625">
        <ele>197.1999969482421875</ele>
        <time>2026-08-05T06:56:34.000Z</time>
        <extensions>
          <ns3:TrackPointExtension>
            <ns3:hr>83</ns3:hr>
            <ns3:cad>47</ns3:cad>
          </ns3:TrackPointExtension>
        </extensions>
      </trkpt>
      <trkpt lat="43.453680686652660369873046875" lon="1.45980692468583583831787109375">
        <ele>197.1999969482421875</ele>
        <time>2026-08-05T06:56:35.000Z</time>
        <extensions>
          <ns3:TrackPointExtension>
            <ns3:hr>83</ns3:hr>
            <ns3:cad>47</ns3:cad>
          </ns3:TrackPointExtension>
        </extensions>
      </trkpt>
      <trkpt lat="43.4536899067461490631103515625" lon="1.4598177373409271240234375">
        <ele>197.1999969482421875</ele>
        <time>2026-08-05T06:56:36.000Z</time>
        <extensions>
          <ns3:TrackPointExtension>
            <ns3:hr>83</ns3:hr>
            <ns3:cad>48</ns3:cad>
          </ns3:TrackPointExtension>
        </extensions>
      </trkpt>
      <trkpt lat="43.4536976180970668792724609375" lon="1.45982553251087665557861328125">
        <ele>197.1999969482421875</ele>
        <time>2026-08-05T06:56:37.000Z</time>
        <extensions>
          <ns3:TrackPointExtension>
            <ns3:hr>82</ns3:hr>
            <ns3:cad>48</ns3:cad>
          </ns3:TrackPointExtension>
        </extensions>
      </trkpt>
      <trkpt lat="43.45370390452444553375244140625" lon="1.45983844064176082611083984375">
        <ele>197.1999969482421875</ele>
        <time>2026-08-05T06:56:38.000Z</time>
        <extensions>
          <ns3:TrackPointExtension>
            <ns3:hr>82</ns3:hr>
            <ns3:cad>48</ns3:cad>
          </ns3:TrackPointExtension>
        </extensions>
      </trkpt>
      <trkpt lat="43.453709520399570465087890625" lon="1.45985201932489871978759765625">
        <ele>197.1999969482421875</ele>
        <time>2026-08-05T06:56:39.000Z</time>
        <extensions>
          <ns3:TrackPointExtension>
            <ns3:hr>80</ns3:hr>
            <ns3:cad>48</ns3:cad>
          </ns3:TrackPointExtension>
        </extensions>
      </trkpt>
      <trkpt lat="43.453712202608585357666015625" lon="1.459860317409038543701171875">
        <ele>197.1999969482421875</ele>
        <time>2026-08-05T06:56:40.000Z</time>
        <extensions>
          <ns3:TrackPointExtension>
            <ns3:hr>80</ns3:hr>
            <ns3:cad>47</ns3:cad>
          </ns3:TrackPointExtension>
        </extensions>
      </trkpt>
      <trkpt lat="43.453718908131122589111328125" lon="1.45986936986446380615234375">
        <ele>197.1999969482421875</ele>
        <time>2026-08-05T06:56:41.000Z</time>
        <extensions>
          <ns3:TrackPointExtension>
            <ns3:hr>79</ns3:hr>
            <ns3:cad>46</ns3:cad>
          </ns3:TrackPointExtension>
        </extensions>
      </trkpt>
      <trkpt lat="43.4537271223962306976318359375" lon="1.45988185890018939971923828125">
        <ele>197.399993896484375</ele>
        <time>2026-08-05T06:56:42.000Z</time>
        <extensions>
          <ns3:TrackPointExtension>
            <ns3:hr>78</ns3:hr>
            <ns3:cad>46</ns3:cad>
          </ns3:TrackPointExtension>
        </extensions>
      </trkpt>
      <trkpt lat="43.45373290590941905975341796875" lon="1.45989057607948780059814453125">
        <ele>197.399993896484375</ele>
        <time>2026-08-05T06:56:43.000Z</time>
        <extensions>
          <ns3:TrackPointExtension>
            <ns3:hr>78</ns3:hr>
            <ns3:cad>45</ns3:cad>
          </ns3:TrackPointExtension>
        </extensions>
      </trkpt>
      <trkpt lat="43.4537405334413051605224609375" lon="1.459901891648769378662109375">
        <ele>197.399993896484375</ele>
        <time>2026-08-05T06:56:44.000Z</time>
        <extensions>
          <ns3:TrackPointExtension>
            <ns3:hr>78</ns3:hr>
            <ns3:cad>45</ns3:cad>
          </ns3:TrackPointExtension>
        </extensions>
      </trkpt>
      <trkpt lat="43.4537458978593349456787109375" lon="1.45991069264709949493408203125">
        <ele>197.399993896484375</ele>
        <time>2026-08-05T06:56:45.000Z</time>
        <extensions>
          <ns3:TrackPointExtension>
            <ns3:hr>78</ns3:hr>
            <ns3:cad>45</ns3:cad>
          </ns3:TrackPointExtension>
        </extensions>
      </trkpt>
      <trkpt lat="43.453752435743808746337890625" lon="1.459926031529903411865234375">
        <ele>197.399993896484375</ele>
        <time>2026-08-05T06:56:46.000Z</time>
        <extensions>
          <ns3:TrackPointExtension>
            <ns3:hr>78</ns3:hr>
            <ns3:cad>45</ns3:cad>
          </ns3:TrackPointExtension>
        </extensions>
      </trkpt>
      <trkpt lat="43.4537579677999019622802734375" lon="1.45994019694626331329345703125">
        <ele>197.399993896484375</ele>
        <time>2026-08-05T06:56:47.000Z</time>
        <extensions>
          <ns3:TrackPointExtension>
            <ns3:hr>78</ns3:hr>
            <ns3:cad>45</ns3:cad>
          </ns3:TrackPointExtension>
        </extensions>
      </trkpt>
      <trkpt lat="43.45375989563763141632080078125" lon="1.4599510096013545989990234375">
        <ele>197.399993896484375</ele>
        <time>2026-08-05T06:56:48.000Z</time>
        <extensions>
          <ns3:TrackPointExtension>
            <ns3:hr>77</ns3:hr>
            <ns3:cad>45</ns3:cad>
          </ns3:TrackPointExtension>
        </extensions>
      </trkpt>
      <trkpt lat="43.4537670202553272247314453125" lon="1.45996567793190479278564453125">
        <ele>197.399993896484375</ele>
        <time>2026-08-05T06:56:49.000Z</time>
        <extensions>
          <ns3:TrackPointExtension>
            <ns3:hr>78</ns3:hr>
            <ns3:cad>46</ns3:cad>
          </ns3:TrackPointExtension>
        </extensions>
      </trkpt>
      <trkpt lat="43.4537737257778644561767578125" lon="1.4599805139005184173583984375">
        <ele>197.600006103515625</ele>
        <time>2026-08-05T06:56:50.000Z</time>
        <extensions>
          <ns3:TrackPointExtension>
            <ns3:hr>78</ns3:hr>
            <ns3:cad>46</ns3:cad>
          </ns3:TrackPointExtension>
        </extensions>
      </trkpt>
      <trkpt lat="43.4537802636623382568359375" lon="1.45999199710786342620849609375">
        <ele>197.600006103515625</ele>
        <time>2026-08-05T06:56:51.000Z</time>
        <extensions>
          <ns3:TrackPointExtension>
            <ns3:hr>78</ns3:hr>
            <ns3:cad>46</ns3:cad>
          </ns3:TrackPointExtension>
        </extensions>
      </trkpt>
      <trkpt lat="43.45378403551876544952392578125" lon="1.4600006304681301116943359375">
        <ele>197.600006103515625</ele>
        <time>2026-08-05T06:56:52.000Z</time>
        <extensions>
          <ns3:TrackPointExtension>
            <ns3:hr>78</ns3:hr>
            <ns3:cad>46</ns3:cad>
          </ns3:TrackPointExtension>
        </extensions>
      </trkpt>
      <trkpt lat="43.45378763973712921142578125" lon="1.46001345477998256683349609375">
        <ele>197.600006103515625</ele>
        <time>2026-08-05T06:56:53.000Z</time>
        <extensions>
          <ns3:TrackPointExtension>
            <ns3:hr>78</ns3:hr>
            <ns3:cad>46</ns3:cad>
          </ns3:TrackPointExtension>
        </extensions>
      </trkpt>
      <trkpt lat="43.45379342325031757354736328125" lon="1.4600230939686298370361328125">
        <ele>197.600006103515625</ele>
        <time>2026-08-05T06:56:54.000Z</time>
        <extensions>
          <ns3:TrackPointExtension>
            <ns3:hr>78</ns3:hr>
            <ns3:cad>46</ns3:cad>
          </ns3:TrackPointExtension>
        </extensions>
      </trkpt>
      <trkpt lat="43.4537985362112522125244140625" lon="1.460031308233737945556640625">
        <ele>197.600006103515625</ele>
        <time>2026-08-05T06:56:55.000Z</time>
        <extensions>
          <ns3:TrackPointExtension>
            <ns3:hr>78</ns3:hr>
            <ns3:cad>46</ns3:cad>
          </ns3:TrackPointExtension>
        </extensions>
      </trkpt>
      <trkpt lat="43.453804738819599151611328125" lon="1.46003893576562404632568359375">
        <ele>197.600006103515625</ele>
        <time>2026-08-05T06:56:56.000Z</time>
        <extensions>
          <ns3:TrackPointExtension>
            <ns3:hr>78</ns3:hr>
            <ns3:cad>45</ns3:cad>
          </ns3:TrackPointExtension>
        </extensions>
      </trkpt>
      <trkpt lat="43.453810773789882659912109375" lon="1.46005067043006420135498046875">
        <ele>197.600006103515625</ele>
        <time>2026-08-05T06:56:57.000Z</time>
        <extensions>
          <ns3:TrackPointExtension>
            <ns3:hr>78</ns3:hr>
            <ns3:cad>45</ns3:cad>
          </ns3:TrackPointExtension>
        </extensions>
      </trkpt>
      <trkpt lat="43.453818149864673614501953125" lon="1.4600666798651218414306640625">
        <ele>197.8000030517578125</ele>
        <time>2026-08-05T06:56:58.000Z</time>
        <extensions>
          <ns3:TrackPointExtension>
            <ns3:hr>78</ns3:hr>
            <ns3:cad>44</ns3:cad>
          </ns3:TrackPointExtension>
        </extensions>
      </trkpt>
      <trkpt lat="43.453827537596225738525390625" lon="1.46007631905376911163330078125">
        <ele>197.8000030517578125</ele>
        <time>2026-08-05T06:56:59.000Z</time>
        <extensions>
          <ns3:TrackPointExtension>
            <ns3:hr>79</ns3:hr>
            <ns3:cad>44</ns3:cad>
          </ns3:TrackPointExtension>
        </extensions>
      </trkpt>
      <trkpt lat="43.453832231462001800537109375" lon="1.4600832760334014892578125">
        <ele>197.8000030517578125</ele>
        <time>2026-08-05T06:57:00.000Z</time>
        <extensions>
          <ns3:TrackPointExtension>
            <ns3:hr>79</ns3:hr>
            <ns3:cad>44</ns3:cad>
          </ns3:TrackPointExtension>
        </extensions>
      </trkpt>
      <trkpt lat="43.45383818261325359344482421875" lon="1.46009593270719051361083984375">
        <ele>197.8000030517578125</ele>
        <time>2026-08-05T06:57:01.000Z</time>
        <extensions>
          <ns3:TrackPointExtension>
            <ns3:hr>79</ns3:hr>
            <ns3:cad>44</ns3:cad>
          </ns3:TrackPointExtension>
        </extensions>
      </trkpt>
      <trkpt lat="43.453845977783203125" lon="1.460103057324886322021484375">
        <ele>197.8000030517578125</ele>
        <time>2026-08-05T06:57:02.000Z</time>
        <extensions>
          <ns3:TrackPointExtension>
            <ns3:hr>79</ns3:hr>
            <ns3:cad>45</ns3:cad>
          </ns3:TrackPointExtension>
        </extensions>
      </trkpt>
      <trkpt lat="43.45385394059121608734130859375" lon="1.46011034958064556121826171875">
        <ele>197.8000030517578125</ele>
        <time>2026-08-05T06:57:03.000Z</time>
        <extensions>
          <ns3:TrackPointExtension>
            <ns3:hr>79</ns3:hr>
            <ns3:cad>45</ns3:cad>
          </ns3:TrackPointExtension>
        </extensions>
      </trkpt>
      <trkpt lat="43.45386031083762645721435546875" lon="1.4601186476647853851318359375">
        <ele>198</ele>
        <time>2026-08-05T06:57:04.000Z</time>
        <extensions>
          <ns3:TrackPointExtension>
            <ns3:hr>79</ns3:hr>
            <ns3:cad>45</ns3:cad>
          </ns3:TrackPointExtension>
        </extensions>
      </trkpt>
      <trkpt lat="43.453866429626941680908203125" lon="1.4601243473589420318603515625">
        <ele>198</ele>
        <time>2026-08-05T06:57:05.000Z</time>
        <extensions>
          <ns3:TrackPointExtension>
            <ns3:hr>79</ns3:hr>
            <ns3:cad>45</ns3:cad>
          </ns3:TrackPointExtension>
        </extensions>
      </trkpt>
      <trkpt lat="43.4538768231868743896484375" lon="1.4601354114711284637451171875">
        <ele>198</ele>
        <time>2026-08-05T06:57:06.000Z</time>
        <extensions>
          <ns3:TrackPointExtension>
            <ns3:hr>79</ns3:hr>
            <ns3:cad>44</ns3:cad>
          </ns3:TrackPointExtension>
        </extensions>
      </trkpt>
      <trkpt lat="43.4538843668997287750244140625" lon="1.46014253608882427215576171875">
        <ele>198</ele>
        <time>2026-08-05T06:57:07.000Z</time>
        <extensions>
          <ns3:TrackPointExtension>
            <ns3:hr>79</ns3:hr>
            <ns3:cad>44</ns3:cad>
          </ns3:TrackPointExtension>
        </extensions>
      </trkpt>
      <trkpt lat="43.453890569508075714111328125" lon="1.46014924161136150360107421875">
        <ele>198</ele>
        <time>2026-08-05T06:57:08.000Z</time>
        <extensions>
          <ns3:TrackPointExtension>
            <ns3:hr>79</ns3:hr>
            <ns3:cad>44</ns3:cad>
          </ns3:TrackPointExtension>
        </extensions>
      </trkpt>
      <trkpt lat="43.4539028070867061614990234375" lon="1.46015460602939128875732421875">
        <ele>198</ele>
        <time>2026-08-05T06:57:09.000Z</time>
        <extensions>
          <ns3:TrackPointExtension>
            <ns3:hr>79</ns3:hr>
            <ns3:cad>44</ns3:cad>
          </ns3:TrackPointExtension>
        </extensions>
      </trkpt>
      <trkpt lat="43.45391345210373401641845703125" lon="1.4601555280387401580810546875">
        <ele>198</ele>
        <time>2026-08-05T06:57:10.000Z</time>
        <extensions>
          <ns3:TrackPointExtension>
            <ns3:hr>80</ns3:hr>
            <ns3:cad>45</ns3:cad>
          </ns3:TrackPointExtension>
        </extensions>
      </trkpt>
      <trkpt lat="43.45392309129238128662109375" lon="1.46015997044742107391357421875">
        <ele>198.1999969482421875</ele>
        <time>2026-08-05T06:57:11.000Z</time>
        <extensions>
          <ns3:TrackPointExtension>
            <ns3:hr>80</ns3:hr>
            <ns3:cad>46</ns3:cad>
          </ns3:TrackPointExtension>
        </extensions>
      </trkpt>
      <trkpt lat="43.45393071882426738739013671875" lon="1.4601615630090236663818359375">
        <ele>198.1999969482421875</ele>
        <time>2026-08-05T06:57:12.000Z</time>
        <extensions>
          <ns3:TrackPointExtension>
            <ns3:hr>80</ns3:hr>
            <ns3:cad>46</ns3:cad>
          </ns3:TrackPointExtension>
        </extensions>
      </trkpt>
      <trkpt lat="43.45394094474613666534423828125" lon="1.4601629041135311126708984375">
        <ele>198.1999969482421875</ele>
        <time>2026-08-05T06:57:13.000Z</time>
        <extensions>
          <ns3:TrackPointExtension>
            <ns3:hr>79</ns3:hr>
            <ns3:cad>44</ns3:cad>
          </ns3:TrackPointExtension>
        </extensions>
      </trkpt>
      <trkpt lat="43.45395200885832309722900390625" lon="1.460168771445751190185546875">
        <ele>198.399993896484375</ele>
        <time>2026-08-05T06:57:14.000Z</time>
        <extensions>
          <ns3:TrackPointExtension>
            <ns3:hr>79</ns3:hr>
            <ns3:cad>43</ns3:cad>
          </ns3:TrackPointExtension>
        </extensions>
      </trkpt>
      <trkpt lat="43.4539594687521457672119140625" lon="1.460172124207019805908203125">
        <ele>198.399993896484375</ele>
        <time>2026-08-05T06:57:15.000Z</time>
        <extensions>
          <ns3:TrackPointExtension>
            <ns3:hr>79</ns3:hr>
            <ns3:cad>43</ns3:cad>
          </ns3:TrackPointExtension>
        </extensions>
      </trkpt>
      <trkpt lat="43.453967012465000152587890625" lon="1.460178159177303314208984375">
        <ele>198.399993896484375</ele>
        <time>2026-08-05T06:57:16.000Z</time>
        <extensions>
          <ns3:TrackPointExtension>
            <ns3:hr>80</ns3:hr>
            <ns3:cad>44</ns3:cad>
          </ns3:TrackPointExtension>
        </extensions>
      </trkpt>
      <trkpt lat="43.453977406024932861328125" lon="1.4601825177669525146484375">
        <ele>198.399993896484375</ele>
        <time>2026-08-05T06:57:17.000Z</time>
        <extensions>
          <ns3:TrackPointExtension>
            <ns3:hr>80</ns3:hr>
            <ns3:cad>45</ns3:cad>
          </ns3:TrackPointExtension>
        </extensions>
      </trkpt>
      <trkpt lat="43.45398436300456523895263671875" lon="1.4601870439946651458740234375">
        <ele>198.399993896484375</ele>
        <time>2026-08-05T06:57:18.000Z</time>
        <extensions>
          <ns3:TrackPointExtension>
            <ns3:hr>80</ns3:hr>
            <ns3:cad>45</ns3:cad>
          </ns3:TrackPointExtension>
        </extensions>
      </trkpt>
      <trkpt lat="43.453990481793880462646484375" lon="1.46019467152655124664306640625">
        <ele>198.600006103515625</ele>
        <time>2026-08-05T06:57:19.000Z</time>
        <extensions>
          <ns3:TrackPointExtension>
            <ns3:hr>80</ns3:hr>
            <ns3:cad>45</ns3:cad>
          </ns3:TrackPointExtension>
        </extensions>
      </trkpt>
      <trkpt lat="43.4539980255067348480224609375" lon="1.46020137704908847808837890625">
        <ele>198.600006103515625</ele>
        <time>2026-08-05T06:57:20.000Z</time>
        <extensions>
          <ns3:TrackPointExtension>
            <ns3:hr>80</ns3:hr>
            <ns3:cad>44</ns3:cad>
          </ns3:TrackPointExtension>
        </extensions>
      </trkpt>
      <trkpt lat="43.45400758087635040283203125" lon="1.4602093398571014404296875">
        <ele>198.600006103515625</ele>
        <time>2026-08-05T06:57:21.000Z</time>
        <extensions>
          <ns3:TrackPointExtension>
            <ns3:hr>80</ns3:hr>
            <ns3:cad>44</ns3:cad>
          </ns3:TrackPointExtension>
        </extensions>
      </trkpt>
      <trkpt lat="43.45401621423661708831787109375" lon="1.46021596156060695648193359375">
        <ele>198.600006103515625</ele>
        <time>2026-08-05T06:57:22.000Z</time>
        <extensions>
          <ns3:TrackPointExtension>
            <ns3:hr>80</ns3:hr>
            <ns3:cad>44</ns3:cad>
          </ns3:TrackPointExtension>
        </extensions>
      </trkpt>
      <trkpt lat="43.45402627252042293548583984375" lon="1.46021948195993900299072265625">
        <ele>198.600006103515625</ele>
        <time>2026-08-05T06:57:23.000Z</time>
        <extensions>
          <ns3:TrackPointExtension>
            <ns3:hr>80</ns3:hr>
            <ns3:cad>44</ns3:cad>
          </ns3:TrackPointExtension>
        </extensions>
      </trkpt>
      <trkpt lat="43.4540345706045627593994140625" lon="1.46022333763539791107177734375">
        <ele>198.600006103515625</ele>
        <time>2026-08-05T06:57:24.000Z</time>
        <extensions>
          <ns3:TrackPointExtension>
            <ns3:hr>81</ns3:hr>
            <ns3:cad>44</ns3:cad>
          </ns3:TrackPointExtension>
        </extensions>
      </trkpt>
      <trkpt lat="43.45404513180255889892578125" lon="1.460229791700839996337890625">
        <ele>198.8000030517578125</ele>
        <time>2026-08-05T06:57:25.000Z</time>
        <extensions>
          <ns3:TrackPointExtension>
            <ns3:hr>81</ns3:hr>
            <ns3:cad>44</ns3:cad>
          </ns3:TrackPointExtension>
        </extensions>
      </trkpt>
      <trkpt lat="43.45405242405831813812255859375" lon="1.46023239009082317352294921875">
        <ele>198.8000030517578125</ele>
        <time>2026-08-05T06:57:26.000Z</time>
        <extensions>
          <ns3:TrackPointExtension>
            <ns3:hr>81</ns3:hr>
            <ns3:cad>44</ns3:cad>
          </ns3:TrackPointExtension>
        </extensions>
      </trkpt>
      <trkpt lat="43.45405912958085536956787109375" lon="1.46023808978497982025146484375">
        <ele>198.8000030517578125</ele>
        <time>2026-08-05T06:57:27.000Z</time>
        <extensions>
          <ns3:TrackPointExtension>
            <ns3:hr>81</ns3:hr>
            <ns3:cad>44</ns3:cad>
          </ns3:TrackPointExtension>
        </extensions>
      </trkpt>
      <trkpt lat="43.4540670923888683319091796875" lon="1.4602457173168659210205078125">
        <ele>198.8000030517578125</ele>
        <time>2026-08-05T06:57:28.000Z</time>
        <extensions>
          <ns3:TrackPointExtension>
            <ns3:hr>80</ns3:hr>
            <ns3:cad>44</ns3:cad>
          </ns3:TrackPointExtension>
        </extensions>
      </trkpt>
      <trkpt lat="43.45407354645431041717529296875" lon="1.46025066263973712921142578125">
        <ele>198.8000030517578125</ele>
        <time>2026-08-05T06:57:29.000Z</time>
        <extensions>
          <ns3:TrackPointExtension>
            <ns3:hr>81</ns3:hr>
            <ns3:cad>44</ns3:cad>
          </ns3:TrackPointExtension>
        </extensions>
      </trkpt>
      <trkpt lat="43.45408343710005283355712890625" lon="1.46025887690484523773193359375">
        <ele>198.600006103515625</ele>
        <time>2026-08-05T06:57:30.000Z</time>
        <extensions>
          <ns3:TrackPointExtension>
            <ns3:hr>81</ns3:hr>
            <ns3:cad>43</ns3:cad>
          </ns3:TrackPointExtension>
        </extensions>
      </trkpt>
      <trkpt lat="43.45409072935581207275390625" lon="1.460259966552257537841796875">
        <ele>198.600006103515625</ele>
        <time>2026-08-05T06:57:31.000Z</time>
        <extensions>
          <ns3:TrackPointExtension>
            <ns3:hr>81</ns3:hr>
            <ns3:cad>43</ns3:cad>
          </ns3:TrackPointExtension>
        </extensions>
      </trkpt>
      <trkpt lat="43.4540952555835247039794921875" lon="1.460267007350921630859375">
        <ele>198.600006103515625</ele>
        <time>2026-08-05T06:57:32.000Z</time>
        <extensions>
          <ns3:TrackPointExtension>
            <ns3:hr>81</ns3:hr>
            <ns3:cad>43</ns3:cad>
          </ns3:TrackPointExtension>
        </extensions>
      </trkpt>
      <trkpt lat="43.4541049785912036895751953125" lon="1.46027505397796630859375">
        <ele>198.600006103515625</ele>
        <time>2026-08-05T06:57:33.000Z</time>
        <extensions>
          <ns3:TrackPointExtension>
            <ns3:hr>81</ns3:hr>
            <ns3:cad>45</ns3:cad>
          </ns3:TrackPointExtension>
        </extensions>
      </trkpt>
      <trkpt lat="43.45411294139921665191650390625" lon="1.46027916111052036285400390625">
        <ele>198.8000030517578125</ele>
        <time>2026-08-05T06:57:34.000Z</time>
        <extensions>
          <ns3:TrackPointExtension>
            <ns3:hr>81</ns3:hr>
            <ns3:cad>46</ns3:cad>
          </ns3:TrackPointExtension>
        </extensions>
      </trkpt>
      <trkpt lat="43.4541227482259273529052734375" lon="1.46028519608080387115478515625">
        <ele>198.8000030517578125</ele>
        <time>2026-08-05T06:57:35.000Z</time>
        <extensions>
          <ns3:TrackPointExtension>
            <ns3:hr>81</ns3:hr>
            <ns3:cad>46</ns3:cad>
          </ns3:TrackPointExtension>
        </extensions>
      </trkpt>
      <trkpt lat="43.45413104631006717681884765625" lon="1.460290811955928802490234375">
        <ele>198.8000030517578125</ele>
        <time>2026-08-05T06:57:36.000Z</time>
        <extensions>
          <ns3:TrackPointExtension>
            <ns3:hr>81</ns3:hr>
            <ns3:cad>46</ns3:cad>
          </ns3:TrackPointExtension>
        </extensions>
      </trkpt>
      <trkpt lat="43.4541405178606510162353515625" lon="1.4602970145642757415771484375">
        <ele>198.8000030517578125</ele>
        <time>2026-08-05T06:57:37.000Z</time>
        <extensions>
          <ns3:TrackPointExtension>
            <ns3:hr>81</ns3:hr>
            <ns3:cad>44</ns3:cad>
          </ns3:TrackPointExtension>
        </extensions>
      </trkpt>
      <trkpt lat="43.45414998941123485565185546875" lon="1.46030095405876636505126953125">
        <ele>198.8000030517578125</ele>
        <time>2026-08-05T06:57:38.000Z</time>
        <extensions>
          <ns3:TrackPointExtension>
            <ns3:hr>81</ns3:hr>
            <ns3:cad>44</ns3:cad>
          </ns3:TrackPointExtension>
        </extensions>
      </trkpt>
      <trkpt lat="43.45415887422859668731689453125" lon="1.4603057317435741424560546875">
        <ele>199</ele>
        <time>2026-08-05T06:57:39.000Z</time>
        <extensions>
          <ns3:TrackPointExtension>
            <ns3:hr>81</ns3:hr>
            <ns3:cad>44</ns3:cad>
          </ns3:TrackPointExtension>
        </extensions>
      </trkpt>
      <trkpt lat="43.45417194999754428863525390625" lon="1.4603134430944919586181640625">
        <ele>199</ele>
        <time>2026-08-05T06:57:40.000Z</time>
        <extensions>
          <ns3:TrackPointExtension>
            <ns3:hr>81</ns3:hr>
            <ns3:cad>43</ns3:cad>
          </ns3:TrackPointExtension>
        </extensions>
      </trkpt>
      <trkpt lat="43.4541837684810161590576171875" lon="1.4603241719305515289306640625">
        <ele>199</ele>
        <time>2026-08-05T06:57:41.000Z</time>
        <extensions>
          <ns3:TrackPointExtension>
            <ns3:hr>81</ns3:hr>
            <ns3:cad>43</ns3:cad>
          </ns3:TrackPointExtension>
        </extensions>
      </trkpt>
      <trkpt lat="43.4541914798319339752197265625" lon="1.460332386195659637451171875">
        <ele>199</ele>
        <time>2026-08-05T06:57:42.000Z</time>
        <extensions>
          <ns3:TrackPointExtension>
            <ns3:hr>81</ns3:hr>
            <ns3:cad>43</ns3:cad>
          </ns3:TrackPointExtension>
        </extensions>
      </trkpt>
      <trkpt lat="43.454201035201549530029296875" lon="1.46034143865108489990234375">
        <ele>199</ele>
        <time>2026-08-05T06:57:43.000Z</time>
        <extensions>
          <ns3:TrackPointExtension>
            <ns3:hr>81</ns3:hr>
            <ns3:cad>44</ns3:cad>
          </ns3:TrackPointExtension>
        </extensions>
      </trkpt>
      <trkpt lat="43.4542067348957061767578125" lon="1.46035091020166873931884765625">
        <ele>199</ele>
        <time>2026-08-05T06:57:44.000Z</time>
        <extensions>
          <ns3:TrackPointExtension>
            <ns3:hr>81</ns3:hr>
            <ns3:cad>44</ns3:cad>
          </ns3:TrackPointExtension>
        </extensions>
      </trkpt>
      <trkpt lat="43.45421545207500457763671875" lon="1.460361219942569732666015625">
        <ele>199</ele>
        <time>2026-08-05T06:57:45.000Z</time>
        <extensions>
          <ns3:TrackPointExtension>
            <ns3:hr>81</ns3:hr>
            <ns3:cad>47</ns3:cad>
          </ns3:TrackPointExtension>
        </extensions>
      </trkpt>
      <trkpt lat="43.45422224141657352447509765625" lon="1.46036767400801181793212890625">
        <ele>199</ele>
        <time>2026-08-05T06:57:46.000Z</time>
        <extensions>
          <ns3:TrackPointExtension>
            <ns3:hr>81</ns3:hr>
            <ns3:cad>47</ns3:cad>
          </ns3:TrackPointExtension>
        </extensions>
      </trkpt>
      <trkpt lat="43.454229198396205902099609375" lon="1.460375301539897918701171875">
        <ele>199</ele>
        <time>2026-08-05T06:57:47.000Z</time>
        <extensions>
          <ns3:TrackPointExtension>
            <ns3:hr>81</ns3:hr>
            <ns3:cad>47</ns3:cad>
          </ns3:TrackPointExtension>
        </extensions>
      </trkpt>
      <trkpt lat="43.45423682592809200286865234375" lon="1.4603836834430694580078125">
        <ele>199</ele>
        <time>2026-08-05T06:57:48.000Z</time>
        <extensions>
          <ns3:TrackPointExtension>
            <ns3:hr>81</ns3:hr>
            <ns3:cad>47</ns3:cad>
          </ns3:TrackPointExtension>
        </extensions>
      </trkpt>
      <trkpt lat="43.45424135215580463409423828125" lon="1.46039164625108242034912109375">
        <ele>199</ele>
        <time>2026-08-05T06:57:49.000Z</time>
        <extensions>
          <ns3:TrackPointExtension>
            <ns3:hr>81</ns3:hr>
            <ns3:cad>46</ns3:cad>
          </ns3:TrackPointExtension>
        </extensions>
      </trkpt>
      <trkpt lat="43.4542498178780078887939453125" lon="1.4603996090590953826904296875">
        <ele>199</ele>
        <time>2026-08-05T06:57:50.000Z</time>
        <extensions>
          <ns3:TrackPointExtension>
            <ns3:hr>81</ns3:hr>
            <ns3:cad>46</ns3:cad>
          </ns3:TrackPointExtension>
        </extensions>
      </trkpt>
      <trkpt lat="43.45426063053309917449951171875" lon="1.46040153689682483673095703125">
        <ele>199</ele>
        <time>2026-08-05T06:57:51.000Z</time>
        <extensions>
          <ns3:TrackPointExtension>
            <ns3:hr>81</ns3:hr>
            <ns3:cad>46</ns3:cad>
          </ns3:TrackPointExtension>
        </extensions>
      </trkpt>
      <trkpt lat="43.45427052117884159088134765625" lon="1.46040715277194976806640625">
        <ele>199</ele>
        <time>2026-08-05T06:57:52.000Z</time>
        <extensions>
          <ns3:TrackPointExtension>
            <ns3:hr>81</ns3:hr>
            <ns3:cad>45</ns3:cad>
          </ns3:TrackPointExtension>
        </extensions>
      </trkpt>
      <trkpt lat="43.45427705906331539154052734375" lon="1.4604066498577594757080078125">
        <ele>199.1999969482421875</ele>
        <time>2026-08-05T06:57:53.000Z</time>
        <extensions>
          <ns3:TrackPointExtension>
            <ns3:hr>81</ns3:hr>
            <ns3:cad>44</ns3:cad>
          </ns3:TrackPointExtension>
        </extensions>
      </trkpt>
      <trkpt lat="43.454287536442279815673828125" lon="1.460407488048076629638671875">
        <ele>199.1999969482421875</ele>
        <time>2026-08-05T06:57:54.000Z</time>
        <extensions>
          <ns3:TrackPointExtension>
            <ns3:hr>81</ns3:hr>
            <ns3:cad>44</ns3:cad>
          </ns3:TrackPointExtension>
        </extensions>
      </trkpt>
      <trkpt lat="43.454293906688690185546875" lon="1.460411511361598968505859375">
        <ele>199.1999969482421875</ele>
        <time>2026-08-05T06:57:55.000Z</time>
        <extensions>
          <ns3:TrackPointExtension>
            <ns3:hr>81</ns3:hr>
            <ns3:cad>44</ns3:cad>
          </ns3:TrackPointExtension>
        </extensions>
      </trkpt>
      <trkpt lat="43.4542954154312610626220703125" lon="1.4604150317609310150146484375">
        <ele>199.399993896484375</ele>
        <time>2026-08-05T06:57:56.000Z</time>
        <extensions>
          <ns3:TrackPointExtension>
            <ns3:hr>81</ns3:hr>
            <ns3:cad>44</ns3:cad>
          </ns3:TrackPointExtension>
        </extensions>
      </trkpt>
      <trkpt lat="43.45430262386798858642578125" lon="1.46042031235992908477783203125">
        <ele>199.399993896484375</ele>
        <time>2026-08-05T06:57:57.000Z</time>
        <extensions>
          <ns3:TrackPointExtension>
            <ns3:hr>82</ns3:hr>
            <ns3:cad>0</ns3:cad>
          </ns3:TrackPointExtension>
        </extensions>
      </trkpt>
      <trkpt lat="43.4543125145137310028076171875" lon="1.46042517386376857757568359375">
        <ele>199.600006103515625</ele>
        <time>2026-08-05T06:57:58.000Z</time>
        <extensions>
          <ns3:TrackPointExtension>
            <ns3:hr>82</ns3:hr>
            <ns3:cad>0</ns3:cad>
          </ns3:TrackPointExtension>
        </extensions>
      </trkpt>
      <trkpt lat="43.4543205611407756805419921875" lon="1.46043087355792522430419921875">
        <ele>199.600006103515625</ele>
        <time>2026-08-05T06:57:59.000Z</time>
        <extensions>
          <ns3:TrackPointExtension>
            <ns3:hr>82</ns3:hr>
            <ns3:cad>44</ns3:cad>
          </ns3:TrackPointExtension>
        </extensions>
      </trkpt>
      <trkpt lat="43.454331457614898681640625" lon="1.46043598651885986328125">
        <ele>199.600006103515625</ele>
        <time>2026-08-05T06:58:00.000Z</time>
        <extensions>
          <ns3:TrackPointExtension>
            <ns3:hr>82</ns3:hr>
            <ns3:cad>44</ns3:cad>
          </ns3:TrackPointExtension>
        </extensions>
      </trkpt>
      <trkpt lat="43.45434009097516536712646484375" lon="1.46043925546109676361083984375">
        <ele>199.600006103515625</ele>
        <time>2026-08-05T06:58:01.000Z</time>
        <extensions>
          <ns3:TrackPointExtension>
            <ns3:hr>82</ns3:hr>
            <ns3:cad>44</ns3:cad>
          </ns3:TrackPointExtension>
        </extensions>
      </trkpt>
      <trkpt lat="43.45435031689703464508056640625" lon="1.46044311113655567169189453125">
        <ele>199.8000030517578125</ele>
        <time>2026-08-05T06:58:02.000Z</time>
        <extensions>
          <ns3:TrackPointExtension>
            <ns3:hr>82</ns3:hr>
            <ns3:cad>44</ns3:cad>
          </ns3:TrackPointExtension>
        </extensions>
      </trkpt>
      <trkpt lat="43.45435752533376216888427734375" lon="1.4604453742504119873046875">
        <ele>199.8000030517578125</ele>
        <time>2026-08-05T06:58:03.000Z</time>
        <extensions>
          <ns3:TrackPointExtension>
            <ns3:hr>83</ns3:hr>
            <ns3:cad>47</ns3:cad>
          </ns3:TrackPointExtension>
        </extensions>
      </trkpt>
      <trkpt lat="43.45436875708401203155517578125" lon="1.46045316942036151885986328125">
        <ele>199.8000030517578125</ele>
        <time>2026-08-05T06:58:04.000Z</time>
        <extensions>
          <ns3:TrackPointExtension>
            <ns3:hr>83</ns3:hr>
            <ns3:cad>48</ns3:cad>
          </ns3:TrackPointExtension>
        </extensions>
      </trkpt>
      <trkpt lat="43.45437881536781787872314453125" lon="1.460459791123867034912109375">
        <ele>200</ele>
        <time>2026-08-05T06:58:05.000Z</time>
        <extensions>
          <ns3:TrackPointExtension>
            <ns3:hr>83</ns3:hr>
            <ns3:cad>47</ns3:cad>
          </ns3:TrackPointExtension>
        </extensions>
      </trkpt>
      <trkpt lat="43.4543856047093868255615234375" lon="1.4604649879038333892822265625">
        <ele>200</ele>
        <time>2026-08-05T06:58:06.000Z</time>
        <extensions>
          <ns3:TrackPointExtension>
            <ns3:hr>83</ns3:hr>
            <ns3:cad>47</ns3:cad>
          </ns3:TrackPointExtension>
        </extensions>
      </trkpt>
      <trkpt lat="43.45439306460320949554443359375" lon="1.46047160960733890533447265625">
        <ele>200</ele>
        <time>2026-08-05T06:58:07.000Z</time>
        <extensions>
          <ns3:TrackPointExtension>
            <ns3:hr>84</ns3:hr>
            <ns3:cad>46</ns3:cad>
          </ns3:TrackPointExtension>
        </extensions>
      </trkpt>
      <trkpt lat="43.454399518668651580810546875" lon="1.4604864455759525299072265625">
        <ele>200.1999969482421875</ele>
        <time>2026-08-05T06:58:08.000Z</time>
        <extensions>
          <ns3:TrackPointExtension>
            <ns3:hr>84</ns3:hr>
            <ns3:cad>42</ns3:cad>
          </ns3:TrackPointExtension>
        </extensions>
      </trkpt>
      <trkpt lat="43.45440379343926906585693359375" lon="1.46049591712653636932373046875">
        <ele>200.1999969482421875</ele>
        <time>2026-08-05T06:58:09.000Z</time>
        <extensions>
          <ns3:TrackPointExtension>
            <ns3:hr>84</ns3:hr>
            <ns3:cad>42</ns3:cad>
          </ns3:TrackPointExtension>
        </extensions>
      </trkpt>
      <trkpt lat="43.45440915785729885101318359375" lon="1.4605043828487396240234375">
        <ele>200.1999969482421875</ele>
        <time>2026-08-05T06:58:10.000Z</time>
        <extensions>
          <ns3:TrackPointExtension>
            <ns3:hr>84</ns3:hr>
            <ns3:cad>42</ns3:cad>
          </ns3:TrackPointExtension>
        </extensions>
      </trkpt>
      <trkpt lat="43.45441670157015323638916015625" lon="1.460516117513179779052734375">
        <ele>200.1999969482421875</ele>
        <time>2026-08-05T06:58:11.000Z</time>
        <extensions>
          <ns3:TrackPointExtension>
            <ns3:hr>84</ns3:hr>
            <ns3:cad>42</ns3:cad>
          </ns3:TrackPointExtension>
        </extensions>
      </trkpt>
      <trkpt lat="43.4544258378446102142333984375" lon="1.46052642725408077239990234375">
        <ele>200.1999969482421875</ele>
        <time>2026-08-05T06:58:12.000Z</time>
        <extensions>
          <ns3:TrackPointExtension>
            <ns3:hr>85</ns3:hr>
            <ns3:cad>42</ns3:cad>
          </ns3:TrackPointExtension>
        </extensions>
      </trkpt>
      <trkpt lat="43.45443078316748142242431640625" lon="1.46053598262369632720947265625">
        <ele>200.1999969482421875</ele>
        <time>2026-08-05T06:58:13.000Z</time>
        <extensions>
          <ns3:TrackPointExtension>
            <ns3:hr>85</ns3:hr>
            <ns3:cad>43</ns3:cad>
          </ns3:TrackPointExtension>
        </extensions>
      </trkpt>
      <trkpt lat="43.4544352255761623382568359375" lon="1.46054805256426334381103515625">
        <ele>200.1999969482421875</ele>
        <time>2026-08-05T06:58:14.000Z</time>
        <extensions>
          <ns3:TrackPointExtension>
            <ns3:hr>85</ns3:hr>
            <ns3:cad>43</ns3:cad>
          </ns3:TrackPointExtension>
        </extensions>
      </trkpt>
      <trkpt lat="43.45443966798484325408935546875" lon="1.460557691752910614013671875">
        <ele>200.1999969482421875</ele>
        <time>2026-08-05T06:58:15.000Z</time>
        <extensions>
          <ns3:TrackPointExtension>
            <ns3:hr>85</ns3:hr>
            <ns3:cad>43</ns3:cad>
          </ns3:TrackPointExtension>
        </extensions>
      </trkpt>
      <trkpt lat="43.4544415958225727081298828125" lon="1.46056582219898700714111328125">
        <ele>200.1999969482421875</ele>
        <time>2026-08-05T06:58:16.000Z</time>
        <extensions>
          <ns3:TrackPointExtension>
            <ns3:hr>85</ns3:hr>
            <ns3:cad>42</ns3:cad>
          </ns3:TrackPointExtension>
        </extensions>
      </trkpt>
      <trkpt lat="43.45444872044026851654052734375" lon="1.4605749584734439849853515625">
        <ele>200.1999969482421875</ele>
        <time>2026-08-05T06:58:17.000Z</time>
        <extensions>
          <ns3:TrackPointExtension>
            <ns3:hr>84</ns3:hr>
            <ns3:cad>42</ns3:cad>
          </ns3:TrackPointExtension>
        </extensions>
      </trkpt>
      <trkpt lat="43.45445307902991771697998046875" lon="1.46058375947177410125732421875">
        <ele>200.1999969482421875</ele>
        <time>2026-08-05T06:58:18.000Z</time>
        <extensions>
          <ns3:TrackPointExtension>
            <ns3:hr>85</ns3:hr>
            <ns3:cad>42</ns3:cad>
          </ns3:TrackPointExtension>
        </extensions>
      </trkpt>
      <trkpt lat="43.45445877872407436370849609375" lon="1.4605955779552459716796875">
        <ele>200.399993896484375</ele>
        <time>2026-08-05T06:58:19.000Z</time>
        <extensions>
          <ns3:TrackPointExtension>
            <ns3:hr>85</ns3:hr>
            <ns3:cad>42</ns3:cad>
          </ns3:TrackPointExtension>
        </extensions>
      </trkpt>
      <trkpt lat="43.45445978455245494842529296875" lon="1.4606063067913055419921875">
        <ele>200.399993896484375</ele>
        <time>2026-08-05T06:58:20.000Z</time>
        <extensions>
          <ns3:TrackPointExtension>
            <ns3:hr>85</ns3:hr>
            <ns3:cad>42</ns3:cad>
          </ns3:TrackPointExtension>
        </extensions>
      </trkpt>
      <trkpt lat="43.45446288585662841796875" lon="1.46062080748379230499267578125">
        <ele>200.399993896484375</ele>
        <time>2026-08-05T06:58:21.000Z</time>
        <extensions>
          <ns3:TrackPointExtension>
            <ns3:hr>84</ns3:hr>
            <ns3:cad>42</ns3:cad>
          </ns3:TrackPointExtension>
        </extensions>
      </trkpt>
      <trkpt lat="43.45447017811238765716552734375" lon="1.46063405089080333709716796875">
        <ele>200.399993896484375</ele>
        <time>2026-08-05T06:58:22.000Z</time>
        <extensions>
          <ns3:TrackPointExtension>
            <ns3:hr>85</ns3:hr>
            <ns3:cad>43</ns3:cad>
          </ns3:TrackPointExtension>
        </extensions>
      </trkpt>
      <trkpt lat="43.45447587780654430389404296875" lon="1.46063983440399169921875">
        <ele>200.399993896484375</ele>
        <time>2026-08-05T06:58:23.000Z</time>
        <extensions>
          <ns3:TrackPointExtension>
            <ns3:hr>85</ns3:hr>
            <ns3:cad>43</ns3:cad>
          </ns3:TrackPointExtension>
        </extensions>
      </trkpt>
      <trkpt lat="43.4544821642339229583740234375" lon="1.46064762957394123077392578125">
        <ele>200.399993896484375</ele>
        <time>2026-08-05T06:58:24.000Z</time>
        <extensions>
          <ns3:TrackPointExtension>
            <ns3:hr>84</ns3:hr>
            <ns3:cad>44</ns3:cad>
          </ns3:TrackPointExtension>
        </extensions>
      </trkpt>
      <trkpt lat="43.454488702118396759033203125" lon="1.46066003479063510894775390625">
        <ele>200.399993896484375</ele>
        <time>2026-08-05T06:58:25.000Z</time>
        <extensions>
          <ns3:TrackPointExtension>
            <ns3:hr>85</ns3:hr>
            <ns3:cad>44</ns3:cad>
          </ns3:TrackPointExtension>
        </extensions>
      </trkpt>
      <trkpt lat="43.45449264161288738250732421875" lon="1.46066942252218723297119140625">
        <ele>200.399993896484375</ele>
        <time>2026-08-05T06:58:26.000Z</time>
        <extensions>
          <ns3:TrackPointExtension>
            <ns3:hr>85</ns3:hr>
            <ns3:cad>43</ns3:cad>
          </ns3:TrackPointExtension>
        </extensions>
      </trkpt>
      <trkpt lat="43.45449842512607574462890625" lon="1.46067445166409015655517578125">
        <ele>200.399993896484375</ele>
        <time>2026-08-05T06:58:27.000Z</time>
        <extensions>
          <ns3:TrackPointExtension>
            <ns3:hr>84</ns3:hr>
            <ns3:cad>43</ns3:cad>
          </ns3:TrackPointExtension>
        </extensions>
      </trkpt>
      <trkpt lat="43.4545052982866764068603515625" lon="1.46068166010081768035888671875">
        <ele>200.600006103515625</ele>
        <time>2026-08-05T06:58:28.000Z</time>
        <extensions>
          <ns3:TrackPointExtension>
            <ns3:hr>84</ns3:hr>
            <ns3:cad>43</ns3:cad>
          </ns3:TrackPointExtension>
        </extensions>
      </trkpt>
      <trkpt lat="43.4545156918466091156005859375" lon="1.46069339476525783538818359375">
        <ele>200.600006103515625</ele>
        <time>2026-08-05T06:58:29.000Z</time>
        <extensions>
          <ns3:TrackPointExtension>
            <ns3:hr>84</ns3:hr>
            <ns3:cad>42</ns3:cad>
          </ns3:TrackPointExtension>
        </extensions>
      </trkpt>
      <trkpt lat="43.45452382229268550872802734375" lon="1.46070395596325397491455078125">
        <ele>200.600006103515625</ele>
        <time>2026-08-05T06:58:30.000Z</time>
        <extensions>
          <ns3:TrackPointExtension>
            <ns3:hr>84</ns3:hr>
            <ns3:cad>42</ns3:cad>
          </ns3:TrackPointExtension>
        </extensions>
      </trkpt>
      <trkpt lat="43.4545274265110492706298828125" lon="1.46070814691483974456787109375">
        <ele>200.600006103515625</ele>
        <time>2026-08-05T06:58:31.000Z</time>
        <extensions>
          <ns3:TrackPointExtension>
            <ns3:hr>85</ns3:hr>
            <ns3:cad>42</ns3:cad>
          </ns3:TrackPointExtension>
        </extensions>
      </trkpt>
      <trkpt lat="43.454535640776157379150390625" lon="1.46071602590382099151611328125">
        <ele>200.8000030517578125</ele>
        <time>2026-08-05T06:58:32.000Z</time>
        <extensions>
          <ns3:TrackPointExtension>
            <ns3:hr>84</ns3:hr>
            <ns3:cad>42</ns3:cad>
          </ns3:TrackPointExtension>
        </extensions>
      </trkpt>
      <trkpt lat="43.45454896800220012664794921875" lon="1.46072767674922943115234375">
        <ele>200.8000030517578125</ele>
        <time>2026-08-05T06:58:33.000Z</time>
        <extensions>
          <ns3:TrackPointExtension>
            <ns3:hr>84</ns3:hr>
            <ns3:cad>43</ns3:cad>
          </ns3:TrackPointExtension>
        </extensions>
      </trkpt>
      <trkpt lat="43.454560451209545135498046875" lon="1.460736058652400970458984375">
        <ele>200.8000030517578125</ele>
        <time>2026-08-05T06:58:34.000Z</time>
        <extensions>
          <ns3:TrackPointExtension>
            <ns3:hr>84</ns3:hr>
            <ns3:cad>43</ns3:cad>
          </ns3:TrackPointExtension>
        </extensions>
      </trkpt>
      <trkpt lat="43.454567156732082366943359375" lon="1.46073731593787670135498046875">
        <ele>201</ele>
        <time>2026-08-05T06:58:35.000Z</time>
        <extensions>
          <ns3:TrackPointExtension>
            <ns3:hr>85</ns3:hr>
            <ns3:cad>43</ns3:cad>
          </ns3:TrackPointExtension>
        </extensions>
      </trkpt>
      <trkpt lat="43.4545767121016979217529296875" lon="1.46074603311717510223388671875">
        <ele>201</ele>
        <time>2026-08-05T06:58:36.000Z</time>
        <extensions>
          <ns3:TrackPointExtension>
            <ns3:hr>84</ns3:hr>
            <ns3:cad>42</ns3:cad>
          </ns3:TrackPointExtension>
        </extensions>
      </trkpt>
      <trkpt lat="43.454583249986171722412109375" lon="1.46075223572552204132080078125">
        <ele>201</ele>
        <time>2026-08-05T06:58:37.000Z</time>
        <extensions>
          <ns3:TrackPointExtension>
            <ns3:hr>84</ns3:hr>
            <ns3:cad>42</ns3:cad>
          </ns3:TrackPointExtension>
        </extensions>
      </trkpt>
      <trkpt lat="43.45458903349936008453369140625" lon="1.46075760014355182647705078125">
        <ele>201</ele>
        <time>2026-08-05T06:58:38.000Z</time>
        <extensions>
          <ns3:TrackPointExtension>
            <ns3:hr>84</ns3:hr>
            <ns3:cad>42</ns3:cad>
          </ns3:TrackPointExtension>
        </extensions>
      </trkpt>
      <trkpt lat="43.4545988403260707855224609375" lon="1.4607677422463893890380859375">
        <ele>201.1999969482421875</ele>
        <time>2026-08-05T06:58:39.000Z</time>
        <extensions>
          <ns3:TrackPointExtension>
            <ns3:hr>85</ns3:hr>
            <ns3:cad>43</ns3:cad>
          </ns3:TrackPointExtension>
        </extensions>
      </trkpt>
      <trkpt lat="43.45460529439151287078857421875" lon="1.460774280130863189697265625">
        <ele>201.1999969482421875</ele>
        <time>2026-08-05T06:58:40.000Z</time>
        <extensions>
          <ns3:TrackPointExtension>
            <ns3:hr>84</ns3:hr>
            <ns3:cad>43</ns3:cad>
          </ns3:TrackPointExtension>
        </extensions>
      </trkpt>
      <trkpt lat="43.45461116172373294830322265625" lon="1.4607818238437175750732421875">
        <ele>201.1999969482421875</ele>
        <time>2026-08-05T06:58:41.000Z</time>
        <extensions>
          <ns3:TrackPointExtension>
            <ns3:hr>84</ns3:hr>
            <ns3:cad>43</ns3:cad>
          </ns3:TrackPointExtension>
        </extensions>
      </trkpt>
      <trkpt lat="43.454615436494350433349609375" lon="1.46078676916658878326416015625">
        <ele>201.399993896484375</ele>
        <time>2026-08-05T06:58:42.000Z</time>
        <extensions>
          <ns3:TrackPointExtension>
            <ns3:hr>84</ns3:hr>
            <ns3:cad>43</ns3:cad>
          </ns3:TrackPointExtension>
        </extensions>
      </trkpt>
      <trkpt lat="43.45462440513074398040771484375" lon="1.4607948996126651763916015625">
        <ele>201.399993896484375</ele>
        <time>2026-08-05T06:58:43.000Z</time>
        <extensions>
          <ns3:TrackPointExtension>
            <ns3:hr>84</ns3:hr>
            <ns3:cad>42</ns3:cad>
          </ns3:TrackPointExtension>
        </extensions>
      </trkpt>
      <trkpt lat="43.45463144592940807342529296875" lon="1.46079665981233119964599609375">
        <ele>201.600006103515625</ele>
        <time>2026-08-05T06:58:44.000Z</time>
        <extensions>
          <ns3:TrackPointExtension>
            <ns3:hr>84</ns3:hr>
            <ns3:cad>42</ns3:cad>
          </ns3:TrackPointExtension>
        </extensions>
      </trkpt>
      <trkpt lat="43.45463815145194530487060546875" lon="1.46080286242067813873291015625">
        <ele>201.600006103515625</ele>
        <time>2026-08-05T06:58:45.000Z</time>
        <extensions>
          <ns3:TrackPointExtension>
            <ns3:hr>84</ns3:hr>
            <ns3:cad>43</ns3:cad>
          </ns3:TrackPointExtension>
        </extensions>
      </trkpt>
      <trkpt lat="43.4546474553644657135009765625" lon="1.46080680191516876220703125">
        <ele>201.600006103515625</ele>
        <time>2026-08-05T06:58:46.000Z</time>
        <extensions>
          <ns3:TrackPointExtension>
            <ns3:hr>84</ns3:hr>
            <ns3:cad>43</ns3:cad>
          </ns3:TrackPointExtension>
        </extensions>
      </trkpt>
      <trkpt lat="43.454657010734081268310546875" lon="1.4608128368854522705078125">
        <ele>201.8000030517578125</ele>
        <time>2026-08-05T06:58:47.000Z</time>
        <extensions>
          <ns3:TrackPointExtension>
            <ns3:hr>84</ns3:hr>
            <ns3:cad>43</ns3:cad>
          </ns3:TrackPointExtension>
        </extensions>
      </trkpt>
      <trkpt lat="43.454662375152111053466796875" lon="1.4608220569789409637451171875">
        <ele>201.8000030517578125</ele>
        <time>2026-08-05T06:58:48.000Z</time>
        <extensions>
          <ns3:TrackPointExtension>
            <ns3:hr>84</ns3:hr>
            <ns3:cad>43</ns3:cad>
          </ns3:TrackPointExtension>
        </extensions>
      </trkpt>
      <trkpt lat="43.45466866157948970794677734375" lon="1.46082851104438304901123046875">
        <ele>201.8000030517578125</ele>
        <time>2026-08-05T06:58:49.000Z</time>
        <extensions>
          <ns3:TrackPointExtension>
            <ns3:hr>84</ns3:hr>
            <ns3:cad>43</ns3:cad>
          </ns3:TrackPointExtension>
        </extensions>
      </trkpt>
      <trkpt lat="43.4546752832829952239990234375" lon="1.4608378149569034576416015625">
        <ele>201.8000030517578125</ele>
        <time>2026-08-05T06:58:50.000Z</time>
        <extensions>
          <ns3:TrackPointExtension>
            <ns3:hr>83</ns3:hr>
            <ns3:cad>43</ns3:cad>
          </ns3:TrackPointExtension>
        </extensions>
      </trkpt>
      <trkpt lat="43.4546840004622936248779296875" lon="1.460842005908489227294921875">
        <ele>201.8000030517578125</ele>
        <time>2026-08-05T06:58:51.000Z</time>
        <extensions>
          <ns3:TrackPointExtension>
            <ns3:hr>84</ns3:hr>
            <ns3:cad>43</ns3:cad>
          </ns3:TrackPointExtension>
        </extensions>
      </trkpt>
      <trkpt lat="43.4546907059848308563232421875" lon="1.460845358669757843017578125">
        <ele>202</ele>
        <time>2026-08-05T06:58:52.000Z</time>
        <extensions>
          <ns3:TrackPointExtension>
            <ns3:hr>84</ns3:hr>
            <ns3:cad>43</ns3:cad>
          </ns3:TrackPointExtension>
        </extensions>
      </trkpt>
      <trkpt lat="43.45469816587865352630615234375" lon="1.46085399203002452850341796875">
        <ele>202</ele>
        <time>2026-08-05T06:58:53.000Z</time>
        <extensions>
          <ns3:TrackPointExtension>
            <ns3:hr>84</ns3:hr>
            <ns3:cad>43</ns3:cad>
          </ns3:TrackPointExtension>
        </extensions>
      </trkpt>
      <trkpt lat="43.4547067992389202117919921875" lon="1.46086178719997406005859375">
        <ele>202.1999969482421875</ele>
        <time>2026-08-05T06:58:54.000Z</time>
        <extensions>
          <ns3:TrackPointExtension>
            <ns3:hr>85</ns3:hr>
            <ns3:cad>44</ns3:cad>
          </ns3:TrackPointExtension>
        </extensions>
      </trkpt>
      <trkpt lat="43.4547138400375843048095703125" lon="1.460867822170257568359375">
        <ele>202.1999969482421875</ele>
        <time>2026-08-05T06:58:55.000Z</time>
        <extensions>
          <ns3:TrackPointExtension>
            <ns3:hr>85</ns3:hr>
            <ns3:cad>44</ns3:cad>
          </ns3:TrackPointExtension>
        </extensions>
      </trkpt>
      <trkpt lat="43.45472146756947040557861328125" lon="1.4608800597488880157470703125">
        <ele>202.399993896484375</ele>
        <time>2026-08-05T06:58:56.000Z</time>
        <extensions>
          <ns3:TrackPointExtension>
            <ns3:hr>85</ns3:hr>
            <ns3:cad>43</ns3:cad>
          </ns3:TrackPointExtension>
        </extensions>
      </trkpt>
      <trkpt lat="43.45473043620586395263671875" lon="1.4608884416520595550537109375">
        <ele>202.600006103515625</ele>
        <time>2026-08-05T06:58:57.000Z</time>
        <extensions>
          <ns3:TrackPointExtension>
            <ns3:hr>85</ns3:hr>
            <ns3:cad>42</ns3:cad>
          </ns3:TrackPointExtension>
        </extensions>
      </trkpt>
      <trkpt lat="43.45474183559417724609375" lon="1.46089640446007251739501953125">
        <ele>202.600006103515625</ele>
        <time>2026-08-05T06:58:58.000Z</time>
        <extensions>
          <ns3:TrackPointExtension>
            <ns3:hr>85</ns3:hr>
            <ns3:cad>42</ns3:cad>
          </ns3:TrackPointExtension>
        </extensions>
      </trkpt>
      <trkpt lat="43.45475214533507823944091796875" lon="1.46090495400130748748779296875">
        <ele>202.600006103515625</ele>
        <time>2026-08-05T06:58:59.000Z</time>
        <extensions>
          <ns3:TrackPointExtension>
            <ns3:hr>86</ns3:hr>
            <ns3:cad>42</ns3:cad>
          </ns3:TrackPointExtension>
        </extensions>
      </trkpt>
      <trkpt lat="43.4547627903521060943603515625" lon="1.46091316826641559600830078125">
        <ele>202.8000030517578125</ele>
        <time>2026-08-05T06:59:00.000Z</time>
        <extensions>
          <ns3:TrackPointExtension>
            <ns3:hr>86</ns3:hr>
            <ns3:cad>43</ns3:cad>
          </ns3:TrackPointExtension>
        </extensions>
      </trkpt>
      <trkpt lat="43.45477008260786533355712890625" lon="1.4609228074550628662109375">
        <ele>202.8000030517578125</ele>
        <time>2026-08-05T06:59:01.000Z</time>
        <extensions>
          <ns3:TrackPointExtension>
            <ns3:hr>86</ns3:hr>
            <ns3:cad>44</ns3:cad>
          </ns3:TrackPointExtension>
        </extensions>
      </trkpt>
      <trkpt lat="43.45477326773107051849365234375" lon="1.46092808805406093597412109375">
        <ele>202.8000030517578125</ele>
        <time>2026-08-05T06:59:02.000Z</time>
        <extensions>
          <ns3:TrackPointExtension>
            <ns3:hr>86</ns3:hr>
            <ns3:cad>44</ns3:cad>
          </ns3:TrackPointExtension>
        </extensions>
      </trkpt>
      <trkpt lat="43.4547795541584491729736328125" lon="1.46093362011015415191650390625">
        <ele>202.8000030517578125</ele>
        <time>2026-08-05T06:59:03.000Z</time>
        <extensions>
          <ns3:TrackPointExtension>
            <ns3:hr>86</ns3:hr>
            <ns3:cad>44</ns3:cad>
          </ns3:TrackPointExtension>
        </extensions>
      </trkpt>
      <trkpt lat="43.45478885807096958160400390625" lon="1.46093948744237422943115234375">
        <ele>203</ele>
        <time>2026-08-05T06:59:04.000Z</time>
        <extensions>
          <ns3:TrackPointExtension>
            <ns3:hr>87</ns3:hr>
            <ns3:cad>43</ns3:cad>
          </ns3:TrackPointExtension>
        </extensions>
      </trkpt>
      <trkpt lat="43.4547956474125385284423828125" lon="1.460945941507816314697265625">
        <ele>203</ele>
        <time>2026-08-05T06:59:05.000Z</time>
        <extensions>
          <ns3:TrackPointExtension>
            <ns3:hr>87</ns3:hr>
            <ns3:cad>43</ns3:cad>
          </ns3:TrackPointExtension>
        </extensions>
      </trkpt>
      <trkpt lat="43.45480176620185375213623046875" lon="1.4609523117542266845703125">
        <ele>202.8000030517578125</ele>
        <time>2026-08-05T06:59:06.000Z</time>
        <extensions>
          <ns3:TrackPointExtension>
            <ns3:hr>88</ns3:hr>
            <ns3:cad>43</ns3:cad>
          </ns3:TrackPointExtension>
        </extensions>
      </trkpt>
      <trkpt lat="43.4548102319240570068359375" lon="1.4609578438103199005126953125">
        <ele>202.8000030517578125</ele>
        <time>2026-08-05T06:59:07.000Z</time>
        <extensions>
          <ns3:TrackPointExtension>
            <ns3:hr>88</ns3:hr>
            <ns3:cad>43</ns3:cad>
          </ns3:TrackPointExtension>
        </extensions>
      </trkpt>
      <trkpt lat="43.45481785945594310760498046875" lon="1.4609601907432079315185546875">
        <ele>202.8000030517578125</ele>
        <time>2026-08-05T06:59:08.000Z</time>
        <extensions>
          <ns3:TrackPointExtension>
            <ns3:hr>88</ns3:hr>
            <ns3:cad>43</ns3:cad>
          </ns3:TrackPointExtension>
        </extensions>
      </trkpt>
      <trkpt lat="43.45482565462589263916015625" lon="1.46096698008477687835693359375">
        <ele>202.8000030517578125</ele>
        <time>2026-08-05T06:59:09.000Z</time>
        <extensions>
          <ns3:TrackPointExtension>
            <ns3:hr>88</ns3:hr>
            <ns3:cad>45</ns3:cad>
          </ns3:TrackPointExtension>
        </extensions>
      </trkpt>
      <trkpt lat="43.45483361743390560150146484375" lon="1.4609732665121555328369140625">
        <ele>202.600006103515625</ele>
        <time>2026-08-05T06:59:10.000Z</time>
        <extensions>
          <ns3:TrackPointExtension>
            <ns3:hr>89</ns3:hr>
            <ns3:cad>45</ns3:cad>
          </ns3:TrackPointExtension>
        </extensions>
      </trkpt>
      <trkpt lat="43.45483982004225254058837890625" lon="1.4609799720346927642822265625">
        <ele>202.8000030517578125</ele>
        <time>2026-08-05T06:59:11.000Z</time>
        <extensions>
          <ns3:TrackPointExtension>
            <ns3:hr>89</ns3:hr>
            <ns3:cad>46</ns3:cad>
          </ns3:TrackPointExtension>
        </extensions>
      </trkpt>
      <trkpt lat="43.45484551973640918731689453125" lon="1.46098709665238857269287109375">
        <ele>202.8000030517578125</ele>
        <time>2026-08-05T06:59:12.000Z</time>
        <extensions>
          <ns3:TrackPointExtension>
            <ns3:hr>89</ns3:hr>
            <ns3:cad>47</ns3:cad>
          </ns3:TrackPointExtension>
        </extensions>
      </trkpt>
      <trkpt lat="43.4548536501824855804443359375" lon="1.4609937183558940887451171875">
        <ele>202.8000030517578125</ele>
        <time>2026-08-05T06:59:13.000Z</time>
        <extensions>
          <ns3:TrackPointExtension>
            <ns3:hr>90</ns3:hr>
            <ns3:cad>48</ns3:cad>
          </ns3:TrackPointExtension>
        </extensions>
      </trkpt>
      <trkpt lat="43.45485976897180080413818359375" lon="1.46099933423101902008056640625">
        <ele>202.8000030517578125</ele>
        <time>2026-08-05T06:59:14.000Z</time>
        <extensions>
          <ns3:TrackPointExtension>
            <ns3:hr>90</ns3:hr>
            <ns3:cad>48</ns3:cad>
          </ns3:TrackPointExtension>
        </extensions>
      </trkpt>
      <trkpt lat="43.4548673965036869049072265625" lon="1.46100352518260478973388671875">
        <ele>203</ele>
        <time>2026-08-05T06:59:15.000Z</time>
        <extensions>
          <ns3:TrackPointExtension>
            <ns3:hr>90</ns3:hr>
            <ns3:cad>42</ns3:cad>
          </ns3:TrackPointExtension>
        </extensions>
      </trkpt>
      <trkpt lat="43.4548761136829853057861328125" lon="1.4610114879906177520751953125">
        <ele>203</ele>
        <time>2026-08-05T06:59:16.000Z</time>
        <extensions>
          <ns3:TrackPointExtension>
            <ns3:hr>90</ns3:hr>
            <ns3:cad>42</ns3:cad>
          </ns3:TrackPointExtension>
        </extensions>
      </trkpt>
      <trkpt lat="43.45488457940518856048583984375" lon="1.46101743914186954498291015625">
        <ele>203</ele>
        <time>2026-08-05T06:59:17.000Z</time>
        <extensions>
          <ns3:TrackPointExtension>
            <ns3:hr>89</ns3:hr>
            <ns3:cad>44</ns3:cad>
          </ns3:TrackPointExtension>
        </extensions>
      </trkpt>
      <trkpt lat="43.4548922069370746612548828125" lon="1.461027078330516815185546875">
        <ele>203</ele>
        <time>2026-08-05T06:59:18.000Z</time>
        <extensions>
          <ns3:TrackPointExtension>
            <ns3:hr>89</ns3:hr>
            <ns3:cad>44</ns3:cad>
          </ns3:TrackPointExtension>
        </extensions>
      </trkpt>
      <trkpt lat="43.45490117557346820831298828125" lon="1.46103571169078350067138671875">
        <ele>203</ele>
        <time>2026-08-05T06:59:19.000Z</time>
        <extensions>
          <ns3:TrackPointExtension>
            <ns3:hr>89</ns3:hr>
            <ns3:cad>44</ns3:cad>
          </ns3:TrackPointExtension>
        </extensions>
      </trkpt>
      <trkpt lat="43.454909808933734893798828125" lon="1.4610389806330204010009765625">
        <ele>203</ele>
        <time>2026-08-05T06:59:20.000Z</time>
        <extensions>
          <ns3:TrackPointExtension>
            <ns3:hr>89</ns3:hr>
            <ns3:cad>42</ns3:cad>
          </ns3:TrackPointExtension>
        </extensions>
      </trkpt>
      <trkpt lat="43.45491726882755756378173828125" lon="1.46104459650814533233642578125">
        <ele>203</ele>
        <time>2026-08-05T06:59:21.000Z</time>
        <extensions>
          <ns3:TrackPointExtension>
            <ns3:hr>88</ns3:hr>
            <ns3:cad>41</ns3:cad>
          </ns3:TrackPointExtension>
        </extensions>
      </trkpt>
      <trkpt lat="43.45492355525493621826171875" lon="1.4610537327826023101806640625">
        <ele>203</ele>
        <time>2026-08-05T06:59:22.000Z</time>
        <extensions>
          <ns3:TrackPointExtension>
            <ns3:hr>88</ns3:hr>
            <ns3:cad>41</ns3:cad>
          </ns3:TrackPointExtension>
        </extensions>
      </trkpt>
      <trkpt lat="43.45493319444358348846435546875" lon="1.46106370724737644195556640625">
        <ele>203</ele>
        <time>2026-08-05T06:59:23.000Z</time>
        <extensions>
          <ns3:TrackPointExtension>
            <ns3:hr>88</ns3:hr>
            <ns3:cad>43</ns3:cad>
          </ns3:TrackPointExtension>
        </extensions>
      </trkpt>
      <trkpt lat="43.4549398161470890045166015625" lon="1.4610745199024677276611328125">
        <ele>203</ele>
        <time>2026-08-05T06:59:24.000Z</time>
        <extensions>
          <ns3:TrackPointExtension>
            <ns3:hr>88</ns3:hr>
            <ns3:cad>43</ns3:cad>
          </ns3:TrackPointExtension>
        </extensions>
      </trkpt>
      <trkpt lat="43.454946018755435943603515625" lon="1.46108751185238361358642578125">
        <ele>203</ele>
        <time>2026-08-05T06:59:25.000Z</time>
        <extensions>
          <ns3:TrackPointExtension>
            <ns3:hr>88</ns3:hr>
            <ns3:cad>43</ns3:cad>
          </ns3:TrackPointExtension>
        </extensions>
      </trkpt>
      <trkpt lat="43.45495381392538547515869140625" lon="1.4611010067164897918701171875">
        <ele>203</ele>
        <time>2026-08-05T06:59:26.000Z</time>
        <extensions>
          <ns3:TrackPointExtension>
            <ns3:hr>88</ns3:hr>
            <ns3:cad>43</ns3:cad>
          </ns3:TrackPointExtension>
        </extensions>
      </trkpt>
      <trkpt lat="43.45495984889566898345947265625" lon="1.46111316047608852386474609375">
        <ele>203</ele>
        <time>2026-08-05T06:59:27.000Z</time>
        <extensions>
          <ns3:TrackPointExtension>
            <ns3:hr>88</ns3:hr>
            <ns3:cad>43</ns3:cad>
          </ns3:TrackPointExtension>
        </extensions>
      </trkpt>
      <trkpt lat="43.45496303401887416839599609375" lon="1.46112120710313320159912109375">
        <ele>203</ele>
        <time>2026-08-05T06:59:28.000Z</time>
        <extensions>
          <ns3:TrackPointExtension>
            <ns3:hr>88</ns3:hr>
            <ns3:cad>43</ns3:cad>
          </ns3:TrackPointExtension>
        </extensions>
      </trkpt>
      <trkpt lat="43.4549696557223796844482421875" lon="1.46113361231982707977294921875">
        <ele>203</ele>
        <time>2026-08-05T06:59:29.000Z</time>
        <extensions>
          <ns3:TrackPointExtension>
            <ns3:hr>87</ns3:hr>
            <ns3:cad>44</ns3:cad>
          </ns3:TrackPointExtension>
        </extensions>
      </trkpt>
      <trkpt lat="43.4549773670732975006103515625" lon="1.461146436631679534912109375">
        <ele>203</ele>
        <time>2026-08-05T06:59:30.000Z</time>
        <extensions>
          <ns3:TrackPointExtension>
            <ns3:hr>87</ns3:hr>
            <ns3:cad>44</ns3:cad>
          </ns3:TrackPointExtension>
        </extensions>
      </trkpt>
      <trkpt lat="43.4549810551106929779052734375" lon="1.46115892566740512847900390625">
        <ele>203</ele>
        <time>2026-08-05T06:59:31.000Z</time>
        <extensions>
          <ns3:TrackPointExtension>
            <ns3:hr>87</ns3:hr>
            <ns3:cad>42</ns3:cad>
          </ns3:TrackPointExtension>
        </extensions>
      </trkpt>
      <trkpt lat="43.4549854137003421783447265625" lon="1.46117049269378185272216796875">
        <ele>203</ele>
        <time>2026-08-05T06:59:32.000Z</time>
        <extensions>
          <ns3:TrackPointExtension>
            <ns3:hr>86</ns3:hr>
            <ns3:cad>41</ns3:cad>
          </ns3:TrackPointExtension>
        </extensions>
      </trkpt>
      <trkpt lat="43.45498784445226192474365234375" lon="1.4611821435391902923583984375">
        <ele>203</ele>
        <time>2026-08-05T06:59:33.000Z</time>
        <extensions>
          <ns3:TrackPointExtension>
            <ns3:hr>86</ns3:hr>
            <ns3:cad>41</ns3:cad>
          </ns3:TrackPointExtension>
        </extensions>
      </trkpt>
      <trkpt lat="43.45499656163156032562255859375" lon="1.4611918665468692779541015625">
        <ele>203</ele>
        <time>2026-08-05T06:59:34.000Z</time>
        <extensions>
          <ns3:TrackPointExtension>
            <ns3:hr>86</ns3:hr>
            <ns3:cad>41</ns3:cad>
          </ns3:TrackPointExtension>
        </extensions>
      </trkpt>
      <trkpt lat="43.45499932765960693359375" lon="1.46120108664035797119140625">
        <ele>203</ele>
        <time>2026-08-05T06:59:35.000Z</time>
        <extensions>
          <ns3:TrackPointExtension>
            <ns3:hr>86</ns3:hr>
            <ns3:cad>42</ns3:cad>
          </ns3:TrackPointExtension>
        </extensions>
      </trkpt>
      <trkpt lat="43.45500226132571697235107421875" lon="1.4612109772861003875732421875">
        <ele>203</ele>
        <time>2026-08-05T06:59:36.000Z</time>
        <extensions>
          <ns3:TrackPointExtension>
            <ns3:hr>86</ns3:hr>
            <ns3:cad>43</ns3:cad>
          </ns3:TrackPointExtension>
        </extensions>
      </trkpt>
      <trkpt lat="43.4550051949918270111083984375" lon="1.461222879588603973388671875">
        <ele>203</ele>
        <time>2026-08-05T06:59:37.000Z</time>
        <extensions>
          <ns3:TrackPointExtension>
            <ns3:hr>86</ns3:hr>
            <ns3:cad>44</ns3:cad>
          </ns3:TrackPointExtension>
        </extensions>
      </trkpt>
      <trkpt lat="43.4550102241337299346923828125" lon="1.46123603917658329010009765625">
        <ele>203</ele>
        <time>2026-08-05T06:59:38.000Z</time>
        <extensions>
          <ns3:TrackPointExtension>
            <ns3:hr>86</ns3:hr>
            <ns3:cad>44</ns3:cad>
          </ns3:TrackPointExtension>
        </extensions>
      </trkpt>
      <trkpt lat="43.45501483418047428131103515625" lon="1.46124710328876972198486328125">
        <ele>203</ele>
        <time>2026-08-05T06:59:39.000Z</time>
        <extensions>
          <ns3:TrackPointExtension>
            <ns3:hr>86</ns3:hr>
            <ns3:cad>45</ns3:cad>
          </ns3:TrackPointExtension>
        </extensions>
      </trkpt>
      <trkpt lat="43.4550186060369014739990234375" lon="1.46125900559127330780029296875">
        <ele>202.8000030517578125</ele>
        <time>2026-08-05T06:59:40.000Z</time>
        <extensions>
          <ns3:TrackPointExtension>
            <ns3:hr>86</ns3:hr>
            <ns3:cad>45</ns3:cad>
          </ns3:TrackPointExtension>
        </extensions>
      </trkpt>
      <trkpt lat="43.455023132264614105224609375" lon="1.46126839332282543182373046875">
        <ele>202.8000030517578125</ele>
        <time>2026-08-05T06:59:41.000Z</time>
        <extensions>
          <ns3:TrackPointExtension>
            <ns3:hr>86</ns3:hr>
            <ns3:cad>45</ns3:cad>
          </ns3:TrackPointExtension>
        </extensions>
      </trkpt>
      <trkpt lat="43.455027826130390167236328125" lon="1.4612800441682338714599609375">
        <ele>202.8000030517578125</ele>
        <time>2026-08-05T06:59:42.000Z</time>
        <extensions>
          <ns3:TrackPointExtension>
            <ns3:hr>85</ns3:hr>
            <ns3:cad>45</ns3:cad>
          </ns3:TrackPointExtension>
        </extensions>
      </trkpt>
      <trkpt lat="43.45503620803356170654296875" lon="1.461288593709468841552734375">
        <ele>202.8000030517578125</ele>
        <time>2026-08-05T06:59:43.000Z</time>
        <extensions>
          <ns3:TrackPointExtension>
            <ns3:hr>85</ns3:hr>
            <ns3:cad>45</ns3:cad>
          </ns3:TrackPointExtension>
        </extensions>
      </trkpt>
      <trkpt lat="43.455043248832225799560546875" lon="1.46129588596522808074951171875">
        <ele>202.600006103515625</ele>
        <time>2026-08-05T06:59:44.000Z</time>
        <extensions>
          <ns3:TrackPointExtension>
            <ns3:hr>84</ns3:hr>
            <ns3:cad>47</ns3:cad>
          </ns3:TrackPointExtension>
        </extensions>
      </trkpt>
      <trkpt lat="43.4550511278212070465087890625" lon="1.4613061957061290740966796875">
        <ele>202.600006103515625</ele>
        <time>2026-08-05T06:59:45.000Z</time>
        <extensions>
          <ns3:TrackPointExtension>
            <ns3:hr>83</ns3:hr>
            <ns3:cad>48</ns3:cad>
          </ns3:TrackPointExtension>
        </extensions>
      </trkpt>
      <trkpt lat="43.4550598450005054473876953125" lon="1.46131684072315692901611328125">
        <ele>202.600006103515625</ele>
        <time>2026-08-05T06:59:46.000Z</time>
        <extensions>
          <ns3:TrackPointExtension>
            <ns3:hr>82</ns3:hr>
            <ns3:cad>48</ns3:cad>
          </ns3:TrackPointExtension>
        </extensions>
      </trkpt>
      <trkpt lat="43.45506814308464527130126953125" lon="1.4613296650350093841552734375">
        <ele>202.600006103515625</ele>
        <time>2026-08-05T06:59:47.000Z</time>
        <extensions>
          <ns3:TrackPointExtension>
            <ns3:hr>82</ns3:hr>
            <ns3:cad>47</ns3:cad>
          </ns3:TrackPointExtension>
        </extensions>
      </trkpt>
      <trkpt lat="43.4550762735307216644287109375" lon="1.4613383822143077850341796875">
        <ele>202.600006103515625</ele>
        <time>2026-08-05T06:59:48.000Z</time>
        <extensions>
          <ns3:TrackPointExtension>
            <ns3:hr>81</ns3:hr>
            <ns3:cad>46</ns3:cad>
          </ns3:TrackPointExtension>
        </extensions>
      </trkpt>
      <trkpt lat="43.45508306287229061126708984375" lon="1.46134701557457447052001953125">
        <ele>202.600006103515625</ele>
        <time>2026-08-05T06:59:49.000Z</time>
        <extensions>
          <ns3:TrackPointExtension>
            <ns3:hr>81</ns3:hr>
            <ns3:cad>45</ns3:cad>
          </ns3:TrackPointExtension>
        </extensions>
      </trkpt>
      <trkpt lat="43.455092199146747589111328125" lon="1.461358331143856048583984375">
        <ele>202.600006103515625</ele>
        <time>2026-08-05T06:59:50.000Z</time>
        <extensions>
          <ns3:TrackPointExtension>
            <ns3:hr>81</ns3:hr>
            <ns3:cad>45</ns3:cad>
          </ns3:TrackPointExtension>
        </extensions>
      </trkpt>
      <trkpt lat="43.4550967253744602203369140625" lon="1.46136411465704441070556640625">
        <ele>202.600006103515625</ele>
        <time>2026-08-05T06:59:51.000Z</time>
        <extensions>
          <ns3:TrackPointExtension>
            <ns3:hr>81</ns3:hr>
            <ns3:cad>45</ns3:cad>
          </ns3:TrackPointExtension>
        </extensions>
      </trkpt>
      <trkpt lat="43.45510192215442657470703125" lon="1.46137232892215251922607421875">
        <ele>202.600006103515625</ele>
        <time>2026-08-05T06:59:52.000Z</time>
        <extensions>
          <ns3:TrackPointExtension>
            <ns3:hr>81</ns3:hr>
            <ns3:cad>45</ns3:cad>
          </ns3:TrackPointExtension>
        </extensions>
      </trkpt>
      <trkpt lat="43.45510636456310749053955078125" lon="1.461377441883087158203125">
        <ele>202.600006103515625</ele>
        <time>2026-08-05T06:59:53.000Z</time>
        <extensions>
          <ns3:TrackPointExtension>
            <ns3:hr>80</ns3:hr>
            <ns3:cad>45</ns3:cad>
          </ns3:TrackPointExtension>
        </extensions>
      </trkpt>
      <trkpt lat="43.45511508174240589141845703125" lon="1.4613895118236541748046875">
        <ele>202.600006103515625</ele>
        <time>2026-08-05T06:59:54.000Z</time>
        <extensions>
          <ns3:TrackPointExtension>
            <ns3:hr>80</ns3:hr>
            <ns3:cad>46</ns3:cad>
          </ns3:TrackPointExtension>
        </extensions>
      </trkpt>
      <trkpt lat="43.4551248885691165924072265625" lon="1.46139814518392086029052734375">
        <ele>202.600006103515625</ele>
        <time>2026-08-05T06:59:55.000Z</time>
        <extensions>
          <ns3:TrackPointExtension>
            <ns3:hr>80</ns3:hr>
            <ns3:cad>46</ns3:cad>
          </ns3:TrackPointExtension>
        </extensions>
      </trkpt>
      <trkpt lat="43.45513469539582729339599609375" lon="1.461401246488094329833984375">
        <ele>202.600006103515625</ele>
        <time>2026-08-05T06:59:56.000Z</time>
        <extensions>
          <ns3:TrackPointExtension>
            <ns3:hr>80</ns3:hr>
            <ns3:cad>46</ns3:cad>
          </ns3:TrackPointExtension>
        </extensions>
      </trkpt>
      <trkpt lat="43.455142490565776824951171875" lon="1.4614074490964412689208984375">
        <ele>202.600006103515625</ele>
        <time>2026-08-05T06:59:57.000Z</time>
        <extensions>
          <ns3:TrackPointExtension>
            <ns3:hr>80</ns3:hr>
            <ns3:cad>46</ns3:cad>
          </ns3:TrackPointExtension>
        </extensions>
      </trkpt>
      <trkpt lat="43.45515430904924869537353515625" lon="1.46141256205737590789794921875">
        <ele>202.600006103515625</ele>
        <time>2026-08-05T06:59:58.000Z</time>
        <extensions>
          <ns3:TrackPointExtension>
            <ns3:hr>79</ns3:hr>
            <ns3:cad>43</ns3:cad>
          </ns3:TrackPointExtension>
        </extensions>
      </trkpt>
      <trkpt lat="43.4551607631146907806396484375" lon="1.4614163339138031005859375">
        <ele>202.600006103515625</ele>
        <time>2026-08-05T06:59:59.000Z</time>
        <extensions>
          <ns3:TrackPointExtension>
            <ns3:hr>79</ns3:hr>
            <ns3:cad>43</ns3:cad>
          </ns3:TrackPointExtension>
        </extensions>
      </trkpt>
      <trkpt lat="43.45516755245625972747802734375" lon="1.46141834557056427001953125">
        <ele>202.399993896484375</ele>
        <time>2026-08-05T07:00:00.000Z</time>
        <extensions>
          <ns3:TrackPointExtension>
            <ns3:hr>79</ns3:hr>
            <ns3:cad>43</ns3:cad>
          </ns3:TrackPointExtension>
        </extensions>
      </trkpt>
      <trkpt lat="43.455174677073955535888671875" lon="1.46141708828508853912353515625">
        <ele>202.399993896484375</ele>
        <time>2026-08-05T07:00:01.000Z</time>
        <extensions>
          <ns3:TrackPointExtension>
            <ns3:hr>79</ns3:hr>
            <ns3:cad>47</ns3:cad>
          </ns3:TrackPointExtension>
        </extensions>
      </trkpt>
      <trkpt lat="43.45518507063388824462890625" lon="1.46142194978892803192138671875">
        <ele>202.399993896484375</ele>
        <time>2026-08-05T07:00:02.000Z</time>
        <extensions>
          <ns3:TrackPointExtension>
            <ns3:hr>79</ns3:hr>
            <ns3:cad>47</ns3:cad>
          </ns3:TrackPointExtension>
        </extensions>
      </trkpt>
      <trkpt lat="43.45519403927028179168701171875" lon="1.4614238776266574859619140625">
        <ele>202.399993896484375</ele>
        <time>2026-08-05T07:00:03.000Z</time>
        <extensions>
          <ns3:TrackPointExtension>
            <ns3:hr>79</ns3:hr>
            <ns3:cad>48</ns3:cad>
          </ns3:TrackPointExtension>
        </extensions>
      </trkpt>
      <trkpt lat="43.45520292408764362335205078125" lon="1.461425721645355224609375">
        <ele>202.399993896484375</ele>
        <time>2026-08-05T07:00:04.000Z</time>
        <extensions>
          <ns3:TrackPointExtension>
            <ns3:hr>79</ns3:hr>
            <ns3:cad>48</ns3:cad>
          </ns3:TrackPointExtension>
        </extensions>
      </trkpt>
      <trkpt lat="43.4552123956382274627685546875" lon="1.4614295773208141326904296875">
        <ele>202.399993896484375</ele>
        <time>2026-08-05T07:00:05.000Z</time>
        <extensions>
          <ns3:TrackPointExtension>
            <ns3:hr>78</ns3:hr>
            <ns3:cad>47</ns3:cad>
          </ns3:TrackPointExtension>
        </extensions>
      </trkpt>
      <trkpt lat="43.4552232921123504638671875" lon="1.4614329300820827484130859375">
        <ele>202.600006103515625</ele>
        <time>2026-08-05T07:00:06.000Z</time>
        <extensions>
          <ns3:TrackPointExtension>
            <ns3:hr>78</ns3:hr>
            <ns3:cad>46</ns3:cad>
          </ns3:TrackPointExtension>
        </extensions>
      </trkpt>
      <trkpt lat="43.4552338533103466033935546875" lon="1.4614356122910976409912109375">
        <ele>202.600006103515625</ele>
        <time>2026-08-05T07:00:07.000Z</time>
        <extensions>
          <ns3:TrackPointExtension>
            <ns3:hr>78</ns3:hr>
            <ns3:cad>45</ns3:cad>
          </ns3:TrackPointExtension>
        </extensions>
      </trkpt>
      <trkpt lat="43.4552432410418987274169921875" lon="1.46144038997590541839599609375">
        <ele>202.8000030517578125</ele>
        <time>2026-08-05T07:00:08.000Z</time>
        <extensions>
          <ns3:TrackPointExtension>
            <ns3:hr>78</ns3:hr>
            <ns3:cad>44</ns3:cad>
          </ns3:TrackPointExtension>
        </extensions>
      </trkpt>
      <trkpt lat="43.45525153912603855133056640625" lon="1.461447514593601226806640625">
        <ele>203</ele>
        <time>2026-08-05T07:00:09.000Z</time>
        <extensions>
          <ns3:TrackPointExtension>
            <ns3:hr>78</ns3:hr>
            <ns3:cad>44</ns3:cad>
          </ns3:TrackPointExtension>
        </extensions>
      </trkpt>
      <trkpt lat="43.45525707118213176727294921875" lon="1.46145329810678958892822265625">
        <ele>203.1999969482421875</ele>
        <time>2026-08-05T07:00:10.000Z</time>
        <extensions>
          <ns3:TrackPointExtension>
            <ns3:hr>78</ns3:hr>
            <ns3:cad>45</ns3:cad>
          </ns3:TrackPointExtension>
        </extensions>
      </trkpt>
      <trkpt lat="43.45526025630533695220947265625" lon="1.4614533819258213043212890625">
        <ele>203.399993896484375</ele>
        <time>2026-08-05T07:00:11.000Z</time>
        <extensions>
          <ns3:TrackPointExtension>
            <ns3:hr>78</ns3:hr>
            <ns3:cad>44</ns3:cad>
          </ns3:TrackPointExtension>
        </extensions>
      </trkpt>
      <trkpt lat="43.45526461489498615264892578125" lon="1.461455561220645904541015625">
        <ele>203.600006103515625</ele>
        <time>2026-08-05T07:00:12.000Z</time>
        <extensions>
          <ns3:TrackPointExtension>
            <ns3:hr>78</ns3:hr>
            <ns3:cad>44</ns3:cad>
          </ns3:TrackPointExtension>
        </extensions>
      </trkpt>
      <trkpt lat="43.45527299679815769195556640625" lon="1.461460925638675689697265625">
        <ele>203.8000030517578125</ele>
        <time>2026-08-05T07:00:13.000Z</time>
        <extensions>
          <ns3:TrackPointExtension>
            <ns3:hr>78</ns3:hr>
            <ns3:cad>44</ns3:cad>
          </ns3:TrackPointExtension>
        </extensions>
      </trkpt>
      <trkpt lat="43.455281294882297515869140625" lon="1.46146452985703945159912109375">
        <ele>204</ele>
        <time>2026-08-05T07:00:14.000Z</time>
        <extensions>
          <ns3:TrackPointExtension>
            <ns3:hr>78</ns3:hr>
            <ns3:cad>43</ns3:cad>
          </ns3:TrackPointExtension>
        </extensions>
      </trkpt>
      <trkpt lat="43.4552854858338832855224609375" lon="1.46146662533283233642578125">
        <ele>204</ele>
        <time>2026-08-05T07:00:15.000Z</time>
        <extensions>
          <ns3:TrackPointExtension>
            <ns3:hr>78</ns3:hr>
            <ns3:cad>42</ns3:cad>
          </ns3:TrackPointExtension>
        </extensions>
      </trkpt>
      <trkpt lat="43.4552975557744503021240234375" lon="1.4614667929708957672119140625">
        <ele>204.1999969482421875</ele>
        <time>2026-08-05T07:00:16.000Z</time>
        <extensions>
          <ns3:TrackPointExtension>
            <ns3:hr>79</ns3:hr>
            <ns3:cad>42</ns3:cad>
          </ns3:TrackPointExtension>
        </extensions>
      </trkpt>
      <trkpt lat="43.4553106315433979034423828125" lon="1.46146687678992748260498046875">
        <ele>204.399993896484375</ele>
        <time>2026-08-05T07:00:17.000Z</time>
        <extensions>
          <ns3:TrackPointExtension>
            <ns3:hr>79</ns3:hr>
            <ns3:cad>43</ns3:cad>
          </ns3:TrackPointExtension>
        </extensions>
      </trkpt>
      <trkpt lat="43.45531993545591831207275390625" lon="1.46146922372281551361083984375">
        <ele>204.399993896484375</ele>
        <time>2026-08-05T07:00:18.000Z</time>
        <extensions>
          <ns3:TrackPointExtension>
            <ns3:hr>79</ns3:hr>
            <ns3:cad>44</ns3:cad>
          </ns3:TrackPointExtension>
        </extensions>
      </trkpt>
      <trkpt lat="43.4553290717303752899169921875" lon="1.4614691399037837982177734375">
        <ele>204.399993896484375</ele>
        <time>2026-08-05T07:00:19.000Z</time>
        <extensions>
          <ns3:TrackPointExtension>
            <ns3:hr>79</ns3:hr>
            <ns3:cad>44</ns3:cad>
          </ns3:TrackPointExtension>
        </extensions>
      </trkpt>
      <trkpt lat="43.45534122548997402191162109375" lon="1.46147358231246471405029296875">
        <ele>204.399993896484375</ele>
        <time>2026-08-05T07:00:20.000Z</time>
        <extensions>
          <ns3:TrackPointExtension>
            <ns3:hr>80</ns3:hr>
            <ns3:cad>44</ns3:cad>
          </ns3:TrackPointExtension>
        </extensions>
      </trkpt>
      <trkpt lat="43.4553542174398899078369140625" lon="1.46147928200662136077880859375">
        <ele>204.399993896484375</ele>
        <time>2026-08-05T07:00:21.000Z</time>
        <extensions>
          <ns3:TrackPointExtension>
            <ns3:hr>80</ns3:hr>
            <ns3:cad>43</ns3:cad>
          </ns3:TrackPointExtension>
        </extensions>
      </trkpt>
      <trkpt lat="43.45536268316209316253662109375" lon="1.46148732863366603851318359375">
        <ele>204.399993896484375</ele>
        <time>2026-08-05T07:00:22.000Z</time>
        <extensions>
          <ns3:TrackPointExtension>
            <ns3:hr>80</ns3:hr>
            <ns3:cad>43</ns3:cad>
          </ns3:TrackPointExtension>
        </extensions>
      </trkpt>
      <trkpt lat="43.455371819436550140380859375" lon="1.4614949561655521392822265625">
        <ele>204.399993896484375</ele>
        <time>2026-08-05T07:00:23.000Z</time>
        <extensions>
          <ns3:TrackPointExtension>
            <ns3:hr>81</ns3:hr>
            <ns3:cad>43</ns3:cad>
          </ns3:TrackPointExtension>
        </extensions>
      </trkpt>
      <trkpt lat="43.45538313500583171844482421875" lon="1.46150275133550167083740234375">
        <ele>204.399993896484375</ele>
        <time>2026-08-05T07:00:24.000Z</time>
        <extensions>
          <ns3:TrackPointExtension>
            <ns3:hr>81</ns3:hr>
            <ns3:cad>43</ns3:cad>
          </ns3:TrackPointExtension>
        </extensions>
      </trkpt>
      <trkpt lat="43.455389253795146942138671875" lon="1.46150392480194568634033203125">
        <ele>204.1999969482421875</ele>
        <time>2026-08-05T07:00:25.000Z</time>
        <extensions>
          <ns3:TrackPointExtension>
            <ns3:hr>82</ns3:hr>
            <ns3:cad>43</ns3:cad>
          </ns3:TrackPointExtension>
        </extensions>
      </trkpt>
      <trkpt lat="43.45540140755474567413330078125" lon="1.4615073613822460174560546875">
        <ele>204.1999969482421875</ele>
        <time>2026-08-05T07:00:26.000Z</time>
        <extensions>
          <ns3:TrackPointExtension>
            <ns3:hr>82</ns3:hr>
            <ns3:cad>44</ns3:cad>
          </ns3:TrackPointExtension>
        </extensions>
      </trkpt>
      <trkpt lat="43.4554105438292026519775390625" lon="1.4615083672106266021728515625">
        <ele>204.1999969482421875</ele>
        <time>2026-08-05T07:00:27.000Z</time>
        <extensions>
          <ns3:TrackPointExtension>
            <ns3:hr>82</ns3:hr>
            <ns3:cad>44</ns3:cad>
          </ns3:TrackPointExtension>
        </extensions>
      </trkpt>
      <trkpt lat="43.45541599206626415252685546875" lon="1.4615103788673877716064453125">
        <ele>204.1999969482421875</ele>
        <time>2026-08-05T07:00:28.000Z</time>
        <extensions>
          <ns3:TrackPointExtension>
            <ns3:hr>83</ns3:hr>
            <ns3:cad>49</ns3:cad>
          </ns3:TrackPointExtension>
        </extensions>
      </trkpt>
      <trkpt lat="43.45542890019714832305908203125" lon="1.46151213906705379486083984375">
        <ele>204.1999969482421875</ele>
        <time>2026-08-05T07:00:29.000Z</time>
        <extensions>
          <ns3:TrackPointExtension>
            <ns3:hr>83</ns3:hr>
            <ns3:cad>50</ns3:cad>
          </ns3:TrackPointExtension>
        </extensions>
      </trkpt>
      <trkpt lat="43.45543920993804931640625" lon="1.46151515655219554901123046875">
        <ele>204.399993896484375</ele>
        <time>2026-08-05T07:00:30.000Z</time>
        <extensions>
          <ns3:TrackPointExtension>
            <ns3:hr>83</ns3:hr>
            <ns3:cad>50</ns3:cad>
          </ns3:TrackPointExtension>
        </extensions>
      </trkpt>
      <trkpt lat="43.4554467536509037017822265625" lon="1.46151431836187839508056640625">
        <ele>204.399993896484375</ele>
        <time>2026-08-05T07:00:31.000Z</time>
        <extensions>
          <ns3:TrackPointExtension>
            <ns3:hr>84</ns3:hr>
            <ns3:cad>46</ns3:cad>
          </ns3:TrackPointExtension>
        </extensions>
      </trkpt>
      <trkpt lat="43.455455638468265533447265625" lon="1.46151465363800525665283203125">
        <ele>204.600006103515625</ele>
        <time>2026-08-05T07:00:32.000Z</time>
        <extensions>
          <ns3:TrackPointExtension>
            <ns3:hr>84</ns3:hr>
            <ns3:cad>44</ns3:cad>
          </ns3:TrackPointExtension>
        </extensions>
      </trkpt>
      <trkpt lat="43.455465026199817657470703125" lon="1.461513228714466094970703125">
        <ele>204.600006103515625</ele>
        <time>2026-08-05T07:00:33.000Z</time>
        <extensions>
          <ns3:TrackPointExtension>
            <ns3:hr>84</ns3:hr>
            <ns3:cad>42</ns3:cad>
          </ns3:TrackPointExtension>
        </extensions>
      </trkpt>
      <trkpt lat="43.45547231845557689666748046875" lon="1.461511552333831787109375">
        <ele>204.600006103515625</ele>
        <time>2026-08-05T07:00:34.000Z</time>
        <extensions>
          <ns3:TrackPointExtension>
            <ns3:hr>85</ns3:hr>
            <ns3:cad>42</ns3:cad>
          </ns3:TrackPointExtension>
        </extensions>
      </trkpt>
      <trkpt lat="43.455483801662921905517578125" lon="1.461506187915802001953125">
        <ele>204.8000030517578125</ele>
        <time>2026-08-05T07:00:35.000Z</time>
        <extensions>
          <ns3:TrackPointExtension>
            <ns3:hr>85</ns3:hr>
            <ns3:cad>42</ns3:cad>
          </ns3:TrackPointExtension>
        </extensions>
      </trkpt>
      <trkpt lat="43.45549360848963260650634765625" lon="1.46150794811546802520751953125">
        <ele>204.8000030517578125</ele>
        <time>2026-08-05T07:00:36.000Z</time>
        <extensions>
          <ns3:TrackPointExtension>
            <ns3:hr>85</ns3:hr>
            <ns3:cad>42</ns3:cad>
          </ns3:TrackPointExtension>
        </extensions>
      </trkpt>
      <trkpt lat="43.4555007331073284149169921875" lon="1.461508534848690032958984375">
        <ele>205</ele>
        <time>2026-08-05T07:00:37.000Z</time>
        <extensions>
          <ns3:TrackPointExtension>
            <ns3:hr>85</ns3:hr>
            <ns3:cad>42</ns3:cad>
          </ns3:TrackPointExtension>
        </extensions>
      </trkpt>
      <trkpt lat="43.45550752244889736175537109375" lon="1.461507864296436309814453125">
        <ele>205</ele>
        <time>2026-08-05T07:00:38.000Z</time>
        <extensions>
          <ns3:TrackPointExtension>
            <ns3:hr>85</ns3:hr>
            <ns3:cad>42</ns3:cad>
          </ns3:TrackPointExtension>
        </extensions>
      </trkpt>
      <trkpt lat="43.455519340932369232177734375" lon="1.46151046268641948699951171875">
        <ele>205.1999969482421875</ele>
        <time>2026-08-05T07:00:39.000Z</time>
        <extensions>
          <ns3:TrackPointExtension>
            <ns3:hr>85</ns3:hr>
            <ns3:cad>43</ns3:cad>
          </ns3:TrackPointExtension>
        </extensions>
      </trkpt>
      <trkpt lat="43.45552705228328704833984375" lon="1.46151331253349781036376953125">
        <ele>205.399993896484375</ele>
        <time>2026-08-05T07:00:40.000Z</time>
        <extensions>
          <ns3:TrackPointExtension>
            <ns3:hr>85</ns3:hr>
            <ns3:cad>44</ns3:cad>
          </ns3:TrackPointExtension>
        </extensions>
      </trkpt>
      <trkpt lat="43.45553317107260227203369140625" lon="1.46151415072381496429443359375">
        <ele>205.399993896484375</ele>
        <time>2026-08-05T07:00:41.000Z</time>
        <extensions>
          <ns3:TrackPointExtension>
            <ns3:hr>85</ns3:hr>
            <ns3:cad>43</ns3:cad>
          </ns3:TrackPointExtension>
        </extensions>
      </trkpt>
      <trkpt lat="43.45554658211767673492431640625" lon="1.46151565946638584136962890625">
        <ele>205.600006103515625</ele>
        <time>2026-08-05T07:00:42.000Z</time>
        <extensions>
          <ns3:TrackPointExtension>
            <ns3:hr>86</ns3:hr>
            <ns3:cad>43</ns3:cad>
          </ns3:TrackPointExtension>
        </extensions>
      </trkpt>
      <trkpt lat="43.4555553831160068511962890625" lon="1.4615190960466861724853515625">
        <ele>205.600006103515625</ele>
        <time>2026-08-05T07:00:43.000Z</time>
        <extensions>
          <ns3:TrackPointExtension>
            <ns3:hr>86</ns3:hr>
            <ns3:cad>40</ns3:cad>
          </ns3:TrackPointExtension>
        </extensions>
      </trkpt>
      <trkpt lat="43.4555612504482269287109375" lon="1.46152253262698650360107421875">
        <ele>205.600006103515625</ele>
        <time>2026-08-05T07:00:44.000Z</time>
        <extensions>
          <ns3:TrackPointExtension>
            <ns3:hr>86</ns3:hr>
            <ns3:cad>40</ns3:cad>
          </ns3:TrackPointExtension>
        </extensions>
      </trkpt>
      <trkpt lat="43.45556728541851043701171875" lon="1.46152320317924022674560546875">
        <ele>205.8000030517578125</ele>
        <time>2026-08-05T07:00:45.000Z</time>
        <extensions>
          <ns3:TrackPointExtension>
            <ns3:hr>87</ns3:hr>
            <ns3:cad>44</ns3:cad>
          </ns3:TrackPointExtension>
        </extensions>
      </trkpt>
      <trkpt lat="43.45557105727493762969970703125" lon="1.461525298655033111572265625">
        <ele>205.8000030517578125</ele>
        <time>2026-08-05T07:00:46.000Z</time>
        <extensions>
          <ns3:TrackPointExtension>
            <ns3:hr>87</ns3:hr>
            <ns3:cad>44</ns3:cad>
          </ns3:TrackPointExtension>
        </extensions>
      </trkpt>
      <trkpt lat="43.45557759515941143035888671875" lon="1.4615284837782382965087890625">
        <ele>206</ele>
        <time>2026-08-05T07:00:47.000Z</time>
        <extensions>
          <ns3:TrackPointExtension>
            <ns3:hr>88</ns3:hr>
            <ns3:cad>44</ns3:cad>
          </ns3:TrackPointExtension>
        </extensions>
      </trkpt>
      <trkpt lat="43.45558463595807552337646484375" lon="1.46153208799660205841064453125">
        <ele>206</ele>
        <time>2026-08-05T07:00:48.000Z</time>
        <extensions>
          <ns3:TrackPointExtension>
            <ns3:hr>88</ns3:hr>
            <ns3:cad>44</ns3:cad>
          </ns3:TrackPointExtension>
        </extensions>
      </trkpt>
      <trkpt lat="43.45558966509997844696044921875" lon="1.4615355245769023895263671875">
        <ele>206</ele>
        <time>2026-08-05T07:00:49.000Z</time>
        <extensions>
          <ns3:TrackPointExtension>
            <ns3:hr>88</ns3:hr>
            <ns3:cad>47</ns3:cad>
          </ns3:TrackPointExtension>
        </extensions>
      </trkpt>
      <trkpt lat="43.455595783889293670654296875" lon="1.46153795532882213592529296875">
        <ele>205.8000030517578125</ele>
        <time>2026-08-05T07:00:50.000Z</time>
        <extensions>
          <ns3:TrackPointExtension>
            <ns3:hr>89</ns3:hr>
            <ns3:cad>47</ns3:cad>
          </ns3:TrackPointExtension>
        </extensions>
      </trkpt>
      <trkpt lat="43.45560357905924320220947265625" lon="1.4615402184426784515380859375">
        <ele>205.600006103515625</ele>
        <time>2026-08-05T07:00:51.000Z</time>
        <extensions>
          <ns3:TrackPointExtension>
            <ns3:hr>89</ns3:hr>
            <ns3:cad>45</ns3:cad>
          </ns3:TrackPointExtension>
        </extensions>
      </trkpt>
      <trkpt lat="43.4556123800575733184814453125" lon="1.46154650487005710601806640625">
        <ele>205.399993896484375</ele>
        <time>2026-08-05T07:00:52.000Z</time>
        <extensions>
          <ns3:TrackPointExtension>
            <ns3:hr>90</ns3:hr>
            <ns3:cad>45</ns3:cad>
          </ns3:TrackPointExtension>
        </extensions>
      </trkpt>
      <trkpt lat="43.45561816357076168060302734375" lon="1.46155119873583316802978515625">
        <ele>205.399993896484375</ele>
        <time>2026-08-05T07:00:53.000Z</time>
        <extensions>
          <ns3:TrackPointExtension>
            <ns3:hr>90</ns3:hr>
            <ns3:cad>50</ns3:cad>
          </ns3:TrackPointExtension>
        </extensions>
      </trkpt>
      <trkpt lat="43.45562763512134552001953125" lon="1.461556144058704376220703125">
        <ele>205.399993896484375</ele>
        <time>2026-08-05T07:00:54.000Z</time>
        <extensions>
          <ns3:TrackPointExtension>
            <ns3:hr>90</ns3:hr>
            <ns3:cad>50</ns3:cad>
          </ns3:TrackPointExtension>
        </extensions>
      </trkpt>
      <trkpt lat="43.4556376934051513671875" lon="1.46155321039259433746337890625">
        <ele>205.1999969482421875</ele>
        <time>2026-08-05T07:00:55.000Z</time>
        <extensions>
          <ns3:TrackPointExtension>
            <ns3:hr>90</ns3:hr>
            <ns3:cad>47</ns3:cad>
          </ns3:TrackPointExtension>
        </extensions>
      </trkpt>
      <trkpt lat="43.4556489251554012298583984375" lon="1.46155455149710178375244140625">
        <ele>205.1999969482421875</ele>
        <time>2026-08-05T07:00:56.000Z</time>
        <extensions>
          <ns3:TrackPointExtension>
            <ns3:hr>90</ns3:hr>
            <ns3:cad>47</ns3:cad>
          </ns3:TrackPointExtension>
        </extensions>
      </trkpt>
      <trkpt lat="43.4556616656482219696044921875" lon="1.4615559764206409454345703125">
        <ele>205.399993896484375</ele>
        <time>2026-08-05T07:00:57.000Z</time>
        <extensions>
          <ns3:TrackPointExtension>
            <ns3:hr>90</ns3:hr>
            <ns3:cad>48</ns3:cad>
          </ns3:TrackPointExtension>
        </extensions>
      </trkpt>
      <trkpt lat="43.45566962845623493194580078125" lon="1.46156025119125843048095703125">
        <ele>205.399993896484375</ele>
        <time>2026-08-05T07:00:58.000Z</time>
        <extensions>
          <ns3:TrackPointExtension>
            <ns3:hr>90</ns3:hr>
            <ns3:cad>48</ns3:cad>
          </ns3:TrackPointExtension>
        </extensions>
      </trkpt>
      <trkpt lat="43.4556780941784381866455078125" lon="1.461561508476734161376953125">
        <ele>205.600006103515625</ele>
        <time>2026-08-05T07:00:59.000Z</time>
        <extensions>
          <ns3:TrackPointExtension>
            <ns3:hr>89</ns3:hr>
            <ns3:cad>48</ns3:cad>
          </ns3:TrackPointExtension>
        </extensions>
      </trkpt>
      <trkpt lat="43.455688990652561187744140625" lon="1.461561508476734161376953125">
        <ele>205.600006103515625</ele>
        <time>2026-08-05T07:01:00.000Z</time>
        <extensions>
          <ns3:TrackPointExtension>
            <ns3:hr>90</ns3:hr>
            <ns3:cad>48</ns3:cad>
          </ns3:TrackPointExtension>
        </extensions>
      </trkpt>
      <trkpt lat="43.45569846220314502716064453125" lon="1.46156410686671733856201171875">
        <ele>205.8000030517578125</ele>
        <time>2026-08-05T07:01:01.000Z</time>
        <extensions>
          <ns3:TrackPointExtension>
            <ns3:hr>90</ns3:hr>
            <ns3:cad>48</ns3:cad>
          </ns3:TrackPointExtension>
        </extensions>
      </trkpt>
      <trkpt lat="43.4557052515447139739990234375" lon="1.46157349459826946258544921875">
        <ele>205.8000030517578125</ele>
        <time>2026-08-05T07:01:02.000Z</time>
        <extensions>
          <ns3:TrackPointExtension>
            <ns3:hr>89</ns3:hr>
            <ns3:cad>48</ns3:cad>
          </ns3:TrackPointExtension>
        </extensions>
      </trkpt>
      <trkpt lat="43.45571120269596576690673828125" lon="1.4615817926824092864990234375">
        <ele>206</ele>
        <time>2026-08-05T07:01:03.000Z</time>
        <extensions>
          <ns3:TrackPointExtension>
            <ns3:hr>89</ns3:hr>
            <ns3:cad>47</ns3:cad>
          </ns3:TrackPointExtension>
        </extensions>
      </trkpt>
      <trkpt lat="43.4557153098285198211669921875" lon="1.46158908493816852569580078125">
        <ele>206</ele>
        <time>2026-08-05T07:01:04.000Z</time>
        <extensions>
          <ns3:TrackPointExtension>
            <ns3:hr>89</ns3:hr>
            <ns3:cad>44</ns3:cad>
          </ns3:TrackPointExtension>
        </extensions>
      </trkpt>
      <trkpt lat="43.45572528429329395294189453125" lon="1.461597047746181488037109375">
        <ele>205.8000030517578125</ele>
        <time>2026-08-05T07:01:05.000Z</time>
        <extensions>
          <ns3:TrackPointExtension>
            <ns3:hr>89</ns3:hr>
            <ns3:cad>44</ns3:cad>
          </ns3:TrackPointExtension>
        </extensions>
      </trkpt>
      <trkpt lat="43.45573031343519687652587890625" lon="1.46160299889743328094482421875">
        <ele>205.8000030517578125</ele>
        <time>2026-08-05T07:01:06.000Z</time>
        <extensions>
          <ns3:TrackPointExtension>
            <ns3:hr>89</ns3:hr>
            <ns3:cad>44</ns3:cad>
          </ns3:TrackPointExtension>
        </extensions>
      </trkpt>
      <trkpt lat="43.45573467202484607696533203125" lon="1.46160744130611419677734375">
        <ele>205.8000030517578125</ele>
        <time>2026-08-05T07:01:07.000Z</time>
        <extensions>
          <ns3:TrackPointExtension>
            <ns3:hr>89</ns3:hr>
            <ns3:cad>44</ns3:cad>
          </ns3:TrackPointExtension>
        </extensions>
      </trkpt>
      <trkpt lat="43.45574028789997100830078125" lon="1.4616102911531925201416015625">
        <ele>205.600006103515625</ele>
        <time>2026-08-05T07:01:08.000Z</time>
        <extensions>
          <ns3:TrackPointExtension>
            <ns3:hr>89</ns3:hr>
            <ns3:cad>44</ns3:cad>
          </ns3:TrackPointExtension>
        </extensions>
      </trkpt>
      <trkpt lat="43.45574565231800079345703125" lon="1.461617834866046905517578125">
        <ele>205.600006103515625</ele>
        <time>2026-08-05T07:01:09.000Z</time>
        <extensions>
          <ns3:TrackPointExtension>
            <ns3:hr>89</ns3:hr>
            <ns3:cad>44</ns3:cad>
          </ns3:TrackPointExtension>
        </extensions>
      </trkpt>
      <trkpt lat="43.45575101673603057861328125" lon="1.4616193436086177825927734375">
        <ele>205.399993896484375</ele>
        <time>2026-08-05T07:01:10.000Z</time>
        <extensions>
          <ns3:TrackPointExtension>
            <ns3:hr>89</ns3:hr>
            <ns3:cad>44</ns3:cad>
          </ns3:TrackPointExtension>
        </extensions>
      </trkpt>
      <trkpt lat="43.45576266758143901824951171875" lon="1.46162596531212329864501953125">
        <ele>205.399993896484375</ele>
        <time>2026-08-05T07:01:11.000Z</time>
        <extensions>
          <ns3:TrackPointExtension>
            <ns3:hr>90</ns3:hr>
            <ns3:cad>47</ns3:cad>
          </ns3:TrackPointExtension>
        </extensions>
      </trkpt>
      <trkpt lat="43.4557706303894519805908203125" lon="1.46162395365536212921142578125">
        <ele>205.1999969482421875</ele>
        <time>2026-08-05T07:01:12.000Z</time>
        <extensions>
          <ns3:TrackPointExtension>
            <ns3:hr>89</ns3:hr>
            <ns3:cad>47</ns3:cad>
          </ns3:TrackPointExtension>
        </extensions>
      </trkpt>
      <trkpt lat="43.4557780064642429351806640625" lon="1.46162563003599643707275390625">
        <ele>205.1999969482421875</ele>
        <time>2026-08-05T07:01:13.000Z</time>
        <extensions>
          <ns3:TrackPointExtension>
            <ns3:hr>89</ns3:hr>
            <ns3:cad>47</ns3:cad>
          </ns3:TrackPointExtension>
        </extensions>
      </trkpt>
      <trkpt lat="43.4557850472629070281982421875" lon="1.4616304077208042144775390625">
        <ele>205.1999969482421875</ele>
        <time>2026-08-05T07:01:14.000Z</time>
        <extensions>
          <ns3:TrackPointExtension>
            <ns3:hr>89</ns3:hr>
            <ns3:cad>47</ns3:cad>
          </ns3:TrackPointExtension>
        </extensions>
      </trkpt>
      <trkpt lat="43.45579401589930057525634765625" lon="1.46163535304367542266845703125">
        <ele>205.1999969482421875</ele>
        <time>2026-08-05T07:01:15.000Z</time>
        <extensions>
          <ns3:TrackPointExtension>
            <ns3:hr>88</ns3:hr>
            <ns3:cad>0</ns3:cad>
          </ns3:TrackPointExtension>
        </extensions>
      </trkpt>
      <trkpt lat="43.45580558292567729949951171875" lon="1.46163786761462688446044921875">
        <ele>205.1999969482421875</ele>
        <time>2026-08-05T07:01:16.000Z</time>
        <extensions>
          <ns3:TrackPointExtension>
            <ns3:hr>88</ns3:hr>
            <ns3:cad>0</ns3:cad>
          </ns3:TrackPointExtension>
        </extensions>
      </trkpt>
      <trkpt lat="43.45581513829529285430908203125" lon="1.4616421423852443695068359375">
        <ele>205.1999969482421875</ele>
        <time>2026-08-05T07:01:17.000Z</time>
        <extensions>
          <ns3:TrackPointExtension>
            <ns3:hr>88</ns3:hr>
            <ns3:cad>48</ns3:cad>
          </ns3:TrackPointExtension>
        </extensions>
      </trkpt>
      <trkpt lat="43.4558222629129886627197265625" lon="1.46164759062230587005615234375">
        <ele>205.399993896484375</ele>
        <time>2026-08-05T07:01:18.000Z</time>
        <extensions>
          <ns3:TrackPointExtension>
            <ns3:hr>88</ns3:hr>
            <ns3:cad>48</ns3:cad>
          </ns3:TrackPointExtension>
        </extensions>
      </trkpt>
      <trkpt lat="43.455829806625843048095703125" lon="1.46165245212614536285400390625">
        <ele>205.399993896484375</ele>
        <time>2026-08-05T07:01:19.000Z</time>
        <extensions>
          <ns3:TrackPointExtension>
            <ns3:hr>88</ns3:hr>
            <ns3:cad>0</ns3:cad>
          </ns3:TrackPointExtension>
        </extensions>
      </trkpt>
      <trkpt lat="43.4558373503386974334716796875" lon="1.4616568945348262786865234375">
        <ele>205.399993896484375</ele>
        <time>2026-08-05T07:01:20.000Z</time>
        <extensions>
          <ns3:TrackPointExtension>
            <ns3:hr>87</ns3:hr>
            <ns3:cad>0</ns3:cad>
          </ns3:TrackPointExtension>
        </extensions>
      </trkpt>
      <trkpt lat="43.4558474086225032806396484375" lon="1.46166251040995121002197265625">
        <ele>205.399993896484375</ele>
        <time>2026-08-05T07:01:21.000Z</time>
        <extensions>
          <ns3:TrackPointExtension>
            <ns3:hr>87</ns3:hr>
            <ns3:cad>0</ns3:cad>
          </ns3:TrackPointExtension>
        </extensions>
      </trkpt>
      <trkpt lat="43.4558541141450405120849609375" lon="1.4616666175425052642822265625">
        <ele>205.399993896484375</ele>
        <time>2026-08-05T07:01:22.000Z</time>
        <extensions>
          <ns3:TrackPointExtension>
            <ns3:hr>87</ns3:hr>
            <ns3:cad>46</ns3:cad>
          </ns3:TrackPointExtension>
        </extensions>
      </trkpt>
      <trkpt lat="43.45585973002016544342041015625" lon="1.46167240105569362640380859375">
        <ele>205.399993896484375</ele>
        <time>2026-08-05T07:01:23.000Z</time>
        <extensions>
          <ns3:TrackPointExtension>
            <ns3:hr>87</ns3:hr>
            <ns3:cad>46</ns3:cad>
          </ns3:TrackPointExtension>
        </extensions>
      </trkpt>
      <trkpt lat="43.45586710609495639801025390625" lon="1.46167826838791370391845703125">
        <ele>205.1999969482421875</ele>
        <time>2026-08-05T07:01:24.000Z</time>
        <extensions>
          <ns3:TrackPointExtension>
            <ns3:hr>87</ns3:hr>
            <ns3:cad>46</ns3:cad>
          </ns3:TrackPointExtension>
        </extensions>
      </trkpt>
      <trkpt lat="43.45587196759879589080810546875" lon="1.46168396808207035064697265625">
        <ele>205.1999969482421875</ele>
        <time>2026-08-05T07:01:25.000Z</time>
        <extensions>
          <ns3:TrackPointExtension>
            <ns3:hr>87</ns3:hr>
            <ns3:cad>45</ns3:cad>
          </ns3:TrackPointExtension>
        </extensions>
      </trkpt>
      <trkpt lat="43.4558899886906147003173828125" lon="1.46168254315853118896484375">
        <ele>205.1999969482421875</ele>
        <time>2026-08-05T07:01:26.000Z</time>
        <extensions>
          <ns3:TrackPointExtension>
            <ns3:hr>87</ns3:hr>
            <ns3:cad>45</ns3:cad>
          </ns3:TrackPointExtension>
        </extensions>
      </trkpt>
      <trkpt lat="43.455899544060230255126953125" lon="1.46168497391045093536376953125">
        <ele>205.1999969482421875</ele>
        <time>2026-08-05T07:01:27.000Z</time>
        <extensions>
          <ns3:TrackPointExtension>
            <ns3:hr>88</ns3:hr>
            <ns3:cad>48</ns3:cad>
          </ns3:TrackPointExtension>
        </extensions>
      </trkpt>
      <trkpt lat="43.4559072554111480712890625" lon="1.46169058978557586669921875">
        <ele>205.1999969482421875</ele>
        <time>2026-08-05T07:01:28.000Z</time>
        <extensions>
          <ns3:TrackPointExtension>
            <ns3:hr>88</ns3:hr>
            <ns3:cad>48</ns3:cad>
          </ns3:TrackPointExtension>
        </extensions>
      </trkpt>
      <trkpt lat="43.45591521821916103363037109375" lon="1.46169461309909820556640625">
        <ele>205.1999969482421875</ele>
        <time>2026-08-05T07:01:29.000Z</time>
        <extensions>
          <ns3:TrackPointExtension>
            <ns3:hr>90</ns3:hr>
            <ns3:cad>47</ns3:cad>
          </ns3:TrackPointExtension>
        </extensions>
      </trkpt>
      <trkpt lat="43.4559245221316814422607421875" lon="1.46169687621295452117919921875">
        <ele>205.1999969482421875</ele>
        <time>2026-08-05T07:01:30.000Z</time>
        <extensions>
          <ns3:TrackPointExtension>
            <ns3:hr>90</ns3:hr>
            <ns3:cad>45</ns3:cad>
          </ns3:TrackPointExtension>
        </extensions>
      </trkpt>
      <trkpt lat="43.4559352509677410125732421875" lon="1.46169654093682765960693359375">
        <ele>205.399993896484375</ele>
        <time>2026-08-05T07:01:31.000Z</time>
        <extensions>
          <ns3:TrackPointExtension>
            <ns3:hr>91</ns3:hr>
            <ns3:cad>44</ns3:cad>
          </ns3:TrackPointExtension>
        </extensions>
      </trkpt>
      <trkpt lat="43.455943129956722259521484375" lon="1.4616981334984302520751953125">
        <ele>205.399993896484375</ele>
        <time>2026-08-05T07:01:32.000Z</time>
        <extensions>
          <ns3:TrackPointExtension>
            <ns3:hr>92</ns3:hr>
            <ns3:cad>44</ns3:cad>
          </ns3:TrackPointExtension>
        </extensions>
      </trkpt>
      <trkpt lat="43.45594950020313262939453125" lon="1.46169872023165225982666015625">
        <ele>205.600006103515625</ele>
        <time>2026-08-05T07:01:33.000Z</time>
        <extensions>
          <ns3:TrackPointExtension>
            <ns3:hr>92</ns3:hr>
            <ns3:cad>77</ns3:cad>
          </ns3:TrackPointExtension>
        </extensions>
      </trkpt>
      <trkpt lat="43.45595176331698894500732421875" lon="1.4617014862596988677978515625">
        <ele>205.8000030517578125</ele>
        <time>2026-08-05T07:01:34.000Z</time>
        <extensions>
          <ns3:TrackPointExtension>
            <ns3:hr>93</ns3:hr>
            <ns3:cad>77</ns3:cad>
          </ns3:TrackPointExtension>
        </extensions>
      </trkpt>
      <trkpt lat="43.45595763064920902252197265625" lon="1.46171062253415584564208984375">
        <ele>205.8000030517578125</ele>
        <time>2026-08-05T07:01:35.000Z</time>
        <extensions>
          <ns3:TrackPointExtension>
            <ns3:hr>93</ns3:hr>
            <ns3:cad>77</ns3:cad>
          </ns3:TrackPointExtension>
        </extensions>
      </trkpt>
      <trkpt lat="43.455961905419826507568359375" lon="1.46172017790377140045166015625">
        <ele>206</ele>
        <time>2026-08-05T07:01:36.000Z</time>
        <extensions>
          <ns3:TrackPointExtension>
            <ns3:hr>93</ns3:hr>
            <ns3:cad>77</ns3:cad>
          </ns3:TrackPointExtension>
        </extensions>
      </trkpt>
      <trkpt lat="43.4559640847146511077880859375" lon="1.46172923035919666290283203125">
        <ele>206</ele>
        <time>2026-08-05T07:01:37.000Z</time>
        <extensions>
          <ns3:TrackPointExtension>
            <ns3:hr>93</ns3:hr>
            <ns3:cad>77</ns3:cad>
          </ns3:TrackPointExtension>
        </extensions>
      </trkpt>
      <trkpt lat="43.45596852712333202362060546875" lon="1.46173912100493907928466796875">
        <ele>206.1999969482421875</ele>
        <time>2026-08-05T07:01:38.000Z</time>
        <extensions>
          <ns3:TrackPointExtension>
            <ns3:hr>93</ns3:hr>
            <ns3:cad>78</ns3:cad>
          </ns3:TrackPointExtension>
        </extensions>
      </trkpt>
      <trkpt lat="43.45597766339778900146484375" lon="1.4617474190890789031982421875">
        <ele>206.1999969482421875</ele>
        <time>2026-08-05T07:01:39.000Z</time>
        <extensions>
          <ns3:TrackPointExtension>
            <ns3:hr>92</ns3:hr>
            <ns3:cad>78</ns3:cad>
          </ns3:TrackPointExtension>
        </extensions>
      </trkpt>
      <trkpt lat="43.455986045300960540771484375" lon="1.46175655536353588104248046875">
        <ele>206.1999969482421875</ele>
        <time>2026-08-05T07:01:40.000Z</time>
        <extensions>
          <ns3:TrackPointExtension>
            <ns3:hr>93</ns3:hr>
            <ns3:cad>78</ns3:cad>
          </ns3:TrackPointExtension>
        </extensions>
      </trkpt>
      <trkpt lat="43.45599166117608547210693359375" lon="1.46176636219024658203125">
        <ele>206.1999969482421875</ele>
        <time>2026-08-05T07:01:41.000Z</time>
        <extensions>
          <ns3:TrackPointExtension>
            <ns3:hr>93</ns3:hr>
            <ns3:cad>40</ns3:cad>
          </ns3:TrackPointExtension>
        </extensions>
      </trkpt>
      <trkpt lat="43.455999791622161865234375" lon="1.461775414645671844482421875">
        <ele>206.1999969482421875</ele>
        <time>2026-08-05T07:01:42.000Z</time>
        <extensions>
          <ns3:TrackPointExtension>
            <ns3:hr>93</ns3:hr>
            <ns3:cad>40</ns3:cad>
          </ns3:TrackPointExtension>
        </extensions>
      </trkpt>
      <trkpt lat="43.456008844077587127685546875" lon="1.461782120168209075927734375">
        <ele>206.1999969482421875</ele>
        <time>2026-08-05T07:01:43.000Z</time>
        <extensions>
          <ns3:TrackPointExtension>
            <ns3:hr>93</ns3:hr>
            <ns3:cad>42</ns3:cad>
          </ns3:TrackPointExtension>
        </extensions>
      </trkpt>
      <trkpt lat="43.45601680688560009002685546875" lon="1.46178974770009517669677734375">
        <ele>206</ele>
        <time>2026-08-05T07:01:44.000Z</time>
        <extensions>
          <ns3:TrackPointExtension>
            <ns3:hr>93</ns3:hr>
            <ns3:cad>42</ns3:cad>
          </ns3:TrackPointExtension>
        </extensions>
      </trkpt>
      <trkpt lat="43.4560237638652324676513671875" lon="1.461794190108776092529296875">
        <ele>206</ele>
        <time>2026-08-05T07:01:45.000Z</time>
        <extensions>
          <ns3:TrackPointExtension>
            <ns3:hr>94</ns3:hr>
            <ns3:cad>46</ns3:cad>
          </ns3:TrackPointExtension>
        </extensions>
      </trkpt>
      <trkpt lat="43.4560301341116428375244140625" lon="1.46179963834583759307861328125">
        <ele>206</ele>
        <time>2026-08-05T07:01:46.000Z</time>
        <extensions>
          <ns3:TrackPointExtension>
            <ns3:hr>93</ns3:hr>
            <ns3:cad>46</ns3:cad>
          </ns3:TrackPointExtension>
        </extensions>
      </trkpt>
      <trkpt lat="43.4560365043580532073974609375" lon="1.46180533803999423980712890625">
        <ele>206.1999969482421875</ele>
        <time>2026-08-05T07:01:47.000Z</time>
        <extensions>
          <ns3:TrackPointExtension>
            <ns3:hr>93</ns3:hr>
            <ns3:cad>46</ns3:cad>
          </ns3:TrackPointExtension>
        </extensions>
      </trkpt>
      <trkpt lat="43.4560428746044635772705078125" lon="1.4618127979338169097900390625">
        <ele>206.399993896484375</ele>
        <time>2026-08-05T07:01:48.000Z</time>
        <extensions>
          <ns3:TrackPointExtension>
            <ns3:hr>92</ns3:hr>
            <ns3:cad>46</ns3:cad>
          </ns3:TrackPointExtension>
        </extensions>
      </trkpt>
      <trkpt lat="43.456048406660556793212890625" lon="1.4618201740086078643798828125">
        <ele>206.600006103515625</ele>
        <time>2026-08-05T07:01:49.000Z</time>
        <extensions>
          <ns3:TrackPointExtension>
            <ns3:hr>92</ns3:hr>
            <ns3:cad>46</ns3:cad>
          </ns3:TrackPointExtension>
        </extensions>
      </trkpt>
      <trkpt lat="43.45605737529695034027099609375" lon="1.4618275500833988189697265625">
        <ele>206.8000030517578125</ele>
        <time>2026-08-05T07:01:50.000Z</time>
        <extensions>
          <ns3:TrackPointExtension>
            <ns3:hr>92</ns3:hr>
            <ns3:cad>45</ns3:cad>
          </ns3:TrackPointExtension>
        </extensions>
      </trkpt>
      <trkpt lat="43.45606776885688304901123046875" lon="1.4618315733969211578369140625">
        <ele>207</ele>
        <time>2026-08-05T07:01:51.000Z</time>
        <extensions>
          <ns3:TrackPointExtension>
            <ns3:hr>92</ns3:hr>
            <ns3:cad>45</ns3:cad>
          </ns3:TrackPointExtension>
        </extensions>
      </trkpt>
      <trkpt lat="43.4560767374932765960693359375" lon="1.461837105453014373779296875">
        <ele>207</ele>
        <time>2026-08-05T07:01:52.000Z</time>
        <extensions>
          <ns3:TrackPointExtension>
            <ns3:hr>92</ns3:hr>
            <ns3:cad>45</ns3:cad>
          </ns3:TrackPointExtension>
        </extensions>
      </trkpt>
      <trkpt lat="43.456083275377750396728515625" lon="1.46184406243264675140380859375">
        <ele>207.1999969482421875</ele>
        <time>2026-08-05T07:01:53.000Z</time>
        <extensions>
          <ns3:TrackPointExtension>
            <ns3:hr>92</ns3:hr>
            <ns3:cad>44</ns3:cad>
          </ns3:TrackPointExtension>
        </extensions>
      </trkpt>
      <trkpt lat="43.45609056763350963592529296875" lon="1.46184858866035938262939453125">
        <ele>207.1999969482421875</ele>
        <time>2026-08-05T07:01:54.000Z</time>
        <extensions>
          <ns3:TrackPointExtension>
            <ns3:hr>93</ns3:hr>
            <ns3:cad>44</ns3:cad>
          </ns3:TrackPointExtension>
        </extensions>
      </trkpt>
      <trkpt lat="43.45609811134636402130126953125" lon="1.4618560485541820526123046875">
        <ele>207.1999969482421875</ele>
        <time>2026-08-05T07:01:55.000Z</time>
        <extensions>
          <ns3:TrackPointExtension>
            <ns3:hr>93</ns3:hr>
            <ns3:cad>44</ns3:cad>
          </ns3:TrackPointExtension>
        </extensions>
      </trkpt>
      <trkpt lat="43.4561035595834255218505859375" lon="1.46186216734349727630615234375">
        <ele>207.399993896484375</ele>
        <time>2026-08-05T07:01:56.000Z</time>
        <extensions>
          <ns3:TrackPointExtension>
            <ns3:hr>93</ns3:hr>
            <ns3:cad>44</ns3:cad>
          </ns3:TrackPointExtension>
        </extensions>
      </trkpt>
      <trkpt lat="43.45611403696238994598388671875" lon="1.46187021397054195404052734375">
        <ele>207.399993896484375</ele>
        <time>2026-08-05T07:01:57.000Z</time>
        <extensions>
          <ns3:TrackPointExtension>
            <ns3:hr>93</ns3:hr>
            <ns3:cad>44</ns3:cad>
          </ns3:TrackPointExtension>
        </extensions>
      </trkpt>
      <trkpt lat="43.456123508512973785400390625" lon="1.46187423728406429290771484375">
        <ele>207.399993896484375</ele>
        <time>2026-08-05T07:01:58.000Z</time>
        <extensions>
          <ns3:TrackPointExtension>
            <ns3:hr>93</ns3:hr>
            <ns3:cad>42</ns3:cad>
          </ns3:TrackPointExtension>
        </extensions>
      </trkpt>
      <trkpt lat="43.456134237349033355712890625" lon="1.46187792532145977020263671875">
        <ele>207.600006103515625</ele>
        <time>2026-08-05T07:01:59.000Z</time>
        <extensions>
          <ns3:TrackPointExtension>
            <ns3:hr>92</ns3:hr>
            <ns3:cad>42</ns3:cad>
          </ns3:TrackPointExtension>
        </extensions>
      </trkpt>
      <trkpt lat="43.45614253543317317962646484375" lon="1.4618811942636966705322265625">
        <ele>207.600006103515625</ele>
        <time>2026-08-05T07:02:00.000Z</time>
        <extensions>
          <ns3:TrackPointExtension>
            <ns3:hr>92</ns3:hr>
            <ns3:cad>41</ns3:cad>
          </ns3:TrackPointExtension>
        </extensions>
      </trkpt>
      <trkpt lat="43.45615225844085216522216796875" lon="1.46189016290009021759033203125">
        <ele>207.399993896484375</ele>
        <time>2026-08-05T07:02:01.000Z</time>
        <extensions>
          <ns3:TrackPointExtension>
            <ns3:hr>92</ns3:hr>
            <ns3:cad>41</ns3:cad>
          </ns3:TrackPointExtension>
        </extensions>
      </trkpt>
      <trkpt lat="43.456160388886928558349609375" lon="1.46189586259424686431884765625">
        <ele>207.399993896484375</ele>
        <time>2026-08-05T07:02:02.000Z</time>
        <extensions>
          <ns3:TrackPointExtension>
            <ns3:hr>92</ns3:hr>
            <ns3:cad>44</ns3:cad>
          </ns3:TrackPointExtension>
        </extensions>
      </trkpt>
      <trkpt lat="43.4561652503907680511474609375" lon="1.46190508268773555755615234375">
        <ele>207.399993896484375</ele>
        <time>2026-08-05T07:02:03.000Z</time>
        <extensions>
          <ns3:TrackPointExtension>
            <ns3:hr>91</ns3:hr>
            <ns3:cad>44</ns3:cad>
          </ns3:TrackPointExtension>
        </extensions>
      </trkpt>
      <trkpt lat="43.4561712853610515594482421875" lon="1.46191321313381195068359375">
        <ele>207.399993896484375</ele>
        <time>2026-08-05T07:02:04.000Z</time>
        <extensions>
          <ns3:TrackPointExtension>
            <ns3:hr>91</ns3:hr>
            <ns3:cad>44</ns3:cad>
          </ns3:TrackPointExtension>
        </extensions>
      </trkpt>
      <trkpt lat="43.45617773942649364471435546875" lon="1.461924947798252105712890625">
        <ele>207.600006103515625</ele>
        <time>2026-08-05T07:02:05.000Z</time>
        <extensions>
          <ns3:TrackPointExtension>
            <ns3:hr>91</ns3:hr>
            <ns3:cad>44</ns3:cad>
          </ns3:TrackPointExtension>
        </extensions>
      </trkpt>
      <trkpt lat="43.45618226565420627593994140625" lon="1.46193659864366054534912109375">
        <ele>207.600006103515625</ele>
        <time>2026-08-05T07:02:06.000Z</time>
        <extensions>
          <ns3:TrackPointExtension>
            <ns3:hr>90</ns3:hr>
            <ns3:cad>44</ns3:cad>
          </ns3:TrackPointExtension>
        </extensions>
      </trkpt>
      <trkpt lat="43.456186540424823760986328125" lon="1.46194430999457836151123046875">
        <ele>207.600006103515625</ele>
        <time>2026-08-05T07:02:07.000Z</time>
        <extensions>
          <ns3:TrackPointExtension>
            <ns3:hr>90</ns3:hr>
            <ns3:cad>44</ns3:cad>
          </ns3:TrackPointExtension>
        </extensions>
      </trkpt>
      <trkpt lat="43.45618997700512409210205078125" lon="1.4619541168212890625">
        <ele>207.600006103515625</ele>
        <time>2026-08-05T07:02:08.000Z</time>
        <extensions>
          <ns3:TrackPointExtension>
            <ns3:hr>90</ns3:hr>
            <ns3:cad>49</ns3:cad>
          </ns3:TrackPointExtension>
        </extensions>
      </trkpt>
      <trkpt lat="43.45619760453701019287109375" lon="1.461960487067699432373046875">
        <ele>207.399993896484375</ele>
        <time>2026-08-05T07:02:09.000Z</time>
        <extensions>
          <ns3:TrackPointExtension>
            <ns3:hr>89</ns3:hr>
            <ns3:cad>49</ns3:cad>
          </ns3:TrackPointExtension>
        </extensions>
      </trkpt>
      <trkpt lat="43.456205986440181732177734375" lon="1.46196375600993633270263671875">
        <ele>207.1999969482421875</ele>
        <time>2026-08-05T07:02:10.000Z</time>
        <extensions>
          <ns3:TrackPointExtension>
            <ns3:hr>90</ns3:hr>
            <ns3:cad>49</ns3:cad>
          </ns3:TrackPointExtension>
        </extensions>
      </trkpt>
      <trkpt lat="43.4562108479440212249755859375" lon="1.4619683660566806793212890625">
        <ele>207.1999969482421875</ele>
        <time>2026-08-05T07:02:11.000Z</time>
        <extensions>
          <ns3:TrackPointExtension>
            <ns3:hr>90</ns3:hr>
            <ns3:cad>51</ns3:cad>
          </ns3:TrackPointExtension>
        </extensions>
      </trkpt>
      <trkpt lat="43.4562155418097972869873046875" lon="1.46197347901761531829833984375">
        <ele>207.1999969482421875</ele>
        <time>2026-08-05T07:02:12.000Z</time>
        <extensions>
          <ns3:TrackPointExtension>
            <ns3:hr>90</ns3:hr>
            <ns3:cad>53</ns3:cad>
          </ns3:TrackPointExtension>
        </extensions>
      </trkpt>
      <trkpt lat="43.45622333697974681854248046875" lon="1.461983956396579742431640625">
        <ele>207.1999969482421875</ele>
        <time>2026-08-05T07:02:13.000Z</time>
        <extensions>
          <ns3:TrackPointExtension>
            <ns3:hr>90</ns3:hr>
            <ns3:cad>49</ns3:cad>
          </ns3:TrackPointExtension>
        </extensions>
      </trkpt>
      <trkpt lat="43.45622752793133258819580078125" lon="1.461995355784893035888671875">
        <ele>207.1999969482421875</ele>
        <time>2026-08-05T07:02:14.000Z</time>
        <extensions>
          <ns3:TrackPointExtension>
            <ns3:hr>90</ns3:hr>
            <ns3:cad>49</ns3:cad>
          </ns3:TrackPointExtension>
        </extensions>
      </trkpt>
      <trkpt lat="43.45623381435871124267578125" lon="1.46200097166001796722412109375">
        <ele>207.1999969482421875</ele>
        <time>2026-08-05T07:02:15.000Z</time>
        <extensions>
          <ns3:TrackPointExtension>
            <ns3:hr>90</ns3:hr>
            <ns3:cad>45</ns3:cad>
          </ns3:TrackPointExtension>
        </extensions>
      </trkpt>
      <trkpt lat="43.4562353231012821197509765625" lon="1.4620062522590160369873046875">
        <ele>207.399993896484375</ele>
        <time>2026-08-05T07:02:16.000Z</time>
        <extensions>
          <ns3:TrackPointExtension>
            <ns3:hr>90</ns3:hr>
            <ns3:cad>45</ns3:cad>
          </ns3:TrackPointExtension>
        </extensions>
      </trkpt>
      <trkpt lat="43.456244878470897674560546875" lon="1.46201220341026782989501953125">
        <ele>207.399993896484375</ele>
        <time>2026-08-05T07:02:17.000Z</time>
        <extensions>
          <ns3:TrackPointExtension>
            <ns3:hr>90</ns3:hr>
            <ns3:cad>45</ns3:cad>
          </ns3:TrackPointExtension>
        </extensions>
      </trkpt>
      <trkpt lat="43.45625233836472034454345703125" lon="1.4620171487331390380859375">
        <ele>207.600006103515625</ele>
        <time>2026-08-05T07:02:18.000Z</time>
        <extensions>
          <ns3:TrackPointExtension>
            <ns3:hr>90</ns3:hr>
            <ns3:cad>43</ns3:cad>
          </ns3:TrackPointExtension>
        </extensions>
      </trkpt>
      <trkpt lat="43.45625619404017925262451171875" lon="1.46202377043664455413818359375">
        <ele>207.8000030517578125</ele>
        <time>2026-08-05T07:02:19.000Z</time>
        <extensions>
          <ns3:TrackPointExtension>
            <ns3:hr>90</ns3:hr>
            <ns3:cad>43</ns3:cad>
          </ns3:TrackPointExtension>
        </extensions>
      </trkpt>
      <trkpt lat="43.45625904388725757598876953125" lon="1.46203651092946529388427734375">
        <ele>208</ele>
        <time>2026-08-05T07:02:20.000Z</time>
        <extensions>
          <ns3:TrackPointExtension>
            <ns3:hr>90</ns3:hr>
            <ns3:cad>43</ns3:cad>
          </ns3:TrackPointExtension>
        </extensions>
      </trkpt>
      <trkpt lat="43.4562601335346698760986328125" lon="1.4620471559464931488037109375">
        <ele>208</ele>
        <time>2026-08-05T07:02:21.000Z</time>
        <extensions>
          <ns3:TrackPointExtension>
            <ns3:hr>90</ns3:hr>
            <ns3:cad>43</ns3:cad>
          </ns3:TrackPointExtension>
        </extensions>
      </trkpt>
      <trkpt lat="43.45626407302916049957275390625" lon="1.46205830387771129608154296875">
        <ele>208</ele>
        <time>2026-08-05T07:02:22.000Z</time>
        <extensions>
          <ns3:TrackPointExtension>
            <ns3:hr>90</ns3:hr>
            <ns3:cad>43</ns3:cad>
          </ns3:TrackPointExtension>
        </extensions>
      </trkpt>
      <trkpt lat="43.45626843161880970001220703125" lon="1.46206517703831195831298828125">
        <ele>207.8000030517578125</ele>
        <time>2026-08-05T07:02:23.000Z</time>
        <extensions>
          <ns3:TrackPointExtension>
            <ns3:hr>90</ns3:hr>
            <ns3:cad>48</ns3:cad>
          </ns3:TrackPointExtension>
        </extensions>
      </trkpt>
      <trkpt lat="43.456271700561046600341796875" lon="1.46207540296018123626708984375">
        <ele>207.8000030517578125</ele>
        <time>2026-08-05T07:02:24.000Z</time>
        <extensions>
          <ns3:TrackPointExtension>
            <ns3:hr>90</ns3:hr>
            <ns3:cad>48</ns3:cad>
          </ns3:TrackPointExtension>
        </extensions>
      </trkpt>
      <trkpt lat="43.4562785737216472625732421875" lon="1.46208889782428741455078125">
        <ele>207.600006103515625</ele>
        <time>2026-08-05T07:02:25.000Z</time>
        <extensions>
          <ns3:TrackPointExtension>
            <ns3:hr>89</ns3:hr>
            <ns3:cad>48</ns3:cad>
          </ns3:TrackPointExtension>
        </extensions>
      </trkpt>
      <trkpt lat="43.4562814235687255859375" lon="1.46210390143096446990966796875">
        <ele>207.600006103515625</ele>
        <time>2026-08-05T07:02:26.000Z</time>
        <extensions>
          <ns3:TrackPointExtension>
            <ns3:hr>90</ns3:hr>
            <ns3:cad>48</ns3:cad>
          </ns3:TrackPointExtension>
        </extensions>
      </trkpt>
      <trkpt lat="43.45629055984318256378173828125" lon="1.462116725742816925048828125">
        <ele>207.600006103515625</ele>
        <time>2026-08-05T07:02:27.000Z</time>
        <extensions>
          <ns3:TrackPointExtension>
            <ns3:hr>89</ns3:hr>
            <ns3:cad>50</ns3:cad>
          </ns3:TrackPointExtension>
        </extensions>
      </trkpt>
      <trkpt lat="43.4562983550131320953369140625" lon="1.46212602965533733367919921875">
        <ele>207.399993896484375</ele>
        <time>2026-08-05T07:02:28.000Z</time>
        <extensions>
          <ns3:TrackPointExtension>
            <ns3:hr>89</ns3:hr>
            <ns3:cad>50</ns3:cad>
          </ns3:TrackPointExtension>
        </extensions>
      </trkpt>
      <trkpt lat="43.4563013724982738494873046875" lon="1.46214195527136325836181640625">
        <ele>207.399993896484375</ele>
        <time>2026-08-05T07:02:29.000Z</time>
        <extensions>
          <ns3:TrackPointExtension>
            <ns3:hr>89</ns3:hr>
            <ns3:cad>50</ns3:cad>
          </ns3:TrackPointExtension>
        </extensions>
      </trkpt>
      <trkpt lat="43.45630799420177936553955078125" lon="1.46215436048805713653564453125">
        <ele>207.399993896484375</ele>
        <time>2026-08-05T07:02:30.000Z</time>
        <extensions>
          <ns3:TrackPointExtension>
            <ns3:hr>89</ns3:hr>
            <ns3:cad>49</ns3:cad>
          </ns3:TrackPointExtension>
        </extensions>
      </trkpt>
      <trkpt lat="43.45630799420177936553955078125" lon="1.4621681906282901763916015625">
        <ele>207.399993896484375</ele>
        <time>2026-08-05T07:02:31.000Z</time>
        <extensions>
          <ns3:TrackPointExtension>
            <ns3:hr>88</ns3:hr>
            <ns3:cad>49</ns3:cad>
          </ns3:TrackPointExtension>
        </extensions>
      </trkpt>
      <trkpt lat="43.456308580935001373291015625" lon="1.4621795900166034698486328125">
        <ele>207.399993896484375</ele>
        <time>2026-08-05T07:02:32.000Z</time>
        <extensions>
          <ns3:TrackPointExtension>
            <ns3:hr>88</ns3:hr>
            <ns3:cad>49</ns3:cad>
          </ns3:TrackPointExtension>
        </extensions>
      </trkpt>
      <trkpt lat="43.4563057310879230499267578125" lon="1.46219157613813877105712890625">
        <ele>207.399993896484375</ele>
        <time>2026-08-05T07:02:33.000Z</time>
        <extensions>
          <ns3:TrackPointExtension>
            <ns3:hr>88</ns3:hr>
            <ns3:cad>48</ns3:cad>
          </ns3:TrackPointExtension>
        </extensions>
      </trkpt>
      <trkpt lat="43.45630413852632045745849609375" lon="1.4622020535171031951904296875">
        <ele>207.399993896484375</ele>
        <time>2026-08-05T07:02:34.000Z</time>
        <extensions>
          <ns3:TrackPointExtension>
            <ns3:hr>87</ns3:hr>
            <ns3:cad>47</ns3:cad>
          </ns3:TrackPointExtension>
        </extensions>
      </trkpt>
      <trkpt lat="43.45630279742181301116943359375" lon="1.46221102215349674224853515625">
        <ele>207.1999969482421875</ele>
        <time>2026-08-05T07:02:35.000Z</time>
        <extensions>
          <ns3:TrackPointExtension>
            <ns3:hr>87</ns3:hr>
            <ns3:cad>45</ns3:cad>
          </ns3:TrackPointExtension>
        </extensions>
      </trkpt>
      <trkpt lat="43.45630179159343242645263671875" lon="1.46222845651209354400634765625">
        <ele>207</ele>
        <time>2026-08-05T07:02:36.000Z</time>
        <extensions>
          <ns3:TrackPointExtension>
            <ns3:hr>87</ns3:hr>
            <ns3:cad>45</ns3:cad>
          </ns3:TrackPointExtension>
        </extensions>
      </trkpt>
      <trkpt lat="43.45630363561213016510009765625" lon="1.462239436805248260498046875">
        <ele>206.8000030517578125</ele>
        <time>2026-08-05T07:02:37.000Z</time>
        <extensions>
          <ns3:TrackPointExtension>
            <ns3:hr>87</ns3:hr>
            <ns3:cad>45</ns3:cad>
          </ns3:TrackPointExtension>
        </extensions>
      </trkpt>
      <trkpt lat="43.45630615018308162689208984375" lon="1.462252177298069000244140625">
        <ele>206.600006103515625</ele>
        <time>2026-08-05T07:02:38.000Z</time>
        <extensions>
          <ns3:TrackPointExtension>
            <ns3:hr>87</ns3:hr>
            <ns3:cad>48</ns3:cad>
          </ns3:TrackPointExtension>
        </extensions>
      </trkpt>
      <trkpt lat="43.456307239830493927001953125" lon="1.46226483397185802459716796875">
        <ele>206.399993896484375</ele>
        <time>2026-08-05T07:02:39.000Z</time>
        <extensions>
          <ns3:TrackPointExtension>
            <ns3:hr>86</ns3:hr>
            <ns3:cad>50</ns3:cad>
          </ns3:TrackPointExtension>
        </extensions>
      </trkpt>
      <trkpt lat="43.45630799420177936553955078125" lon="1.4622758142650127410888671875">
        <ele>206.399993896484375</ele>
        <time>2026-08-05T07:02:40.000Z</time>
        <extensions>
          <ns3:TrackPointExtension>
            <ns3:hr>86</ns3:hr>
            <ns3:cad>50</ns3:cad>
          </ns3:TrackPointExtension>
        </extensions>
      </trkpt>
      <trkpt lat="43.45631184987723827362060546875" lon="1.46228880621492862701416015625">
        <ele>206.1999969482421875</ele>
        <time>2026-08-05T07:02:41.000Z</time>
        <extensions>
          <ns3:TrackPointExtension>
            <ns3:hr>86</ns3:hr>
            <ns3:cad>51</ns3:cad>
          </ns3:TrackPointExtension>
        </extensions>
      </trkpt>
      <trkpt lat="43.45631771720945835113525390625" lon="1.46229618228971958160400390625">
        <ele>206.1999969482421875</ele>
        <time>2026-08-05T07:02:42.000Z</time>
        <extensions>
          <ns3:TrackPointExtension>
            <ns3:hr>86</ns3:hr>
            <ns3:cad>51</ns3:cad>
          </ns3:TrackPointExtension>
        </extensions>
      </trkpt>
      <trkpt lat="43.45632341690361499786376953125" lon="1.46231152117252349853515625">
        <ele>206.1999969482421875</ele>
        <time>2026-08-05T07:02:43.000Z</time>
        <extensions>
          <ns3:TrackPointExtension>
            <ns3:hr>85</ns3:hr>
            <ns3:cad>50</ns3:cad>
          </ns3:TrackPointExtension>
        </extensions>
      </trkpt>
      <trkpt lat="43.45632911659777164459228515625" lon="1.4623229205608367919921875">
        <ele>206.1999969482421875</ele>
        <time>2026-08-05T07:02:44.000Z</time>
        <extensions>
          <ns3:TrackPointExtension>
            <ns3:hr>85</ns3:hr>
            <ns3:cad>50</ns3:cad>
          </ns3:TrackPointExtension>
        </extensions>
      </trkpt>
      <trkpt lat="43.45633783377707004547119140625" lon="1.46233356557786464691162109375">
        <ele>206.1999969482421875</ele>
        <time>2026-08-05T07:02:45.000Z</time>
        <extensions>
          <ns3:TrackPointExtension>
            <ns3:hr>85</ns3:hr>
            <ns3:cad>50</ns3:cad>
          </ns3:TrackPointExtension>
        </extensions>
      </trkpt>
      <trkpt lat="43.45634403638541698455810546875" lon="1.46234395913779735565185546875">
        <ele>206.1999969482421875</ele>
        <time>2026-08-05T07:02:46.000Z</time>
        <extensions>
          <ns3:TrackPointExtension>
            <ns3:hr>85</ns3:hr>
            <ns3:cad>51</ns3:cad>
          </ns3:TrackPointExtension>
        </extensions>
      </trkpt>
      <trkpt lat="43.45635049045085906982421875" lon="1.4623510837554931640625">
        <ele>206.1999969482421875</ele>
        <time>2026-08-05T07:02:47.000Z</time>
        <extensions>
          <ns3:TrackPointExtension>
            <ns3:hr>85</ns3:hr>
            <ns3:cad>51</ns3:cad>
          </ns3:TrackPointExtension>
        </extensions>
      </trkpt>
      <trkpt lat="43.45635593868792057037353515625" lon="1.46236390806734561920166015625">
        <ele>206.1999969482421875</ele>
        <time>2026-08-05T07:02:48.000Z</time>
        <extensions>
          <ns3:TrackPointExtension>
            <ns3:hr>86</ns3:hr>
            <ns3:cad>48</ns3:cad>
          </ns3:TrackPointExtension>
        </extensions>
      </trkpt>
      <trkpt lat="43.456362225115299224853515625" lon="1.46237145178020000457763671875">
        <ele>206.1999969482421875</ele>
        <time>2026-08-05T07:02:49.000Z</time>
        <extensions>
          <ns3:TrackPointExtension>
            <ns3:hr>85</ns3:hr>
            <ns3:cad>47</ns3:cad>
          </ns3:TrackPointExtension>
        </extensions>
      </trkpt>
      <trkpt lat="43.456362225115299224853515625" lon="1.46237597800791263580322265625">
        <ele>206</ele>
        <time>2026-08-05T07:02:50.000Z</time>
        <extensions>
          <ns3:TrackPointExtension>
            <ns3:hr>85</ns3:hr>
            <ns3:cad>47</ns3:cad>
          </ns3:TrackPointExtension>
        </extensions>
      </trkpt>
      <trkpt lat="43.45636482350528240203857421875" lon="1.46238385699689388275146484375">
        <ele>205.8000030517578125</ele>
        <time>2026-08-05T07:02:51.000Z</time>
        <extensions>
          <ns3:TrackPointExtension>
            <ns3:hr>85</ns3:hr>
            <ns3:cad>47</ns3:cad>
          </ns3:TrackPointExtension>
        </extensions>
      </trkpt>
      <trkpt lat="43.456368930637836456298828125" lon="1.46238754503428936004638671875">
        <ele>205.600006103515625</ele>
        <time>2026-08-05T07:02:52.000Z</time>
        <extensions>
          <ns3:TrackPointExtension>
            <ns3:hr>85</ns3:hr>
            <ns3:cad>47</ns3:cad>
          </ns3:TrackPointExtension>
        </extensions>
      </trkpt>
      <trkpt lat="43.45636834390461444854736328125" lon="1.4623872935771942138671875">
        <ele>205.600006103515625</ele>
        <time>2026-08-05T07:02:53.000Z</time>
        <extensions>
          <ns3:TrackPointExtension>
            <ns3:hr>85</ns3:hr>
            <ns3:cad>0</ns3:cad>
          </ns3:TrackPointExtension>
        </extensions>
      </trkpt>
      <trkpt lat="43.4563670866191387176513671875" lon="1.46238670684397220611572265625">
        <ele>205.600006103515625</ele>
        <time>2026-08-05T07:02:54.000Z</time>
        <extensions>
          <ns3:TrackPointExtension>
            <ns3:hr>85</ns3:hr>
            <ns3:cad>0</ns3:cad>
          </ns3:TrackPointExtension>
        </extensions>
      </trkpt>
      <trkpt lat="43.4563674218952655792236328125" lon="1.462389640510082244873046875">
        <ele>205.399993896484375</ele>
        <time>2026-08-05T07:02:55.000Z</time>
        <extensions>
          <ns3:TrackPointExtension>
            <ns3:hr>85</ns3:hr>
            <ns3:cad>0</ns3:cad>
          </ns3:TrackPointExtension>
        </extensions>
      </trkpt>
      <trkpt lat="43.45637119375169277191162109375" lon="1.4623953402042388916015625">
        <ele>205.399993896484375</ele>
        <time>2026-08-05T07:02:56.000Z</time>
        <extensions>
          <ns3:TrackPointExtension>
            <ns3:hr>85</ns3:hr>
            <ns3:cad>0</ns3:cad>
          </ns3:TrackPointExtension>
        </extensions>
      </trkpt>
      <trkpt lat="43.456375636160373687744140625" lon="1.46240129135549068450927734375">
        <ele>205.600006103515625</ele>
        <time>2026-08-05T07:02:57.000Z</time>
        <extensions>
          <ns3:TrackPointExtension>
            <ns3:hr>85</ns3:hr>
            <ns3:cad>0</ns3:cad>
          </ns3:TrackPointExtension>
        </extensions>
      </trkpt>
      <trkpt lat="43.4563793241977691650390625" lon="1.46240782923996448516845703125">
        <ele>205.399993896484375</ele>
        <time>2026-08-05T07:02:58.000Z</time>
        <extensions>
          <ns3:TrackPointExtension>
            <ns3:hr>84</ns3:hr>
            <ns3:cad>0</ns3:cad>
          </ns3:TrackPointExtension>
        </extensions>
      </trkpt>
      <trkpt lat="43.45638041384518146514892578125" lon="1.4624114334583282470703125">
        <ele>205.399993896484375</ele>
        <time>2026-08-05T07:02:59.000Z</time>
        <extensions>
          <ns3:TrackPointExtension>
            <ns3:hr>84</ns3:hr>
            <ns3:cad>0</ns3:cad>
          </ns3:TrackPointExtension>
        </extensions>
      </trkpt>
      <trkpt lat="43.4563858620822429656982421875" lon="1.462407074868679046630859375">
        <ele>205.1999969482421875</ele>
        <time>2026-08-05T07:03:00.000Z</time>
        <extensions>
          <ns3:TrackPointExtension>
            <ns3:hr>84</ns3:hr>
            <ns3:cad>0</ns3:cad>
          </ns3:TrackPointExtension>
        </extensions>
      </trkpt>
      <trkpt lat="43.4563888795673847198486328125" lon="1.46241269074380397796630859375">
        <ele>205</ele>
        <time>2026-08-05T07:03:01.000Z</time>
        <extensions>
          <ns3:TrackPointExtension>
            <ns3:hr>84</ns3:hr>
            <ns3:cad>0</ns3:cad>
          </ns3:TrackPointExtension>
        </extensions>
      </trkpt>
      <trkpt lat="43.4563945792615413665771484375" lon="1.46241872571408748626708984375">
        <ele>205</ele>
        <time>2026-08-05T07:03:02.000Z</time>
        <extensions>
          <ns3:TrackPointExtension>
            <ns3:hr>84</ns3:hr>
            <ns3:cad>0</ns3:cad>
          </ns3:TrackPointExtension>
        </extensions>
      </trkpt>
      <trkpt lat="43.4564002789556980133056640625" lon="1.462429203093051910400390625">
        <ele>204.8000030517578125</ele>
        <time>2026-08-05T07:03:03.000Z</time>
        <extensions>
          <ns3:TrackPointExtension>
            <ns3:hr>83</ns3:hr>
            <ns3:cad>65</ns3:cad>
          </ns3:TrackPointExtension>
        </extensions>
      </trkpt>
      <trkpt lat="43.456404469907283782958984375" lon="1.4624382555484771728515625">
        <ele>204.600006103515625</ele>
        <time>2026-08-05T07:03:04.000Z</time>
        <extensions>
          <ns3:TrackPointExtension>
            <ns3:hr>83</ns3:hr>
            <ns3:cad>65</ns3:cad>
          </ns3:TrackPointExtension>
        </extensions>
      </trkpt>
      <trkpt lat="43.456406481564044952392578125" lon="1.4624484814703464508056640625">
        <ele>204.600006103515625</ele>
        <time>2026-08-05T07:03:05.000Z</time>
        <extensions>
          <ns3:TrackPointExtension>
            <ns3:hr>83</ns3:hr>
            <ns3:cad>61</ns3:cad>
          </ns3:TrackPointExtension>
        </extensions>
      </trkpt>
      <trkpt lat="43.45640656538307666778564453125" lon="1.46245912648737430572509765625">
        <ele>204.399993896484375</ele>
        <time>2026-08-05T07:03:06.000Z</time>
        <extensions>
          <ns3:TrackPointExtension>
            <ns3:hr>83</ns3:hr>
            <ns3:cad>51</ns3:cad>
          </ns3:TrackPointExtension>
        </extensions>
      </trkpt>
      <trkpt lat="43.45640723593533039093017578125" lon="1.4624706096947193145751953125">
        <ele>204.399993896484375</ele>
        <time>2026-08-05T07:03:07.000Z</time>
        <extensions>
          <ns3:TrackPointExtension>
            <ns3:hr>82</ns3:hr>
            <ns3:cad>51</ns3:cad>
          </ns3:TrackPointExtension>
        </extensions>
      </trkpt>
      <trkpt lat="43.456406481564044952392578125" lon="1.462482511997222900390625">
        <ele>204.399993896484375</ele>
        <time>2026-08-05T07:03:08.000Z</time>
        <extensions>
          <ns3:TrackPointExtension>
            <ns3:hr>82</ns3:hr>
            <ns3:cad>51</ns3:cad>
          </ns3:TrackPointExtension>
        </extensions>
      </trkpt>
      <trkpt lat="43.45640555955469608306884765625" lon="1.46249801851809024810791015625">
        <ele>204.399993896484375</ele>
        <time>2026-08-05T07:03:09.000Z</time>
        <extensions>
          <ns3:TrackPointExtension>
            <ns3:hr>82</ns3:hr>
            <ns3:cad>51</ns3:cad>
          </ns3:TrackPointExtension>
        </extensions>
      </trkpt>
      <trkpt lat="43.4564046375453472137451171875" lon="1.4625081606209278106689453125">
        <ele>204.399993896484375</ele>
        <time>2026-08-05T07:03:10.000Z</time>
        <extensions>
          <ns3:TrackPointExtension>
            <ns3:hr>81</ns3:hr>
            <ns3:cad>50</ns3:cad>
          </ns3:TrackPointExtension>
        </extensions>
      </trkpt>
      <trkpt lat="43.456403799355030059814453125" lon="1.46252031438052654266357421875">
        <ele>204.600006103515625</ele>
        <time>2026-08-05T07:03:11.000Z</time>
        <extensions>
          <ns3:TrackPointExtension>
            <ns3:hr>80</ns3:hr>
            <ns3:cad>48</ns3:cad>
          </ns3:TrackPointExtension>
        </extensions>
      </trkpt>
      <trkpt lat="43.45640338025987148284912109375" lon="1.46253255195915699005126953125">
        <ele>204.8000030517578125</ele>
        <time>2026-08-05T07:03:12.000Z</time>
        <extensions>
          <ns3:TrackPointExtension>
            <ns3:hr>79</ns3:hr>
            <ns3:cad>46</ns3:cad>
          </ns3:TrackPointExtension>
        </extensions>
      </trkpt>
      <trkpt lat="43.4564029611647129058837890625" lon="1.462541185319423675537109375">
        <ele>204.8000030517578125</ele>
        <time>2026-08-05T07:03:13.000Z</time>
        <extensions>
          <ns3:TrackPointExtension>
            <ns3:hr>79</ns3:hr>
            <ns3:cad>46</ns3:cad>
          </ns3:TrackPointExtension>
        </extensions>
      </trkpt>
      <trkpt lat="43.4564073197543621063232421875" lon="1.46255283616483211517333984375">
        <ele>205</ele>
        <time>2026-08-05T07:03:14.000Z</time>
        <extensions>
          <ns3:TrackPointExtension>
            <ns3:hr>79</ns3:hr>
            <ns3:cad>46</ns3:cad>
          </ns3:TrackPointExtension>
        </extensions>
      </trkpt>
      <trkpt lat="43.45641695894300937652587890625" lon="1.46256591193377971649169921875">
        <ele>205.1999969482421875</ele>
        <time>2026-08-05T07:03:15.000Z</time>
        <extensions>
          <ns3:TrackPointExtension>
            <ns3:hr>79</ns3:hr>
            <ns3:cad>46</ns3:cad>
          </ns3:TrackPointExtension>
        </extensions>
      </trkpt>
      <trkpt lat="43.45642098225653171539306640625" lon="1.46257915534079074859619140625">
        <ele>205.1999969482421875</ele>
        <time>2026-08-05T07:03:16.000Z</time>
        <extensions>
          <ns3:TrackPointExtension>
            <ns3:hr>78</ns3:hr>
            <ns3:cad>43</ns3:cad>
          </ns3:TrackPointExtension>
        </extensions>
      </trkpt>
      <trkpt lat="43.4564208984375" lon="1.46258954890072345733642578125">
        <ele>205.399993896484375</ele>
        <time>2026-08-05T07:03:17.000Z</time>
        <extensions>
          <ns3:TrackPointExtension>
            <ns3:hr>78</ns3:hr>
            <ns3:cad>43</ns3:cad>
          </ns3:TrackPointExtension>
        </extensions>
      </trkpt>
      <trkpt lat="43.45641553401947021484375" lon="1.4625993557274341583251953125">
        <ele>205.600006103515625</ele>
        <time>2026-08-05T07:03:18.000Z</time>
        <extensions>
          <ns3:TrackPointExtension>
            <ns3:hr>78</ns3:hr>
            <ns3:cad>43</ns3:cad>
          </ns3:TrackPointExtension>
        </extensions>
      </trkpt>
      <trkpt lat="43.4564113430678844451904296875" lon="1.46260522305965423583984375">
        <ele>205.600006103515625</ele>
        <time>2026-08-05T07:03:19.000Z</time>
        <extensions>
          <ns3:TrackPointExtension>
            <ns3:hr>78</ns3:hr>
            <ns3:cad>43</ns3:cad>
          </ns3:TrackPointExtension>
        </extensions>
      </trkpt>
      <trkpt lat="43.4564079903066158294677734375" lon="1.4626124314963817596435546875">
        <ele>205.8000030517578125</ele>
        <time>2026-08-05T07:03:20.000Z</time>
        <extensions>
          <ns3:TrackPointExtension>
            <ns3:hr>78</ns3:hr>
            <ns3:cad>43</ns3:cad>
          </ns3:TrackPointExtension>
        </extensions>
      </trkpt>
      <trkpt lat="43.45640547573566436767578125" lon="1.46261368878185749053955078125">
        <ele>205.8000030517578125</ele>
        <time>2026-08-05T07:03:21.000Z</time>
        <extensions>
          <ns3:TrackPointExtension>
            <ns3:hr>79</ns3:hr>
            <ns3:cad>0</ns3:cad>
          </ns3:TrackPointExtension>
        </extensions>
      </trkpt>
      <trkpt lat="43.4563992731273174285888671875" lon="1.4626231603324413299560546875">
        <ele>206</ele>
        <time>2026-08-05T07:03:22.000Z</time>
        <extensions>
          <ns3:TrackPointExtension>
            <ns3:hr>78</ns3:hr>
            <ns3:cad>0</ns3:cad>
          </ns3:TrackPointExtension>
        </extensions>
      </trkpt>
      <trkpt lat="43.456398434937000274658203125" lon="1.46262827329337596893310546875">
        <ele>206</ele>
        <time>2026-08-05T07:03:23.000Z</time>
        <extensions>
          <ns3:TrackPointExtension>
            <ns3:hr>79</ns3:hr>
            <ns3:cad>0</ns3:cad>
          </ns3:TrackPointExtension>
        </extensions>
      </trkpt>
      <trkpt lat="43.4564022906124591827392578125" lon="1.46263984031975269317626953125">
        <ele>206</ele>
        <time>2026-08-05T07:03:24.000Z</time>
        <extensions>
          <ns3:TrackPointExtension>
            <ns3:hr>79</ns3:hr>
            <ns3:cad>0</ns3:cad>
          </ns3:TrackPointExtension>
        </extensions>
      </trkpt>
      <trkpt lat="43.45640036277472972869873046875" lon="1.462651826441287994384765625">
        <ele>205.8000030517578125</ele>
        <time>2026-08-05T07:03:25.000Z</time>
        <extensions>
          <ns3:TrackPointExtension>
            <ns3:hr>80</ns3:hr>
            <ns3:cad>0</ns3:cad>
          </ns3:TrackPointExtension>
        </extensions>
      </trkpt>
      <trkpt lat="43.45639784820377826690673828125" lon="1.46266163326799869537353515625">
        <ele>206</ele>
        <time>2026-08-05T07:03:26.000Z</time>
        <extensions>
          <ns3:TrackPointExtension>
            <ns3:hr>81</ns3:hr>
            <ns3:cad>44</ns3:cad>
          </ns3:TrackPointExtension>
        </extensions>
      </trkpt>
      <trkpt lat="43.45639198087155818939208984375" lon="1.462673284113407135009765625">
        <ele>206</ele>
        <time>2026-08-05T07:03:27.000Z</time>
        <extensions>
          <ns3:TrackPointExtension>
            <ns3:hr>82</ns3:hr>
            <ns3:cad>44</ns3:cad>
          </ns3:TrackPointExtension>
        </extensions>
      </trkpt>
      <trkpt lat="43.4563868679106235504150390625" lon="1.462686695158481597900390625">
        <ele>206.1999969482421875</ele>
        <time>2026-08-05T07:03:28.000Z</time>
        <extensions>
          <ns3:TrackPointExtension>
            <ns3:hr>83</ns3:hr>
            <ns3:cad>0</ns3:cad>
          </ns3:TrackPointExtension>
        </extensions>
      </trkpt>
      <trkpt lat="43.4563846886157989501953125" lon="1.46269977092742919921875">
        <ele>206.1999969482421875</ele>
        <time>2026-08-05T07:03:29.000Z</time>
        <extensions>
          <ns3:TrackPointExtension>
            <ns3:hr>83</ns3:hr>
            <ns3:cad>40</ns3:cad>
          </ns3:TrackPointExtension>
        </extensions>
      </trkpt>
      <trkpt lat="43.45638276077806949615478515625" lon="1.46270790137350559234619140625">
        <ele>206.399993896484375</ele>
        <time>2026-08-05T07:03:30.000Z</time>
        <extensions>
          <ns3:TrackPointExtension>
            <ns3:hr>84</ns3:hr>
            <ns3:cad>40</ns3:cad>
          </ns3:TrackPointExtension>
        </extensions>
      </trkpt>
      <trkpt lat="43.45638192258775234222412109375" lon="1.46271745674312114715576171875">
        <ele>206.399993896484375</ele>
        <time>2026-08-05T07:03:31.000Z</time>
        <extensions>
          <ns3:TrackPointExtension>
            <ns3:hr>85</ns3:hr>
            <ns3:cad>40</ns3:cad>
          </ns3:TrackPointExtension>
        </extensions>
      </trkpt>
      <trkpt lat="43.45637974329292774200439453125" lon="1.46273405291140079498291015625">
        <ele>206.600006103515625</ele>
        <time>2026-08-05T07:03:32.000Z</time>
        <extensions>
          <ns3:TrackPointExtension>
            <ns3:hr>85</ns3:hr>
            <ns3:cad>40</ns3:cad>
          </ns3:TrackPointExtension>
        </extensions>
      </trkpt>
      <trkpt lat="43.45637454651296138763427734375" lon="1.46274763159453868865966796875">
        <ele>206.600006103515625</ele>
        <time>2026-08-05T07:03:33.000Z</time>
        <extensions>
          <ns3:TrackPointExtension>
            <ns3:hr>85</ns3:hr>
            <ns3:cad>41</ns3:cad>
          </ns3:TrackPointExtension>
        </extensions>
      </trkpt>
      <trkpt lat="43.456369601190090179443359375" lon="1.46276020444929599761962890625">
        <ele>206.8000030517578125</ele>
        <time>2026-08-05T07:03:34.000Z</time>
        <extensions>
          <ns3:TrackPointExtension>
            <ns3:hr>86</ns3:hr>
            <ns3:cad>41</ns3:cad>
          </ns3:TrackPointExtension>
        </extensions>
      </trkpt>
      <trkpt lat="43.4563647396862506866455078125" lon="1.46277378313243389129638671875">
        <ele>206.8000030517578125</ele>
        <time>2026-08-05T07:03:35.000Z</time>
        <extensions>
          <ns3:TrackPointExtension>
            <ns3:hr>86</ns3:hr>
            <ns3:cad>41</ns3:cad>
          </ns3:TrackPointExtension>
        </extensions>
      </trkpt>
      <trkpt lat="43.4563576988875865936279296875" lon="1.4627896249294281005859375">
        <ele>207</ele>
        <time>2026-08-05T07:03:36.000Z</time>
        <extensions>
          <ns3:TrackPointExtension>
            <ns3:hr>87</ns3:hr>
            <ns3:cad>42</ns3:cad>
          </ns3:TrackPointExtension>
        </extensions>
      </trkpt>
      <trkpt lat="43.45635392703115940093994140625" lon="1.46279775537550449371337890625">
        <ele>207</ele>
        <time>2026-08-05T07:03:37.000Z</time>
        <extensions>
          <ns3:TrackPointExtension>
            <ns3:hr>87</ns3:hr>
            <ns3:cad>42</ns3:cad>
          </ns3:TrackPointExtension>
        </extensions>
      </trkpt>
      <trkpt lat="43.45634588040411472320556640625" lon="1.4628052152693271636962890625">
        <ele>206.8000030517578125</ele>
        <time>2026-08-05T07:03:38.000Z</time>
        <extensions>
          <ns3:TrackPointExtension>
            <ns3:hr>87</ns3:hr>
            <ns3:cad>42</ns3:cad>
          </ns3:TrackPointExtension>
        </extensions>
      </trkpt>
      <trkpt lat="43.456346802413463592529296875" lon="1.46281133405864238739013671875">
        <ele>206.8000030517578125</ele>
        <time>2026-08-05T07:03:39.000Z</time>
        <extensions>
          <ns3:TrackPointExtension>
            <ns3:hr>88</ns3:hr>
            <ns3:cad>42</ns3:cad>
          </ns3:TrackPointExtension>
        </extensions>
      </trkpt>
      <trkpt lat="43.45634420402348041534423828125" lon="1.46281778812408447265625">
        <ele>206.600006103515625</ele>
        <time>2026-08-05T07:03:40.000Z</time>
        <extensions>
          <ns3:TrackPointExtension>
            <ns3:hr>88</ns3:hr>
            <ns3:cad>41</ns3:cad>
          </ns3:TrackPointExtension>
        </extensions>
      </trkpt>
      <trkpt lat="43.45634001307189464569091796875" lon="1.4628333784639835357666015625">
        <ele>206.399993896484375</ele>
        <time>2026-08-05T07:03:41.000Z</time>
        <extensions>
          <ns3:TrackPointExtension>
            <ns3:hr>88</ns3:hr>
            <ns3:cad>41</ns3:cad>
          </ns3:TrackPointExtension>
        </extensions>
      </trkpt>
      <trkpt lat="43.45633615739643573760986328125" lon="1.462842933833599090576171875">
        <ele>206.1999969482421875</ele>
        <time>2026-08-05T07:03:42.000Z</time>
        <extensions>
          <ns3:TrackPointExtension>
            <ns3:hr>88</ns3:hr>
            <ns3:cad>48</ns3:cad>
          </ns3:TrackPointExtension>
        </extensions>
      </trkpt>
      <trkpt lat="43.4563328884541988372802734375" lon="1.46285458467900753021240234375">
        <ele>206.1999969482421875</ele>
        <time>2026-08-05T07:03:43.000Z</time>
        <extensions>
          <ns3:TrackPointExtension>
            <ns3:hr>88</ns3:hr>
            <ns3:cad>49</ns3:cad>
          </ns3:TrackPointExtension>
        </extensions>
      </trkpt>
      <trkpt lat="43.45633179880678653717041015625" lon="1.462869755923748016357421875">
        <ele>206.1999969482421875</ele>
        <time>2026-08-05T07:03:44.000Z</time>
        <extensions>
          <ns3:TrackPointExtension>
            <ns3:hr>88</ns3:hr>
            <ns3:cad>48</ns3:cad>
          </ns3:TrackPointExtension>
        </extensions>
      </trkpt>
      <trkpt lat="43.45632961951196193695068359375" lon="1.46287855692207813262939453125">
        <ele>206.1999969482421875</ele>
        <time>2026-08-05T07:03:45.000Z</time>
        <extensions>
          <ns3:TrackPointExtension>
            <ns3:hr>88</ns3:hr>
            <ns3:cad>48</ns3:cad>
          </ns3:TrackPointExtension>
        </extensions>
      </trkpt>
      <trkpt lat="43.4563268534839153289794921875" lon="1.4628930576145648956298828125">
        <ele>206.1999969482421875</ele>
        <time>2026-08-05T07:03:46.000Z</time>
        <extensions>
          <ns3:TrackPointExtension>
            <ns3:hr>87</ns3:hr>
            <ns3:cad>48</ns3:cad>
          </ns3:TrackPointExtension>
        </extensions>
      </trkpt>
      <trkpt lat="43.45632576383650302886962890625" lon="1.46289900876581668853759765625">
        <ele>206.399993896484375</ele>
        <time>2026-08-05T07:03:47.000Z</time>
        <extensions>
          <ns3:TrackPointExtension>
            <ns3:hr>87</ns3:hr>
            <ns3:cad>48</ns3:cad>
          </ns3:TrackPointExtension>
        </extensions>
      </trkpt>
      <trkpt lat="43.45632794313132762908935546875" lon="1.462911665439605712890625">
        <ele>206.399993896484375</ele>
        <time>2026-08-05T07:03:48.000Z</time>
        <extensions>
          <ns3:TrackPointExtension>
            <ns3:hr>87</ns3:hr>
            <ns3:cad>48</ns3:cad>
          </ns3:TrackPointExtension>
        </extensions>
      </trkpt>
      <trkpt lat="43.4563281945884227752685546875" lon="1.4629210531711578369140625">
        <ele>206.600006103515625</ele>
        <time>2026-08-05T07:03:49.000Z</time>
        <extensions>
          <ns3:TrackPointExtension>
            <ns3:hr>87</ns3:hr>
            <ns3:cad>48</ns3:cad>
          </ns3:TrackPointExtension>
        </extensions>
      </trkpt>
      <trkpt lat="43.456324003636837005615234375" lon="1.46293236874043941497802734375">
        <ele>206.600006103515625</ele>
        <time>2026-08-05T07:03:50.000Z</time>
        <extensions>
          <ns3:TrackPointExtension>
            <ns3:hr>87</ns3:hr>
            <ns3:cad>48</ns3:cad>
          </ns3:TrackPointExtension>
        </extensions>
      </trkpt>
      <trkpt lat="43.4563208185136318206787109375" lon="1.46294913254678249359130859375">
        <ele>206.600006103515625</ele>
        <time>2026-08-05T07:03:51.000Z</time>
        <extensions>
          <ns3:TrackPointExtension>
            <ns3:hr>87</ns3:hr>
            <ns3:cad>48</ns3:cad>
          </ns3:TrackPointExtension>
        </extensions>
      </trkpt>
      <trkpt lat="43.45631654374301433563232421875" lon="1.4629557542502880096435546875">
        <ele>206.600006103515625</ele>
        <time>2026-08-05T07:03:52.000Z</time>
        <extensions>
          <ns3:TrackPointExtension>
            <ns3:hr>87</ns3:hr>
            <ns3:cad>79</ns3:cad>
          </ns3:TrackPointExtension>
        </extensions>
      </trkpt>
      <trkpt lat="43.456311263144016265869140625" lon="1.46296421997249126434326171875">
        <ele>206.8000030517578125</ele>
        <time>2026-08-05T07:03:53.000Z</time>
        <extensions>
          <ns3:TrackPointExtension>
            <ns3:hr>87</ns3:hr>
            <ns3:cad>79</ns3:cad>
          </ns3:TrackPointExtension>
        </extensions>
      </trkpt>
      <trkpt lat="43.4563077427446842193603515625" lon="1.4629808999598026275634765625">
        <ele>206.8000030517578125</ele>
        <time>2026-08-05T07:03:54.000Z</time>
        <extensions>
          <ns3:TrackPointExtension>
            <ns3:hr>87</ns3:hr>
            <ns3:cad>79</ns3:cad>
          </ns3:TrackPointExtension>
        </extensions>
      </trkpt>
      <trkpt lat="43.4563040547072887420654296875" lon="1.46299037151038646697998046875">
        <ele>207</ele>
        <time>2026-08-05T07:03:55.000Z</time>
        <extensions>
          <ns3:TrackPointExtension>
            <ns3:hr>87</ns3:hr>
            <ns3:cad>79</ns3:cad>
          </ns3:TrackPointExtension>
        </extensions>
      </trkpt>
      <trkpt lat="43.456304557621479034423828125" lon="1.4630000106990337371826171875">
        <ele>207</ele>
        <time>2026-08-05T07:03:56.000Z</time>
        <extensions>
          <ns3:TrackPointExtension>
            <ns3:hr>87</ns3:hr>
            <ns3:cad>79</ns3:cad>
          </ns3:TrackPointExtension>
        </extensions>
      </trkpt>
      <trkpt lat="43.4562990255653858184814453125" lon="1.46301685832440853118896484375">
        <ele>207.1999969482421875</ele>
        <time>2026-08-05T07:03:57.000Z</time>
        <extensions>
          <ns3:TrackPointExtension>
            <ns3:hr>87</ns3:hr>
            <ns3:cad>79</ns3:cad>
          </ns3:TrackPointExtension>
        </extensions>
      </trkpt>
      <trkpt lat="43.45629810355603694915771484375" lon="1.46302691660821437835693359375">
        <ele>207.399993896484375</ele>
        <time>2026-08-05T07:03:58.000Z</time>
        <extensions>
          <ns3:TrackPointExtension>
            <ns3:hr>87</ns3:hr>
            <ns3:cad>79</ns3:cad>
          </ns3:TrackPointExtension>
        </extensions>
      </trkpt>
      <trkpt lat="43.45630179159343242645263671875" lon="1.46303236484527587890625">
        <ele>207.600006103515625</ele>
        <time>2026-08-05T07:03:59.000Z</time>
        <extensions>
          <ns3:TrackPointExtension>
            <ns3:hr>87</ns3:hr>
            <ns3:cad>40</ns3:cad>
          </ns3:TrackPointExtension>
        </extensions>
      </trkpt>
      <trkpt lat="43.45630262978374958038330078125" lon="1.463042087852954864501953125">
        <ele>207.8000030517578125</ele>
        <time>2026-08-05T07:04:00.000Z</time>
        <extensions>
          <ns3:TrackPointExtension>
            <ns3:hr>87</ns3:hr>
            <ns3:cad>40</ns3:cad>
          </ns3:TrackPointExtension>
        </extensions>
      </trkpt>
      <trkpt lat="43.45630061812698841094970703125" lon="1.4630560018122196197509765625">
        <ele>208</ele>
        <time>2026-08-05T07:04:01.000Z</time>
        <extensions>
          <ns3:TrackPointExtension>
            <ns3:hr>88</ns3:hr>
            <ns3:cad>40</ns3:cad>
          </ns3:TrackPointExtension>
        </extensions>
      </trkpt>
      <trkpt lat="43.45630162395536899566650390625" lon="1.4630573429167270660400390625">
        <ele>208.1999969482421875</ele>
        <time>2026-08-05T07:04:02.000Z</time>
        <extensions>
          <ns3:TrackPointExtension>
            <ns3:hr>88</ns3:hr>
            <ns3:cad>40</ns3:cad>
          </ns3:TrackPointExtension>
        </extensions>
      </trkpt>
      <trkpt lat="43.45629977993667125701904296875" lon="1.46306731738150119781494140625">
        <ele>208.399993896484375</ele>
        <time>2026-08-05T07:04:03.000Z</time>
        <extensions>
          <ns3:TrackPointExtension>
            <ns3:hr>88</ns3:hr>
            <ns3:cad>42</ns3:cad>
          </ns3:TrackPointExtension>
        </extensions>
      </trkpt>
      <trkpt lat="43.456299193203449249267578125" lon="1.4630838297307491302490234375">
        <ele>208.600006103515625</ele>
        <time>2026-08-05T07:04:04.000Z</time>
        <extensions>
          <ns3:TrackPointExtension>
            <ns3:hr>89</ns3:hr>
            <ns3:cad>42</ns3:cad>
          </ns3:TrackPointExtension>
        </extensions>
      </trkpt>
      <trkpt lat="43.45629072748124599456787109375" lon="1.463091373443603515625">
        <ele>208.8000030517578125</ele>
        <time>2026-08-05T07:04:05.000Z</time>
        <extensions>
          <ns3:TrackPointExtension>
            <ns3:hr>90</ns3:hr>
            <ns3:cad>42</ns3:cad>
          </ns3:TrackPointExtension>
        </extensions>
      </trkpt>
      <trkpt lat="43.45629014074802398681640625" lon="1.4630912058055400848388671875">
        <ele>209</ele>
        <time>2026-08-05T07:04:06.000Z</time>
        <extensions>
          <ns3:TrackPointExtension>
            <ns3:hr>90</ns3:hr>
            <ns3:cad>42</ns3:cad>
          </ns3:TrackPointExtension>
        </extensions>
      </trkpt>
      <trkpt lat="43.456286452710628509521484375" lon="1.4631015993654727935791015625">
        <ele>209.1999969482421875</ele>
        <time>2026-08-05T07:04:07.000Z</time>
        <extensions>
          <ns3:TrackPointExtension>
            <ns3:hr>90</ns3:hr>
            <ns3:cad>44</ns3:cad>
          </ns3:TrackPointExtension>
        </extensions>
      </trkpt>
      <trkpt lat="43.45628150738775730133056640625" lon="1.46311542950570583343505859375">
        <ele>209.399993896484375</ele>
        <time>2026-08-05T07:04:08.000Z</time>
        <extensions>
          <ns3:TrackPointExtension>
            <ns3:hr>90</ns3:hr>
            <ns3:cad>44</ns3:cad>
          </ns3:TrackPointExtension>
        </extensions>
      </trkpt>
      <trkpt lat="43.456278741359710693359375" lon="1.4631230570375919342041015625">
        <ele>209.600006103515625</ele>
        <time>2026-08-05T07:04:09.000Z</time>
        <extensions>
          <ns3:TrackPointExtension>
            <ns3:hr>91</ns3:hr>
            <ns3:cad>0</ns3:cad>
          </ns3:TrackPointExtension>
        </extensions>
      </trkpt>
      <trkpt lat="43.4562785737216472625732421875" lon="1.46312230266630649566650390625">
        <ele>210</ele>
        <time>2026-08-05T07:04:10.000Z</time>
        <extensions>
          <ns3:TrackPointExtension>
            <ns3:hr>91</ns3:hr>
            <ns3:cad>0</ns3:cad>
          </ns3:TrackPointExtension>
        </extensions>
      </trkpt>
      <trkpt lat="43.45628075301647186279296875" lon="1.46312900818884372711181640625">
        <ele>210.1999969482421875</ele>
        <time>2026-08-05T07:04:11.000Z</time>
        <extensions>
          <ns3:TrackPointExtension>
            <ns3:hr>92</ns3:hr>
            <ns3:cad>0</ns3:cad>
          </ns3:TrackPointExtension>
        </extensions>
      </trkpt>
      <trkpt lat="43.4562819264829158782958984375" lon="1.46313906647264957427978515625">
        <ele>210.399993896484375</ele>
        <time>2026-08-05T07:04:12.000Z</time>
        <extensions>
          <ns3:TrackPointExtension>
            <ns3:hr>92</ns3:hr>
            <ns3:cad>0</ns3:cad>
          </ns3:TrackPointExtension>
        </extensions>
      </trkpt>
      <trkpt lat="43.45628284849226474761962890625" lon="1.46314577199518680572509765625">
        <ele>210.600006103515625</ele>
        <time>2026-08-05T07:04:13.000Z</time>
        <extensions>
          <ns3:TrackPointExtension>
            <ns3:hr>93</ns3:hr>
            <ns3:cad>0</ns3:cad>
          </ns3:TrackPointExtension>
        </extensions>
      </trkpt>
      <trkpt lat="43.4562842734158039093017578125" lon="1.463156081736087799072265625">
        <ele>210.8000030517578125</ele>
        <time>2026-08-05T07:04:14.000Z</time>
        <extensions>
          <ns3:TrackPointExtension>
            <ns3:hr>93</ns3:hr>
            <ns3:cad>0</ns3:cad>
          </ns3:TrackPointExtension>
        </extensions>
      </trkpt>
      <trkpt lat="43.45628351904451847076416015625" lon="1.46316404454410076141357421875">
        <ele>211</ele>
        <time>2026-08-05T07:04:15.000Z</time>
        <extensions>
          <ns3:TrackPointExtension>
            <ns3:hr>94</ns3:hr>
            <ns3:cad>43</ns3:cad>
          </ns3:TrackPointExtension>
        </extensions>
      </trkpt>
      <trkpt lat="43.4562839381396770477294921875" lon="1.46317309699952602386474609375">
        <ele>211.1999969482421875</ele>
        <time>2026-08-05T07:04:16.000Z</time>
        <extensions>
          <ns3:TrackPointExtension>
            <ns3:hr>95</ns3:hr>
            <ns3:cad>43</ns3:cad>
          </ns3:TrackPointExtension>
        </extensions>
      </trkpt>
      <trkpt lat="43.4562832675874233245849609375" lon="1.4631837420165538787841796875">
        <ele>211.399993896484375</ele>
        <time>2026-08-05T07:04:17.000Z</time>
        <extensions>
          <ns3:TrackPointExtension>
            <ns3:hr>95</ns3:hr>
            <ns3:cad>40</ns3:cad>
          </ns3:TrackPointExtension>
        </extensions>
      </trkpt>
      <trkpt lat="43.4562829323112964630126953125" lon="1.4631931297481060028076171875">
        <ele>211.600006103515625</ele>
        <time>2026-08-05T07:04:18.000Z</time>
        <extensions>
          <ns3:TrackPointExtension>
            <ns3:hr>95</ns3:hr>
            <ns3:cad>0</ns3:cad>
          </ns3:TrackPointExtension>
        </extensions>
      </trkpt>
      <trkpt lat="43.45628335140645503997802734375" lon="1.4631988294422626495361328125">
        <ele>211.8000030517578125</ele>
        <time>2026-08-05T07:04:19.000Z</time>
        <extensions>
          <ns3:TrackPointExtension>
            <ns3:hr>96</ns3:hr>
            <ns3:cad>0</ns3:cad>
          </ns3:TrackPointExtension>
        </extensions>
      </trkpt>
      <trkpt lat="43.456283770501613616943359375" lon="1.46320193074643611907958984375">
        <ele>211.8000030517578125</ele>
        <time>2026-08-05T07:04:20.000Z</time>
        <extensions>
          <ns3:TrackPointExtension>
            <ns3:hr>96</ns3:hr>
            <ns3:cad>0</ns3:cad>
          </ns3:TrackPointExtension>
        </extensions>
      </trkpt>
      <trkpt lat="43.45628586597740650177001953125" lon="1.46320411004126071929931640625">
        <ele>212</ele>
        <time>2026-08-05T07:04:21.000Z</time>
        <extensions>
          <ns3:TrackPointExtension>
            <ns3:hr>97</ns3:hr>
            <ns3:cad>0</ns3:cad>
          </ns3:TrackPointExtension>
        </extensions>
      </trkpt>
      <trkpt lat="43.4562906436622142791748046875" lon="1.46320897154510021209716796875">
        <ele>212</ele>
        <time>2026-08-05T07:04:22.000Z</time>
        <extensions>
          <ns3:TrackPointExtension>
            <ns3:hr>98</ns3:hr>
            <ns3:cad>73</ns3:cad>
          </ns3:TrackPointExtension>
        </extensions>
      </trkpt>
      <trkpt lat="43.456292487680912017822265625" lon="1.46320997737348079681396484375">
        <ele>212.1999969482421875</ele>
        <time>2026-08-05T07:04:23.000Z</time>
        <extensions>
          <ns3:TrackPointExtension>
            <ns3:hr>98</ns3:hr>
            <ns3:cad>73</ns3:cad>
          </ns3:TrackPointExtension>
        </extensions>
      </trkpt>
      <trkpt lat="43.4562854468822479248046875" lon="1.46322104148566722869873046875">
        <ele>212.1999969482421875</ele>
        <time>2026-08-05T07:04:24.000Z</time>
        <extensions>
          <ns3:TrackPointExtension>
            <ns3:hr>99</ns3:hr>
            <ns3:cad>68</ns3:cad>
          </ns3:TrackPointExtension>
        </extensions>
      </trkpt>
      <trkpt lat="43.4562829323112964630126953125" lon="1.463233195245265960693359375">
        <ele>212.399993896484375</ele>
        <time>2026-08-05T07:04:25.000Z</time>
        <extensions>
          <ns3:TrackPointExtension>
            <ns3:hr>100</ns3:hr>
            <ns3:cad>68</ns3:cad>
          </ns3:TrackPointExtension>
        </extensions>
      </trkpt>
      <trkpt lat="43.456281088292598724365234375" lon="1.4632400684058666229248046875">
        <ele>212.399993896484375</ele>
        <time>2026-08-05T07:04:26.000Z</time>
        <extensions>
          <ns3:TrackPointExtension>
            <ns3:hr>101</ns3:hr>
            <ns3:cad>62</ns3:cad>
          </ns3:TrackPointExtension>
        </extensions>
      </trkpt>
      <trkpt lat="43.45628133974969387054443359375" lon="1.4632497914135456085205078125">
        <ele>212.600006103515625</ele>
        <time>2026-08-05T07:04:27.000Z</time>
        <extensions>
          <ns3:TrackPointExtension>
            <ns3:hr>101</ns3:hr>
            <ns3:cad>62</ns3:cad>
          </ns3:TrackPointExtension>
        </extensions>
      </trkpt>
      <trkpt lat="43.45627983100712299346923828125" lon="1.4632588438689708709716796875">
        <ele>212.8000030517578125</ele>
        <time>2026-08-05T07:04:28.000Z</time>
        <extensions>
          <ns3:TrackPointExtension>
            <ns3:hr>101</ns3:hr>
            <ns3:cad>62</ns3:cad>
          </ns3:TrackPointExtension>
        </extensions>
      </trkpt>
      <trkpt lat="43.4562792442739009857177734375" lon="1.46326445974409580230712890625">
        <ele>213</ele>
        <time>2026-08-05T07:04:29.000Z</time>
        <extensions>
          <ns3:TrackPointExtension>
            <ns3:hr>101</ns3:hr>
            <ns3:cad>0</ns3:cad>
          </ns3:TrackPointExtension>
        </extensions>
      </trkpt>
      <trkpt lat="43.45627966336905956268310546875" lon="1.46327066235244274139404296875">
        <ele>213.1999969482421875</ele>
        <time>2026-08-05T07:04:30.000Z</time>
        <extensions>
          <ns3:TrackPointExtension>
            <ns3:hr>102</ns3:hr>
            <ns3:cad>46</ns3:cad>
          </ns3:TrackPointExtension>
        </extensions>
      </trkpt>
      <trkpt lat="43.45627865754067897796630859375" lon="1.463281475007534027099609375">
        <ele>213.399993896484375</ele>
        <time>2026-08-05T07:04:31.000Z</time>
        <extensions>
          <ns3:TrackPointExtension>
            <ns3:hr>102</ns3:hr>
            <ns3:cad>46</ns3:cad>
          </ns3:TrackPointExtension>
        </extensions>
      </trkpt>
      <trkpt lat="43.45627765171229839324951171875" lon="1.4632896892726421356201171875">
        <ele>213.600006103515625</ele>
        <time>2026-08-05T07:04:32.000Z</time>
        <extensions>
          <ns3:TrackPointExtension>
            <ns3:hr>102</ns3:hr>
            <ns3:cad>46</ns3:cad>
          </ns3:TrackPointExtension>
        </extensions>
      </trkpt>
      <trkpt lat="43.45627538859844207763671875" lon="1.46329815499484539031982421875">
        <ele>213.8000030517578125</ele>
        <time>2026-08-05T07:04:33.000Z</time>
        <extensions>
          <ns3:TrackPointExtension>
            <ns3:hr>102</ns3:hr>
            <ns3:cad>0</ns3:cad>
          </ns3:TrackPointExtension>
        </extensions>
      </trkpt>
      <trkpt lat="43.45627379603683948516845703125" lon="1.463310308754444122314453125">
        <ele>214.1999969482421875</ele>
        <time>2026-08-05T07:04:34.000Z</time>
        <extensions>
          <ns3:TrackPointExtension>
            <ns3:hr>102</ns3:hr>
            <ns3:cad>0</ns3:cad>
          </ns3:TrackPointExtension>
        </extensions>
      </trkpt>
      <trkpt lat="43.45627027563750743865966796875" lon="1.46332003176212310791015625">
        <ele>214.399993896484375</ele>
        <time>2026-08-05T07:04:35.000Z</time>
        <extensions>
          <ns3:TrackPointExtension>
            <ns3:hr>103</ns3:hr>
            <ns3:cad>0</ns3:cad>
          </ns3:TrackPointExtension>
        </extensions>
      </trkpt>
      <trkpt lat="43.4562644921243190765380859375" lon="1.46333168260753154754638671875">
        <ele>214.600006103515625</ele>
        <time>2026-08-05T07:04:36.000Z</time>
        <extensions>
          <ns3:TrackPointExtension>
            <ns3:hr>103</ns3:hr>
            <ns3:cad>0</ns3:cad>
          </ns3:TrackPointExtension>
        </extensions>
      </trkpt>
      <trkpt lat="43.4562621451914310455322265625" lon="1.46333889104425907135009765625">
        <ele>214.600006103515625</ele>
        <time>2026-08-05T07:04:37.000Z</time>
        <extensions>
          <ns3:TrackPointExtension>
            <ns3:hr>103</ns3:hr>
            <ns3:cad>0</ns3:cad>
          </ns3:TrackPointExtension>
        </extensions>
      </trkpt>
      <trkpt lat="43.456262648105621337890625" lon="1.46334593184292316436767578125">
        <ele>214.8000030517578125</ele>
        <time>2026-08-05T07:04:38.000Z</time>
        <extensions>
          <ns3:TrackPointExtension>
            <ns3:hr>103</ns3:hr>
            <ns3:cad>40</ns3:cad>
          </ns3:TrackPointExtension>
        </extensions>
      </trkpt>
      <trkpt lat="43.4562608040869235992431640625" lon="1.4633547328412532806396484375">
        <ele>215</ele>
        <time>2026-08-05T07:04:39.000Z</time>
        <extensions>
          <ns3:TrackPointExtension>
            <ns3:hr>103</ns3:hr>
            <ns3:cad>40</ns3:cad>
          </ns3:TrackPointExtension>
        </extensions>
      </trkpt>
      <trkpt lat="43.4562586247920989990234375" lon="1.46336495876312255859375">
        <ele>215</ele>
        <time>2026-08-05T07:04:40.000Z</time>
        <extensions>
          <ns3:TrackPointExtension>
            <ns3:hr>103</ns3:hr>
            <ns3:cad>77</ns3:cad>
          </ns3:TrackPointExtension>
        </extensions>
      </trkpt>
      <trkpt lat="43.45625870861113071441650390625" lon="1.46337174810469150543212890625">
        <ele>215.1999969482421875</ele>
        <time>2026-08-05T07:04:41.000Z</time>
        <extensions>
          <ns3:TrackPointExtension>
            <ns3:hr>103</ns3:hr>
            <ns3:cad>77</ns3:cad>
          </ns3:TrackPointExtension>
        </extensions>
      </trkpt>
      <trkpt lat="43.4562530927360057830810546875" lon="1.4633862487971782684326171875">
        <ele>215.1999969482421875</ele>
        <time>2026-08-05T07:04:42.000Z</time>
        <extensions>
          <ns3:TrackPointExtension>
            <ns3:hr>103</ns3:hr>
            <ns3:cad>75</ns3:cad>
          </ns3:TrackPointExtension>
        </extensions>
      </trkpt>
      <trkpt lat="43.45624831505119800567626953125" lon="1.4633999951183795928955078125">
        <ele>215.1999969482421875</ele>
        <time>2026-08-05T07:04:43.000Z</time>
        <extensions>
          <ns3:TrackPointExtension>
            <ns3:hr>104</ns3:hr>
            <ns3:cad>75</ns3:cad>
          </ns3:TrackPointExtension>
        </extensions>
      </trkpt>
      <trkpt lat="43.45624261535704135894775390625" lon="1.463412232697010040283203125">
        <ele>215.1999969482421875</ele>
        <time>2026-08-05T07:04:44.000Z</time>
        <extensions>
          <ns3:TrackPointExtension>
            <ns3:hr>104</ns3:hr>
            <ns3:cad>0</ns3:cad>
          </ns3:TrackPointExtension>
        </extensions>
      </trkpt>
      <trkpt lat="43.4562393464148044586181640625" lon="1.4634211175143718719482421875">
        <ele>215.1999969482421875</ele>
        <time>2026-08-05T07:04:45.000Z</time>
        <extensions>
          <ns3:TrackPointExtension>
            <ns3:hr>104</ns3:hr>
            <ns3:cad>0</ns3:cad>
          </ns3:TrackPointExtension>
        </extensions>
      </trkpt>
      <trkpt lat="43.456236161291599273681640625" lon="1.46342572756111621856689453125">
        <ele>215.1999969482421875</ele>
        <time>2026-08-05T07:04:46.000Z</time>
        <extensions>
          <ns3:TrackPointExtension>
            <ns3:hr>104</ns3:hr>
            <ns3:cad>0</ns3:cad>
          </ns3:TrackPointExtension>
        </extensions>
      </trkpt>
      <trkpt lat="43.45623641274869441986083984375" lon="1.46342874504625797271728515625">
        <ele>215.399993896484375</ele>
        <time>2026-08-05T07:04:47.000Z</time>
        <extensions>
          <ns3:TrackPointExtension>
            <ns3:hr>104</ns3:hr>
            <ns3:cad>0</ns3:cad>
          </ns3:TrackPointExtension>
        </extensions>
      </trkpt>
      <trkpt lat="43.45623641274869441986083984375" lon="1.463430337607860565185546875">
        <ele>215.399993896484375</ele>
        <time>2026-08-05T07:04:48.000Z</time>
        <extensions>
          <ns3:TrackPointExtension>
            <ns3:hr>104</ns3:hr>
            <ns3:cad>0</ns3:cad>
          </ns3:TrackPointExtension>
        </extensions>
      </trkpt>
      <trkpt lat="43.456237502396106719970703125" lon="1.46343695931136608123779296875">
        <ele>215.399993896484375</ele>
        <time>2026-08-05T07:04:49.000Z</time>
        <extensions>
          <ns3:TrackPointExtension>
            <ns3:hr>103</ns3:hr>
            <ns3:cad>0</ns3:cad>
          </ns3:TrackPointExtension>
        </extensions>
      </trkpt>
      <trkpt lat="43.4562366642057895660400390625" lon="1.46344198845326900482177734375">
        <ele>215.399993896484375</ele>
        <time>2026-08-05T07:04:50.000Z</time>
        <extensions>
          <ns3:TrackPointExtension>
            <ns3:hr>103</ns3:hr>
            <ns3:cad>0</ns3:cad>
          </ns3:TrackPointExtension>
        </extensions>
      </trkpt>
      <trkpt lat="43.4562349878251552581787109375" lon="1.4634465985000133514404296875">
        <ele>215.399993896484375</ele>
        <time>2026-08-05T07:04:51.000Z</time>
        <extensions>
          <ns3:TrackPointExtension>
            <ns3:hr>103</ns3:hr>
            <ns3:cad>0</ns3:cad>
          </ns3:TrackPointExtension>
        </extensions>
      </trkpt>
      <trkpt lat="43.45622685737907886505126953125" lon="1.46345741115510463714599609375">
        <ele>215.399993896484375</ele>
        <time>2026-08-05T07:04:52.000Z</time>
        <extensions>
          <ns3:TrackPointExtension>
            <ns3:hr>101</ns3:hr>
            <ns3:cad>0</ns3:cad>
          </ns3:TrackPointExtension>
        </extensions>
      </trkpt>
      <trkpt lat="43.45622367225587368011474609375" lon="1.46346797235310077667236328125">
        <ele>215.399993896484375</ele>
        <time>2026-08-05T07:04:53.000Z</time>
        <extensions>
          <ns3:TrackPointExtension>
            <ns3:hr>99</ns3:hr>
            <ns3:cad>0</ns3:cad>
          </ns3:TrackPointExtension>
        </extensions>
      </trkpt>
      <trkpt lat="43.45621864311397075653076171875" lon="1.46347585134208202362060546875">
        <ele>215.399993896484375</ele>
        <time>2026-08-05T07:04:54.000Z</time>
        <extensions>
          <ns3:TrackPointExtension>
            <ns3:hr>98</ns3:hr>
            <ns3:cad>0</ns3:cad>
          </ns3:TrackPointExtension>
        </extensions>
      </trkpt>
      <trkpt lat="43.456219732761383056640625" lon="1.463480293750762939453125">
        <ele>215.399993896484375</ele>
        <time>2026-08-05T07:04:55.000Z</time>
        <extensions>
          <ns3:TrackPointExtension>
            <ns3:hr>99</ns3:hr>
            <ns3:cad>0</ns3:cad>
          </ns3:TrackPointExtension>
        </extensions>
      </trkpt>
      <trkpt lat="43.4562138654291629791259765625" lon="1.463493369519710540771484375">
        <ele>215.399993896484375</ele>
        <time>2026-08-05T07:04:56.000Z</time>
        <extensions>
          <ns3:TrackPointExtension>
            <ns3:hr>99</ns3:hr>
            <ns3:cad>42</ns3:cad>
          </ns3:TrackPointExtension>
        </extensions>
      </trkpt>
      <trkpt lat="43.4562098421156406402587890625" lon="1.46349730901420116424560546875">
        <ele>215.399993896484375</ele>
        <time>2026-08-05T07:04:57.000Z</time>
        <extensions>
          <ns3:TrackPointExtension>
            <ns3:hr>99</ns3:hr>
            <ns3:cad>42</ns3:cad>
          </ns3:TrackPointExtension>
        </extensions>
      </trkpt>
      <trkpt lat="43.4562064893543720245361328125" lon="1.46350619383156299591064453125">
        <ele>215.399993896484375</ele>
        <time>2026-08-05T07:04:58.000Z</time>
        <extensions>
          <ns3:TrackPointExtension>
            <ns3:hr>99</ns3:hr>
            <ns3:cad>42</ns3:cad>
          </ns3:TrackPointExtension>
        </extensions>
      </trkpt>
      <trkpt lat="43.4562021307647228240966796875" lon="1.4635149948298931121826171875">
        <ele>215.399993896484375</ele>
        <time>2026-08-05T07:04:59.000Z</time>
        <extensions>
          <ns3:TrackPointExtension>
            <ns3:hr>99</ns3:hr>
            <ns3:cad>43</ns3:cad>
          </ns3:TrackPointExtension>
        </extensions>
      </trkpt>
      <trkpt lat="43.45619852654635906219482421875" lon="1.46351977251470088958740234375">
        <ele>215.600006103515625</ele>
        <time>2026-08-05T07:05:00.000Z</time>
        <extensions>
          <ns3:TrackPointExtension>
            <ns3:hr>99</ns3:hr>
            <ns3:cad>43</ns3:cad>
          </ns3:TrackPointExtension>
        </extensions>
      </trkpt>
      <trkpt lat="43.4561997838318347930908203125" lon="1.4635314233601093292236328125">
        <ele>215.600006103515625</ele>
        <time>2026-08-05T07:05:01.000Z</time>
        <extensions>
          <ns3:TrackPointExtension>
            <ns3:hr>99</ns3:hr>
            <ns3:cad>42</ns3:cad>
          </ns3:TrackPointExtension>
        </extensions>
      </trkpt>
      <trkpt lat="43.4561917372047901153564453125" lon="1.46355095319449901580810546875">
        <ele>215.600006103515625</ele>
        <time>2026-08-05T07:05:02.000Z</time>
        <extensions>
          <ns3:TrackPointExtension>
            <ns3:hr>98</ns3:hr>
            <ns3:cad>42</ns3:cad>
          </ns3:TrackPointExtension>
        </extensions>
      </trkpt>
      <trkpt lat="43.4561887197196483612060546875" lon="1.4635626040399074554443359375">
        <ele>215.8000030517578125</ele>
        <time>2026-08-05T07:05:03.000Z</time>
        <extensions>
          <ns3:TrackPointExtension>
            <ns3:hr>97</ns3:hr>
            <ns3:cad>78</ns3:cad>
          </ns3:TrackPointExtension>
        </extensions>
      </trkpt>
      <trkpt lat="43.45619148574769496917724609375" lon="1.463569141924381256103515625">
        <ele>215.8000030517578125</ele>
        <time>2026-08-05T07:05:04.000Z</time>
        <extensions>
          <ns3:TrackPointExtension>
            <ns3:hr>97</ns3:hr>
            <ns3:cad>78</ns3:cad>
          </ns3:TrackPointExtension>
        </extensions>
      </trkpt>
      <trkpt lat="43.45618980936706066131591796875" lon="1.46358598954975605010986328125">
        <ele>216</ele>
        <time>2026-08-05T07:05:05.000Z</time>
        <extensions>
          <ns3:TrackPointExtension>
            <ns3:hr>97</ns3:hr>
            <ns3:cad>41</ns3:cad>
          </ns3:TrackPointExtension>
        </extensions>
      </trkpt>
      <trkpt lat="43.4561887197196483612060546875" lon="1.46359764039516448974609375">
        <ele>216.1999969482421875</ele>
        <time>2026-08-05T07:05:06.000Z</time>
        <extensions>
          <ns3:TrackPointExtension>
            <ns3:hr>98</ns3:hr>
            <ns3:cad>41</ns3:cad>
          </ns3:TrackPointExtension>
        </extensions>
      </trkpt>
      <trkpt lat="43.45618930645287036895751953125" lon="1.4636023342609405517578125">
        <ele>216.399993896484375</ele>
        <time>2026-08-05T07:05:07.000Z</time>
        <extensions>
          <ns3:TrackPointExtension>
            <ns3:hr>98</ns3:hr>
            <ns3:cad>41</ns3:cad>
          </ns3:TrackPointExtension>
        </extensions>
      </trkpt>
      <trkpt lat="43.4561857022345066070556640625" lon="1.4636172540485858917236328125">
        <ele>216.399993896484375</ele>
        <time>2026-08-05T07:05:08.000Z</time>
        <extensions>
          <ns3:TrackPointExtension>
            <ns3:hr>97</ns3:hr>
            <ns3:cad>41</ns3:cad>
          </ns3:TrackPointExtension>
        </extensions>
      </trkpt>
      <trkpt lat="43.45618142746388912200927734375" lon="1.463635526597499847412109375">
        <ele>216.600006103515625</ele>
        <time>2026-08-05T07:05:09.000Z</time>
        <extensions>
          <ns3:TrackPointExtension>
            <ns3:hr>97</ns3:hr>
            <ns3:cad>41</ns3:cad>
          </ns3:TrackPointExtension>
        </extensions>
      </trkpt>
      <trkpt lat="43.456175141036510467529296875" lon="1.4636447466909885406494140625">
        <ele>216.600006103515625</ele>
        <time>2026-08-05T07:05:10.000Z</time>
        <extensions>
          <ns3:TrackPointExtension>
            <ns3:hr>97</ns3:hr>
            <ns3:cad>41</ns3:cad>
          </ns3:TrackPointExtension>
        </extensions>
      </trkpt>
      <trkpt lat="43.4561739675700664520263671875" lon="1.46365053020417690277099609375">
        <ele>216.8000030517578125</ele>
        <time>2026-08-05T07:05:11.000Z</time>
        <extensions>
          <ns3:TrackPointExtension>
            <ns3:hr>97</ns3:hr>
            <ns3:cad>41</ns3:cad>
          </ns3:TrackPointExtension>
        </extensions>
      </trkpt>
      <trkpt lat="43.45616617240011692047119140625" lon="1.46365790627896785736083984375">
        <ele>216.8000030517578125</ele>
        <time>2026-08-05T07:05:12.000Z</time>
        <extensions>
          <ns3:TrackPointExtension>
            <ns3:hr>97</ns3:hr>
            <ns3:cad>43</ns3:cad>
          </ns3:TrackPointExtension>
        </extensions>
      </trkpt>
      <trkpt lat="43.4561598859727382659912109375" lon="1.463668383657932281494140625">
        <ele>217</ele>
        <time>2026-08-05T07:05:13.000Z</time>
        <extensions>
          <ns3:TrackPointExtension>
            <ns3:hr>97</ns3:hr>
            <ns3:cad>43</ns3:cad>
          </ns3:TrackPointExtension>
        </extensions>
      </trkpt>
      <trkpt lat="43.45615628175437450408935546875" lon="1.46367467008531093597412109375">
        <ele>217</ele>
        <time>2026-08-05T07:05:14.000Z</time>
        <extensions>
          <ns3:TrackPointExtension>
            <ns3:hr>97</ns3:hr>
            <ns3:cad>43</ns3:cad>
          </ns3:TrackPointExtension>
        </extensions>
      </trkpt>
      <trkpt lat="43.45615158788859844207763671875" lon="1.46368456073105335235595703125">
        <ele>217</ele>
        <time>2026-08-05T07:05:15.000Z</time>
        <extensions>
          <ns3:TrackPointExtension>
            <ns3:hr>98</ns3:hr>
            <ns3:cad>42</ns3:cad>
          </ns3:TrackPointExtension>
        </extensions>
      </trkpt>
      <trkpt lat="43.45614655874669551849365234375" lon="1.46368674002587795257568359375">
        <ele>217</ele>
        <time>2026-08-05T07:05:16.000Z</time>
        <extensions>
          <ns3:TrackPointExtension>
            <ns3:hr>98</ns3:hr>
            <ns3:cad>41</ns3:cad>
          </ns3:TrackPointExtension>
        </extensions>
      </trkpt>
      <trkpt lat="43.45614119432866573333740234375" lon="1.46368841640651226043701171875">
        <ele>217</ele>
        <time>2026-08-05T07:05:17.000Z</time>
        <extensions>
          <ns3:TrackPointExtension>
            <ns3:hr>99</ns3:hr>
            <ns3:cad>41</ns3:cad>
          </ns3:TrackPointExtension>
        </extensions>
      </trkpt>
      <trkpt lat="43.4561421163380146026611328125" lon="1.463697217404842376708984375">
        <ele>217</ele>
        <time>2026-08-05T07:05:18.000Z</time>
        <extensions>
          <ns3:TrackPointExtension>
            <ns3:hr>99</ns3:hr>
            <ns3:cad>41</ns3:cad>
          </ns3:TrackPointExtension>
        </extensions>
      </trkpt>
      <trkpt lat="43.4561357460916042327880859375" lon="1.4637141488492488861083984375">
        <ele>217</ele>
        <time>2026-08-05T07:05:19.000Z</time>
        <extensions>
          <ns3:TrackPointExtension>
            <ns3:hr>99</ns3:hr>
            <ns3:cad>0</ns3:cad>
          </ns3:TrackPointExtension>
        </extensions>
      </trkpt>
      <trkpt lat="43.4561352431774139404296875" lon="1.4637265540659427642822265625">
        <ele>217.1999969482421875</ele>
        <time>2026-08-05T07:05:20.000Z</time>
        <extensions>
          <ns3:TrackPointExtension>
            <ns3:hr>99</ns3:hr>
            <ns3:cad>0</ns3:cad>
          </ns3:TrackPointExtension>
        </extensions>
      </trkpt>
      <trkpt lat="43.45613365061581134796142578125" lon="1.4637366123497486114501953125">
        <ele>217.1999969482421875</ele>
        <time>2026-08-05T07:05:21.000Z</time>
        <extensions>
          <ns3:TrackPointExtension>
            <ns3:hr>99</ns3:hr>
            <ns3:cad>0</ns3:cad>
          </ns3:TrackPointExtension>
        </extensions>
      </trkpt>
      <trkpt lat="43.45613482408225536346435546875" lon="1.4637456648051738739013671875">
        <ele>217.399993896484375</ele>
        <time>2026-08-05T07:05:22.000Z</time>
        <extensions>
          <ns3:TrackPointExtension>
            <ns3:hr>98</ns3:hr>
            <ns3:cad>0</ns3:cad>
          </ns3:TrackPointExtension>
        </extensions>
      </trkpt>
      <trkpt lat="43.45613348297774791717529296875" lon="1.463762260973453521728515625">
        <ele>217.399993896484375</ele>
        <time>2026-08-05T07:05:23.000Z</time>
        <extensions>
          <ns3:TrackPointExtension>
            <ns3:hr>98</ns3:hr>
            <ns3:cad>44</ns3:cad>
          </ns3:TrackPointExtension>
        </extensions>
      </trkpt>
      <trkpt lat="43.45612979494035243988037109375" lon="1.46377332508563995361328125">
        <ele>217.399993896484375</ele>
        <time>2026-08-05T07:05:24.000Z</time>
        <extensions>
          <ns3:TrackPointExtension>
            <ns3:hr>98</ns3:hr>
            <ns3:cad>47</ns3:cad>
          </ns3:TrackPointExtension>
        </extensions>
      </trkpt>
      <trkpt lat="43.4561273641884326934814453125" lon="1.4637812040746212005615234375">
        <ele>217.600006103515625</ele>
        <time>2026-08-05T07:05:25.000Z</time>
        <extensions>
          <ns3:TrackPointExtension>
            <ns3:hr>99</ns3:hr>
            <ns3:cad>47</ns3:cad>
          </ns3:TrackPointExtension>
        </extensions>
      </trkpt>
      <trkpt lat="43.456122167408466339111328125" lon="1.46379612386226654052734375">
        <ele>217.600006103515625</ele>
        <time>2026-08-05T07:05:26.000Z</time>
        <extensions>
          <ns3:TrackPointExtension>
            <ns3:hr>98</ns3:hr>
            <ns3:cad>47</ns3:cad>
          </ns3:TrackPointExtension>
        </extensions>
      </trkpt>
      <trkpt lat="43.4561183117330074310302734375" lon="1.4638063497841358184814453125">
        <ele>217.600006103515625</ele>
        <time>2026-08-05T07:05:27.000Z</time>
        <extensions>
          <ns3:TrackPointExtension>
            <ns3:hr>98</ns3:hr>
            <ns3:cad>46</ns3:cad>
          </ns3:TrackPointExtension>
        </extensions>
      </trkpt>
      <trkpt lat="43.45611445605754852294921875" lon="1.46381749771535396575927734375">
        <ele>217.8000030517578125</ele>
        <time>2026-08-05T07:05:28.000Z</time>
        <extensions>
          <ns3:TrackPointExtension>
            <ns3:hr>98</ns3:hr>
            <ns3:cad>46</ns3:cad>
          </ns3:TrackPointExtension>
        </extensions>
      </trkpt>
      <trkpt lat="43.456114791333675384521484375" lon="1.46382302977144718170166015625">
        <ele>217.8000030517578125</ele>
        <time>2026-08-05T07:05:29.000Z</time>
        <extensions>
          <ns3:TrackPointExtension>
            <ns3:hr>98</ns3:hr>
            <ns3:cad>43</ns3:cad>
          </ns3:TrackPointExtension>
        </extensions>
      </trkpt>
      <trkpt lat="43.45611303113400936126708984375" lon="1.4638368599116802215576171875">
        <ele>217.8000030517578125</ele>
        <time>2026-08-05T07:05:30.000Z</time>
        <extensions>
          <ns3:TrackPointExtension>
            <ns3:hr>97</ns3:hr>
            <ns3:cad>43</ns3:cad>
          </ns3:TrackPointExtension>
        </extensions>
      </trkpt>
      <trkpt lat="43.45611001364886760711669921875" lon="1.4638542942702770233154296875">
        <ele>217.8000030517578125</ele>
        <time>2026-08-05T07:05:31.000Z</time>
        <extensions>
          <ns3:TrackPointExtension>
            <ns3:hr>97</ns3:hr>
            <ns3:cad>0</ns3:cad>
          </ns3:TrackPointExtension>
        </extensions>
      </trkpt>
      <trkpt lat="43.4561042301356792449951171875" lon="1.4638673700392246246337890625">
        <ele>217.8000030517578125</ele>
        <time>2026-08-05T07:05:32.000Z</time>
        <extensions>
          <ns3:TrackPointExtension>
            <ns3:hr>97</ns3:hr>
            <ns3:cad>0</ns3:cad>
          </ns3:TrackPointExtension>
        </extensions>
      </trkpt>
      <trkpt lat="43.4560981951653957366943359375" lon="1.46388103254139423370361328125">
        <ele>218</ele>
        <time>2026-08-05T07:05:33.000Z</time>
        <extensions>
          <ns3:TrackPointExtension>
            <ns3:hr>96</ns3:hr>
            <ns3:cad>0</ns3:cad>
          </ns3:TrackPointExtension>
        </extensions>
      </trkpt>
      <trkpt lat="43.45609626732766628265380859375" lon="1.463889665901660919189453125">
        <ele>218</ele>
        <time>2026-08-05T07:05:34.000Z</time>
        <extensions>
          <ns3:TrackPointExtension>
            <ns3:hr>97</ns3:hr>
            <ns3:cad>0</ns3:cad>
          </ns3:TrackPointExtension>
        </extensions>
      </trkpt>
      <trkpt lat="43.45609392039477825164794921875" lon="1.4639042504131793975830078125">
        <ele>218</ele>
        <time>2026-08-05T07:05:35.000Z</time>
        <extensions>
          <ns3:TrackPointExtension>
            <ns3:hr>97</ns3:hr>
            <ns3:cad>44</ns3:cad>
          </ns3:TrackPointExtension>
        </extensions>
      </trkpt>
      <trkpt lat="43.4560923278331756591796875" lon="1.46391573362052440643310546875">
        <ele>218</ele>
        <time>2026-08-05T07:05:36.000Z</time>
        <extensions>
          <ns3:TrackPointExtension>
            <ns3:hr>97</ns3:hr>
            <ns3:cad>44</ns3:cad>
          </ns3:TrackPointExtension>
        </extensions>
      </trkpt>
      <trkpt lat="43.4560898132622241973876953125" lon="1.463930569589138031005859375">
        <ele>218</ele>
        <time>2026-08-05T07:05:37.000Z</time>
        <extensions>
          <ns3:TrackPointExtension>
            <ns3:hr>96</ns3:hr>
            <ns3:cad>44</ns3:cad>
          </ns3:TrackPointExtension>
        </extensions>
      </trkpt>
      <trkpt lat="43.4560871310532093048095703125" lon="1.46394037641584873199462890625">
        <ele>218.1999969482421875</ele>
        <time>2026-08-05T07:05:38.000Z</time>
        <extensions>
          <ns3:TrackPointExtension>
            <ns3:hr>97</ns3:hr>
            <ns3:cad>44</ns3:cad>
          </ns3:TrackPointExtension>
        </extensions>
      </trkpt>
      <trkpt lat="43.456082604825496673583984375" lon="1.46394993178546428680419921875">
        <ele>218.1999969482421875</ele>
        <time>2026-08-05T07:05:39.000Z</time>
        <extensions>
          <ns3:TrackPointExtension>
            <ns3:hr>97</ns3:hr>
            <ns3:cad>44</ns3:cad>
          </ns3:TrackPointExtension>
        </extensions>
      </trkpt>
      <trkpt lat="43.4560764022171497344970703125" lon="1.46396032534539699554443359375">
        <ele>218.1999969482421875</ele>
        <time>2026-08-05T07:05:40.000Z</time>
        <extensions>
          <ns3:TrackPointExtension>
            <ns3:hr>96</ns3:hr>
            <ns3:cad>44</ns3:cad>
          </ns3:TrackPointExtension>
        </extensions>
      </trkpt>
      <trkpt lat="43.456071205437183380126953125" lon="1.46397105418145656585693359375">
        <ele>218.1999969482421875</ele>
        <time>2026-08-05T07:05:41.000Z</time>
        <extensions>
          <ns3:TrackPointExtension>
            <ns3:hr>96</ns3:hr>
            <ns3:cad>44</ns3:cad>
          </ns3:TrackPointExtension>
        </extensions>
      </trkpt>
      <trkpt lat="43.4560670144855976104736328125" lon="1.4639823697507381439208984375">
        <ele>218.1999969482421875</ele>
        <time>2026-08-05T07:05:42.000Z</time>
        <extensions>
          <ns3:TrackPointExtension>
            <ns3:hr>96</ns3:hr>
            <ns3:cad>44</ns3:cad>
          </ns3:TrackPointExtension>
        </extensions>
      </trkpt>
      <trkpt lat="43.45606575720012187957763671875" lon="1.46399167366325855255126953125">
        <ele>218.1999969482421875</ele>
        <time>2026-08-05T07:05:43.000Z</time>
        <extensions>
          <ns3:TrackPointExtension>
            <ns3:hr>96</ns3:hr>
            <ns3:cad>49</ns3:cad>
          </ns3:TrackPointExtension>
        </extensions>
      </trkpt>
      <trkpt lat="43.456061147153377532958984375" lon="1.464004330337047576904296875">
        <ele>218.1999969482421875</ele>
        <time>2026-08-05T07:05:44.000Z</time>
        <extensions>
          <ns3:TrackPointExtension>
            <ns3:hr>96</ns3:hr>
            <ns3:cad>49</ns3:cad>
          </ns3:TrackPointExtension>
        </extensions>
      </trkpt>
      <trkpt lat="43.45605544745922088623046875" lon="1.46401430480182170867919921875">
        <ele>218.399993896484375</ele>
        <time>2026-08-05T07:05:45.000Z</time>
        <extensions>
          <ns3:TrackPointExtension>
            <ns3:hr>96</ns3:hr>
            <ns3:cad>47</ns3:cad>
          </ns3:TrackPointExtension>
        </extensions>
      </trkpt>
      <trkpt lat="43.45605234615504741668701171875" lon="1.4640236087143421173095703125">
        <ele>218.399993896484375</ele>
        <time>2026-08-05T07:05:46.000Z</time>
        <extensions>
          <ns3:TrackPointExtension>
            <ns3:hr>97</ns3:hr>
            <ns3:cad>47</ns3:cad>
          </ns3:TrackPointExtension>
        </extensions>
      </trkpt>
      <trkpt lat="43.456048071384429931640625" lon="1.4640356786549091339111328125">
        <ele>218.399993896484375</ele>
        <time>2026-08-05T07:05:47.000Z</time>
        <extensions>
          <ns3:TrackPointExtension>
            <ns3:hr>97</ns3:hr>
            <ns3:cad>44</ns3:cad>
          </ns3:TrackPointExtension>
        </extensions>
      </trkpt>
      <trkpt lat="43.45604463480412960052490234375" lon="1.46405051462352275848388671875">
        <ele>218.600006103515625</ele>
        <time>2026-08-05T07:05:48.000Z</time>
        <extensions>
          <ns3:TrackPointExtension>
            <ns3:hr>97</ns3:hr>
            <ns3:cad>44</ns3:cad>
          </ns3:TrackPointExtension>
        </extensions>
      </trkpt>
      <trkpt lat="43.45604144968092441558837890625" lon="1.4640614949166774749755859375">
        <ele>218.600006103515625</ele>
        <time>2026-08-05T07:05:49.000Z</time>
        <extensions>
          <ns3:TrackPointExtension>
            <ns3:hr>96</ns3:hr>
            <ns3:cad>44</ns3:cad>
          </ns3:TrackPointExtension>
        </extensions>
      </trkpt>
      <trkpt lat="43.4560408629477024078369140625" lon="1.46407197229564189910888671875">
        <ele>218.600006103515625</ele>
        <time>2026-08-05T07:05:50.000Z</time>
        <extensions>
          <ns3:TrackPointExtension>
            <ns3:hr>96</ns3:hr>
            <ns3:cad>44</ns3:cad>
          </ns3:TrackPointExtension>
        </extensions>
      </trkpt>
      <trkpt lat="43.45604337751865386962890625" lon="1.4640869759023189544677734375">
        <ele>218.8000030517578125</ele>
        <time>2026-08-05T07:05:51.000Z</time>
        <extensions>
          <ns3:TrackPointExtension>
            <ns3:hr>96</ns3:hr>
            <ns3:cad>44</ns3:cad>
          </ns3:TrackPointExtension>
        </extensions>
      </trkpt>
      <trkpt lat="43.45604379661381244659423828125" lon="1.46409661509096622467041015625">
        <ele>218.8000030517578125</ele>
        <time>2026-08-05T07:05:52.000Z</time>
        <extensions>
          <ns3:TrackPointExtension>
            <ns3:hr>96</ns3:hr>
            <ns3:cad>44</ns3:cad>
          </ns3:TrackPointExtension>
        </extensions>
      </trkpt>
      <trkpt lat="43.456042706966400146484375" lon="1.464108265936374664306640625">
        <ele>219</ele>
        <time>2026-08-05T07:05:53.000Z</time>
        <extensions>
          <ns3:TrackPointExtension>
            <ns3:hr>96</ns3:hr>
            <ns3:cad>44</ns3:cad>
          </ns3:TrackPointExtension>
        </extensions>
      </trkpt>
      <trkpt lat="43.4560432098805904388427734375" lon="1.46411807276308536529541015625">
        <ele>219</ele>
        <time>2026-08-05T07:05:54.000Z</time>
        <extensions>
          <ns3:TrackPointExtension>
            <ns3:hr>96</ns3:hr>
            <ns3:cad>46</ns3:cad>
          </ns3:TrackPointExtension>
        </extensions>
      </trkpt>
      <trkpt lat="43.45604379661381244659423828125" lon="1.4641262032091617584228515625">
        <ele>219.1999969482421875</ele>
        <time>2026-08-05T07:05:55.000Z</time>
        <extensions>
          <ns3:TrackPointExtension>
            <ns3:hr>96</ns3:hr>
            <ns3:cad>46</ns3:cad>
          </ns3:TrackPointExtension>
        </extensions>
      </trkpt>
      <trkpt lat="43.45603960566222667694091796875" lon="1.46413802169263362884521484375">
        <ele>219.1999969482421875</ele>
        <time>2026-08-05T07:05:56.000Z</time>
        <extensions>
          <ns3:TrackPointExtension>
            <ns3:hr>96</ns3:hr>
            <ns3:cad>46</ns3:cad>
          </ns3:TrackPointExtension>
        </extensions>
      </trkpt>
      <trkpt lat="43.45603725872933864593505859375" lon="1.46414858289062976837158203125">
        <ele>219.1999969482421875</ele>
        <time>2026-08-05T07:05:57.000Z</time>
        <extensions>
          <ns3:TrackPointExtension>
            <ns3:hr>96</ns3:hr>
            <ns3:cad>42</ns3:cad>
          </ns3:TrackPointExtension>
        </extensions>
      </trkpt>
      <trkpt lat="43.45603558234870433807373046875" lon="1.4641583897173404693603515625">
        <ele>219.399993896484375</ele>
        <time>2026-08-05T07:05:58.000Z</time>
        <extensions>
          <ns3:TrackPointExtension>
            <ns3:hr>96</ns3:hr>
            <ns3:cad>42</ns3:cad>
          </ns3:TrackPointExtension>
        </extensions>
      </trkpt>
      <trkpt lat="43.45603407360613346099853515625" lon="1.46416584961116313934326171875">
        <ele>219.399993896484375</ele>
        <time>2026-08-05T07:05:59.000Z</time>
        <extensions>
          <ns3:TrackPointExtension>
            <ns3:hr>96</ns3:hr>
            <ns3:cad>42</ns3:cad>
          </ns3:TrackPointExtension>
        </extensions>
      </trkpt>
      <trkpt lat="43.45603340305387973785400390625" lon="1.464171297848224639892578125">
        <ele>219.399993896484375</ele>
        <time>2026-08-05T07:06:00.000Z</time>
        <extensions>
          <ns3:TrackPointExtension>
            <ns3:hr>95</ns3:hr>
            <ns3:cad>78</ns3:cad>
          </ns3:TrackPointExtension>
        </extensions>
      </trkpt>
      <trkpt lat="43.45602669753134250640869140625" lon="1.46418462507426738739013671875">
        <ele>219.399993896484375</ele>
        <time>2026-08-05T07:06:01.000Z</time>
        <extensions>
          <ns3:TrackPointExtension>
            <ns3:hr>96</ns3:hr>
            <ns3:cad>78</ns3:cad>
          </ns3:TrackPointExtension>
        </extensions>
      </trkpt>
      <trkpt lat="43.4560230933129787445068359375" lon="1.4641962759196758270263671875">
        <ele>219.600006103515625</ele>
        <time>2026-08-05T07:06:02.000Z</time>
        <extensions>
          <ns3:TrackPointExtension>
            <ns3:hr>96</ns3:hr>
            <ns3:cad>80</ns3:cad>
          </ns3:TrackPointExtension>
        </extensions>
      </trkpt>
      <trkpt lat="43.45601647160947322845458984375" lon="1.46421127952635288238525390625">
        <ele>219.600006103515625</ele>
        <time>2026-08-05T07:06:03.000Z</time>
        <extensions>
          <ns3:TrackPointExtension>
            <ns3:hr>96</ns3:hr>
            <ns3:cad>80</ns3:cad>
          </ns3:TrackPointExtension>
        </extensions>
      </trkpt>
      <trkpt lat="43.45600783824920654296875" lon="1.46422754041850566864013671875">
        <ele>219.600006103515625</ele>
        <time>2026-08-05T07:06:04.000Z</time>
        <extensions>
          <ns3:TrackPointExtension>
            <ns3:hr>96</ns3:hr>
            <ns3:cad>80</ns3:cad>
          </ns3:TrackPointExtension>
        </extensions>
      </trkpt>
      <trkpt lat="43.456000126898288726806640625" lon="1.46424061618745326995849609375">
        <ele>219.600006103515625</ele>
        <time>2026-08-05T07:06:05.000Z</time>
        <extensions>
          <ns3:TrackPointExtension>
            <ns3:hr>96</ns3:hr>
            <ns3:cad>43</ns3:cad>
          </ns3:TrackPointExtension>
        </extensions>
      </trkpt>
      <trkpt lat="43.4559962712228298187255859375" lon="1.4642505906522274017333984375">
        <ele>219.8000030517578125</ele>
        <time>2026-08-05T07:06:06.000Z</time>
        <extensions>
          <ns3:TrackPointExtension>
            <ns3:hr>96</ns3:hr>
            <ns3:cad>43</ns3:cad>
          </ns3:TrackPointExtension>
        </extensions>
      </trkpt>
      <trkpt lat="43.45599484629929065704345703125" lon="1.46426894702017307281494140625">
        <ele>219.8000030517578125</ele>
        <time>2026-08-05T07:06:07.000Z</time>
        <extensions>
          <ns3:TrackPointExtension>
            <ns3:hr>96</ns3:hr>
            <ns3:cad>44</ns3:cad>
          </ns3:TrackPointExtension>
        </extensions>
      </trkpt>
      <trkpt lat="43.45599241554737091064453125" lon="1.46428135223686695098876953125">
        <ele>220</ele>
        <time>2026-08-05T07:06:08.000Z</time>
        <extensions>
          <ns3:TrackPointExtension>
            <ns3:hr>97</ns3:hr>
            <ns3:cad>44</ns3:cad>
          </ns3:TrackPointExtension>
        </extensions>
      </trkpt>
      <trkpt lat="43.45599316991865634918212890625" lon="1.4642764069139957427978515625">
        <ele>220</ele>
        <time>2026-08-05T07:06:09.000Z</time>
        <extensions>
          <ns3:TrackPointExtension>
            <ns3:hr>96</ns3:hr>
            <ns3:cad>44</ns3:cad>
          </ns3:TrackPointExtension>
        </extensions>
      </trkpt>
      <trkpt lat="43.45599417574703693389892578125" lon="1.46428118459880352020263671875">
        <ele>220.1999969482421875</ele>
        <time>2026-08-05T07:06:10.000Z</time>
        <extensions>
          <ns3:TrackPointExtension>
            <ns3:hr>96</ns3:hr>
            <ns3:cad>43</ns3:cad>
          </ns3:TrackPointExtension>
        </extensions>
      </trkpt>
      <trkpt lat="43.45599367283284664154052734375" lon="1.46428939886391162872314453125">
        <ele>220.1999969482421875</ele>
        <time>2026-08-05T07:06:11.000Z</time>
        <extensions>
          <ns3:TrackPointExtension>
            <ns3:hr>96</ns3:hr>
            <ns3:cad>42</ns3:cad>
          </ns3:TrackPointExtension>
        </extensions>
      </trkpt>
      <trkpt lat="43.45599451102316379547119140625" lon="1.46430172026157379150390625">
        <ele>220.1999969482421875</ele>
        <time>2026-08-05T07:06:12.000Z</time>
        <extensions>
          <ns3:TrackPointExtension>
            <ns3:hr>97</ns3:hr>
            <ns3:cad>41</ns3:cad>
          </ns3:TrackPointExtension>
        </extensions>
      </trkpt>
      <trkpt lat="43.45599375665187835693359375" lon="1.46431320346891880035400390625">
        <ele>220.399993896484375</ele>
        <time>2026-08-05T07:06:13.000Z</time>
        <extensions>
          <ns3:TrackPointExtension>
            <ns3:hr>96</ns3:hr>
            <ns3:cad>41</ns3:cad>
          </ns3:TrackPointExtension>
        </extensions>
      </trkpt>
      <trkpt lat="43.45598897896707057952880859375" lon="1.46432812325656414031982421875">
        <ele>220.399993896484375</ele>
        <time>2026-08-05T07:06:14.000Z</time>
        <extensions>
          <ns3:TrackPointExtension>
            <ns3:hr>96</ns3:hr>
            <ns3:cad>41</ns3:cad>
          </ns3:TrackPointExtension>
        </extensions>
      </trkpt>
      <trkpt lat="43.455986045300960540771484375" lon="1.46433851681649684906005859375">
        <ele>220.399993896484375</ele>
        <time>2026-08-05T07:06:15.000Z</time>
        <extensions>
          <ns3:TrackPointExtension>
            <ns3:hr>96</ns3:hr>
            <ns3:cad>41</ns3:cad>
          </ns3:TrackPointExtension>
        </extensions>
      </trkpt>
      <trkpt lat="43.45598034560680389404296875" lon="1.46435025148093700408935546875">
        <ele>220.399993896484375</ele>
        <time>2026-08-05T07:06:16.000Z</time>
        <extensions>
          <ns3:TrackPointExtension>
            <ns3:hr>96</ns3:hr>
            <ns3:cad>41</ns3:cad>
          </ns3:TrackPointExtension>
        </extensions>
      </trkpt>
      <trkpt lat="43.455974645912647247314453125" lon="1.464362405240535736083984375">
        <ele>220.600006103515625</ele>
        <time>2026-08-05T07:06:17.000Z</time>
        <extensions>
          <ns3:TrackPointExtension>
            <ns3:hr>96</ns3:hr>
            <ns3:cad>44</ns3:cad>
          </ns3:TrackPointExtension>
        </extensions>
      </trkpt>
      <trkpt lat="43.45597229897975921630859375" lon="1.46437103860080242156982421875">
        <ele>220.600006103515625</ele>
        <time>2026-08-05T07:06:18.000Z</time>
        <extensions>
          <ns3:TrackPointExtension>
            <ns3:hr>97</ns3:hr>
            <ns3:cad>44</ns3:cad>
          </ns3:TrackPointExtension>
        </extensions>
      </trkpt>
      <trkpt lat="43.45596785657107830047607421875" lon="1.4643810130655765533447265625">
        <ele>220.600006103515625</ele>
        <time>2026-08-05T07:06:19.000Z</time>
        <extensions>
          <ns3:TrackPointExtension>
            <ns3:hr>99</ns3:hr>
            <ns3:cad>44</ns3:cad>
          </ns3:TrackPointExtension>
        </extensions>
      </trkpt>
      <trkpt lat="43.455963917076587677001953125" lon="1.46439182572066783905029296875">
        <ele>220.600006103515625</ele>
        <time>2026-08-05T07:06:20.000Z</time>
        <extensions>
          <ns3:TrackPointExtension>
            <ns3:hr>99</ns3:hr>
            <ns3:cad>44</ns3:cad>
          </ns3:TrackPointExtension>
        </extensions>
      </trkpt>
      <trkpt lat="43.455959893763065338134765625" lon="1.46440565586090087890625">
        <ele>220.8000030517578125</ele>
        <time>2026-08-05T07:06:21.000Z</time>
        <extensions>
          <ns3:TrackPointExtension>
            <ns3:hr>99</ns3:hr>
            <ns3:cad>45</ns3:cad>
          </ns3:TrackPointExtension>
        </extensions>
      </trkpt>
      <trkpt lat="43.45595612190663814544677734375" lon="1.46441915072500705718994140625">
        <ele>220.8000030517578125</ele>
        <time>2026-08-05T07:06:22.000Z</time>
        <extensions>
          <ns3:TrackPointExtension>
            <ns3:hr>99</ns3:hr>
            <ns3:cad>46</ns3:cad>
          </ns3:TrackPointExtension>
        </extensions>
      </trkpt>
      <trkpt lat="43.45595528371632099151611328125" lon="1.46443038247525691986083984375">
        <ele>220.8000030517578125</ele>
        <time>2026-08-05T07:06:23.000Z</time>
        <extensions>
          <ns3:TrackPointExtension>
            <ns3:hr>100</ns3:hr>
            <ns3:cad>46</ns3:cad>
          </ns3:TrackPointExtension>
        </extensions>
      </trkpt>
      <trkpt lat="43.455954529345035552978515625" lon="1.46443993784487247467041015625">
        <ele>221</ele>
        <time>2026-08-05T07:06:24.000Z</time>
        <extensions>
          <ns3:TrackPointExtension>
            <ns3:hr>99</ns3:hr>
            <ns3:cad>46</ns3:cad>
          </ns3:TrackPointExtension>
        </extensions>
      </trkpt>
      <trkpt lat="43.455952517688274383544921875" lon="1.4644577912986278533935546875">
        <ele>221</ele>
        <time>2026-08-05T07:06:25.000Z</time>
        <extensions>
          <ns3:TrackPointExtension>
            <ns3:hr>99</ns3:hr>
            <ns3:cad>44</ns3:cad>
          </ns3:TrackPointExtension>
        </extensions>
      </trkpt>
      <trkpt lat="43.455949164927005767822265625" lon="1.46447212435305118560791015625">
        <ele>221.1999969482421875</ele>
        <time>2026-08-05T07:06:26.000Z</time>
        <extensions>
          <ns3:TrackPointExtension>
            <ns3:hr>100</ns3:hr>
            <ns3:cad>44</ns3:cad>
          </ns3:TrackPointExtension>
        </extensions>
      </trkpt>
      <trkpt lat="43.45594975166022777557373046875" lon="1.464483775198459625244140625">
        <ele>221.1999969482421875</ele>
        <time>2026-08-05T07:06:27.000Z</time>
        <extensions>
          <ns3:TrackPointExtension>
            <ns3:hr>100</ns3:hr>
            <ns3:cad>44</ns3:cad>
          </ns3:TrackPointExtension>
        </extensions>
      </trkpt>
      <trkpt lat="43.45594639889895915985107421875" lon="1.46449886262416839599609375">
        <ele>221.1999969482421875</ele>
        <time>2026-08-05T07:06:28.000Z</time>
        <extensions>
          <ns3:TrackPointExtension>
            <ns3:hr>100</ns3:hr>
            <ns3:cad>44</ns3:cad>
          </ns3:TrackPointExtension>
        </extensions>
      </trkpt>
      <trkpt lat="43.4559453092515468597412109375" lon="1.46451084874570369720458984375">
        <ele>221.399993896484375</ele>
        <time>2026-08-05T07:06:29.000Z</time>
        <extensions>
          <ns3:TrackPointExtension>
            <ns3:hr>99</ns3:hr>
            <ns3:cad>43</ns3:cad>
          </ns3:TrackPointExtension>
        </extensions>
      </trkpt>
      <trkpt lat="43.4559436328709125518798828125" lon="1.46452258341014385223388671875">
        <ele>221.399993896484375</ele>
        <time>2026-08-05T07:06:30.000Z</time>
        <extensions>
          <ns3:TrackPointExtension>
            <ns3:hr>99</ns3:hr>
            <ns3:cad>43</ns3:cad>
          </ns3:TrackPointExtension>
        </extensions>
      </trkpt>
      <trkpt lat="43.45594237558543682098388671875" lon="1.464534066617488861083984375">
        <ele>221.600006103515625</ele>
        <time>2026-08-05T07:06:31.000Z</time>
        <extensions>
          <ns3:TrackPointExtension>
            <ns3:hr>99</ns3:hr>
            <ns3:cad>43</ns3:cad>
          </ns3:TrackPointExtension>
        </extensions>
      </trkpt>
      <trkpt lat="43.45593877136707305908203125" lon="1.4645483158528804779052734375">
        <ele>221.600006103515625</ele>
        <time>2026-08-05T07:06:32.000Z</time>
        <extensions>
          <ns3:TrackPointExtension>
            <ns3:hr>99</ns3:hr>
            <ns3:cad>43</ns3:cad>
          </ns3:TrackPointExtension>
        </extensions>
      </trkpt>
      <trkpt lat="43.45593382604420185089111328125" lon="1.46455787122249603271484375">
        <ele>221.8000030517578125</ele>
        <time>2026-08-05T07:06:33.000Z</time>
        <extensions>
          <ns3:TrackPointExtension>
            <ns3:hr>99</ns3:hr>
            <ns3:cad>42</ns3:cad>
          </ns3:TrackPointExtension>
        </extensions>
      </trkpt>
      <trkpt lat="43.4559335745871067047119140625" lon="1.464562229812145233154296875">
        <ele>222</ele>
        <time>2026-08-05T07:06:34.000Z</time>
        <extensions>
          <ns3:TrackPointExtension>
            <ns3:hr>99</ns3:hr>
            <ns3:cad>42</ns3:cad>
          </ns3:TrackPointExtension>
        </extensions>
      </trkpt>
      <trkpt lat="43.4559349156916141510009765625" lon="1.46456851623952388763427734375">
        <ele>222.1999969482421875</ele>
        <time>2026-08-05T07:06:35.000Z</time>
        <extensions>
          <ns3:TrackPointExtension>
            <ns3:hr>99</ns3:hr>
            <ns3:cad>42</ns3:cad>
          </ns3:TrackPointExtension>
        </extensions>
      </trkpt>
      <trkpt lat="43.4559375979006290435791015625" lon="1.46457673050463199615478515625">
        <ele>222.1999969482421875</ele>
        <time>2026-08-05T07:06:36.000Z</time>
        <extensions>
          <ns3:TrackPointExtension>
            <ns3:hr>98</ns3:hr>
            <ns3:cad>0</ns3:cad>
          </ns3:TrackPointExtension>
        </extensions>
      </trkpt>
      <trkpt lat="43.45593567006289958953857421875" lon="1.464579999446868896484375">
        <ele>222.1999969482421875</ele>
        <time>2026-08-05T07:06:37.000Z</time>
        <extensions>
          <ns3:TrackPointExtension>
            <ns3:hr>97</ns3:hr>
            <ns3:cad>0</ns3:cad>
          </ns3:TrackPointExtension>
        </extensions>
      </trkpt>
      <trkpt lat="43.45593265257775783538818359375" lon="1.46459584124386310577392578125">
        <ele>222.399993896484375</ele>
        <time>2026-08-05T07:06:38.000Z</time>
        <extensions>
          <ns3:TrackPointExtension>
            <ns3:hr>95</ns3:hr>
            <ns3:cad>43</ns3:cad>
          </ns3:TrackPointExtension>
        </extensions>
      </trkpt>
      <trkpt lat="43.45593282021582126617431640625" lon="1.46460036747157573699951171875">
        <ele>222.399993896484375</ele>
        <time>2026-08-05T07:06:39.000Z</time>
        <extensions>
          <ns3:TrackPointExtension>
            <ns3:hr>93</ns3:hr>
            <ns3:cad>43</ns3:cad>
          </ns3:TrackPointExtension>
        </extensions>
      </trkpt>
      <trkpt lat="43.45593533478677272796630859375" lon="1.46460757590830326080322265625">
        <ele>222.600006103515625</ele>
        <time>2026-08-05T07:06:40.000Z</time>
        <extensions>
          <ns3:TrackPointExtension>
            <ns3:hr>93</ns3:hr>
            <ns3:cad>0</ns3:cad>
          </ns3:TrackPointExtension>
        </extensions>
      </trkpt>
      <trkpt lat="43.45593332313001155853271484375" lon="1.46462417207658290863037109375">
        <ele>222.600006103515625</ele>
        <time>2026-08-05T07:06:41.000Z</time>
        <extensions>
          <ns3:TrackPointExtension>
            <ns3:hr>92</ns3:hr>
            <ns3:cad>0</ns3:cad>
          </ns3:TrackPointExtension>
        </extensions>
      </trkpt>
      <trkpt lat="43.45593365840613842010498046875" lon="1.46464177407324314117431640625">
        <ele>222.8000030517578125</ele>
        <time>2026-08-05T07:06:42.000Z</time>
        <extensions>
          <ns3:TrackPointExtension>
            <ns3:hr>92</ns3:hr>
            <ns3:cad>0</ns3:cad>
          </ns3:TrackPointExtension>
        </extensions>
      </trkpt>
      <trkpt lat="43.4559340775012969970703125" lon="1.464655436575412750244140625">
        <ele>223</ele>
        <time>2026-08-05T07:06:43.000Z</time>
        <extensions>
          <ns3:TrackPointExtension>
            <ns3:hr>92</ns3:hr>
            <ns3:cad>0</ns3:cad>
          </ns3:TrackPointExtension>
        </extensions>
      </trkpt>
      <trkpt lat="43.4559335745871067047119140625" lon="1.464668847620487213134765625">
        <ele>223</ele>
        <time>2026-08-05T07:06:44.000Z</time>
        <extensions>
          <ns3:TrackPointExtension>
            <ns3:hr>92</ns3:hr>
            <ns3:cad>0</ns3:cad>
          </ns3:TrackPointExtension>
        </extensions>
      </trkpt>
      <trkpt lat="43.45593365840613842010498046875" lon="1.4646807499229907989501953125">
        <ele>223.1999969482421875</ele>
        <time>2026-08-05T07:06:45.000Z</time>
        <extensions>
          <ns3:TrackPointExtension>
            <ns3:hr>92</ns3:hr>
            <ns3:cad>44</ns3:cad>
          </ns3:TrackPointExtension>
        </extensions>
      </trkpt>
      <trkpt lat="43.4559342451393604278564453125" lon="1.46469156257808208465576171875">
        <ele>223.1999969482421875</ele>
        <time>2026-08-05T07:06:46.000Z</time>
        <extensions>
          <ns3:TrackPointExtension>
            <ns3:hr>92</ns3:hr>
            <ns3:cad>44</ns3:cad>
          </ns3:TrackPointExtension>
        </extensions>
      </trkpt>
      <trkpt lat="43.45593466423451900482177734375" lon="1.46470463834702968597412109375">
        <ele>223.399993896484375</ele>
        <time>2026-08-05T07:06:47.000Z</time>
        <extensions>
          <ns3:TrackPointExtension>
            <ns3:hr>92</ns3:hr>
            <ns3:cad>44</ns3:cad>
          </ns3:TrackPointExtension>
        </extensions>
      </trkpt>
      <trkpt lat="43.4559367597103118896484375" lon="1.4647166244685649871826171875">
        <ele>223.600006103515625</ele>
        <time>2026-08-05T07:06:48.000Z</time>
        <extensions>
          <ns3:TrackPointExtension>
            <ns3:hr>92</ns3:hr>
            <ns3:cad>44</ns3:cad>
          </ns3:TrackPointExtension>
        </extensions>
      </trkpt>
      <trkpt lat="43.45594002865254878997802734375" lon="1.4647240005433559417724609375">
        <ele>223.600006103515625</ele>
        <time>2026-08-05T07:06:49.000Z</time>
        <extensions>
          <ns3:TrackPointExtension>
            <ns3:hr>92</ns3:hr>
            <ns3:cad>44</ns3:cad>
          </ns3:TrackPointExtension>
        </extensions>
      </trkpt>
      <trkpt lat="43.45594589598476886749267578125" lon="1.464723162353038787841796875">
        <ele>223.8000030517578125</ele>
        <time>2026-08-05T07:06:50.000Z</time>
        <extensions>
          <ns3:TrackPointExtension>
            <ns3:hr>92</ns3:hr>
            <ns3:cad>79</ns3:cad>
          </ns3:TrackPointExtension>
        </extensions>
      </trkpt>
      <trkpt lat="43.45594187267124652862548828125" lon="1.464740596711635589599609375">
        <ele>224</ele>
        <time>2026-08-05T07:06:51.000Z</time>
        <extensions>
          <ns3:TrackPointExtension>
            <ns3:hr>92</ns3:hr>
            <ns3:cad>79</ns3:cad>
          </ns3:TrackPointExtension>
        </extensions>
      </trkpt>
      <trkpt lat="43.4559422917664051055908203125" lon="1.46475006826221942901611328125">
        <ele>224</ele>
        <time>2026-08-05T07:06:52.000Z</time>
        <extensions>
          <ns3:TrackPointExtension>
            <ns3:hr>92</ns3:hr>
            <ns3:cad>79</ns3:cad>
          </ns3:TrackPointExtension>
        </extensions>
      </trkpt>
      <trkpt lat="43.455947153270244598388671875" lon="1.46474822424352169036865234375">
        <ele>224.1999969482421875</ele>
        <time>2026-08-05T07:06:53.000Z</time>
        <extensions>
          <ns3:TrackPointExtension>
            <ns3:hr>92</ns3:hr>
            <ns3:cad>41</ns3:cad>
          </ns3:TrackPointExtension>
        </extensions>
      </trkpt>
      <trkpt lat="43.45594774000346660614013671875" lon="1.46476465277373790740966796875">
        <ele>224.399993896484375</ele>
        <time>2026-08-05T07:06:54.000Z</time>
        <extensions>
          <ns3:TrackPointExtension>
            <ns3:hr>92</ns3:hr>
            <ns3:cad>41</ns3:cad>
          </ns3:TrackPointExtension>
        </extensions>
      </trkpt>
      <trkpt lat="43.4559528529644012451171875" lon="1.46477621980011463165283203125">
        <ele>224.600006103515625</ele>
        <time>2026-08-05T07:06:55.000Z</time>
        <extensions>
          <ns3:TrackPointExtension>
            <ns3:hr>92</ns3:hr>
            <ns3:cad>41</ns3:cad>
          </ns3:TrackPointExtension>
        </extensions>
      </trkpt>
      <trkpt lat="43.4559540264308452606201171875" lon="1.4647813327610492706298828125">
        <ele>224.8000030517578125</ele>
        <time>2026-08-05T07:06:56.000Z</time>
        <extensions>
          <ns3:TrackPointExtension>
            <ns3:hr>93</ns3:hr>
            <ns3:cad>41</ns3:cad>
          </ns3:TrackPointExtension>
        </extensions>
      </trkpt>
      <trkpt lat="43.455956541001796722412109375" lon="1.4647890441119670867919921875">
        <ele>225</ele>
        <time>2026-08-05T07:06:57.000Z</time>
        <extensions>
          <ns3:TrackPointExtension>
            <ns3:hr>93</ns3:hr>
            <ns3:cad>41</ns3:cad>
          </ns3:TrackPointExtension>
        </extensions>
      </trkpt>
      <trkpt lat="43.45596148632466793060302734375" lon="1.46480203606188297271728515625">
        <ele>225.1999969482421875</ele>
        <time>2026-08-05T07:06:58.000Z</time>
        <extensions>
          <ns3:TrackPointExtension>
            <ns3:hr>93</ns3:hr>
            <ns3:cad>42</ns3:cad>
          </ns3:TrackPointExtension>
        </extensions>
      </trkpt>
      <trkpt lat="43.45596634782850742340087890625" lon="1.46480907686054706573486328125">
        <ele>225.399993896484375</ele>
        <time>2026-08-05T07:06:59.000Z</time>
        <extensions>
          <ns3:TrackPointExtension>
            <ns3:hr>93</ns3:hr>
            <ns3:cad>42</ns3:cad>
          </ns3:TrackPointExtension>
        </extensions>
      </trkpt>
      <trkpt lat="43.45596802420914173126220703125" lon="1.46480941213667392730712890625">
        <ele>225.600006103515625</ele>
        <time>2026-08-05T07:07:00.000Z</time>
        <extensions>
          <ns3:TrackPointExtension>
            <ns3:hr>94</ns3:hr>
            <ns3:cad>42</ns3:cad>
          </ns3:TrackPointExtension>
        </extensions>
      </trkpt>
      <trkpt lat="43.45597405917942523956298828125" lon="1.4648195542395114898681640625">
        <ele>225.8000030517578125</ele>
        <time>2026-08-05T07:07:01.000Z</time>
        <extensions>
          <ns3:TrackPointExtension>
            <ns3:hr>94</ns3:hr>
            <ns3:cad>42</ns3:cad>
          </ns3:TrackPointExtension>
        </extensions>
      </trkpt>
      <trkpt lat="43.45597640611231327056884765625" lon="1.46482282318174839019775390625">
        <ele>226</ele>
        <time>2026-08-05T07:07:02.000Z</time>
        <extensions>
          <ns3:TrackPointExtension>
            <ns3:hr>94</ns3:hr>
            <ns3:cad>42</ns3:cad>
          </ns3:TrackPointExtension>
        </extensions>
      </trkpt>
      <trkpt lat="43.45597858540713787078857421875" lon="1.464823074638843536376953125">
        <ele>226.1999969482421875</ele>
        <time>2026-08-05T07:07:03.000Z</time>
        <extensions>
          <ns3:TrackPointExtension>
            <ns3:hr>94</ns3:hr>
            <ns3:cad>42</ns3:cad>
          </ns3:TrackPointExtension>
        </extensions>
      </trkpt>
      <trkpt lat="43.45598814077675342559814453125" lon="1.464837491512298583984375">
        <ele>226.399993896484375</ele>
        <time>2026-08-05T07:07:04.000Z</time>
        <extensions>
          <ns3:TrackPointExtension>
            <ns3:hr>94</ns3:hr>
            <ns3:cad>42</ns3:cad>
          </ns3:TrackPointExtension>
        </extensions>
      </trkpt>
      <trkpt lat="43.45599107444286346435546875" lon="1.46483539603650569915771484375">
        <ele>226.600006103515625</ele>
        <time>2026-08-05T07:07:05.000Z</time>
        <extensions>
          <ns3:TrackPointExtension>
            <ns3:hr>95</ns3:hr>
            <ns3:cad>42</ns3:cad>
          </ns3:TrackPointExtension>
        </extensions>
      </trkpt>
      <trkpt lat="43.4559902362525463104248046875" lon="1.4648322947323322296142578125">
        <ele>226.8000030517578125</ele>
        <time>2026-08-05T07:07:06.000Z</time>
        <extensions>
          <ns3:TrackPointExtension>
            <ns3:hr>95</ns3:hr>
            <ns3:cad>42</ns3:cad>
          </ns3:TrackPointExtension>
        </extensions>
      </trkpt>
      <trkpt lat="43.45599710941314697265625" lon="1.4648441970348358154296875">
        <ele>227</ele>
        <time>2026-08-05T07:07:07.000Z</time>
        <extensions>
          <ns3:TrackPointExtension>
            <ns3:hr>95</ns3:hr>
            <ns3:cad>42</ns3:cad>
          </ns3:TrackPointExtension>
        </extensions>
      </trkpt>
      <trkpt lat="43.45600171945989131927490234375" lon="1.46485115401446819305419921875">
        <ele>227.1999969482421875</ele>
        <time>2026-08-05T07:07:08.000Z</time>
        <extensions>
          <ns3:TrackPointExtension>
            <ns3:hr>96</ns3:hr>
            <ns3:cad>42</ns3:cad>
          </ns3:TrackPointExtension>
        </extensions>
      </trkpt>
      <trkpt lat="43.45600373111665248870849609375" lon="1.464853249490261077880859375">
        <ele>227.1999969482421875</ele>
        <time>2026-08-05T07:07:09.000Z</time>
        <extensions>
          <ns3:TrackPointExtension>
            <ns3:hr>96</ns3:hr>
            <ns3:cad>42</ns3:cad>
          </ns3:TrackPointExtension>
        </extensions>
      </trkpt>
      <trkpt lat="43.45601043663918972015380859375" lon="1.464857272803783416748046875">
        <ele>227.399993896484375</ele>
        <time>2026-08-05T07:07:10.000Z</time>
        <extensions>
          <ns3:TrackPointExtension>
            <ns3:hr>96</ns3:hr>
            <ns3:cad>42</ns3:cad>
          </ns3:TrackPointExtension>
        </extensions>
      </trkpt>
      <trkpt lat="43.456021584570407867431640625" lon="1.4648628048598766326904296875">
        <ele>227.600006103515625</ele>
        <time>2026-08-05T07:07:11.000Z</time>
        <extensions>
          <ns3:TrackPointExtension>
            <ns3:hr>97</ns3:hr>
            <ns3:cad>40</ns3:cad>
          </ns3:TrackPointExtension>
        </extensions>
      </trkpt>
      <trkpt lat="43.45602703280746936798095703125" lon="1.4648641459643840789794921875">
        <ele>227.8000030517578125</ele>
        <time>2026-08-05T07:07:12.000Z</time>
        <extensions>
          <ns3:TrackPointExtension>
            <ns3:hr>98</ns3:hr>
            <ns3:cad>40</ns3:cad>
          </ns3:TrackPointExtension>
        </extensions>
      </trkpt>
      <trkpt lat="43.4560308046638965606689453125" lon="1.4648638106882572174072265625">
        <ele>228</ele>
        <time>2026-08-05T07:07:13.000Z</time>
        <extensions>
          <ns3:TrackPointExtension>
            <ns3:hr>98</ns3:hr>
            <ns3:cad>41</ns3:cad>
          </ns3:TrackPointExtension>
        </extensions>
      </trkpt>
      <trkpt lat="43.4560401923954486846923828125" lon="1.4648738689720630645751953125">
        <ele>228.1999969482421875</ele>
        <time>2026-08-05T07:07:14.000Z</time>
        <extensions>
          <ns3:TrackPointExtension>
            <ns3:hr>99</ns3:hr>
            <ns3:cad>41</ns3:cad>
          </ns3:TrackPointExtension>
        </extensions>
      </trkpt>
      <trkpt lat="43.45604564063251018524169921875" lon="1.46488241851329803466796875">
        <ele>228.399993896484375</ele>
        <time>2026-08-05T07:07:15.000Z</time>
        <extensions>
          <ns3:TrackPointExtension>
            <ns3:hr>101</ns3:hr>
            <ns3:cad>42</ns3:cad>
          </ns3:TrackPointExtension>
        </extensions>
      </trkpt>
      <trkpt lat="43.4560485742986202239990234375" lon="1.46488635800778865814208984375">
        <ele>228.399993896484375</ele>
        <time>2026-08-05T07:07:16.000Z</time>
        <extensions>
          <ns3:TrackPointExtension>
            <ns3:hr>102</ns3:hr>
            <ns3:cad>42</ns3:cad>
          </ns3:TrackPointExtension>
        </extensions>
      </trkpt>
      <trkpt lat="43.45605544745922088623046875" lon="1.4648897945880889892578125">
        <ele>228.600006103515625</ele>
        <time>2026-08-05T07:07:17.000Z</time>
        <extensions>
          <ns3:TrackPointExtension>
            <ns3:hr>102</ns3:hr>
            <ns3:cad>45</ns3:cad>
          </ns3:TrackPointExtension>
        </extensions>
      </trkpt>
      <trkpt lat="43.45605938695371150970458984375" lon="1.46488920785486698150634765625">
        <ele>228.600006103515625</ele>
        <time>2026-08-05T07:07:18.000Z</time>
        <extensions>
          <ns3:TrackPointExtension>
            <ns3:hr>102</ns3:hr>
            <ns3:cad>40</ns3:cad>
          </ns3:TrackPointExtension>
        </extensions>
      </trkpt>
      <trkpt lat="43.45606508664786815643310546875" lon="1.46489339880645275115966796875">
        <ele>228.8000030517578125</ele>
        <time>2026-08-05T07:07:19.000Z</time>
        <extensions>
          <ns3:TrackPointExtension>
            <ns3:hr>102</ns3:hr>
            <ns3:cad>40</ns3:cad>
          </ns3:TrackPointExtension>
        </extensions>
      </trkpt>
      <trkpt lat="43.4560690261423587799072265625" lon="1.46489675156772136688232421875">
        <ele>229</ele>
        <time>2026-08-05T07:07:20.000Z</time>
        <extensions>
          <ns3:TrackPointExtension>
            <ns3:hr>103</ns3:hr>
            <ns3:cad>0</ns3:cad>
          </ns3:TrackPointExtension>
        </extensions>
      </trkpt>
      <trkpt lat="43.45607028342783451080322265625" lon="1.46489876322448253631591796875">
        <ele>229</ele>
        <time>2026-08-05T07:07:21.000Z</time>
        <extensions>
          <ns3:TrackPointExtension>
            <ns3:hr>103</ns3:hr>
            <ns3:cad>0</ns3:cad>
          </ns3:TrackPointExtension>
        </extensions>
      </trkpt>
      <trkpt lat="43.45607288181781768798828125" lon="1.464893817901611328125">
        <ele>229</ele>
        <time>2026-08-05T07:07:22.000Z</time>
        <extensions>
          <ns3:TrackPointExtension>
            <ns3:hr>103</ns3:hr>
            <ns3:cad>0</ns3:cad>
          </ns3:TrackPointExtension>
        </extensions>
      </trkpt>
      <trkpt lat="43.45607179217040538787841796875" lon="1.46488568745553493499755859375">
        <ele>229.1999969482421875</ele>
        <time>2026-08-05T07:07:23.000Z</time>
        <extensions>
          <ns3:TrackPointExtension>
            <ns3:hr>102</ns3:hr>
            <ns3:cad>0</ns3:cad>
          </ns3:TrackPointExtension>
        </extensions>
      </trkpt>
      <trkpt lat="43.4560723789036273956298828125" lon="1.46487772464752197265625">
        <ele>229.1999969482421875</ele>
        <time>2026-08-05T07:07:24.000Z</time>
        <extensions>
          <ns3:TrackPointExtension>
            <ns3:hr>102</ns3:hr>
            <ns3:cad>0</ns3:cad>
          </ns3:TrackPointExtension>
        </extensions>
      </trkpt>
      <trkpt lat="43.4560737200081348419189453125" lon="1.4648711867630481719970703125">
        <ele>229.1999969482421875</ele>
        <time>2026-08-05T07:07:25.000Z</time>
        <extensions>
          <ns3:TrackPointExtension>
            <ns3:hr>102</ns3:hr>
            <ns3:cad>0</ns3:cad>
          </ns3:TrackPointExtension>
        </extensions>
      </trkpt>
      <trkpt lat="43.45607690513134002685546875" lon="1.464864648878574371337890625">
        <ele>229.1999969482421875</ele>
        <time>2026-08-05T07:07:26.000Z</time>
        <extensions>
          <ns3:TrackPointExtension>
            <ns3:hr>102</ns3:hr>
            <ns3:cad>0</ns3:cad>
          </ns3:TrackPointExtension>
        </extensions>
      </trkpt>
      <trkpt lat="43.45608084462583065032958984375" lon="1.46485970355570316314697265625">
        <ele>229.1999969482421875</ele>
        <time>2026-08-05T07:07:27.000Z</time>
        <extensions>
          <ns3:TrackPointExtension>
            <ns3:hr>101</ns3:hr>
            <ns3:cad>0</ns3:cad>
          </ns3:TrackPointExtension>
        </extensions>
      </trkpt>
      <trkpt lat="43.45608252100646495819091796875" lon="1.46485559642314910888671875">
        <ele>229.1999969482421875</ele>
        <time>2026-08-05T07:07:28.000Z</time>
        <extensions>
          <ns3:TrackPointExtension>
            <ns3:hr>102</ns3:hr>
            <ns3:cad>0</ns3:cad>
          </ns3:TrackPointExtension>
        </extensions>
      </trkpt>
      <trkpt lat="43.4560931660234928131103515625" lon="1.464848555624485015869140625">
        <ele>229.1999969482421875</ele>
        <time>2026-08-05T07:07:29.000Z</time>
        <extensions>
          <ns3:TrackPointExtension>
            <ns3:hr>102</ns3:hr>
            <ns3:cad>0</ns3:cad>
          </ns3:TrackPointExtension>
        </extensions>
      </trkpt>
      <trkpt lat="43.4560908190906047821044921875" lon="1.46484713070094585418701171875">
        <ele>229.1999969482421875</ele>
        <time>2026-08-05T07:07:30.000Z</time>
        <extensions>
          <ns3:TrackPointExtension>
            <ns3:hr>102</ns3:hr>
            <ns3:cad>0</ns3:cad>
          </ns3:TrackPointExtension>
        </extensions>
      </trkpt>
      <trkpt lat="43.4560998715460300445556640625" lon="1.46484377793967723846435546875">
        <ele>229.399993896484375</ele>
        <time>2026-08-05T07:07:31.000Z</time>
        <extensions>
          <ns3:TrackPointExtension>
            <ns3:hr>102</ns3:hr>
            <ns3:cad>75</ns3:cad>
          </ns3:TrackPointExtension>
        </extensions>
      </trkpt>
      <trkpt lat="43.45610632561147212982177734375" lon="1.46483908407390117645263671875">
        <ele>229.399993896484375</ele>
        <time>2026-08-05T07:07:32.000Z</time>
        <extensions>
          <ns3:TrackPointExtension>
            <ns3:hr>102</ns3:hr>
            <ns3:cad>75</ns3:cad>
          </ns3:TrackPointExtension>
        </extensions>
      </trkpt>
      <trkpt lat="43.4561084210872650146484375" lon="1.46483489312231540679931640625">
        <ele>229.399993896484375</ele>
        <time>2026-08-05T07:07:33.000Z</time>
        <extensions>
          <ns3:TrackPointExtension>
            <ns3:hr>102</ns3:hr>
            <ns3:cad>0</ns3:cad>
          </ns3:TrackPointExtension>
        </extensions>
      </trkpt>
      <trkpt lat="43.45611169002950191497802734375" lon="1.46482869051396846771240234375">
        <ele>229.399993896484375</ele>
        <time>2026-08-05T07:07:34.000Z</time>
        <extensions>
          <ns3:TrackPointExtension>
            <ns3:hr>103</ns3:hr>
            <ns3:cad>0</ns3:cad>
          </ns3:TrackPointExtension>
        </extensions>
      </trkpt>
      <trkpt lat="43.45611571334302425384521484375" lon="1.464821398258209228515625">
        <ele>229.399993896484375</ele>
        <time>2026-08-05T07:07:35.000Z</time>
        <extensions>
          <ns3:TrackPointExtension>
            <ns3:hr>103</ns3:hr>
            <ns3:cad>0</ns3:cad>
          </ns3:TrackPointExtension>
        </extensions>
      </trkpt>
      <trkpt lat="43.45612091012299060821533203125" lon="1.4648158662021160125732421875">
        <ele>229.399993896484375</ele>
        <time>2026-08-05T07:07:36.000Z</time>
        <extensions>
          <ns3:TrackPointExtension>
            <ns3:hr>103</ns3:hr>
            <ns3:cad>0</ns3:cad>
          </ns3:TrackPointExtension>
        </extensions>
      </trkpt>
      <trkpt lat="43.45612627454102039337158203125" lon="1.4648108370602130889892578125">
        <ele>229.399993896484375</ele>
        <time>2026-08-05T07:07:37.000Z</time>
        <extensions>
          <ns3:TrackPointExtension>
            <ns3:hr>103</ns3:hr>
            <ns3:cad>0</ns3:cad>
          </ns3:TrackPointExtension>
        </extensions>
      </trkpt>
      <trkpt lat="43.45613046549260616302490234375" lon="1.4648066461086273193359375">
        <ele>229.1999969482421875</ele>
        <time>2026-08-05T07:07:38.000Z</time>
        <extensions>
          <ns3:TrackPointExtension>
            <ns3:hr>103</ns3:hr>
            <ns3:cad>0</ns3:cad>
          </ns3:TrackPointExtension>
        </extensions>
      </trkpt>
      <trkpt lat="43.4561310522258281707763671875" lon="1.46480262279510498046875">
        <ele>229.1999969482421875</ele>
        <time>2026-08-05T07:07:39.000Z</time>
        <extensions>
          <ns3:TrackPointExtension>
            <ns3:hr>104</ns3:hr>
            <ns3:cad>0</ns3:cad>
          </ns3:TrackPointExtension>
        </extensions>
      </trkpt>
      <trkpt lat="43.45612744800746440887451171875" lon="1.46480388008058071136474609375">
        <ele>229.1999969482421875</ele>
        <time>2026-08-05T07:07:40.000Z</time>
        <extensions>
          <ns3:TrackPointExtension>
            <ns3:hr>105</ns3:hr>
            <ns3:cad>0</ns3:cad>
          </ns3:TrackPointExtension>
        </extensions>
      </trkpt>
      <trkpt lat="43.45612577162683010101318359375" lon="1.46480404771864414215087890625">
        <ele>229.1999969482421875</ele>
        <time>2026-08-05T07:07:41.000Z</time>
        <extensions>
          <ns3:TrackPointExtension>
            <ns3:hr>105</ns3:hr>
            <ns3:cad>0</ns3:cad>
          </ns3:TrackPointExtension>
        </extensions>
      </trkpt>
      <trkpt lat="43.45612593926489353179931640625" lon="1.46480019204318523406982421875">
        <ele>229.1999969482421875</ele>
        <time>2026-08-05T07:07:42.000Z</time>
        <extensions>
          <ns3:TrackPointExtension>
            <ns3:hr>106</ns3:hr>
            <ns3:cad>0</ns3:cad>
          </ns3:TrackPointExtension>
        </extensions>
      </trkpt>
      <trkpt lat="43.45612610690295696258544921875" lon="1.46480019204318523406982421875">
        <ele>229.1999969482421875</ele>
        <time>2026-08-05T07:07:43.000Z</time>
        <extensions>
          <ns3:TrackPointExtension>
            <ns3:hr>106</ns3:hr>
            <ns3:cad>0</ns3:cad>
          </ns3:TrackPointExtension>
        </extensions>
      </trkpt>
      <trkpt lat="43.45612610690295696258544921875" lon="1.46480019204318523406982421875">
        <ele>229.1999969482421875</ele>
        <time>2026-08-05T07:07:44.000Z</time>
        <extensions>
          <ns3:TrackPointExtension>
            <ns3:hr>106</ns3:hr>
            <ns3:cad>0</ns3:cad>
          </ns3:TrackPointExtension>
        </extensions>
      </trkpt>
      <trkpt lat="43.45612610690295696258544921875" lon="1.46480019204318523406982421875">
        <ele>229.1999969482421875</ele>
        <time>2026-08-05T07:07:45.000Z</time>
        <extensions>
          <ns3:TrackPointExtension>
            <ns3:hr>105</ns3:hr>
            <ns3:cad>0</ns3:cad>
          </ns3:TrackPointExtension>
        </extensions>
      </trkpt>
      <trkpt lat="43.45612610690295696258544921875" lon="1.46480019204318523406982421875">
        <ele>229.1999969482421875</ele>
        <time>2026-08-05T07:07:46.000Z</time>
        <extensions>
          <ns3:TrackPointExtension>
            <ns3:hr>105</ns3:hr>
            <ns3:cad>0</ns3:cad>
          </ns3:TrackPointExtension>
        </extensions>
      </trkpt>
      <trkpt lat="43.45612610690295696258544921875" lon="1.46480019204318523406982421875">
        <ele>229.1999969482421875</ele>
        <time>2026-08-05T07:07:47.000Z</time>
        <extensions>
          <ns3:TrackPointExtension>
            <ns3:hr>105</ns3:hr>
            <ns3:cad>0</ns3:cad>
          </ns3:TrackPointExtension>
        </extensions>
      </trkpt>
      <trkpt lat="43.45612610690295696258544921875" lon="1.46480019204318523406982421875">
        <ele>229</ele>
        <time>2026-08-05T07:07:48.000Z</time>
        <extensions>
          <ns3:TrackPointExtension>
            <ns3:hr>104</ns3:hr>
            <ns3:cad>0</ns3:cad>
          </ns3:TrackPointExtension>
        </extensions>
      </trkpt>
      <trkpt lat="43.45612610690295696258544921875" lon="1.46480019204318523406982421875">
        <ele>229</ele>
        <time>2026-08-05T07:07:49.000Z</time>
        <extensions>
          <ns3:TrackPointExtension>
            <ns3:hr>103</ns3:hr>
            <ns3:cad>0</ns3:cad>
          </ns3:TrackPointExtension>
        </extensions>
      </trkpt>
      <trkpt lat="43.45612610690295696258544921875" lon="1.46480019204318523406982421875">
        <ele>229.1999969482421875</ele>
        <time>2026-08-05T07:07:50.000Z</time>
        <extensions>
          <ns3:TrackPointExtension>
            <ns3:hr>100</ns3:hr>
            <ns3:cad>0</ns3:cad>
          </ns3:TrackPointExtension>
        </extensions>
      </trkpt>
      <trkpt lat="43.45612610690295696258544921875" lon="1.46480019204318523406982421875">
        <ele>229.1999969482421875</ele>
        <time>2026-08-05T07:07:51.000Z</time>
        <extensions>
          <ns3:TrackPointExtension>
            <ns3:hr>97</ns3:hr>
            <ns3:cad>0</ns3:cad>
          </ns3:TrackPointExtension>
        </extensions>
      </trkpt>
      <trkpt lat="43.45612610690295696258544921875" lon="1.46480019204318523406982421875">
        <ele>229.1999969482421875</ele>
        <time>2026-08-05T07:07:52.000Z</time>
        <extensions>
          <ns3:TrackPointExtension>
            <ns3:hr>96</ns3:hr>
            <ns3:cad>0</ns3:cad>
          </ns3:TrackPointExtension>
        </extensions>
      </trkpt>
      <trkpt lat="43.45612610690295696258544921875" lon="1.46480019204318523406982421875">
        <ele>229.1999969482421875</ele>
        <time>2026-08-05T07:07:53.000Z</time>
        <extensions>
          <ns3:TrackPointExtension>
            <ns3:hr>96</ns3:hr>
            <ns3:cad>0</ns3:cad>
          </ns3:TrackPointExtension>
        </extensions>
      </trkpt>
      <trkpt lat="43.45612610690295696258544921875" lon="1.46480019204318523406982421875">
        <ele>229.1999969482421875</ele>
        <time>2026-08-05T07:07:54.000Z</time>
        <extensions>
          <ns3:TrackPointExtension>
            <ns3:hr>96</ns3:hr>
            <ns3:cad>0</ns3:cad>
          </ns3:TrackPointExtension>
        </extensions>
      </trkpt>
      <trkpt lat="43.45612610690295696258544921875" lon="1.46480019204318523406982421875">
        <ele>229.1999969482421875</ele>
        <time>2026-08-05T07:07:55.000Z</time>
        <extensions>
          <ns3:TrackPointExtension>
            <ns3:hr>95</ns3:hr>
            <ns3:cad>0</ns3:cad>
          </ns3:TrackPointExtension>
        </extensions>
      </trkpt>
      <trkpt lat="43.45612610690295696258544921875" lon="1.46480019204318523406982421875">
        <ele>229.1999969482421875</ele>
        <time>2026-08-05T07:07:56.000Z</time>
        <extensions>
          <ns3:TrackPointExtension>
            <ns3:hr>95</ns3:hr>
            <ns3:cad>0</ns3:cad>
          </ns3:TrackPointExtension>
        </extensions>
      </trkpt>
      <trkpt lat="43.45612610690295696258544921875" lon="1.46480019204318523406982421875">
        <ele>229.1999969482421875</ele>
        <time>2026-08-05T07:07:57.000Z</time>
        <extensions>
          <ns3:TrackPointExtension>
            <ns3:hr>94</ns3:hr>
            <ns3:cad>0</ns3:cad>
          </ns3:TrackPointExtension>
        </extensions>
      </trkpt>
      <trkpt lat="43.45612610690295696258544921875" lon="1.46480019204318523406982421875">
        <ele>229.1999969482421875</ele>
        <time>2026-08-05T07:07:58.000Z</time>
        <extensions>
          <ns3:TrackPointExtension>
            <ns3:hr>90</ns3:hr>
            <ns3:cad>0</ns3:cad>
          </ns3:TrackPointExtension>
        </extensions>
      </trkpt>
      <trkpt lat="43.45612610690295696258544921875" lon="1.46480019204318523406982421875">
        <ele>229.1999969482421875</ele>
        <time>2026-08-05T07:07:59.000Z</time>
        <extensions>
          <ns3:TrackPointExtension>
            <ns3:hr>89</ns3:hr>
            <ns3:cad>0</ns3:cad>
          </ns3:TrackPointExtension>
        </extensions>
      </trkpt>
      <trkpt lat="43.45612610690295696258544921875" lon="1.46480019204318523406982421875">
        <ele>229.1999969482421875</ele>
        <time>2026-08-05T07:08:00.000Z</time>
        <extensions>
          <ns3:TrackPointExtension>
            <ns3:hr>88</ns3:hr>
            <ns3:cad>0</ns3:cad>
          </ns3:TrackPointExtension>
        </extensions>
      </trkpt>
      <trkpt lat="43.45612610690295696258544921875" lon="1.46480019204318523406982421875">
        <ele>229.1999969482421875</ele>
        <time>2026-08-05T07:08:01.000Z</time>
        <extensions>
          <ns3:TrackPointExtension>
            <ns3:hr>89</ns3:hr>
            <ns3:cad>0</ns3:cad>
          </ns3:TrackPointExtension>
        </extensions>
      </trkpt>
      <trkpt lat="43.45612610690295696258544921875" lon="1.46480019204318523406982421875">
        <ele>229.1999969482421875</ele>
        <time>2026-08-05T07:08:02.000Z</time>
        <extensions>
          <ns3:TrackPointExtension>
            <ns3:hr>90</ns3:hr>
            <ns3:cad>0</ns3:cad>
          </ns3:TrackPointExtension>
        </extensions>
      </trkpt>
      <trkpt lat="43.45612610690295696258544921875" lon="1.46480019204318523406982421875">
        <ele>229.1999969482421875</ele>
        <time>2026-08-05T07:08:03.000Z</time>
        <extensions>
          <ns3:TrackPointExtension>
            <ns3:hr>90</ns3:hr>
            <ns3:cad>0</ns3:cad>
          </ns3:TrackPointExtension>
        </extensions>
      </trkpt>
      <trkpt lat="43.45612610690295696258544921875" lon="1.46480019204318523406982421875">
        <ele>229</ele>
        <time>2026-08-05T07:08:04.000Z</time>
        <extensions>
          <ns3:TrackPointExtension>
            <ns3:hr>90</ns3:hr>
            <ns3:cad>0</ns3:cad>
          </ns3:TrackPointExtension>
        </extensions>
      </trkpt>
      <trkpt lat="43.45612610690295696258544921875" lon="1.46480019204318523406982421875">
        <ele>229</ele>
        <time>2026-08-05T07:08:05.000Z</time>
        <extensions>
          <ns3:TrackPointExtension>
            <ns3:hr>90</ns3:hr>
            <ns3:cad>0</ns3:cad>
          </ns3:TrackPointExtension>
        </extensions>
      </trkpt>
      <trkpt lat="43.45612610690295696258544921875" lon="1.46480019204318523406982421875">
        <ele>229</ele>
        <time>2026-08-05T07:08:06.000Z</time>
        <extensions>
          <ns3:TrackPointExtension>
            <ns3:hr>90</ns3:hr>
            <ns3:cad>0</ns3:cad>
          </ns3:TrackPointExtension>
        </extensions>
      </trkpt>
      <trkpt lat="43.45612610690295696258544921875" lon="1.46480019204318523406982421875">
        <ele>229</ele>
        <time>2026-08-05T07:08:07.000Z</time>
        <extensions>
          <ns3:TrackPointExtension>
            <ns3:hr>89</ns3:hr>
            <ns3:cad>0</ns3:cad>
          </ns3:TrackPointExtension>
        </extensions>
      </trkpt>
      <trkpt lat="43.45612610690295696258544921875" lon="1.46480019204318523406982421875">
        <ele>229</ele>
        <time>2026-08-05T07:08:08.000Z</time>
        <extensions>
          <ns3:TrackPointExtension>
            <ns3:hr>89</ns3:hr>
            <ns3:cad>0</ns3:cad>
          </ns3:TrackPointExtension>
        </extensions>
      </trkpt>
      <trkpt lat="43.45612610690295696258544921875" lon="1.46480019204318523406982421875">
        <ele>229</ele>
        <time>2026-08-05T07:08:09.000Z</time>
        <extensions>
          <ns3:TrackPointExtension>
            <ns3:hr>88</ns3:hr>
            <ns3:cad>0</ns3:cad>
          </ns3:TrackPointExtension>
        </extensions>
      </trkpt>
      <trkpt lat="43.45612610690295696258544921875" lon="1.46480019204318523406982421875">
        <ele>229.1999969482421875</ele>
        <time>2026-08-05T07:08:10.000Z</time>
        <extensions>
          <ns3:TrackPointExtension>
            <ns3:hr>86</ns3:hr>
            <ns3:cad>0</ns3:cad>
          </ns3:TrackPointExtension>
        </extensions>
      </trkpt>
      <trkpt lat="43.45612610690295696258544921875" lon="1.46480019204318523406982421875">
        <ele>229.1999969482421875</ele>
        <time>2026-08-05T07:08:11.000Z</time>
        <extensions>
          <ns3:TrackPointExtension>
            <ns3:hr>85</ns3:hr>
            <ns3:cad>0</ns3:cad>
          </ns3:TrackPointExtension>
        </extensions>
      </trkpt>
      <trkpt lat="43.45612610690295696258544921875" lon="1.46480019204318523406982421875">
        <ele>229.1999969482421875</ele>
        <time>2026-08-05T07:08:12.000Z</time>
        <extensions>
          <ns3:TrackPointExtension>
            <ns3:hr>82</ns3:hr>
            <ns3:cad>0</ns3:cad>
          </ns3:TrackPointExtension>
        </extensions>
      </trkpt>
      <trkpt lat="43.45612610690295696258544921875" lon="1.46480019204318523406982421875">
        <ele>229.1999969482421875</ele>
        <time>2026-08-05T07:08:13.000Z</time>
        <extensions>
          <ns3:TrackPointExtension>
            <ns3:hr>81</ns3:hr>
            <ns3:cad>0</ns3:cad>
          </ns3:TrackPointExtension>
        </extensions>
      </trkpt>
      <trkpt lat="43.45612610690295696258544921875" lon="1.46480019204318523406982421875">
        <ele>229</ele>
        <time>2026-08-05T07:08:14.000Z</time>
        <extensions>
          <ns3:TrackPointExtension>
            <ns3:hr>80</ns3:hr>
            <ns3:cad>0</ns3:cad>
          </ns3:TrackPointExtension>
        </extensions>
      </trkpt>
      <trkpt lat="43.45612610690295696258544921875" lon="1.46480019204318523406982421875">
        <ele>229</ele>
        <time>2026-08-05T07:08:15.000Z</time>
        <extensions>
          <ns3:TrackPointExtension>
            <ns3:hr>79</ns3:hr>
            <ns3:cad>0</ns3:cad>
          </ns3:TrackPointExtension>
        </extensions>
      </trkpt>
      <trkpt lat="43.45612610690295696258544921875" lon="1.46480019204318523406982421875">
        <ele>229</ele>
        <time>2026-08-05T07:08:16.000Z</time>
        <extensions>
          <ns3:TrackPointExtension>
            <ns3:hr>77</ns3:hr>
            <ns3:cad>0</ns3:cad>
          </ns3:TrackPointExtension>
        </extensions>
      </trkpt>
      <trkpt lat="43.45612610690295696258544921875" lon="1.46480019204318523406982421875">
        <ele>229</ele>
        <time>2026-08-05T07:08:17.000Z</time>
        <extensions>
          <ns3:TrackPointExtension>
            <ns3:hr>77</ns3:hr>
            <ns3:cad>0</ns3:cad>
          </ns3:TrackPointExtension>
        </extensions>
      </trkpt>
      <trkpt lat="43.45612610690295696258544921875" lon="1.46480019204318523406982421875">
        <ele>229</ele>
        <time>2026-08-05T07:08:18.000Z</time>
        <extensions>
          <ns3:TrackPointExtension>
            <ns3:hr>77</ns3:hr>
            <ns3:cad>0</ns3:cad>
          </ns3:TrackPointExtension>
        </extensions>
      </trkpt>
      <trkpt lat="43.45612610690295696258544921875" lon="1.46480019204318523406982421875">
        <ele>229.1999969482421875</ele>
        <time>2026-08-05T07:08:19.000Z</time>
        <extensions>
          <ns3:TrackPointExtension>
            <ns3:hr>77</ns3:hr>
            <ns3:cad>0</ns3:cad>
          </ns3:TrackPointExtension>
        </extensions>
      </trkpt>
      <trkpt lat="43.45612610690295696258544921875" lon="1.46480019204318523406982421875">
        <ele>229.1999969482421875</ele>
        <time>2026-08-05T07:08:20.000Z</time>
        <extensions>
          <ns3:TrackPointExtension>
            <ns3:hr>78</ns3:hr>
            <ns3:cad>0</ns3:cad>
          </ns3:TrackPointExtension>
        </extensions>
      </trkpt>
      <trkpt lat="43.45612610690295696258544921875" lon="1.46480019204318523406982421875">
        <ele>229.1999969482421875</ele>
        <time>2026-08-05T07:08:21.000Z</time>
        <extensions>
          <ns3:TrackPointExtension>
            <ns3:hr>80</ns3:hr>
            <ns3:cad>0</ns3:cad>
          </ns3:TrackPointExtension>
        </extensions>
      </trkpt>
      <trkpt lat="43.45612610690295696258544921875" lon="1.46480019204318523406982421875">
        <ele>229.1999969482421875</ele>
        <time>2026-08-05T07:08:22.000Z</time>
        <extensions>
          <ns3:TrackPointExtension>
            <ns3:hr>81</ns3:hr>
            <ns3:cad>0</ns3:cad>
          </ns3:TrackPointExtension>
        </extensions>
      </trkpt>
      <trkpt lat="43.45612610690295696258544921875" lon="1.46480019204318523406982421875">
        <ele>229.1999969482421875</ele>
        <time>2026-08-05T07:08:23.000Z</time>
        <extensions>
          <ns3:TrackPointExtension>
            <ns3:hr>82</ns3:hr>
            <ns3:cad>0</ns3:cad>
          </ns3:TrackPointExtension>
        </extensions>
      </trkpt>
      <trkpt lat="43.45612610690295696258544921875" lon="1.46480019204318523406982421875">
        <ele>229.1999969482421875</ele>
        <time>2026-08-05T07:08:24.000Z</time>
        <extensions>
          <ns3:TrackPointExtension>
            <ns3:hr>82</ns3:hr>
            <ns3:cad>0</ns3:cad>
          </ns3:TrackPointExtension>
        </extensions>
      </trkpt>
      <trkpt lat="43.45612610690295696258544921875" lon="1.46480019204318523406982421875">
        <ele>229.1999969482421875</ele>
        <time>2026-08-05T07:08:25.000Z</time>
        <extensions>
          <ns3:TrackPointExtension>
            <ns3:hr>80</ns3:hr>
            <ns3:cad>0</ns3:cad>
          </ns3:TrackPointExtension>
        </extensions>
      </trkpt>
      <trkpt lat="43.456130884587764739990234375" lon="1.464800946414470672607421875">
        <ele>229</ele>
        <time>2026-08-05T07:08:26.000Z</time>
        <extensions>
          <ns3:TrackPointExtension>
            <ns3:hr>80</ns3:hr>
            <ns3:cad>0</ns3:cad>
          </ns3:TrackPointExtension>
        </extensions>
      </trkpt>
      <trkpt lat="43.45613323152065277099609375" lon="1.4648058079183101654052734375">
        <ele>229</ele>
        <time>2026-08-05T07:08:27.000Z</time>
        <extensions>
          <ns3:TrackPointExtension>
            <ns3:hr>80</ns3:hr>
            <ns3:cad>0</ns3:cad>
          </ns3:TrackPointExtension>
        </extensions>
      </trkpt>
      <trkpt lat="43.45612610690295696258544921875" lon="1.46480019204318523406982421875">
        <ele>229</ele>
        <time>2026-08-05T07:08:28.000Z</time>
        <extensions>
          <ns3:TrackPointExtension>
            <ns3:hr>80</ns3:hr>
            <ns3:cad>0</ns3:cad>
          </ns3:TrackPointExtension>
        </extensions>
      </trkpt>
      <trkpt lat="43.45612610690295696258544921875" lon="1.46480019204318523406982421875">
        <ele>229</ele>
        <time>2026-08-05T07:08:29.000Z</time>
        <extensions>
          <ns3:TrackPointExtension>
            <ns3:hr>80</ns3:hr>
            <ns3:cad>0</ns3:cad>
          </ns3:TrackPointExtension>
        </extensions>
      </trkpt>
      <trkpt lat="43.45612610690295696258544921875" lon="1.46480019204318523406982421875">
        <ele>229.1999969482421875</ele>
        <time>2026-08-05T07:08:30.000Z</time>
        <extensions>
          <ns3:TrackPointExtension>
            <ns3:hr>79</ns3:hr>
            <ns3:cad>0</ns3:cad>
          </ns3:TrackPointExtension>
        </extensions>
      </trkpt>
      <trkpt lat="43.45612610690295696258544921875" lon="1.46480019204318523406982421875">
        <ele>229.1999969482421875</ele>
        <time>2026-08-05T07:08:31.000Z</time>
        <extensions>
          <ns3:TrackPointExtension>
            <ns3:hr>79</ns3:hr>
            <ns3:cad>0</ns3:cad>
          </ns3:TrackPointExtension>
        </extensions>
      </trkpt>
      <trkpt lat="43.45612610690295696258544921875" lon="1.46480019204318523406982421875">
        <ele>229.1999969482421875</ele>
        <time>2026-08-05T07:08:32.000Z</time>
        <extensions>
          <ns3:TrackPointExtension>
            <ns3:hr>79</ns3:hr>
            <ns3:cad>0</ns3:cad>
          </ns3:TrackPointExtension>
        </extensions>
      </trkpt>
      <trkpt lat="43.45612610690295696258544921875" lon="1.46480019204318523406982421875">
        <ele>229.1999969482421875</ele>
        <time>2026-08-05T07:08:33.000Z</time>
        <extensions>
          <ns3:TrackPointExtension>
            <ns3:hr>78</ns3:hr>
            <ns3:cad>0</ns3:cad>
          </ns3:TrackPointExtension>
        </extensions>
      </trkpt>
      <trkpt lat="43.45612610690295696258544921875" lon="1.46480019204318523406982421875">
        <ele>229.1999969482421875</ele>
        <time>2026-08-05T07:08:34.000Z</time>
        <extensions>
          <ns3:TrackPointExtension>
            <ns3:hr>77</ns3:hr>
            <ns3:cad>0</ns3:cad>
          </ns3:TrackPointExtension>
        </extensions>
      </trkpt>
      <trkpt lat="43.45612610690295696258544921875" lon="1.46480019204318523406982421875">
        <ele>229.1999969482421875</ele>
        <time>2026-08-05T07:08:35.000Z</time>
        <extensions>
          <ns3:TrackPointExtension>
            <ns3:hr>76</ns3:hr>
            <ns3:cad>0</ns3:cad>
          </ns3:TrackPointExtension>
        </extensions>
      </trkpt>
      <trkpt lat="43.45612610690295696258544921875" lon="1.46480019204318523406982421875">
        <ele>229.1999969482421875</ele>
        <time>2026-08-05T07:08:36.000Z</time>
        <extensions>
          <ns3:TrackPointExtension>
            <ns3:hr>74</ns3:hr>
            <ns3:cad>0</ns3:cad>
          </ns3:TrackPointExtension>
        </extensions>
      </trkpt>
      <trkpt lat="43.45612610690295696258544921875" lon="1.46480019204318523406982421875">
        <ele>229.399993896484375</ele>
        <time>2026-08-05T07:08:37.000Z</time>
        <extensions>
          <ns3:TrackPointExtension>
            <ns3:hr>74</ns3:hr>
            <ns3:cad>0</ns3:cad>
          </ns3:TrackPointExtension>
        </extensions>
      </trkpt>
      <trkpt lat="43.456132225692272186279296875" lon="1.46481326781213283538818359375">
        <ele>229.399993896484375</ele>
        <time>2026-08-05T07:08:38.000Z</time>
        <extensions>
          <ns3:TrackPointExtension>
            <ns3:hr>73</ns3:hr>
            <ns3:cad>0</ns3:cad>
          </ns3:TrackPointExtension>
        </extensions>
      </trkpt>
      <trkpt lat="43.4561263583600521087646484375" lon="1.46482349373400211334228515625">
        <ele>229.399993896484375</ele>
        <time>2026-08-05T07:08:39.000Z</time>
        <extensions>
          <ns3:TrackPointExtension>
            <ns3:hr>73</ns3:hr>
            <ns3:cad>0</ns3:cad>
          </ns3:TrackPointExtension>
        </extensions>
      </trkpt>
      <trkpt lat="43.45612141303718090057373046875" lon="1.46482282318174839019775390625">
        <ele>229.399993896484375</ele>
        <time>2026-08-05T07:08:40.000Z</time>
        <extensions>
          <ns3:TrackPointExtension>
            <ns3:hr>73</ns3:hr>
            <ns3:cad>0</ns3:cad>
          </ns3:TrackPointExtension>
        </extensions>
      </trkpt>
      <trkpt lat="43.45611579716205596923828125" lon="1.46482349373400211334228515625">
        <ele>229.399993896484375</ele>
        <time>2026-08-05T07:08:41.000Z</time>
        <extensions>
          <ns3:TrackPointExtension>
            <ns3:hr>72</ns3:hr>
            <ns3:cad>0</ns3:cad>
          </ns3:TrackPointExtension>
        </extensions>
      </trkpt>
      <trkpt lat="43.45611286349594593048095703125" lon="1.4648222364485263824462890625">
        <ele>229.1999969482421875</ele>
        <time>2026-08-05T07:08:42.000Z</time>
        <extensions>
          <ns3:TrackPointExtension>
            <ns3:hr>72</ns3:hr>
            <ns3:cad>0</ns3:cad>
          </ns3:TrackPointExtension>
        </extensions>
      </trkpt>
      <trkpt lat="43.45611068420112133026123046875" lon="1.46482072770595550537109375">
        <ele>229.1999969482421875</ele>
        <time>2026-08-05T07:08:43.000Z</time>
        <extensions>
          <ns3:TrackPointExtension>
            <ns3:hr>72</ns3:hr>
            <ns3:cad>0</ns3:cad>
          </ns3:TrackPointExtension>
        </extensions>
      </trkpt>
      <trkpt lat="43.4561136178672313690185546875" lon="1.46481804549694061279296875">
        <ele>229.1999969482421875</ele>
        <time>2026-08-05T07:08:44.000Z</time>
        <extensions>
          <ns3:TrackPointExtension>
            <ns3:hr>72</ns3:hr>
            <ns3:cad>0</ns3:cad>
          </ns3:TrackPointExtension>
        </extensions>
      </trkpt>
      <trkpt lat="43.45611303113400936126708984375" lon="1.46481930278241634368896484375">
        <ele>229.1999969482421875</ele>
        <time>2026-08-05T07:08:45.000Z</time>
        <extensions>
          <ns3:TrackPointExtension>
            <ns3:hr>72</ns3:hr>
            <ns3:cad>0</ns3:cad>
          </ns3:TrackPointExtension>
        </extensions>
      </trkpt>
      <trkpt lat="43.45611085183918476104736328125" lon="1.464817710220813751220703125">
        <ele>229.1999969482421875</ele>
        <time>2026-08-05T07:08:46.000Z</time>
        <extensions>
          <ns3:TrackPointExtension>
            <ns3:hr>72</ns3:hr>
            <ns3:cad>0</ns3:cad>
          </ns3:TrackPointExtension>
        </extensions>
      </trkpt>
      <trkpt lat="43.45611537806689739227294921875" lon="1.46480857394635677337646484375">
        <ele>229.1999969482421875</ele>
        <time>2026-08-05T07:08:47.000Z</time>
        <extensions>
          <ns3:TrackPointExtension>
            <ns3:hr>72</ns3:hr>
            <ns3:cad>0</ns3:cad>
          </ns3:TrackPointExtension>
        </extensions>
      </trkpt>
      <trkpt lat="43.45611588098108768463134765625" lon="1.46480304189026355743408203125">
        <ele>229.1999969482421875</ele>
        <time>2026-08-05T07:08:48.000Z</time>
        <extensions>
          <ns3:TrackPointExtension>
            <ns3:hr>72</ns3:hr>
            <ns3:cad>0</ns3:cad>
          </ns3:TrackPointExtension>
        </extensions>
      </trkpt>
      <trkpt lat="43.45611856319010257720947265625" lon="1.464793570339679718017578125">
        <ele>229.1999969482421875</ele>
        <time>2026-08-05T07:08:49.000Z</time>
        <extensions>
          <ns3:TrackPointExtension>
            <ns3:hr>72</ns3:hr>
            <ns3:cad>0</ns3:cad>
          </ns3:TrackPointExtension>
        </extensions>
      </trkpt>
      <trkpt lat="43.45612543635070323944091796875" lon="1.46478292532265186309814453125">
        <ele>229.1999969482421875</ele>
        <time>2026-08-05T07:08:50.000Z</time>
        <extensions>
          <ns3:TrackPointExtension>
            <ns3:hr>72</ns3:hr>
            <ns3:cad>0</ns3:cad>
          </ns3:TrackPointExtension>
        </extensions>
      </trkpt>
      <trkpt lat="43.45613281242549419403076171875" lon="1.46477035246789455413818359375">
        <ele>229.1999969482421875</ele>
        <time>2026-08-05T07:08:51.000Z</time>
        <extensions>
          <ns3:TrackPointExtension>
            <ns3:hr>72</ns3:hr>
            <ns3:cad>0</ns3:cad>
          </ns3:TrackPointExtension>
        </extensions>
      </trkpt>
      <trkpt lat="43.4561397694051265716552734375" lon="1.46476197056472301483154296875">
        <ele>229.399993896484375</ele>
        <time>2026-08-05T07:08:52.000Z</time>
        <extensions>
          <ns3:TrackPointExtension>
            <ns3:hr>72</ns3:hr>
            <ns3:cad>0</ns3:cad>
          </ns3:TrackPointExtension>
        </extensions>
      </trkpt>
      <trkpt lat="43.45614932477474212646484375" lon="1.46475576795637607574462890625">
        <ele>229.399993896484375</ele>
        <time>2026-08-05T07:08:53.000Z</time>
        <extensions>
          <ns3:TrackPointExtension>
            <ns3:hr>72</ns3:hr>
            <ns3:cad>0</ns3:cad>
          </ns3:TrackPointExtension>
        </extensions>
      </trkpt>
      <trkpt lat="43.45615762285888195037841796875" lon="1.4647508226335048675537109375">
        <ele>229.1999969482421875</ele>
        <time>2026-08-05T07:08:54.000Z</time>
        <extensions>
          <ns3:TrackPointExtension>
            <ns3:hr>72</ns3:hr>
            <ns3:cad>0</ns3:cad>
          </ns3:TrackPointExtension>
        </extensions>
      </trkpt>
      <trkpt lat="43.45616332255303859710693359375" lon="1.4647461287677288055419921875">
        <ele>229.1999969482421875</ele>
        <time>2026-08-05T07:08:55.000Z</time>
        <extensions>
          <ns3:TrackPointExtension>
            <ns3:hr>72</ns3:hr>
            <ns3:cad>47</ns3:cad>
          </ns3:TrackPointExtension>
        </extensions>
      </trkpt>
      <trkpt lat="43.45617346465587615966796875" lon="1.464739255607128143310546875">
        <ele>229.1999969482421875</ele>
        <time>2026-08-05T07:08:56.000Z</time>
        <extensions>
          <ns3:TrackPointExtension>
            <ns3:hr>71</ns3:hr>
            <ns3:cad>47</ns3:cad>
          </ns3:TrackPointExtension>
        </extensions>
      </trkpt>
      <trkpt lat="43.45617824234068393707275390625" lon="1.46473699249327182769775390625">
        <ele>229.1999969482421875</ele>
        <time>2026-08-05T07:08:57.000Z</time>
        <extensions>
          <ns3:TrackPointExtension>
            <ns3:hr>71</ns3:hr>
            <ns3:cad>47</ns3:cad>
          </ns3:TrackPointExtension>
        </extensions>
      </trkpt>
      <trkpt lat="43.45618092454969882965087890625" lon="1.46473648957908153533935546875">
        <ele>229</ele>
        <time>2026-08-05T07:08:58.000Z</time>
        <extensions>
          <ns3:TrackPointExtension>
            <ns3:hr>71</ns3:hr>
            <ns3:cad>47</ns3:cad>
          </ns3:TrackPointExtension>
        </extensions>
      </trkpt>
      <trkpt lat="43.45618092454969882965087890625" lon="1.46473716013133525848388671875">
        <ele>229</ele>
        <time>2026-08-05T07:08:59.000Z</time>
        <extensions>
          <ns3:TrackPointExtension>
            <ns3:hr>71</ns3:hr>
            <ns3:cad>47</ns3:cad>
          </ns3:TrackPointExtension>
        </extensions>
      </trkpt>
      <trkpt lat="43.4561830200254917144775390625" lon="1.46473648957908153533935546875">
        <ele>229</ele>
        <time>2026-08-05T07:09:00.000Z</time>
        <extensions>
          <ns3:TrackPointExtension>
            <ns3:hr>70</ns3:hr>
            <ns3:cad>47</ns3:cad>
          </ns3:TrackPointExtension>
        </extensions>
      </trkpt>
      <trkpt lat="43.45618712715804576873779296875" lon="1.46473489701747894287109375">
        <ele>229</ele>
        <time>2026-08-05T07:09:01.000Z</time>
        <extensions>
          <ns3:TrackPointExtension>
            <ns3:hr>69</ns3:hr>
            <ns3:cad>0</ns3:cad>
          </ns3:TrackPointExtension>
        </extensions>
      </trkpt>
      <trkpt lat="43.45618763007223606109619140625" lon="1.46473464556038379669189453125">
        <ele>229</ele>
        <time>2026-08-05T07:09:02.000Z</time>
        <extensions>
          <ns3:TrackPointExtension>
            <ns3:hr>69</ns3:hr>
            <ns3:cad>0</ns3:cad>
          </ns3:TrackPointExtension>
        </extensions>
      </trkpt>
      <trkpt lat="43.45618813298642635345458984375" lon="1.4647364057600498199462890625">
        <ele>229</ele>
        <time>2026-08-05T07:09:03.000Z</time>
        <extensions>
          <ns3:TrackPointExtension>
            <ns3:hr>69</ns3:hr>
            <ns3:cad>0</ns3:cad>
          </ns3:TrackPointExtension>
        </extensions>
      </trkpt>
      <trkpt lat="43.4561877138912677764892578125" lon="1.46473833359777927398681640625">
        <ele>228.8000030517578125</ele>
        <time>2026-08-05T07:09:04.000Z</time>
        <extensions>
          <ns3:TrackPointExtension>
            <ns3:hr>70</ns3:hr>
            <ns3:cad>0</ns3:cad>
          </ns3:TrackPointExtension>
        </extensions>
      </trkpt>
      <trkpt lat="43.45618846826255321502685546875" lon="1.46474026143550872802734375">
        <ele>228.8000030517578125</ele>
        <time>2026-08-05T07:09:05.000Z</time>
        <extensions>
          <ns3:TrackPointExtension>
            <ns3:hr>71</ns3:hr>
            <ns3:cad>0</ns3:cad>
          </ns3:TrackPointExtension>
        </extensions>
      </trkpt>
      <trkpt lat="43.4561887197196483612060546875" lon="1.46474285982549190521240234375">
        <ele>228.8000030517578125</ele>
        <time>2026-08-05T07:09:06.000Z</time>
        <extensions>
          <ns3:TrackPointExtension>
            <ns3:hr>72</ns3:hr>
            <ns3:cad>0</ns3:cad>
          </ns3:TrackPointExtension>
        </extensions>
      </trkpt>
      <trkpt lat="43.45618955790996551513671875" lon="1.46474428474903106689453125">
        <ele>228.8000030517578125</ele>
        <time>2026-08-05T07:09:07.000Z</time>
        <extensions>
          <ns3:TrackPointExtension>
            <ns3:hr>73</ns3:hr>
            <ns3:cad>0</ns3:cad>
          </ns3:TrackPointExtension>
        </extensions>
      </trkpt>
      <trkpt lat="43.456189222633838653564453125" lon="1.46474436856806278228759765625">
        <ele>228.8000030517578125</ele>
        <time>2026-08-05T07:09:08.000Z</time>
        <extensions>
          <ns3:TrackPointExtension>
            <ns3:hr>75</ns3:hr>
            <ns3:cad>0</ns3:cad>
          </ns3:TrackPointExtension>
        </extensions>
      </trkpt>
      <trkpt lat="43.45618897117674350738525390625" lon="1.46474361419677734375">
        <ele>228.8000030517578125</ele>
        <time>2026-08-05T07:09:09.000Z</time>
        <extensions>
          <ns3:TrackPointExtension>
            <ns3:hr>75</ns3:hr>
            <ns3:cad>0</ns3:cad>
          </ns3:TrackPointExtension>
        </extensions>
      </trkpt>
      <trkpt lat="43.45618897117674350738525390625" lon="1.46474361419677734375">
        <ele>228.8000030517578125</ele>
        <time>2026-08-05T07:09:10.000Z</time>
        <extensions>
          <ns3:TrackPointExtension>
            <ns3:hr>76</ns3:hr>
            <ns3:cad>0</ns3:cad>
          </ns3:TrackPointExtension>
        </extensions>
      </trkpt>
      <trkpt lat="43.45618897117674350738525390625" lon="1.46474361419677734375">
        <ele>228.8000030517578125</ele>
        <time>2026-08-05T07:09:11.000Z</time>
        <extensions>
          <ns3:TrackPointExtension>
            <ns3:hr>77</ns3:hr>
            <ns3:cad>0</ns3:cad>
          </ns3:TrackPointExtension>
        </extensions>
      </trkpt>
      <trkpt lat="43.45618897117674350738525390625" lon="1.46474361419677734375">
        <ele>228.8000030517578125</ele>
        <time>2026-08-05T07:09:12.000Z</time>
        <extensions>
          <ns3:TrackPointExtension>
            <ns3:hr>77</ns3:hr>
            <ns3:cad>0</ns3:cad>
          </ns3:TrackPointExtension>
        </extensions>
      </trkpt>
      <trkpt lat="43.45618897117674350738525390625" lon="1.46474361419677734375">
        <ele>228.600006103515625</ele>
        <time>2026-08-05T07:09:13.000Z</time>
        <extensions>
          <ns3:TrackPointExtension>
            <ns3:hr>76</ns3:hr>
            <ns3:cad>0</ns3:cad>
          </ns3:TrackPointExtension>
        </extensions>
      </trkpt>
      <trkpt lat="43.45618897117674350738525390625" lon="1.46474361419677734375">
        <ele>228.600006103515625</ele>
        <time>2026-08-05T07:09:14.000Z</time>
        <extensions>
          <ns3:TrackPointExtension>
            <ns3:hr>77</ns3:hr>
            <ns3:cad>0</ns3:cad>
          </ns3:TrackPointExtension>
        </extensions>
      </trkpt>
      <trkpt lat="43.45618897117674350738525390625" lon="1.46474361419677734375">
        <ele>228.399993896484375</ele>
        <time>2026-08-05T07:09:15.000Z</time>
        <extensions>
          <ns3:TrackPointExtension>
            <ns3:hr>77</ns3:hr>
            <ns3:cad>0</ns3:cad>
          </ns3:TrackPointExtension>
        </extensions>
      </trkpt>
      <trkpt lat="43.45618897117674350738525390625" lon="1.46474361419677734375">
        <ele>228.399993896484375</ele>
        <time>2026-08-05T07:09:16.000Z</time>
        <extensions>
          <ns3:TrackPointExtension>
            <ns3:hr>77</ns3:hr>
            <ns3:cad>0</ns3:cad>
          </ns3:TrackPointExtension>
        </extensions>
      </trkpt>
      <trkpt lat="43.45618897117674350738525390625" lon="1.46474361419677734375">
        <ele>228.399993896484375</ele>
        <time>2026-08-05T07:09:17.000Z</time>
        <extensions>
          <ns3:TrackPointExtension>
            <ns3:hr>77</ns3:hr>
            <ns3:cad>0</ns3:cad>
          </ns3:TrackPointExtension>
        </extensions>
      </trkpt>
      <trkpt lat="43.45618897117674350738525390625" lon="1.46474361419677734375">
        <ele>228.399993896484375</ele>
        <time>2026-08-05T07:09:18.000Z</time>
        <extensions>
          <ns3:TrackPointExtension>
            <ns3:hr>77</ns3:hr>
            <ns3:cad>0</ns3:cad>
          </ns3:TrackPointExtension>
        </extensions>
      </trkpt>
      <trkpt lat="43.45618897117674350738525390625" lon="1.46474361419677734375">
        <ele>228.399993896484375</ele>
        <time>2026-08-05T07:09:19.000Z</time>
        <extensions>
          <ns3:TrackPointExtension>
            <ns3:hr>76</ns3:hr>
            <ns3:cad>0</ns3:cad>
          </ns3:TrackPointExtension>
        </extensions>
      </trkpt>
      <trkpt lat="43.45618897117674350738525390625" lon="1.46474361419677734375">
        <ele>228.399993896484375</ele>
        <time>2026-08-05T07:09:20.000Z</time>
        <extensions>
          <ns3:TrackPointExtension>
            <ns3:hr>76</ns3:hr>
            <ns3:cad>0</ns3:cad>
          </ns3:TrackPointExtension>
        </extensions>
      </trkpt>
      <trkpt lat="43.45618897117674350738525390625" lon="1.46474361419677734375">
        <ele>228.399993896484375</ele>
        <time>2026-08-05T07:09:21.000Z</time>
        <extensions>
          <ns3:TrackPointExtension>
            <ns3:hr>77</ns3:hr>
            <ns3:cad>0</ns3:cad>
          </ns3:TrackPointExtension>
        </extensions>
      </trkpt>
      <trkpt lat="43.45618897117674350738525390625" lon="1.46474361419677734375">
        <ele>228.399993896484375</ele>
        <time>2026-08-05T07:09:22.000Z</time>
        <extensions>
          <ns3:TrackPointExtension>
            <ns3:hr>78</ns3:hr>
            <ns3:cad>0</ns3:cad>
          </ns3:TrackPointExtension>
        </extensions>
      </trkpt>
      <trkpt lat="43.45618897117674350738525390625" lon="1.46474361419677734375">
        <ele>228.399993896484375</ele>
        <time>2026-08-05T07:09:23.000Z</time>
        <extensions>
          <ns3:TrackPointExtension>
            <ns3:hr>79</ns3:hr>
            <ns3:cad>0</ns3:cad>
          </ns3:TrackPointExtension>
        </extensions>
      </trkpt>
      <trkpt lat="43.45618897117674350738525390625" lon="1.46474361419677734375">
        <ele>228.399993896484375</ele>
        <time>2026-08-05T07:09:24.000Z</time>
        <extensions>
          <ns3:TrackPointExtension>
            <ns3:hr>80</ns3:hr>
            <ns3:cad>0</ns3:cad>
          </ns3:TrackPointExtension>
        </extensions>
      </trkpt>
      <trkpt lat="43.45618897117674350738525390625" lon="1.46474361419677734375">
        <ele>228.399993896484375</ele>
        <time>2026-08-05T07:09:25.000Z</time>
        <extensions>
          <ns3:TrackPointExtension>
            <ns3:hr>81</ns3:hr>
            <ns3:cad>0</ns3:cad>
          </ns3:TrackPointExtension>
        </extensions>
      </trkpt>
      <trkpt lat="43.45618897117674350738525390625" lon="1.46474361419677734375">
        <ele>228.399993896484375</ele>
        <time>2026-08-05T07:09:26.000Z</time>
        <extensions>
          <ns3:TrackPointExtension>
            <ns3:hr>83</ns3:hr>
            <ns3:cad>0</ns3:cad>
          </ns3:TrackPointExtension>
        </extensions>
      </trkpt>
      <trkpt lat="43.45618897117674350738525390625" lon="1.46474361419677734375">
        <ele>228.399993896484375</ele>
        <time>2026-08-05T07:09:27.000Z</time>
        <extensions>
          <ns3:TrackPointExtension>
            <ns3:hr>85</ns3:hr>
            <ns3:cad>0</ns3:cad>
          </ns3:TrackPointExtension>
        </extensions>
      </trkpt>
      <trkpt lat="43.45618662424385547637939453125" lon="1.46473581902682781219482421875">
        <ele>228.399993896484375</ele>
        <time>2026-08-05T07:09:28.000Z</time>
        <extensions>
          <ns3:TrackPointExtension>
            <ns3:hr>86</ns3:hr>
            <ns3:cad>0</ns3:cad>
          </ns3:TrackPointExtension>
        </extensions>
      </trkpt>
      <trkpt lat="43.4561890549957752227783203125" lon="1.46473481319844722747802734375">
        <ele>228.399993896484375</ele>
        <time>2026-08-05T07:09:29.000Z</time>
        <extensions>
          <ns3:TrackPointExtension>
            <ns3:hr>86</ns3:hr>
            <ns3:cad>0</ns3:cad>
          </ns3:TrackPointExtension>
        </extensions>
      </trkpt>
      <trkpt lat="43.45618830062448978424072265625" lon="1.46473967470228672027587890625">
        <ele>228.600006103515625</ele>
        <time>2026-08-05T07:09:30.000Z</time>
        <extensions>
          <ns3:TrackPointExtension>
            <ns3:hr>87</ns3:hr>
            <ns3:cad>0</ns3:cad>
          </ns3:TrackPointExtension>
        </extensions>
      </trkpt>
      <trkpt lat="43.456185199320316314697265625" lon="1.4647503197193145751953125">
        <ele>228.600006103515625</ele>
        <time>2026-08-05T07:09:31.000Z</time>
        <extensions>
          <ns3:TrackPointExtension>
            <ns3:hr>87</ns3:hr>
            <ns3:cad>0</ns3:cad>
          </ns3:TrackPointExtension>
        </extensions>
      </trkpt>
      <trkpt lat="43.456181846559047698974609375" lon="1.46476012654602527618408203125">
        <ele>228.8000030517578125</ele>
        <time>2026-08-05T07:09:32.000Z</time>
        <extensions>
          <ns3:TrackPointExtension>
            <ns3:hr>87</ns3:hr>
            <ns3:cad>0</ns3:cad>
          </ns3:TrackPointExtension>
        </extensions>
      </trkpt>
      <trkpt lat="43.45617690123617649078369140625" lon="1.464770101010799407958984375">
        <ele>229</ele>
        <time>2026-08-05T07:09:33.000Z</time>
        <extensions>
          <ns3:TrackPointExtension>
            <ns3:hr>87</ns3:hr>
            <ns3:cad>60</ns3:cad>
          </ns3:TrackPointExtension>
        </extensions>
      </trkpt>
      <trkpt lat="43.4561716206371784210205078125" lon="1.4647820033133029937744140625">
        <ele>229</ele>
        <time>2026-08-05T07:09:34.000Z</time>
        <extensions>
          <ns3:TrackPointExtension>
            <ns3:hr>87</ns3:hr>
            <ns3:cad>60</ns3:cad>
          </ns3:TrackPointExtension>
        </extensions>
      </trkpt>
      <trkpt lat="43.45616944134235382080078125" lon="1.46479147486388683319091796875">
        <ele>229</ele>
        <time>2026-08-05T07:09:35.000Z</time>
        <extensions>
          <ns3:TrackPointExtension>
            <ns3:hr>87</ns3:hr>
            <ns3:cad>45</ns3:cad>
          </ns3:TrackPointExtension>
        </extensions>
      </trkpt>
      <trkpt lat="43.45616734586656093597412109375" lon="1.4648048020899295806884765625">
        <ele>229</ele>
        <time>2026-08-05T07:09:36.000Z</time>
        <extensions>
          <ns3:TrackPointExtension>
            <ns3:hr>87</ns3:hr>
            <ns3:cad>45</ns3:cad>
          </ns3:TrackPointExtension>
        </extensions>
      </trkpt>
      <trkpt lat="43.45616583712399005889892578125" lon="1.46481494419276714324951171875">
        <ele>229</ele>
        <time>2026-08-05T07:09:37.000Z</time>
        <extensions>
          <ns3:TrackPointExtension>
            <ns3:hr>86</ns3:hr>
            <ns3:cad>45</ns3:cad>
          </ns3:TrackPointExtension>
        </extensions>
      </trkpt>
      <trkpt lat="43.45616466365754604339599609375" lon="1.464821733534336090087890625">
        <ele>229</ele>
        <time>2026-08-05T07:09:38.000Z</time>
        <extensions>
          <ns3:TrackPointExtension>
            <ns3:hr>87</ns3:hr>
            <ns3:cad>44</ns3:cad>
          </ns3:TrackPointExtension>
        </extensions>
      </trkpt>
      <trkpt lat="43.45616399310529232025146484375" lon="1.464826427400112152099609375">
        <ele>229</ele>
        <time>2026-08-05T07:09:39.000Z</time>
        <extensions>
          <ns3:TrackPointExtension>
            <ns3:hr>87</ns3:hr>
            <ns3:cad>43</ns3:cad>
          </ns3:TrackPointExtension>
        </extensions>
      </trkpt>
      <trkpt lat="43.45616432838141918182373046875" lon="1.4648229070007801055908203125">
        <ele>229.1999969482421875</ele>
        <time>2026-08-05T07:09:40.000Z</time>
        <extensions>
          <ns3:TrackPointExtension>
            <ns3:hr>87</ns3:hr>
            <ns3:cad>0</ns3:cad>
          </ns3:TrackPointExtension>
        </extensions>
      </trkpt>
      <trkpt lat="43.45616600476205348968505859375" lon="1.46481494419276714324951171875">
        <ele>229.1999969482421875</ele>
        <time>2026-08-05T07:09:41.000Z</time>
        <extensions>
          <ns3:TrackPointExtension>
            <ns3:hr>87</ns3:hr>
            <ns3:cad>0</ns3:cad>
          </ns3:TrackPointExtension>
        </extensions>
      </trkpt>
      <trkpt lat="43.45616684295237064361572265625" lon="1.46481444127857685089111328125">
        <ele>229.399993896484375</ele>
        <time>2026-08-05T07:09:42.000Z</time>
        <extensions>
          <ns3:TrackPointExtension>
            <ns3:hr>86</ns3:hr>
            <ns3:cad>0</ns3:cad>
          </ns3:TrackPointExtension>
        </extensions>
      </trkpt>
      <trkpt lat="43.45616717822849750518798828125" lon="1.464817710220813751220703125">
        <ele>229.399993896484375</ele>
        <time>2026-08-05T07:09:43.000Z</time>
        <extensions>
          <ns3:TrackPointExtension>
            <ns3:hr>86</ns3:hr>
            <ns3:cad>0</ns3:cad>
          </ns3:TrackPointExtension>
        </extensions>
      </trkpt>
      <trkpt lat="43.4561686031520366668701171875" lon="1.4648187160491943359375">
        <ele>229.399993896484375</ele>
        <time>2026-08-05T07:09:44.000Z</time>
        <extensions>
          <ns3:TrackPointExtension>
            <ns3:hr>86</ns3:hr>
            <ns3:cad>0</ns3:cad>
          </ns3:TrackPointExtension>
        </extensions>
      </trkpt>
      <trkpt lat="43.45616986043751239776611328125" lon="1.464817710220813751220703125">
        <ele>229.399993896484375</ele>
        <time>2026-08-05T07:09:45.000Z</time>
        <extensions>
          <ns3:TrackPointExtension>
            <ns3:hr>86</ns3:hr>
            <ns3:cad>0</ns3:cad>
          </ns3:TrackPointExtension>
        </extensions>
      </trkpt>
      <trkpt lat="43.456171117722988128662109375" lon="1.4648168720304965972900390625">
        <ele>229.399993896484375</ele>
        <time>2026-08-05T07:09:46.000Z</time>
        <extensions>
          <ns3:TrackPointExtension>
            <ns3:hr>87</ns3:hr>
            <ns3:cad>0</ns3:cad>
          </ns3:TrackPointExtension>
        </extensions>
      </trkpt>
      <trkpt lat="43.45616818405687808990478515625" lon="1.46481980569660663604736328125">
        <ele>229.399993896484375</ele>
        <time>2026-08-05T07:09:47.000Z</time>
        <extensions>
          <ns3:TrackPointExtension>
            <ns3:hr>86</ns3:hr>
            <ns3:cad>0</ns3:cad>
          </ns3:TrackPointExtension>
        </extensions>
      </trkpt>
      <trkpt lat="43.4561675973236560821533203125" lon="1.46482014097273349761962890625">
        <ele>229.399993896484375</ele>
        <time>2026-08-05T07:09:48.000Z</time>
        <extensions>
          <ns3:TrackPointExtension>
            <ns3:hr>86</ns3:hr>
            <ns3:cad>0</ns3:cad>
          </ns3:TrackPointExtension>
        </extensions>
      </trkpt>
      <trkpt lat="43.4561675973236560821533203125" lon="1.46482014097273349761962890625">
        <ele>229.399993896484375</ele>
        <time>2026-08-05T07:09:49.000Z</time>
        <extensions>
          <ns3:TrackPointExtension>
            <ns3:hr>85</ns3:hr>
            <ns3:cad>0</ns3:cad>
          </ns3:TrackPointExtension>
        </extensions>
      </trkpt>
      <trkpt lat="43.4561675973236560821533203125" lon="1.46482014097273349761962890625">
        <ele>229.399993896484375</ele>
        <time>2026-08-05T07:09:50.000Z</time>
        <extensions>
          <ns3:TrackPointExtension>
            <ns3:hr>85</ns3:hr>
            <ns3:cad>0</ns3:cad>
          </ns3:TrackPointExtension>
        </extensions>
      </trkpt>
      <trkpt lat="43.4561675973236560821533203125" lon="1.46482014097273349761962890625">
        <ele>229.399993896484375</ele>
        <time>2026-08-05T07:09:51.000Z</time>
        <extensions>
          <ns3:TrackPointExtension>
            <ns3:hr>85</ns3:hr>
            <ns3:cad>0</ns3:cad>
          </ns3:TrackPointExtension>
        </extensions>
      </trkpt>
      <trkpt lat="43.4561675973236560821533203125" lon="1.46482014097273349761962890625">
        <ele>229.399993896484375</ele>
        <time>2026-08-05T07:09:52.000Z</time>
        <extensions>
          <ns3:TrackPointExtension>
            <ns3:hr>85</ns3:hr>
            <ns3:cad>0</ns3:cad>
          </ns3:TrackPointExtension>
        </extensions>
      </trkpt>
      <trkpt lat="43.4561675973236560821533203125" lon="1.46482014097273349761962890625">
        <ele>229.399993896484375</ele>
        <time>2026-08-05T07:09:53.000Z</time>
        <extensions>
          <ns3:TrackPointExtension>
            <ns3:hr>85</ns3:hr>
            <ns3:cad>0</ns3:cad>
          </ns3:TrackPointExtension>
        </extensions>
      </trkpt>
      <trkpt lat="43.4561675973236560821533203125" lon="1.46482014097273349761962890625">
        <ele>229.399993896484375</ele>
        <time>2026-08-05T07:09:54.000Z</time>
        <extensions>
          <ns3:TrackPointExtension>
            <ns3:hr>85</ns3:hr>
            <ns3:cad>0</ns3:cad>
          </ns3:TrackPointExtension>
        </extensions>
      </trkpt>
      <trkpt lat="43.4561675973236560821533203125" lon="1.46482014097273349761962890625">
        <ele>229.399993896484375</ele>
        <time>2026-08-05T07:09:55.000Z</time>
        <extensions>
          <ns3:TrackPointExtension>
            <ns3:hr>85</ns3:hr>
            <ns3:cad>0</ns3:cad>
          </ns3:TrackPointExtension>
        </extensions>
      </trkpt>
      <trkpt lat="43.4561675973236560821533203125" lon="1.46482014097273349761962890625">
        <ele>229.399993896484375</ele>
        <time>2026-08-05T07:09:56.000Z</time>
        <extensions>
          <ns3:TrackPointExtension>
            <ns3:hr>85</ns3:hr>
            <ns3:cad>0</ns3:cad>
          </ns3:TrackPointExtension>
        </extensions>
      </trkpt>
      <trkpt lat="43.45616684295237064361572265625" lon="1.46482047624886035919189453125">
        <ele>229.399993896484375</ele>
        <time>2026-08-05T07:09:57.000Z</time>
        <extensions>
          <ns3:TrackPointExtension>
            <ns3:hr>85</ns3:hr>
            <ns3:cad>0</ns3:cad>
          </ns3:TrackPointExtension>
        </extensions>
      </trkpt>
      <trkpt lat="43.4561645798385143280029296875" lon="1.46482986398041248321533203125">
        <ele>229.399993896484375</ele>
        <time>2026-08-05T07:09:58.000Z</time>
        <extensions>
          <ns3:TrackPointExtension>
            <ns3:hr>84</ns3:hr>
            <ns3:cad>0</ns3:cad>
          </ns3:TrackPointExtension>
        </extensions>
      </trkpt>
      <trkpt lat="43.45615946687757968902587890625" lon="1.464841850101947784423828125">
        <ele>229.1999969482421875</ele>
        <time>2026-08-05T07:09:59.000Z</time>
        <extensions>
          <ns3:TrackPointExtension>
            <ns3:hr>85</ns3:hr>
            <ns3:cad>0</ns3:cad>
          </ns3:TrackPointExtension>
        </extensions>
      </trkpt>
      <trkpt lat="43.45616047270596027374267578125" lon="1.46484746597707271575927734375">
        <ele>229.1999969482421875</ele>
        <time>2026-08-05T07:10:00.000Z</time>
        <extensions>
          <ns3:TrackPointExtension>
            <ns3:hr>84</ns3:hr>
            <ns3:cad>0</ns3:cad>
          </ns3:TrackPointExtension>
        </extensions>
      </trkpt>
      <trkpt lat="43.45615561120212078094482421875" lon="1.46486070938408374786376953125">
        <ele>229.399993896484375</ele>
        <time>2026-08-05T07:10:01.000Z</time>
        <extensions>
          <ns3:TrackPointExtension>
            <ns3:hr>83</ns3:hr>
            <ns3:cad>0</ns3:cad>
          </ns3:TrackPointExtension>
        </extensions>
      </trkpt>
      <trkpt lat="43.45615678466856479644775390625" lon="1.46485819481313228607177734375">
        <ele>229.399993896484375</ele>
        <time>2026-08-05T07:10:02.000Z</time>
        <extensions>
          <ns3:TrackPointExtension>
            <ns3:hr>80</ns3:hr>
            <ns3:cad>0</ns3:cad>
          </ns3:TrackPointExtension>
        </extensions>
      </trkpt>
      <trkpt lat="43.4561541862785816192626953125" lon="1.46487043239176273345947265625">
        <ele>229.399993896484375</ele>
        <time>2026-08-05T07:10:03.000Z</time>
        <extensions>
          <ns3:TrackPointExtension>
            <ns3:hr>78</ns3:hr>
            <ns3:cad>0</ns3:cad>
          </ns3:TrackPointExtension>
        </extensions>
      </trkpt>
      <trkpt lat="43.45614555291831493377685546875" lon="1.46487596444785594940185546875">
        <ele>229.600006103515625</ele>
        <time>2026-08-05T07:10:04.000Z</time>
        <extensions>
          <ns3:TrackPointExtension>
            <ns3:hr>78</ns3:hr>
            <ns3:cad>0</ns3:cad>
          </ns3:TrackPointExtension>
        </extensions>
      </trkpt>
      <trkpt lat="43.4561447985470294952392578125" lon="1.46487428806722164154052734375">
        <ele>229.600006103515625</ele>
        <time>2026-08-05T07:10:05.000Z</time>
        <extensions>
          <ns3:TrackPointExtension>
            <ns3:hr>77</ns3:hr>
            <ns3:cad>0</ns3:cad>
          </ns3:TrackPointExtension>
        </extensions>
      </trkpt>
      <trkpt lat="43.4561414457857608795166015625" lon="1.464872024953365325927734375">
        <ele>229.8000030517578125</ele>
        <time>2026-08-05T07:10:06.000Z</time>
        <extensions>
          <ns3:TrackPointExtension>
            <ns3:hr>76</ns3:hr>
            <ns3:cad>0</ns3:cad>
          </ns3:TrackPointExtension>
        </extensions>
      </trkpt>
      <trkpt lat="43.45613918267190456390380859375" lon="1.46486992947757244110107421875">
        <ele>229.8000030517578125</ele>
        <time>2026-08-05T07:10:07.000Z</time>
        <extensions>
          <ns3:TrackPointExtension>
            <ns3:hr>76</ns3:hr>
            <ns3:cad>0</ns3:cad>
          </ns3:TrackPointExtension>
        </extensions>
      </trkpt>
      <trkpt lat="43.4561370871961116790771484375" lon="1.46487043239176273345947265625">
        <ele>229.600006103515625</ele>
        <time>2026-08-05T07:10:08.000Z</time>
        <extensions>
          <ns3:TrackPointExtension>
            <ns3:hr>75</ns3:hr>
            <ns3:cad>0</ns3:cad>
          </ns3:TrackPointExtension>
        </extensions>
      </trkpt>
      <trkpt lat="43.45613448880612850189208984375" lon="1.4648678340017795562744140625">
        <ele>229.600006103515625</ele>
        <time>2026-08-05T07:10:09.000Z</time>
        <extensions>
          <ns3:TrackPointExtension>
            <ns3:hr>74</ns3:hr>
            <ns3:cad>0</ns3:cad>
          </ns3:TrackPointExtension>
        </extensions>
      </trkpt>
      <trkpt lat="43.45613465644419193267822265625" lon="1.4648683369159698486328125">
        <ele>229.600006103515625</ele>
        <time>2026-08-05T07:10:10.000Z</time>
        <extensions>
          <ns3:TrackPointExtension>
            <ns3:hr>73</ns3:hr>
            <ns3:cad>0</ns3:cad>
          </ns3:TrackPointExtension>
        </extensions>
      </trkpt>
      <trkpt lat="43.456138260662555694580078125" lon="1.46486238576471805572509765625">
        <ele>229.600006103515625</ele>
        <time>2026-08-05T07:10:11.000Z</time>
        <extensions>
          <ns3:TrackPointExtension>
            <ns3:hr>73</ns3:hr>
            <ns3:cad>0</ns3:cad>
          </ns3:TrackPointExtension>
        </extensions>
      </trkpt>
      <trkpt lat="43.456137590110301971435546875" lon="1.46486389450728893280029296875">
        <ele>229.399993896484375</ele>
        <time>2026-08-05T07:10:12.000Z</time>
        <extensions>
          <ns3:TrackPointExtension>
            <ns3:hr>73</ns3:hr>
            <ns3:cad>45</ns3:cad>
          </ns3:TrackPointExtension>
        </extensions>
      </trkpt>
      <trkpt lat="43.45613750629127025604248046875" lon="1.46486322395503520965576171875">
        <ele>229.600006103515625</ele>
        <time>2026-08-05T07:10:13.000Z</time>
        <extensions>
          <ns3:TrackPointExtension>
            <ns3:hr>73</ns3:hr>
            <ns3:cad>45</ns3:cad>
          </ns3:TrackPointExtension>
        </extensions>
      </trkpt>
      <trkpt lat="43.45613750629127025604248046875" lon="1.4648617990314960479736328125">
        <ele>229.600006103515625</ele>
        <time>2026-08-05T07:10:14.000Z</time>
        <extensions>
          <ns3:TrackPointExtension>
            <ns3:hr>73</ns3:hr>
            <ns3:cad>0</ns3:cad>
          </ns3:TrackPointExtension>
        </extensions>
      </trkpt>
      <trkpt lat="43.45613867975771427154541015625" lon="1.464859955012798309326171875">
        <ele>229.600006103515625</ele>
        <time>2026-08-05T07:10:15.000Z</time>
        <extensions>
          <ns3:TrackPointExtension>
            <ns3:hr>73</ns3:hr>
            <ns3:cad>0</ns3:cad>
          </ns3:TrackPointExtension>
        </extensions>
      </trkpt>
      <trkpt lat="43.4561384283006191253662109375" lon="1.46486221812665462493896484375">
        <ele>229.600006103515625</ele>
        <time>2026-08-05T07:10:16.000Z</time>
        <extensions>
          <ns3:TrackPointExtension>
            <ns3:hr>73</ns3:hr>
            <ns3:cad>0</ns3:cad>
          </ns3:TrackPointExtension>
        </extensions>
      </trkpt>
      <trkpt lat="43.45613725483417510986328125" lon="1.46486230194568634033203125">
        <ele>229.600006103515625</ele>
        <time>2026-08-05T07:10:17.000Z</time>
        <extensions>
          <ns3:TrackPointExtension>
            <ns3:hr>73</ns3:hr>
            <ns3:cad>0</ns3:cad>
          </ns3:TrackPointExtension>
        </extensions>
      </trkpt>
      <trkpt lat="43.4561379253864288330078125" lon="1.4648604579269886016845703125">
        <ele>229.600006103515625</ele>
        <time>2026-08-05T07:10:18.000Z</time>
        <extensions>
          <ns3:TrackPointExtension>
            <ns3:hr>72</ns3:hr>
            <ns3:cad>0</ns3:cad>
          </ns3:TrackPointExtension>
        </extensions>
      </trkpt>
      <trkpt lat="43.456136919558048248291015625" lon="1.4648614637553691864013671875">
        <ele>229.600006103515625</ele>
        <time>2026-08-05T07:10:19.000Z</time>
        <extensions>
          <ns3:TrackPointExtension>
            <ns3:hr>73</ns3:hr>
            <ns3:cad>0</ns3:cad>
          </ns3:TrackPointExtension>
        </extensions>
      </trkpt>
      <trkpt lat="43.45613851211965084075927734375" lon="1.4648584462702274322509765625">
        <ele>229.600006103515625</ele>
        <time>2026-08-05T07:10:20.000Z</time>
        <extensions>
          <ns3:TrackPointExtension>
            <ns3:hr>73</ns3:hr>
            <ns3:cad>0</ns3:cad>
          </ns3:TrackPointExtension>
        </extensions>
      </trkpt>
      <trkpt lat="43.45613817684352397918701171875" lon="1.464858949184417724609375">
        <ele>229.600006103515625</ele>
        <time>2026-08-05T07:10:21.000Z</time>
        <extensions>
          <ns3:TrackPointExtension>
            <ns3:hr>72</ns3:hr>
            <ns3:cad>0</ns3:cad>
          </ns3:TrackPointExtension>
        </extensions>
      </trkpt>
      <trkpt lat="43.45613918267190456390380859375" lon="1.46485685370862483978271484375">
        <ele>229.600006103515625</ele>
        <time>2026-08-05T07:10:22.000Z</time>
        <extensions>
          <ns3:TrackPointExtension>
            <ns3:hr>72</ns3:hr>
            <ns3:cad>0</ns3:cad>
          </ns3:TrackPointExtension>
        </extensions>
      </trkpt>
      <trkpt lat="43.4561407752335071563720703125" lon="1.46485316567122936248779296875">
        <ele>229.600006103515625</ele>
        <time>2026-08-05T07:10:23.000Z</time>
        <extensions>
          <ns3:TrackPointExtension>
            <ns3:hr>72</ns3:hr>
            <ns3:cad>0</ns3:cad>
          </ns3:TrackPointExtension>
        </extensions>
      </trkpt>
      <trkpt lat="43.4561417810618877410888671875" lon="1.4648480527102947235107421875">
        <ele>229.600006103515625</ele>
        <time>2026-08-05T07:10:24.000Z</time>
        <extensions>
          <ns3:TrackPointExtension>
            <ns3:hr>72</ns3:hr>
            <ns3:cad>0</ns3:cad>
          </ns3:TrackPointExtension>
        </extensions>
      </trkpt>
      <trkpt lat="43.45614270307123661041259765625" lon="1.46485182456672191619873046875">
        <ele>229.600006103515625</ele>
        <time>2026-08-05T07:10:25.000Z</time>
        <extensions>
          <ns3:TrackPointExtension>
            <ns3:hr>72</ns3:hr>
            <ns3:cad>0</ns3:cad>
          </ns3:TrackPointExtension>
        </extensions>
      </trkpt>
      <trkpt lat="43.456141613423824310302734375" lon="1.46484696306288242340087890625">
        <ele>229.600006103515625</ele>
        <time>2026-08-05T07:10:26.000Z</time>
        <extensions>
          <ns3:TrackPointExtension>
            <ns3:hr>72</ns3:hr>
            <ns3:cad>0</ns3:cad>
          </ns3:TrackPointExtension>
        </extensions>
      </trkpt>
      <trkpt lat="43.45613985322415828704833984375" lon="1.46484545432031154632568359375">
        <ele>229.600006103515625</ele>
        <time>2026-08-05T07:10:27.000Z</time>
        <extensions>
          <ns3:TrackPointExtension>
            <ns3:hr>72</ns3:hr>
            <ns3:cad>0</ns3:cad>
          </ns3:TrackPointExtension>
        </extensions>
      </trkpt>
      <trkpt lat="43.45614002086222171783447265625" lon="1.46484947763383388519287109375">
        <ele>229.600006103515625</ele>
        <time>2026-08-05T07:10:28.000Z</time>
        <extensions>
          <ns3:TrackPointExtension>
            <ns3:hr>73</ns3:hr>
            <ns3:cad>0</ns3:cad>
          </ns3:TrackPointExtension>
        </extensions>
      </trkpt>
      <trkpt lat="43.456144630908966064453125" lon="1.464841850101947784423828125">
        <ele>229.600006103515625</ele>
        <time>2026-08-05T07:10:29.000Z</time>
        <extensions>
          <ns3:TrackPointExtension>
            <ns3:hr>72</ns3:hr>
            <ns3:cad>0</ns3:cad>
          </ns3:TrackPointExtension>
        </extensions>
      </trkpt>
      <trkpt lat="43.456144630908966064453125" lon="1.4648416824638843536376953125">
        <ele>229.8000030517578125</ele>
        <time>2026-08-05T07:10:30.000Z</time>
        <extensions>
          <ns3:TrackPointExtension>
            <ns3:hr>72</ns3:hr>
            <ns3:cad>0</ns3:cad>
          </ns3:TrackPointExtension>
        </extensions>
      </trkpt>
      <trkpt lat="43.45614354126155376434326171875" lon="1.4648467116057872772216796875">
        <ele>229.600006103515625</ele>
        <time>2026-08-05T07:10:31.000Z</time>
        <extensions>
          <ns3:TrackPointExtension>
            <ns3:hr>73</ns3:hr>
            <ns3:cad>0</ns3:cad>
          </ns3:TrackPointExtension>
        </extensions>
      </trkpt>
      <trkpt lat="43.4561421163380146026611328125" lon="1.464847885072231292724609375">
        <ele>229.600006103515625</ele>
        <time>2026-08-05T07:10:32.000Z</time>
        <extensions>
          <ns3:TrackPointExtension>
            <ns3:hr>72</ns3:hr>
            <ns3:cad>0</ns3:cad>
          </ns3:TrackPointExtension>
        </extensions>
      </trkpt>
      <trkpt lat="43.4561424516141414642333984375" lon="1.464845873415470123291015625">
        <ele>229.399993896484375</ele>
        <time>2026-08-05T07:10:33.000Z</time>
        <extensions>
          <ns3:TrackPointExtension>
            <ns3:hr>72</ns3:hr>
            <ns3:cad>0</ns3:cad>
          </ns3:TrackPointExtension>
        </extensions>
      </trkpt>
      <trkpt lat="43.45614505000412464141845703125" lon="1.46484780125319957733154296875">
        <ele>229.399993896484375</ele>
        <time>2026-08-05T07:10:34.000Z</time>
        <extensions>
          <ns3:TrackPointExtension>
            <ns3:hr>72</ns3:hr>
            <ns3:cad>0</ns3:cad>
          </ns3:TrackPointExtension>
        </extensions>
      </trkpt>
      <trkpt lat="43.4561451338231563568115234375" lon="1.464847885072231292724609375">
        <ele>229.399993896484375</ele>
        <time>2026-08-05T07:10:35.000Z</time>
        <extensions>
          <ns3:TrackPointExtension>
            <ns3:hr>72</ns3:hr>
            <ns3:cad>0</ns3:cad>
          </ns3:TrackPointExtension>
        </extensions>
      </trkpt>
      <trkpt lat="43.4561451338231563568115234375" lon="1.464847885072231292724609375">
        <ele>229.1999969482421875</ele>
        <time>2026-08-05T07:10:36.000Z</time>
        <extensions>
          <ns3:TrackPointExtension>
            <ns3:hr>72</ns3:hr>
            <ns3:cad>0</ns3:cad>
          </ns3:TrackPointExtension>
        </extensions>
      </trkpt>
      <trkpt lat="43.4561451338231563568115234375" lon="1.464847885072231292724609375">
        <ele>229</ele>
        <time>2026-08-05T07:10:37.000Z</time>
        <extensions>
          <ns3:TrackPointExtension>
            <ns3:hr>73</ns3:hr>
            <ns3:cad>0</ns3:cad>
          </ns3:TrackPointExtension>
        </extensions>
      </trkpt>
      <trkpt lat="43.45614505000412464141845703125" lon="1.4648487232625484466552734375">
        <ele>229</ele>
        <time>2026-08-05T07:10:38.000Z</time>
        <extensions>
          <ns3:TrackPointExtension>
            <ns3:hr>73</ns3:hr>
            <ns3:cad>0</ns3:cad>
          </ns3:TrackPointExtension>
        </extensions>
      </trkpt>
      <trkpt lat="43.4561451338231563568115234375" lon="1.464847885072231292724609375">
        <ele>229</ele>
        <time>2026-08-05T07:10:39.000Z</time>
        <extensions>
          <ns3:TrackPointExtension>
            <ns3:hr>73</ns3:hr>
            <ns3:cad>0</ns3:cad>
          </ns3:TrackPointExtension>
        </extensions>
      </trkpt>
      <trkpt lat="43.4561451338231563568115234375" lon="1.464847885072231292724609375">
        <ele>229.1999969482421875</ele>
        <time>2026-08-05T07:10:40.000Z</time>
        <extensions>
          <ns3:TrackPointExtension>
            <ns3:hr>72</ns3:hr>
            <ns3:cad>0</ns3:cad>
          </ns3:TrackPointExtension>
        </extensions>
      </trkpt>
      <trkpt lat="43.4561451338231563568115234375" lon="1.464847885072231292724609375">
        <ele>229.1999969482421875</ele>
        <time>2026-08-05T07:10:41.000Z</time>
        <extensions>
          <ns3:TrackPointExtension>
            <ns3:hr>72</ns3:hr>
            <ns3:cad>0</ns3:cad>
          </ns3:TrackPointExtension>
        </extensions>
      </trkpt>
      <trkpt lat="43.4561451338231563568115234375" lon="1.464847885072231292724609375">
        <ele>229.399993896484375</ele>
        <time>2026-08-05T07:10:42.000Z</time>
        <extensions>
          <ns3:TrackPointExtension>
            <ns3:hr>72</ns3:hr>
            <ns3:cad>0</ns3:cad>
          </ns3:TrackPointExtension>
        </extensions>
      </trkpt>
      <trkpt lat="43.4561451338231563568115234375" lon="1.464847885072231292724609375">
        <ele>229.399993896484375</ele>
        <time>2026-08-05T07:10:43.000Z</time>
        <extensions>
          <ns3:TrackPointExtension>
            <ns3:hr>71</ns3:hr>
            <ns3:cad>0</ns3:cad>
          </ns3:TrackPointExtension>
        </extensions>
      </trkpt>
      <trkpt lat="43.4561451338231563568115234375" lon="1.464847885072231292724609375">
        <ele>229.399993896484375</ele>
        <time>2026-08-05T07:10:44.000Z</time>
        <extensions>
          <ns3:TrackPointExtension>
            <ns3:hr>71</ns3:hr>
            <ns3:cad>0</ns3:cad>
          </ns3:TrackPointExtension>
        </extensions>
      </trkpt>
      <trkpt lat="43.4561451338231563568115234375" lon="1.464847885072231292724609375">
        <ele>229.399993896484375</ele>
        <time>2026-08-05T07:10:45.000Z</time>
        <extensions>
          <ns3:TrackPointExtension>
            <ns3:hr>71</ns3:hr>
            <ns3:cad>0</ns3:cad>
          </ns3:TrackPointExtension>
        </extensions>
      </trkpt>
      <trkpt lat="43.4561451338231563568115234375" lon="1.464847885072231292724609375">
        <ele>229.399993896484375</ele>
        <time>2026-08-05T07:10:46.000Z</time>
        <extensions>
          <ns3:TrackPointExtension>
            <ns3:hr>71</ns3:hr>
            <ns3:cad>0</ns3:cad>
          </ns3:TrackPointExtension>
        </extensions>
      </trkpt>
      <trkpt lat="43.4561451338231563568115234375" lon="1.464847885072231292724609375">
        <ele>229.399993896484375</ele>
        <time>2026-08-05T07:10:47.000Z</time>
        <extensions>
          <ns3:TrackPointExtension>
            <ns3:hr>71</ns3:hr>
            <ns3:cad>0</ns3:cad>
          </ns3:TrackPointExtension>
        </extensions>
      </trkpt>
      <trkpt lat="43.4561451338231563568115234375" lon="1.464847885072231292724609375">
        <ele>229.399993896484375</ele>
        <time>2026-08-05T07:10:48.000Z</time>
        <extensions>
          <ns3:TrackPointExtension>
            <ns3:hr>71</ns3:hr>
            <ns3:cad>0</ns3:cad>
          </ns3:TrackPointExtension>
        </extensions>
      </trkpt>
      <trkpt lat="43.4561451338231563568115234375" lon="1.464847885072231292724609375">
        <ele>229.399993896484375</ele>
        <time>2026-08-05T07:10:49.000Z</time>
        <extensions>
          <ns3:TrackPointExtension>
            <ns3:hr>71</ns3:hr>
            <ns3:cad>0</ns3:cad>
          </ns3:TrackPointExtension>
        </extensions>
      </trkpt>
      <trkpt lat="43.4561451338231563568115234375" lon="1.464847885072231292724609375">
        <ele>229.399993896484375</ele>
        <time>2026-08-05T07:10:50.000Z</time>
        <extensions>
          <ns3:TrackPointExtension>
            <ns3:hr>71</ns3:hr>
            <ns3:cad>0</ns3:cad>
          </ns3:TrackPointExtension>
        </extensions>
      </trkpt>
      <trkpt lat="43.4561451338231563568115234375" lon="1.464847885072231292724609375">
        <ele>229.399993896484375</ele>
        <time>2026-08-05T07:10:51.000Z</time>
        <extensions>
          <ns3:TrackPointExtension>
            <ns3:hr>71</ns3:hr>
            <ns3:cad>0</ns3:cad>
          </ns3:TrackPointExtension>
        </extensions>
      </trkpt>
      <trkpt lat="43.4561451338231563568115234375" lon="1.464847885072231292724609375">
        <ele>229.399993896484375</ele>
        <time>2026-08-05T07:10:52.000Z</time>
        <extensions>
          <ns3:TrackPointExtension>
            <ns3:hr>71</ns3:hr>
            <ns3:cad>0</ns3:cad>
          </ns3:TrackPointExtension>
        </extensions>
      </trkpt>
      <trkpt lat="43.4561451338231563568115234375" lon="1.464847885072231292724609375">
        <ele>229.399993896484375</ele>
        <time>2026-08-05T07:10:53.000Z</time>
        <extensions>
          <ns3:TrackPointExtension>
            <ns3:hr>71</ns3:hr>
            <ns3:cad>0</ns3:cad>
          </ns3:TrackPointExtension>
        </extensions>
      </trkpt>
      <trkpt lat="43.4561451338231563568115234375" lon="1.464847885072231292724609375">
        <ele>229.399993896484375</ele>
        <time>2026-08-05T07:10:54.000Z</time>
        <extensions>
          <ns3:TrackPointExtension>
            <ns3:hr>71</ns3:hr>
            <ns3:cad>0</ns3:cad>
          </ns3:TrackPointExtension>
        </extensions>
      </trkpt>
      <trkpt lat="43.4561451338231563568115234375" lon="1.464847885072231292724609375">
        <ele>229.399993896484375</ele>
        <time>2026-08-05T07:10:55.000Z</time>
        <extensions>
          <ns3:TrackPointExtension>
            <ns3:hr>71</ns3:hr>
            <ns3:cad>0</ns3:cad>
          </ns3:TrackPointExtension>
        </extensions>
      </trkpt>
      <trkpt lat="43.4561451338231563568115234375" lon="1.464847885072231292724609375">
        <ele>229.399993896484375</ele>
        <time>2026-08-05T07:10:56.000Z</time>
        <extensions>
          <ns3:TrackPointExtension>
            <ns3:hr>70</ns3:hr>
            <ns3:cad>0</ns3:cad>
          </ns3:TrackPointExtension>
        </extensions>
      </trkpt>
      <trkpt lat="43.4561451338231563568115234375" lon="1.464847885072231292724609375">
        <ele>229.1999969482421875</ele>
        <time>2026-08-05T07:10:57.000Z</time>
        <extensions>
          <ns3:TrackPointExtension>
            <ns3:hr>70</ns3:hr>
            <ns3:cad>0</ns3:cad>
          </ns3:TrackPointExtension>
        </extensions>
      </trkpt>
      <trkpt lat="43.4561451338231563568115234375" lon="1.464847885072231292724609375">
        <ele>229.1999969482421875</ele>
        <time>2026-08-05T07:10:58.000Z</time>
        <extensions>
          <ns3:TrackPointExtension>
            <ns3:hr>68</ns3:hr>
            <ns3:cad>0</ns3:cad>
          </ns3:TrackPointExtension>
        </extensions>
      </trkpt>
      <trkpt lat="43.4561451338231563568115234375" lon="1.464847885072231292724609375">
        <ele>229.1999969482421875</ele>
        <time>2026-08-05T07:10:59.000Z</time>
        <extensions>
          <ns3:TrackPointExtension>
            <ns3:hr>63</ns3:hr>
            <ns3:cad>0</ns3:cad>
          </ns3:TrackPointExtension>
        </extensions>
      </trkpt>
      <trkpt lat="43.4561451338231563568115234375" lon="1.464847885072231292724609375">
        <ele>229.1999969482421875</ele>
        <time>2026-08-05T07:11:00.000Z</time>
        <extensions>
          <ns3:TrackPointExtension>
            <ns3:hr>60</ns3:hr>
            <ns3:cad>0</ns3:cad>
          </ns3:TrackPointExtension>
        </extensions>
      </trkpt>
      <trkpt lat="43.4561451338231563568115234375" lon="1.464847885072231292724609375">
        <ele>229.1999969482421875</ele>
        <time>2026-08-05T07:11:01.000Z</time>
        <extensions>
          <ns3:TrackPointExtension>
            <ns3:hr>57</ns3:hr>
            <ns3:cad>0</ns3:cad>
          </ns3:TrackPointExtension>
        </extensions>
      </trkpt>
      <trkpt lat="43.4561451338231563568115234375" lon="1.464847885072231292724609375">
        <ele>229.399993896484375</ele>
        <time>2026-08-05T07:11:02.000Z</time>
        <extensions>
          <ns3:TrackPointExtension>
            <ns3:hr>56</ns3:hr>
            <ns3:cad>0</ns3:cad>
          </ns3:TrackPointExtension>
        </extensions>
      </trkpt>
      <trkpt lat="43.4561451338231563568115234375" lon="1.464847885072231292724609375">
        <ele>229.399993896484375</ele>
        <time>2026-08-05T07:11:03.000Z</time>
        <extensions>
          <ns3:TrackPointExtension>
            <ns3:hr>56</ns3:hr>
            <ns3:cad>0</ns3:cad>
          </ns3:TrackPointExtension>
        </extensions>
      </trkpt>
      <trkpt lat="43.4561451338231563568115234375" lon="1.464847885072231292724609375">
        <ele>229.399993896484375</ele>
        <time>2026-08-05T07:11:04.000Z</time>
        <extensions>
          <ns3:TrackPointExtension>
            <ns3:hr>55</ns3:hr>
            <ns3:cad>0</ns3:cad>
          </ns3:TrackPointExtension>
        </extensions>
      </trkpt>
      <trkpt lat="43.4561451338231563568115234375" lon="1.464847885072231292724609375">
        <ele>229.399993896484375</ele>
        <time>2026-08-05T07:11:05.000Z</time>
        <extensions>
          <ns3:TrackPointExtension>
            <ns3:hr>55</ns3:hr>
            <ns3:cad>0</ns3:cad>
          </ns3:TrackPointExtension>
        </extensions>
      </trkpt>
      <trkpt lat="43.4561451338231563568115234375" lon="1.464847885072231292724609375">
        <ele>229.399993896484375</ele>
        <time>2026-08-05T07:11:06.000Z</time>
        <extensions>
          <ns3:TrackPointExtension>
            <ns3:hr>55</ns3:hr>
            <ns3:cad>0</ns3:cad>
          </ns3:TrackPointExtension>
        </extensions>
      </trkpt>
      <trkpt lat="43.4561451338231563568115234375" lon="1.464847885072231292724609375">
        <ele>229.399993896484375</ele>
        <time>2026-08-05T07:11:07.000Z</time>
        <extensions>
          <ns3:TrackPointExtension>
            <ns3:hr>55</ns3:hr>
            <ns3:cad>0</ns3:cad>
          </ns3:TrackPointExtension>
        </extensions>
      </trkpt>
      <trkpt lat="43.4561451338231563568115234375" lon="1.464847885072231292724609375">
        <ele>229.399993896484375</ele>
        <time>2026-08-05T07:11:08.000Z</time>
        <extensions>
          <ns3:TrackPointExtension>
            <ns3:hr>55</ns3:hr>
            <ns3:cad>0</ns3:cad>
          </ns3:TrackPointExtension>
        </extensions>
      </trkpt>
      <trkpt lat="43.4561451338231563568115234375" lon="1.464847885072231292724609375">
        <ele>229.399993896484375</ele>
        <time>2026-08-05T07:11:09.000Z</time>
        <extensions>
          <ns3:TrackPointExtension>
            <ns3:hr>55</ns3:hr>
            <ns3:cad>0</ns3:cad>
          </ns3:TrackPointExtension>
        </extensions>
      </trkpt>
      <trkpt lat="43.4561451338231563568115234375" lon="1.464847885072231292724609375">
        <ele>229.399993896484375</ele>
        <time>2026-08-05T07:11:10.000Z</time>
        <extensions>
          <ns3:TrackPointExtension>
            <ns3:hr>55</ns3:hr>
            <ns3:cad>0</ns3:cad>
          </ns3:TrackPointExtension>
        </extensions>
      </trkpt>
      <trkpt lat="43.4561451338231563568115234375" lon="1.464847885072231292724609375">
        <ele>229.399993896484375</ele>
        <time>2026-08-05T07:11:11.000Z</time>
        <extensions>
          <ns3:TrackPointExtension>
            <ns3:hr>56</ns3:hr>
            <ns3:cad>0</ns3:cad>
          </ns3:TrackPointExtension>
        </extensions>
      </trkpt>
      <trkpt lat="43.4561451338231563568115234375" lon="1.464847885072231292724609375">
        <ele>229.1999969482421875</ele>
        <time>2026-08-05T07:11:12.000Z</time>
        <extensions>
          <ns3:TrackPointExtension>
            <ns3:hr>56</ns3:hr>
            <ns3:cad>0</ns3:cad>
          </ns3:TrackPointExtension>
        </extensions>
      </trkpt>
      <trkpt lat="43.4561451338231563568115234375" lon="1.464847885072231292724609375">
        <ele>229.1999969482421875</ele>
        <time>2026-08-05T07:11:13.000Z</time>
        <extensions>
          <ns3:TrackPointExtension>
            <ns3:hr>56</ns3:hr>
            <ns3:cad>0</ns3:cad>
          </ns3:TrackPointExtension>
        </extensions>
      </trkpt>
      <trkpt lat="43.4561451338231563568115234375" lon="1.464847885072231292724609375">
        <ele>229.1999969482421875</ele>
        <time>2026-08-05T07:11:14.000Z</time>
        <extensions>
          <ns3:TrackPointExtension>
            <ns3:hr>56</ns3:hr>
            <ns3:cad>0</ns3:cad>
          </ns3:TrackPointExtension>
        </extensions>
      </trkpt>
      <trkpt lat="43.4561451338231563568115234375" lon="1.464847885072231292724609375">
        <ele>229.1999969482421875</ele>
        <time>2026-08-05T07:11:15.000Z</time>
        <extensions>
          <ns3:TrackPointExtension>
            <ns3:hr>57</ns3:hr>
            <ns3:cad>0</ns3:cad>
          </ns3:TrackPointExtension>
        </extensions>
      </trkpt>
      <trkpt lat="43.4561451338231563568115234375" lon="1.464847885072231292724609375">
        <ele>229.1999969482421875</ele>
        <time>2026-08-05T07:11:16.000Z</time>
        <extensions>
          <ns3:TrackPointExtension>
            <ns3:hr>57</ns3:hr>
            <ns3:cad>0</ns3:cad>
          </ns3:TrackPointExtension>
        </extensions>
      </trkpt>
      <trkpt lat="43.4561451338231563568115234375" lon="1.464847885072231292724609375">
        <ele>229.1999969482421875</ele>
        <time>2026-08-05T07:11:17.000Z</time>
        <extensions>
          <ns3:TrackPointExtension>
            <ns3:hr>58</ns3:hr>
            <ns3:cad>0</ns3:cad>
          </ns3:TrackPointExtension>
        </extensions>
      </trkpt>
      <trkpt lat="43.4561451338231563568115234375" lon="1.464847885072231292724609375">
        <ele>229.1999969482421875</ele>
        <time>2026-08-05T07:11:18.000Z</time>
        <extensions>
          <ns3:TrackPointExtension>
            <ns3:hr>58</ns3:hr>
            <ns3:cad>0</ns3:cad>
          </ns3:TrackPointExtension>
        </extensions>
      </trkpt>
      <trkpt lat="43.4561451338231563568115234375" lon="1.464847885072231292724609375">
        <ele>229.1999969482421875</ele>
        <time>2026-08-05T07:11:19.000Z</time>
        <extensions>
          <ns3:TrackPointExtension>
            <ns3:hr>59</ns3:hr>
            <ns3:cad>0</ns3:cad>
          </ns3:TrackPointExtension>
        </extensions>
      </trkpt>
      <trkpt lat="43.4561451338231563568115234375" lon="1.464847885072231292724609375">
        <ele>229.1999969482421875</ele>
        <time>2026-08-05T07:11:20.000Z</time>
        <extensions>
          <ns3:TrackPointExtension>
            <ns3:hr>59</ns3:hr>
            <ns3:cad>0</ns3:cad>
          </ns3:TrackPointExtension>
        </extensions>
      </trkpt>
      <trkpt lat="43.4561451338231563568115234375" lon="1.464847885072231292724609375">
        <ele>229.1999969482421875</ele>
        <time>2026-08-05T07:11:21.000Z</time>
        <extensions>
          <ns3:TrackPointExtension>
            <ns3:hr>59</ns3:hr>
            <ns3:cad>0</ns3:cad>
          </ns3:TrackPointExtension>
        </extensions>
      </trkpt>
      <trkpt lat="43.4561451338231563568115234375" lon="1.464847885072231292724609375">
        <ele>229.1999969482421875</ele>
        <time>2026-08-05T07:11:22.000Z</time>
        <extensions>
          <ns3:TrackPointExtension>
            <ns3:hr>62</ns3:hr>
            <ns3:cad>0</ns3:cad>
          </ns3:TrackPointExtension>
        </extensions>
      </trkpt>
      <trkpt lat="43.4561451338231563568115234375" lon="1.464847885072231292724609375">
        <ele>229.1999969482421875</ele>
        <time>2026-08-05T07:11:23.000Z</time>
        <extensions>
          <ns3:TrackPointExtension>
            <ns3:hr>63</ns3:hr>
            <ns3:cad>0</ns3:cad>
          </ns3:TrackPointExtension>
        </extensions>
      </trkpt>
      <trkpt lat="43.4561451338231563568115234375" lon="1.464847885072231292724609375">
        <ele>229.1999969482421875</ele>
        <time>2026-08-05T07:11:24.000Z</time>
        <extensions>
          <ns3:TrackPointExtension>
            <ns3:hr>66</ns3:hr>
            <ns3:cad>0</ns3:cad>
          </ns3:TrackPointExtension>
        </extensions>
      </trkpt>
      <trkpt lat="43.4561451338231563568115234375" lon="1.464847885072231292724609375">
        <ele>229.1999969482421875</ele>
        <time>2026-08-05T07:11:25.000Z</time>
        <extensions>
          <ns3:TrackPointExtension>
            <ns3:hr>67</ns3:hr>
            <ns3:cad>0</ns3:cad>
          </ns3:TrackPointExtension>
        </extensions>
      </trkpt>
      <trkpt lat="43.4561458043754100799560546875" lon="1.464858613908290863037109375">
        <ele>229.1999969482421875</ele>
        <time>2026-08-05T07:11:26.000Z</time>
        <extensions>
          <ns3:TrackPointExtension>
            <ns3:hr>67</ns3:hr>
            <ns3:cad>0</ns3:cad>
          </ns3:TrackPointExtension>
        </extensions>
      </trkpt>
      <trkpt lat="43.4561451338231563568115234375" lon="1.464847885072231292724609375">
        <ele>229.1999969482421875</ele>
        <time>2026-08-05T07:11:27.000Z</time>
        <extensions>
          <ns3:TrackPointExtension>
            <ns3:hr>67</ns3:hr>
            <ns3:cad>0</ns3:cad>
          </ns3:TrackPointExtension>
        </extensions>
      </trkpt>
      <trkpt lat="43.4561451338231563568115234375" lon="1.464847885072231292724609375">
        <ele>229.1999969482421875</ele>
        <time>2026-08-05T07:11:28.000Z</time>
        <extensions>
          <ns3:TrackPointExtension>
            <ns3:hr>68</ns3:hr>
            <ns3:cad>0</ns3:cad>
          </ns3:TrackPointExtension>
        </extensions>
      </trkpt>
      <trkpt lat="43.456146307289600372314453125" lon="1.4648607932031154632568359375">
        <ele>229.1999969482421875</ele>
        <time>2026-08-05T07:11:29.000Z</time>
        <extensions>
          <ns3:TrackPointExtension>
            <ns3:hr>68</ns3:hr>
            <ns3:cad>0</ns3:cad>
          </ns3:TrackPointExtension>
        </extensions>
      </trkpt>
      <trkpt lat="43.4561540186405181884765625" lon="1.4648591168224811553955078125">
        <ele>229.399993896484375</ele>
        <time>2026-08-05T07:11:30.000Z</time>
        <extensions>
          <ns3:TrackPointExtension>
            <ns3:hr>68</ns3:hr>
            <ns3:cad>0</ns3:cad>
          </ns3:TrackPointExtension>
        </extensions>
      </trkpt>
      <trkpt lat="43.45616231672465801239013671875" lon="1.46485903300344944000244140625">
        <ele>229.399993896484375</ele>
        <time>2026-08-05T07:11:31.000Z</time>
        <extensions>
          <ns3:TrackPointExtension>
            <ns3:hr>68</ns3:hr>
            <ns3:cad>0</ns3:cad>
          </ns3:TrackPointExtension>
        </extensions>
      </trkpt>
      <trkpt lat="43.45616600476205348968505859375" lon="1.46486741490662097930908203125">
        <ele>229.399993896484375</ele>
        <time>2026-08-05T07:11:32.000Z</time>
        <extensions>
          <ns3:TrackPointExtension>
            <ns3:hr>68</ns3:hr>
            <ns3:cad>0</ns3:cad>
          </ns3:TrackPointExtension>
        </extensions>
      </trkpt>
      <trkpt lat="43.45616751350462436676025390625" lon="1.46487596444785594940185546875">
        <ele>229.399993896484375</ele>
        <time>2026-08-05T07:11:33.000Z</time>
        <extensions>
          <ns3:TrackPointExtension>
            <ns3:hr>67</ns3:hr>
            <ns3:cad>0</ns3:cad>
          </ns3:TrackPointExtension>
        </extensions>
      </trkpt>
      <trkpt lat="43.45617220737040042877197265625" lon="1.46488836966454982757568359375">
        <ele>229.600006103515625</ele>
        <time>2026-08-05T07:11:34.000Z</time>
        <extensions>
          <ns3:TrackPointExtension>
            <ns3:hr>68</ns3:hr>
            <ns3:cad>0</ns3:cad>
          </ns3:TrackPointExtension>
        </extensions>
      </trkpt>
      <trkpt lat="43.45617338083684444427490234375" lon="1.4648978412151336669921875">
        <ele>229.600006103515625</ele>
        <time>2026-08-05T07:11:35.000Z</time>
        <extensions>
          <ns3:TrackPointExtension>
            <ns3:hr>68</ns3:hr>
            <ns3:cad>0</ns3:cad>
          </ns3:TrackPointExtension>
        </extensions>
      </trkpt>
      <trkpt lat="43.45617371611297130584716796875" lon="1.46490865387022495269775390625">
        <ele>229.8000030517578125</ele>
        <time>2026-08-05T07:11:36.000Z</time>
        <extensions>
          <ns3:TrackPointExtension>
            <ns3:hr>68</ns3:hr>
            <ns3:cad>0</ns3:cad>
          </ns3:TrackPointExtension>
        </extensions>
      </trkpt>
      <trkpt lat="43.456175141036510467529296875" lon="1.46492122672498226165771484375">
        <ele>229.8000030517578125</ele>
        <time>2026-08-05T07:11:37.000Z</time>
        <extensions>
          <ns3:TrackPointExtension>
            <ns3:hr>69</ns3:hr>
            <ns3:cad>0</ns3:cad>
          </ns3:TrackPointExtension>
        </extensions>
      </trkpt>
      <trkpt lat="43.4561779908835887908935546875" lon="1.46493597887456417083740234375">
        <ele>230</ele>
        <time>2026-08-05T07:11:38.000Z</time>
        <extensions>
          <ns3:TrackPointExtension>
            <ns3:hr>69</ns3:hr>
            <ns3:cad>41</ns3:cad>
          </ns3:TrackPointExtension>
        </extensions>
      </trkpt>
      <trkpt lat="43.45618327148258686065673828125" lon="1.46494637243449687957763671875">
        <ele>230.1999969482421875</ele>
        <time>2026-08-05T07:11:39.000Z</time>
        <extensions>
          <ns3:TrackPointExtension>
            <ns3:hr>69</ns3:hr>
            <ns3:cad>43</ns3:cad>
          </ns3:TrackPointExtension>
        </extensions>
      </trkpt>
      <trkpt lat="43.456189222633838653564453125" lon="1.4649563468992710113525390625">
        <ele>230.1999969482421875</ele>
        <time>2026-08-05T07:11:40.000Z</time>
        <extensions>
          <ns3:TrackPointExtension>
            <ns3:hr>68</ns3:hr>
            <ns3:cad>43</ns3:cad>
          </ns3:TrackPointExtension>
        </extensions>
      </trkpt>
      <trkpt lat="43.456195257604122161865234375" lon="1.4649648964405059814453125">
        <ele>230.399993896484375</ele>
        <time>2026-08-05T07:11:41.000Z</time>
        <extensions>
          <ns3:TrackPointExtension>
            <ns3:hr>68</ns3:hr>
            <ns3:cad>43</ns3:cad>
          </ns3:TrackPointExtension>
        </extensions>
      </trkpt>
      <trkpt lat="43.45620020292699337005615234375" lon="1.46497084759175777435302734375">
        <ele>230.600006103515625</ele>
        <time>2026-08-05T07:11:42.000Z</time>
        <extensions>
          <ns3:TrackPointExtension>
            <ns3:hr>69</ns3:hr>
            <ns3:cad>0</ns3:cad>
          </ns3:TrackPointExtension>
        </extensions>
      </trkpt>
      <trkpt lat="43.45620908774435520172119140625" lon="1.4649798162281513214111328125">
        <ele>230.600006103515625</ele>
        <time>2026-08-05T07:11:43.000Z</time>
        <extensions>
          <ns3:TrackPointExtension>
            <ns3:hr>69</ns3:hr>
            <ns3:cad>0</ns3:cad>
          </ns3:TrackPointExtension>
        </extensions>
      </trkpt>
      <trkpt lat="43.45621428452432155609130859375" lon="1.464989371597766876220703125">
        <ele>230.8000030517578125</ele>
        <time>2026-08-05T07:11:44.000Z</time>
        <extensions>
          <ns3:TrackPointExtension>
            <ns3:hr>69</ns3:hr>
            <ns3:cad>42</ns3:cad>
          </ns3:TrackPointExtension>
        </extensions>
      </trkpt>
      <trkpt lat="43.4562242589890956878662109375" lon="1.4649938978254795074462890625">
        <ele>231</ele>
        <time>2026-08-05T07:11:45.000Z</time>
        <extensions>
          <ns3:TrackPointExtension>
            <ns3:hr>69</ns3:hr>
            <ns3:cad>42</ns3:cad>
          </ns3:TrackPointExtension>
        </extensions>
      </trkpt>
      <trkpt lat="43.45623071305453777313232421875" lon="1.46499515511095523834228515625">
        <ele>231.1999969482421875</ele>
        <time>2026-08-05T07:11:46.000Z</time>
        <extensions>
          <ns3:TrackPointExtension>
            <ns3:hr>69</ns3:hr>
            <ns3:cad>42</ns3:cad>
          </ns3:TrackPointExtension>
        </extensions>
      </trkpt>
      <trkpt lat="43.4562390111386775970458984375" lon="1.46499666385352611541748046875">
        <ele>231.399993896484375</ele>
        <time>2026-08-05T07:11:47.000Z</time>
        <extensions>
          <ns3:TrackPointExtension>
            <ns3:hr>69</ns3:hr>
            <ns3:cad>42</ns3:cad>
          </ns3:TrackPointExtension>
        </extensions>
      </trkpt>
      <trkpt lat="43.4562483988702297210693359375" lon="1.4650036208331584930419921875">
        <ele>231.600006103515625</ele>
        <time>2026-08-05T07:11:48.000Z</time>
        <extensions>
          <ns3:TrackPointExtension>
            <ns3:hr>70</ns3:hr>
            <ns3:cad>43</ns3:cad>
          </ns3:TrackPointExtension>
        </extensions>
      </trkpt>
      <trkpt lat="43.456252925097942352294921875" lon="1.465008817613124847412109375">
        <ele>231.600006103515625</ele>
        <time>2026-08-05T07:11:49.000Z</time>
        <extensions>
          <ns3:TrackPointExtension>
            <ns3:hr>71</ns3:hr>
            <ns3:cad>43</ns3:cad>
          </ns3:TrackPointExtension>
        </extensions>
      </trkpt>
      <trkpt lat="43.45625971443951129913330078125" lon="1.4650116674602031707763671875">
        <ele>231.600006103515625</ele>
        <time>2026-08-05T07:11:50.000Z</time>
        <extensions>
          <ns3:TrackPointExtension>
            <ns3:hr>71</ns3:hr>
            <ns3:cad>43</ns3:cad>
          </ns3:TrackPointExtension>
        </extensions>
      </trkpt>
      <trkpt lat="43.45626600086688995361328125" lon="1.46501644514501094818115234375">
        <ele>231.600006103515625</ele>
        <time>2026-08-05T07:11:51.000Z</time>
        <extensions>
          <ns3:TrackPointExtension>
            <ns3:hr>72</ns3:hr>
            <ns3:cad>43</ns3:cad>
          </ns3:TrackPointExtension>
        </extensions>
      </trkpt>
      <trkpt lat="43.45627362839877605438232421875" lon="1.46502063609659671783447265625">
        <ele>231.8000030517578125</ele>
        <time>2026-08-05T07:11:52.000Z</time>
        <extensions>
          <ns3:TrackPointExtension>
            <ns3:hr>73</ns3:hr>
            <ns3:cad>43</ns3:cad>
          </ns3:TrackPointExtension>
        </extensions>
      </trkpt>
      <trkpt lat="43.45628133974969387054443359375" lon="1.46502499468624591827392578125">
        <ele>231.8000030517578125</ele>
        <time>2026-08-05T07:11:53.000Z</time>
        <extensions>
          <ns3:TrackPointExtension>
            <ns3:hr>73</ns3:hr>
            <ns3:cad>77</ns3:cad>
          </ns3:TrackPointExtension>
        </extensions>
      </trkpt>
      <trkpt lat="43.45628879964351654052734375" lon="1.4650307781994342803955078125">
        <ele>232</ele>
        <time>2026-08-05T07:11:54.000Z</time>
        <extensions>
          <ns3:TrackPointExtension>
            <ns3:hr>76</ns3:hr>
            <ns3:cad>77</ns3:cad>
          </ns3:TrackPointExtension>
        </extensions>
      </trkpt>
      <trkpt lat="43.4562934935092926025390625" lon="1.4650346338748931884765625">
        <ele>232.1999969482421875</ele>
        <time>2026-08-05T07:11:55.000Z</time>
        <extensions>
          <ns3:TrackPointExtension>
            <ns3:hr>80</ns3:hr>
            <ns3:cad>77</ns3:cad>
          </ns3:TrackPointExtension>
        </extensions>
      </trkpt>
      <trkpt lat="43.45630296505987644195556640625" lon="1.46503865718841552734375">
        <ele>232.399993896484375</ele>
        <time>2026-08-05T07:11:56.000Z</time>
        <extensions>
          <ns3:TrackPointExtension>
            <ns3:hr>89</ns3:hr>
            <ns3:cad>77</ns3:cad>
          </ns3:TrackPointExtension>
        </extensions>
      </trkpt>
      <trkpt lat="43.4563090838491916656494140625" lon="1.46504326723515987396240234375">
        <ele>232.600006103515625</ele>
        <time>2026-08-05T07:11:57.000Z</time>
        <extensions>
          <ns3:TrackPointExtension>
            <ns3:hr>96</ns3:hr>
            <ns3:cad>77</ns3:cad>
          </ns3:TrackPointExtension>
        </extensions>
      </trkpt>
      <trkpt lat="43.45631721429526805877685546875" lon="1.46504628472030162811279296875">
        <ele>232.600006103515625</ele>
        <time>2026-08-05T07:11:58.000Z</time>
        <extensions>
          <ns3:TrackPointExtension>
            <ns3:hr>98</ns3:hr>
            <ns3:cad>43</ns3:cad>
          </ns3:TrackPointExtension>
        </extensions>
      </trkpt>
      <trkpt lat="43.4563248418271541595458984375" lon="1.46505005657672882080078125">
        <ele>232.8000030517578125</ele>
        <time>2026-08-05T07:11:59.000Z</time>
        <extensions>
          <ns3:TrackPointExtension>
            <ns3:hr>99</ns3:hr>
            <ns3:cad>43</ns3:cad>
          </ns3:TrackPointExtension>
        </extensions>
      </trkpt>
      <trkpt lat="43.4563285298645496368408203125" lon="1.46505047567188739776611328125">
        <ele>232.8000030517578125</ele>
        <time>2026-08-05T07:12:00.000Z</time>
        <extensions>
          <ns3:TrackPointExtension>
            <ns3:hr>99</ns3:hr>
            <ns3:cad>43</ns3:cad>
          </ns3:TrackPointExtension>
        </extensions>
      </trkpt>
      <trkpt lat="43.456333391368389129638671875" lon="1.46505533717572689056396484375">
        <ele>232.8000030517578125</ele>
        <time>2026-08-05T07:12:01.000Z</time>
        <extensions>
          <ns3:TrackPointExtension>
            <ns3:hr>100</ns3:hr>
            <ns3:cad>43</ns3:cad>
          </ns3:TrackPointExtension>
        </extensions>
      </trkpt>
      <trkpt lat="43.45634101890027523040771484375" lon="1.46506422199308872222900390625">
        <ele>233</ele>
        <time>2026-08-05T07:12:02.000Z</time>
        <extensions>
          <ns3:TrackPointExtension>
            <ns3:hr>100</ns3:hr>
            <ns3:cad>47</ns3:cad>
          </ns3:TrackPointExtension>
        </extensions>
      </trkpt>
      <trkpt lat="43.456349484622478485107421875" lon="1.46507327444851398468017578125">
        <ele>233</ele>
        <time>2026-08-05T07:12:03.000Z</time>
        <extensions>
          <ns3:TrackPointExtension>
            <ns3:hr>100</ns3:hr>
            <ns3:cad>47</ns3:cad>
          </ns3:TrackPointExtension>
        </extensions>
      </trkpt>
      <trkpt lat="43.4563583694398403167724609375" lon="1.4650807343423366546630859375">
        <ele>233.1999969482421875</ele>
        <time>2026-08-05T07:12:04.000Z</time>
        <extensions>
          <ns3:TrackPointExtension>
            <ns3:hr>101</ns3:hr>
            <ns3:cad>45</ns3:cad>
          </ns3:TrackPointExtension>
        </extensions>
      </trkpt>
      <trkpt lat="43.45636658370494842529296875" lon="1.46508651785552501678466796875">
        <ele>233.399993896484375</ele>
        <time>2026-08-05T07:12:05.000Z</time>
        <extensions>
          <ns3:TrackPointExtension>
            <ns3:hr>101</ns3:hr>
            <ns3:cad>45</ns3:cad>
          </ns3:TrackPointExtension>
        </extensions>
      </trkpt>
      <trkpt lat="43.4563744626939296722412109375" lon="1.46509288810193538665771484375">
        <ele>233.399993896484375</ele>
        <time>2026-08-05T07:12:06.000Z</time>
        <extensions>
          <ns3:TrackPointExtension>
            <ns3:hr>101</ns3:hr>
            <ns3:cad>0</ns3:cad>
          </ns3:TrackPointExtension>
        </extensions>
      </trkpt>
      <trkpt lat="43.4563821740448474884033203125" lon="1.4650998450815677642822265625">
        <ele>233.600006103515625</ele>
        <time>2026-08-05T07:12:07.000Z</time>
        <extensions>
          <ns3:TrackPointExtension>
            <ns3:hr>102</ns3:hr>
            <ns3:cad>46</ns3:cad>
          </ns3:TrackPointExtension>
        </extensions>
      </trkpt>
      <trkpt lat="43.45639013685286045074462890625" lon="1.465111076831817626953125">
        <ele>233.600006103515625</ele>
        <time>2026-08-05T07:12:08.000Z</time>
        <extensions>
          <ns3:TrackPointExtension>
            <ns3:hr>102</ns3:hr>
            <ns3:cad>46</ns3:cad>
          </ns3:TrackPointExtension>
        </extensions>
      </trkpt>
      <trkpt lat="43.45639835111796855926513671875" lon="1.46512054838240146636962890625">
        <ele>233.8000030517578125</ele>
        <time>2026-08-05T07:12:09.000Z</time>
        <extensions>
          <ns3:TrackPointExtension>
            <ns3:hr>102</ns3:hr>
            <ns3:cad>46</ns3:cad>
          </ns3:TrackPointExtension>
        </extensions>
      </trkpt>
      <trkpt lat="43.456407152116298675537109375" lon="1.46512524224817752838134765625">
        <ele>233.8000030517578125</ele>
        <time>2026-08-05T07:12:10.000Z</time>
        <extensions>
          <ns3:TrackPointExtension>
            <ns3:hr>103</ns3:hr>
            <ns3:cad>46</ns3:cad>
          </ns3:TrackPointExtension>
        </extensions>
      </trkpt>
      <trkpt lat="43.45641511492431163787841796875" lon="1.4651316963136196136474609375">
        <ele>234</ele>
        <time>2026-08-05T07:12:11.000Z</time>
        <extensions>
          <ns3:TrackPointExtension>
            <ns3:hr>103</ns3:hr>
            <ns3:cad>46</ns3:cad>
          </ns3:TrackPointExtension>
        </extensions>
      </trkpt>
      <trkpt lat="43.45642416737973690032958984375" lon="1.46514049731194972991943359375">
        <ele>234</ele>
        <time>2026-08-05T07:12:12.000Z</time>
        <extensions>
          <ns3:TrackPointExtension>
            <ns3:hr>104</ns3:hr>
            <ns3:cad>46</ns3:cad>
          </ns3:TrackPointExtension>
        </extensions>
      </trkpt>
      <trkpt lat="43.4564334712922573089599609375" lon="1.465148292481899261474609375">
        <ele>234.1999969482421875</ele>
        <time>2026-08-05T07:12:13.000Z</time>
        <extensions>
          <ns3:TrackPointExtension>
            <ns3:hr>104</ns3:hr>
            <ns3:cad>46</ns3:cad>
          </ns3:TrackPointExtension>
        </extensions>
      </trkpt>
      <trkpt lat="43.45644277520477771759033203125" lon="1.46515960805118083953857421875">
        <ele>234.399993896484375</ele>
        <time>2026-08-05T07:12:14.000Z</time>
        <extensions>
          <ns3:TrackPointExtension>
            <ns3:hr>105</ns3:hr>
            <ns3:cad>48</ns3:cad>
          </ns3:TrackPointExtension>
        </extensions>
      </trkpt>
      <trkpt lat="43.45645266585052013397216796875" lon="1.46516949869692325592041015625">
        <ele>234.399993896484375</ele>
        <time>2026-08-05T07:12:15.000Z</time>
        <extensions>
          <ns3:TrackPointExtension>
            <ns3:hr>105</ns3:hr>
            <ns3:cad>48</ns3:cad>
          </ns3:TrackPointExtension>
        </extensions>
      </trkpt>
      <trkpt lat="43.4564649872481822967529296875" lon="1.465179137885570526123046875">
        <ele>234.600006103515625</ele>
        <time>2026-08-05T07:12:16.000Z</time>
        <extensions>
          <ns3:TrackPointExtension>
            <ns3:hr>106</ns3:hr>
            <ns3:cad>49</ns3:cad>
          </ns3:TrackPointExtension>
        </extensions>
      </trkpt>
      <trkpt lat="43.45648325979709625244140625" lon="1.46518592722713947296142578125">
        <ele>234.8000030517578125</ele>
        <time>2026-08-05T07:12:17.000Z</time>
        <extensions>
          <ns3:TrackPointExtension>
            <ns3:hr>106</ns3:hr>
            <ns3:cad>50</ns3:cad>
          </ns3:TrackPointExtension>
        </extensions>
      </trkpt>
      <trkpt lat="43.45649843104183673858642578125" lon="1.4651940576732158660888671875">
        <ele>235</ele>
        <time>2026-08-05T07:12:18.000Z</time>
        <extensions>
          <ns3:TrackPointExtension>
            <ns3:hr>107</ns3:hr>
            <ns3:cad>50</ns3:cad>
          </ns3:TrackPointExtension>
        </extensions>
      </trkpt>
      <trkpt lat="43.4565089084208011627197265625" lon="1.4651997573673725128173828125">
        <ele>235.1999969482421875</ele>
        <time>2026-08-05T07:12:19.000Z</time>
        <extensions>
          <ns3:TrackPointExtension>
            <ns3:hr>108</ns3:hr>
            <ns3:cad>51</ns3:cad>
          </ns3:TrackPointExtension>
        </extensions>
      </trkpt>
      <trkpt lat="43.4565193019807338714599609375" lon="1.4652061276137828826904296875">
        <ele>235.399993896484375</ele>
        <time>2026-08-05T07:12:20.000Z</time>
        <extensions>
          <ns3:TrackPointExtension>
            <ns3:hr>109</ns3:hr>
            <ns3:cad>51</ns3:cad>
          </ns3:TrackPointExtension>
        </extensions>
      </trkpt>
      <trkpt lat="43.456530869007110595703125" lon="1.4652135036885738372802734375">
        <ele>235.600006103515625</ele>
        <time>2026-08-05T07:12:21.000Z</time>
        <extensions>
          <ns3:TrackPointExtension>
            <ns3:hr>111</ns3:hr>
            <ns3:cad>51</ns3:cad>
          </ns3:TrackPointExtension>
        </extensions>
      </trkpt>
      <trkpt lat="43.45654335804283618927001953125" lon="1.465218700468540191650390625">
        <ele>235.8000030517578125</ele>
        <time>2026-08-05T07:12:22.000Z</time>
        <extensions>
          <ns3:TrackPointExtension>
            <ns3:hr>112</ns3:hr>
            <ns3:cad>51</ns3:cad>
          </ns3:TrackPointExtension>
        </extensions>
      </trkpt>
      <trkpt lat="43.45655660144984722137451171875" lon="1.46522901020944118499755859375">
        <ele>235.8000030517578125</ele>
        <time>2026-08-05T07:12:23.000Z</time>
        <extensions>
          <ns3:TrackPointExtension>
            <ns3:hr>114</ns3:hr>
            <ns3:cad>51</ns3:cad>
          </ns3:TrackPointExtension>
        </extensions>
      </trkpt>
      <trkpt lat="43.45657185651361942291259765625" lon="1.46524158306419849395751953125">
        <ele>235.8000030517578125</ele>
        <time>2026-08-05T07:12:24.000Z</time>
        <extensions>
          <ns3:TrackPointExtension>
            <ns3:hr>114</ns3:hr>
            <ns3:cad>51</ns3:cad>
          </ns3:TrackPointExtension>
        </extensions>
      </trkpt>
      <trkpt lat="43.4565840102732181549072265625" lon="1.46525147370994091033935546875">
        <ele>236</ele>
        <time>2026-08-05T07:12:25.000Z</time>
        <extensions>
          <ns3:TrackPointExtension>
            <ns3:hr>114</ns3:hr>
            <ns3:cad>51</ns3:cad>
          </ns3:TrackPointExtension>
        </extensions>
      </trkpt>
      <trkpt lat="43.4565977565944194793701171875" lon="1.465260274708271026611328125">
        <ele>236.1999969482421875</ele>
        <time>2026-08-05T07:12:26.000Z</time>
        <extensions>
          <ns3:TrackPointExtension>
            <ns3:hr>114</ns3:hr>
            <ns3:cad>51</ns3:cad>
          </ns3:TrackPointExtension>
        </extensions>
      </trkpt>
      <trkpt lat="43.45660823397338390350341796875" lon="1.46527058444917201995849609375">
        <ele>236.1999969482421875</ele>
        <time>2026-08-05T07:12:27.000Z</time>
        <extensions>
          <ns3:TrackPointExtension>
            <ns3:hr>114</ns3:hr>
            <ns3:cad>51</ns3:cad>
          </ns3:TrackPointExtension>
        </extensions>
      </trkpt>
      <trkpt lat="43.45661728642880916595458984375" lon="1.4652792178094387054443359375">
        <ele>236.399993896484375</ele>
        <time>2026-08-05T07:12:28.000Z</time>
        <extensions>
          <ns3:TrackPointExtension>
            <ns3:hr>114</ns3:hr>
            <ns3:cad>51</ns3:cad>
          </ns3:TrackPointExtension>
        </extensions>
      </trkpt>
      <trkpt lat="43.4566287696361541748046875" lon="1.46528684534132480621337890625">
        <ele>236.600006103515625</ele>
        <time>2026-08-05T07:12:29.000Z</time>
        <extensions>
          <ns3:TrackPointExtension>
            <ns3:hr>114</ns3:hr>
            <ns3:cad>52</ns3:cad>
          </ns3:TrackPointExtension>
        </extensions>
      </trkpt>
      <trkpt lat="43.45664058811962604522705078125" lon="1.46529405377805233001708984375">
        <ele>236.600006103515625</ele>
        <time>2026-08-05T07:12:30.000Z</time>
        <extensions>
          <ns3:TrackPointExtension>
            <ns3:hr>115</ns3:hr>
            <ns3:cad>53</ns3:cad>
          </ns3:TrackPointExtension>
        </extensions>
      </trkpt>
      <trkpt lat="43.45665399916470050811767578125" lon="1.46530293859541416168212890625">
        <ele>236.8000030517578125</ele>
        <time>2026-08-05T07:12:31.000Z</time>
        <extensions>
          <ns3:TrackPointExtension>
            <ns3:hr>115</ns3:hr>
            <ns3:cad>53</ns3:cad>
          </ns3:TrackPointExtension>
        </extensions>
      </trkpt>
      <trkpt lat="43.4566668234765529632568359375" lon="1.4653127454221248626708984375">
        <ele>237</ele>
        <time>2026-08-05T07:12:32.000Z</time>
        <extensions>
          <ns3:TrackPointExtension>
            <ns3:hr>115</ns3:hr>
            <ns3:cad>53</ns3:cad>
          </ns3:TrackPointExtension>
        </extensions>
      </trkpt>
      <trkpt lat="43.4566788934171199798583984375" lon="1.465324647724628448486328125">
        <ele>237</ele>
        <time>2026-08-05T07:12:33.000Z</time>
        <extensions>
          <ns3:TrackPointExtension>
            <ns3:hr>115</ns3:hr>
            <ns3:cad>54</ns3:cad>
          </ns3:TrackPointExtension>
        </extensions>
      </trkpt>
      <trkpt lat="43.45669121481478214263916015625" lon="1.46533302962779998779296875">
        <ele>237.1999969482421875</ele>
        <time>2026-08-05T07:12:34.000Z</time>
        <extensions>
          <ns3:TrackPointExtension>
            <ns3:hr>115</ns3:hr>
            <ns3:cad>54</ns3:cad>
          </ns3:TrackPointExtension>
        </extensions>
      </trkpt>
      <trkpt lat="43.45670320093631744384765625" lon="1.4653422497212886810302734375">
        <ele>237.1999969482421875</ele>
        <time>2026-08-05T07:12:35.000Z</time>
        <extensions>
          <ns3:TrackPointExtension>
            <ns3:hr>115</ns3:hr>
            <ns3:cad>54</ns3:cad>
          </ns3:TrackPointExtension>
        </extensions>
      </trkpt>
      <trkpt lat="43.4567147679626941680908203125" lon="1.465351469814777374267578125">
        <ele>237.399993896484375</ele>
        <time>2026-08-05T07:12:36.000Z</time>
        <extensions>
          <ns3:TrackPointExtension>
            <ns3:hr>115</ns3:hr>
            <ns3:cad>54</ns3:cad>
          </ns3:TrackPointExtension>
        </extensions>
      </trkpt>
      <trkpt lat="43.456725664436817169189453125" lon="1.46536043845117092132568359375">
        <ele>237.399993896484375</ele>
        <time>2026-08-05T07:12:37.000Z</time>
        <extensions>
          <ns3:TrackPointExtension>
            <ns3:hr>116</ns3:hr>
            <ns3:cad>53</ns3:cad>
          </ns3:TrackPointExtension>
        </extensions>
      </trkpt>
      <trkpt lat="43.4567362256348133087158203125" lon="1.4653700776398181915283203125">
        <ele>237.399993896484375</ele>
        <time>2026-08-05T07:12:38.000Z</time>
        <extensions>
          <ns3:TrackPointExtension>
            <ns3:hr>116</ns3:hr>
            <ns3:cad>53</ns3:cad>
          </ns3:TrackPointExtension>
        </extensions>
      </trkpt>
      <trkpt lat="43.45674502663314342498779296875" lon="1.4653794653713703155517578125">
        <ele>237.600006103515625</ele>
        <time>2026-08-05T07:12:39.000Z</time>
        <extensions>
          <ns3:TrackPointExtension>
            <ns3:hr>116</ns3:hr>
            <ns3:cad>53</ns3:cad>
          </ns3:TrackPointExtension>
        </extensions>
      </trkpt>
      <trkpt lat="43.45675818622112274169921875" lon="1.46538801491260528564453125">
        <ele>237.600006103515625</ele>
        <time>2026-08-05T07:12:40.000Z</time>
        <extensions>
          <ns3:TrackPointExtension>
            <ns3:hr>116</ns3:hr>
            <ns3:cad>53</ns3:cad>
          </ns3:TrackPointExtension>
        </extensions>
      </trkpt>
      <trkpt lat="43.45676916651427745819091796875" lon="1.46539480425417423248291015625">
        <ele>237.600006103515625</ele>
        <time>2026-08-05T07:12:41.000Z</time>
        <extensions>
          <ns3:TrackPointExtension>
            <ns3:hr>116</ns3:hr>
            <ns3:cad>53</ns3:cad>
          </ns3:TrackPointExtension>
        </extensions>
      </trkpt>
      <trkpt lat="43.45678098499774932861328125" lon="1.46540402434766292572021484375">
        <ele>237.8000030517578125</ele>
        <time>2026-08-05T07:12:42.000Z</time>
        <extensions>
          <ns3:TrackPointExtension>
            <ns3:hr>116</ns3:hr>
            <ns3:cad>53</ns3:cad>
          </ns3:TrackPointExtension>
        </extensions>
      </trkpt>
      <trkpt lat="43.456793725490570068359375" lon="1.46541374735534191131591796875">
        <ele>237.8000030517578125</ele>
        <time>2026-08-05T07:12:43.000Z</time>
        <extensions>
          <ns3:TrackPointExtension>
            <ns3:hr>116</ns3:hr>
            <ns3:cad>53</ns3:cad>
          </ns3:TrackPointExtension>
        </extensions>
      </trkpt>
      <trkpt lat="43.45680403523147106170654296875" lon="1.465422548353672027587890625">
        <ele>238</ele>
        <time>2026-08-05T07:12:44.000Z</time>
        <extensions>
          <ns3:TrackPointExtension>
            <ns3:hr>116</ns3:hr>
            <ns3:cad>53</ns3:cad>
          </ns3:TrackPointExtension>
        </extensions>
      </trkpt>
      <trkpt lat="43.4568153508007526397705078125" lon="1.465431936085224151611328125">
        <ele>238</ele>
        <time>2026-08-05T07:12:45.000Z</time>
        <extensions>
          <ns3:TrackPointExtension>
            <ns3:hr>117</ns3:hr>
            <ns3:cad>53</ns3:cad>
          </ns3:TrackPointExtension>
        </extensions>
      </trkpt>
      <trkpt lat="43.45682524144649505615234375" lon="1.4654404856264591217041015625">
        <ele>238.1999969482421875</ele>
        <time>2026-08-05T07:12:46.000Z</time>
        <extensions>
          <ns3:TrackPointExtension>
            <ns3:hr>117</ns3:hr>
            <ns3:cad>53</ns3:cad>
          </ns3:TrackPointExtension>
        </extensions>
      </trkpt>
      <trkpt lat="43.4568358026444911956787109375" lon="1.46545113064348697662353515625">
        <ele>238.1999969482421875</ele>
        <time>2026-08-05T07:12:47.000Z</time>
        <extensions>
          <ns3:TrackPointExtension>
            <ns3:hr>117</ns3:hr>
            <ns3:cad>53</ns3:cad>
          </ns3:TrackPointExtension>
        </extensions>
      </trkpt>
      <trkpt lat="43.45684594474732875823974609375" lon="1.46546470932662487030029296875">
        <ele>238.399993896484375</ele>
        <time>2026-08-05T07:12:48.000Z</time>
        <extensions>
          <ns3:TrackPointExtension>
            <ns3:hr>116</ns3:hr>
            <ns3:cad>53</ns3:cad>
          </ns3:TrackPointExtension>
        </extensions>
      </trkpt>
      <trkpt lat="43.4568559192121028900146484375" lon="1.46547594107687473297119140625">
        <ele>238.600006103515625</ele>
        <time>2026-08-05T07:12:49.000Z</time>
        <extensions>
          <ns3:TrackPointExtension>
            <ns3:hr>117</ns3:hr>
            <ns3:cad>52</ns3:cad>
          </ns3:TrackPointExtension>
        </extensions>
      </trkpt>
      <trkpt lat="43.45686656422913074493408203125" lon="1.4654857479035854339599609375">
        <ele>238.8000030517578125</ele>
        <time>2026-08-05T07:12:50.000Z</time>
        <extensions>
          <ns3:TrackPointExtension>
            <ns3:hr>117</ns3:hr>
            <ns3:cad>52</ns3:cad>
          </ns3:TrackPointExtension>
        </extensions>
      </trkpt>
      <trkpt lat="43.456874191761016845703125" lon="1.4654971472918987274169921875">
        <ele>238.8000030517578125</ele>
        <time>2026-08-05T07:12:51.000Z</time>
        <extensions>
          <ns3:TrackPointExtension>
            <ns3:hr>117</ns3:hr>
            <ns3:cad>52</ns3:cad>
          </ns3:TrackPointExtension>
        </extensions>
      </trkpt>
      <trkpt lat="43.45688433386385440826416015625" lon="1.4655045233666896820068359375">
        <ele>239</ele>
        <time>2026-08-05T07:12:52.000Z</time>
        <extensions>
          <ns3:TrackPointExtension>
            <ns3:hr>117</ns3:hr>
            <ns3:cad>51</ns3:cad>
          </ns3:TrackPointExtension>
        </extensions>
      </trkpt>
      <trkpt lat="43.45688416622579097747802734375" lon="1.46550913341343402862548828125">
        <ele>239</ele>
        <time>2026-08-05T07:12:53.000Z</time>
        <extensions>
          <ns3:TrackPointExtension>
            <ns3:hr>117</ns3:hr>
            <ns3:cad>51</ns3:cad>
          </ns3:TrackPointExtension>
        </extensions>
      </trkpt>
      <trkpt lat="43.45688181929290294647216796875" lon="1.465511061251163482666015625">
        <ele>239</ele>
        <time>2026-08-05T07:12:54.000Z</time>
        <extensions>
          <ns3:TrackPointExtension>
            <ns3:hr>117</ns3:hr>
            <ns3:cad>0</ns3:cad>
          </ns3:TrackPointExtension>
        </extensions>
      </trkpt>
      <trkpt lat="43.4568817354738712310791015625" lon="1.4655092172324657440185546875">
        <ele>239</ele>
        <time>2026-08-05T07:12:55.000Z</time>
        <extensions>
          <ns3:TrackPointExtension>
            <ns3:hr>117</ns3:hr>
            <ns3:cad>0</ns3:cad>
          </ns3:TrackPointExtension>
        </extensions>
      </trkpt>
      <trkpt lat="43.45688148401677608489990234375" lon="1.465507708489894866943359375">
        <ele>239</ele>
        <time>2026-08-05T07:12:56.000Z</time>
        <extensions>
          <ns3:TrackPointExtension>
            <ns3:hr>117</ns3:hr>
            <ns3:cad>0</ns3:cad>
          </ns3:TrackPointExtension>
        </extensions>
      </trkpt>
      <trkpt lat="43.4568808972835540771484375" lon="1.46550737321376800537109375">
        <ele>239</ele>
        <time>2026-08-05T07:12:57.000Z</time>
        <extensions>
          <ns3:TrackPointExtension>
            <ns3:hr>118</ns3:hr>
            <ns3:cad>0</ns3:cad>
          </ns3:TrackPointExtension>
        </extensions>
      </trkpt>
      <trkpt lat="43.4568810649216175079345703125" lon="1.4655072055757045745849609375">
        <ele>239</ele>
        <time>2026-08-05T07:12:58.000Z</time>
        <extensions>
          <ns3:TrackPointExtension>
            <ns3:hr>118</ns3:hr>
            <ns3:cad>0</ns3:cad>
          </ns3:TrackPointExtension>
        </extensions>
      </trkpt>
      <trkpt lat="43.4568810649216175079345703125" lon="1.4655072055757045745849609375">
        <ele>239</ele>
        <time>2026-08-05T07:12:59.000Z</time>
        <extensions>
          <ns3:TrackPointExtension>
            <ns3:hr>118</ns3:hr>
            <ns3:cad>0</ns3:cad>
          </ns3:TrackPointExtension>
        </extensions>
      </trkpt>
      <trkpt lat="43.4568810649216175079345703125" lon="1.4655072055757045745849609375">
        <ele>239</ele>
        <time>2026-08-05T07:13:00.000Z</time>
        <extensions>
          <ns3:TrackPointExtension>
            <ns3:hr>117</ns3:hr>
            <ns3:cad>0</ns3:cad>
          </ns3:TrackPointExtension>
        </extensions>
      </trkpt>
      <trkpt lat="43.4568810649216175079345703125" lon="1.4655072055757045745849609375">
        <ele>239</ele>
        <time>2026-08-05T07:13:01.000Z</time>
        <extensions>
          <ns3:TrackPointExtension>
            <ns3:hr>117</ns3:hr>
            <ns3:cad>0</ns3:cad>
          </ns3:TrackPointExtension>
        </extensions>
      </trkpt>
      <trkpt lat="43.4568810649216175079345703125" lon="1.4655072055757045745849609375">
        <ele>239</ele>
        <time>2026-08-05T07:13:02.000Z</time>
        <extensions>
          <ns3:TrackPointExtension>
            <ns3:hr>117</ns3:hr>
            <ns3:cad>0</ns3:cad>
          </ns3:TrackPointExtension>
        </extensions>
      </trkpt>
      <trkpt lat="43.4568810649216175079345703125" lon="1.4655072055757045745849609375">
        <ele>239.1999969482421875</ele>
        <time>2026-08-05T07:13:03.000Z</time>
        <extensions>
          <ns3:TrackPointExtension>
            <ns3:hr>117</ns3:hr>
            <ns3:cad>0</ns3:cad>
          </ns3:TrackPointExtension>
        </extensions>
      </trkpt>
      <trkpt lat="43.4568810649216175079345703125" lon="1.4655072055757045745849609375">
        <ele>239.1999969482421875</ele>
        <time>2026-08-05T07:13:04.000Z</time>
        <extensions>
          <ns3:TrackPointExtension>
            <ns3:hr>116</ns3:hr>
            <ns3:cad>0</ns3:cad>
          </ns3:TrackPointExtension>
        </extensions>
      </trkpt>
      <trkpt lat="43.4568810649216175079345703125" lon="1.4655072055757045745849609375">
        <ele>239.1999969482421875</ele>
        <time>2026-08-05T07:13:05.000Z</time>
        <extensions>
          <ns3:TrackPointExtension>
            <ns3:hr>115</ns3:hr>
            <ns3:cad>0</ns3:cad>
          </ns3:TrackPointExtension>
        </extensions>
      </trkpt>
      <trkpt lat="43.4568810649216175079345703125" lon="1.4655072055757045745849609375">
        <ele>239.1999969482421875</ele>
        <time>2026-08-05T07:13:06.000Z</time>
        <extensions>
          <ns3:TrackPointExtension>
            <ns3:hr>112</ns3:hr>
            <ns3:cad>0</ns3:cad>
          </ns3:TrackPointExtension>
        </extensions>
      </trkpt>
      <trkpt lat="43.4568810649216175079345703125" lon="1.4655072055757045745849609375">
        <ele>239.1999969482421875</ele>
        <time>2026-08-05T07:13:07.000Z</time>
        <extensions>
          <ns3:TrackPointExtension>
            <ns3:hr>108</ns3:hr>
            <ns3:cad>0</ns3:cad>
          </ns3:TrackPointExtension>
        </extensions>
      </trkpt>
      <trkpt lat="43.4568810649216175079345703125" lon="1.4655072055757045745849609375">
        <ele>239</ele>
        <time>2026-08-05T07:13:08.000Z</time>
        <extensions>
          <ns3:TrackPointExtension>
            <ns3:hr>106</ns3:hr>
            <ns3:cad>0</ns3:cad>
          </ns3:TrackPointExtension>
        </extensions>
      </trkpt>
      <trkpt lat="43.4568810649216175079345703125" lon="1.4655072055757045745849609375">
        <ele>239</ele>
        <time>2026-08-05T07:13:09.000Z</time>
        <extensions>
          <ns3:TrackPointExtension>
            <ns3:hr>106</ns3:hr>
            <ns3:cad>0</ns3:cad>
          </ns3:TrackPointExtension>
        </extensions>
      </trkpt>
      <trkpt lat="43.4568810649216175079345703125" lon="1.4655072055757045745849609375">
        <ele>239</ele>
        <time>2026-08-05T07:13:10.000Z</time>
        <extensions>
          <ns3:TrackPointExtension>
            <ns3:hr>105</ns3:hr>
            <ns3:cad>0</ns3:cad>
          </ns3:TrackPointExtension>
        </extensions>
      </trkpt>
      <trkpt lat="43.4568810649216175079345703125" lon="1.4655072055757045745849609375">
        <ele>239</ele>
        <time>2026-08-05T07:13:11.000Z</time>
        <extensions>
          <ns3:TrackPointExtension>
            <ns3:hr>104</ns3:hr>
            <ns3:cad>0</ns3:cad>
          </ns3:TrackPointExtension>
        </extensions>
      </trkpt>
      <trkpt lat="43.4568810649216175079345703125" lon="1.4655072055757045745849609375">
        <ele>239.1999969482421875</ele>
        <time>2026-08-05T07:13:12.000Z</time>
        <extensions>
          <ns3:TrackPointExtension>
            <ns3:hr>104</ns3:hr>
            <ns3:cad>0</ns3:cad>
          </ns3:TrackPointExtension>
        </extensions>
      </trkpt>
      <trkpt lat="43.4568810649216175079345703125" lon="1.4655072055757045745849609375">
        <ele>239.1999969482421875</ele>
        <time>2026-08-05T07:13:13.000Z</time>
        <extensions>
          <ns3:TrackPointExtension>
            <ns3:hr>103</ns3:hr>
            <ns3:cad>0</ns3:cad>
          </ns3:TrackPointExtension>
        </extensions>
      </trkpt>
      <trkpt lat="43.4568810649216175079345703125" lon="1.4655072055757045745849609375">
        <ele>239.1999969482421875</ele>
        <time>2026-08-05T07:13:14.000Z</time>
        <extensions>
          <ns3:TrackPointExtension>
            <ns3:hr>102</ns3:hr>
            <ns3:cad>0</ns3:cad>
          </ns3:TrackPointExtension>
        </extensions>
      </trkpt>
      <trkpt lat="43.4568810649216175079345703125" lon="1.4655072055757045745849609375">
        <ele>239.1999969482421875</ele>
        <time>2026-08-05T07:13:15.000Z</time>
        <extensions>
          <ns3:TrackPointExtension>
            <ns3:hr>102</ns3:hr>
            <ns3:cad>0</ns3:cad>
          </ns3:TrackPointExtension>
        </extensions>
      </trkpt>
      <trkpt lat="43.4568810649216175079345703125" lon="1.4655072055757045745849609375">
        <ele>239.1999969482421875</ele>
        <time>2026-08-05T07:13:16.000Z</time>
        <extensions>
          <ns3:TrackPointExtension>
            <ns3:hr>101</ns3:hr>
            <ns3:cad>0</ns3:cad>
          </ns3:TrackPointExtension>
        </extensions>
      </trkpt>
      <trkpt lat="43.4568810649216175079345703125" lon="1.4655072055757045745849609375">
        <ele>239.1999969482421875</ele>
        <time>2026-08-05T07:13:17.000Z</time>
        <extensions>
          <ns3:TrackPointExtension>
            <ns3:hr>101</ns3:hr>
            <ns3:cad>0</ns3:cad>
          </ns3:TrackPointExtension>
        </extensions>
      </trkpt>
      <trkpt lat="43.4568810649216175079345703125" lon="1.4655072055757045745849609375">
        <ele>239.1999969482421875</ele>
        <time>2026-08-05T07:13:18.000Z</time>
        <extensions>
          <ns3:TrackPointExtension>
            <ns3:hr>100</ns3:hr>
            <ns3:cad>0</ns3:cad>
          </ns3:TrackPointExtension>
        </extensions>
      </trkpt>
      <trkpt lat="43.4568810649216175079345703125" lon="1.4655072055757045745849609375">
        <ele>239</ele>
        <time>2026-08-05T07:13:19.000Z</time>
        <extensions>
          <ns3:TrackPointExtension>
            <ns3:hr>100</ns3:hr>
            <ns3:cad>0</ns3:cad>
          </ns3:TrackPointExtension>
        </extensions>
      </trkpt>
      <trkpt lat="43.4568810649216175079345703125" lon="1.4655072055757045745849609375">
        <ele>239</ele>
        <time>2026-08-05T07:13:20.000Z</time>
        <extensions>
          <ns3:TrackPointExtension>
            <ns3:hr>99</ns3:hr>
            <ns3:cad>0</ns3:cad>
          </ns3:TrackPointExtension>
        </extensions>
      </trkpt>
      <trkpt lat="43.4568810649216175079345703125" lon="1.4655072055757045745849609375">
        <ele>239</ele>
        <time>2026-08-05T07:13:21.000Z</time>
        <extensions>
          <ns3:TrackPointExtension>
            <ns3:hr>98</ns3:hr>
            <ns3:cad>0</ns3:cad>
          </ns3:TrackPointExtension>
        </extensions>
      </trkpt>
      <trkpt lat="43.4568810649216175079345703125" lon="1.4655072055757045745849609375">
        <ele>239</ele>
        <time>2026-08-05T07:13:22.000Z</time>
        <extensions>
          <ns3:TrackPointExtension>
            <ns3:hr>97</ns3:hr>
            <ns3:cad>0</ns3:cad>
          </ns3:TrackPointExtension>
        </extensions>
      </trkpt>
      <trkpt lat="43.4568810649216175079345703125" lon="1.4655072055757045745849609375">
        <ele>239</ele>
        <time>2026-08-05T07:13:23.000Z</time>
        <extensions>
          <ns3:TrackPointExtension>
            <ns3:hr>97</ns3:hr>
            <ns3:cad>0</ns3:cad>
          </ns3:TrackPointExtension>
        </extensions>
      </trkpt>
      <trkpt lat="43.4568810649216175079345703125" lon="1.4655072055757045745849609375">
        <ele>239</ele>
        <time>2026-08-05T07:13:24.000Z</time>
        <extensions>
          <ns3:TrackPointExtension>
            <ns3:hr>96</ns3:hr>
            <ns3:cad>0</ns3:cad>
          </ns3:TrackPointExtension>
        </extensions>
      </trkpt>
      <trkpt lat="43.4568810649216175079345703125" lon="1.4655072055757045745849609375">
        <ele>239</ele>
        <time>2026-08-05T07:13:25.000Z</time>
        <extensions>
          <ns3:TrackPointExtension>
            <ns3:hr>96</ns3:hr>
            <ns3:cad>0</ns3:cad>
          </ns3:TrackPointExtension>
        </extensions>
      </trkpt>
      <trkpt lat="43.4568810649216175079345703125" lon="1.4655072055757045745849609375">
        <ele>239</ele>
        <time>2026-08-05T07:13:26.000Z</time>
        <extensions>
          <ns3:TrackPointExtension>
            <ns3:hr>96</ns3:hr>
            <ns3:cad>0</ns3:cad>
          </ns3:TrackPointExtension>
        </extensions>
      </trkpt>
      <trkpt lat="43.4568810649216175079345703125" lon="1.4655072055757045745849609375">
        <ele>238.8000030517578125</ele>
        <time>2026-08-05T07:13:27.000Z</time>
        <extensions>
          <ns3:TrackPointExtension>
            <ns3:hr>96</ns3:hr>
            <ns3:cad>0</ns3:cad>
          </ns3:TrackPointExtension>
        </extensions>
      </trkpt>
      <trkpt lat="43.4568810649216175079345703125" lon="1.4655072055757045745849609375">
        <ele>238.8000030517578125</ele>
        <time>2026-08-05T07:13:28.000Z</time>
        <extensions>
          <ns3:TrackPointExtension>
            <ns3:hr>95</ns3:hr>
            <ns3:cad>0</ns3:cad>
          </ns3:TrackPointExtension>
        </extensions>
      </trkpt>
      <trkpt lat="43.4568810649216175079345703125" lon="1.4655072055757045745849609375">
        <ele>238.8000030517578125</ele>
        <time>2026-08-05T07:13:29.000Z</time>
        <extensions>
          <ns3:TrackPointExtension>
            <ns3:hr>94</ns3:hr>
            <ns3:cad>0</ns3:cad>
          </ns3:TrackPointExtension>
        </extensions>
      </trkpt>
      <trkpt lat="43.4568810649216175079345703125" lon="1.4655072055757045745849609375">
        <ele>238.8000030517578125</ele>
        <time>2026-08-05T07:13:30.000Z</time>
        <extensions>
          <ns3:TrackPointExtension>
            <ns3:hr>93</ns3:hr>
            <ns3:cad>0</ns3:cad>
          </ns3:TrackPointExtension>
        </extensions>
      </trkpt>
      <trkpt lat="43.4568810649216175079345703125" lon="1.4655072055757045745849609375">
        <ele>238.8000030517578125</ele>
        <time>2026-08-05T07:13:31.000Z</time>
        <extensions>
          <ns3:TrackPointExtension>
            <ns3:hr>91</ns3:hr>
            <ns3:cad>0</ns3:cad>
          </ns3:TrackPointExtension>
        </extensions>
      </trkpt>
      <trkpt lat="43.4568810649216175079345703125" lon="1.4655072055757045745849609375">
        <ele>238.8000030517578125</ele>
        <time>2026-08-05T07:13:32.000Z</time>
        <extensions>
          <ns3:TrackPointExtension>
            <ns3:hr>90</ns3:hr>
            <ns3:cad>0</ns3:cad>
          </ns3:TrackPointExtension>
        </extensions>
      </trkpt>
      <trkpt lat="43.4568810649216175079345703125" lon="1.4655072055757045745849609375">
        <ele>238.8000030517578125</ele>
        <time>2026-08-05T07:13:33.000Z</time>
        <extensions>
          <ns3:TrackPointExtension>
            <ns3:hr>88</ns3:hr>
            <ns3:cad>0</ns3:cad>
          </ns3:TrackPointExtension>
        </extensions>
      </trkpt>
      <trkpt lat="43.4568810649216175079345703125" lon="1.4655072055757045745849609375">
        <ele>238.8000030517578125</ele>
        <time>2026-08-05T07:13:34.000Z</time>
        <extensions>
          <ns3:TrackPointExtension>
            <ns3:hr>87</ns3:hr>
            <ns3:cad>0</ns3:cad>
          </ns3:TrackPointExtension>
        </extensions>
      </trkpt>
      <trkpt lat="43.4568810649216175079345703125" lon="1.4655072055757045745849609375">
        <ele>238.8000030517578125</ele>
        <time>2026-08-05T07:13:35.000Z</time>
        <extensions>
          <ns3:TrackPointExtension>
            <ns3:hr>86</ns3:hr>
            <ns3:cad>0</ns3:cad>
          </ns3:TrackPointExtension>
        </extensions>
      </trkpt>
      <trkpt lat="43.4568810649216175079345703125" lon="1.4655072055757045745849609375">
        <ele>238.8000030517578125</ele>
        <time>2026-08-05T07:13:36.000Z</time>
        <extensions>
          <ns3:TrackPointExtension>
            <ns3:hr>86</ns3:hr>
            <ns3:cad>0</ns3:cad>
          </ns3:TrackPointExtension>
        </extensions>
      </trkpt>
      <trkpt lat="43.4568810649216175079345703125" lon="1.4655072055757045745849609375">
        <ele>238.8000030517578125</ele>
        <time>2026-08-05T07:13:37.000Z</time>
        <extensions>
          <ns3:TrackPointExtension>
            <ns3:hr>85</ns3:hr>
            <ns3:cad>0</ns3:cad>
          </ns3:TrackPointExtension>
        </extensions>
      </trkpt>
      <trkpt lat="43.4568810649216175079345703125" lon="1.4655072055757045745849609375">
        <ele>238.8000030517578125</ele>
        <time>2026-08-05T07:13:38.000Z</time>
        <extensions>
          <ns3:TrackPointExtension>
            <ns3:hr>84</ns3:hr>
            <ns3:cad>0</ns3:cad>
          </ns3:TrackPointExtension>
        </extensions>
      </trkpt>
      <trkpt lat="43.4568810649216175079345703125" lon="1.4655072055757045745849609375">
        <ele>238.8000030517578125</ele>
        <time>2026-08-05T07:13:39.000Z</time>
        <extensions>
          <ns3:TrackPointExtension>
            <ns3:hr>83</ns3:hr>
            <ns3:cad>0</ns3:cad>
          </ns3:TrackPointExtension>
        </extensions>
      </trkpt>
      <trkpt lat="43.4568810649216175079345703125" lon="1.4655072055757045745849609375">
        <ele>238.8000030517578125</ele>
        <time>2026-08-05T07:13:40.000Z</time>
        <extensions>
          <ns3:TrackPointExtension>
            <ns3:hr>82</ns3:hr>
            <ns3:cad>0</ns3:cad>
          </ns3:TrackPointExtension>
        </extensions>
      </trkpt>
      <trkpt lat="43.4568810649216175079345703125" lon="1.4655072055757045745849609375">
        <ele>238.8000030517578125</ele>
        <time>2026-08-05T07:13:41.000Z</time>
        <extensions>
          <ns3:TrackPointExtension>
            <ns3:hr>81</ns3:hr>
            <ns3:cad>0</ns3:cad>
          </ns3:TrackPointExtension>
        </extensions>
      </trkpt>
      <trkpt lat="43.4568810649216175079345703125" lon="1.4655072055757045745849609375">
        <ele>238.8000030517578125</ele>
        <time>2026-08-05T07:13:42.000Z</time>
        <extensions>
          <ns3:TrackPointExtension>
            <ns3:hr>80</ns3:hr>
            <ns3:cad>0</ns3:cad>
          </ns3:TrackPointExtension>
        </extensions>
      </trkpt>
      <trkpt lat="43.4568810649216175079345703125" lon="1.4655072055757045745849609375">
        <ele>238.8000030517578125</ele>
        <time>2026-08-05T07:13:43.000Z</time>
        <extensions>
          <ns3:TrackPointExtension>
            <ns3:hr>79</ns3:hr>
            <ns3:cad>0</ns3:cad>
          </ns3:TrackPointExtension>
        </extensions>
      </trkpt>
      <trkpt lat="43.4568810649216175079345703125" lon="1.4655072055757045745849609375">
        <ele>238.8000030517578125</ele>
        <time>2026-08-05T07:13:44.000Z</time>
        <extensions>
          <ns3:TrackPointExtension>
            <ns3:hr>78</ns3:hr>
            <ns3:cad>0</ns3:cad>
          </ns3:TrackPointExtension>
        </extensions>
      </trkpt>
      <trkpt lat="43.4568810649216175079345703125" lon="1.4655072055757045745849609375">
        <ele>238.8000030517578125</ele>
        <time>2026-08-05T07:13:45.000Z</time>
        <extensions>
          <ns3:TrackPointExtension>
            <ns3:hr>78</ns3:hr>
            <ns3:cad>0</ns3:cad>
          </ns3:TrackPointExtension>
        </extensions>
      </trkpt>
      <trkpt lat="43.4568810649216175079345703125" lon="1.4655072055757045745849609375">
        <ele>238.8000030517578125</ele>
        <time>2026-08-05T07:13:46.000Z</time>
        <extensions>
          <ns3:TrackPointExtension>
            <ns3:hr>78</ns3:hr>
            <ns3:cad>0</ns3:cad>
          </ns3:TrackPointExtension>
        </extensions>
      </trkpt>
      <trkpt lat="43.4568810649216175079345703125" lon="1.4655072055757045745849609375">
        <ele>238.8000030517578125</ele>
        <time>2026-08-05T07:13:47.000Z</time>
        <extensions>
          <ns3:TrackPointExtension>
            <ns3:hr>77</ns3:hr>
            <ns3:cad>0</ns3:cad>
          </ns3:TrackPointExtension>
        </extensions>
      </trkpt>
      <trkpt lat="43.4568810649216175079345703125" lon="1.4655072055757045745849609375">
        <ele>238.8000030517578125</ele>
        <time>2026-08-05T07:13:48.000Z</time>
        <extensions>
          <ns3:TrackPointExtension>
            <ns3:hr>77</ns3:hr>
            <ns3:cad>0</ns3:cad>
          </ns3:TrackPointExtension>
        </extensions>
      </trkpt>
      <trkpt lat="43.4568810649216175079345703125" lon="1.4655072055757045745849609375">
        <ele>238.8000030517578125</ele>
        <time>2026-08-05T07:13:49.000Z</time>
        <extensions>
          <ns3:TrackPointExtension>
            <ns3:hr>77</ns3:hr>
            <ns3:cad>0</ns3:cad>
          </ns3:TrackPointExtension>
        </extensions>
      </trkpt>
      <trkpt lat="43.4568810649216175079345703125" lon="1.4655072055757045745849609375">
        <ele>238.8000030517578125</ele>
        <time>2026-08-05T07:13:50.000Z</time>
        <extensions>
          <ns3:TrackPointExtension>
            <ns3:hr>77</ns3:hr>
            <ns3:cad>0</ns3:cad>
          </ns3:TrackPointExtension>
        </extensions>
      </trkpt>
      <trkpt lat="43.4568810649216175079345703125" lon="1.4655072055757045745849609375">
        <ele>238.8000030517578125</ele>
        <time>2026-08-05T07:13:51.000Z</time>
        <extensions>
          <ns3:TrackPointExtension>
            <ns3:hr>78</ns3:hr>
            <ns3:cad>0</ns3:cad>
          </ns3:TrackPointExtension>
        </extensions>
      </trkpt>
      <trkpt lat="43.4568810649216175079345703125" lon="1.4655072055757045745849609375">
        <ele>238.8000030517578125</ele>
        <time>2026-08-05T07:13:52.000Z</time>
        <extensions>
          <ns3:TrackPointExtension>
            <ns3:hr>79</ns3:hr>
            <ns3:cad>0</ns3:cad>
          </ns3:TrackPointExtension>
        </extensions>
      </trkpt>
      <trkpt lat="43.4568810649216175079345703125" lon="1.4655072055757045745849609375">
        <ele>238.8000030517578125</ele>
        <time>2026-08-05T07:13:53.000Z</time>
        <extensions>
          <ns3:TrackPointExtension>
            <ns3:hr>80</ns3:hr>
            <ns3:cad>0</ns3:cad>
          </ns3:TrackPointExtension>
        </extensions>
      </trkpt>
      <trkpt lat="43.4568810649216175079345703125" lon="1.4655072055757045745849609375">
        <ele>238.8000030517578125</ele>
        <time>2026-08-05T07:13:54.000Z</time>
        <extensions>
          <ns3:TrackPointExtension>
            <ns3:hr>80</ns3:hr>
            <ns3:cad>0</ns3:cad>
          </ns3:TrackPointExtension>
        </extensions>
      </trkpt>
      <trkpt lat="43.45688014291226863861083984375" lon="1.465507037937641143798828125">
        <ele>238.600006103515625</ele>
        <time>2026-08-05T07:13:55.000Z</time>
        <extensions>
          <ns3:TrackPointExtension>
            <ns3:hr>80</ns3:hr>
            <ns3:cad>0</ns3:cad>
          </ns3:TrackPointExtension>
        </extensions>
      </trkpt>
      <trkpt lat="43.4568840824067592620849609375" lon="1.46551349200308322906494140625">
        <ele>238.600006103515625</ele>
        <time>2026-08-05T07:13:56.000Z</time>
        <extensions>
          <ns3:TrackPointExtension>
            <ns3:hr>80</ns3:hr>
            <ns3:cad>0</ns3:cad>
          </ns3:TrackPointExtension>
        </extensions>
      </trkpt>
      <trkpt lat="43.45688768662512302398681640625" lon="1.46552371792495250701904296875">
        <ele>238.600006103515625</ele>
        <time>2026-08-05T07:13:57.000Z</time>
        <extensions>
          <ns3:TrackPointExtension>
            <ns3:hr>81</ns3:hr>
            <ns3:cad>0</ns3:cad>
          </ns3:TrackPointExtension>
        </extensions>
      </trkpt>
      <trkpt lat="43.456893973052501678466796875" lon="1.46553712897002696990966796875">
        <ele>238.600006103515625</ele>
        <time>2026-08-05T07:13:58.000Z</time>
        <extensions>
          <ns3:TrackPointExtension>
            <ns3:hr>82</ns3:hr>
            <ns3:cad>52</ns3:cad>
          </ns3:TrackPointExtension>
        </extensions>
      </trkpt>
      <trkpt lat="43.45689908601343631744384765625" lon="1.46554869599640369415283203125">
        <ele>238.600006103515625</ele>
        <time>2026-08-05T07:13:59.000Z</time>
        <extensions>
          <ns3:TrackPointExtension>
            <ns3:hr>82</ns3:hr>
            <ns3:cad>52</ns3:cad>
          </ns3:TrackPointExtension>
        </extensions>
      </trkpt>
      <trkpt lat="43.45690277405083179473876953125" lon="1.46556026302278041839599609375">
        <ele>238.8000030517578125</ele>
        <time>2026-08-05T07:14:00.000Z</time>
        <extensions>
          <ns3:TrackPointExtension>
            <ns3:hr>83</ns3:hr>
            <ns3:cad>51</ns3:cad>
          </ns3:TrackPointExtension>
        </extensions>
      </trkpt>
      <trkpt lat="43.45690646208822727203369140625" lon="1.46557501517236232757568359375">
        <ele>238.8000030517578125</ele>
        <time>2026-08-05T07:14:01.000Z</time>
        <extensions>
          <ns3:TrackPointExtension>
            <ns3:hr>83</ns3:hr>
            <ns3:cad>51</ns3:cad>
          </ns3:TrackPointExtension>
        </extensions>
      </trkpt>
      <trkpt lat="43.45690864138305187225341796875" lon="1.4655911922454833984375">
        <ele>238.8000030517578125</ele>
        <time>2026-08-05T07:14:02.000Z</time>
        <extensions>
          <ns3:TrackPointExtension>
            <ns3:hr>82</ns3:hr>
            <ns3:cad>51</ns3:cad>
          </ns3:TrackPointExtension>
        </extensions>
      </trkpt>
      <trkpt lat="43.45691065303981304168701171875" lon="1.4656057767570018768310546875">
        <ele>239</ele>
        <time>2026-08-05T07:14:03.000Z</time>
        <extensions>
          <ns3:TrackPointExtension>
            <ns3:hr>82</ns3:hr>
            <ns3:cad>51</ns3:cad>
          </ns3:TrackPointExtension>
        </extensions>
      </trkpt>
      <trkpt lat="43.45691165886819362640380859375" lon="1.46561876870691776275634765625">
        <ele>239</ele>
        <time>2026-08-05T07:14:04.000Z</time>
        <extensions>
          <ns3:TrackPointExtension>
            <ns3:hr>81</ns3:hr>
            <ns3:cad>47</ns3:cad>
          </ns3:TrackPointExtension>
        </extensions>
      </trkpt>
      <trkpt lat="43.4569088928401470184326171875" lon="1.46563368849456310272216796875">
        <ele>239</ele>
        <time>2026-08-05T07:14:05.000Z</time>
        <extensions>
          <ns3:TrackPointExtension>
            <ns3:hr>81</ns3:hr>
            <ns3:cad>47</ns3:cad>
          </ns3:TrackPointExtension>
        </extensions>
      </trkpt>
      <trkpt lat="43.4569098986685276031494140625" lon="1.4656490273773670196533203125">
        <ele>239</ele>
        <time>2026-08-05T07:14:06.000Z</time>
        <extensions>
          <ns3:TrackPointExtension>
            <ns3:hr>80</ns3:hr>
            <ns3:cad>46</ns3:cad>
          </ns3:TrackPointExtension>
        </extensions>
      </trkpt>
      <trkpt lat="43.4569082222878932952880859375" lon="1.46566570736467838287353515625">
        <ele>239</ele>
        <time>2026-08-05T07:14:07.000Z</time>
        <extensions>
          <ns3:TrackPointExtension>
            <ns3:hr>80</ns3:hr>
            <ns3:cad>46</ns3:cad>
          </ns3:TrackPointExtension>
        </extensions>
      </trkpt>
      <trkpt lat="43.4569065459072589874267578125" lon="1.465679705142974853515625">
        <ele>239.1999969482421875</ele>
        <time>2026-08-05T07:14:08.000Z</time>
        <extensions>
          <ns3:TrackPointExtension>
            <ns3:hr>80</ns3:hr>
            <ns3:cad>46</ns3:cad>
          </ns3:TrackPointExtension>
        </extensions>
      </trkpt>
      <trkpt lat="43.456904701888561248779296875" lon="1.4656942896544933319091796875">
        <ele>239.1999969482421875</ele>
        <time>2026-08-05T07:14:09.000Z</time>
        <extensions>
          <ns3:TrackPointExtension>
            <ns3:hr>80</ns3:hr>
            <ns3:cad>46</ns3:cad>
          </ns3:TrackPointExtension>
        </extensions>
      </trkpt>
      <trkpt lat="43.45690143294632434844970703125" lon="1.46570694632828235626220703125">
        <ele>239.1999969482421875</ele>
        <time>2026-08-05T07:14:10.000Z</time>
        <extensions>
          <ns3:TrackPointExtension>
            <ns3:hr>79</ns3:hr>
            <ns3:cad>46</ns3:cad>
          </ns3:TrackPointExtension>
        </extensions>
      </trkpt>
      <trkpt lat="43.4568984992802143096923828125" lon="1.4657199382781982421875">
        <ele>239.399993896484375</ele>
        <time>2026-08-05T07:14:11.000Z</time>
        <extensions>
          <ns3:TrackPointExtension>
            <ns3:hr>80</ns3:hr>
            <ns3:cad>46</ns3:cad>
          </ns3:TrackPointExtension>
        </extensions>
      </trkpt>
      <trkpt lat="43.45689640380442142486572265625" lon="1.46573410369455814361572265625">
        <ele>239.399993896484375</ele>
        <time>2026-08-05T07:14:12.000Z</time>
        <extensions>
          <ns3:TrackPointExtension>
            <ns3:hr>81</ns3:hr>
            <ns3:cad>47</ns3:cad>
          </ns3:TrackPointExtension>
        </extensions>
      </trkpt>
      <trkpt lat="43.45689305104315280914306640625" lon="1.4657459221780300140380859375">
        <ele>239.399993896484375</ele>
        <time>2026-08-05T07:14:13.000Z</time>
        <extensions>
          <ns3:TrackPointExtension>
            <ns3:hr>82</ns3:hr>
            <ns3:cad>47</ns3:cad>
          </ns3:TrackPointExtension>
        </extensions>
      </trkpt>
      <trkpt lat="43.4568897821009159088134765625" lon="1.46575547754764556884765625">
        <ele>239.399993896484375</ele>
        <time>2026-08-05T07:14:14.000Z</time>
        <extensions>
          <ns3:TrackPointExtension>
            <ns3:hr>82</ns3:hr>
            <ns3:cad>47</ns3:cad>
          </ns3:TrackPointExtension>
        </extensions>
      </trkpt>
      <trkpt lat="43.456885255873203277587890625" lon="1.46576411090791225433349609375">
        <ele>239.600006103515625</ele>
        <time>2026-08-05T07:14:15.000Z</time>
        <extensions>
          <ns3:TrackPointExtension>
            <ns3:hr>82</ns3:hr>
            <ns3:cad>47</ns3:cad>
          </ns3:TrackPointExtension>
        </extensions>
      </trkpt>
      <trkpt lat="43.45688290894031524658203125" lon="1.4657734148204326629638671875">
        <ele>239.600006103515625</ele>
        <time>2026-08-05T07:14:16.000Z</time>
        <extensions>
          <ns3:TrackPointExtension>
            <ns3:hr>82</ns3:hr>
            <ns3:cad>0</ns3:cad>
          </ns3:TrackPointExtension>
        </extensions>
      </trkpt>
      <trkpt lat="43.456879220902919769287109375" lon="1.46578104235231876373291015625">
        <ele>239.600006103515625</ele>
        <time>2026-08-05T07:14:17.000Z</time>
        <extensions>
          <ns3:TrackPointExtension>
            <ns3:hr>83</ns3:hr>
            <ns3:cad>0</ns3:cad>
          </ns3:TrackPointExtension>
        </extensions>
      </trkpt>
      <trkpt lat="43.45687746070325374603271484375" lon="1.46579210646450519561767578125">
        <ele>239.600006103515625</ele>
        <time>2026-08-05T07:14:18.000Z</time>
        <extensions>
          <ns3:TrackPointExtension>
            <ns3:hr>82</ns3:hr>
            <ns3:cad>0</ns3:cad>
          </ns3:TrackPointExtension>
        </extensions>
      </trkpt>
      <trkpt lat="43.4568728506565093994140625" lon="1.46580417640507221221923828125">
        <ele>239.600006103515625</ele>
        <time>2026-08-05T07:14:19.000Z</time>
        <extensions>
          <ns3:TrackPointExtension>
            <ns3:hr>82</ns3:hr>
            <ns3:cad>41</ns3:cad>
          </ns3:TrackPointExtension>
        </extensions>
      </trkpt>
      <trkpt lat="43.45686874352395534515380859375" lon="1.4658159948885440826416015625">
        <ele>239.600006103515625</ele>
        <time>2026-08-05T07:14:20.000Z</time>
        <extensions>
          <ns3:TrackPointExtension>
            <ns3:hr>81</ns3:hr>
            <ns3:cad>41</ns3:cad>
          </ns3:TrackPointExtension>
        </extensions>
      </trkpt>
      <trkpt lat="43.456863127648830413818359375" lon="1.46582865156233310699462890625">
        <ele>239.600006103515625</ele>
        <time>2026-08-05T07:14:21.000Z</time>
        <extensions>
          <ns3:TrackPointExtension>
            <ns3:hr>81</ns3:hr>
            <ns3:cad>41</ns3:cad>
          </ns3:TrackPointExtension>
        </extensions>
      </trkpt>
      <trkpt lat="43.45685700885951519012451171875" lon="1.46584390662610530853271484375">
        <ele>239.600006103515625</ele>
        <time>2026-08-05T07:14:22.000Z</time>
        <extensions>
          <ns3:TrackPointExtension>
            <ns3:hr>81</ns3:hr>
            <ns3:cad>41</ns3:cad>
          </ns3:TrackPointExtension>
        </extensions>
      </trkpt>
      <trkpt lat="43.456852398812770843505859375" lon="1.4658589102327823638916015625">
        <ele>239.8000030517578125</ele>
        <time>2026-08-05T07:14:23.000Z</time>
        <extensions>
          <ns3:TrackPointExtension>
            <ns3:hr>81</ns3:hr>
            <ns3:cad>44</ns3:cad>
          </ns3:TrackPointExtension>
        </extensions>
      </trkpt>
      <trkpt lat="43.45684980042278766632080078125" lon="1.46587173454463481903076171875">
        <ele>239.8000030517578125</ele>
        <time>2026-08-05T07:14:24.000Z</time>
        <extensions>
          <ns3:TrackPointExtension>
            <ns3:hr>82</ns3:hr>
            <ns3:cad>44</ns3:cad>
          </ns3:TrackPointExtension>
        </extensions>
      </trkpt>
      <trkpt lat="43.456843011081218719482421875" lon="1.46588288247585296630859375">
        <ele>239.8000030517578125</ele>
        <time>2026-08-05T07:14:25.000Z</time>
        <extensions>
          <ns3:TrackPointExtension>
            <ns3:hr>82</ns3:hr>
            <ns3:cad>44</ns3:cad>
          </ns3:TrackPointExtension>
        </extensions>
      </trkpt>
      <trkpt lat="43.4568384848535060882568359375" lon="1.4658951200544834136962890625">
        <ele>240</ele>
        <time>2026-08-05T07:14:26.000Z</time>
        <extensions>
          <ns3:TrackPointExtension>
            <ns3:hr>83</ns3:hr>
            <ns3:cad>44</ns3:cad>
          </ns3:TrackPointExtension>
        </extensions>
      </trkpt>
      <trkpt lat="43.45683504827320575714111328125" lon="1.46590559743344783782958984375">
        <ele>240</ele>
        <time>2026-08-05T07:14:27.000Z</time>
        <extensions>
          <ns3:TrackPointExtension>
            <ns3:hr>84</ns3:hr>
            <ns3:cad>44</ns3:cad>
          </ns3:TrackPointExtension>
        </extensions>
      </trkpt>
      <trkpt lat="43.45683068968355655670166015625" lon="1.4659128896892070770263671875">
        <ele>240</ele>
        <time>2026-08-05T07:14:28.000Z</time>
        <extensions>
          <ns3:TrackPointExtension>
            <ns3:hr>85</ns3:hr>
            <ns3:cad>45</ns3:cad>
          </ns3:TrackPointExtension>
        </extensions>
      </trkpt>
      <trkpt lat="43.4568254090845584869384765625" lon="1.4659251272678375244140625">
        <ele>240</ele>
        <time>2026-08-05T07:14:29.000Z</time>
        <extensions>
          <ns3:TrackPointExtension>
            <ns3:hr>86</ns3:hr>
            <ns3:cad>46</ns3:cad>
          </ns3:TrackPointExtension>
        </extensions>
      </trkpt>
      <trkpt lat="43.45682247541844844818115234375" lon="1.4659377001225948333740234375">
        <ele>240</ele>
        <time>2026-08-05T07:14:30.000Z</time>
        <extensions>
          <ns3:TrackPointExtension>
            <ns3:hr>88</ns3:hr>
            <ns3:cad>46</ns3:cad>
          </ns3:TrackPointExtension>
        </extensions>
      </trkpt>
      <trkpt lat="43.45681987702846527099609375" lon="1.4659492671489715576171875">
        <ele>240</ele>
        <time>2026-08-05T07:14:31.000Z</time>
        <extensions>
          <ns3:TrackPointExtension>
            <ns3:hr>88</ns3:hr>
            <ns3:cad>44</ns3:cad>
          </ns3:TrackPointExtension>
        </extensions>
      </trkpt>
      <trkpt lat="43.4568187035620212554931640625" lon="1.46595840342342853546142578125">
        <ele>240.1999969482421875</ele>
        <time>2026-08-05T07:14:32.000Z</time>
        <extensions>
          <ns3:TrackPointExtension>
            <ns3:hr>88</ns3:hr>
            <ns3:cad>42</ns3:cad>
          </ns3:TrackPointExtension>
        </extensions>
      </trkpt>
      <trkpt lat="43.45681317150592803955078125" lon="1.46597265265882015228271484375">
        <ele>240.1999969482421875</ele>
        <time>2026-08-05T07:14:33.000Z</time>
        <extensions>
          <ns3:TrackPointExtension>
            <ns3:hr>88</ns3:hr>
            <ns3:cad>42</ns3:cad>
          </ns3:TrackPointExtension>
        </extensions>
      </trkpt>
      <trkpt lat="43.4568093158304691314697265625" lon="1.46598589606583118438720703125">
        <ele>240.1999969482421875</ele>
        <time>2026-08-05T07:14:34.000Z</time>
        <extensions>
          <ns3:TrackPointExtension>
            <ns3:hr>88</ns3:hr>
            <ns3:cad>42</ns3:cad>
          </ns3:TrackPointExtension>
        </extensions>
      </trkpt>
      <trkpt lat="43.45680654980242252349853515625" lon="1.46600081585347652435302734375">
        <ele>240.1999969482421875</ele>
        <time>2026-08-05T07:14:35.000Z</time>
        <extensions>
          <ns3:TrackPointExtension>
            <ns3:hr>88</ns3:hr>
            <ns3:cad>42</ns3:cad>
          </ns3:TrackPointExtension>
        </extensions>
      </trkpt>
      <trkpt lat="43.45680235885083675384521484375" lon="1.466015987098217010498046875">
        <ele>240.399993896484375</ele>
        <time>2026-08-05T07:14:36.000Z</time>
        <extensions>
          <ns3:TrackPointExtension>
            <ns3:hr>88</ns3:hr>
            <ns3:cad>43</ns3:cad>
          </ns3:TrackPointExtension>
        </extensions>
      </trkpt>
      <trkpt lat="43.45679598860442638397216796875" lon="1.4660315774381160736083984375">
        <ele>240.399993896484375</ele>
        <time>2026-08-05T07:14:37.000Z</time>
        <extensions>
          <ns3:TrackPointExtension>
            <ns3:hr>88</ns3:hr>
            <ns3:cad>43</ns3:cad>
          </ns3:TrackPointExtension>
        </extensions>
      </trkpt>
      <trkpt lat="43.4567898698151111602783203125" lon="1.4660423062741756439208984375">
        <ele>240.399993896484375</ele>
        <time>2026-08-05T07:14:38.000Z</time>
        <extensions>
          <ns3:TrackPointExtension>
            <ns3:hr>88</ns3:hr>
            <ns3:cad>43</ns3:cad>
          </ns3:TrackPointExtension>
        </extensions>
      </trkpt>
      <trkpt lat="43.45678945071995258331298828125" lon="1.4660493470728397369384765625">
        <ele>240.399993896484375</ele>
        <time>2026-08-05T07:14:39.000Z</time>
        <extensions>
          <ns3:TrackPointExtension>
            <ns3:hr>87</ns3:hr>
            <ns3:cad>44</ns3:cad>
          </ns3:TrackPointExtension>
        </extensions>
      </trkpt>
      <trkpt lat="43.45678609795868396759033203125" lon="1.4660604111850261688232421875">
        <ele>240.600006103515625</ele>
        <time>2026-08-05T07:14:40.000Z</time>
        <extensions>
          <ns3:TrackPointExtension>
            <ns3:hr>88</ns3:hr>
            <ns3:cad>44</ns3:cad>
          </ns3:TrackPointExtension>
        </extensions>
      </trkpt>
      <trkpt lat="43.4567794762551784515380859375" lon="1.46607088856399059295654296875">
        <ele>240.600006103515625</ele>
        <time>2026-08-05T07:14:41.000Z</time>
        <extensions>
          <ns3:TrackPointExtension>
            <ns3:hr>88</ns3:hr>
            <ns3:cad>44</ns3:cad>
          </ns3:TrackPointExtension>
        </extensions>
      </trkpt>
      <trkpt lat="43.456774614751338958740234375" lon="1.4660788513720035552978515625">
        <ele>240.600006103515625</ele>
        <time>2026-08-05T07:14:42.000Z</time>
        <extensions>
          <ns3:TrackPointExtension>
            <ns3:hr>88</ns3:hr>
            <ns3:cad>44</ns3:cad>
          </ns3:TrackPointExtension>
        </extensions>
      </trkpt>
      <trkpt lat="43.456769250333309173583984375" lon="1.46609008312225341796875">
        <ele>240.600006103515625</ele>
        <time>2026-08-05T07:14:43.000Z</time>
        <extensions>
          <ns3:TrackPointExtension>
            <ns3:hr>87</ns3:hr>
            <ns3:cad>44</ns3:cad>
          </ns3:TrackPointExtension>
        </extensions>
      </trkpt>
      <trkpt lat="43.456763215363025665283203125" lon="1.46610558964312076568603515625">
        <ele>240.8000030517578125</ele>
        <time>2026-08-05T07:14:44.000Z</time>
        <extensions>
          <ns3:TrackPointExtension>
            <ns3:hr>87</ns3:hr>
            <ns3:cad>44</ns3:cad>
          </ns3:TrackPointExtension>
        </extensions>
      </trkpt>
      <trkpt lat="43.45675843767821788787841796875" lon="1.4661180786788463592529296875">
        <ele>240.8000030517578125</ele>
        <time>2026-08-05T07:14:45.000Z</time>
        <extensions>
          <ns3:TrackPointExtension>
            <ns3:hr>87</ns3:hr>
            <ns3:cad>43</ns3:cad>
          </ns3:TrackPointExtension>
        </extensions>
      </trkpt>
      <trkpt lat="43.45675273798406124114990234375" lon="1.46612830460071563720703125">
        <ele>240.8000030517578125</ele>
        <time>2026-08-05T07:14:46.000Z</time>
        <extensions>
          <ns3:TrackPointExtension>
            <ns3:hr>88</ns3:hr>
            <ns3:cad>42</ns3:cad>
          </ns3:TrackPointExtension>
        </extensions>
      </trkpt>
      <trkpt lat="43.45674620009958744049072265625" lon="1.4661397039890289306640625">
        <ele>241</ele>
        <time>2026-08-05T07:14:47.000Z</time>
        <extensions>
          <ns3:TrackPointExtension>
            <ns3:hr>88</ns3:hr>
            <ns3:cad>42</ns3:cad>
          </ns3:TrackPointExtension>
        </extensions>
      </trkpt>
      <trkpt lat="43.4567405842244625091552734375" lon="1.46615453995764255523681640625">
        <ele>241</ele>
        <time>2026-08-05T07:14:48.000Z</time>
        <extensions>
          <ns3:TrackPointExtension>
            <ns3:hr>88</ns3:hr>
            <ns3:cad>42</ns3:cad>
          </ns3:TrackPointExtension>
        </extensions>
      </trkpt>
      <trkpt lat="43.45673672854900360107421875" lon="1.4661665260791778564453125">
        <ele>241</ele>
        <time>2026-08-05T07:14:49.000Z</time>
        <extensions>
          <ns3:TrackPointExtension>
            <ns3:hr>88</ns3:hr>
            <ns3:cad>44</ns3:cad>
          </ns3:TrackPointExtension>
        </extensions>
      </trkpt>
      <trkpt lat="43.45673278905451297760009765625" lon="1.4661780931055545806884765625">
        <ele>241.1999969482421875</ele>
        <time>2026-08-05T07:14:50.000Z</time>
        <extensions>
          <ns3:TrackPointExtension>
            <ns3:hr>88</ns3:hr>
            <ns3:cad>44</ns3:cad>
          </ns3:TrackPointExtension>
        </extensions>
      </trkpt>
      <trkpt lat="43.45672809518873691558837890625" lon="1.46618857048451900482177734375">
        <ele>241.1999969482421875</ele>
        <time>2026-08-05T07:14:51.000Z</time>
        <extensions>
          <ns3:TrackPointExtension>
            <ns3:hr>89</ns3:hr>
            <ns3:cad>45</ns3:cad>
          </ns3:TrackPointExtension>
        </extensions>
      </trkpt>
      <trkpt lat="43.45672331750392913818359375" lon="1.466201059520244598388671875">
        <ele>241.399993896484375</ele>
        <time>2026-08-05T07:14:52.000Z</time>
        <extensions>
          <ns3:TrackPointExtension>
            <ns3:hr>89</ns3:hr>
            <ns3:cad>45</ns3:cad>
          </ns3:TrackPointExtension>
        </extensions>
      </trkpt>
      <trkpt lat="43.456719629466533660888671875" lon="1.46621019579470157623291015625">
        <ele>241.399993896484375</ele>
        <time>2026-08-05T07:14:53.000Z</time>
        <extensions>
          <ns3:TrackPointExtension>
            <ns3:hr>89</ns3:hr>
            <ns3:cad>44</ns3:cad>
          </ns3:TrackPointExtension>
        </extensions>
      </trkpt>
      <trkpt lat="43.45671820454299449920654296875" lon="1.4662169851362705230712890625">
        <ele>241.399993896484375</ele>
        <time>2026-08-05T07:14:54.000Z</time>
        <extensions>
          <ns3:TrackPointExtension>
            <ns3:hr>89</ns3:hr>
            <ns3:cad>44</ns3:cad>
          </ns3:TrackPointExtension>
        </extensions>
      </trkpt>
      <trkpt lat="43.45671401359140872955322265625" lon="1.46622980944812297821044921875">
        <ele>241.399993896484375</ele>
        <time>2026-08-05T07:14:55.000Z</time>
        <extensions>
          <ns3:TrackPointExtension>
            <ns3:hr>89</ns3:hr>
            <ns3:cad>44</ns3:cad>
          </ns3:TrackPointExtension>
        </extensions>
      </trkpt>
      <trkpt lat="43.456710241734981536865234375" lon="1.46623835898935794830322265625">
        <ele>241.600006103515625</ele>
        <time>2026-08-05T07:14:56.000Z</time>
        <extensions>
          <ns3:TrackPointExtension>
            <ns3:hr>88</ns3:hr>
            <ns3:cad>44</ns3:cad>
          </ns3:TrackPointExtension>
        </extensions>
      </trkpt>
      <trkpt lat="43.45670328475534915924072265625" lon="1.466252021491527557373046875">
        <ele>241.600006103515625</ele>
        <time>2026-08-05T07:14:57.000Z</time>
        <extensions>
          <ns3:TrackPointExtension>
            <ns3:hr>89</ns3:hr>
            <ns3:cad>43</ns3:cad>
          </ns3:TrackPointExtension>
        </extensions>
      </trkpt>
      <trkpt lat="43.45669875852763652801513671875" lon="1.46626031957566738128662109375">
        <ele>241.600006103515625</ele>
        <time>2026-08-05T07:14:58.000Z</time>
        <extensions>
          <ns3:TrackPointExtension>
            <ns3:hr>89</ns3:hr>
            <ns3:cad>42</ns3:cad>
          </ns3:TrackPointExtension>
        </extensions>
      </trkpt>
      <trkpt lat="43.4566963277757167816162109375" lon="1.46627180278301239013671875">
        <ele>241.600006103515625</ele>
        <time>2026-08-05T07:14:59.000Z</time>
        <extensions>
          <ns3:TrackPointExtension>
            <ns3:hr>89</ns3:hr>
            <ns3:cad>41</ns3:cad>
          </ns3:TrackPointExtension>
        </extensions>
      </trkpt>
      <trkpt lat="43.45669289119541645050048828125" lon="1.46628261543810367584228515625">
        <ele>241.8000030517578125</ele>
        <time>2026-08-05T07:15:00.000Z</time>
        <extensions>
          <ns3:TrackPointExtension>
            <ns3:hr>88</ns3:hr>
            <ns3:cad>41</ns3:cad>
          </ns3:TrackPointExtension>
        </extensions>
      </trkpt>
      <trkpt lat="43.45668836496770381927490234375" lon="1.4662914164364337921142578125">
        <ele>241.8000030517578125</ele>
        <time>2026-08-05T07:15:01.000Z</time>
        <extensions>
          <ns3:TrackPointExtension>
            <ns3:hr>89</ns3:hr>
            <ns3:cad>41</ns3:cad>
          </ns3:TrackPointExtension>
        </extensions>
      </trkpt>
      <trkpt lat="43.456682078540325164794921875" lon="1.46630667150020599365234375">
        <ele>242</ele>
        <time>2026-08-05T07:15:02.000Z</time>
        <extensions>
          <ns3:TrackPointExtension>
            <ns3:hr>89</ns3:hr>
            <ns3:cad>46</ns3:cad>
          </ns3:TrackPointExtension>
        </extensions>
      </trkpt>
      <trkpt lat="43.45667646266520023345947265625" lon="1.46632184274494647979736328125">
        <ele>242</ele>
        <time>2026-08-05T07:15:03.000Z</time>
        <extensions>
          <ns3:TrackPointExtension>
            <ns3:hr>88</ns3:hr>
            <ns3:cad>46</ns3:cad>
          </ns3:TrackPointExtension>
        </extensions>
      </trkpt>
      <trkpt lat="43.45667109824717044830322265625" lon="1.466336511075496673583984375">
        <ele>242</ele>
        <time>2026-08-05T07:15:04.000Z</time>
        <extensions>
          <ns3:TrackPointExtension>
            <ns3:hr>89</ns3:hr>
            <ns3:cad>46</ns3:cad>
          </ns3:TrackPointExtension>
        </extensions>
      </trkpt>
      <trkpt lat="43.45666372217237949371337890625" lon="1.46634832955896854400634765625">
        <ele>242.1999969482421875</ele>
        <time>2026-08-05T07:15:05.000Z</time>
        <extensions>
          <ns3:TrackPointExtension>
            <ns3:hr>89</ns3:hr>
            <ns3:cad>46</ns3:cad>
          </ns3:TrackPointExtension>
        </extensions>
      </trkpt>
      <trkpt lat="43.456659279763698577880859375" lon="1.466358639299869537353515625">
        <ele>242.1999969482421875</ele>
        <time>2026-08-05T07:15:06.000Z</time>
        <extensions>
          <ns3:TrackPointExtension>
            <ns3:hr>88</ns3:hr>
            <ns3:cad>46</ns3:cad>
          </ns3:TrackPointExtension>
        </extensions>
      </trkpt>
      <trkpt lat="43.45665584318339824676513671875" lon="1.46636760793626308441162109375">
        <ele>242.1999969482421875</ele>
        <time>2026-08-05T07:15:07.000Z</time>
        <extensions>
          <ns3:TrackPointExtension>
            <ns3:hr>89</ns3:hr>
            <ns3:cad>45</ns3:cad>
          </ns3:TrackPointExtension>
        </extensions>
      </trkpt>
      <trkpt lat="43.4566503949463367462158203125" lon="1.46637766622006893157958984375">
        <ele>242.399993896484375</ele>
        <time>2026-08-05T07:15:08.000Z</time>
        <extensions>
          <ns3:TrackPointExtension>
            <ns3:hr>89</ns3:hr>
            <ns3:cad>44</ns3:cad>
          </ns3:TrackPointExtension>
        </extensions>
      </trkpt>
      <trkpt lat="43.4566483832895755767822265625" lon="1.4663839526474475860595703125">
        <ele>242.399993896484375</ele>
        <time>2026-08-05T07:15:09.000Z</time>
        <extensions>
          <ns3:TrackPointExtension>
            <ns3:hr>89</ns3:hr>
            <ns3:cad>44</ns3:cad>
          </ns3:TrackPointExtension>
        </extensions>
      </trkpt>
      <trkpt lat="43.45664377324283123016357421875" lon="1.46639426238834857940673828125">
        <ele>242.600006103515625</ele>
        <time>2026-08-05T07:15:10.000Z</time>
        <extensions>
          <ns3:TrackPointExtension>
            <ns3:hr>90</ns3:hr>
            <ns3:cad>43</ns3:cad>
          </ns3:TrackPointExtension>
        </extensions>
      </trkpt>
      <trkpt lat="43.4566394984722137451171875" lon="1.4664064161479473114013671875">
        <ele>242.600006103515625</ele>
        <time>2026-08-05T07:15:11.000Z</time>
        <extensions>
          <ns3:TrackPointExtension>
            <ns3:hr>90</ns3:hr>
            <ns3:cad>43</ns3:cad>
          </ns3:TrackPointExtension>
        </extensions>
      </trkpt>
      <trkpt lat="43.4566363133490085601806640625" lon="1.4664171449840068817138671875">
        <ele>242.8000030517578125</ele>
        <time>2026-08-05T07:15:12.000Z</time>
        <extensions>
          <ns3:TrackPointExtension>
            <ns3:hr>90</ns3:hr>
            <ns3:cad>43</ns3:cad>
          </ns3:TrackPointExtension>
        </extensions>
      </trkpt>
      <trkpt lat="43.4566326253116130828857421875" lon="1.46642209030687808990478515625">
        <ele>242.8000030517578125</ele>
        <time>2026-08-05T07:15:13.000Z</time>
        <extensions>
          <ns3:TrackPointExtension>
            <ns3:hr>90</ns3:hr>
            <ns3:cad>42</ns3:cad>
          </ns3:TrackPointExtension>
        </extensions>
      </trkpt>
      <trkpt lat="43.45662801526486873626708984375" lon="1.466436423361301422119140625">
        <ele>242.8000030517578125</ele>
        <time>2026-08-05T07:15:14.000Z</time>
        <extensions>
          <ns3:TrackPointExtension>
            <ns3:hr>90</ns3:hr>
            <ns3:cad>41</ns3:cad>
          </ns3:TrackPointExtension>
        </extensions>
      </trkpt>
      <trkpt lat="43.45662516541779041290283203125" lon="1.46644840948283672332763671875">
        <ele>243</ele>
        <time>2026-08-05T07:15:15.000Z</time>
        <extensions>
          <ns3:TrackPointExtension>
            <ns3:hr>91</ns3:hr>
            <ns3:cad>41</ns3:cad>
          </ns3:TrackPointExtension>
        </extensions>
      </trkpt>
      <trkpt lat="43.45661661587655544281005859375" lon="1.4664614014327526092529296875">
        <ele>243</ele>
        <time>2026-08-05T07:15:16.000Z</time>
        <extensions>
          <ns3:TrackPointExtension>
            <ns3:hr>91</ns3:hr>
            <ns3:cad>41</ns3:cad>
          </ns3:TrackPointExtension>
        </extensions>
      </trkpt>
      <trkpt lat="43.456609658896923065185546875" lon="1.4664751477539539337158203125">
        <ele>243.1999969482421875</ele>
        <time>2026-08-05T07:15:17.000Z</time>
        <extensions>
          <ns3:TrackPointExtension>
            <ns3:hr>91</ns3:hr>
            <ns3:cad>47</ns3:cad>
          </ns3:TrackPointExtension>
        </extensions>
      </trkpt>
      <trkpt lat="43.45660454593598842620849609375" lon="1.4664905704557895660400390625">
        <ele>243.1999969482421875</ele>
        <time>2026-08-05T07:15:18.000Z</time>
        <extensions>
          <ns3:TrackPointExtension>
            <ns3:hr>91</ns3:hr>
            <ns3:cad>47</ns3:cad>
          </ns3:TrackPointExtension>
        </extensions>
      </trkpt>
      <trkpt lat="43.4566011093556880950927734375" lon="1.46650373004376888275146484375">
        <ele>243.1999969482421875</ele>
        <time>2026-08-05T07:15:19.000Z</time>
        <extensions>
          <ns3:TrackPointExtension>
            <ns3:hr>91</ns3:hr>
            <ns3:cad>42</ns3:cad>
          </ns3:TrackPointExtension>
        </extensions>
      </trkpt>
      <trkpt lat="43.45659666694700717926025390625" lon="1.46651546470820903778076171875">
        <ele>243.399993896484375</ele>
        <time>2026-08-05T07:15:20.000Z</time>
        <extensions>
          <ns3:TrackPointExtension>
            <ns3:hr>91</ns3:hr>
            <ns3:cad>42</ns3:cad>
          </ns3:TrackPointExtension>
        </extensions>
      </trkpt>
      <trkpt lat="43.45659180544316768646240234375" lon="1.46652770228683948516845703125">
        <ele>243.399993896484375</ele>
        <time>2026-08-05T07:15:21.000Z</time>
        <extensions>
          <ns3:TrackPointExtension>
            <ns3:hr>91</ns3:hr>
            <ns3:cad>43</ns3:cad>
          </ns3:TrackPointExtension>
        </extensions>
      </trkpt>
      <trkpt lat="43.45658711157739162445068359375" lon="1.4665388502180576324462890625">
        <ele>243.399993896484375</ele>
        <time>2026-08-05T07:15:22.000Z</time>
        <extensions>
          <ns3:TrackPointExtension>
            <ns3:hr>92</ns3:hr>
            <ns3:cad>44</ns3:cad>
          </ns3:TrackPointExtension>
        </extensions>
      </trkpt>
      <trkpt lat="43.45658442936837673187255859375" lon="1.4665465615689754486083984375">
        <ele>243.399993896484375</ele>
        <time>2026-08-05T07:15:23.000Z</time>
        <extensions>
          <ns3:TrackPointExtension>
            <ns3:hr>92</ns3:hr>
            <ns3:cad>44</ns3:cad>
          </ns3:TrackPointExtension>
        </extensions>
      </trkpt>
      <trkpt lat="43.45657889731228351593017578125" lon="1.46655620075762271881103515625">
        <ele>243.600006103515625</ele>
        <time>2026-08-05T07:15:24.000Z</time>
        <extensions>
          <ns3:TrackPointExtension>
            <ns3:hr>92</ns3:hr>
            <ns3:cad>44</ns3:cad>
          </ns3:TrackPointExtension>
        </extensions>
      </trkpt>
      <trkpt lat="43.45657386817038059234619140625" lon="1.46657028235495090484619140625">
        <ele>243.600006103515625</ele>
        <time>2026-08-05T07:15:25.000Z</time>
        <extensions>
          <ns3:TrackPointExtension>
            <ns3:hr>92</ns3:hr>
            <ns3:cad>44</ns3:cad>
          </ns3:TrackPointExtension>
        </extensions>
      </trkpt>
      <trkpt lat="43.456570766866207122802734375" lon="1.4665782451629638671875">
        <ele>243.8000030517578125</ele>
        <time>2026-08-05T07:15:26.000Z</time>
        <extensions>
          <ns3:TrackPointExtension>
            <ns3:hr>92</ns3:hr>
            <ns3:cad>44</ns3:cad>
          </ns3:TrackPointExtension>
        </extensions>
      </trkpt>
      <trkpt lat="43.4565655700862407684326171875" lon="1.46658721379935741424560546875">
        <ele>243.8000030517578125</ele>
        <time>2026-08-05T07:15:27.000Z</time>
        <extensions>
          <ns3:TrackPointExtension>
            <ns3:hr>92</ns3:hr>
            <ns3:cad>43</ns3:cad>
          </ns3:TrackPointExtension>
        </extensions>
      </trkpt>
      <trkpt lat="43.456560708582401275634765625" lon="1.4665978588163852691650390625">
        <ele>243.8000030517578125</ele>
        <time>2026-08-05T07:15:28.000Z</time>
        <extensions>
          <ns3:TrackPointExtension>
            <ns3:hr>92</ns3:hr>
            <ns3:cad>43</ns3:cad>
          </ns3:TrackPointExtension>
        </extensions>
      </trkpt>
      <trkpt lat="43.4565538354218006134033203125" lon="1.466610431671142578125">
        <ele>244</ele>
        <time>2026-08-05T07:15:29.000Z</time>
        <extensions>
          <ns3:TrackPointExtension>
            <ns3:hr>92</ns3:hr>
            <ns3:cad>43</ns3:cad>
          </ns3:TrackPointExtension>
        </extensions>
      </trkpt>
      <trkpt lat="43.45655123703181743621826171875" lon="1.46662308834493160247802734375">
        <ele>244</ele>
        <time>2026-08-05T07:15:30.000Z</time>
        <extensions>
          <ns3:TrackPointExtension>
            <ns3:hr>93</ns3:hr>
            <ns3:cad>44</ns3:cad>
          </ns3:TrackPointExtension>
        </extensions>
      </trkpt>
      <trkpt lat="43.4565494768321514129638671875" lon="1.4666359126567840576171875">
        <ele>244.1999969482421875</ele>
        <time>2026-08-05T07:15:31.000Z</time>
        <extensions>
          <ns3:TrackPointExtension>
            <ns3:hr>93</ns3:hr>
            <ns3:cad>44</ns3:cad>
          </ns3:TrackPointExtension>
        </extensions>
      </trkpt>
      <trkpt lat="43.456547968089580535888671875" lon="1.46665125153958797454833984375">
        <ele>244.1999969482421875</ele>
        <time>2026-08-05T07:15:32.000Z</time>
        <extensions>
          <ns3:TrackPointExtension>
            <ns3:hr>93</ns3:hr>
            <ns3:cad>44</ns3:cad>
          </ns3:TrackPointExtension>
        </extensions>
      </trkpt>
      <trkpt lat="43.4565437771379947662353515625" lon="1.4666659198701381683349609375">
        <ele>244.399993896484375</ele>
        <time>2026-08-05T07:15:33.000Z</time>
        <extensions>
          <ns3:TrackPointExtension>
            <ns3:hr>93</ns3:hr>
            <ns3:cad>44</ns3:cad>
          </ns3:TrackPointExtension>
        </extensions>
      </trkpt>
      <trkpt lat="43.4565384127199649810791015625" lon="1.46668016910552978515625">
        <ele>244.399993896484375</ele>
        <time>2026-08-05T07:15:34.000Z</time>
        <extensions>
          <ns3:TrackPointExtension>
            <ns3:hr>94</ns3:hr>
            <ns3:cad>47</ns3:cad>
          </ns3:TrackPointExtension>
        </extensions>
      </trkpt>
      <trkpt lat="43.45653145574033260345458984375" lon="1.46669500507414340972900390625">
        <ele>244.600006103515625</ele>
        <time>2026-08-05T07:15:35.000Z</time>
        <extensions>
          <ns3:TrackPointExtension>
            <ns3:hr>94</ns3:hr>
            <ns3:cad>48</ns3:cad>
          </ns3:TrackPointExtension>
        </extensions>
      </trkpt>
      <trkpt lat="43.45652349293231964111328125" lon="1.4667056500911712646484375">
        <ele>244.600006103515625</ele>
        <time>2026-08-05T07:15:36.000Z</time>
        <extensions>
          <ns3:TrackPointExtension>
            <ns3:hr>95</ns3:hr>
            <ns3:cad>48</ns3:cad>
          </ns3:TrackPointExtension>
        </extensions>
      </trkpt>
      <trkpt lat="43.4565161168575286865234375" lon="1.46672115661203861236572265625">
        <ele>244.600006103515625</ele>
        <time>2026-08-05T07:15:37.000Z</time>
        <extensions>
          <ns3:TrackPointExtension>
            <ns3:hr>95</ns3:hr>
            <ns3:cad>48</ns3:cad>
          </ns3:TrackPointExtension>
        </extensions>
      </trkpt>
      <trkpt lat="43.45651184208691120147705078125" lon="1.466732807457447052001953125">
        <ele>244.600006103515625</ele>
        <time>2026-08-05T07:15:38.000Z</time>
        <extensions>
          <ns3:TrackPointExtension>
            <ns3:hr>95</ns3:hr>
            <ns3:cad>45</ns3:cad>
          </ns3:TrackPointExtension>
        </extensions>
      </trkpt>
      <trkpt lat="43.4565072320401668548583984375" lon="1.4667406864464282989501953125">
        <ele>244.8000030517578125</ele>
        <time>2026-08-05T07:15:39.000Z</time>
        <extensions>
          <ns3:TrackPointExtension>
            <ns3:hr>95</ns3:hr>
            <ns3:cad>45</ns3:cad>
          </ns3:TrackPointExtension>
        </extensions>
      </trkpt>
      <trkpt lat="43.4565018676221370697021484375" lon="1.46675191819667816162109375">
        <ele>244.8000030517578125</ele>
        <time>2026-08-05T07:15:40.000Z</time>
        <extensions>
          <ns3:TrackPointExtension>
            <ns3:hr>96</ns3:hr>
            <ns3:cad>43</ns3:cad>
          </ns3:TrackPointExtension>
        </extensions>
      </trkpt>
      <trkpt lat="43.4564961679279804229736328125" lon="1.46676524542272090911865234375">
        <ele>244.8000030517578125</ele>
        <time>2026-08-05T07:15:41.000Z</time>
        <extensions>
          <ns3:TrackPointExtension>
            <ns3:hr>96</ns3:hr>
            <ns3:cad>43</ns3:cad>
          </ns3:TrackPointExtension>
        </extensions>
      </trkpt>
      <trkpt lat="43.4564918093383312225341796875" lon="1.466774381697177886962890625">
        <ele>245</ele>
        <time>2026-08-05T07:15:42.000Z</time>
        <extensions>
          <ns3:TrackPointExtension>
            <ns3:hr>96</ns3:hr>
            <ns3:cad>43</ns3:cad>
          </ns3:TrackPointExtension>
        </extensions>
      </trkpt>
      <trkpt lat="43.456487618386745452880859375" lon="1.4667839370667934417724609375">
        <ele>245</ele>
        <time>2026-08-05T07:15:43.000Z</time>
        <extensions>
          <ns3:TrackPointExtension>
            <ns3:hr>95</ns3:hr>
            <ns3:cad>43</ns3:cad>
          </ns3:TrackPointExtension>
        </extensions>
      </trkpt>
      <trkpt lat="43.45648284070193767547607421875" lon="1.466795504093170166015625">
        <ele>245.1999969482421875</ele>
        <time>2026-08-05T07:15:44.000Z</time>
        <extensions>
          <ns3:TrackPointExtension>
            <ns3:hr>96</ns3:hr>
            <ns3:cad>43</ns3:cad>
          </ns3:TrackPointExtension>
        </extensions>
      </trkpt>
      <trkpt lat="43.45648116432130336761474609375" lon="1.46680749021470546722412109375">
        <ele>245.1999969482421875</ele>
        <time>2026-08-05T07:15:45.000Z</time>
        <extensions>
          <ns3:TrackPointExtension>
            <ns3:hr>96</ns3:hr>
            <ns3:cad>43</ns3:cad>
          </ns3:TrackPointExtension>
        </extensions>
      </trkpt>
      <trkpt lat="43.4564770571887493133544921875" lon="1.4668156206607818603515625">
        <ele>245.399993896484375</ele>
        <time>2026-08-05T07:15:46.000Z</time>
        <extensions>
          <ns3:TrackPointExtension>
            <ns3:hr>96</ns3:hr>
            <ns3:cad>43</ns3:cad>
          </ns3:TrackPointExtension>
        </extensions>
      </trkpt>
      <trkpt lat="43.456472866237163543701171875" lon="1.46682626567780971527099609375">
        <ele>245.399993896484375</ele>
        <time>2026-08-05T07:15:47.000Z</time>
        <extensions>
          <ns3:TrackPointExtension>
            <ns3:hr>96</ns3:hr>
            <ns3:cad>42</ns3:cad>
          </ns3:TrackPointExtension>
        </extensions>
      </trkpt>
      <trkpt lat="43.45646909438073635101318359375" lon="1.46684118546545505523681640625">
        <ele>245.399993896484375</ele>
        <time>2026-08-05T07:15:48.000Z</time>
        <extensions>
          <ns3:TrackPointExtension>
            <ns3:hr>96</ns3:hr>
            <ns3:cad>42</ns3:cad>
          </ns3:TrackPointExtension>
        </extensions>
      </trkpt>
      <trkpt lat="43.45646473579108715057373046875" lon="1.46685208193957805633544921875">
        <ele>245.600006103515625</ele>
        <time>2026-08-05T07:15:49.000Z</time>
        <extensions>
          <ns3:TrackPointExtension>
            <ns3:hr>97</ns3:hr>
            <ns3:cad>42</ns3:cad>
          </ns3:TrackPointExtension>
        </extensions>
      </trkpt>
      <trkpt lat="43.45646046102046966552734375" lon="1.4668627269566059112548828125">
        <ele>245.600006103515625</ele>
        <time>2026-08-05T07:15:50.000Z</time>
        <extensions>
          <ns3:TrackPointExtension>
            <ns3:hr>97</ns3:hr>
            <ns3:cad>42</ns3:cad>
          </ns3:TrackPointExtension>
        </extensions>
      </trkpt>
      <trkpt lat="43.4564549289643764495849609375" lon="1.4668794907629489898681640625">
        <ele>245.8000030517578125</ele>
        <time>2026-08-05T07:15:51.000Z</time>
        <extensions>
          <ns3:TrackPointExtension>
            <ns3:hr>97</ns3:hr>
            <ns3:cad>43</ns3:cad>
          </ns3:TrackPointExtension>
        </extensions>
      </trkpt>
      <trkpt lat="43.4564498998224735260009765625" lon="1.4668929018080234527587890625">
        <ele>245.8000030517578125</ele>
        <time>2026-08-05T07:15:52.000Z</time>
        <extensions>
          <ns3:TrackPointExtension>
            <ns3:hr>97</ns3:hr>
            <ns3:cad>43</ns3:cad>
          </ns3:TrackPointExtension>
        </extensions>
      </trkpt>
      <trkpt lat="43.45644612796604633331298828125" lon="1.46690346300601959228515625">
        <ele>246</ele>
        <time>2026-08-05T07:15:53.000Z</time>
        <extensions>
          <ns3:TrackPointExtension>
            <ns3:hr>96</ns3:hr>
            <ns3:cad>42</ns3:cad>
          </ns3:TrackPointExtension>
        </extensions>
      </trkpt>
      <trkpt lat="43.45644093118607997894287109375" lon="1.4669146947562694549560546875">
        <ele>246</ele>
        <time>2026-08-05T07:15:54.000Z</time>
        <extensions>
          <ns3:TrackPointExtension>
            <ns3:hr>97</ns3:hr>
            <ns3:cad>42</ns3:cad>
          </ns3:TrackPointExtension>
        </extensions>
      </trkpt>
      <trkpt lat="43.45643640495836734771728515625" lon="1.4669270999729633331298828125">
        <ele>246.1999969482421875</ele>
        <time>2026-08-05T07:15:55.000Z</time>
        <extensions>
          <ns3:TrackPointExtension>
            <ns3:hr>97</ns3:hr>
            <ns3:cad>42</ns3:cad>
          </ns3:TrackPointExtension>
        </extensions>
      </trkpt>
      <trkpt lat="43.4564316272735595703125" lon="1.46693808026611804962158203125">
        <ele>246.1999969482421875</ele>
        <time>2026-08-05T07:15:56.000Z</time>
        <extensions>
          <ns3:TrackPointExtension>
            <ns3:hr>96</ns3:hr>
            <ns3:cad>42</ns3:cad>
          </ns3:TrackPointExtension>
        </extensions>
      </trkpt>
      <trkpt lat="43.45642693340778350830078125" lon="1.46694947965443134307861328125">
        <ele>246.399993896484375</ele>
        <time>2026-08-05T07:15:57.000Z</time>
        <extensions>
          <ns3:TrackPointExtension>
            <ns3:hr>97</ns3:hr>
            <ns3:cad>42</ns3:cad>
          </ns3:TrackPointExtension>
        </extensions>
      </trkpt>
      <trkpt lat="43.4564222395420074462890625" lon="1.466961801052093505859375">
        <ele>246.399993896484375</ele>
        <time>2026-08-05T07:15:58.000Z</time>
        <extensions>
          <ns3:TrackPointExtension>
            <ns3:hr>98</ns3:hr>
            <ns3:cad>42</ns3:cad>
          </ns3:TrackPointExtension>
        </extensions>
      </trkpt>
      <trkpt lat="43.4564183838665485382080078125" lon="1.46697093732655048370361328125">
        <ele>246.600006103515625</ele>
        <time>2026-08-05T07:15:59.000Z</time>
        <extensions>
          <ns3:TrackPointExtension>
            <ns3:hr>98</ns3:hr>
            <ns3:cad>41</ns3:cad>
          </ns3:TrackPointExtension>
        </extensions>
      </trkpt>
      <trkpt lat="43.45641461201012134552001953125" lon="1.4669800736010074615478515625">
        <ele>246.600006103515625</ele>
        <time>2026-08-05T07:16:00.000Z</time>
        <extensions>
          <ns3:TrackPointExtension>
            <ns3:hr>98</ns3:hr>
            <ns3:cad>41</ns3:cad>
          </ns3:TrackPointExtension>
        </extensions>
      </trkpt>
      <trkpt lat="43.45640941523015499114990234375" lon="1.4669901318848133087158203125">
        <ele>246.8000030517578125</ele>
        <time>2026-08-05T07:16:01.000Z</time>
        <extensions>
          <ns3:TrackPointExtension>
            <ns3:hr>98</ns3:hr>
            <ns3:cad>41</ns3:cad>
          </ns3:TrackPointExtension>
        </extensions>
      </trkpt>
      <trkpt lat="43.45640455372631549835205078125" lon="1.46700630895793437957763671875">
        <ele>246.8000030517578125</ele>
        <time>2026-08-05T07:16:02.000Z</time>
        <extensions>
          <ns3:TrackPointExtension>
            <ns3:hr>99</ns3:hr>
            <ns3:cad>43</ns3:cad>
          </ns3:TrackPointExtension>
        </extensions>
      </trkpt>
      <trkpt lat="43.45640036277472972869873046875" lon="1.46701812744140625">
        <ele>246.8000030517578125</ele>
        <time>2026-08-05T07:16:03.000Z</time>
        <extensions>
          <ns3:TrackPointExtension>
            <ns3:hr>99</ns3:hr>
            <ns3:cad>43</ns3:cad>
          </ns3:TrackPointExtension>
        </extensions>
      </trkpt>
      <trkpt lat="43.45639717765152454376220703125" lon="1.4670276828110218048095703125">
        <ele>247</ele>
        <time>2026-08-05T07:16:04.000Z</time>
        <extensions>
          <ns3:TrackPointExtension>
            <ns3:hr>99</ns3:hr>
            <ns3:cad>43</ns3:cad>
          </ns3:TrackPointExtension>
        </extensions>
      </trkpt>
      <trkpt lat="43.4563935734331607818603515625" lon="1.4670390821993350982666015625">
        <ele>247</ele>
        <time>2026-08-05T07:16:05.000Z</time>
        <extensions>
          <ns3:TrackPointExtension>
            <ns3:hr>99</ns3:hr>
            <ns3:cad>42</ns3:cad>
          </ns3:TrackPointExtension>
        </extensions>
      </trkpt>
      <trkpt lat="43.45639013685286045074462890625" lon="1.46704872138798236846923828125">
        <ele>247</ele>
        <time>2026-08-05T07:16:06.000Z</time>
        <extensions>
          <ns3:TrackPointExtension>
            <ns3:hr>99</ns3:hr>
            <ns3:cad>42</ns3:cad>
          </ns3:TrackPointExtension>
        </extensions>
      </trkpt>
      <trkpt lat="43.456385694444179534912109375" lon="1.467058025300502777099609375">
        <ele>247.1999969482421875</ele>
        <time>2026-08-05T07:16:07.000Z</time>
        <extensions>
          <ns3:TrackPointExtension>
            <ns3:hr>100</ns3:hr>
            <ns3:cad>42</ns3:cad>
          </ns3:TrackPointExtension>
        </extensions>
      </trkpt>
      <trkpt lat="43.45638267695903778076171875" lon="1.467069089412689208984375">
        <ele>247.1999969482421875</ele>
        <time>2026-08-05T07:16:08.000Z</time>
        <extensions>
          <ns3:TrackPointExtension>
            <ns3:hr>100</ns3:hr>
            <ns3:cad>43</ns3:cad>
          </ns3:TrackPointExtension>
        </extensions>
      </trkpt>
      <trkpt lat="43.45637789927423000335693359375" lon="1.46708040498197078704833984375">
        <ele>247.399993896484375</ele>
        <time>2026-08-05T07:16:09.000Z</time>
        <extensions>
          <ns3:TrackPointExtension>
            <ns3:hr>100</ns3:hr>
            <ns3:cad>43</ns3:cad>
          </ns3:TrackPointExtension>
        </extensions>
      </trkpt>
      <trkpt lat="43.45637320540845394134521484375" lon="1.46709113381803035736083984375">
        <ele>247.399993896484375</ele>
        <time>2026-08-05T07:16:10.000Z</time>
        <extensions>
          <ns3:TrackPointExtension>
            <ns3:hr>99</ns3:hr>
            <ns3:cad>42</ns3:cad>
          </ns3:TrackPointExtension>
        </extensions>
      </trkpt>
      <trkpt lat="43.4563674218952655792236328125" lon="1.4671001024544239044189453125">
        <ele>247.600006103515625</ele>
        <time>2026-08-05T07:16:11.000Z</time>
        <extensions>
          <ns3:TrackPointExtension>
            <ns3:hr>100</ns3:hr>
            <ns3:cad>42</ns3:cad>
          </ns3:TrackPointExtension>
        </extensions>
      </trkpt>
      <trkpt lat="43.4563620574772357940673828125" lon="1.467112340033054351806640625">
        <ele>247.600006103515625</ele>
        <time>2026-08-05T07:16:12.000Z</time>
        <extensions>
          <ns3:TrackPointExtension>
            <ns3:hr>100</ns3:hr>
            <ns3:cad>42</ns3:cad>
          </ns3:TrackPointExtension>
        </extensions>
      </trkpt>
      <trkpt lat="43.456357531249523162841796875" lon="1.467123068869113922119140625">
        <ele>247.600006103515625</ele>
        <time>2026-08-05T07:16:13.000Z</time>
        <extensions>
          <ns3:TrackPointExtension>
            <ns3:hr>99</ns3:hr>
            <ns3:cad>42</ns3:cad>
          </ns3:TrackPointExtension>
        </extensions>
      </trkpt>
      <trkpt lat="43.45635342411696910858154296875" lon="1.4671329595148563385009765625">
        <ele>247.8000030517578125</ele>
        <time>2026-08-05T07:16:14.000Z</time>
        <extensions>
          <ns3:TrackPointExtension>
            <ns3:hr>99</ns3:hr>
            <ns3:cad>42</ns3:cad>
          </ns3:TrackPointExtension>
        </extensions>
      </trkpt>
      <trkpt lat="43.4563486464321613311767578125" lon="1.46714813075959682464599609375">
        <ele>247.8000030517578125</ele>
        <time>2026-08-05T07:16:15.000Z</time>
        <extensions>
          <ns3:TrackPointExtension>
            <ns3:hr>98</ns3:hr>
            <ns3:cad>42</ns3:cad>
          </ns3:TrackPointExtension>
        </extensions>
      </trkpt>
      <trkpt lat="43.45634252764284610748291015625" lon="1.46716103889048099517822265625">
        <ele>248</ele>
        <time>2026-08-05T07:16:16.000Z</time>
        <extensions>
          <ns3:TrackPointExtension>
            <ns3:hr>98</ns3:hr>
            <ns3:cad>42</ns3:cad>
          </ns3:TrackPointExtension>
        </extensions>
      </trkpt>
      <trkpt lat="43.4563416056334972381591796875" lon="1.467172019183635711669921875">
        <ele>248</ele>
        <time>2026-08-05T07:16:17.000Z</time>
        <extensions>
          <ns3:TrackPointExtension>
            <ns3:hr>98</ns3:hr>
            <ns3:cad>42</ns3:cad>
          </ns3:TrackPointExtension>
        </extensions>
      </trkpt>
      <trkpt lat="43.4563352353870868682861328125" lon="1.46719020791351795196533203125">
        <ele>248.1999969482421875</ele>
        <time>2026-08-05T07:16:18.000Z</time>
        <extensions>
          <ns3:TrackPointExtension>
            <ns3:hr>98</ns3:hr>
            <ns3:cad>42</ns3:cad>
          </ns3:TrackPointExtension>
        </extensions>
      </trkpt>
      <trkpt lat="43.456332385540008544921875" lon="1.4672000147402286529541015625">
        <ele>248.1999969482421875</ele>
        <time>2026-08-05T07:16:19.000Z</time>
        <extensions>
          <ns3:TrackPointExtension>
            <ns3:hr>97</ns3:hr>
            <ns3:cad>42</ns3:cad>
          </ns3:TrackPointExtension>
        </extensions>
      </trkpt>
      <trkpt lat="43.45632777549326419830322265625" lon="1.46720864810049533843994140625">
        <ele>248.1999969482421875</ele>
        <time>2026-08-05T07:16:20.000Z</time>
        <extensions>
          <ns3:TrackPointExtension>
            <ns3:hr>98</ns3:hr>
            <ns3:cad>42</ns3:cad>
          </ns3:TrackPointExtension>
        </extensions>
      </trkpt>
      <trkpt lat="43.45632509328424930572509765625" lon="1.46721853874623775482177734375">
        <ele>248.399993896484375</ele>
        <time>2026-08-05T07:16:21.000Z</time>
        <extensions>
          <ns3:TrackPointExtension>
            <ns3:hr>98</ns3:hr>
            <ns3:cad>41</ns3:cad>
          </ns3:TrackPointExtension>
        </extensions>
      </trkpt>
      <trkpt lat="43.45632207579910755157470703125" lon="1.46723513491451740264892578125">
        <ele>248.399993896484375</ele>
        <time>2026-08-05T07:16:22.000Z</time>
        <extensions>
          <ns3:TrackPointExtension>
            <ns3:hr>97</ns3:hr>
            <ns3:cad>41</ns3:cad>
          </ns3:TrackPointExtension>
        </extensions>
      </trkpt>
      <trkpt lat="43.456318639218807220458984375" lon="1.467248462140560150146484375">
        <ele>248.600006103515625</ele>
        <time>2026-08-05T07:16:23.000Z</time>
        <extensions>
          <ns3:TrackPointExtension>
            <ns3:hr>98</ns3:hr>
            <ns3:cad>41</ns3:cad>
          </ns3:TrackPointExtension>
        </extensions>
      </trkpt>
      <trkpt lat="43.45631486736238002777099609375" lon="1.4672620408236980438232421875">
        <ele>248.600006103515625</ele>
        <time>2026-08-05T07:16:24.000Z</time>
        <extensions>
          <ns3:TrackPointExtension>
            <ns3:hr>98</ns3:hr>
            <ns3:cad>43</ns3:cad>
          </ns3:TrackPointExtension>
        </extensions>
      </trkpt>
      <trkpt lat="43.45631159842014312744140625" lon="1.46727494895458221435546875">
        <ele>248.8000030517578125</ele>
        <time>2026-08-05T07:16:25.000Z</time>
        <extensions>
          <ns3:TrackPointExtension>
            <ns3:hr>98</ns3:hr>
            <ns3:cad>43</ns3:cad>
          </ns3:TrackPointExtension>
        </extensions>
      </trkpt>
      <trkpt lat="43.45630698837339878082275390625" lon="1.46728911437094211578369140625">
        <ele>248.8000030517578125</ele>
        <time>2026-08-05T07:16:26.000Z</time>
        <extensions>
          <ns3:TrackPointExtension>
            <ns3:hr>97</ns3:hr>
            <ns3:cad>43</ns3:cad>
          </ns3:TrackPointExtension>
        </extensions>
      </trkpt>
      <trkpt lat="43.456304557621479034423828125" lon="1.4673009328544139862060546875">
        <ele>248.8000030517578125</ele>
        <time>2026-08-05T07:16:27.000Z</time>
        <extensions>
          <ns3:TrackPointExtension>
            <ns3:hr>98</ns3:hr>
            <ns3:cad>43</ns3:cad>
          </ns3:TrackPointExtension>
        </extensions>
      </trkpt>
      <trkpt lat="43.45629961229860782623291015625" lon="1.4673136733472347259521484375">
        <ele>249</ele>
        <time>2026-08-05T07:16:28.000Z</time>
        <extensions>
          <ns3:TrackPointExtension>
            <ns3:hr>98</ns3:hr>
            <ns3:cad>44</ns3:cad>
          </ns3:TrackPointExtension>
        </extensions>
      </trkpt>
      <trkpt lat="43.4562934935092926025390625" lon="1.46732700057327747344970703125">
        <ele>249</ele>
        <time>2026-08-05T07:16:29.000Z</time>
        <extensions>
          <ns3:TrackPointExtension>
            <ns3:hr>98</ns3:hr>
            <ns3:cad>44</ns3:cad>
          </ns3:TrackPointExtension>
        </extensions>
      </trkpt>
      <trkpt lat="43.456288464367389678955078125" lon="1.4673398248851299285888671875">
        <ele>249</ele>
        <time>2026-08-05T07:16:30.000Z</time>
        <extensions>
          <ns3:TrackPointExtension>
            <ns3:hr>98</ns3:hr>
            <ns3:cad>44</ns3:cad>
          </ns3:TrackPointExtension>
        </extensions>
      </trkpt>
      <trkpt lat="43.45628251321613788604736328125" lon="1.4673495478928089141845703125">
        <ele>249.1999969482421875</ele>
        <time>2026-08-05T07:16:31.000Z</time>
        <extensions>
          <ns3:TrackPointExtension>
            <ns3:hr>99</ns3:hr>
            <ns3:cad>44</ns3:cad>
          </ns3:TrackPointExtension>
        </extensions>
      </trkpt>
      <trkpt lat="43.456278406083583831787109375" lon="1.46736077964305877685546875">
        <ele>249.1999969482421875</ele>
        <time>2026-08-05T07:16:32.000Z</time>
        <extensions>
          <ns3:TrackPointExtension>
            <ns3:hr>99</ns3:hr>
            <ns3:cad>44</ns3:cad>
          </ns3:TrackPointExtension>
        </extensions>
      </trkpt>
      <trkpt lat="43.45627480186522006988525390625" lon="1.46737427450716495513916015625">
        <ele>249.399993896484375</ele>
        <time>2026-08-05T07:16:33.000Z</time>
        <extensions>
          <ns3:TrackPointExtension>
            <ns3:hr>99</ns3:hr>
            <ns3:cad>44</ns3:cad>
          </ns3:TrackPointExtension>
        </extensions>
      </trkpt>
      <trkpt lat="43.45626926980912685394287109375" lon="1.46738500334322452545166015625">
        <ele>249.399993896484375</ele>
        <time>2026-08-05T07:16:34.000Z</time>
        <extensions>
          <ns3:TrackPointExtension>
            <ns3:hr>99</ns3:hr>
            <ns3:cad>43</ns3:cad>
          </ns3:TrackPointExtension>
        </extensions>
      </trkpt>
      <trkpt lat="43.45626465976238250732421875" lon="1.4673927985131740570068359375">
        <ele>249.600006103515625</ele>
        <time>2026-08-05T07:16:35.000Z</time>
        <extensions>
          <ns3:TrackPointExtension>
            <ns3:hr>99</ns3:hr>
            <ns3:cad>43</ns3:cad>
          </ns3:TrackPointExtension>
        </extensions>
      </trkpt>
      <trkpt lat="43.4562574513256549835205078125" lon="1.46740059368312358856201171875">
        <ele>249.600006103515625</ele>
        <time>2026-08-05T07:16:36.000Z</time>
        <extensions>
          <ns3:TrackPointExtension>
            <ns3:hr>99</ns3:hr>
            <ns3:cad>42</ns3:cad>
          </ns3:TrackPointExtension>
        </extensions>
      </trkpt>
      <trkpt lat="43.456252925097942352294921875" lon="1.46741216070950031280517578125">
        <ele>249.600006103515625</ele>
        <time>2026-08-05T07:16:37.000Z</time>
        <extensions>
          <ns3:TrackPointExtension>
            <ns3:hr>99</ns3:hr>
            <ns3:cad>42</ns3:cad>
          </ns3:TrackPointExtension>
        </extensions>
      </trkpt>
      <trkpt lat="43.45625032670795917510986328125" lon="1.46742490120232105255126953125">
        <ele>249.8000030517578125</ele>
        <time>2026-08-05T07:16:38.000Z</time>
        <extensions>
          <ns3:TrackPointExtension>
            <ns3:hr>99</ns3:hr>
            <ns3:cad>42</ns3:cad>
          </ns3:TrackPointExtension>
        </extensions>
      </trkpt>
      <trkpt lat="43.4562467224895954132080078125" lon="1.46743588149547576904296875">
        <ele>249.8000030517578125</ele>
        <time>2026-08-05T07:16:39.000Z</time>
        <extensions>
          <ns3:TrackPointExtension>
            <ns3:hr>99</ns3:hr>
            <ns3:cad>43</ns3:cad>
          </ns3:TrackPointExtension>
        </extensions>
      </trkpt>
      <trkpt lat="43.4562410227954387664794921875" lon="1.4674471132457256317138671875">
        <ele>250</ele>
        <time>2026-08-05T07:16:40.000Z</time>
        <extensions>
          <ns3:TrackPointExtension>
            <ns3:hr>99</ns3:hr>
            <ns3:cad>44</ns3:cad>
          </ns3:TrackPointExtension>
        </extensions>
      </trkpt>
      <trkpt lat="43.45623523928225040435791015625" lon="1.46745926700532436370849609375">
        <ele>250</ele>
        <time>2026-08-05T07:16:41.000Z</time>
        <extensions>
          <ns3:TrackPointExtension>
            <ns3:hr>99</ns3:hr>
            <ns3:cad>44</ns3:cad>
          </ns3:TrackPointExtension>
        </extensions>
      </trkpt>
      <trkpt lat="43.4562276117503643035888671875" lon="1.46747368387877941131591796875">
        <ele>250.1999969482421875</ele>
        <time>2026-08-05T07:16:42.000Z</time>
        <extensions>
          <ns3:TrackPointExtension>
            <ns3:hr>100</ns3:hr>
            <ns3:cad>44</ns3:cad>
          </ns3:TrackPointExtension>
        </extensions>
      </trkpt>
      <trkpt lat="43.45622308552265167236328125" lon="1.467484496533870697021484375">
        <ele>250.1999969482421875</ele>
        <time>2026-08-05T07:16:43.000Z</time>
        <extensions>
          <ns3:TrackPointExtension>
            <ns3:hr>99</ns3:hr>
            <ns3:cad>44</ns3:cad>
          </ns3:TrackPointExtension>
        </extensions>
      </trkpt>
      <trkpt lat="43.45621679909527301788330078125" lon="1.46749849431216716766357421875">
        <ele>250.1999969482421875</ele>
        <time>2026-08-05T07:16:44.000Z</time>
        <extensions>
          <ns3:TrackPointExtension>
            <ns3:hr>100</ns3:hr>
            <ns3:cad>44</ns3:cad>
          </ns3:TrackPointExtension>
        </extensions>
      </trkpt>
      <trkpt lat="43.45621168613433837890625" lon="1.467511653900146484375">
        <ele>250.1999969482421875</ele>
        <time>2026-08-05T07:16:45.000Z</time>
        <extensions>
          <ns3:TrackPointExtension>
            <ns3:hr>100</ns3:hr>
            <ns3:cad>45</ns3:cad>
          </ns3:TrackPointExtension>
        </extensions>
      </trkpt>
      <trkpt lat="43.45620724372565746307373046875" lon="1.4675252325832843780517578125">
        <ele>250.1999969482421875</ele>
        <time>2026-08-05T07:16:46.000Z</time>
        <extensions>
          <ns3:TrackPointExtension>
            <ns3:hr>100</ns3:hr>
            <ns3:cad>45</ns3:cad>
          </ns3:TrackPointExtension>
        </extensions>
      </trkpt>
      <trkpt lat="43.45620154403150081634521484375" lon="1.4675389789044857025146484375">
        <ele>250.399993896484375</ele>
        <time>2026-08-05T07:16:47.000Z</time>
        <extensions>
          <ns3:TrackPointExtension>
            <ns3:hr>100</ns3:hr>
            <ns3:cad>45</ns3:cad>
          </ns3:TrackPointExtension>
        </extensions>
      </trkpt>
      <trkpt lat="43.45619718544185161590576171875" lon="1.467551887035369873046875">
        <ele>250.399993896484375</ele>
        <time>2026-08-05T07:16:48.000Z</time>
        <extensions>
          <ns3:TrackPointExtension>
            <ns3:hr>99</ns3:hr>
            <ns3:cad>45</ns3:cad>
          </ns3:TrackPointExtension>
        </extensions>
      </trkpt>
      <trkpt lat="43.45619249157607555389404296875" lon="1.4675647951662540435791015625">
        <ele>250.399993896484375</ele>
        <time>2026-08-05T07:16:49.000Z</time>
        <extensions>
          <ns3:TrackPointExtension>
            <ns3:hr>100</ns3:hr>
            <ns3:cad>45</ns3:cad>
          </ns3:TrackPointExtension>
        </extensions>
      </trkpt>
      <trkpt lat="43.45618964172899723052978515625" lon="1.467573009431362152099609375">
        <ele>250.600006103515625</ele>
        <time>2026-08-05T07:16:50.000Z</time>
        <extensions>
          <ns3:TrackPointExtension>
            <ns3:hr>100</ns3:hr>
            <ns3:cad>44</ns3:cad>
          </ns3:TrackPointExtension>
        </extensions>
      </trkpt>
      <trkpt lat="43.45618578605353832244873046875" lon="1.46758147515356540679931640625">
        <ele>250.600006103515625</ele>
        <time>2026-08-05T07:16:51.000Z</time>
        <extensions>
          <ns3:TrackPointExtension>
            <ns3:hr>100</ns3:hr>
            <ns3:cad>44</ns3:cad>
          </ns3:TrackPointExtension>
        </extensions>
      </trkpt>
      <trkpt lat="43.45617975108325481414794921875" lon="1.467588432133197784423828125">
        <ele>250.8000030517578125</ele>
        <time>2026-08-05T07:16:52.000Z</time>
        <extensions>
          <ns3:TrackPointExtension>
            <ns3:hr>100</ns3:hr>
            <ns3:cad>44</ns3:cad>
          </ns3:TrackPointExtension>
        </extensions>
      </trkpt>
      <trkpt lat="43.45617656596004962921142578125" lon="1.46759740076959133148193359375">
        <ele>250.8000030517578125</ele>
        <time>2026-08-05T07:16:53.000Z</time>
        <extensions>
          <ns3:TrackPointExtension>
            <ns3:hr>100</ns3:hr>
            <ns3:cad>44</ns3:cad>
          </ns3:TrackPointExtension>
        </extensions>
      </trkpt>
      <trkpt lat="43.45617120154201984405517578125" lon="1.46761382929980754852294921875">
        <ele>250.8000030517578125</ele>
        <time>2026-08-05T07:16:54.000Z</time>
        <extensions>
          <ns3:TrackPointExtension>
            <ns3:hr>99</ns3:hr>
            <ns3:cad>44</ns3:cad>
          </ns3:TrackPointExtension>
        </extensions>
      </trkpt>
      <trkpt lat="43.45616751350462436676025390625" lon="1.4676241390407085418701171875">
        <ele>250.8000030517578125</ele>
        <time>2026-08-05T07:16:55.000Z</time>
        <extensions>
          <ns3:TrackPointExtension>
            <ns3:hr>99</ns3:hr>
            <ns3:cad>46</ns3:cad>
          </ns3:TrackPointExtension>
        </extensions>
      </trkpt>
      <trkpt lat="43.45616407692432403564453125" lon="1.46763813681900501251220703125">
        <ele>251</ele>
        <time>2026-08-05T07:16:56.000Z</time>
        <extensions>
          <ns3:TrackPointExtension>
            <ns3:hr>99</ns3:hr>
            <ns3:cad>46</ns3:cad>
          </ns3:TrackPointExtension>
        </extensions>
      </trkpt>
      <trkpt lat="43.456156365573406219482421875" lon="1.46765573881566524505615234375">
        <ele>251</ele>
        <time>2026-08-05T07:16:57.000Z</time>
        <extensions>
          <ns3:TrackPointExtension>
            <ns3:hr>98</ns3:hr>
            <ns3:cad>46</ns3:cad>
          </ns3:TrackPointExtension>
        </extensions>
      </trkpt>
      <trkpt lat="43.45615175552666187286376953125" lon="1.4676704071462154388427734375">
        <ele>251</ele>
        <time>2026-08-05T07:16:58.000Z</time>
        <extensions>
          <ns3:TrackPointExtension>
            <ns3:hr>98</ns3:hr>
            <ns3:cad>48</ns3:cad>
          </ns3:TrackPointExtension>
        </extensions>
      </trkpt>
      <trkpt lat="43.4561484865844249725341796875" lon="1.46768390201032161712646484375">
        <ele>251.1999969482421875</ele>
        <time>2026-08-05T07:16:59.000Z</time>
        <extensions>
          <ns3:TrackPointExtension>
            <ns3:hr>98</ns3:hr>
            <ns3:cad>48</ns3:cad>
          </ns3:TrackPointExtension>
        </extensions>
      </trkpt>
      <trkpt lat="43.45614530146121978759765625" lon="1.46769697777926921844482421875">
        <ele>251.1999969482421875</ele>
        <time>2026-08-05T07:17:00.000Z</time>
        <extensions>
          <ns3:TrackPointExtension>
            <ns3:hr>98</ns3:hr>
            <ns3:cad>47</ns3:cad>
          </ns3:TrackPointExtension>
        </extensions>
      </trkpt>
      <trkpt lat="43.45613884739577770233154296875" lon="1.4677119813859462738037109375">
        <ele>251.1999969482421875</ele>
        <time>2026-08-05T07:17:01.000Z</time>
        <extensions>
          <ns3:TrackPointExtension>
            <ns3:hr>98</ns3:hr>
            <ns3:cad>46</ns3:cad>
          </ns3:TrackPointExtension>
        </extensions>
      </trkpt>
      <trkpt lat="43.456132225692272186279296875" lon="1.46772824227809906005859375">
        <ele>251.399993896484375</ele>
        <time>2026-08-05T07:17:02.000Z</time>
        <extensions>
          <ns3:TrackPointExtension>
            <ns3:hr>98</ns3:hr>
            <ns3:cad>46</ns3:cad>
          </ns3:TrackPointExtension>
        </extensions>
      </trkpt>
      <trkpt lat="43.45612811855971813201904296875" lon="1.467741988599300384521484375">
        <ele>251.399993896484375</ele>
        <time>2026-08-05T07:17:03.000Z</time>
        <extensions>
          <ns3:TrackPointExtension>
            <ns3:hr>98</ns3:hr>
            <ns3:cad>45</ns3:cad>
          </ns3:TrackPointExtension>
        </extensions>
      </trkpt>
      <trkpt lat="43.45612518489360809326171875" lon="1.467754058539867401123046875">
        <ele>251.399993896484375</ele>
        <time>2026-08-05T07:17:04.000Z</time>
        <extensions>
          <ns3:TrackPointExtension>
            <ns3:hr>97</ns3:hr>
            <ns3:cad>45</ns3:cad>
          </ns3:TrackPointExtension>
        </extensions>
      </trkpt>
      <trkpt lat="43.45611806027591228485107421875" lon="1.46776889450848102569580078125">
        <ele>251.600006103515625</ele>
        <time>2026-08-05T07:17:05.000Z</time>
        <extensions>
          <ns3:TrackPointExtension>
            <ns3:hr>98</ns3:hr>
            <ns3:cad>46</ns3:cad>
          </ns3:TrackPointExtension>
        </extensions>
      </trkpt>
      <trkpt lat="43.45611311495304107666015625" lon="1.4677833952009677886962890625">
        <ele>251.600006103515625</ele>
        <time>2026-08-05T07:17:06.000Z</time>
        <extensions>
          <ns3:TrackPointExtension>
            <ns3:hr>98</ns3:hr>
            <ns3:cad>46</ns3:cad>
          </ns3:TrackPointExtension>
        </extensions>
      </trkpt>
      <trkpt lat="43.4561084210872650146484375" lon="1.4677958004176616668701171875">
        <ele>251.600006103515625</ele>
        <time>2026-08-05T07:17:07.000Z</time>
        <extensions>
          <ns3:TrackPointExtension>
            <ns3:hr>98</ns3:hr>
            <ns3:cad>46</ns3:cad>
          </ns3:TrackPointExtension>
        </extensions>
      </trkpt>
      <trkpt lat="43.456105403602123260498046875" lon="1.46780560724437236785888671875">
        <ele>251.600006103515625</ele>
        <time>2026-08-05T07:17:08.000Z</time>
        <extensions>
          <ns3:TrackPointExtension>
            <ns3:hr>97</ns3:hr>
            <ns3:cad>46</ns3:cad>
          </ns3:TrackPointExtension>
        </extensions>
      </trkpt>
      <trkpt lat="43.4560976922512054443359375" lon="1.4678155817091464996337890625">
        <ele>251.8000030517578125</ele>
        <time>2026-08-05T07:17:09.000Z</time>
        <extensions>
          <ns3:TrackPointExtension>
            <ns3:hr>98</ns3:hr>
            <ns3:cad>45</ns3:cad>
          </ns3:TrackPointExtension>
        </extensions>
      </trkpt>
      <trkpt lat="43.45609341748058795928955078125" lon="1.46782974712550640106201171875">
        <ele>251.8000030517578125</ele>
        <time>2026-08-05T07:17:10.000Z</time>
        <extensions>
          <ns3:TrackPointExtension>
            <ns3:hr>98</ns3:hr>
            <ns3:cad>45</ns3:cad>
          </ns3:TrackPointExtension>
        </extensions>
      </trkpt>
      <trkpt lat="43.45609165728092193603515625" lon="1.46783980540931224822998046875">
        <ele>252</ele>
        <time>2026-08-05T07:17:11.000Z</time>
        <extensions>
          <ns3:TrackPointExtension>
            <ns3:hr>97</ns3:hr>
            <ns3:cad>45</ns3:cad>
          </ns3:TrackPointExtension>
        </extensions>
      </trkpt>
      <trkpt lat="43.4560881368815898895263671875" lon="1.46785028278827667236328125">
        <ele>252</ele>
        <time>2026-08-05T07:17:12.000Z</time>
        <extensions>
          <ns3:TrackPointExtension>
            <ns3:hr>97</ns3:hr>
            <ns3:cad>45</ns3:cad>
          </ns3:TrackPointExtension>
        </extensions>
      </trkpt>
      <trkpt lat="43.456082604825496673583984375" lon="1.4678645320236682891845703125">
        <ele>252</ele>
        <time>2026-08-05T07:17:13.000Z</time>
        <extensions>
          <ns3:TrackPointExtension>
            <ns3:hr>97</ns3:hr>
            <ns3:cad>44</ns3:cad>
          </ns3:TrackPointExtension>
        </extensions>
      </trkpt>
      <trkpt lat="43.4560770727694034576416015625" lon="1.46787567995488643646240234375">
        <ele>252.1999969482421875</ele>
        <time>2026-08-05T07:17:14.000Z</time>
        <extensions>
          <ns3:TrackPointExtension>
            <ns3:hr>97</ns3:hr>
            <ns3:cad>44</ns3:cad>
          </ns3:TrackPointExtension>
        </extensions>
      </trkpt>
      <trkpt lat="43.45607564784586429595947265625" lon="1.46788515150547027587890625">
        <ele>252.1999969482421875</ele>
        <time>2026-08-05T07:17:15.000Z</time>
        <extensions>
          <ns3:TrackPointExtension>
            <ns3:hr>98</ns3:hr>
            <ns3:cad>43</ns3:cad>
          </ns3:TrackPointExtension>
        </extensions>
      </trkpt>
      <trkpt lat="43.456071875989437103271484375" lon="1.46789747290313243865966796875">
        <ele>252.1999969482421875</ele>
        <time>2026-08-05T07:17:16.000Z</time>
        <extensions>
          <ns3:TrackPointExtension>
            <ns3:hr>97</ns3:hr>
            <ns3:cad>43</ns3:cad>
          </ns3:TrackPointExtension>
        </extensions>
      </trkpt>
      <trkpt lat="43.45606542192399501800537109375" lon="1.467911638319492340087890625">
        <ele>252.399993896484375</ele>
        <time>2026-08-05T07:17:17.000Z</time>
        <extensions>
          <ns3:TrackPointExtension>
            <ns3:hr>97</ns3:hr>
            <ns3:cad>43</ns3:cad>
          </ns3:TrackPointExtension>
        </extensions>
      </trkpt>
      <trkpt lat="43.4560613147914409637451171875" lon="1.467920355498790740966796875">
        <ele>252.399993896484375</ele>
        <time>2026-08-05T07:17:18.000Z</time>
        <extensions>
          <ns3:TrackPointExtension>
            <ns3:hr>97</ns3:hr>
            <ns3:cad>43</ns3:cad>
          </ns3:TrackPointExtension>
        </extensions>
      </trkpt>
      <trkpt lat="43.45605804584920406341552734375" lon="1.4679285697638988494873046875">
        <ele>252.600006103515625</ele>
        <time>2026-08-05T07:17:19.000Z</time>
        <extensions>
          <ns3:TrackPointExtension>
            <ns3:hr>98</ns3:hr>
            <ns3:cad>43</ns3:cad>
          </ns3:TrackPointExtension>
        </extensions>
      </trkpt>
      <trkpt lat="43.45605301670730113983154296875" lon="1.46794038824737071990966796875">
        <ele>252.600006103515625</ele>
        <time>2026-08-05T07:17:20.000Z</time>
        <extensions>
          <ns3:TrackPointExtension>
            <ns3:hr>97</ns3:hr>
            <ns3:cad>43</ns3:cad>
          </ns3:TrackPointExtension>
        </extensions>
      </trkpt>
      <trkpt lat="43.45605075359344482421875" lon="1.46795782260596752166748046875">
        <ele>252.8000030517578125</ele>
        <time>2026-08-05T07:17:21.000Z</time>
        <extensions>
          <ns3:TrackPointExtension>
            <ns3:hr>97</ns3:hr>
            <ns3:cad>43</ns3:cad>
          </ns3:TrackPointExtension>
        </extensions>
      </trkpt>
      <trkpt lat="43.45604765228927135467529296875" lon="1.46796922199428081512451171875">
        <ele>253</ele>
        <time>2026-08-05T07:17:22.000Z</time>
        <extensions>
          <ns3:TrackPointExtension>
            <ns3:hr>97</ns3:hr>
            <ns3:cad>43</ns3:cad>
          </ns3:TrackPointExtension>
        </extensions>
      </trkpt>
      <trkpt lat="43.45604212023317813873291015625" lon="1.46797995083034038543701171875">
        <ele>253</ele>
        <time>2026-08-05T07:17:23.000Z</time>
        <extensions>
          <ns3:TrackPointExtension>
            <ns3:hr>97</ns3:hr>
            <ns3:cad>43</ns3:cad>
          </ns3:TrackPointExtension>
        </extensions>
      </trkpt>
      <trkpt lat="43.45603859983384609222412109375" lon="1.46799621172249317169189453125">
        <ele>253</ele>
        <time>2026-08-05T07:17:24.000Z</time>
        <extensions>
          <ns3:TrackPointExtension>
            <ns3:hr>97</ns3:hr>
            <ns3:cad>42</ns3:cad>
          </ns3:TrackPointExtension>
        </extensions>
      </trkpt>
      <trkpt lat="43.45603574998676776885986328125" lon="1.46800962276756763458251953125">
        <ele>253.1999969482421875</ele>
        <time>2026-08-05T07:17:25.000Z</time>
        <extensions>
          <ns3:TrackPointExtension>
            <ns3:hr>97</ns3:hr>
            <ns3:cad>43</ns3:cad>
          </ns3:TrackPointExtension>
        </extensions>
      </trkpt>
      <trkpt lat="43.4560318104922771453857421875" lon="1.4680217765271663665771484375">
        <ele>253.1999969482421875</ele>
        <time>2026-08-05T07:17:26.000Z</time>
        <extensions>
          <ns3:TrackPointExtension>
            <ns3:hr>97</ns3:hr>
            <ns3:cad>43</ns3:cad>
          </ns3:TrackPointExtension>
        </extensions>
      </trkpt>
      <trkpt lat="43.4560257755219936370849609375" lon="1.46803460083901882171630859375">
        <ele>253.399993896484375</ele>
        <time>2026-08-05T07:17:27.000Z</time>
        <extensions>
          <ns3:TrackPointExtension>
            <ns3:hr>97</ns3:hr>
            <ns3:cad>44</ns3:cad>
          </ns3:TrackPointExtension>
        </extensions>
      </trkpt>
      <trkpt lat="43.4560210816562175750732421875" lon="1.4680512808263301849365234375">
        <ele>253.399993896484375</ele>
        <time>2026-08-05T07:17:28.000Z</time>
        <extensions>
          <ns3:TrackPointExtension>
            <ns3:hr>97</ns3:hr>
            <ns3:cad>45</ns3:cad>
          </ns3:TrackPointExtension>
        </extensions>
      </trkpt>
      <trkpt lat="43.45601714216172695159912109375" lon="1.4680677093565464019775390625">
        <ele>253.600006103515625</ele>
        <time>2026-08-05T07:17:29.000Z</time>
        <extensions>
          <ns3:TrackPointExtension>
            <ns3:hr>97</ns3:hr>
            <ns3:cad>46</ns3:cad>
          </ns3:TrackPointExtension>
        </extensions>
      </trkpt>
      <trkpt lat="43.45601211301982402801513671875" lon="1.4680811204016208648681640625">
        <ele>253.600006103515625</ele>
        <time>2026-08-05T07:17:30.000Z</time>
        <extensions>
          <ns3:TrackPointExtension>
            <ns3:hr>97</ns3:hr>
            <ns3:cad>47</ns3:cad>
          </ns3:TrackPointExtension>
        </extensions>
      </trkpt>
      <trkpt lat="43.45600792206823825836181640625" lon="1.468096710741519927978515625">
        <ele>253.8000030517578125</ele>
        <time>2026-08-05T07:17:31.000Z</time>
        <extensions>
          <ns3:TrackPointExtension>
            <ns3:hr>97</ns3:hr>
            <ns3:cad>48</ns3:cad>
          </ns3:TrackPointExtension>
        </extensions>
      </trkpt>
      <trkpt lat="43.4560023061931133270263671875" lon="1.4681099541485309600830078125">
        <ele>253.8000030517578125</ele>
        <time>2026-08-05T07:17:32.000Z</time>
        <extensions>
          <ns3:TrackPointExtension>
            <ns3:hr>98</ns3:hr>
            <ns3:cad>47</ns3:cad>
          </ns3:TrackPointExtension>
        </extensions>
      </trkpt>
      <trkpt lat="43.4559949301183223724365234375" lon="1.468125544488430023193359375">
        <ele>253.8000030517578125</ele>
        <time>2026-08-05T07:17:33.000Z</time>
        <extensions>
          <ns3:TrackPointExtension>
            <ns3:hr>98</ns3:hr>
            <ns3:cad>47</ns3:cad>
          </ns3:TrackPointExtension>
        </extensions>
      </trkpt>
      <trkpt lat="43.45598814077675342559814453125" lon="1.46814105100929737091064453125">
        <ele>253.8000030517578125</ele>
        <time>2026-08-05T07:17:34.000Z</time>
        <extensions>
          <ns3:TrackPointExtension>
            <ns3:hr>98</ns3:hr>
            <ns3:cad>47</ns3:cad>
          </ns3:TrackPointExtension>
        </extensions>
      </trkpt>
      <trkpt lat="43.4559831954538822174072265625" lon="1.468151025474071502685546875">
        <ele>254</ele>
        <time>2026-08-05T07:17:35.000Z</time>
        <extensions>
          <ns3:TrackPointExtension>
            <ns3:hr>98</ns3:hr>
            <ns3:cad>47</ns3:cad>
          </ns3:TrackPointExtension>
        </extensions>
      </trkpt>
      <trkpt lat="43.45598026178777217864990234375" lon="1.46816032938659191131591796875">
        <ele>254</ele>
        <time>2026-08-05T07:17:36.000Z</time>
        <extensions>
          <ns3:TrackPointExtension>
            <ns3:hr>99</ns3:hr>
            <ns3:cad>48</ns3:cad>
          </ns3:TrackPointExtension>
        </extensions>
      </trkpt>
      <trkpt lat="43.45597674138844013214111328125" lon="1.46817273460328578948974609375">
        <ele>254</ele>
        <time>2026-08-05T07:17:37.000Z</time>
        <extensions>
          <ns3:TrackPointExtension>
            <ns3:hr>99</ns3:hr>
            <ns3:cad>48</ns3:cad>
          </ns3:TrackPointExtension>
        </extensions>
      </trkpt>
      <trkpt lat="43.4559717960655689239501953125" lon="1.4681877382099628448486328125">
        <ele>254</ele>
        <time>2026-08-05T07:17:38.000Z</time>
        <extensions>
          <ns3:TrackPointExtension>
            <ns3:hr>99</ns3:hr>
            <ns3:cad>48</ns3:cad>
          </ns3:TrackPointExtension>
        </extensions>
      </trkpt>
      <trkpt lat="43.45596693456172943115234375" lon="1.46819938905537128448486328125">
        <ele>254.1999969482421875</ele>
        <time>2026-08-05T07:17:39.000Z</time>
        <extensions>
          <ns3:TrackPointExtension>
            <ns3:hr>99</ns3:hr>
            <ns3:cad>47</ns3:cad>
          </ns3:TrackPointExtension>
        </extensions>
      </trkpt>
      <trkpt lat="43.455965258181095123291015625" lon="1.46820860914885997772216796875">
        <ele>254.1999969482421875</ele>
        <time>2026-08-05T07:17:40.000Z</time>
        <extensions>
          <ns3:TrackPointExtension>
            <ns3:hr>99</ns3:hr>
            <ns3:cad>46</ns3:cad>
          </ns3:TrackPointExtension>
        </extensions>
      </trkpt>
      <trkpt lat="43.455963246524333953857421875" lon="1.46821581758558750152587890625">
        <ele>254.1999969482421875</ele>
        <time>2026-08-05T07:17:41.000Z</time>
        <extensions>
          <ns3:TrackPointExtension>
            <ns3:hr>98</ns3:hr>
            <ns3:cad>46</ns3:cad>
          </ns3:TrackPointExtension>
        </extensions>
      </trkpt>
      <trkpt lat="43.4559600614011287689208984375" lon="1.4682319946587085723876953125">
        <ele>254.1999969482421875</ele>
        <time>2026-08-05T07:17:42.000Z</time>
        <extensions>
          <ns3:TrackPointExtension>
            <ns3:hr>98</ns3:hr>
            <ns3:cad>46</ns3:cad>
          </ns3:TrackPointExtension>
        </extensions>
      </trkpt>
      <trkpt lat="43.4559543617069721221923828125" lon="1.4682437293231487274169921875">
        <ele>254.1999969482421875</ele>
        <time>2026-08-05T07:17:43.000Z</time>
        <extensions>
          <ns3:TrackPointExtension>
            <ns3:hr>98</ns3:hr>
            <ns3:cad>46</ns3:cad>
          </ns3:TrackPointExtension>
        </extensions>
      </trkpt>
      <trkpt lat="43.45595008693635463714599609375" lon="1.46824951283633708953857421875">
        <ele>254.399993896484375</ele>
        <time>2026-08-05T07:17:44.000Z</time>
        <extensions>
          <ns3:TrackPointExtension>
            <ns3:hr>98</ns3:hr>
            <ns3:cad>46</ns3:cad>
          </ns3:TrackPointExtension>
        </extensions>
      </trkpt>
      <trkpt lat="43.45594413578510284423828125" lon="1.468260996043682098388671875">
        <ele>254.399993896484375</ele>
        <time>2026-08-05T07:17:45.000Z</time>
        <extensions>
          <ns3:TrackPointExtension>
            <ns3:hr>97</ns3:hr>
            <ns3:cad>46</ns3:cad>
          </ns3:TrackPointExtension>
        </extensions>
      </trkpt>
      <trkpt lat="43.455937765538692474365234375" lon="1.46828069351613521575927734375">
        <ele>254.399993896484375</ele>
        <time>2026-08-05T07:17:46.000Z</time>
        <extensions>
          <ns3:TrackPointExtension>
            <ns3:hr>97</ns3:hr>
            <ns3:cad>46</ns3:cad>
          </ns3:TrackPointExtension>
        </extensions>
      </trkpt>
      <trkpt lat="43.45593340694904327392578125" lon="1.46829661913216114044189453125">
        <ele>254.399993896484375</ele>
        <time>2026-08-05T07:17:47.000Z</time>
        <extensions>
          <ns3:TrackPointExtension>
            <ns3:hr>97</ns3:hr>
            <ns3:cad>46</ns3:cad>
          </ns3:TrackPointExtension>
        </extensions>
      </trkpt>
      <trkpt lat="43.45592628233134746551513671875" lon="1.4683077670633792877197265625">
        <ele>254.399993896484375</ele>
        <time>2026-08-05T07:17:48.000Z</time>
        <extensions>
          <ns3:TrackPointExtension>
            <ns3:hr>97</ns3:hr>
            <ns3:cad>46</ns3:cad>
          </ns3:TrackPointExtension>
        </extensions>
      </trkpt>
      <trkpt lat="43.4559191577136516571044921875" lon="1.46831640042364597320556640625">
        <ele>254.600006103515625</ele>
        <time>2026-08-05T07:17:49.000Z</time>
        <extensions>
          <ns3:TrackPointExtension>
            <ns3:hr>97</ns3:hr>
            <ns3:cad>46</ns3:cad>
          </ns3:TrackPointExtension>
        </extensions>
      </trkpt>
      <trkpt lat="43.45590918324887752532958984375" lon="1.4683265425264835357666015625">
        <ele>254.600006103515625</ele>
        <time>2026-08-05T07:17:50.000Z</time>
        <extensions>
          <ns3:TrackPointExtension>
            <ns3:hr>96</ns3:hr>
            <ns3:cad>47</ns3:cad>
          </ns3:TrackPointExtension>
        </extensions>
      </trkpt>
      <trkpt lat="43.45590365119278430938720703125" lon="1.4683446474373340606689453125">
        <ele>254.600006103515625</ele>
        <time>2026-08-05T07:17:51.000Z</time>
        <extensions>
          <ns3:TrackPointExtension>
            <ns3:hr>96</ns3:hr>
            <ns3:cad>48</ns3:cad>
          </ns3:TrackPointExtension>
        </extensions>
      </trkpt>
      <trkpt lat="43.4559010528028011322021484375" lon="1.4683547057211399078369140625">
        <ele>254.600006103515625</ele>
        <time>2026-08-05T07:17:52.000Z</time>
        <extensions>
          <ns3:TrackPointExtension>
            <ns3:hr>96</ns3:hr>
            <ns3:cad>48</ns3:cad>
          </ns3:TrackPointExtension>
        </extensions>
      </trkpt>
      <trkpt lat="43.4558963589370250701904296875" lon="1.46836166270077228546142578125">
        <ele>254.8000030517578125</ele>
        <time>2026-08-05T07:17:53.000Z</time>
        <extensions>
          <ns3:TrackPointExtension>
            <ns3:hr>96</ns3:hr>
            <ns3:cad>47</ns3:cad>
          </ns3:TrackPointExtension>
        </extensions>
      </trkpt>
      <trkpt lat="43.45589392818510532379150390625" lon="1.4683721400797367095947265625">
        <ele>254.8000030517578125</ele>
        <time>2026-08-05T07:17:54.000Z</time>
        <extensions>
          <ns3:TrackPointExtension>
            <ns3:hr>96</ns3:hr>
            <ns3:cad>47</ns3:cad>
          </ns3:TrackPointExtension>
        </extensions>
      </trkpt>
      <trkpt lat="43.45588915050029754638671875" lon="1.46839284338057041168212890625">
        <ele>254.8000030517578125</ele>
        <time>2026-08-05T07:17:55.000Z</time>
        <extensions>
          <ns3:TrackPointExtension>
            <ns3:hr>96</ns3:hr>
            <ns3:cad>47</ns3:cad>
          </ns3:TrackPointExtension>
        </extensions>
      </trkpt>
      <trkpt lat="43.45588487572968006134033203125" lon="1.4684076793491840362548828125">
        <ele>255</ele>
        <time>2026-08-05T07:17:56.000Z</time>
        <extensions>
          <ns3:TrackPointExtension>
            <ns3:hr>96</ns3:hr>
            <ns3:cad>47</ns3:cad>
          </ns3:TrackPointExtension>
        </extensions>
      </trkpt>
      <trkpt lat="43.4558792598545551300048828125" lon="1.46841966547071933746337890625">
        <ele>255</ele>
        <time>2026-08-05T07:17:57.000Z</time>
        <extensions>
          <ns3:TrackPointExtension>
            <ns3:hr>96</ns3:hr>
            <ns3:cad>46</ns3:cad>
          </ns3:TrackPointExtension>
        </extensions>
      </trkpt>
      <trkpt lat="43.45587448216974735260009765625" lon="1.46842427551746368408203125">
        <ele>255.1999969482421875</ele>
        <time>2026-08-05T07:17:58.000Z</time>
        <extensions>
          <ns3:TrackPointExtension>
            <ns3:hr>96</ns3:hr>
            <ns3:cad>46</ns3:cad>
          </ns3:TrackPointExtension>
        </extensions>
      </trkpt>
      <trkpt lat="43.45586911775171756744384765625" lon="1.46843978203833103179931640625">
        <ele>255.1999969482421875</ele>
        <time>2026-08-05T07:17:59.000Z</time>
        <extensions>
          <ns3:TrackPointExtension>
            <ns3:hr>96</ns3:hr>
            <ns3:cad>46</ns3:cad>
          </ns3:TrackPointExtension>
        </extensions>
      </trkpt>
      <trkpt lat="43.45586190931499004364013671875" lon="1.46844229660928249359130859375">
        <ele>255.399993896484375</ele>
        <time>2026-08-05T07:18:00.000Z</time>
        <extensions>
          <ns3:TrackPointExtension>
            <ns3:hr>95</ns3:hr>
            <ns3:cad>46</ns3:cad>
          </ns3:TrackPointExtension>
        </extensions>
      </trkpt>
      <trkpt lat="43.455859981477260589599609375" lon="1.46844631992280483245849609375">
        <ele>255.399993896484375</ele>
        <time>2026-08-05T07:18:01.000Z</time>
        <extensions>
          <ns3:TrackPointExtension>
            <ns3:hr>95</ns3:hr>
            <ns3:cad>46</ns3:cad>
          </ns3:TrackPointExtension>
        </extensions>
      </trkpt>
      <trkpt lat="43.45585654489696025848388671875" lon="1.46845377981662750244140625">
        <ele>255.399993896484375</ele>
        <time>2026-08-05T07:18:02.000Z</time>
        <extensions>
          <ns3:TrackPointExtension>
            <ns3:hr>95</ns3:hr>
            <ns3:cad>0</ns3:cad>
          </ns3:TrackPointExtension>
        </extensions>
      </trkpt>
      <trkpt lat="43.45585956238210201263427734375" lon="1.468459479510784149169921875">
        <ele>255.399993896484375</ele>
        <time>2026-08-05T07:18:03.000Z</time>
        <extensions>
          <ns3:TrackPointExtension>
            <ns3:hr>95</ns3:hr>
            <ns3:cad>0</ns3:cad>
          </ns3:TrackPointExtension>
        </extensions>
      </trkpt>
      <trkpt lat="43.45585696399211883544921875" lon="1.4684787578880786895751953125">
        <ele>255.399993896484375</ele>
        <time>2026-08-05T07:18:04.000Z</time>
        <extensions>
          <ns3:TrackPointExtension>
            <ns3:hr>95</ns3:hr>
            <ns3:cad>0</ns3:cad>
          </ns3:TrackPointExtension>
        </extensions>
      </trkpt>
      <trkpt lat="43.45585403032600879669189453125" lon="1.46849845536053180694580078125">
        <ele>255.399993896484375</ele>
        <time>2026-08-05T07:18:05.000Z</time>
        <extensions>
          <ns3:TrackPointExtension>
            <ns3:hr>95</ns3:hr>
            <ns3:cad>0</ns3:cad>
          </ns3:TrackPointExtension>
        </extensions>
      </trkpt>
      <trkpt lat="43.4558514319360256195068359375" lon="1.468507759273052215576171875">
        <ele>255.600006103515625</ele>
        <time>2026-08-05T07:18:06.000Z</time>
        <extensions>
          <ns3:TrackPointExtension>
            <ns3:hr>96</ns3:hr>
            <ns3:cad>0</ns3:cad>
          </ns3:TrackPointExtension>
        </extensions>
      </trkpt>
      <trkpt lat="43.45584665425121784210205078125" lon="1.46851907484233379364013671875">
        <ele>255.600006103515625</ele>
        <time>2026-08-05T07:18:07.000Z</time>
        <extensions>
          <ns3:TrackPointExtension>
            <ns3:hr>96</ns3:hr>
            <ns3:cad>0</ns3:cad>
          </ns3:TrackPointExtension>
        </extensions>
      </trkpt>
      <trkpt lat="43.45584095455706119537353515625" lon="1.46853667683899402618408203125">
        <ele>255.600006103515625</ele>
        <time>2026-08-05T07:18:08.000Z</time>
        <extensions>
          <ns3:TrackPointExtension>
            <ns3:hr>96</ns3:hr>
            <ns3:cad>0</ns3:cad>
          </ns3:TrackPointExtension>
        </extensions>
      </trkpt>
      <trkpt lat="43.4558363445103168487548828125" lon="1.468555033206939697265625">
        <ele>255.8000030517578125</ele>
        <time>2026-08-05T07:18:09.000Z</time>
        <extensions>
          <ns3:TrackPointExtension>
            <ns3:hr>96</ns3:hr>
            <ns3:cad>0</ns3:cad>
          </ns3:TrackPointExtension>
        </extensions>
      </trkpt>
      <trkpt lat="43.4558348357677459716796875" lon="1.468562744557857513427734375">
        <ele>255.8000030517578125</ele>
        <time>2026-08-05T07:18:10.000Z</time>
        <extensions>
          <ns3:TrackPointExtension>
            <ns3:hr>96</ns3:hr>
            <ns3:cad>0</ns3:cad>
          </ns3:TrackPointExtension>
        </extensions>
      </trkpt>
      <trkpt lat="43.45583206973969936370849609375" lon="1.46857456304132938385009765625">
        <ele>255.8000030517578125</ele>
        <time>2026-08-05T07:18:11.000Z</time>
        <extensions>
          <ns3:TrackPointExtension>
            <ns3:hr>96</ns3:hr>
            <ns3:cad>0</ns3:cad>
          </ns3:TrackPointExtension>
        </extensions>
      </trkpt>
      <trkpt lat="43.4558232687413692474365234375" lon="1.46859015338122844696044921875">
        <ele>256</ele>
        <time>2026-08-05T07:18:12.000Z</time>
        <extensions>
          <ns3:TrackPointExtension>
            <ns3:hr>96</ns3:hr>
            <ns3:cad>0</ns3:cad>
          </ns3:TrackPointExtension>
        </extensions>
      </trkpt>
      <trkpt lat="43.45581673085689544677734375" lon="1.4686088450253009796142578125">
        <ele>256</ele>
        <time>2026-08-05T07:18:13.000Z</time>
        <extensions>
          <ns3:TrackPointExtension>
            <ns3:hr>95</ns3:hr>
            <ns3:cad>0</ns3:cad>
          </ns3:TrackPointExtension>
        </extensions>
      </trkpt>
      <trkpt lat="43.4558091871440410614013671875" lon="1.468620412051677703857421875">
        <ele>256</ele>
        <time>2026-08-05T07:18:14.000Z</time>
        <extensions>
          <ns3:TrackPointExtension>
            <ns3:hr>96</ns3:hr>
            <ns3:cad>0</ns3:cad>
          </ns3:TrackPointExtension>
        </extensions>
      </trkpt>
      <trkpt lat="43.45580868422985076904296875" lon="1.46863155998289585113525390625">
        <ele>256.20001220703125</ele>
        <time>2026-08-05T07:18:15.000Z</time>
        <extensions>
          <ns3:TrackPointExtension>
            <ns3:hr>95</ns3:hr>
            <ns3:cad>0</ns3:cad>
          </ns3:TrackPointExtension>
        </extensions>
      </trkpt>
      <trkpt lat="43.45580223016440868377685546875" lon="1.46864010952413082122802734375">
        <ele>256.20001220703125</ele>
        <time>2026-08-05T07:18:16.000Z</time>
        <extensions>
          <ns3:TrackPointExtension>
            <ns3:hr>95</ns3:hr>
            <ns3:cad>0</ns3:cad>
          </ns3:TrackPointExtension>
        </extensions>
      </trkpt>
      <trkpt lat="43.45580105669796466827392578125" lon="1.46864949725568294525146484375">
        <ele>256.20001220703125</ele>
        <time>2026-08-05T07:18:17.000Z</time>
        <extensions>
          <ns3:TrackPointExtension>
            <ns3:hr>95</ns3:hr>
            <ns3:cad>48</ns3:cad>
          </ns3:TrackPointExtension>
        </extensions>
      </trkpt>
      <trkpt lat="43.455795608460903167724609375" lon="1.468666680157184600830078125">
        <ele>256.20001220703125</ele>
        <time>2026-08-05T07:18:18.000Z</time>
        <extensions>
          <ns3:TrackPointExtension>
            <ns3:hr>94</ns3:hr>
            <ns3:cad>48</ns3:cad>
          </ns3:TrackPointExtension>
        </extensions>
      </trkpt>
      <trkpt lat="43.4557910822331905364990234375" lon="1.468680761754512786865234375">
        <ele>256.20001220703125</ele>
        <time>2026-08-05T07:18:19.000Z</time>
        <extensions>
          <ns3:TrackPointExtension>
            <ns3:hr>94</ns3:hr>
            <ns3:cad>48</ns3:cad>
          </ns3:TrackPointExtension>
        </extensions>
      </trkpt>
      <trkpt lat="43.4557867236435413360595703125" lon="1.4686936698853969573974609375">
        <ele>256.20001220703125</ele>
        <time>2026-08-05T07:18:20.000Z</time>
        <extensions>
          <ns3:TrackPointExtension>
            <ns3:hr>94</ns3:hr>
            <ns3:cad>48</ns3:cad>
          </ns3:TrackPointExtension>
        </extensions>
      </trkpt>
      <trkpt lat="43.4557840414345264434814453125" lon="1.46870548836886882781982421875">
        <ele>256.399993896484375</ele>
        <time>2026-08-05T07:18:21.000Z</time>
        <extensions>
          <ns3:TrackPointExtension>
            <ns3:hr>95</ns3:hr>
            <ns3:cad>48</ns3:cad>
          </ns3:TrackPointExtension>
        </extensions>
      </trkpt>
      <trkpt lat="43.45577892847359180450439453125" lon="1.4687218330800533294677734375">
        <ele>256.399993896484375</ele>
        <time>2026-08-05T07:18:22.000Z</time>
        <extensions>
          <ns3:TrackPointExtension>
            <ns3:hr>94</ns3:hr>
            <ns3:cad>49</ns3:cad>
          </ns3:TrackPointExtension>
        </extensions>
      </trkpt>
      <trkpt lat="43.4557726420462131500244140625" lon="1.46873599849641323089599609375">
        <ele>256.399993896484375</ele>
        <time>2026-08-05T07:18:23.000Z</time>
        <extensions>
          <ns3:TrackPointExtension>
            <ns3:hr>94</ns3:hr>
            <ns3:cad>49</ns3:cad>
          </ns3:TrackPointExtension>
        </extensions>
      </trkpt>
      <trkpt lat="43.45576518215239048004150390625" lon="1.4687459729611873626708984375">
        <ele>256.600006103515625</ele>
        <time>2026-08-05T07:18:24.000Z</time>
        <extensions>
          <ns3:TrackPointExtension>
            <ns3:hr>95</ns3:hr>
            <ns3:cad>48</ns3:cad>
          </ns3:TrackPointExtension>
        </extensions>
      </trkpt>
      <trkpt lat="43.4557642601430416107177734375" lon="1.468755193054676055908203125">
        <ele>256.600006103515625</ele>
        <time>2026-08-05T07:18:25.000Z</time>
        <extensions>
          <ns3:TrackPointExtension>
            <ns3:hr>94</ns3:hr>
            <ns3:cad>46</ns3:cad>
          </ns3:TrackPointExtension>
        </extensions>
      </trkpt>
      <trkpt lat="43.45575914718210697174072265625" lon="1.46877304650843143463134765625">
        <ele>256.600006103515625</ele>
        <time>2026-08-05T07:18:26.000Z</time>
        <extensions>
          <ns3:TrackPointExtension>
            <ns3:hr>94</ns3:hr>
            <ns3:cad>46</ns3:cad>
          </ns3:TrackPointExtension>
        </extensions>
      </trkpt>
      <trkpt lat="43.45575680024921894073486328125" lon="1.46878478117287158966064453125">
        <ele>256.79998779296875</ele>
        <time>2026-08-05T07:18:27.000Z</time>
        <extensions>
          <ns3:TrackPointExtension>
            <ns3:hr>95</ns3:hr>
            <ns3:cad>46</ns3:cad>
          </ns3:TrackPointExtension>
        </extensions>
      </trkpt>
      <trkpt lat="43.45575504004955291748046875" lon="1.46879366599023342132568359375">
        <ele>256.79998779296875</ele>
        <time>2026-08-05T07:18:28.000Z</time>
        <extensions>
          <ns3:TrackPointExtension>
            <ns3:hr>94</ns3:hr>
            <ns3:cad>45</ns3:cad>
          </ns3:TrackPointExtension>
        </extensions>
      </trkpt>
      <trkpt lat="43.4557488374412059783935546875" lon="1.46880456246435642242431640625">
        <ele>256.79998779296875</ele>
        <time>2026-08-05T07:18:29.000Z</time>
        <extensions>
          <ns3:TrackPointExtension>
            <ns3:hr>94</ns3:hr>
            <ns3:cad>44</ns3:cad>
          </ns3:TrackPointExtension>
        </extensions>
      </trkpt>
      <trkpt lat="43.45574070699512958526611328125" lon="1.46881311200559139251708984375">
        <ele>256.79998779296875</ele>
        <time>2026-08-05T07:18:30.000Z</time>
        <extensions>
          <ns3:TrackPointExtension>
            <ns3:hr>94</ns3:hr>
            <ns3:cad>44</ns3:cad>
          </ns3:TrackPointExtension>
        </extensions>
      </trkpt>
      <trkpt lat="43.4557371027767658233642578125" lon="1.46882526576519012451171875">
        <ele>256.79998779296875</ele>
        <time>2026-08-05T07:18:31.000Z</time>
        <extensions>
          <ns3:TrackPointExtension>
            <ns3:hr>94</ns3:hr>
            <ns3:cad>44</ns3:cad>
          </ns3:TrackPointExtension>
        </extensions>
      </trkpt>
      <trkpt lat="43.45573266036808490753173828125" lon="1.46883741952478885650634765625">
        <ele>256.79998779296875</ele>
        <time>2026-08-05T07:18:32.000Z</time>
        <extensions>
          <ns3:TrackPointExtension>
            <ns3:hr>94</ns3:hr>
            <ns3:cad>47</ns3:cad>
          </ns3:TrackPointExtension>
        </extensions>
      </trkpt>
      <trkpt lat="43.455731235444545745849609375" lon="1.4688460528850555419921875">
        <ele>256.79998779296875</ele>
        <time>2026-08-05T07:18:33.000Z</time>
        <extensions>
          <ns3:TrackPointExtension>
            <ns3:hr>95</ns3:hr>
            <ns3:cad>47</ns3:cad>
          </ns3:TrackPointExtension>
        </extensions>
      </trkpt>
      <trkpt lat="43.45572679303586483001708984375" lon="1.46885753609240055084228515625">
        <ele>257</ele>
        <time>2026-08-05T07:18:34.000Z</time>
        <extensions>
          <ns3:TrackPointExtension>
            <ns3:hr>94</ns3:hr>
            <ns3:cad>47</ns3:cad>
          </ns3:TrackPointExtension>
        </extensions>
      </trkpt>
      <trkpt lat="43.45571841113269329071044921875" lon="1.4688706956803798675537109375">
        <ele>257</ele>
        <time>2026-08-05T07:18:35.000Z</time>
        <extensions>
          <ns3:TrackPointExtension>
            <ns3:hr>94</ns3:hr>
            <ns3:cad>47</ns3:cad>
          </ns3:TrackPointExtension>
        </extensions>
      </trkpt>
      <trkpt lat="43.455713801085948944091796875" lon="1.4688804186880588531494140625">
        <ele>257</ele>
        <time>2026-08-05T07:18:36.000Z</time>
        <extensions>
          <ns3:TrackPointExtension>
            <ns3:hr>95</ns3:hr>
            <ns3:cad>46</ns3:cad>
          </ns3:TrackPointExtension>
        </extensions>
      </trkpt>
      <trkpt lat="43.45570634119212627410888671875" lon="1.46889139898121356964111328125">
        <ele>257</ele>
        <time>2026-08-05T07:18:37.000Z</time>
        <extensions>
          <ns3:TrackPointExtension>
            <ns3:hr>95</ns3:hr>
            <ns3:cad>46</ns3:cad>
          </ns3:TrackPointExtension>
        </extensions>
      </trkpt>
      <trkpt lat="43.4556992165744304656982421875" lon="1.468908078968524932861328125">
        <ele>257</ele>
        <time>2026-08-05T07:18:38.000Z</time>
        <extensions>
          <ns3:TrackPointExtension>
            <ns3:hr>95</ns3:hr>
            <ns3:cad>46</ns3:cad>
          </ns3:TrackPointExtension>
        </extensions>
      </trkpt>
      <trkpt lat="43.45569443888962268829345703125" lon="1.4689286984503269195556640625">
        <ele>257.20001220703125</ele>
        <time>2026-08-05T07:18:39.000Z</time>
        <extensions>
          <ns3:TrackPointExtension>
            <ns3:hr>96</ns3:hr>
            <ns3:cad>46</ns3:cad>
          </ns3:TrackPointExtension>
        </extensions>
      </trkpt>
      <trkpt lat="43.45569477416574954986572265625" lon="1.46894596517086029052734375">
        <ele>257.20001220703125</ele>
        <time>2026-08-05T07:18:40.000Z</time>
        <extensions>
          <ns3:TrackPointExtension>
            <ns3:hr>96</ns3:hr>
            <ns3:cad>46</ns3:cad>
          </ns3:TrackPointExtension>
        </extensions>
      </trkpt>
      <trkpt lat="43.4556901641190052032470703125" lon="1.468959040939807891845703125">
        <ele>257.399993896484375</ele>
        <time>2026-08-05T07:18:41.000Z</time>
        <extensions>
          <ns3:TrackPointExtension>
            <ns3:hr>96</ns3:hr>
            <ns3:cad>44</ns3:cad>
          </ns3:TrackPointExtension>
        </extensions>
      </trkpt>
      <trkpt lat="43.455686308443546295166015625" lon="1.468969099223613739013671875">
        <ele>257.399993896484375</ele>
        <time>2026-08-05T07:18:42.000Z</time>
        <extensions>
          <ns3:TrackPointExtension>
            <ns3:hr>97</ns3:hr>
            <ns3:cad>44</ns3:cad>
          </ns3:TrackPointExtension>
        </extensions>
      </trkpt>
      <trkpt lat="43.4556765854358673095703125" lon="1.46898594684898853302001953125">
        <ele>257.399993896484375</ele>
        <time>2026-08-05T07:18:43.000Z</time>
        <extensions>
          <ns3:TrackPointExtension>
            <ns3:hr>97</ns3:hr>
            <ns3:cad>46</ns3:cad>
          </ns3:TrackPointExtension>
        </extensions>
      </trkpt>
      <trkpt lat="43.455671556293964385986328125" lon="1.46900187246501445770263671875">
        <ele>257.600006103515625</ele>
        <time>2026-08-05T07:18:44.000Z</time>
        <extensions>
          <ns3:TrackPointExtension>
            <ns3:hr>97</ns3:hr>
            <ns3:cad>46</ns3:cad>
          </ns3:TrackPointExtension>
        </extensions>
      </trkpt>
      <trkpt lat="43.455667532980442047119140625" lon="1.4690151996910572052001953125">
        <ele>257.600006103515625</ele>
        <time>2026-08-05T07:18:45.000Z</time>
        <extensions>
          <ns3:TrackPointExtension>
            <ns3:hr>97</ns3:hr>
            <ns3:cad>46</ns3:cad>
          </ns3:TrackPointExtension>
        </extensions>
      </trkpt>
      <trkpt lat="43.45566426403820514678955078125" lon="1.46902215667068958282470703125">
        <ele>257.600006103515625</ele>
        <time>2026-08-05T07:18:46.000Z</time>
        <extensions>
          <ns3:TrackPointExtension>
            <ns3:hr>97</ns3:hr>
            <ns3:cad>47</ns3:cad>
          </ns3:TrackPointExtension>
        </extensions>
      </trkpt>
      <trkpt lat="43.45565982162952423095703125" lon="1.4690363220870494842529296875">
        <ele>257.600006103515625</ele>
        <time>2026-08-05T07:18:47.000Z</time>
        <extensions>
          <ns3:TrackPointExtension>
            <ns3:hr>97</ns3:hr>
            <ns3:cad>46</ns3:cad>
          </ns3:TrackPointExtension>
        </extensions>
      </trkpt>
      <trkpt lat="43.455656468868255615234375" lon="1.469048224389553070068359375">
        <ele>257.600006103515625</ele>
        <time>2026-08-05T07:18:48.000Z</time>
        <extensions>
          <ns3:TrackPointExtension>
            <ns3:hr>97</ns3:hr>
            <ns3:cad>46</ns3:cad>
          </ns3:TrackPointExtension>
        </extensions>
      </trkpt>
      <trkpt lat="43.455650769174098968505859375" lon="1.4690579473972320556640625">
        <ele>257.600006103515625</ele>
        <time>2026-08-05T07:18:49.000Z</time>
        <extensions>
          <ns3:TrackPointExtension>
            <ns3:hr>96</ns3:hr>
            <ns3:cad>46</ns3:cad>
          </ns3:TrackPointExtension>
        </extensions>
      </trkpt>
      <trkpt lat="43.455648086965084075927734375" lon="1.46906691603362560272216796875">
        <ele>257.600006103515625</ele>
        <time>2026-08-05T07:18:50.000Z</time>
        <extensions>
          <ns3:TrackPointExtension>
            <ns3:hr>95</ns3:hr>
            <ns3:cad>46</ns3:cad>
          </ns3:TrackPointExtension>
        </extensions>
      </trkpt>
      <trkpt lat="43.455641381442546844482421875" lon="1.46908342838287353515625">
        <ele>257.600006103515625</ele>
        <time>2026-08-05T07:18:51.000Z</time>
        <extensions>
          <ns3:TrackPointExtension>
            <ns3:hr>94</ns3:hr>
            <ns3:cad>45</ns3:cad>
          </ns3:TrackPointExtension>
        </extensions>
      </trkpt>
      <trkpt lat="43.45563643611967563629150390625" lon="1.4690990187227725982666015625">
        <ele>257.600006103515625</ele>
        <time>2026-08-05T07:18:52.000Z</time>
        <extensions>
          <ns3:TrackPointExtension>
            <ns3:hr>92</ns3:hr>
            <ns3:cad>46</ns3:cad>
          </ns3:TrackPointExtension>
        </extensions>
      </trkpt>
      <trkpt lat="43.455633334815502166748046875" lon="1.46911301650106906890869140625">
        <ele>257.79998779296875</ele>
        <time>2026-08-05T07:18:53.000Z</time>
        <extensions>
          <ns3:TrackPointExtension>
            <ns3:hr>92</ns3:hr>
            <ns3:cad>46</ns3:cad>
          </ns3:TrackPointExtension>
        </extensions>
      </trkpt>
      <trkpt lat="43.455626629292964935302734375" lon="1.4691208116710186004638671875">
        <ele>257.79998779296875</ele>
        <time>2026-08-05T07:18:54.000Z</time>
        <extensions>
          <ns3:TrackPointExtension>
            <ns3:hr>91</ns3:hr>
            <ns3:cad>45</ns3:cad>
          </ns3:TrackPointExtension>
        </extensions>
      </trkpt>
      <trkpt lat="43.455622605979442596435546875" lon="1.4691338874399662017822265625">
        <ele>257.79998779296875</ele>
        <time>2026-08-05T07:18:55.000Z</time>
        <extensions>
          <ns3:TrackPointExtension>
            <ns3:hr>90</ns3:hr>
            <ns3:cad>45</ns3:cad>
          </ns3:TrackPointExtension>
        </extensions>
      </trkpt>
      <trkpt lat="43.45561514608561992645263671875" lon="1.46914872340857982635498046875">
        <ele>258</ele>
        <time>2026-08-05T07:18:56.000Z</time>
        <extensions>
          <ns3:TrackPointExtension>
            <ns3:hr>89</ns3:hr>
            <ns3:cad>45</ns3:cad>
          </ns3:TrackPointExtension>
        </extensions>
      </trkpt>
      <trkpt lat="43.455613888800144195556640625" lon="1.46915777586400508880615234375">
        <ele>258</ele>
        <time>2026-08-05T07:18:57.000Z</time>
        <extensions>
          <ns3:TrackPointExtension>
            <ns3:hr>88</ns3:hr>
            <ns3:cad>47</ns3:cad>
          </ns3:TrackPointExtension>
        </extensions>
      </trkpt>
      <trkpt lat="43.45560944639146327972412109375" lon="1.46917051635682582855224609375">
        <ele>258.20001220703125</ele>
        <time>2026-08-05T07:18:58.000Z</time>
        <extensions>
          <ns3:TrackPointExtension>
            <ns3:hr>88</ns3:hr>
            <ns3:cad>47</ns3:cad>
          </ns3:TrackPointExtension>
        </extensions>
      </trkpt>
      <trkpt lat="43.45560290850698947906494140625" lon="1.4691851846873760223388671875">
        <ele>258.399993896484375</ele>
        <time>2026-08-05T07:18:59.000Z</time>
        <extensions>
          <ns3:TrackPointExtension>
            <ns3:hr>88</ns3:hr>
            <ns3:cad>47</ns3:cad>
          </ns3:TrackPointExtension>
        </extensions>
      </trkpt>
      <trkpt lat="43.455599807202816009521484375" lon="1.46920320577919483184814453125">
        <ele>258.600006103515625</ele>
        <time>2026-08-05T07:19:00.000Z</time>
        <extensions>
          <ns3:TrackPointExtension>
            <ns3:hr>88</ns3:hr>
            <ns3:cad>46</ns3:cad>
          </ns3:TrackPointExtension>
        </extensions>
      </trkpt>
      <trkpt lat="43.45559519715607166290283203125" lon="1.46921158768236637115478515625">
        <ele>258.600006103515625</ele>
        <time>2026-08-05T07:19:01.000Z</time>
        <extensions>
          <ns3:TrackPointExtension>
            <ns3:hr>88</ns3:hr>
            <ns3:cad>46</ns3:cad>
          </ns3:TrackPointExtension>
        </extensions>
      </trkpt>
      <trkpt lat="43.45559217967092990875244140625" lon="1.46921745501458644866943359375">
        <ele>258.600006103515625</ele>
        <time>2026-08-05T07:19:02.000Z</time>
        <extensions>
          <ns3:TrackPointExtension>
            <ns3:hr>87</ns3:hr>
            <ns3:cad>0</ns3:cad>
          </ns3:TrackPointExtension>
        </extensions>
      </trkpt>
      <trkpt lat="43.4555858932435512542724609375" lon="1.469230614602565765380859375">
        <ele>258.600006103515625</ele>
        <time>2026-08-05T07:19:03.000Z</time>
        <extensions>
          <ns3:TrackPointExtension>
            <ns3:hr>88</ns3:hr>
            <ns3:cad>0</ns3:cad>
          </ns3:TrackPointExtension>
        </extensions>
      </trkpt>
      <trkpt lat="43.45558203756809234619140625" lon="1.46924964152276515960693359375">
        <ele>258.399993896484375</ele>
        <time>2026-08-05T07:19:04.000Z</time>
        <extensions>
          <ns3:TrackPointExtension>
            <ns3:hr>88</ns3:hr>
            <ns3:cad>0</ns3:cad>
          </ns3:TrackPointExtension>
        </extensions>
      </trkpt>
      <trkpt lat="43.45557927154004573822021484375" lon="1.46926523186266422271728515625">
        <ele>258.399993896484375</ele>
        <time>2026-08-05T07:19:05.000Z</time>
        <extensions>
          <ns3:TrackPointExtension>
            <ns3:hr>88</ns3:hr>
            <ns3:cad>45</ns3:cad>
          </ns3:TrackPointExtension>
        </extensions>
      </trkpt>
      <trkpt lat="43.45557776279747486114501953125" lon="1.469269506633281707763671875">
        <ele>258.399993896484375</ele>
        <time>2026-08-05T07:19:06.000Z</time>
        <extensions>
          <ns3:TrackPointExtension>
            <ns3:hr>88</ns3:hr>
            <ns3:cad>45</ns3:cad>
          </ns3:TrackPointExtension>
        </extensions>
      </trkpt>
      <trkpt lat="43.4555711410939693450927734375" lon="1.46928467787802219390869140625">
        <ele>258.399993896484375</ele>
        <time>2026-08-05T07:19:07.000Z</time>
        <extensions>
          <ns3:TrackPointExtension>
            <ns3:hr>87</ns3:hr>
            <ns3:cad>45</ns3:cad>
          </ns3:TrackPointExtension>
        </extensions>
      </trkpt>
      <trkpt lat="43.4555657766759395599365234375" lon="1.46929959766566753387451171875">
        <ele>258.399993896484375</ele>
        <time>2026-08-05T07:19:08.000Z</time>
        <extensions>
          <ns3:TrackPointExtension>
            <ns3:hr>87</ns3:hr>
            <ns3:cad>45</ns3:cad>
          </ns3:TrackPointExtension>
        </extensions>
      </trkpt>
      <trkpt lat="43.45555865205824375152587890625" lon="1.46931342780590057373046875">
        <ele>258.600006103515625</ele>
        <time>2026-08-05T07:19:09.000Z</time>
        <extensions>
          <ns3:TrackPointExtension>
            <ns3:hr>87</ns3:hr>
            <ns3:cad>45</ns3:cad>
          </ns3:TrackPointExtension>
        </extensions>
      </trkpt>
      <trkpt lat="43.45555479638278484344482421875" lon="1.4693248271942138671875">
        <ele>258.600006103515625</ele>
        <time>2026-08-05T07:19:10.000Z</time>
        <extensions>
          <ns3:TrackPointExtension>
            <ns3:hr>86</ns3:hr>
            <ns3:cad>45</ns3:cad>
          </ns3:TrackPointExtension>
        </extensions>
      </trkpt>
      <trkpt lat="43.4555490128695964813232421875" lon="1.46933597512543201446533203125">
        <ele>258.79998779296875</ele>
        <time>2026-08-05T07:19:11.000Z</time>
        <extensions>
          <ns3:TrackPointExtension>
            <ns3:hr>86</ns3:hr>
            <ns3:cad>45</ns3:cad>
          </ns3:TrackPointExtension>
        </extensions>
      </trkpt>
      <trkpt lat="43.45554289408028125762939453125" lon="1.46935055963695049285888671875">
        <ele>258.79998779296875</ele>
        <time>2026-08-05T07:19:12.000Z</time>
        <extensions>
          <ns3:TrackPointExtension>
            <ns3:hr>87</ns3:hr>
            <ns3:cad>45</ns3:cad>
          </ns3:TrackPointExtension>
        </extensions>
      </trkpt>
      <trkpt lat="43.4555386193096637725830078125" lon="1.46936028264462947845458984375">
        <ele>258.79998779296875</ele>
        <time>2026-08-05T07:19:13.000Z</time>
        <extensions>
          <ns3:TrackPointExtension>
            <ns3:hr>88</ns3:hr>
            <ns3:cad>48</ns3:cad>
          </ns3:TrackPointExtension>
        </extensions>
      </trkpt>
      <trkpt lat="43.45553115941584110260009765625" lon="1.4693690836429595947265625">
        <ele>258.79998779296875</ele>
        <time>2026-08-05T07:19:14.000Z</time>
        <extensions>
          <ns3:TrackPointExtension>
            <ns3:hr>88</ns3:hr>
            <ns3:cad>48</ns3:cad>
          </ns3:TrackPointExtension>
        </extensions>
      </trkpt>
      <trkpt lat="43.4555285610258579254150390625" lon="1.46937889046967029571533203125">
        <ele>258.79998779296875</ele>
        <time>2026-08-05T07:19:15.000Z</time>
        <extensions>
          <ns3:TrackPointExtension>
            <ns3:hr>88</ns3:hr>
            <ns3:cad>48</ns3:cad>
          </ns3:TrackPointExtension>
        </extensions>
      </trkpt>
      <trkpt lat="43.45552160404622554779052734375" lon="1.46939666010439395904541015625">
        <ele>258.79998779296875</ele>
        <time>2026-08-05T07:19:16.000Z</time>
        <extensions>
          <ns3:TrackPointExtension>
            <ns3:hr>89</ns3:hr>
            <ns3:cad>48</ns3:cad>
          </ns3:TrackPointExtension>
        </extensions>
      </trkpt>
      <trkpt lat="43.4555144794285297393798828125" lon="1.4694161899387836456298828125">
        <ele>259</ele>
        <time>2026-08-05T07:19:17.000Z</time>
        <extensions>
          <ns3:TrackPointExtension>
            <ns3:hr>88</ns3:hr>
            <ns3:cad>48</ns3:cad>
          </ns3:TrackPointExtension>
        </extensions>
      </trkpt>
      <trkpt lat="43.45550852827727794647216796875" lon="1.46943253464996814727783203125">
        <ele>259</ele>
        <time>2026-08-05T07:19:18.000Z</time>
        <extensions>
          <ns3:TrackPointExtension>
            <ns3:hr>88</ns3:hr>
            <ns3:cad>47</ns3:cad>
          </ns3:TrackPointExtension>
        </extensions>
      </trkpt>
      <trkpt lat="43.45550366677343845367431640625" lon="1.469442844390869140625">
        <ele>259</ele>
        <time>2026-08-05T07:19:19.000Z</time>
        <extensions>
          <ns3:TrackPointExtension>
            <ns3:hr>89</ns3:hr>
            <ns3:cad>47</ns3:cad>
          </ns3:TrackPointExtension>
        </extensions>
      </trkpt>
      <trkpt lat="43.455499894917011260986328125" lon="1.46945424377918243408203125">
        <ele>259</ele>
        <time>2026-08-05T07:19:20.000Z</time>
        <extensions>
          <ns3:TrackPointExtension>
            <ns3:hr>88</ns3:hr>
            <ns3:cad>47</ns3:cad>
          </ns3:TrackPointExtension>
        </extensions>
      </trkpt>
      <trkpt lat="43.4554926864802837371826171875" lon="1.4694750308990478515625">
        <ele>259</ele>
        <time>2026-08-05T07:19:21.000Z</time>
        <extensions>
          <ns3:TrackPointExtension>
            <ns3:hr>88</ns3:hr>
            <ns3:cad>47</ns3:cad>
          </ns3:TrackPointExtension>
        </extensions>
      </trkpt>
      <trkpt lat="43.4554873220622539520263671875" lon="1.46948919631540775299072265625">
        <ele>259</ele>
        <time>2026-08-05T07:19:22.000Z</time>
        <extensions>
          <ns3:TrackPointExtension>
            <ns3:hr>88</ns3:hr>
            <ns3:cad>47</ns3:cad>
          </ns3:TrackPointExtension>
        </extensions>
      </trkpt>
      <trkpt lat="43.45548170618712902069091796875" lon="1.46950042806565761566162109375">
        <ele>259</ele>
        <time>2026-08-05T07:19:23.000Z</time>
        <extensions>
          <ns3:TrackPointExtension>
            <ns3:hr>89</ns3:hr>
            <ns3:cad>47</ns3:cad>
          </ns3:TrackPointExtension>
        </extensions>
      </trkpt>
      <trkpt lat="43.45548011362552642822265625" lon="1.4695050381124019622802734375">
        <ele>259.20001220703125</ele>
        <time>2026-08-05T07:19:24.000Z</time>
        <extensions>
          <ns3:TrackPointExtension>
            <ns3:hr>90</ns3:hr>
            <ns3:cad>48</ns3:cad>
          </ns3:TrackPointExtension>
        </extensions>
      </trkpt>
      <trkpt lat="43.4554729051887989044189453125" lon="1.46951819770038127899169921875">
        <ele>259.20001220703125</ele>
        <time>2026-08-05T07:19:25.000Z</time>
        <extensions>
          <ns3:TrackPointExtension>
            <ns3:hr>90</ns3:hr>
            <ns3:cad>48</ns3:cad>
          </ns3:TrackPointExtension>
        </extensions>
      </trkpt>
      <trkpt lat="43.45546795986592769622802734375" lon="1.46952842362225055694580078125">
        <ele>259.399993896484375</ele>
        <time>2026-08-05T07:19:26.000Z</time>
        <extensions>
          <ns3:TrackPointExtension>
            <ns3:hr>92</ns3:hr>
            <ns3:cad>47</ns3:cad>
          </ns3:TrackPointExtension>
        </extensions>
      </trkpt>
      <trkpt lat="43.455463685095310211181640625" lon="1.469541080296039581298828125">
        <ele>259.399993896484375</ele>
        <time>2026-08-05T07:19:27.000Z</time>
        <extensions>
          <ns3:TrackPointExtension>
            <ns3:hr>93</ns3:hr>
            <ns3:cad>46</ns3:cad>
          </ns3:TrackPointExtension>
        </extensions>
      </trkpt>
      <trkpt lat="43.45546192489564418792724609375" lon="1.4695516414940357208251953125">
        <ele>259.399993896484375</ele>
        <time>2026-08-05T07:19:28.000Z</time>
        <extensions>
          <ns3:TrackPointExtension>
            <ns3:hr>93</ns3:hr>
            <ns3:cad>46</ns3:cad>
          </ns3:TrackPointExtension>
        </extensions>
      </trkpt>
      <trkpt lat="43.45545639283955097198486328125" lon="1.46956698037683963775634765625">
        <ele>259.600006103515625</ele>
        <time>2026-08-05T07:19:29.000Z</time>
        <extensions>
          <ns3:TrackPointExtension>
            <ns3:hr>93</ns3:hr>
            <ns3:cad>46</ns3:cad>
          </ns3:TrackPointExtension>
        </extensions>
      </trkpt>
      <trkpt lat="43.455450274050235748291015625" lon="1.4695791341364383697509765625">
        <ele>259.600006103515625</ele>
        <time>2026-08-05T07:19:30.000Z</time>
        <extensions>
          <ns3:TrackPointExtension>
            <ns3:hr>93</ns3:hr>
            <ns3:cad>46</ns3:cad>
          </ns3:TrackPointExtension>
        </extensions>
      </trkpt>
      <trkpt lat="43.4554454125463962554931640625" lon="1.46959371864795684814453125">
        <ele>259.600006103515625</ele>
        <time>2026-08-05T07:19:31.000Z</time>
        <extensions>
          <ns3:TrackPointExtension>
            <ns3:hr>93</ns3:hr>
            <ns3:cad>48</ns3:cad>
          </ns3:TrackPointExtension>
        </extensions>
      </trkpt>
      <trkpt lat="43.4554420597851276397705078125" lon="1.4696076326072216033935546875">
        <ele>259.600006103515625</ele>
        <time>2026-08-05T07:19:32.000Z</time>
        <extensions>
          <ns3:TrackPointExtension>
            <ns3:hr>93</ns3:hr>
            <ns3:cad>48</ns3:cad>
          </ns3:TrackPointExtension>
        </extensions>
      </trkpt>
      <trkpt lat="43.45543761737644672393798828125" lon="1.46961961872875690460205078125">
        <ele>259.600006103515625</ele>
        <time>2026-08-05T07:19:33.000Z</time>
        <extensions>
          <ns3:TrackPointExtension>
            <ns3:hr>92</ns3:hr>
            <ns3:cad>48</ns3:cad>
          </ns3:TrackPointExtension>
        </extensions>
      </trkpt>
      <trkpt lat="43.4554316662251949310302734375" lon="1.46963126957416534423828125">
        <ele>259.600006103515625</ele>
        <time>2026-08-05T07:19:34.000Z</time>
        <extensions>
          <ns3:TrackPointExtension>
            <ns3:hr>92</ns3:hr>
            <ns3:cad>48</ns3:cad>
          </ns3:TrackPointExtension>
        </extensions>
      </trkpt>
      <trkpt lat="43.45542454160749912261962890625" lon="1.4696471951901912689208984375">
        <ele>259.79998779296875</ele>
        <time>2026-08-05T07:19:35.000Z</time>
        <extensions>
          <ns3:TrackPointExtension>
            <ns3:hr>92</ns3:hr>
            <ns3:cad>48</ns3:cad>
          </ns3:TrackPointExtension>
        </extensions>
      </trkpt>
      <trkpt lat="43.4554179199039936065673828125" lon="1.46965985186398029327392578125">
        <ele>259.79998779296875</ele>
        <time>2026-08-05T07:19:36.000Z</time>
        <extensions>
          <ns3:TrackPointExtension>
            <ns3:hr>92</ns3:hr>
            <ns3:cad>48</ns3:cad>
          </ns3:TrackPointExtension>
        </extensions>
      </trkpt>
      <trkpt lat="43.45541096292436122894287109375" lon="1.4696733467280864715576171875">
        <ele>259.79998779296875</ele>
        <time>2026-08-05T07:19:37.000Z</time>
        <extensions>
          <ns3:TrackPointExtension>
            <ns3:hr>92</ns3:hr>
            <ns3:cad>47</ns3:cad>
          </ns3:TrackPointExtension>
        </extensions>
      </trkpt>
      <trkpt lat="43.45540559850633144378662109375" lon="1.4696844108402729034423828125">
        <ele>259.79998779296875</ele>
        <time>2026-08-05T07:19:38.000Z</time>
        <extensions>
          <ns3:TrackPointExtension>
            <ns3:hr>92</ns3:hr>
            <ns3:cad>47</ns3:cad>
          </ns3:TrackPointExtension>
        </extensions>
      </trkpt>
      <trkpt lat="43.45539830625057220458984375" lon="1.46969974972307682037353515625">
        <ele>259.79998779296875</ele>
        <time>2026-08-05T07:19:39.000Z</time>
        <extensions>
          <ns3:TrackPointExtension>
            <ns3:hr>92</ns3:hr>
            <ns3:cad>47</ns3:cad>
          </ns3:TrackPointExtension>
        </extensions>
      </trkpt>
      <trkpt lat="43.45539285801351070404052734375" lon="1.46971534006297588348388671875">
        <ele>259.79998779296875</ele>
        <time>2026-08-05T07:19:40.000Z</time>
        <extensions>
          <ns3:TrackPointExtension>
            <ns3:hr>92</ns3:hr>
            <ns3:cad>46</ns3:cad>
          </ns3:TrackPointExtension>
        </extensions>
      </trkpt>
      <trkpt lat="43.455387912690639495849609375" lon="1.4697284996509552001953125">
        <ele>259.79998779296875</ele>
        <time>2026-08-05T07:19:41.000Z</time>
        <extensions>
          <ns3:TrackPointExtension>
            <ns3:hr>92</ns3:hr>
            <ns3:cad>46</ns3:cad>
          </ns3:TrackPointExtension>
        </extensions>
      </trkpt>
      <trkpt lat="43.45538229681551456451416015625" lon="1.46974249742925167083740234375">
        <ele>259.79998779296875</ele>
        <time>2026-08-05T07:19:42.000Z</time>
        <extensions>
          <ns3:TrackPointExtension>
            <ns3:hr>91</ns3:hr>
            <ns3:cad>47</ns3:cad>
          </ns3:TrackPointExtension>
        </extensions>
      </trkpt>
      <trkpt lat="43.45537684857845306396484375" lon="1.469752974808216094970703125">
        <ele>259.79998779296875</ele>
        <time>2026-08-05T07:19:43.000Z</time>
        <extensions>
          <ns3:TrackPointExtension>
            <ns3:hr>92</ns3:hr>
            <ns3:cad>47</ns3:cad>
          </ns3:TrackPointExtension>
        </extensions>
      </trkpt>
      <trkpt lat="43.455371819436550140380859375" lon="1.4697660505771636962890625">
        <ele>260</ele>
        <time>2026-08-05T07:19:44.000Z</time>
        <extensions>
          <ns3:TrackPointExtension>
            <ns3:hr>91</ns3:hr>
            <ns3:cad>47</ns3:cad>
          </ns3:TrackPointExtension>
        </extensions>
      </trkpt>
      <trkpt lat="43.45536477863788604736328125" lon="1.46978071890771389007568359375">
        <ele>260</ele>
        <time>2026-08-05T07:19:45.000Z</time>
        <extensions>
          <ns3:TrackPointExtension>
            <ns3:hr>91</ns3:hr>
            <ns3:cad>47</ns3:cad>
          </ns3:TrackPointExtension>
        </extensions>
      </trkpt>
      <trkpt lat="43.4553585760295391082763671875" lon="1.4697957225143909454345703125">
        <ele>260</ele>
        <time>2026-08-05T07:19:46.000Z</time>
        <extensions>
          <ns3:TrackPointExtension>
            <ns3:hr>91</ns3:hr>
            <ns3:cad>47</ns3:cad>
          </ns3:TrackPointExtension>
        </extensions>
      </trkpt>
      <trkpt lat="43.4553535468876361846923828125" lon="1.46980888210237026214599609375">
        <ele>260</ele>
        <time>2026-08-05T07:19:47.000Z</time>
        <extensions>
          <ns3:TrackPointExtension>
            <ns3:hr>91</ns3:hr>
            <ns3:cad>47</ns3:cad>
          </ns3:TrackPointExtension>
        </extensions>
      </trkpt>
      <trkpt lat="43.45534776337444782257080078125" lon="1.46981977857649326324462890625">
        <ele>260</ele>
        <time>2026-08-05T07:19:48.000Z</time>
        <extensions>
          <ns3:TrackPointExtension>
            <ns3:hr>92</ns3:hr>
            <ns3:cad>48</ns3:cad>
          </ns3:TrackPointExtension>
        </extensions>
      </trkpt>
      <trkpt lat="43.4553418122231960296630859375" lon="1.469832099974155426025390625">
        <ele>260</ele>
        <time>2026-08-05T07:19:49.000Z</time>
        <extensions>
          <ns3:TrackPointExtension>
            <ns3:hr>91</ns3:hr>
            <ns3:cad>48</ns3:cad>
          </ns3:TrackPointExtension>
        </extensions>
      </trkpt>
      <trkpt lat="43.455336280167102813720703125" lon="1.469845511019229888916015625">
        <ele>260.20001220703125</ele>
        <time>2026-08-05T07:19:50.000Z</time>
        <extensions>
          <ns3:TrackPointExtension>
            <ns3:hr>90</ns3:hr>
            <ns3:cad>48</ns3:cad>
          </ns3:TrackPointExtension>
        </extensions>
      </trkpt>
      <trkpt lat="43.45533150248229503631591796875" lon="1.46985548548400402069091796875">
        <ele>260.20001220703125</ele>
        <time>2026-08-05T07:19:51.000Z</time>
        <extensions>
          <ns3:TrackPointExtension>
            <ns3:hr>90</ns3:hr>
            <ns3:cad>48</ns3:cad>
          </ns3:TrackPointExtension>
        </extensions>
      </trkpt>
      <trkpt lat="43.45532395876944065093994140625" lon="1.46986654959619045257568359375">
        <ele>260.20001220703125</ele>
        <time>2026-08-05T07:19:52.000Z</time>
        <extensions>
          <ns3:TrackPointExtension>
            <ns3:hr>90</ns3:hr>
            <ns3:cad>48</ns3:cad>
          </ns3:TrackPointExtension>
        </extensions>
      </trkpt>
      <trkpt lat="43.45531976781785488128662109375" lon="1.46987962536513805389404296875">
        <ele>260.20001220703125</ele>
        <time>2026-08-05T07:19:53.000Z</time>
        <extensions>
          <ns3:TrackPointExtension>
            <ns3:hr>89</ns3:hr>
            <ns3:cad>47</ns3:cad>
          </ns3:TrackPointExtension>
        </extensions>
      </trkpt>
      <trkpt lat="43.4553156606853008270263671875" lon="1.4698942936956882476806640625">
        <ele>260.20001220703125</ele>
        <time>2026-08-05T07:19:54.000Z</time>
        <extensions>
          <ns3:TrackPointExtension>
            <ns3:hr>88</ns3:hr>
            <ns3:cad>47</ns3:cad>
          </ns3:TrackPointExtension>
        </extensions>
      </trkpt>
      <trkpt lat="43.45530954189598560333251953125" lon="1.46990594454109668731689453125">
        <ele>260.20001220703125</ele>
        <time>2026-08-05T07:19:55.000Z</time>
        <extensions>
          <ns3:TrackPointExtension>
            <ns3:hr>87</ns3:hr>
            <ns3:cad>47</ns3:cad>
          </ns3:TrackPointExtension>
        </extensions>
      </trkpt>
      <trkpt lat="43.455302082002162933349609375" lon="1.46991692483425140380859375">
        <ele>260.399993896484375</ele>
        <time>2026-08-05T07:19:56.000Z</time>
        <extensions>
          <ns3:TrackPointExtension>
            <ns3:hr>86</ns3:hr>
            <ns3:cad>47</ns3:cad>
          </ns3:TrackPointExtension>
        </extensions>
      </trkpt>
      <trkpt lat="43.4552968852221965789794921875" lon="1.46992421709001064300537109375">
        <ele>260.399993896484375</ele>
        <time>2026-08-05T07:19:57.000Z</time>
        <extensions>
          <ns3:TrackPointExtension>
            <ns3:hr>86</ns3:hr>
            <ns3:cad>47</ns3:cad>
          </ns3:TrackPointExtension>
        </extensions>
      </trkpt>
      <trkpt lat="43.4552911855280399322509765625" lon="1.4699365384876728057861328125">
        <ele>260.399993896484375</ele>
        <time>2026-08-05T07:19:58.000Z</time>
        <extensions>
          <ns3:TrackPointExtension>
            <ns3:hr>85</ns3:hr>
            <ns3:cad>47</ns3:cad>
          </ns3:TrackPointExtension>
        </extensions>
      </trkpt>
      <trkpt lat="43.455288000404834747314453125" lon="1.4699512906372547149658203125">
        <ele>260.399993896484375</ele>
        <time>2026-08-05T07:19:59.000Z</time>
        <extensions>
          <ns3:TrackPointExtension>
            <ns3:hr>85</ns3:hr>
            <ns3:cad>47</ns3:cad>
          </ns3:TrackPointExtension>
        </extensions>
      </trkpt>
      <trkpt lat="43.45528456382453441619873046875" lon="1.46996461786329746246337890625">
        <ele>260.399993896484375</ele>
        <time>2026-08-05T07:20:00.000Z</time>
        <extensions>
          <ns3:TrackPointExtension>
            <ns3:hr>84</ns3:hr>
            <ns3:cad>47</ns3:cad>
          </ns3:TrackPointExtension>
        </extensions>
      </trkpt>
      <trkpt lat="43.45527936704456806182861328125" lon="1.4699787832796573638916015625">
        <ele>260.399993896484375</ele>
        <time>2026-08-05T07:20:01.000Z</time>
        <extensions>
          <ns3:TrackPointExtension>
            <ns3:hr>84</ns3:hr>
            <ns3:cad>47</ns3:cad>
          </ns3:TrackPointExtension>
        </extensions>
      </trkpt>
      <trkpt lat="43.4552757628262042999267578125" lon="1.46999076940119266510009765625">
        <ele>260.399993896484375</ele>
        <time>2026-08-05T07:20:02.000Z</time>
        <extensions>
          <ns3:TrackPointExtension>
            <ns3:hr>84</ns3:hr>
            <ns3:cad>47</ns3:cad>
          </ns3:TrackPointExtension>
        </extensions>
      </trkpt>
      <trkpt lat="43.45527148805558681488037109375" lon="1.47000434808433055877685546875">
        <ele>260.399993896484375</ele>
        <time>2026-08-05T07:20:03.000Z</time>
        <extensions>
          <ns3:TrackPointExtension>
            <ns3:hr>84</ns3:hr>
            <ns3:cad>47</ns3:cad>
          </ns3:TrackPointExtension>
        </extensions>
      </trkpt>
      <trkpt lat="43.45526930876076221466064453125" lon="1.47001490928232669830322265625">
        <ele>260.399993896484375</ele>
        <time>2026-08-05T07:20:04.000Z</time>
        <extensions>
          <ns3:TrackPointExtension>
            <ns3:hr>84</ns3:hr>
            <ns3:cad>47</ns3:cad>
          </ns3:TrackPointExtension>
        </extensions>
      </trkpt>
      <trkpt lat="43.455264866352081298828125" lon="1.47002664394676685333251953125">
        <ele>260.399993896484375</ele>
        <time>2026-08-05T07:20:05.000Z</time>
        <extensions>
          <ns3:TrackPointExtension>
            <ns3:hr>84</ns3:hr>
            <ns3:cad>47</ns3:cad>
          </ns3:TrackPointExtension>
        </extensions>
      </trkpt>
      <trkpt lat="43.455261178314685821533203125" lon="1.47003896534442901611328125">
        <ele>260.399993896484375</ele>
        <time>2026-08-05T07:20:06.000Z</time>
        <extensions>
          <ns3:TrackPointExtension>
            <ns3:hr>84</ns3:hr>
            <ns3:cad>48</ns3:cad>
          </ns3:TrackPointExtension>
        </extensions>
      </trkpt>
      <trkpt lat="43.45525573007762432098388671875" lon="1.4700528793036937713623046875">
        <ele>260.399993896484375</ele>
        <time>2026-08-05T07:20:07.000Z</time>
        <extensions>
          <ns3:TrackPointExtension>
            <ns3:hr>84</ns3:hr>
            <ns3:cad>48</ns3:cad>
          </ns3:TrackPointExtension>
        </extensions>
      </trkpt>
      <trkpt lat="43.45525187440216541290283203125" lon="1.47006603889167308807373046875">
        <ele>260.600006103515625</ele>
        <time>2026-08-05T07:20:08.000Z</time>
        <extensions>
          <ns3:TrackPointExtension>
            <ns3:hr>83</ns3:hr>
            <ns3:cad>47</ns3:cad>
          </ns3:TrackPointExtension>
        </extensions>
      </trkpt>
      <trkpt lat="43.45524852164089679718017578125" lon="1.470078192651271820068359375">
        <ele>260.600006103515625</ele>
        <time>2026-08-05T07:20:09.000Z</time>
        <extensions>
          <ns3:TrackPointExtension>
            <ns3:hr>83</ns3:hr>
            <ns3:cad>47</ns3:cad>
          </ns3:TrackPointExtension>
        </extensions>
      </trkpt>
      <trkpt lat="43.45524265430867671966552734375" lon="1.470088250935077667236328125">
        <ele>260.600006103515625</ele>
        <time>2026-08-05T07:20:10.000Z</time>
        <extensions>
          <ns3:TrackPointExtension>
            <ns3:hr>84</ns3:hr>
            <ns3:cad>46</ns3:cad>
          </ns3:TrackPointExtension>
        </extensions>
      </trkpt>
      <trkpt lat="43.45523745752871036529541015625" lon="1.47010467946529388427734375">
        <ele>260.600006103515625</ele>
        <time>2026-08-05T07:20:11.000Z</time>
        <extensions>
          <ns3:TrackPointExtension>
            <ns3:hr>84</ns3:hr>
            <ns3:cad>46</ns3:cad>
          </ns3:TrackPointExtension>
        </extensions>
      </trkpt>
      <trkpt lat="43.45523226074874401092529296875" lon="1.47011901251971721649169921875">
        <ele>260.600006103515625</ele>
        <time>2026-08-05T07:20:12.000Z</time>
        <extensions>
          <ns3:TrackPointExtension>
            <ns3:hr>84</ns3:hr>
            <ns3:cad>46</ns3:cad>
          </ns3:TrackPointExtension>
        </extensions>
      </trkpt>
      <trkpt lat="43.45522672869265079498291015625" lon="1.470131166279315948486328125">
        <ele>260.79998779296875</ele>
        <time>2026-08-05T07:20:13.000Z</time>
        <extensions>
          <ns3:TrackPointExtension>
            <ns3:hr>83</ns3:hr>
            <ns3:cad>46</ns3:cad>
          </ns3:TrackPointExtension>
        </extensions>
      </trkpt>
      <trkpt lat="43.45522186718881130218505859375" lon="1.47014147602021694183349609375">
        <ele>260.79998779296875</ele>
        <time>2026-08-05T07:20:14.000Z</time>
        <extensions>
          <ns3:TrackPointExtension>
            <ns3:hr>84</ns3:hr>
            <ns3:cad>46</ns3:cad>
          </ns3:TrackPointExtension>
        </extensions>
      </trkpt>
      <trkpt lat="43.45521650277078151702880859375" lon="1.4701527915894985198974609375">
        <ele>260.79998779296875</ele>
        <time>2026-08-05T07:20:15.000Z</time>
        <extensions>
          <ns3:TrackPointExtension>
            <ns3:hr>83</ns3:hr>
            <ns3:cad>46</ns3:cad>
          </ns3:TrackPointExtension>
        </extensions>
      </trkpt>
      <trkpt lat="43.4552103839814662933349609375" lon="1.470164358615875244140625">
        <ele>260.79998779296875</ele>
        <time>2026-08-05T07:20:16.000Z</time>
        <extensions>
          <ns3:TrackPointExtension>
            <ns3:hr>83</ns3:hr>
            <ns3:cad>44</ns3:cad>
          </ns3:TrackPointExtension>
        </extensions>
      </trkpt>
      <trkpt lat="43.455204851925373077392578125" lon="1.47017433308064937591552734375">
        <ele>260.79998779296875</ele>
        <time>2026-08-05T07:20:17.000Z</time>
        <extensions>
          <ns3:TrackPointExtension>
            <ns3:hr>82</ns3:hr>
            <ns3:cad>44</ns3:cad>
          </ns3:TrackPointExtension>
        </extensions>
      </trkpt>
      <trkpt lat="43.455199487507343292236328125" lon="1.47018321789801120758056640625">
        <ele>260.79998779296875</ele>
        <time>2026-08-05T07:20:18.000Z</time>
        <extensions>
          <ns3:TrackPointExtension>
            <ns3:hr>81</ns3:hr>
            <ns3:cad>44</ns3:cad>
          </ns3:TrackPointExtension>
        </extensions>
      </trkpt>
      <trkpt lat="43.455194793641567230224609375" lon="1.47019679658114910125732421875">
        <ele>261</ele>
        <time>2026-08-05T07:20:19.000Z</time>
        <extensions>
          <ns3:TrackPointExtension>
            <ns3:hr>80</ns3:hr>
            <ns3:cad>44</ns3:cad>
          </ns3:TrackPointExtension>
        </extensions>
      </trkpt>
      <trkpt lat="43.45519253052771091461181640625" lon="1.4702077768743038177490234375">
        <ele>261</ele>
        <time>2026-08-05T07:20:20.000Z</time>
        <extensions>
          <ns3:TrackPointExtension>
            <ns3:hr>80</ns3:hr>
            <ns3:cad>44</ns3:cad>
          </ns3:TrackPointExtension>
        </extensions>
      </trkpt>
      <trkpt lat="43.455189764499664306640625" lon="1.47021875716745853424072265625">
        <ele>261</ele>
        <time>2026-08-05T07:20:21.000Z</time>
        <extensions>
          <ns3:TrackPointExtension>
            <ns3:hr>80</ns3:hr>
            <ns3:cad>44</ns3:cad>
          </ns3:TrackPointExtension>
        </extensions>
      </trkpt>
      <trkpt lat="43.45518632791936397552490234375" lon="1.47022881545126438140869140625">
        <ele>261</ele>
        <time>2026-08-05T07:20:22.000Z</time>
        <extensions>
          <ns3:TrackPointExtension>
            <ns3:hr>79</ns3:hr>
            <ns3:cad>44</ns3:cad>
          </ns3:TrackPointExtension>
        </extensions>
      </trkpt>
      <trkpt lat="43.455183394253253936767578125" lon="1.470240466296672821044921875">
        <ele>261</ele>
        <time>2026-08-05T07:20:23.000Z</time>
        <extensions>
          <ns3:TrackPointExtension>
            <ns3:hr>79</ns3:hr>
            <ns3:cad>44</ns3:cad>
          </ns3:TrackPointExtension>
        </extensions>
      </trkpt>
      <trkpt lat="43.45517911948263645172119140625" lon="1.4702483452856540679931640625">
        <ele>261</ele>
        <time>2026-08-05T07:20:24.000Z</time>
        <extensions>
          <ns3:TrackPointExtension>
            <ns3:hr>79</ns3:hr>
            <ns3:cad>44</ns3:cad>
          </ns3:TrackPointExtension>
        </extensions>
      </trkpt>
      <trkpt lat="43.4551723301410675048828125" lon="1.47025446407496929168701171875">
        <ele>261</ele>
        <time>2026-08-05T07:20:25.000Z</time>
        <extensions>
          <ns3:TrackPointExtension>
            <ns3:hr>79</ns3:hr>
            <ns3:cad>44</ns3:cad>
          </ns3:TrackPointExtension>
        </extensions>
      </trkpt>
      <trkpt lat="43.45516721718013286590576171875" lon="1.47026703692972660064697265625">
        <ele>261</ele>
        <time>2026-08-05T07:20:26.000Z</time>
        <extensions>
          <ns3:TrackPointExtension>
            <ns3:hr>79</ns3:hr>
            <ns3:cad>43</ns3:cad>
          </ns3:TrackPointExtension>
        </extensions>
      </trkpt>
      <trkpt lat="43.455162607133388519287109375" lon="1.47027675993740558624267578125">
        <ele>261</ele>
        <time>2026-08-05T07:20:27.000Z</time>
        <extensions>
          <ns3:TrackPointExtension>
            <ns3:hr>80</ns3:hr>
            <ns3:cad>43</ns3:cad>
          </ns3:TrackPointExtension>
        </extensions>
      </trkpt>
      <trkpt lat="43.455157242715358734130859375" lon="1.4702869020402431488037109375">
        <ele>261</ele>
        <time>2026-08-05T07:20:28.000Z</time>
        <extensions>
          <ns3:TrackPointExtension>
            <ns3:hr>80</ns3:hr>
            <ns3:cad>41</ns3:cad>
          </ns3:TrackPointExtension>
        </extensions>
      </trkpt>
      <trkpt lat="43.4551496990025043487548828125" lon="1.47030073218047618865966796875">
        <ele>261.20001220703125</ele>
        <time>2026-08-05T07:20:29.000Z</time>
        <extensions>
          <ns3:TrackPointExtension>
            <ns3:hr>80</ns3:hr>
            <ns3:cad>41</ns3:cad>
          </ns3:TrackPointExtension>
        </extensions>
      </trkpt>
      <trkpt lat="43.45514257438480854034423828125" lon="1.47031380794942378997802734375">
        <ele>261.20001220703125</ele>
        <time>2026-08-05T07:20:30.000Z</time>
        <extensions>
          <ns3:TrackPointExtension>
            <ns3:hr>80</ns3:hr>
            <ns3:cad>42</ns3:cad>
          </ns3:TrackPointExtension>
        </extensions>
      </trkpt>
      <trkpt lat="43.455137126147747039794921875" lon="1.47032688371837139129638671875">
        <ele>261.20001220703125</ele>
        <time>2026-08-05T07:20:31.000Z</time>
        <extensions>
          <ns3:TrackPointExtension>
            <ns3:hr>80</ns3:hr>
            <ns3:cad>42</ns3:cad>
          </ns3:TrackPointExtension>
        </extensions>
      </trkpt>
      <trkpt lat="43.45513184554874897003173828125" lon="1.47033945657312870025634765625">
        <ele>261.20001220703125</ele>
        <time>2026-08-05T07:20:32.000Z</time>
        <extensions>
          <ns3:TrackPointExtension>
            <ns3:hr>80</ns3:hr>
            <ns3:cad>43</ns3:cad>
          </ns3:TrackPointExtension>
        </extensions>
      </trkpt>
      <trkpt lat="43.45512631349265575408935546875" lon="1.470352113246917724609375">
        <ele>261.20001220703125</ele>
        <time>2026-08-05T07:20:33.000Z</time>
        <extensions>
          <ns3:TrackPointExtension>
            <ns3:hr>80</ns3:hr>
            <ns3:cad>43</ns3:cad>
          </ns3:TrackPointExtension>
        </extensions>
      </trkpt>
      <trkpt lat="43.455121032893657684326171875" lon="1.47036778740584850311279296875">
        <ele>261.20001220703125</ele>
        <time>2026-08-05T07:20:34.000Z</time>
        <extensions>
          <ns3:TrackPointExtension>
            <ns3:hr>79</ns3:hr>
            <ns3:cad>44</ns3:cad>
          </ns3:TrackPointExtension>
        </extensions>
      </trkpt>
      <trkpt lat="43.455116339027881622314453125" lon="1.47038228809833526611328125">
        <ele>261.20001220703125</ele>
        <time>2026-08-05T07:20:35.000Z</time>
        <extensions>
          <ns3:TrackPointExtension>
            <ns3:hr>79</ns3:hr>
            <ns3:cad>46</ns3:cad>
          </ns3:TrackPointExtension>
        </extensions>
      </trkpt>
      <trkpt lat="43.45511156134307384490966796875" lon="1.47039544768631458282470703125">
        <ele>261.20001220703125</ele>
        <time>2026-08-05T07:20:36.000Z</time>
        <extensions>
          <ns3:TrackPointExtension>
            <ns3:hr>79</ns3:hr>
            <ns3:cad>46</ns3:cad>
          </ns3:TrackPointExtension>
        </extensions>
      </trkpt>
      <trkpt lat="43.45510804094374179840087890625" lon="1.4704044163227081298828125">
        <ele>261.20001220703125</ele>
        <time>2026-08-05T07:20:37.000Z</time>
        <extensions>
          <ns3:TrackPointExtension>
            <ns3:hr>79</ns3:hr>
            <ns3:cad>47</ns3:cad>
          </ns3:TrackPointExtension>
        </extensions>
      </trkpt>
      <trkpt lat="43.45510183833539485931396484375" lon="1.47041657008230686187744140625">
        <ele>261.399993896484375</ele>
        <time>2026-08-05T07:20:38.000Z</time>
        <extensions>
          <ns3:TrackPointExtension>
            <ns3:hr>79</ns3:hr>
            <ns3:cad>48</ns3:cad>
          </ns3:TrackPointExtension>
        </extensions>
      </trkpt>
      <trkpt lat="43.45509664155542850494384765625" lon="1.47043065167963504791259765625">
        <ele>261.399993896484375</ele>
        <time>2026-08-05T07:20:39.000Z</time>
        <extensions>
          <ns3:TrackPointExtension>
            <ns3:hr>79</ns3:hr>
            <ns3:cad>48</ns3:cad>
          </ns3:TrackPointExtension>
        </extensions>
      </trkpt>
      <trkpt lat="43.45509245060384273529052734375" lon="1.47044423036277294158935546875">
        <ele>261.399993896484375</ele>
        <time>2026-08-05T07:20:40.000Z</time>
        <extensions>
          <ns3:TrackPointExtension>
            <ns3:hr>79</ns3:hr>
            <ns3:cad>48</ns3:cad>
          </ns3:TrackPointExtension>
        </extensions>
      </trkpt>
      <trkpt lat="43.45508742146193981170654296875" lon="1.47045847959816455841064453125">
        <ele>261.399993896484375</ele>
        <time>2026-08-05T07:20:41.000Z</time>
        <extensions>
          <ns3:TrackPointExtension>
            <ns3:hr>79</ns3:hr>
            <ns3:cad>48</ns3:cad>
          </ns3:TrackPointExtension>
        </extensions>
      </trkpt>
      <trkpt lat="43.455083481967449188232421875" lon="1.470468454062938690185546875">
        <ele>261.399993896484375</ele>
        <time>2026-08-05T07:20:42.000Z</time>
        <extensions>
          <ns3:TrackPointExtension>
            <ns3:hr>79</ns3:hr>
            <ns3:cad>48</ns3:cad>
          </ns3:TrackPointExtension>
        </extensions>
      </trkpt>
      <trkpt lat="43.45507585443556308746337890625" lon="1.47048261947929859161376953125">
        <ele>261.399993896484375</ele>
        <time>2026-08-05T07:20:43.000Z</time>
        <extensions>
          <ns3:TrackPointExtension>
            <ns3:hr>79</ns3:hr>
            <ns3:cad>46</ns3:cad>
          </ns3:TrackPointExtension>
        </extensions>
      </trkpt>
      <trkpt lat="43.45507099293172359466552734375" lon="1.47049653343856334686279296875">
        <ele>261.600006103515625</ele>
        <time>2026-08-05T07:20:44.000Z</time>
        <extensions>
          <ns3:TrackPointExtension>
            <ns3:hr>79</ns3:hr>
            <ns3:cad>46</ns3:cad>
          </ns3:TrackPointExtension>
        </extensions>
      </trkpt>
      <trkpt lat="43.45506646670401096343994140625" lon="1.47050843574106693267822265625">
        <ele>261.600006103515625</ele>
        <time>2026-08-05T07:20:45.000Z</time>
        <extensions>
          <ns3:TrackPointExtension>
            <ns3:hr>79</ns3:hr>
            <ns3:cad>48</ns3:cad>
          </ns3:TrackPointExtension>
        </extensions>
      </trkpt>
      <trkpt lat="43.455061018466949462890625" lon="1.47051949985325336456298828125">
        <ele>261.600006103515625</ele>
        <time>2026-08-05T07:20:46.000Z</time>
        <extensions>
          <ns3:TrackPointExtension>
            <ns3:hr>79</ns3:hr>
            <ns3:cad>48</ns3:cad>
          </ns3:TrackPointExtension>
        </extensions>
      </trkpt>
      <trkpt lat="43.45505439676344394683837890625" lon="1.47052939049899578094482421875">
        <ele>261.600006103515625</ele>
        <time>2026-08-05T07:20:47.000Z</time>
        <extensions>
          <ns3:TrackPointExtension>
            <ns3:hr>80</ns3:hr>
            <ns3:cad>48</ns3:cad>
          </ns3:TrackPointExtension>
        </extensions>
      </trkpt>
      <trkpt lat="43.4550481103360652923583984375" lon="1.4705427177250385284423828125">
        <ele>261.600006103515625</ele>
        <time>2026-08-05T07:20:48.000Z</time>
        <extensions>
          <ns3:TrackPointExtension>
            <ns3:hr>79</ns3:hr>
            <ns3:cad>50</ns3:cad>
          </ns3:TrackPointExtension>
        </extensions>
      </trkpt>
      <trkpt lat="43.4550407342612743377685546875" lon="1.470558308064937591552734375">
        <ele>261.79998779296875</ele>
        <time>2026-08-05T07:20:49.000Z</time>
        <extensions>
          <ns3:TrackPointExtension>
            <ns3:hr>79</ns3:hr>
            <ns3:cad>50</ns3:cad>
          </ns3:TrackPointExtension>
        </extensions>
      </trkpt>
      <trkpt lat="43.45503545366227626800537109375" lon="1.4705692045390605926513671875">
        <ele>261.79998779296875</ele>
        <time>2026-08-05T07:20:50.000Z</time>
        <extensions>
          <ns3:TrackPointExtension>
            <ns3:hr>80</ns3:hr>
            <ns3:cad>49</ns3:cad>
          </ns3:TrackPointExtension>
        </extensions>
      </trkpt>
      <trkpt lat="43.45503176562488079071044921875" lon="1.47057834081351757049560546875">
        <ele>261.79998779296875</ele>
        <time>2026-08-05T07:20:51.000Z</time>
        <extensions>
          <ns3:TrackPointExtension>
            <ns3:hr>80</ns3:hr>
            <ns3:cad>47</ns3:cad>
          </ns3:TrackPointExtension>
        </extensions>
      </trkpt>
      <trkpt lat="43.4550269879400730133056640625" lon="1.4705903269350528717041015625">
        <ele>261.79998779296875</ele>
        <time>2026-08-05T07:20:52.000Z</time>
        <extensions>
          <ns3:TrackPointExtension>
            <ns3:hr>81</ns3:hr>
            <ns3:cad>47</ns3:cad>
          </ns3:TrackPointExtension>
        </extensions>
      </trkpt>
      <trkpt lat="43.4550209529697895050048828125" lon="1.470604240894317626953125">
        <ele>261.79998779296875</ele>
        <time>2026-08-05T07:20:53.000Z</time>
        <extensions>
          <ns3:TrackPointExtension>
            <ns3:hr>82</ns3:hr>
            <ns3:cad>47</ns3:cad>
          </ns3:TrackPointExtension>
        </extensions>
      </trkpt>
      <trkpt lat="43.45501768402755260467529296875" lon="1.47061773575842380523681640625">
        <ele>262</ele>
        <time>2026-08-05T07:20:54.000Z</time>
        <extensions>
          <ns3:TrackPointExtension>
            <ns3:hr>83</ns3:hr>
            <ns3:cad>47</ns3:cad>
          </ns3:TrackPointExtension>
        </extensions>
      </trkpt>
      <trkpt lat="43.45501181669533252716064453125" lon="1.47063097916543483734130859375">
        <ele>262</ele>
        <time>2026-08-05T07:20:55.000Z</time>
        <extensions>
          <ns3:TrackPointExtension>
            <ns3:hr>83</ns3:hr>
            <ns3:cad>47</ns3:cad>
          </ns3:TrackPointExtension>
        </extensions>
      </trkpt>
      <trkpt lat="43.45500611700117588043212890625" lon="1.4706422947347164154052734375">
        <ele>262</ele>
        <time>2026-08-05T07:20:56.000Z</time>
        <extensions>
          <ns3:TrackPointExtension>
            <ns3:hr>84</ns3:hr>
            <ns3:cad>47</ns3:cad>
          </ns3:TrackPointExtension>
        </extensions>
      </trkpt>
      <trkpt lat="43.45499999821186065673828125" lon="1.4706583879888057708740234375">
        <ele>262</ele>
        <time>2026-08-05T07:20:57.000Z</time>
        <extensions>
          <ns3:TrackPointExtension>
            <ns3:hr>84</ns3:hr>
            <ns3:cad>47</ns3:cad>
          </ns3:TrackPointExtension>
        </extensions>
      </trkpt>
      <trkpt lat="43.45499790273606777191162109375" lon="1.4706728048622608184814453125">
        <ele>262</ele>
        <time>2026-08-05T07:20:58.000Z</time>
        <extensions>
          <ns3:TrackPointExtension>
            <ns3:hr>84</ns3:hr>
            <ns3:cad>47</ns3:cad>
          </ns3:TrackPointExtension>
        </extensions>
      </trkpt>
      <trkpt lat="43.45499119721353054046630859375" lon="1.47068261168897151947021484375">
        <ele>262</ele>
        <time>2026-08-05T07:20:59.000Z</time>
        <extensions>
          <ns3:TrackPointExtension>
            <ns3:hr>84</ns3:hr>
            <ns3:cad>47</ns3:cad>
          </ns3:TrackPointExtension>
        </extensions>
      </trkpt>
      <trkpt lat="43.45498499460518360137939453125" lon="1.470690071582794189453125">
        <ele>262</ele>
        <time>2026-08-05T07:21:00.000Z</time>
        <extensions>
          <ns3:TrackPointExtension>
            <ns3:hr>84</ns3:hr>
            <ns3:cad>47</ns3:cad>
          </ns3:TrackPointExtension>
        </extensions>
      </trkpt>
      <trkpt lat="43.45498030073940753936767578125" lon="1.470697782933712005615234375">
        <ele>262.20001220703125</ele>
        <time>2026-08-05T07:21:01.000Z</time>
        <extensions>
          <ns3:TrackPointExtension>
            <ns3:hr>83</ns3:hr>
            <ns3:cad>47</ns3:cad>
          </ns3:TrackPointExtension>
        </extensions>
      </trkpt>
      <trkpt lat="43.45497443340718746185302734375" lon="1.470711193978786468505859375">
        <ele>262.20001220703125</ele>
        <time>2026-08-05T07:21:02.000Z</time>
        <extensions>
          <ns3:TrackPointExtension>
            <ns3:hr>83</ns3:hr>
            <ns3:cad>47</ns3:cad>
          </ns3:TrackPointExtension>
        </extensions>
      </trkpt>
      <trkpt lat="43.45496923662722110748291015625" lon="1.47072535939514636993408203125">
        <ele>262.20001220703125</ele>
        <time>2026-08-05T07:21:03.000Z</time>
        <extensions>
          <ns3:TrackPointExtension>
            <ns3:hr>84</ns3:hr>
            <ns3:cad>47</ns3:cad>
          </ns3:TrackPointExtension>
        </extensions>
      </trkpt>
      <trkpt lat="43.45496638678014278411865234375" lon="1.4707370102405548095703125">
        <ele>262.20001220703125</ele>
        <time>2026-08-05T07:21:04.000Z</time>
        <extensions>
          <ns3:TrackPointExtension>
            <ns3:hr>84</ns3:hr>
            <ns3:cad>48</ns3:cad>
          </ns3:TrackPointExtension>
        </extensions>
      </trkpt>
      <trkpt lat="43.45496110618114471435546875" lon="1.47075000219047069549560546875">
        <ele>262.20001220703125</ele>
        <time>2026-08-05T07:21:05.000Z</time>
        <extensions>
          <ns3:TrackPointExtension>
            <ns3:hr>84</ns3:hr>
            <ns3:cad>48</ns3:cad>
          </ns3:TrackPointExtension>
        </extensions>
      </trkpt>
      <trkpt lat="43.454956077039241790771484375" lon="1.47076291032135486602783203125">
        <ele>262.20001220703125</ele>
        <time>2026-08-05T07:21:06.000Z</time>
        <extensions>
          <ns3:TrackPointExtension>
            <ns3:hr>85</ns3:hr>
            <ns3:cad>49</ns3:cad>
          </ns3:TrackPointExtension>
        </extensions>
      </trkpt>
      <trkpt lat="43.4549515508115291595458984375" lon="1.47077632136642932891845703125">
        <ele>262.20001220703125</ele>
        <time>2026-08-05T07:21:07.000Z</time>
        <extensions>
          <ns3:TrackPointExtension>
            <ns3:hr>87</ns3:hr>
            <ns3:cad>49</ns3:cad>
          </ns3:TrackPointExtension>
        </extensions>
      </trkpt>
      <trkpt lat="43.45494727604091167449951171875" lon="1.470791660249233245849609375">
        <ele>262.20001220703125</ele>
        <time>2026-08-05T07:21:08.000Z</time>
        <extensions>
          <ns3:TrackPointExtension>
            <ns3:hr>87</ns3:hr>
            <ns3:cad>48</ns3:cad>
          </ns3:TrackPointExtension>
        </extensions>
      </trkpt>
      <trkpt lat="43.45494367182254791259765625" lon="1.4708028919994831085205078125">
        <ele>262.20001220703125</ele>
        <time>2026-08-05T07:21:09.000Z</time>
        <extensions>
          <ns3:TrackPointExtension>
            <ns3:hr>87</ns3:hr>
            <ns3:cad>48</ns3:cad>
          </ns3:TrackPointExtension>
        </extensions>
      </trkpt>
      <trkpt lat="43.45493637956678867340087890625" lon="1.470816135406494140625">
        <ele>262.20001220703125</ele>
        <time>2026-08-05T07:21:10.000Z</time>
        <extensions>
          <ns3:TrackPointExtension>
            <ns3:hr>87</ns3:hr>
            <ns3:cad>48</ns3:cad>
          </ns3:TrackPointExtension>
        </extensions>
      </trkpt>
      <trkpt lat="43.4549307636916637420654296875" lon="1.470826528966426849365234375">
        <ele>262.399993896484375</ele>
        <time>2026-08-05T07:21:11.000Z</time>
        <extensions>
          <ns3:TrackPointExtension>
            <ns3:hr>87</ns3:hr>
            <ns3:cad>48</ns3:cad>
          </ns3:TrackPointExtension>
        </extensions>
      </trkpt>
      <trkpt lat="43.4549240581691265106201171875" lon="1.47083734162151813507080078125">
        <ele>262.399993896484375</ele>
        <time>2026-08-05T07:21:12.000Z</time>
        <extensions>
          <ns3:TrackPointExtension>
            <ns3:hr>87</ns3:hr>
            <ns3:cad>48</ns3:cad>
          </ns3:TrackPointExtension>
        </extensions>
      </trkpt>
      <trkpt lat="43.4549183584749698638916015625" lon="1.47085192613303661346435546875">
        <ele>262.399993896484375</ele>
        <time>2026-08-05T07:21:13.000Z</time>
        <extensions>
          <ns3:TrackPointExtension>
            <ns3:hr>87</ns3:hr>
            <ns3:cad>48</ns3:cad>
          </ns3:TrackPointExtension>
        </extensions>
      </trkpt>
      <trkpt lat="43.4549143351614475250244140625" lon="1.470867097377777099609375">
        <ele>262.399993896484375</ele>
        <time>2026-08-05T07:21:14.000Z</time>
        <extensions>
          <ns3:TrackPointExtension>
            <ns3:hr>87</ns3:hr>
            <ns3:cad>49</ns3:cad>
          </ns3:TrackPointExtension>
        </extensions>
      </trkpt>
      <trkpt lat="43.45491014420986175537109375" lon="1.470876820385456085205078125">
        <ele>262.600006103515625</ele>
        <time>2026-08-05T07:21:15.000Z</time>
        <extensions>
          <ns3:TrackPointExtension>
            <ns3:hr>87</ns3:hr>
            <ns3:cad>49</ns3:cad>
          </ns3:TrackPointExtension>
        </extensions>
      </trkpt>
      <trkpt lat="43.454909808933734893798828125" lon="1.470884867012500762939453125">
        <ele>262.600006103515625</ele>
        <time>2026-08-05T07:21:16.000Z</time>
        <extensions>
          <ns3:TrackPointExtension>
            <ns3:hr>87</ns3:hr>
            <ns3:cad>49</ns3:cad>
          </ns3:TrackPointExtension>
        </extensions>
      </trkpt>
      <trkpt lat="43.45490184612572193145751953125" lon="1.47090188227593898773193359375">
        <ele>262.600006103515625</ele>
        <time>2026-08-05T07:21:17.000Z</time>
        <extensions>
          <ns3:TrackPointExtension>
            <ns3:hr>87</ns3:hr>
            <ns3:cad>47</ns3:cad>
          </ns3:TrackPointExtension>
        </extensions>
      </trkpt>
      <trkpt lat="43.45489698462188243865966796875" lon="1.47091646678745746612548828125">
        <ele>262.600006103515625</ele>
        <time>2026-08-05T07:21:18.000Z</time>
        <extensions>
          <ns3:TrackPointExtension>
            <ns3:hr>87</ns3:hr>
            <ns3:cad>47</ns3:cad>
          </ns3:TrackPointExtension>
        </extensions>
      </trkpt>
      <trkpt lat="43.45489128492772579193115234375" lon="1.47092878818511962890625">
        <ele>262.600006103515625</ele>
        <time>2026-08-05T07:21:19.000Z</time>
        <extensions>
          <ns3:TrackPointExtension>
            <ns3:hr>86</ns3:hr>
            <ns3:cad>46</ns3:cad>
          </ns3:TrackPointExtension>
        </extensions>
      </trkpt>
      <trkpt lat="43.45488659106194972991943359375" lon="1.47093842737376689910888671875">
        <ele>262.600006103515625</ele>
        <time>2026-08-05T07:21:20.000Z</time>
        <extensions>
          <ns3:TrackPointExtension>
            <ns3:hr>86</ns3:hr>
            <ns3:cad>46</ns3:cad>
          </ns3:TrackPointExtension>
        </extensions>
      </trkpt>
      <trkpt lat="43.4548804722726345062255859375" lon="1.4709530957043170928955078125">
        <ele>262.600006103515625</ele>
        <time>2026-08-05T07:21:21.000Z</time>
        <extensions>
          <ns3:TrackPointExtension>
            <ns3:hr>86</ns3:hr>
            <ns3:cad>46</ns3:cad>
          </ns3:TrackPointExtension>
        </extensions>
      </trkpt>
      <trkpt lat="43.4548734314739704132080078125" lon="1.47097229026257991790771484375">
        <ele>262.600006103515625</ele>
        <time>2026-08-05T07:21:22.000Z</time>
        <extensions>
          <ns3:TrackPointExtension>
            <ns3:hr>86</ns3:hr>
            <ns3:cad>46</ns3:cad>
          </ns3:TrackPointExtension>
        </extensions>
      </trkpt>
      <trkpt lat="43.4548673965036869049072265625" lon="1.470986790955066680908203125">
        <ele>262.79998779296875</ele>
        <time>2026-08-05T07:21:23.000Z</time>
        <extensions>
          <ns3:TrackPointExtension>
            <ns3:hr>86</ns3:hr>
            <ns3:cad>47</ns3:cad>
          </ns3:TrackPointExtension>
        </extensions>
      </trkpt>
      <trkpt lat="43.4548623673617839813232421875" lon="1.4709963463246822357177734375">
        <ele>262.79998779296875</ele>
        <time>2026-08-05T07:21:24.000Z</time>
        <extensions>
          <ns3:TrackPointExtension>
            <ns3:hr>86</ns3:hr>
            <ns3:cad>47</ns3:cad>
          </ns3:TrackPointExtension>
        </extensions>
      </trkpt>
      <trkpt lat="43.4548583440482616424560546875" lon="1.47100263275206089019775390625">
        <ele>262.79998779296875</ele>
        <time>2026-08-05T07:21:25.000Z</time>
        <extensions>
          <ns3:TrackPointExtension>
            <ns3:hr>87</ns3:hr>
            <ns3:cad>47</ns3:cad>
          </ns3:TrackPointExtension>
        </extensions>
      </trkpt>
      <trkpt lat="43.454851470887660980224609375" lon="1.47101101465523242950439453125">
        <ele>262.79998779296875</ele>
        <time>2026-08-05T07:21:26.000Z</time>
        <extensions>
          <ns3:TrackPointExtension>
            <ns3:hr>86</ns3:hr>
            <ns3:cad>47</ns3:cad>
          </ns3:TrackPointExtension>
        </extensions>
      </trkpt>
      <trkpt lat="43.4548456035554409027099609375" lon="1.47102207876741886138916015625">
        <ele>262.79998779296875</ele>
        <time>2026-08-05T07:21:27.000Z</time>
        <extensions>
          <ns3:TrackPointExtension>
            <ns3:hr>86</ns3:hr>
            <ns3:cad>48</ns3:cad>
          </ns3:TrackPointExtension>
        </extensions>
      </trkpt>
      <trkpt lat="43.4548402391374111175537109375" lon="1.47103247232735157012939453125">
        <ele>262.79998779296875</ele>
        <time>2026-08-05T07:21:28.000Z</time>
        <extensions>
          <ns3:TrackPointExtension>
            <ns3:hr>85</ns3:hr>
            <ns3:cad>48</ns3:cad>
          </ns3:TrackPointExtension>
        </extensions>
      </trkpt>
      <trkpt lat="43.454838059842586517333984375" lon="1.471041105687618255615234375">
        <ele>263</ele>
        <time>2026-08-05T07:21:29.000Z</time>
        <extensions>
          <ns3:TrackPointExtension>
            <ns3:hr>85</ns3:hr>
            <ns3:cad>48</ns3:cad>
          </ns3:TrackPointExtension>
        </extensions>
      </trkpt>
      <trkpt lat="43.454826660454273223876953125" lon="1.47105493582785129547119140625">
        <ele>263</ele>
        <time>2026-08-05T07:21:30.000Z</time>
        <extensions>
          <ns3:TrackPointExtension>
            <ns3:hr>85</ns3:hr>
            <ns3:cad>46</ns3:cad>
          </ns3:TrackPointExtension>
        </extensions>
      </trkpt>
      <trkpt lat="43.45482104457914829254150390625" lon="1.4710697717964649200439453125">
        <ele>263</ele>
        <time>2026-08-05T07:21:31.000Z</time>
        <extensions>
          <ns3:TrackPointExtension>
            <ns3:hr>85</ns3:hr>
            <ns3:cad>46</ns3:cad>
          </ns3:TrackPointExtension>
        </extensions>
      </trkpt>
      <trkpt lat="43.45481517724692821502685546875" lon="1.4710776507854461669921875">
        <ele>263</ele>
        <time>2026-08-05T07:21:32.000Z</time>
        <extensions>
          <ns3:TrackPointExtension>
            <ns3:hr>85</ns3:hr>
            <ns3:cad>46</ns3:cad>
          </ns3:TrackPointExtension>
        </extensions>
      </trkpt>
      <trkpt lat="43.454810567200183868408203125" lon="1.471085362136363983154296875">
        <ele>263</ele>
        <time>2026-08-05T07:21:33.000Z</time>
        <extensions>
          <ns3:TrackPointExtension>
            <ns3:hr>85</ns3:hr>
            <ns3:cad>46</ns3:cad>
          </ns3:TrackPointExtension>
        </extensions>
      </trkpt>
      <trkpt lat="43.45480327494442462921142578125" lon="1.4711058139801025390625">
        <ele>263</ele>
        <time>2026-08-05T07:21:34.000Z</time>
        <extensions>
          <ns3:TrackPointExtension>
            <ns3:hr>85</ns3:hr>
            <ns3:cad>46</ns3:cad>
          </ns3:TrackPointExtension>
        </extensions>
      </trkpt>
      <trkpt lat="43.45479640178382396697998046875" lon="1.47112249396741390228271484375">
        <ele>263</ele>
        <time>2026-08-05T07:21:35.000Z</time>
        <extensions>
          <ns3:TrackPointExtension>
            <ns3:hr>84</ns3:hr>
            <ns3:cad>46</ns3:cad>
          </ns3:TrackPointExtension>
        </extensions>
      </trkpt>
      <trkpt lat="43.454791121184825897216796875" lon="1.4711366593837738037109375">
        <ele>263</ele>
        <time>2026-08-05T07:21:36.000Z</time>
        <extensions>
          <ns3:TrackPointExtension>
            <ns3:hr>84</ns3:hr>
            <ns3:cad>46</ns3:cad>
          </ns3:TrackPointExtension>
        </extensions>
      </trkpt>
      <trkpt lat="43.454784415662288665771484375" lon="1.471147052943706512451171875">
        <ele>263</ele>
        <time>2026-08-05T07:21:37.000Z</time>
        <extensions>
          <ns3:TrackPointExtension>
            <ns3:hr>84</ns3:hr>
            <ns3:cad>45</ns3:cad>
          </ns3:TrackPointExtension>
        </extensions>
      </trkpt>
      <trkpt lat="43.4547792188823223114013671875" lon="1.47115870378911495208740234375">
        <ele>263</ele>
        <time>2026-08-05T07:21:38.000Z</time>
        <extensions>
          <ns3:TrackPointExtension>
            <ns3:hr>84</ns3:hr>
            <ns3:cad>45</ns3:cad>
          </ns3:TrackPointExtension>
        </extensions>
      </trkpt>
      <trkpt lat="43.4547765366733074188232421875" lon="1.47117622196674346923828125">
        <ele>263</ele>
        <time>2026-08-05T07:21:39.000Z</time>
        <extensions>
          <ns3:TrackPointExtension>
            <ns3:hr>84</ns3:hr>
            <ns3:cad>45</ns3:cad>
          </ns3:TrackPointExtension>
        </extensions>
      </trkpt>
      <trkpt lat="43.45477326773107051849365234375" lon="1.47119357250630855560302734375">
        <ele>263</ele>
        <time>2026-08-05T07:21:40.000Z</time>
        <extensions>
          <ns3:TrackPointExtension>
            <ns3:hr>83</ns3:hr>
            <ns3:cad>46</ns3:cad>
          </ns3:TrackPointExtension>
        </extensions>
      </trkpt>
      <trkpt lat="43.4547699987888336181640625" lon="1.47120664827525615692138671875">
        <ele>263</ele>
        <time>2026-08-05T07:21:41.000Z</time>
        <extensions>
          <ns3:TrackPointExtension>
            <ns3:hr>83</ns3:hr>
            <ns3:cad>46</ns3:cad>
          </ns3:TrackPointExtension>
        </extensions>
      </trkpt>
      <trkpt lat="43.45476857386529445648193359375" lon="1.4712169580161571502685546875">
        <ele>262.79998779296875</ele>
        <time>2026-08-05T07:21:42.000Z</time>
        <extensions>
          <ns3:TrackPointExtension>
            <ns3:hr>83</ns3:hr>
            <ns3:cad>46</ns3:cad>
          </ns3:TrackPointExtension>
        </extensions>
      </trkpt>
      <trkpt lat="43.45476287417113780975341796875" lon="1.4712226577103137969970703125">
        <ele>262.79998779296875</ele>
        <time>2026-08-05T07:21:43.000Z</time>
        <extensions>
          <ns3:TrackPointExtension>
            <ns3:hr>83</ns3:hr>
            <ns3:cad>47</ns3:cad>
          </ns3:TrackPointExtension>
        </extensions>
      </trkpt>
      <trkpt lat="43.4547619521617889404296875" lon="1.4712343923747539520263671875">
        <ele>262.79998779296875</ele>
        <time>2026-08-05T07:21:44.000Z</time>
        <extensions>
          <ns3:TrackPointExtension>
            <ns3:hr>83</ns3:hr>
            <ns3:cad>47</ns3:cad>
          </ns3:TrackPointExtension>
        </extensions>
      </trkpt>
      <trkpt lat="43.45476639457046985626220703125" lon="1.47125224582850933074951171875">
        <ele>262.79998779296875</ele>
        <time>2026-08-05T07:21:45.000Z</time>
        <extensions>
          <ns3:TrackPointExtension>
            <ns3:hr>82</ns3:hr>
            <ns3:cad>48</ns3:cad>
          </ns3:TrackPointExtension>
        </extensions>
      </trkpt>
      <trkpt lat="43.4547718428075313568115234375" lon="1.47126632742583751678466796875">
        <ele>262.600006103515625</ele>
        <time>2026-08-05T07:21:46.000Z</time>
        <extensions>
          <ns3:TrackPointExtension>
            <ns3:hr>82</ns3:hr>
            <ns3:cad>48</ns3:cad>
          </ns3:TrackPointExtension>
        </extensions>
      </trkpt>
      <trkpt lat="43.4547735191881656646728515625" lon="1.4712806604802608489990234375">
        <ele>262.600006103515625</ele>
        <time>2026-08-05T07:21:47.000Z</time>
        <extensions>
          <ns3:TrackPointExtension>
            <ns3:hr>82</ns3:hr>
            <ns3:cad>48</ns3:cad>
          </ns3:TrackPointExtension>
        </extensions>
      </trkpt>
      <trkpt lat="43.454779051244258880615234375" lon="1.47129331715404987335205078125">
        <ele>262.600006103515625</ele>
        <time>2026-08-05T07:21:48.000Z</time>
        <extensions>
          <ns3:TrackPointExtension>
            <ns3:hr>82</ns3:hr>
            <ns3:cad>48</ns3:cad>
          </ns3:TrackPointExtension>
        </extensions>
      </trkpt>
      <trkpt lat="43.45478810369968414306640625" lon="1.47130136378109455108642578125">
        <ele>262.600006103515625</ele>
        <time>2026-08-05T07:21:49.000Z</time>
        <extensions>
          <ns3:TrackPointExtension>
            <ns3:hr>82</ns3:hr>
            <ns3:cad>48</ns3:cad>
          </ns3:TrackPointExtension>
        </extensions>
      </trkpt>
      <trkpt lat="43.45479824580252170562744140625" lon="1.471307314932346343994140625">
        <ele>262.600006103515625</ele>
        <time>2026-08-05T07:21:50.000Z</time>
        <extensions>
          <ns3:TrackPointExtension>
            <ns3:hr>82</ns3:hr>
            <ns3:cad>47</ns3:cad>
          </ns3:TrackPointExtension>
        </extensions>
      </trkpt>
      <trkpt lat="43.45480528660118579864501953125" lon="1.47131443955004215240478515625">
        <ele>262.600006103515625</ele>
        <time>2026-08-05T07:21:51.000Z</time>
        <extensions>
          <ns3:TrackPointExtension>
            <ns3:hr>82</ns3:hr>
            <ns3:cad>47</ns3:cad>
          </ns3:TrackPointExtension>
        </extensions>
      </trkpt>
      <trkpt lat="43.4548171050846576690673828125" lon="1.47132701240479946136474609375">
        <ele>262.600006103515625</ele>
        <time>2026-08-05T07:21:52.000Z</time>
        <extensions>
          <ns3:TrackPointExtension>
            <ns3:hr>82</ns3:hr>
            <ns3:cad>47</ns3:cad>
          </ns3:TrackPointExtension>
        </extensions>
      </trkpt>
      <trkpt lat="43.4548281691968441009521484375" lon="1.47133187390863895416259765625">
        <ele>262.600006103515625</ele>
        <time>2026-08-05T07:21:53.000Z</time>
        <extensions>
          <ns3:TrackPointExtension>
            <ns3:hr>82</ns3:hr>
            <ns3:cad>45</ns3:cad>
          </ns3:TrackPointExtension>
        </extensions>
      </trkpt>
      <trkpt lat="43.45484199933707714080810546875" lon="1.47133355028927326202392578125">
        <ele>262.600006103515625</ele>
        <time>2026-08-05T07:21:54.000Z</time>
        <extensions>
          <ns3:TrackPointExtension>
            <ns3:hr>82</ns3:hr>
            <ns3:cad>45</ns3:cad>
          </ns3:TrackPointExtension>
        </extensions>
      </trkpt>
      <trkpt lat="43.454850800335407257080078125" lon="1.471339501440525054931640625">
        <ele>262.79998779296875</ele>
        <time>2026-08-05T07:21:55.000Z</time>
        <extensions>
          <ns3:TrackPointExtension>
            <ns3:hr>82</ns3:hr>
            <ns3:cad>45</ns3:cad>
          </ns3:TrackPointExtension>
        </extensions>
      </trkpt>
      <trkpt lat="43.454859517514705657958984375" lon="1.47134654223918914794921875">
        <ele>263</ele>
        <time>2026-08-05T07:21:56.000Z</time>
        <extensions>
          <ns3:TrackPointExtension>
            <ns3:hr>82</ns3:hr>
            <ns3:cad>45</ns3:cad>
          </ns3:TrackPointExtension>
        </extensions>
      </trkpt>
      <trkpt lat="43.454868234694004058837890625" lon="1.47134830243885517120361328125">
        <ele>263</ele>
        <time>2026-08-05T07:21:57.000Z</time>
        <extensions>
          <ns3:TrackPointExtension>
            <ns3:hr>82</ns3:hr>
            <ns3:cad>45</ns3:cad>
          </ns3:TrackPointExtension>
        </extensions>
      </trkpt>
      <trkpt lat="43.45487787388265132904052734375" lon="1.471349895000457763671875">
        <ele>263.20001220703125</ele>
        <time>2026-08-05T07:21:58.000Z</time>
        <extensions>
          <ns3:TrackPointExtension>
            <ns3:hr>82</ns3:hr>
            <ns3:cad>46</ns3:cad>
          </ns3:TrackPointExtension>
        </extensions>
      </trkpt>
      <trkpt lat="43.4548865072429180145263671875" lon="1.47135383449494838714599609375">
        <ele>263.20001220703125</ele>
        <time>2026-08-05T07:21:59.000Z</time>
        <extensions>
          <ns3:TrackPointExtension>
            <ns3:hr>82</ns3:hr>
            <ns3:cad>46</ns3:cad>
          </ns3:TrackPointExtension>
        </extensions>
      </trkpt>
      <trkpt lat="43.45489413477480411529541015625" lon="1.47135727107524871826171875">
        <ele>263.20001220703125</ele>
        <time>2026-08-05T07:22:00.000Z</time>
        <extensions>
          <ns3:TrackPointExtension>
            <ns3:hr>82</ns3:hr>
            <ns3:cad>46</ns3:cad>
          </ns3:TrackPointExtension>
        </extensions>
      </trkpt>
      <trkpt lat="43.4549056179821491241455078125" lon="1.47136406041681766510009765625">
        <ele>263.399993896484375</ele>
        <time>2026-08-05T07:22:01.000Z</time>
        <extensions>
          <ns3:TrackPointExtension>
            <ns3:hr>83</ns3:hr>
            <ns3:cad>46</ns3:cad>
          </ns3:TrackPointExtension>
        </extensions>
      </trkpt>
      <trkpt lat="43.4549121558666229248046875" lon="1.4713735319674015045166015625">
        <ele>263.399993896484375</ele>
        <time>2026-08-05T07:22:02.000Z</time>
        <extensions>
          <ns3:TrackPointExtension>
            <ns3:hr>82</ns3:hr>
            <ns3:cad>44</ns3:cad>
          </ns3:TrackPointExtension>
        </extensions>
      </trkpt>
      <trkpt lat="43.4549148380756378173828125" lon="1.47137680090963840484619140625">
        <ele>263.399993896484375</ele>
        <time>2026-08-05T07:22:03.000Z</time>
        <extensions>
          <ns3:TrackPointExtension>
            <ns3:hr>82</ns3:hr>
            <ns3:cad>44</ns3:cad>
          </ns3:TrackPointExtension>
        </extensions>
      </trkpt>
      <trkpt lat="43.454926908016204833984375" lon="1.471383757889270782470703125">
        <ele>263.600006103515625</ele>
        <time>2026-08-05T07:22:04.000Z</time>
        <extensions>
          <ns3:TrackPointExtension>
            <ns3:hr>82</ns3:hr>
            <ns3:cad>44</ns3:cad>
          </ns3:TrackPointExtension>
        </extensions>
      </trkpt>
      <trkpt lat="43.45494224689900875091552734375" lon="1.47138501517474651336669921875">
        <ele>263.600006103515625</ele>
        <time>2026-08-05T07:22:05.000Z</time>
        <extensions>
          <ns3:TrackPointExtension>
            <ns3:hr>83</ns3:hr>
            <ns3:cad>44</ns3:cad>
          </ns3:TrackPointExtension>
        </extensions>
      </trkpt>
      <trkpt lat="43.454951383173465728759765625" lon="1.47139255888760089874267578125">
        <ele>263.600006103515625</ele>
        <time>2026-08-05T07:22:06.000Z</time>
        <extensions>
          <ns3:TrackPointExtension>
            <ns3:hr>82</ns3:hr>
            <ns3:cad>44</ns3:cad>
          </ns3:TrackPointExtension>
        </extensions>
      </trkpt>
      <trkpt lat="43.454955406486988067626953125" lon="1.4714010246098041534423828125">
        <ele>263.600006103515625</ele>
        <time>2026-08-05T07:22:07.000Z</time>
        <extensions>
          <ns3:TrackPointExtension>
            <ns3:hr>82</ns3:hr>
            <ns3:cad>44</ns3:cad>
          </ns3:TrackPointExtension>
        </extensions>
      </trkpt>
      <trkpt lat="43.45496403984725475311279296875" lon="1.4714062213897705078125">
        <ele>263.600006103515625</ele>
        <time>2026-08-05T07:22:08.000Z</time>
        <extensions>
          <ns3:TrackPointExtension>
            <ns3:hr>82</ns3:hr>
            <ns3:cad>44</ns3:cad>
          </ns3:TrackPointExtension>
        </extensions>
      </trkpt>
      <trkpt lat="43.4549790434539318084716796875" lon="1.47141183726489543914794921875">
        <ele>263.79998779296875</ele>
        <time>2026-08-05T07:22:09.000Z</time>
        <extensions>
          <ns3:TrackPointExtension>
            <ns3:hr>83</ns3:hr>
            <ns3:cad>44</ns3:cad>
          </ns3:TrackPointExtension>
        </extensions>
      </trkpt>
      <trkpt lat="43.45499287359416484832763671875" lon="1.4714137651026248931884765625">
        <ele>263.79998779296875</ele>
        <time>2026-08-05T07:22:10.000Z</time>
        <extensions>
          <ns3:TrackPointExtension>
            <ns3:hr>83</ns3:hr>
            <ns3:cad>46</ns3:cad>
          </ns3:TrackPointExtension>
        </extensions>
      </trkpt>
      <trkpt lat="43.455001674592494964599609375" lon="1.47141736932098865509033203125">
        <ele>263.79998779296875</ele>
        <time>2026-08-05T07:22:11.000Z</time>
        <extensions>
          <ns3:TrackPointExtension>
            <ns3:hr>83</ns3:hr>
            <ns3:cad>46</ns3:cad>
          </ns3:TrackPointExtension>
        </extensions>
      </trkpt>
      <trkpt lat="43.455009721219539642333984375" lon="1.471421979367733001708984375">
        <ele>263.79998779296875</ele>
        <time>2026-08-05T07:22:12.000Z</time>
        <extensions>
          <ns3:TrackPointExtension>
            <ns3:hr>83</ns3:hr>
            <ns3:cad>46</ns3:cad>
          </ns3:TrackPointExtension>
        </extensions>
      </trkpt>
      <trkpt lat="43.45501081086695194244384765625" lon="1.47142239846289157867431640625">
        <ele>263.79998779296875</ele>
        <time>2026-08-05T07:22:13.000Z</time>
        <extensions>
          <ns3:TrackPointExtension>
            <ns3:hr>84</ns3:hr>
            <ns3:cad>46</ns3:cad>
          </ns3:TrackPointExtension>
        </extensions>
      </trkpt>
      <trkpt lat="43.45501030795276165008544921875" lon="1.47142826579511165618896484375">
        <ele>263.79998779296875</ele>
        <time>2026-08-05T07:22:14.000Z</time>
        <extensions>
          <ns3:TrackPointExtension>
            <ns3:hr>85</ns3:hr>
            <ns3:cad>0</ns3:cad>
          </ns3:TrackPointExtension>
        </extensions>
      </trkpt>
      <trkpt lat="43.455018103122711181640625" lon="1.4714332111179828643798828125">
        <ele>263.79998779296875</ele>
        <time>2026-08-05T07:22:15.000Z</time>
        <extensions>
          <ns3:TrackPointExtension>
            <ns3:hr>86</ns3:hr>
            <ns3:cad>0</ns3:cad>
          </ns3:TrackPointExtension>
        </extensions>
      </trkpt>
      <trkpt lat="43.455023467540740966796875" lon="1.471436060965061187744140625">
        <ele>264</ele>
        <time>2026-08-05T07:22:16.000Z</time>
        <extensions>
          <ns3:TrackPointExtension>
            <ns3:hr>87</ns3:hr>
            <ns3:cad>0</ns3:cad>
          </ns3:TrackPointExtension>
        </extensions>
      </trkpt>
      <trkpt lat="43.455028496682643890380859375" lon="1.471434049308300018310546875">
        <ele>264</ele>
        <time>2026-08-05T07:22:17.000Z</time>
        <extensions>
          <ns3:TrackPointExtension>
            <ns3:hr>87</ns3:hr>
            <ns3:cad>0</ns3:cad>
          </ns3:TrackPointExtension>
        </extensions>
      </trkpt>
      <trkpt lat="43.455035872757434844970703125" lon="1.47143463604152202606201171875">
        <ele>264</ele>
        <time>2026-08-05T07:22:18.000Z</time>
        <extensions>
          <ns3:TrackPointExtension>
            <ns3:hr>87</ns3:hr>
            <ns3:cad>0</ns3:cad>
          </ns3:TrackPointExtension>
        </extensions>
      </trkpt>
      <trkpt lat="43.45504635013639926910400390625" lon="1.471438743174076080322265625">
        <ele>264</ele>
        <time>2026-08-05T07:22:19.000Z</time>
        <extensions>
          <ns3:TrackPointExtension>
            <ns3:hr>87</ns3:hr>
            <ns3:cad>0</ns3:cad>
          </ns3:TrackPointExtension>
        </extensions>
      </trkpt>
      <trkpt lat="43.45505255274474620819091796875" lon="1.471450813114643096923828125">
        <ele>263.79998779296875</ele>
        <time>2026-08-05T07:22:20.000Z</time>
        <extensions>
          <ns3:TrackPointExtension>
            <ns3:hr>86</ns3:hr>
            <ns3:cad>0</ns3:cad>
          </ns3:TrackPointExtension>
        </extensions>
      </trkpt>
      <trkpt lat="43.45505607314407825469970703125" lon="1.47145324386656284332275390625">
        <ele>263.79998779296875</ele>
        <time>2026-08-05T07:22:21.000Z</time>
        <extensions>
          <ns3:TrackPointExtension>
            <ns3:hr>87</ns3:hr>
            <ns3:cad>0</ns3:cad>
          </ns3:TrackPointExtension>
        </extensions>
      </trkpt>
      <trkpt lat="43.45506043173372745513916015625" lon="1.47146053612232208251953125">
        <ele>263.79998779296875</ele>
        <time>2026-08-05T07:22:22.000Z</time>
        <extensions>
          <ns3:TrackPointExtension>
            <ns3:hr>87</ns3:hr>
            <ns3:cad>0</ns3:cad>
          </ns3:TrackPointExtension>
        </extensions>
      </trkpt>
      <trkpt lat="43.455067388713359832763671875" lon="1.47146699018776416778564453125">
        <ele>263.79998779296875</ele>
        <time>2026-08-05T07:22:23.000Z</time>
        <extensions>
          <ns3:TrackPointExtension>
            <ns3:hr>87</ns3:hr>
            <ns3:cad>0</ns3:cad>
          </ns3:TrackPointExtension>
        </extensions>
      </trkpt>
      <trkpt lat="43.455078117549419403076171875" lon="1.47147201932966709136962890625">
        <ele>264</ele>
        <time>2026-08-05T07:22:24.000Z</time>
        <extensions>
          <ns3:TrackPointExtension>
            <ns3:hr>86</ns3:hr>
            <ns3:cad>45</ns3:cad>
          </ns3:TrackPointExtension>
        </extensions>
      </trkpt>
      <trkpt lat="43.45508574508130550384521484375" lon="1.47147637791931629180908203125">
        <ele>264</ele>
        <time>2026-08-05T07:22:25.000Z</time>
        <extensions>
          <ns3:TrackPointExtension>
            <ns3:hr>86</ns3:hr>
            <ns3:cad>45</ns3:cad>
          </ns3:TrackPointExtension>
        </extensions>
      </trkpt>
      <trkpt lat="43.4550937078893184661865234375" lon="1.47148241288959980010986328125">
        <ele>264</ele>
        <time>2026-08-05T07:22:26.000Z</time>
        <extensions>
          <ns3:TrackPointExtension>
            <ns3:hr>86</ns3:hr>
            <ns3:cad>45</ns3:cad>
          </ns3:TrackPointExtension>
        </extensions>
      </trkpt>
      <trkpt lat="43.4551027603447437286376953125" lon="1.47148895077407360076904296875">
        <ele>264.20001220703125</ele>
        <time>2026-08-05T07:22:27.000Z</time>
        <extensions>
          <ns3:TrackPointExtension>
            <ns3:hr>86</ns3:hr>
            <ns3:cad>47</ns3:cad>
          </ns3:TrackPointExtension>
        </extensions>
      </trkpt>
      <trkpt lat="43.45511407591402530670166015625" lon="1.4714952372014522552490234375">
        <ele>264.20001220703125</ele>
        <time>2026-08-05T07:22:28.000Z</time>
        <extensions>
          <ns3:TrackPointExtension>
            <ns3:hr>86</ns3:hr>
            <ns3:cad>47</ns3:cad>
          </ns3:TrackPointExtension>
        </extensions>
      </trkpt>
      <trkpt lat="43.45512446947395801544189453125" lon="1.47150051780045032501220703125">
        <ele>264.20001220703125</ele>
        <time>2026-08-05T07:22:29.000Z</time>
        <extensions>
          <ns3:TrackPointExtension>
            <ns3:hr>86</ns3:hr>
            <ns3:cad>47</ns3:cad>
          </ns3:TrackPointExtension>
        </extensions>
      </trkpt>
      <trkpt lat="43.455136455595493316650390625" lon="1.4715083129703998565673828125">
        <ele>264.20001220703125</ele>
        <time>2026-08-05T07:22:30.000Z</time>
        <extensions>
          <ns3:TrackPointExtension>
            <ns3:hr>86</ns3:hr>
            <ns3:cad>47</ns3:cad>
          </ns3:TrackPointExtension>
        </extensions>
      </trkpt>
      <trkpt lat="43.45514441840350627899169921875" lon="1.47150814533233642578125">
        <ele>264</ele>
        <time>2026-08-05T07:22:31.000Z</time>
        <extensions>
          <ns3:TrackPointExtension>
            <ns3:hr>86</ns3:hr>
            <ns3:cad>50</ns3:cad>
          </ns3:TrackPointExtension>
        </extensions>
      </trkpt>
      <trkpt lat="43.45515263266861438751220703125" lon="1.47151552140712738037109375">
        <ele>264</ele>
        <time>2026-08-05T07:22:32.000Z</time>
        <extensions>
          <ns3:TrackPointExtension>
            <ns3:hr>86</ns3:hr>
            <ns3:cad>49</ns3:cad>
          </ns3:TrackPointExtension>
        </extensions>
      </trkpt>
      <trkpt lat="43.45516285859048366546630859375" lon="1.47151711396872997283935546875">
        <ele>264</ele>
        <time>2026-08-05T07:22:33.000Z</time>
        <extensions>
          <ns3:TrackPointExtension>
            <ns3:hr>86</ns3:hr>
            <ns3:cad>49</ns3:cad>
          </ns3:TrackPointExtension>
        </extensions>
      </trkpt>
      <trkpt lat="43.45517274923622608184814453125" lon="1.47152113728225231170654296875">
        <ele>264</ele>
        <time>2026-08-05T07:22:34.000Z</time>
        <extensions>
          <ns3:TrackPointExtension>
            <ns3:hr>86</ns3:hr>
            <ns3:cad>48</ns3:cad>
          </ns3:TrackPointExtension>
        </extensions>
      </trkpt>
      <trkpt lat="43.45518096350133419036865234375" lon="1.4715314470231533050537109375">
        <ele>264</ele>
        <time>2026-08-05T07:22:35.000Z</time>
        <extensions>
          <ns3:TrackPointExtension>
            <ns3:hr>86</ns3:hr>
            <ns3:cad>48</ns3:cad>
          </ns3:TrackPointExtension>
        </extensions>
      </trkpt>
      <trkpt lat="43.45518800429999828338623046875" lon="1.47154502570629119873046875">
        <ele>264</ele>
        <time>2026-08-05T07:22:36.000Z</time>
        <extensions>
          <ns3:TrackPointExtension>
            <ns3:hr>85</ns3:hr>
            <ns3:cad>48</ns3:cad>
          </ns3:TrackPointExtension>
        </extensions>
      </trkpt>
      <trkpt lat="43.45519772730767726898193359375" lon="1.47155667655169963836669921875">
        <ele>264</ele>
        <time>2026-08-05T07:22:37.000Z</time>
        <extensions>
          <ns3:TrackPointExtension>
            <ns3:hr>85</ns3:hr>
            <ns3:cad>47</ns3:cad>
          </ns3:TrackPointExtension>
        </extensions>
      </trkpt>
      <trkpt lat="43.45520929433405399322509765625" lon="1.4715636335313320159912109375">
        <ele>264</ele>
        <time>2026-08-05T07:22:38.000Z</time>
        <extensions>
          <ns3:TrackPointExtension>
            <ns3:hr>85</ns3:hr>
            <ns3:cad>47</ns3:cad>
          </ns3:TrackPointExtension>
        </extensions>
      </trkpt>
      <trkpt lat="43.45522086136043071746826171875" lon="1.4715696685016155242919921875">
        <ele>264</ele>
        <time>2026-08-05T07:22:39.000Z</time>
        <extensions>
          <ns3:TrackPointExtension>
            <ns3:hr>85</ns3:hr>
            <ns3:cad>47</ns3:cad>
          </ns3:TrackPointExtension>
        </extensions>
      </trkpt>
      <trkpt lat="43.45523159019649028778076171875" lon="1.47157377563416957855224609375">
        <ele>264</ele>
        <time>2026-08-05T07:22:40.000Z</time>
        <extensions>
          <ns3:TrackPointExtension>
            <ns3:hr>84</ns3:hr>
            <ns3:cad>47</ns3:cad>
          </ns3:TrackPointExtension>
        </extensions>
      </trkpt>
      <trkpt lat="43.455240391194820404052734375" lon="1.47157989442348480224609375">
        <ele>264</ele>
        <time>2026-08-05T07:22:41.000Z</time>
        <extensions>
          <ns3:TrackPointExtension>
            <ns3:hr>83</ns3:hr>
            <ns3:cad>47</ns3:cad>
          </ns3:TrackPointExtension>
        </extensions>
      </trkpt>
      <trkpt lat="43.4552486054599285125732421875" lon="1.47158349864184856414794921875">
        <ele>264.20001220703125</ele>
        <time>2026-08-05T07:22:42.000Z</time>
        <extensions>
          <ns3:TrackPointExtension>
            <ns3:hr>82</ns3:hr>
            <ns3:cad>47</ns3:cad>
          </ns3:TrackPointExtension>
        </extensions>
      </trkpt>
      <trkpt lat="43.45526008866727352142333984375" lon="1.47158852778375148773193359375">
        <ele>264.20001220703125</ele>
        <time>2026-08-05T07:22:43.000Z</time>
        <extensions>
          <ns3:TrackPointExtension>
            <ns3:hr>81</ns3:hr>
            <ns3:cad>48</ns3:cad>
          </ns3:TrackPointExtension>
        </extensions>
      </trkpt>
      <trkpt lat="43.4552717395126819610595703125" lon="1.47159271873533725738525390625">
        <ele>264.20001220703125</ele>
        <time>2026-08-05T07:22:44.000Z</time>
        <extensions>
          <ns3:TrackPointExtension>
            <ns3:hr>81</ns3:hr>
            <ns3:cad>48</ns3:cad>
          </ns3:TrackPointExtension>
        </extensions>
      </trkpt>
      <trkpt lat="43.45528104342520236968994140625" lon="1.4715995080769062042236328125">
        <ele>264</ele>
        <time>2026-08-05T07:22:45.000Z</time>
        <extensions>
          <ns3:TrackPointExtension>
            <ns3:hr>81</ns3:hr>
            <ns3:cad>48</ns3:cad>
          </ns3:TrackPointExtension>
        </extensions>
      </trkpt>
      <trkpt lat="43.4552898444235324859619140625" lon="1.47160646505653858184814453125">
        <ele>264</ele>
        <time>2026-08-05T07:22:46.000Z</time>
        <extensions>
          <ns3:TrackPointExtension>
            <ns3:hr>81</ns3:hr>
            <ns3:cad>48</ns3:cad>
          </ns3:TrackPointExtension>
        </extensions>
      </trkpt>
      <trkpt lat="43.4553009085357189178466796875" lon="1.47161182947456836700439453125">
        <ele>264</ele>
        <time>2026-08-05T07:22:47.000Z</time>
        <extensions>
          <ns3:TrackPointExtension>
            <ns3:hr>81</ns3:hr>
            <ns3:cad>48</ns3:cad>
          </ns3:TrackPointExtension>
        </extensions>
      </trkpt>
      <trkpt lat="43.45531004481017589569091796875" lon="1.47161384113132953643798828125">
        <ele>264</ele>
        <time>2026-08-05T07:22:48.000Z</time>
        <extensions>
          <ns3:TrackPointExtension>
            <ns3:hr>80</ns3:hr>
            <ns3:cad>48</ns3:cad>
          </ns3:TrackPointExtension>
        </extensions>
      </trkpt>
      <trkpt lat="43.4553180076181888580322265625" lon="1.471616439521312713623046875">
        <ele>264</ele>
        <time>2026-08-05T07:22:49.000Z</time>
        <extensions>
          <ns3:TrackPointExtension>
            <ns3:hr>80</ns3:hr>
            <ns3:cad>48</ns3:cad>
          </ns3:TrackPointExtension>
        </extensions>
      </trkpt>
      <trkpt lat="43.45532764680683612823486328125" lon="1.4716216363012790679931640625">
        <ele>264.20001220703125</ele>
        <time>2026-08-05T07:22:50.000Z</time>
        <extensions>
          <ns3:TrackPointExtension>
            <ns3:hr>79</ns3:hr>
            <ns3:cad>48</ns3:cad>
          </ns3:TrackPointExtension>
        </extensions>
      </trkpt>
      <trkpt lat="43.4553371183574199676513671875" lon="1.47162691690027713775634765625">
        <ele>264.20001220703125</ele>
        <time>2026-08-05T07:22:51.000Z</time>
        <extensions>
          <ns3:TrackPointExtension>
            <ns3:hr>78</ns3:hr>
            <ns3:cad>47</ns3:cad>
          </ns3:TrackPointExtension>
        </extensions>
      </trkpt>
      <trkpt lat="43.455347679555416107177734375" lon="1.4716360531747341156005859375">
        <ele>264.399993896484375</ele>
        <time>2026-08-05T07:22:52.000Z</time>
        <extensions>
          <ns3:TrackPointExtension>
            <ns3:hr>78</ns3:hr>
            <ns3:cad>47</ns3:cad>
          </ns3:TrackPointExtension>
        </extensions>
      </trkpt>
      <trkpt lat="43.45535765402019023895263671875" lon="1.47164426743984222412109375">
        <ele>264.399993896484375</ele>
        <time>2026-08-05T07:22:53.000Z</time>
        <extensions>
          <ns3:TrackPointExtension>
            <ns3:hr>77</ns3:hr>
            <ns3:cad>47</ns3:cad>
          </ns3:TrackPointExtension>
        </extensions>
      </trkpt>
      <trkpt lat="43.45536536537110805511474609375" lon="1.47164921276271343231201171875">
        <ele>264.399993896484375</ele>
        <time>2026-08-05T07:22:54.000Z</time>
        <extensions>
          <ns3:TrackPointExtension>
            <ns3:hr>77</ns3:hr>
            <ns3:cad>47</ns3:cad>
          </ns3:TrackPointExtension>
        </extensions>
      </trkpt>
      <trkpt lat="43.45537492074072360992431640625" lon="1.471653990447521209716796875">
        <ele>264.399993896484375</ele>
        <time>2026-08-05T07:22:55.000Z</time>
        <extensions>
          <ns3:TrackPointExtension>
            <ns3:hr>77</ns3:hr>
            <ns3:cad>47</ns3:cad>
          </ns3:TrackPointExtension>
        </extensions>
      </trkpt>
      <trkpt lat="43.45538514666259288787841796875" lon="1.4716632105410099029541015625">
        <ele>264.399993896484375</ele>
        <time>2026-08-05T07:22:56.000Z</time>
        <extensions>
          <ns3:TrackPointExtension>
            <ns3:hr>78</ns3:hr>
            <ns3:cad>47</ns3:cad>
          </ns3:TrackPointExtension>
        </extensions>
      </trkpt>
      <trkpt lat="43.45539352856576442718505859375" lon="1.4716689102351665496826171875">
        <ele>264.399993896484375</ele>
        <time>2026-08-05T07:22:57.000Z</time>
        <extensions>
          <ns3:TrackPointExtension>
            <ns3:hr>78</ns3:hr>
            <ns3:cad>48</ns3:cad>
          </ns3:TrackPointExtension>
        </extensions>
      </trkpt>
      <trkpt lat="43.45540442503988742828369140625" lon="1.471676118671894073486328125">
        <ele>264.399993896484375</ele>
        <time>2026-08-05T07:22:58.000Z</time>
        <extensions>
          <ns3:TrackPointExtension>
            <ns3:hr>79</ns3:hr>
            <ns3:cad>48</ns3:cad>
          </ns3:TrackPointExtension>
        </extensions>
      </trkpt>
      <trkpt lat="43.45541431568562984466552734375" lon="1.47168206982314586639404296875">
        <ele>264.399993896484375</ele>
        <time>2026-08-05T07:22:59.000Z</time>
        <extensions>
          <ns3:TrackPointExtension>
            <ns3:hr>80</ns3:hr>
            <ns3:cad>48</ns3:cad>
          </ns3:TrackPointExtension>
        </extensions>
      </trkpt>
      <trkpt lat="43.4554232843220233917236328125" lon="1.47168961353600025177001953125">
        <ele>264.399993896484375</ele>
        <time>2026-08-05T07:23:00.000Z</time>
        <extensions>
          <ns3:TrackPointExtension>
            <ns3:hr>80</ns3:hr>
            <ns3:cad>48</ns3:cad>
          </ns3:TrackPointExtension>
        </extensions>
      </trkpt>
      <trkpt lat="43.455432839691638946533203125" lon="1.47169732488691806793212890625">
        <ele>264.399993896484375</ele>
        <time>2026-08-05T07:23:01.000Z</time>
        <extensions>
          <ns3:TrackPointExtension>
            <ns3:hr>80</ns3:hr>
            <ns3:cad>48</ns3:cad>
          </ns3:TrackPointExtension>
        </extensions>
      </trkpt>
      <trkpt lat="43.45544449053704738616943359375" lon="1.4717037789523601531982421875">
        <ele>264.399993896484375</ele>
        <time>2026-08-05T07:23:02.000Z</time>
        <extensions>
          <ns3:TrackPointExtension>
            <ns3:hr>81</ns3:hr>
            <ns3:cad>48</ns3:cad>
          </ns3:TrackPointExtension>
        </extensions>
      </trkpt>
      <trkpt lat="43.455455638468265533447265625" lon="1.47170805372297763824462890625">
        <ele>264.399993896484375</ele>
        <time>2026-08-05T07:23:03.000Z</time>
        <extensions>
          <ns3:TrackPointExtension>
            <ns3:hr>81</ns3:hr>
            <ns3:cad>48</ns3:cad>
          </ns3:TrackPointExtension>
        </extensions>
      </trkpt>
      <trkpt lat="43.45546410419046878814697265625" lon="1.47171241231262683868408203125">
        <ele>264.399993896484375</ele>
        <time>2026-08-05T07:23:04.000Z</time>
        <extensions>
          <ns3:TrackPointExtension>
            <ns3:hr>81</ns3:hr>
            <ns3:cad>48</ns3:cad>
          </ns3:TrackPointExtension>
        </extensions>
      </trkpt>
      <trkpt lat="43.45547215081751346588134765625" lon="1.471720039844512939453125">
        <ele>264.399993896484375</ele>
        <time>2026-08-05T07:23:05.000Z</time>
        <extensions>
          <ns3:TrackPointExtension>
            <ns3:hr>81</ns3:hr>
            <ns3:cad>48</ns3:cad>
          </ns3:TrackPointExtension>
        </extensions>
      </trkpt>
      <trkpt lat="43.45548153854906558990478515625" lon="1.4717267453670501708984375">
        <ele>264.399993896484375</ele>
        <time>2026-08-05T07:23:06.000Z</time>
        <extensions>
          <ns3:TrackPointExtension>
            <ns3:hr>82</ns3:hr>
            <ns3:cad>48</ns3:cad>
          </ns3:TrackPointExtension>
        </extensions>
      </trkpt>
      <trkpt lat="43.4554950334131717681884765625" lon="1.47173185832798480987548828125">
        <ele>264.600006103515625</ele>
        <time>2026-08-05T07:23:07.000Z</time>
        <extensions>
          <ns3:TrackPointExtension>
            <ns3:hr>83</ns3:hr>
            <ns3:cad>48</ns3:cad>
          </ns3:TrackPointExtension>
        </extensions>
      </trkpt>
      <trkpt lat="43.45550819300115108489990234375" lon="1.471737809479236602783203125">
        <ele>264.600006103515625</ele>
        <time>2026-08-05T07:23:08.000Z</time>
        <extensions>
          <ns3:TrackPointExtension>
            <ns3:hr>83</ns3:hr>
            <ns3:cad>48</ns3:cad>
          </ns3:TrackPointExtension>
        </extensions>
      </trkpt>
      <trkpt lat="43.4555201791226863861083984375" lon="1.47174141369760036468505859375">
        <ele>264.600006103515625</ele>
        <time>2026-08-05T07:23:09.000Z</time>
        <extensions>
          <ns3:TrackPointExtension>
            <ns3:hr>83</ns3:hr>
            <ns3:cad>47</ns3:cad>
          </ns3:TrackPointExtension>
        </extensions>
      </trkpt>
      <trkpt lat="43.45553082413971424102783203125" lon="1.47174661047756671905517578125">
        <ele>264.600006103515625</ele>
        <time>2026-08-05T07:23:10.000Z</time>
        <extensions>
          <ns3:TrackPointExtension>
            <ns3:hr>83</ns3:hr>
            <ns3:cad>47</ns3:cad>
          </ns3:TrackPointExtension>
        </extensions>
      </trkpt>
      <trkpt lat="43.45554071478545665740966796875" lon="1.4717527292668819427490234375">
        <ele>264.600006103515625</ele>
        <time>2026-08-05T07:23:11.000Z</time>
        <extensions>
          <ns3:TrackPointExtension>
            <ns3:hr>82</ns3:hr>
            <ns3:cad>47</ns3:cad>
          </ns3:TrackPointExtension>
        </extensions>
      </trkpt>
      <trkpt lat="43.45555060543119907379150390625" lon="1.4717627875506877899169921875">
        <ele>264.600006103515625</ele>
        <time>2026-08-05T07:23:12.000Z</time>
        <extensions>
          <ns3:TrackPointExtension>
            <ns3:hr>82</ns3:hr>
            <ns3:cad>47</ns3:cad>
          </ns3:TrackPointExtension>
        </extensions>
      </trkpt>
      <trkpt lat="43.45555949024856090545654296875" lon="1.47177024744451045989990234375">
        <ele>264.600006103515625</ele>
        <time>2026-08-05T07:23:13.000Z</time>
        <extensions>
          <ns3:TrackPointExtension>
            <ns3:hr>81</ns3:hr>
            <ns3:cad>48</ns3:cad>
          </ns3:TrackPointExtension>
        </extensions>
      </trkpt>
      <trkpt lat="43.4555687941610813140869140625" lon="1.47177527658641338348388671875">
        <ele>264.600006103515625</ele>
        <time>2026-08-05T07:23:14.000Z</time>
        <extensions>
          <ns3:TrackPointExtension>
            <ns3:hr>81</ns3:hr>
            <ns3:cad>48</ns3:cad>
          </ns3:TrackPointExtension>
        </extensions>
      </trkpt>
      <trkpt lat="43.45557843334972858428955078125" lon="1.4717792160809040069580078125">
        <ele>264.600006103515625</ele>
        <time>2026-08-05T07:23:15.000Z</time>
        <extensions>
          <ns3:TrackPointExtension>
            <ns3:hr>80</ns3:hr>
            <ns3:cad>48</ns3:cad>
          </ns3:TrackPointExtension>
        </extensions>
      </trkpt>
      <trkpt lat="43.45558731816709041595458984375" lon="1.4717832393944263458251953125">
        <ele>264.79998779296875</ele>
        <time>2026-08-05T07:23:16.000Z</time>
        <extensions>
          <ns3:TrackPointExtension>
            <ns3:hr>80</ns3:hr>
            <ns3:cad>48</ns3:cad>
          </ns3:TrackPointExtension>
        </extensions>
      </trkpt>
      <trkpt lat="43.4555989690124988555908203125" lon="1.471788100898265838623046875">
        <ele>264.79998779296875</ele>
        <time>2026-08-05T07:23:17.000Z</time>
        <extensions>
          <ns3:TrackPointExtension>
            <ns3:hr>79</ns3:hr>
            <ns3:cad>48</ns3:cad>
          </ns3:TrackPointExtension>
        </extensions>
      </trkpt>
      <trkpt lat="43.45560927875339984893798828125" lon="1.47179421968758106231689453125">
        <ele>264.79998779296875</ele>
        <time>2026-08-05T07:23:18.000Z</time>
        <extensions>
          <ns3:TrackPointExtension>
            <ns3:hr>79</ns3:hr>
            <ns3:cad>48</ns3:cad>
          </ns3:TrackPointExtension>
        </extensions>
      </trkpt>
      <trkpt lat="43.45561933703720569610595703125" lon="1.47179790772497653961181640625">
        <ele>264.79998779296875</ele>
        <time>2026-08-05T07:23:19.000Z</time>
        <extensions>
          <ns3:TrackPointExtension>
            <ns3:hr>79</ns3:hr>
            <ns3:cad>47</ns3:cad>
          </ns3:TrackPointExtension>
        </extensions>
      </trkpt>
      <trkpt lat="43.45562788657844066619873046875" lon="1.47180293686687946319580078125">
        <ele>264.79998779296875</ele>
        <time>2026-08-05T07:23:20.000Z</time>
        <extensions>
          <ns3:TrackPointExtension>
            <ns3:hr>80</ns3:hr>
            <ns3:cad>47</ns3:cad>
          </ns3:TrackPointExtension>
        </extensions>
      </trkpt>
      <trkpt lat="43.45563492737710475921630859375" lon="1.47180612199008464813232421875">
        <ele>265</ele>
        <time>2026-08-05T07:23:21.000Z</time>
        <extensions>
          <ns3:TrackPointExtension>
            <ns3:hr>80</ns3:hr>
            <ns3:cad>48</ns3:cad>
          </ns3:TrackPointExtension>
        </extensions>
      </trkpt>
      <trkpt lat="43.4556475840508937835693359375" lon="1.4718117378652095794677734375">
        <ele>265</ele>
        <time>2026-08-05T07:23:22.000Z</time>
        <extensions>
          <ns3:TrackPointExtension>
            <ns3:hr>80</ns3:hr>
            <ns3:cad>48</ns3:cad>
          </ns3:TrackPointExtension>
        </extensions>
      </trkpt>
      <trkpt lat="43.455660156905651092529296875" lon="1.4718164317309856414794921875">
        <ele>265</ele>
        <time>2026-08-05T07:23:23.000Z</time>
        <extensions>
          <ns3:TrackPointExtension>
            <ns3:hr>80</ns3:hr>
            <ns3:cad>48</ns3:cad>
          </ns3:TrackPointExtension>
        </extensions>
      </trkpt>
      <trkpt lat="43.45567046664655208587646484375" lon="1.4718207903206348419189453125">
        <ele>265</ele>
        <time>2026-08-05T07:23:24.000Z</time>
        <extensions>
          <ns3:TrackPointExtension>
            <ns3:hr>80</ns3:hr>
            <ns3:cad>49</ns3:cad>
          </ns3:TrackPointExtension>
        </extensions>
      </trkpt>
      <trkpt lat="43.45568052493035793304443359375" lon="1.4718278311192989349365234375">
        <ele>265</ele>
        <time>2026-08-05T07:23:25.000Z</time>
        <extensions>
          <ns3:TrackPointExtension>
            <ns3:hr>79</ns3:hr>
            <ns3:cad>49</ns3:cad>
          </ns3:TrackPointExtension>
        </extensions>
      </trkpt>
      <trkpt lat="43.45569058321416378021240234375" lon="1.4718328602612018585205078125">
        <ele>265</ele>
        <time>2026-08-05T07:23:26.000Z</time>
        <extensions>
          <ns3:TrackPointExtension>
            <ns3:hr>80</ns3:hr>
            <ns3:cad>48</ns3:cad>
          </ns3:TrackPointExtension>
        </extensions>
      </trkpt>
      <trkpt lat="43.45570265315473079681396484375" lon="1.4718392305076122283935546875">
        <ele>265</ele>
        <time>2026-08-05T07:23:27.000Z</time>
        <extensions>
          <ns3:TrackPointExtension>
            <ns3:hr>80</ns3:hr>
            <ns3:cad>47</ns3:cad>
          </ns3:TrackPointExtension>
        </extensions>
      </trkpt>
      <trkpt lat="43.455713801085948944091796875" lon="1.4718466065824031829833984375">
        <ele>265</ele>
        <time>2026-08-05T07:23:28.000Z</time>
        <extensions>
          <ns3:TrackPointExtension>
            <ns3:hr>80</ns3:hr>
            <ns3:cad>47</ns3:cad>
          </ns3:TrackPointExtension>
        </extensions>
      </trkpt>
      <trkpt lat="43.4557253681123256683349609375" lon="1.4718528091907501220703125">
        <ele>265.20001220703125</ele>
        <time>2026-08-05T07:23:29.000Z</time>
        <extensions>
          <ns3:TrackPointExtension>
            <ns3:hr>80</ns3:hr>
            <ns3:cad>48</ns3:cad>
          </ns3:TrackPointExtension>
        </extensions>
      </trkpt>
      <trkpt lat="43.45573551021516323089599609375" lon="1.4718568325042724609375">
        <ele>265.20001220703125</ele>
        <time>2026-08-05T07:23:30.000Z</time>
        <extensions>
          <ns3:TrackPointExtension>
            <ns3:hr>80</ns3:hr>
            <ns3:cad>48</ns3:cad>
          </ns3:TrackPointExtension>
        </extensions>
      </trkpt>
      <trkpt lat="43.45574707724153995513916015625" lon="1.47186194546520709991455078125">
        <ele>265.20001220703125</ele>
        <time>2026-08-05T07:23:31.000Z</time>
        <extensions>
          <ns3:TrackPointExtension>
            <ns3:hr>80</ns3:hr>
            <ns3:cad>48</ns3:cad>
          </ns3:TrackPointExtension>
        </extensions>
      </trkpt>
      <trkpt lat="43.455757386982440948486328125" lon="1.4718683995306491851806640625">
        <ele>265.20001220703125</ele>
        <time>2026-08-05T07:23:32.000Z</time>
        <extensions>
          <ns3:TrackPointExtension>
            <ns3:hr>80</ns3:hr>
            <ns3:cad>48</ns3:cad>
          </ns3:TrackPointExtension>
        </extensions>
      </trkpt>
      <trkpt lat="43.45577021129429340362548828125" lon="1.47187602706253528594970703125">
        <ele>265.399993896484375</ele>
        <time>2026-08-05T07:23:33.000Z</time>
        <extensions>
          <ns3:TrackPointExtension>
            <ns3:hr>80</ns3:hr>
            <ns3:cad>48</ns3:cad>
          </ns3:TrackPointExtension>
        </extensions>
      </trkpt>
      <trkpt lat="43.45577993430197238922119140625" lon="1.47187854163348674774169921875">
        <ele>265.399993896484375</ele>
        <time>2026-08-05T07:23:34.000Z</time>
        <extensions>
          <ns3:TrackPointExtension>
            <ns3:hr>80</ns3:hr>
            <ns3:cad>48</ns3:cad>
          </ns3:TrackPointExtension>
        </extensions>
      </trkpt>
      <trkpt lat="43.45578814856708049774169921875" lon="1.471884660422801971435546875">
        <ele>265.399993896484375</ele>
        <time>2026-08-05T07:23:35.000Z</time>
        <extensions>
          <ns3:TrackPointExtension>
            <ns3:hr>80</ns3:hr>
            <ns3:cad>47</ns3:cad>
          </ns3:TrackPointExtension>
        </extensions>
      </trkpt>
      <trkpt lat="43.4557981230318546295166015625" lon="1.47189061157405376434326171875">
        <ele>265.399993896484375</ele>
        <time>2026-08-05T07:23:36.000Z</time>
        <extensions>
          <ns3:TrackPointExtension>
            <ns3:hr>80</ns3:hr>
            <ns3:cad>48</ns3:cad>
          </ns3:TrackPointExtension>
        </extensions>
      </trkpt>
      <trkpt lat="43.455807678401470184326171875" lon="1.47189865820109844207763671875">
        <ele>265.600006103515625</ele>
        <time>2026-08-05T07:23:37.000Z</time>
        <extensions>
          <ns3:TrackPointExtension>
            <ns3:hr>80</ns3:hr>
            <ns3:cad>48</ns3:cad>
          </ns3:TrackPointExtension>
        </extensions>
      </trkpt>
      <trkpt lat="43.455818407237529754638671875" lon="1.471903435885906219482421875">
        <ele>265.600006103515625</ele>
        <time>2026-08-05T07:23:38.000Z</time>
        <extensions>
          <ns3:TrackPointExtension>
            <ns3:hr>81</ns3:hr>
            <ns3:cad>48</ns3:cad>
          </ns3:TrackPointExtension>
        </extensions>
      </trkpt>
      <trkpt lat="43.45582821406424045562744140625" lon="1.47190787829458713531494140625">
        <ele>265.600006103515625</ele>
        <time>2026-08-05T07:23:39.000Z</time>
        <extensions>
          <ns3:TrackPointExtension>
            <ns3:hr>81</ns3:hr>
            <ns3:cad>48</ns3:cad>
          </ns3:TrackPointExtension>
        </extensions>
      </trkpt>
      <trkpt lat="43.45583793707191944122314453125" lon="1.47191324271261692047119140625">
        <ele>265.600006103515625</ele>
        <time>2026-08-05T07:23:40.000Z</time>
        <extensions>
          <ns3:TrackPointExtension>
            <ns3:hr>81</ns3:hr>
            <ns3:cad>49</ns3:cad>
          </ns3:TrackPointExtension>
        </extensions>
      </trkpt>
      <trkpt lat="43.45584933646023273468017578125" lon="1.47192145697772502899169921875">
        <ele>265.600006103515625</ele>
        <time>2026-08-05T07:23:41.000Z</time>
        <extensions>
          <ns3:TrackPointExtension>
            <ns3:hr>81</ns3:hr>
            <ns3:cad>49</ns3:cad>
          </ns3:TrackPointExtension>
        </extensions>
      </trkpt>
      <trkpt lat="43.4558591432869434356689453125" lon="1.47192548029124736785888671875">
        <ele>265.79998779296875</ele>
        <time>2026-08-05T07:23:42.000Z</time>
        <extensions>
          <ns3:TrackPointExtension>
            <ns3:hr>81</ns3:hr>
            <ns3:cad>48</ns3:cad>
          </ns3:TrackPointExtension>
        </extensions>
      </trkpt>
      <trkpt lat="43.45586777664721012115478515625" lon="1.4719279110431671142578125">
        <ele>265.79998779296875</ele>
        <time>2026-08-05T07:23:43.000Z</time>
        <extensions>
          <ns3:TrackPointExtension>
            <ns3:hr>81</ns3:hr>
            <ns3:cad>48</ns3:cad>
          </ns3:TrackPointExtension>
        </extensions>
      </trkpt>
      <trkpt lat="43.4558755718171596527099609375" lon="1.47193620912730693817138671875">
        <ele>265.79998779296875</ele>
        <time>2026-08-05T07:23:44.000Z</time>
        <extensions>
          <ns3:TrackPointExtension>
            <ns3:hr>82</ns3:hr>
            <ns3:cad>47</ns3:cad>
          </ns3:TrackPointExtension>
        </extensions>
      </trkpt>
      <trkpt lat="43.45588420517742633819580078125" lon="1.47194358520209789276123046875">
        <ele>265.79998779296875</ele>
        <time>2026-08-05T07:23:45.000Z</time>
        <extensions>
          <ns3:TrackPointExtension>
            <ns3:hr>82</ns3:hr>
            <ns3:cad>47</ns3:cad>
          </ns3:TrackPointExtension>
        </extensions>
      </trkpt>
      <trkpt lat="43.45589510165154933929443359375" lon="1.4719505421817302703857421875">
        <ele>265.79998779296875</ele>
        <time>2026-08-05T07:23:46.000Z</time>
        <extensions>
          <ns3:TrackPointExtension>
            <ns3:hr>82</ns3:hr>
            <ns3:cad>47</ns3:cad>
          </ns3:TrackPointExtension>
        </extensions>
      </trkpt>
      <trkpt lat="43.4559045732021331787109375" lon="1.47195666097104549407958984375">
        <ele>266</ele>
        <time>2026-08-05T07:23:47.000Z</time>
        <extensions>
          <ns3:TrackPointExtension>
            <ns3:hr>83</ns3:hr>
            <ns3:cad>47</ns3:cad>
          </ns3:TrackPointExtension>
        </extensions>
      </trkpt>
      <trkpt lat="43.45591236837208271026611328125" lon="1.471961438655853271484375">
        <ele>266</ele>
        <time>2026-08-05T07:23:48.000Z</time>
        <extensions>
          <ns3:TrackPointExtension>
            <ns3:hr>83</ns3:hr>
            <ns3:cad>47</ns3:cad>
          </ns3:TrackPointExtension>
        </extensions>
      </trkpt>
      <trkpt lat="43.455920331180095672607421875" lon="1.4719673059880733489990234375">
        <ele>266</ele>
        <time>2026-08-05T07:23:49.000Z</time>
        <extensions>
          <ns3:TrackPointExtension>
            <ns3:hr>83</ns3:hr>
            <ns3:cad>47</ns3:cad>
          </ns3:TrackPointExtension>
        </extensions>
      </trkpt>
      <trkpt lat="43.455929048359394073486328125" lon="1.47197560407221317291259765625">
        <ele>266.20001220703125</ele>
        <time>2026-08-05T07:23:50.000Z</time>
        <extensions>
          <ns3:TrackPointExtension>
            <ns3:hr>82</ns3:hr>
            <ns3:cad>47</ns3:cad>
          </ns3:TrackPointExtension>
        </extensions>
      </trkpt>
      <trkpt lat="43.45594103448092937469482421875" lon="1.47198264487087726593017578125">
        <ele>266.20001220703125</ele>
        <time>2026-08-05T07:23:51.000Z</time>
        <extensions>
          <ns3:TrackPointExtension>
            <ns3:hr>83</ns3:hr>
            <ns3:cad>48</ns3:cad>
          </ns3:TrackPointExtension>
        </extensions>
      </trkpt>
      <trkpt lat="43.45595176331698894500732421875" lon="1.47198951803147792816162109375">
        <ele>266.399993896484375</ele>
        <time>2026-08-05T07:23:52.000Z</time>
        <extensions>
          <ns3:TrackPointExtension>
            <ns3:hr>83</ns3:hr>
            <ns3:cad>48</ns3:cad>
          </ns3:TrackPointExtension>
        </extensions>
      </trkpt>
      <trkpt lat="43.45596157014369964599609375" lon="1.47198968566954135894775390625">
        <ele>266.399993896484375</ele>
        <time>2026-08-05T07:23:53.000Z</time>
        <extensions>
          <ns3:TrackPointExtension>
            <ns3:hr>83</ns3:hr>
            <ns3:cad>47</ns3:cad>
          </ns3:TrackPointExtension>
        </extensions>
      </trkpt>
      <trkpt lat="43.455971963703632354736328125" lon="1.47199161350727081298828125">
        <ele>266.399993896484375</ele>
        <time>2026-08-05T07:23:54.000Z</time>
        <extensions>
          <ns3:TrackPointExtension>
            <ns3:hr>83</ns3:hr>
            <ns3:cad>47</ns3:cad>
          </ns3:TrackPointExtension>
        </extensions>
      </trkpt>
      <trkpt lat="43.45598244108259677886962890625" lon="1.47199471481144428253173828125">
        <ele>266.399993896484375</ele>
        <time>2026-08-05T07:23:55.000Z</time>
        <extensions>
          <ns3:TrackPointExtension>
            <ns3:hr>83</ns3:hr>
            <ns3:cad>47</ns3:cad>
          </ns3:TrackPointExtension>
        </extensions>
      </trkpt>
      <trkpt lat="43.45599434338510036468505859375" lon="1.47200376726686954498291015625">
        <ele>266.399993896484375</ele>
        <time>2026-08-05T07:23:56.000Z</time>
        <extensions>
          <ns3:TrackPointExtension>
            <ns3:hr>84</ns3:hr>
            <ns3:cad>47</ns3:cad>
          </ns3:TrackPointExtension>
        </extensions>
      </trkpt>
      <trkpt lat="43.4560033120214939117431640625" lon="1.4720115624368190765380859375">
        <ele>266.399993896484375</ele>
        <time>2026-08-05T07:23:57.000Z</time>
        <extensions>
          <ns3:TrackPointExtension>
            <ns3:hr>84</ns3:hr>
            <ns3:cad>48</ns3:cad>
          </ns3:TrackPointExtension>
        </extensions>
      </trkpt>
      <trkpt lat="43.45601429231464862823486328125" lon="1.4720182679593563079833984375">
        <ele>266.399993896484375</ele>
        <time>2026-08-05T07:23:58.000Z</time>
        <extensions>
          <ns3:TrackPointExtension>
            <ns3:hr>84</ns3:hr>
            <ns3:cad>49</ns3:cad>
          </ns3:TrackPointExtension>
        </extensions>
      </trkpt>
      <trkpt lat="43.4560224227607250213623046875" lon="1.47202455438673496246337890625">
        <ele>266.600006103515625</ele>
        <time>2026-08-05T07:23:59.000Z</time>
        <extensions>
          <ns3:TrackPointExtension>
            <ns3:hr>84</ns3:hr>
            <ns3:cad>48</ns3:cad>
          </ns3:TrackPointExtension>
        </extensions>
      </trkpt>
      <trkpt lat="43.45603155903518199920654296875" lon="1.472033523023128509521484375">
        <ele>266.600006103515625</ele>
        <time>2026-08-05T07:24:00.000Z</time>
        <extensions>
          <ns3:TrackPointExtension>
            <ns3:hr>84</ns3:hr>
            <ns3:cad>48</ns3:cad>
          </ns3:TrackPointExtension>
        </extensions>
      </trkpt>
      <trkpt lat="43.4560442157089710235595703125" lon="1.4720424078404903411865234375">
        <ele>266.600006103515625</ele>
        <time>2026-08-05T07:24:01.000Z</time>
        <extensions>
          <ns3:TrackPointExtension>
            <ns3:hr>84</ns3:hr>
            <ns3:cad>48</ns3:cad>
          </ns3:TrackPointExtension>
        </extensions>
      </trkpt>
      <trkpt lat="43.45605569891631603240966796875" lon="1.47204752080142498016357421875">
        <ele>266.600006103515625</ele>
        <time>2026-08-05T07:24:02.000Z</time>
        <extensions>
          <ns3:TrackPointExtension>
            <ns3:hr>85</ns3:hr>
            <ns3:cad>48</ns3:cad>
          </ns3:TrackPointExtension>
        </extensions>
      </trkpt>
      <trkpt lat="43.45606441609561443328857421875" lon="1.47205305285751819610595703125">
        <ele>266.79998779296875</ele>
        <time>2026-08-05T07:24:03.000Z</time>
        <extensions>
          <ns3:TrackPointExtension>
            <ns3:hr>85</ns3:hr>
            <ns3:cad>49</ns3:cad>
          </ns3:TrackPointExtension>
        </extensions>
      </trkpt>
      <trkpt lat="43.456074893474578857421875" lon="1.4720591716468334197998046875">
        <ele>266.79998779296875</ele>
        <time>2026-08-05T07:24:04.000Z</time>
        <extensions>
          <ns3:TrackPointExtension>
            <ns3:hr>85</ns3:hr>
            <ns3:cad>49</ns3:cad>
          </ns3:TrackPointExtension>
        </extensions>
      </trkpt>
      <trkpt lat="43.45608922652900218963623046875" lon="1.4720648713409900665283203125">
        <ele>266.79998779296875</ele>
        <time>2026-08-05T07:24:05.000Z</time>
        <extensions>
          <ns3:TrackPointExtension>
            <ns3:hr>85</ns3:hr>
            <ns3:cad>48</ns3:cad>
          </ns3:TrackPointExtension>
        </extensions>
      </trkpt>
      <trkpt lat="43.45609811134636402130126953125" lon="1.4720675535500049591064453125">
        <ele>266.79998779296875</ele>
        <time>2026-08-05T07:24:06.000Z</time>
        <extensions>
          <ns3:TrackPointExtension>
            <ns3:hr>85</ns3:hr>
            <ns3:cad>47</ns3:cad>
          </ns3:TrackPointExtension>
        </extensions>
      </trkpt>
      <trkpt lat="43.45610280521214008331298828125" lon="1.47207652218639850616455078125">
        <ele>267</ele>
        <time>2026-08-05T07:24:07.000Z</time>
        <extensions>
          <ns3:TrackPointExtension>
            <ns3:hr>85</ns3:hr>
            <ns3:cad>47</ns3:cad>
          </ns3:TrackPointExtension>
        </extensions>
      </trkpt>
      <trkpt lat="43.4561137855052947998046875" lon="1.472084820270538330078125">
        <ele>267</ele>
        <time>2026-08-05T07:24:08.000Z</time>
        <extensions>
          <ns3:TrackPointExtension>
            <ns3:hr>85</ns3:hr>
            <ns3:cad>45</ns3:cad>
          </ns3:TrackPointExtension>
        </extensions>
      </trkpt>
      <trkpt lat="43.45612359233200550079345703125" lon="1.472092531621456146240234375">
        <ele>267</ele>
        <time>2026-08-05T07:24:09.000Z</time>
        <extensions>
          <ns3:TrackPointExtension>
            <ns3:hr>85</ns3:hr>
            <ns3:cad>43</ns3:cad>
          </ns3:TrackPointExtension>
        </extensions>
      </trkpt>
      <trkpt lat="43.45613230951130390167236328125" lon="1.47210133261978626251220703125">
        <ele>267</ele>
        <time>2026-08-05T07:24:10.000Z</time>
        <extensions>
          <ns3:TrackPointExtension>
            <ns3:hr>86</ns3:hr>
            <ns3:cad>42</ns3:cad>
          </ns3:TrackPointExtension>
        </extensions>
      </trkpt>
      <trkpt lat="43.456138931214809417724609375" lon="1.47211021743714809417724609375">
        <ele>267.20001220703125</ele>
        <time>2026-08-05T07:24:11.000Z</time>
        <extensions>
          <ns3:TrackPointExtension>
            <ns3:hr>85</ns3:hr>
            <ns3:cad>42</ns3:cad>
          </ns3:TrackPointExtension>
        </extensions>
      </trkpt>
      <trkpt lat="43.456149660050868988037109375" lon="1.47211926989257335662841796875">
        <ele>267.20001220703125</ele>
        <time>2026-08-05T07:24:12.000Z</time>
        <extensions>
          <ns3:TrackPointExtension>
            <ns3:hr>85</ns3:hr>
            <ns3:cad>42</ns3:cad>
          </ns3:TrackPointExtension>
        </extensions>
      </trkpt>
      <trkpt lat="43.45616198144853115081787109375" lon="1.4721295796334743499755859375">
        <ele>267.20001220703125</ele>
        <time>2026-08-05T07:24:13.000Z</time>
        <extensions>
          <ns3:TrackPointExtension>
            <ns3:hr>86</ns3:hr>
            <ns3:cad>42</ns3:cad>
          </ns3:TrackPointExtension>
        </extensions>
      </trkpt>
      <trkpt lat="43.45616818405687808990478515625" lon="1.47213955409824848175048828125">
        <ele>267.399993896484375</ele>
        <time>2026-08-05T07:24:14.000Z</time>
        <extensions>
          <ns3:TrackPointExtension>
            <ns3:hr>86</ns3:hr>
            <ns3:cad>42</ns3:cad>
          </ns3:TrackPointExtension>
        </extensions>
      </trkpt>
      <trkpt lat="43.45617539249360561370849609375" lon="1.47214760072529315948486328125">
        <ele>267.399993896484375</ele>
        <time>2026-08-05T07:24:15.000Z</time>
        <extensions>
          <ns3:TrackPointExtension>
            <ns3:hr>86</ns3:hr>
            <ns3:cad>47</ns3:cad>
          </ns3:TrackPointExtension>
        </extensions>
      </trkpt>
      <trkpt lat="43.45618142746388912200927734375" lon="1.4721567369997501373291015625">
        <ele>267.399993896484375</ele>
        <time>2026-08-05T07:24:16.000Z</time>
        <extensions>
          <ns3:TrackPointExtension>
            <ns3:hr>86</ns3:hr>
            <ns3:cad>47</ns3:cad>
          </ns3:TrackPointExtension>
        </extensions>
      </trkpt>
      <trkpt lat="43.45619198866188526153564453125" lon="1.47216595709323883056640625">
        <ele>267.399993896484375</ele>
        <time>2026-08-05T07:24:17.000Z</time>
        <extensions>
          <ns3:TrackPointExtension>
            <ns3:hr>86</ns3:hr>
            <ns3:cad>48</ns3:cad>
          </ns3:TrackPointExtension>
        </extensions>
      </trkpt>
      <trkpt lat="43.45620120875537395477294921875" lon="1.47217593155801296234130859375">
        <ele>267.399993896484375</ele>
        <time>2026-08-05T07:24:18.000Z</time>
        <extensions>
          <ns3:TrackPointExtension>
            <ns3:hr>86</ns3:hr>
            <ns3:cad>48</ns3:cad>
          </ns3:TrackPointExtension>
        </extensions>
      </trkpt>
      <trkpt lat="43.456210009753704071044921875" lon="1.47218531928956508636474609375">
        <ele>267.399993896484375</ele>
        <time>2026-08-05T07:24:19.000Z</time>
        <extensions>
          <ns3:TrackPointExtension>
            <ns3:hr>86</ns3:hr>
            <ns3:cad>48</ns3:cad>
          </ns3:TrackPointExtension>
        </extensions>
      </trkpt>
      <trkpt lat="43.456216715276241302490234375" lon="1.47219303064048290252685546875">
        <ele>267.399993896484375</ele>
        <time>2026-08-05T07:24:20.000Z</time>
        <extensions>
          <ns3:TrackPointExtension>
            <ns3:hr>86</ns3:hr>
            <ns3:cad>48</ns3:cad>
          </ns3:TrackPointExtension>
        </extensions>
      </trkpt>
      <trkpt lat="43.4562225826084613800048828125" lon="1.47220241837203502655029296875">
        <ele>267.399993896484375</ele>
        <time>2026-08-05T07:24:21.000Z</time>
        <extensions>
          <ns3:TrackPointExtension>
            <ns3:hr>85</ns3:hr>
            <ns3:cad>48</ns3:cad>
          </ns3:TrackPointExtension>
        </extensions>
      </trkpt>
      <trkpt lat="43.456231467425823211669921875" lon="1.472213231027126312255859375">
        <ele>267.399993896484375</ele>
        <time>2026-08-05T07:24:22.000Z</time>
        <extensions>
          <ns3:TrackPointExtension>
            <ns3:hr>86</ns3:hr>
            <ns3:cad>48</ns3:cad>
          </ns3:TrackPointExtension>
        </extensions>
      </trkpt>
      <trkpt lat="43.4562396816909313201904296875" lon="1.47222236730158329010009765625">
        <ele>267.600006103515625</ele>
        <time>2026-08-05T07:24:23.000Z</time>
        <extensions>
          <ns3:TrackPointExtension>
            <ns3:hr>86</ns3:hr>
            <ns3:cad>48</ns3:cad>
          </ns3:TrackPointExtension>
        </extensions>
      </trkpt>
      <trkpt lat="43.45624999143183231353759765625" lon="1.472231335937976837158203125">
        <ele>267.600006103515625</ele>
        <time>2026-08-05T07:24:24.000Z</time>
        <extensions>
          <ns3:TrackPointExtension>
            <ns3:hr>86</ns3:hr>
            <ns3:cad>48</ns3:cad>
          </ns3:TrackPointExtension>
        </extensions>
      </trkpt>
      <trkpt lat="43.4562597982585430145263671875" lon="1.47224097512662410736083984375">
        <ele>267.600006103515625</ele>
        <time>2026-08-05T07:24:25.000Z</time>
        <extensions>
          <ns3:TrackPointExtension>
            <ns3:hr>86</ns3:hr>
            <ns3:cad>48</ns3:cad>
          </ns3:TrackPointExtension>
        </extensions>
      </trkpt>
      <trkpt lat="43.4562695212662220001220703125" lon="1.47225036285817623138427734375">
        <ele>267.79998779296875</ele>
        <time>2026-08-05T07:24:26.000Z</time>
        <extensions>
          <ns3:TrackPointExtension>
            <ns3:hr>86</ns3:hr>
            <ns3:cad>48</ns3:cad>
          </ns3:TrackPointExtension>
        </extensions>
      </trkpt>
      <trkpt lat="43.4562795795500278472900390625" lon="1.47226343862712383270263671875">
        <ele>267.79998779296875</ele>
        <time>2026-08-05T07:24:27.000Z</time>
        <extensions>
          <ns3:TrackPointExtension>
            <ns3:hr>87</ns3:hr>
            <ns3:cad>47</ns3:cad>
          </ns3:TrackPointExtension>
        </extensions>
      </trkpt>
      <trkpt lat="43.45628804527223110198974609375" lon="1.47227483801543712615966796875">
        <ele>267.79998779296875</ele>
        <time>2026-08-05T07:24:28.000Z</time>
        <extensions>
          <ns3:TrackPointExtension>
            <ns3:hr>87</ns3:hr>
            <ns3:cad>47</ns3:cad>
          </ns3:TrackPointExtension>
        </extensions>
      </trkpt>
      <trkpt lat="43.45629148185253143310546875" lon="1.47228271700441837310791015625">
        <ele>267.79998779296875</ele>
        <time>2026-08-05T07:24:29.000Z</time>
        <extensions>
          <ns3:TrackPointExtension>
            <ns3:hr>87</ns3:hr>
            <ns3:cad>47</ns3:cad>
          </ns3:TrackPointExtension>
        </extensions>
      </trkpt>
      <trkpt lat="43.456295840442180633544921875" lon="1.47228975780308246612548828125">
        <ele>267.79998779296875</ele>
        <time>2026-08-05T07:24:30.000Z</time>
        <extensions>
          <ns3:TrackPointExtension>
            <ns3:hr>87</ns3:hr>
            <ns3:cad>48</ns3:cad>
          </ns3:TrackPointExtension>
        </extensions>
      </trkpt>
      <trkpt lat="43.45629676245152950286865234375" lon="1.47228665649890899658203125">
        <ele>267.79998779296875</ele>
        <time>2026-08-05T07:24:31.000Z</time>
        <extensions>
          <ns3:TrackPointExtension>
            <ns3:hr>87</ns3:hr>
            <ns3:cad>48</ns3:cad>
          </ns3:TrackPointExtension>
        </extensions>
      </trkpt>
      <trkpt lat="43.45630296505987644195556640625" lon="1.47228707559406757354736328125">
        <ele>268</ele>
        <time>2026-08-05T07:24:32.000Z</time>
        <extensions>
          <ns3:TrackPointExtension>
            <ns3:hr>87</ns3:hr>
            <ns3:cad>0</ns3:cad>
          </ns3:TrackPointExtension>
        </extensions>
      </trkpt>
      <trkpt lat="43.45630866475403308868408203125" lon="1.47229244001209735870361328125">
        <ele>268</ele>
        <time>2026-08-05T07:24:33.000Z</time>
        <extensions>
          <ns3:TrackPointExtension>
            <ns3:hr>87</ns3:hr>
            <ns3:cad>0</ns3:cad>
          </ns3:TrackPointExtension>
        </extensions>
      </trkpt>
      <trkpt lat="43.45631570555269718170166015625" lon="1.47229931317269802093505859375">
        <ele>267.79998779296875</ele>
        <time>2026-08-05T07:24:34.000Z</time>
        <extensions>
          <ns3:TrackPointExtension>
            <ns3:hr>87</ns3:hr>
            <ns3:cad>0</ns3:cad>
          </ns3:TrackPointExtension>
        </extensions>
      </trkpt>
      <trkpt lat="43.45632257871329784393310546875" lon="1.472308449447154998779296875">
        <ele>267.79998779296875</ele>
        <time>2026-08-05T07:24:35.000Z</time>
        <extensions>
          <ns3:TrackPointExtension>
            <ns3:hr>87</ns3:hr>
            <ns3:cad>0</ns3:cad>
          </ns3:TrackPointExtension>
        </extensions>
      </trkpt>
      <trkpt lat="43.45633012242615222930908203125" lon="1.472318172454833984375">
        <ele>267.79998779296875</ele>
        <time>2026-08-05T07:24:36.000Z</time>
        <extensions>
          <ns3:TrackPointExtension>
            <ns3:hr>87</ns3:hr>
            <ns3:cad>0</ns3:cad>
          </ns3:TrackPointExtension>
        </extensions>
      </trkpt>
      <trkpt lat="43.4563364088535308837890625" lon="1.472327224910259246826171875">
        <ele>267.79998779296875</ele>
        <time>2026-08-05T07:24:37.000Z</time>
        <extensions>
          <ns3:TrackPointExtension>
            <ns3:hr>87</ns3:hr>
            <ns3:cad>0</ns3:cad>
          </ns3:TrackPointExtension>
        </extensions>
      </trkpt>
      <trkpt lat="43.45634034834802150726318359375" lon="1.47233149968087673187255859375">
        <ele>267.79998779296875</ele>
        <time>2026-08-05T07:24:38.000Z</time>
        <extensions>
          <ns3:TrackPointExtension>
            <ns3:hr>88</ns3:hr>
            <ns3:cad>0</ns3:cad>
          </ns3:TrackPointExtension>
        </extensions>
      </trkpt>
      <trkpt lat="43.4563473053276538848876953125" lon="1.47233971394598484039306640625">
        <ele>267.79998779296875</ele>
        <time>2026-08-05T07:24:39.000Z</time>
        <extensions>
          <ns3:TrackPointExtension>
            <ns3:hr>88</ns3:hr>
            <ns3:cad>49</ns3:cad>
          </ns3:TrackPointExtension>
        </extensions>
      </trkpt>
      <trkpt lat="43.4563540108501911163330078125" lon="1.4723498560488224029541015625">
        <ele>267.79998779296875</ele>
        <time>2026-08-05T07:24:40.000Z</time>
        <extensions>
          <ns3:TrackPointExtension>
            <ns3:hr>88</ns3:hr>
            <ns3:cad>49</ns3:cad>
          </ns3:TrackPointExtension>
        </extensions>
      </trkpt>
      <trkpt lat="43.45636247657239437103271484375" lon="1.4723602496087551116943359375">
        <ele>267.79998779296875</ele>
        <time>2026-08-05T07:24:41.000Z</time>
        <extensions>
          <ns3:TrackPointExtension>
            <ns3:hr>87</ns3:hr>
            <ns3:cad>47</ns3:cad>
          </ns3:TrackPointExtension>
        </extensions>
      </trkpt>
      <trkpt lat="43.4563701041042804718017578125" lon="1.4723696373403072357177734375">
        <ele>267.79998779296875</ele>
        <time>2026-08-05T07:24:42.000Z</time>
        <extensions>
          <ns3:TrackPointExtension>
            <ns3:hr>87</ns3:hr>
            <ns3:cad>47</ns3:cad>
          </ns3:TrackPointExtension>
        </extensions>
      </trkpt>
      <trkpt lat="43.4563774801790714263916015625" lon="1.47237919270992279052734375">
        <ele>267.79998779296875</ele>
        <time>2026-08-05T07:24:43.000Z</time>
        <extensions>
          <ns3:TrackPointExtension>
            <ns3:hr>87</ns3:hr>
            <ns3:cad>47</ns3:cad>
          </ns3:TrackPointExtension>
        </extensions>
      </trkpt>
      <trkpt lat="43.4563841857016086578369140625" lon="1.4723857305943965911865234375">
        <ele>267.79998779296875</ele>
        <time>2026-08-05T07:24:44.000Z</time>
        <extensions>
          <ns3:TrackPointExtension>
            <ns3:hr>87</ns3:hr>
            <ns3:cad>47</ns3:cad>
          </ns3:TrackPointExtension>
        </extensions>
      </trkpt>
      <trkpt lat="43.45639047212898731231689453125" lon="1.4723934419453144073486328125">
        <ele>267.79998779296875</ele>
        <time>2026-08-05T07:24:45.000Z</time>
        <extensions>
          <ns3:TrackPointExtension>
            <ns3:hr>86</ns3:hr>
            <ns3:cad>47</ns3:cad>
          </ns3:TrackPointExtension>
        </extensions>
      </trkpt>
      <trkpt lat="43.4563975967466831207275390625" lon="1.47240341641008853912353515625">
        <ele>267.600006103515625</ele>
        <time>2026-08-05T07:24:46.000Z</time>
        <extensions>
          <ns3:TrackPointExtension>
            <ns3:hr>86</ns3:hr>
            <ns3:cad>47</ns3:cad>
          </ns3:TrackPointExtension>
        </extensions>
      </trkpt>
      <trkpt lat="43.45640438608825206756591796875" lon="1.47241272032260894775390625">
        <ele>267.600006103515625</ele>
        <time>2026-08-05T07:24:47.000Z</time>
        <extensions>
          <ns3:TrackPointExtension>
            <ns3:hr>86</ns3:hr>
            <ns3:cad>47</ns3:cad>
          </ns3:TrackPointExtension>
        </extensions>
      </trkpt>
      <trkpt lat="43.456411175429821014404296875" lon="1.47242185659706592559814453125">
        <ele>267.600006103515625</ele>
        <time>2026-08-05T07:24:48.000Z</time>
        <extensions>
          <ns3:TrackPointExtension>
            <ns3:hr>86</ns3:hr>
            <ns3:cad>47</ns3:cad>
          </ns3:TrackPointExtension>
        </extensions>
      </trkpt>
      <trkpt lat="43.456419222056865692138671875" lon="1.47243090905249118804931640625">
        <ele>267.600006103515625</ele>
        <time>2026-08-05T07:24:49.000Z</time>
        <extensions>
          <ns3:TrackPointExtension>
            <ns3:hr>85</ns3:hr>
            <ns3:cad>47</ns3:cad>
          </ns3:TrackPointExtension>
        </extensions>
      </trkpt>
      <trkpt lat="43.456427939236164093017578125" lon="1.47244180552661418914794921875">
        <ele>267.399993896484375</ele>
        <time>2026-08-05T07:24:50.000Z</time>
        <extensions>
          <ns3:TrackPointExtension>
            <ns3:hr>85</ns3:hr>
            <ns3:cad>47</ns3:cad>
          </ns3:TrackPointExtension>
        </extensions>
      </trkpt>
      <trkpt lat="43.45643321983516216278076171875" lon="1.47244968451559543609619140625">
        <ele>267.399993896484375</ele>
        <time>2026-08-05T07:24:51.000Z</time>
        <extensions>
          <ns3:TrackPointExtension>
            <ns3:hr>85</ns3:hr>
            <ns3:cad>46</ns3:cad>
          </ns3:TrackPointExtension>
        </extensions>
      </trkpt>
      <trkpt lat="43.45644009299576282501220703125" lon="1.47245974279940128326416015625">
        <ele>267.399993896484375</ele>
        <time>2026-08-05T07:24:52.000Z</time>
        <extensions>
          <ns3:TrackPointExtension>
            <ns3:hr>84</ns3:hr>
            <ns3:cad>46</ns3:cad>
          </ns3:TrackPointExtension>
        </extensions>
      </trkpt>
      <trkpt lat="43.45644512213766574859619140625" lon="1.47246577776968479156494140625">
        <ele>267.399993896484375</ele>
        <time>2026-08-05T07:24:53.000Z</time>
        <extensions>
          <ns3:TrackPointExtension>
            <ns3:hr>84</ns3:hr>
            <ns3:cad>46</ns3:cad>
          </ns3:TrackPointExtension>
        </extensions>
      </trkpt>
      <trkpt lat="43.45645149238407611846923828125" lon="1.47247466258704662322998046875">
        <ele>267.399993896484375</ele>
        <time>2026-08-05T07:24:54.000Z</time>
        <extensions>
          <ns3:TrackPointExtension>
            <ns3:hr>84</ns3:hr>
            <ns3:cad>46</ns3:cad>
          </ns3:TrackPointExtension>
        </extensions>
      </trkpt>
      <trkpt lat="43.456460125744342803955078125" lon="1.47248371504247188568115234375">
        <ele>267.20001220703125</ele>
        <time>2026-08-05T07:24:55.000Z</time>
        <extensions>
          <ns3:TrackPointExtension>
            <ns3:hr>84</ns3:hr>
            <ns3:cad>46</ns3:cad>
          </ns3:TrackPointExtension>
        </extensions>
      </trkpt>
      <trkpt lat="43.456466160714626312255859375" lon="1.4724923484027385711669921875">
        <ele>267.20001220703125</ele>
        <time>2026-08-05T07:24:56.000Z</time>
        <extensions>
          <ns3:TrackPointExtension>
            <ns3:hr>85</ns3:hr>
            <ns3:cad>47</ns3:cad>
          </ns3:TrackPointExtension>
        </extensions>
      </trkpt>
      <trkpt lat="43.456471860408782958984375" lon="1.472500227391719818115234375">
        <ele>267.20001220703125</ele>
        <time>2026-08-05T07:24:57.000Z</time>
        <extensions>
          <ns3:TrackPointExtension>
            <ns3:hr>85</ns3:hr>
            <ns3:cad>47</ns3:cad>
          </ns3:TrackPointExtension>
        </extensions>
      </trkpt>
      <trkpt lat="43.456477224826812744140625" lon="1.4725094474852085113525390625">
        <ele>267</ele>
        <time>2026-08-05T07:24:58.000Z</time>
        <extensions>
          <ns3:TrackPointExtension>
            <ns3:hr>84</ns3:hr>
            <ns3:cad>46</ns3:cad>
          </ns3:TrackPointExtension>
        </extensions>
      </trkpt>
      <trkpt lat="43.45648434944450855255126953125" lon="1.47252042777836322784423828125">
        <ele>267</ele>
        <time>2026-08-05T07:24:59.000Z</time>
        <extensions>
          <ns3:TrackPointExtension>
            <ns3:hr>84</ns3:hr>
            <ns3:cad>46</ns3:cad>
          </ns3:TrackPointExtension>
        </extensions>
      </trkpt>
      <trkpt lat="43.45649122260510921478271484375" lon="1.47252830676734447479248046875">
        <ele>266.79998779296875</ele>
        <time>2026-08-05T07:25:00.000Z</time>
        <extensions>
          <ns3:TrackPointExtension>
            <ns3:hr>84</ns3:hr>
            <ns3:cad>46</ns3:cad>
          </ns3:TrackPointExtension>
        </extensions>
      </trkpt>
      <trkpt lat="43.456498347222805023193359375" lon="1.47253450937569141387939453125">
        <ele>266.79998779296875</ele>
        <time>2026-08-05T07:25:01.000Z</time>
        <extensions>
          <ns3:TrackPointExtension>
            <ns3:hr>83</ns3:hr>
            <ns3:cad>47</ns3:cad>
          </ns3:TrackPointExtension>
        </extensions>
      </trkpt>
      <trkpt lat="43.4565053880214691162109375" lon="1.472544483840465545654296875">
        <ele>266.79998779296875</ele>
        <time>2026-08-05T07:25:02.000Z</time>
        <extensions>
          <ns3:TrackPointExtension>
            <ns3:hr>82</ns3:hr>
            <ns3:cad>48</ns3:cad>
          </ns3:TrackPointExtension>
        </extensions>
      </trkpt>
      <trkpt lat="43.45650781877338886260986328125" lon="1.47255546413362026214599609375">
        <ele>266.600006103515625</ele>
        <time>2026-08-05T07:25:03.000Z</time>
        <extensions>
          <ns3:TrackPointExtension>
            <ns3:hr>81</ns3:hr>
            <ns3:cad>48</ns3:cad>
          </ns3:TrackPointExtension>
        </extensions>
      </trkpt>
      <trkpt lat="43.45651368610560894012451171875" lon="1.47256334312260150909423828125">
        <ele>266.600006103515625</ele>
        <time>2026-08-05T07:25:04.000Z</time>
        <extensions>
          <ns3:TrackPointExtension>
            <ns3:hr>81</ns3:hr>
            <ns3:cad>48</ns3:cad>
          </ns3:TrackPointExtension>
        </extensions>
      </trkpt>
      <trkpt lat="43.456520140171051025390625" lon="1.4725694619119167327880859375">
        <ele>266.600006103515625</ele>
        <time>2026-08-05T07:25:05.000Z</time>
        <extensions>
          <ns3:TrackPointExtension>
            <ns3:hr>80</ns3:hr>
            <ns3:cad>46</ns3:cad>
          </ns3:TrackPointExtension>
        </extensions>
      </trkpt>
      <trkpt lat="43.45652508549392223358154296875" lon="1.4725795201957225799560546875">
        <ele>266.600006103515625</ele>
        <time>2026-08-05T07:25:06.000Z</time>
        <extensions>
          <ns3:TrackPointExtension>
            <ns3:hr>79</ns3:hr>
            <ns3:cad>47</ns3:cad>
          </ns3:TrackPointExtension>
        </extensions>
      </trkpt>
      <trkpt lat="43.4565295279026031494140625" lon="1.472589410841464996337890625">
        <ele>266.600006103515625</ele>
        <time>2026-08-05T07:25:07.000Z</time>
        <extensions>
          <ns3:TrackPointExtension>
            <ns3:hr>79</ns3:hr>
            <ns3:cad>47</ns3:cad>
          </ns3:TrackPointExtension>
        </extensions>
      </trkpt>
      <trkpt lat="43.45653564669191837310791015625" lon="1.472599469125270843505859375">
        <ele>266.399993896484375</ele>
        <time>2026-08-05T07:25:08.000Z</time>
        <extensions>
          <ns3:TrackPointExtension>
            <ns3:hr>78</ns3:hr>
            <ns3:cad>49</ns3:cad>
          </ns3:TrackPointExtension>
        </extensions>
      </trkpt>
      <trkpt lat="43.45654285512864589691162109375" lon="1.47261011414229869842529296875">
        <ele>266.399993896484375</ele>
        <time>2026-08-05T07:25:09.000Z</time>
        <extensions>
          <ns3:TrackPointExtension>
            <ns3:hr>78</ns3:hr>
            <ns3:cad>49</ns3:cad>
          </ns3:TrackPointExtension>
        </extensions>
      </trkpt>
      <trkpt lat="43.456549979746341705322265625" lon="1.4726180769503116607666015625">
        <ele>266.20001220703125</ele>
        <time>2026-08-05T07:25:10.000Z</time>
        <extensions>
          <ns3:TrackPointExtension>
            <ns3:hr>78</ns3:hr>
            <ns3:cad>49</ns3:cad>
          </ns3:TrackPointExtension>
        </extensions>
      </trkpt>
      <trkpt lat="43.456557691097259521484375" lon="1.47262687794864177703857421875">
        <ele>266</ele>
        <time>2026-08-05T07:25:11.000Z</time>
        <extensions>
          <ns3:TrackPointExtension>
            <ns3:hr>78</ns3:hr>
            <ns3:cad>49</ns3:cad>
          </ns3:TrackPointExtension>
        </extensions>
      </trkpt>
      <trkpt lat="43.45656515099108219146728515625" lon="1.472635008394718170166015625">
        <ele>266</ele>
        <time>2026-08-05T07:25:12.000Z</time>
        <extensions>
          <ns3:TrackPointExtension>
            <ns3:hr>78</ns3:hr>
            <ns3:cad>49</ns3:cad>
          </ns3:TrackPointExtension>
        </extensions>
      </trkpt>
      <trkpt lat="43.4565722756087779998779296875" lon="1.47264531813561916351318359375">
        <ele>265.79998779296875</ele>
        <time>2026-08-05T07:25:13.000Z</time>
        <extensions>
          <ns3:TrackPointExtension>
            <ns3:hr>78</ns3:hr>
            <ns3:cad>48</ns3:cad>
          </ns3:TrackPointExtension>
        </extensions>
      </trkpt>
      <trkpt lat="43.456580154597759246826171875" lon="1.472657136619091033935546875">
        <ele>265.79998779296875</ele>
        <time>2026-08-05T07:25:14.000Z</time>
        <extensions>
          <ns3:TrackPointExtension>
            <ns3:hr>77</ns3:hr>
            <ns3:cad>48</ns3:cad>
          </ns3:TrackPointExtension>
        </extensions>
      </trkpt>
      <trkpt lat="43.456587530672550201416015625" lon="1.47266912274062633514404296875">
        <ele>265.79998779296875</ele>
        <time>2026-08-05T07:25:15.000Z</time>
        <extensions>
          <ns3:TrackPointExtension>
            <ns3:hr>77</ns3:hr>
            <ns3:cad>48</ns3:cad>
          </ns3:TrackPointExtension>
        </extensions>
      </trkpt>
      <trkpt lat="43.45659591257572174072265625" lon="1.47267985157668590545654296875">
        <ele>265.79998779296875</ele>
        <time>2026-08-05T07:25:16.000Z</time>
        <extensions>
          <ns3:TrackPointExtension>
            <ns3:hr>77</ns3:hr>
            <ns3:cad>48</ns3:cad>
          </ns3:TrackPointExtension>
        </extensions>
      </trkpt>
      <trkpt lat="43.4566037915647029876708984375" lon="1.4726898260414600372314453125">
        <ele>265.79998779296875</ele>
        <time>2026-08-05T07:25:17.000Z</time>
        <extensions>
          <ns3:TrackPointExtension>
            <ns3:hr>77</ns3:hr>
            <ns3:cad>48</ns3:cad>
          </ns3:TrackPointExtension>
        </extensions>
      </trkpt>
      <trkpt lat="43.45661007799208164215087890625" lon="1.47269778884947299957275390625">
        <ele>265.79998779296875</ele>
        <time>2026-08-05T07:25:18.000Z</time>
        <extensions>
          <ns3:TrackPointExtension>
            <ns3:hr>77</ns3:hr>
            <ns3:cad>49</ns3:cad>
          </ns3:TrackPointExtension>
        </extensions>
      </trkpt>
      <trkpt lat="43.45661426894366741180419921875" lon="1.47270617075264453887939453125">
        <ele>265.79998779296875</ele>
        <time>2026-08-05T07:25:19.000Z</time>
        <extensions>
          <ns3:TrackPointExtension>
            <ns3:hr>76</ns3:hr>
            <ns3:cad>49</ns3:cad>
          </ns3:TrackPointExtension>
        </extensions>
      </trkpt>
      <trkpt lat="43.4566218964755535125732421875" lon="1.47271572612226009368896484375">
        <ele>265.600006103515625</ele>
        <time>2026-08-05T07:25:20.000Z</time>
        <extensions>
          <ns3:TrackPointExtension>
            <ns3:hr>76</ns3:hr>
            <ns3:cad>48</ns3:cad>
          </ns3:TrackPointExtension>
        </extensions>
      </trkpt>
      <trkpt lat="43.4566299431025981903076171875" lon="1.47272494621574878692626953125">
        <ele>265.600006103515625</ele>
        <time>2026-08-05T07:25:21.000Z</time>
        <extensions>
          <ns3:TrackPointExtension>
            <ns3:hr>76</ns3:hr>
            <ns3:cad>47</ns3:cad>
          </ns3:TrackPointExtension>
        </extensions>
      </trkpt>
      <trkpt lat="43.4566346369683742523193359375" lon="1.47273483686149120330810546875">
        <ele>265.600006103515625</ele>
        <time>2026-08-05T07:25:22.000Z</time>
        <extensions>
          <ns3:TrackPointExtension>
            <ns3:hr>76</ns3:hr>
            <ns3:cad>47</ns3:cad>
          </ns3:TrackPointExtension>
        </extensions>
      </trkpt>
      <trkpt lat="43.456637822091579437255859375" lon="1.472743637859821319580078125">
        <ele>265.399993896484375</ele>
        <time>2026-08-05T07:25:23.000Z</time>
        <extensions>
          <ns3:TrackPointExtension>
            <ns3:hr>76</ns3:hr>
            <ns3:cad>47</ns3:cad>
          </ns3:TrackPointExtension>
        </extensions>
      </trkpt>
      <trkpt lat="43.4566448628902435302734375" lon="1.4727531932294368743896484375">
        <ele>265.399993896484375</ele>
        <time>2026-08-05T07:25:24.000Z</time>
        <extensions>
          <ns3:TrackPointExtension>
            <ns3:hr>76</ns3:hr>
            <ns3:cad>47</ns3:cad>
          </ns3:TrackPointExtension>
        </extensions>
      </trkpt>
      <trkpt lat="43.4566524066030979156494140625" lon="1.4727635867893695831298828125">
        <ele>265.399993896484375</ele>
        <time>2026-08-05T07:25:25.000Z</time>
        <extensions>
          <ns3:TrackPointExtension>
            <ns3:hr>76</ns3:hr>
            <ns3:cad>49</ns3:cad>
          </ns3:TrackPointExtension>
        </extensions>
      </trkpt>
      <trkpt lat="43.45665986649692058563232421875" lon="1.47277154959738254547119140625">
        <ele>265.20001220703125</ele>
        <time>2026-08-05T07:25:26.000Z</time>
        <extensions>
          <ns3:TrackPointExtension>
            <ns3:hr>76</ns3:hr>
            <ns3:cad>49</ns3:cad>
          </ns3:TrackPointExtension>
        </extensions>
      </trkpt>
      <trkpt lat="43.45666556619107723236083984375" lon="1.4727813564240932464599609375">
        <ele>265.20001220703125</ele>
        <time>2026-08-05T07:25:27.000Z</time>
        <extensions>
          <ns3:TrackPointExtension>
            <ns3:hr>75</ns3:hr>
            <ns3:cad>48</ns3:cad>
          </ns3:TrackPointExtension>
        </extensions>
      </trkpt>
      <trkpt lat="43.456672020256519317626953125" lon="1.4727930910885334014892578125">
        <ele>265</ele>
        <time>2026-08-05T07:25:28.000Z</time>
        <extensions>
          <ns3:TrackPointExtension>
            <ns3:hr>75</ns3:hr>
            <ns3:cad>47</ns3:cad>
          </ns3:TrackPointExtension>
        </extensions>
      </trkpt>
      <trkpt lat="43.4566797316074371337890625" lon="1.47280407138168811798095703125">
        <ele>265</ele>
        <time>2026-08-05T07:25:29.000Z</time>
        <extensions>
          <ns3:TrackPointExtension>
            <ns3:hr>75</ns3:hr>
            <ns3:cad>47</ns3:cad>
          </ns3:TrackPointExtension>
        </extensions>
      </trkpt>
      <trkpt lat="43.45668886788189411163330078125" lon="1.4728158898651599884033203125">
        <ele>265</ele>
        <time>2026-08-05T07:25:30.000Z</time>
        <extensions>
          <ns3:TrackPointExtension>
            <ns3:hr>75</ns3:hr>
            <ns3:cad>47</ns3:cad>
          </ns3:TrackPointExtension>
        </extensions>
      </trkpt>
      <trkpt lat="43.45669607631862163543701171875" lon="1.4728279598057270050048828125">
        <ele>264.79998779296875</ele>
        <time>2026-08-05T07:25:31.000Z</time>
        <extensions>
          <ns3:TrackPointExtension>
            <ns3:hr>74</ns3:hr>
            <ns3:cad>47</ns3:cad>
          </ns3:TrackPointExtension>
        </extensions>
      </trkpt>
      <trkpt lat="43.45670227892696857452392578125" lon="1.47283810190856456756591796875">
        <ele>264.79998779296875</ele>
        <time>2026-08-05T07:25:32.000Z</time>
        <extensions>
          <ns3:TrackPointExtension>
            <ns3:hr>74</ns3:hr>
            <ns3:cad>47</ns3:cad>
          </ns3:TrackPointExtension>
        </extensions>
      </trkpt>
      <trkpt lat="43.456708900630474090576171875" lon="1.4728484116494655609130859375">
        <ele>264.79998779296875</ele>
        <time>2026-08-05T07:25:33.000Z</time>
        <extensions>
          <ns3:TrackPointExtension>
            <ns3:hr>74</ns3:hr>
            <ns3:cad>47</ns3:cad>
          </ns3:TrackPointExtension>
        </extensions>
      </trkpt>
      <trkpt lat="43.45671485178172588348388671875" lon="1.47285704500973224639892578125">
        <ele>264.600006103515625</ele>
        <time>2026-08-05T07:25:34.000Z</time>
        <extensions>
          <ns3:TrackPointExtension>
            <ns3:hr>75</ns3:hr>
            <ns3:cad>47</ns3:cad>
          </ns3:TrackPointExtension>
        </extensions>
      </trkpt>
      <trkpt lat="43.4567226469516754150390625" lon="1.47286777384579181671142578125">
        <ele>264.600006103515625</ele>
        <time>2026-08-05T07:25:35.000Z</time>
        <extensions>
          <ns3:TrackPointExtension>
            <ns3:hr>75</ns3:hr>
            <ns3:cad>48</ns3:cad>
          </ns3:TrackPointExtension>
        </extensions>
      </trkpt>
      <trkpt lat="43.45672893337905406951904296875" lon="1.472879089415073394775390625">
        <ele>264.600006103515625</ele>
        <time>2026-08-05T07:25:36.000Z</time>
        <extensions>
          <ns3:TrackPointExtension>
            <ns3:hr>75</ns3:hr>
            <ns3:cad>50</ns3:cad>
          </ns3:TrackPointExtension>
        </extensions>
      </trkpt>
      <trkpt lat="43.45673538744449615478515625" lon="1.472889482975006103515625">
        <ele>264.399993896484375</ele>
        <time>2026-08-05T07:25:37.000Z</time>
        <extensions>
          <ns3:TrackPointExtension>
            <ns3:hr>75</ns3:hr>
            <ns3:cad>50</ns3:cad>
          </ns3:TrackPointExtension>
        </extensions>
      </trkpt>
      <trkpt lat="43.45674200914800167083740234375" lon="1.47290012799203395843505859375">
        <ele>264.399993896484375</ele>
        <time>2026-08-05T07:25:38.000Z</time>
        <extensions>
          <ns3:TrackPointExtension>
            <ns3:hr>75</ns3:hr>
            <ns3:cad>49</ns3:cad>
          </ns3:TrackPointExtension>
        </extensions>
      </trkpt>
      <trkpt lat="43.45675072632730007171630859375" lon="1.472912617027759552001953125">
        <ele>264.399993896484375</ele>
        <time>2026-08-05T07:25:39.000Z</time>
        <extensions>
          <ns3:TrackPointExtension>
            <ns3:hr>74</ns3:hr>
            <ns3:cad>48</ns3:cad>
          </ns3:TrackPointExtension>
        </extensions>
      </trkpt>
      <trkpt lat="43.45675877295434474945068359375" lon="1.47292359732091426849365234375">
        <ele>264.20001220703125</ele>
        <time>2026-08-05T07:25:40.000Z</time>
        <extensions>
          <ns3:TrackPointExtension>
            <ns3:hr>74</ns3:hr>
            <ns3:cad>48</ns3:cad>
          </ns3:TrackPointExtension>
        </extensions>
      </trkpt>
      <trkpt lat="43.45676581375300884246826171875" lon="1.47293399088084697723388671875">
        <ele>264.20001220703125</ele>
        <time>2026-08-05T07:25:41.000Z</time>
        <extensions>
          <ns3:TrackPointExtension>
            <ns3:hr>74</ns3:hr>
            <ns3:cad>48</ns3:cad>
          </ns3:TrackPointExtension>
        </extensions>
      </trkpt>
      <trkpt lat="43.45677117817103862762451171875" lon="1.47294656373560428619384765625">
        <ele>264.20001220703125</ele>
        <time>2026-08-05T07:25:42.000Z</time>
        <extensions>
          <ns3:TrackPointExtension>
            <ns3:hr>73</ns3:hr>
            <ns3:cad>48</ns3:cad>
          </ns3:TrackPointExtension>
        </extensions>
      </trkpt>
      <trkpt lat="43.45677830278873443603515625" lon="1.4729553647339344024658203125">
        <ele>264.20001220703125</ele>
        <time>2026-08-05T07:25:43.000Z</time>
        <extensions>
          <ns3:TrackPointExtension>
            <ns3:hr>73</ns3:hr>
            <ns3:cad>48</ns3:cad>
          </ns3:TrackPointExtension>
        </extensions>
      </trkpt>
      <trkpt lat="43.456782661378383636474609375" lon="1.472965590655803680419921875">
        <ele>264</ele>
        <time>2026-08-05T07:25:44.000Z</time>
        <extensions>
          <ns3:TrackPointExtension>
            <ns3:hr>74</ns3:hr>
            <ns3:cad>48</ns3:cad>
          </ns3:TrackPointExtension>
        </extensions>
      </trkpt>
      <trkpt lat="43.4567888639867305755615234375" lon="1.47297690622508525848388671875">
        <ele>264</ele>
        <time>2026-08-05T07:25:45.000Z</time>
        <extensions>
          <ns3:TrackPointExtension>
            <ns3:hr>73</ns3:hr>
            <ns3:cad>48</ns3:cad>
          </ns3:TrackPointExtension>
        </extensions>
      </trkpt>
      <trkpt lat="43.4567959047853946685791015625" lon="1.47298696450889110565185546875">
        <ele>264</ele>
        <time>2026-08-05T07:25:46.000Z</time>
        <extensions>
          <ns3:TrackPointExtension>
            <ns3:hr>73</ns3:hr>
            <ns3:cad>48</ns3:cad>
          </ns3:TrackPointExtension>
        </extensions>
      </trkpt>
      <trkpt lat="43.45680369995534420013427734375" lon="1.47300004027783870697021484375">
        <ele>263.79998779296875</ele>
        <time>2026-08-05T07:25:47.000Z</time>
        <extensions>
          <ns3:TrackPointExtension>
            <ns3:hr>73</ns3:hr>
            <ns3:cad>50</ns3:cad>
          </ns3:TrackPointExtension>
        </extensions>
      </trkpt>
      <trkpt lat="43.4568093158304691314697265625" lon="1.4730086736381053924560546875">
        <ele>263.600006103515625</ele>
        <time>2026-08-05T07:25:48.000Z</time>
        <extensions>
          <ns3:TrackPointExtension>
            <ns3:hr>74</ns3:hr>
            <ns3:cad>50</ns3:cad>
          </ns3:TrackPointExtension>
        </extensions>
      </trkpt>
      <trkpt lat="43.45681560225784778594970703125" lon="1.4730195701122283935546875">
        <ele>263.600006103515625</ele>
        <time>2026-08-05T07:25:49.000Z</time>
        <extensions>
          <ns3:TrackPointExtension>
            <ns3:hr>73</ns3:hr>
            <ns3:cad>50</ns3:cad>
          </ns3:TrackPointExtension>
        </extensions>
      </trkpt>
      <trkpt lat="43.45682197250425815582275390625" lon="1.47302962839603424072265625">
        <ele>263.600006103515625</ele>
        <time>2026-08-05T07:25:50.000Z</time>
        <extensions>
          <ns3:TrackPointExtension>
            <ns3:hr>73</ns3:hr>
            <ns3:cad>48</ns3:cad>
          </ns3:TrackPointExtension>
        </extensions>
      </trkpt>
      <trkpt lat="43.4568287618458271026611328125" lon="1.47304044105112552642822265625">
        <ele>263.399993896484375</ele>
        <time>2026-08-05T07:25:51.000Z</time>
        <extensions>
          <ns3:TrackPointExtension>
            <ns3:hr>73</ns3:hr>
            <ns3:cad>48</ns3:cad>
          </ns3:TrackPointExtension>
        </extensions>
      </trkpt>
      <trkpt lat="43.45683504827320575714111328125" lon="1.4730505831539630889892578125">
        <ele>263.399993896484375</ele>
        <time>2026-08-05T07:25:52.000Z</time>
        <extensions>
          <ns3:TrackPointExtension>
            <ns3:hr>73</ns3:hr>
            <ns3:cad>48</ns3:cad>
          </ns3:TrackPointExtension>
        </extensions>
      </trkpt>
      <trkpt lat="43.456842005252838134765625" lon="1.4730596356093883514404296875">
        <ele>263.20001220703125</ele>
        <time>2026-08-05T07:25:53.000Z</time>
        <extensions>
          <ns3:TrackPointExtension>
            <ns3:hr>73</ns3:hr>
            <ns3:cad>49</ns3:cad>
          </ns3:TrackPointExtension>
        </extensions>
      </trkpt>
      <trkpt lat="43.4568485431373119354248046875" lon="1.47307061590254306793212890625">
        <ele>263.20001220703125</ele>
        <time>2026-08-05T07:25:54.000Z</time>
        <extensions>
          <ns3:TrackPointExtension>
            <ns3:hr>73</ns3:hr>
            <ns3:cad>50</ns3:cad>
          </ns3:TrackPointExtension>
        </extensions>
      </trkpt>
      <trkpt lat="43.45685482956469058990478515625" lon="1.47308285348117351531982421875">
        <ele>263</ele>
        <time>2026-08-05T07:25:55.000Z</time>
        <extensions>
          <ns3:TrackPointExtension>
            <ns3:hr>72</ns3:hr>
            <ns3:cad>50</ns3:cad>
          </ns3:TrackPointExtension>
        </extensions>
      </trkpt>
      <trkpt lat="43.45686153508722782135009765625" lon="1.473094336688518524169921875">
        <ele>263</ele>
        <time>2026-08-05T07:25:56.000Z</time>
        <extensions>
          <ns3:TrackPointExtension>
            <ns3:hr>73</ns3:hr>
            <ns3:cad>48</ns3:cad>
          </ns3:TrackPointExtension>
        </extensions>
      </trkpt>
      <trkpt lat="43.4568701684474945068359375" lon="1.47310816682875156402587890625">
        <ele>262.79998779296875</ele>
        <time>2026-08-05T07:25:57.000Z</time>
        <extensions>
          <ns3:TrackPointExtension>
            <ns3:hr>72</ns3:hr>
            <ns3:cad>47</ns3:cad>
          </ns3:TrackPointExtension>
        </extensions>
      </trkpt>
      <trkpt lat="43.4568773768842220306396484375" lon="1.473119147121906280517578125">
        <ele>262.79998779296875</ele>
        <time>2026-08-05T07:25:58.000Z</time>
        <extensions>
          <ns3:TrackPointExtension>
            <ns3:hr>73</ns3:hr>
            <ns3:cad>47</ns3:cad>
          </ns3:TrackPointExtension>
        </extensions>
      </trkpt>
      <trkpt lat="43.4568844176828861236572265625" lon="1.47312861867249011993408203125">
        <ele>262.79998779296875</ele>
        <time>2026-08-05T07:25:59.000Z</time>
        <extensions>
          <ns3:TrackPointExtension>
            <ns3:hr>73</ns3:hr>
            <ns3:cad>48</ns3:cad>
          </ns3:TrackPointExtension>
        </extensions>
      </trkpt>
      <trkpt lat="43.45689120702445507049560546875" lon="1.47314001806080341339111328125">
        <ele>262.79998779296875</ele>
        <time>2026-08-05T07:26:00.000Z</time>
        <extensions>
          <ns3:TrackPointExtension>
            <ns3:hr>73</ns3:hr>
            <ns3:cad>48</ns3:cad>
          </ns3:TrackPointExtension>
        </extensions>
      </trkpt>
      <trkpt lat="43.45689690671861171722412109375" lon="1.47315041162073612213134765625">
        <ele>262.79998779296875</ele>
        <time>2026-08-05T07:26:01.000Z</time>
        <extensions>
          <ns3:TrackPointExtension>
            <ns3:hr>75</ns3:hr>
            <ns3:cad>48</ns3:cad>
          </ns3:TrackPointExtension>
        </extensions>
      </trkpt>
      <trkpt lat="43.456904031336307525634765625" lon="1.47316147573292255401611328125">
        <ele>262.79998779296875</ele>
        <time>2026-08-05T07:26:02.000Z</time>
        <extensions>
          <ns3:TrackPointExtension>
            <ns3:hr>77</ns3:hr>
            <ns3:cad>48</ns3:cad>
          </ns3:TrackPointExtension>
        </extensions>
      </trkpt>
      <trkpt lat="43.456910736858844757080078125" lon="1.47317253984510898590087890625">
        <ele>262.600006103515625</ele>
        <time>2026-08-05T07:26:03.000Z</time>
        <extensions>
          <ns3:TrackPointExtension>
            <ns3:hr>78</ns3:hr>
            <ns3:cad>48</ns3:cad>
          </ns3:TrackPointExtension>
        </extensions>
      </trkpt>
      <trkpt lat="43.4569166041910648345947265625" lon="1.47318259812891483306884765625">
        <ele>262.600006103515625</ele>
        <time>2026-08-05T07:26:04.000Z</time>
        <extensions>
          <ns3:TrackPointExtension>
            <ns3:hr>78</ns3:hr>
            <ns3:cad>48</ns3:cad>
          </ns3:TrackPointExtension>
        </extensions>
      </trkpt>
      <trkpt lat="43.45692289061844348907470703125" lon="1.47319315932691097259521484375">
        <ele>262.600006103515625</ele>
        <time>2026-08-05T07:26:05.000Z</time>
        <extensions>
          <ns3:TrackPointExtension>
            <ns3:hr>78</ns3:hr>
            <ns3:cad>48</ns3:cad>
          </ns3:TrackPointExtension>
        </extensions>
      </trkpt>
      <trkpt lat="43.456928841769695281982421875" lon="1.4732021279633045196533203125">
        <ele>262.399993896484375</ele>
        <time>2026-08-05T07:26:06.000Z</time>
        <extensions>
          <ns3:TrackPointExtension>
            <ns3:hr>78</ns3:hr>
            <ns3:cad>50</ns3:cad>
          </ns3:TrackPointExtension>
        </extensions>
      </trkpt>
      <trkpt lat="43.4569367207586765289306640625" lon="1.47321411408483982086181640625">
        <ele>262.399993896484375</ele>
        <time>2026-08-05T07:26:07.000Z</time>
        <extensions>
          <ns3:TrackPointExtension>
            <ns3:hr>78</ns3:hr>
            <ns3:cad>50</ns3:cad>
          </ns3:TrackPointExtension>
        </extensions>
      </trkpt>
      <trkpt lat="43.45694418065249919891357421875" lon="1.47322467528283596038818359375">
        <ele>262.20001220703125</ele>
        <time>2026-08-05T07:26:08.000Z</time>
        <extensions>
          <ns3:TrackPointExtension>
            <ns3:hr>77</ns3:hr>
            <ns3:cad>50</ns3:cad>
          </ns3:TrackPointExtension>
        </extensions>
      </trkpt>
      <trkpt lat="43.4569508023560047149658203125" lon="1.473233141005039215087890625">
        <ele>262.20001220703125</ele>
        <time>2026-08-05T07:26:09.000Z</time>
        <extensions>
          <ns3:TrackPointExtension>
            <ns3:hr>77</ns3:hr>
            <ns3:cad>49</ns3:cad>
          </ns3:TrackPointExtension>
        </extensions>
      </trkpt>
      <trkpt lat="43.45695801079273223876953125" lon="1.4732448756694793701171875">
        <ele>262</ele>
        <time>2026-08-05T07:26:10.000Z</time>
        <extensions>
          <ns3:TrackPointExtension>
            <ns3:hr>77</ns3:hr>
            <ns3:cad>49</ns3:cad>
          </ns3:TrackPointExtension>
        </extensions>
      </trkpt>
      <trkpt lat="43.45696329139173030853271484375" lon="1.47325853817164897918701171875">
        <ele>262</ele>
        <time>2026-08-05T07:26:11.000Z</time>
        <extensions>
          <ns3:TrackPointExtension>
            <ns3:hr>77</ns3:hr>
            <ns3:cad>49</ns3:cad>
          </ns3:TrackPointExtension>
        </extensions>
      </trkpt>
      <trkpt lat="43.45697083510458469390869140625" lon="1.47327102720737457275390625">
        <ele>262</ele>
        <time>2026-08-05T07:26:12.000Z</time>
        <extensions>
          <ns3:TrackPointExtension>
            <ns3:hr>77</ns3:hr>
            <ns3:cad>49</ns3:cad>
          </ns3:TrackPointExtension>
        </extensions>
      </trkpt>
      <trkpt lat="43.45697904936969280242919921875" lon="1.4732839353382587432861328125">
        <ele>262</ele>
        <time>2026-08-05T07:26:13.000Z</time>
        <extensions>
          <ns3:TrackPointExtension>
            <ns3:hr>76</ns3:hr>
            <ns3:cad>49</ns3:cad>
          </ns3:TrackPointExtension>
        </extensions>
      </trkpt>
      <trkpt lat="43.45698743127286434173583984375" lon="1.47329608909785747528076171875">
        <ele>262</ele>
        <time>2026-08-05T07:26:14.000Z</time>
        <extensions>
          <ns3:TrackPointExtension>
            <ns3:hr>76</ns3:hr>
            <ns3:cad>48</ns3:cad>
          </ns3:TrackPointExtension>
        </extensions>
      </trkpt>
      <trkpt lat="43.456995226442813873291015625" lon="1.4733077399432659149169921875">
        <ele>262</ele>
        <time>2026-08-05T07:26:15.000Z</time>
        <extensions>
          <ns3:TrackPointExtension>
            <ns3:hr>76</ns3:hr>
            <ns3:cad>48</ns3:cad>
          </ns3:TrackPointExtension>
        </extensions>
      </trkpt>
      <trkpt lat="43.4570031054317951202392578125" lon="1.47331838496029376983642578125">
        <ele>262</ele>
        <time>2026-08-05T07:26:16.000Z</time>
        <extensions>
          <ns3:TrackPointExtension>
            <ns3:hr>75</ns3:hr>
            <ns3:cad>48</ns3:cad>
          </ns3:TrackPointExtension>
        </extensions>
      </trkpt>
      <trkpt lat="43.45701090060174465179443359375" lon="1.47332961671054363250732421875">
        <ele>261.79998779296875</ele>
        <time>2026-08-05T07:26:17.000Z</time>
        <extensions>
          <ns3:TrackPointExtension>
            <ns3:hr>75</ns3:hr>
            <ns3:cad>49</ns3:cad>
          </ns3:TrackPointExtension>
        </extensions>
      </trkpt>
      <trkpt lat="43.457019366323947906494140625" lon="1.4733402617275714874267578125">
        <ele>261.79998779296875</ele>
        <time>2026-08-05T07:26:18.000Z</time>
        <extensions>
          <ns3:TrackPointExtension>
            <ns3:hr>75</ns3:hr>
            <ns3:cad>49</ns3:cad>
          </ns3:TrackPointExtension>
        </extensions>
      </trkpt>
      <trkpt lat="43.457025401294231414794921875" lon="1.47335090674459934234619140625">
        <ele>261.79998779296875</ele>
        <time>2026-08-05T07:26:19.000Z</time>
        <extensions>
          <ns3:TrackPointExtension>
            <ns3:hr>76</ns3:hr>
            <ns3:cad>48</ns3:cad>
          </ns3:TrackPointExtension>
        </extensions>
      </trkpt>
      <trkpt lat="43.4570302627980709075927734375" lon="1.473361551761627197265625">
        <ele>261.600006103515625</ele>
        <time>2026-08-05T07:26:20.000Z</time>
        <extensions>
          <ns3:TrackPointExtension>
            <ns3:hr>75</ns3:hr>
            <ns3:cad>48</ns3:cad>
          </ns3:TrackPointExtension>
        </extensions>
      </trkpt>
      <trkpt lat="43.45703436993062496185302734375" lon="1.47337504662573337554931640625">
        <ele>261.600006103515625</ele>
        <time>2026-08-05T07:26:21.000Z</time>
        <extensions>
          <ns3:TrackPointExtension>
            <ns3:hr>75</ns3:hr>
            <ns3:cad>48</ns3:cad>
          </ns3:TrackPointExtension>
        </extensions>
      </trkpt>
      <trkpt lat="43.45704115927219390869140625" lon="1.47338661365211009979248046875">
        <ele>261.399993896484375</ele>
        <time>2026-08-05T07:26:22.000Z</time>
        <extensions>
          <ns3:TrackPointExtension>
            <ns3:hr>75</ns3:hr>
            <ns3:cad>48</ns3:cad>
          </ns3:TrackPointExtension>
        </extensions>
      </trkpt>
      <trkpt lat="43.45704861916601657867431640625" lon="1.47339901886880397796630859375">
        <ele>261.399993896484375</ele>
        <time>2026-08-05T07:26:23.000Z</time>
        <extensions>
          <ns3:TrackPointExtension>
            <ns3:hr>76</ns3:hr>
            <ns3:cad>48</ns3:cad>
          </ns3:TrackPointExtension>
        </extensions>
      </trkpt>
      <trkpt lat="43.45705549232661724090576171875" lon="1.47341050207614898681640625">
        <ele>261.399993896484375</ele>
        <time>2026-08-05T07:26:24.000Z</time>
        <extensions>
          <ns3:TrackPointExtension>
            <ns3:hr>75</ns3:hr>
            <ns3:cad>48</ns3:cad>
          </ns3:TrackPointExtension>
        </extensions>
      </trkpt>
      <trkpt lat="43.4570617787539958953857421875" lon="1.473420225083827972412109375">
        <ele>261.399993896484375</ele>
        <time>2026-08-05T07:26:25.000Z</time>
        <extensions>
          <ns3:TrackPointExtension>
            <ns3:hr>75</ns3:hr>
            <ns3:cad>48</ns3:cad>
          </ns3:TrackPointExtension>
        </extensions>
      </trkpt>
      <trkpt lat="43.45706856809556484222412109375" lon="1.47343154065310955047607421875">
        <ele>261.399993896484375</ele>
        <time>2026-08-05T07:26:26.000Z</time>
        <extensions>
          <ns3:TrackPointExtension>
            <ns3:hr>75</ns3:hr>
            <ns3:cad>48</ns3:cad>
          </ns3:TrackPointExtension>
        </extensions>
      </trkpt>
      <trkpt lat="43.457075022161006927490234375" lon="1.47344076074659824371337890625">
        <ele>261.399993896484375</ele>
        <time>2026-08-05T07:26:27.000Z</time>
        <extensions>
          <ns3:TrackPointExtension>
            <ns3:hr>75</ns3:hr>
            <ns3:cad>48</ns3:cad>
          </ns3:TrackPointExtension>
        </extensions>
      </trkpt>
      <trkpt lat="43.457083404064178466796875" lon="1.4734522439539432525634765625">
        <ele>261.399993896484375</ele>
        <time>2026-08-05T07:26:28.000Z</time>
        <extensions>
          <ns3:TrackPointExtension>
            <ns3:hr>75</ns3:hr>
            <ns3:cad>49</ns3:cad>
          </ns3:TrackPointExtension>
        </extensions>
      </trkpt>
      <trkpt lat="43.4570902772247791290283203125" lon="1.47346221841871738433837890625">
        <ele>261.399993896484375</ele>
        <time>2026-08-05T07:26:29.000Z</time>
        <extensions>
          <ns3:TrackPointExtension>
            <ns3:hr>75</ns3:hr>
            <ns3:cad>48</ns3:cad>
          </ns3:TrackPointExtension>
        </extensions>
      </trkpt>
      <trkpt lat="43.4570954740047454833984375" lon="1.4734710194170475006103515625">
        <ele>261.20001220703125</ele>
        <time>2026-08-05T07:26:30.000Z</time>
        <extensions>
          <ns3:TrackPointExtension>
            <ns3:hr>75</ns3:hr>
            <ns3:cad>48</ns3:cad>
          </ns3:TrackPointExtension>
        </extensions>
      </trkpt>
      <trkpt lat="43.45710226334631443023681640625" lon="1.47348216734826564788818359375">
        <ele>261.20001220703125</ele>
        <time>2026-08-05T07:26:31.000Z</time>
        <extensions>
          <ns3:TrackPointExtension>
            <ns3:hr>75</ns3:hr>
            <ns3:cad>48</ns3:cad>
          </ns3:TrackPointExtension>
        </extensions>
      </trkpt>
      <trkpt lat="43.457111231982707977294921875" lon="1.4734938181936740875244140625">
        <ele>261.20001220703125</ele>
        <time>2026-08-05T07:26:32.000Z</time>
        <extensions>
          <ns3:TrackPointExtension>
            <ns3:hr>75</ns3:hr>
            <ns3:cad>48</ns3:cad>
          </ns3:TrackPointExtension>
        </extensions>
      </trkpt>
      <trkpt lat="43.4571196138858795166015625" lon="1.473506391048431396484375">
        <ele>261.20001220703125</ele>
        <time>2026-08-05T07:26:33.000Z</time>
        <extensions>
          <ns3:TrackPointExtension>
            <ns3:hr>74</ns3:hr>
            <ns3:cad>48</ns3:cad>
          </ns3:TrackPointExtension>
        </extensions>
      </trkpt>
      <trkpt lat="43.45712539739906787872314453125" lon="1.473517119884490966796875">
        <ele>261.20001220703125</ele>
        <time>2026-08-05T07:26:34.000Z</time>
        <extensions>
          <ns3:TrackPointExtension>
            <ns3:hr>75</ns3:hr>
            <ns3:cad>48</ns3:cad>
          </ns3:TrackPointExtension>
        </extensions>
      </trkpt>
      <trkpt lat="43.45712975598871707916259765625" lon="1.4735276810824871063232421875">
        <ele>261.20001220703125</ele>
        <time>2026-08-05T07:26:35.000Z</time>
        <extensions>
          <ns3:TrackPointExtension>
            <ns3:hr>74</ns3:hr>
            <ns3:cad>47</ns3:cad>
          </ns3:TrackPointExtension>
        </extensions>
      </trkpt>
      <trkpt lat="43.45713562332093715667724609375" lon="1.47354017011821269989013671875">
        <ele>261</ele>
        <time>2026-08-05T07:26:36.000Z</time>
        <extensions>
          <ns3:TrackPointExtension>
            <ns3:hr>74</ns3:hr>
            <ns3:cad>47</ns3:cad>
          </ns3:TrackPointExtension>
        </extensions>
      </trkpt>
      <trkpt lat="43.45714366994798183441162109375" lon="1.47355374880135059356689453125">
        <ele>261</ele>
        <time>2026-08-05T07:26:37.000Z</time>
        <extensions>
          <ns3:TrackPointExtension>
            <ns3:hr>74</ns3:hr>
            <ns3:cad>47</ns3:cad>
          </ns3:TrackPointExtension>
        </extensions>
      </trkpt>
      <trkpt lat="43.4571509622037410736083984375" lon="1.47356665693223476409912109375">
        <ele>261</ele>
        <time>2026-08-05T07:26:38.000Z</time>
        <extensions>
          <ns3:TrackPointExtension>
            <ns3:hr>74</ns3:hr>
            <ns3:cad>48</ns3:cad>
          </ns3:TrackPointExtension>
        </extensions>
      </trkpt>
      <trkpt lat="43.4571576677262783050537109375" lon="1.4735786430537700653076171875">
        <ele>261</ele>
        <time>2026-08-05T07:26:39.000Z</time>
        <extensions>
          <ns3:TrackPointExtension>
            <ns3:hr>74</ns3:hr>
            <ns3:cad>48</ns3:cad>
          </ns3:TrackPointExtension>
        </extensions>
      </trkpt>
      <trkpt lat="43.45716319978237152099609375" lon="1.47359079681336879730224609375">
        <ele>261</ele>
        <time>2026-08-05T07:26:40.000Z</time>
        <extensions>
          <ns3:TrackPointExtension>
            <ns3:hr>73</ns3:hr>
            <ns3:cad>48</ns3:cad>
          </ns3:TrackPointExtension>
        </extensions>
      </trkpt>
      <trkpt lat="43.45716948620975017547607421875" lon="1.4736069738864898681640625">
        <ele>261</ele>
        <time>2026-08-05T07:26:41.000Z</time>
        <extensions>
          <ns3:TrackPointExtension>
            <ns3:hr>73</ns3:hr>
            <ns3:cad>47</ns3:cad>
          </ns3:TrackPointExtension>
        </extensions>
      </trkpt>
      <trkpt lat="43.45717820338904857635498046875" lon="1.47362046875059604644775390625">
        <ele>260.79998779296875</ele>
        <time>2026-08-05T07:26:42.000Z</time>
        <extensions>
          <ns3:TrackPointExtension>
            <ns3:hr>73</ns3:hr>
            <ns3:cad>47</ns3:cad>
          </ns3:TrackPointExtension>
        </extensions>
      </trkpt>
      <trkpt lat="43.4571851603686809539794921875" lon="1.47363312542438507080078125">
        <ele>260.79998779296875</ele>
        <time>2026-08-05T07:26:43.000Z</time>
        <extensions>
          <ns3:TrackPointExtension>
            <ns3:hr>73</ns3:hr>
            <ns3:cad>47</ns3:cad>
          </ns3:TrackPointExtension>
        </extensions>
      </trkpt>
      <trkpt lat="43.4571901895105838775634765625" lon="1.47364410571753978729248046875">
        <ele>260.79998779296875</ele>
        <time>2026-08-05T07:26:44.000Z</time>
        <extensions>
          <ns3:TrackPointExtension>
            <ns3:hr>72</ns3:hr>
            <ns3:cad>47</ns3:cad>
          </ns3:TrackPointExtension>
        </extensions>
      </trkpt>
      <trkpt lat="43.45719379372894763946533203125" lon="1.47365483455359935760498046875">
        <ele>260.79998779296875</ele>
        <time>2026-08-05T07:26:45.000Z</time>
        <extensions>
          <ns3:TrackPointExtension>
            <ns3:hr>72</ns3:hr>
            <ns3:cad>47</ns3:cad>
          </ns3:TrackPointExtension>
        </extensions>
      </trkpt>
      <trkpt lat="43.45719647593796253204345703125" lon="1.473664306104183197021484375">
        <ele>260.600006103515625</ele>
        <time>2026-08-05T07:26:46.000Z</time>
        <extensions>
          <ns3:TrackPointExtension>
            <ns3:hr>72</ns3:hr>
            <ns3:cad>47</ns3:cad>
          </ns3:TrackPointExtension>
        </extensions>
      </trkpt>
      <trkpt lat="43.45720033161342144012451171875" lon="1.473675705492496490478515625">
        <ele>260.79998779296875</ele>
        <time>2026-08-05T07:26:47.000Z</time>
        <extensions>
          <ns3:TrackPointExtension>
            <ns3:hr>72</ns3:hr>
            <ns3:cad>48</ns3:cad>
          </ns3:TrackPointExtension>
        </extensions>
      </trkpt>
      <trkpt lat="43.45720485784113407135009765625" lon="1.4736862666904926300048828125">
        <ele>260.79998779296875</ele>
        <time>2026-08-05T07:26:48.000Z</time>
        <extensions>
          <ns3:TrackPointExtension>
            <ns3:hr>72</ns3:hr>
            <ns3:cad>48</ns3:cad>
          </ns3:TrackPointExtension>
        </extensions>
      </trkpt>
      <trkpt lat="43.45721156336367130279541015625" lon="1.47369288839399814605712890625">
        <ele>260.79998779296875</ele>
        <time>2026-08-05T07:26:49.000Z</time>
        <extensions>
          <ns3:TrackPointExtension>
            <ns3:hr>72</ns3:hr>
            <ns3:cad>48</ns3:cad>
          </ns3:TrackPointExtension>
        </extensions>
      </trkpt>
      <trkpt lat="43.45721860416233539581298828125" lon="1.4737037010490894317626953125">
        <ele>260.79998779296875</ele>
        <time>2026-08-05T07:26:50.000Z</time>
        <extensions>
          <ns3:TrackPointExtension>
            <ns3:hr>73</ns3:hr>
            <ns3:cad>48</ns3:cad>
          </ns3:TrackPointExtension>
        </extensions>
      </trkpt>
      <trkpt lat="43.457225896418094635009765625" lon="1.47371702827513217926025390625">
        <ele>260.79998779296875</ele>
        <time>2026-08-05T07:26:51.000Z</time>
        <extensions>
          <ns3:TrackPointExtension>
            <ns3:hr>72</ns3:hr>
            <ns3:cad>46</ns3:cad>
          </ns3:TrackPointExtension>
        </extensions>
      </trkpt>
      <trkpt lat="43.4572331048548221588134765625" lon="1.4737332053482532501220703125">
        <ele>260.600006103515625</ele>
        <time>2026-08-05T07:26:52.000Z</time>
        <extensions>
          <ns3:TrackPointExtension>
            <ns3:hr>73</ns3:hr>
            <ns3:cad>46</ns3:cad>
          </ns3:TrackPointExtension>
        </extensions>
      </trkpt>
      <trkpt lat="43.4572408162057399749755859375" lon="1.4737482927739620208740234375">
        <ele>260.600006103515625</ele>
        <time>2026-08-05T07:26:53.000Z</time>
        <extensions>
          <ns3:TrackPointExtension>
            <ns3:hr>73</ns3:hr>
            <ns3:cad>46</ns3:cad>
          </ns3:TrackPointExtension>
        </extensions>
      </trkpt>
      <trkpt lat="43.4572481922805309295654296875" lon="1.47376044653356075286865234375">
        <ele>260.399993896484375</ele>
        <time>2026-08-05T07:26:54.000Z</time>
        <extensions>
          <ns3:TrackPointExtension>
            <ns3:hr>73</ns3:hr>
            <ns3:cad>47</ns3:cad>
          </ns3:TrackPointExtension>
        </extensions>
      </trkpt>
      <trkpt lat="43.45725296996533870697021484375" lon="1.47377260029315948486328125">
        <ele>260.399993896484375</ele>
        <time>2026-08-05T07:26:55.000Z</time>
        <extensions>
          <ns3:TrackPointExtension>
            <ns3:hr>73</ns3:hr>
            <ns3:cad>48</ns3:cad>
          </ns3:TrackPointExtension>
        </extensions>
      </trkpt>
      <trkpt lat="43.4572572447359561920166015625" lon="1.47378609515726566314697265625">
        <ele>260.20001220703125</ele>
        <time>2026-08-05T07:26:56.000Z</time>
        <extensions>
          <ns3:TrackPointExtension>
            <ns3:hr>73</ns3:hr>
            <ns3:cad>50</ns3:cad>
          </ns3:TrackPointExtension>
        </extensions>
      </trkpt>
      <trkpt lat="43.4572619386017322540283203125" lon="1.47379917092621326446533203125">
        <ele>260.20001220703125</ele>
        <time>2026-08-05T07:26:57.000Z</time>
        <extensions>
          <ns3:TrackPointExtension>
            <ns3:hr>74</ns3:hr>
            <ns3:cad>50</ns3:cad>
          </ns3:TrackPointExtension>
        </extensions>
      </trkpt>
      <trkpt lat="43.4572693146765232086181640625" lon="1.47381291724741458892822265625">
        <ele>260.20001220703125</ele>
        <time>2026-08-05T07:26:58.000Z</time>
        <extensions>
          <ns3:TrackPointExtension>
            <ns3:hr>73</ns3:hr>
            <ns3:cad>50</ns3:cad>
          </ns3:TrackPointExtension>
        </extensions>
      </trkpt>
      <trkpt lat="43.45727342180907726287841796875" lon="1.4738230593502521514892578125">
        <ele>260</ele>
        <time>2026-08-05T07:26:59.000Z</time>
        <extensions>
          <ns3:TrackPointExtension>
            <ns3:hr>73</ns3:hr>
            <ns3:cad>49</ns3:cad>
          </ns3:TrackPointExtension>
        </extensions>
      </trkpt>
      <trkpt lat="43.4572773613035678863525390625" lon="1.4738327823579311370849609375">
        <ele>260</ele>
        <time>2026-08-05T07:27:00.000Z</time>
        <extensions>
          <ns3:TrackPointExtension>
            <ns3:hr>73</ns3:hr>
            <ns3:cad>49</ns3:cad>
          </ns3:TrackPointExtension>
        </extensions>
      </trkpt>
      <trkpt lat="43.45728063024580478668212890625" lon="1.47384175099432468414306640625">
        <ele>260</ele>
        <time>2026-08-05T07:27:01.000Z</time>
        <extensions>
          <ns3:TrackPointExtension>
            <ns3:hr>73</ns3:hr>
            <ns3:cad>49</ns3:cad>
          </ns3:TrackPointExtension>
        </extensions>
      </trkpt>
      <trkpt lat="43.457284234464168548583984375" lon="1.47385231219232082366943359375">
        <ele>260</ele>
        <time>2026-08-05T07:27:02.000Z</time>
        <extensions>
          <ns3:TrackPointExtension>
            <ns3:hr>72</ns3:hr>
            <ns3:cad>49</ns3:cad>
          </ns3:TrackPointExtension>
        </extensions>
      </trkpt>
      <trkpt lat="43.4572884254157543182373046875" lon="1.47386287339031696319580078125">
        <ele>260</ele>
        <time>2026-08-05T07:27:03.000Z</time>
        <extensions>
          <ns3:TrackPointExtension>
            <ns3:hr>73</ns3:hr>
            <ns3:cad>49</ns3:cad>
          </ns3:TrackPointExtension>
        </extensions>
      </trkpt>
      <trkpt lat="43.457291610538959503173828125" lon="1.473875530064105987548828125">
        <ele>260</ele>
        <time>2026-08-05T07:27:04.000Z</time>
        <extensions>
          <ns3:TrackPointExtension>
            <ns3:hr>72</ns3:hr>
            <ns3:cad>49</ns3:cad>
          </ns3:TrackPointExtension>
        </extensions>
      </trkpt>
      <trkpt lat="43.45729655586183071136474609375" lon="1.4738827385008335113525390625">
        <ele>260</ele>
        <time>2026-08-05T07:27:05.000Z</time>
        <extensions>
          <ns3:TrackPointExtension>
            <ns3:hr>72</ns3:hr>
            <ns3:cad>48</ns3:cad>
          </ns3:TrackPointExtension>
        </extensions>
      </trkpt>
      <trkpt lat="43.4573021717369556427001953125" lon="1.47389522753655910491943359375">
        <ele>260</ele>
        <time>2026-08-05T07:27:06.000Z</time>
        <extensions>
          <ns3:TrackPointExtension>
            <ns3:hr>72</ns3:hr>
            <ns3:cad>47</ns3:cad>
          </ns3:TrackPointExtension>
        </extensions>
      </trkpt>
      <trkpt lat="43.457307703793048858642578125" lon="1.4739062078297138214111328125">
        <ele>260</ele>
        <time>2026-08-05T07:27:07.000Z</time>
        <extensions>
          <ns3:TrackPointExtension>
            <ns3:hr>73</ns3:hr>
            <ns3:cad>47</ns3:cad>
          </ns3:TrackPointExtension>
        </extensions>
      </trkpt>
      <trkpt lat="43.45731197856366634368896484375" lon="1.4739181101322174072265625">
        <ele>260</ele>
        <time>2026-08-05T07:27:08.000Z</time>
        <extensions>
          <ns3:TrackPointExtension>
            <ns3:hr>73</ns3:hr>
            <ns3:cad>47</ns3:cad>
          </ns3:TrackPointExtension>
        </extensions>
      </trkpt>
      <trkpt lat="43.45731700770556926727294921875" lon="1.473930180072784423828125">
        <ele>259.79998779296875</ele>
        <time>2026-08-05T07:27:09.000Z</time>
        <extensions>
          <ns3:TrackPointExtension>
            <ns3:hr>73</ns3:hr>
            <ns3:cad>46</ns3:cad>
          </ns3:TrackPointExtension>
        </extensions>
      </trkpt>
      <trkpt lat="43.45732304267585277557373046875" lon="1.4739420823752880096435546875">
        <ele>259.79998779296875</ele>
        <time>2026-08-05T07:27:10.000Z</time>
        <extensions>
          <ns3:TrackPointExtension>
            <ns3:hr>73</ns3:hr>
            <ns3:cad>43</ns3:cad>
          </ns3:TrackPointExtension>
        </extensions>
      </trkpt>
      <trkpt lat="43.45733008347451686859130859375" lon="1.4739507995545864105224609375">
        <ele>259.79998779296875</ele>
        <time>2026-08-05T07:27:11.000Z</time>
        <extensions>
          <ns3:TrackPointExtension>
            <ns3:hr>72</ns3:hr>
            <ns3:cad>43</ns3:cad>
          </ns3:TrackPointExtension>
        </extensions>
      </trkpt>
      <trkpt lat="43.45733528025448322296142578125" lon="1.47395825944840908050537109375">
        <ele>259.600006103515625</ele>
        <time>2026-08-05T07:27:12.000Z</time>
        <extensions>
          <ns3:TrackPointExtension>
            <ns3:hr>73</ns3:hr>
            <ns3:cad>43</ns3:cad>
          </ns3:TrackPointExtension>
        </extensions>
      </trkpt>
      <trkpt lat="43.45733930356800556182861328125" lon="1.47396747954189777374267578125">
        <ele>259.600006103515625</ele>
        <time>2026-08-05T07:27:13.000Z</time>
        <extensions>
          <ns3:TrackPointExtension>
            <ns3:hr>73</ns3:hr>
            <ns3:cad>45</ns3:cad>
          </ns3:TrackPointExtension>
        </extensions>
      </trkpt>
      <trkpt lat="43.457343578338623046875" lon="1.47397904656827449798583984375">
        <ele>259.79998779296875</ele>
        <time>2026-08-05T07:27:14.000Z</time>
        <extensions>
          <ns3:TrackPointExtension>
            <ns3:hr>72</ns3:hr>
            <ns3:cad>46</ns3:cad>
          </ns3:TrackPointExtension>
        </extensions>
      </trkpt>
      <trkpt lat="43.45734827220439910888671875" lon="1.4739917032420635223388671875">
        <ele>259.79998779296875</ele>
        <time>2026-08-05T07:27:15.000Z</time>
        <extensions>
          <ns3:TrackPointExtension>
            <ns3:hr>71</ns3:hr>
            <ns3:cad>46</ns3:cad>
          </ns3:TrackPointExtension>
        </extensions>
      </trkpt>
      <trkpt lat="43.4573529660701751708984375" lon="1.47399949841201305389404296875">
        <ele>259.79998779296875</ele>
        <time>2026-08-05T07:27:16.000Z</time>
        <extensions>
          <ns3:TrackPointExtension>
            <ns3:hr>71</ns3:hr>
            <ns3:cad>46</ns3:cad>
          </ns3:TrackPointExtension>
        </extensions>
      </trkpt>
      <trkpt lat="43.457356654107570648193359375" lon="1.474010311067104339599609375">
        <ele>259.79998779296875</ele>
        <time>2026-08-05T07:27:17.000Z</time>
        <extensions>
          <ns3:TrackPointExtension>
            <ns3:hr>71</ns3:hr>
            <ns3:cad>46</ns3:cad>
          </ns3:TrackPointExtension>
        </extensions>
      </trkpt>
      <trkpt lat="43.4573628567159175872802734375" lon="1.47402070462703704833984375">
        <ele>259.600006103515625</ele>
        <time>2026-08-05T07:27:18.000Z</time>
        <extensions>
          <ns3:TrackPointExtension>
            <ns3:hr>72</ns3:hr>
            <ns3:cad>46</ns3:cad>
          </ns3:TrackPointExtension>
        </extensions>
      </trkpt>
      <trkpt lat="43.45736864022910594940185546875" lon="1.4740334451198577880859375">
        <ele>259.600006103515625</ele>
        <time>2026-08-05T07:27:19.000Z</time>
        <extensions>
          <ns3:TrackPointExtension>
            <ns3:hr>72</ns3:hr>
            <ns3:cad>46</ns3:cad>
          </ns3:TrackPointExtension>
        </extensions>
      </trkpt>
      <trkpt lat="43.4573698975145816802978515625" lon="1.4740460179746150970458984375">
        <ele>259.600006103515625</ele>
        <time>2026-08-05T07:27:20.000Z</time>
        <extensions>
          <ns3:TrackPointExtension>
            <ns3:hr>72</ns3:hr>
            <ns3:cad>46</ns3:cad>
          </ns3:TrackPointExtension>
        </extensions>
      </trkpt>
      <trkpt lat="43.457376100122928619384765625" lon="1.47405498661100864410400390625">
        <ele>259.600006103515625</ele>
        <time>2026-08-05T07:27:21.000Z</time>
        <extensions>
          <ns3:TrackPointExtension>
            <ns3:hr>72</ns3:hr>
            <ns3:cad>0</ns3:cad>
          </ns3:TrackPointExtension>
        </extensions>
      </trkpt>
      <trkpt lat="43.4573823027312755584716796875" lon="1.47406320087611675262451171875">
        <ele>259.600006103515625</ele>
        <time>2026-08-05T07:27:22.000Z</time>
        <extensions>
          <ns3:TrackPointExtension>
            <ns3:hr>72</ns3:hr>
            <ns3:cad>0</ns3:cad>
          </ns3:TrackPointExtension>
        </extensions>
      </trkpt>
      <trkpt lat="43.45738775096833705902099609375" lon="1.474077366292476654052734375">
        <ele>259.600006103515625</ele>
        <time>2026-08-05T07:27:23.000Z</time>
        <extensions>
          <ns3:TrackPointExtension>
            <ns3:hr>72</ns3:hr>
            <ns3:cad>0</ns3:cad>
          </ns3:TrackPointExtension>
        </extensions>
      </trkpt>
      <trkpt lat="43.4573953785002231597900390625" lon="1.47409169934689998626708984375">
        <ele>259.600006103515625</ele>
        <time>2026-08-05T07:27:24.000Z</time>
        <extensions>
          <ns3:TrackPointExtension>
            <ns3:hr>71</ns3:hr>
            <ns3:cad>47</ns3:cad>
          </ns3:TrackPointExtension>
        </extensions>
      </trkpt>
      <trkpt lat="43.45740233547985553741455078125" lon="1.4741046912968158721923828125">
        <ele>259.600006103515625</ele>
        <time>2026-08-05T07:27:25.000Z</time>
        <extensions>
          <ns3:TrackPointExtension>
            <ns3:hr>71</ns3:hr>
            <ns3:cad>47</ns3:cad>
          </ns3:TrackPointExtension>
        </extensions>
      </trkpt>
      <trkpt lat="43.45740619115531444549560546875" lon="1.47411466576159000396728515625">
        <ele>259.399993896484375</ele>
        <time>2026-08-05T07:27:26.000Z</time>
        <extensions>
          <ns3:TrackPointExtension>
            <ns3:hr>71</ns3:hr>
            <ns3:cad>47</ns3:cad>
          </ns3:TrackPointExtension>
        </extensions>
      </trkpt>
      <trkpt lat="43.4574092924594879150390625" lon="1.4741261489689350128173828125">
        <ele>259.399993896484375</ele>
        <time>2026-08-05T07:27:27.000Z</time>
        <extensions>
          <ns3:TrackPointExtension>
            <ns3:hr>71</ns3:hr>
            <ns3:cad>48</ns3:cad>
          </ns3:TrackPointExtension>
        </extensions>
      </trkpt>
      <trkpt lat="43.45741390250623226165771484375" lon="1.47413947619497776031494140625">
        <ele>259.399993896484375</ele>
        <time>2026-08-05T07:27:28.000Z</time>
        <extensions>
          <ns3:TrackPointExtension>
            <ns3:hr>71</ns3:hr>
            <ns3:cad>48</ns3:cad>
          </ns3:TrackPointExtension>
        </extensions>
      </trkpt>
      <trkpt lat="43.45741935074329376220703125" lon="1.47415305487811565399169921875">
        <ele>259.399993896484375</ele>
        <time>2026-08-05T07:27:29.000Z</time>
        <extensions>
          <ns3:TrackPointExtension>
            <ns3:hr>71</ns3:hr>
            <ns3:cad>47</ns3:cad>
          </ns3:TrackPointExtension>
        </extensions>
      </trkpt>
      <trkpt lat="43.4574232064187526702880859375" lon="1.47416361607611179351806640625">
        <ele>259.399993896484375</ele>
        <time>2026-08-05T07:27:30.000Z</time>
        <extensions>
          <ns3:TrackPointExtension>
            <ns3:hr>72</ns3:hr>
            <ns3:cad>47</ns3:cad>
          </ns3:TrackPointExtension>
        </extensions>
      </trkpt>
      <trkpt lat="43.45742949284613132476806640625" lon="1.4741756021976470947265625">
        <ele>259.399993896484375</ele>
        <time>2026-08-05T07:27:31.000Z</time>
        <extensions>
          <ns3:TrackPointExtension>
            <ns3:hr>73</ns3:hr>
            <ns3:cad>47</ns3:cad>
          </ns3:TrackPointExtension>
        </extensions>
      </trkpt>
      <trkpt lat="43.45743636600673198699951171875" lon="1.4741908572614192962646484375">
        <ele>259.399993896484375</ele>
        <time>2026-08-05T07:27:32.000Z</time>
        <extensions>
          <ns3:TrackPointExtension>
            <ns3:hr>74</ns3:hr>
            <ns3:cad>47</ns3:cad>
          </ns3:TrackPointExtension>
        </extensions>
      </trkpt>
      <trkpt lat="43.45744323916733264923095703125" lon="1.47420468740165233612060546875">
        <ele>259.399993896484375</ele>
        <time>2026-08-05T07:27:33.000Z</time>
        <extensions>
          <ns3:TrackPointExtension>
            <ns3:hr>74</ns3:hr>
            <ns3:cad>47</ns3:cad>
          </ns3:TrackPointExtension>
        </extensions>
      </trkpt>
      <trkpt lat="43.45744726248085498809814453125" lon="1.47421441040933132171630859375">
        <ele>259.399993896484375</ele>
        <time>2026-08-05T07:27:34.000Z</time>
        <extensions>
          <ns3:TrackPointExtension>
            <ns3:hr>74</ns3:hr>
            <ns3:cad>47</ns3:cad>
          </ns3:TrackPointExtension>
        </extensions>
      </trkpt>
      <trkpt lat="43.45745095051825046539306640625" lon="1.4742227084934711456298828125">
        <ele>259.20001220703125</ele>
        <time>2026-08-05T07:27:35.000Z</time>
        <extensions>
          <ns3:TrackPointExtension>
            <ns3:hr>74</ns3:hr>
            <ns3:cad>47</ns3:cad>
          </ns3:TrackPointExtension>
        </extensions>
      </trkpt>
      <trkpt lat="43.45745530910789966583251953125" lon="1.47423259913921356201171875">
        <ele>259.20001220703125</ele>
        <time>2026-08-05T07:27:36.000Z</time>
        <extensions>
          <ns3:TrackPointExtension>
            <ns3:hr>74</ns3:hr>
            <ns3:cad>46</ns3:cad>
          </ns3:TrackPointExtension>
        </extensions>
      </trkpt>
      <trkpt lat="43.457464277744293212890625" lon="1.47424374707043170928955078125">
        <ele>259.20001220703125</ele>
        <time>2026-08-05T07:27:37.000Z</time>
        <extensions>
          <ns3:TrackPointExtension>
            <ns3:hr>74</ns3:hr>
            <ns3:cad>46</ns3:cad>
          </ns3:TrackPointExtension>
        </extensions>
      </trkpt>
      <trkpt lat="43.4574711509048938751220703125" lon="1.47425766102969646453857421875">
        <ele>259.20001220703125</ele>
        <time>2026-08-05T07:27:38.000Z</time>
        <extensions>
          <ns3:TrackPointExtension>
            <ns3:hr>74</ns3:hr>
            <ns3:cad>46</ns3:cad>
          </ns3:TrackPointExtension>
        </extensions>
      </trkpt>
      <trkpt lat="43.45747676678001880645751953125" lon="1.4742696471512317657470703125">
        <ele>259.20001220703125</ele>
        <time>2026-08-05T07:27:39.000Z</time>
        <extensions>
          <ns3:TrackPointExtension>
            <ns3:hr>74</ns3:hr>
            <ns3:cad>45</ns3:cad>
          </ns3:TrackPointExtension>
        </extensions>
      </trkpt>
      <trkpt lat="43.45748280175030231475830078125" lon="1.4742813818156719207763671875">
        <ele>259</ele>
        <time>2026-08-05T07:27:40.000Z</time>
        <extensions>
          <ns3:TrackPointExtension>
            <ns3:hr>74</ns3:hr>
            <ns3:cad>45</ns3:cad>
          </ns3:TrackPointExtension>
        </extensions>
      </trkpt>
      <trkpt lat="43.45748933963477611541748046875" lon="1.47429537959396839141845703125">
        <ele>259</ele>
        <time>2026-08-05T07:27:41.000Z</time>
        <extensions>
          <ns3:TrackPointExtension>
            <ns3:hr>75</ns3:hr>
            <ns3:cad>45</ns3:cad>
          </ns3:TrackPointExtension>
        </extensions>
      </trkpt>
      <trkpt lat="43.457496799528598785400390625" lon="1.47431013174355030059814453125">
        <ele>258.79998779296875</ele>
        <time>2026-08-05T07:27:42.000Z</time>
        <extensions>
          <ns3:TrackPointExtension>
            <ns3:hr>75</ns3:hr>
            <ns3:cad>47</ns3:cad>
          </ns3:TrackPointExtension>
        </extensions>
      </trkpt>
      <trkpt lat="43.45750358887016773223876953125" lon="1.47432253696024417877197265625">
        <ele>258.79998779296875</ele>
        <time>2026-08-05T07:27:43.000Z</time>
        <extensions>
          <ns3:TrackPointExtension>
            <ns3:hr>75</ns3:hr>
            <ns3:cad>49</ns3:cad>
          </ns3:TrackPointExtension>
        </extensions>
      </trkpt>
      <trkpt lat="43.45750777982175350189208984375" lon="1.4743323437869548797607421875">
        <ele>258.79998779296875</ele>
        <time>2026-08-05T07:27:44.000Z</time>
        <extensions>
          <ns3:TrackPointExtension>
            <ns3:hr>75</ns3:hr>
            <ns3:cad>48</ns3:cad>
          </ns3:TrackPointExtension>
        </extensions>
      </trkpt>
      <trkpt lat="43.4575140662491321563720703125" lon="1.47434449754655361175537109375">
        <ele>258.79998779296875</ele>
        <time>2026-08-05T07:27:45.000Z</time>
        <extensions>
          <ns3:TrackPointExtension>
            <ns3:hr>74</ns3:hr>
            <ns3:cad>48</ns3:cad>
          </ns3:TrackPointExtension>
        </extensions>
      </trkpt>
      <trkpt lat="43.4575211070477962493896484375" lon="1.474361680448055267333984375">
        <ele>258.79998779296875</ele>
        <time>2026-08-05T07:27:46.000Z</time>
        <extensions>
          <ns3:TrackPointExtension>
            <ns3:hr>75</ns3:hr>
            <ns3:cad>47</ns3:cad>
          </ns3:TrackPointExtension>
        </extensions>
      </trkpt>
      <trkpt lat="43.45752756111323833465576171875" lon="1.47437785752117633819580078125">
        <ele>258.79998779296875</ele>
        <time>2026-08-05T07:27:47.000Z</time>
        <extensions>
          <ns3:TrackPointExtension>
            <ns3:hr>75</ns3:hr>
            <ns3:cad>47</ns3:cad>
          </ns3:TrackPointExtension>
        </extensions>
      </trkpt>
      <trkpt lat="43.45753309316933155059814453125" lon="1.474389843642711639404296875">
        <ele>258.79998779296875</ele>
        <time>2026-08-05T07:27:48.000Z</time>
        <extensions>
          <ns3:TrackPointExtension>
            <ns3:hr>75</ns3:hr>
            <ns3:cad>47</ns3:cad>
          </ns3:TrackPointExtension>
        </extensions>
      </trkpt>
      <trkpt lat="43.45753678120672702789306640625" lon="1.47440199740231037139892578125">
        <ele>259</ele>
        <time>2026-08-05T07:27:49.000Z</time>
        <extensions>
          <ns3:TrackPointExtension>
            <ns3:hr>75</ns3:hr>
            <ns3:cad>46</ns3:cad>
          </ns3:TrackPointExtension>
        </extensions>
      </trkpt>
      <trkpt lat="43.457543738186359405517578125" lon="1.47441591136157512664794921875">
        <ele>259</ele>
        <time>2026-08-05T07:27:50.000Z</time>
        <extensions>
          <ns3:TrackPointExtension>
            <ns3:hr>76</ns3:hr>
            <ns3:cad>46</ns3:cad>
          </ns3:TrackPointExtension>
        </extensions>
      </trkpt>
      <trkpt lat="43.4575516171753406524658203125" lon="1.47443066351115703582763671875">
        <ele>259</ele>
        <time>2026-08-05T07:27:51.000Z</time>
        <extensions>
          <ns3:TrackPointExtension>
            <ns3:hr>76</ns3:hr>
            <ns3:cad>48</ns3:cad>
          </ns3:TrackPointExtension>
        </extensions>
      </trkpt>
      <trkpt lat="43.4575566463172435760498046875" lon="1.4744439907371997833251953125">
        <ele>258.79998779296875</ele>
        <time>2026-08-05T07:27:52.000Z</time>
        <extensions>
          <ns3:TrackPointExtension>
            <ns3:hr>76</ns3:hr>
            <ns3:cad>48</ns3:cad>
          </ns3:TrackPointExtension>
        </extensions>
      </trkpt>
      <trkpt lat="43.457561843097209930419921875" lon="1.4744545519351959228515625">
        <ele>259</ele>
        <time>2026-08-05T07:27:53.000Z</time>
        <extensions>
          <ns3:TrackPointExtension>
            <ns3:hr>76</ns3:hr>
            <ns3:cad>48</ns3:cad>
          </ns3:TrackPointExtension>
        </extensions>
      </trkpt>
      <trkpt lat="43.4575690515339374542236328125" lon="1.47446486167609691619873046875">
        <ele>259</ele>
        <time>2026-08-05T07:27:54.000Z</time>
        <extensions>
          <ns3:TrackPointExtension>
            <ns3:hr>77</ns3:hr>
            <ns3:cad>48</ns3:cad>
          </ns3:TrackPointExtension>
        </extensions>
      </trkpt>
      <trkpt lat="43.457575924694538116455078125" lon="1.4744795300066471099853515625">
        <ele>259</ele>
        <time>2026-08-05T07:27:55.000Z</time>
        <extensions>
          <ns3:TrackPointExtension>
            <ns3:hr>77</ns3:hr>
            <ns3:cad>47</ns3:cad>
          </ns3:TrackPointExtension>
        </extensions>
      </trkpt>
      <trkpt lat="43.457583300769329071044921875" lon="1.47449386306107044219970703125">
        <ele>259.20001220703125</ele>
        <time>2026-08-05T07:27:56.000Z</time>
        <extensions>
          <ns3:TrackPointExtension>
            <ns3:hr>77</ns3:hr>
            <ns3:cad>47</ns3:cad>
          </ns3:TrackPointExtension>
        </extensions>
      </trkpt>
      <trkpt lat="43.45759109593927860260009765625" lon="1.47450660355389118194580078125">
        <ele>259.20001220703125</ele>
        <time>2026-08-05T07:27:57.000Z</time>
        <extensions>
          <ns3:TrackPointExtension>
            <ns3:hr>76</ns3:hr>
            <ns3:cad>46</ns3:cad>
          </ns3:TrackPointExtension>
        </extensions>
      </trkpt>
      <trkpt lat="43.45759595744311809539794921875" lon="1.4745175838470458984375">
        <ele>259.20001220703125</ele>
        <time>2026-08-05T07:27:58.000Z</time>
        <extensions>
          <ns3:TrackPointExtension>
            <ns3:hr>77</ns3:hr>
            <ns3:cad>46</ns3:cad>
          </ns3:TrackPointExtension>
        </extensions>
      </trkpt>
      <trkpt lat="43.45759947784245014190673828125" lon="1.47452873177826404571533203125">
        <ele>259.20001220703125</ele>
        <time>2026-08-05T07:27:59.000Z</time>
        <extensions>
          <ns3:TrackPointExtension>
            <ns3:hr>77</ns3:hr>
            <ns3:cad>47</ns3:cad>
          </ns3:TrackPointExtension>
        </extensions>
      </trkpt>
      <trkpt lat="43.45760568045079708099365234375" lon="1.47454231046140193939208984375">
        <ele>259</ele>
        <time>2026-08-05T07:28:00.000Z</time>
        <extensions>
          <ns3:TrackPointExtension>
            <ns3:hr>77</ns3:hr>
            <ns3:cad>47</ns3:cad>
          </ns3:TrackPointExtension>
        </extensions>
      </trkpt>
      <trkpt lat="43.45761205069720745086669921875" lon="1.4745564758777618408203125">
        <ele>259</ele>
        <time>2026-08-05T07:28:01.000Z</time>
        <extensions>
          <ns3:TrackPointExtension>
            <ns3:hr>76</ns3:hr>
            <ns3:cad>50</ns3:cad>
          </ns3:TrackPointExtension>
        </extensions>
      </trkpt>
      <trkpt lat="43.45761741511523723602294921875" lon="1.4745698869228363037109375">
        <ele>259</ele>
        <time>2026-08-05T07:28:02.000Z</time>
        <extensions>
          <ns3:TrackPointExtension>
            <ns3:hr>77</ns3:hr>
            <ns3:cad>50</ns3:cad>
          </ns3:TrackPointExtension>
        </extensions>
      </trkpt>
      <trkpt lat="43.457620851695537567138671875" lon="1.4745804481208324432373046875">
        <ele>259.20001220703125</ele>
        <time>2026-08-05T07:28:03.000Z</time>
        <extensions>
          <ns3:TrackPointExtension>
            <ns3:hr>77</ns3:hr>
            <ns3:cad>48</ns3:cad>
          </ns3:TrackPointExtension>
        </extensions>
      </trkpt>
      <trkpt lat="43.45762579701840877532958984375" lon="1.4745925180613994598388671875">
        <ele>259.20001220703125</ele>
        <time>2026-08-05T07:28:04.000Z</time>
        <extensions>
          <ns3:TrackPointExtension>
            <ns3:hr>77</ns3:hr>
            <ns3:cad>48</ns3:cad>
          </ns3:TrackPointExtension>
        </extensions>
      </trkpt>
      <trkpt lat="43.4576320834457874298095703125" lon="1.4746042527258396148681640625">
        <ele>259.20001220703125</ele>
        <time>2026-08-05T07:28:05.000Z</time>
        <extensions>
          <ns3:TrackPointExtension>
            <ns3:hr>77</ns3:hr>
            <ns3:cad>47</ns3:cad>
          </ns3:TrackPointExtension>
        </extensions>
      </trkpt>
      <trkpt lat="43.4576387889683246612548828125" lon="1.47461523301899433135986328125">
        <ele>259.20001220703125</ele>
        <time>2026-08-05T07:28:06.000Z</time>
        <extensions>
          <ns3:TrackPointExtension>
            <ns3:hr>77</ns3:hr>
            <ns3:cad>46</ns3:cad>
          </ns3:TrackPointExtension>
        </extensions>
      </trkpt>
      <trkpt lat="43.45764507539570331573486328125" lon="1.47462696768343448638916015625">
        <ele>259.399993896484375</ele>
        <time>2026-08-05T07:28:07.000Z</time>
        <extensions>
          <ns3:TrackPointExtension>
            <ns3:hr>77</ns3:hr>
            <ns3:cad>46</ns3:cad>
          </ns3:TrackPointExtension>
        </extensions>
      </trkpt>
      <trkpt lat="43.4576515294611454010009765625" lon="1.4746371097862720489501953125">
        <ele>259.20001220703125</ele>
        <time>2026-08-05T07:28:08.000Z</time>
        <extensions>
          <ns3:TrackPointExtension>
            <ns3:hr>77</ns3:hr>
            <ns3:cad>46</ns3:cad>
          </ns3:TrackPointExtension>
        </extensions>
      </trkpt>
      <trkpt lat="43.4576575644314289093017578125" lon="1.47464758716523647308349609375">
        <ele>259.20001220703125</ele>
        <time>2026-08-05T07:28:09.000Z</time>
        <extensions>
          <ns3:TrackPointExtension>
            <ns3:hr>77</ns3:hr>
            <ns3:cad>46</ns3:cad>
          </ns3:TrackPointExtension>
        </extensions>
      </trkpt>
      <trkpt lat="43.45766351558268070220947265625" lon="1.47465613670647144317626953125">
        <ele>259.20001220703125</ele>
        <time>2026-08-05T07:28:10.000Z</time>
        <extensions>
          <ns3:TrackPointExtension>
            <ns3:hr>78</ns3:hr>
            <ns3:cad>45</ns3:cad>
          </ns3:TrackPointExtension>
        </extensions>
      </trkpt>
      <trkpt lat="43.45766955055296421051025390625" lon="1.474664770066738128662109375">
        <ele>259.20001220703125</ele>
        <time>2026-08-05T07:28:11.000Z</time>
        <extensions>
          <ns3:TrackPointExtension>
            <ns3:hr>78</ns3:hr>
            <ns3:cad>45</ns3:cad>
          </ns3:TrackPointExtension>
        </extensions>
      </trkpt>
      <trkpt lat="43.45767684280872344970703125" lon="1.47467357106506824493408203125">
        <ele>259.399993896484375</ele>
        <time>2026-08-05T07:28:12.000Z</time>
        <extensions>
          <ns3:TrackPointExtension>
            <ns3:hr>78</ns3:hr>
            <ns3:cad>45</ns3:cad>
          </ns3:TrackPointExtension>
        </extensions>
      </trkpt>
      <trkpt lat="43.4576850570738315582275390625" lon="1.474682204425334930419921875">
        <ele>259.399993896484375</ele>
        <time>2026-08-05T07:28:13.000Z</time>
        <extensions>
          <ns3:TrackPointExtension>
            <ns3:hr>78</ns3:hr>
            <ns3:cad>46</ns3:cad>
          </ns3:TrackPointExtension>
        </extensions>
      </trkpt>
      <trkpt lat="43.45769033767282962799072265625" lon="1.47469234652817249298095703125">
        <ele>259.600006103515625</ele>
        <time>2026-08-05T07:28:14.000Z</time>
        <extensions>
          <ns3:TrackPointExtension>
            <ns3:hr>78</ns3:hr>
            <ns3:cad>46</ns3:cad>
          </ns3:TrackPointExtension>
        </extensions>
      </trkpt>
      <trkpt lat="43.45769654028117656707763671875" lon="1.47469972260296344757080078125">
        <ele>259.600006103515625</ele>
        <time>2026-08-05T07:28:15.000Z</time>
        <extensions>
          <ns3:TrackPointExtension>
            <ns3:hr>78</ns3:hr>
            <ns3:cad>46</ns3:cad>
          </ns3:TrackPointExtension>
        </extensions>
      </trkpt>
      <trkpt lat="43.457704000174999237060546875" lon="1.47470341064035892486572265625">
        <ele>259.600006103515625</ele>
        <time>2026-08-05T07:28:16.000Z</time>
        <extensions>
          <ns3:TrackPointExtension>
            <ns3:hr>79</ns3:hr>
            <ns3:cad>46</ns3:cad>
          </ns3:TrackPointExtension>
        </extensions>
      </trkpt>
      <trkpt lat="43.4577128849923610687255859375" lon="1.4747135527431964874267578125">
        <ele>259.79998779296875</ele>
        <time>2026-08-05T07:28:17.000Z</time>
        <extensions>
          <ns3:TrackPointExtension>
            <ns3:hr>79</ns3:hr>
            <ns3:cad>47</ns3:cad>
          </ns3:TrackPointExtension>
        </extensions>
      </trkpt>
      <trkpt lat="43.457724116742610931396484375" lon="1.47472210228443145751953125">
        <ele>259.79998779296875</ele>
        <time>2026-08-05T07:28:18.000Z</time>
        <extensions>
          <ns3:TrackPointExtension>
            <ns3:hr>79</ns3:hr>
            <ns3:cad>47</ns3:cad>
          </ns3:TrackPointExtension>
        </extensions>
      </trkpt>
      <trkpt lat="43.457732833921909332275390625" lon="1.4747329987585544586181640625">
        <ele>259.79998779296875</ele>
        <time>2026-08-05T07:28:19.000Z</time>
        <extensions>
          <ns3:TrackPointExtension>
            <ns3:hr>79</ns3:hr>
            <ns3:cad>47</ns3:cad>
          </ns3:TrackPointExtension>
        </extensions>
      </trkpt>
      <trkpt lat="43.457741551101207733154296875" lon="1.47474221885204315185546875">
        <ele>260</ele>
        <time>2026-08-05T07:28:20.000Z</time>
        <extensions>
          <ns3:TrackPointExtension>
            <ns3:hr>79</ns3:hr>
            <ns3:cad>46</ns3:cad>
          </ns3:TrackPointExtension>
        </extensions>
      </trkpt>
      <trkpt lat="43.45775152556598186492919921875" lon="1.47475160658359527587890625">
        <ele>260</ele>
        <time>2026-08-05T07:28:21.000Z</time>
        <extensions>
          <ns3:TrackPointExtension>
            <ns3:hr>80</ns3:hr>
            <ns3:cad>46</ns3:cad>
          </ns3:TrackPointExtension>
        </extensions>
      </trkpt>
      <trkpt lat="43.4577638469636440277099609375" lon="1.4747625030577182769775390625">
        <ele>260</ele>
        <time>2026-08-05T07:28:22.000Z</time>
        <extensions>
          <ns3:TrackPointExtension>
            <ns3:hr>80</ns3:hr>
            <ns3:cad>46</ns3:cad>
          </ns3:TrackPointExtension>
        </extensions>
      </trkpt>
      <trkpt lat="43.45777281560003757476806640625" lon="1.47477348335087299346923828125">
        <ele>260.20001220703125</ele>
        <time>2026-08-05T07:28:23.000Z</time>
        <extensions>
          <ns3:TrackPointExtension>
            <ns3:hr>80</ns3:hr>
            <ns3:cad>46</ns3:cad>
          </ns3:TrackPointExtension>
        </extensions>
      </trkpt>
      <trkpt lat="43.45778010785579681396484375" lon="1.4747829549014568328857421875">
        <ele>260.20001220703125</ele>
        <time>2026-08-05T07:28:24.000Z</time>
        <extensions>
          <ns3:TrackPointExtension>
            <ns3:hr>80</ns3:hr>
            <ns3:cad>46</ns3:cad>
          </ns3:TrackPointExtension>
        </extensions>
      </trkpt>
      <trkpt lat="43.4577869810163974761962890625" lon="1.47479007951915264129638671875">
        <ele>260.20001220703125</ele>
        <time>2026-08-05T07:28:25.000Z</time>
        <extensions>
          <ns3:TrackPointExtension>
            <ns3:hr>81</ns3:hr>
            <ns3:cad>46</ns3:cad>
          </ns3:TrackPointExtension>
        </extensions>
      </trkpt>
      <trkpt lat="43.45779662020504474639892578125" lon="1.4748017303645610809326171875">
        <ele>260.399993896484375</ele>
        <time>2026-08-05T07:28:26.000Z</time>
        <extensions>
          <ns3:TrackPointExtension>
            <ns3:hr>81</ns3:hr>
            <ns3:cad>47</ns3:cad>
          </ns3:TrackPointExtension>
        </extensions>
      </trkpt>
      <trkpt lat="43.4578062593936920166015625" lon="1.474811621010303497314453125">
        <ele>260.399993896484375</ele>
        <time>2026-08-05T07:28:27.000Z</time>
        <extensions>
          <ns3:TrackPointExtension>
            <ns3:hr>81</ns3:hr>
            <ns3:cad>48</ns3:cad>
          </ns3:TrackPointExtension>
        </extensions>
      </trkpt>
      <trkpt lat="43.4578143060207366943359375" lon="1.47482209838926792144775390625">
        <ele>260.600006103515625</ele>
        <time>2026-08-05T07:28:28.000Z</time>
        <extensions>
          <ns3:TrackPointExtension>
            <ns3:hr>81</ns3:hr>
            <ns3:cad>48</ns3:cad>
          </ns3:TrackPointExtension>
        </extensions>
      </trkpt>
      <trkpt lat="43.4578215144574642181396484375" lon="1.474831402301788330078125">
        <ele>260.600006103515625</ele>
        <time>2026-08-05T07:28:29.000Z</time>
        <extensions>
          <ns3:TrackPointExtension>
            <ns3:hr>81</ns3:hr>
            <ns3:cad>48</ns3:cad>
          </ns3:TrackPointExtension>
        </extensions>
      </trkpt>
      <trkpt lat="43.457828052341938018798828125" lon="1.4748409576714038848876953125">
        <ele>260.600006103515625</ele>
        <time>2026-08-05T07:28:30.000Z</time>
        <extensions>
          <ns3:TrackPointExtension>
            <ns3:hr>82</ns3:hr>
            <ns3:cad>47</ns3:cad>
          </ns3:TrackPointExtension>
        </extensions>
      </trkpt>
      <trkpt lat="43.4578376077115535736083984375" lon="1.47485210560262203216552734375">
        <ele>260.79998779296875</ele>
        <time>2026-08-05T07:28:31.000Z</time>
        <extensions>
          <ns3:TrackPointExtension>
            <ns3:hr>82</ns3:hr>
            <ns3:cad>47</ns3:cad>
          </ns3:TrackPointExtension>
        </extensions>
      </trkpt>
      <trkpt lat="43.4578478336334228515625" lon="1.47485931403934955596923828125">
        <ele>260.79998779296875</ele>
        <time>2026-08-05T07:28:32.000Z</time>
        <extensions>
          <ns3:TrackPointExtension>
            <ns3:hr>83</ns3:hr>
            <ns3:cad>47</ns3:cad>
          </ns3:TrackPointExtension>
        </extensions>
      </trkpt>
      <trkpt lat="43.45785462297499179840087890625" lon="1.47486786358058452606201171875">
        <ele>260.79998779296875</ele>
        <time>2026-08-05T07:28:33.000Z</time>
        <extensions>
          <ns3:TrackPointExtension>
            <ns3:hr>83</ns3:hr>
            <ns3:cad>47</ns3:cad>
          </ns3:TrackPointExtension>
        </extensions>
      </trkpt>
      <trkpt lat="43.45786166377365589141845703125" lon="1.4748801849782466888427734375">
        <ele>261</ele>
        <time>2026-08-05T07:28:34.000Z</time>
        <extensions>
          <ns3:TrackPointExtension>
            <ns3:hr>84</ns3:hr>
            <ns3:cad>47</ns3:cad>
          </ns3:TrackPointExtension>
        </extensions>
      </trkpt>
      <trkpt lat="43.45787105150520801544189453125" lon="1.47489049471914768218994140625">
        <ele>261</ele>
        <time>2026-08-05T07:28:35.000Z</time>
        <extensions>
          <ns3:TrackPointExtension>
            <ns3:hr>84</ns3:hr>
            <ns3:cad>47</ns3:cad>
          </ns3:TrackPointExtension>
        </extensions>
      </trkpt>
      <trkpt lat="43.45788027159869670867919921875" lon="1.4748969487845897674560546875">
        <ele>261.20001220703125</ele>
        <time>2026-08-05T07:28:36.000Z</time>
        <extensions>
          <ns3:TrackPointExtension>
            <ns3:hr>85</ns3:hr>
            <ns3:cad>47</ns3:cad>
          </ns3:TrackPointExtension>
        </extensions>
      </trkpt>
      <trkpt lat="43.45788379199802875518798828125" lon="1.4749016426503658294677734375">
        <ele>261.20001220703125</ele>
        <time>2026-08-05T07:28:37.000Z</time>
        <extensions>
          <ns3:TrackPointExtension>
            <ns3:hr>85</ns3:hr>
            <ns3:cad>47</ns3:cad>
          </ns3:TrackPointExtension>
        </extensions>
      </trkpt>
      <trkpt lat="43.45789066515862941741943359375" lon="1.47490843199193477630615234375">
        <ele>261.399993896484375</ele>
        <time>2026-08-05T07:28:38.000Z</time>
        <extensions>
          <ns3:TrackPointExtension>
            <ns3:hr>86</ns3:hr>
            <ns3:cad>46</ns3:cad>
          </ns3:TrackPointExtension>
        </extensions>
      </trkpt>
      <trkpt lat="43.45790156163275241851806640625" lon="1.47491681389510631561279296875">
        <ele>261.399993896484375</ele>
        <time>2026-08-05T07:28:39.000Z</time>
        <extensions>
          <ns3:TrackPointExtension>
            <ns3:hr>86</ns3:hr>
            <ns3:cad>46</ns3:cad>
          </ns3:TrackPointExtension>
        </extensions>
      </trkpt>
      <trkpt lat="43.45790860243141651153564453125" lon="1.4749231003224849700927734375">
        <ele>261.600006103515625</ele>
        <time>2026-08-05T07:28:40.000Z</time>
        <extensions>
          <ns3:TrackPointExtension>
            <ns3:hr>87</ns3:hr>
            <ns3:cad>45</ns3:cad>
          </ns3:TrackPointExtension>
        </extensions>
      </trkpt>
      <trkpt lat="43.457914553582668304443359375" lon="1.4749308116734027862548828125">
        <ele>261.600006103515625</ele>
        <time>2026-08-05T07:28:41.000Z</time>
        <extensions>
          <ns3:TrackPointExtension>
            <ns3:hr>87</ns3:hr>
            <ns3:cad>45</ns3:cad>
          </ns3:TrackPointExtension>
        </extensions>
      </trkpt>
      <trkpt lat="43.457921259105205535888671875" lon="1.47493978030979633331298828125">
        <ele>261.79998779296875</ele>
        <time>2026-08-05T07:28:42.000Z</time>
        <extensions>
          <ns3:TrackPointExtension>
            <ns3:hr>88</ns3:hr>
            <ns3:cad>44</ns3:cad>
          </ns3:TrackPointExtension>
        </extensions>
      </trkpt>
      <trkpt lat="43.457930646836757659912109375" lon="1.47495084442198276519775390625">
        <ele>261.79998779296875</ele>
        <time>2026-08-05T07:28:43.000Z</time>
        <extensions>
          <ns3:TrackPointExtension>
            <ns3:hr>88</ns3:hr>
            <ns3:cad>45</ns3:cad>
          </ns3:TrackPointExtension>
        </extensions>
      </trkpt>
      <trkpt lat="43.45793827436864376068115234375" lon="1.47496107034385204315185546875">
        <ele>262</ele>
        <time>2026-08-05T07:28:44.000Z</time>
        <extensions>
          <ns3:TrackPointExtension>
            <ns3:hr>88</ns3:hr>
            <ns3:cad>45</ns3:cad>
          </ns3:TrackPointExtension>
        </extensions>
      </trkpt>
      <trkpt lat="43.4579438902437686920166015625" lon="1.474969200789928436279296875">
        <ele>262</ele>
        <time>2026-08-05T07:28:45.000Z</time>
        <extensions>
          <ns3:TrackPointExtension>
            <ns3:hr>89</ns3:hr>
            <ns3:cad>45</ns3:cad>
          </ns3:TrackPointExtension>
        </extensions>
      </trkpt>
      <trkpt lat="43.45795084722340106964111328125" lon="1.47497699595987796783447265625">
        <ele>262.20001220703125</ele>
        <time>2026-08-05T07:28:46.000Z</time>
        <extensions>
          <ns3:TrackPointExtension>
            <ns3:hr>89</ns3:hr>
            <ns3:cad>45</ns3:cad>
          </ns3:TrackPointExtension>
        </extensions>
      </trkpt>
      <trkpt lat="43.4579596482217311859130859375" lon="1.47498319856822490692138671875">
        <ele>262.399993896484375</ele>
        <time>2026-08-05T07:28:47.000Z</time>
        <extensions>
          <ns3:TrackPointExtension>
            <ns3:hr>90</ns3:hr>
            <ns3:cad>45</ns3:cad>
          </ns3:TrackPointExtension>
        </extensions>
      </trkpt>
      <trkpt lat="43.4579690359532833099365234375" lon="1.47499174810945987701416015625">
        <ele>262.399993896484375</ele>
        <time>2026-08-05T07:28:48.000Z</time>
        <extensions>
          <ns3:TrackPointExtension>
            <ns3:hr>90</ns3:hr>
            <ns3:cad>46</ns3:cad>
          </ns3:TrackPointExtension>
        </extensions>
      </trkpt>
      <trkpt lat="43.45797456800937652587890625" lon="1.47499761544167995452880859375">
        <ele>262.600006103515625</ele>
        <time>2026-08-05T07:28:49.000Z</time>
        <extensions>
          <ns3:TrackPointExtension>
            <ns3:hr>91</ns3:hr>
            <ns3:cad>46</ns3:cad>
          </ns3:TrackPointExtension>
        </extensions>
      </trkpt>
      <trkpt lat="43.45798068679869174957275390625" lon="1.4750049076974391937255859375">
        <ele>262.600006103515625</ele>
        <time>2026-08-05T07:28:50.000Z</time>
        <extensions>
          <ns3:TrackPointExtension>
            <ns3:hr>91</ns3:hr>
            <ns3:cad>46</ns3:cad>
          </ns3:TrackPointExtension>
        </extensions>
      </trkpt>
      <trkpt lat="43.4579868055880069732666015625" lon="1.47501437924802303314208984375">
        <ele>262.79998779296875</ele>
        <time>2026-08-05T07:28:51.000Z</time>
        <extensions>
          <ns3:TrackPointExtension>
            <ns3:hr>92</ns3:hr>
            <ns3:cad>46</ns3:cad>
          </ns3:TrackPointExtension>
        </extensions>
      </trkpt>
      <trkpt lat="43.45799468457698822021484375" lon="1.4750220067799091339111328125">
        <ele>262.79998779296875</ele>
        <time>2026-08-05T07:28:52.000Z</time>
        <extensions>
          <ns3:TrackPointExtension>
            <ns3:hr>92</ns3:hr>
            <ns3:cad>46</ns3:cad>
          </ns3:TrackPointExtension>
        </extensions>
      </trkpt>
      <trkpt lat="43.45800331793725490570068359375" lon="1.47503181360661983489990234375">
        <ele>263</ele>
        <time>2026-08-05T07:28:53.000Z</time>
        <extensions>
          <ns3:TrackPointExtension>
            <ns3:hr>93</ns3:hr>
            <ns3:cad>46</ns3:cad>
          </ns3:TrackPointExtension>
        </extensions>
      </trkpt>
      <trkpt lat="43.458007760345935821533203125" lon="1.47504237480461597442626953125">
        <ele>263</ele>
        <time>2026-08-05T07:28:54.000Z</time>
        <extensions>
          <ns3:TrackPointExtension>
            <ns3:hr>93</ns3:hr>
            <ns3:cad>45</ns3:cad>
          </ns3:TrackPointExtension>
        </extensions>
      </trkpt>
      <trkpt lat="43.45801748335361480712890625" lon="1.47505410946905612945556640625">
        <ele>263.20001220703125</ele>
        <time>2026-08-05T07:28:55.000Z</time>
        <extensions>
          <ns3:TrackPointExtension>
            <ns3:hr>93</ns3:hr>
            <ns3:cad>44</ns3:cad>
          </ns3:TrackPointExtension>
        </extensions>
      </trkpt>
      <trkpt lat="43.458024524152278900146484375" lon="1.47506006062030792236328125">
        <ele>263.399993896484375</ele>
        <time>2026-08-05T07:28:56.000Z</time>
        <extensions>
          <ns3:TrackPointExtension>
            <ns3:hr>92</ns3:hr>
            <ns3:cad>43</ns3:cad>
          </ns3:TrackPointExtension>
        </extensions>
      </trkpt>
      <trkpt lat="43.4580324031412601470947265625" lon="1.47506416775286197662353515625">
        <ele>263.399993896484375</ele>
        <time>2026-08-05T07:28:57.000Z</time>
        <extensions>
          <ns3:TrackPointExtension>
            <ns3:hr>92</ns3:hr>
            <ns3:cad>43</ns3:cad>
          </ns3:TrackPointExtension>
        </extensions>
      </trkpt>
      <trkpt lat="43.45803449861705303192138671875" lon="1.4750766567885875701904296875">
        <ele>263.600006103515625</ele>
        <time>2026-08-05T07:28:58.000Z</time>
        <extensions>
          <ns3:TrackPointExtension>
            <ns3:hr>92</ns3:hr>
            <ns3:cad>43</ns3:cad>
          </ns3:TrackPointExtension>
        </extensions>
      </trkpt>
      <trkpt lat="43.45804254524409770965576171875" lon="1.475083529949188232421875">
        <ele>263.600006103515625</ele>
        <time>2026-08-05T07:28:59.000Z</time>
        <extensions>
          <ns3:TrackPointExtension>
            <ns3:hr>92</ns3:hr>
            <ns3:cad>43</ns3:cad>
          </ns3:TrackPointExtension>
        </extensions>
      </trkpt>
      <trkpt lat="43.458049334585666656494140625" lon="1.47508830763399600982666015625">
        <ele>263.79998779296875</ele>
        <time>2026-08-05T07:29:00.000Z</time>
        <extensions>
          <ns3:TrackPointExtension>
            <ns3:hr>92</ns3:hr>
            <ns3:cad>43</ns3:cad>
          </ns3:TrackPointExtension>
        </extensions>
      </trkpt>
      <trkpt lat="43.4580568782985210418701171875" lon="1.47509719245135784149169921875">
        <ele>263.79998779296875</ele>
        <time>2026-08-05T07:29:01.000Z</time>
        <extensions>
          <ns3:TrackPointExtension>
            <ns3:hr>93</ns3:hr>
            <ns3:cad>44</ns3:cad>
          </ns3:TrackPointExtension>
        </extensions>
      </trkpt>
      <trkpt lat="43.4580716304481029510498046875" lon="1.47510574199259281158447265625">
        <ele>263.79998779296875</ele>
        <time>2026-08-05T07:29:02.000Z</time>
        <extensions>
          <ns3:TrackPointExtension>
            <ns3:hr>93</ns3:hr>
            <ns3:cad>44</ns3:cad>
          </ns3:TrackPointExtension>
        </extensions>
      </trkpt>
      <trkpt lat="43.458081521093845367431640625" lon="1.4751132018864154815673828125">
        <ele>264</ele>
        <time>2026-08-05T07:29:03.000Z</time>
        <extensions>
          <ns3:TrackPointExtension>
            <ns3:hr>93</ns3:hr>
            <ns3:cad>44</ns3:cad>
          </ns3:TrackPointExtension>
        </extensions>
      </trkpt>
      <trkpt lat="43.4580880589783191680908203125" lon="1.47511814720928668975830078125">
        <ele>264</ele>
        <time>2026-08-05T07:29:04.000Z</time>
        <extensions>
          <ns3:TrackPointExtension>
            <ns3:hr>93</ns3:hr>
            <ns3:cad>44</ns3:cad>
          </ns3:TrackPointExtension>
        </extensions>
      </trkpt>
      <trkpt lat="43.45809652470052242279052734375" lon="1.47512585856020450592041015625">
        <ele>264.20001220703125</ele>
        <time>2026-08-05T07:29:05.000Z</time>
        <extensions>
          <ns3:TrackPointExtension>
            <ns3:hr>93</ns3:hr>
            <ns3:cad>46</ns3:cad>
          </ns3:TrackPointExtension>
        </extensions>
      </trkpt>
      <trkpt lat="43.4581044875085353851318359375" lon="1.47513826377689838409423828125">
        <ele>264.20001220703125</ele>
        <time>2026-08-05T07:29:06.000Z</time>
        <extensions>
          <ns3:TrackPointExtension>
            <ns3:hr>94</ns3:hr>
            <ns3:cad>47</ns3:cad>
          </ns3:TrackPointExtension>
        </extensions>
      </trkpt>
      <trkpt lat="43.458111025393009185791015625" lon="1.4751457236707210540771484375">
        <ele>264.399993896484375</ele>
        <time>2026-08-05T07:29:07.000Z</time>
        <extensions>
          <ns3:TrackPointExtension>
            <ns3:hr>94</ns3:hr>
            <ns3:cad>47</ns3:cad>
          </ns3:TrackPointExtension>
        </extensions>
      </trkpt>
      <trkpt lat="43.45812074840068817138671875" lon="1.4751527644693851470947265625">
        <ele>264.600006103515625</ele>
        <time>2026-08-05T07:29:08.000Z</time>
        <extensions>
          <ns3:TrackPointExtension>
            <ns3:hr>94</ns3:hr>
            <ns3:cad>47</ns3:cad>
          </ns3:TrackPointExtension>
        </extensions>
      </trkpt>
      <trkpt lat="43.45812569372355937957763671875" lon="1.4751611463725566864013671875">
        <ele>264.79998779296875</ele>
        <time>2026-08-05T07:29:09.000Z</time>
        <extensions>
          <ns3:TrackPointExtension>
            <ns3:hr>95</ns3:hr>
            <ns3:cad>47</ns3:cad>
          </ns3:TrackPointExtension>
        </extensions>
      </trkpt>
      <trkpt lat="43.458132483065128326416015625" lon="1.47516877390444278717041015625">
        <ele>264.79998779296875</ele>
        <time>2026-08-05T07:29:10.000Z</time>
        <extensions>
          <ns3:TrackPointExtension>
            <ns3:hr>95</ns3:hr>
            <ns3:cad>47</ns3:cad>
          </ns3:TrackPointExtension>
        </extensions>
      </trkpt>
      <trkpt lat="43.4581390209496021270751953125" lon="1.4751789160072803497314453125">
        <ele>265</ele>
        <time>2026-08-05T07:29:11.000Z</time>
        <extensions>
          <ns3:TrackPointExtension>
            <ns3:hr>95</ns3:hr>
            <ns3:cad>47</ns3:cad>
          </ns3:TrackPointExtension>
        </extensions>
      </trkpt>
      <trkpt lat="43.45814966596662998199462890625" lon="1.47518838755786418914794921875">
        <ele>265</ele>
        <time>2026-08-05T07:29:12.000Z</time>
        <extensions>
          <ns3:TrackPointExtension>
            <ns3:hr>96</ns3:hr>
            <ns3:cad>46</ns3:cad>
          </ns3:TrackPointExtension>
        </extensions>
      </trkpt>
      <trkpt lat="43.45815620385110378265380859375" lon="1.4751993678510189056396484375">
        <ele>265</ele>
        <time>2026-08-05T07:29:13.000Z</time>
        <extensions>
          <ns3:TrackPointExtension>
            <ns3:hr>96</ns3:hr>
            <ns3:cad>45</ns3:cad>
          </ns3:TrackPointExtension>
        </extensions>
      </trkpt>
      <trkpt lat="43.45816366374492645263671875" lon="1.4752100966870784759521484375">
        <ele>265.20001220703125</ele>
        <time>2026-08-05T07:29:14.000Z</time>
        <extensions>
          <ns3:TrackPointExtension>
            <ns3:hr>96</ns3:hr>
            <ns3:cad>45</ns3:cad>
          </ns3:TrackPointExtension>
        </extensions>
      </trkpt>
      <trkpt lat="43.4581748954951763153076171875" lon="1.47521923296153545379638671875">
        <ele>265.20001220703125</ele>
        <time>2026-08-05T07:29:15.000Z</time>
        <extensions>
          <ns3:TrackPointExtension>
            <ns3:hr>97</ns3:hr>
            <ns3:cad>45</ns3:cad>
          </ns3:TrackPointExtension>
        </extensions>
      </trkpt>
      <trkpt lat="43.45818587578833103179931640625" lon="1.47522996179759502410888671875">
        <ele>265.20001220703125</ele>
        <time>2026-08-05T07:29:16.000Z</time>
        <extensions>
          <ns3:TrackPointExtension>
            <ns3:hr>97</ns3:hr>
            <ns3:cad>46</ns3:cad>
          </ns3:TrackPointExtension>
        </extensions>
      </trkpt>
      <trkpt lat="43.45819526351988315582275390625" lon="1.47523851133882999420166015625">
        <ele>265.399993896484375</ele>
        <time>2026-08-05T07:29:17.000Z</time>
        <extensions>
          <ns3:TrackPointExtension>
            <ns3:hr>97</ns3:hr>
            <ns3:cad>48</ns3:cad>
          </ns3:TrackPointExtension>
        </extensions>
      </trkpt>
      <trkpt lat="43.458201549947261810302734375" lon="1.4752493239939212799072265625">
        <ele>265.600006103515625</ele>
        <time>2026-08-05T07:29:18.000Z</time>
        <extensions>
          <ns3:TrackPointExtension>
            <ns3:hr>98</ns3:hr>
            <ns3:cad>48</ns3:cad>
          </ns3:TrackPointExtension>
        </extensions>
      </trkpt>
      <trkpt lat="43.458208926022052764892578125" lon="1.4752543531358242034912109375">
        <ele>265.79998779296875</ele>
        <time>2026-08-05T07:29:19.000Z</time>
        <extensions>
          <ns3:TrackPointExtension>
            <ns3:hr>98</ns3:hr>
            <ns3:cad>48</ns3:cad>
          </ns3:TrackPointExtension>
        </extensions>
      </trkpt>
      <trkpt lat="43.4582188166677951812744140625" lon="1.47526265121996402740478515625">
        <ele>266</ele>
        <time>2026-08-05T07:29:20.000Z</time>
        <extensions>
          <ns3:TrackPointExtension>
            <ns3:hr>98</ns3:hr>
            <ns3:cad>48</ns3:cad>
          </ns3:TrackPointExtension>
        </extensions>
      </trkpt>
      <trkpt lat="43.45822627656161785125732421875" lon="1.475269608199596405029296875">
        <ele>266</ele>
        <time>2026-08-05T07:29:21.000Z</time>
        <extensions>
          <ns3:TrackPointExtension>
            <ns3:hr>98</ns3:hr>
            <ns3:cad>47</ns3:cad>
          </ns3:TrackPointExtension>
        </extensions>
      </trkpt>
      <trkpt lat="43.4582327306270599365234375" lon="1.47527807392179965972900390625">
        <ele>266.20001220703125</ele>
        <time>2026-08-05T07:29:22.000Z</time>
        <extensions>
          <ns3:TrackPointExtension>
            <ns3:hr>99</ns3:hr>
            <ns3:cad>47</ns3:cad>
          </ns3:TrackPointExtension>
        </extensions>
      </trkpt>
      <trkpt lat="43.45823943614959716796875" lon="1.47528595291078090667724609375">
        <ele>266.20001220703125</ele>
        <time>2026-08-05T07:29:23.000Z</time>
        <extensions>
          <ns3:TrackPointExtension>
            <ns3:hr>99</ns3:hr>
            <ns3:cad>47</ns3:cad>
          </ns3:TrackPointExtension>
        </extensions>
      </trkpt>
      <trkpt lat="43.45824605785310268402099609375" lon="1.4752972684800624847412109375">
        <ele>266.399993896484375</ele>
        <time>2026-08-05T07:29:24.000Z</time>
        <extensions>
          <ns3:TrackPointExtension>
            <ns3:hr>100</ns3:hr>
            <ns3:cad>46</ns3:cad>
          </ns3:TrackPointExtension>
        </extensions>
      </trkpt>
      <trkpt lat="43.45825511030852794647216796875" lon="1.47530548274517059326171875">
        <ele>266.600006103515625</ele>
        <time>2026-08-05T07:29:25.000Z</time>
        <extensions>
          <ns3:TrackPointExtension>
            <ns3:hr>100</ns3:hr>
            <ns3:cad>46</ns3:cad>
          </ns3:TrackPointExtension>
        </extensions>
      </trkpt>
      <trkpt lat="43.4582630731165409088134765625" lon="1.4753140322864055633544921875">
        <ele>266.600006103515625</ele>
        <time>2026-08-05T07:29:26.000Z</time>
        <extensions>
          <ns3:TrackPointExtension>
            <ns3:hr>101</ns3:hr>
            <ns3:cad>46</ns3:cad>
          </ns3:TrackPointExtension>
        </extensions>
      </trkpt>
      <trkpt lat="43.45827187411487102508544921875" lon="1.475319899618625640869140625">
        <ele>266.79998779296875</ele>
        <time>2026-08-05T07:29:27.000Z</time>
        <extensions>
          <ns3:TrackPointExtension>
            <ns3:hr>101</ns3:hr>
            <ns3:cad>46</ns3:cad>
          </ns3:TrackPointExtension>
        </extensions>
      </trkpt>
      <trkpt lat="43.45828235149383544921875" lon="1.47532870061695575714111328125">
        <ele>267</ele>
        <time>2026-08-05T07:29:28.000Z</time>
        <extensions>
          <ns3:TrackPointExtension>
            <ns3:hr>102</ns3:hr>
            <ns3:cad>47</ns3:cad>
          </ns3:TrackPointExtension>
        </extensions>
      </trkpt>
      <trkpt lat="43.45829316414892673492431640625" lon="1.47533901035785675048828125">
        <ele>267</ele>
        <time>2026-08-05T07:29:29.000Z</time>
        <extensions>
          <ns3:TrackPointExtension>
            <ns3:hr>102</ns3:hr>
            <ns3:cad>47</ns3:cad>
          </ns3:TrackPointExtension>
        </extensions>
      </trkpt>
      <trkpt lat="43.4583009593188762664794921875" lon="1.47534579969942569732666015625">
        <ele>267.20001220703125</ele>
        <time>2026-08-05T07:29:30.000Z</time>
        <extensions>
          <ns3:TrackPointExtension>
            <ns3:hr>103</ns3:hr>
            <ns3:cad>47</ns3:cad>
          </ns3:TrackPointExtension>
        </extensions>
      </trkpt>
      <trkpt lat="43.4583063237369060516357421875" lon="1.47535149939358234405517578125">
        <ele>267.20001220703125</ele>
        <time>2026-08-05T07:29:31.000Z</time>
        <extensions>
          <ns3:TrackPointExtension>
            <ns3:hr>103</ns3:hr>
            <ns3:cad>47</ns3:cad>
          </ns3:TrackPointExtension>
        </extensions>
      </trkpt>
      <trkpt lat="43.45831428654491901397705078125" lon="1.47536038421094417572021484375">
        <ele>267.20001220703125</ele>
        <time>2026-08-05T07:29:32.000Z</time>
        <extensions>
          <ns3:TrackPointExtension>
            <ns3:hr>104</ns3:hr>
            <ns3:cad>47</ns3:cad>
          </ns3:TrackPointExtension>
        </extensions>
      </trkpt>
      <trkpt lat="43.4583230875432491302490234375" lon="1.475365497171878814697265625">
        <ele>267.399993896484375</ele>
        <time>2026-08-05T07:29:33.000Z</time>
        <extensions>
          <ns3:TrackPointExtension>
            <ns3:hr>104</ns3:hr>
            <ns3:cad>46</ns3:cad>
          </ns3:TrackPointExtension>
        </extensions>
      </trkpt>
      <trkpt lat="43.458330295979976654052734375" lon="1.47537128068506717681884765625">
        <ele>267.399993896484375</ele>
        <time>2026-08-05T07:29:34.000Z</time>
        <extensions>
          <ns3:TrackPointExtension>
            <ns3:hr>104</ns3:hr>
            <ns3:cad>46</ns3:cad>
          </ns3:TrackPointExtension>
        </extensions>
      </trkpt>
      <trkpt lat="43.458334989845752716064453125" lon="1.4753827638924121856689453125">
        <ele>267.600006103515625</ele>
        <time>2026-08-05T07:29:35.000Z</time>
        <extensions>
          <ns3:TrackPointExtension>
            <ns3:hr>105</ns3:hr>
            <ns3:cad>46</ns3:cad>
          </ns3:TrackPointExtension>
        </extensions>
      </trkpt>
      <trkpt lat="43.4583432041108608245849609375" lon="1.475392319262027740478515625">
        <ele>267.79998779296875</ele>
        <time>2026-08-05T07:29:36.000Z</time>
        <extensions>
          <ns3:TrackPointExtension>
            <ns3:hr>105</ns3:hr>
            <ns3:cad>45</ns3:cad>
          </ns3:TrackPointExtension>
        </extensions>
      </trkpt>
      <trkpt lat="43.45835267566144466400146484375" lon="1.47539525292813777923583984375">
        <ele>268</ele>
        <time>2026-08-05T07:29:37.000Z</time>
        <extensions>
          <ns3:TrackPointExtension>
            <ns3:hr>105</ns3:hr>
            <ns3:cad>45</ns3:cad>
          </ns3:TrackPointExtension>
        </extensions>
      </trkpt>
      <trkpt lat="43.4583653323352336883544921875" lon="1.47540179081261157989501953125">
        <ele>268.20001220703125</ele>
        <time>2026-08-05T07:29:38.000Z</time>
        <extensions>
          <ns3:TrackPointExtension>
            <ns3:hr>105</ns3:hr>
            <ns3:cad>45</ns3:cad>
          </ns3:TrackPointExtension>
        </extensions>
      </trkpt>
      <trkpt lat="43.458373546600341796875" lon="1.47540950216352939605712890625">
        <ele>268.600006103515625</ele>
        <time>2026-08-05T07:29:39.000Z</time>
        <extensions>
          <ns3:TrackPointExtension>
            <ns3:hr>105</ns3:hr>
            <ns3:cad>46</ns3:cad>
          </ns3:TrackPointExtension>
        </extensions>
      </trkpt>
      <trkpt lat="43.458382599055767059326171875" lon="1.47541754879057407379150390625">
        <ele>268.79998779296875</ele>
        <time>2026-08-05T07:29:40.000Z</time>
        <extensions>
          <ns3:TrackPointExtension>
            <ns3:hr>106</ns3:hr>
            <ns3:cad>46</ns3:cad>
          </ns3:TrackPointExtension>
        </extensions>
      </trkpt>
      <trkpt lat="43.45839072950184345245361328125" lon="1.47542257793247699737548828125">
        <ele>268.79998779296875</ele>
        <time>2026-08-05T07:29:41.000Z</time>
        <extensions>
          <ns3:TrackPointExtension>
            <ns3:hr>106</ns3:hr>
            <ns3:cad>46</ns3:cad>
          </ns3:TrackPointExtension>
        </extensions>
      </trkpt>
      <trkpt lat="43.45839978195726871490478515625" lon="1.47542810998857021331787109375">
        <ele>268.79998779296875</ele>
        <time>2026-08-05T07:29:42.000Z</time>
        <extensions>
          <ns3:TrackPointExtension>
            <ns3:hr>106</ns3:hr>
            <ns3:cad>47</ns3:cad>
          </ns3:TrackPointExtension>
        </extensions>
      </trkpt>
      <trkpt lat="43.45840883441269397735595703125" lon="1.47543498314917087554931640625">
        <ele>269</ele>
        <time>2026-08-05T07:29:43.000Z</time>
        <extensions>
          <ns3:TrackPointExtension>
            <ns3:hr>106</ns3:hr>
            <ns3:cad>47</ns3:cad>
          </ns3:TrackPointExtension>
        </extensions>
      </trkpt>
      <trkpt lat="43.45841922797262668609619140625" lon="1.47544085048139095306396484375">
        <ele>268.79998779296875</ele>
        <time>2026-08-05T07:29:44.000Z</time>
        <extensions>
          <ns3:TrackPointExtension>
            <ns3:hr>106</ns3:hr>
            <ns3:cad>47</ns3:cad>
          </ns3:TrackPointExtension>
        </extensions>
      </trkpt>
      <trkpt lat="43.45842626877129077911376953125" lon="1.475448645651340484619140625">
        <ele>269</ele>
        <time>2026-08-05T07:29:45.000Z</time>
        <extensions>
          <ns3:TrackPointExtension>
            <ns3:hr>106</ns3:hr>
            <ns3:cad>46</ns3:cad>
          </ns3:TrackPointExtension>
        </extensions>
      </trkpt>
      <trkpt lat="43.4584347344934940338134765625" lon="1.47545644082129001617431640625">
        <ele>269</ele>
        <time>2026-08-05T07:29:46.000Z</time>
        <extensions>
          <ns3:TrackPointExtension>
            <ns3:hr>107</ns3:hr>
            <ns3:cad>46</ns3:cad>
          </ns3:TrackPointExtension>
        </extensions>
      </trkpt>
      <trkpt lat="43.45844353549182415008544921875" lon="1.4754659123718738555908203125">
        <ele>269.20001220703125</ele>
        <time>2026-08-05T07:29:47.000Z</time>
        <extensions>
          <ns3:TrackPointExtension>
            <ns3:hr>107</ns3:hr>
            <ns3:cad>47</ns3:cad>
          </ns3:TrackPointExtension>
        </extensions>
      </trkpt>
      <trkpt lat="43.45845174975693225860595703125" lon="1.47547312080860137939453125">
        <ele>269.399993896484375</ele>
        <time>2026-08-05T07:29:48.000Z</time>
        <extensions>
          <ns3:TrackPointExtension>
            <ns3:hr>107</ns3:hr>
            <ns3:cad>47</ns3:cad>
          </ns3:TrackPointExtension>
        </extensions>
      </trkpt>
      <trkpt lat="43.45846164040267467498779296875" lon="1.47548250854015350341796875">
        <ele>269.600006103515625</ele>
        <time>2026-08-05T07:29:49.000Z</time>
        <extensions>
          <ns3:TrackPointExtension>
            <ns3:hr>107</ns3:hr>
            <ns3:cad>46</ns3:cad>
          </ns3:TrackPointExtension>
        </extensions>
      </trkpt>
      <trkpt lat="43.45847069285809993743896484375" lon="1.47549047134816646575927734375">
        <ele>269.79998779296875</ele>
        <time>2026-08-05T07:29:50.000Z</time>
        <extensions>
          <ns3:TrackPointExtension>
            <ns3:hr>107</ns3:hr>
            <ns3:cad>44</ns3:cad>
          </ns3:TrackPointExtension>
        </extensions>
      </trkpt>
      <trkpt lat="43.45847572200000286102294921875" lon="1.475496254861354827880859375">
        <ele>270</ele>
        <time>2026-08-05T07:29:51.000Z</time>
        <extensions>
          <ns3:TrackPointExtension>
            <ns3:hr>107</ns3:hr>
            <ns3:cad>45</ns3:cad>
          </ns3:TrackPointExtension>
        </extensions>
      </trkpt>
      <trkpt lat="43.45848008058965206146240234375" lon="1.47550136782228946685791015625">
        <ele>270.20001220703125</ele>
        <time>2026-08-05T07:29:52.000Z</time>
        <extensions>
          <ns3:TrackPointExtension>
            <ns3:hr>107</ns3:hr>
            <ns3:cad>45</ns3:cad>
          </ns3:TrackPointExtension>
        </extensions>
      </trkpt>
      <trkpt lat="43.458488881587982177734375" lon="1.47550974972546100616455078125">
        <ele>270.399993896484375</ele>
        <time>2026-08-05T07:29:53.000Z</time>
        <extensions>
          <ns3:TrackPointExtension>
            <ns3:hr>107</ns3:hr>
            <ns3:cad>45</ns3:cad>
          </ns3:TrackPointExtension>
        </extensions>
      </trkpt>
      <trkpt lat="43.4584977664053440093994140625" lon="1.47551813162863254547119140625">
        <ele>270.600006103515625</ele>
        <time>2026-08-05T07:29:54.000Z</time>
        <extensions>
          <ns3:TrackPointExtension>
            <ns3:hr>108</ns3:hr>
            <ns3:cad>46</ns3:cad>
          </ns3:TrackPointExtension>
        </extensions>
      </trkpt>
      <trkpt lat="43.45850564539432525634765625" lon="1.475528441369533538818359375">
        <ele>270.79998779296875</ele>
        <time>2026-08-05T07:29:55.000Z</time>
        <extensions>
          <ns3:TrackPointExtension>
            <ns3:hr>108</ns3:hr>
            <ns3:cad>46</ns3:cad>
          </ns3:TrackPointExtension>
        </extensions>
      </trkpt>
      <trkpt lat="43.45851092599332332611083984375" lon="1.4755333028733730316162109375">
        <ele>271</ele>
        <time>2026-08-05T07:29:56.000Z</time>
        <extensions>
          <ns3:TrackPointExtension>
            <ns3:hr>108</ns3:hr>
            <ns3:cad>45</ns3:cad>
          </ns3:TrackPointExtension>
        </extensions>
      </trkpt>
      <trkpt lat="43.45851997844874858856201171875" lon="1.47554260678589344024658203125">
        <ele>271.20001220703125</ele>
        <time>2026-08-05T07:29:57.000Z</time>
        <extensions>
          <ns3:TrackPointExtension>
            <ns3:hr>108</ns3:hr>
            <ns3:cad>44</ns3:cad>
          </ns3:TrackPointExtension>
        </extensions>
      </trkpt>
      <trkpt lat="43.45852886326611042022705078125" lon="1.4755493961274623870849609375">
        <ele>271.20001220703125</ele>
        <time>2026-08-05T07:29:58.000Z</time>
        <extensions>
          <ns3:TrackPointExtension>
            <ns3:hr>108</ns3:hr>
            <ns3:cad>45</ns3:cad>
          </ns3:TrackPointExtension>
        </extensions>
      </trkpt>
      <trkpt lat="43.458537161350250244140625" lon="1.4755569398403167724609375">
        <ele>271.399993896484375</ele>
        <time>2026-08-05T07:29:59.000Z</time>
        <extensions>
          <ns3:TrackPointExtension>
            <ns3:hr>107</ns3:hr>
            <ns3:cad>45</ns3:cad>
          </ns3:TrackPointExtension>
        </extensions>
      </trkpt>
      <trkpt lat="43.45854462124407291412353515625" lon="1.47556473501026630401611328125">
        <ele>271.399993896484375</ele>
        <time>2026-08-05T07:30:00.000Z</time>
        <extensions>
          <ns3:TrackPointExtension>
            <ns3:hr>108</ns3:hr>
            <ns3:cad>46</ns3:cad>
          </ns3:TrackPointExtension>
        </extensions>
      </trkpt>
      <trkpt lat="43.45855266787111759185791015625" lon="1.4755691774189472198486328125">
        <ele>271.399993896484375</ele>
        <time>2026-08-05T07:30:01.000Z</time>
        <extensions>
          <ns3:TrackPointExtension>
            <ns3:hr>108</ns3:hr>
            <ns3:cad>46</ns3:cad>
          </ns3:TrackPointExtension>
        </extensions>
      </trkpt>
      <trkpt lat="43.45856188796460628509521484375" lon="1.47557663731276988983154296875">
        <ele>271.600006103515625</ele>
        <time>2026-08-05T07:30:02.000Z</time>
        <extensions>
          <ns3:TrackPointExtension>
            <ns3:hr>108</ns3:hr>
            <ns3:cad>47</ns3:cad>
          </ns3:TrackPointExtension>
        </extensions>
      </trkpt>
      <trkpt lat="43.45856876112520694732666015625" lon="1.47558351047337055206298828125">
        <ele>271.79998779296875</ele>
        <time>2026-08-05T07:30:03.000Z</time>
        <extensions>
          <ns3:TrackPointExtension>
            <ns3:hr>108</ns3:hr>
            <ns3:cad>47</ns3:cad>
          </ns3:TrackPointExtension>
        </extensions>
      </trkpt>
      <trkpt lat="43.45857513137161731719970703125" lon="1.47559004835784435272216796875">
        <ele>272</ele>
        <time>2026-08-05T07:30:04.000Z</time>
        <extensions>
          <ns3:TrackPointExtension>
            <ns3:hr>108</ns3:hr>
            <ns3:cad>46</ns3:cad>
          </ns3:TrackPointExtension>
        </extensions>
      </trkpt>
      <trkpt lat="43.45858384855091571807861328125" lon="1.47559792734682559967041015625">
        <ele>272</ele>
        <time>2026-08-05T07:30:05.000Z</time>
        <extensions>
          <ns3:TrackPointExtension>
            <ns3:hr>109</ns3:hr>
            <ns3:cad>46</ns3:cad>
          </ns3:TrackPointExtension>
        </extensions>
      </trkpt>
      <trkpt lat="43.45859348773956298828125" lon="1.4756057225167751312255859375">
        <ele>272</ele>
        <time>2026-08-05T07:30:06.000Z</time>
        <extensions>
          <ns3:TrackPointExtension>
            <ns3:hr>109</ns3:hr>
            <ns3:cad>46</ns3:cad>
          </ns3:TrackPointExtension>
        </extensions>
      </trkpt>
      <trkpt lat="43.45860094763338565826416015625" lon="1.47561469115316867828369140625">
        <ele>272.20001220703125</ele>
        <time>2026-08-05T07:30:07.000Z</time>
        <extensions>
          <ns3:TrackPointExtension>
            <ns3:hr>109</ns3:hr>
            <ns3:cad>45</ns3:cad>
          </ns3:TrackPointExtension>
        </extensions>
      </trkpt>
      <trkpt lat="43.4586055576801300048828125" lon="1.475622653961181640625">
        <ele>272.20001220703125</ele>
        <time>2026-08-05T07:30:08.000Z</time>
        <extensions>
          <ns3:TrackPointExtension>
            <ns3:hr>110</ns3:hr>
            <ns3:cad>45</ns3:cad>
          </ns3:TrackPointExtension>
        </extensions>
      </trkpt>
      <trkpt lat="43.45861402340233325958251953125" lon="1.47563246078789234161376953125">
        <ele>272.399993896484375</ele>
        <time>2026-08-05T07:30:09.000Z</time>
        <extensions>
          <ns3:TrackPointExtension>
            <ns3:hr>110</ns3:hr>
            <ns3:cad>44</ns3:cad>
          </ns3:TrackPointExtension>
        </extensions>
      </trkpt>
      <trkpt lat="43.45862123183906078338623046875" lon="1.47564067505300045013427734375">
        <ele>272.600006103515625</ele>
        <time>2026-08-05T07:30:10.000Z</time>
        <extensions>
          <ns3:TrackPointExtension>
            <ns3:hr>112</ns3:hr>
            <ns3:cad>44</ns3:cad>
          </ns3:TrackPointExtension>
        </extensions>
      </trkpt>
      <trkpt lat="43.4586285240948200225830078125" lon="1.4756496436893939971923828125">
        <ele>272.600006103515625</ele>
        <time>2026-08-05T07:30:11.000Z</time>
        <extensions>
          <ns3:TrackPointExtension>
            <ns3:hr>112</ns3:hr>
            <ns3:cad>44</ns3:cad>
          </ns3:TrackPointExtension>
        </extensions>
      </trkpt>
      <trkpt lat="43.45863648690283298492431640625" lon="1.47565609775483608245849609375">
        <ele>272.79998779296875</ele>
        <time>2026-08-05T07:30:12.000Z</time>
        <extensions>
          <ns3:TrackPointExtension>
            <ns3:hr>113</ns3:hr>
            <ns3:cad>44</ns3:cad>
          </ns3:TrackPointExtension>
        </extensions>
      </trkpt>
      <trkpt lat="43.45864671282470226287841796875" lon="1.47566464729607105255126953125">
        <ele>273</ele>
        <time>2026-08-05T07:30:13.000Z</time>
        <extensions>
          <ns3:TrackPointExtension>
            <ns3:hr>113</ns3:hr>
            <ns3:cad>43</ns3:cad>
          </ns3:TrackPointExtension>
        </extensions>
      </trkpt>
      <trkpt lat="43.458654843270778656005859375" lon="1.47567235864698886871337890625">
        <ele>273</ele>
        <time>2026-08-05T07:30:14.000Z</time>
        <extensions>
          <ns3:TrackPointExtension>
            <ns3:hr>113</ns3:hr>
            <ns3:cad>43</ns3:cad>
          </ns3:TrackPointExtension>
        </extensions>
      </trkpt>
      <trkpt lat="43.45866397954523563385009765625" lon="1.47568124346435070037841796875">
        <ele>273.20001220703125</ele>
        <time>2026-08-05T07:30:15.000Z</time>
        <extensions>
          <ns3:TrackPointExtension>
            <ns3:hr>114</ns3:hr>
            <ns3:cad>43</ns3:cad>
          </ns3:TrackPointExtension>
        </extensions>
      </trkpt>
      <trkpt lat="43.45867236144840717315673828125" lon="1.47568727843463420867919921875">
        <ele>273.399993896484375</ele>
        <time>2026-08-05T07:30:16.000Z</time>
        <extensions>
          <ns3:TrackPointExtension>
            <ns3:hr>114</ns3:hr>
            <ns3:cad>43</ns3:cad>
          </ns3:TrackPointExtension>
        </extensions>
      </trkpt>
      <trkpt lat="43.45867596566677093505859375" lon="1.47568962536752223968505859375">
        <ele>273.600006103515625</ele>
        <time>2026-08-05T07:30:17.000Z</time>
        <extensions>
          <ns3:TrackPointExtension>
            <ns3:hr>114</ns3:hr>
            <ns3:cad>43</ns3:cad>
          </ns3:TrackPointExtension>
        </extensions>
      </trkpt>
      <trkpt lat="43.45868174917995929718017578125" lon="1.4756935648620128631591796875">
        <ele>273.600006103515625</ele>
        <time>2026-08-05T07:30:18.000Z</time>
        <extensions>
          <ns3:TrackPointExtension>
            <ns3:hr>114</ns3:hr>
            <ns3:cad>43</ns3:cad>
          </ns3:TrackPointExtension>
        </extensions>
      </trkpt>
      <trkpt lat="43.45869029872119426727294921875" lon="1.475700438022613525390625">
        <ele>273.79998779296875</ele>
        <time>2026-08-05T07:30:19.000Z</time>
        <extensions>
          <ns3:TrackPointExtension>
            <ns3:hr>114</ns3:hr>
            <ns3:cad>42</ns3:cad>
          </ns3:TrackPointExtension>
        </extensions>
      </trkpt>
      <trkpt lat="43.45869884826242923736572265625" lon="1.4757071435451507568359375">
        <ele>273.79998779296875</ele>
        <time>2026-08-05T07:30:20.000Z</time>
        <extensions>
          <ns3:TrackPointExtension>
            <ns3:hr>114</ns3:hr>
            <ns3:cad>42</ns3:cad>
          </ns3:TrackPointExtension>
        </extensions>
      </trkpt>
      <trkpt lat="43.45870655961334705352783203125" lon="1.4757160283625125885009765625">
        <ele>274</ele>
        <time>2026-08-05T07:30:21.000Z</time>
        <extensions>
          <ns3:TrackPointExtension>
            <ns3:hr>114</ns3:hr>
            <ns3:cad>42</ns3:cad>
          </ns3:TrackPointExtension>
        </extensions>
      </trkpt>
      <trkpt lat="43.45871041528880596160888671875" lon="1.4757213927805423736572265625">
        <ele>274.20001220703125</ele>
        <time>2026-08-05T07:30:22.000Z</time>
        <extensions>
          <ns3:TrackPointExtension>
            <ns3:hr>114</ns3:hr>
            <ns3:cad>42</ns3:cad>
          </ns3:TrackPointExtension>
        </extensions>
      </trkpt>
      <trkpt lat="43.458719216287136077880859375" lon="1.47572868503630161285400390625">
        <ele>274.20001220703125</ele>
        <time>2026-08-05T07:30:23.000Z</time>
        <extensions>
          <ns3:TrackPointExtension>
            <ns3:hr>114</ns3:hr>
            <ns3:cad>42</ns3:cad>
          </ns3:TrackPointExtension>
        </extensions>
      </trkpt>
      <trkpt lat="43.45872935838997364044189453125" lon="1.4757378213107585906982421875">
        <ele>274.399993896484375</ele>
        <time>2026-08-05T07:30:24.000Z</time>
        <extensions>
          <ns3:TrackPointExtension>
            <ns3:hr>114</ns3:hr>
            <ns3:cad>43</ns3:cad>
          </ns3:TrackPointExtension>
        </extensions>
      </trkpt>
      <trkpt lat="43.45873556099832057952880859375" lon="1.47574578411877155303955078125">
        <ele>274.600006103515625</ele>
        <time>2026-08-05T07:30:25.000Z</time>
        <extensions>
          <ns3:TrackPointExtension>
            <ns3:hr>114</ns3:hr>
            <ns3:cad>43</ns3:cad>
          </ns3:TrackPointExtension>
        </extensions>
      </trkpt>
      <trkpt lat="43.4587421827018260955810546875" lon="1.4757554233074188232421875">
        <ele>274.600006103515625</ele>
        <time>2026-08-05T07:30:26.000Z</time>
        <extensions>
          <ns3:TrackPointExtension>
            <ns3:hr>114</ns3:hr>
            <ns3:cad>43</ns3:cad>
          </ns3:TrackPointExtension>
        </extensions>
      </trkpt>
      <trkpt lat="43.4587478823959827423095703125" lon="1.475762464106082916259765625">
        <ele>274.79998779296875</ele>
        <time>2026-08-05T07:30:27.000Z</time>
        <extensions>
          <ns3:TrackPointExtension>
            <ns3:hr>114</ns3:hr>
            <ns3:cad>44</ns3:cad>
          </ns3:TrackPointExtension>
        </extensions>
      </trkpt>
      <trkpt lat="43.45875802449882030487060546875" lon="1.47577084600925445556640625">
        <ele>274.79998779296875</ele>
        <time>2026-08-05T07:30:28.000Z</time>
        <extensions>
          <ns3:TrackPointExtension>
            <ns3:hr>113</ns3:hr>
            <ns3:cad>48</ns3:cad>
          </ns3:TrackPointExtension>
        </extensions>
      </trkpt>
      <trkpt lat="43.458765484392642974853515625" lon="1.4757787249982357025146484375">
        <ele>275</ele>
        <time>2026-08-05T07:30:29.000Z</time>
        <extensions>
          <ns3:TrackPointExtension>
            <ns3:hr>113</ns3:hr>
            <ns3:cad>48</ns3:cad>
          </ns3:TrackPointExtension>
        </extensions>
      </trkpt>
      <trkpt lat="43.45877059735357761383056640625" lon="1.4757840894162654876708984375">
        <ele>275</ele>
        <time>2026-08-05T07:30:30.000Z</time>
        <extensions>
          <ns3:TrackPointExtension>
            <ns3:hr>113</ns3:hr>
            <ns3:cad>48</ns3:cad>
          </ns3:TrackPointExtension>
        </extensions>
      </trkpt>
      <trkpt lat="43.45877897925674915313720703125" lon="1.47578920237720012664794921875">
        <ele>275.20001220703125</ele>
        <time>2026-08-05T07:30:31.000Z</time>
        <extensions>
          <ns3:TrackPointExtension>
            <ns3:hr>113</ns3:hr>
            <ns3:cad>45</ns3:cad>
          </ns3:TrackPointExtension>
        </extensions>
      </trkpt>
      <trkpt lat="43.45878853462636470794677734375" lon="1.47579708136618137359619140625">
        <ele>275.399993896484375</ele>
        <time>2026-08-05T07:30:32.000Z</time>
        <extensions>
          <ns3:TrackPointExtension>
            <ns3:hr>113</ns3:hr>
            <ns3:cad>44</ns3:cad>
          </ns3:TrackPointExtension>
        </extensions>
      </trkpt>
      <trkpt lat="43.4587978385388851165771484375" lon="1.47580512799322605133056640625">
        <ele>275.399993896484375</ele>
        <time>2026-08-05T07:30:33.000Z</time>
        <extensions>
          <ns3:TrackPointExtension>
            <ns3:hr>114</ns3:hr>
            <ns3:cad>43</ns3:cad>
          </ns3:TrackPointExtension>
        </extensions>
      </trkpt>
      <trkpt lat="43.45880362205207347869873046875" lon="1.47581350989639759063720703125">
        <ele>275.600006103515625</ele>
        <time>2026-08-05T07:30:34.000Z</time>
        <extensions>
          <ns3:TrackPointExtension>
            <ns3:hr>113</ns3:hr>
            <ns3:cad>43</ns3:cad>
          </ns3:TrackPointExtension>
        </extensions>
      </trkpt>
      <trkpt lat="43.45881116576492786407470703125" lon="1.47581778466701507568359375">
        <ele>275.79998779296875</ele>
        <time>2026-08-05T07:30:35.000Z</time>
        <extensions>
          <ns3:TrackPointExtension>
            <ns3:hr>113</ns3:hr>
            <ns3:cad>43</ns3:cad>
          </ns3:TrackPointExtension>
        </extensions>
      </trkpt>
      <trkpt lat="43.4588233195245265960693359375" lon="1.475826166570186614990234375">
        <ele>276</ele>
        <time>2026-08-05T07:30:36.000Z</time>
        <extensions>
          <ns3:TrackPointExtension>
            <ns3:hr>113</ns3:hr>
            <ns3:cad>45</ns3:cad>
          </ns3:TrackPointExtension>
        </extensions>
      </trkpt>
      <trkpt lat="43.4588306955993175506591796875" lon="1.47583077661693096160888671875">
        <ele>276</ele>
        <time>2026-08-05T07:30:37.000Z</time>
        <extensions>
          <ns3:TrackPointExtension>
            <ns3:hr>112</ns3:hr>
            <ns3:cad>45</ns3:cad>
          </ns3:TrackPointExtension>
        </extensions>
      </trkpt>
      <trkpt lat="43.4588362276554107666015625" lon="1.47583521902561187744140625">
        <ele>276.20001220703125</ele>
        <time>2026-08-05T07:30:38.000Z</time>
        <extensions>
          <ns3:TrackPointExtension>
            <ns3:hr>112</ns3:hr>
            <ns3:cad>45</ns3:cad>
          </ns3:TrackPointExtension>
        </extensions>
      </trkpt>
      <trkpt lat="43.45884318463504314422607421875" lon="1.47584251128137111663818359375">
        <ele>276.20001220703125</ele>
        <time>2026-08-05T07:30:39.000Z</time>
        <extensions>
          <ns3:TrackPointExtension>
            <ns3:hr>112</ns3:hr>
            <ns3:cad>45</ns3:cad>
          </ns3:TrackPointExtension>
        </extensions>
      </trkpt>
      <trkpt lat="43.45885391347110271453857421875" lon="1.4758508093655109405517578125">
        <ele>276.399993896484375</ele>
        <time>2026-08-05T07:30:40.000Z</time>
        <extensions>
          <ns3:TrackPointExtension>
            <ns3:hr>113</ns3:hr>
            <ns3:cad>46</ns3:cad>
          </ns3:TrackPointExtension>
        </extensions>
      </trkpt>
      <trkpt lat="43.45886112190783023834228515625" lon="1.4758573472499847412109375">
        <ele>276.600006103515625</ele>
        <time>2026-08-05T07:30:41.000Z</time>
        <extensions>
          <ns3:TrackPointExtension>
            <ns3:hr>112</ns3:hr>
            <ns3:cad>46</ns3:cad>
          </ns3:TrackPointExtension>
        </extensions>
      </trkpt>
      <trkpt lat="43.4588672406971454620361328125" lon="1.475865058600902557373046875">
        <ele>276.79998779296875</ele>
        <time>2026-08-05T07:30:42.000Z</time>
        <extensions>
          <ns3:TrackPointExtension>
            <ns3:hr>112</ns3:hr>
            <ns3:cad>46</ns3:cad>
          </ns3:TrackPointExtension>
        </extensions>
      </trkpt>
      <trkpt lat="43.45887738279998302459716796875" lon="1.47587151266634464263916015625">
        <ele>277</ele>
        <time>2026-08-05T07:30:43.000Z</time>
        <extensions>
          <ns3:TrackPointExtension>
            <ns3:hr>112</ns3:hr>
            <ns3:cad>45</ns3:cad>
          </ns3:TrackPointExtension>
        </extensions>
      </trkpt>
      <trkpt lat="43.45888794399797916412353515625" lon="1.47587855346500873565673828125">
        <ele>277.20001220703125</ele>
        <time>2026-08-05T07:30:44.000Z</time>
        <extensions>
          <ns3:TrackPointExtension>
            <ns3:hr>112</ns3:hr>
            <ns3:cad>45</ns3:cad>
          </ns3:TrackPointExtension>
        </extensions>
      </trkpt>
      <trkpt lat="43.4588927216827869415283203125" lon="1.4758850075304508209228515625">
        <ele>277.399993896484375</ele>
        <time>2026-08-05T07:30:45.000Z</time>
        <extensions>
          <ns3:TrackPointExtension>
            <ns3:hr>112</ns3:hr>
            <ns3:cad>45</ns3:cad>
          </ns3:TrackPointExtension>
        </extensions>
      </trkpt>
      <trkpt lat="43.4588979184627532958984375" lon="1.47589045576751232147216796875">
        <ele>277.399993896484375</ele>
        <time>2026-08-05T07:30:46.000Z</time>
        <extensions>
          <ns3:TrackPointExtension>
            <ns3:hr>111</ns3:hr>
            <ns3:cad>45</ns3:cad>
          </ns3:TrackPointExtension>
        </extensions>
      </trkpt>
      <trkpt lat="43.45890462398529052734375" lon="1.47589766420423984527587890625">
        <ele>277.600006103515625</ele>
        <time>2026-08-05T07:30:47.000Z</time>
        <extensions>
          <ns3:TrackPointExtension>
            <ns3:hr>111</ns3:hr>
            <ns3:cad>43</ns3:cad>
          </ns3:TrackPointExtension>
        </extensions>
      </trkpt>
      <trkpt lat="43.45891577191650867462158203125" lon="1.4758920483291149139404296875">
        <ele>277.79998779296875</ele>
        <time>2026-08-05T07:30:48.000Z</time>
        <extensions>
          <ns3:TrackPointExtension>
            <ns3:hr>111</ns3:hr>
            <ns3:cad>43</ns3:cad>
          </ns3:TrackPointExtension>
        </extensions>
      </trkpt>
      <trkpt lat="43.458923064172267913818359375" lon="1.4758890308439731597900390625">
        <ele>277.79998779296875</ele>
        <time>2026-08-05T07:30:49.000Z</time>
        <extensions>
          <ns3:TrackPointExtension>
            <ns3:hr>111</ns3:hr>
            <ns3:cad>43</ns3:cad>
          </ns3:TrackPointExtension>
        </extensions>
      </trkpt>
      <trkpt lat="43.45892951823770999908447265625" lon="1.47588995285332202911376953125">
        <ele>278</ele>
        <time>2026-08-05T07:30:50.000Z</time>
        <extensions>
          <ns3:TrackPointExtension>
            <ns3:hr>111</ns3:hr>
            <ns3:cad>44</ns3:cad>
          </ns3:TrackPointExtension>
        </extensions>
      </trkpt>
      <trkpt lat="43.45894016325473785400390625" lon="1.4758943952620029449462890625">
        <ele>278.20001220703125</ele>
        <time>2026-08-05T07:30:51.000Z</time>
        <extensions>
          <ns3:TrackPointExtension>
            <ns3:hr>112</ns3:hr>
            <ns3:cad>44</ns3:cad>
          </ns3:TrackPointExtension>
        </extensions>
      </trkpt>
      <trkpt lat="43.4589513950049877166748046875" lon="1.4758994244039058685302734375">
        <ele>278.399993896484375</ele>
        <time>2026-08-05T07:30:52.000Z</time>
        <extensions>
          <ns3:TrackPointExtension>
            <ns3:hr>112</ns3:hr>
            <ns3:cad>46</ns3:cad>
          </ns3:TrackPointExtension>
        </extensions>
      </trkpt>
      <trkpt lat="43.45896170474588871002197265625" lon="1.47590638138353824615478515625">
        <ele>278.399993896484375</ele>
        <time>2026-08-05T07:30:53.000Z</time>
        <extensions>
          <ns3:TrackPointExtension>
            <ns3:hr>112</ns3:hr>
            <ns3:cad>46</ns3:cad>
          </ns3:TrackPointExtension>
        </extensions>
      </trkpt>
      <trkpt lat="43.45896975137293338775634765625" lon="1.4759131707251071929931640625">
        <ele>278.600006103515625</ele>
        <time>2026-08-05T07:30:54.000Z</time>
        <extensions>
          <ns3:TrackPointExtension>
            <ns3:hr>111</ns3:hr>
            <ns3:cad>46</ns3:cad>
          </ns3:TrackPointExtension>
        </extensions>
      </trkpt>
      <trkpt lat="43.4589783847332000732421875" lon="1.47592130117118358612060546875">
        <ele>278.79998779296875</ele>
        <time>2026-08-05T07:30:55.000Z</time>
        <extensions>
          <ns3:TrackPointExtension>
            <ns3:hr>111</ns3:hr>
            <ns3:cad>46</ns3:cad>
          </ns3:TrackPointExtension>
        </extensions>
      </trkpt>
      <trkpt lat="43.4589882753789424896240234375" lon="1.47592775523662567138671875">
        <ele>279</ele>
        <time>2026-08-05T07:30:56.000Z</time>
        <extensions>
          <ns3:TrackPointExtension>
            <ns3:hr>111</ns3:hr>
            <ns3:cad>46</ns3:cad>
          </ns3:TrackPointExtension>
        </extensions>
      </trkpt>
      <trkpt lat="43.45899741165339946746826171875" lon="1.47593471221625804901123046875">
        <ele>279.20001220703125</ele>
        <time>2026-08-05T07:30:57.000Z</time>
        <extensions>
          <ns3:TrackPointExtension>
            <ns3:hr>110</ns3:hr>
            <ns3:cad>46</ns3:cad>
          </ns3:TrackPointExtension>
        </extensions>
      </trkpt>
      <trkpt lat="43.459004871547222137451171875" lon="1.47594192065298557281494140625">
        <ele>279.20001220703125</ele>
        <time>2026-08-05T07:30:58.000Z</time>
        <extensions>
          <ns3:TrackPointExtension>
            <ns3:hr>109</ns3:hr>
            <ns3:cad>45</ns3:cad>
          </ns3:TrackPointExtension>
        </extensions>
      </trkpt>
      <trkpt lat="43.45901191234588623046875" lon="1.47594728507101535797119140625">
        <ele>279.399993896484375</ele>
        <time>2026-08-05T07:30:59.000Z</time>
        <extensions>
          <ns3:TrackPointExtension>
            <ns3:hr>107</ns3:hr>
            <ns3:cad>45</ns3:cad>
          </ns3:TrackPointExtension>
        </extensions>
      </trkpt>
      <trkpt lat="43.45901618711650371551513671875" lon="1.47595499642193317413330078125">
        <ele>279.600006103515625</ele>
        <time>2026-08-05T07:31:00.000Z</time>
        <extensions>
          <ns3:TrackPointExtension>
            <ns3:hr>107</ns3:hr>
            <ns3:cad>45</ns3:cad>
          </ns3:TrackPointExtension>
        </extensions>
      </trkpt>
      <trkpt lat="43.4590197913348674774169921875" lon="1.47595332004129886627197265625">
        <ele>279.79998779296875</ele>
        <time>2026-08-05T07:31:01.000Z</time>
        <extensions>
          <ns3:TrackPointExtension>
            <ns3:hr>107</ns3:hr>
            <ns3:cad>45</ns3:cad>
          </ns3:TrackPointExtension>
        </extensions>
      </trkpt>
      <trkpt lat="43.45902423374354839324951171875" lon="1.47595298476517200469970703125">
        <ele>279.79998779296875</ele>
        <time>2026-08-05T07:31:02.000Z</time>
        <extensions>
          <ns3:TrackPointExtension>
            <ns3:hr>107</ns3:hr>
            <ns3:cad>45</ns3:cad>
          </ns3:TrackPointExtension>
        </extensions>
      </trkpt>
      <trkpt lat="43.4590328671038150787353515625" lon="1.47596002556383609771728515625">
        <ele>280</ele>
        <time>2026-08-05T07:31:03.000Z</time>
        <extensions>
          <ns3:TrackPointExtension>
            <ns3:hr>107</ns3:hr>
            <ns3:cad>45</ns3:cad>
          </ns3:TrackPointExtension>
        </extensions>
      </trkpt>
      <trkpt lat="43.459037058055400848388671875" lon="1.47596656344830989837646484375">
        <ele>280</ele>
        <time>2026-08-05T07:31:04.000Z</time>
        <extensions>
          <ns3:TrackPointExtension>
            <ns3:hr>107</ns3:hr>
            <ns3:cad>45</ns3:cad>
          </ns3:TrackPointExtension>
        </extensions>
      </trkpt>
      <trkpt lat="43.45904150046408176422119140625" lon="1.47597108967602252960205078125">
        <ele>280</ele>
        <time>2026-08-05T07:31:05.000Z</time>
        <extensions>
          <ns3:TrackPointExtension>
            <ns3:hr>107</ns3:hr>
            <ns3:cad>45</ns3:cad>
          </ns3:TrackPointExtension>
        </extensions>
      </trkpt>
      <trkpt lat="43.45904837362468242645263671875" lon="1.47597846575081348419189453125">
        <ele>280</ele>
        <time>2026-08-05T07:31:06.000Z</time>
        <extensions>
          <ns3:TrackPointExtension>
            <ns3:hr>107</ns3:hr>
            <ns3:cad>45</ns3:cad>
          </ns3:TrackPointExtension>
        </extensions>
      </trkpt>
      <trkpt lat="43.45905482769012451171875" lon="1.4759829081594944000244140625">
        <ele>280</ele>
        <time>2026-08-05T07:31:07.000Z</time>
        <extensions>
          <ns3:TrackPointExtension>
            <ns3:hr>108</ns3:hr>
            <ns3:cad>45</ns3:cad>
          </ns3:TrackPointExtension>
        </extensions>
      </trkpt>
      <trkpt lat="43.45906061120331287384033203125" lon="1.475989781320095062255859375">
        <ele>280.20001220703125</ele>
        <time>2026-08-05T07:31:08.000Z</time>
        <extensions>
          <ns3:TrackPointExtension>
            <ns3:hr>108</ns3:hr>
            <ns3:cad>45</ns3:cad>
          </ns3:TrackPointExtension>
        </extensions>
      </trkpt>
      <trkpt lat="43.45906631089746952056884765625" lon="1.4759953133761882781982421875">
        <ele>280.20001220703125</ele>
        <time>2026-08-05T07:31:09.000Z</time>
        <extensions>
          <ns3:TrackPointExtension>
            <ns3:hr>109</ns3:hr>
            <ns3:cad>42</ns3:cad>
          </ns3:TrackPointExtension>
        </extensions>
      </trkpt>
      <trkpt lat="43.4590731002390384674072265625" lon="1.4760021865367889404296875">
        <ele>280.399993896484375</ele>
        <time>2026-08-05T07:31:10.000Z</time>
        <extensions>
          <ns3:TrackPointExtension>
            <ns3:hr>109</ns3:hr>
            <ns3:cad>41</ns3:cad>
          </ns3:TrackPointExtension>
        </extensions>
      </trkpt>
      <trkpt lat="43.45907854847609996795654296875" lon="1.47601098753511905670166015625">
        <ele>280.600006103515625</ele>
        <time>2026-08-05T07:31:11.000Z</time>
        <extensions>
          <ns3:TrackPointExtension>
            <ns3:hr>111</ns3:hr>
            <ns3:cad>41</ns3:cad>
          </ns3:TrackPointExtension>
        </extensions>
      </trkpt>
      <trkpt lat="43.45908768475055694580078125" lon="1.4760177768766880035400390625">
        <ele>280.79998779296875</ele>
        <time>2026-08-05T07:31:12.000Z</time>
        <extensions>
          <ns3:TrackPointExtension>
            <ns3:hr>112</ns3:hr>
            <ns3:cad>41</ns3:cad>
          </ns3:TrackPointExtension>
        </extensions>
      </trkpt>
      <trkpt lat="43.45909707248210906982421875" lon="1.476027332246303558349609375">
        <ele>281</ele>
        <time>2026-08-05T07:31:13.000Z</time>
        <extensions>
          <ns3:TrackPointExtension>
            <ns3:hr>112</ns3:hr>
            <ns3:cad>42</ns3:cad>
          </ns3:TrackPointExtension>
        </extensions>
      </trkpt>
      <trkpt lat="43.45910402946174144744873046875" lon="1.47603512741625308990478515625">
        <ele>281</ele>
        <time>2026-08-05T07:31:14.000Z</time>
        <extensions>
          <ns3:TrackPointExtension>
            <ns3:hr>112</ns3:hr>
            <ns3:cad>42</ns3:cad>
          </ns3:TrackPointExtension>
        </extensions>
      </trkpt>
      <trkpt lat="43.45911073498427867889404296875" lon="1.4760435931384563446044921875">
        <ele>281.20001220703125</ele>
        <time>2026-08-05T07:31:15.000Z</time>
        <extensions>
          <ns3:TrackPointExtension>
            <ns3:hr>111</ns3:hr>
            <ns3:cad>42</ns3:cad>
          </ns3:TrackPointExtension>
        </extensions>
      </trkpt>
      <trkpt lat="43.45911827869713306427001953125" lon="1.4760502986609935760498046875">
        <ele>281.20001220703125</ele>
        <time>2026-08-05T07:31:16.000Z</time>
        <extensions>
          <ns3:TrackPointExtension>
            <ns3:hr>111</ns3:hr>
            <ns3:cad>42</ns3:cad>
          </ns3:TrackPointExtension>
        </extensions>
      </trkpt>
      <trkpt lat="43.45912766642868518829345703125" lon="1.4760585129261016845703125">
        <ele>281.399993896484375</ele>
        <time>2026-08-05T07:31:17.000Z</time>
        <extensions>
          <ns3:TrackPointExtension>
            <ns3:hr>111</ns3:hr>
            <ns3:cad>44</ns3:cad>
          </ns3:TrackPointExtension>
        </extensions>
      </trkpt>
      <trkpt lat="43.45913521014153957366943359375" lon="1.47606597281992435455322265625">
        <ele>281.399993896484375</ele>
        <time>2026-08-05T07:31:18.000Z</time>
        <extensions>
          <ns3:TrackPointExtension>
            <ns3:hr>110</ns3:hr>
            <ns3:cad>44</ns3:cad>
          </ns3:TrackPointExtension>
        </extensions>
      </trkpt>
      <trkpt lat="43.4591404907405376434326171875" lon="1.47607234306633472442626953125">
        <ele>281.600006103515625</ele>
        <time>2026-08-05T07:31:19.000Z</time>
        <extensions>
          <ns3:TrackPointExtension>
            <ns3:hr>110</ns3:hr>
            <ns3:cad>44</ns3:cad>
          </ns3:TrackPointExtension>
        </extensions>
      </trkpt>
      <trkpt lat="43.45914811827242374420166015625" lon="1.4760799705982208251953125">
        <ele>281.600006103515625</ele>
        <time>2026-08-05T07:31:20.000Z</time>
        <extensions>
          <ns3:TrackPointExtension>
            <ns3:hr>110</ns3:hr>
            <ns3:cad>44</ns3:cad>
          </ns3:TrackPointExtension>
        </extensions>
      </trkpt>
      <trkpt lat="43.4591567516326904296875" lon="1.47608877159655094146728515625">
        <ele>281.79998779296875</ele>
        <time>2026-08-05T07:31:21.000Z</time>
        <extensions>
          <ns3:TrackPointExtension>
            <ns3:hr>109</ns3:hr>
            <ns3:cad>44</ns3:cad>
          </ns3:TrackPointExtension>
        </extensions>
      </trkpt>
      <trkpt lat="43.4591653011739253997802734375" lon="1.476097404956817626953125">
        <ele>282</ele>
        <time>2026-08-05T07:31:22.000Z</time>
        <extensions>
          <ns3:TrackPointExtension>
            <ns3:hr>109</ns3:hr>
            <ns3:cad>44</ns3:cad>
          </ns3:TrackPointExtension>
        </extensions>
      </trkpt>
      <trkpt lat="43.45917192287743091583251953125" lon="1.47610570304095745086669921875">
        <ele>282</ele>
        <time>2026-08-05T07:31:23.000Z</time>
        <extensions>
          <ns3:TrackPointExtension>
            <ns3:hr>109</ns3:hr>
            <ns3:cad>44</ns3:cad>
          </ns3:TrackPointExtension>
        </extensions>
      </trkpt>
      <trkpt lat="43.45918181352317333221435546875" lon="1.47611475549638271331787109375">
        <ele>282.20001220703125</ele>
        <time>2026-08-05T07:31:24.000Z</time>
        <extensions>
          <ns3:TrackPointExtension>
            <ns3:hr>109</ns3:hr>
            <ns3:cad>44</ns3:cad>
          </ns3:TrackPointExtension>
        </extensions>
      </trkpt>
      <trkpt lat="43.459193967282772064208984375" lon="1.4761227183043956756591796875">
        <ele>282.399993896484375</ele>
        <time>2026-08-05T07:31:25.000Z</time>
        <extensions>
          <ns3:TrackPointExtension>
            <ns3:hr>109</ns3:hr>
            <ns3:cad>44</ns3:cad>
          </ns3:TrackPointExtension>
        </extensions>
      </trkpt>
      <trkpt lat="43.45920377410948276519775390625" lon="1.47612900473177433013916015625">
        <ele>282.600006103515625</ele>
        <time>2026-08-05T07:31:26.000Z</time>
        <extensions>
          <ns3:TrackPointExtension>
            <ns3:hr>109</ns3:hr>
            <ns3:cad>45</ns3:cad>
          </ns3:TrackPointExtension>
        </extensions>
      </trkpt>
      <trkpt lat="43.4592132456600666046142578125" lon="1.47613286040723323822021484375">
        <ele>282.600006103515625</ele>
        <time>2026-08-05T07:31:27.000Z</time>
        <extensions>
          <ns3:TrackPointExtension>
            <ns3:hr>109</ns3:hr>
            <ns3:cad>46</ns3:cad>
          </ns3:TrackPointExtension>
        </extensions>
      </trkpt>
      <trkpt lat="43.459222130477428436279296875" lon="1.4761317707598209381103515625">
        <ele>282.600006103515625</ele>
        <time>2026-08-05T07:31:28.000Z</time>
        <extensions>
          <ns3:TrackPointExtension>
            <ns3:hr>109</ns3:hr>
            <ns3:cad>45</ns3:cad>
          </ns3:TrackPointExtension>
        </extensions>
      </trkpt>
      <trkpt lat="43.45923009328544139862060546875" lon="1.47612984292209148406982421875">
        <ele>282.600006103515625</ele>
        <time>2026-08-05T07:31:29.000Z</time>
        <extensions>
          <ns3:TrackPointExtension>
            <ns3:hr>110</ns3:hr>
            <ns3:cad>45</ns3:cad>
          </ns3:TrackPointExtension>
        </extensions>
      </trkpt>
      <trkpt lat="43.4592367149889469146728515625" lon="1.476126573979854583740234375">
        <ele>282.600006103515625</ele>
        <time>2026-08-05T07:31:30.000Z</time>
        <extensions>
          <ns3:TrackPointExtension>
            <ns3:hr>109</ns3:hr>
            <ns3:cad>44</ns3:cad>
          </ns3:TrackPointExtension>
        </extensions>
      </trkpt>
      <trkpt lat="43.45924467779695987701416015625" lon="1.476113833487033843994140625">
        <ele>282.79998779296875</ele>
        <time>2026-08-05T07:31:31.000Z</time>
        <extensions>
          <ns3:TrackPointExtension>
            <ns3:hr>109</ns3:hr>
            <ns3:cad>43</ns3:cad>
          </ns3:TrackPointExtension>
        </extensions>
      </trkpt>
      <trkpt lat="43.459251634776592254638671875" lon="1.4761009253561496734619140625">
        <ele>283</ele>
        <time>2026-08-05T07:31:32.000Z</time>
        <extensions>
          <ns3:TrackPointExtension>
            <ns3:hr>109</ns3:hr>
            <ns3:cad>43</ns3:cad>
          </ns3:TrackPointExtension>
        </extensions>
      </trkpt>
      <trkpt lat="43.4592588432133197784423828125" lon="1.47608994506299495697021484375">
        <ele>283.20001220703125</ele>
        <time>2026-08-05T07:31:33.000Z</time>
        <extensions>
          <ns3:TrackPointExtension>
            <ns3:hr>109</ns3:hr>
            <ns3:cad>42</ns3:cad>
          </ns3:TrackPointExtension>
        </extensions>
      </trkpt>
      <trkpt lat="43.4592640399932861328125" lon="1.47607904858887195587158203125">
        <ele>283.20001220703125</ele>
        <time>2026-08-05T07:31:34.000Z</time>
        <extensions>
          <ns3:TrackPointExtension>
            <ns3:hr>109</ns3:hr>
            <ns3:cad>41</ns3:cad>
          </ns3:TrackPointExtension>
        </extensions>
      </trkpt>
      <trkpt lat="43.4592692367732524871826171875" lon="1.4760637097060680389404296875">
        <ele>283.20001220703125</ele>
        <time>2026-08-05T07:31:35.000Z</time>
        <extensions>
          <ns3:TrackPointExtension>
            <ns3:hr>109</ns3:hr>
            <ns3:cad>41</ns3:cad>
          </ns3:TrackPointExtension>
        </extensions>
      </trkpt>
      <trkpt lat="43.45927686430513858795166015625" lon="1.476046107709407806396484375">
        <ele>283.399993896484375</ele>
        <time>2026-08-05T07:31:36.000Z</time>
        <extensions>
          <ns3:TrackPointExtension>
            <ns3:hr>109</ns3:hr>
            <ns3:cad>42</ns3:cad>
          </ns3:TrackPointExtension>
        </extensions>
      </trkpt>
      <trkpt lat="43.4592813067138195037841796875" lon="1.47603294812142848968505859375">
        <ele>283.399993896484375</ele>
        <time>2026-08-05T07:31:37.000Z</time>
        <extensions>
          <ns3:TrackPointExtension>
            <ns3:hr>109</ns3:hr>
            <ns3:cad>42</ns3:cad>
          </ns3:TrackPointExtension>
        </extensions>
      </trkpt>
      <trkpt lat="43.45928750932216644287109375" lon="1.4760231412947177886962890625">
        <ele>283.600006103515625</ele>
        <time>2026-08-05T07:31:38.000Z</time>
        <extensions>
          <ns3:TrackPointExtension>
            <ns3:hr>109</ns3:hr>
            <ns3:cad>43</ns3:cad>
          </ns3:TrackPointExtension>
        </extensions>
      </trkpt>
      <trkpt lat="43.4592920355498790740966796875" lon="1.47601232863962650299072265625">
        <ele>283.600006103515625</ele>
        <time>2026-08-05T07:31:39.000Z</time>
        <extensions>
          <ns3:TrackPointExtension>
            <ns3:hr>108</ns3:hr>
            <ns3:cad>44</ns3:cad>
          </ns3:TrackPointExtension>
        </extensions>
      </trkpt>
      <trkpt lat="43.45929631032049655914306640625" lon="1.475997157394886016845703125">
        <ele>283.600006103515625</ele>
        <time>2026-08-05T07:31:40.000Z</time>
        <extensions>
          <ns3:TrackPointExtension>
            <ns3:hr>108</ns3:hr>
            <ns3:cad>44</ns3:cad>
          </ns3:TrackPointExtension>
        </extensions>
      </trkpt>
      <trkpt lat="43.459302596747875213623046875" lon="1.47597997449338436126708984375">
        <ele>283.600006103515625</ele>
        <time>2026-08-05T07:31:41.000Z</time>
        <extensions>
          <ns3:TrackPointExtension>
            <ns3:hr>108</ns3:hr>
            <ns3:cad>44</ns3:cad>
          </ns3:TrackPointExtension>
        </extensions>
      </trkpt>
      <trkpt lat="43.4593074582517147064208984375" lon="1.47597259841859340667724609375">
        <ele>283.600006103515625</ele>
        <time>2026-08-05T07:31:42.000Z</time>
        <extensions>
          <ns3:TrackPointExtension>
            <ns3:hr>109</ns3:hr>
            <ns3:cad>47</ns3:cad>
          </ns3:TrackPointExtension>
        </extensions>
      </trkpt>
      <trkpt lat="43.459311313927173614501953125" lon="1.47596589289605617523193359375">
        <ele>283.399993896484375</ele>
        <time>2026-08-05T07:31:43.000Z</time>
        <extensions>
          <ns3:TrackPointExtension>
            <ns3:hr>108</ns3:hr>
            <ns3:cad>48</ns3:cad>
          </ns3:TrackPointExtension>
        </extensions>
      </trkpt>
      <trkpt lat="43.45931743271648883819580078125" lon="1.47595231421291828155517578125">
        <ele>283.399993896484375</ele>
        <time>2026-08-05T07:31:44.000Z</time>
        <extensions>
          <ns3:TrackPointExtension>
            <ns3:hr>108</ns3:hr>
            <ns3:cad>48</ns3:cad>
          </ns3:TrackPointExtension>
        </extensions>
      </trkpt>
      <trkpt lat="43.45932363532483577728271484375" lon="1.4759373106062412261962890625">
        <ele>283.600006103515625</ele>
        <time>2026-08-05T07:31:45.000Z</time>
        <extensions>
          <ns3:TrackPointExtension>
            <ns3:hr>108</ns3:hr>
            <ns3:cad>48</ns3:cad>
          </ns3:TrackPointExtension>
        </extensions>
      </trkpt>
      <trkpt lat="43.45932908356189727783203125" lon="1.4759292639791965484619140625">
        <ele>283.600006103515625</ele>
        <time>2026-08-05T07:31:46.000Z</time>
        <extensions>
          <ns3:TrackPointExtension>
            <ns3:hr>109</ns3:hr>
            <ns3:cad>48</ns3:cad>
          </ns3:TrackPointExtension>
        </extensions>
      </trkpt>
      <trkpt lat="43.4593366272747516632080078125" lon="1.47591727785766124725341796875">
        <ele>283.600006103515625</ele>
        <time>2026-08-05T07:31:47.000Z</time>
        <extensions>
          <ns3:TrackPointExtension>
            <ns3:hr>108</ns3:hr>
            <ns3:cad>47</ns3:cad>
          </ns3:TrackPointExtension>
        </extensions>
      </trkpt>
      <trkpt lat="43.45934090204536914825439453125" lon="1.47590688429772853851318359375">
        <ele>283.79998779296875</ele>
        <time>2026-08-05T07:31:48.000Z</time>
        <extensions>
          <ns3:TrackPointExtension>
            <ns3:hr>108</ns3:hr>
            <ns3:cad>47</ns3:cad>
          </ns3:TrackPointExtension>
        </extensions>
      </trkpt>
      <trkpt lat="43.459347188472747802734375" lon="1.47589179687201976776123046875">
        <ele>283.79998779296875</ele>
        <time>2026-08-05T07:31:49.000Z</time>
        <extensions>
          <ns3:TrackPointExtension>
            <ns3:hr>108</ns3:hr>
            <ns3:cad>47</ns3:cad>
          </ns3:TrackPointExtension>
        </extensions>
      </trkpt>
      <trkpt lat="43.45935364253818988800048828125" lon="1.47588324733078479766845703125">
        <ele>283.79998779296875</ele>
        <time>2026-08-05T07:31:50.000Z</time>
        <extensions>
          <ns3:TrackPointExtension>
            <ns3:hr>108</ns3:hr>
            <ns3:cad>47</ns3:cad>
          </ns3:TrackPointExtension>
        </extensions>
      </trkpt>
      <trkpt lat="43.45936068333685398101806640625" lon="1.475874446332454681396484375">
        <ele>283.600006103515625</ele>
        <time>2026-08-05T07:31:51.000Z</time>
        <extensions>
          <ns3:TrackPointExtension>
            <ns3:hr>108</ns3:hr>
            <ns3:cad>46</ns3:cad>
          </ns3:TrackPointExtension>
        </extensions>
      </trkpt>
      <trkpt lat="43.4593694843351840972900390625" lon="1.4758622087538242340087890625">
        <ele>283.600006103515625</ele>
        <time>2026-08-05T07:31:52.000Z</time>
        <extensions>
          <ns3:TrackPointExtension>
            <ns3:hr>108</ns3:hr>
            <ns3:cad>46</ns3:cad>
          </ns3:TrackPointExtension>
        </extensions>
      </trkpt>
      <trkpt lat="43.45937375910580158233642578125" lon="1.47585131227970123291015625">
        <ele>283.600006103515625</ele>
        <time>2026-08-05T07:31:53.000Z</time>
        <extensions>
          <ns3:TrackPointExtension>
            <ns3:hr>108</ns3:hr>
            <ns3:cad>46</ns3:cad>
          </ns3:TrackPointExtension>
        </extensions>
      </trkpt>
      <trkpt lat="43.459379039704799652099609375" lon="1.47583915852010250091552734375">
        <ele>283.600006103515625</ele>
        <time>2026-08-05T07:31:54.000Z</time>
        <extensions>
          <ns3:TrackPointExtension>
            <ns3:hr>108</ns3:hr>
            <ns3:cad>46</ns3:cad>
          </ns3:TrackPointExtension>
        </extensions>
      </trkpt>
      <trkpt lat="43.45938297919929027557373046875" lon="1.4758296869695186614990234375">
        <ele>283.600006103515625</ele>
        <time>2026-08-05T07:31:55.000Z</time>
        <extensions>
          <ns3:TrackPointExtension>
            <ns3:hr>107</ns3:hr>
            <ns3:cad>46</ns3:cad>
          </ns3:TrackPointExtension>
        </extensions>
      </trkpt>
      <trkpt lat="43.4593879245221614837646484375" lon="1.4758189581334590911865234375">
        <ele>283.79998779296875</ele>
        <time>2026-08-05T07:31:56.000Z</time>
        <extensions>
          <ns3:TrackPointExtension>
            <ns3:hr>107</ns3:hr>
            <ns3:cad>46</ns3:cad>
          </ns3:TrackPointExtension>
        </extensions>
      </trkpt>
      <trkpt lat="43.45939588733017444610595703125" lon="1.47580747492611408233642578125">
        <ele>283.79998779296875</ele>
        <time>2026-08-05T07:31:57.000Z</time>
        <extensions>
          <ns3:TrackPointExtension>
            <ns3:hr>107</ns3:hr>
            <ns3:cad>46</ns3:cad>
          </ns3:TrackPointExtension>
        </extensions>
      </trkpt>
      <trkpt lat="43.45939991064369678497314453125" lon="1.4757998473942279815673828125">
        <ele>283.79998779296875</ele>
        <time>2026-08-05T07:31:58.000Z</time>
        <extensions>
          <ns3:TrackPointExtension>
            <ns3:hr>106</ns3:hr>
            <ns3:cad>46</ns3:cad>
          </ns3:TrackPointExtension>
        </extensions>
      </trkpt>
      <trkpt lat="43.45940577797591686248779296875" lon="1.47579205222427845001220703125">
        <ele>283.79998779296875</ele>
        <time>2026-08-05T07:31:59.000Z</time>
        <extensions>
          <ns3:TrackPointExtension>
            <ns3:hr>106</ns3:hr>
            <ns3:cad>46</ns3:cad>
          </ns3:TrackPointExtension>
        </extensions>
      </trkpt>
      <trkpt lat="43.45941399224102497100830078125" lon="1.4757850952446460723876953125">
        <ele>283.79998779296875</ele>
        <time>2026-08-05T07:32:00.000Z</time>
        <extensions>
          <ns3:TrackPointExtension>
            <ns3:hr>105</ns3:hr>
            <ns3:cad>46</ns3:cad>
          </ns3:TrackPointExtension>
        </extensions>
      </trkpt>
      <trkpt lat="43.45941851846873760223388671875" lon="1.475778557360172271728515625">
        <ele>283.79998779296875</ele>
        <time>2026-08-05T07:32:01.000Z</time>
        <extensions>
          <ns3:TrackPointExtension>
            <ns3:hr>105</ns3:hr>
            <ns3:cad>44</ns3:cad>
          </ns3:TrackPointExtension>
        </extensions>
      </trkpt>
      <trkpt lat="43.45942304469645023345947265625" lon="1.47576950490474700927734375">
        <ele>284</ele>
        <time>2026-08-05T07:32:02.000Z</time>
        <extensions>
          <ns3:TrackPointExtension>
            <ns3:hr>105</ns3:hr>
            <ns3:cad>44</ns3:cad>
          </ns3:TrackPointExtension>
        </extensions>
      </trkpt>
      <trkpt lat="43.4594278223812580108642578125" lon="1.475761123001575469970703125">
        <ele>284</ele>
        <time>2026-08-05T07:32:03.000Z</time>
        <extensions>
          <ns3:TrackPointExtension>
            <ns3:hr>104</ns3:hr>
            <ns3:cad>43</ns3:cad>
          </ns3:TrackPointExtension>
        </extensions>
      </trkpt>
      <trkpt lat="43.45943394117057323455810546875" lon="1.47575701586902141571044921875">
        <ele>284</ele>
        <time>2026-08-05T07:32:04.000Z</time>
        <extensions>
          <ns3:TrackPointExtension>
            <ns3:hr>104</ns3:hr>
            <ns3:cad>43</ns3:cad>
          </ns3:TrackPointExtension>
        </extensions>
      </trkpt>
      <trkpt lat="43.45943829976022243499755859375" lon="1.4757495559751987457275390625">
        <ele>284</ele>
        <time>2026-08-05T07:32:05.000Z</time>
        <extensions>
          <ns3:TrackPointExtension>
            <ns3:hr>103</ns3:hr>
            <ns3:cad>42</ns3:cad>
          </ns3:TrackPointExtension>
        </extensions>
      </trkpt>
      <trkpt lat="43.4594415687024593353271484375" lon="1.47574695758521556854248046875">
        <ele>284</ele>
        <time>2026-08-05T07:32:06.000Z</time>
        <extensions>
          <ns3:TrackPointExtension>
            <ns3:hr>102</ns3:hr>
            <ns3:cad>0</ns3:cad>
          </ns3:TrackPointExtension>
        </extensions>
      </trkpt>
      <trkpt lat="43.45944433473050594329833984375" lon="1.47574477829039096832275390625">
        <ele>284</ele>
        <time>2026-08-05T07:32:07.000Z</time>
        <extensions>
          <ns3:TrackPointExtension>
            <ns3:hr>101</ns3:hr>
            <ns3:cad>0</ns3:cad>
          </ns3:TrackPointExtension>
        </extensions>
      </trkpt>
      <trkpt lat="43.45944416709244251251220703125" lon="1.47574461065232753753662109375">
        <ele>284</ele>
        <time>2026-08-05T07:32:08.000Z</time>
        <extensions>
          <ns3:TrackPointExtension>
            <ns3:hr>101</ns3:hr>
            <ns3:cad>0</ns3:cad>
          </ns3:TrackPointExtension>
        </extensions>
      </trkpt>
      <trkpt lat="43.459444083273410797119140625" lon="1.4757445268332958221435546875">
        <ele>284</ele>
        <time>2026-08-05T07:32:09.000Z</time>
        <extensions>
          <ns3:TrackPointExtension>
            <ns3:hr>100</ns3:hr>
            <ns3:cad>0</ns3:cad>
          </ns3:TrackPointExtension>
        </extensions>
      </trkpt>
      <trkpt lat="43.45944651402533054351806640625" lon="1.47574293427169322967529296875">
        <ele>284.20001220703125</ele>
        <time>2026-08-05T07:32:10.000Z</time>
        <extensions>
          <ns3:TrackPointExtension>
            <ns3:hr>99</ns3:hr>
            <ns3:cad>0</ns3:cad>
          </ns3:TrackPointExtension>
        </extensions>
      </trkpt>
      <trkpt lat="43.45944802276790142059326171875" lon="1.47574159316718578338623046875">
        <ele>284.20001220703125</ele>
        <time>2026-08-05T07:32:11.000Z</time>
        <extensions>
          <ns3:TrackPointExtension>
            <ns3:hr>98</ns3:hr>
            <ns3:cad>0</ns3:cad>
          </ns3:TrackPointExtension>
        </extensions>
      </trkpt>
      <trkpt lat="43.45944978296756744384765625" lon="1.475737653672695159912109375">
        <ele>284.20001220703125</ele>
        <time>2026-08-05T07:32:12.000Z</time>
        <extensions>
          <ns3:TrackPointExtension>
            <ns3:hr>98</ns3:hr>
            <ns3:cad>0</ns3:cad>
          </ns3:TrackPointExtension>
        </extensions>
      </trkpt>
      <trkpt lat="43.459456823766231536865234375" lon="1.4757312834262847900390625">
        <ele>284</ele>
        <time>2026-08-05T07:32:13.000Z</time>
        <extensions>
          <ns3:TrackPointExtension>
            <ns3:hr>97</ns3:hr>
            <ns3:cad>0</ns3:cad>
          </ns3:TrackPointExtension>
        </extensions>
      </trkpt>
      <trkpt lat="43.4594647027552127838134765625" lon="1.4757284335792064666748046875">
        <ele>284</ele>
        <time>2026-08-05T07:32:14.000Z</time>
        <extensions>
          <ns3:TrackPointExtension>
            <ns3:hr>96</ns3:hr>
            <ns3:cad>0</ns3:cad>
          </ns3:TrackPointExtension>
        </extensions>
      </trkpt>
      <trkpt lat="43.45946763642132282257080078125" lon="1.47572658956050872802734375">
        <ele>284</ele>
        <time>2026-08-05T07:32:15.000Z</time>
        <extensions>
          <ns3:TrackPointExtension>
            <ns3:hr>95</ns3:hr>
            <ns3:cad>0</ns3:cad>
          </ns3:TrackPointExtension>
        </extensions>
      </trkpt>
      <trkpt lat="43.45947216264903545379638671875" lon="1.4757297746837139129638671875">
        <ele>284.20001220703125</ele>
        <time>2026-08-05T07:32:16.000Z</time>
        <extensions>
          <ns3:TrackPointExtension>
            <ns3:hr>95</ns3:hr>
            <ns3:cad>0</ns3:cad>
          </ns3:TrackPointExtension>
        </extensions>
      </trkpt>
      <trkpt lat="43.45948037691414356231689453125" lon="1.47573539055883884429931640625">
        <ele>284.20001220703125</ele>
        <time>2026-08-05T07:32:17.000Z</time>
        <extensions>
          <ns3:TrackPointExtension>
            <ns3:hr>94</ns3:hr>
            <ns3:cad>0</ns3:cad>
          </ns3:TrackPointExtension>
        </extensions>
      </trkpt>
      <trkpt lat="43.4594854898750782012939453125" lon="1.47574360482394695281982421875">
        <ele>284.399993896484375</ele>
        <time>2026-08-05T07:32:18.000Z</time>
        <extensions>
          <ns3:TrackPointExtension>
            <ns3:hr>94</ns3:hr>
            <ns3:cad>0</ns3:cad>
          </ns3:TrackPointExtension>
        </extensions>
      </trkpt>
      <trkpt lat="43.459491692483425140380859375" lon="1.47575098089873790740966796875">
        <ele>284.600006103515625</ele>
        <time>2026-08-05T07:32:19.000Z</time>
        <extensions>
          <ns3:TrackPointExtension>
            <ns3:hr>94</ns3:hr>
            <ns3:cad>0</ns3:cad>
          </ns3:TrackPointExtension>
        </extensions>
      </trkpt>
      <trkpt lat="43.45950284041464328765869140625" lon="1.47575735114514827728271484375">
        <ele>284.600006103515625</ele>
        <time>2026-08-05T07:32:20.000Z</time>
        <extensions>
          <ns3:TrackPointExtension>
            <ns3:hr>94</ns3:hr>
            <ns3:cad>0</ns3:cad>
          </ns3:TrackPointExtension>
        </extensions>
      </trkpt>
      <trkpt lat="43.45951080322265625" lon="1.4757607877254486083984375">
        <ele>284.79998779296875</ele>
        <time>2026-08-05T07:32:21.000Z</time>
        <extensions>
          <ns3:TrackPointExtension>
            <ns3:hr>93</ns3:hr>
            <ns3:cad>40</ns3:cad>
          </ns3:TrackPointExtension>
        </extensions>
      </trkpt>
      <trkpt lat="43.45951893366873264312744140625" lon="1.4757659845054149627685546875">
        <ele>284.79998779296875</ele>
        <time>2026-08-05T07:32:22.000Z</time>
        <extensions>
          <ns3:TrackPointExtension>
            <ns3:hr>93</ns3:hr>
            <ns3:cad>40</ns3:cad>
          </ns3:TrackPointExtension>
        </extensions>
      </trkpt>
      <trkpt lat="43.45952932722866535186767578125" lon="1.4757741987705230712890625">
        <ele>284.79998779296875</ele>
        <time>2026-08-05T07:32:23.000Z</time>
        <extensions>
          <ns3:TrackPointExtension>
            <ns3:hr>93</ns3:hr>
            <ns3:cad>40</ns3:cad>
          </ns3:TrackPointExtension>
        </extensions>
      </trkpt>
      <trkpt lat="43.45953569747507572174072265625" lon="1.475784592330455780029296875">
        <ele>285</ele>
        <time>2026-08-05T07:32:24.000Z</time>
        <extensions>
          <ns3:TrackPointExtension>
            <ns3:hr>93</ns3:hr>
            <ns3:cad>0</ns3:cad>
          </ns3:TrackPointExtension>
        </extensions>
      </trkpt>
      <trkpt lat="43.459538631141185760498046875" lon="1.47579305805265903472900390625">
        <ele>285</ele>
        <time>2026-08-05T07:32:25.000Z</time>
        <extensions>
          <ns3:TrackPointExtension>
            <ns3:hr>93</ns3:hr>
            <ns3:cad>0</ns3:cad>
          </ns3:TrackPointExtension>
        </extensions>
      </trkpt>
      <trkpt lat="43.45954676158726215362548828125" lon="1.4758055470883846282958984375">
        <ele>285.20001220703125</ele>
        <time>2026-08-05T07:32:26.000Z</time>
        <extensions>
          <ns3:TrackPointExtension>
            <ns3:hr>92</ns3:hr>
            <ns3:cad>0</ns3:cad>
          </ns3:TrackPointExtension>
        </extensions>
      </trkpt>
      <trkpt lat="43.4595572389662265777587890625" lon="1.475810743868350982666015625">
        <ele>285.20001220703125</ele>
        <time>2026-08-05T07:32:27.000Z</time>
        <extensions>
          <ns3:TrackPointExtension>
            <ns3:hr>92</ns3:hr>
            <ns3:cad>0</ns3:cad>
          </ns3:TrackPointExtension>
        </extensions>
      </trkpt>
      <trkpt lat="43.4595652855932712554931640625" lon="1.4758119173347949981689453125">
        <ele>285.20001220703125</ele>
        <time>2026-08-05T07:32:28.000Z</time>
        <extensions>
          <ns3:TrackPointExtension>
            <ns3:hr>93</ns3:hr>
            <ns3:cad>0</ns3:cad>
          </ns3:TrackPointExtension>
        </extensions>
      </trkpt>
      <trkpt lat="43.4595706500113010406494140625" lon="1.47581820376217365264892578125">
        <ele>285.20001220703125</ele>
        <time>2026-08-05T07:32:29.000Z</time>
        <extensions>
          <ns3:TrackPointExtension>
            <ns3:hr>92</ns3:hr>
            <ns3:cad>0</ns3:cad>
          </ns3:TrackPointExtension>
        </extensions>
      </trkpt>
      <trkpt lat="43.45957643352448940277099609375" lon="1.475822143256664276123046875">
        <ele>285.20001220703125</ele>
        <time>2026-08-05T07:32:30.000Z</time>
        <extensions>
          <ns3:TrackPointExtension>
            <ns3:hr>92</ns3:hr>
            <ns3:cad>41</ns3:cad>
          </ns3:TrackPointExtension>
        </extensions>
      </trkpt>
      <trkpt lat="43.45957945100963115692138671875" lon="1.47582725621759891510009765625">
        <ele>285.20001220703125</ele>
        <time>2026-08-05T07:32:31.000Z</time>
        <extensions>
          <ns3:TrackPointExtension>
            <ns3:hr>92</ns3:hr>
            <ns3:cad>41</ns3:cad>
          </ns3:TrackPointExtension>
        </extensions>
      </trkpt>
      <trkpt lat="43.45958095975220203399658203125" lon="1.4758313633501529693603515625">
        <ele>285.20001220703125</ele>
        <time>2026-08-05T07:32:32.000Z</time>
        <extensions>
          <ns3:TrackPointExtension>
            <ns3:hr>93</ns3:hr>
            <ns3:cad>41</ns3:cad>
          </ns3:TrackPointExtension>
        </extensions>
      </trkpt>
      <trkpt lat="43.45958515070378780364990234375" lon="1.4758370630443096160888671875">
        <ele>285.20001220703125</ele>
        <time>2026-08-05T07:32:33.000Z</time>
        <extensions>
          <ns3:TrackPointExtension>
            <ns3:hr>93</ns3:hr>
            <ns3:cad>41</ns3:cad>
          </ns3:TrackPointExtension>
        </extensions>
      </trkpt>
      <trkpt lat="43.45958967693150043487548828125" lon="1.47584452293813228607177734375">
        <ele>285.20001220703125</ele>
        <time>2026-08-05T07:32:34.000Z</time>
        <extensions>
          <ns3:TrackPointExtension>
            <ns3:hr>93</ns3:hr>
            <ns3:cad>0</ns3:cad>
          </ns3:TrackPointExtension>
        </extensions>
      </trkpt>
      <trkpt lat="43.459597639739513397216796875" lon="1.47585240192711353302001953125">
        <ele>285.20001220703125</ele>
        <time>2026-08-05T07:32:35.000Z</time>
        <extensions>
          <ns3:TrackPointExtension>
            <ns3:hr>94</ns3:hr>
            <ns3:cad>0</ns3:cad>
          </ns3:TrackPointExtension>
        </extensions>
      </trkpt>
      <trkpt lat="43.45960509963333606719970703125" lon="1.4758586883544921875">
        <ele>285.20001220703125</ele>
        <time>2026-08-05T07:32:36.000Z</time>
        <extensions>
          <ns3:TrackPointExtension>
            <ns3:hr>93</ns3:hr>
            <ns3:cad>41</ns3:cad>
          </ns3:TrackPointExtension>
        </extensions>
      </trkpt>
      <trkpt lat="43.45961012877523899078369140625" lon="1.47586740553379058837890625">
        <ele>285.20001220703125</ele>
        <time>2026-08-05T07:32:37.000Z</time>
        <extensions>
          <ns3:TrackPointExtension>
            <ns3:hr>93</ns3:hr>
            <ns3:cad>41</ns3:cad>
          </ns3:TrackPointExtension>
        </extensions>
      </trkpt>
      <trkpt lat="43.45961851067841053009033203125" lon="1.47587737999856472015380859375">
        <ele>285.20001220703125</ele>
        <time>2026-08-05T07:32:38.000Z</time>
        <extensions>
          <ns3:TrackPointExtension>
            <ns3:hr>94</ns3:hr>
            <ns3:cad>41</ns3:cad>
          </ns3:TrackPointExtension>
        </extensions>
      </trkpt>
      <trkpt lat="43.4596266411244869232177734375" lon="1.47588458843529224395751953125">
        <ele>285.20001220703125</ele>
        <time>2026-08-05T07:32:39.000Z</time>
        <extensions>
          <ns3:TrackPointExtension>
            <ns3:hr>93</ns3:hr>
            <ns3:cad>40</ns3:cad>
          </ns3:TrackPointExtension>
        </extensions>
      </trkpt>
      <trkpt lat="43.45963208936154842376708984375" lon="1.47589028812944889068603515625">
        <ele>285.20001220703125</ele>
        <time>2026-08-05T07:32:40.000Z</time>
        <extensions>
          <ns3:TrackPointExtension>
            <ns3:hr>93</ns3:hr>
            <ns3:cad>40</ns3:cad>
          </ns3:TrackPointExtension>
        </extensions>
      </trkpt>
      <trkpt lat="43.45963762141764163970947265625" lon="1.4758967421948909759521484375">
        <ele>285.20001220703125</ele>
        <time>2026-08-05T07:32:41.000Z</time>
        <extensions>
          <ns3:TrackPointExtension>
            <ns3:hr>93</ns3:hr>
            <ns3:cad>40</ns3:cad>
          </ns3:TrackPointExtension>
        </extensions>
      </trkpt>
      <trkpt lat="43.45964415930211544036865234375" lon="1.47590202279388904571533203125">
        <ele>285.20001220703125</ele>
        <time>2026-08-05T07:32:42.000Z</time>
        <extensions>
          <ns3:TrackPointExtension>
            <ns3:hr>93</ns3:hr>
            <ns3:cad>41</ns3:cad>
          </ns3:TrackPointExtension>
        </extensions>
      </trkpt>
      <trkpt lat="43.4596477635204792022705078125" lon="1.47590621374547481536865234375">
        <ele>285.20001220703125</ele>
        <time>2026-08-05T07:32:43.000Z</time>
        <extensions>
          <ns3:TrackPointExtension>
            <ns3:hr>93</ns3:hr>
            <ns3:cad>41</ns3:cad>
          </ns3:TrackPointExtension>
        </extensions>
      </trkpt>
      <trkpt lat="43.459650613367557525634765625" lon="1.47591073997318744659423828125">
        <ele>285.20001220703125</ele>
        <time>2026-08-05T07:32:44.000Z</time>
        <extensions>
          <ns3:TrackPointExtension>
            <ns3:hr>92</ns3:hr>
            <ns3:cad>41</ns3:cad>
          </ns3:TrackPointExtension>
        </extensions>
      </trkpt>
      <trkpt lat="43.45965555869042873382568359375" lon="1.475916020572185516357421875">
        <ele>285</ele>
        <time>2026-08-05T07:32:45.000Z</time>
        <extensions>
          <ns3:TrackPointExtension>
            <ns3:hr>92</ns3:hr>
            <ns3:cad>0</ns3:cad>
          </ns3:TrackPointExtension>
        </extensions>
      </trkpt>
      <trkpt lat="43.45965907908976078033447265625" lon="1.47591895423829555511474609375">
        <ele>285</ele>
        <time>2026-08-05T07:32:46.000Z</time>
        <extensions>
          <ns3:TrackPointExtension>
            <ns3:hr>92</ns3:hr>
            <ns3:cad>0</ns3:cad>
          </ns3:TrackPointExtension>
        </extensions>
      </trkpt>
      <trkpt lat="43.4596605040132999420166015625" lon="1.47592507302761077880859375">
        <ele>285</ele>
        <time>2026-08-05T07:32:47.000Z</time>
        <extensions>
          <ns3:TrackPointExtension>
            <ns3:hr>92</ns3:hr>
            <ns3:cad>0</ns3:cad>
          </ns3:TrackPointExtension>
        </extensions>
      </trkpt>
      <trkpt lat="43.4596651978790760040283203125" lon="1.4759275875985622406005859375">
        <ele>284.79998779296875</ele>
        <time>2026-08-05T07:32:48.000Z</time>
        <extensions>
          <ns3:TrackPointExtension>
            <ns3:hr>91</ns3:hr>
            <ns3:cad>0</ns3:cad>
          </ns3:TrackPointExtension>
        </extensions>
      </trkpt>
      <trkpt lat="43.45966964028775691986083984375" lon="1.4759322814643383026123046875">
        <ele>284.79998779296875</ele>
        <time>2026-08-05T07:32:49.000Z</time>
        <extensions>
          <ns3:TrackPointExtension>
            <ns3:hr>91</ns3:hr>
            <ns3:cad>0</ns3:cad>
          </ns3:TrackPointExtension>
        </extensions>
      </trkpt>
      <trkpt lat="43.4596765972673892974853515625" lon="1.47594007663428783416748046875">
        <ele>284.79998779296875</ele>
        <time>2026-08-05T07:32:50.000Z</time>
        <extensions>
          <ns3:TrackPointExtension>
            <ns3:hr>91</ns3:hr>
            <ns3:cad>0</ns3:cad>
          </ns3:TrackPointExtension>
        </extensions>
      </trkpt>
      <trkpt lat="43.459681458771228790283203125" lon="1.47594175301492214202880859375">
        <ele>284.79998779296875</ele>
        <time>2026-08-05T07:32:51.000Z</time>
        <extensions>
          <ns3:TrackPointExtension>
            <ns3:hr>91</ns3:hr>
            <ns3:cad>41</ns3:cad>
          </ns3:TrackPointExtension>
        </extensions>
      </trkpt>
      <trkpt lat="43.4596869908273220062255859375" lon="1.47594694979488849639892578125">
        <ele>284.79998779296875</ele>
        <time>2026-08-05T07:32:52.000Z</time>
        <extensions>
          <ns3:TrackPointExtension>
            <ns3:hr>91</ns3:hr>
            <ns3:cad>41</ns3:cad>
          </ns3:TrackPointExtension>
        </extensions>
      </trkpt>
      <trkpt lat="43.45969344489276409149169921875" lon="1.475954912602901458740234375">
        <ele>284.79998779296875</ele>
        <time>2026-08-05T07:32:53.000Z</time>
        <extensions>
          <ns3:TrackPointExtension>
            <ns3:hr>91</ns3:hr>
            <ns3:cad>80</ns3:cad>
          </ns3:TrackPointExtension>
        </extensions>
      </trkpt>
      <trkpt lat="43.45970098860561847686767578125" lon="1.4759631268680095672607421875">
        <ele>284.79998779296875</ele>
        <time>2026-08-05T07:32:54.000Z</time>
        <extensions>
          <ns3:TrackPointExtension>
            <ns3:hr>90</ns3:hr>
            <ns3:cad>80</ns3:cad>
          </ns3:TrackPointExtension>
        </extensions>
      </trkpt>
      <trkpt lat="43.4597077779471874237060546875" lon="1.47597326897084712982177734375">
        <ele>284.79998779296875</ele>
        <time>2026-08-05T07:32:55.000Z</time>
        <extensions>
          <ns3:TrackPointExtension>
            <ns3:hr>90</ns3:hr>
            <ns3:cad>43</ns3:cad>
          </ns3:TrackPointExtension>
        </extensions>
      </trkpt>
      <trkpt lat="43.4597131423652172088623046875" lon="1.475977711379528045654296875">
        <ele>284.600006103515625</ele>
        <time>2026-08-05T07:32:56.000Z</time>
        <extensions>
          <ns3:TrackPointExtension>
            <ns3:hr>90</ns3:hr>
            <ns3:cad>43</ns3:cad>
          </ns3:TrackPointExtension>
        </extensions>
      </trkpt>
      <trkpt lat="43.45971758477389812469482421875" lon="1.47598332725465297698974609375">
        <ele>284.600006103515625</ele>
        <time>2026-08-05T07:32:57.000Z</time>
        <extensions>
          <ns3:TrackPointExtension>
            <ns3:hr>90</ns3:hr>
            <ns3:cad>43</ns3:cad>
          </ns3:TrackPointExtension>
        </extensions>
      </trkpt>
      <trkpt lat="43.459723703563213348388671875" lon="1.4759882725775241851806640625">
        <ele>284.600006103515625</ele>
        <time>2026-08-05T07:32:58.000Z</time>
        <extensions>
          <ns3:TrackPointExtension>
            <ns3:hr>90</ns3:hr>
            <ns3:cad>41</ns3:cad>
          </ns3:TrackPointExtension>
        </extensions>
      </trkpt>
      <trkpt lat="43.45972537994384765625" lon="1.47599212825298309326171875">
        <ele>284.600006103515625</ele>
        <time>2026-08-05T07:32:59.000Z</time>
        <extensions>
          <ns3:TrackPointExtension>
            <ns3:hr>90</ns3:hr>
            <ns3:cad>41</ns3:cad>
          </ns3:TrackPointExtension>
        </extensions>
      </trkpt>
      <trkpt lat="43.45972697250545024871826171875" lon="1.47599640302360057830810546875">
        <ele>284.600006103515625</ele>
        <time>2026-08-05T07:33:00.000Z</time>
        <extensions>
          <ns3:TrackPointExtension>
            <ns3:hr>90</ns3:hr>
            <ns3:cad>43</ns3:cad>
          </ns3:TrackPointExtension>
        </extensions>
      </trkpt>
      <trkpt lat="43.4597346000373363494873046875" lon="1.475997157394886016845703125">
        <ele>284.399993896484375</ele>
        <time>2026-08-05T07:33:01.000Z</time>
        <extensions>
          <ns3:TrackPointExtension>
            <ns3:hr>90</ns3:hr>
            <ns3:cad>43</ns3:cad>
          </ns3:TrackPointExtension>
        </extensions>
      </trkpt>
      <trkpt lat="43.4597413055598735809326171875" lon="1.4759919606149196624755859375">
        <ele>284.399993896484375</ele>
        <time>2026-08-05T07:33:02.000Z</time>
        <extensions>
          <ns3:TrackPointExtension>
            <ns3:hr>89</ns3:hr>
            <ns3:cad>43</ns3:cad>
          </ns3:TrackPointExtension>
        </extensions>
      </trkpt>
      <trkpt lat="43.45974616706371307373046875" lon="1.4759933017194271087646484375">
        <ele>284.399993896484375</ele>
        <time>2026-08-05T07:33:03.000Z</time>
        <extensions>
          <ns3:TrackPointExtension>
            <ns3:hr>89</ns3:hr>
            <ns3:cad>42</ns3:cad>
          </ns3:TrackPointExtension>
        </extensions>
      </trkpt>
      <trkpt lat="43.4597543813288211822509765625" lon="1.47599707357585430145263671875">
        <ele>284.20001220703125</ele>
        <time>2026-08-05T07:33:04.000Z</time>
        <extensions>
          <ns3:TrackPointExtension>
            <ns3:hr>89</ns3:hr>
            <ns3:cad>41</ns3:cad>
          </ns3:TrackPointExtension>
        </extensions>
      </trkpt>
      <trkpt lat="43.45975982956588268280029296875" lon="1.476005204021930694580078125">
        <ele>284.20001220703125</ele>
        <time>2026-08-05T07:33:05.000Z</time>
        <extensions>
          <ns3:TrackPointExtension>
            <ns3:hr>88</ns3:hr>
            <ns3:cad>41</ns3:cad>
          </ns3:TrackPointExtension>
        </extensions>
      </trkpt>
      <trkpt lat="43.45976469106972217559814453125" lon="1.4760130830109119415283203125">
        <ele>284.20001220703125</ele>
        <time>2026-08-05T07:33:06.000Z</time>
        <extensions>
          <ns3:TrackPointExtension>
            <ns3:hr>87</ns3:hr>
            <ns3:cad>41</ns3:cad>
          </ns3:TrackPointExtension>
        </extensions>
      </trkpt>
      <trkpt lat="43.45976896584033966064453125" lon="1.4760134182870388031005859375">
        <ele>284.399993896484375</ele>
        <time>2026-08-05T07:33:07.000Z</time>
        <extensions>
          <ns3:TrackPointExtension>
            <ns3:hr>87</ns3:hr>
            <ns3:cad>41</ns3:cad>
          </ns3:TrackPointExtension>
        </extensions>
      </trkpt>
      <trkpt lat="43.45977039076387882232666015625" lon="1.47601224482059478759765625">
        <ele>284.399993896484375</ele>
        <time>2026-08-05T07:33:08.000Z</time>
        <extensions>
          <ns3:TrackPointExtension>
            <ns3:hr>86</ns3:hr>
            <ns3:cad>41</ns3:cad>
          </ns3:TrackPointExtension>
        </extensions>
      </trkpt>
      <trkpt lat="43.4597696363925933837890625" lon="1.47600822150707244873046875">
        <ele>284.399993896484375</ele>
        <time>2026-08-05T07:33:09.000Z</time>
        <extensions>
          <ns3:TrackPointExtension>
            <ns3:hr>86</ns3:hr>
            <ns3:cad>0</ns3:cad>
          </ns3:TrackPointExtension>
        </extensions>
      </trkpt>
      <trkpt lat="43.4597694687545299530029296875" lon="1.47600822150707244873046875">
        <ele>284.600006103515625</ele>
        <time>2026-08-05T07:33:10.000Z</time>
        <extensions>
          <ns3:TrackPointExtension>
            <ns3:hr>86</ns3:hr>
            <ns3:cad>0</ns3:cad>
          </ns3:TrackPointExtension>
        </extensions>
      </trkpt>
      <trkpt lat="43.4597694687545299530029296875" lon="1.47600822150707244873046875">
        <ele>284.600006103515625</ele>
        <time>2026-08-05T07:33:11.000Z</time>
        <extensions>
          <ns3:TrackPointExtension>
            <ns3:hr>85</ns3:hr>
            <ns3:cad>0</ns3:cad>
          </ns3:TrackPointExtension>
        </extensions>
      </trkpt>
      <trkpt lat="43.4597694687545299530029296875" lon="1.47600822150707244873046875">
        <ele>284.399993896484375</ele>
        <time>2026-08-05T07:33:12.000Z</time>
        <extensions>
          <ns3:TrackPointExtension>
            <ns3:hr>85</ns3:hr>
            <ns3:cad>0</ns3:cad>
          </ns3:TrackPointExtension>
        </extensions>
      </trkpt>
      <trkpt lat="43.4597694687545299530029296875" lon="1.47600822150707244873046875">
        <ele>284.399993896484375</ele>
        <time>2026-08-05T07:33:13.000Z</time>
        <extensions>
          <ns3:TrackPointExtension>
            <ns3:hr>85</ns3:hr>
            <ns3:cad>0</ns3:cad>
          </ns3:TrackPointExtension>
        </extensions>
      </trkpt>
      <trkpt lat="43.4597694687545299530029296875" lon="1.47600822150707244873046875">
        <ele>284.399993896484375</ele>
        <time>2026-08-05T07:33:14.000Z</time>
        <extensions>
          <ns3:TrackPointExtension>
            <ns3:hr>85</ns3:hr>
            <ns3:cad>0</ns3:cad>
          </ns3:TrackPointExtension>
        </extensions>
      </trkpt>
      <trkpt lat="43.4597694687545299530029296875" lon="1.47600822150707244873046875">
        <ele>284.399993896484375</ele>
        <time>2026-08-05T07:33:15.000Z</time>
        <extensions>
          <ns3:TrackPointExtension>
            <ns3:hr>85</ns3:hr>
            <ns3:cad>0</ns3:cad>
          </ns3:TrackPointExtension>
        </extensions>
      </trkpt>
      <trkpt lat="43.4597694687545299530029296875" lon="1.47600822150707244873046875">
        <ele>284.399993896484375</ele>
        <time>2026-08-05T07:33:16.000Z</time>
        <extensions>
          <ns3:TrackPointExtension>
            <ns3:hr>85</ns3:hr>
            <ns3:cad>0</ns3:cad>
          </ns3:TrackPointExtension>
        </extensions>
      </trkpt>
      <trkpt lat="43.4597694687545299530029296875" lon="1.47600822150707244873046875">
        <ele>284.399993896484375</ele>
        <time>2026-08-05T07:33:17.000Z</time>
        <extensions>
          <ns3:TrackPointExtension>
            <ns3:hr>85</ns3:hr>
            <ns3:cad>0</ns3:cad>
          </ns3:TrackPointExtension>
        </extensions>
      </trkpt>
      <trkpt lat="43.4597694687545299530029296875" lon="1.47600822150707244873046875">
        <ele>284.399993896484375</ele>
        <time>2026-08-05T07:33:18.000Z</time>
        <extensions>
          <ns3:TrackPointExtension>
            <ns3:hr>85</ns3:hr>
            <ns3:cad>0</ns3:cad>
          </ns3:TrackPointExtension>
        </extensions>
      </trkpt>
      <trkpt lat="43.4597694687545299530029296875" lon="1.47600822150707244873046875">
        <ele>284.399993896484375</ele>
        <time>2026-08-05T07:33:19.000Z</time>
        <extensions>
          <ns3:TrackPointExtension>
            <ns3:hr>85</ns3:hr>
            <ns3:cad>0</ns3:cad>
          </ns3:TrackPointExtension>
        </extensions>
      </trkpt>
      <trkpt lat="43.4597694687545299530029296875" lon="1.47600822150707244873046875">
        <ele>284.399993896484375</ele>
        <time>2026-08-05T07:33:20.000Z</time>
        <extensions>
          <ns3:TrackPointExtension>
            <ns3:hr>86</ns3:hr>
            <ns3:cad>0</ns3:cad>
          </ns3:TrackPointExtension>
        </extensions>
      </trkpt>
      <trkpt lat="43.4597694687545299530029296875" lon="1.47600822150707244873046875">
        <ele>284.399993896484375</ele>
        <time>2026-08-05T07:33:21.000Z</time>
        <extensions>
          <ns3:TrackPointExtension>
            <ns3:hr>86</ns3:hr>
            <ns3:cad>0</ns3:cad>
          </ns3:TrackPointExtension>
        </extensions>
      </trkpt>
      <trkpt lat="43.4597694687545299530029296875" lon="1.47600822150707244873046875">
        <ele>284.399993896484375</ele>
        <time>2026-08-05T07:33:22.000Z</time>
        <extensions>
          <ns3:TrackPointExtension>
            <ns3:hr>86</ns3:hr>
            <ns3:cad>0</ns3:cad>
          </ns3:TrackPointExtension>
        </extensions>
      </trkpt>
      <trkpt lat="43.4597694687545299530029296875" lon="1.47600822150707244873046875">
        <ele>284.399993896484375</ele>
        <time>2026-08-05T07:33:23.000Z</time>
        <extensions>
          <ns3:TrackPointExtension>
            <ns3:hr>85</ns3:hr>
            <ns3:cad>0</ns3:cad>
          </ns3:TrackPointExtension>
        </extensions>
      </trkpt>
      <trkpt lat="43.4597694687545299530029296875" lon="1.47600822150707244873046875">
        <ele>284.20001220703125</ele>
        <time>2026-08-05T07:33:24.000Z</time>
        <extensions>
          <ns3:TrackPointExtension>
            <ns3:hr>86</ns3:hr>
            <ns3:cad>0</ns3:cad>
          </ns3:TrackPointExtension>
        </extensions>
      </trkpt>
      <trkpt lat="43.4597694687545299530029296875" lon="1.47600822150707244873046875">
        <ele>284.20001220703125</ele>
        <time>2026-08-05T07:33:25.000Z</time>
        <extensions>
          <ns3:TrackPointExtension>
            <ns3:hr>86</ns3:hr>
            <ns3:cad>0</ns3:cad>
          </ns3:TrackPointExtension>
        </extensions>
      </trkpt>
      <trkpt lat="43.4597694687545299530029296875" lon="1.47600822150707244873046875">
        <ele>284.20001220703125</ele>
        <time>2026-08-05T07:33:26.000Z</time>
        <extensions>
          <ns3:TrackPointExtension>
            <ns3:hr>86</ns3:hr>
            <ns3:cad>0</ns3:cad>
          </ns3:TrackPointExtension>
        </extensions>
      </trkpt>
      <trkpt lat="43.4597694687545299530029296875" lon="1.47600822150707244873046875">
        <ele>284.20001220703125</ele>
        <time>2026-08-05T07:33:27.000Z</time>
        <extensions>
          <ns3:TrackPointExtension>
            <ns3:hr>85</ns3:hr>
            <ns3:cad>0</ns3:cad>
          </ns3:TrackPointExtension>
        </extensions>
      </trkpt>
      <trkpt lat="43.4597694687545299530029296875" lon="1.47600822150707244873046875">
        <ele>284.20001220703125</ele>
        <time>2026-08-05T07:33:28.000Z</time>
        <extensions>
          <ns3:TrackPointExtension>
            <ns3:hr>86</ns3:hr>
            <ns3:cad>0</ns3:cad>
          </ns3:TrackPointExtension>
        </extensions>
      </trkpt>
      <trkpt lat="43.4597694687545299530029296875" lon="1.47600822150707244873046875">
        <ele>284.20001220703125</ele>
        <time>2026-08-05T07:33:29.000Z</time>
        <extensions>
          <ns3:TrackPointExtension>
            <ns3:hr>86</ns3:hr>
            <ns3:cad>0</ns3:cad>
          </ns3:TrackPointExtension>
        </extensions>
      </trkpt>
      <trkpt lat="43.4597694687545299530029296875" lon="1.47600822150707244873046875">
        <ele>284.20001220703125</ele>
        <time>2026-08-05T07:33:30.000Z</time>
        <extensions>
          <ns3:TrackPointExtension>
            <ns3:hr>85</ns3:hr>
            <ns3:cad>0</ns3:cad>
          </ns3:TrackPointExtension>
        </extensions>
      </trkpt>
      <trkpt lat="43.4597694687545299530029296875" lon="1.47600822150707244873046875">
        <ele>284.20001220703125</ele>
        <time>2026-08-05T07:33:31.000Z</time>
        <extensions>
          <ns3:TrackPointExtension>
            <ns3:hr>86</ns3:hr>
            <ns3:cad>0</ns3:cad>
          </ns3:TrackPointExtension>
        </extensions>
      </trkpt>
      <trkpt lat="43.4597694687545299530029296875" lon="1.47600822150707244873046875">
        <ele>284.20001220703125</ele>
        <time>2026-08-05T07:33:32.000Z</time>
        <extensions>
          <ns3:TrackPointExtension>
            <ns3:hr>87</ns3:hr>
            <ns3:cad>0</ns3:cad>
          </ns3:TrackPointExtension>
        </extensions>
      </trkpt>
      <trkpt lat="43.4597694687545299530029296875" lon="1.47600822150707244873046875">
        <ele>284.20001220703125</ele>
        <time>2026-08-05T07:33:33.000Z</time>
        <extensions>
          <ns3:TrackPointExtension>
            <ns3:hr>87</ns3:hr>
            <ns3:cad>0</ns3:cad>
          </ns3:TrackPointExtension>
        </extensions>
      </trkpt>
      <trkpt lat="43.4597694687545299530029296875" lon="1.47600822150707244873046875">
        <ele>284.20001220703125</ele>
        <time>2026-08-05T07:33:34.000Z</time>
        <extensions>
          <ns3:TrackPointExtension>
            <ns3:hr>87</ns3:hr>
            <ns3:cad>0</ns3:cad>
          </ns3:TrackPointExtension>
        </extensions>
      </trkpt>
      <trkpt lat="43.4597694687545299530029296875" lon="1.47600822150707244873046875">
        <ele>284.20001220703125</ele>
        <time>2026-08-05T07:33:35.000Z</time>
        <extensions>
          <ns3:TrackPointExtension>
            <ns3:hr>87</ns3:hr>
            <ns3:cad>0</ns3:cad>
          </ns3:TrackPointExtension>
        </extensions>
      </trkpt>
      <trkpt lat="43.4597694687545299530029296875" lon="1.47600822150707244873046875">
        <ele>284.20001220703125</ele>
        <time>2026-08-05T07:33:36.000Z</time>
        <extensions>
          <ns3:TrackPointExtension>
            <ns3:hr>86</ns3:hr>
            <ns3:cad>0</ns3:cad>
          </ns3:TrackPointExtension>
        </extensions>
      </trkpt>
      <trkpt lat="43.4597694687545299530029296875" lon="1.47600822150707244873046875">
        <ele>284.20001220703125</ele>
        <time>2026-08-05T07:33:37.000Z</time>
        <extensions>
          <ns3:TrackPointExtension>
            <ns3:hr>86</ns3:hr>
            <ns3:cad>0</ns3:cad>
          </ns3:TrackPointExtension>
        </extensions>
      </trkpt>
      <trkpt lat="43.459770977497100830078125" lon="1.47600864060223102569580078125">
        <ele>284.20001220703125</ele>
        <time>2026-08-05T07:33:38.000Z</time>
        <extensions>
          <ns3:TrackPointExtension>
            <ns3:hr>85</ns3:hr>
            <ns3:cad>0</ns3:cad>
          </ns3:TrackPointExtension>
        </extensions>
      </trkpt>
      <trkpt lat="43.45976938493549823760986328125" lon="1.47600688040256500244140625">
        <ele>284</ele>
        <time>2026-08-05T07:33:39.000Z</time>
        <extensions>
          <ns3:TrackPointExtension>
            <ns3:hr>85</ns3:hr>
            <ns3:cad>0</ns3:cad>
          </ns3:TrackPointExtension>
        </extensions>
      </trkpt>
      <trkpt lat="43.45976670272648334503173828125" lon="1.4760040305554866790771484375">
        <ele>284</ele>
        <time>2026-08-05T07:33:40.000Z</time>
        <extensions>
          <ns3:TrackPointExtension>
            <ns3:hr>85</ns3:hr>
            <ns3:cad>0</ns3:cad>
          </ns3:TrackPointExtension>
        </extensions>
      </trkpt>
      <trkpt lat="43.4597614221274852752685546875" lon="1.47600746713578701019287109375">
        <ele>284</ele>
        <time>2026-08-05T07:33:41.000Z</time>
        <extensions>
          <ns3:TrackPointExtension>
            <ns3:hr>85</ns3:hr>
            <ns3:cad>0</ns3:cad>
          </ns3:TrackPointExtension>
        </extensions>
      </trkpt>
      <trkpt lat="43.4597694687545299530029296875" lon="1.47600822150707244873046875">
        <ele>284</ele>
        <time>2026-08-05T07:33:42.000Z</time>
        <extensions>
          <ns3:TrackPointExtension>
            <ns3:hr>84</ns3:hr>
            <ns3:cad>0</ns3:cad>
          </ns3:TrackPointExtension>
        </extensions>
      </trkpt>
      <trkpt lat="43.4597694687545299530029296875" lon="1.47600822150707244873046875">
        <ele>284</ele>
        <time>2026-08-05T07:33:43.000Z</time>
        <extensions>
          <ns3:TrackPointExtension>
            <ns3:hr>84</ns3:hr>
            <ns3:cad>0</ns3:cad>
          </ns3:TrackPointExtension>
        </extensions>
      </trkpt>
      <trkpt lat="43.4597694687545299530029296875" lon="1.47600822150707244873046875">
        <ele>284</ele>
        <time>2026-08-05T07:33:44.000Z</time>
        <extensions>
          <ns3:TrackPointExtension>
            <ns3:hr>84</ns3:hr>
            <ns3:cad>0</ns3:cad>
          </ns3:TrackPointExtension>
        </extensions>
      </trkpt>
      <trkpt lat="43.4597694687545299530029296875" lon="1.47600822150707244873046875">
        <ele>284.20001220703125</ele>
        <time>2026-08-05T07:33:45.000Z</time>
        <extensions>
          <ns3:TrackPointExtension>
            <ns3:hr>83</ns3:hr>
            <ns3:cad>0</ns3:cad>
          </ns3:TrackPointExtension>
        </extensions>
      </trkpt>
      <trkpt lat="43.45975915901362895965576171875" lon="1.47600612603127956390380859375">
        <ele>284.20001220703125</ele>
        <time>2026-08-05T07:33:46.000Z</time>
        <extensions>
          <ns3:TrackPointExtension>
            <ns3:hr>82</ns3:hr>
            <ns3:cad>0</ns3:cad>
          </ns3:TrackPointExtension>
        </extensions>
      </trkpt>
      <trkpt lat="43.45975547097623348236083984375" lon="1.476009227335453033447265625">
        <ele>284.20001220703125</ele>
        <time>2026-08-05T07:33:47.000Z</time>
        <extensions>
          <ns3:TrackPointExtension>
            <ns3:hr>81</ns3:hr>
            <ns3:cad>0</ns3:cad>
          </ns3:TrackPointExtension>
        </extensions>
      </trkpt>
      <trkpt lat="43.45975513570010662078857421875" lon="1.4760090596973896026611328125">
        <ele>284.20001220703125</ele>
        <time>2026-08-05T07:33:48.000Z</time>
        <extensions>
          <ns3:TrackPointExtension>
            <ns3:hr>81</ns3:hr>
            <ns3:cad>0</ns3:cad>
          </ns3:TrackPointExtension>
        </extensions>
      </trkpt>
      <trkpt lat="43.4597550518810749053955078125" lon="1.4760090596973896026611328125">
        <ele>284.20001220703125</ele>
        <time>2026-08-05T07:33:49.000Z</time>
        <extensions>
          <ns3:TrackPointExtension>
            <ns3:hr>78</ns3:hr>
            <ns3:cad>0</ns3:cad>
          </ns3:TrackPointExtension>
        </extensions>
      </trkpt>
      <trkpt lat="43.45975027419626712799072265625" lon="1.47600227035582065582275390625">
        <ele>284.20001220703125</ele>
        <time>2026-08-05T07:33:50.000Z</time>
        <extensions>
          <ns3:TrackPointExtension>
            <ns3:hr>77</ns3:hr>
            <ns3:cad>0</ns3:cad>
          </ns3:TrackPointExtension>
        </extensions>
      </trkpt>
      <trkpt lat="43.45974843017756938934326171875" lon="1.47599690593779087066650390625">
        <ele>284</ele>
        <time>2026-08-05T07:33:51.000Z</time>
        <extensions>
          <ns3:TrackPointExtension>
            <ns3:hr>76</ns3:hr>
            <ns3:cad>0</ns3:cad>
          </ns3:TrackPointExtension>
        </extensions>
      </trkpt>
      <trkpt lat="43.45974038355052471160888671875" lon="1.47598835639655590057373046875">
        <ele>284</ele>
        <time>2026-08-05T07:33:52.000Z</time>
        <extensions>
          <ns3:TrackPointExtension>
            <ns3:hr>77</ns3:hr>
            <ns3:cad>0</ns3:cad>
          </ns3:TrackPointExtension>
        </extensions>
      </trkpt>
      <trkpt lat="43.459731750190258026123046875" lon="1.4759798906743526458740234375">
        <ele>284.20001220703125</ele>
        <time>2026-08-05T07:33:53.000Z</time>
        <extensions>
          <ns3:TrackPointExtension>
            <ns3:hr>77</ns3:hr>
            <ns3:cad>0</ns3:cad>
          </ns3:TrackPointExtension>
        </extensions>
      </trkpt>
      <trkpt lat="43.45972202718257904052734375" lon="1.47597067058086395263671875">
        <ele>284.20001220703125</ele>
        <time>2026-08-05T07:33:54.000Z</time>
        <extensions>
          <ns3:TrackPointExtension>
            <ns3:hr>77</ns3:hr>
            <ns3:cad>0</ns3:cad>
          </ns3:TrackPointExtension>
        </extensions>
      </trkpt>
      <trkpt lat="43.45971532166004180908203125" lon="1.47596488706767559051513671875">
        <ele>284.20001220703125</ele>
        <time>2026-08-05T07:33:55.000Z</time>
        <extensions>
          <ns3:TrackPointExtension>
            <ns3:hr>77</ns3:hr>
            <ns3:cad>0</ns3:cad>
          </ns3:TrackPointExtension>
        </extensions>
      </trkpt>
      <trkpt lat="43.45971305854618549346923828125" lon="1.47595717571675777435302734375">
        <ele>284.399993896484375</ele>
        <time>2026-08-05T07:33:56.000Z</time>
        <extensions>
          <ns3:TrackPointExtension>
            <ns3:hr>78</ns3:hr>
            <ns3:cad>0</ns3:cad>
          </ns3:TrackPointExtension>
        </extensions>
      </trkpt>
      <trkpt lat="43.4597044251859188079833984375" lon="1.47594376467168331146240234375">
        <ele>284.399993896484375</ele>
        <time>2026-08-05T07:33:57.000Z</time>
        <extensions>
          <ns3:TrackPointExtension>
            <ns3:hr>78</ns3:hr>
            <ns3:cad>0</ns3:cad>
          </ns3:TrackPointExtension>
        </extensions>
      </trkpt>
      <trkpt lat="43.45969243906438350677490234375" lon="1.47593253292143344879150390625">
        <ele>284.399993896484375</ele>
        <time>2026-08-05T07:33:58.000Z</time>
        <extensions>
          <ns3:TrackPointExtension>
            <ns3:hr>80</ns3:hr>
            <ns3:cad>0</ns3:cad>
          </ns3:TrackPointExtension>
        </extensions>
      </trkpt>
      <trkpt lat="43.45968405716121196746826171875" lon="1.47592448629438877105712890625">
        <ele>284.399993896484375</ele>
        <time>2026-08-05T07:33:59.000Z</time>
        <extensions>
          <ns3:TrackPointExtension>
            <ns3:hr>82</ns3:hr>
            <ns3:cad>0</ns3:cad>
          </ns3:TrackPointExtension>
        </extensions>
      </trkpt>
      <trkpt lat="43.45967785455286502838134765625" lon="1.47591694258153438568115234375">
        <ele>284.399993896484375</ele>
        <time>2026-08-05T07:34:00.000Z</time>
        <extensions>
          <ns3:TrackPointExtension>
            <ns3:hr>82</ns3:hr>
            <ns3:cad>0</ns3:cad>
          </ns3:TrackPointExtension>
        </extensions>
      </trkpt>
      <trkpt lat="43.45967332832515239715576171875" lon="1.47591006942093372344970703125">
        <ele>284.399993896484375</ele>
        <time>2026-08-05T07:34:01.000Z</time>
        <extensions>
          <ns3:TrackPointExtension>
            <ns3:hr>83</ns3:hr>
            <ns3:cad>49</ns3:cad>
          </ns3:TrackPointExtension>
        </extensions>
      </trkpt>
      <trkpt lat="43.4596668742597103118896484375" lon="1.47590302862226963043212890625">
        <ele>284.600006103515625</ele>
        <time>2026-08-05T07:34:02.000Z</time>
        <extensions>
          <ns3:TrackPointExtension>
            <ns3:hr>84</ns3:hr>
            <ns3:cad>49</ns3:cad>
          </ns3:TrackPointExtension>
        </extensions>
      </trkpt>
      <trkpt lat="43.4596623480319976806640625" lon="1.47589615546166896820068359375">
        <ele>284.600006103515625</ele>
        <time>2026-08-05T07:34:03.000Z</time>
        <extensions>
          <ns3:TrackPointExtension>
            <ns3:hr>84</ns3:hr>
            <ns3:cad>49</ns3:cad>
          </ns3:TrackPointExtension>
        </extensions>
      </trkpt>
      <trkpt lat="43.45965723507106304168701171875" lon="1.47588810883462429046630859375">
        <ele>284.600006103515625</ele>
        <time>2026-08-05T07:34:04.000Z</time>
        <extensions>
          <ns3:TrackPointExtension>
            <ns3:hr>84</ns3:hr>
            <ns3:cad>49</ns3:cad>
          </ns3:TrackPointExtension>
        </extensions>
      </trkpt>
      <trkpt lat="43.459650613367557525634765625" lon="1.475879810750484466552734375">
        <ele>284.600006103515625</ele>
        <time>2026-08-05T07:34:05.000Z</time>
        <extensions>
          <ns3:TrackPointExtension>
            <ns3:hr>84</ns3:hr>
            <ns3:cad>47</ns3:cad>
          </ns3:TrackPointExtension>
        </extensions>
      </trkpt>
      <trkpt lat="43.45964767970144748687744140625" lon="1.4758736081421375274658203125">
        <ele>284.600006103515625</ele>
        <time>2026-08-05T07:34:06.000Z</time>
        <extensions>
          <ns3:TrackPointExtension>
            <ns3:hr>84</ns3:hr>
            <ns3:cad>47</ns3:cad>
          </ns3:TrackPointExtension>
        </extensions>
      </trkpt>
      <trkpt lat="43.45964097417891025543212890625" lon="1.47586497478187084197998046875">
        <ele>284.600006103515625</ele>
        <time>2026-08-05T07:34:07.000Z</time>
        <extensions>
          <ns3:TrackPointExtension>
            <ns3:hr>84</ns3:hr>
            <ns3:cad>47</ns3:cad>
          </ns3:TrackPointExtension>
        </extensions>
      </trkpt>
      <trkpt lat="43.45963309518992900848388671875" lon="1.475851647555828094482421875">
        <ele>284.79998779296875</ele>
        <time>2026-08-05T07:34:08.000Z</time>
        <extensions>
          <ns3:TrackPointExtension>
            <ns3:hr>84</ns3:hr>
            <ns3:cad>47</ns3:cad>
          </ns3:TrackPointExtension>
        </extensions>
      </trkpt>
      <trkpt lat="43.45962823368608951568603515625" lon="1.47584703750908374786376953125">
        <ele>284.79998779296875</ele>
        <time>2026-08-05T07:34:09.000Z</time>
        <extensions>
          <ns3:TrackPointExtension>
            <ns3:hr>83</ns3:hr>
            <ns3:cad>47</ns3:cad>
          </ns3:TrackPointExtension>
        </extensions>
      </trkpt>
      <trkpt lat="43.45962286926805973052978515625" lon="1.47583446465432643890380859375">
        <ele>284.79998779296875</ele>
        <time>2026-08-05T07:34:10.000Z</time>
        <extensions>
          <ns3:TrackPointExtension>
            <ns3:hr>83</ns3:hr>
            <ns3:cad>47</ns3:cad>
          </ns3:TrackPointExtension>
        </extensions>
      </trkpt>
      <trkpt lat="43.4596172533929347991943359375" lon="1.47582842968404293060302734375">
        <ele>284.79998779296875</ele>
        <time>2026-08-05T07:34:11.000Z</time>
        <extensions>
          <ns3:TrackPointExtension>
            <ns3:hr>83</ns3:hr>
            <ns3:cad>41</ns3:cad>
          </ns3:TrackPointExtension>
        </extensions>
      </trkpt>
      <trkpt lat="43.459611721336841583251953125" lon="1.4758213050663471221923828125">
        <ele>284.79998779296875</ele>
        <time>2026-08-05T07:34:12.000Z</time>
        <extensions>
          <ns3:TrackPointExtension>
            <ns3:hr>83</ns3:hr>
            <ns3:cad>41</ns3:cad>
          </ns3:TrackPointExtension>
        </extensions>
      </trkpt>
      <trkpt lat="43.459607027471065521240234375" lon="1.47581334225833415985107421875">
        <ele>284.79998779296875</ele>
        <time>2026-08-05T07:34:13.000Z</time>
        <extensions>
          <ns3:TrackPointExtension>
            <ns3:hr>84</ns3:hr>
            <ns3:cad>41</ns3:cad>
          </ns3:TrackPointExtension>
        </extensions>
      </trkpt>
      <trkpt lat="43.45959587953984737396240234375" lon="1.47580211050808429718017578125">
        <ele>284.600006103515625</ele>
        <time>2026-08-05T07:34:14.000Z</time>
        <extensions>
          <ns3:TrackPointExtension>
            <ns3:hr>83</ns3:hr>
            <ns3:cad>41</ns3:cad>
          </ns3:TrackPointExtension>
        </extensions>
      </trkpt>
      <trkpt lat="43.4595870785415172576904296875" lon="1.47579724900424480438232421875">
        <ele>284.600006103515625</ele>
        <time>2026-08-05T07:34:15.000Z</time>
        <extensions>
          <ns3:TrackPointExtension>
            <ns3:hr>83</ns3:hr>
            <ns3:cad>41</ns3:cad>
          </ns3:TrackPointExtension>
        </extensions>
      </trkpt>
      <trkpt lat="43.45958230085670948028564453125" lon="1.4757902920246124267578125">
        <ele>284.600006103515625</ele>
        <time>2026-08-05T07:34:16.000Z</time>
        <extensions>
          <ns3:TrackPointExtension>
            <ns3:hr>83</ns3:hr>
            <ns3:cad>41</ns3:cad>
          </ns3:TrackPointExtension>
        </extensions>
      </trkpt>
      <trkpt lat="43.45957308076322078704833984375" lon="1.47578149102628231048583984375">
        <ele>284.600006103515625</ele>
        <time>2026-08-05T07:34:17.000Z</time>
        <extensions>
          <ns3:TrackPointExtension>
            <ns3:hr>84</ns3:hr>
            <ns3:cad>41</ns3:cad>
          </ns3:TrackPointExtension>
        </extensions>
      </trkpt>
      <trkpt lat="43.45956536941230297088623046875" lon="1.47577445022761821746826171875">
        <ele>284.600006103515625</ele>
        <time>2026-08-05T07:34:18.000Z</time>
        <extensions>
          <ns3:TrackPointExtension>
            <ns3:hr>84</ns3:hr>
            <ns3:cad>41</ns3:cad>
          </ns3:TrackPointExtension>
        </extensions>
      </trkpt>
      <trkpt lat="43.45955883152782917022705078125" lon="1.4757693372666835784912109375">
        <ele>284.399993896484375</ele>
        <time>2026-08-05T07:34:19.000Z</time>
        <extensions>
          <ns3:TrackPointExtension>
            <ns3:hr>85</ns3:hr>
            <ns3:cad>42</ns3:cad>
          </ns3:TrackPointExtension>
        </extensions>
      </trkpt>
      <trkpt lat="43.45955028198659420013427734375" lon="1.475763134658336639404296875">
        <ele>284.399993896484375</ele>
        <time>2026-08-05T07:34:20.000Z</time>
        <extensions>
          <ns3:TrackPointExtension>
            <ns3:hr>86</ns3:hr>
            <ns3:cad>42</ns3:cad>
          </ns3:TrackPointExtension>
        </extensions>
      </trkpt>
      <trkpt lat="43.45953921787440776824951171875" lon="1.47575802169740200042724609375">
        <ele>284.399993896484375</ele>
        <time>2026-08-05T07:34:21.000Z</time>
        <extensions>
          <ns3:TrackPointExtension>
            <ns3:hr>87</ns3:hr>
            <ns3:cad>41</ns3:cad>
          </ns3:TrackPointExtension>
        </extensions>
      </trkpt>
      <trkpt lat="43.4595337696373462677001953125" lon="1.47575383074581623077392578125">
        <ele>284.399993896484375</ele>
        <time>2026-08-05T07:34:22.000Z</time>
        <extensions>
          <ns3:TrackPointExtension>
            <ns3:hr>87</ns3:hr>
            <ns3:cad>41</ns3:cad>
          </ns3:TrackPointExtension>
        </extensions>
      </trkpt>
      <trkpt lat="43.45953200943768024444580078125" lon="1.47575475275516510009765625">
        <ele>284.399993896484375</ele>
        <time>2026-08-05T07:34:23.000Z</time>
        <extensions>
          <ns3:TrackPointExtension>
            <ns3:hr>87</ns3:hr>
            <ns3:cad>41</ns3:cad>
          </ns3:TrackPointExtension>
        </extensions>
      </trkpt>
      <trkpt lat="43.4595210291445255279541015625" lon="1.4757500588893890380859375">
        <ele>284.399993896484375</ele>
        <time>2026-08-05T07:34:24.000Z</time>
        <extensions>
          <ns3:TrackPointExtension>
            <ns3:hr>87</ns3:hr>
            <ns3:cad>41</ns3:cad>
          </ns3:TrackPointExtension>
        </extensions>
      </trkpt>
      <trkpt lat="43.4595160000026226043701171875" lon="1.4757462032139301300048828125">
        <ele>284.399993896484375</ele>
        <time>2026-08-05T07:34:25.000Z</time>
        <extensions>
          <ns3:TrackPointExtension>
            <ns3:hr>87</ns3:hr>
            <ns3:cad>41</ns3:cad>
          </ns3:TrackPointExtension>
        </extensions>
      </trkpt>
      <trkpt lat="43.45950870774686336517333984375" lon="1.47573958151042461395263671875">
        <ele>284.399993896484375</ele>
        <time>2026-08-05T07:34:26.000Z</time>
        <extensions>
          <ns3:TrackPointExtension>
            <ns3:hr>87</ns3:hr>
            <ns3:cad>41</ns3:cad>
          </ns3:TrackPointExtension>
        </extensions>
      </trkpt>
      <trkpt lat="43.45950015820562839508056640625" lon="1.47573254071176052093505859375">
        <ele>284.20001220703125</ele>
        <time>2026-08-05T07:34:27.000Z</time>
        <extensions>
          <ns3:TrackPointExtension>
            <ns3:hr>87</ns3:hr>
            <ns3:cad>41</ns3:cad>
          </ns3:TrackPointExtension>
        </extensions>
      </trkpt>
      <trkpt lat="43.45949496142566204071044921875" lon="1.4757234044373035430908203125">
        <ele>284.20001220703125</ele>
        <time>2026-08-05T07:34:28.000Z</time>
        <extensions>
          <ns3:TrackPointExtension>
            <ns3:hr>87</ns3:hr>
            <ns3:cad>41</ns3:cad>
          </ns3:TrackPointExtension>
        </extensions>
      </trkpt>
      <trkpt lat="43.45949043519794940948486328125" lon="1.47571845911443233489990234375">
        <ele>284.20001220703125</ele>
        <time>2026-08-05T07:34:29.000Z</time>
        <extensions>
          <ns3:TrackPointExtension>
            <ns3:hr>87</ns3:hr>
            <ns3:cad>41</ns3:cad>
          </ns3:TrackPointExtension>
        </extensions>
      </trkpt>
      <trkpt lat="43.45948741771280765533447265625" lon="1.4757136814296245574951171875">
        <ele>284</ele>
        <time>2026-08-05T07:34:30.000Z</time>
        <extensions>
          <ns3:TrackPointExtension>
            <ns3:hr>86</ns3:hr>
            <ns3:cad>41</ns3:cad>
          </ns3:TrackPointExtension>
        </extensions>
      </trkpt>
      <trkpt lat="43.4594834782183170318603515625" lon="1.47571275942027568817138671875">
        <ele>284</ele>
        <time>2026-08-05T07:34:31.000Z</time>
        <extensions>
          <ns3:TrackPointExtension>
            <ns3:hr>86</ns3:hr>
            <ns3:cad>41</ns3:cad>
          </ns3:TrackPointExtension>
        </extensions>
      </trkpt>
      <trkpt lat="43.459474258124828338623046875" lon="1.47571544162929058074951171875">
        <ele>284</ele>
        <time>2026-08-05T07:34:32.000Z</time>
        <extensions>
          <ns3:TrackPointExtension>
            <ns3:hr>86</ns3:hr>
            <ns3:cad>41</ns3:cad>
          </ns3:TrackPointExtension>
        </extensions>
      </trkpt>
      <trkpt lat="43.459468893706798553466796875" lon="1.47571577690541744232177734375">
        <ele>283.79998779296875</ele>
        <time>2026-08-05T07:34:33.000Z</time>
        <extensions>
          <ns3:TrackPointExtension>
            <ns3:hr>86</ns3:hr>
            <ns3:cad>44</ns3:cad>
          </ns3:TrackPointExtension>
        </extensions>
      </trkpt>
      <trkpt lat="43.45946319401264190673828125" lon="1.47571292705833911895751953125">
        <ele>283.79998779296875</ele>
        <time>2026-08-05T07:34:34.000Z</time>
        <extensions>
          <ns3:TrackPointExtension>
            <ns3:hr>86</ns3:hr>
            <ns3:cad>44</ns3:cad>
          </ns3:TrackPointExtension>
        </extensions>
      </trkpt>
      <trkpt lat="43.45945355482399463653564453125" lon="1.47570337168872356414794921875">
        <ele>283.79998779296875</ele>
        <time>2026-08-05T07:34:35.000Z</time>
        <extensions>
          <ns3:TrackPointExtension>
            <ns3:hr>85</ns3:hr>
            <ns3:cad>44</ns3:cad>
          </ns3:TrackPointExtension>
        </extensions>
      </trkpt>
      <trkpt lat="43.45945104025304317474365234375" lon="1.47569348104298114776611328125">
        <ele>283.79998779296875</ele>
        <time>2026-08-05T07:34:36.000Z</time>
        <extensions>
          <ns3:TrackPointExtension>
            <ns3:hr>85</ns3:hr>
            <ns3:cad>48</ns3:cad>
          </ns3:TrackPointExtension>
        </extensions>
      </trkpt>
      <trkpt lat="43.459454812109470367431640625" lon="1.4756935648620128631591796875">
        <ele>283.600006103515625</ele>
        <time>2026-08-05T07:34:37.000Z</time>
        <extensions>
          <ns3:TrackPointExtension>
            <ns3:hr>85</ns3:hr>
            <ns3:cad>48</ns3:cad>
          </ns3:TrackPointExtension>
        </extensions>
      </trkpt>
      <trkpt lat="43.45945640467107295989990234375" lon="1.47568979300558567047119140625">
        <ele>283.600006103515625</ele>
        <time>2026-08-05T07:34:38.000Z</time>
        <extensions>
          <ns3:TrackPointExtension>
            <ns3:hr>85</ns3:hr>
            <ns3:cad>0</ns3:cad>
          </ns3:TrackPointExtension>
        </extensions>
      </trkpt>
      <trkpt lat="43.4594576619565486907958984375" lon="1.47568560205399990081787109375">
        <ele>283.600006103515625</ele>
        <time>2026-08-05T07:34:39.000Z</time>
        <extensions>
          <ns3:TrackPointExtension>
            <ns3:hr>84</ns3:hr>
            <ns3:cad>0</ns3:cad>
          </ns3:TrackPointExtension>
        </extensions>
      </trkpt>
      <trkpt lat="43.45945757813751697540283203125" lon="1.47568509913980960845947265625">
        <ele>283.600006103515625</ele>
        <time>2026-08-05T07:34:40.000Z</time>
        <extensions>
          <ns3:TrackPointExtension>
            <ns3:hr>84</ns3:hr>
            <ns3:cad>0</ns3:cad>
          </ns3:TrackPointExtension>
        </extensions>
      </trkpt>
      <trkpt lat="43.45945774577558040618896484375" lon="1.47568476386368274688720703125">
        <ele>283.600006103515625</ele>
        <time>2026-08-05T07:34:41.000Z</time>
        <extensions>
          <ns3:TrackPointExtension>
            <ns3:hr>84</ns3:hr>
            <ns3:cad>0</ns3:cad>
          </ns3:TrackPointExtension>
        </extensions>
      </trkpt>
      <trkpt lat="43.45946478657424449920654296875" lon="1.47566749714314937591552734375">
        <ele>283.600006103515625</ele>
        <time>2026-08-05T07:34:42.000Z</time>
        <extensions>
          <ns3:TrackPointExtension>
            <ns3:hr>84</ns3:hr>
            <ns3:cad>0</ns3:cad>
          </ns3:TrackPointExtension>
        </extensions>
      </trkpt>
      <trkpt lat="43.45946998335421085357666015625" lon="1.475651152431964874267578125">
        <ele>283.600006103515625</ele>
        <time>2026-08-05T07:34:43.000Z</time>
        <extensions>
          <ns3:TrackPointExtension>
            <ns3:hr>84</ns3:hr>
            <ns3:cad>0</ns3:cad>
          </ns3:TrackPointExtension>
        </extensions>
      </trkpt>
      <trkpt lat="43.45947551541030406951904296875" lon="1.47563531063497066497802734375">
        <ele>283.600006103515625</ele>
        <time>2026-08-05T07:34:44.000Z</time>
        <extensions>
          <ns3:TrackPointExtension>
            <ns3:hr>85</ns3:hr>
            <ns3:cad>0</ns3:cad>
          </ns3:TrackPointExtension>
        </extensions>
      </trkpt>
      <trkpt lat="43.45948305912315845489501953125" lon="1.475622989237308502197265625">
        <ele>283.600006103515625</ele>
        <time>2026-08-05T07:34:45.000Z</time>
        <extensions>
          <ns3:TrackPointExtension>
            <ns3:hr>85</ns3:hr>
            <ns3:cad>0</ns3:cad>
          </ns3:TrackPointExtension>
        </extensions>
      </trkpt>
      <trkpt lat="43.4594888426363468170166015625" lon="1.47561385296285152435302734375">
        <ele>283.79998779296875</ele>
        <time>2026-08-05T07:34:46.000Z</time>
        <extensions>
          <ns3:TrackPointExtension>
            <ns3:hr>85</ns3:hr>
            <ns3:cad>0</ns3:cad>
          </ns3:TrackPointExtension>
        </extensions>
      </trkpt>
      <trkpt lat="43.459495045244693756103515625" lon="1.47560412995517253875732421875">
        <ele>283.79998779296875</ele>
        <time>2026-08-05T07:34:47.000Z</time>
        <extensions>
          <ns3:TrackPointExtension>
            <ns3:hr>85</ns3:hr>
            <ns3:cad>45</ns3:cad>
          </ns3:TrackPointExtension>
        </extensions>
      </trkpt>
      <trkpt lat="43.45950434915721416473388671875" lon="1.475587785243988037109375">
        <ele>283.79998779296875</ele>
        <time>2026-08-05T07:34:48.000Z</time>
        <extensions>
          <ns3:TrackPointExtension>
            <ns3:hr>85</ns3:hr>
            <ns3:cad>46</ns3:cad>
          </ns3:TrackPointExtension>
        </extensions>
      </trkpt>
      <trkpt lat="43.45951138995587825775146484375" lon="1.4755752123892307281494140625">
        <ele>283.79998779296875</ele>
        <time>2026-08-05T07:34:49.000Z</time>
        <extensions>
          <ns3:TrackPointExtension>
            <ns3:hr>85</ns3:hr>
            <ns3:cad>46</ns3:cad>
          </ns3:TrackPointExtension>
        </extensions>
      </trkpt>
      <trkpt lat="43.4595186822116374969482421875" lon="1.47556121461093425750732421875">
        <ele>283.79998779296875</ele>
        <time>2026-08-05T07:34:50.000Z</time>
        <extensions>
          <ns3:TrackPointExtension>
            <ns3:hr>86</ns3:hr>
            <ns3:cad>47</ns3:cad>
          </ns3:TrackPointExtension>
        </extensions>
      </trkpt>
      <trkpt lat="43.45952698029577732086181640625" lon="1.47554713301360607147216796875">
        <ele>283.79998779296875</ele>
        <time>2026-08-05T07:34:51.000Z</time>
        <extensions>
          <ns3:TrackPointExtension>
            <ns3:hr>85</ns3:hr>
            <ns3:cad>47</ns3:cad>
          </ns3:TrackPointExtension>
        </extensions>
      </trkpt>
      <trkpt lat="43.45953569747507572174072265625" lon="1.4755327999591827392578125">
        <ele>283.79998779296875</ele>
        <time>2026-08-05T07:34:52.000Z</time>
        <extensions>
          <ns3:TrackPointExtension>
            <ns3:hr>85</ns3:hr>
            <ns3:cad>47</ns3:cad>
          </ns3:TrackPointExtension>
        </extensions>
      </trkpt>
      <trkpt lat="43.459543995559215545654296875" lon="1.4755212329328060150146484375">
        <ele>283.79998779296875</ele>
        <time>2026-08-05T07:34:53.000Z</time>
        <extensions>
          <ns3:TrackPointExtension>
            <ns3:hr>85</ns3:hr>
            <ns3:cad>48</ns3:cad>
          </ns3:TrackPointExtension>
        </extensions>
      </trkpt>
      <trkpt lat="43.459551371634006500244140625" lon="1.4755059778690338134765625">
        <ele>284</ele>
        <time>2026-08-05T07:34:54.000Z</time>
        <extensions>
          <ns3:TrackPointExtension>
            <ns3:hr>84</ns3:hr>
            <ns3:cad>48</ns3:cad>
          </ns3:TrackPointExtension>
        </extensions>
      </trkpt>
      <trkpt lat="43.45955841243267059326171875" lon="1.47549063898622989654541015625">
        <ele>284</ele>
        <time>2026-08-05T07:34:55.000Z</time>
        <extensions>
          <ns3:TrackPointExtension>
            <ns3:hr>85</ns3:hr>
            <ns3:cad>49</ns3:cad>
          </ns3:TrackPointExtension>
        </extensions>
      </trkpt>
      <trkpt lat="43.45956687815487384796142578125" lon="1.47547848522663116455078125">
        <ele>284</ele>
        <time>2026-08-05T07:34:56.000Z</time>
        <extensions>
          <ns3:TrackPointExtension>
            <ns3:hr>85</ns3:hr>
            <ns3:cad>50</ns3:cad>
          </ns3:TrackPointExtension>
        </extensions>
      </trkpt>
      <trkpt lat="43.4595765173435211181640625" lon="1.47546415217220783233642578125">
        <ele>284</ele>
        <time>2026-08-05T07:34:57.000Z</time>
        <extensions>
          <ns3:TrackPointExtension>
            <ns3:hr>85</ns3:hr>
            <ns3:cad>50</ns3:cad>
          </ns3:TrackPointExtension>
        </extensions>
      </trkpt>
      <trkpt lat="43.459582887589931488037109375" lon="1.4754531718790531158447265625">
        <ele>284.20001220703125</ele>
        <time>2026-08-05T07:34:58.000Z</time>
        <extensions>
          <ns3:TrackPointExtension>
            <ns3:hr>84</ns3:hr>
            <ns3:cad>50</ns3:cad>
          </ns3:TrackPointExtension>
        </extensions>
      </trkpt>
      <trkpt lat="43.4595870785415172576904296875" lon="1.475442610681056976318359375">
        <ele>284.20001220703125</ele>
        <time>2026-08-05T07:34:59.000Z</time>
        <extensions>
          <ns3:TrackPointExtension>
            <ns3:hr>85</ns3:hr>
            <ns3:cad>50</ns3:cad>
          </ns3:TrackPointExtension>
        </extensions>
      </trkpt>
      <trkpt lat="43.45959403552114963531494140625" lon="1.47543716244399547576904296875">
        <ele>284.20001220703125</ele>
        <time>2026-08-05T07:35:00.000Z</time>
        <extensions>
          <ns3:TrackPointExtension>
            <ns3:hr>85</ns3:hr>
            <ns3:cad>50</ns3:cad>
          </ns3:TrackPointExtension>
        </extensions>
      </trkpt>
      <trkpt lat="43.45959998667240142822265625" lon="1.4754255115985870361328125">
        <ele>284.399993896484375</ele>
        <time>2026-08-05T07:35:01.000Z</time>
        <extensions>
          <ns3:TrackPointExtension>
            <ns3:hr>85</ns3:hr>
            <ns3:cad>50</ns3:cad>
          </ns3:TrackPointExtension>
        </extensions>
      </trkpt>
      <trkpt lat="43.45960459671914577484130859375" lon="1.47541436366736888885498046875">
        <ele>284.399993896484375</ele>
        <time>2026-08-05T07:35:02.000Z</time>
        <extensions>
          <ns3:TrackPointExtension>
            <ns3:hr>85</ns3:hr>
            <ns3:cad>50</ns3:cad>
          </ns3:TrackPointExtension>
        </extensions>
      </trkpt>
      <trkpt lat="43.45961197279393672943115234375" lon="1.47539894096553325653076171875">
        <ele>284.399993896484375</ele>
        <time>2026-08-05T07:35:03.000Z</time>
        <extensions>
          <ns3:TrackPointExtension>
            <ns3:hr>85</ns3:hr>
            <ns3:cad>50</ns3:cad>
          </ns3:TrackPointExtension>
        </extensions>
      </trkpt>
      <trkpt lat="43.459621779620647430419921875" lon="1.47538335062563419342041015625">
        <ele>284.399993896484375</ele>
        <time>2026-08-05T07:35:04.000Z</time>
        <extensions>
          <ns3:TrackPointExtension>
            <ns3:hr>83</ns3:hr>
            <ns3:cad>50</ns3:cad>
          </ns3:TrackPointExtension>
        </extensions>
      </trkpt>
      <trkpt lat="43.459627814590930938720703125" lon="1.47536943666636943817138671875">
        <ele>284.399993896484375</ele>
        <time>2026-08-05T07:35:05.000Z</time>
        <extensions>
          <ns3:TrackPointExtension>
            <ns3:hr>83</ns3:hr>
            <ns3:cad>49</ns3:cad>
          </ns3:TrackPointExtension>
        </extensions>
      </trkpt>
      <trkpt lat="43.45963443629443645477294921875" lon="1.4753584563732147216796875">
        <ele>284.399993896484375</ele>
        <time>2026-08-05T07:35:06.000Z</time>
        <extensions>
          <ns3:TrackPointExtension>
            <ns3:hr>83</ns3:hr>
            <ns3:cad>49</ns3:cad>
          </ns3:TrackPointExtension>
        </extensions>
      </trkpt>
      <trkpt lat="43.45964231528341770172119140625" lon="1.47534764371812343597412109375">
        <ele>284.399993896484375</ele>
        <time>2026-08-05T07:35:07.000Z</time>
        <extensions>
          <ns3:TrackPointExtension>
            <ns3:hr>83</ns3:hr>
            <ns3:cad>49</ns3:cad>
          </ns3:TrackPointExtension>
        </extensions>
      </trkpt>
      <trkpt lat="43.4596516191959381103515625" lon="1.47533708252012729644775390625">
        <ele>284.399993896484375</ele>
        <time>2026-08-05T07:35:08.000Z</time>
        <extensions>
          <ns3:TrackPointExtension>
            <ns3:hr>83</ns3:hr>
            <ns3:cad>51</ns3:cad>
          </ns3:TrackPointExtension>
        </extensions>
      </trkpt>
      <trkpt lat="43.45965924672782421112060546875" lon="1.47532350383698940277099609375">
        <ele>284.20001220703125</ele>
        <time>2026-08-05T07:35:09.000Z</time>
        <extensions>
          <ns3:TrackPointExtension>
            <ns3:hr>82</ns3:hr>
            <ns3:cad>51</ns3:cad>
          </ns3:TrackPointExtension>
        </extensions>
      </trkpt>
      <trkpt lat="43.4596678800880908966064453125" lon="1.47531193681061267852783203125">
        <ele>284.20001220703125</ele>
        <time>2026-08-05T07:35:10.000Z</time>
        <extensions>
          <ns3:TrackPointExtension>
            <ns3:hr>83</ns3:hr>
            <ns3:cad>50</ns3:cad>
          </ns3:TrackPointExtension>
        </extensions>
      </trkpt>
      <trkpt lat="43.45967768691480159759521484375" lon="1.4752969332039356231689453125">
        <ele>284.20001220703125</ele>
        <time>2026-08-05T07:35:11.000Z</time>
        <extensions>
          <ns3:TrackPointExtension>
            <ns3:hr>83</ns3:hr>
            <ns3:cad>50</ns3:cad>
          </ns3:TrackPointExtension>
        </extensions>
      </trkpt>
      <trkpt lat="43.459683470427989959716796875" lon="1.475285701453685760498046875">
        <ele>284.399993896484375</ele>
        <time>2026-08-05T07:35:12.000Z</time>
        <extensions>
          <ns3:TrackPointExtension>
            <ns3:hr>82</ns3:hr>
            <ns3:cad>51</ns3:cad>
          </ns3:TrackPointExtension>
        </extensions>
      </trkpt>
      <trkpt lat="43.45969294197857379913330078125" lon="1.47527237422764301300048828125">
        <ele>284.399993896484375</ele>
        <time>2026-08-05T07:35:13.000Z</time>
        <extensions>
          <ns3:TrackPointExtension>
            <ns3:hr>82</ns3:hr>
            <ns3:cad>51</ns3:cad>
          </ns3:TrackPointExtension>
        </extensions>
      </trkpt>
      <trkpt lat="43.45970300026237964630126953125" lon="1.4752613939344882965087890625">
        <ele>284.600006103515625</ele>
        <time>2026-08-05T07:35:14.000Z</time>
        <extensions>
          <ns3:TrackPointExtension>
            <ns3:hr>82</ns3:hr>
            <ns3:cad>51</ns3:cad>
          </ns3:TrackPointExtension>
        </extensions>
      </trkpt>
      <trkpt lat="43.45970232971012592315673828125" lon="1.4752484858036041259765625">
        <ele>284.600006103515625</ele>
        <time>2026-08-05T07:35:15.000Z</time>
        <extensions>
          <ns3:TrackPointExtension>
            <ns3:hr>82</ns3:hr>
            <ns3:cad>50</ns3:cad>
          </ns3:TrackPointExtension>
        </extensions>
      </trkpt>
      <trkpt lat="43.45970551483333110809326171875" lon="1.47523976862430572509765625">
        <ele>284.600006103515625</ele>
        <time>2026-08-05T07:35:16.000Z</time>
        <extensions>
          <ns3:TrackPointExtension>
            <ns3:hr>83</ns3:hr>
            <ns3:cad>49</ns3:cad>
          </ns3:TrackPointExtension>
        </extensions>
      </trkpt>
      <trkpt lat="43.4597168304026126861572265625" lon="1.47522560320794582366943359375">
        <ele>284.399993896484375</ele>
        <time>2026-08-05T07:35:17.000Z</time>
        <extensions>
          <ns3:TrackPointExtension>
            <ns3:hr>83</ns3:hr>
            <ns3:cad>49</ns3:cad>
          </ns3:TrackPointExtension>
        </extensions>
      </trkpt>
      <trkpt lat="43.4597278945147991180419921875" lon="1.475209258496761322021484375">
        <ele>284.399993896484375</ele>
        <time>2026-08-05T07:35:18.000Z</time>
        <extensions>
          <ns3:TrackPointExtension>
            <ns3:hr>83</ns3:hr>
            <ns3:cad>49</ns3:cad>
          </ns3:TrackPointExtension>
        </extensions>
      </trkpt>
      <trkpt lat="43.459736444056034088134765625" lon="1.47519676946103572845458984375">
        <ele>284.399993896484375</ele>
        <time>2026-08-05T07:35:19.000Z</time>
        <extensions>
          <ns3:TrackPointExtension>
            <ns3:hr>82</ns3:hr>
            <ns3:cad>49</ns3:cad>
          </ns3:TrackPointExtension>
        </extensions>
      </trkpt>
      <trkpt lat="43.45974340103566646575927734375" lon="1.47518872283399105072021484375">
        <ele>284.399993896484375</ele>
        <time>2026-08-05T07:35:20.000Z</time>
        <extensions>
          <ns3:TrackPointExtension>
            <ns3:hr>83</ns3:hr>
            <ns3:cad>48</ns3:cad>
          </ns3:TrackPointExtension>
        </extensions>
      </trkpt>
      <trkpt lat="43.459746502339839935302734375" lon="1.475179754197597503662109375">
        <ele>284.399993896484375</ele>
        <time>2026-08-05T07:35:21.000Z</time>
        <extensions>
          <ns3:TrackPointExtension>
            <ns3:hr>83</ns3:hr>
            <ns3:cad>48</ns3:cad>
          </ns3:TrackPointExtension>
        </extensions>
      </trkpt>
      <trkpt lat="43.45975748263299465179443359375" lon="1.47516709752380847930908203125">
        <ele>284.600006103515625</ele>
        <time>2026-08-05T07:35:22.000Z</time>
        <extensions>
          <ns3:TrackPointExtension>
            <ns3:hr>83</ns3:hr>
            <ns3:cad>48</ns3:cad>
          </ns3:TrackPointExtension>
        </extensions>
      </trkpt>
      <trkpt lat="43.4597677923738956451416015625" lon="1.47515318356454372406005859375">
        <ele>284.79998779296875</ele>
        <time>2026-08-05T07:35:23.000Z</time>
        <extensions>
          <ns3:TrackPointExtension>
            <ns3:hr>84</ns3:hr>
            <ns3:cad>48</ns3:cad>
          </ns3:TrackPointExtension>
        </extensions>
      </trkpt>
      <trkpt lat="43.45977525226771831512451171875" lon="1.4751417003571987152099609375">
        <ele>284.79998779296875</ele>
        <time>2026-08-05T07:35:24.000Z</time>
        <extensions>
          <ns3:TrackPointExtension>
            <ns3:hr>84</ns3:hr>
            <ns3:cad>48</ns3:cad>
          </ns3:TrackPointExtension>
        </extensions>
      </trkpt>
      <trkpt lat="43.45977894030511379241943359375" lon="1.4751383475959300994873046875">
        <ele>284.79998779296875</ele>
        <time>2026-08-05T07:35:25.000Z</time>
        <extensions>
          <ns3:TrackPointExtension>
            <ns3:hr>85</ns3:hr>
            <ns3:cad>48</ns3:cad>
          </ns3:TrackPointExtension>
        </extensions>
      </trkpt>
      <trkpt lat="43.45978966914117336273193359375" lon="1.47512686438858509063720703125">
        <ele>284.79998779296875</ele>
        <time>2026-08-05T07:35:26.000Z</time>
        <extensions>
          <ns3:TrackPointExtension>
            <ns3:hr>85</ns3:hr>
            <ns3:cad>47</ns3:cad>
          </ns3:TrackPointExtension>
        </extensions>
      </trkpt>
      <trkpt lat="43.45980291254818439483642578125" lon="1.47511504590511322021484375">
        <ele>285</ele>
        <time>2026-08-05T07:35:27.000Z</time>
        <extensions>
          <ns3:TrackPointExtension>
            <ns3:hr>85</ns3:hr>
            <ns3:cad>47</ns3:cad>
          </ns3:TrackPointExtension>
        </extensions>
      </trkpt>
      <trkpt lat="43.45981079153716564178466796875" lon="1.47510523907840251922607421875">
        <ele>285</ele>
        <time>2026-08-05T07:35:28.000Z</time>
        <extensions>
          <ns3:TrackPointExtension>
            <ns3:hr>84</ns3:hr>
            <ns3:cad>48</ns3:cad>
          </ns3:TrackPointExtension>
        </extensions>
      </trkpt>
      <trkpt lat="43.4598190896213054656982421875" lon="1.4750991202890872955322265625">
        <ele>285</ele>
        <time>2026-08-05T07:35:29.000Z</time>
        <extensions>
          <ns3:TrackPointExtension>
            <ns3:hr>83</ns3:hr>
            <ns3:cad>48</ns3:cad>
          </ns3:TrackPointExtension>
        </extensions>
      </trkpt>
      <trkpt lat="43.45982654951512813568115234375" lon="1.4750969409942626953125">
        <ele>285</ele>
        <time>2026-08-05T07:35:30.000Z</time>
        <extensions>
          <ns3:TrackPointExtension>
            <ns3:hr>82</ns3:hr>
            <ns3:cad>48</ns3:cad>
          </ns3:TrackPointExtension>
        </extensions>
      </trkpt>
      <trkpt lat="43.4598341770470142364501953125" lon="1.47508545778691768646240234375">
        <ele>284.79998779296875</ele>
        <time>2026-08-05T07:35:31.000Z</time>
        <extensions>
          <ns3:TrackPointExtension>
            <ns3:hr>81</ns3:hr>
            <ns3:cad>47</ns3:cad>
          </ns3:TrackPointExtension>
        </extensions>
      </trkpt>
      <trkpt lat="43.459841720759868621826171875" lon="1.475072465837001800537109375">
        <ele>284.79998779296875</ele>
        <time>2026-08-05T07:35:32.000Z</time>
        <extensions>
          <ns3:TrackPointExtension>
            <ns3:hr>81</ns3:hr>
            <ns3:cad>47</ns3:cad>
          </ns3:TrackPointExtension>
        </extensions>
      </trkpt>
      <trkpt lat="43.4598479233682155609130859375" lon="1.47506115026772022247314453125">
        <ele>284.79998779296875</ele>
        <time>2026-08-05T07:35:33.000Z</time>
        <extensions>
          <ns3:TrackPointExtension>
            <ns3:hr>80</ns3:hr>
            <ns3:cad>47</ns3:cad>
          </ns3:TrackPointExtension>
        </extensions>
      </trkpt>
      <trkpt lat="43.4598566405475139617919921875" lon="1.47505142726004123687744140625">
        <ele>284.79998779296875</ele>
        <time>2026-08-05T07:35:34.000Z</time>
        <extensions>
          <ns3:TrackPointExtension>
            <ns3:hr>81</ns3:hr>
            <ns3:cad>47</ns3:cad>
          </ns3:TrackPointExtension>
        </extensions>
      </trkpt>
      <trkpt lat="43.4598660282790660858154296875" lon="1.4750458113849163055419921875">
        <ele>285</ele>
        <time>2026-08-05T07:35:35.000Z</time>
        <extensions>
          <ns3:TrackPointExtension>
            <ns3:hr>81</ns3:hr>
            <ns3:cad>48</ns3:cad>
          </ns3:TrackPointExtension>
        </extensions>
      </trkpt>
      <trkpt lat="43.45987625420093536376953125" lon="1.4750350825488567352294921875">
        <ele>285</ele>
        <time>2026-08-05T07:35:36.000Z</time>
        <extensions>
          <ns3:TrackPointExtension>
            <ns3:hr>81</ns3:hr>
            <ns3:cad>48</ns3:cad>
          </ns3:TrackPointExtension>
        </extensions>
      </trkpt>
      <trkpt lat="43.45988295972347259521484375" lon="1.4750226773321628570556640625">
        <ele>285</ele>
        <time>2026-08-05T07:35:37.000Z</time>
        <extensions>
          <ns3:TrackPointExtension>
            <ns3:hr>81</ns3:hr>
            <ns3:cad>48</ns3:cad>
          </ns3:TrackPointExtension>
        </extensions>
      </trkpt>
      <trkpt lat="43.4598941914737224578857421875" lon="1.47500566206872463226318359375">
        <ele>285</ele>
        <time>2026-08-05T07:35:38.000Z</time>
        <extensions>
          <ns3:TrackPointExtension>
            <ns3:hr>81</ns3:hr>
            <ns3:cad>48</ns3:cad>
          </ns3:TrackPointExtension>
        </extensions>
      </trkpt>
      <trkpt lat="43.459901399910449981689453125" lon="1.47499526850879192352294921875">
        <ele>285.20001220703125</ele>
        <time>2026-08-05T07:35:39.000Z</time>
        <extensions>
          <ns3:TrackPointExtension>
            <ns3:hr>82</ns3:hr>
            <ns3:cad>48</ns3:cad>
          </ns3:TrackPointExtension>
        </extensions>
      </trkpt>
      <trkpt lat="43.45991020090878009796142578125" lon="1.47498236037790775299072265625">
        <ele>285.399993896484375</ele>
        <time>2026-08-05T07:35:40.000Z</time>
        <extensions>
          <ns3:TrackPointExtension>
            <ns3:hr>82</ns3:hr>
            <ns3:cad>0</ns3:cad>
          </ns3:TrackPointExtension>
        </extensions>
      </trkpt>
      <trkpt lat="43.4599176608026027679443359375" lon="1.4749722182750701904296875">
        <ele>285.399993896484375</ele>
        <time>2026-08-05T07:35:41.000Z</time>
        <extensions>
          <ns3:TrackPointExtension>
            <ns3:hr>83</ns3:hr>
            <ns3:cad>0</ns3:cad>
          </ns3:TrackPointExtension>
        </extensions>
      </trkpt>
      <trkpt lat="43.4599257074296474456787109375" lon="1.47496215999126434326171875">
        <ele>285.399993896484375</ele>
        <time>2026-08-05T07:35:42.000Z</time>
        <extensions>
          <ns3:TrackPointExtension>
            <ns3:hr>83</ns3:hr>
            <ns3:cad>0</ns3:cad>
          </ns3:TrackPointExtension>
        </extensions>
      </trkpt>
      <trkpt lat="43.459934927523136138916015625" lon="1.47494900040328502655029296875">
        <ele>285.399993896484375</ele>
        <time>2026-08-05T07:35:43.000Z</time>
        <extensions>
          <ns3:TrackPointExtension>
            <ns3:hr>83</ns3:hr>
            <ns3:cad>48</ns3:cad>
          </ns3:TrackPointExtension>
        </extensions>
      </trkpt>
      <trkpt lat="43.4599439799785614013671875" lon="1.47493475116789340972900390625">
        <ele>285.399993896484375</ele>
        <time>2026-08-05T07:35:44.000Z</time>
        <extensions>
          <ns3:TrackPointExtension>
            <ns3:hr>83</ns3:hr>
            <ns3:cad>48</ns3:cad>
          </ns3:TrackPointExtension>
        </extensions>
      </trkpt>
      <trkpt lat="43.45995060168206691741943359375" lon="1.474924944341182708740234375">
        <ele>285.399993896484375</ele>
        <time>2026-08-05T07:35:45.000Z</time>
        <extensions>
          <ns3:TrackPointExtension>
            <ns3:hr>84</ns3:hr>
            <ns3:cad>48</ns3:cad>
          </ns3:TrackPointExtension>
        </extensions>
      </trkpt>
      <trkpt lat="43.45995546318590641021728515625" lon="1.474918238818645477294921875">
        <ele>285.399993896484375</ele>
        <time>2026-08-05T07:35:46.000Z</time>
        <extensions>
          <ns3:TrackPointExtension>
            <ns3:hr>85</ns3:hr>
            <ns3:cad>48</ns3:cad>
          </ns3:TrackPointExtension>
        </extensions>
      </trkpt>
      <trkpt lat="43.45996568910777568817138671875" lon="1.47490591742098331451416015625">
        <ele>285.600006103515625</ele>
        <time>2026-08-05T07:35:47.000Z</time>
        <extensions>
          <ns3:TrackPointExtension>
            <ns3:hr>86</ns3:hr>
            <ns3:cad>47</ns3:cad>
          </ns3:TrackPointExtension>
        </extensions>
      </trkpt>
      <trkpt lat="43.45997507683932781219482421875" lon="1.4748932607471942901611328125">
        <ele>285.600006103515625</ele>
        <time>2026-08-05T07:35:48.000Z</time>
        <extensions>
          <ns3:TrackPointExtension>
            <ns3:hr>86</ns3:hr>
            <ns3:cad>47</ns3:cad>
          </ns3:TrackPointExtension>
        </extensions>
      </trkpt>
      <trkpt lat="43.4599847160279750823974609375" lon="1.47488278336822986602783203125">
        <ele>285.600006103515625</ele>
        <time>2026-08-05T07:35:49.000Z</time>
        <extensions>
          <ns3:TrackPointExtension>
            <ns3:hr>87</ns3:hr>
            <ns3:cad>47</ns3:cad>
          </ns3:TrackPointExtension>
        </extensions>
      </trkpt>
      <trkpt lat="43.459989242255687713623046875" lon="1.47487876005470752716064453125">
        <ele>285.600006103515625</ele>
        <time>2026-08-05T07:35:50.000Z</time>
        <extensions>
          <ns3:TrackPointExtension>
            <ns3:hr>87</ns3:hr>
            <ns3:cad>47</ns3:cad>
          </ns3:TrackPointExtension>
        </extensions>
      </trkpt>
      <trkpt lat="43.4599964506924152374267578125" lon="1.4748691208660602569580078125">
        <ele>285.79998779296875</ele>
        <time>2026-08-05T07:35:51.000Z</time>
        <extensions>
          <ns3:TrackPointExtension>
            <ns3:hr>87</ns3:hr>
            <ns3:cad>47</ns3:cad>
          </ns3:TrackPointExtension>
        </extensions>
      </trkpt>
      <trkpt lat="43.46000642515718936920166015625" lon="1.4748567156493663787841796875">
        <ele>285.79998779296875</ele>
        <time>2026-08-05T07:35:52.000Z</time>
        <extensions>
          <ns3:TrackPointExtension>
            <ns3:hr>87</ns3:hr>
            <ns3:cad>47</ns3:cad>
          </ns3:TrackPointExtension>
        </extensions>
      </trkpt>
      <trkpt lat="43.46001514233648777008056640625" lon="1.47484548389911651611328125">
        <ele>286</ele>
        <time>2026-08-05T07:35:53.000Z</time>
        <extensions>
          <ns3:TrackPointExtension>
            <ns3:hr>88</ns3:hr>
            <ns3:cad>47</ns3:cad>
          </ns3:TrackPointExtension>
        </extensions>
      </trkpt>
      <trkpt lat="43.46002302132546901702880859375" lon="1.474835760891437530517578125">
        <ele>286.20001220703125</ele>
        <time>2026-08-05T07:35:54.000Z</time>
        <extensions>
          <ns3:TrackPointExtension>
            <ns3:hr>88</ns3:hr>
            <ns3:cad>46</ns3:cad>
          </ns3:TrackPointExtension>
        </extensions>
      </trkpt>
      <trkpt lat="43.46002486534416675567626953125" lon="1.47482796572148799896240234375">
        <ele>286.399993896484375</ele>
        <time>2026-08-05T07:35:55.000Z</time>
        <extensions>
          <ns3:TrackPointExtension>
            <ns3:hr>88</ns3:hr>
            <ns3:cad>46</ns3:cad>
          </ns3:TrackPointExtension>
        </extensions>
      </trkpt>
      <trkpt lat="43.460028804838657379150390625" lon="1.4748124592006206512451171875">
        <ele>286.600006103515625</ele>
        <time>2026-08-05T07:35:56.000Z</time>
        <extensions>
          <ns3:TrackPointExtension>
            <ns3:hr>88</ns3:hr>
            <ns3:cad>48</ns3:cad>
          </ns3:TrackPointExtension>
        </extensions>
      </trkpt>
      <trkpt lat="43.46003022976219654083251953125" lon="1.474796868860721588134765625">
        <ele>286.600006103515625</ele>
        <time>2026-08-05T07:35:57.000Z</time>
        <extensions>
          <ns3:TrackPointExtension>
            <ns3:hr>89</ns3:hr>
            <ns3:cad>48</ns3:cad>
          </ns3:TrackPointExtension>
        </extensions>
      </trkpt>
      <trkpt lat="43.4600351750850677490234375" lon="1.47478773258626461029052734375">
        <ele>286.600006103515625</ele>
        <time>2026-08-05T07:35:58.000Z</time>
        <extensions>
          <ns3:TrackPointExtension>
            <ns3:hr>90</ns3:hr>
            <ns3:cad>47</ns3:cad>
          </ns3:TrackPointExtension>
        </extensions>
      </trkpt>
      <trkpt lat="43.46003978513181209564208984375" lon="1.47478069178760051727294921875">
        <ele>286.600006103515625</ele>
        <time>2026-08-05T07:35:59.000Z</time>
        <extensions>
          <ns3:TrackPointExtension>
            <ns3:hr>91</ns3:hr>
            <ns3:cad>47</ns3:cad>
          </ns3:TrackPointExtension>
        </extensions>
      </trkpt>
      <trkpt lat="43.460046909749507904052734375" lon="1.47476904094219207763671875">
        <ele>286.600006103515625</ele>
        <time>2026-08-05T07:36:00.000Z</time>
        <extensions>
          <ns3:TrackPointExtension>
            <ns3:hr>92</ns3:hr>
            <ns3:cad>47</ns3:cad>
          </ns3:TrackPointExtension>
        </extensions>
      </trkpt>
      <trkpt lat="43.4600512683391571044921875" lon="1.4747675321996212005615234375">
        <ele>286.399993896484375</ele>
        <time>2026-08-05T07:36:01.000Z</time>
        <extensions>
          <ns3:TrackPointExtension>
            <ns3:hr>92</ns3:hr>
            <ns3:cad>47</ns3:cad>
          </ns3:TrackPointExtension>
        </extensions>
      </trkpt>
      <trkpt lat="43.46005386672914028167724609375" lon="1.4747665263712406158447265625">
        <ele>286.399993896484375</ele>
        <time>2026-08-05T07:36:02.000Z</time>
        <extensions>
          <ns3:TrackPointExtension>
            <ns3:hr>92</ns3:hr>
            <ns3:cad>0</ns3:cad>
          </ns3:TrackPointExtension>
        </extensions>
      </trkpt>
      <trkpt lat="43.4600534476339817047119140625" lon="1.474768705666065216064453125">
        <ele>286.399993896484375</ele>
        <time>2026-08-05T07:36:03.000Z</time>
        <extensions>
          <ns3:TrackPointExtension>
            <ns3:hr>91</ns3:hr>
            <ns3:cad>0</ns3:cad>
          </ns3:TrackPointExtension>
        </extensions>
      </trkpt>
      <trkpt lat="43.46005219034850597381591796875" lon="1.47476091049611568450927734375">
        <ele>286.600006103515625</ele>
        <time>2026-08-05T07:36:04.000Z</time>
        <extensions>
          <ns3:TrackPointExtension>
            <ns3:hr>91</ns3:hr>
            <ns3:cad>0</ns3:cad>
          </ns3:TrackPointExtension>
        </extensions>
      </trkpt>
      <trkpt lat="43.4600527770817279815673828125" lon="1.474749259650707244873046875">
        <ele>286.600006103515625</ele>
        <time>2026-08-05T07:36:05.000Z</time>
        <extensions>
          <ns3:TrackPointExtension>
            <ns3:hr>90</ns3:hr>
            <ns3:cad>0</ns3:cad>
          </ns3:TrackPointExtension>
        </extensions>
      </trkpt>
      <trkpt lat="43.46005453728139400482177734375" lon="1.47473685443401336669921875">
        <ele>286.600006103515625</ele>
        <time>2026-08-05T07:36:06.000Z</time>
        <extensions>
          <ns3:TrackPointExtension>
            <ns3:hr>89</ns3:hr>
            <ns3:cad>0</ns3:cad>
          </ns3:TrackPointExtension>
        </extensions>
      </trkpt>
      <trkpt lat="43.46005604602396488189697265625" lon="1.4747262932360172271728515625">
        <ele>286.600006103515625</ele>
        <time>2026-08-05T07:36:07.000Z</time>
        <extensions>
          <ns3:TrackPointExtension>
            <ns3:hr>88</ns3:hr>
            <ns3:cad>0</ns3:cad>
          </ns3:TrackPointExtension>
        </extensions>
      </trkpt>
      <trkpt lat="43.46006006933748722076416015625" lon="1.4747107028961181640625">
        <ele>286.600006103515625</ele>
        <time>2026-08-05T07:36:08.000Z</time>
        <extensions>
          <ns3:TrackPointExtension>
            <ns3:hr>87</ns3:hr>
            <ns3:cad>0</ns3:cad>
          </ns3:TrackPointExtension>
        </extensions>
      </trkpt>
      <trkpt lat="43.46006870269775390625" lon="1.47469754330813884735107421875">
        <ele>286.600006103515625</ele>
        <time>2026-08-05T07:36:09.000Z</time>
        <extensions>
          <ns3:TrackPointExtension>
            <ns3:hr>87</ns3:hr>
            <ns3:cad>0</ns3:cad>
          </ns3:TrackPointExtension>
        </extensions>
      </trkpt>
      <trkpt lat="43.46007280983030796051025390625" lon="1.4746860601007938385009765625">
        <ele>286.600006103515625</ele>
        <time>2026-08-05T07:36:10.000Z</time>
        <extensions>
          <ns3:TrackPointExtension>
            <ns3:hr>87</ns3:hr>
            <ns3:cad>0</ns3:cad>
          </ns3:TrackPointExtension>
        </extensions>
      </trkpt>
      <trkpt lat="43.46007834188640117645263671875" lon="1.47467642091214656829833984375">
        <ele>286.399993896484375</ele>
        <time>2026-08-05T07:36:11.000Z</time>
        <extensions>
          <ns3:TrackPointExtension>
            <ns3:hr>87</ns3:hr>
            <ns3:cad>45</ns3:cad>
          </ns3:TrackPointExtension>
        </extensions>
      </trkpt>
      <trkpt lat="43.46008102409541606903076171875" lon="1.4746753312647342681884765625">
        <ele>286.399993896484375</ele>
        <time>2026-08-05T07:36:12.000Z</time>
        <extensions>
          <ns3:TrackPointExtension>
            <ns3:hr>87</ns3:hr>
            <ns3:cad>45</ns3:cad>
          </ns3:TrackPointExtension>
        </extensions>
      </trkpt>
      <trkpt lat="43.4600836224853992462158203125" lon="1.47467491216957569122314453125">
        <ele>286.399993896484375</ele>
        <time>2026-08-05T07:36:13.000Z</time>
        <extensions>
          <ns3:TrackPointExtension>
            <ns3:hr>87</ns3:hr>
            <ns3:cad>0</ns3:cad>
          </ns3:TrackPointExtension>
        </extensions>
      </trkpt>
      <trkpt lat="43.4600846283137798309326171875" lon="1.47467139177024364471435546875">
        <ele>286.399993896484375</ele>
        <time>2026-08-05T07:36:14.000Z</time>
        <extensions>
          <ns3:TrackPointExtension>
            <ns3:hr>87</ns3:hr>
            <ns3:cad>0</ns3:cad>
          </ns3:TrackPointExtension>
        </extensions>
      </trkpt>
      <trkpt lat="43.46008823253214359283447265625" lon="1.474663428962230682373046875">
        <ele>286.399993896484375</ele>
        <time>2026-08-05T07:36:15.000Z</time>
        <extensions>
          <ns3:TrackPointExtension>
            <ns3:hr>87</ns3:hr>
            <ns3:cad>0</ns3:cad>
          </ns3:TrackPointExtension>
        </extensions>
      </trkpt>
      <trkpt lat="43.460091166198253631591796875" lon="1.47465370595455169677734375">
        <ele>286.399993896484375</ele>
        <time>2026-08-05T07:36:16.000Z</time>
        <extensions>
          <ns3:TrackPointExtension>
            <ns3:hr>87</ns3:hr>
            <ns3:cad>45</ns3:cad>
          </ns3:TrackPointExtension>
        </extensions>
      </trkpt>
      <trkpt lat="43.460092842578887939453125" lon="1.4746454916894435882568359375">
        <ele>286.20001220703125</ele>
        <time>2026-08-05T07:36:17.000Z</time>
        <extensions>
          <ns3:TrackPointExtension>
            <ns3:hr>87</ns3:hr>
            <ns3:cad>45</ns3:cad>
          </ns3:TrackPointExtension>
        </extensions>
      </trkpt>
      <trkpt lat="43.4600953571498394012451171875" lon="1.47463534958660602569580078125">
        <ele>286.20001220703125</ele>
        <time>2026-08-05T07:36:18.000Z</time>
        <extensions>
          <ns3:TrackPointExtension>
            <ns3:hr>87</ns3:hr>
            <ns3:cad>0</ns3:cad>
          </ns3:TrackPointExtension>
        </extensions>
      </trkpt>
      <trkpt lat="43.46010030247271060943603515625" lon="1.474625207483768463134765625">
        <ele>286</ele>
        <time>2026-08-05T07:36:19.000Z</time>
        <extensions>
          <ns3:TrackPointExtension>
            <ns3:hr>87</ns3:hr>
            <ns3:cad>0</ns3:cad>
          </ns3:TrackPointExtension>
        </extensions>
      </trkpt>
      <trkpt lat="43.46010382287204265594482421875" lon="1.47461607120931148529052734375">
        <ele>286</ele>
        <time>2026-08-05T07:36:20.000Z</time>
        <extensions>
          <ns3:TrackPointExtension>
            <ns3:hr>87</ns3:hr>
            <ns3:cad>45</ns3:cad>
          </ns3:TrackPointExtension>
        </extensions>
      </trkpt>
      <trkpt lat="43.46010834909975528717041015625" lon="1.474604420363903045654296875">
        <ele>286</ele>
        <time>2026-08-05T07:36:21.000Z</time>
        <extensions>
          <ns3:TrackPointExtension>
            <ns3:hr>87</ns3:hr>
            <ns3:cad>45</ns3:cad>
          </ns3:TrackPointExtension>
        </extensions>
      </trkpt>
      <trkpt lat="43.46011421643197536468505859375" lon="1.47459193132817745208740234375">
        <ele>286</ele>
        <time>2026-08-05T07:36:22.000Z</time>
        <extensions>
          <ns3:TrackPointExtension>
            <ns3:hr>86</ns3:hr>
            <ns3:cad>45</ns3:cad>
          </ns3:TrackPointExtension>
        </extensions>
      </trkpt>
      <trkpt lat="43.460119329392910003662109375" lon="1.47457860410213470458984375">
        <ele>286</ele>
        <time>2026-08-05T07:36:23.000Z</time>
        <extensions>
          <ns3:TrackPointExtension>
            <ns3:hr>87</ns3:hr>
            <ns3:cad>45</ns3:cad>
          </ns3:TrackPointExtension>
        </extensions>
      </trkpt>
      <trkpt lat="43.46012427471578121185302734375" lon="1.47456460632383823394775390625">
        <ele>286</ele>
        <time>2026-08-05T07:36:24.000Z</time>
        <extensions>
          <ns3:TrackPointExtension>
            <ns3:hr>87</ns3:hr>
            <ns3:cad>46</ns3:cad>
          </ns3:TrackPointExtension>
        </extensions>
      </trkpt>
      <trkpt lat="43.4601295553147792816162109375" lon="1.47455354221165180206298828125">
        <ele>286</ele>
        <time>2026-08-05T07:36:25.000Z</time>
        <extensions>
          <ns3:TrackPointExtension>
            <ns3:hr>86</ns3:hr>
            <ns3:cad>47</ns3:cad>
          </ns3:TrackPointExtension>
        </extensions>
      </trkpt>
      <trkpt lat="43.46013584174215793609619140625" lon="1.4745439030230045318603515625">
        <ele>286</ele>
        <time>2026-08-05T07:36:26.000Z</time>
        <extensions>
          <ns3:TrackPointExtension>
            <ns3:hr>87</ns3:hr>
            <ns3:cad>47</ns3:cad>
          </ns3:TrackPointExtension>
        </extensions>
      </trkpt>
      <trkpt lat="43.4601412899792194366455078125" lon="1.47453309036791324615478515625">
        <ele>286</ele>
        <time>2026-08-05T07:36:27.000Z</time>
        <extensions>
          <ns3:TrackPointExtension>
            <ns3:hr>87</ns3:hr>
            <ns3:cad>47</ns3:cad>
          </ns3:TrackPointExtension>
        </extensions>
      </trkpt>
      <trkpt lat="43.4601456485688686370849609375" lon="1.4745211042463779449462890625">
        <ele>286</ele>
        <time>2026-08-05T07:36:28.000Z</time>
        <extensions>
          <ns3:TrackPointExtension>
            <ns3:hr>87</ns3:hr>
            <ns3:cad>47</ns3:cad>
          </ns3:TrackPointExtension>
        </extensions>
      </trkpt>
      <trkpt lat="43.46015143208205699920654296875" lon="1.47450895048677921295166015625">
        <ele>285.79998779296875</ele>
        <time>2026-08-05T07:36:29.000Z</time>
        <extensions>
          <ns3:TrackPointExtension>
            <ns3:hr>86</ns3:hr>
            <ns3:cad>47</ns3:cad>
          </ns3:TrackPointExtension>
        </extensions>
      </trkpt>
      <trkpt lat="43.4601558744907379150390625" lon="1.47449403069913387298583984375">
        <ele>285.79998779296875</ele>
        <time>2026-08-05T07:36:30.000Z</time>
        <extensions>
          <ns3:TrackPointExtension>
            <ns3:hr>87</ns3:hr>
            <ns3:cad>47</ns3:cad>
          </ns3:TrackPointExtension>
        </extensions>
      </trkpt>
      <trkpt lat="43.460162244737148284912109375" lon="1.4744835533201694488525390625">
        <ele>285.79998779296875</ele>
        <time>2026-08-05T07:36:31.000Z</time>
        <extensions>
          <ns3:TrackPointExtension>
            <ns3:hr>86</ns3:hr>
            <ns3:cad>47</ns3:cad>
          </ns3:TrackPointExtension>
        </extensions>
      </trkpt>
      <trkpt lat="43.46016819588840007781982421875" lon="1.474472321569919586181640625">
        <ele>285.79998779296875</ele>
        <time>2026-08-05T07:36:32.000Z</time>
        <extensions>
          <ns3:TrackPointExtension>
            <ns3:hr>86</ns3:hr>
            <ns3:cad>47</ns3:cad>
          </ns3:TrackPointExtension>
        </extensions>
      </trkpt>
      <trkpt lat="43.46017339266836643218994140625" lon="1.47446016781032085418701171875">
        <ele>285.79998779296875</ele>
        <time>2026-08-05T07:36:33.000Z</time>
        <extensions>
          <ns3:TrackPointExtension>
            <ns3:hr>86</ns3:hr>
            <ns3:cad>47</ns3:cad>
          </ns3:TrackPointExtension>
        </extensions>
      </trkpt>
      <trkpt lat="43.4601774998009204864501953125" lon="1.47444893606007099151611328125">
        <ele>286</ele>
        <time>2026-08-05T07:36:34.000Z</time>
        <extensions>
          <ns3:TrackPointExtension>
            <ns3:hr>85</ns3:hr>
            <ns3:cad>47</ns3:cad>
          </ns3:TrackPointExtension>
        </extensions>
      </trkpt>
      <trkpt lat="43.46018336713314056396484375" lon="1.47443871013820171356201171875">
        <ele>286</ele>
        <time>2026-08-05T07:36:35.000Z</time>
        <extensions>
          <ns3:TrackPointExtension>
            <ns3:hr>85</ns3:hr>
            <ns3:cad>47</ns3:cad>
          </ns3:TrackPointExtension>
        </extensions>
      </trkpt>
      <trkpt lat="43.46018797717988491058349609375" lon="1.4744278974831104278564453125">
        <ele>286</ele>
        <time>2026-08-05T07:36:36.000Z</time>
        <extensions>
          <ns3:TrackPointExtension>
            <ns3:hr>85</ns3:hr>
            <ns3:cad>50</ns3:cad>
          </ns3:TrackPointExtension>
        </extensions>
      </trkpt>
      <trkpt lat="43.46019250340759754180908203125" lon="1.474415324628353118896484375">
        <ele>285.79998779296875</ele>
        <time>2026-08-05T07:36:37.000Z</time>
        <extensions>
          <ns3:TrackPointExtension>
            <ns3:hr>85</ns3:hr>
            <ns3:cad>50</ns3:cad>
          </ns3:TrackPointExtension>
        </extensions>
      </trkpt>
      <trkpt lat="43.46019744873046875" lon="1.4744034223258495330810546875">
        <ele>285.79998779296875</ele>
        <time>2026-08-05T07:36:38.000Z</time>
        <extensions>
          <ns3:TrackPointExtension>
            <ns3:hr>84</ns3:hr>
            <ns3:cad>49</ns3:cad>
          </ns3:TrackPointExtension>
        </extensions>
      </trkpt>
      <trkpt lat="43.4602023102343082427978515625" lon="1.47439093329012393951416015625">
        <ele>285.600006103515625</ele>
        <time>2026-08-05T07:36:39.000Z</time>
        <extensions>
          <ns3:TrackPointExtension>
            <ns3:hr>83</ns3:hr>
            <ns3:cad>48</ns3:cad>
          </ns3:TrackPointExtension>
        </extensions>
      </trkpt>
      <trkpt lat="43.46020675264298915863037109375" lon="1.4743806235492229461669921875">
        <ele>285.600006103515625</ele>
        <time>2026-08-05T07:36:40.000Z</time>
        <extensions>
          <ns3:TrackPointExtension>
            <ns3:hr>83</ns3:hr>
            <ns3:cad>47</ns3:cad>
          </ns3:TrackPointExtension>
        </extensions>
      </trkpt>
      <trkpt lat="43.46021094359457492828369140625" lon="1.47437014617025852203369140625">
        <ele>285.600006103515625</ele>
        <time>2026-08-05T07:36:41.000Z</time>
        <extensions>
          <ns3:TrackPointExtension>
            <ns3:hr>83</ns3:hr>
            <ns3:cad>47</ns3:cad>
          </ns3:TrackPointExtension>
        </extensions>
      </trkpt>
      <trkpt lat="43.46021530218422412872314453125" lon="1.4743578247725963592529296875">
        <ele>285.399993896484375</ele>
        <time>2026-08-05T07:36:42.000Z</time>
        <extensions>
          <ns3:TrackPointExtension>
            <ns3:hr>82</ns3:hr>
            <ns3:cad>48</ns3:cad>
          </ns3:TrackPointExtension>
        </extensions>
      </trkpt>
      <trkpt lat="43.4602220915257930755615234375" lon="1.47434432990849018096923828125">
        <ele>285.399993896484375</ele>
        <time>2026-08-05T07:36:43.000Z</time>
        <extensions>
          <ns3:TrackPointExtension>
            <ns3:hr>82</ns3:hr>
            <ns3:cad>48</ns3:cad>
          </ns3:TrackPointExtension>
        </extensions>
      </trkpt>
      <trkpt lat="43.46022787503898143768310546875" lon="1.47433410398662090301513671875">
        <ele>285.399993896484375</ele>
        <time>2026-08-05T07:36:44.000Z</time>
        <extensions>
          <ns3:TrackPointExtension>
            <ns3:hr>81</ns3:hr>
            <ns3:cad>48</ns3:cad>
          </ns3:TrackPointExtension>
        </extensions>
      </trkpt>
      <trkpt lat="43.46023256890475749969482421875" lon="1.47432052530348300933837890625">
        <ele>285.399993896484375</ele>
        <time>2026-08-05T07:36:45.000Z</time>
        <extensions>
          <ns3:TrackPointExtension>
            <ns3:hr>81</ns3:hr>
            <ns3:cad>48</ns3:cad>
          </ns3:TrackPointExtension>
        </extensions>
      </trkpt>
      <trkpt lat="43.4602391906082630157470703125" lon="1.4743043482303619384765625">
        <ele>285.399993896484375</ele>
        <time>2026-08-05T07:36:46.000Z</time>
        <extensions>
          <ns3:TrackPointExtension>
            <ns3:hr>81</ns3:hr>
            <ns3:cad>46</ns3:cad>
          </ns3:TrackPointExtension>
        </extensions>
      </trkpt>
      <trkpt lat="43.46024597994983196258544921875" lon="1.47428817115724086761474609375">
        <ele>285.600006103515625</ele>
        <time>2026-08-05T07:36:47.000Z</time>
        <extensions>
          <ns3:TrackPointExtension>
            <ns3:hr>81</ns3:hr>
            <ns3:cad>46</ns3:cad>
          </ns3:TrackPointExtension>
        </extensions>
      </trkpt>
      <trkpt lat="43.46025268547236919403076171875" lon="1.47427191026508808135986328125">
        <ele>285.600006103515625</ele>
        <time>2026-08-05T07:36:48.000Z</time>
        <extensions>
          <ns3:TrackPointExtension>
            <ns3:hr>81</ns3:hr>
            <ns3:cad>46</ns3:cad>
          </ns3:TrackPointExtension>
        </extensions>
      </trkpt>
      <trkpt lat="43.46025888808071613311767578125" lon="1.47425715811550617218017578125">
        <ele>285.79998779296875</ele>
        <time>2026-08-05T07:36:49.000Z</time>
        <extensions>
          <ns3:TrackPointExtension>
            <ns3:hr>80</ns3:hr>
            <ns3:cad>48</ns3:cad>
          </ns3:TrackPointExtension>
        </extensions>
      </trkpt>
      <trkpt lat="43.46026475541293621063232421875" lon="1.47424391470849514007568359375">
        <ele>285.79998779296875</ele>
        <time>2026-08-05T07:36:50.000Z</time>
        <extensions>
          <ns3:TrackPointExtension>
            <ns3:hr>81</ns3:hr>
            <ns3:cad>48</ns3:cad>
          </ns3:TrackPointExtension>
        </extensions>
      </trkpt>
      <trkpt lat="43.46027229912579059600830078125" lon="1.47423469461500644683837890625">
        <ele>285.79998779296875</ele>
        <time>2026-08-05T07:36:51.000Z</time>
        <extensions>
          <ns3:TrackPointExtension>
            <ns3:hr>81</ns3:hr>
            <ns3:cad>48</ns3:cad>
          </ns3:TrackPointExtension>
        </extensions>
      </trkpt>
      <trkpt lat="43.460278250277042388916015625" lon="1.47422195412218570709228515625">
        <ele>285.79998779296875</ele>
        <time>2026-08-05T07:36:52.000Z</time>
        <extensions>
          <ns3:TrackPointExtension>
            <ns3:hr>81</ns3:hr>
            <ns3:cad>48</ns3:cad>
          </ns3:TrackPointExtension>
        </extensions>
      </trkpt>
      <trkpt lat="43.4602831117808818817138671875" lon="1.47420904599130153656005859375">
        <ele>285.79998779296875</ele>
        <time>2026-08-05T07:36:53.000Z</time>
        <extensions>
          <ns3:TrackPointExtension>
            <ns3:hr>82</ns3:hr>
            <ns3:cad>48</ns3:cad>
          </ns3:TrackPointExtension>
        </extensions>
      </trkpt>
      <trkpt lat="43.4602878056466579437255859375" lon="1.474197395145893096923828125">
        <ele>285.79998779296875</ele>
        <time>2026-08-05T07:36:54.000Z</time>
        <extensions>
          <ns3:TrackPointExtension>
            <ns3:hr>84</ns3:hr>
            <ns3:cad>48</ns3:cad>
          </ns3:TrackPointExtension>
        </extensions>
      </trkpt>
      <trkpt lat="43.4602841176092624664306640625" lon="1.4741844870150089263916015625">
        <ele>285.600006103515625</ele>
        <time>2026-08-05T07:36:55.000Z</time>
        <extensions>
          <ns3:TrackPointExtension>
            <ns3:hr>85</ns3:hr>
            <ns3:cad>50</ns3:cad>
          </ns3:TrackPointExtension>
        </extensions>
      </trkpt>
      <trkpt lat="43.46028906293213367462158203125" lon="1.47417183034121990203857421875">
        <ele>285.399993896484375</ele>
        <time>2026-08-05T07:36:56.000Z</time>
        <extensions>
          <ns3:TrackPointExtension>
            <ns3:hr>85</ns3:hr>
            <ns3:cad>50</ns3:cad>
          </ns3:TrackPointExtension>
        </extensions>
      </trkpt>
      <trkpt lat="43.4602955169975757598876953125" lon="1.47415422834455966949462890625">
        <ele>285.399993896484375</ele>
        <time>2026-08-05T07:36:57.000Z</time>
        <extensions>
          <ns3:TrackPointExtension>
            <ns3:hr>85</ns3:hr>
            <ns3:cad>50</ns3:cad>
          </ns3:TrackPointExtension>
        </extensions>
      </trkpt>
      <trkpt lat="43.4603025577962398529052734375" lon="1.47414215840399265289306640625">
        <ele>285.20001220703125</ele>
        <time>2026-08-05T07:36:58.000Z</time>
        <extensions>
          <ns3:TrackPointExtension>
            <ns3:hr>85</ns3:hr>
            <ns3:cad>47</ns3:cad>
          </ns3:TrackPointExtension>
        </extensions>
      </trkpt>
      <trkpt lat="43.460304737091064453125" lon="1.474131681025028228759765625">
        <ele>285.20001220703125</ele>
        <time>2026-08-05T07:36:59.000Z</time>
        <extensions>
          <ns3:TrackPointExtension>
            <ns3:hr>86</ns3:hr>
            <ns3:cad>47</ns3:cad>
          </ns3:TrackPointExtension>
        </extensions>
      </trkpt>
      <trkpt lat="43.46030901186168193817138671875" lon="1.4741191081702709197998046875">
        <ele>285.20001220703125</ele>
        <time>2026-08-05T07:37:00.000Z</time>
        <extensions>
          <ns3:TrackPointExtension>
            <ns3:hr>85</ns3:hr>
            <ns3:cad>46</ns3:cad>
          </ns3:TrackPointExtension>
        </extensions>
      </trkpt>
      <trkpt lat="43.46031404100358486175537109375" lon="1.474107205867767333984375">
        <ele>285.20001220703125</ele>
        <time>2026-08-05T07:37:01.000Z</time>
        <extensions>
          <ns3:TrackPointExtension>
            <ns3:hr>86</ns3:hr>
            <ns3:cad>45</ns3:cad>
          </ns3:TrackPointExtension>
        </extensions>
      </trkpt>
      <trkpt lat="43.46032083034515380859375" lon="1.47409320808947086334228515625">
        <ele>285.399993896484375</ele>
        <time>2026-08-05T07:37:02.000Z</time>
        <extensions>
          <ns3:TrackPointExtension>
            <ns3:hr>86</ns3:hr>
            <ns3:cad>45</ns3:cad>
          </ns3:TrackPointExtension>
        </extensions>
      </trkpt>
      <trkpt lat="43.46032745204865932464599609375" lon="1.474079377949237823486328125">
        <ele>285.399993896484375</ele>
        <time>2026-08-05T07:37:03.000Z</time>
        <extensions>
          <ns3:TrackPointExtension>
            <ns3:hr>86</ns3:hr>
            <ns3:cad>46</ns3:cad>
          </ns3:TrackPointExtension>
        </extensions>
      </trkpt>
      <trkpt lat="43.4603313915431499481201171875" lon="1.474064625799655914306640625">
        <ele>285.399993896484375</ele>
        <time>2026-08-05T07:37:04.000Z</time>
        <extensions>
          <ns3:TrackPointExtension>
            <ns3:hr>85</ns3:hr>
            <ns3:cad>47</ns3:cad>
          </ns3:TrackPointExtension>
        </extensions>
      </trkpt>
      <trkpt lat="43.46033625304698944091796875" lon="1.474053561687469482421875">
        <ele>285.399993896484375</ele>
        <time>2026-08-05T07:37:05.000Z</time>
        <extensions>
          <ns3:TrackPointExtension>
            <ns3:hr>85</ns3:hr>
            <ns3:cad>48</ns3:cad>
          </ns3:TrackPointExtension>
        </extensions>
      </trkpt>
      <trkpt lat="43.46034019254148006439208984375" lon="1.4740414917469024658203125">
        <ele>285.399993896484375</ele>
        <time>2026-08-05T07:37:06.000Z</time>
        <extensions>
          <ns3:TrackPointExtension>
            <ns3:hr>85</ns3:hr>
            <ns3:cad>48</ns3:cad>
          </ns3:TrackPointExtension>
        </extensions>
      </trkpt>
      <trkpt lat="43.46034321002662181854248046875" lon="1.47402741014957427978515625">
        <ele>285.399993896484375</ele>
        <time>2026-08-05T07:37:07.000Z</time>
        <extensions>
          <ns3:TrackPointExtension>
            <ns3:hr>84</ns3:hr>
            <ns3:cad>48</ns3:cad>
          </ns3:TrackPointExtension>
        </extensions>
      </trkpt>
      <trkpt lat="43.4603478200733661651611328125" lon="1.47401743568480014801025390625">
        <ele>285.20001220703125</ele>
        <time>2026-08-05T07:37:08.000Z</time>
        <extensions>
          <ns3:TrackPointExtension>
            <ns3:hr>82</ns3:hr>
            <ns3:cad>48</ns3:cad>
          </ns3:TrackPointExtension>
        </extensions>
      </trkpt>
      <trkpt lat="43.4603545255959033966064453125" lon="1.47400670684874057769775390625">
        <ele>285.20001220703125</ele>
        <time>2026-08-05T07:37:09.000Z</time>
        <extensions>
          <ns3:TrackPointExtension>
            <ns3:hr>81</ns3:hr>
            <ns3:cad>47</ns3:cad>
          </ns3:TrackPointExtension>
        </extensions>
      </trkpt>
      <trkpt lat="43.46036097966134548187255859375" lon="1.47399413399398326873779296875">
        <ele>285.20001220703125</ele>
        <time>2026-08-05T07:37:10.000Z</time>
        <extensions>
          <ns3:TrackPointExtension>
            <ns3:hr>81</ns3:hr>
            <ns3:cad>47</ns3:cad>
          </ns3:TrackPointExtension>
        </extensions>
      </trkpt>
      <trkpt lat="43.4603649191558361053466796875" lon="1.473984159529209136962890625">
        <ele>285.20001220703125</ele>
        <time>2026-08-05T07:37:11.000Z</time>
        <extensions>
          <ns3:TrackPointExtension>
            <ns3:hr>80</ns3:hr>
            <ns3:cad>47</ns3:cad>
          </ns3:TrackPointExtension>
        </extensions>
      </trkpt>
      <trkpt lat="43.4603696130216121673583984375" lon="1.473973430693149566650390625">
        <ele>285.20001220703125</ele>
        <time>2026-08-05T07:37:12.000Z</time>
        <extensions>
          <ns3:TrackPointExtension>
            <ns3:hr>80</ns3:hr>
            <ns3:cad>46</ns3:cad>
          </ns3:TrackPointExtension>
        </extensions>
      </trkpt>
      <trkpt lat="43.46037472598254680633544921875" lon="1.473962031304836273193359375">
        <ele>285.20001220703125</ele>
        <time>2026-08-05T07:37:13.000Z</time>
        <extensions>
          <ns3:TrackPointExtension>
            <ns3:hr>80</ns3:hr>
            <ns3:cad>46</ns3:cad>
          </ns3:TrackPointExtension>
        </extensions>
      </trkpt>
      <trkpt lat="43.46037941984832286834716796875" lon="1.47394887171685695648193359375">
        <ele>285.20001220703125</ele>
        <time>2026-08-05T07:37:14.000Z</time>
        <extensions>
          <ns3:TrackPointExtension>
            <ns3:hr>80</ns3:hr>
            <ns3:cad>46</ns3:cad>
          </ns3:TrackPointExtension>
        </extensions>
      </trkpt>
      <trkpt lat="43.4603853709995746612548828125" lon="1.47393579594790935516357421875">
        <ele>285.20001220703125</ele>
        <time>2026-08-05T07:37:15.000Z</time>
        <extensions>
          <ns3:TrackPointExtension>
            <ns3:hr>80</ns3:hr>
            <ns3:cad>46</ns3:cad>
          </ns3:TrackPointExtension>
        </extensions>
      </trkpt>
      <trkpt lat="43.460388891398906707763671875" lon="1.47392808459699153900146484375">
        <ele>285</ele>
        <time>2026-08-05T07:37:16.000Z</time>
        <extensions>
          <ns3:TrackPointExtension>
            <ns3:hr>80</ns3:hr>
            <ns3:cad>46</ns3:cad>
          </ns3:TrackPointExtension>
        </extensions>
      </trkpt>
      <trkpt lat="43.4603937529027462005615234375" lon="1.47391475737094879150390625">
        <ele>285</ele>
        <time>2026-08-05T07:37:17.000Z</time>
        <extensions>
          <ns3:TrackPointExtension>
            <ns3:hr>80</ns3:hr>
            <ns3:cad>46</ns3:cad>
          </ns3:TrackPointExtension>
        </extensions>
      </trkpt>
      <trkpt lat="43.46039819531142711639404296875" lon="1.47390075959265232086181640625">
        <ele>285.20001220703125</ele>
        <time>2026-08-05T07:37:18.000Z</time>
        <extensions>
          <ns3:TrackPointExtension>
            <ns3:hr>79</ns3:hr>
            <ns3:cad>46</ns3:cad>
          </ns3:TrackPointExtension>
        </extensions>
      </trkpt>
      <trkpt lat="43.460402302443981170654296875" lon="1.47388751618564128875732421875">
        <ele>285.20001220703125</ele>
        <time>2026-08-05T07:37:19.000Z</time>
        <extensions>
          <ns3:TrackPointExtension>
            <ns3:hr>79</ns3:hr>
            <ns3:cad>46</ns3:cad>
          </ns3:TrackPointExtension>
        </extensions>
      </trkpt>
      <trkpt lat="43.46040858887135982513427734375" lon="1.47387921810150146484375">
        <ele>285.20001220703125</ele>
        <time>2026-08-05T07:37:20.000Z</time>
        <extensions>
          <ns3:TrackPointExtension>
            <ns3:hr>79</ns3:hr>
            <ns3:cad>46</ns3:cad>
          </ns3:TrackPointExtension>
        </extensions>
      </trkpt>
      <trkpt lat="43.46041495911777019500732421875" lon="1.47387142293155193328857421875">
        <ele>285.20001220703125</ele>
        <time>2026-08-05T07:37:21.000Z</time>
        <extensions>
          <ns3:TrackPointExtension>
            <ns3:hr>79</ns3:hr>
            <ns3:cad>46</ns3:cad>
          </ns3:TrackPointExtension>
        </extensions>
      </trkpt>
      <trkpt lat="43.46042132936418056488037109375" lon="1.47385901771485805511474609375">
        <ele>285.20001220703125</ele>
        <time>2026-08-05T07:37:22.000Z</time>
        <extensions>
          <ns3:TrackPointExtension>
            <ns3:hr>79</ns3:hr>
            <ns3:cad>46</ns3:cad>
          </ns3:TrackPointExtension>
        </extensions>
      </trkpt>
      <trkpt lat="43.460426442325115203857421875" lon="1.47384644486010074615478515625">
        <ele>285.20001220703125</ele>
        <time>2026-08-05T07:37:23.000Z</time>
        <extensions>
          <ns3:TrackPointExtension>
            <ns3:hr>79</ns3:hr>
            <ns3:cad>46</ns3:cad>
          </ns3:TrackPointExtension>
        </extensions>
      </trkpt>
      <trkpt lat="43.46043054945766925811767578125" lon="1.47383320145308971405029296875">
        <ele>285.20001220703125</ele>
        <time>2026-08-05T07:37:24.000Z</time>
        <extensions>
          <ns3:TrackPointExtension>
            <ns3:hr>79</ns3:hr>
            <ns3:cad>46</ns3:cad>
          </ns3:TrackPointExtension>
        </extensions>
      </trkpt>
      <trkpt lat="43.46043457277119159698486328125" lon="1.47382029332220554351806640625">
        <ele>285.20001220703125</ele>
        <time>2026-08-05T07:37:25.000Z</time>
        <extensions>
          <ns3:TrackPointExtension>
            <ns3:hr>78</ns3:hr>
            <ns3:cad>46</ns3:cad>
          </ns3:TrackPointExtension>
        </extensions>
      </trkpt>
      <trkpt lat="43.46043759025633335113525390625" lon="1.4738081395626068115234375">
        <ele>285.20001220703125</ele>
        <time>2026-08-05T07:37:26.000Z</time>
        <extensions>
          <ns3:TrackPointExtension>
            <ns3:hr>77</ns3:hr>
            <ns3:cad>46</ns3:cad>
          </ns3:TrackPointExtension>
        </extensions>
      </trkpt>
      <trkpt lat="43.4604396857321262359619140625" lon="1.4737918786704540252685546875">
        <ele>285.20001220703125</ele>
        <time>2026-08-05T07:37:27.000Z</time>
        <extensions>
          <ns3:TrackPointExtension>
            <ns3:hr>77</ns3:hr>
            <ns3:cad>46</ns3:cad>
          </ns3:TrackPointExtension>
        </extensions>
      </trkpt>
      <trkpt lat="43.4604447148740291595458984375" lon="1.4737791381776332855224609375">
        <ele>285.20001220703125</ele>
        <time>2026-08-05T07:37:28.000Z</time>
        <extensions>
          <ns3:TrackPointExtension>
            <ns3:hr>76</ns3:hr>
            <ns3:cad>46</ns3:cad>
          </ns3:TrackPointExtension>
        </extensions>
      </trkpt>
      <trkpt lat="43.46044966019690036773681640625" lon="1.473768912255764007568359375">
        <ele>285.20001220703125</ele>
        <time>2026-08-05T07:37:29.000Z</time>
        <extensions>
          <ns3:TrackPointExtension>
            <ns3:hr>76</ns3:hr>
            <ns3:cad>46</ns3:cad>
          </ns3:TrackPointExtension>
        </extensions>
      </trkpt>
      <trkpt lat="43.4604535996913909912109375" lon="1.47375809960067272186279296875">
        <ele>285.20001220703125</ele>
        <time>2026-08-05T07:37:30.000Z</time>
        <extensions>
          <ns3:TrackPointExtension>
            <ns3:hr>76</ns3:hr>
            <ns3:cad>46</ns3:cad>
          </ns3:TrackPointExtension>
        </extensions>
      </trkpt>
      <trkpt lat="43.4604616463184356689453125" lon="1.47374720312654972076416015625">
        <ele>285.20001220703125</ele>
        <time>2026-08-05T07:37:31.000Z</time>
        <extensions>
          <ns3:TrackPointExtension>
            <ns3:hr>75</ns3:hr>
            <ns3:cad>46</ns3:cad>
          </ns3:TrackPointExtension>
        </extensions>
      </trkpt>
      <trkpt lat="43.46046675927937030792236328125" lon="1.4737352170050144195556640625">
        <ele>285.20001220703125</ele>
        <time>2026-08-05T07:37:32.000Z</time>
        <extensions>
          <ns3:TrackPointExtension>
            <ns3:hr>74</ns3:hr>
            <ns3:cad>47</ns3:cad>
          </ns3:TrackPointExtension>
        </extensions>
      </trkpt>
      <trkpt lat="43.4604696929454803466796875" lon="1.4737281762063503265380859375">
        <ele>285.20001220703125</ele>
        <time>2026-08-05T07:37:33.000Z</time>
        <extensions>
          <ns3:TrackPointExtension>
            <ns3:hr>74</ns3:hr>
            <ns3:cad>47</ns3:cad>
          </ns3:TrackPointExtension>
        </extensions>
      </trkpt>
      <trkpt lat="43.46047279424965381622314453125" lon="1.47371702827513217926025390625">
        <ele>285.20001220703125</ele>
        <time>2026-08-05T07:37:34.000Z</time>
        <extensions>
          <ns3:TrackPointExtension>
            <ns3:hr>73</ns3:hr>
            <ns3:cad>47</ns3:cad>
          </ns3:TrackPointExtension>
        </extensions>
      </trkpt>
      <trkpt lat="43.46048033796250820159912109375" lon="1.47370227612555027008056640625">
        <ele>285.20001220703125</ele>
        <time>2026-08-05T07:37:35.000Z</time>
        <extensions>
          <ns3:TrackPointExtension>
            <ns3:hr>71</ns3:hr>
            <ns3:cad>46</ns3:cad>
          </ns3:TrackPointExtension>
        </extensions>
      </trkpt>
      <trkpt lat="43.46048587001860141754150390625" lon="1.473688445985317230224609375">
        <ele>285.20001220703125</ele>
        <time>2026-08-05T07:37:36.000Z</time>
        <extensions>
          <ns3:TrackPointExtension>
            <ns3:hr>71</ns3:hr>
            <ns3:cad>46</ns3:cad>
          </ns3:TrackPointExtension>
        </extensions>
      </trkpt>
      <trkpt lat="43.46049140207469463348388671875" lon="1.47367746569216251373291015625">
        <ele>285.20001220703125</ele>
        <time>2026-08-05T07:37:37.000Z</time>
        <extensions>
          <ns3:TrackPointExtension>
            <ns3:hr>70</ns3:hr>
            <ns3:cad>46</ns3:cad>
          </ns3:TrackPointExtension>
        </extensions>
      </trkpt>
      <trkpt lat="43.46049726940691471099853515625" lon="1.4736668206751346588134765625">
        <ele>285.20001220703125</ele>
        <time>2026-08-05T07:37:38.000Z</time>
        <extensions>
          <ns3:TrackPointExtension>
            <ns3:hr>70</ns3:hr>
            <ns3:cad>46</ns3:cad>
          </ns3:TrackPointExtension>
        </extensions>
      </trkpt>
      <trkpt lat="43.46050120890140533447265625" lon="1.4736520685255527496337890625">
        <ele>285.20001220703125</ele>
        <time>2026-08-05T07:37:39.000Z</time>
        <extensions>
          <ns3:TrackPointExtension>
            <ns3:hr>69</ns3:hr>
            <ns3:cad>46</ns3:cad>
          </ns3:TrackPointExtension>
        </extensions>
      </trkpt>
      <trkpt lat="43.460505567491054534912109375" lon="1.47363706491887569427490234375">
        <ele>285.20001220703125</ele>
        <time>2026-08-05T07:37:40.000Z</time>
        <extensions>
          <ns3:TrackPointExtension>
            <ns3:hr>69</ns3:hr>
            <ns3:cad>46</ns3:cad>
          </ns3:TrackPointExtension>
        </extensions>
      </trkpt>
      <trkpt lat="43.4605097584426403045654296875" lon="1.4736242406070232391357421875">
        <ele>285.20001220703125</ele>
        <time>2026-08-05T07:37:41.000Z</time>
        <extensions>
          <ns3:TrackPointExtension>
            <ns3:hr>69</ns3:hr>
            <ns3:cad>46</ns3:cad>
          </ns3:TrackPointExtension>
        </extensions>
      </trkpt>
      <trkpt lat="43.460514284670352935791015625" lon="1.473616696894168853759765625">
        <ele>285.20001220703125</ele>
        <time>2026-08-05T07:37:42.000Z</time>
        <extensions>
          <ns3:TrackPointExtension>
            <ns3:hr>68</ns3:hr>
            <ns3:cad>47</ns3:cad>
          </ns3:TrackPointExtension>
        </extensions>
      </trkpt>
      <trkpt lat="43.46051788888871669769287109375" lon="1.47360898554325103759765625">
        <ele>285.20001220703125</ele>
        <time>2026-08-05T07:37:43.000Z</time>
        <extensions>
          <ns3:TrackPointExtension>
            <ns3:hr>68</ns3:hr>
            <ns3:cad>47</ns3:cad>
          </ns3:TrackPointExtension>
        </extensions>
      </trkpt>
      <trkpt lat="43.460521660745143890380859375" lon="1.47359800525009632110595703125">
        <ele>285</ele>
        <time>2026-08-05T07:37:44.000Z</time>
        <extensions>
          <ns3:TrackPointExtension>
            <ns3:hr>67</ns3:hr>
            <ns3:cad>46</ns3:cad>
          </ns3:TrackPointExtension>
        </extensions>
      </trkpt>
      <trkpt lat="43.4605271928012371063232421875" lon="1.47358476184308528900146484375">
        <ele>285</ele>
        <time>2026-08-05T07:37:45.000Z</time>
        <extensions>
          <ns3:TrackPointExtension>
            <ns3:hr>67</ns3:hr>
            <ns3:cad>46</ns3:cad>
          </ns3:TrackPointExtension>
        </extensions>
      </trkpt>
      <trkpt lat="43.460533060133457183837890625" lon="1.473571769893169403076171875">
        <ele>284.79998779296875</ele>
        <time>2026-08-05T07:37:46.000Z</time>
        <extensions>
          <ns3:TrackPointExtension>
            <ns3:hr>66</ns3:hr>
            <ns3:cad>47</ns3:cad>
          </ns3:TrackPointExtension>
        </extensions>
      </trkpt>
      <trkpt lat="43.46053901128470897674560546875" lon="1.47356078960001468658447265625">
        <ele>284.79998779296875</ele>
        <time>2026-08-05T07:37:47.000Z</time>
        <extensions>
          <ns3:TrackPointExtension>
            <ns3:hr>66</ns3:hr>
            <ns3:cad>47</ns3:cad>
          </ns3:TrackPointExtension>
        </extensions>
      </trkpt>
      <trkpt lat="43.460544459521770477294921875" lon="1.47354637272655963897705078125">
        <ele>284.79998779296875</ele>
        <time>2026-08-05T07:37:48.000Z</time>
        <extensions>
          <ns3:TrackPointExtension>
            <ns3:hr>65</ns3:hr>
            <ns3:cad>47</ns3:cad>
          </ns3:TrackPointExtension>
        </extensions>
      </trkpt>
      <trkpt lat="43.46055007539689540863037109375" lon="1.47353162057697772979736328125">
        <ele>285</ele>
        <time>2026-08-05T07:37:49.000Z</time>
        <extensions>
          <ns3:TrackPointExtension>
            <ns3:hr>65</ns3:hr>
            <ns3:cad>47</ns3:cad>
          </ns3:TrackPointExtension>
        </extensions>
      </trkpt>
      <trkpt lat="43.46055493690073490142822265625" lon="1.473520137369632720947265625">
        <ele>285.20001220703125</ele>
        <time>2026-08-05T07:37:50.000Z</time>
        <extensions>
          <ns3:TrackPointExtension>
            <ns3:hr>65</ns3:hr>
            <ns3:cad>46</ns3:cad>
          </ns3:TrackPointExtension>
        </extensions>
      </trkpt>
      <trkpt lat="43.460559546947479248046875" lon="1.473508067429065704345703125">
        <ele>285.20001220703125</ele>
        <time>2026-08-05T07:37:51.000Z</time>
        <extensions>
          <ns3:TrackPointExtension>
            <ns3:hr>65</ns3:hr>
            <ns3:cad>45</ns3:cad>
          </ns3:TrackPointExtension>
        </extensions>
      </trkpt>
      <trkpt lat="43.4605640731751918792724609375" lon="1.47349499166011810302734375">
        <ele>285.20001220703125</ele>
        <time>2026-08-05T07:37:52.000Z</time>
        <extensions>
          <ns3:TrackPointExtension>
            <ns3:hr>65</ns3:hr>
            <ns3:cad>45</ns3:cad>
          </ns3:TrackPointExtension>
        </extensions>
      </trkpt>
      <trkpt lat="43.460569269955158233642578125" lon="1.4734827540814876556396484375">
        <ele>285.20001220703125</ele>
        <time>2026-08-05T07:37:53.000Z</time>
        <extensions>
          <ns3:TrackPointExtension>
            <ns3:hr>64</ns3:hr>
            <ns3:cad>46</ns3:cad>
          </ns3:TrackPointExtension>
        </extensions>
      </trkpt>
      <trkpt lat="43.46057538874447345733642578125" lon="1.47347219288349151611328125">
        <ele>285.20001220703125</ele>
        <time>2026-08-05T07:37:54.000Z</time>
        <extensions>
          <ns3:TrackPointExtension>
            <ns3:hr>65</ns3:hr>
            <ns3:cad>46</ns3:cad>
          </ns3:TrackPointExtension>
        </extensions>
      </trkpt>
      <trkpt lat="43.46058075316250324249267578125" lon="1.4734609611332416534423828125">
        <ele>285.20001220703125</ele>
        <time>2026-08-05T07:37:55.000Z</time>
        <extensions>
          <ns3:TrackPointExtension>
            <ns3:hr>64</ns3:hr>
            <ns3:cad>46</ns3:cad>
          </ns3:TrackPointExtension>
        </extensions>
      </trkpt>
      <trkpt lat="43.46058662049472332000732421875" lon="1.47344897501170635223388671875">
        <ele>285.20001220703125</ele>
        <time>2026-08-05T07:37:56.000Z</time>
        <extensions>
          <ns3:TrackPointExtension>
            <ns3:hr>64</ns3:hr>
            <ns3:cad>46</ns3:cad>
          </ns3:TrackPointExtension>
        </extensions>
      </trkpt>
      <trkpt lat="43.4605912305414676666259765625" lon="1.47343522869050502777099609375">
        <ele>285.20001220703125</ele>
        <time>2026-08-05T07:37:57.000Z</time>
        <extensions>
          <ns3:TrackPointExtension>
            <ns3:hr>64</ns3:hr>
            <ns3:cad>46</ns3:cad>
          </ns3:TrackPointExtension>
        </extensions>
      </trkpt>
      <trkpt lat="43.4605957567691802978515625" lon="1.4734240807592868804931640625">
        <ele>285.20001220703125</ele>
        <time>2026-08-05T07:37:58.000Z</time>
        <extensions>
          <ns3:TrackPointExtension>
            <ns3:hr>64</ns3:hr>
            <ns3:cad>45</ns3:cad>
          </ns3:TrackPointExtension>
        </extensions>
      </trkpt>
      <trkpt lat="43.4606006182730197906494140625" lon="1.4734123460948467254638671875">
        <ele>285.20001220703125</ele>
        <time>2026-08-05T07:37:59.000Z</time>
        <extensions>
          <ns3:TrackPointExtension>
            <ns3:hr>64</ns3:hr>
            <ns3:cad>45</ns3:cad>
          </ns3:TrackPointExtension>
        </extensions>
      </trkpt>
      <trkpt lat="43.4606053121387958526611328125" lon="1.4733996056020259857177734375">
        <ele>285.20001220703125</ele>
        <time>2026-08-05T07:38:00.000Z</time>
        <extensions>
          <ns3:TrackPointExtension>
            <ns3:hr>64</ns3:hr>
            <ns3:cad>45</ns3:cad>
          </ns3:TrackPointExtension>
        </extensions>
      </trkpt>
      <trkpt lat="43.46061025746166706085205078125" lon="1.47338770329952239990234375">
        <ele>285.20001220703125</ele>
        <time>2026-08-05T07:38:01.000Z</time>
        <extensions>
          <ns3:TrackPointExtension>
            <ns3:hr>64</ns3:hr>
            <ns3:cad>45</ns3:cad>
          </ns3:TrackPointExtension>
        </extensions>
      </trkpt>
      <trkpt lat="43.4606145322322845458984375" lon="1.47337689064443111419677734375">
        <ele>285.20001220703125</ele>
        <time>2026-08-05T07:38:02.000Z</time>
        <extensions>
          <ns3:TrackPointExtension>
            <ns3:hr>64</ns3:hr>
            <ns3:cad>44</ns3:cad>
          </ns3:TrackPointExtension>
        </extensions>
      </trkpt>
      <trkpt lat="43.460618555545806884765625" lon="1.47337068803608417510986328125">
        <ele>285</ele>
        <time>2026-08-05T07:38:03.000Z</time>
        <extensions>
          <ns3:TrackPointExtension>
            <ns3:hr>64</ns3:hr>
            <ns3:cad>44</ns3:cad>
          </ns3:TrackPointExtension>
        </extensions>
      </trkpt>
      <trkpt lat="43.46062517724931240081787109375" lon="1.4733597077429294586181640625">
        <ele>285</ele>
        <time>2026-08-05T07:38:04.000Z</time>
        <extensions>
          <ns3:TrackPointExtension>
            <ns3:hr>64</ns3:hr>
            <ns3:cad>44</ns3:cad>
          </ns3:TrackPointExtension>
        </extensions>
      </trkpt>
      <trkpt lat="43.460630960762500762939453125" lon="1.473348140716552734375">
        <ele>285</ele>
        <time>2026-08-05T07:38:05.000Z</time>
        <extensions>
          <ns3:TrackPointExtension>
            <ns3:hr>64</ns3:hr>
            <ns3:cad>44</ns3:cad>
          </ns3:TrackPointExtension>
        </extensions>
      </trkpt>
      <trkpt lat="43.46063573844730854034423828125" lon="1.47333598695695400238037109375">
        <ele>285.20001220703125</ele>
        <time>2026-08-05T07:38:06.000Z</time>
        <extensions>
          <ns3:TrackPointExtension>
            <ns3:hr>64</ns3:hr>
            <ns3:cad>45</ns3:cad>
          </ns3:TrackPointExtension>
        </extensions>
      </trkpt>
      <trkpt lat="43.46063992939889430999755859375" lon="1.47332458756864070892333984375">
        <ele>285.20001220703125</ele>
        <time>2026-08-05T07:38:07.000Z</time>
        <extensions>
          <ns3:TrackPointExtension>
            <ns3:hr>63</ns3:hr>
            <ns3:cad>46</ns3:cad>
          </ns3:TrackPointExtension>
        </extensions>
      </trkpt>
      <trkpt lat="43.46064697019755840301513671875" lon="1.47330991923809051513671875">
        <ele>285</ele>
        <time>2026-08-05T07:38:08.000Z</time>
        <extensions>
          <ns3:TrackPointExtension>
            <ns3:hr>63</ns3:hr>
            <ns3:cad>46</ns3:cad>
          </ns3:TrackPointExtension>
        </extensions>
      </trkpt>
      <trkpt lat="43.46065317280590534210205078125" lon="1.4732958376407623291015625">
        <ele>285</ele>
        <time>2026-08-05T07:38:09.000Z</time>
        <extensions>
          <ns3:TrackPointExtension>
            <ns3:hr>63</ns3:hr>
            <ns3:cad>46</ns3:cad>
          </ns3:TrackPointExtension>
        </extensions>
      </trkpt>
      <trkpt lat="43.4606592915952205657958984375" lon="1.4732832647860050201416015625">
        <ele>285</ele>
        <time>2026-08-05T07:38:10.000Z</time>
        <extensions>
          <ns3:TrackPointExtension>
            <ns3:hr>63</ns3:hr>
            <ns3:cad>46</ns3:cad>
          </ns3:TrackPointExtension>
        </extensions>
      </trkpt>
      <trkpt lat="43.46066457219421863555908203125" lon="1.47327261976897716522216796875">
        <ele>285</ele>
        <time>2026-08-05T07:38:11.000Z</time>
        <extensions>
          <ns3:TrackPointExtension>
            <ns3:hr>63</ns3:hr>
            <ns3:cad>46</ns3:cad>
          </ns3:TrackPointExtension>
        </extensions>
      </trkpt>
      <trkpt lat="43.46066951751708984375" lon="1.47326306439936161041259765625">
        <ele>285</ele>
        <time>2026-08-05T07:38:12.000Z</time>
        <extensions>
          <ns3:TrackPointExtension>
            <ns3:hr>64</ns3:hr>
            <ns3:cad>46</ns3:cad>
          </ns3:TrackPointExtension>
        </extensions>
      </trkpt>
      <trkpt lat="43.46067496575415134429931640625" lon="1.4732494018971920013427734375">
        <ele>285</ele>
        <time>2026-08-05T07:38:13.000Z</time>
        <extensions>
          <ns3:TrackPointExtension>
            <ns3:hr>64</ns3:hr>
            <ns3:cad>46</ns3:cad>
          </ns3:TrackPointExtension>
        </extensions>
      </trkpt>
      <trkpt lat="43.46067999489605426788330078125" lon="1.4732373319566249847412109375">
        <ele>285</ele>
        <time>2026-08-05T07:38:14.000Z</time>
        <extensions>
          <ns3:TrackPointExtension>
            <ns3:hr>64</ns3:hr>
            <ns3:cad>46</ns3:cad>
          </ns3:TrackPointExtension>
        </extensions>
      </trkpt>
      <trkpt lat="43.46068619750440120697021484375" lon="1.4732259325683116912841796875">
        <ele>284.79998779296875</ele>
        <time>2026-08-05T07:38:15.000Z</time>
        <extensions>
          <ns3:TrackPointExtension>
            <ns3:hr>64</ns3:hr>
            <ns3:cad>46</ns3:cad>
          </ns3:TrackPointExtension>
        </extensions>
      </trkpt>
      <trkpt lat="43.4606928192079067230224609375" lon="1.47321528755128383636474609375">
        <ele>284.600006103515625</ele>
        <time>2026-08-05T07:38:16.000Z</time>
        <extensions>
          <ns3:TrackPointExtension>
            <ns3:hr>63</ns3:hr>
            <ns3:cad>46</ns3:cad>
          </ns3:TrackPointExtension>
        </extensions>
      </trkpt>
      <trkpt lat="43.4607001952826976776123046875" lon="1.4732024632394313812255859375">
        <ele>284.399993896484375</ele>
        <time>2026-08-05T07:38:17.000Z</time>
        <extensions>
          <ns3:TrackPointExtension>
            <ns3:hr>64</ns3:hr>
            <ns3:cad>46</ns3:cad>
          </ns3:TrackPointExtension>
        </extensions>
      </trkpt>
      <trkpt lat="43.46070530824363231658935546875" lon="1.47318997420370578765869140625">
        <ele>284.399993896484375</ele>
        <time>2026-08-05T07:38:18.000Z</time>
        <extensions>
          <ns3:TrackPointExtension>
            <ns3:hr>64</ns3:hr>
            <ns3:cad>45</ns3:cad>
          </ns3:TrackPointExtension>
        </extensions>
      </trkpt>
      <trkpt lat="43.4607095830142498016357421875" lon="1.47317974828183650970458984375">
        <ele>284.399993896484375</ele>
        <time>2026-08-05T07:38:19.000Z</time>
        <extensions>
          <ns3:TrackPointExtension>
            <ns3:hr>64</ns3:hr>
            <ns3:cad>45</ns3:cad>
          </ns3:TrackPointExtension>
        </extensions>
      </trkpt>
      <trkpt lat="43.46071444451808929443359375" lon="1.4731702767312526702880859375">
        <ele>284.600006103515625</ele>
        <time>2026-08-05T07:38:20.000Z</time>
        <extensions>
          <ns3:TrackPointExtension>
            <ns3:hr>64</ns3:hr>
            <ns3:cad>46</ns3:cad>
          </ns3:TrackPointExtension>
        </extensions>
      </trkpt>
      <trkpt lat="43.46072106622159481048583984375" lon="1.47315862588584423065185546875">
        <ele>284.600006103515625</ele>
        <time>2026-08-05T07:38:21.000Z</time>
        <extensions>
          <ns3:TrackPointExtension>
            <ns3:hr>65</ns3:hr>
            <ns3:cad>46</ns3:cad>
          </ns3:TrackPointExtension>
        </extensions>
      </trkpt>
      <trkpt lat="43.460726179182529449462890625" lon="1.47314555011689662933349609375">
        <ele>284.79998779296875</ele>
        <time>2026-08-05T07:38:22.000Z</time>
        <extensions>
          <ns3:TrackPointExtension>
            <ns3:hr>64</ns3:hr>
            <ns3:cad>46</ns3:cad>
          </ns3:TrackPointExtension>
        </extensions>
      </trkpt>
      <trkpt lat="43.46073078922927379608154296875" lon="1.47313700057566165924072265625">
        <ele>284.79998779296875</ele>
        <time>2026-08-05T07:38:23.000Z</time>
        <extensions>
          <ns3:TrackPointExtension>
            <ns3:hr>64</ns3:hr>
            <ns3:cad>46</ns3:cad>
          </ns3:TrackPointExtension>
        </extensions>
      </trkpt>
      <trkpt lat="43.46073632128536701202392578125" lon="1.47312476299703121185302734375">
        <ele>284.79998779296875</ele>
        <time>2026-08-05T07:38:24.000Z</time>
        <extensions>
          <ns3:TrackPointExtension>
            <ns3:hr>64</ns3:hr>
            <ns3:cad>46</ns3:cad>
          </ns3:TrackPointExtension>
        </extensions>
      </trkpt>
      <trkpt lat="43.46074185334146022796630859375" lon="1.47311537526547908782958984375">
        <ele>284.79998779296875</ele>
        <time>2026-08-05T07:38:25.000Z</time>
        <extensions>
          <ns3:TrackPointExtension>
            <ns3:hr>64</ns3:hr>
            <ns3:cad>45</ns3:cad>
          </ns3:TrackPointExtension>
        </extensions>
      </trkpt>
      <trkpt lat="43.4607464633882045745849609375" lon="1.47310129366815090179443359375">
        <ele>285</ele>
        <time>2026-08-05T07:38:26.000Z</time>
        <extensions>
          <ns3:TrackPointExtension>
            <ns3:hr>65</ns3:hr>
            <ns3:cad>45</ns3:cad>
          </ns3:TrackPointExtension>
        </extensions>
      </trkpt>
      <trkpt lat="43.46075207926332950592041015625" lon="1.47308922372758388519287109375">
        <ele>285</ele>
        <time>2026-08-05T07:38:27.000Z</time>
        <extensions>
          <ns3:TrackPointExtension>
            <ns3:hr>64</ns3:hr>
            <ns3:cad>44</ns3:cad>
          </ns3:TrackPointExtension>
        </extensions>
      </trkpt>
      <trkpt lat="43.46075744368135929107666015625" lon="1.4730794169008731842041015625">
        <ele>285</ele>
        <time>2026-08-05T07:38:28.000Z</time>
        <extensions>
          <ns3:TrackPointExtension>
            <ns3:hr>64</ns3:hr>
            <ns3:cad>44</ns3:cad>
          </ns3:TrackPointExtension>
        </extensions>
      </trkpt>
      <trkpt lat="43.46076331101357936859130859375" lon="1.47307044826447963714599609375">
        <ele>285</ele>
        <time>2026-08-05T07:38:29.000Z</time>
        <extensions>
          <ns3:TrackPointExtension>
            <ns3:hr>65</ns3:hr>
            <ns3:cad>47</ns3:cad>
          </ns3:TrackPointExtension>
        </extensions>
      </trkpt>
      <trkpt lat="43.4607712738215923309326171875" lon="1.473061479628086090087890625">
        <ele>285</ele>
        <time>2026-08-05T07:38:30.000Z</time>
        <extensions>
          <ns3:TrackPointExtension>
            <ns3:hr>65</ns3:hr>
            <ns3:cad>47</ns3:cad>
          </ns3:TrackPointExtension>
        </extensions>
      </trkpt>
      <trkpt lat="43.460776470601558685302734375" lon="1.47305418737232685089111328125">
        <ele>284.79998779296875</ele>
        <time>2026-08-05T07:38:31.000Z</time>
        <extensions>
          <ns3:TrackPointExtension>
            <ns3:hr>65</ns3:hr>
            <ns3:cad>46</ns3:cad>
          </ns3:TrackPointExtension>
        </extensions>
      </trkpt>
      <trkpt lat="43.460783176124095916748046875" lon="1.47304303944110870361328125">
        <ele>284.79998779296875</ele>
        <time>2026-08-05T07:38:32.000Z</time>
        <extensions>
          <ns3:TrackPointExtension>
            <ns3:hr>65</ns3:hr>
            <ns3:cad>46</ns3:cad>
          </ns3:TrackPointExtension>
        </extensions>
      </trkpt>
      <trkpt lat="43.4607888758182525634765625" lon="1.47303164005279541015625">
        <ele>284.79998779296875</ele>
        <time>2026-08-05T07:38:33.000Z</time>
        <extensions>
          <ns3:TrackPointExtension>
            <ns3:hr>64</ns3:hr>
            <ns3:cad>46</ns3:cad>
          </ns3:TrackPointExtension>
        </extensions>
      </trkpt>
      <trkpt lat="43.4607960842549800872802734375" lon="1.4730180613696575164794921875">
        <ele>284.600006103515625</ele>
        <time>2026-08-05T07:38:34.000Z</time>
        <extensions>
          <ns3:TrackPointExtension>
            <ns3:hr>65</ns3:hr>
            <ns3:cad>46</ns3:cad>
          </ns3:TrackPointExtension>
        </extensions>
      </trkpt>
      <trkpt lat="43.46080136485397815704345703125" lon="1.4730083383619785308837890625">
        <ele>284.600006103515625</ele>
        <time>2026-08-05T07:38:35.000Z</time>
        <extensions>
          <ns3:TrackPointExtension>
            <ns3:hr>65</ns3:hr>
            <ns3:cad>46</ns3:cad>
          </ns3:TrackPointExtension>
        </extensions>
      </trkpt>
      <trkpt lat="43.46080421470105648040771484375" lon="1.47299903444945812225341796875">
        <ele>284.399993896484375</ele>
        <time>2026-08-05T07:38:36.000Z</time>
        <extensions>
          <ns3:TrackPointExtension>
            <ns3:hr>65</ns3:hr>
            <ns3:cad>46</ns3:cad>
          </ns3:TrackPointExtension>
        </extensions>
      </trkpt>
      <trkpt lat="43.46080924384295940399169921875" lon="1.47298847325146198272705078125">
        <ele>284.399993896484375</ele>
        <time>2026-08-05T07:38:37.000Z</time>
        <extensions>
          <ns3:TrackPointExtension>
            <ns3:hr>65</ns3:hr>
            <ns3:cad>47</ns3:cad>
          </ns3:TrackPointExtension>
        </extensions>
      </trkpt>
      <trkpt lat="43.46081611700356006622314453125" lon="1.472974307835102081298828125">
        <ele>284.20001220703125</ele>
        <time>2026-08-05T07:38:38.000Z</time>
        <extensions>
          <ns3:TrackPointExtension>
            <ns3:hr>65</ns3:hr>
            <ns3:cad>47</ns3:cad>
          </ns3:TrackPointExtension>
        </extensions>
      </trkpt>
      <trkpt lat="43.460822068154811859130859375" lon="1.47296114824712276458740234375">
        <ele>284.20001220703125</ele>
        <time>2026-08-05T07:38:39.000Z</time>
        <extensions>
          <ns3:TrackPointExtension>
            <ns3:hr>65</ns3:hr>
            <ns3:cad>47</ns3:cad>
          </ns3:TrackPointExtension>
        </extensions>
      </trkpt>
      <trkpt lat="43.4608264267444610595703125" lon="1.47294706664979457855224609375">
        <ele>284.20001220703125</ele>
        <time>2026-08-05T07:38:40.000Z</time>
        <extensions>
          <ns3:TrackPointExtension>
            <ns3:hr>66</ns3:hr>
            <ns3:cad>46</ns3:cad>
          </ns3:TrackPointExtension>
        </extensions>
      </trkpt>
      <trkpt lat="43.46083338372409343719482421875" lon="1.4729352481663227081298828125">
        <ele>284.20001220703125</ele>
        <time>2026-08-05T07:38:41.000Z</time>
        <extensions>
          <ns3:TrackPointExtension>
            <ns3:hr>66</ns3:hr>
            <ns3:cad>46</ns3:cad>
          </ns3:TrackPointExtension>
        </extensions>
      </trkpt>
      <trkpt lat="43.46084109507501125335693359375" lon="1.47291739471256732940673828125">
        <ele>284.20001220703125</ele>
        <time>2026-08-05T07:38:42.000Z</time>
        <extensions>
          <ns3:TrackPointExtension>
            <ns3:hr>66</ns3:hr>
            <ns3:cad>46</ns3:cad>
          </ns3:TrackPointExtension>
        </extensions>
      </trkpt>
      <trkpt lat="43.46084629185497760772705078125" lon="1.4729015529155731201171875">
        <ele>284.399993896484375</ele>
        <time>2026-08-05T07:38:43.000Z</time>
        <extensions>
          <ns3:TrackPointExtension>
            <ns3:hr>66</ns3:hr>
            <ns3:cad>46</ns3:cad>
          </ns3:TrackPointExtension>
        </extensions>
      </trkpt>
      <trkpt lat="43.4608514048159122467041015625" lon="1.472889482975006103515625">
        <ele>284.600006103515625</ele>
        <time>2026-08-05T07:38:44.000Z</time>
        <extensions>
          <ns3:TrackPointExtension>
            <ns3:hr>66</ns3:hr>
            <ns3:cad>46</ns3:cad>
          </ns3:TrackPointExtension>
        </extensions>
      </trkpt>
      <trkpt lat="43.46085618250072002410888671875" lon="1.47287816740572452545166015625">
        <ele>284.600006103515625</ele>
        <time>2026-08-05T07:38:45.000Z</time>
        <extensions>
          <ns3:TrackPointExtension>
            <ns3:hr>65</ns3:hr>
            <ns3:cad>46</ns3:cad>
          </ns3:TrackPointExtension>
        </extensions>
      </trkpt>
      <trkpt lat="43.46086372621357440948486328125" lon="1.47286509163677692413330078125">
        <ele>284.600006103515625</ele>
        <time>2026-08-05T07:38:46.000Z</time>
        <extensions>
          <ns3:TrackPointExtension>
            <ns3:hr>65</ns3:hr>
            <ns3:cad>46</ns3:cad>
          </ns3:TrackPointExtension>
        </extensions>
      </trkpt>
      <trkpt lat="43.460869677364826202392578125" lon="1.47284966893494129180908203125">
        <ele>284.600006103515625</ele>
        <time>2026-08-05T07:38:47.000Z</time>
        <extensions>
          <ns3:TrackPointExtension>
            <ns3:hr>65</ns3:hr>
            <ns3:cad>47</ns3:cad>
          </ns3:TrackPointExtension>
        </extensions>
      </trkpt>
      <trkpt lat="43.46087479032576084136962890625" lon="1.47283919155597686767578125">
        <ele>284.600006103515625</ele>
        <time>2026-08-05T07:38:48.000Z</time>
        <extensions>
          <ns3:TrackPointExtension>
            <ns3:hr>65</ns3:hr>
            <ns3:cad>47</ns3:cad>
          </ns3:TrackPointExtension>
        </extensions>
      </trkpt>
      <trkpt lat="43.460879065096378326416015625" lon="1.47283055819571018218994140625">
        <ele>284.600006103515625</ele>
        <time>2026-08-05T07:38:49.000Z</time>
        <extensions>
          <ns3:TrackPointExtension>
            <ns3:hr>65</ns3:hr>
            <ns3:cad>46</ns3:cad>
          </ns3:TrackPointExtension>
        </extensions>
      </trkpt>
      <trkpt lat="43.46088451333343982696533203125" lon="1.47282100282609462738037109375">
        <ele>284.600006103515625</ele>
        <time>2026-08-05T07:38:50.000Z</time>
        <extensions>
          <ns3:TrackPointExtension>
            <ns3:hr>65</ns3:hr>
            <ns3:cad>46</ns3:cad>
          </ns3:TrackPointExtension>
        </extensions>
      </trkpt>
      <trkpt lat="43.46089105121791362762451171875" lon="1.47280826233327388763427734375">
        <ele>284.600006103515625</ele>
        <time>2026-08-05T07:38:51.000Z</time>
        <extensions>
          <ns3:TrackPointExtension>
            <ns3:hr>65</ns3:hr>
            <ns3:cad>46</ns3:cad>
          </ns3:TrackPointExtension>
        </extensions>
      </trkpt>
      <trkpt lat="43.46089683473110198974609375" lon="1.47279753349721431732177734375">
        <ele>284.399993896484375</ele>
        <time>2026-08-05T07:38:52.000Z</time>
        <extensions>
          <ns3:TrackPointExtension>
            <ns3:hr>65</ns3:hr>
            <ns3:cad>45</ns3:cad>
          </ns3:TrackPointExtension>
        </extensions>
      </trkpt>
      <trkpt lat="43.4609030373394489288330078125" lon="1.472787223756313323974609375">
        <ele>284.399993896484375</ele>
        <time>2026-08-05T07:38:53.000Z</time>
        <extensions>
          <ns3:TrackPointExtension>
            <ns3:hr>66</ns3:hr>
            <ns3:cad>45</ns3:cad>
          </ns3:TrackPointExtension>
        </extensions>
      </trkpt>
      <trkpt lat="43.46090882085263729095458984375" lon="1.472774483263492584228515625">
        <ele>284.399993896484375</ele>
        <time>2026-08-05T07:38:54.000Z</time>
        <extensions>
          <ns3:TrackPointExtension>
            <ns3:hr>67</ns3:hr>
            <ns3:cad>45</ns3:cad>
          </ns3:TrackPointExtension>
        </extensions>
      </trkpt>
      <trkpt lat="43.46091167069971561431884765625" lon="1.47276140749454498291015625">
        <ele>284.20001220703125</ele>
        <time>2026-08-05T07:38:55.000Z</time>
        <extensions>
          <ns3:TrackPointExtension>
            <ns3:hr>70</ns3:hr>
            <ns3:cad>45</ns3:cad>
          </ns3:TrackPointExtension>
        </extensions>
      </trkpt>
      <trkpt lat="43.4609181247651576995849609375" lon="1.47275093011558055877685546875">
        <ele>284.20001220703125</ele>
        <time>2026-08-05T07:38:56.000Z</time>
        <extensions>
          <ns3:TrackPointExtension>
            <ns3:hr>71</ns3:hr>
            <ns3:cad>45</ns3:cad>
          </ns3:TrackPointExtension>
        </extensions>
      </trkpt>
      <trkpt lat="43.46092307008802890777587890625" lon="1.472742296755313873291015625">
        <ele>284</ele>
        <time>2026-08-05T07:38:57.000Z</time>
        <extensions>
          <ns3:TrackPointExtension>
            <ns3:hr>72</ns3:hr>
            <ns3:cad>46</ns3:cad>
          </ns3:TrackPointExtension>
        </extensions>
      </trkpt>
      <trkpt lat="43.4609275124967098236083984375" lon="1.47272980771958827972412109375">
        <ele>283.79998779296875</ele>
        <time>2026-08-05T07:38:58.000Z</time>
        <extensions>
          <ns3:TrackPointExtension>
            <ns3:hr>73</ns3:hr>
            <ns3:cad>47</ns3:cad>
          </ns3:TrackPointExtension>
        </extensions>
      </trkpt>
      <trkpt lat="43.4609305299818515777587890625" lon="1.47271555848419666290283203125">
        <ele>283.79998779296875</ele>
        <time>2026-08-05T07:38:59.000Z</time>
        <extensions>
          <ns3:TrackPointExtension>
            <ns3:hr>74</ns3:hr>
            <ns3:cad>47</ns3:cad>
          </ns3:TrackPointExtension>
        </extensions>
      </trkpt>
      <trkpt lat="43.46093949861824512481689453125" lon="1.47270281799137592315673828125">
        <ele>283.79998779296875</ele>
        <time>2026-08-05T07:39:00.000Z</time>
        <extensions>
          <ns3:TrackPointExtension>
            <ns3:hr>75</ns3:hr>
            <ns3:cad>46</ns3:cad>
          </ns3:TrackPointExtension>
        </extensions>
      </trkpt>
      <trkpt lat="43.46094670705497264862060546875" lon="1.472692675888538360595703125">
        <ele>283.600006103515625</ele>
        <time>2026-08-05T07:39:01.000Z</time>
        <extensions>
          <ns3:TrackPointExtension>
            <ns3:hr>75</ns3:hr>
            <ns3:cad>46</ns3:cad>
          </ns3:TrackPointExtension>
        </extensions>
      </trkpt>
      <trkpt lat="43.46095182001590728759765625" lon="1.4726834557950496673583984375">
        <ele>283.600006103515625</ele>
        <time>2026-08-05T07:39:02.000Z</time>
        <extensions>
          <ns3:TrackPointExtension>
            <ns3:hr>75</ns3:hr>
            <ns3:cad>48</ns3:cad>
          </ns3:TrackPointExtension>
        </extensions>
      </trkpt>
      <trkpt lat="43.46095777116715908050537109375" lon="1.47267247550189495086669921875">
        <ele>283.79998779296875</ele>
        <time>2026-08-05T07:39:03.000Z</time>
        <extensions>
          <ns3:TrackPointExtension>
            <ns3:hr>76</ns3:hr>
            <ns3:cad>48</ns3:cad>
          </ns3:TrackPointExtension>
        </extensions>
      </trkpt>
      <trkpt lat="43.46096397377550601959228515625" lon="1.4726601541042327880859375">
        <ele>283.600006103515625</ele>
        <time>2026-08-05T07:39:04.000Z</time>
        <extensions>
          <ns3:TrackPointExtension>
            <ns3:hr>75</ns3:hr>
            <ns3:cad>48</ns3:cad>
          </ns3:TrackPointExtension>
        </extensions>
      </trkpt>
      <trkpt lat="43.46097151748836040496826171875" lon="1.47265135310590267181396484375">
        <ele>283.600006103515625</ele>
        <time>2026-08-05T07:39:05.000Z</time>
        <extensions>
          <ns3:TrackPointExtension>
            <ns3:hr>76</ns3:hr>
            <ns3:cad>47</ns3:cad>
          </ns3:TrackPointExtension>
        </extensions>
      </trkpt>
      <trkpt lat="43.46097755245864391326904296875" lon="1.4726422168314456939697265625">
        <ele>283.600006103515625</ele>
        <time>2026-08-05T07:39:06.000Z</time>
        <extensions>
          <ns3:TrackPointExtension>
            <ns3:hr>76</ns3:hr>
            <ns3:cad>46</ns3:cad>
          </ns3:TrackPointExtension>
        </extensions>
      </trkpt>
      <trkpt lat="43.4609819948673248291015625" lon="1.47263241000473499298095703125">
        <ele>283.600006103515625</ele>
        <time>2026-08-05T07:39:07.000Z</time>
        <extensions>
          <ns3:TrackPointExtension>
            <ns3:hr>76</ns3:hr>
            <ns3:cad>46</ns3:cad>
          </ns3:TrackPointExtension>
        </extensions>
      </trkpt>
      <trkpt lat="43.4609898738563060760498046875" lon="1.472620256245136260986328125">
        <ele>283.399993896484375</ele>
        <time>2026-08-05T07:39:08.000Z</time>
        <extensions>
          <ns3:TrackPointExtension>
            <ns3:hr>76</ns3:hr>
            <ns3:cad>46</ns3:cad>
          </ns3:TrackPointExtension>
        </extensions>
      </trkpt>
      <trkpt lat="43.46099632792174816131591796875" lon="1.47260852158069610595703125">
        <ele>283.399993896484375</ele>
        <time>2026-08-05T07:39:09.000Z</time>
        <extensions>
          <ns3:TrackPointExtension>
            <ns3:hr>76</ns3:hr>
            <ns3:cad>46</ns3:cad>
          </ns3:TrackPointExtension>
        </extensions>
      </trkpt>
      <trkpt lat="43.461003787815570831298828125" lon="1.4725989662110805511474609375">
        <ele>283.399993896484375</ele>
        <time>2026-08-05T07:39:10.000Z</time>
        <extensions>
          <ns3:TrackPointExtension>
            <ns3:hr>76</ns3:hr>
            <ns3:cad>47</ns3:cad>
          </ns3:TrackPointExtension>
        </extensions>
      </trkpt>
      <trkpt lat="43.461010493338108062744140625" lon="1.47258932702243328094482421875">
        <ele>283.399993896484375</ele>
        <time>2026-08-05T07:39:11.000Z</time>
        <extensions>
          <ns3:TrackPointExtension>
            <ns3:hr>76</ns3:hr>
            <ns3:cad>47</ns3:cad>
          </ns3:TrackPointExtension>
        </extensions>
      </trkpt>
      <trkpt lat="43.4610170312225818634033203125" lon="1.472576670348644256591796875">
        <ele>283.399993896484375</ele>
        <time>2026-08-05T07:39:12.000Z</time>
        <extensions>
          <ns3:TrackPointExtension>
            <ns3:hr>77</ns3:hr>
            <ns3:cad>47</ns3:cad>
          </ns3:TrackPointExtension>
        </extensions>
      </trkpt>
      <trkpt lat="43.46102532930672168731689453125" lon="1.472561918199062347412109375">
        <ele>283.20001220703125</ele>
        <time>2026-08-05T07:39:13.000Z</time>
        <extensions>
          <ns3:TrackPointExtension>
            <ns3:hr>77</ns3:hr>
            <ns3:cad>47</ns3:cad>
          </ns3:TrackPointExtension>
        </extensions>
      </trkpt>
      <trkpt lat="43.46103253774344921112060546875" lon="1.47254959680140018463134765625">
        <ele>283.20001220703125</ele>
        <time>2026-08-05T07:39:14.000Z</time>
        <extensions>
          <ns3:TrackPointExtension>
            <ns3:hr>77</ns3:hr>
            <ns3:cad>47</ns3:cad>
          </ns3:TrackPointExtension>
        </extensions>
      </trkpt>
      <trkpt lat="43.46104008145630359649658203125" lon="1.472537107765674591064453125">
        <ele>283.20001220703125</ele>
        <time>2026-08-05T07:39:15.000Z</time>
        <extensions>
          <ns3:TrackPointExtension>
            <ns3:hr>78</ns3:hr>
            <ns3:cad>47</ns3:cad>
          </ns3:TrackPointExtension>
        </extensions>
      </trkpt>
      <trkpt lat="43.46104812808334827423095703125" lon="1.47252663038671016693115234375">
        <ele>283.20001220703125</ele>
        <time>2026-08-05T07:39:16.000Z</time>
        <extensions>
          <ns3:TrackPointExtension>
            <ns3:hr>78</ns3:hr>
            <ns3:cad>47</ns3:cad>
          </ns3:TrackPointExtension>
        </extensions>
      </trkpt>
      <trkpt lat="43.46105449832975864410400390625" lon="1.47251640446484088897705078125">
        <ele>283.20001220703125</ele>
        <time>2026-08-05T07:39:17.000Z</time>
        <extensions>
          <ns3:TrackPointExtension>
            <ns3:hr>78</ns3:hr>
            <ns3:cad>47</ns3:cad>
          </ns3:TrackPointExtension>
        </extensions>
      </trkpt>
      <trkpt lat="43.46106153912842273712158203125" lon="1.4725057594478130340576171875">
        <ele>283.399993896484375</ele>
        <time>2026-08-05T07:39:18.000Z</time>
        <extensions>
          <ns3:TrackPointExtension>
            <ns3:hr>78</ns3:hr>
            <ns3:cad>48</ns3:cad>
          </ns3:TrackPointExtension>
        </extensions>
      </trkpt>
      <trkpt lat="43.46106790937483310699462890625" lon="1.4724943600594997406005859375">
        <ele>283.399993896484375</ele>
        <time>2026-08-05T07:39:19.000Z</time>
        <extensions>
          <ns3:TrackPointExtension>
            <ns3:hr>78</ns3:hr>
            <ns3:cad>48</ns3:cad>
          </ns3:TrackPointExtension>
        </extensions>
      </trkpt>
      <trkpt lat="43.46107629127800464630126953125" lon="1.47248337976634502410888671875">
        <ele>283.20001220703125</ele>
        <time>2026-08-05T07:39:20.000Z</time>
        <extensions>
          <ns3:TrackPointExtension>
            <ns3:hr>78</ns3:hr>
            <ns3:cad>49</ns3:cad>
          </ns3:TrackPointExtension>
        </extensions>
      </trkpt>
      <trkpt lat="43.461083583533763885498046875" lon="1.47247499786317348480224609375">
        <ele>283.20001220703125</ele>
        <time>2026-08-05T07:39:21.000Z</time>
        <extensions>
          <ns3:TrackPointExtension>
            <ns3:hr>77</ns3:hr>
            <ns3:cad>49</ns3:cad>
          </ns3:TrackPointExtension>
        </extensions>
      </trkpt>
      <trkpt lat="43.46108852885663509368896484375" lon="1.47246443666517734527587890625">
        <ele>283.20001220703125</ele>
        <time>2026-08-05T07:39:22.000Z</time>
        <extensions>
          <ns3:TrackPointExtension>
            <ns3:hr>78</ns3:hr>
            <ns3:cad>48</ns3:cad>
          </ns3:TrackPointExtension>
        </extensions>
      </trkpt>
      <trkpt lat="43.46109456382691860198974609375" lon="1.47245320491492748260498046875">
        <ele>283.20001220703125</ele>
        <time>2026-08-05T07:39:23.000Z</time>
        <extensions>
          <ns3:TrackPointExtension>
            <ns3:hr>77</ns3:hr>
            <ns3:cad>48</ns3:cad>
          </ns3:TrackPointExtension>
        </extensions>
      </trkpt>
      <trkpt lat="43.46110059879720211029052734375" lon="1.47244331426918506622314453125">
        <ele>283.20001220703125</ele>
        <time>2026-08-05T07:39:24.000Z</time>
        <extensions>
          <ns3:TrackPointExtension>
            <ns3:hr>77</ns3:hr>
            <ns3:cad>47</ns3:cad>
          </ns3:TrackPointExtension>
        </extensions>
      </trkpt>
      <trkpt lat="43.46110596321523189544677734375" lon="1.47243174724280834197998046875">
        <ele>283</ele>
        <time>2026-08-05T07:39:25.000Z</time>
        <extensions>
          <ns3:TrackPointExtension>
            <ns3:hr>77</ns3:hr>
            <ns3:cad>47</ns3:cad>
          </ns3:TrackPointExtension>
        </extensions>
      </trkpt>
      <trkpt lat="43.46111132763326168060302734375" lon="1.47242018021643161773681640625">
        <ele>283</ele>
        <time>2026-08-05T07:39:26.000Z</time>
        <extensions>
          <ns3:TrackPointExtension>
            <ns3:hr>77</ns3:hr>
            <ns3:cad>47</ns3:cad>
          </ns3:TrackPointExtension>
        </extensions>
      </trkpt>
      <trkpt lat="43.46111811697483062744140625" lon="1.472408361732959747314453125">
        <ele>283</ele>
        <time>2026-08-05T07:39:27.000Z</time>
        <extensions>
          <ns3:TrackPointExtension>
            <ns3:hr>77</ns3:hr>
            <ns3:cad>47</ns3:cad>
          </ns3:TrackPointExtension>
        </extensions>
      </trkpt>
      <trkpt lat="43.46112524159252643585205078125" lon="1.47239620797336101531982421875">
        <ele>283</ele>
        <time>2026-08-05T07:39:28.000Z</time>
        <extensions>
          <ns3:TrackPointExtension>
            <ns3:hr>77</ns3:hr>
            <ns3:cad>48</ns3:cad>
          </ns3:TrackPointExtension>
        </extensions>
      </trkpt>
      <trkpt lat="43.4611295163631439208984375" lon="1.472385562956333160400390625">
        <ele>283</ele>
        <time>2026-08-05T07:39:29.000Z</time>
        <extensions>
          <ns3:TrackPointExtension>
            <ns3:hr>77</ns3:hr>
            <ns3:cad>48</ns3:cad>
          </ns3:TrackPointExtension>
        </extensions>
      </trkpt>
      <trkpt lat="43.461133874952793121337890625" lon="1.47237743251025676727294921875">
        <ele>283</ele>
        <time>2026-08-05T07:39:30.000Z</time>
        <extensions>
          <ns3:TrackPointExtension>
            <ns3:hr>78</ns3:hr>
            <ns3:cad>48</ns3:cad>
          </ns3:TrackPointExtension>
        </extensions>
      </trkpt>
      <trkpt lat="43.46113999374210834503173828125" lon="1.4723666198551654815673828125">
        <ele>283</ele>
        <time>2026-08-05T07:39:31.000Z</time>
        <extensions>
          <ns3:TrackPointExtension>
            <ns3:hr>78</ns3:hr>
            <ns3:cad>48</ns3:cad>
          </ns3:TrackPointExtension>
        </extensions>
      </trkpt>
      <trkpt lat="43.46114468760788440704345703125" lon="1.4723538793623447418212890625">
        <ele>283</ele>
        <time>2026-08-05T07:39:32.000Z</time>
        <extensions>
          <ns3:TrackPointExtension>
            <ns3:hr>78</ns3:hr>
            <ns3:cad>48</ns3:cad>
          </ns3:TrackPointExtension>
        </extensions>
      </trkpt>
      <trkpt lat="43.4611504711210727691650390625" lon="1.47234239615499973297119140625">
        <ele>283</ele>
        <time>2026-08-05T07:39:33.000Z</time>
        <extensions>
          <ns3:TrackPointExtension>
            <ns3:hr>78</ns3:hr>
            <ns3:cad>47</ns3:cad>
          </ns3:TrackPointExtension>
        </extensions>
      </trkpt>
      <trkpt lat="43.46115608699619770050048828125" lon="1.47233116440474987030029296875">
        <ele>283</ele>
        <time>2026-08-05T07:39:34.000Z</time>
        <extensions>
          <ns3:TrackPointExtension>
            <ns3:hr>79</ns3:hr>
            <ns3:cad>47</ns3:cad>
          </ns3:TrackPointExtension>
        </extensions>
      </trkpt>
      <trkpt lat="43.46115927211940288543701171875" lon="1.47231892682611942291259765625">
        <ele>283</ele>
        <time>2026-08-05T07:39:35.000Z</time>
        <extensions>
          <ns3:TrackPointExtension>
            <ns3:hr>79</ns3:hr>
            <ns3:cad>47</ns3:cad>
          </ns3:TrackPointExtension>
        </extensions>
      </trkpt>
      <trkpt lat="43.4611655585467815399169921875" lon="1.47230501286685466766357421875">
        <ele>283</ele>
        <time>2026-08-05T07:39:36.000Z</time>
        <extensions>
          <ns3:TrackPointExtension>
            <ns3:hr>79</ns3:hr>
            <ns3:cad>47</ns3:cad>
          </ns3:TrackPointExtension>
        </extensions>
      </trkpt>
      <trkpt lat="43.46117117442190647125244140625" lon="1.4722900092601776123046875">
        <ele>282.79998779296875</ele>
        <time>2026-08-05T07:39:37.000Z</time>
        <extensions>
          <ns3:TrackPointExtension>
            <ns3:hr>79</ns3:hr>
            <ns3:cad>47</ns3:cad>
          </ns3:TrackPointExtension>
        </extensions>
      </trkpt>
      <trkpt lat="43.46117620356380939483642578125" lon="1.4722781069576740264892578125">
        <ele>282.79998779296875</ele>
        <time>2026-08-05T07:39:38.000Z</time>
        <extensions>
          <ns3:TrackPointExtension>
            <ns3:hr>79</ns3:hr>
            <ns3:cad>47</ns3:cad>
          </ns3:TrackPointExtension>
        </extensions>
      </trkpt>
      <trkpt lat="43.4611796401441097259521484375" lon="1.4722653664648532867431640625">
        <ele>282.79998779296875</ele>
        <time>2026-08-05T07:39:39.000Z</time>
        <extensions>
          <ns3:TrackPointExtension>
            <ns3:hr>79</ns3:hr>
            <ns3:cad>47</ns3:cad>
          </ns3:TrackPointExtension>
        </extensions>
      </trkpt>
      <trkpt lat="43.4611831605434417724609375" lon="1.47224835120141506195068359375">
        <ele>282.79998779296875</ele>
        <time>2026-08-05T07:39:40.000Z</time>
        <extensions>
          <ns3:TrackPointExtension>
            <ns3:hr>79</ns3:hr>
            <ns3:cad>47</ns3:cad>
          </ns3:TrackPointExtension>
        </extensions>
      </trkpt>
      <trkpt lat="43.46118793822824954986572265625" lon="1.4722345210611820220947265625">
        <ele>282.79998779296875</ele>
        <time>2026-08-05T07:39:41.000Z</time>
        <extensions>
          <ns3:TrackPointExtension>
            <ns3:hr>80</ns3:hr>
            <ns3:cad>47</ns3:cad>
          </ns3:TrackPointExtension>
        </extensions>
      </trkpt>
      <trkpt lat="43.4611907042562961578369140625" lon="1.47222136147320270538330078125">
        <ele>282.79998779296875</ele>
        <time>2026-08-05T07:39:42.000Z</time>
        <extensions>
          <ns3:TrackPointExtension>
            <ns3:hr>79</ns3:hr>
            <ns3:cad>46</ns3:cad>
          </ns3:TrackPointExtension>
        </extensions>
      </trkpt>
      <trkpt lat="43.46119330264627933502197265625" lon="1.47220727987587451934814453125">
        <ele>282.79998779296875</ele>
        <time>2026-08-05T07:39:43.000Z</time>
        <extensions>
          <ns3:TrackPointExtension>
            <ns3:hr>80</ns3:hr>
            <ns3:cad>46</ns3:cad>
          </ns3:TrackPointExtension>
        </extensions>
      </trkpt>
      <trkpt lat="43.46119858324527740478515625" lon="1.4721929468214511871337890625">
        <ele>283</ele>
        <time>2026-08-05T07:39:44.000Z</time>
        <extensions>
          <ns3:TrackPointExtension>
            <ns3:hr>79</ns3:hr>
            <ns3:cad>46</ns3:cad>
          </ns3:TrackPointExtension>
        </extensions>
      </trkpt>
      <trkpt lat="43.46120369620621204376220703125" lon="1.4721788652241230010986328125">
        <ele>283</ele>
        <time>2026-08-05T07:39:45.000Z</time>
        <extensions>
          <ns3:TrackPointExtension>
            <ns3:hr>79</ns3:hr>
            <ns3:cad>46</ns3:cad>
          </ns3:TrackPointExtension>
        </extensions>
      </trkpt>
      <trkpt lat="43.4612074680626392364501953125" lon="1.47216771729290485382080078125">
        <ele>283</ele>
        <time>2026-08-05T07:39:46.000Z</time>
        <extensions>
          <ns3:TrackPointExtension>
            <ns3:hr>79</ns3:hr>
            <ns3:cad>46</ns3:cad>
          </ns3:TrackPointExtension>
        </extensions>
      </trkpt>
      <trkpt lat="43.4612094797194004058837890625" lon="1.47215799428522586822509765625">
        <ele>283</ele>
        <time>2026-08-05T07:39:47.000Z</time>
        <extensions>
          <ns3:TrackPointExtension>
            <ns3:hr>79</ns3:hr>
            <ns3:cad>45</ns3:cad>
          </ns3:TrackPointExtension>
        </extensions>
      </trkpt>
      <trkpt lat="43.4612126648426055908203125" lon="1.47214676253497600555419921875">
        <ele>283</ele>
        <time>2026-08-05T07:39:48.000Z</time>
        <extensions>
          <ns3:TrackPointExtension>
            <ns3:hr>79</ns3:hr>
            <ns3:cad>45</ns3:cad>
          </ns3:TrackPointExtension>
        </extensions>
      </trkpt>
      <trkpt lat="43.46121727488934993743896484375" lon="1.4721317589282989501953125">
        <ele>282.79998779296875</ele>
        <time>2026-08-05T07:39:49.000Z</time>
        <extensions>
          <ns3:TrackPointExtension>
            <ns3:hr>80</ns3:hr>
            <ns3:cad>46</ns3:cad>
          </ns3:TrackPointExtension>
        </extensions>
      </trkpt>
      <trkpt lat="43.46122297458350658416748046875" lon="1.47211910225450992584228515625">
        <ele>282.79998779296875</ele>
        <time>2026-08-05T07:39:50.000Z</time>
        <extensions>
          <ns3:TrackPointExtension>
            <ns3:hr>80</ns3:hr>
            <ns3:cad>47</ns3:cad>
          </ns3:TrackPointExtension>
        </extensions>
      </trkpt>
      <trkpt lat="43.46122766844928264617919921875" lon="1.4721064455807209014892578125">
        <ele>282.600006103515625</ele>
        <time>2026-08-05T07:39:51.000Z</time>
        <extensions>
          <ns3:TrackPointExtension>
            <ns3:hr>81</ns3:hr>
            <ns3:cad>47</ns3:cad>
          </ns3:TrackPointExtension>
        </extensions>
      </trkpt>
      <trkpt lat="43.46123169176280498504638671875" lon="1.4720942080020904541015625">
        <ele>282.600006103515625</ele>
        <time>2026-08-05T07:39:52.000Z</time>
        <extensions>
          <ns3:TrackPointExtension>
            <ns3:hr>82</ns3:hr>
            <ns3:cad>47</ns3:cad>
          </ns3:TrackPointExtension>
        </extensions>
      </trkpt>
      <trkpt lat="43.4612366370856761932373046875" lon="1.472080461680889129638671875">
        <ele>282.600006103515625</ele>
        <time>2026-08-05T07:39:53.000Z</time>
        <extensions>
          <ns3:TrackPointExtension>
            <ns3:hr>82</ns3:hr>
            <ns3:cad>48</ns3:cad>
          </ns3:TrackPointExtension>
        </extensions>
      </trkpt>
      <trkpt lat="43.46124175004661083221435546875" lon="1.47206512279808521270751953125">
        <ele>282.600006103515625</ele>
        <time>2026-08-05T07:39:54.000Z</time>
        <extensions>
          <ns3:TrackPointExtension>
            <ns3:hr>82</ns3:hr>
            <ns3:cad>48</ns3:cad>
          </ns3:TrackPointExtension>
        </extensions>
      </trkpt>
      <trkpt lat="43.4612480364739894866943359375" lon="1.47205104120075702667236328125">
        <ele>282.600006103515625</ele>
        <time>2026-08-05T07:39:55.000Z</time>
        <extensions>
          <ns3:TrackPointExtension>
            <ns3:hr>83</ns3:hr>
            <ns3:cad>48</ns3:cad>
          </ns3:TrackPointExtension>
        </extensions>
      </trkpt>
      <trkpt lat="43.4612540714442729949951171875" lon="1.47204064764082431793212890625">
        <ele>282.600006103515625</ele>
        <time>2026-08-05T07:39:56.000Z</time>
        <extensions>
          <ns3:TrackPointExtension>
            <ns3:hr>83</ns3:hr>
            <ns3:cad>48</ns3:cad>
          </ns3:TrackPointExtension>
        </extensions>
      </trkpt>
      <trkpt lat="43.4612582623958587646484375" lon="1.47202673368155956268310546875">
        <ele>282.600006103515625</ele>
        <time>2026-08-05T07:39:57.000Z</time>
        <extensions>
          <ns3:TrackPointExtension>
            <ns3:hr>83</ns3:hr>
            <ns3:cad>47</ns3:cad>
          </ns3:TrackPointExtension>
        </extensions>
      </trkpt>
      <trkpt lat="43.46126119606196880340576171875" lon="1.4720129035413265228271484375">
        <ele>282.600006103515625</ele>
        <time>2026-08-05T07:39:58.000Z</time>
        <extensions>
          <ns3:TrackPointExtension>
            <ns3:hr>83</ns3:hr>
            <ns3:cad>48</ns3:cad>
          </ns3:TrackPointExtension>
        </extensions>
      </trkpt>
      <trkpt lat="43.46126756630837917327880859375" lon="1.47199991159141063690185546875">
        <ele>282.399993896484375</ele>
        <time>2026-08-05T07:39:59.000Z</time>
        <extensions>
          <ns3:TrackPointExtension>
            <ns3:hr>83</ns3:hr>
            <ns3:cad>48</ns3:cad>
          </ns3:TrackPointExtension>
        </extensions>
      </trkpt>
      <trkpt lat="43.4612751938402652740478515625" lon="1.47198650054633617401123046875">
        <ele>282.399993896484375</ele>
        <time>2026-08-05T07:40:00.000Z</time>
        <extensions>
          <ns3:TrackPointExtension>
            <ns3:hr>83</ns3:hr>
            <ns3:cad>47</ns3:cad>
          </ns3:TrackPointExtension>
        </extensions>
      </trkpt>
      <trkpt lat="43.46127896569669246673583984375" lon="1.4719760231673717498779296875">
        <ele>282.399993896484375</ele>
        <time>2026-08-05T07:40:01.000Z</time>
        <extensions>
          <ns3:TrackPointExtension>
            <ns3:hr>83</ns3:hr>
            <ns3:cad>47</ns3:cad>
          </ns3:TrackPointExtension>
        </extensions>
      </trkpt>
      <trkpt lat="43.4612835757434368133544921875" lon="1.4719654619693756103515625">
        <ele>282.399993896484375</ele>
        <time>2026-08-05T07:40:02.000Z</time>
        <extensions>
          <ns3:TrackPointExtension>
            <ns3:hr>83</ns3:hr>
            <ns3:cad>47</ns3:cad>
          </ns3:TrackPointExtension>
        </extensions>
      </trkpt>
      <trkpt lat="43.4612909518182277679443359375" lon="1.47194777615368366241455078125">
        <ele>282.399993896484375</ele>
        <time>2026-08-05T07:40:03.000Z</time>
        <extensions>
          <ns3:TrackPointExtension>
            <ns3:hr>83</ns3:hr>
            <ns3:cad>47</ns3:cad>
          </ns3:TrackPointExtension>
        </extensions>
      </trkpt>
      <trkpt lat="43.46129505895078182220458984375" lon="1.47193335928022861480712890625">
        <ele>282.399993896484375</ele>
        <time>2026-08-05T07:40:04.000Z</time>
        <extensions>
          <ns3:TrackPointExtension>
            <ns3:hr>82</ns3:hr>
            <ns3:cad>47</ns3:cad>
          </ns3:TrackPointExtension>
        </extensions>
      </trkpt>
      <trkpt lat="43.46130142919719219207763671875" lon="1.471921540796756744384765625">
        <ele>282.399993896484375</ele>
        <time>2026-08-05T07:40:05.000Z</time>
        <extensions>
          <ns3:TrackPointExtension>
            <ns3:hr>83</ns3:hr>
            <ns3:cad>47</ns3:cad>
          </ns3:TrackPointExtension>
        </extensions>
      </trkpt>
      <trkpt lat="43.4613033570349216461181640625" lon="1.4719180203974246978759765625">
        <ele>282.399993896484375</ele>
        <time>2026-08-05T07:40:06.000Z</time>
        <extensions>
          <ns3:TrackPointExtension>
            <ns3:hr>82</ns3:hr>
            <ns3:cad>47</ns3:cad>
          </ns3:TrackPointExtension>
        </extensions>
      </trkpt>
      <trkpt lat="43.4613107331097126007080078125" lon="1.47190351970493793487548828125">
        <ele>282.399993896484375</ele>
        <time>2026-08-05T07:40:07.000Z</time>
        <extensions>
          <ns3:TrackPointExtension>
            <ns3:hr>82</ns3:hr>
            <ns3:cad>46</ns3:cad>
          </ns3:TrackPointExtension>
        </extensions>
      </trkpt>
      <trkpt lat="43.4613184444606304168701171875" lon="1.4718851633369922637939453125">
        <ele>282.399993896484375</ele>
        <time>2026-08-05T07:40:08.000Z</time>
        <extensions>
          <ns3:TrackPointExtension>
            <ns3:hr>82</ns3:hr>
            <ns3:cad>46</ns3:cad>
          </ns3:TrackPointExtension>
        </extensions>
      </trkpt>
      <trkpt lat="43.46132456324994564056396484375" lon="1.47187359631061553955078125">
        <ele>282.20001220703125</ele>
        <time>2026-08-05T07:40:09.000Z</time>
        <extensions>
          <ns3:TrackPointExtension>
            <ns3:hr>82</ns3:hr>
            <ns3:cad>46</ns3:cad>
          </ns3:TrackPointExtension>
        </extensions>
      </trkpt>
      <trkpt lat="43.4613285027444362640380859375" lon="1.471864543855190277099609375">
        <ele>282.20001220703125</ele>
        <time>2026-08-05T07:40:10.000Z</time>
        <extensions>
          <ns3:TrackPointExtension>
            <ns3:hr>82</ns3:hr>
            <ns3:cad>46</ns3:cad>
          </ns3:TrackPointExtension>
        </extensions>
      </trkpt>
      <trkpt lat="43.46133830957114696502685546875" lon="1.47185222245752811431884765625">
        <ele>282.20001220703125</ele>
        <time>2026-08-05T07:40:11.000Z</time>
        <extensions>
          <ns3:TrackPointExtension>
            <ns3:hr>82</ns3:hr>
            <ns3:cad>46</ns3:cad>
          </ns3:TrackPointExtension>
        </extensions>
      </trkpt>
      <trkpt lat="43.46134610474109649658203125" lon="1.4718385599553585052490234375">
        <ele>282</ele>
        <time>2026-08-05T07:40:12.000Z</time>
        <extensions>
          <ns3:TrackPointExtension>
            <ns3:hr>82</ns3:hr>
            <ns3:cad>47</ns3:cad>
          </ns3:TrackPointExtension>
        </extensions>
      </trkpt>
      <trkpt lat="43.4613513015210628509521484375" lon="1.471826992928981781005859375">
        <ele>282</ele>
        <time>2026-08-05T07:40:13.000Z</time>
        <extensions>
          <ns3:TrackPointExtension>
            <ns3:hr>82</ns3:hr>
            <ns3:cad>47</ns3:cad>
          </ns3:TrackPointExtension>
        </extensions>
      </trkpt>
      <trkpt lat="43.4613566659390926361083984375" lon="1.47181785665452480316162109375">
        <ele>282</ele>
        <time>2026-08-05T07:40:14.000Z</time>
        <extensions>
          <ns3:TrackPointExtension>
            <ns3:hr>82</ns3:hr>
            <ns3:cad>48</ns3:cad>
          </ns3:TrackPointExtension>
        </extensions>
      </trkpt>
      <trkpt lat="43.4613601863384246826171875" lon="1.47181190550327301025390625">
        <ele>282</ele>
        <time>2026-08-05T07:40:15.000Z</time>
        <extensions>
          <ns3:TrackPointExtension>
            <ns3:hr>83</ns3:hr>
            <ns3:cad>49</ns3:cad>
          </ns3:TrackPointExtension>
        </extensions>
      </trkpt>
      <trkpt lat="43.46136446110904216766357421875" lon="1.47180126048624515533447265625">
        <ele>282</ele>
        <time>2026-08-05T07:40:16.000Z</time>
        <extensions>
          <ns3:TrackPointExtension>
            <ns3:hr>84</ns3:hr>
            <ns3:cad>49</ns3:cad>
          </ns3:TrackPointExtension>
        </extensions>
      </trkpt>
      <trkpt lat="43.46136881969869136810302734375" lon="1.4717882685363292694091796875">
        <ele>281.79998779296875</ele>
        <time>2026-08-05T07:40:17.000Z</time>
        <extensions>
          <ns3:TrackPointExtension>
            <ns3:hr>84</ns3:hr>
            <ns3:cad>49</ns3:cad>
          </ns3:TrackPointExtension>
        </extensions>
      </trkpt>
      <trkpt lat="43.4613734297454357147216796875" lon="1.4717755280435085296630859375">
        <ele>281.79998779296875</ele>
        <time>2026-08-05T07:40:18.000Z</time>
        <extensions>
          <ns3:TrackPointExtension>
            <ns3:hr>84</ns3:hr>
            <ns3:cad>49</ns3:cad>
          </ns3:TrackPointExtension>
        </extensions>
      </trkpt>
      <trkpt lat="43.46137695014476776123046875" lon="1.47176572121679782867431640625">
        <ele>281.600006103515625</ele>
        <time>2026-08-05T07:40:19.000Z</time>
        <extensions>
          <ns3:TrackPointExtension>
            <ns3:hr>84</ns3:hr>
            <ns3:cad>48</ns3:cad>
          </ns3:TrackPointExtension>
        </extensions>
      </trkpt>
      <trkpt lat="43.461380302906036376953125" lon="1.47175826132297515869140625">
        <ele>281.600006103515625</ele>
        <time>2026-08-05T07:40:20.000Z</time>
        <extensions>
          <ns3:TrackPointExtension>
            <ns3:hr>85</ns3:hr>
            <ns3:cad>47</ns3:cad>
          </ns3:TrackPointExtension>
        </extensions>
      </trkpt>
      <trkpt lat="43.461387343704700469970703125" lon="1.47174627520143985748291015625">
        <ele>281.600006103515625</ele>
        <time>2026-08-05T07:40:21.000Z</time>
        <extensions>
          <ns3:TrackPointExtension>
            <ns3:hr>85</ns3:hr>
            <ns3:cad>47</ns3:cad>
          </ns3:TrackPointExtension>
        </extensions>
      </trkpt>
      <trkpt lat="43.46139413304626941680908203125" lon="1.47172917611896991729736328125">
        <ele>281.600006103515625</ele>
        <time>2026-08-05T07:40:22.000Z</time>
        <extensions>
          <ns3:TrackPointExtension>
            <ns3:hr>85</ns3:hr>
            <ns3:cad>48</ns3:cad>
          </ns3:TrackPointExtension>
        </extensions>
      </trkpt>
      <trkpt lat="43.46139865927398204803466796875" lon="1.471717022359371185302734375">
        <ele>281.600006103515625</ele>
        <time>2026-08-05T07:40:23.000Z</time>
        <extensions>
          <ns3:TrackPointExtension>
            <ns3:hr>84</ns3:hr>
            <ns3:cad>48</ns3:cad>
          </ns3:TrackPointExtension>
        </extensions>
      </trkpt>
      <trkpt lat="43.46140553243458271026611328125" lon="1.4717041142284870147705078125">
        <ele>281.600006103515625</ele>
        <time>2026-08-05T07:40:24.000Z</time>
        <extensions>
          <ns3:TrackPointExtension>
            <ns3:hr>84</ns3:hr>
            <ns3:cad>48</ns3:cad>
          </ns3:TrackPointExtension>
        </extensions>
      </trkpt>
      <trkpt lat="43.46141290850937366485595703125" lon="1.471690200269222259521484375">
        <ele>281.600006103515625</ele>
        <time>2026-08-05T07:40:25.000Z</time>
        <extensions>
          <ns3:TrackPointExtension>
            <ns3:hr>84</ns3:hr>
            <ns3:cad>47</ns3:cad>
          </ns3:TrackPointExtension>
        </extensions>
      </trkpt>
      <trkpt lat="43.461420200765132904052734375" lon="1.4716731011867523193359375">
        <ele>281.600006103515625</ele>
        <time>2026-08-05T07:40:26.000Z</time>
        <extensions>
          <ns3:TrackPointExtension>
            <ns3:hr>84</ns3:hr>
            <ns3:cad>46</ns3:cad>
          </ns3:TrackPointExtension>
        </extensions>
      </trkpt>
      <trkpt lat="43.46142497844994068145751953125" lon="1.47165910340845584869384765625">
        <ele>281.600006103515625</ele>
        <time>2026-08-05T07:40:27.000Z</time>
        <extensions>
          <ns3:TrackPointExtension>
            <ns3:hr>84</ns3:hr>
            <ns3:cad>46</ns3:cad>
          </ns3:TrackPointExtension>
        </extensions>
      </trkpt>
      <trkpt lat="43.46143201924860477447509765625" lon="1.4716481231153011322021484375">
        <ele>281.600006103515625</ele>
        <time>2026-08-05T07:40:28.000Z</time>
        <extensions>
          <ns3:TrackPointExtension>
            <ns3:hr>84</ns3:hr>
            <ns3:cad>47</ns3:cad>
          </ns3:TrackPointExtension>
        </extensions>
      </trkpt>
      <trkpt lat="43.46143788658082485198974609375" lon="1.47164183668792247772216796875">
        <ele>281.399993896484375</ele>
        <time>2026-08-05T07:40:29.000Z</time>
        <extensions>
          <ns3:TrackPointExtension>
            <ns3:hr>84</ns3:hr>
            <ns3:cad>47</ns3:cad>
          </ns3:TrackPointExtension>
        </extensions>
      </trkpt>
      <trkpt lat="43.46144442446529865264892578125" lon="1.47162842564284801483154296875">
        <ele>281.399993896484375</ele>
        <time>2026-08-05T07:40:30.000Z</time>
        <extensions>
          <ns3:TrackPointExtension>
            <ns3:hr>83</ns3:hr>
            <ns3:cad>47</ns3:cad>
          </ns3:TrackPointExtension>
        </extensions>
      </trkpt>
      <trkpt lat="43.4614505432546138763427734375" lon="1.47161342203617095947265625">
        <ele>281.399993896484375</ele>
        <time>2026-08-05T07:40:31.000Z</time>
        <extensions>
          <ns3:TrackPointExtension>
            <ns3:hr>83</ns3:hr>
            <ns3:cad>47</ns3:cad>
          </ns3:TrackPointExtension>
        </extensions>
      </trkpt>
      <trkpt lat="43.4614567458629608154296875" lon="1.4716005139052867889404296875">
        <ele>281.399993896484375</ele>
        <time>2026-08-05T07:40:32.000Z</time>
        <extensions>
          <ns3:TrackPointExtension>
            <ns3:hr>83</ns3:hr>
            <ns3:cad>47</ns3:cad>
          </ns3:TrackPointExtension>
        </extensions>
      </trkpt>
      <trkpt lat="43.46146319992840290069580078125" lon="1.4715894497931003570556640625">
        <ele>281.399993896484375</ele>
        <time>2026-08-05T07:40:33.000Z</time>
        <extensions>
          <ns3:TrackPointExtension>
            <ns3:hr>83</ns3:hr>
            <ns3:cad>47</ns3:cad>
          </ns3:TrackPointExtension>
        </extensions>
      </trkpt>
      <trkpt lat="43.461467809975147247314453125" lon="1.4715777151286602020263671875">
        <ele>281.399993896484375</ele>
        <time>2026-08-05T07:40:34.000Z</time>
        <extensions>
          <ns3:TrackPointExtension>
            <ns3:hr>83</ns3:hr>
            <ns3:cad>47</ns3:cad>
          </ns3:TrackPointExtension>
        </extensions>
      </trkpt>
      <trkpt lat="43.46147359348833560943603515625" lon="1.47156246006488800048828125">
        <ele>281.399993896484375</ele>
        <time>2026-08-05T07:40:35.000Z</time>
        <extensions>
          <ns3:TrackPointExtension>
            <ns3:hr>83</ns3:hr>
            <ns3:cad>47</ns3:cad>
          </ns3:TrackPointExtension>
        </extensions>
      </trkpt>
      <trkpt lat="43.46148063428699970245361328125" lon="1.47155097685754299163818359375">
        <ele>281.399993896484375</ele>
        <time>2026-08-05T07:40:36.000Z</time>
        <extensions>
          <ns3:TrackPointExtension>
            <ns3:hr>83</ns3:hr>
            <ns3:cad>47</ns3:cad>
          </ns3:TrackPointExtension>
        </extensions>
      </trkpt>
      <trkpt lat="43.461487255990505218505859375" lon="1.47153991274535655975341796875">
        <ele>281.399993896484375</ele>
        <time>2026-08-05T07:40:37.000Z</time>
        <extensions>
          <ns3:TrackPointExtension>
            <ns3:hr>83</ns3:hr>
            <ns3:cad>47</ns3:cad>
          </ns3:TrackPointExtension>
        </extensions>
      </trkpt>
      <trkpt lat="43.46149119548499584197998046875" lon="1.47152801044285297393798828125">
        <ele>281.20001220703125</ele>
        <time>2026-08-05T07:40:38.000Z</time>
        <extensions>
          <ns3:TrackPointExtension>
            <ns3:hr>83</ns3:hr>
            <ns3:cad>46</ns3:cad>
          </ns3:TrackPointExtension>
        </extensions>
      </trkpt>
      <trkpt lat="43.46149806864559650421142578125" lon="1.4715140126645565032958984375">
        <ele>281.20001220703125</ele>
        <time>2026-08-05T07:40:39.000Z</time>
        <extensions>
          <ns3:TrackPointExtension>
            <ns3:hr>82</ns3:hr>
            <ns3:cad>46</ns3:cad>
          </ns3:TrackPointExtension>
        </extensions>
      </trkpt>
      <trkpt lat="43.461505360901355743408203125" lon="1.47149942815303802490234375">
        <ele>281.20001220703125</ele>
        <time>2026-08-05T07:40:40.000Z</time>
        <extensions>
          <ns3:TrackPointExtension>
            <ns3:hr>82</ns3:hr>
            <ns3:cad>46</ns3:cad>
          </ns3:TrackPointExtension>
        </extensions>
      </trkpt>
      <trkpt lat="43.46150997094810009002685546875" lon="1.4714855141937732696533203125">
        <ele>281.20001220703125</ele>
        <time>2026-08-05T07:40:41.000Z</time>
        <extensions>
          <ns3:TrackPointExtension>
            <ns3:hr>82</ns3:hr>
            <ns3:cad>46</ns3:cad>
          </ns3:TrackPointExtension>
        </extensions>
      </trkpt>
      <trkpt lat="43.4615132398903369903564453125" lon="1.471472941339015960693359375">
        <ele>281.20001220703125</ele>
        <time>2026-08-05T07:40:42.000Z</time>
        <extensions>
          <ns3:TrackPointExtension>
            <ns3:hr>82</ns3:hr>
            <ns3:cad>48</ns3:cad>
          </ns3:TrackPointExtension>
        </extensions>
      </trkpt>
      <trkpt lat="43.46151776611804962158203125" lon="1.47146112285554409027099609375">
        <ele>281</ele>
        <time>2026-08-05T07:40:43.000Z</time>
        <extensions>
          <ns3:TrackPointExtension>
            <ns3:hr>82</ns3:hr>
            <ns3:cad>48</ns3:cad>
          </ns3:TrackPointExtension>
        </extensions>
      </trkpt>
      <trkpt lat="43.461522795259952545166015625" lon="1.471450142562389373779296875">
        <ele>281</ele>
        <time>2026-08-05T07:40:44.000Z</time>
        <extensions>
          <ns3:TrackPointExtension>
            <ns3:hr>82</ns3:hr>
            <ns3:cad>47</ns3:cad>
          </ns3:TrackPointExtension>
        </extensions>
      </trkpt>
      <trkpt lat="43.4615269862115383148193359375" lon="1.4714370667934417724609375">
        <ele>281</ele>
        <time>2026-08-05T07:40:45.000Z</time>
        <extensions>
          <ns3:TrackPointExtension>
            <ns3:hr>82</ns3:hr>
            <ns3:cad>47</ns3:cad>
          </ns3:TrackPointExtension>
        </extensions>
      </trkpt>
      <trkpt lat="43.461532182991504669189453125" lon="1.47142457775771617889404296875">
        <ele>281</ele>
        <time>2026-08-05T07:40:46.000Z</time>
        <extensions>
          <ns3:TrackPointExtension>
            <ns3:hr>81</ns3:hr>
            <ns3:cad>47</ns3:cad>
          </ns3:TrackPointExtension>
        </extensions>
      </trkpt>
      <trkpt lat="43.4615363739430904388427734375" lon="1.47141368128359317779541015625">
        <ele>281</ele>
        <time>2026-08-05T07:40:47.000Z</time>
        <extensions>
          <ns3:TrackPointExtension>
            <ns3:hr>81</ns3:hr>
            <ns3:cad>47</ns3:cad>
          </ns3:TrackPointExtension>
        </extensions>
      </trkpt>
      <trkpt lat="43.46154014579951763153076171875" lon="1.4714016951620578765869140625">
        <ele>281</ele>
        <time>2026-08-05T07:40:48.000Z</time>
        <extensions>
          <ns3:TrackPointExtension>
            <ns3:hr>81</ns3:hr>
            <ns3:cad>47</ns3:cad>
          </ns3:TrackPointExtension>
        </extensions>
      </trkpt>
      <trkpt lat="43.46154517494142055511474609375" lon="1.4713845960795879364013671875">
        <ele>281</ele>
        <time>2026-08-05T07:40:49.000Z</time>
        <extensions>
          <ns3:TrackPointExtension>
            <ns3:hr>80</ns3:hr>
            <ns3:cad>47</ns3:cad>
          </ns3:TrackPointExtension>
        </extensions>
      </trkpt>
      <trkpt lat="43.46154970116913318634033203125" lon="1.4713711850345134735107421875">
        <ele>281</ele>
        <time>2026-08-05T07:40:50.000Z</time>
        <extensions>
          <ns3:TrackPointExtension>
            <ns3:hr>80</ns3:hr>
            <ns3:cad>47</ns3:cad>
          </ns3:TrackPointExtension>
        </extensions>
      </trkpt>
      <trkpt lat="43.46155540086328983306884765625" lon="1.4713554270565509796142578125">
        <ele>281</ele>
        <time>2026-08-05T07:40:51.000Z</time>
        <extensions>
          <ns3:TrackPointExtension>
            <ns3:hr>79</ns3:hr>
            <ns3:cad>47</ns3:cad>
          </ns3:TrackPointExtension>
        </extensions>
      </trkpt>
      <trkpt lat="43.4615600109100341796875" lon="1.4713440276682376861572265625">
        <ele>281</ele>
        <time>2026-08-05T07:40:52.000Z</time>
        <extensions>
          <ns3:TrackPointExtension>
            <ns3:hr>79</ns3:hr>
            <ns3:cad>47</ns3:cad>
          </ns3:TrackPointExtension>
        </extensions>
      </trkpt>
      <trkpt lat="43.46156629733741283416748046875" lon="1.471330113708972930908203125">
        <ele>280.79998779296875</ele>
        <time>2026-08-05T07:40:53.000Z</time>
        <extensions>
          <ns3:TrackPointExtension>
            <ns3:hr>79</ns3:hr>
            <ns3:cad>44</ns3:cad>
          </ns3:TrackPointExtension>
        </extensions>
      </trkpt>
      <trkpt lat="43.46157275140285491943359375" lon="1.47131661884486675262451171875">
        <ele>280.79998779296875</ele>
        <time>2026-08-05T07:40:54.000Z</time>
        <extensions>
          <ns3:TrackPointExtension>
            <ns3:hr>79</ns3:hr>
            <ns3:cad>44</ns3:cad>
          </ns3:TrackPointExtension>
        </extensions>
      </trkpt>
      <trkpt lat="43.46157702617347240447998046875" lon="1.47130823694169521331787109375">
        <ele>280.79998779296875</ele>
        <time>2026-08-05T07:40:55.000Z</time>
        <extensions>
          <ns3:TrackPointExtension>
            <ns3:hr>79</ns3:hr>
            <ns3:cad>44</ns3:cad>
          </ns3:TrackPointExtension>
        </extensions>
      </trkpt>
      <trkpt lat="43.46158054657280445098876953125" lon="1.47129734046757221221923828125">
        <ele>280.79998779296875</ele>
        <time>2026-08-05T07:40:56.000Z</time>
        <extensions>
          <ns3:TrackPointExtension>
            <ns3:hr>79</ns3:hr>
            <ns3:cad>47</ns3:cad>
          </ns3:TrackPointExtension>
        </extensions>
      </trkpt>
      <trkpt lat="43.46158490516245365142822265625" lon="1.47128577344119548797607421875">
        <ele>280.600006103515625</ele>
        <time>2026-08-05T07:40:57.000Z</time>
        <extensions>
          <ns3:TrackPointExtension>
            <ns3:hr>80</ns3:hr>
            <ns3:cad>48</ns3:cad>
          </ns3:TrackPointExtension>
        </extensions>
      </trkpt>
      <trkpt lat="43.46159026958048343658447265625" lon="1.4712702669203281402587890625">
        <ele>280.600006103515625</ele>
        <time>2026-08-05T07:40:58.000Z</time>
        <extensions>
          <ns3:TrackPointExtension>
            <ns3:hr>80</ns3:hr>
            <ns3:cad>48</ns3:cad>
          </ns3:TrackPointExtension>
        </extensions>
      </trkpt>
      <trkpt lat="43.461594544351100921630859375" lon="1.4712595380842685699462890625">
        <ele>280.600006103515625</ele>
        <time>2026-08-05T07:40:59.000Z</time>
        <extensions>
          <ns3:TrackPointExtension>
            <ns3:hr>80</ns3:hr>
            <ns3:cad>48</ns3:cad>
          </ns3:TrackPointExtension>
        </extensions>
      </trkpt>
      <trkpt lat="43.46159798093140125274658203125" lon="1.47125040180981159210205078125">
        <ele>280.600006103515625</ele>
        <time>2026-08-05T07:41:00.000Z</time>
        <extensions>
          <ns3:TrackPointExtension>
            <ns3:hr>79</ns3:hr>
            <ns3:cad>48</ns3:cad>
          </ns3:TrackPointExtension>
        </extensions>
      </trkpt>
      <trkpt lat="43.46160267479717731475830078125" lon="1.471236906945705413818359375">
        <ele>280.399993896484375</ele>
        <time>2026-08-05T07:41:01.000Z</time>
        <extensions>
          <ns3:TrackPointExtension>
            <ns3:hr>79</ns3:hr>
            <ns3:cad>46</ns3:cad>
          </ns3:TrackPointExtension>
        </extensions>
      </trkpt>
      <trkpt lat="43.46160921268165111541748046875" lon="1.4712216518819332122802734375">
        <ele>280.399993896484375</ele>
        <time>2026-08-05T07:41:02.000Z</time>
        <extensions>
          <ns3:TrackPointExtension>
            <ns3:hr>79</ns3:hr>
            <ns3:cad>46</ns3:cad>
          </ns3:TrackPointExtension>
        </extensions>
      </trkpt>
      <trkpt lat="43.4616118110716342926025390625" lon="1.47120949812233448028564453125">
        <ele>280.399993896484375</ele>
        <time>2026-08-05T07:41:03.000Z</time>
        <extensions>
          <ns3:TrackPointExtension>
            <ns3:hr>80</ns3:hr>
            <ns3:cad>46</ns3:cad>
          </ns3:TrackPointExtension>
        </extensions>
      </trkpt>
      <trkpt lat="43.4616141580045223236083984375" lon="1.4711978472769260406494140625">
        <ele>280.399993896484375</ele>
        <time>2026-08-05T07:41:04.000Z</time>
        <extensions>
          <ns3:TrackPointExtension>
            <ns3:hr>79</ns3:hr>
            <ns3:cad>45</ns3:cad>
          </ns3:TrackPointExtension>
        </extensions>
      </trkpt>
      <trkpt lat="43.461616672575473785400390625" lon="1.471185944974422454833984375">
        <ele>280.399993896484375</ele>
        <time>2026-08-05T07:41:05.000Z</time>
        <extensions>
          <ns3:TrackPointExtension>
            <ns3:hr>79</ns3:hr>
            <ns3:cad>45</ns3:cad>
          </ns3:TrackPointExtension>
        </extensions>
      </trkpt>
      <trkpt lat="43.46162178553640842437744140625" lon="1.4711716957390308380126953125">
        <ele>280.20001220703125</ele>
        <time>2026-08-05T07:41:06.000Z</time>
        <extensions>
          <ns3:TrackPointExtension>
            <ns3:hr>79</ns3:hr>
            <ns3:cad>45</ns3:cad>
          </ns3:TrackPointExtension>
        </extensions>
      </trkpt>
      <trkpt lat="43.461626060307025909423828125" lon="1.47115887142717838287353515625">
        <ele>280.20001220703125</ele>
        <time>2026-08-05T07:41:07.000Z</time>
        <extensions>
          <ns3:TrackPointExtension>
            <ns3:hr>79</ns3:hr>
            <ns3:cad>45</ns3:cad>
          </ns3:TrackPointExtension>
        </extensions>
      </trkpt>
      <trkpt lat="43.4616310894489288330078125" lon="1.4711478911340236663818359375">
        <ele>280.20001220703125</ele>
        <time>2026-08-05T07:41:08.000Z</time>
        <extensions>
          <ns3:TrackPointExtension>
            <ns3:hr>79</ns3:hr>
            <ns3:cad>47</ns3:cad>
          </ns3:TrackPointExtension>
        </extensions>
      </trkpt>
      <trkpt lat="43.46163737587630748748779296875" lon="1.4711341448128223419189453125">
        <ele>280.20001220703125</ele>
        <time>2026-08-05T07:41:09.000Z</time>
        <extensions>
          <ns3:TrackPointExtension>
            <ns3:hr>78</ns3:hr>
            <ns3:cad>47</ns3:cad>
          </ns3:TrackPointExtension>
        </extensions>
      </trkpt>
      <trkpt lat="43.46164206974208354949951171875" lon="1.471120230853557586669921875">
        <ele>280.20001220703125</ele>
        <time>2026-08-05T07:41:10.000Z</time>
        <extensions>
          <ns3:TrackPointExtension>
            <ns3:hr>78</ns3:hr>
            <ns3:cad>47</ns3:cad>
          </ns3:TrackPointExtension>
        </extensions>
      </trkpt>
      <trkpt lat="43.4616476856172084808349609375" lon="1.47110807709395885467529296875">
        <ele>280.20001220703125</ele>
        <time>2026-08-05T07:41:11.000Z</time>
        <extensions>
          <ns3:TrackPointExtension>
            <ns3:hr>78</ns3:hr>
            <ns3:cad>47</ns3:cad>
          </ns3:TrackPointExtension>
        </extensions>
      </trkpt>
      <trkpt lat="43.4616510383784770965576171875" lon="1.47109818644821643829345703125">
        <ele>280.20001220703125</ele>
        <time>2026-08-05T07:41:12.000Z</time>
        <extensions>
          <ns3:TrackPointExtension>
            <ns3:hr>78</ns3:hr>
            <ns3:cad>46</ns3:cad>
          </ns3:TrackPointExtension>
        </extensions>
      </trkpt>
      <trkpt lat="43.46165589988231658935546875" lon="1.47108661942183971405029296875">
        <ele>280.20001220703125</ele>
        <time>2026-08-05T07:41:13.000Z</time>
        <extensions>
          <ns3:TrackPointExtension>
            <ns3:hr>78</ns3:hr>
            <ns3:cad>45</ns3:cad>
          </ns3:TrackPointExtension>
        </extensions>
      </trkpt>
      <trkpt lat="43.46166034229099750518798828125" lon="1.471073627471923828125">
        <ele>280.20001220703125</ele>
        <time>2026-08-05T07:41:14.000Z</time>
        <extensions>
          <ns3:TrackPointExtension>
            <ns3:hr>78</ns3:hr>
            <ns3:cad>45</ns3:cad>
          </ns3:TrackPointExtension>
        </extensions>
      </trkpt>
      <trkpt lat="43.461664952337741851806640625" lon="1.47105996496975421905517578125">
        <ele>280.20001220703125</ele>
        <time>2026-08-05T07:41:15.000Z</time>
        <extensions>
          <ns3:TrackPointExtension>
            <ns3:hr>78</ns3:hr>
            <ns3:cad>45</ns3:cad>
          </ns3:TrackPointExtension>
        </extensions>
      </trkpt>
      <trkpt lat="43.461669646203517913818359375" lon="1.47104839794337749481201171875">
        <ele>280.20001220703125</ele>
        <time>2026-08-05T07:41:16.000Z</time>
        <extensions>
          <ns3:TrackPointExtension>
            <ns3:hr>78</ns3:hr>
            <ns3:cad>45</ns3:cad>
          </ns3:TrackPointExtension>
        </extensions>
      </trkpt>
      <trkpt lat="43.46167408861219882965087890625" lon="1.47103674709796905517578125">
        <ele>280</ele>
        <time>2026-08-05T07:41:17.000Z</time>
        <extensions>
          <ns3:TrackPointExtension>
            <ns3:hr>78</ns3:hr>
            <ns3:cad>45</ns3:cad>
          </ns3:TrackPointExtension>
        </extensions>
      </trkpt>
      <trkpt lat="43.461679704487323760986328125" lon="1.47102073766291141510009765625">
        <ele>280</ele>
        <time>2026-08-05T07:41:18.000Z</time>
        <extensions>
          <ns3:TrackPointExtension>
            <ns3:hr>78</ns3:hr>
            <ns3:cad>45</ns3:cad>
          </ns3:TrackPointExtension>
        </extensions>
      </trkpt>
      <trkpt lat="43.46168448217213153839111328125" lon="1.47100732661783695220947265625">
        <ele>280</ele>
        <time>2026-08-05T07:41:19.000Z</time>
        <extensions>
          <ns3:TrackPointExtension>
            <ns3:hr>78</ns3:hr>
            <ns3:cad>45</ns3:cad>
          </ns3:TrackPointExtension>
        </extensions>
      </trkpt>
      <trkpt lat="43.46168917603790760040283203125" lon="1.470995843410491943359375">
        <ele>280</ele>
        <time>2026-08-05T07:41:20.000Z</time>
        <extensions>
          <ns3:TrackPointExtension>
            <ns3:hr>78</ns3:hr>
            <ns3:cad>45</ns3:cad>
          </ns3:TrackPointExtension>
        </extensions>
      </trkpt>
      <trkpt lat="43.4616936184465885162353515625" lon="1.47098352201282978057861328125">
        <ele>280</ele>
        <time>2026-08-05T07:41:21.000Z</time>
        <extensions>
          <ns3:TrackPointExtension>
            <ns3:hr>78</ns3:hr>
            <ns3:cad>44</ns3:cad>
          </ns3:TrackPointExtension>
        </extensions>
      </trkpt>
      <trkpt lat="43.4616983123123645782470703125" lon="1.4709698595106601715087890625">
        <ele>280</ele>
        <time>2026-08-05T07:41:22.000Z</time>
        <extensions>
          <ns3:TrackPointExtension>
            <ns3:hr>78</ns3:hr>
            <ns3:cad>44</ns3:cad>
          </ns3:TrackPointExtension>
        </extensions>
      </trkpt>
      <trkpt lat="43.46170241944491863250732421875" lon="1.47095284424722194671630859375">
        <ele>280</ele>
        <time>2026-08-05T07:41:23.000Z</time>
        <extensions>
          <ns3:TrackPointExtension>
            <ns3:hr>77</ns3:hr>
            <ns3:cad>44</ns3:cad>
          </ns3:TrackPointExtension>
        </extensions>
      </trkpt>
      <trkpt lat="43.4617070294916629791259765625" lon="1.4709406904876232147216796875">
        <ele>280</ele>
        <time>2026-08-05T07:41:24.000Z</time>
        <extensions>
          <ns3:TrackPointExtension>
            <ns3:hr>78</ns3:hr>
            <ns3:cad>44</ns3:cad>
          </ns3:TrackPointExtension>
        </extensions>
      </trkpt>
      <trkpt lat="43.4617123939096927642822265625" lon="1.4709272794425487518310546875">
        <ele>280</ele>
        <time>2026-08-05T07:41:25.000Z</time>
        <extensions>
          <ns3:TrackPointExtension>
            <ns3:hr>77</ns3:hr>
            <ns3:cad>45</ns3:cad>
          </ns3:TrackPointExtension>
        </extensions>
      </trkpt>
      <trkpt lat="43.461717925965785980224609375" lon="1.4709135331213474273681640625">
        <ele>279.79998779296875</ele>
        <time>2026-08-05T07:41:26.000Z</time>
        <extensions>
          <ns3:TrackPointExtension>
            <ns3:hr>78</ns3:hr>
            <ns3:cad>46</ns3:cad>
          </ns3:TrackPointExtension>
        </extensions>
      </trkpt>
      <trkpt lat="43.46172320656478404998779296875" lon="1.47089660167694091796875">
        <ele>279.79998779296875</ele>
        <time>2026-08-05T07:41:27.000Z</time>
        <extensions>
          <ns3:TrackPointExtension>
            <ns3:hr>78</ns3:hr>
            <ns3:cad>46</ns3:cad>
          </ns3:TrackPointExtension>
        </extensions>
      </trkpt>
      <trkpt lat="43.46172722987830638885498046875" lon="1.47088545374572277069091796875">
        <ele>279.79998779296875</ele>
        <time>2026-08-05T07:41:28.000Z</time>
        <extensions>
          <ns3:TrackPointExtension>
            <ns3:hr>78</ns3:hr>
            <ns3:cad>47</ns3:cad>
          </ns3:TrackPointExtension>
        </extensions>
      </trkpt>
      <trkpt lat="43.4617308340966701507568359375" lon="1.47087707184255123138427734375">
        <ele>279.79998779296875</ele>
        <time>2026-08-05T07:41:29.000Z</time>
        <extensions>
          <ns3:TrackPointExtension>
            <ns3:hr>77</ns3:hr>
            <ns3:cad>47</ns3:cad>
          </ns3:TrackPointExtension>
        </extensions>
      </trkpt>
      <trkpt lat="43.461735360324382781982421875" lon="1.47086684592068195343017578125">
        <ele>279.79998779296875</ele>
        <time>2026-08-05T07:41:30.000Z</time>
        <extensions>
          <ns3:TrackPointExtension>
            <ns3:hr>78</ns3:hr>
            <ns3:cad>47</ns3:cad>
          </ns3:TrackPointExtension>
        </extensions>
      </trkpt>
      <trkpt lat="43.46174114383757114410400390625" lon="1.470851004123687744140625">
        <ele>279.79998779296875</ele>
        <time>2026-08-05T07:41:31.000Z</time>
        <extensions>
          <ns3:TrackPointExtension>
            <ns3:hr>78</ns3:hr>
            <ns3:cad>46</ns3:cad>
          </ns3:TrackPointExtension>
        </extensions>
      </trkpt>
      <trkpt lat="43.4617465920746326446533203125" lon="1.4708389341831207275390625">
        <ele>279.79998779296875</ele>
        <time>2026-08-05T07:41:32.000Z</time>
        <extensions>
          <ns3:TrackPointExtension>
            <ns3:hr>77</ns3:hr>
            <ns3:cad>46</ns3:cad>
          </ns3:TrackPointExtension>
        </extensions>
      </trkpt>
      <trkpt lat="43.4617512859404087066650390625" lon="1.47082887589931488037109375">
        <ele>279.79998779296875</ele>
        <time>2026-08-05T07:41:33.000Z</time>
        <extensions>
          <ns3:TrackPointExtension>
            <ns3:hr>78</ns3:hr>
            <ns3:cad>46</ns3:cad>
          </ns3:TrackPointExtension>
        </extensions>
      </trkpt>
      <trkpt lat="43.461756147444248199462890625" lon="1.4708176441490650177001953125">
        <ele>279.79998779296875</ele>
        <time>2026-08-05T07:41:34.000Z</time>
        <extensions>
          <ns3:TrackPointExtension>
            <ns3:hr>78</ns3:hr>
            <ns3:cad>46</ns3:cad>
          </ns3:TrackPointExtension>
        </extensions>
      </trkpt>
      <trkpt lat="43.46175807528197765350341796875" lon="1.47080398164689540863037109375">
        <ele>279.79998779296875</ele>
        <time>2026-08-05T07:41:35.000Z</time>
        <extensions>
          <ns3:TrackPointExtension>
            <ns3:hr>78</ns3:hr>
            <ns3:cad>46</ns3:cad>
          </ns3:TrackPointExtension>
        </extensions>
      </trkpt>
      <trkpt lat="43.4617623500525951385498046875" lon="1.470791660249233245849609375">
        <ele>280</ele>
        <time>2026-08-05T07:41:36.000Z</time>
        <extensions>
          <ns3:TrackPointExtension>
            <ns3:hr>77</ns3:hr>
            <ns3:cad>46</ns3:cad>
          </ns3:TrackPointExtension>
        </extensions>
      </trkpt>
      <trkpt lat="43.46176712773740291595458984375" lon="1.47078118287026882171630859375">
        <ele>280</ele>
        <time>2026-08-05T07:41:37.000Z</time>
        <extensions>
          <ns3:TrackPointExtension>
            <ns3:hr>78</ns3:hr>
            <ns3:cad>46</ns3:cad>
          </ns3:TrackPointExtension>
        </extensions>
      </trkpt>
      <trkpt lat="43.4617730788886547088623046875" lon="1.47077347151935100555419921875">
        <ele>280</ele>
        <time>2026-08-05T07:41:38.000Z</time>
        <extensions>
          <ns3:TrackPointExtension>
            <ns3:hr>78</ns3:hr>
            <ns3:cad>46</ns3:cad>
          </ns3:TrackPointExtension>
        </extensions>
      </trkpt>
      <trkpt lat="43.461778275668621063232421875" lon="1.4707593061029911041259765625">
        <ele>280</ele>
        <time>2026-08-05T07:41:39.000Z</time>
        <extensions>
          <ns3:TrackPointExtension>
            <ns3:hr>78</ns3:hr>
            <ns3:cad>45</ns3:cad>
          </ns3:TrackPointExtension>
        </extensions>
      </trkpt>
      <trkpt lat="43.46178330481052398681640625" lon="1.47074581123888492584228515625">
        <ele>280</ele>
        <time>2026-08-05T07:41:40.000Z</time>
        <extensions>
          <ns3:TrackPointExtension>
            <ns3:hr>77</ns3:hr>
            <ns3:cad>45</ns3:cad>
          </ns3:TrackPointExtension>
        </extensions>
      </trkpt>
      <trkpt lat="43.461787998676300048828125" lon="1.4707343280315399169921875">
        <ele>280</ele>
        <time>2026-08-05T07:41:41.000Z</time>
        <extensions>
          <ns3:TrackPointExtension>
            <ns3:hr>78</ns3:hr>
            <ns3:cad>45</ns3:cad>
          </ns3:TrackPointExtension>
        </extensions>
      </trkpt>
      <trkpt lat="43.461791016161441802978515625" lon="1.47072284482419490814208984375">
        <ele>280</ele>
        <time>2026-08-05T07:41:42.000Z</time>
        <extensions>
          <ns3:TrackPointExtension>
            <ns3:hr>78</ns3:hr>
            <ns3:cad>45</ns3:cad>
          </ns3:TrackPointExtension>
        </extensions>
      </trkpt>
      <trkpt lat="43.46179445274174213409423828125" lon="1.47070893086493015289306640625">
        <ele>279.79998779296875</ele>
        <time>2026-08-05T07:41:43.000Z</time>
        <extensions>
          <ns3:TrackPointExtension>
            <ns3:hr>78</ns3:hr>
            <ns3:cad>45</ns3:cad>
          </ns3:TrackPointExtension>
        </extensions>
      </trkpt>
      <trkpt lat="43.4617948718369007110595703125" lon="1.4706942625343799591064453125">
        <ele>279.79998779296875</ele>
        <time>2026-08-05T07:41:44.000Z</time>
        <extensions>
          <ns3:TrackPointExtension>
            <ns3:hr>77</ns3:hr>
            <ns3:cad>45</ns3:cad>
          </ns3:TrackPointExtension>
        </extensions>
      </trkpt>
      <trkpt lat="43.46179537475109100341796875" lon="1.4706831984221935272216796875">
        <ele>279.79998779296875</ele>
        <time>2026-08-05T07:41:45.000Z</time>
        <extensions>
          <ns3:TrackPointExtension>
            <ns3:hr>77</ns3:hr>
            <ns3:cad>45</ns3:cad>
          </ns3:TrackPointExtension>
        </extensions>
      </trkpt>
      <trkpt lat="43.46179612912237644195556640625" lon="1.47067037411034107208251953125">
        <ele>279.79998779296875</ele>
        <time>2026-08-05T07:41:46.000Z</time>
        <extensions>
          <ns3:TrackPointExtension>
            <ns3:hr>77</ns3:hr>
            <ns3:cad>46</ns3:cad>
          </ns3:TrackPointExtension>
        </extensions>
      </trkpt>
      <trkpt lat="43.46179696731269359588623046875" lon="1.47065721452236175537109375">
        <ele>279.79998779296875</ele>
        <time>2026-08-05T07:41:47.000Z</time>
        <extensions>
          <ns3:TrackPointExtension>
            <ns3:hr>77</ns3:hr>
            <ns3:cad>46</ns3:cad>
          </ns3:TrackPointExtension>
        </extensions>
      </trkpt>
      <trkpt lat="43.46179881133139133453369140625" lon="1.47064422257244586944580078125">
        <ele>279.79998779296875</ele>
        <time>2026-08-05T07:41:48.000Z</time>
        <extensions>
          <ns3:TrackPointExtension>
            <ns3:hr>77</ns3:hr>
            <ns3:cad>46</ns3:cad>
          </ns3:TrackPointExtension>
        </extensions>
      </trkpt>
      <trkpt lat="43.46180015243589878082275390625" lon="1.4706355892121791839599609375">
        <ele>279.600006103515625</ele>
        <time>2026-08-05T07:41:49.000Z</time>
        <extensions>
          <ns3:TrackPointExtension>
            <ns3:hr>77</ns3:hr>
            <ns3:cad>46</ns3:cad>
          </ns3:TrackPointExtension>
        </extensions>
      </trkpt>
      <trkpt lat="43.46180073916912078857421875" lon="1.4706225134432315826416015625">
        <ele>279.600006103515625</ele>
        <time>2026-08-05T07:41:50.000Z</time>
        <extensions>
          <ns3:TrackPointExtension>
            <ns3:hr>77</ns3:hr>
            <ns3:cad>45</ns3:cad>
          </ns3:TrackPointExtension>
        </extensions>
      </trkpt>
      <trkpt lat="43.461800403892993927001953125" lon="1.470608599483966827392578125">
        <ele>279.600006103515625</ele>
        <time>2026-08-05T07:41:51.000Z</time>
        <extensions>
          <ns3:TrackPointExtension>
            <ns3:hr>77</ns3:hr>
            <ns3:cad>45</ns3:cad>
          </ns3:TrackPointExtension>
        </extensions>
      </trkpt>
      <trkpt lat="43.461800403892993927001953125" lon="1.470591835677623748779296875">
        <ele>279.399993896484375</ele>
        <time>2026-08-05T07:41:52.000Z</time>
        <extensions>
          <ns3:TrackPointExtension>
            <ns3:hr>76</ns3:hr>
            <ns3:cad>45</ns3:cad>
          </ns3:TrackPointExtension>
        </extensions>
      </trkpt>
      <trkpt lat="43.46179780550301074981689453125" lon="1.470578424632549285888671875">
        <ele>279.20001220703125</ele>
        <time>2026-08-05T07:41:53.000Z</time>
        <extensions>
          <ns3:TrackPointExtension>
            <ns3:hr>77</ns3:hr>
            <ns3:cad>44</ns3:cad>
          </ns3:TrackPointExtension>
        </extensions>
      </trkpt>
      <trkpt lat="43.46179629676043987274169921875" lon="1.470567025244235992431640625">
        <ele>279.20001220703125</ele>
        <time>2026-08-05T07:41:54.000Z</time>
        <extensions>
          <ns3:TrackPointExtension>
            <ns3:hr>77</ns3:hr>
            <ns3:cad>46</ns3:cad>
          </ns3:TrackPointExtension>
        </extensions>
      </trkpt>
      <trkpt lat="43.4617965482175350189208984375" lon="1.4705561287701129913330078125">
        <ele>279</ele>
        <time>2026-08-05T07:41:55.000Z</time>
        <extensions>
          <ns3:TrackPointExtension>
            <ns3:hr>76</ns3:hr>
            <ns3:cad>46</ns3:cad>
          </ns3:TrackPointExtension>
        </extensions>
      </trkpt>
      <trkpt lat="43.4617968834936618804931640625" lon="1.4705410413444042205810546875">
        <ele>278.79998779296875</ele>
        <time>2026-08-05T07:41:56.000Z</time>
        <extensions>
          <ns3:TrackPointExtension>
            <ns3:hr>76</ns3:hr>
            <ns3:cad>47</ns3:cad>
          </ns3:TrackPointExtension>
        </extensions>
      </trkpt>
      <trkpt lat="43.46179378218948841094970703125" lon="1.4705249480903148651123046875">
        <ele>278.79998779296875</ele>
        <time>2026-08-05T07:41:57.000Z</time>
        <extensions>
          <ns3:TrackPointExtension>
            <ns3:hr>76</ns3:hr>
            <ns3:cad>47</ns3:cad>
          </ns3:TrackPointExtension>
        </extensions>
      </trkpt>
      <trkpt lat="43.461791686713695526123046875" lon="1.47051027975976467132568359375">
        <ele>278.600006103515625</ele>
        <time>2026-08-05T07:41:58.000Z</time>
        <extensions>
          <ns3:TrackPointExtension>
            <ns3:hr>77</ns3:hr>
            <ns3:cad>47</ns3:cad>
          </ns3:TrackPointExtension>
        </extensions>
      </trkpt>
      <trkpt lat="43.46179068088531494140625" lon="1.4704998023808002471923828125">
        <ele>278.600006103515625</ele>
        <time>2026-08-05T07:41:59.000Z</time>
        <extensions>
          <ns3:TrackPointExtension>
            <ns3:hr>77</ns3:hr>
            <ns3:cad>47</ns3:cad>
          </ns3:TrackPointExtension>
        </extensions>
      </trkpt>
      <trkpt lat="43.4617895074188709259033203125" lon="1.47048697806894779205322265625">
        <ele>278.399993896484375</ele>
        <time>2026-08-05T07:42:00.000Z</time>
        <extensions>
          <ns3:TrackPointExtension>
            <ns3:hr>77</ns3:hr>
            <ns3:cad>48</ns3:cad>
          </ns3:TrackPointExtension>
        </extensions>
      </trkpt>
      <trkpt lat="43.46179059706628322601318359375" lon="1.4704759977757930755615234375">
        <ele>278.399993896484375</ele>
        <time>2026-08-05T07:42:01.000Z</time>
        <extensions>
          <ns3:TrackPointExtension>
            <ns3:hr>77</ns3:hr>
            <ns3:cad>48</ns3:cad>
          </ns3:TrackPointExtension>
        </extensions>
      </trkpt>
      <trkpt lat="43.461789675056934356689453125" lon="1.47046132944524288177490234375">
        <ele>278.399993896484375</ele>
        <time>2026-08-05T07:42:02.000Z</time>
        <extensions>
          <ns3:TrackPointExtension>
            <ns3:hr>77</ns3:hr>
            <ns3:cad>48</ns3:cad>
          </ns3:TrackPointExtension>
        </extensions>
      </trkpt>
      <trkpt lat="43.461788333952426910400390625" lon="1.47044657729566097259521484375">
        <ele>278.399993896484375</ele>
        <time>2026-08-05T07:42:03.000Z</time>
        <extensions>
          <ns3:TrackPointExtension>
            <ns3:hr>76</ns3:hr>
            <ns3:cad>49</ns3:cad>
          </ns3:TrackPointExtension>
        </extensions>
      </trkpt>
      <trkpt lat="43.461787998676300048828125" lon="1.47043836303055286407470703125">
        <ele>278.20001220703125</ele>
        <time>2026-08-05T07:42:04.000Z</time>
        <extensions>
          <ns3:TrackPointExtension>
            <ns3:hr>77</ns3:hr>
            <ns3:cad>48</ns3:cad>
          </ns3:TrackPointExtension>
        </extensions>
      </trkpt>
      <trkpt lat="43.46178690902888774871826171875" lon="1.470420844852924346923828125">
        <ele>278.20001220703125</ele>
        <time>2026-08-05T07:42:05.000Z</time>
        <extensions>
          <ns3:TrackPointExtension>
            <ns3:hr>77</ns3:hr>
            <ns3:cad>48</ns3:cad>
          </ns3:TrackPointExtension>
        </extensions>
      </trkpt>
      <trkpt lat="43.461785651743412017822265625" lon="1.47040734998881816864013671875">
        <ele>278.20001220703125</ele>
        <time>2026-08-05T07:42:06.000Z</time>
        <extensions>
          <ns3:TrackPointExtension>
            <ns3:hr>77</ns3:hr>
            <ns3:cad>46</ns3:cad>
          </ns3:TrackPointExtension>
        </extensions>
      </trkpt>
      <trkpt lat="43.4617858193814754486083984375" lon="1.47039595060050487518310546875">
        <ele>278.20001220703125</ele>
        <time>2026-08-05T07:42:07.000Z</time>
        <extensions>
          <ns3:TrackPointExtension>
            <ns3:hr>77</ns3:hr>
            <ns3:cad>46</ns3:cad>
          </ns3:TrackPointExtension>
        </extensions>
      </trkpt>
      <trkpt lat="43.46178690902888774871826171875" lon="1.47038362920284271240234375">
        <ele>278.20001220703125</ele>
        <time>2026-08-05T07:42:08.000Z</time>
        <extensions>
          <ns3:TrackPointExtension>
            <ns3:hr>77</ns3:hr>
            <ns3:cad>46</ns3:cad>
          </ns3:TrackPointExtension>
        </extensions>
      </trkpt>
      <trkpt lat="43.46178674139082431793212890625" lon="1.47037147544324398040771484375">
        <ele>278</ele>
        <time>2026-08-05T07:42:09.000Z</time>
        <extensions>
          <ns3:TrackPointExtension>
            <ns3:hr>77</ns3:hr>
            <ns3:cad>45</ns3:cad>
          </ns3:TrackPointExtension>
        </extensions>
      </trkpt>
      <trkpt lat="43.46178590320050716400146484375" lon="1.4703547954559326171875">
        <ele>278</ele>
        <time>2026-08-05T07:42:10.000Z</time>
        <extensions>
          <ns3:TrackPointExtension>
            <ns3:hr>77</ns3:hr>
            <ns3:cad>45</ns3:cad>
          </ns3:TrackPointExtension>
        </extensions>
      </trkpt>
      <trkpt lat="43.46178422681987285614013671875" lon="1.4703415520489215850830078125">
        <ele>278</ele>
        <time>2026-08-05T07:42:11.000Z</time>
        <extensions>
          <ns3:TrackPointExtension>
            <ns3:hr>78</ns3:hr>
            <ns3:cad>45</ns3:cad>
          </ns3:TrackPointExtension>
        </extensions>
      </trkpt>
      <trkpt lat="43.46178598701953887939453125" lon="1.47033241577446460723876953125">
        <ele>277.79998779296875</ele>
        <time>2026-08-05T07:42:12.000Z</time>
        <extensions>
          <ns3:TrackPointExtension>
            <ns3:hr>78</ns3:hr>
            <ns3:cad>46</ns3:cad>
          </ns3:TrackPointExtension>
        </extensions>
      </trkpt>
      <trkpt lat="43.46178338862955570220947265625" lon="1.470320262014865875244140625">
        <ele>277.79998779296875</ele>
        <time>2026-08-05T07:42:13.000Z</time>
        <extensions>
          <ns3:TrackPointExtension>
            <ns3:hr>78</ns3:hr>
            <ns3:cad>46</ns3:cad>
          </ns3:TrackPointExtension>
        </extensions>
      </trkpt>
      <trkpt lat="43.46178221516311168670654296875" lon="1.47030718624591827392578125">
        <ele>277.79998779296875</ele>
        <time>2026-08-05T07:42:14.000Z</time>
        <extensions>
          <ns3:TrackPointExtension>
            <ns3:hr>79</ns3:hr>
            <ns3:cad>46</ns3:cad>
          </ns3:TrackPointExtension>
        </extensions>
      </trkpt>
      <trkpt lat="43.4617821313440799713134765625" lon="1.47029184736311435699462890625">
        <ele>277.79998779296875</ele>
        <time>2026-08-05T07:42:15.000Z</time>
        <extensions>
          <ns3:TrackPointExtension>
            <ns3:hr>80</ns3:hr>
            <ns3:cad>46</ns3:cad>
          </ns3:TrackPointExtension>
        </extensions>
      </trkpt>
      <trkpt lat="43.46177903003990650177001953125" lon="1.47027634084224700927734375">
        <ele>277.79998779296875</ele>
        <time>2026-08-05T07:42:16.000Z</time>
        <extensions>
          <ns3:TrackPointExtension>
            <ns3:hr>80</ns3:hr>
            <ns3:cad>46</ns3:cad>
          </ns3:TrackPointExtension>
        </extensions>
      </trkpt>
      <trkpt lat="43.46177794039249420166015625" lon="1.47026561200618743896484375">
        <ele>277.600006103515625</ele>
        <time>2026-08-05T07:42:17.000Z</time>
        <extensions>
          <ns3:TrackPointExtension>
            <ns3:hr>80</ns3:hr>
            <ns3:cad>46</ns3:cad>
          </ns3:TrackPointExtension>
        </extensions>
      </trkpt>
      <trkpt lat="43.46177517436444759368896484375" lon="1.47025220096111297607421875">
        <ele>277.600006103515625</ele>
        <time>2026-08-05T07:42:18.000Z</time>
        <extensions>
          <ns3:TrackPointExtension>
            <ns3:hr>80</ns3:hr>
            <ns3:cad>46</ns3:cad>
          </ns3:TrackPointExtension>
        </extensions>
      </trkpt>
      <trkpt lat="43.46177265979349613189697265625" lon="1.47023610770702362060546875">
        <ele>277.600006103515625</ele>
        <time>2026-08-05T07:42:19.000Z</time>
        <extensions>
          <ns3:TrackPointExtension>
            <ns3:hr>80</ns3:hr>
            <ns3:cad>47</ns3:cad>
          </ns3:TrackPointExtension>
        </extensions>
      </trkpt>
      <trkpt lat="43.46176997758448123931884765625" lon="1.47022278048098087310791015625">
        <ele>277.600006103515625</ele>
        <time>2026-08-05T07:42:20.000Z</time>
        <extensions>
          <ns3:TrackPointExtension>
            <ns3:hr>80</ns3:hr>
            <ns3:cad>48</ns3:cad>
          </ns3:TrackPointExtension>
        </extensions>
      </trkpt>
      <trkpt lat="43.461769558489322662353515625" lon="1.47021188400685787200927734375">
        <ele>277.399993896484375</ele>
        <time>2026-08-05T07:42:21.000Z</time>
        <extensions>
          <ns3:TrackPointExtension>
            <ns3:hr>80</ns3:hr>
            <ns3:cad>48</ns3:cad>
          </ns3:TrackPointExtension>
        </extensions>
      </trkpt>
      <trkpt lat="43.46176796592772006988525390625" lon="1.47019780240952968597412109375">
        <ele>277.399993896484375</ele>
        <time>2026-08-05T07:42:22.000Z</time>
        <extensions>
          <ns3:TrackPointExtension>
            <ns3:hr>81</ns3:hr>
            <ns3:cad>48</ns3:cad>
          </ns3:TrackPointExtension>
        </extensions>
      </trkpt>
      <trkpt lat="43.46176377497613430023193359375" lon="1.47018288262188434600830078125">
        <ele>277.399993896484375</ele>
        <time>2026-08-05T07:42:23.000Z</time>
        <extensions>
          <ns3:TrackPointExtension>
            <ns3:hr>81</ns3:hr>
            <ns3:cad>48</ns3:cad>
          </ns3:TrackPointExtension>
        </extensions>
      </trkpt>
      <trkpt lat="43.4617603383958339691162109375" lon="1.47016771137714385986328125">
        <ele>277.20001220703125</ele>
        <time>2026-08-05T07:42:24.000Z</time>
        <extensions>
          <ns3:TrackPointExtension>
            <ns3:hr>81</ns3:hr>
            <ns3:cad>46</ns3:cad>
          </ns3:TrackPointExtension>
        </extensions>
      </trkpt>
      <trkpt lat="43.461756817996501922607421875" lon="1.47015354596078395843505859375">
        <ele>277.20001220703125</ele>
        <time>2026-08-05T07:42:25.000Z</time>
        <extensions>
          <ns3:TrackPointExtension>
            <ns3:hr>81</ns3:hr>
            <ns3:cad>46</ns3:cad>
          </ns3:TrackPointExtension>
        </extensions>
      </trkpt>
      <trkpt lat="43.46175321377813816070556640625" lon="1.4701415598392486572265625">
        <ele>277.20001220703125</ele>
        <time>2026-08-05T07:42:26.000Z</time>
        <extensions>
          <ns3:TrackPointExtension>
            <ns3:hr>81</ns3:hr>
            <ns3:cad>46</ns3:cad>
          </ns3:TrackPointExtension>
        </extensions>
      </trkpt>
      <trkpt lat="43.46175120212137699127197265625" lon="1.470127813518047332763671875">
        <ele>277.20001220703125</ele>
        <time>2026-08-05T07:42:27.000Z</time>
        <extensions>
          <ns3:TrackPointExtension>
            <ns3:hr>81</ns3:hr>
            <ns3:cad>47</ns3:cad>
          </ns3:TrackPointExtension>
        </extensions>
      </trkpt>
      <trkpt lat="43.46174784936010837554931640625" lon="1.47010962478816509246826171875">
        <ele>277.20001220703125</ele>
        <time>2026-08-05T07:42:28.000Z</time>
        <extensions>
          <ns3:TrackPointExtension>
            <ns3:hr>81</ns3:hr>
            <ns3:cad>47</ns3:cad>
          </ns3:TrackPointExtension>
        </extensions>
      </trkpt>
      <trkpt lat="43.46174449659883975982666015625" lon="1.470093615353107452392578125">
        <ele>277</ele>
        <time>2026-08-05T07:42:29.000Z</time>
        <extensions>
          <ns3:TrackPointExtension>
            <ns3:hr>81</ns3:hr>
            <ns3:cad>47</ns3:cad>
          </ns3:TrackPointExtension>
        </extensions>
      </trkpt>
      <trkpt lat="43.4617432393133640289306640625" lon="1.47008188068866729736328125">
        <ele>277</ele>
        <time>2026-08-05T07:42:30.000Z</time>
        <extensions>
          <ns3:TrackPointExtension>
            <ns3:hr>82</ns3:hr>
            <ns3:cad>47</ns3:cad>
          </ns3:TrackPointExtension>
        </extensions>
      </trkpt>
      <trkpt lat="43.46174441277980804443359375" lon="1.47006654180586338043212890625">
        <ele>277</ele>
        <time>2026-08-05T07:42:31.000Z</time>
        <extensions>
          <ns3:TrackPointExtension>
            <ns3:hr>81</ns3:hr>
            <ns3:cad>47</ns3:cad>
          </ns3:TrackPointExtension>
        </extensions>
      </trkpt>
      <trkpt lat="43.4617439098656177520751953125" lon="1.47005346603691577911376953125">
        <ele>277</ele>
        <time>2026-08-05T07:42:32.000Z</time>
        <extensions>
          <ns3:TrackPointExtension>
            <ns3:hr>81</ns3:hr>
            <ns3:cad>47</ns3:cad>
          </ns3:TrackPointExtension>
        </extensions>
      </trkpt>
      <trkpt lat="43.46174131147563457489013671875" lon="1.47003762423992156982421875">
        <ele>276.79998779296875</ele>
        <time>2026-08-05T07:42:33.000Z</time>
        <extensions>
          <ns3:TrackPointExtension>
            <ns3:hr>82</ns3:hr>
            <ns3:cad>47</ns3:cad>
          </ns3:TrackPointExtension>
        </extensions>
      </trkpt>
      <trkpt lat="43.4617382101714611053466796875" lon="1.4700206927955150604248046875">
        <ele>276.79998779296875</ele>
        <time>2026-08-05T07:42:34.000Z</time>
        <extensions>
          <ns3:TrackPointExtension>
            <ns3:hr>81</ns3:hr>
            <ns3:cad>47</ns3:cad>
          </ns3:TrackPointExtension>
        </extensions>
      </trkpt>
      <trkpt lat="43.46173544414341449737548828125" lon="1.470004431903362274169921875">
        <ele>276.79998779296875</ele>
        <time>2026-08-05T07:42:35.000Z</time>
        <extensions>
          <ns3:TrackPointExtension>
            <ns3:hr>80</ns3:hr>
            <ns3:cad>47</ns3:cad>
          </ns3:TrackPointExtension>
        </extensions>
      </trkpt>
      <trkpt lat="43.46173502504825592041015625" lon="1.4699898473918437957763671875">
        <ele>276.79998779296875</ele>
        <time>2026-08-05T07:42:36.000Z</time>
        <extensions>
          <ns3:TrackPointExtension>
            <ns3:hr>80</ns3:hr>
            <ns3:cad>47</ns3:cad>
          </ns3:TrackPointExtension>
        </extensions>
      </trkpt>
      <trkpt lat="43.46173561178147792816162109375" lon="1.46997618488967418670654296875">
        <ele>276.600006103515625</ele>
        <time>2026-08-05T07:42:37.000Z</time>
        <extensions>
          <ns3:TrackPointExtension>
            <ns3:hr>80</ns3:hr>
            <ns3:cad>45</ns3:cad>
          </ns3:TrackPointExtension>
        </extensions>
      </trkpt>
      <trkpt lat="43.46173410303890705108642578125" lon="1.46996076218783855438232421875">
        <ele>276.600006103515625</ele>
        <time>2026-08-05T07:42:38.000Z</time>
        <extensions>
          <ns3:TrackPointExtension>
            <ns3:hr>80</ns3:hr>
            <ns3:cad>45</ns3:cad>
          </ns3:TrackPointExtension>
        </extensions>
      </trkpt>
      <trkpt lat="43.4617321752011775970458984375" lon="1.4699442498385906219482421875">
        <ele>276.600006103515625</ele>
        <time>2026-08-05T07:42:39.000Z</time>
        <extensions>
          <ns3:TrackPointExtension>
            <ns3:hr>79</ns3:hr>
            <ns3:cad>48</ns3:cad>
          </ns3:TrackPointExtension>
        </extensions>
      </trkpt>
      <trkpt lat="43.46173024736344814300537109375" lon="1.469930671155452728271484375">
        <ele>276.399993896484375</ele>
        <time>2026-08-05T07:42:40.000Z</time>
        <extensions>
          <ns3:TrackPointExtension>
            <ns3:hr>79</ns3:hr>
            <ns3:cad>48</ns3:cad>
          </ns3:TrackPointExtension>
        </extensions>
      </trkpt>
      <trkpt lat="43.461728654801845550537109375" lon="1.46991667337715625762939453125">
        <ele>276.399993896484375</ele>
        <time>2026-08-05T07:42:41.000Z</time>
        <extensions>
          <ns3:TrackPointExtension>
            <ns3:hr>79</ns3:hr>
            <ns3:cad>50</ns3:cad>
          </ns3:TrackPointExtension>
        </extensions>
      </trkpt>
      <trkpt lat="43.46172924153506755828857421875" lon="1.469907872378826141357421875">
        <ele>276.399993896484375</ele>
        <time>2026-08-05T07:42:42.000Z</time>
        <extensions>
          <ns3:TrackPointExtension>
            <ns3:hr>80</ns3:hr>
            <ns3:cad>50</ns3:cad>
          </ns3:TrackPointExtension>
        </extensions>
      </trkpt>
      <trkpt lat="43.4617304988205432891845703125" lon="1.4699041843414306640625">
        <ele>276.20001220703125</ele>
        <time>2026-08-05T07:42:43.000Z</time>
        <extensions>
          <ns3:TrackPointExtension>
            <ns3:hr>79</ns3:hr>
            <ns3:cad>49</ns3:cad>
          </ns3:TrackPointExtension>
        </extensions>
      </trkpt>
      <trkpt lat="43.46173091791570186614990234375" lon="1.469900496304035186767578125">
        <ele>276.20001220703125</ele>
        <time>2026-08-05T07:42:44.000Z</time>
        <extensions>
          <ns3:TrackPointExtension>
            <ns3:hr>79</ns3:hr>
            <ns3:cad>47</ns3:cad>
          </ns3:TrackPointExtension>
        </extensions>
      </trkpt>
      <trkpt lat="43.46173376776278018951416015625" lon="1.469898484647274017333984375">
        <ele>276.20001220703125</ele>
        <time>2026-08-05T07:42:45.000Z</time>
        <extensions>
          <ns3:TrackPointExtension>
            <ns3:hr>80</ns3:hr>
            <ns3:cad>0</ns3:cad>
          </ns3:TrackPointExtension>
        </extensions>
      </trkpt>
      <trkpt lat="43.4617335163056850433349609375" lon="1.46989622153341770172119140625">
        <ele>276.20001220703125</ele>
        <time>2026-08-05T07:42:46.000Z</time>
        <extensions>
          <ns3:TrackPointExtension>
            <ns3:hr>79</ns3:hr>
            <ns3:cad>0</ns3:cad>
          </ns3:TrackPointExtension>
        </extensions>
      </trkpt>
      <trkpt lat="43.4617335163056850433349609375" lon="1.469896137714385986328125">
        <ele>276.20001220703125</ele>
        <time>2026-08-05T07:42:47.000Z</time>
        <extensions>
          <ns3:TrackPointExtension>
            <ns3:hr>79</ns3:hr>
            <ns3:cad>0</ns3:cad>
          </ns3:TrackPointExtension>
        </extensions>
      </trkpt>
      <trkpt lat="43.4617335163056850433349609375" lon="1.469896137714385986328125">
        <ele>276.399993896484375</ele>
        <time>2026-08-05T07:42:48.000Z</time>
        <extensions>
          <ns3:TrackPointExtension>
            <ns3:hr>79</ns3:hr>
            <ns3:cad>0</ns3:cad>
          </ns3:TrackPointExtension>
        </extensions>
      </trkpt>
      <trkpt lat="43.4617335163056850433349609375" lon="1.469896137714385986328125">
        <ele>276.399993896484375</ele>
        <time>2026-08-05T07:42:49.000Z</time>
        <extensions>
          <ns3:TrackPointExtension>
            <ns3:hr>79</ns3:hr>
            <ns3:cad>0</ns3:cad>
          </ns3:TrackPointExtension>
        </extensions>
      </trkpt>
      <trkpt lat="43.4617335163056850433349609375" lon="1.469896137714385986328125">
        <ele>276.399993896484375</ele>
        <time>2026-08-05T07:42:50.000Z</time>
        <extensions>
          <ns3:TrackPointExtension>
            <ns3:hr>79</ns3:hr>
            <ns3:cad>0</ns3:cad>
          </ns3:TrackPointExtension>
        </extensions>
      </trkpt>
      <trkpt lat="43.46173343248665332794189453125" lon="1.469895802438259124755859375">
        <ele>276.399993896484375</ele>
        <time>2026-08-05T07:42:51.000Z</time>
        <extensions>
          <ns3:TrackPointExtension>
            <ns3:hr>79</ns3:hr>
            <ns3:cad>0</ns3:cad>
          </ns3:TrackPointExtension>
        </extensions>
      </trkpt>
      <trkpt lat="43.4617356956005096435546875" lon="1.4698865823447704315185546875">
        <ele>276.20001220703125</ele>
        <time>2026-08-05T07:42:52.000Z</time>
        <extensions>
          <ns3:TrackPointExtension>
            <ns3:hr>78</ns3:hr>
            <ns3:cad>0</ns3:cad>
          </ns3:TrackPointExtension>
        </extensions>
      </trkpt>
      <trkpt lat="43.46173360012471675872802734375" lon="1.469876356422901153564453125">
        <ele>276.20001220703125</ele>
        <time>2026-08-05T07:42:53.000Z</time>
        <extensions>
          <ns3:TrackPointExtension>
            <ns3:hr>77</ns3:hr>
            <ns3:cad>0</ns3:cad>
          </ns3:TrackPointExtension>
        </extensions>
      </trkpt>
      <trkpt lat="43.46173360012471675872802734375" lon="1.46987677551805973052978515625">
        <ele>276.20001220703125</ele>
        <time>2026-08-05T07:42:54.000Z</time>
        <extensions>
          <ns3:TrackPointExtension>
            <ns3:hr>75</ns3:hr>
            <ns3:cad>0</ns3:cad>
          </ns3:TrackPointExtension>
        </extensions>
      </trkpt>
      <trkpt lat="43.46173343248665332794189453125" lon="1.46987669169902801513671875">
        <ele>276.20001220703125</ele>
        <time>2026-08-05T07:42:55.000Z</time>
        <extensions>
          <ns3:TrackPointExtension>
            <ns3:hr>72</ns3:hr>
            <ns3:cad>0</ns3:cad>
          </ns3:TrackPointExtension>
        </extensions>
      </trkpt>
      <trkpt lat="43.46173343248665332794189453125" lon="1.46987669169902801513671875">
        <ele>276.20001220703125</ele>
        <time>2026-08-05T07:42:56.000Z</time>
        <extensions>
          <ns3:TrackPointExtension>
            <ns3:hr>68</ns3:hr>
            <ns3:cad>0</ns3:cad>
          </ns3:TrackPointExtension>
        </extensions>
      </trkpt>
      <trkpt lat="43.46173343248665332794189453125" lon="1.46987669169902801513671875">
        <ele>276.20001220703125</ele>
        <time>2026-08-05T07:42:57.000Z</time>
        <extensions>
          <ns3:TrackPointExtension>
            <ns3:hr>67</ns3:hr>
            <ns3:cad>0</ns3:cad>
          </ns3:TrackPointExtension>
        </extensions>
      </trkpt>
      <trkpt lat="43.46173343248665332794189453125" lon="1.46987669169902801513671875">
        <ele>276.20001220703125</ele>
        <time>2026-08-05T07:42:58.000Z</time>
        <extensions>
          <ns3:TrackPointExtension>
            <ns3:hr>67</ns3:hr>
            <ns3:cad>0</ns3:cad>
          </ns3:TrackPointExtension>
        </extensions>
      </trkpt>
      <trkpt lat="43.46173343248665332794189453125" lon="1.46987669169902801513671875">
        <ele>276.20001220703125</ele>
        <time>2026-08-05T07:42:59.000Z</time>
        <extensions>
          <ns3:TrackPointExtension>
            <ns3:hr>67</ns3:hr>
            <ns3:cad>0</ns3:cad>
          </ns3:TrackPointExtension>
        </extensions>
      </trkpt>
      <trkpt lat="43.46173343248665332794189453125" lon="1.46987669169902801513671875">
        <ele>276.20001220703125</ele>
        <time>2026-08-05T07:43:00.000Z</time>
        <extensions>
          <ns3:TrackPointExtension>
            <ns3:hr>67</ns3:hr>
            <ns3:cad>0</ns3:cad>
          </ns3:TrackPointExtension>
        </extensions>
      </trkpt>
      <trkpt lat="43.46173343248665332794189453125" lon="1.46987669169902801513671875">
        <ele>276.20001220703125</ele>
        <time>2026-08-05T07:43:01.000Z</time>
        <extensions>
          <ns3:TrackPointExtension>
            <ns3:hr>69</ns3:hr>
            <ns3:cad>0</ns3:cad>
          </ns3:TrackPointExtension>
        </extensions>
      </trkpt>
      <trkpt lat="43.46173343248665332794189453125" lon="1.46987669169902801513671875">
        <ele>276.20001220703125</ele>
        <time>2026-08-05T07:43:02.000Z</time>
        <extensions>
          <ns3:TrackPointExtension>
            <ns3:hr>71</ns3:hr>
            <ns3:cad>0</ns3:cad>
          </ns3:TrackPointExtension>
        </extensions>
      </trkpt>
      <trkpt lat="43.46173343248665332794189453125" lon="1.46987526677548885345458984375">
        <ele>276.20001220703125</ele>
        <time>2026-08-05T07:43:03.000Z</time>
        <extensions>
          <ns3:TrackPointExtension>
            <ns3:hr>71</ns3:hr>
            <ns3:cad>0</ns3:cad>
          </ns3:TrackPointExtension>
        </extensions>
      </trkpt>
      <trkpt lat="43.4617382101714611053466796875" lon="1.4698652923107147216796875">
        <ele>276</ele>
        <time>2026-08-05T07:43:04.000Z</time>
        <extensions>
          <ns3:TrackPointExtension>
            <ns3:hr>70</ns3:hr>
            <ns3:cad>0</ns3:cad>
          </ns3:TrackPointExtension>
        </extensions>
      </trkpt>
      <trkpt lat="43.46174147911369800567626953125" lon="1.46985867060720920562744140625">
        <ele>276</ele>
        <time>2026-08-05T07:43:05.000Z</time>
        <extensions>
          <ns3:TrackPointExtension>
            <ns3:hr>70</ns3:hr>
            <ns3:cad>0</ns3:cad>
          </ns3:TrackPointExtension>
        </extensions>
      </trkpt>
      <trkpt lat="43.46174298785626888275146484375" lon="1.46984945051372051239013671875">
        <ele>276</ele>
        <time>2026-08-05T07:43:06.000Z</time>
        <extensions>
          <ns3:TrackPointExtension>
            <ns3:hr>70</ns3:hr>
            <ns3:cad>0</ns3:cad>
          </ns3:TrackPointExtension>
        </extensions>
      </trkpt>
      <trkpt lat="43.4617410600185394287109375" lon="1.469844169914722442626953125">
        <ele>275.79998779296875</ele>
        <time>2026-08-05T07:43:07.000Z</time>
        <extensions>
          <ns3:TrackPointExtension>
            <ns3:hr>70</ns3:hr>
            <ns3:cad>0</ns3:cad>
          </ns3:TrackPointExtension>
        </extensions>
      </trkpt>
      <trkpt lat="43.46174399368464946746826171875" lon="1.46983419544994831085205078125">
        <ele>275.79998779296875</ele>
        <time>2026-08-05T07:43:08.000Z</time>
        <extensions>
          <ns3:TrackPointExtension>
            <ns3:hr>69</ns3:hr>
            <ns3:cad>0</ns3:cad>
          </ns3:TrackPointExtension>
        </extensions>
      </trkpt>
      <trkpt lat="43.46175069920718669891357421875" lon="1.46981860511004924774169921875">
        <ele>275.79998779296875</ele>
        <time>2026-08-05T07:43:09.000Z</time>
        <extensions>
          <ns3:TrackPointExtension>
            <ns3:hr>68</ns3:hr>
            <ns3:cad>0</ns3:cad>
          </ns3:TrackPointExtension>
        </extensions>
      </trkpt>
      <trkpt lat="43.4617566503584384918212890625" lon="1.4698108099400997161865234375">
        <ele>275.79998779296875</ele>
        <time>2026-08-05T07:43:10.000Z</time>
        <extensions>
          <ns3:TrackPointExtension>
            <ns3:hr>67</ns3:hr>
            <ns3:cad>0</ns3:cad>
          </ns3:TrackPointExtension>
        </extensions>
      </trkpt>
      <trkpt lat="43.46176763065159320831298828125" lon="1.469808630645275115966796875">
        <ele>275.79998779296875</ele>
        <time>2026-08-05T07:43:11.000Z</time>
        <extensions>
          <ns3:TrackPointExtension>
            <ns3:hr>67</ns3:hr>
            <ns3:cad>0</ns3:cad>
          </ns3:TrackPointExtension>
        </extensions>
      </trkpt>
      <trkpt lat="43.46177123486995697021484375" lon="1.46979982964694499969482421875">
        <ele>275.79998779296875</ele>
        <time>2026-08-05T07:43:12.000Z</time>
        <extensions>
          <ns3:TrackPointExtension>
            <ns3:hr>66</ns3:hr>
            <ns3:cad>0</ns3:cad>
          </ns3:TrackPointExtension>
        </extensions>
      </trkpt>
      <trkpt lat="43.46178255043923854827880859375" lon="1.46978591568768024444580078125">
        <ele>275.600006103515625</ele>
        <time>2026-08-05T07:43:13.000Z</time>
        <extensions>
          <ns3:TrackPointExtension>
            <ns3:hr>66</ns3:hr>
            <ns3:cad>0</ns3:cad>
          </ns3:TrackPointExtension>
        </extensions>
      </trkpt>
      <trkpt lat="43.46178741194307804107666015625" lon="1.46978013217449188232421875">
        <ele>275.600006103515625</ele>
        <time>2026-08-05T07:43:14.000Z</time>
        <extensions>
          <ns3:TrackPointExtension>
            <ns3:hr>66</ns3:hr>
            <ns3:cad>0</ns3:cad>
          </ns3:TrackPointExtension>
        </extensions>
      </trkpt>
      <trkpt lat="43.46179227344691753387451171875" lon="1.469776444137096405029296875">
        <ele>275.600006103515625</ele>
        <time>2026-08-05T07:43:15.000Z</time>
        <extensions>
          <ns3:TrackPointExtension>
            <ns3:hr>66</ns3:hr>
            <ns3:cad>47</ns3:cad>
          </ns3:TrackPointExtension>
        </extensions>
      </trkpt>
      <trkpt lat="43.46179042942821979522705078125" lon="1.46978080272674560546875">
        <ele>275.600006103515625</ele>
        <time>2026-08-05T07:43:16.000Z</time>
        <extensions>
          <ns3:TrackPointExtension>
            <ns3:hr>66</ns3:hr>
            <ns3:cad>0</ns3:cad>
          </ns3:TrackPointExtension>
        </extensions>
      </trkpt>
      <trkpt lat="43.461792357265949249267578125" lon="1.469777785241603851318359375">
        <ele>275.600006103515625</ele>
        <time>2026-08-05T07:43:17.000Z</time>
        <extensions>
          <ns3:TrackPointExtension>
            <ns3:hr>66</ns3:hr>
            <ns3:cad>0</ns3:cad>
          </ns3:TrackPointExtension>
        </extensions>
      </trkpt>
      <trkpt lat="43.46179244108498096466064453125" lon="1.4697779528796672821044921875">
        <ele>275.600006103515625</ele>
        <time>2026-08-05T07:43:18.000Z</time>
        <extensions>
          <ns3:TrackPointExtension>
            <ns3:hr>65</ns3:hr>
            <ns3:cad>0</ns3:cad>
          </ns3:TrackPointExtension>
        </extensions>
      </trkpt>
      <trkpt lat="43.46179244108498096466064453125" lon="1.46977803669869899749755859375">
        <ele>275.600006103515625</ele>
        <time>2026-08-05T07:43:19.000Z</time>
        <extensions>
          <ns3:TrackPointExtension>
            <ns3:hr>65</ns3:hr>
            <ns3:cad>0</ns3:cad>
          </ns3:TrackPointExtension>
        </extensions>
      </trkpt>
      <trkpt lat="43.461799733340740203857421875" lon="1.469779126346111297607421875">
        <ele>275.600006103515625</ele>
        <time>2026-08-05T07:43:20.000Z</time>
        <extensions>
          <ns3:TrackPointExtension>
            <ns3:hr>65</ns3:hr>
            <ns3:cad>0</ns3:cad>
          </ns3:TrackPointExtension>
        </extensions>
      </trkpt>
      <trkpt lat="43.46180132590234279632568359375" lon="1.46977568976581096649169921875">
        <ele>275.600006103515625</ele>
        <time>2026-08-05T07:43:21.000Z</time>
        <extensions>
          <ns3:TrackPointExtension>
            <ns3:hr>66</ns3:hr>
            <ns3:cad>0</ns3:cad>
          </ns3:TrackPointExtension>
        </extensions>
      </trkpt>
      <trkpt lat="43.461811132729053497314453125" lon="1.4697729237377643585205078125">
        <ele>275.600006103515625</ele>
        <time>2026-08-05T07:43:22.000Z</time>
        <extensions>
          <ns3:TrackPointExtension>
            <ns3:hr>66</ns3:hr>
            <ns3:cad>0</ns3:cad>
          </ns3:TrackPointExtension>
        </extensions>
      </trkpt>
      <trkpt lat="43.4618233703076839447021484375" lon="1.4697648771107196807861328125">
        <ele>275.399993896484375</ele>
        <time>2026-08-05T07:43:23.000Z</time>
        <extensions>
          <ns3:TrackPointExtension>
            <ns3:hr>67</ns3:hr>
            <ns3:cad>50</ns3:cad>
          </ns3:TrackPointExtension>
        </extensions>
      </trkpt>
      <trkpt lat="43.461837954819202423095703125" lon="1.4697580039501190185546875">
        <ele>275.399993896484375</ele>
        <time>2026-08-05T07:43:24.000Z</time>
        <extensions>
          <ns3:TrackPointExtension>
            <ns3:hr>67</ns3:hr>
            <ns3:cad>50</ns3:cad>
          </ns3:TrackPointExtension>
        </extensions>
      </trkpt>
      <trkpt lat="43.46185044385492801666259765625" lon="1.46975138224661350250244140625">
        <ele>275.399993896484375</ele>
        <time>2026-08-05T07:43:25.000Z</time>
        <extensions>
          <ns3:TrackPointExtension>
            <ns3:hr>67</ns3:hr>
            <ns3:cad>50</ns3:cad>
          </ns3:TrackPointExtension>
        </extensions>
      </trkpt>
      <trkpt lat="43.46185974776744842529296875" lon="1.4697481133043766021728515625">
        <ele>275.20001220703125</ele>
        <time>2026-08-05T07:43:26.000Z</time>
        <extensions>
          <ns3:TrackPointExtension>
            <ns3:hr>69</ns3:hr>
            <ns3:cad>45</ns3:cad>
          </ns3:TrackPointExtension>
        </extensions>
      </trkpt>
      <trkpt lat="43.461870141327381134033203125" lon="1.4697467721998691558837890625">
        <ele>275.20001220703125</ele>
        <time>2026-08-05T07:43:27.000Z</time>
        <extensions>
          <ns3:TrackPointExtension>
            <ns3:hr>69</ns3:hr>
            <ns3:cad>45</ns3:cad>
          </ns3:TrackPointExtension>
        </extensions>
      </trkpt>
      <trkpt lat="43.46188078634440898895263671875" lon="1.469743587076663970947265625">
        <ele>275.20001220703125</ele>
        <time>2026-08-05T07:43:28.000Z</time>
        <extensions>
          <ns3:TrackPointExtension>
            <ns3:hr>70</ns3:hr>
            <ns3:cad>47</ns3:cad>
          </ns3:TrackPointExtension>
        </extensions>
      </trkpt>
      <trkpt lat="43.4618910960853099822998046875" lon="1.46973855793476104736328125">
        <ele>275.20001220703125</ele>
        <time>2026-08-05T07:43:29.000Z</time>
        <extensions>
          <ns3:TrackPointExtension>
            <ns3:hr>70</ns3:hr>
            <ns3:cad>47</ns3:cad>
          </ns3:TrackPointExtension>
        </extensions>
      </trkpt>
      <trkpt lat="43.46190174110233783721923828125" lon="1.46973478607833385467529296875">
        <ele>275.20001220703125</ele>
        <time>2026-08-05T07:43:30.000Z</time>
        <extensions>
          <ns3:TrackPointExtension>
            <ns3:hr>71</ns3:hr>
            <ns3:cad>49</ns3:cad>
          </ns3:TrackPointExtension>
        </extensions>
      </trkpt>
      <trkpt lat="43.46191339194774627685546875" lon="1.469726152718067169189453125">
        <ele>275.20001220703125</ele>
        <time>2026-08-05T07:43:31.000Z</time>
        <extensions>
          <ns3:TrackPointExtension>
            <ns3:hr>71</ns3:hr>
            <ns3:cad>50</ns3:cad>
          </ns3:TrackPointExtension>
        </extensions>
      </trkpt>
      <trkpt lat="43.46192705444991588592529296875" lon="1.469720117747783660888671875">
        <ele>275.20001220703125</ele>
        <time>2026-08-05T07:43:32.000Z</time>
        <extensions>
          <ns3:TrackPointExtension>
            <ns3:hr>71</ns3:hr>
            <ns3:cad>50</ns3:cad>
          </ns3:TrackPointExtension>
        </extensions>
      </trkpt>
      <trkpt lat="43.46193945966660976409912109375" lon="1.46971617825329303741455078125">
        <ele>275</ele>
        <time>2026-08-05T07:43:33.000Z</time>
        <extensions>
          <ns3:TrackPointExtension>
            <ns3:hr>71</ns3:hr>
            <ns3:cad>50</ns3:cad>
          </ns3:TrackPointExtension>
        </extensions>
      </trkpt>
      <trkpt lat="43.46195035614073276519775390625" lon="1.469713412225246429443359375">
        <ele>275</ele>
        <time>2026-08-05T07:43:34.000Z</time>
        <extensions>
          <ns3:TrackPointExtension>
            <ns3:hr>71</ns3:hr>
            <ns3:cad>50</ns3:cad>
          </ns3:TrackPointExtension>
        </extensions>
      </trkpt>
      <trkpt lat="43.461959324777126312255859375" lon="1.469711400568485260009765625">
        <ele>274.79998779296875</ele>
        <time>2026-08-05T07:43:35.000Z</time>
        <extensions>
          <ns3:TrackPointExtension>
            <ns3:hr>71</ns3:hr>
            <ns3:cad>53</ns3:cad>
          </ns3:TrackPointExtension>
        </extensions>
      </trkpt>
      <trkpt lat="43.4619715623557567596435546875" lon="1.46970712579786777496337890625">
        <ele>274.600006103515625</ele>
        <time>2026-08-05T07:43:36.000Z</time>
        <extensions>
          <ns3:TrackPointExtension>
            <ns3:hr>71</ns3:hr>
            <ns3:cad>53</ns3:cad>
          </ns3:TrackPointExtension>
        </extensions>
      </trkpt>
      <trkpt lat="43.46198522485792636871337890625" lon="1.46970461122691631317138671875">
        <ele>274.600006103515625</ele>
        <time>2026-08-05T07:43:37.000Z</time>
        <extensions>
          <ns3:TrackPointExtension>
            <ns3:hr>71</ns3:hr>
            <ns3:cad>53</ns3:cad>
          </ns3:TrackPointExtension>
        </extensions>
      </trkpt>
      <trkpt lat="43.46199947409331798553466796875" lon="1.46970092318952083587646484375">
        <ele>274.399993896484375</ele>
        <time>2026-08-05T07:43:38.000Z</time>
        <extensions>
          <ns3:TrackPointExtension>
            <ns3:hr>72</ns3:hr>
            <ns3:cad>53</ns3:cad>
          </ns3:TrackPointExtension>
        </extensions>
      </trkpt>
      <trkpt lat="43.4620134718716144561767578125" lon="1.4696978218853473663330078125">
        <ele>274.399993896484375</ele>
        <time>2026-08-05T07:43:39.000Z</time>
        <extensions>
          <ns3:TrackPointExtension>
            <ns3:hr>72</ns3:hr>
            <ns3:cad>53</ns3:cad>
          </ns3:TrackPointExtension>
        </extensions>
      </trkpt>
      <trkpt lat="43.462025709450244903564453125" lon="1.4696961455047130584716796875">
        <ele>274.20001220703125</ele>
        <time>2026-08-05T07:43:40.000Z</time>
        <extensions>
          <ns3:TrackPointExtension>
            <ns3:hr>73</ns3:hr>
            <ns3:cad>52</ns3:cad>
          </ns3:TrackPointExtension>
        </extensions>
      </trkpt>
      <trkpt lat="43.46203736029565334320068359375" lon="1.469695307314395904541015625">
        <ele>274.20001220703125</ele>
        <time>2026-08-05T07:43:41.000Z</time>
        <extensions>
          <ns3:TrackPointExtension>
            <ns3:hr>74</ns3:hr>
            <ns3:cad>52</ns3:cad>
          </ns3:TrackPointExtension>
        </extensions>
      </trkpt>
      <trkpt lat="43.46205010078847408294677734375" lon="1.46969639696180820465087890625">
        <ele>274</ele>
        <time>2026-08-05T07:43:42.000Z</time>
        <extensions>
          <ns3:TrackPointExtension>
            <ns3:hr>74</ns3:hr>
            <ns3:cad>52</ns3:cad>
          </ns3:TrackPointExtension>
        </extensions>
      </trkpt>
      <trkpt lat="43.462059237062931060791015625" lon="1.46969354711472988128662109375">
        <ele>274</ele>
        <time>2026-08-05T07:43:43.000Z</time>
        <extensions>
          <ns3:TrackPointExtension>
            <ns3:hr>74</ns3:hr>
            <ns3:cad>52</ns3:cad>
          </ns3:TrackPointExtension>
        </extensions>
      </trkpt>
      <trkpt lat="43.46206854097545146942138671875" lon="1.4696911163628101348876953125">
        <ele>273.79998779296875</ele>
        <time>2026-08-05T07:43:44.000Z</time>
        <extensions>
          <ns3:TrackPointExtension>
            <ns3:hr>74</ns3:hr>
            <ns3:cad>52</ns3:cad>
          </ns3:TrackPointExtension>
        </extensions>
      </trkpt>
      <trkpt lat="43.4620754979550838470458984375" lon="1.4696904458105564117431640625">
        <ele>273.79998779296875</ele>
        <time>2026-08-05T07:43:45.000Z</time>
        <extensions>
          <ns3:TrackPointExtension>
            <ns3:hr>74</ns3:hr>
            <ns3:cad>51</ns3:cad>
          </ns3:TrackPointExtension>
        </extensions>
      </trkpt>
      <trkpt lat="43.46208530478179454803466796875" lon="1.46969287656247615814208984375">
        <ele>273.600006103515625</ele>
        <time>2026-08-05T07:43:46.000Z</time>
        <extensions>
          <ns3:TrackPointExtension>
            <ns3:hr>74</ns3:hr>
            <ns3:cad>51</ns3:cad>
          </ns3:TrackPointExtension>
        </extensions>
      </trkpt>
      <trkpt lat="43.4620951116085052490234375" lon="1.46969203837215900421142578125">
        <ele>273.600006103515625</ele>
        <time>2026-08-05T07:43:47.000Z</time>
        <extensions>
          <ns3:TrackPointExtension>
            <ns3:hr>74</ns3:hr>
            <ns3:cad>51</ns3:cad>
          </ns3:TrackPointExtension>
        </extensions>
      </trkpt>
      <trkpt lat="43.46210609190165996551513671875" lon="1.46968985907733440399169921875">
        <ele>273.600006103515625</ele>
        <time>2026-08-05T07:43:48.000Z</time>
        <extensions>
          <ns3:TrackPointExtension>
            <ns3:hr>75</ns3:hr>
            <ns3:cad>52</ns3:cad>
          </ns3:TrackPointExtension>
        </extensions>
      </trkpt>
      <trkpt lat="43.46211514435708522796630859375" lon="1.46968952380120754241943359375">
        <ele>273.399993896484375</ele>
        <time>2026-08-05T07:43:49.000Z</time>
        <extensions>
          <ns3:TrackPointExtension>
            <ns3:hr>75</ns3:hr>
            <ns3:cad>52</ns3:cad>
          </ns3:TrackPointExtension>
        </extensions>
      </trkpt>
      <trkpt lat="43.46212738193571567535400390625" lon="1.46968759596347808837890625">
        <ele>273.399993896484375</ele>
        <time>2026-08-05T07:43:50.000Z</time>
        <extensions>
          <ns3:TrackPointExtension>
            <ns3:hr>75</ns3:hr>
            <ns3:cad>51</ns3:cad>
          </ns3:TrackPointExtension>
        </extensions>
      </trkpt>
      <trkpt lat="43.4621385298669338226318359375" lon="1.4696870930492877960205078125">
        <ele>273.20001220703125</ele>
        <time>2026-08-05T07:43:51.000Z</time>
        <extensions>
          <ns3:TrackPointExtension>
            <ns3:hr>75</ns3:hr>
            <ns3:cad>51</ns3:cad>
          </ns3:TrackPointExtension>
        </extensions>
      </trkpt>
      <trkpt lat="43.462147749960422515869140625" lon="1.4696882665157318115234375">
        <ele>273</ele>
        <time>2026-08-05T07:43:52.000Z</time>
        <extensions>
          <ns3:TrackPointExtension>
            <ns3:hr>75</ns3:hr>
            <ns3:cad>50</ns3:cad>
          </ns3:TrackPointExtension>
        </extensions>
      </trkpt>
      <trkpt lat="43.46215789206326007843017578125" lon="1.46968684159219264984130859375">
        <ele>272.79998779296875</ele>
        <time>2026-08-05T07:43:53.000Z</time>
        <extensions>
          <ns3:TrackPointExtension>
            <ns3:hr>75</ns3:hr>
            <ns3:cad>50</ns3:cad>
          </ns3:TrackPointExtension>
        </extensions>
      </trkpt>
      <trkpt lat="43.4621683694422245025634765625" lon="1.4696901105344295501708984375">
        <ele>272.79998779296875</ele>
        <time>2026-08-05T07:43:54.000Z</time>
        <extensions>
          <ns3:TrackPointExtension>
            <ns3:hr>75</ns3:hr>
            <ns3:cad>50</ns3:cad>
          </ns3:TrackPointExtension>
        </extensions>
      </trkpt>
      <trkpt lat="43.4621784277260303497314453125" lon="1.46969321183860301971435546875">
        <ele>272.600006103515625</ele>
        <time>2026-08-05T07:43:55.000Z</time>
        <extensions>
          <ns3:TrackPointExtension>
            <ns3:hr>76</ns3:hr>
            <ns3:cad>50</ns3:cad>
          </ns3:TrackPointExtension>
        </extensions>
      </trkpt>
      <trkpt lat="43.46218940801918506622314453125" lon="1.46969639696180820465087890625">
        <ele>272.600006103515625</ele>
        <time>2026-08-05T07:43:56.000Z</time>
        <extensions>
          <ns3:TrackPointExtension>
            <ns3:hr>76</ns3:hr>
            <ns3:cad>50</ns3:cad>
          </ns3:TrackPointExtension>
        </extensions>
      </trkpt>
      <trkpt lat="43.462201394140720367431640625" lon="1.46969790570437908172607421875">
        <ele>272.399993896484375</ele>
        <time>2026-08-05T07:43:57.000Z</time>
        <extensions>
          <ns3:TrackPointExtension>
            <ns3:hr>76</ns3:hr>
            <ns3:cad>51</ns3:cad>
          </ns3:TrackPointExtension>
        </extensions>
      </trkpt>
      <trkpt lat="43.462214134633541107177734375" lon="1.46969790570437908172607421875">
        <ele>272.399993896484375</ele>
        <time>2026-08-05T07:43:58.000Z</time>
        <extensions>
          <ns3:TrackPointExtension>
            <ns3:hr>75</ns3:hr>
            <ns3:cad>51</ns3:cad>
          </ns3:TrackPointExtension>
        </extensions>
      </trkpt>
      <trkpt lat="43.46222511492669582366943359375" lon="1.46969991736114025115966796875">
        <ele>272.20001220703125</ele>
        <time>2026-08-05T07:43:59.000Z</time>
        <extensions>
          <ns3:TrackPointExtension>
            <ns3:hr>75</ns3:hr>
            <ns3:cad>50</ns3:cad>
          </ns3:TrackPointExtension>
        </extensions>
      </trkpt>
      <trkpt lat="43.4622364304959774017333984375" lon="1.46970058791339397430419921875">
        <ele>272.20001220703125</ele>
        <time>2026-08-05T07:44:00.000Z</time>
        <extensions>
          <ns3:TrackPointExtension>
            <ns3:hr>75</ns3:hr>
            <ns3:cad>50</ns3:cad>
          </ns3:TrackPointExtension>
        </extensions>
      </trkpt>
      <trkpt lat="43.462246991693973541259765625" lon="1.46970394067466259002685546875">
        <ele>272</ele>
        <time>2026-08-05T07:44:01.000Z</time>
        <extensions>
          <ns3:TrackPointExtension>
            <ns3:hr>75</ns3:hr>
            <ns3:cad>50</ns3:cad>
          </ns3:TrackPointExtension>
        </extensions>
      </trkpt>
      <trkpt lat="43.46225663088262081146240234375" lon="1.46970662288367748260498046875">
        <ele>271.79998779296875</ele>
        <time>2026-08-05T07:44:02.000Z</time>
        <extensions>
          <ns3:TrackPointExtension>
            <ns3:hr>75</ns3:hr>
            <ns3:cad>50</ns3:cad>
          </ns3:TrackPointExtension>
        </extensions>
      </trkpt>
      <trkpt lat="43.46226878464221954345703125" lon="1.46970829926431179046630859375">
        <ele>271.79998779296875</ele>
        <time>2026-08-05T07:44:03.000Z</time>
        <extensions>
          <ns3:TrackPointExtension>
            <ns3:hr>76</ns3:hr>
            <ns3:cad>50</ns3:cad>
          </ns3:TrackPointExtension>
        </extensions>
      </trkpt>
      <trkpt lat="43.46228127367794513702392578125" lon="1.46970880217850208282470703125">
        <ele>271.600006103515625</ele>
        <time>2026-08-05T07:44:04.000Z</time>
        <extensions>
          <ns3:TrackPointExtension>
            <ns3:hr>75</ns3:hr>
            <ns3:cad>50</ns3:cad>
          </ns3:TrackPointExtension>
        </extensions>
      </trkpt>
      <trkpt lat="43.46229233779013156890869140625" lon="1.46971014328300952911376953125">
        <ele>271.399993896484375</ele>
        <time>2026-08-05T07:44:05.000Z</time>
        <extensions>
          <ns3:TrackPointExtension>
            <ns3:hr>75</ns3:hr>
            <ns3:cad>50</ns3:cad>
          </ns3:TrackPointExtension>
        </extensions>
      </trkpt>
      <trkpt lat="43.46230021677911281585693359375" lon="1.46971232257783412933349609375">
        <ele>271.20001220703125</ele>
        <time>2026-08-05T07:44:06.000Z</time>
        <extensions>
          <ns3:TrackPointExtension>
            <ns3:hr>75</ns3:hr>
            <ns3:cad>50</ns3:cad>
          </ns3:TrackPointExtension>
        </extensions>
      </trkpt>
      <trkpt lat="43.46230977214872837066650390625" lon="1.46971534006297588348388671875">
        <ele>271.20001220703125</ele>
        <time>2026-08-05T07:44:07.000Z</time>
        <extensions>
          <ns3:TrackPointExtension>
            <ns3:hr>75</ns3:hr>
            <ns3:cad>49</ns3:cad>
          </ns3:TrackPointExtension>
        </extensions>
      </trkpt>
      <trkpt lat="43.46231899224221706390380859375" lon="1.469715423882007598876953125">
        <ele>271.20001220703125</ele>
        <time>2026-08-05T07:44:08.000Z</time>
        <extensions>
          <ns3:TrackPointExtension>
            <ns3:hr>75</ns3:hr>
            <ns3:cad>49</ns3:cad>
          </ns3:TrackPointExtension>
        </extensions>
      </trkpt>
      <trkpt lat="43.46233047544956207275390625" lon="1.46971642971038818359375">
        <ele>271.20001220703125</ele>
        <time>2026-08-05T07:44:09.000Z</time>
        <extensions>
          <ns3:TrackPointExtension>
            <ns3:hr>75</ns3:hr>
            <ns3:cad>49</ns3:cad>
          </ns3:TrackPointExtension>
        </extensions>
      </trkpt>
      <trkpt lat="43.46233994700014591217041015625" lon="1.46971668116748332977294921875">
        <ele>271</ele>
        <time>2026-08-05T07:44:10.000Z</time>
        <extensions>
          <ns3:TrackPointExtension>
            <ns3:hr>74</ns3:hr>
            <ns3:cad>49</ns3:cad>
          </ns3:TrackPointExtension>
        </extensions>
      </trkpt>
      <trkpt lat="43.4623497538268566131591796875" lon="1.469718106091022491455078125">
        <ele>271</ele>
        <time>2026-08-05T07:44:11.000Z</time>
        <extensions>
          <ns3:TrackPointExtension>
            <ns3:hr>75</ns3:hr>
            <ns3:cad>49</ns3:cad>
          </ns3:TrackPointExtension>
        </extensions>
      </trkpt>
      <trkpt lat="43.462359644472599029541015625" lon="1.46971936337649822235107421875">
        <ele>270.79998779296875</ele>
        <time>2026-08-05T07:44:12.000Z</time>
        <extensions>
          <ns3:TrackPointExtension>
            <ns3:hr>75</ns3:hr>
            <ns3:cad>49</ns3:cad>
          </ns3:TrackPointExtension>
        </extensions>
      </trkpt>
      <trkpt lat="43.46236936748027801513671875" lon="1.4697216264903545379638671875">
        <ele>270.600006103515625</ele>
        <time>2026-08-05T07:44:13.000Z</time>
        <extensions>
          <ns3:TrackPointExtension>
            <ns3:hr>74</ns3:hr>
            <ns3:cad>49</ns3:cad>
          </ns3:TrackPointExtension>
        </extensions>
      </trkpt>
      <trkpt lat="43.46237984485924243927001953125" lon="1.469722799956798553466796875">
        <ele>270.399993896484375</ele>
        <time>2026-08-05T07:44:14.000Z</time>
        <extensions>
          <ns3:TrackPointExtension>
            <ns3:hr>75</ns3:hr>
            <ns3:cad>49</ns3:cad>
          </ns3:TrackPointExtension>
        </extensions>
      </trkpt>
      <trkpt lat="43.46239157952368259429931640625" lon="1.46972338669002056121826171875">
        <ele>270.399993896484375</ele>
        <time>2026-08-05T07:44:15.000Z</time>
        <extensions>
          <ns3:TrackPointExtension>
            <ns3:hr>74</ns3:hr>
            <ns3:cad>50</ns3:cad>
          </ns3:TrackPointExtension>
        </extensions>
      </trkpt>
      <trkpt lat="43.46240214072167873382568359375" lon="1.46972405724227428436279296875">
        <ele>270.20001220703125</ele>
        <time>2026-08-05T07:44:16.000Z</time>
        <extensions>
          <ns3:TrackPointExtension>
            <ns3:hr>74</ns3:hr>
            <ns3:cad>50</ns3:cad>
          </ns3:TrackPointExtension>
        </extensions>
      </trkpt>
      <trkpt lat="43.46241219900548458099365234375" lon="1.4697253145277500152587890625">
        <ele>270.20001220703125</ele>
        <time>2026-08-05T07:44:17.000Z</time>
        <extensions>
          <ns3:TrackPointExtension>
            <ns3:hr>74</ns3:hr>
            <ns3:cad>50</ns3:cad>
          </ns3:TrackPointExtension>
        </extensions>
      </trkpt>
      <trkpt lat="43.46242091618478298187255859375" lon="1.4697269909083843231201171875">
        <ele>270</ele>
        <time>2026-08-05T07:44:18.000Z</time>
        <extensions>
          <ns3:TrackPointExtension>
            <ns3:hr>73</ns3:hr>
            <ns3:cad>49</ns3:cad>
          </ns3:TrackPointExtension>
        </extensions>
      </trkpt>
      <trkpt lat="43.46243013627827167510986328125" lon="1.46972875110805034637451171875">
        <ele>270</ele>
        <time>2026-08-05T07:44:19.000Z</time>
        <extensions>
          <ns3:TrackPointExtension>
            <ns3:hr>73</ns3:hr>
            <ns3:cad>49</ns3:cad>
          </ns3:TrackPointExtension>
        </extensions>
      </trkpt>
      <trkpt lat="43.4624397754669189453125" lon="1.469730846583843231201171875">
        <ele>269.79998779296875</ele>
        <time>2026-08-05T07:44:20.000Z</time>
        <extensions>
          <ns3:TrackPointExtension>
            <ns3:hr>73</ns3:hr>
            <ns3:cad>49</ns3:cad>
          </ns3:TrackPointExtension>
        </extensions>
      </trkpt>
      <trkpt lat="43.4624500013887882232666015625" lon="1.46973294205963611602783203125">
        <ele>269.600006103515625</ele>
        <time>2026-08-05T07:44:21.000Z</time>
        <extensions>
          <ns3:TrackPointExtension>
            <ns3:hr>72</ns3:hr>
            <ns3:cad>50</ns3:cad>
          </ns3:TrackPointExtension>
        </extensions>
      </trkpt>
      <trkpt lat="43.462460227310657501220703125" lon="1.4697343669831752777099609375">
        <ele>269.399993896484375</ele>
        <time>2026-08-05T07:44:22.000Z</time>
        <extensions>
          <ns3:TrackPointExtension>
            <ns3:hr>72</ns3:hr>
            <ns3:cad>51</ns3:cad>
          </ns3:TrackPointExtension>
        </extensions>
      </trkpt>
      <trkpt lat="43.4624701179563999176025390625" lon="1.46973679773509502410888671875">
        <ele>269.20001220703125</ele>
        <time>2026-08-05T07:44:23.000Z</time>
        <extensions>
          <ns3:TrackPointExtension>
            <ns3:hr>72</ns3:hr>
            <ns3:cad>50</ns3:cad>
          </ns3:TrackPointExtension>
        </extensions>
      </trkpt>
      <trkpt lat="43.4624788351356983184814453125" lon="1.4697400666773319244384765625">
        <ele>269.20001220703125</ele>
        <time>2026-08-05T07:44:24.000Z</time>
        <extensions>
          <ns3:TrackPointExtension>
            <ns3:hr>71</ns3:hr>
            <ns3:cad>50</ns3:cad>
          </ns3:TrackPointExtension>
        </extensions>
      </trkpt>
      <trkpt lat="43.4624882228672504425048828125" lon="1.4697404019534587860107421875">
        <ele>269</ele>
        <time>2026-08-05T07:44:25.000Z</time>
        <extensions>
          <ns3:TrackPointExtension>
            <ns3:hr>71</ns3:hr>
            <ns3:cad>50</ns3:cad>
          </ns3:TrackPointExtension>
        </extensions>
      </trkpt>
      <trkpt lat="43.46250121481716632843017578125" lon="1.46974015049636363983154296875">
        <ele>269</ele>
        <time>2026-08-05T07:44:26.000Z</time>
        <extensions>
          <ns3:TrackPointExtension>
            <ns3:hr>71</ns3:hr>
            <ns3:cad>49</ns3:cad>
          </ns3:TrackPointExtension>
        </extensions>
      </trkpt>
      <trkpt lat="43.4625140391290187835693359375" lon="1.46974383853375911712646484375">
        <ele>269</ele>
        <time>2026-08-05T07:44:27.000Z</time>
        <extensions>
          <ns3:TrackPointExtension>
            <ns3:hr>71</ns3:hr>
            <ns3:cad>49</ns3:cad>
          </ns3:TrackPointExtension>
        </extensions>
      </trkpt>
      <trkpt lat="43.46252468414604663848876953125" lon="1.46974618546664714813232421875">
        <ele>269</ele>
        <time>2026-08-05T07:44:28.000Z</time>
        <extensions>
          <ns3:TrackPointExtension>
            <ns3:hr>70</ns3:hr>
            <ns3:cad>49</ns3:cad>
          </ns3:TrackPointExtension>
        </extensions>
      </trkpt>
      <trkpt lat="43.4625341556966304779052734375" lon="1.4697494544088840484619140625">
        <ele>268.79998779296875</ele>
        <time>2026-08-05T07:44:29.000Z</time>
        <extensions>
          <ns3:TrackPointExtension>
            <ns3:hr>71</ns3:hr>
            <ns3:cad>49</ns3:cad>
          </ns3:TrackPointExtension>
        </extensions>
      </trkpt>
      <trkpt lat="43.46254236996173858642578125" lon="1.46975331008434295654296875">
        <ele>268.79998779296875</ele>
        <time>2026-08-05T07:44:30.000Z</time>
        <extensions>
          <ns3:TrackPointExtension>
            <ns3:hr>71</ns3:hr>
            <ns3:cad>49</ns3:cad>
          </ns3:TrackPointExtension>
        </extensions>
      </trkpt>
      <trkpt lat="43.4625509195029735565185546875" lon="1.46975473500788211822509765625">
        <ele>268.600006103515625</ele>
        <time>2026-08-05T07:44:31.000Z</time>
        <extensions>
          <ns3:TrackPointExtension>
            <ns3:hr>71</ns3:hr>
            <ns3:cad>49</ns3:cad>
          </ns3:TrackPointExtension>
        </extensions>
      </trkpt>
      <trkpt lat="43.4625606425106525421142578125" lon="1.46975473500788211822509765625">
        <ele>268.399993896484375</ele>
        <time>2026-08-05T07:44:32.000Z</time>
        <extensions>
          <ns3:TrackPointExtension>
            <ns3:hr>71</ns3:hr>
            <ns3:cad>49</ns3:cad>
          </ns3:TrackPointExtension>
        </extensions>
      </trkpt>
      <trkpt lat="43.4625703655183315277099609375" lon="1.46975540556013584136962890625">
        <ele>268.20001220703125</ele>
        <time>2026-08-05T07:44:33.000Z</time>
        <extensions>
          <ns3:TrackPointExtension>
            <ns3:hr>72</ns3:hr>
            <ns3:cad>49</ns3:cad>
          </ns3:TrackPointExtension>
        </extensions>
      </trkpt>
      <trkpt lat="43.46258101053535938262939453125" lon="1.4697553217411041259765625">
        <ele>268</ele>
        <time>2026-08-05T07:44:34.000Z</time>
        <extensions>
          <ns3:TrackPointExtension>
            <ns3:hr>71</ns3:hr>
            <ns3:cad>49</ns3:cad>
          </ns3:TrackPointExtension>
        </extensions>
      </trkpt>
      <trkpt lat="43.46259140409529209136962890625" lon="1.4697585068643093109130859375">
        <ele>267.79998779296875</ele>
        <time>2026-08-05T07:44:35.000Z</time>
        <extensions>
          <ns3:TrackPointExtension>
            <ns3:hr>72</ns3:hr>
            <ns3:cad>49</ns3:cad>
          </ns3:TrackPointExtension>
        </extensions>
      </trkpt>
      <trkpt lat="43.46260313875973224639892578125" lon="1.46975993178784847259521484375">
        <ele>267.79998779296875</ele>
        <time>2026-08-05T07:44:36.000Z</time>
        <extensions>
          <ns3:TrackPointExtension>
            <ns3:hr>72</ns3:hr>
            <ns3:cad>49</ns3:cad>
          </ns3:TrackPointExtension>
        </extensions>
      </trkpt>
      <trkpt lat="43.462615795433521270751953125" lon="1.4697611890733242034912109375">
        <ele>267.79998779296875</ele>
        <time>2026-08-05T07:44:37.000Z</time>
        <extensions>
          <ns3:TrackPointExtension>
            <ns3:hr>72</ns3:hr>
            <ns3:cad>49</ns3:cad>
          </ns3:TrackPointExtension>
        </extensions>
      </trkpt>
      <trkpt lat="43.46262677572667598724365234375" lon="1.4697633683681488037109375">
        <ele>268</ele>
        <time>2026-08-05T07:44:38.000Z</time>
        <extensions>
          <ns3:TrackPointExtension>
            <ns3:hr>72</ns3:hr>
            <ns3:cad>49</ns3:cad>
          </ns3:TrackPointExtension>
        </extensions>
      </trkpt>
      <trkpt lat="43.462637253105640411376953125" lon="1.46976479329168796539306640625">
        <ele>268</ele>
        <time>2026-08-05T07:44:39.000Z</time>
        <extensions>
          <ns3:TrackPointExtension>
            <ns3:hr>72</ns3:hr>
            <ns3:cad>49</ns3:cad>
          </ns3:TrackPointExtension>
        </extensions>
      </trkpt>
      <trkpt lat="43.46264689229428768157958984375" lon="1.4697652123868465423583984375">
        <ele>268</ele>
        <time>2026-08-05T07:44:40.000Z</time>
        <extensions>
          <ns3:TrackPointExtension>
            <ns3:hr>73</ns3:hr>
            <ns3:cad>49</ns3:cad>
          </ns3:TrackPointExtension>
        </extensions>
      </trkpt>
      <trkpt lat="43.46265577711164951324462890625" lon="1.46976881660521030426025390625">
        <ele>268</ele>
        <time>2026-08-05T07:44:41.000Z</time>
        <extensions>
          <ns3:TrackPointExtension>
            <ns3:hr>73</ns3:hr>
            <ns3:cad>50</ns3:cad>
          </ns3:TrackPointExtension>
        </extensions>
      </trkpt>
      <trkpt lat="43.46266633830964565277099609375" lon="1.4697714149951934814453125">
        <ele>267.79998779296875</ele>
        <time>2026-08-05T07:44:42.000Z</time>
        <extensions>
          <ns3:TrackPointExtension>
            <ns3:hr>72</ns3:hr>
            <ns3:cad>50</ns3:cad>
          </ns3:TrackPointExtension>
        </extensions>
      </trkpt>
      <trkpt lat="43.46267757005989551544189453125" lon="1.46977283991873264312744140625">
        <ele>267.79998779296875</ele>
        <time>2026-08-05T07:44:43.000Z</time>
        <extensions>
          <ns3:TrackPointExtension>
            <ns3:hr>72</ns3:hr>
            <ns3:cad>49</ns3:cad>
          </ns3:TrackPointExtension>
        </extensions>
      </trkpt>
      <trkpt lat="43.4626883827149868011474609375" lon="1.46977200172841548919677734375">
        <ele>267.600006103515625</ele>
        <time>2026-08-05T07:44:44.000Z</time>
        <extensions>
          <ns3:TrackPointExtension>
            <ns3:hr>72</ns3:hr>
            <ns3:cad>49</ns3:cad>
          </ns3:TrackPointExtension>
        </extensions>
      </trkpt>
      <trkpt lat="43.46269735135138034820556640625" lon="1.46977166645228862762451171875">
        <ele>267.600006103515625</ele>
        <time>2026-08-05T07:44:45.000Z</time>
        <extensions>
          <ns3:TrackPointExtension>
            <ns3:hr>72</ns3:hr>
            <ns3:cad>49</ns3:cad>
          </ns3:TrackPointExtension>
        </extensions>
      </trkpt>
      <trkpt lat="43.462706990540027618408203125" lon="1.4697752706706523895263671875">
        <ele>267.399993896484375</ele>
        <time>2026-08-05T07:44:46.000Z</time>
        <extensions>
          <ns3:TrackPointExtension>
            <ns3:hr>72</ns3:hr>
            <ns3:cad>49</ns3:cad>
          </ns3:TrackPointExtension>
        </extensions>
      </trkpt>
      <trkpt lat="43.46271679736673831939697265625" lon="1.4697802998125553131103515625">
        <ele>267.20001220703125</ele>
        <time>2026-08-05T07:44:47.000Z</time>
        <extensions>
          <ns3:TrackPointExtension>
            <ns3:hr>72</ns3:hr>
            <ns3:cad>49</ns3:cad>
          </ns3:TrackPointExtension>
        </extensions>
      </trkpt>
      <trkpt lat="43.4627276100218296051025390625" lon="1.46978206001222133636474609375">
        <ele>267.20001220703125</ele>
        <time>2026-08-05T07:44:48.000Z</time>
        <extensions>
          <ns3:TrackPointExtension>
            <ns3:hr>72</ns3:hr>
            <ns3:cad>49</ns3:cad>
          </ns3:TrackPointExtension>
        </extensions>
      </trkpt>
      <trkpt lat="43.46273775212466716766357421875" lon="1.46978239528834819793701171875">
        <ele>267</ele>
        <time>2026-08-05T07:44:49.000Z</time>
        <extensions>
          <ns3:TrackPointExtension>
            <ns3:hr>72</ns3:hr>
            <ns3:cad>49</ns3:cad>
          </ns3:TrackPointExtension>
        </extensions>
      </trkpt>
      <trkpt lat="43.462749235332012176513671875" lon="1.4697816409170627593994140625">
        <ele>267</ele>
        <time>2026-08-05T07:44:50.000Z</time>
        <extensions>
          <ns3:TrackPointExtension>
            <ns3:hr>72</ns3:hr>
            <ns3:cad>49</ns3:cad>
          </ns3:TrackPointExtension>
        </extensions>
      </trkpt>
      <trkpt lat="43.46275988034904003143310546875" lon="1.469781808555126190185546875">
        <ele>267</ele>
        <time>2026-08-05T07:44:51.000Z</time>
        <extensions>
          <ns3:TrackPointExtension>
            <ns3:hr>72</ns3:hr>
            <ns3:cad>49</ns3:cad>
          </ns3:TrackPointExtension>
        </extensions>
      </trkpt>
      <trkpt lat="43.462769687175750732421875" lon="1.46978373639285564422607421875">
        <ele>267</ele>
        <time>2026-08-05T07:44:52.000Z</time>
        <extensions>
          <ns3:TrackPointExtension>
            <ns3:hr>72</ns3:hr>
            <ns3:cad>49</ns3:cad>
          </ns3:TrackPointExtension>
        </extensions>
      </trkpt>
      <trkpt lat="43.46277974545955657958984375" lon="1.46978558041155338287353515625">
        <ele>267</ele>
        <time>2026-08-05T07:44:53.000Z</time>
        <extensions>
          <ns3:TrackPointExtension>
            <ns3:hr>71</ns3:hr>
            <ns3:cad>49</ns3:cad>
          </ns3:TrackPointExtension>
        </extensions>
      </trkpt>
      <trkpt lat="43.46278955228626728057861328125" lon="1.46978440694510936737060546875">
        <ele>266.79998779296875</ele>
        <time>2026-08-05T07:44:54.000Z</time>
        <extensions>
          <ns3:TrackPointExtension>
            <ns3:hr>72</ns3:hr>
            <ns3:cad>49</ns3:cad>
          </ns3:TrackPointExtension>
        </extensions>
      </trkpt>
      <trkpt lat="43.46280078403651714324951171875" lon="1.46978356875479221343994140625">
        <ele>266.600006103515625</ele>
        <time>2026-08-05T07:44:55.000Z</time>
        <extensions>
          <ns3:TrackPointExtension>
            <ns3:hr>72</ns3:hr>
            <ns3:cad>49</ns3:cad>
          </ns3:TrackPointExtension>
        </extensions>
      </trkpt>
      <trkpt lat="43.4628090821206569671630859375" lon="1.469781808555126190185546875">
        <ele>266.600006103515625</ele>
        <time>2026-08-05T07:44:56.000Z</time>
        <extensions>
          <ns3:TrackPointExtension>
            <ns3:hr>73</ns3:hr>
            <ns3:cad>50</ns3:cad>
          </ns3:TrackPointExtension>
        </extensions>
      </trkpt>
      <trkpt lat="43.462819643318653106689453125" lon="1.4697792939841747283935546875">
        <ele>266.399993896484375</ele>
        <time>2026-08-05T07:44:57.000Z</time>
        <extensions>
          <ns3:TrackPointExtension>
            <ns3:hr>73</ns3:hr>
            <ns3:cad>50</ns3:cad>
          </ns3:TrackPointExtension>
        </extensions>
      </trkpt>
      <trkpt lat="43.46283095888793468475341796875" lon="1.4697772823274135589599609375">
        <ele>266.399993896484375</ele>
        <time>2026-08-05T07:44:58.000Z</time>
        <extensions>
          <ns3:TrackPointExtension>
            <ns3:hr>74</ns3:hr>
            <ns3:cad>50</ns3:cad>
          </ns3:TrackPointExtension>
        </extensions>
      </trkpt>
      <trkpt lat="43.46283816732466220855712890625" lon="1.4697766117751598358154296875">
        <ele>266.399993896484375</ele>
        <time>2026-08-05T07:44:59.000Z</time>
        <extensions>
          <ns3:TrackPointExtension>
            <ns3:hr>74</ns3:hr>
            <ns3:cad>50</ns3:cad>
          </ns3:TrackPointExtension>
        </extensions>
      </trkpt>
      <trkpt lat="43.46284738741815090179443359375" lon="1.4697729237377643585205078125">
        <ele>266.399993896484375</ele>
        <time>2026-08-05T07:45:00.000Z</time>
        <extensions>
          <ns3:TrackPointExtension>
            <ns3:hr>74</ns3:hr>
            <ns3:cad>49</ns3:cad>
          </ns3:TrackPointExtension>
        </extensions>
      </trkpt>
      <trkpt lat="43.4628536738455295562744140625" lon="1.46977049298584461212158203125">
        <ele>266.600006103515625</ele>
        <time>2026-08-05T07:45:01.000Z</time>
        <extensions>
          <ns3:TrackPointExtension>
            <ns3:hr>74</ns3:hr>
            <ns3:cad>48</ns3:cad>
          </ns3:TrackPointExtension>
        </extensions>
      </trkpt>
      <trkpt lat="43.46285576932132244110107421875" lon="1.469768397510051727294921875">
        <ele>266.600006103515625</ele>
        <time>2026-08-05T07:45:02.000Z</time>
        <extensions>
          <ns3:TrackPointExtension>
            <ns3:hr>74</ns3:hr>
            <ns3:cad>48</ns3:cad>
          </ns3:TrackPointExtension>
        </extensions>
      </trkpt>
      <trkpt lat="43.46285752952098846435546875" lon="1.46976714022457599639892578125">
        <ele>266.600006103515625</ele>
        <time>2026-08-05T07:45:03.000Z</time>
        <extensions>
          <ns3:TrackPointExtension>
            <ns3:hr>73</ns3:hr>
            <ns3:cad>0</ns3:cad>
          </ns3:TrackPointExtension>
        </extensions>
      </trkpt>
      <trkpt lat="43.4628597088158130645751953125" lon="1.46976328454911708831787109375">
        <ele>266.600006103515625</ele>
        <time>2026-08-05T07:45:04.000Z</time>
        <extensions>
          <ns3:TrackPointExtension>
            <ns3:hr>74</ns3:hr>
            <ns3:cad>0</ns3:cad>
          </ns3:TrackPointExtension>
        </extensions>
      </trkpt>
      <trkpt lat="43.46285845153033733367919921875" lon="1.4697621949017047882080078125">
        <ele>266.600006103515625</ele>
        <time>2026-08-05T07:45:05.000Z</time>
        <extensions>
          <ns3:TrackPointExtension>
            <ns3:hr>74</ns3:hr>
            <ns3:cad>0</ns3:cad>
          </ns3:TrackPointExtension>
        </extensions>
      </trkpt>
      <trkpt lat="43.46285979263484477996826171875" lon="1.46975724957883358001708984375">
        <ele>266.600006103515625</ele>
        <time>2026-08-05T07:45:06.000Z</time>
        <extensions>
          <ns3:TrackPointExtension>
            <ns3:hr>73</ns3:hr>
            <ns3:cad>0</ns3:cad>
          </ns3:TrackPointExtension>
        </extensions>
      </trkpt>
      <trkpt lat="43.4628600440919399261474609375" lon="1.4697568304836750030517578125">
        <ele>266.79998779296875</ele>
        <time>2026-08-05T07:45:07.000Z</time>
        <extensions>
          <ns3:TrackPointExtension>
            <ns3:hr>74</ns3:hr>
            <ns3:cad>0</ns3:cad>
          </ns3:TrackPointExtension>
        </extensions>
      </trkpt>
      <trkpt lat="43.4628613851964473724365234375" lon="1.46976043470203876495361328125">
        <ele>266.79998779296875</ele>
        <time>2026-08-05T07:45:08.000Z</time>
        <extensions>
          <ns3:TrackPointExtension>
            <ns3:hr>74</ns3:hr>
            <ns3:cad>0</ns3:cad>
          </ns3:TrackPointExtension>
        </extensions>
      </trkpt>
      <trkpt lat="43.46286297775804996490478515625" lon="1.4697611890733242034912109375">
        <ele>266.79998779296875</ele>
        <time>2026-08-05T07:45:09.000Z</time>
        <extensions>
          <ns3:TrackPointExtension>
            <ns3:hr>73</ns3:hr>
            <ns3:cad>0</ns3:cad>
          </ns3:TrackPointExtension>
        </extensions>
      </trkpt>
      <trkpt lat="43.46286465413868427276611328125" lon="1.46976412273943424224853515625">
        <ele>266.79998779296875</ele>
        <time>2026-08-05T07:45:10.000Z</time>
        <extensions>
          <ns3:TrackPointExtension>
            <ns3:hr>74</ns3:hr>
            <ns3:cad>0</ns3:cad>
          </ns3:TrackPointExtension>
        </extensions>
      </trkpt>
      <trkpt lat="43.46286515705287456512451171875" lon="1.46976462565362453460693359375">
        <ele>266.600006103515625</ele>
        <time>2026-08-05T07:45:11.000Z</time>
        <extensions>
          <ns3:TrackPointExtension>
            <ns3:hr>74</ns3:hr>
            <ns3:cad>0</ns3:cad>
          </ns3:TrackPointExtension>
        </extensions>
      </trkpt>
      <trkpt lat="43.46286633051931858062744140625" lon="1.4697699062526226043701171875">
        <ele>266.600006103515625</ele>
        <time>2026-08-05T07:45:12.000Z</time>
        <extensions>
          <ns3:TrackPointExtension>
            <ns3:hr>73</ns3:hr>
            <ns3:cad>0</ns3:cad>
          </ns3:TrackPointExtension>
        </extensions>
      </trkpt>
      <trkpt lat="43.46286633051931858062744140625" lon="1.4697699062526226043701171875">
        <ele>266.600006103515625</ele>
        <time>2026-08-05T07:45:13.000Z</time>
        <extensions>
          <ns3:TrackPointExtension>
            <ns3:hr>74</ns3:hr>
            <ns3:cad>0</ns3:cad>
          </ns3:TrackPointExtension>
        </extensions>
      </trkpt>
      <trkpt lat="43.46286633051931858062744140625" lon="1.4697699062526226043701171875">
        <ele>266.600006103515625</ele>
        <time>2026-08-05T07:45:14.000Z</time>
        <extensions>
          <ns3:TrackPointExtension>
            <ns3:hr>74</ns3:hr>
            <ns3:cad>0</ns3:cad>
          </ns3:TrackPointExtension>
        </extensions>
      </trkpt>
      <trkpt lat="43.46286633051931858062744140625" lon="1.4697699062526226043701171875">
        <ele>266.600006103515625</ele>
        <time>2026-08-05T07:45:15.000Z</time>
        <extensions>
          <ns3:TrackPointExtension>
            <ns3:hr>73</ns3:hr>
            <ns3:cad>0</ns3:cad>
          </ns3:TrackPointExtension>
        </extensions>
      </trkpt>
      <trkpt lat="43.46286633051931858062744140625" lon="1.4697699062526226043701171875">
        <ele>266.600006103515625</ele>
        <time>2026-08-05T07:45:16.000Z</time>
        <extensions>
          <ns3:TrackPointExtension>
            <ns3:hr>73</ns3:hr>
            <ns3:cad>0</ns3:cad>
          </ns3:TrackPointExtension>
        </extensions>
      </trkpt>
      <trkpt lat="43.46286633051931858062744140625" lon="1.4697699062526226043701171875">
        <ele>266.600006103515625</ele>
        <time>2026-08-05T07:45:17.000Z</time>
        <extensions>
          <ns3:TrackPointExtension>
            <ns3:hr>72</ns3:hr>
            <ns3:cad>0</ns3:cad>
          </ns3:TrackPointExtension>
        </extensions>
      </trkpt>
      <trkpt lat="43.46286633051931858062744140625" lon="1.4697699062526226043701171875">
        <ele>266.399993896484375</ele>
        <time>2026-08-05T07:45:18.000Z</time>
        <extensions>
          <ns3:TrackPointExtension>
            <ns3:hr>72</ns3:hr>
            <ns3:cad>0</ns3:cad>
          </ns3:TrackPointExtension>
        </extensions>
      </trkpt>
      <trkpt lat="43.46286649815738201141357421875" lon="1.46976965479552745819091796875">
        <ele>266.399993896484375</ele>
        <time>2026-08-05T07:45:19.000Z</time>
        <extensions>
          <ns3:TrackPointExtension>
            <ns3:hr>72</ns3:hr>
            <ns3:cad>0</ns3:cad>
          </ns3:TrackPointExtension>
        </extensions>
      </trkpt>
      <trkpt lat="43.46286691725254058837890625" lon="1.46976982243359088897705078125">
        <ele>266.399993896484375</ele>
        <time>2026-08-05T07:45:20.000Z</time>
        <extensions>
          <ns3:TrackPointExtension>
            <ns3:hr>72</ns3:hr>
            <ns3:cad>0</ns3:cad>
          </ns3:TrackPointExtension>
        </extensions>
      </trkpt>
      <trkpt lat="43.46286716870963573455810546875" lon="1.46976940333843231201171875">
        <ele>266.399993896484375</ele>
        <time>2026-08-05T07:45:21.000Z</time>
        <extensions>
          <ns3:TrackPointExtension>
            <ns3:hr>72</ns3:hr>
            <ns3:cad>0</ns3:cad>
          </ns3:TrackPointExtension>
        </extensions>
      </trkpt>
      <trkpt lat="43.4628677554428577423095703125" lon="1.469769738614559173583984375">
        <ele>266.399993896484375</ele>
        <time>2026-08-05T07:45:22.000Z</time>
        <extensions>
          <ns3:TrackPointExtension>
            <ns3:hr>73</ns3:hr>
            <ns3:cad>0</ns3:cad>
          </ns3:TrackPointExtension>
        </extensions>
      </trkpt>
      <trkpt lat="43.46286683343350887298583984375" lon="1.46976714022457599639892578125">
        <ele>266.399993896484375</ele>
        <time>2026-08-05T07:45:23.000Z</time>
        <extensions>
          <ns3:TrackPointExtension>
            <ns3:hr>73</ns3:hr>
            <ns3:cad>0</ns3:cad>
          </ns3:TrackPointExtension>
        </extensions>
      </trkpt>
      <trkpt lat="43.46286633051931858062744140625" lon="1.4697699062526226043701171875">
        <ele>266.600006103515625</ele>
        <time>2026-08-05T07:45:24.000Z</time>
        <extensions>
          <ns3:TrackPointExtension>
            <ns3:hr>73</ns3:hr>
            <ns3:cad>0</ns3:cad>
          </ns3:TrackPointExtension>
        </extensions>
      </trkpt>
      <trkpt lat="43.46286633051931858062744140625" lon="1.4697699062526226043701171875">
        <ele>266.600006103515625</ele>
        <time>2026-08-05T07:45:25.000Z</time>
        <extensions>
          <ns3:TrackPointExtension>
            <ns3:hr>73</ns3:hr>
            <ns3:cad>0</ns3:cad>
          </ns3:TrackPointExtension>
        </extensions>
      </trkpt>
      <trkpt lat="43.46286633051931858062744140625" lon="1.4697699062526226043701171875">
        <ele>266.600006103515625</ele>
        <time>2026-08-05T07:45:26.000Z</time>
        <extensions>
          <ns3:TrackPointExtension>
            <ns3:hr>74</ns3:hr>
            <ns3:cad>0</ns3:cad>
          </ns3:TrackPointExtension>
        </extensions>
      </trkpt>
      <trkpt lat="43.46286633051931858062744140625" lon="1.4697699062526226043701171875">
        <ele>266.79998779296875</ele>
        <time>2026-08-05T07:45:27.000Z</time>
        <extensions>
          <ns3:TrackPointExtension>
            <ns3:hr>73</ns3:hr>
            <ns3:cad>0</ns3:cad>
          </ns3:TrackPointExtension>
        </extensions>
      </trkpt>
      <trkpt lat="43.46286633051931858062744140625" lon="1.4697699062526226043701171875">
        <ele>266.79998779296875</ele>
        <time>2026-08-05T07:45:28.000Z</time>
        <extensions>
          <ns3:TrackPointExtension>
            <ns3:hr>74</ns3:hr>
            <ns3:cad>0</ns3:cad>
          </ns3:TrackPointExtension>
        </extensions>
      </trkpt>
      <trkpt lat="43.46286633051931858062744140625" lon="1.4697699062526226043701171875">
        <ele>267</ele>
        <time>2026-08-05T07:45:29.000Z</time>
        <extensions>
          <ns3:TrackPointExtension>
            <ns3:hr>73</ns3:hr>
            <ns3:cad>0</ns3:cad>
          </ns3:TrackPointExtension>
        </extensions>
      </trkpt>
      <trkpt lat="43.46286633051931858062744140625" lon="1.4697699062526226043701171875">
        <ele>267.20001220703125</ele>
        <time>2026-08-05T07:45:30.000Z</time>
        <extensions>
          <ns3:TrackPointExtension>
            <ns3:hr>74</ns3:hr>
            <ns3:cad>0</ns3:cad>
          </ns3:TrackPointExtension>
        </extensions>
      </trkpt>
      <trkpt lat="43.46286633051931858062744140625" lon="1.4697699062526226043701171875">
        <ele>267.20001220703125</ele>
        <time>2026-08-05T07:45:31.000Z</time>
        <extensions>
          <ns3:TrackPointExtension>
            <ns3:hr>74</ns3:hr>
            <ns3:cad>0</ns3:cad>
          </ns3:TrackPointExtension>
        </extensions>
      </trkpt>
      <trkpt lat="43.46286633051931858062744140625" lon="1.4697699062526226043701171875">
        <ele>267.20001220703125</ele>
        <time>2026-08-05T07:45:32.000Z</time>
        <extensions>
          <ns3:TrackPointExtension>
            <ns3:hr>74</ns3:hr>
            <ns3:cad>0</ns3:cad>
          </ns3:TrackPointExtension>
        </extensions>
      </trkpt>
      <trkpt lat="43.46286633051931858062744140625" lon="1.4697699062526226043701171875">
        <ele>267.20001220703125</ele>
        <time>2026-08-05T07:45:33.000Z</time>
        <extensions>
          <ns3:TrackPointExtension>
            <ns3:hr>74</ns3:hr>
            <ns3:cad>0</ns3:cad>
          </ns3:TrackPointExtension>
        </extensions>
      </trkpt>
      <trkpt lat="43.46286633051931858062744140625" lon="1.4697699062526226043701171875">
        <ele>267.20001220703125</ele>
        <time>2026-08-05T07:45:34.000Z</time>
        <extensions>
          <ns3:TrackPointExtension>
            <ns3:hr>73</ns3:hr>
            <ns3:cad>0</ns3:cad>
          </ns3:TrackPointExtension>
        </extensions>
      </trkpt>
      <trkpt lat="43.46286633051931858062744140625" lon="1.4697699062526226043701171875">
        <ele>267</ele>
        <time>2026-08-05T07:45:35.000Z</time>
        <extensions>
          <ns3:TrackPointExtension>
            <ns3:hr>74</ns3:hr>
            <ns3:cad>0</ns3:cad>
          </ns3:TrackPointExtension>
        </extensions>
      </trkpt>
      <trkpt lat="43.46286633051931858062744140625" lon="1.4697699062526226043701171875">
        <ele>266.79998779296875</ele>
        <time>2026-08-05T07:45:36.000Z</time>
        <extensions>
          <ns3:TrackPointExtension>
            <ns3:hr>73</ns3:hr>
            <ns3:cad>0</ns3:cad>
          </ns3:TrackPointExtension>
        </extensions>
      </trkpt>
      <trkpt lat="43.46286633051931858062744140625" lon="1.4697699062526226043701171875">
        <ele>266.79998779296875</ele>
        <time>2026-08-05T07:45:37.000Z</time>
        <extensions>
          <ns3:TrackPointExtension>
            <ns3:hr>71</ns3:hr>
            <ns3:cad>0</ns3:cad>
          </ns3:TrackPointExtension>
        </extensions>
      </trkpt>
      <trkpt lat="43.46286733634769916534423828125" lon="1.4697685651481151580810546875">
        <ele>266.600006103515625</ele>
        <time>2026-08-05T07:45:38.000Z</time>
        <extensions>
          <ns3:TrackPointExtension>
            <ns3:hr>71</ns3:hr>
            <ns3:cad>0</ns3:cad>
          </ns3:TrackPointExtension>
        </extensions>
      </trkpt>
      <trkpt lat="43.46287689171731472015380859375" lon="1.4697648771107196807861328125">
        <ele>266.600006103515625</ele>
        <time>2026-08-05T07:45:39.000Z</time>
        <extensions>
          <ns3:TrackPointExtension>
            <ns3:hr>70</ns3:hr>
            <ns3:cad>0</ns3:cad>
          </ns3:TrackPointExtension>
        </extensions>
      </trkpt>
      <trkpt lat="43.46288443543016910552978515625" lon="1.46976001560688018798828125">
        <ele>266.399993896484375</ele>
        <time>2026-08-05T07:45:40.000Z</time>
        <extensions>
          <ns3:TrackPointExtension>
            <ns3:hr>70</ns3:hr>
            <ns3:cad>0</ns3:cad>
          </ns3:TrackPointExtension>
        </extensions>
      </trkpt>
      <trkpt lat="43.46289508044719696044921875" lon="1.4697521366178989410400390625">
        <ele>266.20001220703125</ele>
        <time>2026-08-05T07:45:41.000Z</time>
        <extensions>
          <ns3:TrackPointExtension>
            <ns3:hr>70</ns3:hr>
            <ns3:cad>0</ns3:cad>
          </ns3:TrackPointExtension>
        </extensions>
      </trkpt>
      <trkpt lat="43.46290337853133678436279296875" lon="1.4697407372295856475830078125">
        <ele>265.79998779296875</ele>
        <time>2026-08-05T07:45:42.000Z</time>
        <extensions>
          <ns3:TrackPointExtension>
            <ns3:hr>69</ns3:hr>
            <ns3:cad>0</ns3:cad>
          </ns3:TrackPointExtension>
        </extensions>
      </trkpt>
      <trkpt lat="43.46290874294936656951904296875" lon="1.46972640417516231536865234375">
        <ele>265.600006103515625</ele>
        <time>2026-08-05T07:45:43.000Z</time>
        <extensions>
          <ns3:TrackPointExtension>
            <ns3:hr>64</ns3:hr>
            <ns3:cad>0</ns3:cad>
          </ns3:TrackPointExtension>
        </extensions>
      </trkpt>
      <trkpt lat="43.46291511319577693939208984375" lon="1.469718106091022491455078125">
        <ele>265.20001220703125</ele>
        <time>2026-08-05T07:45:44.000Z</time>
        <extensions>
          <ns3:TrackPointExtension>
            <ns3:hr>61</ns3:hr>
            <ns3:cad>0</ns3:cad>
          </ns3:TrackPointExtension>
        </extensions>
      </trkpt>
      <trkpt lat="43.4629207290709018707275390625" lon="1.469707377254962921142578125">
        <ele>265</ele>
        <time>2026-08-05T07:45:45.000Z</time>
        <extensions>
          <ns3:TrackPointExtension>
            <ns3:hr>61</ns3:hr>
            <ns3:cad>0</ns3:cad>
          </ns3:TrackPointExtension>
        </extensions>
      </trkpt>
      <trkpt lat="43.46292885951697826385498046875" lon="1.4696998335421085357666015625">
        <ele>265</ele>
        <time>2026-08-05T07:45:46.000Z</time>
        <extensions>
          <ns3:TrackPointExtension>
            <ns3:hr>60</ns3:hr>
            <ns3:cad>52</ns3:cad>
          </ns3:TrackPointExtension>
        </extensions>
      </trkpt>
      <trkpt lat="43.46293673850595951080322265625" lon="1.46969321183860301971435546875">
        <ele>265</ele>
        <time>2026-08-05T07:45:47.000Z</time>
        <extensions>
          <ns3:TrackPointExtension>
            <ns3:hr>60</ns3:hr>
            <ns3:cad>52</ns3:cad>
          </ns3:TrackPointExtension>
        </extensions>
      </trkpt>
      <trkpt lat="43.4629415161907672882080078125" lon="1.46968550048768520355224609375">
        <ele>265</ele>
        <time>2026-08-05T07:45:48.000Z</time>
        <extensions>
          <ns3:TrackPointExtension>
            <ns3:hr>59</ns3:hr>
            <ns3:cad>51</ns3:cad>
          </ns3:TrackPointExtension>
        </extensions>
      </trkpt>
      <trkpt lat="43.4629462100565433502197265625" lon="1.46967225708067417144775390625">
        <ele>265.20001220703125</ele>
        <time>2026-08-05T07:45:49.000Z</time>
        <extensions>
          <ns3:TrackPointExtension>
            <ns3:hr>59</ns3:hr>
            <ns3:cad>51</ns3:cad>
          </ns3:TrackPointExtension>
        </extensions>
      </trkpt>
      <trkpt lat="43.46295098774135112762451171875" lon="1.4696626178920269012451171875">
        <ele>265.20001220703125</ele>
        <time>2026-08-05T07:45:50.000Z</time>
        <extensions>
          <ns3:TrackPointExtension>
            <ns3:hr>58</ns3:hr>
            <ns3:cad>51</ns3:cad>
          </ns3:TrackPointExtension>
        </extensions>
      </trkpt>
      <trkpt lat="43.4629569388926029205322265625" lon="1.4696533977985382080078125">
        <ele>265</ele>
        <time>2026-08-05T07:45:51.000Z</time>
        <extensions>
          <ns3:TrackPointExtension>
            <ns3:hr>58</ns3:hr>
            <ns3:cad>50</ns3:cad>
          </ns3:TrackPointExtension>
        </extensions>
      </trkpt>
      <trkpt lat="43.46296071074903011322021484375" lon="1.46964375860989093780517578125">
        <ele>264.79998779296875</ele>
        <time>2026-08-05T07:45:52.000Z</time>
        <extensions>
          <ns3:TrackPointExtension>
            <ns3:hr>59</ns3:hr>
            <ns3:cad>49</ns3:cad>
          </ns3:TrackPointExtension>
        </extensions>
      </trkpt>
      <trkpt lat="43.46296657808125019073486328125" lon="1.4696334488689899444580078125">
        <ele>264.600006103515625</ele>
        <time>2026-08-05T07:45:53.000Z</time>
        <extensions>
          <ns3:TrackPointExtension>
            <ns3:hr>59</ns3:hr>
            <ns3:cad>49</ns3:cad>
          </ns3:TrackPointExtension>
        </extensions>
      </trkpt>
      <trkpt lat="43.46297428943216800689697265625" lon="1.46962196566164493560791015625">
        <ele>264.399993896484375</ele>
        <time>2026-08-05T07:45:54.000Z</time>
        <extensions>
          <ns3:TrackPointExtension>
            <ns3:hr>60</ns3:hr>
            <ns3:cad>49</ns3:cad>
          </ns3:TrackPointExtension>
        </extensions>
      </trkpt>
      <trkpt lat="43.4629794023931026458740234375" lon="1.46960771642625331878662109375">
        <ele>264.20001220703125</ele>
        <time>2026-08-05T07:45:55.000Z</time>
        <extensions>
          <ns3:TrackPointExtension>
            <ns3:hr>60</ns3:hr>
            <ns3:cad>48</ns3:cad>
          </ns3:TrackPointExtension>
        </extensions>
      </trkpt>
      <trkpt lat="43.46298552118241786956787109375" lon="1.4695972390472888946533203125">
        <ele>264</ele>
        <time>2026-08-05T07:45:56.000Z</time>
        <extensions>
          <ns3:TrackPointExtension>
            <ns3:hr>61</ns3:hr>
            <ns3:cad>48</ns3:cad>
          </ns3:TrackPointExtension>
        </extensions>
      </trkpt>
      <trkpt lat="43.462991304695606231689453125" lon="1.46958843804895877838134765625">
        <ele>263.79998779296875</ele>
        <time>2026-08-05T07:45:57.000Z</time>
        <extensions>
          <ns3:TrackPointExtension>
            <ns3:hr>62</ns3:hr>
            <ns3:cad>48</ns3:cad>
          </ns3:TrackPointExtension>
        </extensions>
      </trkpt>
      <trkpt lat="43.46299541182816028594970703125" lon="1.46957837976515293121337890625">
        <ele>263.600006103515625</ele>
        <time>2026-08-05T07:45:58.000Z</time>
        <extensions>
          <ns3:TrackPointExtension>
            <ns3:hr>64</ns3:hr>
            <ns3:cad>48</ns3:cad>
          </ns3:TrackPointExtension>
        </extensions>
      </trkpt>
      <trkpt lat="43.46300370991230010986328125" lon="1.46956421434879302978515625">
        <ele>263.399993896484375</ele>
        <time>2026-08-05T07:45:59.000Z</time>
        <extensions>
          <ns3:TrackPointExtension>
            <ns3:hr>67</ns3:hr>
            <ns3:cad>48</ns3:cad>
          </ns3:TrackPointExtension>
        </extensions>
      </trkpt>
      <trkpt lat="43.463010750710964202880859375" lon="1.46955423988401889801025390625">
        <ele>263.399993896484375</ele>
        <time>2026-08-05T07:46:00.000Z</time>
        <extensions>
          <ns3:TrackPointExtension>
            <ns3:hr>71</ns3:hr>
            <ns3:cad>49</ns3:cad>
          </ns3:TrackPointExtension>
        </extensions>
      </trkpt>
      <trkpt lat="43.463016450405120849609375" lon="1.46954267285764217376708984375">
        <ele>263.399993896484375</ele>
        <time>2026-08-05T07:46:01.000Z</time>
        <extensions>
          <ns3:TrackPointExtension>
            <ns3:hr>72</ns3:hr>
            <ns3:cad>50</ns3:cad>
          </ns3:TrackPointExtension>
        </extensions>
      </trkpt>
      <trkpt lat="43.4630246646702289581298828125" lon="1.4695315249264240264892578125">
        <ele>263.20001220703125</ele>
        <time>2026-08-05T07:46:02.000Z</time>
        <extensions>
          <ns3:TrackPointExtension>
            <ns3:hr>74</ns3:hr>
            <ns3:cad>50</ns3:cad>
          </ns3:TrackPointExtension>
        </extensions>
      </trkpt>
      <trkpt lat="43.46303296275436878204345703125" lon="1.4695254899561405181884765625">
        <ele>263.20001220703125</ele>
        <time>2026-08-05T07:46:03.000Z</time>
        <extensions>
          <ns3:TrackPointExtension>
            <ns3:hr>74</ns3:hr>
            <ns3:cad>50</ns3:cad>
          </ns3:TrackPointExtension>
        </extensions>
      </trkpt>
      <trkpt lat="43.463039584457874298095703125" lon="1.46951484493911266326904296875">
        <ele>263</ele>
        <time>2026-08-05T07:46:04.000Z</time>
        <extensions>
          <ns3:TrackPointExtension>
            <ns3:hr>74</ns3:hr>
            <ns3:cad>50</ns3:cad>
          </ns3:TrackPointExtension>
        </extensions>
      </trkpt>
      <trkpt lat="43.4630446135997772216796875" lon="1.469503529369831085205078125">
        <ele>262.79998779296875</ele>
        <time>2026-08-05T07:46:05.000Z</time>
        <extensions>
          <ns3:TrackPointExtension>
            <ns3:hr>74</ns3:hr>
            <ns3:cad>50</ns3:cad>
          </ns3:TrackPointExtension>
        </extensions>
      </trkpt>
      <trkpt lat="43.46304872073233127593994140625" lon="1.46949036978185176849365234375">
        <ele>262.600006103515625</ele>
        <time>2026-08-05T07:46:06.000Z</time>
        <extensions>
          <ns3:TrackPointExtension>
            <ns3:hr>73</ns3:hr>
            <ns3:cad>50</ns3:cad>
          </ns3:TrackPointExtension>
        </extensions>
      </trkpt>
      <trkpt lat="43.4630558453500270843505859375" lon="1.4694785512983798980712890625">
        <ele>262.600006103515625</ele>
        <time>2026-08-05T07:46:07.000Z</time>
        <extensions>
          <ns3:TrackPointExtension>
            <ns3:hr>72</ns3:hr>
            <ns3:cad>50</ns3:cad>
          </ns3:TrackPointExtension>
        </extensions>
      </trkpt>
      <trkpt lat="43.463065735995769500732421875" lon="1.46946807391941547393798828125">
        <ele>262.399993896484375</ele>
        <time>2026-08-05T07:46:08.000Z</time>
        <extensions>
          <ns3:TrackPointExtension>
            <ns3:hr>72</ns3:hr>
            <ns3:cad>50</ns3:cad>
          </ns3:TrackPointExtension>
        </extensions>
      </trkpt>
      <trkpt lat="43.46307001076638698577880859375" lon="1.4694607816636562347412109375">
        <ele>262.20001220703125</ele>
        <time>2026-08-05T07:46:09.000Z</time>
        <extensions>
          <ns3:TrackPointExtension>
            <ns3:hr>71</ns3:hr>
            <ns3:cad>50</ns3:cad>
          </ns3:TrackPointExtension>
        </extensions>
      </trkpt>
      <trkpt lat="43.4630759619176387786865234375" lon="1.46944820880889892578125">
        <ele>262.20001220703125</ele>
        <time>2026-08-05T07:46:10.000Z</time>
        <extensions>
          <ns3:TrackPointExtension>
            <ns3:hr>71</ns3:hr>
            <ns3:cad>50</ns3:cad>
          </ns3:TrackPointExtension>
        </extensions>
      </trkpt>
      <trkpt lat="43.46308157779276371002197265625" lon="1.46943488158285617828369140625">
        <ele>262</ele>
        <time>2026-08-05T07:46:11.000Z</time>
        <extensions>
          <ns3:TrackPointExtension>
            <ns3:hr>71</ns3:hr>
            <ns3:cad>49</ns3:cad>
          </ns3:TrackPointExtension>
        </extensions>
      </trkpt>
      <trkpt lat="43.4630853496491909027099609375" lon="1.46942331455647945404052734375">
        <ele>262</ele>
        <time>2026-08-05T07:46:12.000Z</time>
        <extensions>
          <ns3:TrackPointExtension>
            <ns3:hr>71</ns3:hr>
            <ns3:cad>48</ns3:cad>
          </ns3:TrackPointExtension>
        </extensions>
      </trkpt>
      <trkpt lat="43.46309356391429901123046875" lon="1.46941007114946842193603515625">
        <ele>262</ele>
        <time>2026-08-05T07:46:13.000Z</time>
        <extensions>
          <ns3:TrackPointExtension>
            <ns3:hr>71</ns3:hr>
            <ns3:cad>48</ns3:cad>
          </ns3:TrackPointExtension>
        </extensions>
      </trkpt>
      <trkpt lat="43.46310152672231197357177734375" lon="1.46939833648502826690673828125">
        <ele>261.79998779296875</ele>
        <time>2026-08-05T07:46:14.000Z</time>
        <extensions>
          <ns3:TrackPointExtension>
            <ns3:hr>71</ns3:hr>
            <ns3:cad>49</ns3:cad>
          </ns3:TrackPointExtension>
        </extensions>
      </trkpt>
      <trkpt lat="43.46310772933065891265869140625" lon="1.4693890325725078582763671875">
        <ele>261.79998779296875</ele>
        <time>2026-08-05T07:46:15.000Z</time>
        <extensions>
          <ns3:TrackPointExtension>
            <ns3:hr>71</ns3:hr>
            <ns3:cad>49</ns3:cad>
          </ns3:TrackPointExtension>
        </extensions>
      </trkpt>
      <trkpt lat="43.463113009929656982421875" lon="1.4693796448409557342529296875">
        <ele>261.79998779296875</ele>
        <time>2026-08-05T07:46:16.000Z</time>
        <extensions>
          <ns3:TrackPointExtension>
            <ns3:hr>71</ns3:hr>
            <ns3:cad>49</ns3:cad>
          </ns3:TrackPointExtension>
        </extensions>
      </trkpt>
      <trkpt lat="43.4631182067096233367919921875" lon="1.46937821991741657257080078125">
        <ele>261.600006103515625</ele>
        <time>2026-08-05T07:46:17.000Z</time>
        <extensions>
          <ns3:TrackPointExtension>
            <ns3:hr>72</ns3:hr>
            <ns3:cad>49</ns3:cad>
          </ns3:TrackPointExtension>
        </extensions>
      </trkpt>
      <trkpt lat="43.46311904489994049072265625" lon="1.46937847137451171875">
        <ele>261.600006103515625</ele>
        <time>2026-08-05T07:46:18.000Z</time>
        <extensions>
          <ns3:TrackPointExtension>
            <ns3:hr>72</ns3:hr>
            <ns3:cad>49</ns3:cad>
          </ns3:TrackPointExtension>
        </extensions>
      </trkpt>
      <trkpt lat="43.46311259083449840545654296875" lon="1.46937889046967029571533203125">
        <ele>261.600006103515625</ele>
        <time>2026-08-05T07:46:19.000Z</time>
        <extensions>
          <ns3:TrackPointExtension>
            <ns3:hr>72</ns3:hr>
            <ns3:cad>0</ns3:cad>
          </ns3:TrackPointExtension>
        </extensions>
      </trkpt>
      <trkpt lat="43.46310756169259548187255859375" lon="1.4693856798112392425537109375">
        <ele>261.600006103515625</ele>
        <time>2026-08-05T07:46:20.000Z</time>
        <extensions>
          <ns3:TrackPointExtension>
            <ns3:hr>72</ns3:hr>
            <ns3:cad>0</ns3:cad>
          </ns3:TrackPointExtension>
        </extensions>
      </trkpt>
      <trkpt lat="43.46310295164585113525390625" lon="1.46939045749604701995849609375">
        <ele>261.600006103515625</ele>
        <time>2026-08-05T07:46:21.000Z</time>
        <extensions>
          <ns3:TrackPointExtension>
            <ns3:hr>72</ns3:hr>
            <ns3:cad>0</ns3:cad>
          </ns3:TrackPointExtension>
        </extensions>
      </trkpt>
      <trkpt lat="43.46310119144618511199951171875" lon="1.4693932235240936279296875">
        <ele>261.600006103515625</ele>
        <time>2026-08-05T07:46:22.000Z</time>
        <extensions>
          <ns3:TrackPointExtension>
            <ns3:hr>72</ns3:hr>
            <ns3:cad>0</ns3:cad>
          </ns3:TrackPointExtension>
        </extensions>
      </trkpt>
      <trkpt lat="43.463098593056201934814453125" lon="1.469394229352474212646484375">
        <ele>261.600006103515625</ele>
        <time>2026-08-05T07:46:23.000Z</time>
        <extensions>
          <ns3:TrackPointExtension>
            <ns3:hr>73</ns3:hr>
            <ns3:cad>0</ns3:cad>
          </ns3:TrackPointExtension>
        </extensions>
      </trkpt>
      <trkpt lat="43.46309415064752101898193359375" lon="1.4693997614085674285888671875">
        <ele>261.600006103515625</ele>
        <time>2026-08-05T07:46:24.000Z</time>
        <extensions>
          <ns3:TrackPointExtension>
            <ns3:hr>72</ns3:hr>
            <ns3:cad>0</ns3:cad>
          </ns3:TrackPointExtension>
        </extensions>
      </trkpt>
      <trkpt lat="43.4630902111530303955078125" lon="1.46940621547400951385498046875">
        <ele>261.600006103515625</ele>
        <time>2026-08-05T07:46:25.000Z</time>
        <extensions>
          <ns3:TrackPointExtension>
            <ns3:hr>72</ns3:hr>
            <ns3:cad>0</ns3:cad>
          </ns3:TrackPointExtension>
        </extensions>
      </trkpt>
      <trkpt lat="43.4630900435149669647216796875" lon="1.46941107697784900665283203125">
        <ele>261.600006103515625</ele>
        <time>2026-08-05T07:46:26.000Z</time>
        <extensions>
          <ns3:TrackPointExtension>
            <ns3:hr>73</ns3:hr>
            <ns3:cad>0</ns3:cad>
          </ns3:TrackPointExtension>
        </extensions>
      </trkpt>
      <trkpt lat="43.4630833379924297332763671875" lon="1.46942197345197200775146484375">
        <ele>261.600006103515625</ele>
        <time>2026-08-05T07:46:27.000Z</time>
        <extensions>
          <ns3:TrackPointExtension>
            <ns3:hr>73</ns3:hr>
            <ns3:cad>0</ns3:cad>
          </ns3:TrackPointExtension>
        </extensions>
      </trkpt>
      <trkpt lat="43.46307747066020965576171875" lon="1.46943219937384128570556640625">
        <ele>261.79998779296875</ele>
        <time>2026-08-05T07:46:28.000Z</time>
        <extensions>
          <ns3:TrackPointExtension>
            <ns3:hr>73</ns3:hr>
            <ns3:cad>0</ns3:cad>
          </ns3:TrackPointExtension>
        </extensions>
      </trkpt>
      <trkpt lat="43.463075123727321624755859375" lon="1.469437815248966217041015625">
        <ele>261.79998779296875</ele>
        <time>2026-08-05T07:46:29.000Z</time>
        <extensions>
          <ns3:TrackPointExtension>
            <ns3:hr>73</ns3:hr>
            <ns3:cad>0</ns3:cad>
          </ns3:TrackPointExtension>
        </extensions>
      </trkpt>
      <trkpt lat="43.463075123727321624755859375" lon="1.46943806670606136322021484375">
        <ele>261.79998779296875</ele>
        <time>2026-08-05T07:46:30.000Z</time>
        <extensions>
          <ns3:TrackPointExtension>
            <ns3:hr>72</ns3:hr>
            <ns3:cad>0</ns3:cad>
          </ns3:TrackPointExtension>
        </extensions>
      </trkpt>
      <trkpt lat="43.4630695916712284088134765625" lon="1.46945332176983356475830078125">
        <ele>262</ele>
        <time>2026-08-05T07:46:31.000Z</time>
        <extensions>
          <ns3:TrackPointExtension>
            <ns3:hr>73</ns3:hr>
            <ns3:cad>77</ns3:cad>
          </ns3:TrackPointExtension>
        </extensions>
      </trkpt>
      <trkpt lat="43.4630633890628814697265625" lon="1.46946488879621028900146484375">
        <ele>262</ele>
        <time>2026-08-05T07:46:32.000Z</time>
        <extensions>
          <ns3:TrackPointExtension>
            <ns3:hr>73</ns3:hr>
            <ns3:cad>77</ns3:cad>
          </ns3:TrackPointExtension>
        </extensions>
      </trkpt>
      <trkpt lat="43.46305869519710540771484375" lon="1.46947394125163555145263671875">
        <ele>262.20001220703125</ele>
        <time>2026-08-05T07:46:33.000Z</time>
        <extensions>
          <ns3:TrackPointExtension>
            <ns3:hr>72</ns3:hr>
            <ns3:cad>77</ns3:cad>
          </ns3:TrackPointExtension>
        </extensions>
      </trkpt>
      <trkpt lat="43.4630528278648853302001953125" lon="1.46948668174445629119873046875">
        <ele>262.20001220703125</ele>
        <time>2026-08-05T07:46:34.000Z</time>
        <extensions>
          <ns3:TrackPointExtension>
            <ns3:hr>73</ns3:hr>
            <ns3:cad>77</ns3:cad>
          </ns3:TrackPointExtension>
        </extensions>
      </trkpt>
      <trkpt lat="43.46304796636104583740234375" lon="1.46949958987534046173095703125">
        <ele>262.399993896484375</ele>
        <time>2026-08-05T07:46:35.000Z</time>
        <extensions>
          <ns3:TrackPointExtension>
            <ns3:hr>73</ns3:hr>
            <ns3:cad>77</ns3:cad>
          </ns3:TrackPointExtension>
        </extensions>
      </trkpt>
      <trkpt lat="43.46304402686655521392822265625" lon="1.46950746886432170867919921875">
        <ele>262.399993896484375</ele>
        <time>2026-08-05T07:46:36.000Z</time>
        <extensions>
          <ns3:TrackPointExtension>
            <ns3:hr>73</ns3:hr>
            <ns3:cad>43</ns3:cad>
          </ns3:TrackPointExtension>
        </extensions>
      </trkpt>
      <trkpt lat="43.4630377404391765594482421875" lon="1.46951652131974697113037109375">
        <ele>262.399993896484375</ele>
        <time>2026-08-05T07:46:37.000Z</time>
        <extensions>
          <ns3:TrackPointExtension>
            <ns3:hr>73</ns3:hr>
            <ns3:cad>43</ns3:cad>
          </ns3:TrackPointExtension>
        </extensions>
      </trkpt>
      <trkpt lat="43.4630290232598781585693359375" lon="1.4695308543741703033447265625">
        <ele>262.600006103515625</ele>
        <time>2026-08-05T07:46:38.000Z</time>
        <extensions>
          <ns3:TrackPointExtension>
            <ns3:hr>73</ns3:hr>
            <ns3:cad>44</ns3:cad>
          </ns3:TrackPointExtension>
        </extensions>
      </trkpt>
      <trkpt lat="43.46302407793700695037841796875" lon="1.46954267285764217376708984375">
        <ele>262.79998779296875</ele>
        <time>2026-08-05T07:46:39.000Z</time>
        <extensions>
          <ns3:TrackPointExtension>
            <ns3:hr>73</ns3:hr>
            <ns3:cad>44</ns3:cad>
          </ns3:TrackPointExtension>
        </extensions>
      </trkpt>
      <trkpt lat="43.46301854588091373443603515625" lon="1.46955004893243312835693359375">
        <ele>262.79998779296875</ele>
        <time>2026-08-05T07:46:40.000Z</time>
        <extensions>
          <ns3:TrackPointExtension>
            <ns3:hr>73</ns3:hr>
            <ns3:cad>44</ns3:cad>
          </ns3:TrackPointExtension>
        </extensions>
      </trkpt>
      <trkpt lat="43.46301309764385223388671875" lon="1.46955641917884349822998046875">
        <ele>263</ele>
        <time>2026-08-05T07:46:41.000Z</time>
        <extensions>
          <ns3:TrackPointExtension>
            <ns3:hr>73</ns3:hr>
            <ns3:cad>45</ns3:cad>
          </ns3:TrackPointExtension>
        </extensions>
      </trkpt>
      <trkpt lat="43.46300236880779266357421875" lon="1.46957167424261569976806640625">
        <ele>263</ele>
        <time>2026-08-05T07:46:42.000Z</time>
        <extensions>
          <ns3:TrackPointExtension>
            <ns3:hr>73</ns3:hr>
            <ns3:cad>45</ns3:cad>
          </ns3:TrackPointExtension>
        </extensions>
      </trkpt>
      <trkpt lat="43.4629944898188114166259765625" lon="1.46958433091640472412109375">
        <ele>263.20001220703125</ele>
        <time>2026-08-05T07:46:43.000Z</time>
        <extensions>
          <ns3:TrackPointExtension>
            <ns3:hr>74</ns3:hr>
            <ns3:cad>45</ns3:cad>
          </ns3:TrackPointExtension>
        </extensions>
      </trkpt>
      <trkpt lat="43.4629891254007816314697265625" lon="1.4695917069911956787109375">
        <ele>263.20001220703125</ele>
        <time>2026-08-05T07:46:44.000Z</time>
        <extensions>
          <ns3:TrackPointExtension>
            <ns3:hr>74</ns3:hr>
            <ns3:cad>45</ns3:cad>
          </ns3:TrackPointExtension>
        </extensions>
      </trkpt>
      <trkpt lat="43.4629827551543712615966796875" lon="1.46960168145596981048583984375">
        <ele>263.399993896484375</ele>
        <time>2026-08-05T07:46:45.000Z</time>
        <extensions>
          <ns3:TrackPointExtension>
            <ns3:hr>74</ns3:hr>
            <ns3:cad>45</ns3:cad>
          </ns3:TrackPointExtension>
        </extensions>
      </trkpt>
      <trkpt lat="43.4629747085273265838623046875" lon="1.46961576305329799652099609375">
        <ele>263.399993896484375</ele>
        <time>2026-08-05T07:46:46.000Z</time>
        <extensions>
          <ns3:TrackPointExtension>
            <ns3:hr>74</ns3:hr>
            <ns3:cad>45</ns3:cad>
          </ns3:TrackPointExtension>
        </extensions>
      </trkpt>
      <trkpt lat="43.4629703499376773834228515625" lon="1.4696243964135646820068359375">
        <ele>263.600006103515625</ele>
        <time>2026-08-05T07:46:47.000Z</time>
        <extensions>
          <ns3:TrackPointExtension>
            <ns3:hr>75</ns3:hr>
            <ns3:cad>45</ns3:cad>
          </ns3:TrackPointExtension>
        </extensions>
      </trkpt>
      <trkpt lat="43.46296523697674274444580078125" lon="1.46963101811707019805908203125">
        <ele>263.600006103515625</ele>
        <time>2026-08-05T07:46:48.000Z</time>
        <extensions>
          <ns3:TrackPointExtension>
            <ns3:hr>75</ns3:hr>
            <ns3:cad>44</ns3:cad>
          </ns3:TrackPointExtension>
        </extensions>
      </trkpt>
      <trkpt lat="43.46295811235904693603515625" lon="1.4696408249437808990478515625">
        <ele>263.79998779296875</ele>
        <time>2026-08-05T07:46:49.000Z</time>
        <extensions>
          <ns3:TrackPointExtension>
            <ns3:hr>75</ns3:hr>
            <ns3:cad>44</ns3:cad>
          </ns3:TrackPointExtension>
        </extensions>
      </trkpt>
      <trkpt lat="43.462949730455875396728515625" lon="1.46965046413242816925048828125">
        <ele>264</ele>
        <time>2026-08-05T07:46:50.000Z</time>
        <extensions>
          <ns3:TrackPointExtension>
            <ns3:hr>76</ns3:hr>
            <ns3:cad>44</ns3:cad>
          </ns3:TrackPointExtension>
        </extensions>
      </trkpt>
      <trkpt lat="43.46294344402849674224853515625" lon="1.469656415283679962158203125">
        <ele>264</ele>
        <time>2026-08-05T07:46:51.000Z</time>
        <extensions>
          <ns3:TrackPointExtension>
            <ns3:hr>76</ns3:hr>
            <ns3:cad>44</ns3:cad>
          </ns3:TrackPointExtension>
        </extensions>
      </trkpt>
      <trkpt lat="43.46293824724853038787841796875" lon="1.46966320462524890899658203125">
        <ele>264.20001220703125</ele>
        <time>2026-08-05T07:46:52.000Z</time>
        <extensions>
          <ns3:TrackPointExtension>
            <ns3:hr>77</ns3:hr>
            <ns3:cad>44</ns3:cad>
          </ns3:TrackPointExtension>
        </extensions>
      </trkpt>
      <trkpt lat="43.46293254755437374114990234375" lon="1.4696716703474521636962890625">
        <ele>264.399993896484375</ele>
        <time>2026-08-05T07:46:53.000Z</time>
        <extensions>
          <ns3:TrackPointExtension>
            <ns3:hr>78</ns3:hr>
            <ns3:cad>44</ns3:cad>
          </ns3:TrackPointExtension>
        </extensions>
      </trkpt>
      <trkpt lat="43.46292592585086822509765625" lon="1.4696854166686534881591796875">
        <ele>264.399993896484375</ele>
        <time>2026-08-05T07:46:54.000Z</time>
        <extensions>
          <ns3:TrackPointExtension>
            <ns3:hr>78</ns3:hr>
            <ns3:cad>44</ns3:cad>
          </ns3:TrackPointExtension>
        </extensions>
      </trkpt>
      <trkpt lat="43.46292282454669475555419921875" lon="1.469697318971157073974609375">
        <ele>264.600006103515625</ele>
        <time>2026-08-05T07:46:55.000Z</time>
        <extensions>
          <ns3:TrackPointExtension>
            <ns3:hr>80</ns3:hr>
            <ns3:cad>45</ns3:cad>
          </ns3:TrackPointExtension>
        </extensions>
      </trkpt>
      <trkpt lat="43.46291997469961643218994140625" lon="1.46970503032207489013671875">
        <ele>264.600006103515625</ele>
        <time>2026-08-05T07:46:56.000Z</time>
        <extensions>
          <ns3:TrackPointExtension>
            <ns3:hr>81</ns3:hr>
            <ns3:cad>45</ns3:cad>
          </ns3:TrackPointExtension>
        </extensions>
      </trkpt>
      <trkpt lat="43.46291611902415752410888671875" lon="1.469713747501373291015625">
        <ele>264.79998779296875</ele>
        <time>2026-08-05T07:46:57.000Z</time>
        <extensions>
          <ns3:TrackPointExtension>
            <ns3:hr>81</ns3:hr>
            <ns3:cad>46</ns3:cad>
          </ns3:TrackPointExtension>
        </extensions>
      </trkpt>
      <trkpt lat="43.462910167872905731201171875" lon="1.46972917020320892333984375">
        <ele>264.79998779296875</ele>
        <time>2026-08-05T07:46:58.000Z</time>
        <extensions>
          <ns3:TrackPointExtension>
            <ns3:hr>82</ns3:hr>
            <ns3:cad>46</ns3:cad>
          </ns3:TrackPointExtension>
        </extensions>
      </trkpt>
      <trkpt lat="43.46290790475904941558837890625" lon="1.4697392284870147705078125">
        <ele>265</ele>
        <time>2026-08-05T07:46:59.000Z</time>
        <extensions>
          <ns3:TrackPointExtension>
            <ns3:hr>83</ns3:hr>
            <ns3:cad>47</ns3:cad>
          </ns3:TrackPointExtension>
        </extensions>
      </trkpt>
      <trkpt lat="43.46290647983551025390625" lon="1.4697501249611377716064453125">
        <ele>265.20001220703125</ele>
        <time>2026-08-05T07:47:00.000Z</time>
        <extensions>
          <ns3:TrackPointExtension>
            <ns3:hr>84</ns3:hr>
            <ns3:cad>46</ns3:cad>
          </ns3:TrackPointExtension>
        </extensions>
      </trkpt>
      <trkpt lat="43.4629039652645587921142578125" lon="1.46976470947265625">
        <ele>265.20001220703125</ele>
        <time>2026-08-05T07:47:01.000Z</time>
        <extensions>
          <ns3:TrackPointExtension>
            <ns3:hr>84</ns3:hr>
            <ns3:cad>46</ns3:cad>
          </ns3:TrackPointExtension>
        </extensions>
      </trkpt>
      <trkpt lat="43.46290606074035167694091796875" lon="1.46978415548801422119140625">
        <ele>265.399993896484375</ele>
        <time>2026-08-05T07:47:02.000Z</time>
        <extensions>
          <ns3:TrackPointExtension>
            <ns3:hr>85</ns3:hr>
            <ns3:cad>43</ns3:cad>
          </ns3:TrackPointExtension>
        </extensions>
      </trkpt>
      <trkpt lat="43.46290488727390766143798828125" lon="1.46979664452373981475830078125">
        <ele>265.399993896484375</ele>
        <time>2026-08-05T07:47:03.000Z</time>
        <extensions>
          <ns3:TrackPointExtension>
            <ns3:hr>85</ns3:hr>
            <ns3:cad>43</ns3:cad>
          </ns3:TrackPointExtension>
        </extensions>
      </trkpt>
      <trkpt lat="43.4629059769213199615478515625" lon="1.46980636753141880035400390625">
        <ele>265.399993896484375</ele>
        <time>2026-08-05T07:47:04.000Z</time>
        <extensions>
          <ns3:TrackPointExtension>
            <ns3:hr>85</ns3:hr>
            <ns3:cad>44</ns3:cad>
          </ns3:TrackPointExtension>
        </extensions>
      </trkpt>
      <trkpt lat="43.4629089944064617156982421875" lon="1.46981944330036640167236328125">
        <ele>265.600006103515625</ele>
        <time>2026-08-05T07:47:05.000Z</time>
        <extensions>
          <ns3:TrackPointExtension>
            <ns3:hr>86</ns3:hr>
            <ns3:cad>44</ns3:cad>
          </ns3:TrackPointExtension>
        </extensions>
      </trkpt>
      <trkpt lat="43.4629167057573795318603515625" lon="1.46983503364026546478271484375">
        <ele>265.600006103515625</ele>
        <time>2026-08-05T07:47:06.000Z</time>
        <extensions>
          <ns3:TrackPointExtension>
            <ns3:hr>86</ns3:hr>
            <ns3:cad>44</ns3:cad>
          </ns3:TrackPointExtension>
        </extensions>
      </trkpt>
      <trkpt lat="43.46292064525187015533447265625" lon="1.46984626539051532745361328125">
        <ele>265.600006103515625</ele>
        <time>2026-08-05T07:47:07.000Z</time>
        <extensions>
          <ns3:TrackPointExtension>
            <ns3:hr>86</ns3:hr>
            <ns3:cad>44</ns3:cad>
          </ns3:TrackPointExtension>
        </extensions>
      </trkpt>
      <trkpt lat="43.46292701549828052520751953125" lon="1.46985515020787715911865234375">
        <ele>265.600006103515625</ele>
        <time>2026-08-05T07:47:08.000Z</time>
        <extensions>
          <ns3:TrackPointExtension>
            <ns3:hr>87</ns3:hr>
            <ns3:cad>44</ns3:cad>
          </ns3:TrackPointExtension>
        </extensions>
      </trkpt>
      <trkpt lat="43.4629364870488643646240234375" lon="1.46986654959619045257568359375">
        <ele>265.600006103515625</ele>
        <time>2026-08-05T07:47:09.000Z</time>
        <extensions>
          <ns3:TrackPointExtension>
            <ns3:hr>87</ns3:hr>
            <ns3:cad>44</ns3:cad>
          </ns3:TrackPointExtension>
        </extensions>
      </trkpt>
      <trkpt lat="43.462946712970733642578125" lon="1.46987627260386943817138671875">
        <ele>265.600006103515625</ele>
        <time>2026-08-05T07:47:10.000Z</time>
        <extensions>
          <ns3:TrackPointExtension>
            <ns3:hr>88</ns3:hr>
            <ns3:cad>44</ns3:cad>
          </ns3:TrackPointExtension>
        </extensions>
      </trkpt>
      <trkpt lat="43.46295886673033237457275390625" lon="1.46988113410770893096923828125">
        <ele>265.399993896484375</ele>
        <time>2026-08-05T07:47:11.000Z</time>
        <extensions>
          <ns3:TrackPointExtension>
            <ns3:hr>89</ns3:hr>
            <ns3:cad>47</ns3:cad>
          </ns3:TrackPointExtension>
        </extensions>
      </trkpt>
      <trkpt lat="43.46296942792832851409912109375" lon="1.46988951601088047027587890625">
        <ele>265.600006103515625</ele>
        <time>2026-08-05T07:47:12.000Z</time>
        <extensions>
          <ns3:TrackPointExtension>
            <ns3:hr>90</ns3:hr>
            <ns3:cad>47</ns3:cad>
          </ns3:TrackPointExtension>
        </extensions>
      </trkpt>
      <trkpt lat="43.46297982148826122283935546875" lon="1.4698932878673076629638671875">
        <ele>265.399993896484375</ele>
        <time>2026-08-05T07:47:13.000Z</time>
        <extensions>
          <ns3:TrackPointExtension>
            <ns3:hr>91</ns3:hr>
            <ns3:cad>47</ns3:cad>
          </ns3:TrackPointExtension>
        </extensions>
      </trkpt>
      <trkpt lat="43.462988622486591339111328125" lon="1.469899155199527740478515625">
        <ele>265.399993896484375</ele>
        <time>2026-08-05T07:47:14.000Z</time>
        <extensions>
          <ns3:TrackPointExtension>
            <ns3:hr>91</ns3:hr>
            <ns3:cad>47</ns3:cad>
          </ns3:TrackPointExtension>
        </extensions>
      </trkpt>
      <trkpt lat="43.46299490891396999359130859375" lon="1.4699073694646358489990234375">
        <ele>265.20001220703125</ele>
        <time>2026-08-05T07:47:15.000Z</time>
        <extensions>
          <ns3:TrackPointExtension>
            <ns3:hr>91</ns3:hr>
            <ns3:cad>47</ns3:cad>
          </ns3:TrackPointExtension>
        </extensions>
      </trkpt>
      <trkpt lat="43.46300748176872730255126953125" lon="1.46991566754877567291259765625">
        <ele>265</ele>
        <time>2026-08-05T07:47:16.000Z</time>
        <extensions>
          <ns3:TrackPointExtension>
            <ns3:hr>91</ns3:hr>
            <ns3:cad>47</ns3:cad>
          </ns3:TrackPointExtension>
        </extensions>
      </trkpt>
      <trkpt lat="43.46301921643316745758056640625" lon="1.46991885267198085784912109375">
        <ele>264.79998779296875</ele>
        <time>2026-08-05T07:47:17.000Z</time>
        <extensions>
          <ns3:TrackPointExtension>
            <ns3:hr>91</ns3:hr>
            <ns3:cad>48</ns3:cad>
          </ns3:TrackPointExtension>
        </extensions>
      </trkpt>
      <trkpt lat="43.4630320407450199127197265625" lon="1.4699231274425983428955078125">
        <ele>264.79998779296875</ele>
        <time>2026-08-05T07:47:18.000Z</time>
        <extensions>
          <ns3:TrackPointExtension>
            <ns3:hr>91</ns3:hr>
            <ns3:cad>50</ns3:cad>
          </ns3:TrackPointExtension>
        </extensions>
      </trkpt>
      <trkpt lat="43.46304151229560375213623046875" lon="1.46993167698383331298828125">
        <ele>264.600006103515625</ele>
        <time>2026-08-05T07:47:19.000Z</time>
        <extensions>
          <ns3:TrackPointExtension>
            <ns3:hr>91</ns3:hr>
            <ns3:cad>50</ns3:cad>
          </ns3:TrackPointExtension>
        </extensions>
      </trkpt>
      <trkpt lat="43.46304771490395069122314453125" lon="1.46993570029735565185546875">
        <ele>264.600006103515625</ele>
        <time>2026-08-05T07:47:20.000Z</time>
        <extensions>
          <ns3:TrackPointExtension>
            <ns3:hr>91</ns3:hr>
            <ns3:cad>50</ns3:cad>
          </ns3:TrackPointExtension>
        </extensions>
      </trkpt>
      <trkpt lat="43.46304939128458499908447265625" lon="1.4699470996856689453125">
        <ele>264.600006103515625</ele>
        <time>2026-08-05T07:47:21.000Z</time>
        <extensions>
          <ns3:TrackPointExtension>
            <ns3:hr>91</ns3:hr>
            <ns3:cad>50</ns3:cad>
          </ns3:TrackPointExtension>
        </extensions>
      </trkpt>
      <trkpt lat="43.463050983846187591552734375" lon="1.46995154209434986114501953125">
        <ele>264.79998779296875</ele>
        <time>2026-08-05T07:47:22.000Z</time>
        <extensions>
          <ns3:TrackPointExtension>
            <ns3:hr>91</ns3:hr>
            <ns3:cad>50</ns3:cad>
          </ns3:TrackPointExtension>
        </extensions>
      </trkpt>
      <trkpt lat="43.46306162886321544647216796875" lon="1.46995640359818935394287109375">
        <ele>264.79998779296875</ele>
        <time>2026-08-05T07:47:23.000Z</time>
        <extensions>
          <ns3:TrackPointExtension>
            <ns3:hr>91</ns3:hr>
            <ns3:cad>50</ns3:cad>
          </ns3:TrackPointExtension>
        </extensions>
      </trkpt>
      <trkpt lat="43.4630692563951015472412109375" lon="1.46995875053107738494873046875">
        <ele>264.79998779296875</ele>
        <time>2026-08-05T07:47:24.000Z</time>
        <extensions>
          <ns3:TrackPointExtension>
            <ns3:hr>91</ns3:hr>
            <ns3:cad>50</ns3:cad>
          </ns3:TrackPointExtension>
        </extensions>
      </trkpt>
      <trkpt lat="43.46307814121246337890625" lon="1.4699630253016948699951171875">
        <ele>264.79998779296875</ele>
        <time>2026-08-05T07:47:25.000Z</time>
        <extensions>
          <ns3:TrackPointExtension>
            <ns3:hr>90</ns3:hr>
            <ns3:cad>50</ns3:cad>
          </ns3:TrackPointExtension>
        </extensions>
      </trkpt>
      <trkpt lat="43.4630843438208103179931640625" lon="1.4699687249958515167236328125">
        <ele>264.79998779296875</ele>
        <time>2026-08-05T07:47:26.000Z</time>
        <extensions>
          <ns3:TrackPointExtension>
            <ns3:hr>90</ns3:hr>
            <ns3:cad>50</ns3:cad>
          </ns3:TrackPointExtension>
        </extensions>
      </trkpt>
      <trkpt lat="43.46309364773333072662353515625" lon="1.469977609813213348388671875">
        <ele>264.600006103515625</ele>
        <time>2026-08-05T07:47:27.000Z</time>
        <extensions>
          <ns3:TrackPointExtension>
            <ns3:hr>90</ns3:hr>
            <ns3:cad>50</ns3:cad>
          </ns3:TrackPointExtension>
        </extensions>
      </trkpt>
      <trkpt lat="43.46310521475970745086669921875" lon="1.4699851535260677337646484375">
        <ele>264.600006103515625</ele>
        <time>2026-08-05T07:47:28.000Z</time>
        <extensions>
          <ns3:TrackPointExtension>
            <ns3:hr>89</ns3:hr>
            <ns3:cad>50</ns3:cad>
          </ns3:TrackPointExtension>
        </extensions>
      </trkpt>
      <trkpt lat="43.46311544068157672882080078125" lon="1.46998934447765350341796875">
        <ele>264.600006103515625</ele>
        <time>2026-08-05T07:47:29.000Z</time>
        <extensions>
          <ns3:TrackPointExtension>
            <ns3:hr>88</ns3:hr>
            <ns3:cad>50</ns3:cad>
          </ns3:TrackPointExtension>
        </extensions>
      </trkpt>
      <trkpt lat="43.46312449313700199127197265625" lon="1.46999630145728588104248046875">
        <ele>264.399993896484375</ele>
        <time>2026-08-05T07:47:30.000Z</time>
        <extensions>
          <ns3:TrackPointExtension>
            <ns3:hr>87</ns3:hr>
            <ns3:cad>50</ns3:cad>
          </ns3:TrackPointExtension>
        </extensions>
      </trkpt>
      <trkpt lat="43.4631322883069515228271484375" lon="1.47000082768499851226806640625">
        <ele>264.399993896484375</ele>
        <time>2026-08-05T07:47:31.000Z</time>
        <extensions>
          <ns3:TrackPointExtension>
            <ns3:hr>86</ns3:hr>
            <ns3:cad>50</ns3:cad>
          </ns3:TrackPointExtension>
        </extensions>
      </trkpt>
      <trkpt lat="43.46314075402915477752685546875" lon="1.47000250406563282012939453125">
        <ele>264.399993896484375</ele>
        <time>2026-08-05T07:47:32.000Z</time>
        <extensions>
          <ns3:TrackPointExtension>
            <ns3:hr>86</ns3:hr>
            <ns3:cad>50</ns3:cad>
          </ns3:TrackPointExtension>
        </extensions>
      </trkpt>
      <trkpt lat="43.46315181814134120941162109375" lon="1.47000585682690143585205078125">
        <ele>264.20001220703125</ele>
        <time>2026-08-05T07:47:33.000Z</time>
        <extensions>
          <ns3:TrackPointExtension>
            <ns3:hr>86</ns3:hr>
            <ns3:cad>49</ns3:cad>
          </ns3:TrackPointExtension>
        </extensions>
      </trkpt>
      <trkpt lat="43.46316405571997165679931640625" lon="1.4700102992355823516845703125">
        <ele>264.20001220703125</ele>
        <time>2026-08-05T07:47:34.000Z</time>
        <extensions>
          <ns3:TrackPointExtension>
            <ns3:hr>85</ns3:hr>
            <ns3:cad>48</ns3:cad>
          </ns3:TrackPointExtension>
        </extensions>
      </trkpt>
      <trkpt lat="43.46317495219409465789794921875" lon="1.47001683712005615234375">
        <ele>264.20001220703125</ele>
        <time>2026-08-05T07:47:35.000Z</time>
        <extensions>
          <ns3:TrackPointExtension>
            <ns3:hr>85</ns3:hr>
            <ns3:cad>48</ns3:cad>
          </ns3:TrackPointExtension>
        </extensions>
      </trkpt>
      <trkpt lat="43.463181741535663604736328125" lon="1.470030583441257476806640625">
        <ele>264.20001220703125</ele>
        <time>2026-08-05T07:47:36.000Z</time>
        <extensions>
          <ns3:TrackPointExtension>
            <ns3:hr>84</ns3:hr>
            <ns3:cad>48</ns3:cad>
          </ns3:TrackPointExtension>
        </extensions>
      </trkpt>
      <trkpt lat="43.46319154836237430572509765625" lon="1.470039300620555877685546875">
        <ele>264.20001220703125</ele>
        <time>2026-08-05T07:47:37.000Z</time>
        <extensions>
          <ns3:TrackPointExtension>
            <ns3:hr>84</ns3:hr>
            <ns3:cad>48</ns3:cad>
          </ns3:TrackPointExtension>
        </extensions>
      </trkpt>
      <trkpt lat="43.46320328302681446075439453125" lon="1.4700481854379177093505859375">
        <ele>264.20001220703125</ele>
        <time>2026-08-05T07:47:38.000Z</time>
        <extensions>
          <ns3:TrackPointExtension>
            <ns3:hr>84</ns3:hr>
            <ns3:cad>49</ns3:cad>
          </ns3:TrackPointExtension>
        </extensions>
      </trkpt>
      <trkpt lat="43.4632130898535251617431640625" lon="1.47005480714142322540283203125">
        <ele>264.20001220703125</ele>
        <time>2026-08-05T07:47:39.000Z</time>
        <extensions>
          <ns3:TrackPointExtension>
            <ns3:hr>83</ns3:hr>
            <ns3:cad>49</ns3:cad>
          </ns3:TrackPointExtension>
        </extensions>
      </trkpt>
      <trkpt lat="43.4632265008985996246337890625" lon="1.47005983628332614898681640625">
        <ele>264.20001220703125</ele>
        <time>2026-08-05T07:47:40.000Z</time>
        <extensions>
          <ns3:TrackPointExtension>
            <ns3:hr>83</ns3:hr>
            <ns3:cad>49</ns3:cad>
          </ns3:TrackPointExtension>
        </extensions>
      </trkpt>
      <trkpt lat="43.46323303878307342529296875" lon="1.47006335668265819549560546875">
        <ele>264.399993896484375</ele>
        <time>2026-08-05T07:47:41.000Z</time>
        <extensions>
          <ns3:TrackPointExtension>
            <ns3:hr>83</ns3:hr>
            <ns3:cad>49</ns3:cad>
          </ns3:TrackPointExtension>
        </extensions>
      </trkpt>
      <trkpt lat="43.46324351616203784942626953125" lon="1.470072157680988311767578125">
        <ele>264.399993896484375</ele>
        <time>2026-08-05T07:47:42.000Z</time>
        <extensions>
          <ns3:TrackPointExtension>
            <ns3:hr>83</ns3:hr>
            <ns3:cad>49</ns3:cad>
          </ns3:TrackPointExtension>
        </extensions>
      </trkpt>
      <trkpt lat="43.4632536582648754119873046875" lon="1.47007710300385951995849609375">
        <ele>264.20001220703125</ele>
        <time>2026-08-05T07:47:43.000Z</time>
        <extensions>
          <ns3:TrackPointExtension>
            <ns3:hr>82</ns3:hr>
            <ns3:cad>49</ns3:cad>
          </ns3:TrackPointExtension>
        </extensions>
      </trkpt>
      <trkpt lat="43.4632670693099498748779296875" lon="1.47008347325026988983154296875">
        <ele>264</ele>
        <time>2026-08-05T07:47:44.000Z</time>
        <extensions>
          <ns3:TrackPointExtension>
            <ns3:hr>82</ns3:hr>
            <ns3:cad>49</ns3:cad>
          </ns3:TrackPointExtension>
        </extensions>
      </trkpt>
      <trkpt lat="43.46327872015535831451416015625" lon="1.470087580382823944091796875">
        <ele>264</ele>
        <time>2026-08-05T07:47:45.000Z</time>
        <extensions>
          <ns3:TrackPointExtension>
            <ns3:hr>83</ns3:hr>
            <ns3:cad>48</ns3:cad>
          </ns3:TrackPointExtension>
        </extensions>
      </trkpt>
      <trkpt lat="43.463290035724639892578125" lon="1.4700941182672977447509765625">
        <ele>263.79998779296875</ele>
        <time>2026-08-05T07:47:46.000Z</time>
        <extensions>
          <ns3:TrackPointExtension>
            <ns3:hr>83</ns3:hr>
            <ns3:cad>48</ns3:cad>
          </ns3:TrackPointExtension>
        </extensions>
      </trkpt>
      <trkpt lat="43.46329749561846256256103515625" lon="1.470098309218883514404296875">
        <ele>263.79998779296875</ele>
        <time>2026-08-05T07:47:47.000Z</time>
        <extensions>
          <ns3:TrackPointExtension>
            <ns3:hr>83</ns3:hr>
            <ns3:cad>48</ns3:cad>
          </ns3:TrackPointExtension>
        </extensions>
      </trkpt>
      <trkpt lat="43.46330604515969753265380859375" lon="1.4701055176556110382080078125">
        <ele>263.79998779296875</ele>
        <time>2026-08-05T07:47:48.000Z</time>
        <extensions>
          <ns3:TrackPointExtension>
            <ns3:hr>83</ns3:hr>
            <ns3:cad>48</ns3:cad>
          </ns3:TrackPointExtension>
        </extensions>
      </trkpt>
      <trkpt lat="43.463321216404438018798828125" lon="1.4701142348349094390869140625">
        <ele>263.79998779296875</ele>
        <time>2026-08-05T07:47:49.000Z</time>
        <extensions>
          <ns3:TrackPointExtension>
            <ns3:hr>83</ns3:hr>
            <ns3:cad>48</ns3:cad>
          </ns3:TrackPointExtension>
        </extensions>
      </trkpt>
      <trkpt lat="43.463333956897258758544921875" lon="1.47012035362422466278076171875">
        <ele>263.79998779296875</ele>
        <time>2026-08-05T07:47:50.000Z</time>
        <extensions>
          <ns3:TrackPointExtension>
            <ns3:hr>83</ns3:hr>
            <ns3:cad>48</ns3:cad>
          </ns3:TrackPointExtension>
        </extensions>
      </trkpt>
      <trkpt lat="43.463342674076557159423828125" lon="1.47012957371771335601806640625">
        <ele>263.79998779296875</ele>
        <time>2026-08-05T07:47:51.000Z</time>
        <extensions>
          <ns3:TrackPointExtension>
            <ns3:hr>83</ns3:hr>
            <ns3:cad>48</ns3:cad>
          </ns3:TrackPointExtension>
        </extensions>
      </trkpt>
      <trkpt lat="43.46335030160844326019287109375" lon="1.47013912908732891082763671875">
        <ele>263.600006103515625</ele>
        <time>2026-08-05T07:47:52.000Z</time>
        <extensions>
          <ns3:TrackPointExtension>
            <ns3:hr>83</ns3:hr>
            <ns3:cad>48</ns3:cad>
          </ns3:TrackPointExtension>
        </extensions>
      </trkpt>
      <trkpt lat="43.46335910260677337646484375" lon="1.47014868445694446563720703125">
        <ele>263.399993896484375</ele>
        <time>2026-08-05T07:47:53.000Z</time>
        <extensions>
          <ns3:TrackPointExtension>
            <ns3:hr>83</ns3:hr>
            <ns3:cad>48</ns3:cad>
          </ns3:TrackPointExtension>
        </extensions>
      </trkpt>
      <trkpt lat="43.4633656404912471771240234375" lon="1.470153629779815673828125">
        <ele>263.399993896484375</ele>
        <time>2026-08-05T07:47:54.000Z</time>
        <extensions>
          <ns3:TrackPointExtension>
            <ns3:hr>83</ns3:hr>
            <ns3:cad>48</ns3:cad>
          </ns3:TrackPointExtension>
        </extensions>
      </trkpt>
      <trkpt lat="43.46337645314633846282958984375" lon="1.4701603353023529052734375">
        <ele>263.399993896484375</ele>
        <time>2026-08-05T07:47:55.000Z</time>
        <extensions>
          <ns3:TrackPointExtension>
            <ns3:hr>83</ns3:hr>
            <ns3:cad>49</ns3:cad>
          </ns3:TrackPointExtension>
        </extensions>
      </trkpt>
      <trkpt lat="43.46338617615401744842529296875" lon="1.47016645409166812896728515625">
        <ele>263.399993896484375</ele>
        <time>2026-08-05T07:47:56.000Z</time>
        <extensions>
          <ns3:TrackPointExtension>
            <ns3:hr>83</ns3:hr>
            <ns3:cad>50</ns3:cad>
          </ns3:TrackPointExtension>
        </extensions>
      </trkpt>
      <trkpt lat="43.4633931331336498260498046875" lon="1.47016930393874645233154296875">
        <ele>263.399993896484375</ele>
        <time>2026-08-05T07:47:57.000Z</time>
        <extensions>
          <ns3:TrackPointExtension>
            <ns3:hr>83</ns3:hr>
            <ns3:cad>49</ns3:cad>
          </ns3:TrackPointExtension>
        </extensions>
      </trkpt>
      <trkpt lat="43.46339891664683818817138671875" lon="1.47017441689968109130859375">
        <ele>263.399993896484375</ele>
        <time>2026-08-05T07:47:58.000Z</time>
        <extensions>
          <ns3:TrackPointExtension>
            <ns3:hr>82</ns3:hr>
            <ns3:cad>49</ns3:cad>
          </ns3:TrackPointExtension>
        </extensions>
      </trkpt>
      <trkpt lat="43.4634055383503437042236328125" lon="1.47018506191670894622802734375">
        <ele>263.399993896484375</ele>
        <time>2026-08-05T07:47:59.000Z</time>
        <extensions>
          <ns3:TrackPointExtension>
            <ns3:hr>82</ns3:hr>
            <ns3:cad>48</ns3:cad>
          </ns3:TrackPointExtension>
        </extensions>
      </trkpt>
      <trkpt lat="43.4634115733206272125244140625" lon="1.47019310854375362396240234375">
        <ele>263.399993896484375</ele>
        <time>2026-08-05T07:48:00.000Z</time>
        <extensions>
          <ns3:TrackPointExtension>
            <ns3:hr>82</ns3:hr>
            <ns3:cad>48</ns3:cad>
          </ns3:TrackPointExtension>
        </extensions>
      </trkpt>
      <trkpt lat="43.46342104487121105194091796875" lon="1.47019880823791027069091796875">
        <ele>263.399993896484375</ele>
        <time>2026-08-05T07:48:01.000Z</time>
        <extensions>
          <ns3:TrackPointExtension>
            <ns3:hr>82</ns3:hr>
            <ns3:cad>48</ns3:cad>
          </ns3:TrackPointExtension>
        </extensions>
      </trkpt>
      <trkpt lat="43.46342842094600200653076171875" lon="1.47020383737981319427490234375">
        <ele>263.20001220703125</ele>
        <time>2026-08-05T07:48:02.000Z</time>
        <extensions>
          <ns3:TrackPointExtension>
            <ns3:hr>82</ns3:hr>
            <ns3:cad>50</ns3:cad>
          </ns3:TrackPointExtension>
        </extensions>
      </trkpt>
      <trkpt lat="43.46343780867755413055419921875" lon="1.47021071054041385650634765625">
        <ele>263.20001220703125</ele>
        <time>2026-08-05T07:48:03.000Z</time>
        <extensions>
          <ns3:TrackPointExtension>
            <ns3:hr>82</ns3:hr>
            <ns3:cad>50</ns3:cad>
          </ns3:TrackPointExtension>
        </extensions>
      </trkpt>
      <trkpt lat="43.46344602294266223907470703125" lon="1.47021875716745853424072265625">
        <ele>263.20001220703125</ele>
        <time>2026-08-05T07:48:04.000Z</time>
        <extensions>
          <ns3:TrackPointExtension>
            <ns3:hr>81</ns3:hr>
            <ns3:cad>50</ns3:cad>
          </ns3:TrackPointExtension>
        </extensions>
      </trkpt>
      <trkpt lat="43.46345566213130950927734375" lon="1.470225714147090911865234375">
        <ele>263.20001220703125</ele>
        <time>2026-08-05T07:48:05.000Z</time>
        <extensions>
          <ns3:TrackPointExtension>
            <ns3:hr>81</ns3:hr>
            <ns3:cad>48</ns3:cad>
          </ns3:TrackPointExtension>
        </extensions>
      </trkpt>
      <trkpt lat="43.46346446312963962554931640625" lon="1.47022998891770839691162109375">
        <ele>263.20001220703125</ele>
        <time>2026-08-05T07:48:06.000Z</time>
        <extensions>
          <ns3:TrackPointExtension>
            <ns3:hr>80</ns3:hr>
            <ns3:cad>48</ns3:cad>
          </ns3:TrackPointExtension>
        </extensions>
      </trkpt>
      <trkpt lat="43.4634739346802234649658203125" lon="1.47023468278348445892333984375">
        <ele>263.20001220703125</ele>
        <time>2026-08-05T07:48:07.000Z</time>
        <extensions>
          <ns3:TrackPointExtension>
            <ns3:hr>80</ns3:hr>
            <ns3:cad>49</ns3:cad>
          </ns3:TrackPointExtension>
        </extensions>
      </trkpt>
      <trkpt lat="43.4634823165833950042724609375" lon="1.47024021483957767486572265625">
        <ele>263.20001220703125</ele>
        <time>2026-08-05T07:48:08.000Z</time>
        <extensions>
          <ns3:TrackPointExtension>
            <ns3:hr>80</ns3:hr>
            <ns3:cad>49</ns3:cad>
          </ns3:TrackPointExtension>
        </extensions>
      </trkpt>
      <trkpt lat="43.46348877064883708953857421875" lon="1.47024792619049549102783203125">
        <ele>263.20001220703125</ele>
        <time>2026-08-05T07:48:09.000Z</time>
        <extensions>
          <ns3:TrackPointExtension>
            <ns3:hr>80</ns3:hr>
            <ns3:cad>49</ns3:cad>
          </ns3:TrackPointExtension>
        </extensions>
      </trkpt>
      <trkpt lat="43.4634979069232940673828125" lon="1.470255218446254730224609375">
        <ele>263.20001220703125</ele>
        <time>2026-08-05T07:48:10.000Z</time>
        <extensions>
          <ns3:TrackPointExtension>
            <ns3:hr>79</ns3:hr>
            <ns3:cad>49</ns3:cad>
          </ns3:TrackPointExtension>
        </extensions>
      </trkpt>
      <trkpt lat="43.463506959378719329833984375" lon="1.470260918140411376953125">
        <ele>263.20001220703125</ele>
        <time>2026-08-05T07:48:11.000Z</time>
        <extensions>
          <ns3:TrackPointExtension>
            <ns3:hr>79</ns3:hr>
            <ns3:cad>49</ns3:cad>
          </ns3:TrackPointExtension>
        </extensions>
      </trkpt>
      <trkpt lat="43.46351609565317630767822265625" lon="1.4702657796442508697509765625">
        <ele>263.20001220703125</ele>
        <time>2026-08-05T07:48:12.000Z</time>
        <extensions>
          <ns3:TrackPointExtension>
            <ns3:hr>79</ns3:hr>
            <ns3:cad>48</ns3:cad>
          </ns3:TrackPointExtension>
        </extensions>
      </trkpt>
      <trkpt lat="43.46352674067020416259765625" lon="1.47027231752872467041015625">
        <ele>263</ele>
        <time>2026-08-05T07:48:13.000Z</time>
        <extensions>
          <ns3:TrackPointExtension>
            <ns3:hr>78</ns3:hr>
            <ns3:cad>47</ns3:cad>
          </ns3:TrackPointExtension>
        </extensions>
      </trkpt>
      <trkpt lat="43.46353746950626373291015625" lon="1.4702805317938327789306640625">
        <ele>263</ele>
        <time>2026-08-05T07:48:14.000Z</time>
        <extensions>
          <ns3:TrackPointExtension>
            <ns3:hr>78</ns3:hr>
            <ns3:cad>47</ns3:cad>
          </ns3:TrackPointExtension>
        </extensions>
      </trkpt>
      <trkpt lat="43.46354912035167217254638671875" lon="1.47028438746929168701171875">
        <ele>263</ele>
        <time>2026-08-05T07:48:15.000Z</time>
        <extensions>
          <ns3:TrackPointExtension>
            <ns3:hr>78</ns3:hr>
            <ns3:cad>47</ns3:cad>
          </ns3:TrackPointExtension>
        </extensions>
      </trkpt>
      <trkpt lat="43.4635595977306365966796875" lon="1.47028581239283084869384765625">
        <ele>262.79998779296875</ele>
        <time>2026-08-05T07:48:16.000Z</time>
        <extensions>
          <ns3:TrackPointExtension>
            <ns3:hr>78</ns3:hr>
            <ns3:cad>48</ns3:cad>
          </ns3:TrackPointExtension>
        </extensions>
      </trkpt>
      <trkpt lat="43.4635688178241252899169921875" lon="1.47028866223990917205810546875">
        <ele>262.79998779296875</ele>
        <time>2026-08-05T07:48:17.000Z</time>
        <extensions>
          <ns3:TrackPointExtension>
            <ns3:hr>77</ns3:hr>
            <ns3:cad>48</ns3:cad>
          </ns3:TrackPointExtension>
        </extensions>
      </trkpt>
      <trkpt lat="43.46357711590826511383056640625" lon="1.47029578685760498046875">
        <ele>262.79998779296875</ele>
        <time>2026-08-05T07:48:18.000Z</time>
        <extensions>
          <ns3:TrackPointExtension>
            <ns3:hr>77</ns3:hr>
            <ns3:cad>48</ns3:cad>
          </ns3:TrackPointExtension>
        </extensions>
      </trkpt>
      <trkpt lat="43.4635832346975803375244140625" lon="1.47030316293239593505859375">
        <ele>262.600006103515625</ele>
        <time>2026-08-05T07:48:19.000Z</time>
        <extensions>
          <ns3:TrackPointExtension>
            <ns3:hr>77</ns3:hr>
            <ns3:cad>49</ns3:cad>
          </ns3:TrackPointExtension>
        </extensions>
      </trkpt>
      <trkpt lat="43.46358918584883213043212890625" lon="1.47031313739717006683349609375">
        <ele>262.600006103515625</ele>
        <time>2026-08-05T07:48:20.000Z</time>
        <extensions>
          <ns3:TrackPointExtension>
            <ns3:hr>77</ns3:hr>
            <ns3:cad>49</ns3:cad>
          </ns3:TrackPointExtension>
        </extensions>
      </trkpt>
      <trkpt lat="43.4635939635336399078369140625" lon="1.47031950764358043670654296875">
        <ele>262.600006103515625</ele>
        <time>2026-08-05T07:48:21.000Z</time>
        <extensions>
          <ns3:TrackPointExtension>
            <ns3:hr>77</ns3:hr>
            <ns3:cad>48</ns3:cad>
          </ns3:TrackPointExtension>
        </extensions>
      </trkpt>
      <trkpt lat="43.46359354443848133087158203125" lon="1.47031732834875583648681640625">
        <ele>262.79998779296875</ele>
        <time>2026-08-05T07:48:22.000Z</time>
        <extensions>
          <ns3:TrackPointExtension>
            <ns3:hr>77</ns3:hr>
            <ns3:cad>0</ns3:cad>
          </ns3:TrackPointExtension>
        </extensions>
      </trkpt>
      <trkpt lat="43.46359974704682826995849609375" lon="1.4703214354813098907470703125">
        <ele>262.79998779296875</ele>
        <time>2026-08-05T07:48:23.000Z</time>
        <extensions>
          <ns3:TrackPointExtension>
            <ns3:hr>77</ns3:hr>
            <ns3:cad>0</ns3:cad>
          </ns3:TrackPointExtension>
        </extensions>
      </trkpt>
      <trkpt lat="43.4636107273399829864501953125" lon="1.47032889537513256072998046875">
        <ele>263</ele>
        <time>2026-08-05T07:48:24.000Z</time>
        <extensions>
          <ns3:TrackPointExtension>
            <ns3:hr>77</ns3:hr>
            <ns3:cad>0</ns3:cad>
          </ns3:TrackPointExtension>
        </extensions>
      </trkpt>
      <trkpt lat="43.4636186063289642333984375" lon="1.47033509798347949981689453125">
        <ele>262.79998779296875</ele>
        <time>2026-08-05T07:48:25.000Z</time>
        <extensions>
          <ns3:TrackPointExtension>
            <ns3:hr>77</ns3:hr>
            <ns3:cad>0</ns3:cad>
          </ns3:TrackPointExtension>
        </extensions>
      </trkpt>
      <trkpt lat="43.46362866461277008056640625" lon="1.470341384410858154296875">
        <ele>262.79998779296875</ele>
        <time>2026-08-05T07:48:26.000Z</time>
        <extensions>
          <ns3:TrackPointExtension>
            <ns3:hr>77</ns3:hr>
            <ns3:cad>49</ns3:cad>
          </ns3:TrackPointExtension>
        </extensions>
      </trkpt>
      <trkpt lat="43.46364048309624195098876953125" lon="1.47034934721887111663818359375">
        <ele>262.600006103515625</ele>
        <time>2026-08-05T07:48:27.000Z</time>
        <extensions>
          <ns3:TrackPointExtension>
            <ns3:hr>76</ns3:hr>
            <ns3:cad>49</ns3:cad>
          </ns3:TrackPointExtension>
        </extensions>
      </trkpt>
      <trkpt lat="43.46365054138004779815673828125" lon="1.4703542925417423248291015625">
        <ele>262.600006103515625</ele>
        <time>2026-08-05T07:48:28.000Z</time>
        <extensions>
          <ns3:TrackPointExtension>
            <ns3:hr>75</ns3:hr>
            <ns3:cad>49</ns3:cad>
          </ns3:TrackPointExtension>
        </extensions>
      </trkpt>
      <trkpt lat="43.463660515844821929931640625" lon="1.47035839967429637908935546875">
        <ele>262.600006103515625</ele>
        <time>2026-08-05T07:48:29.000Z</time>
        <extensions>
          <ns3:TrackPointExtension>
            <ns3:hr>74</ns3:hr>
            <ns3:cad>48</ns3:cad>
          </ns3:TrackPointExtension>
        </extensions>
      </trkpt>
      <trkpt lat="43.46366889774799346923828125" lon="1.470364518463611602783203125">
        <ele>262.600006103515625</ele>
        <time>2026-08-05T07:48:30.000Z</time>
        <extensions>
          <ns3:TrackPointExtension>
            <ns3:hr>73</ns3:hr>
            <ns3:cad>48</ns3:cad>
          </ns3:TrackPointExtension>
        </extensions>
      </trkpt>
      <trkpt lat="43.4636764414608478546142578125" lon="1.47036946378648281097412109375">
        <ele>262.600006103515625</ele>
        <time>2026-08-05T07:48:31.000Z</time>
        <extensions>
          <ns3:TrackPointExtension>
            <ns3:hr>73</ns3:hr>
            <ns3:cad>48</ns3:cad>
          </ns3:TrackPointExtension>
        </extensions>
      </trkpt>
      <trkpt lat="43.463686667382717132568359375" lon="1.4703757502138614654541015625">
        <ele>262.600006103515625</ele>
        <time>2026-08-05T07:48:32.000Z</time>
        <extensions>
          <ns3:TrackPointExtension>
            <ns3:hr>72</ns3:hr>
            <ns3:cad>48</ns3:cad>
          </ns3:TrackPointExtension>
        </extensions>
      </trkpt>
      <trkpt lat="43.46369027160108089447021484375" lon="1.47037667222321033477783203125">
        <ele>262.399993896484375</ele>
        <time>2026-08-05T07:48:33.000Z</time>
        <extensions>
          <ns3:TrackPointExtension>
            <ns3:hr>72</ns3:hr>
            <ns3:cad>48</ns3:cad>
          </ns3:TrackPointExtension>
        </extensions>
      </trkpt>
      <trkpt lat="43.463710807263851165771484375" lon="1.4703837968409061431884765625">
        <ele>262.399993896484375</ele>
        <time>2026-08-05T07:48:34.000Z</time>
        <extensions>
          <ns3:TrackPointExtension>
            <ns3:hr>72</ns3:hr>
            <ns3:cad>49</ns3:cad>
          </ns3:TrackPointExtension>
        </extensions>
      </trkpt>
      <trkpt lat="43.4637206979095935821533203125" lon="1.47039025090634822845458984375">
        <ele>262.399993896484375</ele>
        <time>2026-08-05T07:48:35.000Z</time>
        <extensions>
          <ns3:TrackPointExtension>
            <ns3:hr>72</ns3:hr>
            <ns3:cad>49</ns3:cad>
          </ns3:TrackPointExtension>
        </extensions>
      </trkpt>
      <trkpt lat="43.46373000182211399078369140625" lon="1.4703992195427417755126953125">
        <ele>262.399993896484375</ele>
        <time>2026-08-05T07:48:36.000Z</time>
        <extensions>
          <ns3:TrackPointExtension>
            <ns3:hr>72</ns3:hr>
            <ns3:cad>48</ns3:cad>
          </ns3:TrackPointExtension>
        </extensions>
      </trkpt>
      <trkpt lat="43.4637357853353023529052734375" lon="1.470402739942073822021484375">
        <ele>262.399993896484375</ele>
        <time>2026-08-05T07:48:37.000Z</time>
        <extensions>
          <ns3:TrackPointExtension>
            <ns3:hr>72</ns3:hr>
            <ns3:cad>47</ns3:cad>
          </ns3:TrackPointExtension>
        </extensions>
      </trkpt>
      <trkpt lat="43.463743664324283599853515625" lon="1.47040818817913532257080078125">
        <ele>262.399993896484375</ele>
        <time>2026-08-05T07:48:38.000Z</time>
        <extensions>
          <ns3:TrackPointExtension>
            <ns3:hr>72</ns3:hr>
            <ns3:cad>47</ns3:cad>
          </ns3:TrackPointExtension>
        </extensions>
      </trkpt>
      <trkpt lat="43.4637552313506603240966796875" lon="1.4704163186252117156982421875">
        <ele>262.20001220703125</ele>
        <time>2026-08-05T07:48:39.000Z</time>
        <extensions>
          <ns3:TrackPointExtension>
            <ns3:hr>73</ns3:hr>
            <ns3:cad>47</ns3:cad>
          </ns3:TrackPointExtension>
        </extensions>
      </trkpt>
      <trkpt lat="43.46376637928187847137451171875" lon="1.47042377851903438568115234375">
        <ele>262.20001220703125</ele>
        <time>2026-08-05T07:48:40.000Z</time>
        <extensions>
          <ns3:TrackPointExtension>
            <ns3:hr>73</ns3:hr>
            <ns3:cad>49</ns3:cad>
          </ns3:TrackPointExtension>
        </extensions>
      </trkpt>
      <trkpt lat="43.46377559937536716461181640625" lon="1.4704317413270473480224609375">
        <ele>262</ele>
        <time>2026-08-05T07:48:41.000Z</time>
        <extensions>
          <ns3:TrackPointExtension>
            <ns3:hr>73</ns3:hr>
            <ns3:cad>49</ns3:cad>
          </ns3:TrackPointExtension>
        </extensions>
      </trkpt>
      <trkpt lat="43.4637837298214435577392578125" lon="1.470439620316028594970703125">
        <ele>262</ele>
        <time>2026-08-05T07:48:42.000Z</time>
        <extensions>
          <ns3:TrackPointExtension>
            <ns3:hr>73</ns3:hr>
            <ns3:cad>49</ns3:cad>
          </ns3:TrackPointExtension>
        </extensions>
      </trkpt>
      <trkpt lat="43.4637927822768688201904296875" lon="1.47044423036277294158935546875">
        <ele>262</ele>
        <time>2026-08-05T07:48:43.000Z</time>
        <extensions>
          <ns3:TrackPointExtension>
            <ns3:hr>73</ns3:hr>
            <ns3:cad>49</ns3:cad>
          </ns3:TrackPointExtension>
        </extensions>
      </trkpt>
      <trkpt lat="43.4638036787509918212890625" lon="1.47045143879950046539306640625">
        <ele>262</ele>
        <time>2026-08-05T07:48:44.000Z</time>
        <extensions>
          <ns3:TrackPointExtension>
            <ns3:hr>73</ns3:hr>
            <ns3:cad>50</ns3:cad>
          </ns3:TrackPointExtension>
        </extensions>
      </trkpt>
      <trkpt lat="43.4638135693967342376708984375" lon="1.47045470774173736572265625">
        <ele>261.79998779296875</ele>
        <time>2026-08-05T07:48:45.000Z</time>
        <extensions>
          <ns3:TrackPointExtension>
            <ns3:hr>73</ns3:hr>
            <ns3:cad>50</ns3:cad>
          </ns3:TrackPointExtension>
        </extensions>
      </trkpt>
      <trkpt lat="43.4638239629566669464111328125" lon="1.47045931778848171234130859375">
        <ele>261.79998779296875</ele>
        <time>2026-08-05T07:48:46.000Z</time>
        <extensions>
          <ns3:TrackPointExtension>
            <ns3:hr>74</ns3:hr>
            <ns3:cad>49</ns3:cad>
          </ns3:TrackPointExtension>
        </extensions>
      </trkpt>
      <trkpt lat="43.4638323448598384857177734375" lon="1.470464430749416351318359375">
        <ele>262</ele>
        <time>2026-08-05T07:48:47.000Z</time>
        <extensions>
          <ns3:TrackPointExtension>
            <ns3:hr>74</ns3:hr>
            <ns3:cad>49</ns3:cad>
          </ns3:TrackPointExtension>
        </extensions>
      </trkpt>
      <trkpt lat="43.46384198404848575592041015625" lon="1.47047138772904872894287109375">
        <ele>262</ele>
        <time>2026-08-05T07:48:48.000Z</time>
        <extensions>
          <ns3:TrackPointExtension>
            <ns3:hr>73</ns3:hr>
            <ns3:cad>48</ns3:cad>
          </ns3:TrackPointExtension>
        </extensions>
      </trkpt>
      <trkpt lat="43.46385262906551361083984375" lon="1.47047482430934906005859375">
        <ele>262</ele>
        <time>2026-08-05T07:48:49.000Z</time>
        <extensions>
          <ns3:TrackPointExtension>
            <ns3:hr>73</ns3:hr>
            <ns3:cad>48</ns3:cad>
          </ns3:TrackPointExtension>
        </extensions>
      </trkpt>
      <trkpt lat="43.46386335790157318115234375" lon="1.47048094309866428375244140625">
        <ele>262</ele>
        <time>2026-08-05T07:48:50.000Z</time>
        <extensions>
          <ns3:TrackPointExtension>
            <ns3:hr>72</ns3:hr>
            <ns3:cad>48</ns3:cad>
          </ns3:TrackPointExtension>
        </extensions>
      </trkpt>
      <trkpt lat="43.4638755954802036285400390625" lon="1.470486223697662353515625">
        <ele>262.20001220703125</ele>
        <time>2026-08-05T07:48:51.000Z</time>
        <extensions>
          <ns3:TrackPointExtension>
            <ns3:hr>72</ns3:hr>
            <ns3:cad>48</ns3:cad>
          </ns3:TrackPointExtension>
        </extensions>
      </trkpt>
      <trkpt lat="43.46388255245983600616455078125" lon="1.47048245184123516082763671875">
        <ele>262.20001220703125</ele>
        <time>2026-08-05T07:48:52.000Z</time>
        <extensions>
          <ns3:TrackPointExtension>
            <ns3:hr>72</ns3:hr>
            <ns3:cad>49</ns3:cad>
          </ns3:TrackPointExtension>
        </extensions>
      </trkpt>
      <trkpt lat="43.4638921916484832763671875" lon="1.47048731334507465362548828125">
        <ele>262.20001220703125</ele>
        <time>2026-08-05T07:48:53.000Z</time>
        <extensions>
          <ns3:TrackPointExtension>
            <ns3:hr>72</ns3:hr>
            <ns3:cad>49</ns3:cad>
          </ns3:TrackPointExtension>
        </extensions>
      </trkpt>
      <trkpt lat="43.463903926312923431396484375" lon="1.47050173021852970123291015625">
        <ele>262.20001220703125</ele>
        <time>2026-08-05T07:48:54.000Z</time>
        <extensions>
          <ns3:TrackPointExtension>
            <ns3:hr>72</ns3:hr>
            <ns3:cad>0</ns3:cad>
          </ns3:TrackPointExtension>
        </extensions>
      </trkpt>
      <trkpt lat="43.46391473896801471710205078125" lon="1.47051044739782810211181640625">
        <ele>262.20001220703125</ele>
        <time>2026-08-05T07:48:55.000Z</time>
        <extensions>
          <ns3:TrackPointExtension>
            <ns3:hr>72</ns3:hr>
            <ns3:cad>0</ns3:cad>
          </ns3:TrackPointExtension>
        </extensions>
      </trkpt>
      <trkpt lat="43.4639262221753597259521484375" lon="1.47052067331969738006591796875">
        <ele>262.20001220703125</ele>
        <time>2026-08-05T07:48:56.000Z</time>
        <extensions>
          <ns3:TrackPointExtension>
            <ns3:hr>72</ns3:hr>
            <ns3:cad>0</ns3:cad>
          </ns3:TrackPointExtension>
        </extensions>
      </trkpt>
      <trkpt lat="43.46393770538270473480224609375" lon="1.470526121556758880615234375">
        <ele>262.399993896484375</ele>
        <time>2026-08-05T07:48:57.000Z</time>
        <extensions>
          <ns3:TrackPointExtension>
            <ns3:hr>71</ns3:hr>
            <ns3:cad>0</ns3:cad>
          </ns3:TrackPointExtension>
        </extensions>
      </trkpt>
      <trkpt lat="43.46394960768520832061767578125" lon="1.47053089924156665802001953125">
        <ele>262.399993896484375</ele>
        <time>2026-08-05T07:48:58.000Z</time>
        <extensions>
          <ns3:TrackPointExtension>
            <ns3:hr>72</ns3:hr>
            <ns3:cad>0</ns3:cad>
          </ns3:TrackPointExtension>
        </extensions>
      </trkpt>
      <trkpt lat="43.4639617614448070526123046875" lon="1.4705373533070087432861328125">
        <ele>262.399993896484375</ele>
        <time>2026-08-05T07:48:59.000Z</time>
        <extensions>
          <ns3:TrackPointExtension>
            <ns3:hr>72</ns3:hr>
            <ns3:cad>0</ns3:cad>
          </ns3:TrackPointExtension>
        </extensions>
      </trkpt>
      <trkpt lat="43.46397198736667633056640625" lon="1.47054112516343593597412109375">
        <ele>262.399993896484375</ele>
        <time>2026-08-05T07:49:00.000Z</time>
        <extensions>
          <ns3:TrackPointExtension>
            <ns3:hr>72</ns3:hr>
            <ns3:cad>0</ns3:cad>
          </ns3:TrackPointExtension>
        </extensions>
      </trkpt>
      <trkpt lat="43.4639791958034038543701171875" lon="1.470544897019863128662109375">
        <ele>262.20001220703125</ele>
        <time>2026-08-05T07:49:01.000Z</time>
        <extensions>
          <ns3:TrackPointExtension>
            <ns3:hr>73</ns3:hr>
            <ns3:cad>0</ns3:cad>
          </ns3:TrackPointExtension>
        </extensions>
      </trkpt>
      <trkpt lat="43.46398548223078250885009765625" lon="1.47054799832403659820556640625">
        <ele>262.20001220703125</ele>
        <time>2026-08-05T07:49:02.000Z</time>
        <extensions>
          <ns3:TrackPointExtension>
            <ns3:hr>73</ns3:hr>
            <ns3:cad>48</ns3:cad>
          </ns3:TrackPointExtension>
        </extensions>
      </trkpt>
      <trkpt lat="43.46399269066751003265380859375" lon="1.47055353038012981414794921875">
        <ele>262.20001220703125</ele>
        <time>2026-08-05T07:49:03.000Z</time>
        <extensions>
          <ns3:TrackPointExtension>
            <ns3:hr>74</ns3:hr>
            <ns3:cad>49</ns3:cad>
          </ns3:TrackPointExtension>
        </extensions>
      </trkpt>
      <trkpt lat="43.46400023438036441802978515625" lon="1.47055822424590587615966796875">
        <ele>262</ele>
        <time>2026-08-05T07:49:04.000Z</time>
        <extensions>
          <ns3:TrackPointExtension>
            <ns3:hr>74</ns3:hr>
            <ns3:cad>49</ns3:cad>
          </ns3:TrackPointExtension>
        </extensions>
      </trkpt>
      <trkpt lat="43.46401046030223369598388671875" lon="1.47056241519749164581298828125">
        <ele>262</ele>
        <time>2026-08-05T07:49:05.000Z</time>
        <extensions>
          <ns3:TrackPointExtension>
            <ns3:hr>75</ns3:hr>
            <ns3:cad>48</ns3:cad>
          </ns3:TrackPointExtension>
        </extensions>
      </trkpt>
      <trkpt lat="43.4640217758715152740478515625" lon="1.47056593559682369232177734375">
        <ele>261.79998779296875</ele>
        <time>2026-08-05T07:49:06.000Z</time>
        <extensions>
          <ns3:TrackPointExtension>
            <ns3:hr>75</ns3:hr>
            <ns3:cad>47</ns3:cad>
          </ns3:TrackPointExtension>
        </extensions>
      </trkpt>
      <trkpt lat="43.46403191797435283660888671875" lon="1.47056794725358486175537109375">
        <ele>261.79998779296875</ele>
        <time>2026-08-05T07:49:07.000Z</time>
        <extensions>
          <ns3:TrackPointExtension>
            <ns3:hr>75</ns3:hr>
            <ns3:cad>47</ns3:cad>
          </ns3:TrackPointExtension>
        </extensions>
      </trkpt>
      <trkpt lat="43.46404650248587131500244140625" lon="1.47057130001485347747802734375">
        <ele>261.600006103515625</ele>
        <time>2026-08-05T07:49:08.000Z</time>
        <extensions>
          <ns3:TrackPointExtension>
            <ns3:hr>75</ns3:hr>
            <ns3:cad>47</ns3:cad>
          </ns3:TrackPointExtension>
        </extensions>
      </trkpt>
      <trkpt lat="43.46405287273228168487548828125" lon="1.47056912072002887725830078125">
        <ele>261.600006103515625</ele>
        <time>2026-08-05T07:49:09.000Z</time>
        <extensions>
          <ns3:TrackPointExtension>
            <ns3:hr>75</ns3:hr>
            <ns3:cad>47</ns3:cad>
          </ns3:TrackPointExtension>
        </extensions>
      </trkpt>
      <trkpt lat="43.46406050026416778564453125" lon="1.4705722220242023468017578125">
        <ele>261.600006103515625</ele>
        <time>2026-08-05T07:49:10.000Z</time>
        <extensions>
          <ns3:TrackPointExtension>
            <ns3:hr>75</ns3:hr>
            <ns3:cad>46</ns3:cad>
          </ns3:TrackPointExtension>
        </extensions>
      </trkpt>
      <trkpt lat="43.46407064236700534820556640625" lon="1.470571048557758331298828125">
        <ele>261.600006103515625</ele>
        <time>2026-08-05T07:49:11.000Z</time>
        <extensions>
          <ns3:TrackPointExtension>
            <ns3:hr>75</ns3:hr>
            <ns3:cad>46</ns3:cad>
          </ns3:TrackPointExtension>
        </extensions>
      </trkpt>
      <trkpt lat="43.46407927572727203369140625" lon="1.470573060214519500732421875">
        <ele>261.600006103515625</ele>
        <time>2026-08-05T07:49:12.000Z</time>
        <extensions>
          <ns3:TrackPointExtension>
            <ns3:hr>76</ns3:hr>
            <ns3:cad>0</ns3:cad>
          </ns3:TrackPointExtension>
        </extensions>
      </trkpt>
      <trkpt lat="43.4640911780297756195068359375" lon="1.47057297639548778533935546875">
        <ele>261.600006103515625</ele>
        <time>2026-08-05T07:49:13.000Z</time>
        <extensions>
          <ns3:TrackPointExtension>
            <ns3:hr>76</ns3:hr>
            <ns3:cad>0</ns3:cad>
          </ns3:TrackPointExtension>
        </extensions>
      </trkpt>
      <trkpt lat="43.46410064958035945892333984375" lon="1.47057699970901012420654296875">
        <ele>261.600006103515625</ele>
        <time>2026-08-05T07:49:14.000Z</time>
        <extensions>
          <ns3:TrackPointExtension>
            <ns3:hr>75</ns3:hr>
            <ns3:cad>45</ns3:cad>
          </ns3:TrackPointExtension>
        </extensions>
      </trkpt>
      <trkpt lat="43.46411741338670253753662109375" lon="1.47058068774640560150146484375">
        <ele>261.600006103515625</ele>
        <time>2026-08-05T07:49:15.000Z</time>
        <extensions>
          <ns3:TrackPointExtension>
            <ns3:hr>75</ns3:hr>
            <ns3:cad>45</ns3:cad>
          </ns3:TrackPointExtension>
        </extensions>
      </trkpt>
      <trkpt lat="43.46412956714630126953125" lon="1.47057901136577129364013671875">
        <ele>261.399993896484375</ele>
        <time>2026-08-05T07:49:16.000Z</time>
        <extensions>
          <ns3:TrackPointExtension>
            <ns3:hr>75</ns3:hr>
            <ns3:cad>45</ns3:cad>
          </ns3:TrackPointExtension>
        </extensions>
      </trkpt>
      <trkpt lat="43.464139290153980255126953125" lon="1.4705802686512470245361328125">
        <ele>261.399993896484375</ele>
        <time>2026-08-05T07:49:17.000Z</time>
        <extensions>
          <ns3:TrackPointExtension>
            <ns3:hr>76</ns3:hr>
            <ns3:cad>45</ns3:cad>
          </ns3:TrackPointExtension>
        </extensions>
      </trkpt>
      <trkpt lat="43.4641488455235958099365234375" lon="1.47058236412703990936279296875">
        <ele>261.399993896484375</ele>
        <time>2026-08-05T07:49:18.000Z</time>
        <extensions>
          <ns3:TrackPointExtension>
            <ns3:hr>76</ns3:hr>
            <ns3:cad>47</ns3:cad>
          </ns3:TrackPointExtension>
        </extensions>
      </trkpt>
      <trkpt lat="43.46415395848453044891357421875" lon="1.4705795980989933013916015625">
        <ele>261.399993896484375</ele>
        <time>2026-08-05T07:49:19.000Z</time>
        <extensions>
          <ns3:TrackPointExtension>
            <ns3:hr>76</ns3:hr>
            <ns3:cad>47</ns3:cad>
          </ns3:TrackPointExtension>
        </extensions>
      </trkpt>
      <trkpt lat="43.46416644752025604248046875" lon="1.470577083528041839599609375">
        <ele>261.399993896484375</ele>
        <time>2026-08-05T07:49:20.000Z</time>
        <extensions>
          <ns3:TrackPointExtension>
            <ns3:hr>76</ns3:hr>
            <ns3:cad>47</ns3:cad>
          </ns3:TrackPointExtension>
        </extensions>
      </trkpt>
      <trkpt lat="43.4641778469085693359375" lon="1.47057230584323406219482421875">
        <ele>261.399993896484375</ele>
        <time>2026-08-05T07:49:21.000Z</time>
        <extensions>
          <ns3:TrackPointExtension>
            <ns3:hr>76</ns3:hr>
            <ns3:cad>48</ns3:cad>
          </ns3:TrackPointExtension>
        </extensions>
      </trkpt>
      <trkpt lat="43.4641880728304386138916015625" lon="1.47056895308196544647216796875">
        <ele>261.20001220703125</ele>
        <time>2026-08-05T07:49:22.000Z</time>
        <extensions>
          <ns3:TrackPointExtension>
            <ns3:hr>76</ns3:hr>
            <ns3:cad>48</ns3:cad>
          </ns3:TrackPointExtension>
        </extensions>
      </trkpt>
      <trkpt lat="43.4641988016664981842041015625" lon="1.47056761197745800018310546875">
        <ele>261.20001220703125</ele>
        <time>2026-08-05T07:49:23.000Z</time>
        <extensions>
          <ns3:TrackPointExtension>
            <ns3:hr>76</ns3:hr>
            <ns3:cad>48</ns3:cad>
          </ns3:TrackPointExtension>
        </extensions>
      </trkpt>
      <trkpt lat="43.4642068482935428619384765625" lon="1.470572054386138916015625">
        <ele>261.20001220703125</ele>
        <time>2026-08-05T07:49:24.000Z</time>
        <extensions>
          <ns3:TrackPointExtension>
            <ns3:hr>76</ns3:hr>
            <ns3:cad>48</ns3:cad>
          </ns3:TrackPointExtension>
        </extensions>
      </trkpt>
      <trkpt lat="43.46422067843377590179443359375" lon="1.470569707453250885009765625">
        <ele>261.20001220703125</ele>
        <time>2026-08-05T07:49:25.000Z</time>
        <extensions>
          <ns3:TrackPointExtension>
            <ns3:hr>76</ns3:hr>
            <ns3:cad>48</ns3:cad>
          </ns3:TrackPointExtension>
        </extensions>
      </trkpt>
      <trkpt lat="43.464234508574008941650390625" lon="1.4705626666545867919921875">
        <ele>261.20001220703125</ele>
        <time>2026-08-05T07:49:26.000Z</time>
        <extensions>
          <ns3:TrackPointExtension>
            <ns3:hr>75</ns3:hr>
            <ns3:cad>48</ns3:cad>
          </ns3:TrackPointExtension>
        </extensions>
      </trkpt>
      <trkpt lat="43.46424917690455913543701171875" lon="1.47055671550333499908447265625">
        <ele>261.20001220703125</ele>
        <time>2026-08-05T07:49:27.000Z</time>
        <extensions>
          <ns3:TrackPointExtension>
            <ns3:hr>76</ns3:hr>
            <ns3:cad>49</ns3:cad>
          </ns3:TrackPointExtension>
        </extensions>
      </trkpt>
      <trkpt lat="43.46426107920706272125244140625" lon="1.47055520676076412200927734375">
        <ele>261.20001220703125</ele>
        <time>2026-08-05T07:49:28.000Z</time>
        <extensions>
          <ns3:TrackPointExtension>
            <ns3:hr>75</ns3:hr>
            <ns3:cad>49</ns3:cad>
          </ns3:TrackPointExtension>
        </extensions>
      </trkpt>
      <trkpt lat="43.46427113749086856842041015625" lon="1.47055126726627349853515625">
        <ele>261.20001220703125</ele>
        <time>2026-08-05T07:49:29.000Z</time>
        <extensions>
          <ns3:TrackPointExtension>
            <ns3:hr>76</ns3:hr>
            <ns3:cad>49</ns3:cad>
          </ns3:TrackPointExtension>
        </extensions>
      </trkpt>
      <trkpt lat="43.46427633427083492279052734375" lon="1.47054498083889484405517578125">
        <ele>261.20001220703125</ele>
        <time>2026-08-05T07:49:30.000Z</time>
        <extensions>
          <ns3:TrackPointExtension>
            <ns3:hr>75</ns3:hr>
            <ns3:cad>49</ns3:cad>
          </ns3:TrackPointExtension>
        </extensions>
      </trkpt>
      <trkpt lat="43.46428706310689449310302734375" lon="1.4705385267734527587890625">
        <ele>261.20001220703125</ele>
        <time>2026-08-05T07:49:31.000Z</time>
        <extensions>
          <ns3:TrackPointExtension>
            <ns3:hr>75</ns3:hr>
            <ns3:cad>49</ns3:cad>
          </ns3:TrackPointExtension>
        </extensions>
      </trkpt>
      <trkpt lat="43.46429653465747833251953125" lon="1.4705333299934864044189453125">
        <ele>261</ele>
        <time>2026-08-05T07:49:32.000Z</time>
        <extensions>
          <ns3:TrackPointExtension>
            <ns3:hr>75</ns3:hr>
            <ns3:cad>48</ns3:cad>
          </ns3:TrackPointExtension>
        </extensions>
      </trkpt>
      <trkpt lat="43.464306257665157318115234375" lon="1.47053140215575695037841796875">
        <ele>261</ele>
        <time>2026-08-05T07:49:33.000Z</time>
        <extensions>
          <ns3:TrackPointExtension>
            <ns3:hr>75</ns3:hr>
            <ns3:cad>48</ns3:cad>
          </ns3:TrackPointExtension>
        </extensions>
      </trkpt>
      <trkpt lat="43.46431589685380458831787109375" lon="1.47053173743188381195068359375">
        <ele>260.79998779296875</ele>
        <time>2026-08-05T07:49:34.000Z</time>
        <extensions>
          <ns3:TrackPointExtension>
            <ns3:hr>76</ns3:hr>
            <ns3:cad>49</ns3:cad>
          </ns3:TrackPointExtension>
        </extensions>
      </trkpt>
      <trkpt lat="43.46432377584278583526611328125" lon="1.47052846848964691162109375">
        <ele>260.79998779296875</ele>
        <time>2026-08-05T07:49:35.000Z</time>
        <extensions>
          <ns3:TrackPointExtension>
            <ns3:hr>76</ns3:hr>
            <ns3:cad>49</ns3:cad>
          </ns3:TrackPointExtension>
        </extensions>
      </trkpt>
      <trkpt lat="43.46433618105947971343994140625" lon="1.4705246128141880035400390625">
        <ele>260.79998779296875</ele>
        <time>2026-08-05T07:49:36.000Z</time>
        <extensions>
          <ns3:TrackPointExtension>
            <ns3:hr>77</ns3:hr>
            <ns3:cad>49</ns3:cad>
          </ns3:TrackPointExtension>
        </extensions>
      </trkpt>
      <trkpt lat="43.464348502457141876220703125" lon="1.47052017040550708770751953125">
        <ele>260.79998779296875</ele>
        <time>2026-08-05T07:49:37.000Z</time>
        <extensions>
          <ns3:TrackPointExtension>
            <ns3:hr>79</ns3:hr>
            <ns3:cad>49</ns3:cad>
          </ns3:TrackPointExtension>
        </extensions>
      </trkpt>
      <trkpt lat="43.464357890188694000244140625" lon="1.47051514126360416412353515625">
        <ele>261</ele>
        <time>2026-08-05T07:49:38.000Z</time>
        <extensions>
          <ns3:TrackPointExtension>
            <ns3:hr>79</ns3:hr>
            <ns3:cad>49</ns3:cad>
          </ns3:TrackPointExtension>
        </extensions>
      </trkpt>
      <trkpt lat="43.464366607367992401123046875" lon="1.470511369407176971435546875">
        <ele>261</ele>
        <time>2026-08-05T07:49:39.000Z</time>
        <extensions>
          <ns3:TrackPointExtension>
            <ns3:hr>79</ns3:hr>
            <ns3:cad>48</ns3:cad>
          </ns3:TrackPointExtension>
        </extensions>
      </trkpt>
      <trkpt lat="43.4643761627376079559326171875" lon="1.470510698854923248291015625">
        <ele>261</ele>
        <time>2026-08-05T07:49:40.000Z</time>
        <extensions>
          <ns3:TrackPointExtension>
            <ns3:hr>79</ns3:hr>
            <ns3:cad>48</ns3:cad>
          </ns3:TrackPointExtension>
        </extensions>
      </trkpt>
      <trkpt lat="43.46438370645046234130859375" lon="1.47051036357879638671875">
        <ele>260.79998779296875</ele>
        <time>2026-08-05T07:49:41.000Z</time>
        <extensions>
          <ns3:TrackPointExtension>
            <ns3:hr>78</ns3:hr>
            <ns3:cad>48</ns3:cad>
          </ns3:TrackPointExtension>
        </extensions>
      </trkpt>
      <trkpt lat="43.46439217217266559600830078125" lon="1.4705078490078449249267578125">
        <ele>260.79998779296875</ele>
        <time>2026-08-05T07:49:42.000Z</time>
        <extensions>
          <ns3:TrackPointExtension>
            <ns3:hr>77</ns3:hr>
            <ns3:cad>50</ns3:cad>
          </ns3:TrackPointExtension>
        </extensions>
      </trkpt>
      <trkpt lat="43.464405834674835205078125" lon="1.47050122730433940887451171875">
        <ele>260.79998779296875</ele>
        <time>2026-08-05T07:49:43.000Z</time>
        <extensions>
          <ns3:TrackPointExtension>
            <ns3:hr>77</ns3:hr>
            <ns3:cad>50</ns3:cad>
          </ns3:TrackPointExtension>
        </extensions>
      </trkpt>
      <trkpt lat="43.46442150883376598358154296875" lon="1.47049921564757823944091796875">
        <ele>260.600006103515625</ele>
        <time>2026-08-05T07:49:44.000Z</time>
        <extensions>
          <ns3:TrackPointExtension>
            <ns3:hr>77</ns3:hr>
            <ns3:cad>50</ns3:cad>
          </ns3:TrackPointExtension>
        </extensions>
      </trkpt>
      <trkpt lat="43.46443491987884044647216796875" lon="1.4704971201717853546142578125">
        <ele>260.600006103515625</ele>
        <time>2026-08-05T07:49:45.000Z</time>
        <extensions>
          <ns3:TrackPointExtension>
            <ns3:hr>77</ns3:hr>
            <ns3:cad>50</ns3:cad>
          </ns3:TrackPointExtension>
        </extensions>
      </trkpt>
      <trkpt lat="43.46444665454328060150146484375" lon="1.47049485705792903900146484375">
        <ele>260.600006103515625</ele>
        <time>2026-08-05T07:49:46.000Z</time>
        <extensions>
          <ns3:TrackPointExtension>
            <ns3:hr>77</ns3:hr>
            <ns3:cad>50</ns3:cad>
          </ns3:TrackPointExtension>
        </extensions>
      </trkpt>
      <trkpt lat="43.46446073614060878753662109375" lon="1.4704929292201995849609375">
        <ele>260.600006103515625</ele>
        <time>2026-08-05T07:49:47.000Z</time>
        <extensions>
          <ns3:TrackPointExtension>
            <ns3:hr>77</ns3:hr>
            <ns3:cad>50</ns3:cad>
          </ns3:TrackPointExtension>
        </extensions>
      </trkpt>
      <trkpt lat="43.464473225176334381103515625" lon="1.4704914204776287078857421875">
        <ele>260.600006103515625</ele>
        <time>2026-08-05T07:49:48.000Z</time>
        <extensions>
          <ns3:TrackPointExtension>
            <ns3:hr>77</ns3:hr>
            <ns3:cad>50</ns3:cad>
          </ns3:TrackPointExtension>
        </extensions>
      </trkpt>
      <trkpt lat="43.46448336727917194366455078125" lon="1.470487229526042938232421875">
        <ele>260.600006103515625</ele>
        <time>2026-08-05T07:49:49.000Z</time>
        <extensions>
          <ns3:TrackPointExtension>
            <ns3:hr>77</ns3:hr>
            <ns3:cad>50</ns3:cad>
          </ns3:TrackPointExtension>
        </extensions>
      </trkpt>
      <trkpt lat="43.4644935093820095062255859375" lon="1.4704830385744571685791015625">
        <ele>260.399993896484375</ele>
        <time>2026-08-05T07:49:50.000Z</time>
        <extensions>
          <ns3:TrackPointExtension>
            <ns3:hr>77</ns3:hr>
            <ns3:cad>50</ns3:cad>
          </ns3:TrackPointExtension>
        </extensions>
      </trkpt>
      <trkpt lat="43.464500047266483306884765625" lon="1.47047675214707851409912109375">
        <ele>260.399993896484375</ele>
        <time>2026-08-05T07:49:51.000Z</time>
        <extensions>
          <ns3:TrackPointExtension>
            <ns3:hr>77</ns3:hr>
            <ns3:cad>51</ns3:cad>
          </ns3:TrackPointExtension>
        </extensions>
      </trkpt>
      <trkpt lat="43.4645102731883525848388671875" lon="1.470472477376461029052734375">
        <ele>260.20001220703125</ele>
        <time>2026-08-05T07:49:52.000Z</time>
        <extensions>
          <ns3:TrackPointExtension>
            <ns3:hr>78</ns3:hr>
            <ns3:cad>50</ns3:cad>
          </ns3:TrackPointExtension>
        </extensions>
      </trkpt>
      <trkpt lat="43.46452058292925357818603515625" lon="1.47047004662454128265380859375">
        <ele>260.20001220703125</ele>
        <time>2026-08-05T07:49:53.000Z</time>
        <extensions>
          <ns3:TrackPointExtension>
            <ns3:hr>77</ns3:hr>
            <ns3:cad>50</ns3:cad>
          </ns3:TrackPointExtension>
        </extensions>
      </trkpt>
      <trkpt lat="43.464532904326915740966796875" lon="1.4704676158726215362548828125">
        <ele>260.20001220703125</ele>
        <time>2026-08-05T07:49:54.000Z</time>
        <extensions>
          <ns3:TrackPointExtension>
            <ns3:hr>77</ns3:hr>
            <ns3:cad>50</ns3:cad>
          </ns3:TrackPointExtension>
        </extensions>
      </trkpt>
      <trkpt lat="43.46454556100070476531982421875" lon="1.47046082653105258941650390625">
        <ele>260</ele>
        <time>2026-08-05T07:49:55.000Z</time>
        <extensions>
          <ns3:TrackPointExtension>
            <ns3:hr>77</ns3:hr>
            <ns3:cad>50</ns3:cad>
          </ns3:TrackPointExtension>
        </extensions>
      </trkpt>
      <trkpt lat="43.46455913968384265899658203125" lon="1.470454037189483642578125">
        <ele>260</ele>
        <time>2026-08-05T07:49:56.000Z</time>
        <extensions>
          <ns3:TrackPointExtension>
            <ns3:hr>77</ns3:hr>
            <ns3:cad>50</ns3:cad>
          </ns3:TrackPointExtension>
        </extensions>
      </trkpt>
      <trkpt lat="43.4645716287195682525634765625" lon="1.4704500138759613037109375">
        <ele>260</ele>
        <time>2026-08-05T07:49:57.000Z</time>
        <extensions>
          <ns3:TrackPointExtension>
            <ns3:hr>76</ns3:hr>
            <ns3:cad>48</ns3:cad>
          </ns3:TrackPointExtension>
        </extensions>
      </trkpt>
      <trkpt lat="43.46458395011723041534423828125" lon="1.4704478345811367034912109375">
        <ele>260</ele>
        <time>2026-08-05T07:49:58.000Z</time>
        <extensions>
          <ns3:TrackPointExtension>
            <ns3:hr>75</ns3:hr>
            <ns3:cad>49</ns3:cad>
          </ns3:TrackPointExtension>
        </extensions>
      </trkpt>
      <trkpt lat="43.464593924582004547119140625" lon="1.47044532001018524169921875">
        <ele>260</ele>
        <time>2026-08-05T07:49:59.000Z</time>
        <extensions>
          <ns3:TrackPointExtension>
            <ns3:hr>75</ns3:hr>
            <ns3:cad>49</ns3:cad>
          </ns3:TrackPointExtension>
        </extensions>
      </trkpt>
      <trkpt lat="43.4646061621606349945068359375" lon="1.470440961420536041259765625">
        <ele>260</ele>
        <time>2026-08-05T07:50:00.000Z</time>
        <extensions>
          <ns3:TrackPointExtension>
            <ns3:hr>74</ns3:hr>
            <ns3:cad>50</ns3:cad>
          </ns3:TrackPointExtension>
        </extensions>
      </trkpt>
      <trkpt lat="43.46461915411055088043212890625" lon="1.47043568082153797149658203125">
        <ele>259.79998779296875</ele>
        <time>2026-08-05T07:50:01.000Z</time>
        <extensions>
          <ns3:TrackPointExtension>
            <ns3:hr>74</ns3:hr>
            <ns3:cad>50</ns3:cad>
          </ns3:TrackPointExtension>
        </extensions>
      </trkpt>
      <trkpt lat="43.4646296314895153045654296875" lon="1.47043031640350818634033203125">
        <ele>259.79998779296875</ele>
        <time>2026-08-05T07:50:02.000Z</time>
        <extensions>
          <ns3:TrackPointExtension>
            <ns3:hr>74</ns3:hr>
            <ns3:cad>50</ns3:cad>
          </ns3:TrackPointExtension>
        </extensions>
      </trkpt>
      <trkpt lat="43.464642204344272613525390625" lon="1.470426879823207855224609375">
        <ele>259.79998779296875</ele>
        <time>2026-08-05T07:50:03.000Z</time>
        <extensions>
          <ns3:TrackPointExtension>
            <ns3:hr>73</ns3:hr>
            <ns3:cad>49</ns3:cad>
          </ns3:TrackPointExtension>
        </extensions>
      </trkpt>
      <trkpt lat="43.4646507538855075836181640625" lon="1.4704243652522563934326171875">
        <ele>259.79998779296875</ele>
        <time>2026-08-05T07:50:04.000Z</time>
        <extensions>
          <ns3:TrackPointExtension>
            <ns3:hr>73</ns3:hr>
            <ns3:cad>49</ns3:cad>
          </ns3:TrackPointExtension>
        </extensions>
      </trkpt>
      <trkpt lat="43.4646577946841716766357421875" lon="1.47042210213840007781982421875">
        <ele>259.79998779296875</ele>
        <time>2026-08-05T07:50:05.000Z</time>
        <extensions>
          <ns3:TrackPointExtension>
            <ns3:hr>73</ns3:hr>
            <ns3:cad>50</ns3:cad>
          </ns3:TrackPointExtension>
        </extensions>
      </trkpt>
      <trkpt lat="43.4646688587963581085205078125" lon="1.47041589953005313873291015625">
        <ele>259.79998779296875</ele>
        <time>2026-08-05T07:50:06.000Z</time>
        <extensions>
          <ns3:TrackPointExtension>
            <ns3:hr>72</ns3:hr>
            <ns3:cad>50</ns3:cad>
          </ns3:TrackPointExtension>
        </extensions>
      </trkpt>
      <trkpt lat="43.46467916853725910186767578125" lon="1.47040952928364276885986328125">
        <ele>259.79998779296875</ele>
        <time>2026-08-05T07:50:07.000Z</time>
        <extensions>
          <ns3:TrackPointExtension>
            <ns3:hr>72</ns3:hr>
            <ns3:cad>50</ns3:cad>
          </ns3:TrackPointExtension>
        </extensions>
      </trkpt>
      <trkpt lat="43.4646869637072086334228515625" lon="1.4704029075801372528076171875">
        <ele>259.79998779296875</ele>
        <time>2026-08-05T07:50:08.000Z</time>
        <extensions>
          <ns3:TrackPointExtension>
            <ns3:hr>72</ns3:hr>
            <ns3:cad>49</ns3:cad>
          </ns3:TrackPointExtension>
        </extensions>
      </trkpt>
      <trkpt lat="43.4646970219910144805908203125" lon="1.470402069389820098876953125">
        <ele>259.600006103515625</ele>
        <time>2026-08-05T07:50:09.000Z</time>
        <extensions>
          <ns3:TrackPointExtension>
            <ns3:hr>72</ns3:hr>
            <ns3:cad>49</ns3:cad>
          </ns3:TrackPointExtension>
        </extensions>
      </trkpt>
      <trkpt lat="43.4647077508270740509033203125" lon="1.4704017341136932373046875">
        <ele>259.600006103515625</ele>
        <time>2026-08-05T07:50:10.000Z</time>
        <extensions>
          <ns3:TrackPointExtension>
            <ns3:hr>72</ns3:hr>
            <ns3:cad>48</ns3:cad>
          </ns3:TrackPointExtension>
        </extensions>
      </trkpt>
      <trkpt lat="43.4647198207676410675048828125" lon="1.47039963863790035247802734375">
        <ele>259.600006103515625</ele>
        <time>2026-08-05T07:50:11.000Z</time>
        <extensions>
          <ns3:TrackPointExtension>
            <ns3:hr>72</ns3:hr>
            <ns3:cad>48</ns3:cad>
          </ns3:TrackPointExtension>
        </extensions>
      </trkpt>
      <trkpt lat="43.46473230980336666107177734375" lon="1.47039427421987056732177734375">
        <ele>259.600006103515625</ele>
        <time>2026-08-05T07:50:12.000Z</time>
        <extensions>
          <ns3:TrackPointExtension>
            <ns3:hr>72</ns3:hr>
            <ns3:cad>49</ns3:cad>
          </ns3:TrackPointExtension>
        </extensions>
      </trkpt>
      <trkpt lat="43.46474714577198028564453125" lon="1.47038689814507961273193359375">
        <ele>259.600006103515625</ele>
        <time>2026-08-05T07:50:13.000Z</time>
        <extensions>
          <ns3:TrackPointExtension>
            <ns3:hr>72</ns3:hr>
            <ns3:cad>49</ns3:cad>
          </ns3:TrackPointExtension>
        </extensions>
      </trkpt>
      <trkpt lat="43.4647577069699764251708984375" lon="1.47038136608898639678955078125">
        <ele>259.600006103515625</ele>
        <time>2026-08-05T07:50:14.000Z</time>
        <extensions>
          <ns3:TrackPointExtension>
            <ns3:hr>72</ns3:hr>
            <ns3:cad>49</ns3:cad>
          </ns3:TrackPointExtension>
        </extensions>
      </trkpt>
      <trkpt lat="43.46476701088249683380126953125" lon="1.470377258956432342529296875">
        <ele>259.600006103515625</ele>
        <time>2026-08-05T07:50:15.000Z</time>
        <extensions>
          <ns3:TrackPointExtension>
            <ns3:hr>72</ns3:hr>
            <ns3:cad>49</ns3:cad>
          </ns3:TrackPointExtension>
        </extensions>
      </trkpt>
      <trkpt lat="43.46477472223341464996337890625" lon="1.47037583403289318084716796875">
        <ele>259.399993896484375</ele>
        <time>2026-08-05T07:50:16.000Z</time>
        <extensions>
          <ns3:TrackPointExtension>
            <ns3:hr>72</ns3:hr>
            <ns3:cad>50</ns3:cad>
          </ns3:TrackPointExtension>
        </extensions>
      </trkpt>
      <trkpt lat="43.46478461287915706634521484375" lon="1.47037147544324398040771484375">
        <ele>259.399993896484375</ele>
        <time>2026-08-05T07:50:17.000Z</time>
        <extensions>
          <ns3:TrackPointExtension>
            <ns3:hr>72</ns3:hr>
            <ns3:cad>50</ns3:cad>
          </ns3:TrackPointExtension>
        </extensions>
      </trkpt>
      <trkpt lat="43.46479550935328006744384765625" lon="1.47036644630134105682373046875">
        <ele>259.399993896484375</ele>
        <time>2026-08-05T07:50:18.000Z</time>
        <extensions>
          <ns3:TrackPointExtension>
            <ns3:hr>72</ns3:hr>
            <ns3:cad>48</ns3:cad>
          </ns3:TrackPointExtension>
        </extensions>
      </trkpt>
      <trkpt lat="43.46480556763708591461181640625" lon="1.4703606627881526947021484375">
        <ele>259.399993896484375</ele>
        <time>2026-08-05T07:50:19.000Z</time>
        <extensions>
          <ns3:TrackPointExtension>
            <ns3:hr>72</ns3:hr>
            <ns3:cad>48</ns3:cad>
          </ns3:TrackPointExtension>
        </extensions>
      </trkpt>
      <trkpt lat="43.46481822431087493896484375" lon="1.4703566394746303558349609375">
        <ele>259.399993896484375</ele>
        <time>2026-08-05T07:50:20.000Z</time>
        <extensions>
          <ns3:TrackPointExtension>
            <ns3:hr>72</ns3:hr>
            <ns3:cad>49</ns3:cad>
          </ns3:TrackPointExtension>
        </extensions>
      </trkpt>
      <trkpt lat="43.4648287855088710784912109375" lon="1.47035404108464717864990234375">
        <ele>259.399993896484375</ele>
        <time>2026-08-05T07:50:21.000Z</time>
        <extensions>
          <ns3:TrackPointExtension>
            <ns3:hr>72</ns3:hr>
            <ns3:cad>49</ns3:cad>
          </ns3:TrackPointExtension>
        </extensions>
      </trkpt>
      <trkpt lat="43.46483842469751834869384765625" lon="1.47034599445760250091552734375">
        <ele>259.20001220703125</ele>
        <time>2026-08-05T07:50:22.000Z</time>
        <extensions>
          <ns3:TrackPointExtension>
            <ns3:hr>73</ns3:hr>
            <ns3:cad>50</ns3:cad>
          </ns3:TrackPointExtension>
        </extensions>
      </trkpt>
      <trkpt lat="43.4648519195616245269775390625" lon="1.4703408814966678619384765625">
        <ele>259.20001220703125</ele>
        <time>2026-08-05T07:50:23.000Z</time>
        <extensions>
          <ns3:TrackPointExtension>
            <ns3:hr>73</ns3:hr>
            <ns3:cad>50</ns3:cad>
          </ns3:TrackPointExtension>
        </extensions>
      </trkpt>
      <trkpt lat="43.46486474387347698211669921875" lon="1.47033526562154293060302734375">
        <ele>259.20001220703125</ele>
        <time>2026-08-05T07:50:24.000Z</time>
        <extensions>
          <ns3:TrackPointExtension>
            <ns3:hr>73</ns3:hr>
            <ns3:cad>50</ns3:cad>
          </ns3:TrackPointExtension>
        </extensions>
      </trkpt>
      <trkpt lat="43.4648767299950122833251953125" lon="1.4703311584889888763427734375">
        <ele>259.20001220703125</ele>
        <time>2026-08-05T07:50:25.000Z</time>
        <extensions>
          <ns3:TrackPointExtension>
            <ns3:hr>73</ns3:hr>
            <ns3:cad>50</ns3:cad>
          </ns3:TrackPointExtension>
        </extensions>
      </trkpt>
      <trkpt lat="43.46488720737397670745849609375" lon="1.4703274704515933990478515625">
        <ele>259</ele>
        <time>2026-08-05T07:50:26.000Z</time>
        <extensions>
          <ns3:TrackPointExtension>
            <ns3:hr>73</ns3:hr>
            <ns3:cad>50</ns3:cad>
          </ns3:TrackPointExtension>
        </extensions>
      </trkpt>
      <trkpt lat="43.46489869058132171630859375" lon="1.47032327950000762939453125">
        <ele>259</ele>
        <time>2026-08-05T07:50:27.000Z</time>
        <extensions>
          <ns3:TrackPointExtension>
            <ns3:hr>73</ns3:hr>
            <ns3:cad>50</ns3:cad>
          </ns3:TrackPointExtension>
        </extensions>
      </trkpt>
      <trkpt lat="43.46490539610385894775390625" lon="1.4703237824141979217529296875">
        <ele>259</ele>
        <time>2026-08-05T07:50:28.000Z</time>
        <extensions>
          <ns3:TrackPointExtension>
            <ns3:hr>72</ns3:hr>
            <ns3:cad>50</ns3:cad>
          </ns3:TrackPointExtension>
        </extensions>
      </trkpt>
      <trkpt lat="43.4649146161973476409912109375" lon="1.4703204296529293060302734375">
        <ele>259</ele>
        <time>2026-08-05T07:50:29.000Z</time>
        <extensions>
          <ns3:TrackPointExtension>
            <ns3:hr>72</ns3:hr>
            <ns3:cad>50</ns3:cad>
          </ns3:TrackPointExtension>
        </extensions>
      </trkpt>
      <trkpt lat="43.46492811106145381927490234375" lon="1.4703137241303920745849609375">
        <ele>259</ele>
        <time>2026-08-05T07:50:30.000Z</time>
        <extensions>
          <ns3:TrackPointExtension>
            <ns3:hr>72</ns3:hr>
            <ns3:cad>50</ns3:cad>
          </ns3:TrackPointExtension>
        </extensions>
      </trkpt>
      <trkpt lat="43.46493615768849849700927734375" lon="1.47031246684491634368896484375">
        <ele>259</ele>
        <time>2026-08-05T07:50:31.000Z</time>
        <extensions>
          <ns3:TrackPointExtension>
            <ns3:hr>72</ns3:hr>
            <ns3:cad>50</ns3:cad>
          </ns3:TrackPointExtension>
        </extensions>
      </trkpt>
      <trkpt lat="43.46494697034358978271484375" lon="1.47031313739717006683349609375">
        <ele>259</ele>
        <time>2026-08-05T07:50:32.000Z</time>
        <extensions>
          <ns3:TrackPointExtension>
            <ns3:hr>72</ns3:hr>
            <ns3:cad>50</ns3:cad>
          </ns3:TrackPointExtension>
        </extensions>
      </trkpt>
      <trkpt lat="43.464954681694507598876953125" lon="1.4703177474439144134521484375">
        <ele>259</ele>
        <time>2026-08-05T07:50:33.000Z</time>
        <extensions>
          <ns3:TrackPointExtension>
            <ns3:hr>72</ns3:hr>
            <ns3:cad>49</ns3:cad>
          </ns3:TrackPointExtension>
        </extensions>
      </trkpt>
      <trkpt lat="43.46496641635894775390625" lon="1.47031313739717006683349609375">
        <ele>259</ele>
        <time>2026-08-05T07:50:34.000Z</time>
        <extensions>
          <ns3:TrackPointExtension>
            <ns3:hr>72</ns3:hr>
            <ns3:cad>49</ns3:cad>
          </ns3:TrackPointExtension>
        </extensions>
      </trkpt>
      <trkpt lat="43.4649811685085296630859375" lon="1.47031179629266262054443359375">
        <ele>258.79998779296875</ele>
        <time>2026-08-05T07:50:35.000Z</time>
        <extensions>
          <ns3:TrackPointExtension>
            <ns3:hr>72</ns3:hr>
            <ns3:cad>48</ns3:cad>
          </ns3:TrackPointExtension>
        </extensions>
      </trkpt>
      <trkpt lat="43.464995585381984710693359375" lon="1.47030760534107685089111328125">
        <ele>258.79998779296875</ele>
        <time>2026-08-05T07:50:36.000Z</time>
        <extensions>
          <ns3:TrackPointExtension>
            <ns3:hr>72</ns3:hr>
            <ns3:cad>48</ns3:cad>
          </ns3:TrackPointExtension>
        </extensions>
      </trkpt>
      <trkpt lat="43.46500589512288570404052734375" lon="1.47030576132237911224365234375">
        <ele>258.79998779296875</ele>
        <time>2026-08-05T07:50:37.000Z</time>
        <extensions>
          <ns3:TrackPointExtension>
            <ns3:hr>72</ns3:hr>
            <ns3:cad>48</ns3:cad>
          </ns3:TrackPointExtension>
        </extensions>
      </trkpt>
      <trkpt lat="43.46501360647380352020263671875" lon="1.470303498208522796630859375">
        <ele>258.600006103515625</ele>
        <time>2026-08-05T07:50:38.000Z</time>
        <extensions>
          <ns3:TrackPointExtension>
            <ns3:hr>71</ns3:hr>
            <ns3:cad>49</ns3:cad>
          </ns3:TrackPointExtension>
        </extensions>
      </trkpt>
      <trkpt lat="43.46501938998699188232421875" lon="1.47030073218047618865966796875">
        <ele>258.600006103515625</ele>
        <time>2026-08-05T07:50:39.000Z</time>
        <extensions>
          <ns3:TrackPointExtension>
            <ns3:hr>70</ns3:hr>
            <ns3:cad>49</ns3:cad>
          </ns3:TrackPointExtension>
        </extensions>
      </trkpt>
      <trkpt lat="43.46503280103206634521484375" lon="1.4702962897717952728271484375">
        <ele>258.600006103515625</ele>
        <time>2026-08-05T07:50:40.000Z</time>
        <extensions>
          <ns3:TrackPointExtension>
            <ns3:hr>70</ns3:hr>
            <ns3:cad>49</ns3:cad>
          </ns3:TrackPointExtension>
        </extensions>
      </trkpt>
      <trkpt lat="43.46504260785877704620361328125" lon="1.47029000334441661834716796875">
        <ele>258.600006103515625</ele>
        <time>2026-08-05T07:50:41.000Z</time>
        <extensions>
          <ns3:TrackPointExtension>
            <ns3:hr>70</ns3:hr>
            <ns3:cad>49</ns3:cad>
          </ns3:TrackPointExtension>
        </extensions>
      </trkpt>
      <trkpt lat="43.46505098976194858551025390625" lon="1.47028681822121143341064453125">
        <ele>258.600006103515625</ele>
        <time>2026-08-05T07:50:42.000Z</time>
        <extensions>
          <ns3:TrackPointExtension>
            <ns3:hr>69</ns3:hr>
            <ns3:cad>49</ns3:cad>
          </ns3:TrackPointExtension>
        </extensions>
      </trkpt>
      <trkpt lat="43.46506004221737384796142578125" lon="1.470282040536403656005859375">
        <ele>258.600006103515625</ele>
        <time>2026-08-05T07:50:43.000Z</time>
        <extensions>
          <ns3:TrackPointExtension>
            <ns3:hr>69</ns3:hr>
            <ns3:cad>49</ns3:cad>
          </ns3:TrackPointExtension>
        </extensions>
      </trkpt>
      <trkpt lat="43.4650715254247188568115234375" lon="1.47027910687029361724853515625">
        <ele>258.600006103515625</ele>
        <time>2026-08-05T07:50:44.000Z</time>
        <extensions>
          <ns3:TrackPointExtension>
            <ns3:hr>69</ns3:hr>
            <ns3:cad>49</ns3:cad>
          </ns3:TrackPointExtension>
        </extensions>
      </trkpt>
      <trkpt lat="43.465082757174968719482421875" lon="1.470274664461612701416015625">
        <ele>258.600006103515625</ele>
        <time>2026-08-05T07:50:45.000Z</time>
        <extensions>
          <ns3:TrackPointExtension>
            <ns3:hr>68</ns3:hr>
            <ns3:cad>49</ns3:cad>
          </ns3:TrackPointExtension>
        </extensions>
      </trkpt>
      <trkpt lat="43.46509625203907489776611328125" lon="1.4702708087861537933349609375">
        <ele>258.600006103515625</ele>
        <time>2026-08-05T07:50:46.000Z</time>
        <extensions>
          <ns3:TrackPointExtension>
            <ns3:hr>69</ns3:hr>
            <ns3:cad>49</ns3:cad>
          </ns3:TrackPointExtension>
        </extensions>
      </trkpt>
      <trkpt lat="43.46510865725576877593994140625" lon="1.47026561200618743896484375">
        <ele>258.600006103515625</ele>
        <time>2026-08-05T07:50:47.000Z</time>
        <extensions>
          <ns3:TrackPointExtension>
            <ns3:hr>69</ns3:hr>
            <ns3:cad>49</ns3:cad>
          </ns3:TrackPointExtension>
        </extensions>
      </trkpt>
      <trkpt lat="43.46512055955827236175537109375" lon="1.47026351653039455413818359375">
        <ele>258.600006103515625</ele>
        <time>2026-08-05T07:50:48.000Z</time>
        <extensions>
          <ns3:TrackPointExtension>
            <ns3:hr>68</ns3:hr>
            <ns3:cad>48</ns3:cad>
          </ns3:TrackPointExtension>
        </extensions>
      </trkpt>
      <trkpt lat="43.465130031108856201171875" lon="1.4702620916068553924560546875">
        <ele>258.600006103515625</ele>
        <time>2026-08-05T07:50:49.000Z</time>
        <extensions>
          <ns3:TrackPointExtension>
            <ns3:hr>69</ns3:hr>
            <ns3:cad>47</ns3:cad>
          </ns3:TrackPointExtension>
        </extensions>
      </trkpt>
      <trkpt lat="43.46513967029750347137451171875" lon="1.470255888998508453369140625">
        <ele>258.399993896484375</ele>
        <time>2026-08-05T07:50:50.000Z</time>
        <extensions>
          <ns3:TrackPointExtension>
            <ns3:hr>69</ns3:hr>
            <ns3:cad>46</ns3:cad>
          </ns3:TrackPointExtension>
        </extensions>
      </trkpt>
      <trkpt lat="43.46515190787613391876220703125" lon="1.470248512923717498779296875">
        <ele>258.399993896484375</ele>
        <time>2026-08-05T07:50:51.000Z</time>
        <extensions>
          <ns3:TrackPointExtension>
            <ns3:hr>68</ns3:hr>
            <ns3:cad>46</ns3:cad>
          </ns3:TrackPointExtension>
        </extensions>
      </trkpt>
      <trkpt lat="43.4651627205312252044677734375" lon="1.470243819057941436767578125">
        <ele>258.399993896484375</ele>
        <time>2026-08-05T07:50:52.000Z</time>
        <extensions>
          <ns3:TrackPointExtension>
            <ns3:hr>69</ns3:hr>
            <ns3:cad>46</ns3:cad>
          </ns3:TrackPointExtension>
        </extensions>
      </trkpt>
      <trkpt lat="43.46517168916761875152587890625" lon="1.47024105302989482879638671875">
        <ele>258.399993896484375</ele>
        <time>2026-08-05T07:50:53.000Z</time>
        <extensions>
          <ns3:TrackPointExtension>
            <ns3:hr>69</ns3:hr>
            <ns3:cad>48</ns3:cad>
          </ns3:TrackPointExtension>
        </extensions>
      </trkpt>
      <trkpt lat="43.46518174745142459869384765625" lon="1.47023870609700679779052734375">
        <ele>258.399993896484375</ele>
        <time>2026-08-05T07:50:54.000Z</time>
        <extensions>
          <ns3:TrackPointExtension>
            <ns3:hr>69</ns3:hr>
            <ns3:cad>48</ns3:cad>
          </ns3:TrackPointExtension>
        </extensions>
      </trkpt>
      <trkpt lat="43.46518971025943756103515625" lon="1.47023417986929416656494140625">
        <ele>258.399993896484375</ele>
        <time>2026-08-05T07:50:55.000Z</time>
        <extensions>
          <ns3:TrackPointExtension>
            <ns3:hr>70</ns3:hr>
            <ns3:cad>50</ns3:cad>
          </ns3:TrackPointExtension>
        </extensions>
      </trkpt>
      <trkpt lat="43.4652009420096874237060546875" lon="1.47022596560418605804443359375">
        <ele>258.399993896484375</ele>
        <time>2026-08-05T07:50:56.000Z</time>
        <extensions>
          <ns3:TrackPointExtension>
            <ns3:hr>70</ns3:hr>
            <ns3:cad>50</ns3:cad>
          </ns3:TrackPointExtension>
        </extensions>
      </trkpt>
      <trkpt lat="43.46521317958831787109375" lon="1.47021825425326824188232421875">
        <ele>258.399993896484375</ele>
        <time>2026-08-05T07:50:57.000Z</time>
        <extensions>
          <ns3:TrackPointExtension>
            <ns3:hr>71</ns3:hr>
            <ns3:cad>49</ns3:cad>
          </ns3:TrackPointExtension>
        </extensions>
      </trkpt>
      <trkpt lat="43.46522281877696514129638671875" lon="1.47021238692104816436767578125">
        <ele>258.399993896484375</ele>
        <time>2026-08-05T07:50:58.000Z</time>
        <extensions>
          <ns3:TrackPointExtension>
            <ns3:hr>71</ns3:hr>
            <ns3:cad>49</ns3:cad>
          </ns3:TrackPointExtension>
        </extensions>
      </trkpt>
      <trkpt lat="43.46523354761302471160888671875" lon="1.47020886652171611785888671875">
        <ele>258.20001220703125</ele>
        <time>2026-08-05T07:50:59.000Z</time>
        <extensions>
          <ns3:TrackPointExtension>
            <ns3:hr>72</ns3:hr>
            <ns3:cad>49</ns3:cad>
          </ns3:TrackPointExtension>
        </extensions>
      </trkpt>
      <trkpt lat="43.4652421809732913970947265625" lon="1.4702084474265575408935546875">
        <ele>258.20001220703125</ele>
        <time>2026-08-05T07:51:00.000Z</time>
        <extensions>
          <ns3:TrackPointExtension>
            <ns3:hr>73</ns3:hr>
            <ns3:cad>50</ns3:cad>
          </ns3:TrackPointExtension>
        </extensions>
      </trkpt>
      <trkpt lat="43.4652549214661121368408203125" lon="1.4702045917510986328125">
        <ele>258.20001220703125</ele>
        <time>2026-08-05T07:51:01.000Z</time>
        <extensions>
          <ns3:TrackPointExtension>
            <ns3:hr>73</ns3:hr>
            <ns3:cad>50</ns3:cad>
          </ns3:TrackPointExtension>
        </extensions>
      </trkpt>
      <trkpt lat="43.46526615321636199951171875" lon="1.4702014066278934478759765625">
        <ele>258.20001220703125</ele>
        <time>2026-08-05T07:51:02.000Z</time>
        <extensions>
          <ns3:TrackPointExtension>
            <ns3:hr>73</ns3:hr>
            <ns3:cad>48</ns3:cad>
          </ns3:TrackPointExtension>
        </extensions>
      </trkpt>
      <trkpt lat="43.46527554094791412353515625" lon="1.47019679658114910125732421875">
        <ele>258.20001220703125</ele>
        <time>2026-08-05T07:51:03.000Z</time>
        <extensions>
          <ns3:TrackPointExtension>
            <ns3:hr>73</ns3:hr>
            <ns3:cad>48</ns3:cad>
          </ns3:TrackPointExtension>
        </extensions>
      </trkpt>
      <trkpt lat="43.4652817435562610626220703125" lon="1.47019453346729278564453125">
        <ele>258.20001220703125</ele>
        <time>2026-08-05T07:51:04.000Z</time>
        <extensions>
          <ns3:TrackPointExtension>
            <ns3:hr>73</ns3:hr>
            <ns3:cad>47</ns3:cad>
          </ns3:TrackPointExtension>
        </extensions>
      </trkpt>
      <trkpt lat="43.4652894549071788787841796875" lon="1.47018908523023128509521484375">
        <ele>258.20001220703125</ele>
        <time>2026-08-05T07:51:05.000Z</time>
        <extensions>
          <ns3:TrackPointExtension>
            <ns3:hr>73</ns3:hr>
            <ns3:cad>48</ns3:cad>
          </ns3:TrackPointExtension>
        </extensions>
      </trkpt>
      <trkpt lat="43.4652988426387310028076171875" lon="1.470183469355106353759765625">
        <ele>258.20001220703125</ele>
        <time>2026-08-05T07:51:06.000Z</time>
        <extensions>
          <ns3:TrackPointExtension>
            <ns3:hr>74</ns3:hr>
            <ns3:cad>48</ns3:cad>
          </ns3:TrackPointExtension>
        </extensions>
      </trkpt>
      <trkpt lat="43.465313427150249481201171875" lon="1.4701755903661251068115234375">
        <ele>258.20001220703125</ele>
        <time>2026-08-05T07:51:07.000Z</time>
        <extensions>
          <ns3:TrackPointExtension>
            <ns3:hr>73</ns3:hr>
            <ns3:cad>49</ns3:cad>
          </ns3:TrackPointExtension>
        </extensions>
      </trkpt>
      <trkpt lat="43.4653270058333873748779296875" lon="1.47016980685293674468994140625">
        <ele>258.20001220703125</ele>
        <time>2026-08-05T07:51:08.000Z</time>
        <extensions>
          <ns3:TrackPointExtension>
            <ns3:hr>74</ns3:hr>
            <ns3:cad>49</ns3:cad>
          </ns3:TrackPointExtension>
        </extensions>
      </trkpt>
      <trkpt lat="43.46533748321235179901123046875" lon="1.4701630175113677978515625">
        <ele>258.20001220703125</ele>
        <time>2026-08-05T07:51:09.000Z</time>
        <extensions>
          <ns3:TrackPointExtension>
            <ns3:hr>74</ns3:hr>
            <ns3:cad>49</ns3:cad>
          </ns3:TrackPointExtension>
        </extensions>
      </trkpt>
      <trkpt lat="43.46534519456326961517333984375" lon="1.4701645262539386749267578125">
        <ele>258.20001220703125</ele>
        <time>2026-08-05T07:51:10.000Z</time>
        <extensions>
          <ns3:TrackPointExtension>
            <ns3:hr>74</ns3:hr>
            <ns3:cad>49</ns3:cad>
          </ns3:TrackPointExtension>
        </extensions>
      </trkpt>
      <trkpt lat="43.46535206772387027740478515625" lon="1.47016100585460662841796875">
        <ele>258.20001220703125</ele>
        <time>2026-08-05T07:51:11.000Z</time>
        <extensions>
          <ns3:TrackPointExtension>
            <ns3:hr>74</ns3:hr>
            <ns3:cad>49</ns3:cad>
          </ns3:TrackPointExtension>
        </extensions>
      </trkpt>
      <trkpt lat="43.46536715514957904815673828125" lon="1.47015404887497425079345703125">
        <ele>258.20001220703125</ele>
        <time>2026-08-05T07:51:12.000Z</time>
        <extensions>
          <ns3:TrackPointExtension>
            <ns3:hr>74</ns3:hr>
            <ns3:cad>49</ns3:cad>
          </ns3:TrackPointExtension>
        </extensions>
      </trkpt>
      <trkpt lat="43.465382158756256103515625" lon="1.47014281712472438812255859375">
        <ele>258.20001220703125</ele>
        <time>2026-08-05T07:51:13.000Z</time>
        <extensions>
          <ns3:TrackPointExtension>
            <ns3:hr>74</ns3:hr>
            <ns3:cad>49</ns3:cad>
          </ns3:TrackPointExtension>
        </extensions>
      </trkpt>
      <trkpt lat="43.46539515070617198944091796875" lon="1.47013728506863117218017578125">
        <ele>258.20001220703125</ele>
        <time>2026-08-05T07:51:14.000Z</time>
        <extensions>
          <ns3:TrackPointExtension>
            <ns3:hr>74</ns3:hr>
            <ns3:cad>49</ns3:cad>
          </ns3:TrackPointExtension>
        </extensions>
      </trkpt>
      <trkpt lat="43.46540252678096294403076171875" lon="1.4701366983354091644287109375">
        <ele>258</ele>
        <time>2026-08-05T07:51:15.000Z</time>
        <extensions>
          <ns3:TrackPointExtension>
            <ns3:hr>74</ns3:hr>
            <ns3:cad>49</ns3:cad>
          </ns3:TrackPointExtension>
        </extensions>
      </trkpt>
      <trkpt lat="43.4654118306934833526611328125" lon="1.47013359703123569488525390625">
        <ele>258</ele>
        <time>2026-08-05T07:51:16.000Z</time>
        <extensions>
          <ns3:TrackPointExtension>
            <ns3:hr>75</ns3:hr>
            <ns3:cad>49</ns3:cad>
          </ns3:TrackPointExtension>
        </extensions>
      </trkpt>
      <trkpt lat="43.4654264152050018310546875" lon="1.4701293222606182098388671875">
        <ele>258</ele>
        <time>2026-08-05T07:51:17.000Z</time>
        <extensions>
          <ns3:TrackPointExtension>
            <ns3:hr>75</ns3:hr>
            <ns3:cad>48</ns3:cad>
          </ns3:TrackPointExtension>
        </extensions>
      </trkpt>
      <trkpt lat="43.46544141881167888641357421875" lon="1.4701236225664615631103515625">
        <ele>258</ele>
        <time>2026-08-05T07:51:18.000Z</time>
        <extensions>
          <ns3:TrackPointExtension>
            <ns3:hr>75</ns3:hr>
            <ns3:cad>48</ns3:cad>
          </ns3:TrackPointExtension>
        </extensions>
      </trkpt>
      <trkpt lat="43.46545482985675334930419921875" lon="1.47011700086295604705810546875">
        <ele>258</ele>
        <time>2026-08-05T07:51:19.000Z</time>
        <extensions>
          <ns3:TrackPointExtension>
            <ns3:hr>75</ns3:hr>
            <ns3:cad>48</ns3:cad>
          </ns3:TrackPointExtension>
        </extensions>
      </trkpt>
      <trkpt lat="43.46546824090182781219482421875" lon="1.47011406719684600830078125">
        <ele>257.79998779296875</ele>
        <time>2026-08-05T07:51:20.000Z</time>
        <extensions>
          <ns3:TrackPointExtension>
            <ns3:hr>75</ns3:hr>
            <ns3:cad>48</ns3:cad>
          </ns3:TrackPointExtension>
        </extensions>
      </trkpt>
      <trkpt lat="43.46547679044306278228759765625" lon="1.4701120555400848388671875">
        <ele>257.79998779296875</ele>
        <time>2026-08-05T07:51:21.000Z</time>
        <extensions>
          <ns3:TrackPointExtension>
            <ns3:hr>75</ns3:hr>
            <ns3:cad>48</ns3:cad>
          </ns3:TrackPointExtension>
        </extensions>
      </trkpt>
      <trkpt lat="43.46548751927912235260009765625" lon="1.47010811604559421539306640625">
        <ele>257.79998779296875</ele>
        <time>2026-08-05T07:51:22.000Z</time>
        <extensions>
          <ns3:TrackPointExtension>
            <ns3:hr>76</ns3:hr>
            <ns3:cad>48</ns3:cad>
          </ns3:TrackPointExtension>
        </extensions>
      </trkpt>
      <trkpt lat="43.46550344489514827728271484375" lon="1.470100320875644683837890625">
        <ele>258</ele>
        <time>2026-08-05T07:51:23.000Z</time>
        <extensions>
          <ns3:TrackPointExtension>
            <ns3:hr>76</ns3:hr>
            <ns3:cad>48</ns3:cad>
          </ns3:TrackPointExtension>
        </extensions>
      </trkpt>
      <trkpt lat="43.46551400609314441680908203125" lon="1.4700957946479320526123046875">
        <ele>258</ele>
        <time>2026-08-05T07:51:24.000Z</time>
        <extensions>
          <ns3:TrackPointExtension>
            <ns3:hr>76</ns3:hr>
            <ns3:cad>49</ns3:cad>
          </ns3:TrackPointExtension>
        </extensions>
      </trkpt>
      <trkpt lat="43.4655229747295379638671875" lon="1.47009604610502719879150390625">
        <ele>258</ele>
        <time>2026-08-05T07:51:25.000Z</time>
        <extensions>
          <ns3:TrackPointExtension>
            <ns3:hr>76</ns3:hr>
            <ns3:cad>49</ns3:cad>
          </ns3:TrackPointExtension>
        </extensions>
      </trkpt>
      <trkpt lat="43.46552842296659946441650390625" lon="1.47009453736245632171630859375">
        <ele>258</ele>
        <time>2026-08-05T07:51:26.000Z</time>
        <extensions>
          <ns3:TrackPointExtension>
            <ns3:hr>76</ns3:hr>
            <ns3:cad>48</ns3:cad>
          </ns3:TrackPointExtension>
        </extensions>
      </trkpt>
      <trkpt lat="43.46553839743137359619140625" lon="1.4700900949537754058837890625">
        <ele>258</ele>
        <time>2026-08-05T07:51:27.000Z</time>
        <extensions>
          <ns3:TrackPointExtension>
            <ns3:hr>76</ns3:hr>
            <ns3:cad>48</ns3:cad>
          </ns3:TrackPointExtension>
        </extensions>
      </trkpt>
      <trkpt lat="43.46555105410516262054443359375" lon="1.47008313797414302825927734375">
        <ele>258</ele>
        <time>2026-08-05T07:51:28.000Z</time>
        <extensions>
          <ns3:TrackPointExtension>
            <ns3:hr>76</ns3:hr>
            <ns3:cad>48</ns3:cad>
          </ns3:TrackPointExtension>
        </extensions>
      </trkpt>
      <trkpt lat="43.465562872588634490966796875" lon="1.47007794119417667388916015625">
        <ele>257.79998779296875</ele>
        <time>2026-08-05T07:51:29.000Z</time>
        <extensions>
          <ns3:TrackPointExtension>
            <ns3:hr>77</ns3:hr>
            <ns3:cad>48</ns3:cad>
          </ns3:TrackPointExtension>
        </extensions>
      </trkpt>
      <trkpt lat="43.46557670272886753082275390625" lon="1.47007760591804981231689453125">
        <ele>257.79998779296875</ele>
        <time>2026-08-05T07:51:30.000Z</time>
        <extensions>
          <ns3:TrackPointExtension>
            <ns3:hr>76</ns3:hr>
            <ns3:cad>48</ns3:cad>
          </ns3:TrackPointExtension>
        </extensions>
      </trkpt>
      <trkpt lat="43.46558709628880023956298828125" lon="1.47007911466062068939208984375">
        <ele>258</ele>
        <time>2026-08-05T07:51:31.000Z</time>
        <extensions>
          <ns3:TrackPointExtension>
            <ns3:hr>77</ns3:hr>
            <ns3:cad>48</ns3:cad>
          </ns3:TrackPointExtension>
        </extensions>
      </trkpt>
      <trkpt lat="43.46559497527778148651123046875" lon="1.47007425315678119659423828125">
        <ele>258</ele>
        <time>2026-08-05T07:51:32.000Z</time>
        <extensions>
          <ns3:TrackPointExtension>
            <ns3:hr>77</ns3:hr>
            <ns3:cad>48</ns3:cad>
          </ns3:TrackPointExtension>
        </extensions>
      </trkpt>
      <trkpt lat="43.46560922451317310333251953125" lon="1.470067463815212249755859375">
        <ele>258</ele>
        <time>2026-08-05T07:51:33.000Z</time>
        <extensions>
          <ns3:TrackPointExtension>
            <ns3:hr>77</ns3:hr>
            <ns3:cad>49</ns3:cad>
          </ns3:TrackPointExtension>
        </extensions>
      </trkpt>
      <trkpt lat="43.46562565304338932037353515625" lon="1.47006570361554622650146484375">
        <ele>258</ele>
        <time>2026-08-05T07:51:34.000Z</time>
        <extensions>
          <ns3:TrackPointExtension>
            <ns3:hr>76</ns3:hr>
            <ns3:cad>49</ns3:cad>
          </ns3:TrackPointExtension>
        </extensions>
      </trkpt>
      <trkpt lat="43.4656356275081634521484375" lon="1.47006444633007049560546875">
        <ele>258</ele>
        <time>2026-08-05T07:51:35.000Z</time>
        <extensions>
          <ns3:TrackPointExtension>
            <ns3:hr>77</ns3:hr>
            <ns3:cad>49</ns3:cad>
          </ns3:TrackPointExtension>
        </extensions>
      </trkpt>
      <trkpt lat="43.46564241684973239898681640625" lon="1.47006872110068798065185546875">
        <ele>258</ele>
        <time>2026-08-05T07:51:36.000Z</time>
        <extensions>
          <ns3:TrackPointExtension>
            <ns3:hr>77</ns3:hr>
            <ns3:cad>49</ns3:cad>
          </ns3:TrackPointExtension>
        </extensions>
      </trkpt>
      <trkpt lat="43.465652056038379669189453125" lon="1.4700649492442607879638671875">
        <ele>258</ele>
        <time>2026-08-05T07:51:37.000Z</time>
        <extensions>
          <ns3:TrackPointExtension>
            <ns3:hr>77</ns3:hr>
            <ns3:cad>49</ns3:cad>
          </ns3:TrackPointExtension>
        </extensions>
      </trkpt>
      <trkpt lat="43.4656656347215175628662109375" lon="1.47005765698850154876708984375">
        <ele>258</ele>
        <time>2026-08-05T07:51:38.000Z</time>
        <extensions>
          <ns3:TrackPointExtension>
            <ns3:hr>78</ns3:hr>
            <ns3:cad>49</ns3:cad>
          </ns3:TrackPointExtension>
        </extensions>
      </trkpt>
      <trkpt lat="43.46567728556692600250244140625" lon="1.47005061618983745574951171875">
        <ele>258</ele>
        <time>2026-08-05T07:51:39.000Z</time>
        <extensions>
          <ns3:TrackPointExtension>
            <ns3:hr>78</ns3:hr>
            <ns3:cad>48</ns3:cad>
          </ns3:TrackPointExtension>
        </extensions>
      </trkpt>
      <trkpt lat="43.46568818204104900360107421875" lon="1.47004558704793453216552734375">
        <ele>258</ele>
        <time>2026-08-05T07:51:40.000Z</time>
        <extensions>
          <ns3:TrackPointExtension>
            <ns3:hr>78</ns3:hr>
            <ns3:cad>47</ns3:cad>
          </ns3:TrackPointExtension>
        </extensions>
      </trkpt>
      <trkpt lat="43.465696312487125396728515625" lon="1.470039300620555877685546875">
        <ele>258</ele>
        <time>2026-08-05T07:51:41.000Z</time>
        <extensions>
          <ns3:TrackPointExtension>
            <ns3:hr>79</ns3:hr>
            <ns3:cad>48</ns3:cad>
          </ns3:TrackPointExtension>
        </extensions>
      </trkpt>
      <trkpt lat="43.46570477820932865142822265625" lon="1.47003452293574810028076171875">
        <ele>258</ele>
        <time>2026-08-05T07:51:42.000Z</time>
        <extensions>
          <ns3:TrackPointExtension>
            <ns3:hr>79</ns3:hr>
            <ns3:cad>48</ns3:cad>
          </ns3:TrackPointExtension>
        </extensions>
      </trkpt>
      <trkpt lat="43.46571735106408596038818359375" lon="1.47002756595611572265625">
        <ele>258.20001220703125</ele>
        <time>2026-08-05T07:51:43.000Z</time>
        <extensions>
          <ns3:TrackPointExtension>
            <ns3:hr>79</ns3:hr>
            <ns3:cad>48</ns3:cad>
          </ns3:TrackPointExtension>
        </extensions>
      </trkpt>
      <trkpt lat="43.4657300077378749847412109375" lon="1.4700180105865001678466796875">
        <ele>258.20001220703125</ele>
        <time>2026-08-05T07:51:44.000Z</time>
        <extensions>
          <ns3:TrackPointExtension>
            <ns3:hr>79</ns3:hr>
            <ns3:cad>48</ns3:cad>
          </ns3:TrackPointExtension>
        </extensions>
      </trkpt>
      <trkpt lat="43.46574031747877597808837890625" lon="1.470014154911041259765625">
        <ele>258.20001220703125</ele>
        <time>2026-08-05T07:51:45.000Z</time>
        <extensions>
          <ns3:TrackPointExtension>
            <ns3:hr>79</ns3:hr>
            <ns3:cad>47</ns3:cad>
          </ns3:TrackPointExtension>
        </extensions>
      </trkpt>
      <trkpt lat="43.465746603906154632568359375" lon="1.47001608274877071380615234375">
        <ele>258.20001220703125</ele>
        <time>2026-08-05T07:51:46.000Z</time>
        <extensions>
          <ns3:TrackPointExtension>
            <ns3:hr>79</ns3:hr>
            <ns3:cad>47</ns3:cad>
          </ns3:TrackPointExtension>
        </extensions>
      </trkpt>
      <trkpt lat="43.46575842238962650299072265625" lon="1.47001323290169239044189453125">
        <ele>258.399993896484375</ele>
        <time>2026-08-05T07:51:47.000Z</time>
        <extensions>
          <ns3:TrackPointExtension>
            <ns3:hr>80</ns3:hr>
            <ns3:cad>47</ns3:cad>
          </ns3:TrackPointExtension>
        </extensions>
      </trkpt>
      <trkpt lat="43.46577183343470096588134765625" lon="1.47000568918883800506591796875">
        <ele>258.399993896484375</ele>
        <time>2026-08-05T07:51:48.000Z</time>
        <extensions>
          <ns3:TrackPointExtension>
            <ns3:hr>80</ns3:hr>
            <ns3:cad>47</ns3:cad>
          </ns3:TrackPointExtension>
        </extensions>
      </trkpt>
      <trkpt lat="43.46578180789947509765625" lon="1.4699999056756496429443359375">
        <ele>258.399993896484375</ele>
        <time>2026-08-05T07:51:49.000Z</time>
        <extensions>
          <ns3:TrackPointExtension>
            <ns3:hr>80</ns3:hr>
            <ns3:cad>47</ns3:cad>
          </ns3:TrackPointExtension>
        </extensions>
      </trkpt>
      <trkpt lat="43.465789519250392913818359375" lon="1.47000141441822052001953125">
        <ele>258.399993896484375</ele>
        <time>2026-08-05T07:51:50.000Z</time>
        <extensions>
          <ns3:TrackPointExtension>
            <ns3:hr>80</ns3:hr>
            <ns3:cad>48</ns3:cad>
          </ns3:TrackPointExtension>
        </extensions>
      </trkpt>
      <trkpt lat="43.46579580567777156829833984375" lon="1.46999814547598361968994140625">
        <ele>258.399993896484375</ele>
        <time>2026-08-05T07:51:51.000Z</time>
        <extensions>
          <ns3:TrackPointExtension>
            <ns3:hr>81</ns3:hr>
            <ns3:cad>48</ns3:cad>
          </ns3:TrackPointExtension>
        </extensions>
      </trkpt>
      <trkpt lat="43.46581005491316318511962890625" lon="1.4699915237724781036376953125">
        <ele>258.399993896484375</ele>
        <time>2026-08-05T07:51:52.000Z</time>
        <extensions>
          <ns3:TrackPointExtension>
            <ns3:hr>81</ns3:hr>
            <ns3:cad>47</ns3:cad>
          </ns3:TrackPointExtension>
        </extensions>
      </trkpt>
      <trkpt lat="43.4658245556056499481201171875" lon="1.4699838124215602874755859375">
        <ele>258.399993896484375</ele>
        <time>2026-08-05T07:51:53.000Z</time>
        <extensions>
          <ns3:TrackPointExtension>
            <ns3:hr>81</ns3:hr>
            <ns3:cad>47</ns3:cad>
          </ns3:TrackPointExtension>
        </extensions>
      </trkpt>
      <trkpt lat="43.465837799012660980224609375" lon="1.469974927604198455810546875">
        <ele>258.600006103515625</ele>
        <time>2026-08-05T07:51:54.000Z</time>
        <extensions>
          <ns3:TrackPointExtension>
            <ns3:hr>81</ns3:hr>
            <ns3:cad>47</ns3:cad>
          </ns3:TrackPointExtension>
        </extensions>
      </trkpt>
      <trkpt lat="43.46584877930581569671630859375" lon="1.46997216157615184783935546875">
        <ele>258.600006103515625</ele>
        <time>2026-08-05T07:51:55.000Z</time>
        <extensions>
          <ns3:TrackPointExtension>
            <ns3:hr>81</ns3:hr>
            <ns3:cad>47</ns3:cad>
          </ns3:TrackPointExtension>
        </extensions>
      </trkpt>
      <trkpt lat="43.465857915580272674560546875" lon="1.469964198768138885498046875">
        <ele>258.600006103515625</ele>
        <time>2026-08-05T07:51:56.000Z</time>
        <extensions>
          <ns3:TrackPointExtension>
            <ns3:hr>81</ns3:hr>
            <ns3:cad>48</ns3:cad>
          </ns3:TrackPointExtension>
        </extensions>
      </trkpt>
      <trkpt lat="43.4658701531589031219482421875" lon="1.46995824761688709259033203125">
        <ele>258.79998779296875</ele>
        <time>2026-08-05T07:51:57.000Z</time>
        <extensions>
          <ns3:TrackPointExtension>
            <ns3:hr>82</ns3:hr>
            <ns3:cad>48</ns3:cad>
          </ns3:TrackPointExtension>
        </extensions>
      </trkpt>
      <trkpt lat="43.46588582731783390045166015625" lon="1.46995179355144500732421875">
        <ele>258.79998779296875</ele>
        <time>2026-08-05T07:51:58.000Z</time>
        <extensions>
          <ns3:TrackPointExtension>
            <ns3:hr>82</ns3:hr>
            <ns3:cad>48</ns3:cad>
          </ns3:TrackPointExtension>
        </extensions>
      </trkpt>
      <trkpt lat="43.46589605323970317840576171875" lon="1.46994634531438350677490234375">
        <ele>258.79998779296875</ele>
        <time>2026-08-05T07:51:59.000Z</time>
        <extensions>
          <ns3:TrackPointExtension>
            <ns3:hr>82</ns3:hr>
            <ns3:cad>49</ns3:cad>
          </ns3:TrackPointExtension>
        </extensions>
      </trkpt>
      <trkpt lat="43.4659043513238430023193359375" lon="1.46994517184793949127197265625">
        <ele>258.79998779296875</ele>
        <time>2026-08-05T07:52:00.000Z</time>
        <extensions>
          <ns3:TrackPointExtension>
            <ns3:hr>82</ns3:hr>
            <ns3:cad>50</ns3:cad>
          </ns3:TrackPointExtension>
        </extensions>
      </trkpt>
      <trkpt lat="43.4659097157418727874755859375" lon="1.469946093857288360595703125">
        <ele>258.79998779296875</ele>
        <time>2026-08-05T07:52:01.000Z</time>
        <extensions>
          <ns3:TrackPointExtension>
            <ns3:hr>82</ns3:hr>
            <ns3:cad>50</ns3:cad>
          </ns3:TrackPointExtension>
        </extensions>
      </trkpt>
      <trkpt lat="43.465919606387615203857421875" lon="1.46994240581989288330078125">
        <ele>258.79998779296875</ele>
        <time>2026-08-05T07:52:02.000Z</time>
        <extensions>
          <ns3:TrackPointExtension>
            <ns3:hr>82</ns3:hr>
            <ns3:cad>48</ns3:cad>
          </ns3:TrackPointExtension>
        </extensions>
      </trkpt>
      <trkpt lat="43.46593226306140422821044921875" lon="1.46993595175445079803466796875">
        <ele>259</ele>
        <time>2026-08-05T07:52:03.000Z</time>
        <extensions>
          <ns3:TrackPointExtension>
            <ns3:hr>83</ns3:hr>
            <ns3:cad>47</ns3:cad>
          </ns3:TrackPointExtension>
        </extensions>
      </trkpt>
      <trkpt lat="43.46594072878360748291015625" lon="1.4699301682412624359130859375">
        <ele>259</ele>
        <time>2026-08-05T07:52:04.000Z</time>
        <extensions>
          <ns3:TrackPointExtension>
            <ns3:hr>84</ns3:hr>
            <ns3:cad>47</ns3:cad>
          </ns3:TrackPointExtension>
        </extensions>
      </trkpt>
      <trkpt lat="43.46595221199095249176025390625" lon="1.469927988946437835693359375">
        <ele>259.20001220703125</ele>
        <time>2026-08-05T07:52:05.000Z</time>
        <extensions>
          <ns3:TrackPointExtension>
            <ns3:hr>85</ns3:hr>
            <ns3:cad>48</ns3:cad>
          </ns3:TrackPointExtension>
        </extensions>
      </trkpt>
      <trkpt lat="43.46596076153218746185302734375" lon="1.4699234627187252044677734375">
        <ele>259.20001220703125</ele>
        <time>2026-08-05T07:52:06.000Z</time>
        <extensions>
          <ns3:TrackPointExtension>
            <ns3:hr>85</ns3:hr>
            <ns3:cad>48</ns3:cad>
          </ns3:TrackPointExtension>
        </extensions>
      </trkpt>
      <trkpt lat="43.4659720771014690399169921875" lon="1.469917260110378265380859375">
        <ele>259.399993896484375</ele>
        <time>2026-08-05T07:52:07.000Z</time>
        <extensions>
          <ns3:TrackPointExtension>
            <ns3:hr>85</ns3:hr>
            <ns3:cad>48</ns3:cad>
          </ns3:TrackPointExtension>
        </extensions>
      </trkpt>
      <trkpt lat="43.46598071046173572540283203125" lon="1.46991382353007793426513671875">
        <ele>259.399993896484375</ele>
        <time>2026-08-05T07:52:08.000Z</time>
        <extensions>
          <ns3:TrackPointExtension>
            <ns3:hr>86</ns3:hr>
            <ns3:cad>48</ns3:cad>
          </ns3:TrackPointExtension>
        </extensions>
      </trkpt>
      <trkpt lat="43.46599127165973186492919921875" lon="1.469908542931079864501953125">
        <ele>259.600006103515625</ele>
        <time>2026-08-05T07:52:09.000Z</time>
        <extensions>
          <ns3:TrackPointExtension>
            <ns3:hr>86</ns3:hr>
            <ns3:cad>48</ns3:cad>
          </ns3:TrackPointExtension>
        </extensions>
      </trkpt>
      <trkpt lat="43.46599462442100048065185546875" lon="1.469901166856288909912109375">
        <ele>259.600006103515625</ele>
        <time>2026-08-05T07:52:10.000Z</time>
        <extensions>
          <ns3:TrackPointExtension>
            <ns3:hr>85</ns3:hr>
            <ns3:cad>48</ns3:cad>
          </ns3:TrackPointExtension>
        </extensions>
      </trkpt>
      <trkpt lat="43.46600552089512348175048828125" lon="1.46989789791405200958251953125">
        <ele>259.600006103515625</ele>
        <time>2026-08-05T07:52:11.000Z</time>
        <extensions>
          <ns3:TrackPointExtension>
            <ns3:hr>85</ns3:hr>
            <ns3:cad>48</ns3:cad>
          </ns3:TrackPointExtension>
        </extensions>
      </trkpt>
      <trkpt lat="43.46601742319762706756591796875" lon="1.46989555098116397857666015625">
        <ele>259.600006103515625</ele>
        <time>2026-08-05T07:52:12.000Z</time>
        <extensions>
          <ns3:TrackPointExtension>
            <ns3:hr>85</ns3:hr>
            <ns3:cad>48</ns3:cad>
          </ns3:TrackPointExtension>
        </extensions>
      </trkpt>
      <trkpt lat="43.46602982841432094573974609375" lon="1.4699060283601284027099609375">
        <ele>259.79998779296875</ele>
        <time>2026-08-05T07:52:13.000Z</time>
        <extensions>
          <ns3:TrackPointExtension>
            <ns3:hr>85</ns3:hr>
            <ns3:cad>48</ns3:cad>
          </ns3:TrackPointExtension>
        </extensions>
      </trkpt>
      <trkpt lat="43.46602731384336948394775390625" lon="1.46990477107465267181396484375">
        <ele>259.79998779296875</ele>
        <time>2026-08-05T07:52:14.000Z</time>
        <extensions>
          <ns3:TrackPointExtension>
            <ns3:hr>86</ns3:hr>
            <ns3:cad>48</ns3:cad>
          </ns3:TrackPointExtension>
        </extensions>
      </trkpt>
      <trkpt lat="43.4660253860056400299072265625" lon="1.46990376524627208709716796875">
        <ele>260</ele>
        <time>2026-08-05T07:52:15.000Z</time>
        <extensions>
          <ns3:TrackPointExtension>
            <ns3:hr>85</ns3:hr>
            <ns3:cad>48</ns3:cad>
          </ns3:TrackPointExtension>
        </extensions>
      </trkpt>
      <trkpt lat="43.46602379344403743743896484375" lon="1.46990141831338405609130859375">
        <ele>260.20001220703125</ele>
        <time>2026-08-05T07:52:16.000Z</time>
        <extensions>
          <ns3:TrackPointExtension>
            <ns3:hr>85</ns3:hr>
            <ns3:cad>48</ns3:cad>
          </ns3:TrackPointExtension>
        </extensions>
      </trkpt>
      <trkpt lat="43.4660233743488788604736328125" lon="1.469901166856288909912109375">
        <ele>260.600006103515625</ele>
        <time>2026-08-05T07:52:17.000Z</time>
        <extensions>
          <ns3:TrackPointExtension>
            <ns3:hr>85</ns3:hr>
            <ns3:cad>48</ns3:cad>
          </ns3:TrackPointExtension>
        </extensions>
      </trkpt>
      <trkpt lat="43.46602178178727626800537109375" lon="1.46989873610436916351318359375">
        <ele>260.600006103515625</ele>
        <time>2026-08-05T07:52:18.000Z</time>
        <extensions>
          <ns3:TrackPointExtension>
            <ns3:hr>86</ns3:hr>
            <ns3:cad>0</ns3:cad>
          </ns3:TrackPointExtension>
        </extensions>
      </trkpt>
      <trkpt lat="43.46601842902600765228271484375" lon="1.46989680826663970947265625">
        <ele>260.600006103515625</ele>
        <time>2026-08-05T07:52:19.000Z</time>
        <extensions>
          <ns3:TrackPointExtension>
            <ns3:hr>86</ns3:hr>
            <ns3:cad>0</ns3:cad>
          </ns3:TrackPointExtension>
        </extensions>
      </trkpt>
      <trkpt lat="43.466020524501800537109375" lon="1.46989923901855945587158203125">
        <ele>260.600006103515625</ele>
        <time>2026-08-05T07:52:20.000Z</time>
        <extensions>
          <ns3:TrackPointExtension>
            <ns3:hr>86</ns3:hr>
            <ns3:cad>0</ns3:cad>
          </ns3:TrackPointExtension>
        </extensions>
      </trkpt>
      <trkpt lat="43.46601993776857852935791015625" lon="1.469901166856288909912109375">
        <ele>260.399993896484375</ele>
        <time>2026-08-05T07:52:21.000Z</time>
        <extensions>
          <ns3:TrackPointExtension>
            <ns3:hr>85</ns3:hr>
            <ns3:cad>0</ns3:cad>
          </ns3:TrackPointExtension>
        </extensions>
      </trkpt>
      <trkpt lat="43.46602178178727626800537109375" lon="1.469897143542766571044921875">
        <ele>260.399993896484375</ele>
        <time>2026-08-05T07:52:22.000Z</time>
        <extensions>
          <ns3:TrackPointExtension>
            <ns3:hr>85</ns3:hr>
            <ns3:cad>0</ns3:cad>
          </ns3:TrackPointExtension>
        </extensions>
      </trkpt>
      <trkpt lat="43.466026894748210906982421875" lon="1.46989253349602222442626953125">
        <ele>260.20001220703125</ele>
        <time>2026-08-05T07:52:23.000Z</time>
        <extensions>
          <ns3:TrackPointExtension>
            <ns3:hr>85</ns3:hr>
            <ns3:cad>0</ns3:cad>
          </ns3:TrackPointExtension>
        </extensions>
      </trkpt>
      <trkpt lat="43.46603871323168277740478515625" lon="1.4698840677738189697265625">
        <ele>260</ele>
        <time>2026-08-05T07:52:24.000Z</time>
        <extensions>
          <ns3:TrackPointExtension>
            <ns3:hr>85</ns3:hr>
            <ns3:cad>0</ns3:cad>
          </ns3:TrackPointExtension>
        </extensions>
      </trkpt>
      <trkpt lat="43.466050364077091217041015625" lon="1.46987543441355228424072265625">
        <ele>259.79998779296875</ele>
        <time>2026-08-05T07:52:25.000Z</time>
        <extensions>
          <ns3:TrackPointExtension>
            <ns3:hr>85</ns3:hr>
            <ns3:cad>0</ns3:cad>
          </ns3:TrackPointExtension>
        </extensions>
      </trkpt>
      <trkpt lat="43.46605463884770870208740234375" lon="1.46987375803291797637939453125">
        <ele>259.79998779296875</ele>
        <time>2026-08-05T07:52:26.000Z</time>
        <extensions>
          <ns3:TrackPointExtension>
            <ns3:hr>85</ns3:hr>
            <ns3:cad>0</ns3:cad>
          </ns3:TrackPointExtension>
        </extensions>
      </trkpt>
      <trkpt lat="43.46605740487575531005859375" lon="1.4698795415461063385009765625">
        <ele>259.79998779296875</ele>
        <time>2026-08-05T07:52:27.000Z</time>
        <extensions>
          <ns3:TrackPointExtension>
            <ns3:hr>85</ns3:hr>
            <ns3:cad>0</ns3:cad>
          </ns3:TrackPointExtension>
        </extensions>
      </trkpt>
      <trkpt lat="43.466072492301464080810546875" lon="1.46987090818583965301513671875">
        <ele>260</ele>
        <time>2026-08-05T07:52:28.000Z</time>
        <extensions>
          <ns3:TrackPointExtension>
            <ns3:hr>84</ns3:hr>
            <ns3:cad>0</ns3:cad>
          </ns3:TrackPointExtension>
        </extensions>
      </trkpt>
      <trkpt lat="43.466087244451045989990234375" lon="1.4698631130158901214599609375">
        <ele>260</ele>
        <time>2026-08-05T07:52:29.000Z</time>
        <extensions>
          <ns3:TrackPointExtension>
            <ns3:hr>84</ns3:hr>
            <ns3:cad>0</ns3:cad>
          </ns3:TrackPointExtension>
        </extensions>
      </trkpt>
      <trkpt lat="43.4660978056490421295166015625" lon="1.469858922064304351806640625">
        <ele>260.20001220703125</ele>
        <time>2026-08-05T07:52:30.000Z</time>
        <extensions>
          <ns3:TrackPointExtension>
            <ns3:hr>84</ns3:hr>
            <ns3:cad>0</ns3:cad>
          </ns3:TrackPointExtension>
        </extensions>
      </trkpt>
      <trkpt lat="43.466106690466403961181640625" lon="1.469859592616558074951171875">
        <ele>260.20001220703125</ele>
        <time>2026-08-05T07:52:31.000Z</time>
        <extensions>
          <ns3:TrackPointExtension>
            <ns3:hr>84</ns3:hr>
            <ns3:cad>45</ns3:cad>
          </ns3:TrackPointExtension>
        </extensions>
      </trkpt>
      <trkpt lat="43.4661159105598926544189453125" lon="1.46985531784594058990478515625">
        <ele>260</ele>
        <time>2026-08-05T07:52:32.000Z</time>
        <extensions>
          <ns3:TrackPointExtension>
            <ns3:hr>84</ns3:hr>
            <ns3:cad>47</ns3:cad>
          </ns3:TrackPointExtension>
        </extensions>
      </trkpt>
      <trkpt lat="43.46612513065338134765625" lon="1.46985045634210109710693359375">
        <ele>260</ele>
        <time>2026-08-05T07:52:33.000Z</time>
        <extensions>
          <ns3:TrackPointExtension>
            <ns3:hr>84</ns3:hr>
            <ns3:cad>47</ns3:cad>
          </ns3:TrackPointExtension>
        </extensions>
      </trkpt>
      <trkpt lat="43.46613342873752117156982421875" lon="1.46984676830470561981201171875">
        <ele>260</ele>
        <time>2026-08-05T07:52:34.000Z</time>
        <extensions>
          <ns3:TrackPointExtension>
            <ns3:hr>84</ns3:hr>
            <ns3:cad>47</ns3:cad>
          </ns3:TrackPointExtension>
        </extensions>
      </trkpt>
      <trkpt lat="43.4661398828029632568359375" lon="1.46984827704727649688720703125">
        <ele>260.20001220703125</ele>
        <time>2026-08-05T07:52:35.000Z</time>
        <extensions>
          <ns3:TrackPointExtension>
            <ns3:hr>84</ns3:hr>
            <ns3:cad>47</ns3:cad>
          </ns3:TrackPointExtension>
        </extensions>
      </trkpt>
      <trkpt lat="43.46614725887775421142578125" lon="1.46984844468533992767333984375">
        <ele>260.20001220703125</ele>
        <time>2026-08-05T07:52:36.000Z</time>
        <extensions>
          <ns3:TrackPointExtension>
            <ns3:hr>83</ns3:hr>
            <ns3:cad>47</ns3:cad>
          </ns3:TrackPointExtension>
        </extensions>
      </trkpt>
      <trkpt lat="43.466162346303462982177734375" lon="1.46983469836413860321044921875">
        <ele>260.399993896484375</ele>
        <time>2026-08-05T07:52:37.000Z</time>
        <extensions>
          <ns3:TrackPointExtension>
            <ns3:hr>84</ns3:hr>
            <ns3:cad>46</ns3:cad>
          </ns3:TrackPointExtension>
        </extensions>
      </trkpt>
      <trkpt lat="43.466172404587268829345703125" lon="1.46982933394610881805419921875">
        <ele>260.399993896484375</ele>
        <time>2026-08-05T07:52:38.000Z</time>
        <extensions>
          <ns3:TrackPointExtension>
            <ns3:hr>84</ns3:hr>
            <ns3:cad>46</ns3:cad>
          </ns3:TrackPointExtension>
        </extensions>
      </trkpt>
      <trkpt lat="43.46617835573852062225341796875" lon="1.46982966922223567962646484375">
        <ele>260.600006103515625</ele>
        <time>2026-08-05T07:52:39.000Z</time>
        <extensions>
          <ns3:TrackPointExtension>
            <ns3:hr>84</ns3:hr>
            <ns3:cad>46</ns3:cad>
          </ns3:TrackPointExtension>
        </extensions>
      </trkpt>
      <trkpt lat="43.4661893360316753387451171875" lon="1.4698258973658084869384765625">
        <ele>260.600006103515625</ele>
        <time>2026-08-05T07:52:40.000Z</time>
        <extensions>
          <ns3:TrackPointExtension>
            <ns3:hr>84</ns3:hr>
            <ns3:cad>45</ns3:cad>
          </ns3:TrackPointExtension>
        </extensions>
      </trkpt>
      <trkpt lat="43.46620148979127407073974609375" lon="1.4698161743581295013427734375">
        <ele>260.79998779296875</ele>
        <time>2026-08-05T07:52:41.000Z</time>
        <extensions>
          <ns3:TrackPointExtension>
            <ns3:hr>84</ns3:hr>
            <ns3:cad>45</ns3:cad>
          </ns3:TrackPointExtension>
        </extensions>
      </trkpt>
      <trkpt lat="43.46620853058993816375732421875" lon="1.46981458179652690887451171875">
        <ele>260.79998779296875</ele>
        <time>2026-08-05T07:52:42.000Z</time>
        <extensions>
          <ns3:TrackPointExtension>
            <ns3:hr>84</ns3:hr>
            <ns3:cad>45</ns3:cad>
          </ns3:TrackPointExtension>
        </extensions>
      </trkpt>
      <trkpt lat="43.46621372736990451812744140625" lon="1.469819359481334686279296875">
        <ele>260.79998779296875</ele>
        <time>2026-08-05T07:52:43.000Z</time>
        <extensions>
          <ns3:TrackPointExtension>
            <ns3:hr>84</ns3:hr>
            <ns3:cad>45</ns3:cad>
          </ns3:TrackPointExtension>
        </extensions>
      </trkpt>
      <trkpt lat="43.466225378215312957763671875" lon="1.46981500089168548583984375">
        <ele>260.79998779296875</ele>
        <time>2026-08-05T07:52:44.000Z</time>
        <extensions>
          <ns3:TrackPointExtension>
            <ns3:hr>84</ns3:hr>
            <ns3:cad>45</ns3:cad>
          </ns3:TrackPointExtension>
        </extensions>
      </trkpt>
      <trkpt lat="43.4662429802119731903076171875" lon="1.4698009192943572998046875">
        <ele>260.79998779296875</ele>
        <time>2026-08-05T07:52:45.000Z</time>
        <extensions>
          <ns3:TrackPointExtension>
            <ns3:hr>85</ns3:hr>
            <ns3:cad>44</ns3:cad>
          </ns3:TrackPointExtension>
        </extensions>
      </trkpt>
      <trkpt lat="43.466252870857715606689453125" lon="1.4697953872382640838623046875">
        <ele>261</ele>
        <time>2026-08-05T07:52:46.000Z</time>
        <extensions>
          <ns3:TrackPointExtension>
            <ns3:hr>85</ns3:hr>
            <ns3:cad>44</ns3:cad>
          </ns3:TrackPointExtension>
        </extensions>
      </trkpt>
      <trkpt lat="43.46626116894185543060302734375" lon="1.46979756653308868408203125">
        <ele>261</ele>
        <time>2026-08-05T07:52:47.000Z</time>
        <extensions>
          <ns3:TrackPointExtension>
            <ns3:hr>85</ns3:hr>
            <ns3:cad>45</ns3:cad>
          </ns3:TrackPointExtension>
        </extensions>
      </trkpt>
      <trkpt lat="43.46626971848309040069580078125" lon="1.46979153156280517578125">
        <ele>261.20001220703125</ele>
        <time>2026-08-05T07:52:48.000Z</time>
        <extensions>
          <ns3:TrackPointExtension>
            <ns3:hr>84</ns3:hr>
            <ns3:cad>45</ns3:cad>
          </ns3:TrackPointExtension>
        </extensions>
      </trkpt>
      <trkpt lat="43.466281704604625701904296875" lon="1.46978281438350677490234375">
        <ele>261.399993896484375</ele>
        <time>2026-08-05T07:52:49.000Z</time>
        <extensions>
          <ns3:TrackPointExtension>
            <ns3:hr>85</ns3:hr>
            <ns3:cad>45</ns3:cad>
          </ns3:TrackPointExtension>
        </extensions>
      </trkpt>
      <trkpt lat="43.46628966741263866424560546875" lon="1.469778120517730712890625">
        <ele>261.399993896484375</ele>
        <time>2026-08-05T07:52:50.000Z</time>
        <extensions>
          <ns3:TrackPointExtension>
            <ns3:hr>85</ns3:hr>
            <ns3:cad>45</ns3:cad>
          </ns3:TrackPointExtension>
        </extensions>
      </trkpt>
      <trkpt lat="43.46629637293517589569091796875" lon="1.46978055126965045928955078125">
        <ele>261.399993896484375</ele>
        <time>2026-08-05T07:52:51.000Z</time>
        <extensions>
          <ns3:TrackPointExtension>
            <ns3:hr>84</ns3:hr>
            <ns3:cad>45</ns3:cad>
          </ns3:TrackPointExtension>
        </extensions>
      </trkpt>
      <trkpt lat="43.46630810759961605072021484375" lon="1.4697833172976970672607421875">
        <ele>261.600006103515625</ele>
        <time>2026-08-05T07:52:52.000Z</time>
        <extensions>
          <ns3:TrackPointExtension>
            <ns3:hr>85</ns3:hr>
            <ns3:cad>45</ns3:cad>
          </ns3:TrackPointExtension>
        </extensions>
      </trkpt>
      <trkpt lat="43.4663143940269947052001953125" lon="1.46977552212774753570556640625">
        <ele>261.600006103515625</ele>
        <time>2026-08-05T07:52:53.000Z</time>
        <extensions>
          <ns3:TrackPointExtension>
            <ns3:hr>84</ns3:hr>
            <ns3:cad>44</ns3:cad>
          </ns3:TrackPointExtension>
        </extensions>
      </trkpt>
      <trkpt lat="43.466323278844356536865234375" lon="1.4697719179093837738037109375">
        <ele>261.79998779296875</ele>
        <time>2026-08-05T07:52:54.000Z</time>
        <extensions>
          <ns3:TrackPointExtension>
            <ns3:hr>84</ns3:hr>
            <ns3:cad>44</ns3:cad>
          </ns3:TrackPointExtension>
        </extensions>
      </trkpt>
      <trkpt lat="43.46633409149944782257080078125" lon="1.46976672112941741943359375">
        <ele>261.79998779296875</ele>
        <time>2026-08-05T07:52:55.000Z</time>
        <extensions>
          <ns3:TrackPointExtension>
            <ns3:hr>83</ns3:hr>
            <ns3:cad>44</ns3:cad>
          </ns3:TrackPointExtension>
        </extensions>
      </trkpt>
      <trkpt lat="43.46634532324969768524169921875" lon="1.46976244635879993438720703125">
        <ele>262</ele>
        <time>2026-08-05T07:52:56.000Z</time>
        <extensions>
          <ns3:TrackPointExtension>
            <ns3:hr>84</ns3:hr>
            <ns3:cad>44</ns3:cad>
          </ns3:TrackPointExtension>
        </extensions>
      </trkpt>
      <trkpt lat="43.46635605208575725555419921875" lon="1.46975356154143810272216796875">
        <ele>262</ele>
        <time>2026-08-05T07:52:57.000Z</time>
        <extensions>
          <ns3:TrackPointExtension>
            <ns3:hr>84</ns3:hr>
            <ns3:cad>45</ns3:cad>
          </ns3:TrackPointExtension>
        </extensions>
      </trkpt>
      <trkpt lat="43.466358818113803863525390625" lon="1.4697445929050445556640625">
        <ele>262.20001220703125</ele>
        <time>2026-08-05T07:52:58.000Z</time>
        <extensions>
          <ns3:TrackPointExtension>
            <ns3:hr>84</ns3:hr>
            <ns3:cad>46</ns3:cad>
          </ns3:TrackPointExtension>
        </extensions>
      </trkpt>
      <trkpt lat="43.46636443398892879486083984375" lon="1.4697430841624736785888671875">
        <ele>262.20001220703125</ele>
        <time>2026-08-05T07:52:59.000Z</time>
        <extensions>
          <ns3:TrackPointExtension>
            <ns3:hr>84</ns3:hr>
            <ns3:cad>46</ns3:cad>
          </ns3:TrackPointExtension>
        </extensions>
      </trkpt>
      <trkpt lat="43.46637834794819355010986328125" lon="1.469736881554126739501953125">
        <ele>262.20001220703125</ele>
        <time>2026-08-05T07:53:00.000Z</time>
        <extensions>
          <ns3:TrackPointExtension>
            <ns3:hr>84</ns3:hr>
            <ns3:cad>45</ns3:cad>
          </ns3:TrackPointExtension>
        </extensions>
      </trkpt>
      <trkpt lat="43.46638840623199939727783203125" lon="1.46973051130771636962890625">
        <ele>262.20001220703125</ele>
        <time>2026-08-05T07:53:01.000Z</time>
        <extensions>
          <ns3:TrackPointExtension>
            <ns3:hr>85</ns3:hr>
            <ns3:cad>45</ns3:cad>
          </ns3:TrackPointExtension>
        </extensions>
      </trkpt>
      <trkpt lat="43.46639879979193210601806640625" lon="1.469731517136096954345703125">
        <ele>262.20001220703125</ele>
        <time>2026-08-05T07:53:02.000Z</time>
        <extensions>
          <ns3:TrackPointExtension>
            <ns3:hr>85</ns3:hr>
            <ns3:cad>45</ns3:cad>
          </ns3:TrackPointExtension>
        </extensions>
      </trkpt>
      <trkpt lat="43.46640667878091335296630859375" lon="1.469726823270320892333984375">
        <ele>262.20001220703125</ele>
        <time>2026-08-05T07:53:03.000Z</time>
        <extensions>
          <ns3:TrackPointExtension>
            <ns3:hr>85</ns3:hr>
            <ns3:cad>45</ns3:cad>
          </ns3:TrackPointExtension>
        </extensions>
      </trkpt>
      <trkpt lat="43.4664203412830829620361328125" lon="1.46971953101456165313720703125">
        <ele>262.20001220703125</ele>
        <time>2026-08-05T07:53:04.000Z</time>
        <extensions>
          <ns3:TrackPointExtension>
            <ns3:hr>86</ns3:hr>
            <ns3:cad>44</ns3:cad>
          </ns3:TrackPointExtension>
        </extensions>
      </trkpt>
      <trkpt lat="43.466428555548191070556640625" lon="1.46971802227199077606201171875">
        <ele>262.20001220703125</ele>
        <time>2026-08-05T07:53:05.000Z</time>
        <extensions>
          <ns3:TrackPointExtension>
            <ns3:hr>86</ns3:hr>
            <ns3:cad>42</ns3:cad>
          </ns3:TrackPointExtension>
        </extensions>
      </trkpt>
      <trkpt lat="43.46643433906137943267822265625" lon="1.46971249021589756011962890625">
        <ele>262.399993896484375</ele>
        <time>2026-08-05T07:53:06.000Z</time>
        <extensions>
          <ns3:TrackPointExtension>
            <ns3:hr>86</ns3:hr>
            <ns3:cad>42</ns3:cad>
          </ns3:TrackPointExtension>
        </extensions>
      </trkpt>
      <trkpt lat="43.46644707955420017242431640625" lon="1.469708383083343505859375">
        <ele>262.399993896484375</ele>
        <time>2026-08-05T07:53:07.000Z</time>
        <extensions>
          <ns3:TrackPointExtension>
            <ns3:hr>86</ns3:hr>
            <ns3:cad>42</ns3:cad>
          </ns3:TrackPointExtension>
        </extensions>
      </trkpt>
      <trkpt lat="43.46645680256187915802001953125" lon="1.4697018451988697052001953125">
        <ele>262.399993896484375</ele>
        <time>2026-08-05T07:53:08.000Z</time>
        <extensions>
          <ns3:TrackPointExtension>
            <ns3:hr>86</ns3:hr>
            <ns3:cad>42</ns3:cad>
          </ns3:TrackPointExtension>
        </extensions>
      </trkpt>
      <trkpt lat="43.466465435922145843505859375" lon="1.46969958208501338958740234375">
        <ele>262.399993896484375</ele>
        <time>2026-08-05T07:53:09.000Z</time>
        <extensions>
          <ns3:TrackPointExtension>
            <ns3:hr>87</ns3:hr>
            <ns3:cad>42</ns3:cad>
          </ns3:TrackPointExtension>
        </extensions>
      </trkpt>
      <trkpt lat="43.46647448837757110595703125" lon="1.469698660075664520263671875">
        <ele>262.399993896484375</ele>
        <time>2026-08-05T07:53:10.000Z</time>
        <extensions>
          <ns3:TrackPointExtension>
            <ns3:hr>87</ns3:hr>
            <ns3:cad>42</ns3:cad>
          </ns3:TrackPointExtension>
        </extensions>
      </trkpt>
      <trkpt lat="43.46648815087974071502685546875" lon="1.46969203837215900421142578125">
        <ele>262.600006103515625</ele>
        <time>2026-08-05T07:53:11.000Z</time>
        <extensions>
          <ns3:TrackPointExtension>
            <ns3:hr>87</ns3:hr>
            <ns3:cad>42</ns3:cad>
          </ns3:TrackPointExtension>
        </extensions>
      </trkpt>
      <trkpt lat="43.46649636514484882354736328125" lon="1.4696860872209072113037109375">
        <ele>262.600006103515625</ele>
        <time>2026-08-05T07:53:12.000Z</time>
        <extensions>
          <ns3:TrackPointExtension>
            <ns3:hr>86</ns3:hr>
            <ns3:cad>42</ns3:cad>
          </ns3:TrackPointExtension>
        </extensions>
      </trkpt>
      <trkpt lat="43.46650323830544948577880859375" lon="1.4696867577731609344482421875">
        <ele>262.79998779296875</ele>
        <time>2026-08-05T07:53:13.000Z</time>
        <extensions>
          <ns3:TrackPointExtension>
            <ns3:hr>87</ns3:hr>
            <ns3:cad>42</ns3:cad>
          </ns3:TrackPointExtension>
        </extensions>
      </trkpt>
      <trkpt lat="43.46651296131312847137451171875" lon="1.46968491375446319580078125">
        <ele>262.79998779296875</ele>
        <time>2026-08-05T07:53:14.000Z</time>
        <extensions>
          <ns3:TrackPointExtension>
            <ns3:hr>87</ns3:hr>
            <ns3:cad>43</ns3:cad>
          </ns3:TrackPointExtension>
        </extensions>
      </trkpt>
      <trkpt lat="43.46652142703533172607421875" lon="1.469679884612560272216796875">
        <ele>263</ele>
        <time>2026-08-05T07:53:15.000Z</time>
        <extensions>
          <ns3:TrackPointExtension>
            <ns3:hr>86</ns3:hr>
            <ns3:cad>44</ns3:cad>
          </ns3:TrackPointExtension>
        </extensions>
      </trkpt>
      <trkpt lat="43.46652754582464694976806640625" lon="1.46966840140521526336669921875">
        <ele>263</ele>
        <time>2026-08-05T07:53:16.000Z</time>
        <extensions>
          <ns3:TrackPointExtension>
            <ns3:hr>86</ns3:hr>
            <ns3:cad>44</ns3:cad>
          </ns3:TrackPointExtension>
        </extensions>
      </trkpt>
      <trkpt lat="43.466531150043010711669921875" lon="1.469667144119739532470703125">
        <ele>263.20001220703125</ele>
        <time>2026-08-05T07:53:17.000Z</time>
        <extensions>
          <ns3:TrackPointExtension>
            <ns3:hr>85</ns3:hr>
            <ns3:cad>44</ns3:cad>
          </ns3:TrackPointExtension>
        </extensions>
      </trkpt>
      <trkpt lat="43.4665407054126262664794921875" lon="1.46966136060655117034912109375">
        <ele>263.20001220703125</ele>
        <time>2026-08-05T07:53:18.000Z</time>
        <extensions>
          <ns3:TrackPointExtension>
            <ns3:hr>85</ns3:hr>
            <ns3:cad>44</ns3:cad>
          </ns3:TrackPointExtension>
        </extensions>
      </trkpt>
      <trkpt lat="43.4665547870099544525146484375" lon="1.469656415283679962158203125">
        <ele>263.20001220703125</ele>
        <time>2026-08-05T07:53:19.000Z</time>
        <extensions>
          <ns3:TrackPointExtension>
            <ns3:hr>84</ns3:hr>
            <ns3:cad>44</ns3:cad>
          </ns3:TrackPointExtension>
        </extensions>
      </trkpt>
      <trkpt lat="43.46656559966504573822021484375" lon="1.4696480333805084228515625">
        <ele>263.20001220703125</ele>
        <time>2026-08-05T07:53:20.000Z</time>
        <extensions>
          <ns3:TrackPointExtension>
            <ns3:hr>85</ns3:hr>
            <ns3:cad>45</ns3:cad>
          </ns3:TrackPointExtension>
        </extensions>
      </trkpt>
      <trkpt lat="43.46657507121562957763671875" lon="1.46965004503726959228515625">
        <ele>263.399993896484375</ele>
        <time>2026-08-05T07:53:21.000Z</time>
        <extensions>
          <ns3:TrackPointExtension>
            <ns3:hr>85</ns3:hr>
            <ns3:cad>45</ns3:cad>
          </ns3:TrackPointExtension>
        </extensions>
      </trkpt>
      <trkpt lat="43.46658051945269107818603515625" lon="1.4696441777050495147705078125">
        <ele>263.399993896484375</ele>
        <time>2026-08-05T07:53:22.000Z</time>
        <extensions>
          <ns3:TrackPointExtension>
            <ns3:hr>85</ns3:hr>
            <ns3:cad>45</ns3:cad>
          </ns3:TrackPointExtension>
        </extensions>
      </trkpt>
      <trkpt lat="43.46659543924033641815185546875" lon="1.469638310372829437255859375">
        <ele>263.399993896484375</ele>
        <time>2026-08-05T07:53:23.000Z</time>
        <extensions>
          <ns3:TrackPointExtension>
            <ns3:hr>86</ns3:hr>
            <ns3:cad>45</ns3:cad>
          </ns3:TrackPointExtension>
        </extensions>
      </trkpt>
      <trkpt lat="43.466603569686412811279296875" lon="1.4696327783167362213134765625">
        <ele>263.399993896484375</ele>
        <time>2026-08-05T07:53:24.000Z</time>
        <extensions>
          <ns3:TrackPointExtension>
            <ns3:hr>86</ns3:hr>
            <ns3:cad>46</ns3:cad>
          </ns3:TrackPointExtension>
        </extensions>
      </trkpt>
      <trkpt lat="43.46660851500928401947021484375" lon="1.46963596343994140625">
        <ele>263.600006103515625</ele>
        <time>2026-08-05T07:53:25.000Z</time>
        <extensions>
          <ns3:TrackPointExtension>
            <ns3:hr>86</ns3:hr>
            <ns3:cad>46</ns3:cad>
          </ns3:TrackPointExtension>
        </extensions>
      </trkpt>
      <trkpt lat="43.46661186777055263519287109375" lon="1.46962967701256275177001953125">
        <ele>263.600006103515625</ele>
        <time>2026-08-05T07:53:26.000Z</time>
        <extensions>
          <ns3:TrackPointExtension>
            <ns3:hr>86</ns3:hr>
            <ns3:cad>46</ns3:cad>
          </ns3:TrackPointExtension>
        </extensions>
      </trkpt>
      <trkpt lat="43.466621339321136474609375" lon="1.46962045691907405853271484375">
        <ele>263.600006103515625</ele>
        <time>2026-08-05T07:53:27.000Z</time>
        <extensions>
          <ns3:TrackPointExtension>
            <ns3:hr>85</ns3:hr>
            <ns3:cad>0</ns3:cad>
          </ns3:TrackPointExtension>
        </extensions>
      </trkpt>
      <trkpt lat="43.46663081087172031402587890625" lon="1.46961006335914134979248046875">
        <ele>263.600006103515625</ele>
        <time>2026-08-05T07:53:28.000Z</time>
        <extensions>
          <ns3:TrackPointExtension>
            <ns3:hr>86</ns3:hr>
            <ns3:cad>0</ns3:cad>
          </ns3:TrackPointExtension>
        </extensions>
      </trkpt>
      <trkpt lat="43.46664120443165302276611328125" lon="1.46960436366498470306396484375">
        <ele>263.600006103515625</ele>
        <time>2026-08-05T07:53:29.000Z</time>
        <extensions>
          <ns3:TrackPointExtension>
            <ns3:hr>86</ns3:hr>
            <ns3:cad>0</ns3:cad>
          </ns3:TrackPointExtension>
        </extensions>
      </trkpt>
      <trkpt lat="43.46664455719292163848876953125" lon="1.46960369311273097991943359375">
        <ele>263.600006103515625</ele>
        <time>2026-08-05T07:53:30.000Z</time>
        <extensions>
          <ns3:TrackPointExtension>
            <ns3:hr>85</ns3:hr>
            <ns3:cad>49</ns3:cad>
          </ns3:TrackPointExtension>
        </extensions>
      </trkpt>
      <trkpt lat="43.46665662713348865509033203125" lon="1.46960034035146236419677734375">
        <ele>263.600006103515625</ele>
        <time>2026-08-05T07:53:31.000Z</time>
        <extensions>
          <ns3:TrackPointExtension>
            <ns3:hr>86</ns3:hr>
            <ns3:cad>49</ns3:cad>
          </ns3:TrackPointExtension>
        </extensions>
      </trkpt>
      <trkpt lat="43.46666618250310420989990234375" lon="1.46959145553410053253173828125">
        <ele>263.600006103515625</ele>
        <time>2026-08-05T07:53:32.000Z</time>
        <extensions>
          <ns3:TrackPointExtension>
            <ns3:hr>86</ns3:hr>
            <ns3:cad>48</ns3:cad>
          </ns3:TrackPointExtension>
        </extensions>
      </trkpt>
      <trkpt lat="43.46667573787271976470947265625" lon="1.46958542056381702423095703125">
        <ele>263.600006103515625</ele>
        <time>2026-08-05T07:53:33.000Z</time>
        <extensions>
          <ns3:TrackPointExtension>
            <ns3:hr>86</ns3:hr>
            <ns3:cad>48</ns3:cad>
          </ns3:TrackPointExtension>
        </extensions>
      </trkpt>
      <trkpt lat="43.4666848741471767425537109375" lon="1.46958022378385066986083984375">
        <ele>263.600006103515625</ele>
        <time>2026-08-05T07:53:34.000Z</time>
        <extensions>
          <ns3:TrackPointExtension>
            <ns3:hr>85</ns3:hr>
            <ns3:cad>48</ns3:cad>
          </ns3:TrackPointExtension>
        </extensions>
      </trkpt>
      <trkpt lat="43.46669317223131656646728515625" lon="1.46957687102258205413818359375">
        <ele>263.600006103515625</ele>
        <time>2026-08-05T07:53:35.000Z</time>
        <extensions>
          <ns3:TrackPointExtension>
            <ns3:hr>85</ns3:hr>
            <ns3:cad>47</ns3:cad>
          </ns3:TrackPointExtension>
        </extensions>
      </trkpt>
      <trkpt lat="43.4667043201625347137451171875" lon="1.46957050077617168426513671875">
        <ele>263.399993896484375</ele>
        <time>2026-08-05T07:53:36.000Z</time>
        <extensions>
          <ns3:TrackPointExtension>
            <ns3:hr>85</ns3:hr>
            <ns3:cad>47</ns3:cad>
          </ns3:TrackPointExtension>
        </extensions>
      </trkpt>
      <trkpt lat="43.466712199151515960693359375" lon="1.46956010721623897552490234375">
        <ele>263.399993896484375</ele>
        <time>2026-08-05T07:53:37.000Z</time>
        <extensions>
          <ns3:TrackPointExtension>
            <ns3:hr>84</ns3:hr>
            <ns3:cad>46</ns3:cad>
          </ns3:TrackPointExtension>
        </extensions>
      </trkpt>
      <trkpt lat="43.4667214192450046539306640625" lon="1.46955222822725772857666015625">
        <ele>263.399993896484375</ele>
        <time>2026-08-05T07:53:38.000Z</time>
        <extensions>
          <ns3:TrackPointExtension>
            <ns3:hr>85</ns3:hr>
            <ns3:cad>46</ns3:cad>
          </ns3:TrackPointExtension>
        </extensions>
      </trkpt>
      <trkpt lat="43.4667298011481761932373046875" lon="1.46954602561891078948974609375">
        <ele>263.399993896484375</ele>
        <time>2026-08-05T07:53:39.000Z</time>
        <extensions>
          <ns3:TrackPointExtension>
            <ns3:hr>85</ns3:hr>
            <ns3:cad>48</ns3:cad>
          </ns3:TrackPointExtension>
        </extensions>
      </trkpt>
      <trkpt lat="43.46674178726971149444580078125" lon="1.46954066120088100433349609375">
        <ele>263.399993896484375</ele>
        <time>2026-08-05T07:53:40.000Z</time>
        <extensions>
          <ns3:TrackPointExtension>
            <ns3:hr>85</ns3:hr>
            <ns3:cad>48</ns3:cad>
          </ns3:TrackPointExtension>
        </extensions>
      </trkpt>
      <trkpt lat="43.466750420629978179931640625" lon="1.46953596733510494232177734375">
        <ele>263.399993896484375</ele>
        <time>2026-08-05T07:53:41.000Z</time>
        <extensions>
          <ns3:TrackPointExtension>
            <ns3:hr>84</ns3:hr>
            <ns3:cad>48</ns3:cad>
          </ns3:TrackPointExtension>
        </extensions>
      </trkpt>
      <trkpt lat="43.46675972454249858856201171875" lon="1.4695273339748382568359375">
        <ele>263.399993896484375</ele>
        <time>2026-08-05T07:53:42.000Z</time>
        <extensions>
          <ns3:TrackPointExtension>
            <ns3:hr>84</ns3:hr>
            <ns3:cad>48</ns3:cad>
          </ns3:TrackPointExtension>
        </extensions>
      </trkpt>
      <trkpt lat="43.4667670167982578277587890625" lon="1.4695191197097301483154296875">
        <ele>263.20001220703125</ele>
        <time>2026-08-05T07:53:43.000Z</time>
        <extensions>
          <ns3:TrackPointExtension>
            <ns3:hr>84</ns3:hr>
            <ns3:cad>49</ns3:cad>
          </ns3:TrackPointExtension>
        </extensions>
      </trkpt>
      <trkpt lat="43.46677623689174652099609375" lon="1.469516940414905548095703125">
        <ele>263.20001220703125</ele>
        <time>2026-08-05T07:53:44.000Z</time>
        <extensions>
          <ns3:TrackPointExtension>
            <ns3:hr>84</ns3:hr>
            <ns3:cad>49</ns3:cad>
          </ns3:TrackPointExtension>
        </extensions>
      </trkpt>
      <trkpt lat="43.46678369678556919097900390625" lon="1.46951316855847835540771484375">
        <ele>263.20001220703125</ele>
        <time>2026-08-05T07:53:45.000Z</time>
        <extensions>
          <ns3:TrackPointExtension>
            <ns3:hr>84</ns3:hr>
            <ns3:cad>0</ns3:cad>
          </ns3:TrackPointExtension>
        </extensions>
      </trkpt>
      <trkpt lat="43.46679258160293102264404296875" lon="1.4695060439407825469970703125">
        <ele>263.20001220703125</ele>
        <time>2026-08-05T07:53:46.000Z</time>
        <extensions>
          <ns3:TrackPointExtension>
            <ns3:hr>84</ns3:hr>
            <ns3:cad>0</ns3:cad>
          </ns3:TrackPointExtension>
        </extensions>
      </trkpt>
      <trkpt lat="43.46680263988673686981201171875" lon="1.4694973267614841461181640625">
        <ele>263</ele>
        <time>2026-08-05T07:53:47.000Z</time>
        <extensions>
          <ns3:TrackPointExtension>
            <ns3:hr>83</ns3:hr>
            <ns3:cad>50</ns3:cad>
          </ns3:TrackPointExtension>
        </extensions>
      </trkpt>
      <trkpt lat="43.4668136201798915863037109375" lon="1.4694906212389469146728515625">
        <ele>263</ele>
        <time>2026-08-05T07:53:48.000Z</time>
        <extensions>
          <ns3:TrackPointExtension>
            <ns3:hr>83</ns3:hr>
            <ns3:cad>50</ns3:cad>
          </ns3:TrackPointExtension>
        </extensions>
      </trkpt>
      <trkpt lat="43.466824851930141448974609375" lon="1.46948232315480709075927734375">
        <ele>263</ele>
        <time>2026-08-05T07:53:49.000Z</time>
        <extensions>
          <ns3:TrackPointExtension>
            <ns3:hr>83</ns3:hr>
            <ns3:cad>50</ns3:cad>
          </ns3:TrackPointExtension>
        </extensions>
      </trkpt>
      <trkpt lat="43.466831557452678680419921875" lon="1.46947964094579219818115234375">
        <ele>262.79998779296875</ele>
        <time>2026-08-05T07:53:50.000Z</time>
        <extensions>
          <ns3:TrackPointExtension>
            <ns3:hr>82</ns3:hr>
            <ns3:cad>49</ns3:cad>
          </ns3:TrackPointExtension>
        </extensions>
      </trkpt>
      <trkpt lat="43.46684086136519908905029296875" lon="1.4694758690893650054931640625">
        <ele>262.79998779296875</ele>
        <time>2026-08-05T07:53:51.000Z</time>
        <extensions>
          <ns3:TrackPointExtension>
            <ns3:hr>81</ns3:hr>
            <ns3:cad>49</ns3:cad>
          </ns3:TrackPointExtension>
        </extensions>
      </trkpt>
      <trkpt lat="43.4668521769344806671142578125" lon="1.4694698341190814971923828125">
        <ele>262.79998779296875</ele>
        <time>2026-08-05T07:53:52.000Z</time>
        <extensions>
          <ns3:TrackPointExtension>
            <ns3:hr>80</ns3:hr>
            <ns3:cad>49</ns3:cad>
          </ns3:TrackPointExtension>
        </extensions>
      </trkpt>
      <trkpt lat="43.46686516888439655303955078125" lon="1.469462625682353973388671875">
        <ele>262.600006103515625</ele>
        <time>2026-08-05T07:53:53.000Z</time>
        <extensions>
          <ns3:TrackPointExtension>
            <ns3:hr>80</ns3:hr>
            <ns3:cad>48</ns3:cad>
          </ns3:TrackPointExtension>
        </extensions>
      </trkpt>
      <trkpt lat="43.46687673591077327728271484375" lon="1.4694557525217533111572265625">
        <ele>262.600006103515625</ele>
        <time>2026-08-05T07:53:54.000Z</time>
        <extensions>
          <ns3:TrackPointExtension>
            <ns3:hr>79</ns3:hr>
            <ns3:cad>49</ns3:cad>
          </ns3:TrackPointExtension>
        </extensions>
      </trkpt>
      <trkpt lat="43.46688679419457912445068359375" lon="1.469453237950801849365234375">
        <ele>262.600006103515625</ele>
        <time>2026-08-05T07:53:55.000Z</time>
        <extensions>
          <ns3:TrackPointExtension>
            <ns3:hr>78</ns3:hr>
            <ns3:cad>49</ns3:cad>
          </ns3:TrackPointExtension>
        </extensions>
      </trkpt>
      <trkpt lat="43.46689651720225811004638671875" lon="1.469450891017913818359375">
        <ele>262.600006103515625</ele>
        <time>2026-08-05T07:53:56.000Z</time>
        <extensions>
          <ns3:TrackPointExtension>
            <ns3:hr>77</ns3:hr>
            <ns3:cad>50</ns3:cad>
          </ns3:TrackPointExtension>
        </extensions>
      </trkpt>
      <trkpt lat="43.4669071622192859649658203125" lon="1.46944711916148662567138671875">
        <ele>262.399993896484375</ele>
        <time>2026-08-05T07:53:57.000Z</time>
        <extensions>
          <ns3:TrackPointExtension>
            <ns3:hr>77</ns3:hr>
            <ns3:cad>50</ns3:cad>
          </ns3:TrackPointExtension>
        </extensions>
      </trkpt>
      <trkpt lat="43.466918729245662689208984375" lon="1.46944141946732997894287109375">
        <ele>262.399993896484375</ele>
        <time>2026-08-05T07:53:58.000Z</time>
        <extensions>
          <ns3:TrackPointExtension>
            <ns3:hr>76</ns3:hr>
            <ns3:cad>50</ns3:cad>
          </ns3:TrackPointExtension>
        </extensions>
      </trkpt>
      <trkpt lat="43.4669313021004199981689453125" lon="1.4694369770586490631103515625">
        <ele>262.399993896484375</ele>
        <time>2026-08-05T07:53:59.000Z</time>
        <extensions>
          <ns3:TrackPointExtension>
            <ns3:hr>76</ns3:hr>
            <ns3:cad>50</ns3:cad>
          </ns3:TrackPointExtension>
        </extensions>
      </trkpt>
      <trkpt lat="43.4669418632984161376953125" lon="1.4694334566593170166015625">
        <ele>262.20001220703125</ele>
        <time>2026-08-05T07:54:00.000Z</time>
        <extensions>
          <ns3:TrackPointExtension>
            <ns3:hr>76</ns3:hr>
            <ns3:cad>48</ns3:cad>
          </ns3:TrackPointExtension>
        </extensions>
      </trkpt>
      <trkpt lat="43.46695183776319026947021484375" lon="1.469432450830936431884765625">
        <ele>262.20001220703125</ele>
        <time>2026-08-05T07:54:01.000Z</time>
        <extensions>
          <ns3:TrackPointExtension>
            <ns3:hr>77</ns3:hr>
            <ns3:cad>50</ns3:cad>
          </ns3:TrackPointExtension>
        </extensions>
      </trkpt>
      <trkpt lat="43.46695996820926666259765625" lon="1.4694332890212535858154296875">
        <ele>262</ele>
        <time>2026-08-05T07:54:02.000Z</time>
        <extensions>
          <ns3:TrackPointExtension>
            <ns3:hr>77</ns3:hr>
            <ns3:cad>50</ns3:cad>
          </ns3:TrackPointExtension>
        </extensions>
      </trkpt>
      <trkpt lat="43.466968350112438201904296875" lon="1.46942700259387493133544921875">
        <ele>262</ele>
        <time>2026-08-05T07:54:03.000Z</time>
        <extensions>
          <ns3:TrackPointExtension>
            <ns3:hr>77</ns3:hr>
            <ns3:cad>50</ns3:cad>
          </ns3:TrackPointExtension>
        </extensions>
      </trkpt>
      <trkpt lat="43.46698134206235408782958984375" lon="1.46941761486232280731201171875">
        <ele>262</ele>
        <time>2026-08-05T07:54:04.000Z</time>
        <extensions>
          <ns3:TrackPointExtension>
            <ns3:hr>77</ns3:hr>
            <ns3:cad>50</ns3:cad>
          </ns3:TrackPointExtension>
        </extensions>
      </trkpt>
      <trkpt lat="43.46699215471744537353515625" lon="1.46940822713077068328857421875">
        <ele>261.79998779296875</ele>
        <time>2026-08-05T07:54:05.000Z</time>
        <extensions>
          <ns3:TrackPointExtension>
            <ns3:hr>78</ns3:hr>
            <ns3:cad>50</ns3:cad>
          </ns3:TrackPointExtension>
        </extensions>
      </trkpt>
      <trkpt lat="43.46700129099190235137939453125" lon="1.46940252743661403656005859375">
        <ele>261.79998779296875</ele>
        <time>2026-08-05T07:54:06.000Z</time>
        <extensions>
          <ns3:TrackPointExtension>
            <ns3:hr>77</ns3:hr>
            <ns3:cad>50</ns3:cad>
          </ns3:TrackPointExtension>
        </extensions>
      </trkpt>
      <trkpt lat="43.46701302565634250640869140625" lon="1.46940252743661403656005859375">
        <ele>261.600006103515625</ele>
        <time>2026-08-05T07:54:07.000Z</time>
        <extensions>
          <ns3:TrackPointExtension>
            <ns3:hr>78</ns3:hr>
            <ns3:cad>50</ns3:cad>
          </ns3:TrackPointExtension>
        </extensions>
      </trkpt>
      <trkpt lat="43.46702224574983119964599609375" lon="1.4694044552743434906005859375">
        <ele>261.600006103515625</ele>
        <time>2026-08-05T07:54:08.000Z</time>
        <extensions>
          <ns3:TrackPointExtension>
            <ns3:hr>78</ns3:hr>
            <ns3:cad>50</ns3:cad>
          </ns3:TrackPointExtension>
        </extensions>
      </trkpt>
      <trkpt lat="43.46703163348138332366943359375" lon="1.469395570456981658935546875">
        <ele>261.399993896484375</ele>
        <time>2026-08-05T07:54:09.000Z</time>
        <extensions>
          <ns3:TrackPointExtension>
            <ns3:hr>79</ns3:hr>
            <ns3:cad>49</ns3:cad>
          </ns3:TrackPointExtension>
        </extensions>
      </trkpt>
      <trkpt lat="43.46704445779323577880859375" lon="1.46938542835414409637451171875">
        <ele>261.600006103515625</ele>
        <time>2026-08-05T07:54:10.000Z</time>
        <extensions>
          <ns3:TrackPointExtension>
            <ns3:hr>78</ns3:hr>
            <ns3:cad>49</ns3:cad>
          </ns3:TrackPointExtension>
        </extensions>
      </trkpt>
      <trkpt lat="43.46705627627670764923095703125" lon="1.46937872283160686492919921875">
        <ele>261.600006103515625</ele>
        <time>2026-08-05T07:54:11.000Z</time>
        <extensions>
          <ns3:TrackPointExtension>
            <ns3:hr>78</ns3:hr>
            <ns3:cad>48</ns3:cad>
          </ns3:TrackPointExtension>
        </extensions>
      </trkpt>
      <trkpt lat="43.467067591845989227294921875" lon="1.46937310695648193359375">
        <ele>261.600006103515625</ele>
        <time>2026-08-05T07:54:12.000Z</time>
        <extensions>
          <ns3:TrackPointExtension>
            <ns3:hr>77</ns3:hr>
            <ns3:cad>48</ns3:cad>
          </ns3:TrackPointExtension>
        </extensions>
      </trkpt>
      <trkpt lat="43.46707890741527080535888671875" lon="1.46937134675681591033935546875">
        <ele>261.600006103515625</ele>
        <time>2026-08-05T07:54:13.000Z</time>
        <extensions>
          <ns3:TrackPointExtension>
            <ns3:hr>76</ns3:hr>
            <ns3:cad>48</ns3:cad>
          </ns3:TrackPointExtension>
        </extensions>
      </trkpt>
      <trkpt lat="43.46708728931844234466552734375" lon="1.46936614997684955596923828125">
        <ele>261.600006103515625</ele>
        <time>2026-08-05T07:54:14.000Z</time>
        <extensions>
          <ns3:TrackPointExtension>
            <ns3:hr>76</ns3:hr>
            <ns3:cad>50</ns3:cad>
          </ns3:TrackPointExtension>
        </extensions>
      </trkpt>
      <trkpt lat="43.4670979343354701995849609375" lon="1.4693595282733440399169921875">
        <ele>261.600006103515625</ele>
        <time>2026-08-05T07:54:15.000Z</time>
        <extensions>
          <ns3:TrackPointExtension>
            <ns3:hr>75</ns3:hr>
            <ns3:cad>50</ns3:cad>
          </ns3:TrackPointExtension>
        </extensions>
      </trkpt>
      <trkpt lat="43.46710908226668834686279296875" lon="1.4693508110940456390380859375">
        <ele>261.399993896484375</ele>
        <time>2026-08-05T07:54:16.000Z</time>
        <extensions>
          <ns3:TrackPointExtension>
            <ns3:hr>75</ns3:hr>
            <ns3:cad>49</ns3:cad>
          </ns3:TrackPointExtension>
        </extensions>
      </trkpt>
      <trkpt lat="43.46711813472211360931396484375" lon="1.469343267381191253662109375">
        <ele>261.399993896484375</ele>
        <time>2026-08-05T07:54:17.000Z</time>
        <extensions>
          <ns3:TrackPointExtension>
            <ns3:hr>74</ns3:hr>
            <ns3:cad>49</ns3:cad>
          </ns3:TrackPointExtension>
        </extensions>
      </trkpt>
      <trkpt lat="43.46712618134915828704833984375" lon="1.4693395793437957763671875">
        <ele>261.20001220703125</ele>
        <time>2026-08-05T07:54:18.000Z</time>
        <extensions>
          <ns3:TrackPointExtension>
            <ns3:hr>74</ns3:hr>
            <ns3:cad>49</ns3:cad>
          </ns3:TrackPointExtension>
        </extensions>
      </trkpt>
      <trkpt lat="43.4671354852616786956787109375" lon="1.469337232410907745361328125">
        <ele>261.20001220703125</ele>
        <time>2026-08-05T07:54:19.000Z</time>
        <extensions>
          <ns3:TrackPointExtension>
            <ns3:hr>73</ns3:hr>
            <ns3:cad>50</ns3:cad>
          </ns3:TrackPointExtension>
        </extensions>
      </trkpt>
      <trkpt lat="43.46714411862194538116455078125" lon="1.46933413110673427581787109375">
        <ele>261.20001220703125</ele>
        <time>2026-08-05T07:54:20.000Z</time>
        <extensions>
          <ns3:TrackPointExtension>
            <ns3:hr>73</ns3:hr>
            <ns3:cad>50</ns3:cad>
          </ns3:TrackPointExtension>
        </extensions>
      </trkpt>
      <trkpt lat="43.46715417690575122833251953125" lon="1.4693296886980533599853515625">
        <ele>261.20001220703125</ele>
        <time>2026-08-05T07:54:21.000Z</time>
        <extensions>
          <ns3:TrackPointExtension>
            <ns3:hr>73</ns3:hr>
            <ns3:cad>50</ns3:cad>
          </ns3:TrackPointExtension>
        </extensions>
      </trkpt>
      <trkpt lat="43.46716742031276226043701171875" lon="1.469322480261325836181640625">
        <ele>261</ele>
        <time>2026-08-05T07:54:22.000Z</time>
        <extensions>
          <ns3:TrackPointExtension>
            <ns3:hr>74</ns3:hr>
            <ns3:cad>50</ns3:cad>
          </ns3:TrackPointExtension>
        </extensions>
      </trkpt>
      <trkpt lat="43.467176891863346099853515625" lon="1.46931904368102550506591796875">
        <ele>261</ele>
        <time>2026-08-05T07:54:23.000Z</time>
        <extensions>
          <ns3:TrackPointExtension>
            <ns3:hr>74</ns3:hr>
            <ns3:cad>49</ns3:cad>
          </ns3:TrackPointExtension>
        </extensions>
      </trkpt>
      <trkpt lat="43.46718720160424709320068359375" lon="1.46931904368102550506591796875">
        <ele>261</ele>
        <time>2026-08-05T07:54:24.000Z</time>
        <extensions>
          <ns3:TrackPointExtension>
            <ns3:hr>73</ns3:hr>
            <ns3:cad>49</ns3:cad>
          </ns3:TrackPointExtension>
        </extensions>
      </trkpt>
      <trkpt lat="43.46719642169773578643798828125" lon="1.4693219773471355438232421875">
        <ele>260.79998779296875</ele>
        <time>2026-08-05T07:54:25.000Z</time>
        <extensions>
          <ns3:TrackPointExtension>
            <ns3:hr>73</ns3:hr>
            <ns3:cad>49</ns3:cad>
          </ns3:TrackPointExtension>
        </extensions>
      </trkpt>
      <trkpt lat="43.46720564179122447967529296875" lon="1.46931602619588375091552734375">
        <ele>260.79998779296875</ele>
        <time>2026-08-05T07:54:26.000Z</time>
        <extensions>
          <ns3:TrackPointExtension>
            <ns3:hr>73</ns3:hr>
            <ns3:cad>50</ns3:cad>
          </ns3:TrackPointExtension>
        </extensions>
      </trkpt>
      <trkpt lat="43.46721771173179149627685546875" lon="1.469310410320758819580078125">
        <ele>260.79998779296875</ele>
        <time>2026-08-05T07:54:27.000Z</time>
        <extensions>
          <ns3:TrackPointExtension>
            <ns3:hr>73</ns3:hr>
            <ns3:cad>50</ns3:cad>
          </ns3:TrackPointExtension>
        </extensions>
      </trkpt>
      <trkpt lat="43.46723296679556369781494140625" lon="1.469303034245967864990234375">
        <ele>260.600006103515625</ele>
        <time>2026-08-05T07:54:28.000Z</time>
        <extensions>
          <ns3:TrackPointExtension>
            <ns3:hr>73</ns3:hr>
            <ns3:cad>50</ns3:cad>
          </ns3:TrackPointExtension>
        </extensions>
      </trkpt>
      <trkpt lat="43.46724302507936954498291015625" lon="1.469299681484699249267578125">
        <ele>260.600006103515625</ele>
        <time>2026-08-05T07:54:29.000Z</time>
        <extensions>
          <ns3:TrackPointExtension>
            <ns3:hr>73</ns3:hr>
            <ns3:cad>49</ns3:cad>
          </ns3:TrackPointExtension>
        </extensions>
      </trkpt>
      <trkpt lat="43.467254675924777984619140625" lon="1.4692988432943820953369140625">
        <ele>260.600006103515625</ele>
        <time>2026-08-05T07:54:30.000Z</time>
        <extensions>
          <ns3:TrackPointExtension>
            <ns3:hr>72</ns3:hr>
            <ns3:cad>49</ns3:cad>
          </ns3:TrackPointExtension>
        </extensions>
      </trkpt>
      <trkpt lat="43.4672642312943935394287109375" lon="1.46929775364696979522705078125">
        <ele>260.399993896484375</ele>
        <time>2026-08-05T07:54:31.000Z</time>
        <extensions>
          <ns3:TrackPointExtension>
            <ns3:hr>72</ns3:hr>
            <ns3:cad>50</ns3:cad>
          </ns3:TrackPointExtension>
        </extensions>
      </trkpt>
      <trkpt lat="43.4672746248543262481689453125" lon="1.46929590962827205657958984375">
        <ele>260.399993896484375</ele>
        <time>2026-08-05T07:54:32.000Z</time>
        <extensions>
          <ns3:TrackPointExtension>
            <ns3:hr>72</ns3:hr>
            <ns3:cad>50</ns3:cad>
          </ns3:TrackPointExtension>
        </extensions>
      </trkpt>
      <trkpt lat="43.4672850184142589569091796875" lon="1.4692877791821956634521484375">
        <ele>260.399993896484375</ele>
        <time>2026-08-05T07:54:33.000Z</time>
        <extensions>
          <ns3:TrackPointExtension>
            <ns3:hr>72</ns3:hr>
            <ns3:cad>50</ns3:cad>
          </ns3:TrackPointExtension>
        </extensions>
      </trkpt>
      <trkpt lat="43.4672940708696842193603515625" lon="1.46928367204964160919189453125">
        <ele>260.399993896484375</ele>
        <time>2026-08-05T07:54:34.000Z</time>
        <extensions>
          <ns3:TrackPointExtension>
            <ns3:hr>71</ns3:hr>
            <ns3:cad>50</ns3:cad>
          </ns3:TrackPointExtension>
        </extensions>
      </trkpt>
      <trkpt lat="43.46730790100991725921630859375" lon="1.4692752063274383544921875">
        <ele>260.20001220703125</ele>
        <time>2026-08-05T07:54:35.000Z</time>
        <extensions>
          <ns3:TrackPointExtension>
            <ns3:hr>72</ns3:hr>
            <ns3:cad>50</ns3:cad>
          </ns3:TrackPointExtension>
        </extensions>
      </trkpt>
      <trkpt lat="43.46732080914080142974853515625" lon="1.46927227266132831573486328125">
        <ele>260.20001220703125</ele>
        <time>2026-08-05T07:54:36.000Z</time>
        <extensions>
          <ns3:TrackPointExtension>
            <ns3:hr>71</ns3:hr>
            <ns3:cad>50</ns3:cad>
          </ns3:TrackPointExtension>
        </extensions>
      </trkpt>
      <trkpt lat="43.4673307836055755615234375" lon="1.4692720212042331695556640625">
        <ele>260.20001220703125</ele>
        <time>2026-08-05T07:54:37.000Z</time>
        <extensions>
          <ns3:TrackPointExtension>
            <ns3:hr>71</ns3:hr>
            <ns3:cad>50</ns3:cad>
          </ns3:TrackPointExtension>
        </extensions>
      </trkpt>
      <trkpt lat="43.46734226681292057037353515625" lon="1.46926657296717166900634765625">
        <ele>260</ele>
        <time>2026-08-05T07:54:38.000Z</time>
        <extensions>
          <ns3:TrackPointExtension>
            <ns3:hr>71</ns3:hr>
            <ns3:cad>50</ns3:cad>
          </ns3:TrackPointExtension>
        </extensions>
      </trkpt>
      <trkpt lat="43.46735483966767787933349609375" lon="1.46926087327301502227783203125">
        <ele>260</ele>
        <time>2026-08-05T07:54:39.000Z</time>
        <extensions>
          <ns3:TrackPointExtension>
            <ns3:hr>71</ns3:hr>
            <ns3:cad>50</ns3:cad>
          </ns3:TrackPointExtension>
        </extensions>
      </trkpt>
      <trkpt lat="43.4673654846847057342529296875" lon="1.46925550885498523712158203125">
        <ele>260</ele>
        <time>2026-08-05T07:54:40.000Z</time>
        <extensions>
          <ns3:TrackPointExtension>
            <ns3:hr>70</ns3:hr>
            <ns3:cad>50</ns3:cad>
          </ns3:TrackPointExtension>
        </extensions>
      </trkpt>
      <trkpt lat="43.46737244166433811187744140625" lon="1.46925265900790691375732421875">
        <ele>260</ele>
        <time>2026-08-05T07:54:41.000Z</time>
        <extensions>
          <ns3:TrackPointExtension>
            <ns3:hr>70</ns3:hr>
            <ns3:cad>49</ns3:cad>
          </ns3:TrackPointExtension>
        </extensions>
      </trkpt>
      <trkpt lat="43.46737747080624103546142578125" lon="1.46925400011241436004638671875">
        <ele>260</ele>
        <time>2026-08-05T07:54:42.000Z</time>
        <extensions>
          <ns3:TrackPointExtension>
            <ns3:hr>70</ns3:hr>
            <ns3:cad>48</ns3:cad>
          </ns3:TrackPointExtension>
        </extensions>
      </trkpt>
      <trkpt lat="43.4673889540135860443115234375" lon="1.4692475460469722747802734375">
        <ele>260</ele>
        <time>2026-08-05T07:54:43.000Z</time>
        <extensions>
          <ns3:TrackPointExtension>
            <ns3:hr>70</ns3:hr>
            <ns3:cad>48</ns3:cad>
          </ns3:TrackPointExtension>
        </extensions>
      </trkpt>
      <trkpt lat="43.46739591099321842193603515625" lon="1.46924159489572048187255859375">
        <ele>260</ele>
        <time>2026-08-05T07:54:44.000Z</time>
        <extensions>
          <ns3:TrackPointExtension>
            <ns3:hr>71</ns3:hr>
            <ns3:cad>48</ns3:cad>
          </ns3:TrackPointExtension>
        </extensions>
      </trkpt>
      <trkpt lat="43.4674060530960559844970703125" lon="1.46923991851508617401123046875">
        <ele>259.79998779296875</ele>
        <time>2026-08-05T07:54:45.000Z</time>
        <extensions>
          <ns3:TrackPointExtension>
            <ns3:hr>70</ns3:hr>
            <ns3:cad>48</ns3:cad>
          </ns3:TrackPointExtension>
        </extensions>
      </trkpt>
      <trkpt lat="43.467414267361164093017578125" lon="1.469233967363834381103515625">
        <ele>259.79998779296875</ele>
        <time>2026-08-05T07:54:46.000Z</time>
        <extensions>
          <ns3:TrackPointExtension>
            <ns3:hr>69</ns3:hr>
            <ns3:cad>45</ns3:cad>
          </ns3:TrackPointExtension>
        </extensions>
      </trkpt>
      <trkpt lat="43.4674219787120819091796875" lon="1.46922902204096317291259765625">
        <ele>259.79998779296875</ele>
        <time>2026-08-05T07:54:47.000Z</time>
        <extensions>
          <ns3:TrackPointExtension>
            <ns3:hr>69</ns3:hr>
            <ns3:cad>45</ns3:cad>
          </ns3:TrackPointExtension>
        </extensions>
      </trkpt>
      <trkpt lat="43.46743061207234859466552734375" lon="1.46922432817518711090087890625">
        <ele>259.79998779296875</ele>
        <time>2026-08-05T07:54:48.000Z</time>
        <extensions>
          <ns3:TrackPointExtension>
            <ns3:hr>69</ns3:hr>
            <ns3:cad>45</ns3:cad>
          </ns3:TrackPointExtension>
        </extensions>
      </trkpt>
      <trkpt lat="43.4674368984997272491455078125" lon="1.46922625601291656494140625">
        <ele>259.79998779296875</ele>
        <time>2026-08-05T07:54:49.000Z</time>
        <extensions>
          <ns3:TrackPointExtension>
            <ns3:hr>68</ns3:hr>
            <ns3:cad>43</ns3:cad>
          </ns3:TrackPointExtension>
        </extensions>
      </trkpt>
      <trkpt lat="43.46744678914546966552734375" lon="1.46922047249972820281982421875">
        <ele>259.79998779296875</ele>
        <time>2026-08-05T07:54:50.000Z</time>
        <extensions>
          <ns3:TrackPointExtension>
            <ns3:hr>68</ns3:hr>
            <ns3:cad>42</ns3:cad>
          </ns3:TrackPointExtension>
        </extensions>
      </trkpt>
      <trkpt lat="43.467455841600894927978515625" lon="1.46921309642493724822998046875">
        <ele>259.79998779296875</ele>
        <time>2026-08-05T07:54:51.000Z</time>
        <extensions>
          <ns3:TrackPointExtension>
            <ns3:hr>68</ns3:hr>
            <ns3:cad>42</ns3:cad>
          </ns3:TrackPointExtension>
        </extensions>
      </trkpt>
      <trkpt lat="43.467463888227939605712890625" lon="1.469209156930446624755859375">
        <ele>260</ele>
        <time>2026-08-05T07:54:52.000Z</time>
        <extensions>
          <ns3:TrackPointExtension>
            <ns3:hr>68</ns3:hr>
            <ns3:cad>43</ns3:cad>
          </ns3:TrackPointExtension>
        </extensions>
      </trkpt>
      <trkpt lat="43.46746958792209625244140625" lon="1.4692073129117488861083984375">
        <ele>260</ele>
        <time>2026-08-05T07:54:53.000Z</time>
        <extensions>
          <ns3:TrackPointExtension>
            <ns3:hr>69</ns3:hr>
            <ns3:cad>45</ns3:cad>
          </ns3:TrackPointExtension>
        </extensions>
      </trkpt>
      <trkpt lat="43.467472605407238006591796875" lon="1.4692069776356220245361328125">
        <ele>260</ele>
        <time>2026-08-05T07:54:54.000Z</time>
        <extensions>
          <ns3:TrackPointExtension>
            <ns3:hr>69</ns3:hr>
            <ns3:cad>45</ns3:cad>
          </ns3:TrackPointExtension>
        </extensions>
      </trkpt>
      <trkpt lat="43.4674848429858684539794921875" lon="1.46920152939856052398681640625">
        <ele>259.79998779296875</ele>
        <time>2026-08-05T07:54:55.000Z</time>
        <extensions>
          <ns3:TrackPointExtension>
            <ns3:hr>69</ns3:hr>
            <ns3:cad>45</ns3:cad>
          </ns3:TrackPointExtension>
        </extensions>
      </trkpt>
      <trkpt lat="43.46749582327902317047119140625" lon="1.469197757542133331298828125">
        <ele>259.600006103515625</ele>
        <time>2026-08-05T07:54:56.000Z</time>
        <extensions>
          <ns3:TrackPointExtension>
            <ns3:hr>69</ns3:hr>
            <ns3:cad>46</ns3:cad>
          </ns3:TrackPointExtension>
        </extensions>
      </trkpt>
      <trkpt lat="43.46750604920089244842529296875" lon="1.46919381804764270782470703125">
        <ele>259.600006103515625</ele>
        <time>2026-08-05T07:54:57.000Z</time>
        <extensions>
          <ns3:TrackPointExtension>
            <ns3:hr>68</ns3:hr>
            <ns3:cad>46</ns3:cad>
          </ns3:TrackPointExtension>
        </extensions>
      </trkpt>
      <trkpt lat="43.46751426346600055694580078125" lon="1.46919147111475467681884765625">
        <ele>259.399993896484375</ele>
        <time>2026-08-05T07:54:58.000Z</time>
        <extensions>
          <ns3:TrackPointExtension>
            <ns3:hr>68</ns3:hr>
            <ns3:cad>0</ns3:cad>
          </ns3:TrackPointExtension>
        </extensions>
      </trkpt>
      <trkpt lat="43.46752432174980640411376953125" lon="1.469190381467342376708984375">
        <ele>259.20001220703125</ele>
        <time>2026-08-05T07:54:59.000Z</time>
        <extensions>
          <ns3:TrackPointExtension>
            <ns3:hr>68</ns3:hr>
            <ns3:cad>0</ns3:cad>
          </ns3:TrackPointExtension>
        </extensions>
      </trkpt>
      <trkpt lat="43.467538990080356597900390625" lon="1.4691861905157566070556640625">
        <ele>259.20001220703125</ele>
        <time>2026-08-05T07:55:00.000Z</time>
        <extensions>
          <ns3:TrackPointExtension>
            <ns3:hr>68</ns3:hr>
            <ns3:cad>49</ns3:cad>
          </ns3:TrackPointExtension>
        </extensions>
      </trkpt>
      <trkpt lat="43.4675525687634944915771484375" lon="1.4691798202693462371826171875">
        <ele>259.399993896484375</ele>
        <time>2026-08-05T07:55:01.000Z</time>
        <extensions>
          <ns3:TrackPointExtension>
            <ns3:hr>68</ns3:hr>
            <ns3:cad>49</ns3:cad>
          </ns3:TrackPointExtension>
        </extensions>
      </trkpt>
      <trkpt lat="43.4675606153905391693115234375" lon="1.4691737852990627288818359375">
        <ele>259.399993896484375</ele>
        <time>2026-08-05T07:55:02.000Z</time>
        <extensions>
          <ns3:TrackPointExtension>
            <ns3:hr>69</ns3:hr>
            <ns3:cad>49</ns3:cad>
          </ns3:TrackPointExtension>
        </extensions>
      </trkpt>
      <trkpt lat="43.46757151186466217041015625" lon="1.4691706001758575439453125">
        <ele>259.399993896484375</ele>
        <time>2026-08-05T07:55:03.000Z</time>
        <extensions>
          <ns3:TrackPointExtension>
            <ns3:hr>70</ns3:hr>
            <ns3:cad>49</ns3:cad>
          </ns3:TrackPointExtension>
        </extensions>
      </trkpt>
      <trkpt lat="43.4675814025104045867919921875" lon="1.46916749887168407440185546875">
        <ele>259.399993896484375</ele>
        <time>2026-08-05T07:55:04.000Z</time>
        <extensions>
          <ns3:TrackPointExtension>
            <ns3:hr>70</ns3:hr>
            <ns3:cad>50</ns3:cad>
          </ns3:TrackPointExtension>
        </extensions>
      </trkpt>
      <trkpt lat="43.46759204752743244171142578125" lon="1.46916397847235202789306640625">
        <ele>259.20001220703125</ele>
        <time>2026-08-05T07:55:05.000Z</time>
        <extensions>
          <ns3:TrackPointExtension>
            <ns3:hr>71</ns3:hr>
            <ns3:cad>50</ns3:cad>
          </ns3:TrackPointExtension>
        </extensions>
      </trkpt>
      <trkpt lat="43.4676001779735088348388671875" lon="1.469159536063671112060546875">
        <ele>259.20001220703125</ele>
        <time>2026-08-05T07:55:06.000Z</time>
        <extensions>
          <ns3:TrackPointExtension>
            <ns3:hr>72</ns3:hr>
            <ns3:cad>50</ns3:cad>
          </ns3:TrackPointExtension>
        </extensions>
      </trkpt>
      <trkpt lat="43.46761065535247325897216796875" lon="1.46915509365499019622802734375">
        <ele>259.20001220703125</ele>
        <time>2026-08-05T07:55:07.000Z</time>
        <extensions>
          <ns3:TrackPointExtension>
            <ns3:hr>72</ns3:hr>
            <ns3:cad>50</ns3:cad>
          </ns3:TrackPointExtension>
        </extensions>
      </trkpt>
      <trkpt lat="43.46761870197951793670654296875" lon="1.46915257908403873443603515625">
        <ele>259.20001220703125</ele>
        <time>2026-08-05T07:55:08.000Z</time>
        <extensions>
          <ns3:TrackPointExtension>
            <ns3:hr>72</ns3:hr>
            <ns3:cad>47</ns3:cad>
          </ns3:TrackPointExtension>
        </extensions>
      </trkpt>
      <trkpt lat="43.46762842498719692230224609375" lon="1.46914620883762836456298828125">
        <ele>259.20001220703125</ele>
        <time>2026-08-05T07:55:09.000Z</time>
        <extensions>
          <ns3:TrackPointExtension>
            <ns3:hr>72</ns3:hr>
            <ns3:cad>47</ns3:cad>
          </ns3:TrackPointExtension>
        </extensions>
      </trkpt>
      <trkpt lat="43.4676397405564785003662109375" lon="1.469140760600566864013671875">
        <ele>259.20001220703125</ele>
        <time>2026-08-05T07:55:10.000Z</time>
        <extensions>
          <ns3:TrackPointExtension>
            <ns3:hr>72</ns3:hr>
            <ns3:cad>48</ns3:cad>
          </ns3:TrackPointExtension>
        </extensions>
      </trkpt>
      <trkpt lat="43.46765197813510894775390625" lon="1.4691352285444736480712890625">
        <ele>259</ele>
        <time>2026-08-05T07:55:11.000Z</time>
        <extensions>
          <ns3:TrackPointExtension>
            <ns3:hr>71</ns3:hr>
            <ns3:cad>48</ns3:cad>
          </ns3:TrackPointExtension>
        </extensions>
      </trkpt>
      <trkpt lat="43.46766379661858081817626953125" lon="1.4691312052309513092041015625">
        <ele>259</ele>
        <time>2026-08-05T07:55:12.000Z</time>
        <extensions>
          <ns3:TrackPointExtension>
            <ns3:hr>72</ns3:hr>
            <ns3:cad>48</ns3:cad>
          </ns3:TrackPointExtension>
        </extensions>
      </trkpt>
      <trkpt lat="43.46767335198819637298583984375" lon="1.4691291935741901397705078125">
        <ele>259</ele>
        <time>2026-08-05T07:55:13.000Z</time>
        <extensions>
          <ns3:TrackPointExtension>
            <ns3:hr>72</ns3:hr>
            <ns3:cad>48</ns3:cad>
          </ns3:TrackPointExtension>
        </extensions>
      </trkpt>
      <trkpt lat="43.46768408082425594329833984375" lon="1.4691291935741901397705078125">
        <ele>259</ele>
        <time>2026-08-05T07:55:14.000Z</time>
        <extensions>
          <ns3:TrackPointExtension>
            <ns3:hr>73</ns3:hr>
            <ns3:cad>48</ns3:cad>
          </ns3:TrackPointExtension>
        </extensions>
      </trkpt>
      <trkpt lat="43.4676947258412837982177734375" lon="1.46912424825131893157958984375">
        <ele>258.79998779296875</ele>
        <time>2026-08-05T07:55:15.000Z</time>
        <extensions>
          <ns3:TrackPointExtension>
            <ns3:hr>73</ns3:hr>
            <ns3:cad>48</ns3:cad>
          </ns3:TrackPointExtension>
        </extensions>
      </trkpt>
      <trkpt lat="43.46770721487700939178466796875" lon="1.4691194705665111541748046875">
        <ele>258.79998779296875</ele>
        <time>2026-08-05T07:55:16.000Z</time>
        <extensions>
          <ns3:TrackPointExtension>
            <ns3:hr>73</ns3:hr>
            <ns3:cad>48</ns3:cad>
          </ns3:TrackPointExtension>
        </extensions>
      </trkpt>
      <trkpt lat="43.4677175246179103851318359375" lon="1.4691141061484813690185546875">
        <ele>258.79998779296875</ele>
        <time>2026-08-05T07:55:17.000Z</time>
        <extensions>
          <ns3:TrackPointExtension>
            <ns3:hr>73</ns3:hr>
            <ns3:cad>48</ns3:cad>
          </ns3:TrackPointExtension>
        </extensions>
      </trkpt>
      <trkpt lat="43.46772699616849422454833984375" lon="1.46911536343395709991455078125">
        <ele>258.79998779296875</ele>
        <time>2026-08-05T07:55:18.000Z</time>
        <extensions>
          <ns3:TrackPointExtension>
            <ns3:hr>74</ns3:hr>
            <ns3:cad>48</ns3:cad>
          </ns3:TrackPointExtension>
        </extensions>
      </trkpt>
      <trkpt lat="43.46773269586265087127685546875" lon="1.4691102504730224609375">
        <ele>258.600006103515625</ele>
        <time>2026-08-05T07:55:19.000Z</time>
        <extensions>
          <ns3:TrackPointExtension>
            <ns3:hr>73</ns3:hr>
            <ns3:cad>48</ns3:cad>
          </ns3:TrackPointExtension>
        </extensions>
      </trkpt>
      <trkpt lat="43.46774476580321788787841796875" lon="1.46910346113145351409912109375">
        <ele>258.600006103515625</ele>
        <time>2026-08-05T07:55:20.000Z</time>
        <extensions>
          <ns3:TrackPointExtension>
            <ns3:hr>73</ns3:hr>
            <ns3:cad>48</ns3:cad>
          </ns3:TrackPointExtension>
        </extensions>
      </trkpt>
      <trkpt lat="43.46775767393410205841064453125" lon="1.46909692324697971343994140625">
        <ele>258.600006103515625</ele>
        <time>2026-08-05T07:55:21.000Z</time>
        <extensions>
          <ns3:TrackPointExtension>
            <ns3:hr>73</ns3:hr>
            <ns3:cad>47</ns3:cad>
          </ns3:TrackPointExtension>
        </extensions>
      </trkpt>
      <trkpt lat="43.4677678160369396209716796875" lon="1.4690926484763622283935546875">
        <ele>258.600006103515625</ele>
        <time>2026-08-05T07:55:22.000Z</time>
        <extensions>
          <ns3:TrackPointExtension>
            <ns3:hr>74</ns3:hr>
            <ns3:cad>47</ns3:cad>
          </ns3:TrackPointExtension>
        </extensions>
      </trkpt>
      <trkpt lat="43.46777670085430145263671875" lon="1.46909273229539394378662109375">
        <ele>258.600006103515625</ele>
        <time>2026-08-05T07:55:23.000Z</time>
        <extensions>
          <ns3:TrackPointExtension>
            <ns3:hr>74</ns3:hr>
            <ns3:cad>48</ns3:cad>
          </ns3:TrackPointExtension>
        </extensions>
      </trkpt>
      <trkpt lat="43.467784412205219268798828125" lon="1.46909122355282306671142578125">
        <ele>258.600006103515625</ele>
        <time>2026-08-05T07:55:24.000Z</time>
        <extensions>
          <ns3:TrackPointExtension>
            <ns3:hr>74</ns3:hr>
            <ns3:cad>48</ns3:cad>
          </ns3:TrackPointExtension>
        </extensions>
      </trkpt>
      <trkpt lat="43.4677909500896930694580078125" lon="1.46909005008637905120849609375">
        <ele>258.399993896484375</ele>
        <time>2026-08-05T07:55:25.000Z</time>
        <extensions>
          <ns3:TrackPointExtension>
            <ns3:hr>75</ns3:hr>
            <ns3:cad>48</ns3:cad>
          </ns3:TrackPointExtension>
        </extensions>
      </trkpt>
      <trkpt lat="43.4678043611347675323486328125" lon="1.46909055300056934356689453125">
        <ele>258.399993896484375</ele>
        <time>2026-08-05T07:55:26.000Z</time>
        <extensions>
          <ns3:TrackPointExtension>
            <ns3:hr>75</ns3:hr>
            <ns3:cad>48</ns3:cad>
          </ns3:TrackPointExtension>
        </extensions>
      </trkpt>
      <trkpt lat="43.46781215630471706390380859375" lon="1.4690842665731906890869140625">
        <ele>258.399993896484375</ele>
        <time>2026-08-05T07:55:27.000Z</time>
        <extensions>
          <ns3:TrackPointExtension>
            <ns3:hr>75</ns3:hr>
            <ns3:cad>48</ns3:cad>
          </ns3:TrackPointExtension>
        </extensions>
      </trkpt>
      <trkpt lat="43.46782422624528408050537109375" lon="1.469081752002239227294921875">
        <ele>258.399993896484375</ele>
        <time>2026-08-05T07:55:28.000Z</time>
        <extensions>
          <ns3:TrackPointExtension>
            <ns3:hr>74</ns3:hr>
            <ns3:cad>48</ns3:cad>
          </ns3:TrackPointExtension>
        </extensions>
      </trkpt>
      <trkpt lat="43.46783160232007503509521484375" lon="1.46908032707870006561279296875">
        <ele>258.399993896484375</ele>
        <time>2026-08-05T07:55:29.000Z</time>
        <extensions>
          <ns3:TrackPointExtension>
            <ns3:hr>75</ns3:hr>
            <ns3:cad>49</ns3:cad>
          </ns3:TrackPointExtension>
        </extensions>
      </trkpt>
      <trkpt lat="43.46784501336514949798583984375" lon="1.46907471120357513427734375">
        <ele>258.399993896484375</ele>
        <time>2026-08-05T07:55:30.000Z</time>
        <extensions>
          <ns3:TrackPointExtension>
            <ns3:hr>75</ns3:hr>
            <ns3:cad>49</ns3:cad>
          </ns3:TrackPointExtension>
        </extensions>
      </trkpt>
      <trkpt lat="43.4678573347628116607666015625" lon="1.4690688438713550567626953125">
        <ele>258.399993896484375</ele>
        <time>2026-08-05T07:55:31.000Z</time>
        <extensions>
          <ns3:TrackPointExtension>
            <ns3:hr>75</ns3:hr>
            <ns3:cad>49</ns3:cad>
          </ns3:TrackPointExtension>
        </extensions>
      </trkpt>
      <trkpt lat="43.46786563284695148468017578125" lon="1.46906130015850067138671875">
        <ele>258.399993896484375</ele>
        <time>2026-08-05T07:55:32.000Z</time>
        <extensions>
          <ns3:TrackPointExtension>
            <ns3:hr>76</ns3:hr>
            <ns3:cad>47</ns3:cad>
          </ns3:TrackPointExtension>
        </extensions>
      </trkpt>
      <trkpt lat="43.4678751043975353240966796875" lon="1.469060964882373809814453125">
        <ele>258.399993896484375</ele>
        <time>2026-08-05T07:55:33.000Z</time>
        <extensions>
          <ns3:TrackPointExtension>
            <ns3:hr>77</ns3:hr>
            <ns3:cad>47</ns3:cad>
          </ns3:TrackPointExtension>
        </extensions>
      </trkpt>
      <trkpt lat="43.46788055263459682464599609375" lon="1.46906238980591297149658203125">
        <ele>258.399993896484375</ele>
        <time>2026-08-05T07:55:34.000Z</time>
        <extensions>
          <ns3:TrackPointExtension>
            <ns3:hr>77</ns3:hr>
            <ns3:cad>47</ns3:cad>
          </ns3:TrackPointExtension>
        </extensions>
      </trkpt>
      <trkpt lat="43.4678885154426097869873046875" lon="1.46905995905399322509765625">
        <ele>258.399993896484375</ele>
        <time>2026-08-05T07:55:35.000Z</time>
        <extensions>
          <ns3:TrackPointExtension>
            <ns3:hr>78</ns3:hr>
            <ns3:cad>47</ns3:cad>
          </ns3:TrackPointExtension>
        </extensions>
      </trkpt>
      <trkpt lat="43.46790217794477939605712890625" lon="1.469050236046314239501953125">
        <ele>258.20001220703125</ele>
        <time>2026-08-05T07:55:36.000Z</time>
        <extensions>
          <ns3:TrackPointExtension>
            <ns3:hr>78</ns3:hr>
            <ns3:cad>47</ns3:cad>
          </ns3:TrackPointExtension>
        </extensions>
      </trkpt>
      <trkpt lat="43.4679143317043781280517578125" lon="1.46904311142861843109130859375">
        <ele>258.399993896484375</ele>
        <time>2026-08-05T07:55:37.000Z</time>
        <extensions>
          <ns3:TrackPointExtension>
            <ns3:hr>77</ns3:hr>
            <ns3:cad>48</ns3:cad>
          </ns3:TrackPointExtension>
        </extensions>
      </trkpt>
      <trkpt lat="43.46792313270270824432373046875" lon="1.46903959102928638458251953125">
        <ele>258.399993896484375</ele>
        <time>2026-08-05T07:55:38.000Z</time>
        <extensions>
          <ns3:TrackPointExtension>
            <ns3:hr>77</ns3:hr>
            <ns3:cad>48</ns3:cad>
          </ns3:TrackPointExtension>
        </extensions>
      </trkpt>
      <trkpt lat="43.46793017350137233734130859375" lon="1.469035483896732330322265625">
        <ele>258.399993896484375</ele>
        <time>2026-08-05T07:55:39.000Z</time>
        <extensions>
          <ns3:TrackPointExtension>
            <ns3:hr>77</ns3:hr>
            <ns3:cad>48</ns3:cad>
          </ns3:TrackPointExtension>
        </extensions>
      </trkpt>
      <trkpt lat="43.46793687902390956878662109375" lon="1.46903221495449542999267578125">
        <ele>258.399993896484375</ele>
        <time>2026-08-05T07:55:40.000Z</time>
        <extensions>
          <ns3:TrackPointExtension>
            <ns3:hr>77</ns3:hr>
            <ns3:cad>48</ns3:cad>
          </ns3:TrackPointExtension>
        </extensions>
      </trkpt>
      <trkpt lat="43.46794861368834972381591796875" lon="1.469025425612926483154296875">
        <ele>258.399993896484375</ele>
        <time>2026-08-05T07:55:41.000Z</time>
        <extensions>
          <ns3:TrackPointExtension>
            <ns3:hr>77</ns3:hr>
            <ns3:cad>48</ns3:cad>
          </ns3:TrackPointExtension>
        </extensions>
      </trkpt>
      <trkpt lat="43.4679569117724895477294921875" lon="1.46902064792811870574951171875">
        <ele>258.399993896484375</ele>
        <time>2026-08-05T07:55:42.000Z</time>
        <extensions>
          <ns3:TrackPointExtension>
            <ns3:hr>76</ns3:hr>
            <ns3:cad>48</ns3:cad>
          </ns3:TrackPointExtension>
        </extensions>
      </trkpt>
      <trkpt lat="43.46796856261789798736572265625" lon="1.4690177142620086669921875">
        <ele>258.399993896484375</ele>
        <time>2026-08-05T07:55:43.000Z</time>
        <extensions>
          <ns3:TrackPointExtension>
            <ns3:hr>76</ns3:hr>
            <ns3:cad>50</ns3:cad>
          </ns3:TrackPointExtension>
        </extensions>
      </trkpt>
      <trkpt lat="43.467976190149784088134765625" lon="1.46901377476751804351806640625">
        <ele>258.399993896484375</ele>
        <time>2026-08-05T07:55:44.000Z</time>
        <extensions>
          <ns3:TrackPointExtension>
            <ns3:hr>76</ns3:hr>
            <ns3:cad>50</ns3:cad>
          </ns3:TrackPointExtension>
        </extensions>
      </trkpt>
      <trkpt lat="43.4679857455193996429443359375" lon="1.46900723688304424285888671875">
        <ele>258.399993896484375</ele>
        <time>2026-08-05T07:55:45.000Z</time>
        <extensions>
          <ns3:TrackPointExtension>
            <ns3:hr>76</ns3:hr>
            <ns3:cad>49</ns3:cad>
          </ns3:TrackPointExtension>
        </extensions>
      </trkpt>
      <trkpt lat="43.467997647821903228759765625" lon="1.468999274075031280517578125">
        <ele>258.399993896484375</ele>
        <time>2026-08-05T07:55:46.000Z</time>
        <extensions>
          <ns3:TrackPointExtension>
            <ns3:hr>75</ns3:hr>
            <ns3:cad>47</ns3:cad>
          </ns3:TrackPointExtension>
        </extensions>
      </trkpt>
      <trkpt lat="43.46800577826797962188720703125" lon="1.46899692714214324951171875">
        <ele>258.399993896484375</ele>
        <time>2026-08-05T07:55:47.000Z</time>
        <extensions>
          <ns3:TrackPointExtension>
            <ns3:hr>75</ns3:hr>
            <ns3:cad>47</ns3:cad>
          </ns3:TrackPointExtension>
        </extensions>
      </trkpt>
      <trkpt lat="43.4680142439901828765869140625" lon="1.4689950831234455108642578125">
        <ele>258.399993896484375</ele>
        <time>2026-08-05T07:55:48.000Z</time>
        <extensions>
          <ns3:TrackPointExtension>
            <ns3:hr>75</ns3:hr>
            <ns3:cad>47</ns3:cad>
          </ns3:TrackPointExtension>
        </extensions>
      </trkpt>
      <trkpt lat="43.4680227935314178466796875" lon="1.468991898000240325927734375">
        <ele>258.399993896484375</ele>
        <time>2026-08-05T07:55:49.000Z</time>
        <extensions>
          <ns3:TrackPointExtension>
            <ns3:hr>75</ns3:hr>
            <ns3:cad>47</ns3:cad>
          </ns3:TrackPointExtension>
        </extensions>
      </trkpt>
      <trkpt lat="43.4680360369384288787841796875" lon="1.46898309700191020965576171875">
        <ele>258.399993896484375</ele>
        <time>2026-08-05T07:55:50.000Z</time>
        <extensions>
          <ns3:TrackPointExtension>
            <ns3:hr>75</ns3:hr>
            <ns3:cad>47</ns3:cad>
          </ns3:TrackPointExtension>
        </extensions>
      </trkpt>
      <trkpt lat="43.4680440835654735565185546875" lon="1.46897949278354644775390625">
        <ele>258.399993896484375</ele>
        <time>2026-08-05T07:55:51.000Z</time>
        <extensions>
          <ns3:TrackPointExtension>
            <ns3:hr>75</ns3:hr>
            <ns3:cad>48</ns3:cad>
          </ns3:TrackPointExtension>
        </extensions>
      </trkpt>
      <trkpt lat="43.46805699169635772705078125" lon="1.46897974424064159393310546875">
        <ele>258.399993896484375</ele>
        <time>2026-08-05T07:55:52.000Z</time>
        <extensions>
          <ns3:TrackPointExtension>
            <ns3:hr>76</ns3:hr>
            <ns3:cad>47</ns3:cad>
          </ns3:TrackPointExtension>
        </extensions>
      </trkpt>
      <trkpt lat="43.4680685587227344512939453125" lon="1.4689830131828784942626953125">
        <ele>258.399993896484375</ele>
        <time>2026-08-05T07:55:53.000Z</time>
        <extensions>
          <ns3:TrackPointExtension>
            <ns3:hr>76</ns3:hr>
            <ns3:cad>47</ns3:cad>
          </ns3:TrackPointExtension>
        </extensions>
      </trkpt>
      <trkpt lat="43.468076772987842559814453125" lon="1.4689806662499904632568359375">
        <ele>258.399993896484375</ele>
        <time>2026-08-05T07:55:54.000Z</time>
        <extensions>
          <ns3:TrackPointExtension>
            <ns3:hr>76</ns3:hr>
            <ns3:cad>47</ns3:cad>
          </ns3:TrackPointExtension>
        </extensions>
      </trkpt>
      <trkpt lat="43.4680923633277416229248046875" lon="1.4689716137945652008056640625">
        <ele>258.399993896484375</ele>
        <time>2026-08-05T07:55:55.000Z</time>
        <extensions>
          <ns3:TrackPointExtension>
            <ns3:hr>76</ns3:hr>
            <ns3:cad>47</ns3:cad>
          </ns3:TrackPointExtension>
        </extensions>
      </trkpt>
      <trkpt lat="43.4681077860295772552490234375" lon="1.468963734805583953857421875">
        <ele>258.399993896484375</ele>
        <time>2026-08-05T07:55:56.000Z</time>
        <extensions>
          <ns3:TrackPointExtension>
            <ns3:hr>77</ns3:hr>
            <ns3:cad>47</ns3:cad>
          </ns3:TrackPointExtension>
        </extensions>
      </trkpt>
      <trkpt lat="43.4681188501417636871337890625" lon="1.46896331571042537689208984375">
        <ele>258.600006103515625</ele>
        <time>2026-08-05T07:55:57.000Z</time>
        <extensions>
          <ns3:TrackPointExtension>
            <ns3:hr>77</ns3:hr>
            <ns3:cad>47</ns3:cad>
          </ns3:TrackPointExtension>
        </extensions>
      </trkpt>
      <trkpt lat="43.46812513656914234161376953125" lon="1.46896868012845516204833984375">
        <ele>258.600006103515625</ele>
        <time>2026-08-05T07:55:58.000Z</time>
        <extensions>
          <ns3:TrackPointExtension>
            <ns3:hr>78</ns3:hr>
            <ns3:cad>0</ns3:cad>
          </ns3:TrackPointExtension>
        </extensions>
      </trkpt>
      <trkpt lat="43.4681300818920135498046875" lon="1.46896314807236194610595703125">
        <ele>258.600006103515625</ele>
        <time>2026-08-05T07:55:59.000Z</time>
        <extensions>
          <ns3:TrackPointExtension>
            <ns3:hr>78</ns3:hr>
            <ns3:cad>50</ns3:cad>
          </ns3:TrackPointExtension>
        </extensions>
      </trkpt>
      <trkpt lat="43.468144834041595458984375" lon="1.46895376034080982208251953125">
        <ele>258.600006103515625</ele>
        <time>2026-08-05T07:56:00.000Z</time>
        <extensions>
          <ns3:TrackPointExtension>
            <ns3:hr>78</ns3:hr>
            <ns3:cad>50</ns3:cad>
          </ns3:TrackPointExtension>
        </extensions>
      </trkpt>
      <trkpt lat="43.46815614961087703704833984375" lon="1.46894420497119426727294921875">
        <ele>258.399993896484375</ele>
        <time>2026-08-05T07:56:01.000Z</time>
        <extensions>
          <ns3:TrackPointExtension>
            <ns3:hr>79</ns3:hr>
            <ns3:cad>50</ns3:cad>
          </ns3:TrackPointExtension>
        </extensions>
      </trkpt>
      <trkpt lat="43.468165285885334014892578125" lon="1.4689397625625133514404296875">
        <ele>258.399993896484375</ele>
        <time>2026-08-05T07:56:02.000Z</time>
        <extensions>
          <ns3:TrackPointExtension>
            <ns3:hr>78</ns3:hr>
            <ns3:cad>50</ns3:cad>
          </ns3:TrackPointExtension>
        </extensions>
      </trkpt>
      <trkpt lat="43.4681738354265689849853515625" lon="1.4689387567341327667236328125">
        <ele>258.399993896484375</ele>
        <time>2026-08-05T07:56:03.000Z</time>
        <extensions>
          <ns3:TrackPointExtension>
            <ns3:hr>78</ns3:hr>
            <ns3:cad>45</ns3:cad>
          </ns3:TrackPointExtension>
        </extensions>
      </trkpt>
      <trkpt lat="43.46818431280553340911865234375" lon="1.46893297322094440460205078125">
        <ele>258.399993896484375</ele>
        <time>2026-08-05T07:56:04.000Z</time>
        <extensions>
          <ns3:TrackPointExtension>
            <ns3:hr>78</ns3:hr>
            <ns3:cad>45</ns3:cad>
          </ns3:TrackPointExtension>
        </extensions>
      </trkpt>
      <trkpt lat="43.4681971371173858642578125" lon="1.4689250104129314422607421875">
        <ele>258.399993896484375</ele>
        <time>2026-08-05T07:56:05.000Z</time>
        <extensions>
          <ns3:TrackPointExtension>
            <ns3:hr>78</ns3:hr>
            <ns3:cad>47</ns3:cad>
          </ns3:TrackPointExtension>
        </extensions>
      </trkpt>
      <trkpt lat="43.46820778213441371917724609375" lon="1.4689206518232822418212890625">
        <ele>258.399993896484375</ele>
        <time>2026-08-05T07:56:06.000Z</time>
        <extensions>
          <ns3:TrackPointExtension>
            <ns3:hr>78</ns3:hr>
            <ns3:cad>47</ns3:cad>
          </ns3:TrackPointExtension>
        </extensions>
      </trkpt>
      <trkpt lat="43.468215577304363250732421875" lon="1.46891646087169647216796875">
        <ele>258.399993896484375</ele>
        <time>2026-08-05T07:56:07.000Z</time>
        <extensions>
          <ns3:TrackPointExtension>
            <ns3:hr>78</ns3:hr>
            <ns3:cad>48</ns3:cad>
          </ns3:TrackPointExtension>
        </extensions>
      </trkpt>
      <trkpt lat="43.4682244621217250823974609375" lon="1.46891780197620391845703125">
        <ele>258.399993896484375</ele>
        <time>2026-08-05T07:56:08.000Z</time>
        <extensions>
          <ns3:TrackPointExtension>
            <ns3:hr>78</ns3:hr>
            <ns3:cad>48</ns3:cad>
          </ns3:TrackPointExtension>
        </extensions>
      </trkpt>
      <trkpt lat="43.46823410131037235260009765625" lon="1.46892006509006023406982421875">
        <ele>258.399993896484375</ele>
        <time>2026-08-05T07:56:09.000Z</time>
        <extensions>
          <ns3:TrackPointExtension>
            <ns3:hr>78</ns3:hr>
            <ns3:cad>48</ns3:cad>
          </ns3:TrackPointExtension>
        </extensions>
      </trkpt>
      <trkpt lat="43.46824281848967075347900390625" lon="1.46891453303396701812744140625">
        <ele>258.399993896484375</ele>
        <time>2026-08-05T07:56:10.000Z</time>
        <extensions>
          <ns3:TrackPointExtension>
            <ns3:hr>78</ns3:hr>
            <ns3:cad>48</ns3:cad>
          </ns3:TrackPointExtension>
        </extensions>
      </trkpt>
      <trkpt lat="43.4682507812976837158203125" lon="1.46890866570174694061279296875">
        <ele>258.20001220703125</ele>
        <time>2026-08-05T07:56:11.000Z</time>
        <extensions>
          <ns3:TrackPointExtension>
            <ns3:hr>78</ns3:hr>
            <ns3:cad>47</ns3:cad>
          </ns3:TrackPointExtension>
        </extensions>
      </trkpt>
      <trkpt lat="43.4682640247046947479248046875" lon="1.4688996970653533935546875">
        <ele>258.20001220703125</ele>
        <time>2026-08-05T07:56:12.000Z</time>
        <extensions>
          <ns3:TrackPointExtension>
            <ns3:hr>78</ns3:hr>
            <ns3:cad>47</ns3:cad>
          </ns3:TrackPointExtension>
        </extensions>
      </trkpt>
      <trkpt lat="43.4682760946452617645263671875" lon="1.46889642812311649322509765625">
        <ele>258.20001220703125</ele>
        <time>2026-08-05T07:56:13.000Z</time>
        <extensions>
          <ns3:TrackPointExtension>
            <ns3:hr>77</ns3:hr>
            <ns3:cad>47</ns3:cad>
          </ns3:TrackPointExtension>
        </extensions>
      </trkpt>
      <trkpt lat="43.4682905115187168121337890625" lon="1.4688914828002452850341796875">
        <ele>258.20001220703125</ele>
        <time>2026-08-05T07:56:14.000Z</time>
        <extensions>
          <ns3:TrackPointExtension>
            <ns3:hr>78</ns3:hr>
            <ns3:cad>49</ns3:cad>
          </ns3:TrackPointExtension>
        </extensions>
      </trkpt>
      <trkpt lat="43.4683015756309032440185546875" lon="1.4688837714493274688720703125">
        <ele>258.399993896484375</ele>
        <time>2026-08-05T07:56:15.000Z</time>
        <extensions>
          <ns3:TrackPointExtension>
            <ns3:hr>78</ns3:hr>
            <ns3:cad>49</ns3:cad>
          </ns3:TrackPointExtension>
        </extensions>
      </trkpt>
      <trkpt lat="43.46830870024859905242919921875" lon="1.46888217888772487640380859375">
        <ele>258.399993896484375</ele>
        <time>2026-08-05T07:56:16.000Z</time>
        <extensions>
          <ns3:TrackPointExtension>
            <ns3:hr>77</ns3:hr>
            <ns3:cad>48</ns3:cad>
          </ns3:TrackPointExtension>
        </extensions>
      </trkpt>
      <trkpt lat="43.46831004135310649871826171875" lon="1.46887815557420253753662109375">
        <ele>258.399993896484375</ele>
        <time>2026-08-05T07:56:17.000Z</time>
        <extensions>
          <ns3:TrackPointExtension>
            <ns3:hr>77</ns3:hr>
            <ns3:cad>47</ns3:cad>
          </ns3:TrackPointExtension>
        </extensions>
      </trkpt>
      <trkpt lat="43.4683213569223880767822265625" lon="1.4688723720610141754150390625">
        <ele>258.399993896484375</ele>
        <time>2026-08-05T07:56:18.000Z</time>
        <extensions>
          <ns3:TrackPointExtension>
            <ns3:hr>77</ns3:hr>
            <ns3:cad>47</ns3:cad>
          </ns3:TrackPointExtension>
        </extensions>
      </trkpt>
      <trkpt lat="43.46833351068198680877685546875" lon="1.4688676781952381134033203125">
        <ele>258.399993896484375</ele>
        <time>2026-08-05T07:56:19.000Z</time>
        <extensions>
          <ns3:TrackPointExtension>
            <ns3:hr>77</ns3:hr>
            <ns3:cad>46</ns3:cad>
          </ns3:TrackPointExtension>
        </extensions>
      </trkpt>
      <trkpt lat="43.46834172494709491729736328125" lon="1.46886424161493778228759765625">
        <ele>258.399993896484375</ele>
        <time>2026-08-05T07:56:20.000Z</time>
        <extensions>
          <ns3:TrackPointExtension>
            <ns3:hr>77</ns3:hr>
            <ns3:cad>46</ns3:cad>
          </ns3:TrackPointExtension>
        </extensions>
      </trkpt>
      <trkpt lat="43.4683485142886638641357421875" lon="1.46886239759624004364013671875">
        <ele>258.20001220703125</ele>
        <time>2026-08-05T07:56:21.000Z</time>
        <extensions>
          <ns3:TrackPointExtension>
            <ns3:hr>77</ns3:hr>
            <ns3:cad>46</ns3:cad>
          </ns3:TrackPointExtension>
        </extensions>
      </trkpt>
      <trkpt lat="43.4683612547814846038818359375" lon="1.4688579551875591278076171875">
        <ele>258.20001220703125</ele>
        <time>2026-08-05T07:56:22.000Z</time>
        <extensions>
          <ns3:TrackPointExtension>
            <ns3:hr>76</ns3:hr>
            <ns3:cad>47</ns3:cad>
          </ns3:TrackPointExtension>
        </extensions>
      </trkpt>
      <trkpt lat="43.468375839293003082275390625" lon="1.46885116584599018096923828125">
        <ele>258.20001220703125</ele>
        <time>2026-08-05T07:56:23.000Z</time>
        <extensions>
          <ns3:TrackPointExtension>
            <ns3:hr>77</ns3:hr>
            <ns3:cad>47</ns3:cad>
          </ns3:TrackPointExtension>
        </extensions>
      </trkpt>
      <trkpt lat="43.468385897576808929443359375" lon="1.46884630434215068817138671875">
        <ele>258.20001220703125</ele>
        <time>2026-08-05T07:56:24.000Z</time>
        <extensions>
          <ns3:TrackPointExtension>
            <ns3:hr>77</ns3:hr>
            <ns3:cad>46</ns3:cad>
          </ns3:TrackPointExtension>
        </extensions>
      </trkpt>
      <trkpt lat="43.46839335747063159942626953125" lon="1.46884848363697528839111328125">
        <ele>258.20001220703125</ele>
        <time>2026-08-05T07:56:25.000Z</time>
        <extensions>
          <ns3:TrackPointExtension>
            <ns3:hr>78</ns3:hr>
            <ns3:cad>46</ns3:cad>
          </ns3:TrackPointExtension>
        </extensions>
      </trkpt>
      <trkpt lat="43.46840240992605686187744140625" lon="1.46884177811443805694580078125">
        <ele>258.20001220703125</ele>
        <time>2026-08-05T07:56:26.000Z</time>
        <extensions>
          <ns3:TrackPointExtension>
            <ns3:hr>79</ns3:hr>
            <ns3:cad>46</ns3:cad>
          </ns3:TrackPointExtension>
        </extensions>
      </trkpt>
      <trkpt lat="43.4684128873050212860107421875" lon="1.46883524022996425628662109375">
        <ele>258.20001220703125</ele>
        <time>2026-08-05T07:56:27.000Z</time>
        <extensions>
          <ns3:TrackPointExtension>
            <ns3:hr>80</ns3:hr>
            <ns3:cad>46</ns3:cad>
          </ns3:TrackPointExtension>
        </extensions>
      </trkpt>
      <trkpt lat="43.4684195928275585174560546875" lon="1.46882836706936359405517578125">
        <ele>258.20001220703125</ele>
        <time>2026-08-05T07:56:28.000Z</time>
        <extensions>
          <ns3:TrackPointExtension>
            <ns3:hr>80</ns3:hr>
            <ns3:cad>45</ns3:cad>
          </ns3:TrackPointExtension>
        </extensions>
      </trkpt>
      <trkpt lat="43.468429483473300933837890625" lon="1.468824930489063262939453125">
        <ele>258.20001220703125</ele>
        <time>2026-08-05T07:56:29.000Z</time>
        <extensions>
          <ns3:TrackPointExtension>
            <ns3:hr>80</ns3:hr>
            <ns3:cad>45</ns3:cad>
          </ns3:TrackPointExtension>
        </extensions>
      </trkpt>
      <trkpt lat="43.468436859548091888427734375" lon="1.46882350556552410125732421875">
        <ele>258.20001220703125</ele>
        <time>2026-08-05T07:56:30.000Z</time>
        <extensions>
          <ns3:TrackPointExtension>
            <ns3:hr>79</ns3:hr>
            <ns3:cad>45</ns3:cad>
          </ns3:TrackPointExtension>
        </extensions>
      </trkpt>
      <trkpt lat="43.46844834275543689727783203125" lon="1.468817889690399169921875">
        <ele>258.399993896484375</ele>
        <time>2026-08-05T07:56:31.000Z</time>
        <extensions>
          <ns3:TrackPointExtension>
            <ns3:hr>78</ns3:hr>
            <ns3:cad>45</ns3:cad>
          </ns3:TrackPointExtension>
        </extensions>
      </trkpt>
      <trkpt lat="43.4684615023434162139892578125" lon="1.46881110034883022308349609375">
        <ele>258.399993896484375</ele>
        <time>2026-08-05T07:56:32.000Z</time>
        <extensions>
          <ns3:TrackPointExtension>
            <ns3:hr>77</ns3:hr>
            <ns3:cad>46</ns3:cad>
          </ns3:TrackPointExtension>
        </extensions>
      </trkpt>
      <trkpt lat="43.46846862696111202239990234375" lon="1.46880674175918102264404296875">
        <ele>258.399993896484375</ele>
        <time>2026-08-05T07:56:33.000Z</time>
        <extensions>
          <ns3:TrackPointExtension>
            <ns3:hr>76</ns3:hr>
            <ns3:cad>46</ns3:cad>
          </ns3:TrackPointExtension>
        </extensions>
      </trkpt>
      <trkpt lat="43.46847767941653728485107421875" lon="1.46880791522562503814697265625">
        <ele>258.399993896484375</ele>
        <time>2026-08-05T07:56:34.000Z</time>
        <extensions>
          <ns3:TrackPointExtension>
            <ns3:hr>76</ns3:hr>
            <ns3:cad>46</ns3:cad>
          </ns3:TrackPointExtension>
        </extensions>
      </trkpt>
      <trkpt lat="43.468486480414867401123046875" lon="1.46880020387470722198486328125">
        <ele>258.399993896484375</ele>
        <time>2026-08-05T07:56:35.000Z</time>
        <extensions>
          <ns3:TrackPointExtension>
            <ns3:hr>76</ns3:hr>
            <ns3:cad>45</ns3:cad>
          </ns3:TrackPointExtension>
        </extensions>
      </trkpt>
      <trkpt lat="43.46849595196545124053955078125" lon="1.46879115141928195953369140625">
        <ele>258.20001220703125</ele>
        <time>2026-08-05T07:56:36.000Z</time>
        <extensions>
          <ns3:TrackPointExtension>
            <ns3:hr>76</ns3:hr>
            <ns3:cad>0</ns3:cad>
          </ns3:TrackPointExtension>
        </extensions>
      </trkpt>
      <trkpt lat="43.468502573668956756591796875" lon="1.468788720667362213134765625">
        <ele>258.20001220703125</ele>
        <time>2026-08-05T07:56:37.000Z</time>
        <extensions>
          <ns3:TrackPointExtension>
            <ns3:hr>76</ns3:hr>
            <ns3:cad>0</ns3:cad>
          </ns3:TrackPointExtension>
        </extensions>
      </trkpt>
      <trkpt lat="43.4685097821056842803955078125" lon="1.4687838591635227203369140625">
        <ele>258.20001220703125</ele>
        <time>2026-08-05T07:56:38.000Z</time>
        <extensions>
          <ns3:TrackPointExtension>
            <ns3:hr>75</ns3:hr>
            <ns3:cad>0</ns3:cad>
          </ns3:TrackPointExtension>
        </extensions>
      </trkpt>
      <trkpt lat="43.468520008027553558349609375" lon="1.468774639070034027099609375">
        <ele>258.20001220703125</ele>
        <time>2026-08-05T07:56:39.000Z</time>
        <extensions>
          <ns3:TrackPointExtension>
            <ns3:hr>75</ns3:hr>
            <ns3:cad>46</ns3:cad>
          </ns3:TrackPointExtension>
        </extensions>
      </trkpt>
      <trkpt lat="43.46852864138782024383544921875" lon="1.46876868791878223419189453125">
        <ele>258.20001220703125</ele>
        <time>2026-08-05T07:56:40.000Z</time>
        <extensions>
          <ns3:TrackPointExtension>
            <ns3:hr>76</ns3:hr>
            <ns3:cad>46</ns3:cad>
          </ns3:TrackPointExtension>
        </extensions>
      </trkpt>
      <trkpt lat="43.4685369394719600677490234375" lon="1.46876265294849872589111328125">
        <ele>258</ele>
        <time>2026-08-05T07:56:41.000Z</time>
        <extensions>
          <ns3:TrackPointExtension>
            <ns3:hr>77</ns3:hr>
            <ns3:cad>46</ns3:cad>
          </ns3:TrackPointExtension>
        </extensions>
      </trkpt>
      <trkpt lat="43.4685423038899898529052734375" lon="1.4687590487301349639892578125">
        <ele>258</ele>
        <time>2026-08-05T07:56:42.000Z</time>
        <extensions>
          <ns3:TrackPointExtension>
            <ns3:hr>77</ns3:hr>
            <ns3:cad>46</ns3:cad>
          </ns3:TrackPointExtension>
        </extensions>
      </trkpt>
      <trkpt lat="43.46855244599282741546630859375" lon="1.46875460632145404815673828125">
        <ele>258</ele>
        <time>2026-08-05T07:56:43.000Z</time>
        <extensions>
          <ns3:TrackPointExtension>
            <ns3:hr>78</ns3:hr>
            <ns3:cad>46</ns3:cad>
          </ns3:TrackPointExtension>
        </extensions>
      </trkpt>
      <trkpt lat="43.4685624204576015472412109375" lon="1.46874588914215564727783203125">
        <ele>258</ele>
        <time>2026-08-05T07:56:44.000Z</time>
        <extensions>
          <ns3:TrackPointExtension>
            <ns3:hr>78</ns3:hr>
            <ns3:cad>46</ns3:cad>
          </ns3:TrackPointExtension>
        </extensions>
      </trkpt>
      <trkpt lat="43.46857130527496337890625" lon="1.4687426201999187469482421875">
        <ele>258</ele>
        <time>2026-08-05T07:56:45.000Z</time>
        <extensions>
          <ns3:TrackPointExtension>
            <ns3:hr>77</ns3:hr>
            <ns3:cad>46</ns3:cad>
          </ns3:TrackPointExtension>
        </extensions>
      </trkpt>
      <trkpt lat="43.46857692115008831024169921875" lon="1.4687385968863964080810546875">
        <ele>258</ele>
        <time>2026-08-05T07:56:46.000Z</time>
        <extensions>
          <ns3:TrackPointExtension>
            <ns3:hr>77</ns3:hr>
            <ns3:cad>46</ns3:cad>
          </ns3:TrackPointExtension>
        </extensions>
      </trkpt>
      <trkpt lat="43.46858798526227474212646484375" lon="1.46873650141060352325439453125">
        <ele>258.20001220703125</ele>
        <time>2026-08-05T07:56:47.000Z</time>
        <extensions>
          <ns3:TrackPointExtension>
            <ns3:hr>77</ns3:hr>
            <ns3:cad>46</ns3:cad>
          </ns3:TrackPointExtension>
        </extensions>
      </trkpt>
      <trkpt lat="43.46860148012638092041015625" lon="1.4687285386025905609130859375">
        <ele>258.20001220703125</ele>
        <time>2026-08-05T07:56:48.000Z</time>
        <extensions>
          <ns3:TrackPointExtension>
            <ns3:hr>77</ns3:hr>
            <ns3:cad>47</ns3:cad>
          </ns3:TrackPointExtension>
        </extensions>
      </trkpt>
      <trkpt lat="43.46861086785793304443359375" lon="1.46871931850910186767578125">
        <ele>258.20001220703125</ele>
        <time>2026-08-05T07:56:49.000Z</time>
        <extensions>
          <ns3:TrackPointExtension>
            <ns3:hr>76</ns3:hr>
            <ns3:cad>47</ns3:cad>
          </ns3:TrackPointExtension>
        </extensions>
      </trkpt>
      <trkpt lat="43.46862251870334148406982421875" lon="1.46871370263397693634033203125">
        <ele>258</ele>
        <time>2026-08-05T07:56:50.000Z</time>
        <extensions>
          <ns3:TrackPointExtension>
            <ns3:hr>76</ns3:hr>
            <ns3:cad>47</ns3:cad>
          </ns3:TrackPointExtension>
        </extensions>
      </trkpt>
      <trkpt lat="43.46862939186394214630126953125" lon="1.46870967932045459747314453125">
        <ele>258</ele>
        <time>2026-08-05T07:56:51.000Z</time>
        <extensions>
          <ns3:TrackPointExtension>
            <ns3:hr>76</ns3:hr>
            <ns3:cad>47</ns3:cad>
          </ns3:TrackPointExtension>
        </extensions>
      </trkpt>
      <trkpt lat="43.46863727085292339324951171875" lon="1.4687040634453296661376953125">
        <ele>258</ele>
        <time>2026-08-05T07:56:52.000Z</time>
        <extensions>
          <ns3:TrackPointExtension>
            <ns3:hr>76</ns3:hr>
            <ns3:cad>47</ns3:cad>
          </ns3:TrackPointExtension>
        </extensions>
      </trkpt>
      <trkpt lat="43.46864816732704639434814453125" lon="1.46870146505534648895263671875">
        <ele>258</ele>
        <time>2026-08-05T07:56:53.000Z</time>
        <extensions>
          <ns3:TrackPointExtension>
            <ns3:hr>76</ns3:hr>
            <ns3:cad>0</ns3:cad>
          </ns3:TrackPointExtension>
        </extensions>
      </trkpt>
      <trkpt lat="43.4686536155641078948974609375" lon="1.46869249641895294189453125">
        <ele>258</ele>
        <time>2026-08-05T07:56:54.000Z</time>
        <extensions>
          <ns3:TrackPointExtension>
            <ns3:hr>75</ns3:hr>
            <ns3:cad>0</ns3:cad>
          </ns3:TrackPointExtension>
        </extensions>
      </trkpt>
      <trkpt lat="43.46866241656243801116943359375" lon="1.46868956275284290313720703125">
        <ele>258</ele>
        <time>2026-08-05T07:56:55.000Z</time>
        <extensions>
          <ns3:TrackPointExtension>
            <ns3:hr>75</ns3:hr>
            <ns3:cad>0</ns3:cad>
          </ns3:TrackPointExtension>
        </extensions>
      </trkpt>
      <trkpt lat="43.4686727263033390045166015625" lon="1.46868419833481311798095703125">
        <ele>258</ele>
        <time>2026-08-05T07:56:56.000Z</time>
        <extensions>
          <ns3:TrackPointExtension>
            <ns3:hr>75</ns3:hr>
            <ns3:cad>0</ns3:cad>
          </ns3:TrackPointExtension>
        </extensions>
      </trkpt>
      <trkpt lat="43.46868035383522510528564453125" lon="1.4686779119074344635009765625">
        <ele>258</ele>
        <time>2026-08-05T07:56:57.000Z</time>
        <extensions>
          <ns3:TrackPointExtension>
            <ns3:hr>74</ns3:hr>
            <ns3:cad>0</ns3:cad>
          </ns3:TrackPointExtension>
        </extensions>
      </trkpt>
      <trkpt lat="43.4686861373484134674072265625" lon="1.46867237985134124755859375">
        <ele>258</ele>
        <time>2026-08-05T07:56:58.000Z</time>
        <extensions>
          <ns3:TrackPointExtension>
            <ns3:hr>74</ns3:hr>
            <ns3:cad>0</ns3:cad>
          </ns3:TrackPointExtension>
        </extensions>
      </trkpt>
      <trkpt lat="43.4686951898038387298583984375" lon="1.46866500377655029296875">
        <ele>257.79998779296875</ele>
        <time>2026-08-05T07:56:59.000Z</time>
        <extensions>
          <ns3:TrackPointExtension>
            <ns3:hr>74</ns3:hr>
            <ns3:cad>0</ns3:cad>
          </ns3:TrackPointExtension>
        </extensions>
      </trkpt>
      <trkpt lat="43.468703739345073699951171875" lon="1.4686581306159496307373046875">
        <ele>257.79998779296875</ele>
        <time>2026-08-05T07:57:00.000Z</time>
        <extensions>
          <ns3:TrackPointExtension>
            <ns3:hr>74</ns3:hr>
            <ns3:cad>0</ns3:cad>
          </ns3:TrackPointExtension>
        </extensions>
      </trkpt>
      <trkpt lat="43.4687112830579280853271484375" lon="1.46865033544600009918212890625">
        <ele>257.600006103515625</ele>
        <time>2026-08-05T07:57:01.000Z</time>
        <extensions>
          <ns3:TrackPointExtension>
            <ns3:hr>75</ns3:hr>
            <ns3:cad>0</ns3:cad>
          </ns3:TrackPointExtension>
        </extensions>
      </trkpt>
      <trkpt lat="43.46871941350400447845458984375" lon="1.4686403609812259674072265625">
        <ele>257.600006103515625</ele>
        <time>2026-08-05T07:57:02.000Z</time>
        <extensions>
          <ns3:TrackPointExtension>
            <ns3:hr>75</ns3:hr>
            <ns3:cad>0</ns3:cad>
          </ns3:TrackPointExtension>
        </extensions>
      </trkpt>
      <trkpt lat="43.4687273763120174407958984375" lon="1.46863575093448162078857421875">
        <ele>257.600006103515625</ele>
        <time>2026-08-05T07:57:03.000Z</time>
        <extensions>
          <ns3:TrackPointExtension>
            <ns3:hr>76</ns3:hr>
            <ns3:cad>0</ns3:cad>
          </ns3:TrackPointExtension>
        </extensions>
      </trkpt>
      <trkpt lat="43.4687347523868083953857421875" lon="1.4686314761638641357421875">
        <ele>257.79998779296875</ele>
        <time>2026-08-05T07:57:04.000Z</time>
        <extensions>
          <ns3:TrackPointExtension>
            <ns3:hr>76</ns3:hr>
            <ns3:cad>47</ns3:cad>
          </ns3:TrackPointExtension>
        </extensions>
      </trkpt>
      <trkpt lat="43.468745984137058258056640625" lon="1.46861949004232883453369140625">
        <ele>257.79998779296875</ele>
        <time>2026-08-05T07:57:05.000Z</time>
        <extensions>
          <ns3:TrackPointExtension>
            <ns3:hr>76</ns3:hr>
            <ns3:cad>47</ns3:cad>
          </ns3:TrackPointExtension>
        </extensions>
      </trkpt>
      <trkpt lat="43.46875428222119808197021484375" lon="1.46861211396753787994384765625">
        <ele>258</ele>
        <time>2026-08-05T07:57:06.000Z</time>
        <extensions>
          <ns3:TrackPointExtension>
            <ns3:hr>76</ns3:hr>
            <ns3:cad>47</ns3:cad>
          </ns3:TrackPointExtension>
        </extensions>
      </trkpt>
      <trkpt lat="43.46876299940049648284912109375" lon="1.4686054922640323638916015625">
        <ele>258</ele>
        <time>2026-08-05T07:57:07.000Z</time>
        <extensions>
          <ns3:TrackPointExtension>
            <ns3:hr>75</ns3:hr>
            <ns3:cad>47</ns3:cad>
          </ns3:TrackPointExtension>
        </extensions>
      </trkpt>
      <trkpt lat="43.468772806227207183837890625" lon="1.46859954111278057098388671875">
        <ele>258</ele>
        <time>2026-08-05T07:57:08.000Z</time>
        <extensions>
          <ns3:TrackPointExtension>
            <ns3:hr>76</ns3:hr>
            <ns3:cad>45</ns3:cad>
          </ns3:TrackPointExtension>
        </extensions>
      </trkpt>
      <trkpt lat="43.46878227777779102325439453125" lon="1.468596272170543670654296875">
        <ele>258</ele>
        <time>2026-08-05T07:57:09.000Z</time>
        <extensions>
          <ns3:TrackPointExtension>
            <ns3:hr>76</ns3:hr>
            <ns3:cad>45</ns3:cad>
          </ns3:TrackPointExtension>
        </extensions>
      </trkpt>
      <trkpt lat="43.46879250369966030120849609375" lon="1.468592584133148193359375">
        <ele>258</ele>
        <time>2026-08-05T07:57:10.000Z</time>
        <extensions>
          <ns3:TrackPointExtension>
            <ns3:hr>76</ns3:hr>
            <ns3:cad>45</ns3:cad>
          </ns3:TrackPointExtension>
        </extensions>
      </trkpt>
      <trkpt lat="43.4688014723360538482666015625" lon="1.46858680061995983123779296875">
        <ele>257.79998779296875</ele>
        <time>2026-08-05T07:57:11.000Z</time>
        <extensions>
          <ns3:TrackPointExtension>
            <ns3:hr>75</ns3:hr>
            <ns3:cad>45</ns3:cad>
          </ns3:TrackPointExtension>
        </extensions>
      </trkpt>
      <trkpt lat="43.4688095189630985260009765625" lon="1.468587554991245269775390625">
        <ele>257.79998779296875</ele>
        <time>2026-08-05T07:57:12.000Z</time>
        <extensions>
          <ns3:TrackPointExtension>
            <ns3:hr>76</ns3:hr>
            <ns3:cad>45</ns3:cad>
          </ns3:TrackPointExtension>
        </extensions>
      </trkpt>
      <trkpt lat="43.46881496720016002655029296875" lon="1.4685833640396595001220703125">
        <ele>257.79998779296875</ele>
        <time>2026-08-05T07:57:13.000Z</time>
        <extensions>
          <ns3:TrackPointExtension>
            <ns3:hr>76</ns3:hr>
            <ns3:cad>46</ns3:cad>
          </ns3:TrackPointExtension>
        </extensions>
      </trkpt>
      <trkpt lat="43.46882385201752185821533203125" lon="1.46857774816453456878662109375">
        <ele>257.79998779296875</ele>
        <time>2026-08-05T07:57:14.000Z</time>
        <extensions>
          <ns3:TrackPointExtension>
            <ns3:hr>76</ns3:hr>
            <ns3:cad>46</ns3:cad>
          </ns3:TrackPointExtension>
        </extensions>
      </trkpt>
      <trkpt lat="43.4688329882919788360595703125" lon="1.4685753174126148223876953125">
        <ele>257.600006103515625</ele>
        <time>2026-08-05T07:57:15.000Z</time>
        <extensions>
          <ns3:TrackPointExtension>
            <ns3:hr>76</ns3:hr>
            <ns3:cad>46</ns3:cad>
          </ns3:TrackPointExtension>
        </extensions>
      </trkpt>
      <trkpt lat="43.46884178929030895233154296875" lon="1.4685746468603610992431640625">
        <ele>257.399993896484375</ele>
        <time>2026-08-05T07:57:16.000Z</time>
        <extensions>
          <ns3:TrackPointExtension>
            <ns3:hr>76</ns3:hr>
            <ns3:cad>46</ns3:cad>
          </ns3:TrackPointExtension>
        </extensions>
      </trkpt>
      <trkpt lat="43.4688487462699413299560546875" lon="1.4685722999274730682373046875">
        <ele>257.20001220703125</ele>
        <time>2026-08-05T07:57:17.000Z</time>
        <extensions>
          <ns3:TrackPointExtension>
            <ns3:hr>77</ns3:hr>
            <ns3:cad>47</ns3:cad>
          </ns3:TrackPointExtension>
        </extensions>
      </trkpt>
      <trkpt lat="43.468853943049907684326171875" lon="1.46857070736587047576904296875">
        <ele>257.20001220703125</ele>
        <time>2026-08-05T07:57:18.000Z</time>
        <extensions>
          <ns3:TrackPointExtension>
            <ns3:hr>77</ns3:hr>
            <ns3:cad>47</ns3:cad>
          </ns3:TrackPointExtension>
        </extensions>
      </trkpt>
      <trkpt lat="43.46885771490633487701416015625" lon="1.46856986917555332183837890625">
        <ele>257</ele>
        <time>2026-08-05T07:57:19.000Z</time>
        <extensions>
          <ns3:TrackPointExtension>
            <ns3:hr>77</ns3:hr>
            <ns3:cad>49</ns3:cad>
          </ns3:TrackPointExtension>
        </extensions>
      </trkpt>
      <trkpt lat="43.4688638336956501007080078125" lon="1.468564085662364959716796875">
        <ele>256.79998779296875</ele>
        <time>2026-08-05T07:57:20.000Z</time>
        <extensions>
          <ns3:TrackPointExtension>
            <ns3:hr>78</ns3:hr>
            <ns3:cad>50</ns3:cad>
          </ns3:TrackPointExtension>
        </extensions>
      </trkpt>
      <trkpt lat="43.4688762389123439788818359375" lon="1.46855461411178112030029296875">
        <ele>256.79998779296875</ele>
        <time>2026-08-05T07:57:21.000Z</time>
        <extensions>
          <ns3:TrackPointExtension>
            <ns3:hr>78</ns3:hr>
            <ns3:cad>51</ns3:cad>
          </ns3:TrackPointExtension>
        </extensions>
      </trkpt>
      <trkpt lat="43.46888788975775241851806640625" lon="1.468544639647006988525390625">
        <ele>256.600006103515625</ele>
        <time>2026-08-05T07:57:22.000Z</time>
        <extensions>
          <ns3:TrackPointExtension>
            <ns3:hr>78</ns3:hr>
            <ns3:cad>51</ns3:cad>
          </ns3:TrackPointExtension>
        </extensions>
      </trkpt>
      <trkpt lat="43.46889677457511425018310546875" lon="1.46853290498256683349609375">
        <ele>256.600006103515625</ele>
        <time>2026-08-05T07:57:23.000Z</time>
        <extensions>
          <ns3:TrackPointExtension>
            <ns3:hr>78</ns3:hr>
            <ns3:cad>51</ns3:cad>
          </ns3:TrackPointExtension>
        </extensions>
      </trkpt>
      <trkpt lat="43.46890230663120746612548828125" lon="1.4685293845832347869873046875">
        <ele>256.399993896484375</ele>
        <time>2026-08-05T07:57:24.000Z</time>
        <extensions>
          <ns3:TrackPointExtension>
            <ns3:hr>78</ns3:hr>
            <ns3:cad>50</ns3:cad>
          </ns3:TrackPointExtension>
        </extensions>
      </trkpt>
      <trkpt lat="43.46890884451568126678466796875" lon="1.46852393634617328643798828125">
        <ele>256.20001220703125</ele>
        <time>2026-08-05T07:57:25.000Z</time>
        <extensions>
          <ns3:TrackPointExtension>
            <ns3:hr>78</ns3:hr>
            <ns3:cad>49</ns3:cad>
          </ns3:TrackPointExtension>
        </extensions>
      </trkpt>
      <trkpt lat="43.4689194895327091217041015625" lon="1.4685161411762237548828125">
        <ele>256</ele>
        <time>2026-08-05T07:57:26.000Z</time>
        <extensions>
          <ns3:TrackPointExtension>
            <ns3:hr>78</ns3:hr>
            <ns3:cad>49</ns3:cad>
          </ns3:TrackPointExtension>
        </extensions>
      </trkpt>
      <trkpt lat="43.468925692141056060791015625" lon="1.46851203404366970062255859375">
        <ele>256</ele>
        <time>2026-08-05T07:57:27.000Z</time>
        <extensions>
          <ns3:TrackPointExtension>
            <ns3:hr>78</ns3:hr>
            <ns3:cad>48</ns3:cad>
          </ns3:TrackPointExtension>
        </extensions>
      </trkpt>
      <trkpt lat="43.468932397663593292236328125" lon="1.46850516088306903839111328125">
        <ele>255.8000030517578125</ele>
        <time>2026-08-05T07:57:28.000Z</time>
        <extensions>
          <ns3:TrackPointExtension>
            <ns3:hr>78</ns3:hr>
            <ns3:cad>0</ns3:cad>
          </ns3:TrackPointExtension>
        </extensions>
      </trkpt>
      <trkpt lat="43.4689392708241939544677734375" lon="1.46849895827472209930419921875">
        <ele>255.8000030517578125</ele>
        <time>2026-08-05T07:57:29.000Z</time>
        <extensions>
          <ns3:TrackPointExtension>
            <ns3:hr>78</ns3:hr>
            <ns3:cad>0</ns3:cad>
          </ns3:TrackPointExtension>
        </extensions>
      </trkpt>
      <trkpt lat="43.46894706599414348602294921875" lon="1.46849124692380428314208984375">
        <ele>255.8000030517578125</ele>
        <time>2026-08-05T07:57:30.000Z</time>
        <extensions>
          <ns3:TrackPointExtension>
            <ns3:hr>78</ns3:hr>
            <ns3:cad>49</ns3:cad>
          </ns3:TrackPointExtension>
        </extensions>
      </trkpt>
      <trkpt lat="43.468955866992473602294921875" lon="1.46848504431545734405517578125">
        <ele>255.600006103515625</ele>
        <time>2026-08-05T07:57:31.000Z</time>
        <extensions>
          <ns3:TrackPointExtension>
            <ns3:hr>78</ns3:hr>
            <ns3:cad>51</ns3:cad>
          </ns3:TrackPointExtension>
        </extensions>
      </trkpt>
      <trkpt lat="43.46896248869597911834716796875" lon="1.4684780873358249664306640625">
        <ele>255.600006103515625</ele>
        <time>2026-08-05T07:57:32.000Z</time>
        <extensions>
          <ns3:TrackPointExtension>
            <ns3:hr>77</ns3:hr>
            <ns3:cad>51</ns3:cad>
          </ns3:TrackPointExtension>
        </extensions>
      </trkpt>
      <trkpt lat="43.46896902658045291900634765625" lon="1.4684767462313175201416015625">
        <ele>255.600006103515625</ele>
        <time>2026-08-05T07:57:33.000Z</time>
        <extensions>
          <ns3:TrackPointExtension>
            <ns3:hr>77</ns3:hr>
            <ns3:cad>51</ns3:cad>
          </ns3:TrackPointExtension>
        </extensions>
      </trkpt>
      <trkpt lat="43.46897623501718044281005859375" lon="1.46847280673682689666748046875">
        <ele>255.399993896484375</ele>
        <time>2026-08-05T07:57:34.000Z</time>
        <extensions>
          <ns3:TrackPointExtension>
            <ns3:hr>77</ns3:hr>
            <ns3:cad>51</ns3:cad>
          </ns3:TrackPointExtension>
        </extensions>
      </trkpt>
      <trkpt lat="43.46898503601551055908203125" lon="1.468464843928813934326171875">
        <ele>255.399993896484375</ele>
        <time>2026-08-05T07:57:35.000Z</time>
        <extensions>
          <ns3:TrackPointExtension>
            <ns3:hr>77</ns3:hr>
            <ns3:cad>47</ns3:cad>
          </ns3:TrackPointExtension>
        </extensions>
      </trkpt>
      <trkpt lat="43.468990735709667205810546875" lon="1.46845671348273754119873046875">
        <ele>255.1999969482421875</ele>
        <time>2026-08-05T07:57:36.000Z</time>
        <extensions>
          <ns3:TrackPointExtension>
            <ns3:hr>78</ns3:hr>
            <ns3:cad>47</ns3:cad>
          </ns3:TrackPointExtension>
        </extensions>
      </trkpt>
      <trkpt lat="43.46899970434606075286865234375" lon="1.46845034323632717132568359375">
        <ele>255.1999969482421875</ele>
        <time>2026-08-05T07:57:37.000Z</time>
        <extensions>
          <ns3:TrackPointExtension>
            <ns3:hr>78</ns3:hr>
            <ns3:cad>47</ns3:cad>
          </ns3:TrackPointExtension>
        </extensions>
      </trkpt>
      <trkpt lat="43.46900372765958309173583984375" lon="1.468446739017963409423828125">
        <ele>255</ele>
        <time>2026-08-05T07:57:38.000Z</time>
        <extensions>
          <ns3:TrackPointExtension>
            <ns3:hr>78</ns3:hr>
            <ns3:cad>47</ns3:cad>
          </ns3:TrackPointExtension>
        </extensions>
      </trkpt>
      <trkpt lat="43.469012193381786346435546875" lon="1.4684388600289821624755859375">
        <ele>255</ele>
        <time>2026-08-05T07:57:39.000Z</time>
        <extensions>
          <ns3:TrackPointExtension>
            <ns3:hr>79</ns3:hr>
            <ns3:cad>47</ns3:cad>
          </ns3:TrackPointExtension>
        </extensions>
      </trkpt>
      <trkpt lat="43.469020240008831024169921875" lon="1.46843123249709606170654296875">
        <ele>254.8000030517578125</ele>
        <time>2026-08-05T07:57:40.000Z</time>
        <extensions>
          <ns3:TrackPointExtension>
            <ns3:hr>79</ns3:hr>
            <ns3:cad>47</ns3:cad>
          </ns3:TrackPointExtension>
        </extensions>
      </trkpt>
      <trkpt lat="43.46902786754071712493896484375" lon="1.4684222638607025146484375">
        <ele>254.600006103515625</ele>
        <time>2026-08-05T07:57:41.000Z</time>
        <extensions>
          <ns3:TrackPointExtension>
            <ns3:hr>79</ns3:hr>
            <ns3:cad>47</ns3:cad>
          </ns3:TrackPointExtension>
        </extensions>
      </trkpt>
      <trkpt lat="43.4690351597964763641357421875" lon="1.46841614507138729095458984375">
        <ele>254.399993896484375</ele>
        <time>2026-08-05T07:57:42.000Z</time>
        <extensions>
          <ns3:TrackPointExtension>
            <ns3:hr>79</ns3:hr>
            <ns3:cad>48</ns3:cad>
          </ns3:TrackPointExtension>
        </extensions>
      </trkpt>
      <trkpt lat="43.469040356576442718505859375" lon="1.4684083499014377593994140625">
        <ele>254.399993896484375</ele>
        <time>2026-08-05T07:57:43.000Z</time>
        <extensions>
          <ns3:TrackPointExtension>
            <ns3:hr>79</ns3:hr>
            <ns3:cad>48</ns3:cad>
          </ns3:TrackPointExtension>
        </extensions>
      </trkpt>
      <trkpt lat="43.469045050442218780517578125" lon="1.46840357221662998199462890625">
        <ele>254.399993896484375</ele>
        <time>2026-08-05T07:57:44.000Z</time>
        <extensions>
          <ns3:TrackPointExtension>
            <ns3:hr>79</ns3:hr>
            <ns3:cad>48</ns3:cad>
          </ns3:TrackPointExtension>
        </extensions>
      </trkpt>
      <trkpt lat="43.46905410289764404296875" lon="1.46839183755218982696533203125">
        <ele>254.1999969482421875</ele>
        <time>2026-08-05T07:57:45.000Z</time>
        <extensions>
          <ns3:TrackPointExtension>
            <ns3:hr>79</ns3:hr>
            <ns3:cad>48</ns3:cad>
          </ns3:TrackPointExtension>
        </extensions>
      </trkpt>
      <trkpt lat="43.46906122751533985137939453125" lon="1.46838244982063770294189453125">
        <ele>254.1999969482421875</ele>
        <time>2026-08-05T07:57:46.000Z</time>
        <extensions>
          <ns3:TrackPointExtension>
            <ns3:hr>79</ns3:hr>
            <ns3:cad>48</ns3:cad>
          </ns3:TrackPointExtension>
        </extensions>
      </trkpt>
      <trkpt lat="43.4690673463046550750732421875" lon="1.46837599575519561767578125">
        <ele>254</ele>
        <time>2026-08-05T07:57:47.000Z</time>
        <extensions>
          <ns3:TrackPointExtension>
            <ns3:hr>80</ns3:hr>
            <ns3:cad>48</ns3:cad>
          </ns3:TrackPointExtension>
        </extensions>
      </trkpt>
      <trkpt lat="43.46907480619847774505615234375" lon="1.46837054751813411712646484375">
        <ele>253.8000030517578125</ele>
        <time>2026-08-05T07:57:48.000Z</time>
        <extensions>
          <ns3:TrackPointExtension>
            <ns3:hr>79</ns3:hr>
            <ns3:cad>48</ns3:cad>
          </ns3:TrackPointExtension>
        </extensions>
      </trkpt>
      <trkpt lat="43.46908067353069782257080078125" lon="1.46836669184267520904541015625">
        <ele>253.8000030517578125</ele>
        <time>2026-08-05T07:57:49.000Z</time>
        <extensions>
          <ns3:TrackPointExtension>
            <ns3:hr>79</ns3:hr>
            <ns3:cad>48</ns3:cad>
          </ns3:TrackPointExtension>
        </extensions>
      </trkpt>
      <trkpt lat="43.46909173764288425445556640625" lon="1.46835722029209136962890625">
        <ele>253.600006103515625</ele>
        <time>2026-08-05T07:57:50.000Z</time>
        <extensions>
          <ns3:TrackPointExtension>
            <ns3:hr>79</ns3:hr>
            <ns3:cad>49</ns3:cad>
          </ns3:TrackPointExtension>
        </extensions>
      </trkpt>
      <trkpt lat="43.469098694622516632080078125" lon="1.4683443121612071990966796875">
        <ele>253.600006103515625</ele>
        <time>2026-08-05T07:57:51.000Z</time>
        <extensions>
          <ns3:TrackPointExtension>
            <ns3:hr>80</ns3:hr>
            <ns3:cad>49</ns3:cad>
          </ns3:TrackPointExtension>
        </extensions>
      </trkpt>
      <trkpt lat="43.46910699270665645599365234375" lon="1.46833668462932109832763671875">
        <ele>253.399993896484375</ele>
        <time>2026-08-05T07:57:52.000Z</time>
        <extensions>
          <ns3:TrackPointExtension>
            <ns3:hr>79</ns3:hr>
            <ns3:cad>49</ns3:cad>
          </ns3:TrackPointExtension>
        </extensions>
      </trkpt>
      <trkpt lat="43.46911244094371795654296875" lon="1.4683345891535282135009765625">
        <ele>253.399993896484375</ele>
        <time>2026-08-05T07:57:53.000Z</time>
        <extensions>
          <ns3:TrackPointExtension>
            <ns3:hr>79</ns3:hr>
            <ns3:cad>49</ns3:cad>
          </ns3:TrackPointExtension>
        </extensions>
      </trkpt>
      <trkpt lat="43.469115458428859710693359375" lon="1.46832763217389583587646484375">
        <ele>253.1999969482421875</ele>
        <time>2026-08-05T07:57:54.000Z</time>
        <extensions>
          <ns3:TrackPointExtension>
            <ns3:hr>79</ns3:hr>
            <ns3:cad>49</ns3:cad>
          </ns3:TrackPointExtension>
        </extensions>
      </trkpt>
      <trkpt lat="43.46912384033203125" lon="1.4683205075562000274658203125">
        <ele>253.1999969482421875</ele>
        <time>2026-08-05T07:57:55.000Z</time>
        <extensions>
          <ns3:TrackPointExtension>
            <ns3:hr>79</ns3:hr>
            <ns3:cad>49</ns3:cad>
          </ns3:TrackPointExtension>
        </extensions>
      </trkpt>
      <trkpt lat="43.4691327251493930816650390625" lon="1.46831556223332881927490234375">
        <ele>253</ele>
        <time>2026-08-05T07:57:56.000Z</time>
        <extensions>
          <ns3:TrackPointExtension>
            <ns3:hr>79</ns3:hr>
            <ns3:cad>49</ns3:cad>
          </ns3:TrackPointExtension>
        </extensions>
      </trkpt>
      <trkpt lat="43.46914186142385005950927734375" lon="1.46831103600561618804931640625">
        <ele>253</ele>
        <time>2026-08-05T07:57:57.000Z</time>
        <extensions>
          <ns3:TrackPointExtension>
            <ns3:hr>78</ns3:hr>
            <ns3:cad>49</ns3:cad>
          </ns3:TrackPointExtension>
        </extensions>
      </trkpt>
      <trkpt lat="43.46914689056575298309326171875" lon="1.4683084376156330108642578125">
        <ele>252.8000030517578125</ele>
        <time>2026-08-05T07:57:58.000Z</time>
        <extensions>
          <ns3:TrackPointExtension>
            <ns3:hr>78</ns3:hr>
            <ns3:cad>49</ns3:cad>
          </ns3:TrackPointExtension>
        </extensions>
      </trkpt>
      <trkpt lat="43.46915476955473423004150390625" lon="1.4682993851602077484130859375">
        <ele>252.8000030517578125</ele>
        <time>2026-08-05T07:57:59.000Z</time>
        <extensions>
          <ns3:TrackPointExtension>
            <ns3:hr>78</ns3:hr>
            <ns3:cad>49</ns3:cad>
          </ns3:TrackPointExtension>
        </extensions>
      </trkpt>
      <trkpt lat="43.46916340291500091552734375" lon="1.468289829790592193603515625">
        <ele>252.600006103515625</ele>
        <time>2026-08-05T07:58:00.000Z</time>
        <extensions>
          <ns3:TrackPointExtension>
            <ns3:hr>79</ns3:hr>
            <ns3:cad>49</ns3:cad>
          </ns3:TrackPointExtension>
        </extensions>
      </trkpt>
      <trkpt lat="43.4691699407994747161865234375" lon="1.4682839624583721160888671875">
        <ele>252.600006103515625</ele>
        <time>2026-08-05T07:58:01.000Z</time>
        <extensions>
          <ns3:TrackPointExtension>
            <ns3:hr>78</ns3:hr>
            <ns3:cad>49</ns3:cad>
          </ns3:TrackPointExtension>
        </extensions>
      </trkpt>
      <trkpt lat="43.46917404793202877044677734375" lon="1.46827541291713714599609375">
        <ele>252.399993896484375</ele>
        <time>2026-08-05T07:58:02.000Z</time>
        <extensions>
          <ns3:TrackPointExtension>
            <ns3:hr>78</ns3:hr>
            <ns3:cad>49</ns3:cad>
          </ns3:TrackPointExtension>
        </extensions>
      </trkpt>
      <trkpt lat="43.46918025054037570953369140625" lon="1.46826812066137790679931640625">
        <ele>252.399993896484375</ele>
        <time>2026-08-05T07:58:03.000Z</time>
        <extensions>
          <ns3:TrackPointExtension>
            <ns3:hr>78</ns3:hr>
            <ns3:cad>49</ns3:cad>
          </ns3:TrackPointExtension>
        </extensions>
      </trkpt>
      <trkpt lat="43.46918846480548381805419921875" lon="1.46825990639626979827880859375">
        <ele>252.399993896484375</ele>
        <time>2026-08-05T07:58:04.000Z</time>
        <extensions>
          <ns3:TrackPointExtension>
            <ns3:hr>77</ns3:hr>
            <ns3:cad>49</ns3:cad>
          </ns3:TrackPointExtension>
        </extensions>
      </trkpt>
      <trkpt lat="43.46919424831867218017578125" lon="1.46825320087373256683349609375">
        <ele>252.399993896484375</ele>
        <time>2026-08-05T07:58:05.000Z</time>
        <extensions>
          <ns3:TrackPointExtension>
            <ns3:hr>77</ns3:hr>
            <ns3:cad>48</ns3:cad>
          </ns3:TrackPointExtension>
        </extensions>
      </trkpt>
      <trkpt lat="43.4691957570612430572509765625" lon="1.46824733354151248931884765625">
        <ele>252.1999969482421875</ele>
        <time>2026-08-05T07:58:06.000Z</time>
        <extensions>
          <ns3:TrackPointExtension>
            <ns3:hr>77</ns3:hr>
            <ns3:cad>48</ns3:cad>
          </ns3:TrackPointExtension>
        </extensions>
      </trkpt>
      <trkpt lat="43.46920036710798740386962890625" lon="1.46824113093316555023193359375">
        <ele>252</ele>
        <time>2026-08-05T07:58:07.000Z</time>
        <extensions>
          <ns3:TrackPointExtension>
            <ns3:hr>77</ns3:hr>
            <ns3:cad>48</ns3:cad>
          </ns3:TrackPointExtension>
        </extensions>
      </trkpt>
      <trkpt lat="43.46920707263052463531494140625" lon="1.468233168125152587890625">
        <ele>252</ele>
        <time>2026-08-05T07:58:08.000Z</time>
        <extensions>
          <ns3:TrackPointExtension>
            <ns3:hr>78</ns3:hr>
            <ns3:cad>0</ns3:cad>
          </ns3:TrackPointExtension>
        </extensions>
      </trkpt>
      <trkpt lat="43.469218723475933074951171875" lon="1.46822118200361728668212890625">
        <ele>251.8000030517578125</ele>
        <time>2026-08-05T07:58:09.000Z</time>
        <extensions>
          <ns3:TrackPointExtension>
            <ns3:hr>77</ns3:hr>
            <ns3:cad>0</ns3:cad>
          </ns3:TrackPointExtension>
        </extensions>
      </trkpt>
      <trkpt lat="43.46922869794070720672607421875" lon="1.46821313537657260894775390625">
        <ele>251.600006103515625</ele>
        <time>2026-08-05T07:58:10.000Z</time>
        <extensions>
          <ns3:TrackPointExtension>
            <ns3:hr>77</ns3:hr>
            <ns3:cad>51</ns3:cad>
          </ns3:TrackPointExtension>
        </extensions>
      </trkpt>
      <trkpt lat="43.4692356549203395843505859375" lon="1.4682050049304962158203125">
        <ele>251.600006103515625</ele>
        <time>2026-08-05T07:58:11.000Z</time>
        <extensions>
          <ns3:TrackPointExtension>
            <ns3:hr>77</ns3:hr>
            <ns3:cad>51</ns3:cad>
          </ns3:TrackPointExtension>
        </extensions>
      </trkpt>
      <trkpt lat="43.46924277953803539276123046875" lon="1.468197964131832122802734375">
        <ele>251.399993896484375</ele>
        <time>2026-08-05T07:58:12.000Z</time>
        <extensions>
          <ns3:TrackPointExtension>
            <ns3:hr>77</ns3:hr>
            <ns3:cad>51</ns3:cad>
          </ns3:TrackPointExtension>
        </extensions>
      </trkpt>
      <trkpt lat="43.469249568879604339599609375" lon="1.4681915938854217529296875">
        <ele>251.399993896484375</ele>
        <time>2026-08-05T07:58:13.000Z</time>
        <extensions>
          <ns3:TrackPointExtension>
            <ns3:hr>78</ns3:hr>
            <ns3:cad>51</ns3:cad>
          </ns3:TrackPointExtension>
        </extensions>
      </trkpt>
      <trkpt lat="43.469257615506649017333984375" lon="1.4681840501725673675537109375">
        <ele>251.1999969482421875</ele>
        <time>2026-08-05T07:58:14.000Z</time>
        <extensions>
          <ns3:TrackPointExtension>
            <ns3:hr>77</ns3:hr>
            <ns3:cad>50</ns3:cad>
          </ns3:TrackPointExtension>
        </extensions>
      </trkpt>
      <trkpt lat="43.46926457248628139495849609375" lon="1.46817709319293498992919921875">
        <ele>251.1999969482421875</ele>
        <time>2026-08-05T07:58:15.000Z</time>
        <extensions>
          <ns3:TrackPointExtension>
            <ns3:hr>77</ns3:hr>
            <ns3:cad>48</ns3:cad>
          </ns3:TrackPointExtension>
        </extensions>
      </trkpt>
      <trkpt lat="43.4692708589136600494384765625" lon="1.46816946566104888916015625">
        <ele>251</ele>
        <time>2026-08-05T07:58:16.000Z</time>
        <extensions>
          <ns3:TrackPointExtension>
            <ns3:hr>78</ns3:hr>
            <ns3:cad>48</ns3:cad>
          </ns3:TrackPointExtension>
        </extensions>
      </trkpt>
      <trkpt lat="43.46927647478878498077392578125" lon="1.4681646041572093963623046875">
        <ele>251</ele>
        <time>2026-08-05T07:58:17.000Z</time>
        <extensions>
          <ns3:TrackPointExtension>
            <ns3:hr>78</ns3:hr>
            <ns3:cad>47</ns3:cad>
          </ns3:TrackPointExtension>
        </extensions>
      </trkpt>
      <trkpt lat="43.46927630715072154998779296875" lon="1.468155719339847564697265625">
        <ele>251</ele>
        <time>2026-08-05T07:58:18.000Z</time>
        <extensions>
          <ns3:TrackPointExtension>
            <ns3:hr>79</ns3:hr>
            <ns3:cad>47</ns3:cad>
          </ns3:TrackPointExtension>
        </extensions>
      </trkpt>
      <trkpt lat="43.46928167156875133514404296875" lon="1.46814264357089996337890625">
        <ele>251</ele>
        <time>2026-08-05T07:58:19.000Z</time>
        <extensions>
          <ns3:TrackPointExtension>
            <ns3:hr>81</ns3:hr>
            <ns3:cad>47</ns3:cad>
          </ns3:TrackPointExtension>
        </extensions>
      </trkpt>
      <trkpt lat="43.4692887961864471435546875" lon="1.46813820116221904754638671875">
        <ele>251</ele>
        <time>2026-08-05T07:58:20.000Z</time>
        <extensions>
          <ns3:TrackPointExtension>
            <ns3:hr>81</ns3:hr>
            <ns3:cad>47</ns3:cad>
          </ns3:TrackPointExtension>
        </extensions>
      </trkpt>
      <trkpt lat="43.46929608844220638275146484375" lon="1.46813451312482357025146484375">
        <ele>250.8000030517578125</ele>
        <time>2026-08-05T07:58:21.000Z</time>
        <extensions>
          <ns3:TrackPointExtension>
            <ns3:hr>81</ns3:hr>
            <ns3:cad>48</ns3:cad>
          </ns3:TrackPointExtension>
        </extensions>
      </trkpt>
      <trkpt lat="43.46930229105055332183837890625" lon="1.468138284981250762939453125">
        <ele>250.8000030517578125</ele>
        <time>2026-08-05T07:58:22.000Z</time>
        <extensions>
          <ns3:TrackPointExtension>
            <ns3:hr>82</ns3:hr>
            <ns3:cad>48</ns3:cad>
          </ns3:TrackPointExtension>
        </extensions>
      </trkpt>
      <trkpt lat="43.4693104214966297149658203125" lon="1.4681304059922695159912109375">
        <ele>250.600006103515625</ele>
        <time>2026-08-05T07:58:23.000Z</time>
        <extensions>
          <ns3:TrackPointExtension>
            <ns3:hr>81</ns3:hr>
            <ns3:cad>47</ns3:cad>
          </ns3:TrackPointExtension>
        </extensions>
      </trkpt>
      <trkpt lat="43.46931939013302326202392578125" lon="1.4681180007755756378173828125">
        <ele>250.600006103515625</ele>
        <time>2026-08-05T07:58:24.000Z</time>
        <extensions>
          <ns3:TrackPointExtension>
            <ns3:hr>81</ns3:hr>
            <ns3:cad>46</ns3:cad>
          </ns3:TrackPointExtension>
        </extensions>
      </trkpt>
      <trkpt lat="43.46932701766490936279296875" lon="1.4681084454059600830078125">
        <ele>250.399993896484375</ele>
        <time>2026-08-05T07:58:25.000Z</time>
        <extensions>
          <ns3:TrackPointExtension>
            <ns3:hr>82</ns3:hr>
            <ns3:cad>46</ns3:cad>
          </ns3:TrackPointExtension>
        </extensions>
      </trkpt>
      <trkpt lat="43.46933363936841487884521484375" lon="1.46810241043567657470703125">
        <ele>250.1999969482421875</ele>
        <time>2026-08-05T07:58:26.000Z</time>
        <extensions>
          <ns3:TrackPointExtension>
            <ns3:hr>81</ns3:hr>
            <ns3:cad>46</ns3:cad>
          </ns3:TrackPointExtension>
        </extensions>
      </trkpt>
      <trkpt lat="43.4693422727286815643310546875" lon="1.46809327416121959686279296875">
        <ele>250.1999969482421875</ele>
        <time>2026-08-05T07:58:27.000Z</time>
        <extensions>
          <ns3:TrackPointExtension>
            <ns3:hr>81</ns3:hr>
            <ns3:cad>48</ns3:cad>
          </ns3:TrackPointExtension>
        </extensions>
      </trkpt>
      <trkpt lat="43.46934956498444080352783203125" lon="1.4680908434092998504638671875">
        <ele>250</ele>
        <time>2026-08-05T07:58:28.000Z</time>
        <extensions>
          <ns3:TrackPointExtension>
            <ns3:hr>82</ns3:hr>
            <ns3:cad>48</ns3:cad>
          </ns3:TrackPointExtension>
        </extensions>
      </trkpt>
      <trkpt lat="43.46935945563018321990966796875" lon="1.4680843055248260498046875">
        <ele>250</ele>
        <time>2026-08-05T07:58:29.000Z</time>
        <extensions>
          <ns3:TrackPointExtension>
            <ns3:hr>81</ns3:hr>
            <ns3:cad>48</ns3:cad>
          </ns3:TrackPointExtension>
        </extensions>
      </trkpt>
      <trkpt lat="43.46936951391398906707763671875" lon="1.46807868964970111846923828125">
        <ele>249.8000030517578125</ele>
        <time>2026-08-05T07:58:30.000Z</time>
        <extensions>
          <ns3:TrackPointExtension>
            <ns3:hr>81</ns3:hr>
            <ns3:cad>48</ns3:cad>
          </ns3:TrackPointExtension>
        </extensions>
      </trkpt>
      <trkpt lat="43.46937621943652629852294921875" lon="1.46807500161230564117431640625">
        <ele>249.8000030517578125</ele>
        <time>2026-08-05T07:58:31.000Z</time>
        <extensions>
          <ns3:TrackPointExtension>
            <ns3:hr>81</ns3:hr>
            <ns3:cad>48</ns3:cad>
          </ns3:TrackPointExtension>
        </extensions>
      </trkpt>
      <trkpt lat="43.46938393078744411468505859375" lon="1.46807265467941761016845703125">
        <ele>249.8000030517578125</ele>
        <time>2026-08-05T07:58:32.000Z</time>
        <extensions>
          <ns3:TrackPointExtension>
            <ns3:hr>82</ns3:hr>
            <ns3:cad>47</ns3:cad>
          </ns3:TrackPointExtension>
        </extensions>
      </trkpt>
      <trkpt lat="43.4693915583193302154541015625" lon="1.46806494332849979400634765625">
        <ele>249.600006103515625</ele>
        <time>2026-08-05T07:58:33.000Z</time>
        <extensions>
          <ns3:TrackPointExtension>
            <ns3:hr>81</ns3:hr>
            <ns3:cad>46</ns3:cad>
          </ns3:TrackPointExtension>
        </extensions>
      </trkpt>
      <trkpt lat="43.46940186806023120880126953125" lon="1.46805723197758197784423828125">
        <ele>249.600006103515625</ele>
        <time>2026-08-05T07:58:34.000Z</time>
        <extensions>
          <ns3:TrackPointExtension>
            <ns3:hr>81</ns3:hr>
            <ns3:cad>51</ns3:cad>
          </ns3:TrackPointExtension>
        </extensions>
      </trkpt>
      <trkpt lat="43.46940941177308559417724609375" lon="1.46804608404636383056640625">
        <ele>249.600006103515625</ele>
        <time>2026-08-05T07:58:35.000Z</time>
        <extensions>
          <ns3:TrackPointExtension>
            <ns3:hr>82</ns3:hr>
            <ns3:cad>51</ns3:cad>
          </ns3:TrackPointExtension>
        </extensions>
      </trkpt>
      <trkpt lat="43.46941812895238399505615234375" lon="1.46803979761898517608642578125">
        <ele>249.600006103515625</ele>
        <time>2026-08-05T07:58:36.000Z</time>
        <extensions>
          <ns3:TrackPointExtension>
            <ns3:hr>82</ns3:hr>
            <ns3:cad>51</ns3:cad>
          </ns3:TrackPointExtension>
        </extensions>
      </trkpt>
      <trkpt lat="43.46942215226590633392333984375" lon="1.4680435694754123687744140625">
        <ele>249.399993896484375</ele>
        <time>2026-08-05T07:58:37.000Z</time>
        <extensions>
          <ns3:TrackPointExtension>
            <ns3:hr>82</ns3:hr>
            <ns3:cad>51</ns3:cad>
          </ns3:TrackPointExtension>
        </extensions>
      </trkpt>
      <trkpt lat="43.46942919306457042694091796875" lon="1.4680395461618900299072265625">
        <ele>249.399993896484375</ele>
        <time>2026-08-05T07:58:38.000Z</time>
        <extensions>
          <ns3:TrackPointExtension>
            <ns3:hr>83</ns3:hr>
            <ns3:cad>51</ns3:cad>
          </ns3:TrackPointExtension>
        </extensions>
      </trkpt>
      <trkpt lat="43.4694334678351879119873046875" lon="1.46802596747875213623046875">
        <ele>249.399993896484375</ele>
        <time>2026-08-05T07:58:39.000Z</time>
        <extensions>
          <ns3:TrackPointExtension>
            <ns3:hr>83</ns3:hr>
            <ns3:cad>51</ns3:cad>
          </ns3:TrackPointExtension>
        </extensions>
      </trkpt>
      <trkpt lat="43.46944235265254974365234375" lon="1.46801766939461231231689453125">
        <ele>249.1999969482421875</ele>
        <time>2026-08-05T07:58:40.000Z</time>
        <extensions>
          <ns3:TrackPointExtension>
            <ns3:hr>83</ns3:hr>
            <ns3:cad>51</ns3:cad>
          </ns3:TrackPointExtension>
        </extensions>
      </trkpt>
      <trkpt lat="43.46945106983184814453125" lon="1.46801096387207508087158203125">
        <ele>249</ele>
        <time>2026-08-05T07:58:41.000Z</time>
        <extensions>
          <ns3:TrackPointExtension>
            <ns3:hr>83</ns3:hr>
            <ns3:cad>51</ns3:cad>
          </ns3:TrackPointExtension>
        </extensions>
      </trkpt>
      <trkpt lat="43.46946112811565399169921875" lon="1.46800258196890354156494140625">
        <ele>248.8000030517578125</ele>
        <time>2026-08-05T07:58:42.000Z</time>
        <extensions>
          <ns3:TrackPointExtension>
            <ns3:hr>82</ns3:hr>
            <ns3:cad>51</ns3:cad>
          </ns3:TrackPointExtension>
        </extensions>
      </trkpt>
      <trkpt lat="43.4694683365523815155029296875" lon="1.4679949544370174407958984375">
        <ele>248.600006103515625</ele>
        <time>2026-08-05T07:58:43.000Z</time>
        <extensions>
          <ns3:TrackPointExtension>
            <ns3:hr>82</ns3:hr>
            <ns3:cad>51</ns3:cad>
          </ns3:TrackPointExtension>
        </extensions>
      </trkpt>
      <trkpt lat="43.4694760479032993316650390625" lon="1.46798531524837017059326171875">
        <ele>248.600006103515625</ele>
        <time>2026-08-05T07:58:44.000Z</time>
        <extensions>
          <ns3:TrackPointExtension>
            <ns3:hr>81</ns3:hr>
            <ns3:cad>48</ns3:cad>
          </ns3:TrackPointExtension>
        </extensions>
      </trkpt>
      <trkpt lat="43.46948484890162944793701171875" lon="1.4679771848022937774658203125">
        <ele>248.399993896484375</ele>
        <time>2026-08-05T07:58:45.000Z</time>
        <extensions>
          <ns3:TrackPointExtension>
            <ns3:hr>81</ns3:hr>
            <ns3:cad>48</ns3:cad>
          </ns3:TrackPointExtension>
        </extensions>
      </trkpt>
      <trkpt lat="43.4694931469857692718505859375" lon="1.467969305813312530517578125">
        <ele>248.399993896484375</ele>
        <time>2026-08-05T07:58:46.000Z</time>
        <extensions>
          <ns3:TrackPointExtension>
            <ns3:hr>81</ns3:hr>
            <ns3:cad>50</ns3:cad>
          </ns3:TrackPointExtension>
        </extensions>
      </trkpt>
      <trkpt lat="43.46950781531631946563720703125" lon="1.46796167828142642974853515625">
        <ele>248.399993896484375</ele>
        <time>2026-08-05T07:58:47.000Z</time>
        <extensions>
          <ns3:TrackPointExtension>
            <ns3:hr>80</ns3:hr>
            <ns3:cad>50</ns3:cad>
          </ns3:TrackPointExtension>
        </extensions>
      </trkpt>
      <trkpt lat="43.46951418556272983551025390625" lon="1.46795530803501605987548828125">
        <ele>248.1999969482421875</ele>
        <time>2026-08-05T07:58:48.000Z</time>
        <extensions>
          <ns3:TrackPointExtension>
            <ns3:hr>79</ns3:hr>
            <ns3:cad>49</ns3:cad>
          </ns3:TrackPointExtension>
        </extensions>
      </trkpt>
      <trkpt lat="43.469519130885601043701171875" lon="1.46795086562633514404296875">
        <ele>248.1999969482421875</ele>
        <time>2026-08-05T07:58:49.000Z</time>
        <extensions>
          <ns3:TrackPointExtension>
            <ns3:hr>79</ns3:hr>
            <ns3:cad>46</ns3:cad>
          </ns3:TrackPointExtension>
        </extensions>
      </trkpt>
      <trkpt lat="43.4695270098745822906494140625" lon="1.4679429866373538970947265625">
        <ele>248</ele>
        <time>2026-08-05T07:58:50.000Z</time>
        <extensions>
          <ns3:TrackPointExtension>
            <ns3:hr>78</ns3:hr>
            <ns3:cad>46</ns3:cad>
          </ns3:TrackPointExtension>
        </extensions>
      </trkpt>
      <trkpt lat="43.469534218311309814453125" lon="1.4679359458386898040771484375">
        <ele>248</ele>
        <time>2026-08-05T07:58:51.000Z</time>
        <extensions>
          <ns3:TrackPointExtension>
            <ns3:hr>78</ns3:hr>
            <ns3:cad>46</ns3:cad>
          </ns3:TrackPointExtension>
        </extensions>
      </trkpt>
      <trkpt lat="43.46954151056706905364990234375" lon="1.46793100051581859588623046875">
        <ele>247.8000030517578125</ele>
        <time>2026-08-05T07:58:52.000Z</time>
        <extensions>
          <ns3:TrackPointExtension>
            <ns3:hr>77</ns3:hr>
            <ns3:cad>46</ns3:cad>
          </ns3:TrackPointExtension>
        </extensions>
      </trkpt>
      <trkpt lat="43.4695489704608917236328125" lon="1.4679265581071376800537109375">
        <ele>247.8000030517578125</ele>
        <time>2026-08-05T07:58:53.000Z</time>
        <extensions>
          <ns3:TrackPointExtension>
            <ns3:hr>76</ns3:hr>
            <ns3:cad>46</ns3:cad>
          </ns3:TrackPointExtension>
        </extensions>
      </trkpt>
      <trkpt lat="43.46955676563084125518798828125" lon="1.467916332185268402099609375">
        <ele>247.600006103515625</ele>
        <time>2026-08-05T07:58:54.000Z</time>
        <extensions>
          <ns3:TrackPointExtension>
            <ns3:hr>76</ns3:hr>
            <ns3:cad>46</ns3:cad>
          </ns3:TrackPointExtension>
        </extensions>
      </trkpt>
      <trkpt lat="43.46956573426723480224609375" lon="1.46790669299662113189697265625">
        <ele>247.600006103515625</ele>
        <time>2026-08-05T07:58:55.000Z</time>
        <extensions>
          <ns3:TrackPointExtension>
            <ns3:hr>75</ns3:hr>
            <ns3:cad>46</ns3:cad>
          </ns3:TrackPointExtension>
        </extensions>
      </trkpt>
      <trkpt lat="43.46957520581781864166259765625" lon="1.467897556722164154052734375">
        <ele>247.600006103515625</ele>
        <time>2026-08-05T07:58:56.000Z</time>
        <extensions>
          <ns3:TrackPointExtension>
            <ns3:hr>75</ns3:hr>
            <ns3:cad>47</ns3:cad>
          </ns3:TrackPointExtension>
        </extensions>
      </trkpt>
      <trkpt lat="43.46958459354937076568603515625" lon="1.46789093501865863800048828125">
        <ele>247.600006103515625</ele>
        <time>2026-08-05T07:58:57.000Z</time>
        <extensions>
          <ns3:TrackPointExtension>
            <ns3:hr>74</ns3:hr>
            <ns3:cad>47</ns3:cad>
          </ns3:TrackPointExtension>
        </extensions>
      </trkpt>
      <trkpt lat="43.469593226909637451171875" lon="1.46788355894386768341064453125">
        <ele>247.600006103515625</ele>
        <time>2026-08-05T07:58:58.000Z</time>
        <extensions>
          <ns3:TrackPointExtension>
            <ns3:hr>74</ns3:hr>
            <ns3:cad>47</ns3:cad>
          </ns3:TrackPointExtension>
        </extensions>
      </trkpt>
      <trkpt lat="43.4696021117269992828369140625" lon="1.46787584759294986724853515625">
        <ele>247.399993896484375</ele>
        <time>2026-08-05T07:58:59.000Z</time>
        <extensions>
          <ns3:TrackPointExtension>
            <ns3:hr>74</ns3:hr>
            <ns3:cad>47</ns3:cad>
          </ns3:TrackPointExtension>
        </extensions>
      </trkpt>
      <trkpt lat="43.46960990689694881439208984375" lon="1.46786830388009548187255859375">
        <ele>247.399993896484375</ele>
        <time>2026-08-05T07:59:00.000Z</time>
        <extensions>
          <ns3:TrackPointExtension>
            <ns3:hr>74</ns3:hr>
            <ns3:cad>48</ns3:cad>
          </ns3:TrackPointExtension>
        </extensions>
      </trkpt>
      <trkpt lat="43.46961979754269123077392578125" lon="1.4678536355495452880859375">
        <ele>247.1999969482421875</ele>
        <time>2026-08-05T07:59:01.000Z</time>
        <extensions>
          <ns3:TrackPointExtension>
            <ns3:hr>74</ns3:hr>
            <ns3:cad>48</ns3:cad>
          </ns3:TrackPointExtension>
        </extensions>
      </trkpt>
      <trkpt lat="43.46962432377040386199951171875" lon="1.46785120479762554168701171875">
        <ele>247.1999969482421875</ele>
        <time>2026-08-05T07:59:02.000Z</time>
        <extensions>
          <ns3:TrackPointExtension>
            <ns3:hr>74</ns3:hr>
            <ns3:cad>48</ns3:cad>
          </ns3:TrackPointExtension>
        </extensions>
      </trkpt>
      <trkpt lat="43.469633124768733978271484375" lon="1.467840559780597686767578125">
        <ele>247</ele>
        <time>2026-08-05T07:59:03.000Z</time>
        <extensions>
          <ns3:TrackPointExtension>
            <ns3:hr>74</ns3:hr>
            <ns3:cad>48</ns3:cad>
          </ns3:TrackPointExtension>
        </extensions>
      </trkpt>
      <trkpt lat="43.46964159049093723297119140625" lon="1.4678286574780941009521484375">
        <ele>247</ele>
        <time>2026-08-05T07:59:04.000Z</time>
        <extensions>
          <ns3:TrackPointExtension>
            <ns3:hr>75</ns3:hr>
            <ns3:cad>48</ns3:cad>
          </ns3:TrackPointExtension>
        </extensions>
      </trkpt>
      <trkpt lat="43.4696493856608867645263671875" lon="1.46781918592751026153564453125">
        <ele>247</ele>
        <time>2026-08-05T07:59:05.000Z</time>
        <extensions>
          <ns3:TrackPointExtension>
            <ns3:hr>75</ns3:hr>
            <ns3:cad>48</ns3:cad>
          </ns3:TrackPointExtension>
        </extensions>
      </trkpt>
      <trkpt lat="43.46965701319277286529541015625" lon="1.4678134024143218994140625">
        <ele>246.8000030517578125</ele>
        <time>2026-08-05T07:59:06.000Z</time>
        <extensions>
          <ns3:TrackPointExtension>
            <ns3:hr>76</ns3:hr>
            <ns3:cad>48</ns3:cad>
          </ns3:TrackPointExtension>
        </extensions>
      </trkpt>
      <trkpt lat="43.46966472454369068145751953125" lon="1.4678085409104824066162109375">
        <ele>246.8000030517578125</ele>
        <time>2026-08-05T07:59:07.000Z</time>
        <extensions>
          <ns3:TrackPointExtension>
            <ns3:hr>77</ns3:hr>
            <ns3:cad>48</ns3:cad>
          </ns3:TrackPointExtension>
        </extensions>
      </trkpt>
      <trkpt lat="43.4696701727807521820068359375" lon="1.46779890172183513641357421875">
        <ele>246.8000030517578125</ele>
        <time>2026-08-05T07:59:08.000Z</time>
        <extensions>
          <ns3:TrackPointExtension>
            <ns3:hr>78</ns3:hr>
            <ns3:cad>48</ns3:cad>
          </ns3:TrackPointExtension>
        </extensions>
      </trkpt>
      <trkpt lat="43.4696777164936065673828125" lon="1.46778917871415615081787109375">
        <ele>246.600006103515625</ele>
        <time>2026-08-05T07:59:09.000Z</time>
        <extensions>
          <ns3:TrackPointExtension>
            <ns3:hr>78</ns3:hr>
            <ns3:cad>48</ns3:cad>
          </ns3:TrackPointExtension>
        </extensions>
      </trkpt>
      <trkpt lat="43.469684422016143798828125" lon="1.4677807129919528961181640625">
        <ele>246.600006103515625</ele>
        <time>2026-08-05T07:59:10.000Z</time>
        <extensions>
          <ns3:TrackPointExtension>
            <ns3:hr>79</ns3:hr>
            <ns3:cad>47</ns3:cad>
          </ns3:TrackPointExtension>
        </extensions>
      </trkpt>
      <trkpt lat="43.46969121135771274566650390625" lon="1.46777660585939884185791015625">
        <ele>246.399993896484375</ele>
        <time>2026-08-05T07:59:11.000Z</time>
        <extensions>
          <ns3:TrackPointExtension>
            <ns3:hr>79</ns3:hr>
            <ns3:cad>46</ns3:cad>
          </ns3:TrackPointExtension>
        </extensions>
      </trkpt>
      <trkpt lat="43.469695486128330230712890625" lon="1.4677746780216693878173828125">
        <ele>246.399993896484375</ele>
        <time>2026-08-05T07:59:12.000Z</time>
        <extensions>
          <ns3:TrackPointExtension>
            <ns3:hr>80</ns3:hr>
            <ns3:cad>46</ns3:cad>
          </ns3:TrackPointExtension>
        </extensions>
      </trkpt>
      <trkpt lat="43.469703197479248046875" lon="1.46776713430881500244140625">
        <ele>246.1999969482421875</ele>
        <time>2026-08-05T07:59:13.000Z</time>
        <extensions>
          <ns3:TrackPointExtension>
            <ns3:hr>78</ns3:hr>
            <ns3:cad>46</ns3:cad>
          </ns3:TrackPointExtension>
        </extensions>
      </trkpt>
      <trkpt lat="43.4697097353637218475341796875" lon="1.46775967441499233245849609375">
        <ele>246.1999969482421875</ele>
        <time>2026-08-05T07:59:14.000Z</time>
        <extensions>
          <ns3:TrackPointExtension>
            <ns3:hr>77</ns3:hr>
            <ns3:cad>0</ns3:cad>
          </ns3:TrackPointExtension>
        </extensions>
      </trkpt>
      <trkpt lat="43.46971753053367137908935546875" lon="1.46775238215923309326171875">
        <ele>246</ele>
        <time>2026-08-05T07:59:15.000Z</time>
        <extensions>
          <ns3:TrackPointExtension>
            <ns3:hr>77</ns3:hr>
            <ns3:cad>0</ns3:cad>
          </ns3:TrackPointExtension>
        </extensions>
      </trkpt>
      <trkpt lat="43.46971987746655941009521484375" lon="1.4677428267896175384521484375">
        <ele>246</ele>
        <time>2026-08-05T07:59:16.000Z</time>
        <extensions>
          <ns3:TrackPointExtension>
            <ns3:hr>77</ns3:hr>
            <ns3:cad>48</ns3:cad>
          </ns3:TrackPointExtension>
        </extensions>
      </trkpt>
      <trkpt lat="43.46972423605620861053466796875" lon="1.467733941972255706787109375">
        <ele>246</ele>
        <time>2026-08-05T07:59:17.000Z</time>
        <extensions>
          <ns3:TrackPointExtension>
            <ns3:hr>78</ns3:hr>
            <ns3:cad>48</ns3:cad>
          </ns3:TrackPointExtension>
        </extensions>
      </trkpt>
      <trkpt lat="43.469734378159046173095703125" lon="1.46772212348878383636474609375">
        <ele>245.8000030517578125</ele>
        <time>2026-08-05T07:59:18.000Z</time>
        <extensions>
          <ns3:TrackPointExtension>
            <ns3:hr>78</ns3:hr>
            <ns3:cad>0</ns3:cad>
          </ns3:TrackPointExtension>
        </extensions>
      </trkpt>
      <trkpt lat="43.46974384970963001251220703125" lon="1.467708460986614227294921875">
        <ele>245.8000030517578125</ele>
        <time>2026-08-05T07:59:19.000Z</time>
        <extensions>
          <ns3:TrackPointExtension>
            <ns3:hr>77</ns3:hr>
            <ns3:cad>0</ns3:cad>
          </ns3:TrackPointExtension>
        </extensions>
      </trkpt>
      <trkpt lat="43.46975206397473812103271484375" lon="1.46769613958895206451416015625">
        <ele>245.8000030517578125</ele>
        <time>2026-08-05T07:59:20.000Z</time>
        <extensions>
          <ns3:TrackPointExtension>
            <ns3:hr>77</ns3:hr>
            <ns3:cad>0</ns3:cad>
          </ns3:TrackPointExtension>
        </extensions>
      </trkpt>
      <trkpt lat="43.46975726075470447540283203125" lon="1.46768826059997081756591796875">
        <ele>245.8000030517578125</ele>
        <time>2026-08-05T07:59:21.000Z</time>
        <extensions>
          <ns3:TrackPointExtension>
            <ns3:hr>76</ns3:hr>
            <ns3:cad>0</ns3:cad>
          </ns3:TrackPointExtension>
        </extensions>
      </trkpt>
      <trkpt lat="43.469762541353702545166015625" lon="1.467681638896465301513671875">
        <ele>245.600006103515625</ele>
        <time>2026-08-05T07:59:22.000Z</time>
        <extensions>
          <ns3:TrackPointExtension>
            <ns3:hr>76</ns3:hr>
            <ns3:cad>0</ns3:cad>
          </ns3:TrackPointExtension>
        </extensions>
      </trkpt>
      <trkpt lat="43.46976824104785919189453125" lon="1.467672921717166900634765625">
        <ele>245.399993896484375</ele>
        <time>2026-08-05T07:59:23.000Z</time>
        <extensions>
          <ns3:TrackPointExtension>
            <ns3:hr>76</ns3:hr>
            <ns3:cad>0</ns3:cad>
          </ns3:TrackPointExtension>
        </extensions>
      </trkpt>
      <trkpt lat="43.4697747789323329925537109375" lon="1.46766185760498046875">
        <ele>245.399993896484375</ele>
        <time>2026-08-05T07:59:24.000Z</time>
        <extensions>
          <ns3:TrackPointExtension>
            <ns3:hr>75</ns3:hr>
            <ns3:cad>50</ns3:cad>
          </ns3:TrackPointExtension>
        </extensions>
      </trkpt>
      <trkpt lat="43.46978140063583850860595703125" lon="1.46765221841633319854736328125">
        <ele>245.1999969482421875</ele>
        <time>2026-08-05T07:59:25.000Z</time>
        <extensions>
          <ns3:TrackPointExtension>
            <ns3:hr>75</ns3:hr>
            <ns3:cad>50</ns3:cad>
          </ns3:TrackPointExtension>
        </extensions>
      </trkpt>
      <trkpt lat="43.46978760324418544769287109375" lon="1.46764316596090793609619140625">
        <ele>245.1999969482421875</ele>
        <time>2026-08-05T07:59:26.000Z</time>
        <extensions>
          <ns3:TrackPointExtension>
            <ns3:hr>74</ns3:hr>
            <ns3:cad>50</ns3:cad>
          </ns3:TrackPointExtension>
        </extensions>
      </trkpt>
      <trkpt lat="43.4697922132909297943115234375" lon="1.46763578988611698150634765625">
        <ele>245</ele>
        <time>2026-08-05T07:59:27.000Z</time>
        <extensions>
          <ns3:TrackPointExtension>
            <ns3:hr>73</ns3:hr>
            <ns3:cad>50</ns3:cad>
          </ns3:TrackPointExtension>
        </extensions>
      </trkpt>
      <trkpt lat="43.4697982482612133026123046875" lon="1.46762824617326259613037109375">
        <ele>245</ele>
        <time>2026-08-05T07:59:28.000Z</time>
        <extensions>
          <ns3:TrackPointExtension>
            <ns3:hr>73</ns3:hr>
            <ns3:cad>49</ns3:cad>
          </ns3:TrackPointExtension>
        </extensions>
      </trkpt>
      <trkpt lat="43.46980436705052852630615234375" lon="1.4676204510033130645751953125">
        <ele>245</ele>
        <time>2026-08-05T07:59:29.000Z</time>
        <extensions>
          <ns3:TrackPointExtension>
            <ns3:hr>72</ns3:hr>
            <ns3:cad>49</ns3:cad>
          </ns3:TrackPointExtension>
        </extensions>
      </trkpt>
      <trkpt lat="43.46981006674468517303466796875" lon="1.46761030890047550201416015625">
        <ele>244.8000030517578125</ele>
        <time>2026-08-05T07:59:30.000Z</time>
        <extensions>
          <ns3:TrackPointExtension>
            <ns3:hr>72</ns3:hr>
            <ns3:cad>48</ns3:cad>
          </ns3:TrackPointExtension>
        </extensions>
      </trkpt>
      <trkpt lat="43.46981928683817386627197265625" lon="1.4675963111221790313720703125">
        <ele>244.8000030517578125</ele>
        <time>2026-08-05T07:59:31.000Z</time>
        <extensions>
          <ns3:TrackPointExtension>
            <ns3:hr>72</ns3:hr>
            <ns3:cad>48</ns3:cad>
          </ns3:TrackPointExtension>
        </extensions>
      </trkpt>
      <trkpt lat="43.469830267131328582763671875" lon="1.46758315153419971466064453125">
        <ele>244.600006103515625</ele>
        <time>2026-08-05T07:59:32.000Z</time>
        <extensions>
          <ns3:TrackPointExtension>
            <ns3:hr>72</ns3:hr>
            <ns3:cad>48</ns3:cad>
          </ns3:TrackPointExtension>
        </extensions>
      </trkpt>
      <trkpt lat="43.46983487717807292938232421875" lon="1.46757292561233043670654296875">
        <ele>244.600006103515625</ele>
        <time>2026-08-05T07:59:33.000Z</time>
        <extensions>
          <ns3:TrackPointExtension>
            <ns3:hr>72</ns3:hr>
            <ns3:cad>48</ns3:cad>
          </ns3:TrackPointExtension>
        </extensions>
      </trkpt>
      <trkpt lat="43.46984795294702053070068359375" lon="1.46758918650448322296142578125">
        <ele>244.399993896484375</ele>
        <time>2026-08-05T07:59:34.000Z</time>
        <extensions>
          <ns3:TrackPointExtension>
            <ns3:hr>72</ns3:hr>
            <ns3:cad>48</ns3:cad>
          </ns3:TrackPointExtension>
        </extensions>
      </trkpt>
      <trkpt lat="43.46984845586121082305908203125" lon="1.467595808207988739013671875">
        <ele>244.399993896484375</ele>
        <time>2026-08-05T07:59:35.000Z</time>
        <extensions>
          <ns3:TrackPointExtension>
            <ns3:hr>73</ns3:hr>
            <ns3:cad>49</ns3:cad>
          </ns3:TrackPointExtension>
        </extensions>
      </trkpt>
      <trkpt lat="43.46985231153666973114013671875" lon="1.467596478760242462158203125">
        <ele>244.399993896484375</ele>
        <time>2026-08-05T07:59:36.000Z</time>
        <extensions>
          <ns3:TrackPointExtension>
            <ns3:hr>73</ns3:hr>
            <ns3:cad>49</ns3:cad>
          </ns3:TrackPointExtension>
        </extensions>
      </trkpt>
      <trkpt lat="43.469855748116970062255859375" lon="1.46759153343737125396728515625">
        <ele>244.1999969482421875</ele>
        <time>2026-08-05T07:59:37.000Z</time>
        <extensions>
          <ns3:TrackPointExtension>
            <ns3:hr>73</ns3:hr>
            <ns3:cad>0</ns3:cad>
          </ns3:TrackPointExtension>
        </extensions>
      </trkpt>
      <trkpt lat="43.46986203454434871673583984375" lon="1.46758147515356540679931640625">
        <ele>244.1999969482421875</ele>
        <time>2026-08-05T07:59:38.000Z</time>
        <extensions>
          <ns3:TrackPointExtension>
            <ns3:hr>73</ns3:hr>
            <ns3:cad>0</ns3:cad>
          </ns3:TrackPointExtension>
        </extensions>
      </trkpt>
      <trkpt lat="43.4698627889156341552734375" lon="1.46757611073553562164306640625">
        <ele>244.1999969482421875</ele>
        <time>2026-08-05T07:59:39.000Z</time>
        <extensions>
          <ns3:TrackPointExtension>
            <ns3:hr>73</ns3:hr>
            <ns3:cad>0</ns3:cad>
          </ns3:TrackPointExtension>
        </extensions>
      </trkpt>
      <trkpt lat="43.469865135848522186279296875" lon="1.46757141686975955963134765625">
        <ele>244.1999969482421875</ele>
        <time>2026-08-05T07:59:40.000Z</time>
        <extensions>
          <ns3:TrackPointExtension>
            <ns3:hr>73</ns3:hr>
            <ns3:cad>0</ns3:cad>
          </ns3:TrackPointExtension>
        </extensions>
      </trkpt>
      <trkpt lat="43.4698730148375034332275390625" lon="1.46755984984338283538818359375">
        <ele>244.1999969482421875</ele>
        <time>2026-08-05T07:59:41.000Z</time>
        <extensions>
          <ns3:TrackPointExtension>
            <ns3:hr>73</ns3:hr>
            <ns3:cad>0</ns3:cad>
          </ns3:TrackPointExtension>
        </extensions>
      </trkpt>
      <trkpt lat="43.46988315694034099578857421875" lon="1.46754610352218151092529296875">
        <ele>244</ele>
        <time>2026-08-05T07:59:42.000Z</time>
        <extensions>
          <ns3:TrackPointExtension>
            <ns3:hr>73</ns3:hr>
            <ns3:cad>0</ns3:cad>
          </ns3:TrackPointExtension>
        </extensions>
      </trkpt>
      <trkpt lat="43.46989053301513195037841796875" lon="1.46753453649580478668212890625">
        <ele>244</ele>
        <time>2026-08-05T07:59:43.000Z</time>
        <extensions>
          <ns3:TrackPointExtension>
            <ns3:hr>73</ns3:hr>
            <ns3:cad>0</ns3:cad>
          </ns3:TrackPointExtension>
        </extensions>
      </trkpt>
      <trkpt lat="43.469897322356700897216796875" lon="1.4675248973071575164794921875">
        <ele>243.8000030517578125</ele>
        <time>2026-08-05T07:59:44.000Z</time>
        <extensions>
          <ns3:TrackPointExtension>
            <ns3:hr>73</ns3:hr>
            <ns3:cad>45</ns3:cad>
          </ns3:TrackPointExtension>
        </extensions>
      </trkpt>
      <trkpt lat="43.46990310586988925933837890625" lon="1.46751768887042999267578125">
        <ele>243.600006103515625</ele>
        <time>2026-08-05T07:59:45.000Z</time>
        <extensions>
          <ns3:TrackPointExtension>
            <ns3:hr>73</ns3:hr>
            <ns3:cad>45</ns3:cad>
          </ns3:TrackPointExtension>
        </extensions>
      </trkpt>
      <trkpt lat="43.46990830264985561370849609375" lon="1.467508971691131591796875">
        <ele>243.600006103515625</ele>
        <time>2026-08-05T07:59:46.000Z</time>
        <extensions>
          <ns3:TrackPointExtension>
            <ns3:hr>73</ns3:hr>
            <ns3:cad>45</ns3:cad>
          </ns3:TrackPointExtension>
        </extensions>
      </trkpt>
      <trkpt lat="43.46991534344851970672607421875" lon="1.467499919235706329345703125">
        <ele>243.399993896484375</ele>
        <time>2026-08-05T07:59:47.000Z</time>
        <extensions>
          <ns3:TrackPointExtension>
            <ns3:hr>73</ns3:hr>
            <ns3:cad>45</ns3:cad>
          </ns3:TrackPointExtension>
        </extensions>
      </trkpt>
      <trkpt lat="43.46992439590394496917724609375" lon="1.4674876816570758819580078125">
        <ele>243.399993896484375</ele>
        <time>2026-08-05T07:59:48.000Z</time>
        <extensions>
          <ns3:TrackPointExtension>
            <ns3:hr>74</ns3:hr>
            <ns3:cad>46</ns3:cad>
          </ns3:TrackPointExtension>
        </extensions>
      </trkpt>
      <trkpt lat="43.46993160434067249298095703125" lon="1.4674789644777774810791015625">
        <ele>243.399993896484375</ele>
        <time>2026-08-05T07:59:49.000Z</time>
        <extensions>
          <ns3:TrackPointExtension>
            <ns3:hr>74</ns3:hr>
            <ns3:cad>48</ns3:cad>
          </ns3:TrackPointExtension>
        </extensions>
      </trkpt>
      <trkpt lat="43.469939567148685455322265625" lon="1.46747485734522342681884765625">
        <ele>243.1999969482421875</ele>
        <time>2026-08-05T07:59:50.000Z</time>
        <extensions>
          <ns3:TrackPointExtension>
            <ns3:hr>75</ns3:hr>
            <ns3:cad>48</ns3:cad>
          </ns3:TrackPointExtension>
        </extensions>
      </trkpt>
      <trkpt lat="43.46994233317673206329345703125" lon="1.467465050518512725830078125">
        <ele>243.1999969482421875</ele>
        <time>2026-08-05T07:59:51.000Z</time>
        <extensions>
          <ns3:TrackPointExtension>
            <ns3:hr>74</ns3:hr>
            <ns3:cad>48</ns3:cad>
          </ns3:TrackPointExtension>
        </extensions>
      </trkpt>
      <trkpt lat="43.46994920633733272552490234375" lon="1.467452310025691986083984375">
        <ele>243.1999969482421875</ele>
        <time>2026-08-05T07:59:52.000Z</time>
        <extensions>
          <ns3:TrackPointExtension>
            <ns3:hr>74</ns3:hr>
            <ns3:cad>48</ns3:cad>
          </ns3:TrackPointExtension>
        </extensions>
      </trkpt>
      <trkpt lat="43.469956330955028533935546875" lon="1.46743680350482463836669921875">
        <ele>243</ele>
        <time>2026-08-05T07:59:53.000Z</time>
        <extensions>
          <ns3:TrackPointExtension>
            <ns3:hr>73</ns3:hr>
            <ns3:cad>48</ns3:cad>
          </ns3:TrackPointExtension>
        </extensions>
      </trkpt>
      <trkpt lat="43.46996077336370944976806640625" lon="1.46742557175457477569580078125">
        <ele>243</ele>
        <time>2026-08-05T07:59:54.000Z</time>
        <extensions>
          <ns3:TrackPointExtension>
            <ns3:hr>72</ns3:hr>
            <ns3:cad>48</ns3:cad>
          </ns3:TrackPointExtension>
        </extensions>
      </trkpt>
      <trkpt lat="43.46995842643082141876220703125" lon="1.46742356009781360626220703125">
        <ele>242.8000030517578125</ele>
        <time>2026-08-05T07:59:55.000Z</time>
        <extensions>
          <ns3:TrackPointExtension>
            <ns3:hr>72</ns3:hr>
            <ns3:cad>49</ns3:cad>
          </ns3:TrackPointExtension>
        </extensions>
      </trkpt>
      <trkpt lat="43.4699655510485172271728515625" lon="1.467414088547229766845703125">
        <ele>242.8000030517578125</ele>
        <time>2026-08-05T07:59:56.000Z</time>
        <extensions>
          <ns3:TrackPointExtension>
            <ns3:hr>71</ns3:hr>
            <ns3:cad>49</ns3:cad>
          </ns3:TrackPointExtension>
        </extensions>
      </trkpt>
      <trkpt lat="43.4699705801904201507568359375" lon="1.4674057066440582275390625">
        <ele>242.600006103515625</ele>
        <time>2026-08-05T07:59:57.000Z</time>
        <extensions>
          <ns3:TrackPointExtension>
            <ns3:hr>71</ns3:hr>
            <ns3:cad>50</ns3:cad>
          </ns3:TrackPointExtension>
        </extensions>
      </trkpt>
      <trkpt lat="43.4699782915413379669189453125" lon="1.46739967167377471923828125">
        <ele>242.600006103515625</ele>
        <time>2026-08-05T07:59:58.000Z</time>
        <extensions>
          <ns3:TrackPointExtension>
            <ns3:hr>71</ns3:hr>
            <ns3:cad>50</ns3:cad>
          </ns3:TrackPointExtension>
        </extensions>
      </trkpt>
      <trkpt lat="43.46998357214033603668212890625" lon="1.4673971571028232574462890625">
        <ele>242.600006103515625</ele>
        <time>2026-08-05T07:59:59.000Z</time>
        <extensions>
          <ns3:TrackPointExtension>
            <ns3:hr>71</ns3:hr>
            <ns3:cad>50</ns3:cad>
          </ns3:TrackPointExtension>
        </extensions>
      </trkpt>
      <trkpt lat="43.46998793072998523712158203125" lon="1.46739690564572811126708984375">
        <ele>242.399993896484375</ele>
        <time>2026-08-05T08:00:00.000Z</time>
        <extensions>
          <ns3:TrackPointExtension>
            <ns3:hr>71</ns3:hr>
            <ns3:cad>50</ns3:cad>
          </ns3:TrackPointExtension>
        </extensions>
      </trkpt>
      <trkpt lat="43.4699846617877483367919921875" lon="1.4673981629312038421630859375">
        <ele>242.399993896484375</ele>
        <time>2026-08-05T08:00:01.000Z</time>
        <extensions>
          <ns3:TrackPointExtension>
            <ns3:hr>71</ns3:hr>
            <ns3:cad>45</ns3:cad>
          </ns3:TrackPointExtension>
        </extensions>
      </trkpt>
      <trkpt lat="43.46998206339776515960693359375" lon="1.4673884399235248565673828125">
        <ele>242.399993896484375</ele>
        <time>2026-08-05T08:00:02.000Z</time>
        <extensions>
          <ns3:TrackPointExtension>
            <ns3:hr>71</ns3:hr>
            <ns3:cad>45</ns3:cad>
          </ns3:TrackPointExtension>
        </extensions>
      </trkpt>
      <trkpt lat="43.46998524852097034454345703125" lon="1.46737821400165557861328125">
        <ele>242.399993896484375</ele>
        <time>2026-08-05T08:00:03.000Z</time>
        <extensions>
          <ns3:TrackPointExtension>
            <ns3:hr>71</ns3:hr>
            <ns3:cad>45</ns3:cad>
          </ns3:TrackPointExtension>
        </extensions>
      </trkpt>
      <trkpt lat="43.46999220550060272216796875" lon="1.46736673079431056976318359375">
        <ele>242.1999969482421875</ele>
        <time>2026-08-05T08:00:04.000Z</time>
        <extensions>
          <ns3:TrackPointExtension>
            <ns3:hr>71</ns3:hr>
            <ns3:cad>45</ns3:cad>
          </ns3:TrackPointExtension>
        </extensions>
      </trkpt>
      <trkpt lat="43.4699963964521884918212890625" lon="1.46735399030148983001708984375">
        <ele>242.1999969482421875</ele>
        <time>2026-08-05T08:00:05.000Z</time>
        <extensions>
          <ns3:TrackPointExtension>
            <ns3:hr>70</ns3:hr>
            <ns3:cad>45</ns3:cad>
          </ns3:TrackPointExtension>
        </extensions>
      </trkpt>
      <trkpt lat="43.46999731846153736114501953125" lon="1.46734535694122314453125">
        <ele>242.1999969482421875</ele>
        <time>2026-08-05T08:00:06.000Z</time>
        <extensions>
          <ns3:TrackPointExtension>
            <ns3:hr>71</ns3:hr>
            <ns3:cad>45</ns3:cad>
          </ns3:TrackPointExtension>
        </extensions>
      </trkpt>
      <trkpt lat="43.46999949775636196136474609375" lon="1.467338986694812774658203125">
        <ele>242.1999969482421875</ele>
        <time>2026-08-05T08:00:07.000Z</time>
        <extensions>
          <ns3:TrackPointExtension>
            <ns3:hr>71</ns3:hr>
            <ns3:cad>45</ns3:cad>
          </ns3:TrackPointExtension>
        </extensions>
      </trkpt>
      <trkpt lat="43.47000301815569400787353515625" lon="1.46733571775257587432861328125">
        <ele>242.1999969482421875</ele>
        <time>2026-08-05T08:00:08.000Z</time>
        <extensions>
          <ns3:TrackPointExtension>
            <ns3:hr>70</ns3:hr>
            <ns3:cad>45</ns3:cad>
          </ns3:TrackPointExtension>
        </extensions>
      </trkpt>
      <trkpt lat="43.4700064547359943389892578125" lon="1.46733068861067295074462890625">
        <ele>242.1999969482421875</ele>
        <time>2026-08-05T08:00:09.000Z</time>
        <extensions>
          <ns3:TrackPointExtension>
            <ns3:hr>70</ns3:hr>
            <ns3:cad>45</ns3:cad>
          </ns3:TrackPointExtension>
        </extensions>
      </trkpt>
      <trkpt lat="43.47001441754400730133056640625" lon="1.46732331253588199615478515625">
        <ele>242</ele>
        <time>2026-08-05T08:00:10.000Z</time>
        <extensions>
          <ns3:TrackPointExtension>
            <ns3:hr>70</ns3:hr>
            <ns3:cad>48</ns3:cad>
          </ns3:TrackPointExtension>
        </extensions>
      </trkpt>
      <trkpt lat="43.47002062015235424041748046875" lon="1.4673163555562496185302734375">
        <ele>241.8000030517578125</ele>
        <time>2026-08-05T08:00:11.000Z</time>
        <extensions>
          <ns3:TrackPointExtension>
            <ns3:hr>70</ns3:hr>
            <ns3:cad>48</ns3:cad>
          </ns3:TrackPointExtension>
        </extensions>
      </trkpt>
      <trkpt lat="43.47002548165619373321533203125" lon="1.4673064649105072021484375">
        <ele>241.8000030517578125</ele>
        <time>2026-08-05T08:00:12.000Z</time>
        <extensions>
          <ns3:TrackPointExtension>
            <ns3:hr>70</ns3:hr>
            <ns3:cad>47</ns3:cad>
          </ns3:TrackPointExtension>
        </extensions>
      </trkpt>
      <trkpt lat="43.470034115016460418701171875" lon="1.4672982506453990936279296875">
        <ele>241.600006103515625</ele>
        <time>2026-08-05T08:00:13.000Z</time>
        <extensions>
          <ns3:TrackPointExtension>
            <ns3:hr>70</ns3:hr>
            <ns3:cad>47</ns3:cad>
          </ns3:TrackPointExtension>
        </extensions>
      </trkpt>
      <trkpt lat="43.47004040144383907318115234375" lon="1.46729213185608386993408203125">
        <ele>241.399993896484375</ele>
        <time>2026-08-05T08:00:14.000Z</time>
        <extensions>
          <ns3:TrackPointExtension>
            <ns3:hr>70</ns3:hr>
            <ns3:cad>47</ns3:cad>
          </ns3:TrackPointExtension>
        </extensions>
      </trkpt>
      <trkpt lat="43.4700470231473445892333984375" lon="1.46728157065808773040771484375">
        <ele>241.399993896484375</ele>
        <time>2026-08-05T08:00:15.000Z</time>
        <extensions>
          <ns3:TrackPointExtension>
            <ns3:hr>70</ns3:hr>
            <ns3:cad>47</ns3:cad>
          </ns3:TrackPointExtension>
        </extensions>
      </trkpt>
      <trkpt lat="43.47005523741245269775390625" lon="1.46727084182202816009521484375">
        <ele>241.1999969482421875</ele>
        <time>2026-08-05T08:00:16.000Z</time>
        <extensions>
          <ns3:TrackPointExtension>
            <ns3:hr>70</ns3:hr>
            <ns3:cad>48</ns3:cad>
          </ns3:TrackPointExtension>
        </extensions>
      </trkpt>
      <trkpt lat="43.47006219439208507537841796875" lon="1.4672637172043323516845703125">
        <ele>241.1999969482421875</ele>
        <time>2026-08-05T08:00:17.000Z</time>
        <extensions>
          <ns3:TrackPointExtension>
            <ns3:hr>70</ns3:hr>
            <ns3:cad>48</ns3:cad>
          </ns3:TrackPointExtension>
        </extensions>
      </trkpt>
      <trkpt lat="43.47007007338106632232666015625" lon="1.46725483238697052001953125">
        <ele>241</ele>
        <time>2026-08-05T08:00:18.000Z</time>
        <extensions>
          <ns3:TrackPointExtension>
            <ns3:hr>70</ns3:hr>
            <ns3:cad>48</ns3:cad>
          </ns3:TrackPointExtension>
        </extensions>
      </trkpt>
      <trkpt lat="43.47007677890360355377197265625" lon="1.46724536083638668060302734375">
        <ele>241</ele>
        <time>2026-08-05T08:00:19.000Z</time>
        <extensions>
          <ns3:TrackPointExtension>
            <ns3:hr>70</ns3:hr>
            <ns3:cad>47</ns3:cad>
          </ns3:TrackPointExtension>
        </extensions>
      </trkpt>
      <trkpt lat="43.47008381970226764678955078125" lon="1.46723563782870769500732421875">
        <ele>240.8000030517578125</ele>
        <time>2026-08-05T08:00:20.000Z</time>
        <extensions>
          <ns3:TrackPointExtension>
            <ns3:hr>70</ns3:hr>
            <ns3:cad>47</ns3:cad>
          </ns3:TrackPointExtension>
        </extensions>
      </trkpt>
      <trkpt lat="43.47008750773966312408447265625" lon="1.46723873913288116455078125">
        <ele>240.8000030517578125</ele>
        <time>2026-08-05T08:00:21.000Z</time>
        <extensions>
          <ns3:TrackPointExtension>
            <ns3:hr>69</ns3:hr>
            <ns3:cad>48</ns3:cad>
          </ns3:TrackPointExtension>
        </extensions>
      </trkpt>
      <trkpt lat="43.47009069286286830902099609375" lon="1.4672365598380565643310546875">
        <ele>240.600006103515625</ele>
        <time>2026-08-05T08:00:22.000Z</time>
        <extensions>
          <ns3:TrackPointExtension>
            <ns3:hr>69</ns3:hr>
            <ns3:cad>48</ns3:cad>
          </ns3:TrackPointExtension>
        </extensions>
      </trkpt>
      <trkpt lat="43.47009639255702495574951171875" lon="1.4672332070767879486083984375">
        <ele>240.600006103515625</ele>
        <time>2026-08-05T08:00:23.000Z</time>
        <extensions>
          <ns3:TrackPointExtension>
            <ns3:hr>69</ns3:hr>
            <ns3:cad>48</ns3:cad>
          </ns3:TrackPointExtension>
        </extensions>
      </trkpt>
      <trkpt lat="43.47009622491896152496337890625" lon="1.46722943522036075592041015625">
        <ele>240.399993896484375</ele>
        <time>2026-08-05T08:00:24.000Z</time>
        <extensions>
          <ns3:TrackPointExtension>
            <ns3:hr>69</ns3:hr>
            <ns3:cad>46</ns3:cad>
          </ns3:TrackPointExtension>
        </extensions>
      </trkpt>
      <trkpt lat="43.47010242752730846405029296875" lon="1.467220969498157501220703125">
        <ele>240.399993896484375</ele>
        <time>2026-08-05T08:00:25.000Z</time>
        <extensions>
          <ns3:TrackPointExtension>
            <ns3:hr>70</ns3:hr>
            <ns3:cad>46</ns3:cad>
          </ns3:TrackPointExtension>
        </extensions>
      </trkpt>
      <trkpt lat="43.47010745666921138763427734375" lon="1.4672120846807956695556640625">
        <ele>240.399993896484375</ele>
        <time>2026-08-05T08:00:26.000Z</time>
        <extensions>
          <ns3:TrackPointExtension>
            <ns3:hr>70</ns3:hr>
            <ns3:cad>46</ns3:cad>
          </ns3:TrackPointExtension>
        </extensions>
      </trkpt>
      <trkpt lat="43.470113575458526611328125" lon="1.467203199863433837890625">
        <ele>240.399993896484375</ele>
        <time>2026-08-05T08:00:27.000Z</time>
        <extensions>
          <ns3:TrackPointExtension>
            <ns3:hr>70</ns3:hr>
            <ns3:cad>46</ns3:cad>
          </ns3:TrackPointExtension>
        </extensions>
      </trkpt>
      <trkpt lat="43.47012086771428585052490234375" lon="1.4671923033893108367919921875">
        <ele>240.1999969482421875</ele>
        <time>2026-08-05T08:00:28.000Z</time>
        <extensions>
          <ns3:TrackPointExtension>
            <ns3:hr>70</ns3:hr>
            <ns3:cad>46</ns3:cad>
          </ns3:TrackPointExtension>
        </extensions>
      </trkpt>
      <trkpt lat="43.4701254777610301971435546875" lon="1.4671822451055049896240234375">
        <ele>240.1999969482421875</ele>
        <time>2026-08-05T08:00:29.000Z</time>
        <extensions>
          <ns3:TrackPointExtension>
            <ns3:hr>70</ns3:hr>
            <ns3:cad>49</ns3:cad>
          </ns3:TrackPointExtension>
        </extensions>
      </trkpt>
      <trkpt lat="43.4701338596642017364501953125" lon="1.467170007526874542236328125">
        <ele>240</ele>
        <time>2026-08-05T08:00:30.000Z</time>
        <extensions>
          <ns3:TrackPointExtension>
            <ns3:hr>70</ns3:hr>
            <ns3:cad>49</ns3:cad>
          </ns3:TrackPointExtension>
        </extensions>
      </trkpt>
      <trkpt lat="43.4701398946344852447509765625" lon="1.467159278690814971923828125">
        <ele>239.8000030517578125</ele>
        <time>2026-08-05T08:00:31.000Z</time>
        <extensions>
          <ns3:TrackPointExtension>
            <ns3:hr>70</ns3:hr>
            <ns3:cad>47</ns3:cad>
          </ns3:TrackPointExtension>
        </extensions>
      </trkpt>
      <trkpt lat="43.470148108899593353271484375" lon="1.46714159287512302398681640625">
        <ele>239.8000030517578125</ele>
        <time>2026-08-05T08:00:32.000Z</time>
        <extensions>
          <ns3:TrackPointExtension>
            <ns3:hr>70</ns3:hr>
            <ns3:cad>47</ns3:cad>
          </ns3:TrackPointExtension>
        </extensions>
      </trkpt>
      <trkpt lat="43.47015447914600372314453125" lon="1.4671346358954906463623046875">
        <ele>239.600006103515625</ele>
        <time>2026-08-05T08:00:33.000Z</time>
        <extensions>
          <ns3:TrackPointExtension>
            <ns3:hr>70</ns3:hr>
            <ns3:cad>48</ns3:cad>
          </ns3:TrackPointExtension>
        </extensions>
      </trkpt>
      <trkpt lat="43.470161519944667816162109375" lon="1.4671302773058414459228515625">
        <ele>239.399993896484375</ele>
        <time>2026-08-05T08:00:34.000Z</time>
        <extensions>
          <ns3:TrackPointExtension>
            <ns3:hr>70</ns3:hr>
            <ns3:cad>48</ns3:cad>
          </ns3:TrackPointExtension>
        </extensions>
      </trkpt>
      <trkpt lat="43.47016847692430019378662109375" lon="1.467122733592987060546875">
        <ele>239.399993896484375</ele>
        <time>2026-08-05T08:00:35.000Z</time>
        <extensions>
          <ns3:TrackPointExtension>
            <ns3:hr>69</ns3:hr>
            <ns3:cad>49</ns3:cad>
          </ns3:TrackPointExtension>
        </extensions>
      </trkpt>
      <trkpt lat="43.47017669118940830230712890625" lon="1.46711292676627635955810546875">
        <ele>239.1999969482421875</ele>
        <time>2026-08-05T08:00:36.000Z</time>
        <extensions>
          <ns3:TrackPointExtension>
            <ns3:hr>70</ns3:hr>
            <ns3:cad>49</ns3:cad>
          </ns3:TrackPointExtension>
        </extensions>
      </trkpt>
      <trkpt lat="43.4701818041503429412841796875" lon="1.46710722707211971282958984375">
        <ele>239.1999969482421875</ele>
        <time>2026-08-05T08:00:37.000Z</time>
        <extensions>
          <ns3:TrackPointExtension>
            <ns3:hr>70</ns3:hr>
            <ns3:cad>48</ns3:cad>
          </ns3:TrackPointExtension>
        </extensions>
      </trkpt>
      <trkpt lat="43.4701864980161190032958984375" lon="1.46710253320634365081787109375">
        <ele>239</ele>
        <time>2026-08-05T08:00:38.000Z</time>
        <extensions>
          <ns3:TrackPointExtension>
            <ns3:hr>70</ns3:hr>
            <ns3:cad>48</ns3:cad>
          </ns3:TrackPointExtension>
        </extensions>
      </trkpt>
      <trkpt lat="43.470192365348339080810546875" lon="1.4670937322080135345458984375">
        <ele>239</ele>
        <time>2026-08-05T08:00:39.000Z</time>
        <extensions>
          <ns3:TrackPointExtension>
            <ns3:hr>70</ns3:hr>
            <ns3:cad>46</ns3:cad>
          </ns3:TrackPointExtension>
        </extensions>
      </trkpt>
      <trkpt lat="43.47019563429057598114013671875" lon="1.46708560176193714141845703125">
        <ele>239</ele>
        <time>2026-08-05T08:00:40.000Z</time>
        <extensions>
          <ns3:TrackPointExtension>
            <ns3:hr>69</ns3:hr>
            <ns3:cad>46</ns3:cad>
          </ns3:TrackPointExtension>
        </extensions>
      </trkpt>
      <trkpt lat="43.47020384855568408966064453125" lon="1.4670789800584316253662109375">
        <ele>238.8000030517578125</ele>
        <time>2026-08-05T08:00:41.000Z</time>
        <extensions>
          <ns3:TrackPointExtension>
            <ns3:hr>69</ns3:hr>
            <ns3:cad>47</ns3:cad>
          </ns3:TrackPointExtension>
        </extensions>
      </trkpt>
      <trkpt lat="43.470207788050174713134765625" lon="1.4670736156404018402099609375">
        <ele>238.8000030517578125</ele>
        <time>2026-08-05T08:00:42.000Z</time>
        <extensions>
          <ns3:TrackPointExtension>
            <ns3:hr>67</ns3:hr>
            <ns3:cad>47</ns3:cad>
          </ns3:TrackPointExtension>
        </extensions>
      </trkpt>
      <trkpt lat="43.47021239809691905975341796875" lon="1.46706498228013515472412109375">
        <ele>238.600006103515625</ele>
        <time>2026-08-05T08:00:43.000Z</time>
        <extensions>
          <ns3:TrackPointExtension>
            <ns3:hr>67</ns3:hr>
            <ns3:cad>47</ns3:cad>
          </ns3:TrackPointExtension>
        </extensions>
      </trkpt>
      <trkpt lat="43.47021759487688541412353515625" lon="1.46705676801502704620361328125">
        <ele>238.399993896484375</ele>
        <time>2026-08-05T08:00:44.000Z</time>
        <extensions>
          <ns3:TrackPointExtension>
            <ns3:hr>67</ns3:hr>
            <ns3:cad>47</ns3:cad>
          </ns3:TrackPointExtension>
        </extensions>
      </trkpt>
      <trkpt lat="43.4702230431139469146728515625" lon="1.46704620681703090667724609375">
        <ele>238.399993896484375</ele>
        <time>2026-08-05T08:00:45.000Z</time>
        <extensions>
          <ns3:TrackPointExtension>
            <ns3:hr>67</ns3:hr>
            <ns3:cad>47</ns3:cad>
          </ns3:TrackPointExtension>
        </extensions>
      </trkpt>
      <trkpt lat="43.47022916190326213836669921875" lon="1.46703782491385936737060546875">
        <ele>238.1999969482421875</ele>
        <time>2026-08-05T08:00:46.000Z</time>
        <extensions>
          <ns3:TrackPointExtension>
            <ns3:hr>67</ns3:hr>
            <ns3:cad>49</ns3:cad>
          </ns3:TrackPointExtension>
        </extensions>
      </trkpt>
      <trkpt lat="43.4702337719500064849853515625" lon="1.4670303650200366973876953125">
        <ele>238.1999969482421875</ele>
        <time>2026-08-05T08:00:47.000Z</time>
        <extensions>
          <ns3:TrackPointExtension>
            <ns3:hr>67</ns3:hr>
            <ns3:cad>49</ns3:cad>
          </ns3:TrackPointExtension>
        </extensions>
      </trkpt>
      <trkpt lat="43.47023955546319484710693359375" lon="1.4670226536691188812255859375">
        <ele>238.1999969482421875</ele>
        <time>2026-08-05T08:00:48.000Z</time>
        <extensions>
          <ns3:TrackPointExtension>
            <ns3:hr>67</ns3:hr>
            <ns3:cad>49</ns3:cad>
          </ns3:TrackPointExtension>
        </extensions>
      </trkpt>
      <trkpt lat="43.47024341113865375518798828125" lon="1.46701402030885219573974609375">
        <ele>238</ele>
        <time>2026-08-05T08:00:49.000Z</time>
        <extensions>
          <ns3:TrackPointExtension>
            <ns3:hr>67</ns3:hr>
            <ns3:cad>47</ns3:cad>
          </ns3:TrackPointExtension>
        </extensions>
      </trkpt>
      <trkpt lat="43.47025011666119098663330078125" lon="1.4669998548924922943115234375">
        <ele>238</ele>
        <time>2026-08-05T08:00:50.000Z</time>
        <extensions>
          <ns3:TrackPointExtension>
            <ns3:hr>67</ns3:hr>
            <ns3:cad>47</ns3:cad>
          </ns3:TrackPointExtension>
        </extensions>
      </trkpt>
      <trkpt lat="43.47025615163147449493408203125" lon="1.46699205972254276275634765625">
        <ele>238</ele>
        <time>2026-08-05T08:00:51.000Z</time>
        <extensions>
          <ns3:TrackPointExtension>
            <ns3:hr>67</ns3:hr>
            <ns3:cad>47</ns3:cad>
          </ns3:TrackPointExtension>
        </extensions>
      </trkpt>
      <trkpt lat="43.47026252187788486480712890625" lon="1.46698518656194210052490234375">
        <ele>237.8000030517578125</ele>
        <time>2026-08-05T08:00:52.000Z</time>
        <extensions>
          <ns3:TrackPointExtension>
            <ns3:hr>68</ns3:hr>
            <ns3:cad>47</ns3:cad>
          </ns3:TrackPointExtension>
        </extensions>
      </trkpt>
      <trkpt lat="43.470268137753009796142578125" lon="1.46698183380067348480224609375">
        <ele>237.8000030517578125</ele>
        <time>2026-08-05T08:00:53.000Z</time>
        <extensions>
          <ns3:TrackPointExtension>
            <ns3:hr>68</ns3:hr>
            <ns3:cad>47</ns3:cad>
          </ns3:TrackPointExtension>
        </extensions>
      </trkpt>
      <trkpt lat="43.4702723287045955657958984375" lon="1.4669777266681194305419921875">
        <ele>237.600006103515625</ele>
        <time>2026-08-05T08:00:54.000Z</time>
        <extensions>
          <ns3:TrackPointExtension>
            <ns3:hr>68</ns3:hr>
            <ns3:cad>47</ns3:cad>
          </ns3:TrackPointExtension>
        </extensions>
      </trkpt>
      <trkpt lat="43.470278866589069366455078125" lon="1.4669663272798061370849609375">
        <ele>237.600006103515625</ele>
        <time>2026-08-05T08:00:55.000Z</time>
        <extensions>
          <ns3:TrackPointExtension>
            <ns3:hr>70</ns3:hr>
            <ns3:cad>48</ns3:cad>
          </ns3:TrackPointExtension>
        </extensions>
      </trkpt>
      <trkpt lat="43.47028297372162342071533203125" lon="1.46695710718631744384765625">
        <ele>237.399993896484375</ele>
        <time>2026-08-05T08:00:56.000Z</time>
        <extensions>
          <ns3:TrackPointExtension>
            <ns3:hr>70</ns3:hr>
            <ns3:cad>48</ns3:cad>
          </ns3:TrackPointExtension>
        </extensions>
      </trkpt>
      <trkpt lat="43.47028900869190692901611328125" lon="1.46695065312087535858154296875">
        <ele>237.399993896484375</ele>
        <time>2026-08-05T08:00:57.000Z</time>
        <extensions>
          <ns3:TrackPointExtension>
            <ns3:hr>70</ns3:hr>
            <ns3:cad>47</ns3:cad>
          </ns3:TrackPointExtension>
        </extensions>
      </trkpt>
      <trkpt lat="43.47029789350926876068115234375" lon="1.4669435285031795501708984375">
        <ele>237.399993896484375</ele>
        <time>2026-08-05T08:00:58.000Z</time>
        <extensions>
          <ns3:TrackPointExtension>
            <ns3:hr>70</ns3:hr>
            <ns3:cad>47</ns3:cad>
          </ns3:TrackPointExtension>
        </extensions>
      </trkpt>
      <trkpt lat="43.4703045152127742767333984375" lon="1.46693455986678600311279296875">
        <ele>237.1999969482421875</ele>
        <time>2026-08-05T08:00:59.000Z</time>
        <extensions>
          <ns3:TrackPointExtension>
            <ns3:hr>70</ns3:hr>
            <ns3:cad>47</ns3:cad>
          </ns3:TrackPointExtension>
        </extensions>
      </trkpt>
      <trkpt lat="43.47030946053564548492431640625" lon="1.466926597058773040771484375">
        <ele>237.1999969482421875</ele>
        <time>2026-08-05T08:01:00.000Z</time>
        <extensions>
          <ns3:TrackPointExtension>
            <ns3:hr>70</ns3:hr>
            <ns3:cad>46</ns3:cad>
          </ns3:TrackPointExtension>
        </extensions>
      </trkpt>
      <trkpt lat="43.47031666897237300872802734375" lon="1.46691880188882350921630859375">
        <ele>237.1999969482421875</ele>
        <time>2026-08-05T08:01:01.000Z</time>
        <extensions>
          <ns3:TrackPointExtension>
            <ns3:hr>69</ns3:hr>
            <ns3:cad>46</ns3:cad>
          </ns3:TrackPointExtension>
        </extensions>
      </trkpt>
      <trkpt lat="43.4703241288661956787109375" lon="1.46691159345209598541259765625">
        <ele>237</ele>
        <time>2026-08-05T08:01:02.000Z</time>
        <extensions>
          <ns3:TrackPointExtension>
            <ns3:hr>68</ns3:hr>
            <ns3:cad>46</ns3:cad>
          </ns3:TrackPointExtension>
        </extensions>
      </trkpt>
      <trkpt lat="43.47032890655100345611572265625" lon="1.46690170280635356903076171875">
        <ele>237</ele>
        <time>2026-08-05T08:01:03.000Z</time>
        <extensions>
          <ns3:TrackPointExtension>
            <ns3:hr>67</ns3:hr>
            <ns3:cad>46</ns3:cad>
          </ns3:TrackPointExtension>
        </extensions>
      </trkpt>
      <trkpt lat="43.4703367017209529876708984375" lon="1.4668942429125308990478515625">
        <ele>236.8000030517578125</ele>
        <time>2026-08-05T08:01:04.000Z</time>
        <extensions>
          <ns3:TrackPointExtension>
            <ns3:hr>67</ns3:hr>
            <ns3:cad>46</ns3:cad>
          </ns3:TrackPointExtension>
        </extensions>
      </trkpt>
      <trkpt lat="43.4703370369970798492431640625" lon="1.46689600311219692230224609375">
        <ele>236.8000030517578125</ele>
        <time>2026-08-05T08:01:05.000Z</time>
        <extensions>
          <ns3:TrackPointExtension>
            <ns3:hr>68</ns3:hr>
            <ns3:cad>46</ns3:cad>
          </ns3:TrackPointExtension>
        </extensions>
      </trkpt>
      <trkpt lat="43.47034516744315624237060546875" lon="1.46689214743673801422119140625">
        <ele>236.8000030517578125</ele>
        <time>2026-08-05T08:01:06.000Z</time>
        <extensions>
          <ns3:TrackPointExtension>
            <ns3:hr>68</ns3:hr>
            <ns3:cad>46</ns3:cad>
          </ns3:TrackPointExtension>
        </extensions>
      </trkpt>
      <trkpt lat="43.4703524596989154815673828125" lon="1.46688678301870822906494140625">
        <ele>236.8000030517578125</ele>
        <time>2026-08-05T08:01:07.000Z</time>
        <extensions>
          <ns3:TrackPointExtension>
            <ns3:hr>68</ns3:hr>
            <ns3:cad>0</ns3:cad>
          </ns3:TrackPointExtension>
        </extensions>
      </trkpt>
      <trkpt lat="43.4703541360795497894287109375" lon="1.46687940694391727447509765625">
        <ele>236.600006103515625</ele>
        <time>2026-08-05T08:01:08.000Z</time>
        <extensions>
          <ns3:TrackPointExtension>
            <ns3:hr>68</ns3:hr>
            <ns3:cad>49</ns3:cad>
          </ns3:TrackPointExtension>
        </extensions>
      </trkpt>
      <trkpt lat="43.47035723738372325897216796875" lon="1.4668746292591094970703125">
        <ele>236.600006103515625</ele>
        <time>2026-08-05T08:01:09.000Z</time>
        <extensions>
          <ns3:TrackPointExtension>
            <ns3:hr>69</ns3:hr>
            <ns3:cad>49</ns3:cad>
          </ns3:TrackPointExtension>
        </extensions>
      </trkpt>
      <trkpt lat="43.47036260180175304412841796875" lon="1.4668684266507625579833984375">
        <ele>236.600006103515625</ele>
        <time>2026-08-05T08:01:10.000Z</time>
        <extensions>
          <ns3:TrackPointExtension>
            <ns3:hr>68</ns3:hr>
            <ns3:cad>49</ns3:cad>
          </ns3:TrackPointExtension>
        </extensions>
      </trkpt>
      <trkpt lat="43.47036863677203655242919921875" lon="1.46686063148081302642822265625">
        <ele>236.600006103515625</ele>
        <time>2026-08-05T08:01:11.000Z</time>
        <extensions>
          <ns3:TrackPointExtension>
            <ns3:hr>69</ns3:hr>
            <ns3:cad>0</ns3:cad>
          </ns3:TrackPointExtension>
        </extensions>
      </trkpt>
      <trkpt lat="43.470371402800083160400390625" lon="1.46685610525310039520263671875">
        <ele>236.399993896484375</ele>
        <time>2026-08-05T08:01:12.000Z</time>
        <extensions>
          <ns3:TrackPointExtension>
            <ns3:hr>69</ns3:hr>
            <ns3:cad>0</ns3:cad>
          </ns3:TrackPointExtension>
        </extensions>
      </trkpt>
      <trkpt lat="43.4703742526471614837646484375" lon="1.46685250103473663330078125">
        <ele>236.399993896484375</ele>
        <time>2026-08-05T08:01:13.000Z</time>
        <extensions>
          <ns3:TrackPointExtension>
            <ns3:hr>69</ns3:hr>
            <ns3:cad>0</ns3:cad>
          </ns3:TrackPointExtension>
        </extensions>
      </trkpt>
      <trkpt lat="43.47037442028522491455078125" lon="1.46684839390218257904052734375">
        <ele>236.399993896484375</ele>
        <time>2026-08-05T08:01:14.000Z</time>
        <extensions>
          <ns3:TrackPointExtension>
            <ns3:hr>69</ns3:hr>
            <ns3:cad>0</ns3:cad>
          </ns3:TrackPointExtension>
        </extensions>
      </trkpt>
      <trkpt lat="43.47037752158939838409423828125" lon="1.46684654988348484039306640625">
        <ele>236.399993896484375</ele>
        <time>2026-08-05T08:01:15.000Z</time>
        <extensions>
          <ns3:TrackPointExtension>
            <ns3:hr>69</ns3:hr>
            <ns3:cad>0</ns3:cad>
          </ns3:TrackPointExtension>
        </extensions>
      </trkpt>
      <trkpt lat="43.47038154490292072296142578125" lon="1.4668399281799793243408203125">
        <ele>236.399993896484375</ele>
        <time>2026-08-05T08:01:16.000Z</time>
        <extensions>
          <ns3:TrackPointExtension>
            <ns3:hr>69</ns3:hr>
            <ns3:cad>0</ns3:cad>
          </ns3:TrackPointExtension>
        </extensions>
      </trkpt>
      <trkpt lat="43.47038590349256992340087890625" lon="1.46683280356228351593017578125">
        <ele>236.1999969482421875</ele>
        <time>2026-08-05T08:01:17.000Z</time>
        <extensions>
          <ns3:TrackPointExtension>
            <ns3:hr>69</ns3:hr>
            <ns3:cad>0</ns3:cad>
          </ns3:TrackPointExtension>
        </extensions>
      </trkpt>
      <trkpt lat="43.47038975916802883148193359375" lon="1.46682676859200000762939453125">
        <ele>236.1999969482421875</ele>
        <time>2026-08-05T08:01:18.000Z</time>
        <extensions>
          <ns3:TrackPointExtension>
            <ns3:hr>69</ns3:hr>
            <ns3:cad>0</ns3:cad>
          </ns3:TrackPointExtension>
        </extensions>
      </trkpt>
      <trkpt lat="43.470393531024456024169921875" lon="1.466819979250431060791015625">
        <ele>236.1999969482421875</ele>
        <time>2026-08-05T08:01:19.000Z</time>
        <extensions>
          <ns3:TrackPointExtension>
            <ns3:hr>69</ns3:hr>
            <ns3:cad>0</ns3:cad>
          </ns3:TrackPointExtension>
        </extensions>
      </trkpt>
      <trkpt lat="43.4703950397670269012451171875" lon="1.46681017242372035980224609375">
        <ele>236.1999969482421875</ele>
        <time>2026-08-05T08:01:20.000Z</time>
        <extensions>
          <ns3:TrackPointExtension>
            <ns3:hr>69</ns3:hr>
            <ns3:cad>0</ns3:cad>
          </ns3:TrackPointExtension>
        </extensions>
      </trkpt>
      <trkpt lat="43.47039964981377124786376953125" lon="1.4668060652911663055419921875">
        <ele>236.1999969482421875</ele>
        <time>2026-08-05T08:01:21.000Z</time>
        <extensions>
          <ns3:TrackPointExtension>
            <ns3:hr>68</ns3:hr>
            <ns3:cad>0</ns3:cad>
          </ns3:TrackPointExtension>
        </extensions>
      </trkpt>
      <trkpt lat="43.4704034216701984405517578125" lon="1.46680296398699283599853515625">
        <ele>236.1999969482421875</ele>
        <time>2026-08-05T08:01:22.000Z</time>
        <extensions>
          <ns3:TrackPointExtension>
            <ns3:hr>68</ns3:hr>
            <ns3:cad>0</ns3:cad>
          </ns3:TrackPointExtension>
        </extensions>
      </trkpt>
      <trkpt lat="43.47040836699306964874267578125" lon="1.4668000303208827972412109375">
        <ele>236.1999969482421875</ele>
        <time>2026-08-05T08:01:23.000Z</time>
        <extensions>
          <ns3:TrackPointExtension>
            <ns3:hr>68</ns3:hr>
            <ns3:cad>0</ns3:cad>
          </ns3:TrackPointExtension>
        </extensions>
      </trkpt>
      <trkpt lat="43.47041021101176738739013671875" lon="1.46680044941604137420654296875">
        <ele>236.1999969482421875</ele>
        <time>2026-08-05T08:01:24.000Z</time>
        <extensions>
          <ns3:TrackPointExtension>
            <ns3:hr>68</ns3:hr>
            <ns3:cad>0</ns3:cad>
          </ns3:TrackPointExtension>
        </extensions>
      </trkpt>
      <trkpt lat="43.470410294830799102783203125" lon="1.46680212579667568206787109375">
        <ele>236.1999969482421875</ele>
        <time>2026-08-05T08:01:25.000Z</time>
        <extensions>
          <ns3:TrackPointExtension>
            <ns3:hr>68</ns3:hr>
            <ns3:cad>0</ns3:cad>
          </ns3:TrackPointExtension>
        </extensions>
      </trkpt>
      <trkpt lat="43.470410294830799102783203125" lon="1.46680212579667568206787109375">
        <ele>236.1999969482421875</ele>
        <time>2026-08-05T08:01:26.000Z</time>
        <extensions>
          <ns3:TrackPointExtension>
            <ns3:hr>66</ns3:hr>
            <ns3:cad>0</ns3:cad>
          </ns3:TrackPointExtension>
        </extensions>
      </trkpt>
      <trkpt lat="43.470410294830799102783203125" lon="1.46680212579667568206787109375">
        <ele>236.1999969482421875</ele>
        <time>2026-08-05T08:01:27.000Z</time>
        <extensions>
          <ns3:TrackPointExtension>
            <ns3:hr>65</ns3:hr>
            <ns3:cad>0</ns3:cad>
          </ns3:TrackPointExtension>
        </extensions>
      </trkpt>
      <trkpt lat="43.470410294830799102783203125" lon="1.46680212579667568206787109375">
        <ele>236.1999969482421875</ele>
        <time>2026-08-05T08:01:28.000Z</time>
        <extensions>
          <ns3:TrackPointExtension>
            <ns3:hr>64</ns3:hr>
            <ns3:cad>0</ns3:cad>
          </ns3:TrackPointExtension>
        </extensions>
      </trkpt>
      <trkpt lat="43.470410294830799102783203125" lon="1.46680212579667568206787109375">
        <ele>236.1999969482421875</ele>
        <time>2026-08-05T08:01:29.000Z</time>
        <extensions>
          <ns3:TrackPointExtension>
            <ns3:hr>64</ns3:hr>
            <ns3:cad>0</ns3:cad>
          </ns3:TrackPointExtension>
        </extensions>
      </trkpt>
      <trkpt lat="43.470410294830799102783203125" lon="1.46680212579667568206787109375">
        <ele>236.1999969482421875</ele>
        <time>2026-08-05T08:01:30.000Z</time>
        <extensions>
          <ns3:TrackPointExtension>
            <ns3:hr>63</ns3:hr>
            <ns3:cad>0</ns3:cad>
          </ns3:TrackPointExtension>
        </extensions>
      </trkpt>
      <trkpt lat="43.470410294830799102783203125" lon="1.46680212579667568206787109375">
        <ele>236.1999969482421875</ele>
        <time>2026-08-05T08:01:31.000Z</time>
        <extensions>
          <ns3:TrackPointExtension>
            <ns3:hr>63</ns3:hr>
            <ns3:cad>0</ns3:cad>
          </ns3:TrackPointExtension>
        </extensions>
      </trkpt>
      <trkpt lat="43.470410294830799102783203125" lon="1.46680212579667568206787109375">
        <ele>236</ele>
        <time>2026-08-05T08:01:32.000Z</time>
        <extensions>
          <ns3:TrackPointExtension>
            <ns3:hr>64</ns3:hr>
            <ns3:cad>0</ns3:cad>
          </ns3:TrackPointExtension>
        </extensions>
      </trkpt>
      <trkpt lat="43.470410294830799102783203125" lon="1.46680212579667568206787109375">
        <ele>236</ele>
        <time>2026-08-05T08:01:33.000Z</time>
        <extensions>
          <ns3:TrackPointExtension>
            <ns3:hr>64</ns3:hr>
            <ns3:cad>0</ns3:cad>
          </ns3:TrackPointExtension>
        </extensions>
      </trkpt>
      <trkpt lat="43.470410294830799102783203125" lon="1.46680212579667568206787109375">
        <ele>236</ele>
        <time>2026-08-05T08:01:34.000Z</time>
        <extensions>
          <ns3:TrackPointExtension>
            <ns3:hr>64</ns3:hr>
            <ns3:cad>0</ns3:cad>
          </ns3:TrackPointExtension>
        </extensions>
      </trkpt>
      <trkpt lat="43.470410294830799102783203125" lon="1.46680212579667568206787109375">
        <ele>236</ele>
        <time>2026-08-05T08:01:35.000Z</time>
        <extensions>
          <ns3:TrackPointExtension>
            <ns3:hr>64</ns3:hr>
            <ns3:cad>0</ns3:cad>
          </ns3:TrackPointExtension>
        </extensions>
      </trkpt>
      <trkpt lat="43.470410294830799102783203125" lon="1.46680212579667568206787109375">
        <ele>236</ele>
        <time>2026-08-05T08:01:36.000Z</time>
        <extensions>
          <ns3:TrackPointExtension>
            <ns3:hr>64</ns3:hr>
            <ns3:cad>0</ns3:cad>
          </ns3:TrackPointExtension>
        </extensions>
      </trkpt>
      <trkpt lat="43.470410294830799102783203125" lon="1.46680212579667568206787109375">
        <ele>236.1999969482421875</ele>
        <time>2026-08-05T08:01:37.000Z</time>
        <extensions>
          <ns3:TrackPointExtension>
            <ns3:hr>64</ns3:hr>
            <ns3:cad>0</ns3:cad>
          </ns3:TrackPointExtension>
        </extensions>
      </trkpt>
      <trkpt lat="43.470410294830799102783203125" lon="1.46680212579667568206787109375">
        <ele>236</ele>
        <time>2026-08-05T08:01:38.000Z</time>
        <extensions>
          <ns3:TrackPointExtension>
            <ns3:hr>64</ns3:hr>
            <ns3:cad>0</ns3:cad>
          </ns3:TrackPointExtension>
        </extensions>
      </trkpt>
      <trkpt lat="43.470410294830799102783203125" lon="1.46680212579667568206787109375">
        <ele>236</ele>
        <time>2026-08-05T08:01:39.000Z</time>
        <extensions>
          <ns3:TrackPointExtension>
            <ns3:hr>63</ns3:hr>
            <ns3:cad>0</ns3:cad>
          </ns3:TrackPointExtension>
        </extensions>
      </trkpt>
      <trkpt lat="43.470410294830799102783203125" lon="1.46680212579667568206787109375">
        <ele>236</ele>
        <time>2026-08-05T08:01:40.000Z</time>
        <extensions>
          <ns3:TrackPointExtension>
            <ns3:hr>64</ns3:hr>
            <ns3:cad>0</ns3:cad>
          </ns3:TrackPointExtension>
        </extensions>
      </trkpt>
      <trkpt lat="43.470410294830799102783203125" lon="1.46680212579667568206787109375">
        <ele>236</ele>
        <time>2026-08-05T08:01:41.000Z</time>
        <extensions>
          <ns3:TrackPointExtension>
            <ns3:hr>64</ns3:hr>
            <ns3:cad>0</ns3:cad>
          </ns3:TrackPointExtension>
        </extensions>
      </trkpt>
      <trkpt lat="43.470410294830799102783203125" lon="1.46680212579667568206787109375">
        <ele>236</ele>
        <time>2026-08-05T08:01:42.000Z</time>
        <extensions>
          <ns3:TrackPointExtension>
            <ns3:hr>65</ns3:hr>
            <ns3:cad>0</ns3:cad>
          </ns3:TrackPointExtension>
        </extensions>
      </trkpt>
      <trkpt lat="43.470410294830799102783203125" lon="1.46680212579667568206787109375">
        <ele>236</ele>
        <time>2026-08-05T08:01:43.000Z</time>
        <extensions>
          <ns3:TrackPointExtension>
            <ns3:hr>66</ns3:hr>
            <ns3:cad>0</ns3:cad>
          </ns3:TrackPointExtension>
        </extensions>
      </trkpt>
      <trkpt lat="43.470410294830799102783203125" lon="1.46680212579667568206787109375">
        <ele>236.1999969482421875</ele>
        <time>2026-08-05T08:01:44.000Z</time>
        <extensions>
          <ns3:TrackPointExtension>
            <ns3:hr>66</ns3:hr>
            <ns3:cad>0</ns3:cad>
          </ns3:TrackPointExtension>
        </extensions>
      </trkpt>
      <trkpt lat="43.470410294830799102783203125" lon="1.46680212579667568206787109375">
        <ele>236.1999969482421875</ele>
        <time>2026-08-05T08:01:45.000Z</time>
        <extensions>
          <ns3:TrackPointExtension>
            <ns3:hr>65</ns3:hr>
            <ns3:cad>0</ns3:cad>
          </ns3:TrackPointExtension>
        </extensions>
      </trkpt>
      <trkpt lat="43.470410294830799102783203125" lon="1.46680212579667568206787109375">
        <ele>236</ele>
        <time>2026-08-05T08:01:46.000Z</time>
        <extensions>
          <ns3:TrackPointExtension>
            <ns3:hr>65</ns3:hr>
            <ns3:cad>0</ns3:cad>
          </ns3:TrackPointExtension>
        </extensions>
      </trkpt>
      <trkpt lat="43.470410294830799102783203125" lon="1.46680212579667568206787109375">
        <ele>236</ele>
        <time>2026-08-05T08:01:47.000Z</time>
        <extensions>
          <ns3:TrackPointExtension>
            <ns3:hr>65</ns3:hr>
            <ns3:cad>0</ns3:cad>
          </ns3:TrackPointExtension>
        </extensions>
      </trkpt>
      <trkpt lat="43.470410294830799102783203125" lon="1.46680212579667568206787109375">
        <ele>236</ele>
        <time>2026-08-05T08:01:48.000Z</time>
        <extensions>
          <ns3:TrackPointExtension>
            <ns3:hr>65</ns3:hr>
            <ns3:cad>0</ns3:cad>
          </ns3:TrackPointExtension>
        </extensions>
      </trkpt>
      <trkpt lat="43.470410294830799102783203125" lon="1.46680212579667568206787109375">
        <ele>236</ele>
        <time>2026-08-05T08:01:49.000Z</time>
        <extensions>
          <ns3:TrackPointExtension>
            <ns3:hr>66</ns3:hr>
            <ns3:cad>0</ns3:cad>
          </ns3:TrackPointExtension>
        </extensions>
      </trkpt>
      <trkpt lat="43.470410294830799102783203125" lon="1.46680212579667568206787109375">
        <ele>236</ele>
        <time>2026-08-05T08:01:50.000Z</time>
        <extensions>
          <ns3:TrackPointExtension>
            <ns3:hr>66</ns3:hr>
            <ns3:cad>0</ns3:cad>
          </ns3:TrackPointExtension>
        </extensions>
      </trkpt>
      <trkpt lat="43.470410294830799102783203125" lon="1.46680212579667568206787109375">
        <ele>236</ele>
        <time>2026-08-05T08:01:51.000Z</time>
        <extensions>
          <ns3:TrackPointExtension>
            <ns3:hr>68</ns3:hr>
            <ns3:cad>0</ns3:cad>
          </ns3:TrackPointExtension>
        </extensions>
      </trkpt>
      <trkpt lat="43.470410294830799102783203125" lon="1.46680212579667568206787109375">
        <ele>236</ele>
        <time>2026-08-05T08:01:52.000Z</time>
        <extensions>
          <ns3:TrackPointExtension>
            <ns3:hr>70</ns3:hr>
            <ns3:cad>0</ns3:cad>
          </ns3:TrackPointExtension>
        </extensions>
      </trkpt>
      <trkpt lat="43.470410294830799102783203125" lon="1.46680212579667568206787109375">
        <ele>236</ele>
        <time>2026-08-05T08:01:53.000Z</time>
        <extensions>
          <ns3:TrackPointExtension>
            <ns3:hr>72</ns3:hr>
            <ns3:cad>0</ns3:cad>
          </ns3:TrackPointExtension>
        </extensions>
      </trkpt>
      <trkpt lat="43.470410294830799102783203125" lon="1.46680212579667568206787109375">
        <ele>236</ele>
        <time>2026-08-05T08:01:54.000Z</time>
        <extensions>
          <ns3:TrackPointExtension>
            <ns3:hr>73</ns3:hr>
            <ns3:cad>0</ns3:cad>
          </ns3:TrackPointExtension>
        </extensions>
      </trkpt>
      <trkpt lat="43.470410294830799102783203125" lon="1.46680212579667568206787109375">
        <ele>236</ele>
        <time>2026-08-05T08:01:55.000Z</time>
        <extensions>
          <ns3:TrackPointExtension>
            <ns3:hr>73</ns3:hr>
            <ns3:cad>0</ns3:cad>
          </ns3:TrackPointExtension>
        </extensions>
      </trkpt>
      <trkpt lat="43.470410294830799102783203125" lon="1.46680212579667568206787109375">
        <ele>236</ele>
        <time>2026-08-05T08:01:56.000Z</time>
        <extensions>
          <ns3:TrackPointExtension>
            <ns3:hr>74</ns3:hr>
            <ns3:cad>0</ns3:cad>
          </ns3:TrackPointExtension>
        </extensions>
      </trkpt>
      <trkpt lat="43.470410294830799102783203125" lon="1.46680212579667568206787109375">
        <ele>236</ele>
        <time>2026-08-05T08:01:57.000Z</time>
        <extensions>
          <ns3:TrackPointExtension>
            <ns3:hr>74</ns3:hr>
            <ns3:cad>0</ns3:cad>
          </ns3:TrackPointExtension>
        </extensions>
      </trkpt>
      <trkpt lat="43.470410294830799102783203125" lon="1.46680212579667568206787109375">
        <ele>236</ele>
        <time>2026-08-05T08:01:58.000Z</time>
        <extensions>
          <ns3:TrackPointExtension>
            <ns3:hr>73</ns3:hr>
            <ns3:cad>0</ns3:cad>
          </ns3:TrackPointExtension>
        </extensions>
      </trkpt>
      <trkpt lat="43.470410294830799102783203125" lon="1.46680212579667568206787109375">
        <ele>236</ele>
        <time>2026-08-05T08:01:59.000Z</time>
        <extensions>
          <ns3:TrackPointExtension>
            <ns3:hr>73</ns3:hr>
            <ns3:cad>0</ns3:cad>
          </ns3:TrackPointExtension>
        </extensions>
      </trkpt>
      <trkpt lat="43.470410294830799102783203125" lon="1.46680212579667568206787109375">
        <ele>236</ele>
        <time>2026-08-05T08:02:00.000Z</time>
        <extensions>
          <ns3:TrackPointExtension>
            <ns3:hr>73</ns3:hr>
            <ns3:cad>0</ns3:cad>
          </ns3:TrackPointExtension>
        </extensions>
      </trkpt>
      <trkpt lat="43.470410294830799102783203125" lon="1.46680212579667568206787109375">
        <ele>236</ele>
        <time>2026-08-05T08:02:01.000Z</time>
        <extensions>
          <ns3:TrackPointExtension>
            <ns3:hr>72</ns3:hr>
            <ns3:cad>0</ns3:cad>
          </ns3:TrackPointExtension>
        </extensions>
      </trkpt>
      <trkpt lat="43.470410294830799102783203125" lon="1.46680212579667568206787109375">
        <ele>236</ele>
        <time>2026-08-05T08:02:02.000Z</time>
        <extensions>
          <ns3:TrackPointExtension>
            <ns3:hr>72</ns3:hr>
            <ns3:cad>0</ns3:cad>
          </ns3:TrackPointExtension>
        </extensions>
      </trkpt>
      <trkpt lat="43.470410294830799102783203125" lon="1.46680212579667568206787109375">
        <ele>236</ele>
        <time>2026-08-05T08:02:03.000Z</time>
        <extensions>
          <ns3:TrackPointExtension>
            <ns3:hr>72</ns3:hr>
            <ns3:cad>0</ns3:cad>
          </ns3:TrackPointExtension>
        </extensions>
      </trkpt>
      <trkpt lat="43.470410294830799102783203125" lon="1.46680212579667568206787109375">
        <ele>236</ele>
        <time>2026-08-05T08:02:04.000Z</time>
        <extensions>
          <ns3:TrackPointExtension>
            <ns3:hr>72</ns3:hr>
            <ns3:cad>0</ns3:cad>
          </ns3:TrackPointExtension>
        </extensions>
      </trkpt>
      <trkpt lat="43.470410294830799102783203125" lon="1.46680212579667568206787109375">
        <ele>236</ele>
        <time>2026-08-05T08:02:05.000Z</time>
        <extensions>
          <ns3:TrackPointExtension>
            <ns3:hr>73</ns3:hr>
            <ns3:cad>0</ns3:cad>
          </ns3:TrackPointExtension>
        </extensions>
      </trkpt>
      <trkpt lat="43.470410294830799102783203125" lon="1.46680212579667568206787109375">
        <ele>236</ele>
        <time>2026-08-05T08:02:06.000Z</time>
        <extensions>
          <ns3:TrackPointExtension>
            <ns3:hr>72</ns3:hr>
            <ns3:cad>0</ns3:cad>
          </ns3:TrackPointExtension>
        </extensions>
      </trkpt>
      <trkpt lat="43.470410294830799102783203125" lon="1.46680212579667568206787109375">
        <ele>236</ele>
        <time>2026-08-05T08:02:07.000Z</time>
        <extensions>
          <ns3:TrackPointExtension>
            <ns3:hr>73</ns3:hr>
            <ns3:cad>0</ns3:cad>
          </ns3:TrackPointExtension>
        </extensions>
      </trkpt>
      <trkpt lat="43.470410294830799102783203125" lon="1.46680212579667568206787109375">
        <ele>236</ele>
        <time>2026-08-05T08:02:08.000Z</time>
        <extensions>
          <ns3:TrackPointExtension>
            <ns3:hr>73</ns3:hr>
            <ns3:cad>0</ns3:cad>
          </ns3:TrackPointExtension>
        </extensions>
      </trkpt>
      <trkpt lat="43.470410294830799102783203125" lon="1.46680212579667568206787109375">
        <ele>236</ele>
        <time>2026-08-05T08:02:09.000Z</time>
        <extensions>
          <ns3:TrackPointExtension>
            <ns3:hr>73</ns3:hr>
            <ns3:cad>0</ns3:cad>
          </ns3:TrackPointExtension>
        </extensions>
      </trkpt>
      <trkpt lat="43.470410294830799102783203125" lon="1.46680212579667568206787109375">
        <ele>236</ele>
        <time>2026-08-05T08:02:10.000Z</time>
        <extensions>
          <ns3:TrackPointExtension>
            <ns3:hr>73</ns3:hr>
            <ns3:cad>0</ns3:cad>
          </ns3:TrackPointExtension>
        </extensions>
      </trkpt>
      <trkpt lat="43.470410294830799102783203125" lon="1.46680212579667568206787109375">
        <ele>236</ele>
        <time>2026-08-05T08:02:11.000Z</time>
        <extensions>
          <ns3:TrackPointExtension>
            <ns3:hr>74</ns3:hr>
            <ns3:cad>0</ns3:cad>
          </ns3:TrackPointExtension>
        </extensions>
      </trkpt>
      <trkpt lat="43.470410294830799102783203125" lon="1.46680212579667568206787109375">
        <ele>236</ele>
        <time>2026-08-05T08:02:12.000Z</time>
        <extensions>
          <ns3:TrackPointExtension>
            <ns3:hr>73</ns3:hr>
            <ns3:cad>0</ns3:cad>
          </ns3:TrackPointExtension>
        </extensions>
      </trkpt>
      <trkpt lat="43.470410294830799102783203125" lon="1.46680212579667568206787109375">
        <ele>236</ele>
        <time>2026-08-05T08:02:13.000Z</time>
        <extensions>
          <ns3:TrackPointExtension>
            <ns3:hr>72</ns3:hr>
            <ns3:cad>0</ns3:cad>
          </ns3:TrackPointExtension>
        </extensions>
      </trkpt>
      <trkpt lat="43.470410294830799102783203125" lon="1.46680212579667568206787109375">
        <ele>236</ele>
        <time>2026-08-05T08:02:14.000Z</time>
        <extensions>
          <ns3:TrackPointExtension>
            <ns3:hr>72</ns3:hr>
            <ns3:cad>0</ns3:cad>
          </ns3:TrackPointExtension>
        </extensions>
      </trkpt>
      <trkpt lat="43.470410294830799102783203125" lon="1.46680212579667568206787109375">
        <ele>236</ele>
        <time>2026-08-05T08:02:15.000Z</time>
        <extensions>
          <ns3:TrackPointExtension>
            <ns3:hr>71</ns3:hr>
            <ns3:cad>0</ns3:cad>
          </ns3:TrackPointExtension>
        </extensions>
      </trkpt>
      <trkpt lat="43.470410294830799102783203125" lon="1.46680212579667568206787109375">
        <ele>236</ele>
        <time>2026-08-05T08:02:16.000Z</time>
        <extensions>
          <ns3:TrackPointExtension>
            <ns3:hr>70</ns3:hr>
            <ns3:cad>0</ns3:cad>
          </ns3:TrackPointExtension>
        </extensions>
      </trkpt>
      <trkpt lat="43.470410294830799102783203125" lon="1.46680212579667568206787109375">
        <ele>236</ele>
        <time>2026-08-05T08:02:17.000Z</time>
        <extensions>
          <ns3:TrackPointExtension>
            <ns3:hr>70</ns3:hr>
            <ns3:cad>0</ns3:cad>
          </ns3:TrackPointExtension>
        </extensions>
      </trkpt>
      <trkpt lat="43.470410294830799102783203125" lon="1.46680212579667568206787109375">
        <ele>236</ele>
        <time>2026-08-05T08:02:18.000Z</time>
        <extensions>
          <ns3:TrackPointExtension>
            <ns3:hr>70</ns3:hr>
            <ns3:cad>0</ns3:cad>
          </ns3:TrackPointExtension>
        </extensions>
      </trkpt>
      <trkpt lat="43.470410294830799102783203125" lon="1.46680212579667568206787109375">
        <ele>236</ele>
        <time>2026-08-05T08:02:19.000Z</time>
        <extensions>
          <ns3:TrackPointExtension>
            <ns3:hr>71</ns3:hr>
            <ns3:cad>0</ns3:cad>
          </ns3:TrackPointExtension>
        </extensions>
      </trkpt>
      <trkpt lat="43.470410294830799102783203125" lon="1.46680212579667568206787109375">
        <ele>236</ele>
        <time>2026-08-05T08:02:20.000Z</time>
        <extensions>
          <ns3:TrackPointExtension>
            <ns3:hr>72</ns3:hr>
            <ns3:cad>0</ns3:cad>
          </ns3:TrackPointExtension>
        </extensions>
      </trkpt>
      <trkpt lat="43.470410294830799102783203125" lon="1.46680212579667568206787109375">
        <ele>236</ele>
        <time>2026-08-05T08:02:21.000Z</time>
        <extensions>
          <ns3:TrackPointExtension>
            <ns3:hr>73</ns3:hr>
            <ns3:cad>0</ns3:cad>
          </ns3:TrackPointExtension>
        </extensions>
      </trkpt>
      <trkpt lat="43.470410294830799102783203125" lon="1.46680212579667568206787109375">
        <ele>236</ele>
        <time>2026-08-05T08:02:22.000Z</time>
        <extensions>
          <ns3:TrackPointExtension>
            <ns3:hr>73</ns3:hr>
            <ns3:cad>0</ns3:cad>
          </ns3:TrackPointExtension>
        </extensions>
      </trkpt>
      <trkpt lat="43.470410294830799102783203125" lon="1.46680212579667568206787109375">
        <ele>236</ele>
        <time>2026-08-05T08:02:23.000Z</time>
        <extensions>
          <ns3:TrackPointExtension>
            <ns3:hr>70</ns3:hr>
            <ns3:cad>0</ns3:cad>
          </ns3:TrackPointExtension>
        </extensions>
      </trkpt>
      <trkpt lat="43.470410294830799102783203125" lon="1.46680212579667568206787109375">
        <ele>236</ele>
        <time>2026-08-05T08:02:24.000Z</time>
        <extensions>
          <ns3:TrackPointExtension>
            <ns3:hr>66</ns3:hr>
            <ns3:cad>0</ns3:cad>
          </ns3:TrackPointExtension>
        </extensions>
      </trkpt>
      <trkpt lat="43.470410294830799102783203125" lon="1.46680212579667568206787109375">
        <ele>236</ele>
        <time>2026-08-05T08:02:25.000Z</time>
        <extensions>
          <ns3:TrackPointExtension>
            <ns3:hr>64</ns3:hr>
            <ns3:cad>0</ns3:cad>
          </ns3:TrackPointExtension>
        </extensions>
      </trkpt>
      <trkpt lat="43.470410294830799102783203125" lon="1.46680212579667568206787109375">
        <ele>236</ele>
        <time>2026-08-05T08:02:26.000Z</time>
        <extensions>
          <ns3:TrackPointExtension>
            <ns3:hr>64</ns3:hr>
            <ns3:cad>0</ns3:cad>
          </ns3:TrackPointExtension>
        </extensions>
      </trkpt>
      <trkpt lat="43.470410294830799102783203125" lon="1.46680212579667568206787109375">
        <ele>236</ele>
        <time>2026-08-05T08:02:27.000Z</time>
        <extensions>
          <ns3:TrackPointExtension>
            <ns3:hr>64</ns3:hr>
            <ns3:cad>0</ns3:cad>
          </ns3:TrackPointExtension>
        </extensions>
      </trkpt>
      <trkpt lat="43.470410294830799102783203125" lon="1.46680212579667568206787109375">
        <ele>236</ele>
        <time>2026-08-05T08:02:28.000Z</time>
        <extensions>
          <ns3:TrackPointExtension>
            <ns3:hr>63</ns3:hr>
            <ns3:cad>0</ns3:cad>
          </ns3:TrackPointExtension>
        </extensions>
      </trkpt>
      <trkpt lat="43.470410294830799102783203125" lon="1.46680212579667568206787109375">
        <ele>236</ele>
        <time>2026-08-05T08:02:29.000Z</time>
        <extensions>
          <ns3:TrackPointExtension>
            <ns3:hr>61</ns3:hr>
            <ns3:cad>0</ns3:cad>
          </ns3:TrackPointExtension>
        </extensions>
      </trkpt>
      <trkpt lat="43.470410294830799102783203125" lon="1.46680212579667568206787109375">
        <ele>236</ele>
        <time>2026-08-05T08:02:30.000Z</time>
        <extensions>
          <ns3:TrackPointExtension>
            <ns3:hr>60</ns3:hr>
            <ns3:cad>0</ns3:cad>
          </ns3:TrackPointExtension>
        </extensions>
      </trkpt>
      <trkpt lat="43.470410294830799102783203125" lon="1.46680212579667568206787109375">
        <ele>236</ele>
        <time>2026-08-05T08:02:31.000Z</time>
        <extensions>
          <ns3:TrackPointExtension>
            <ns3:hr>60</ns3:hr>
            <ns3:cad>0</ns3:cad>
          </ns3:TrackPointExtension>
        </extensions>
      </trkpt>
      <trkpt lat="43.470410294830799102783203125" lon="1.46680212579667568206787109375">
        <ele>236</ele>
        <time>2026-08-05T08:02:32.000Z</time>
        <extensions>
          <ns3:TrackPointExtension>
            <ns3:hr>59</ns3:hr>
            <ns3:cad>0</ns3:cad>
          </ns3:TrackPointExtension>
        </extensions>
      </trkpt>
      <trkpt lat="43.470410294830799102783203125" lon="1.46680212579667568206787109375">
        <ele>236</ele>
        <time>2026-08-05T08:02:33.000Z</time>
        <extensions>
          <ns3:TrackPointExtension>
            <ns3:hr>59</ns3:hr>
            <ns3:cad>0</ns3:cad>
          </ns3:TrackPointExtension>
        </extensions>
      </trkpt>
      <trkpt lat="43.470410294830799102783203125" lon="1.46680212579667568206787109375">
        <ele>236</ele>
        <time>2026-08-05T08:02:34.000Z</time>
        <extensions>
          <ns3:TrackPointExtension>
            <ns3:hr>60</ns3:hr>
            <ns3:cad>0</ns3:cad>
          </ns3:TrackPointExtension>
        </extensions>
      </trkpt>
      <trkpt lat="43.470410294830799102783203125" lon="1.46680212579667568206787109375">
        <ele>236</ele>
        <time>2026-08-05T08:02:35.000Z</time>
        <extensions>
          <ns3:TrackPointExtension>
            <ns3:hr>61</ns3:hr>
            <ns3:cad>0</ns3:cad>
          </ns3:TrackPointExtension>
        </extensions>
      </trkpt>
      <trkpt lat="43.470410294830799102783203125" lon="1.46680212579667568206787109375">
        <ele>236</ele>
        <time>2026-08-05T08:02:36.000Z</time>
        <extensions>
          <ns3:TrackPointExtension>
            <ns3:hr>63</ns3:hr>
            <ns3:cad>0</ns3:cad>
          </ns3:TrackPointExtension>
        </extensions>
      </trkpt>
      <trkpt lat="43.470410294830799102783203125" lon="1.46680212579667568206787109375">
        <ele>236</ele>
        <time>2026-08-05T08:02:37.000Z</time>
        <extensions>
          <ns3:TrackPointExtension>
            <ns3:hr>64</ns3:hr>
            <ns3:cad>0</ns3:cad>
          </ns3:TrackPointExtension>
        </extensions>
      </trkpt>
      <trkpt lat="43.470410294830799102783203125" lon="1.46680212579667568206787109375">
        <ele>236</ele>
        <time>2026-08-05T08:02:38.000Z</time>
        <extensions>
          <ns3:TrackPointExtension>
            <ns3:hr>67</ns3:hr>
            <ns3:cad>0</ns3:cad>
          </ns3:TrackPointExtension>
        </extensions>
      </trkpt>
      <trkpt lat="43.470410294830799102783203125" lon="1.46680212579667568206787109375">
        <ele>236</ele>
        <time>2026-08-05T08:02:39.000Z</time>
        <extensions>
          <ns3:TrackPointExtension>
            <ns3:hr>68</ns3:hr>
            <ns3:cad>0</ns3:cad>
          </ns3:TrackPointExtension>
        </extensions>
      </trkpt>
      <trkpt lat="43.470410294830799102783203125" lon="1.46680212579667568206787109375">
        <ele>236</ele>
        <time>2026-08-05T08:02:40.000Z</time>
        <extensions>
          <ns3:TrackPointExtension>
            <ns3:hr>68</ns3:hr>
            <ns3:cad>0</ns3:cad>
          </ns3:TrackPointExtension>
        </extensions>
      </trkpt>
      <trkpt lat="43.470410294830799102783203125" lon="1.46680212579667568206787109375">
        <ele>236</ele>
        <time>2026-08-05T08:02:41.000Z</time>
        <extensions>
          <ns3:TrackPointExtension>
            <ns3:hr>68</ns3:hr>
            <ns3:cad>0</ns3:cad>
          </ns3:TrackPointExtension>
        </extensions>
      </trkpt>
      <trkpt lat="43.470410294830799102783203125" lon="1.46680212579667568206787109375">
        <ele>236</ele>
        <time>2026-08-05T08:02:42.000Z</time>
        <extensions>
          <ns3:TrackPointExtension>
            <ns3:hr>68</ns3:hr>
            <ns3:cad>0</ns3:cad>
          </ns3:TrackPointExtension>
        </extensions>
      </trkpt>
      <trkpt lat="43.470410294830799102783203125" lon="1.46680212579667568206787109375">
        <ele>236</ele>
        <time>2026-08-05T08:02:43.000Z</time>
        <extensions>
          <ns3:TrackPointExtension>
            <ns3:hr>68</ns3:hr>
            <ns3:cad>0</ns3:cad>
          </ns3:TrackPointExtension>
        </extensions>
      </trkpt>
      <trkpt lat="43.470410294830799102783203125" lon="1.46680212579667568206787109375">
        <ele>236</ele>
        <time>2026-08-05T08:02:44.000Z</time>
        <extensions>
          <ns3:TrackPointExtension>
            <ns3:hr>69</ns3:hr>
            <ns3:cad>0</ns3:cad>
          </ns3:TrackPointExtension>
        </extensions>
      </trkpt>
      <trkpt lat="43.470410294830799102783203125" lon="1.46680212579667568206787109375">
        <ele>236</ele>
        <time>2026-08-05T08:02:45.000Z</time>
        <extensions>
          <ns3:TrackPointExtension>
            <ns3:hr>69</ns3:hr>
            <ns3:cad>0</ns3:cad>
          </ns3:TrackPointExtension>
        </extensions>
      </trkpt>
      <trkpt lat="43.470410294830799102783203125" lon="1.46680212579667568206787109375">
        <ele>236</ele>
        <time>2026-08-05T08:02:46.000Z</time>
        <extensions>
          <ns3:TrackPointExtension>
            <ns3:hr>70</ns3:hr>
            <ns3:cad>0</ns3:cad>
          </ns3:TrackPointExtension>
        </extensions>
      </trkpt>
      <trkpt lat="43.470410294830799102783203125" lon="1.46680212579667568206787109375">
        <ele>236</ele>
        <time>2026-08-05T08:02:47.000Z</time>
        <extensions>
          <ns3:TrackPointExtension>
            <ns3:hr>70</ns3:hr>
            <ns3:cad>0</ns3:cad>
          </ns3:TrackPointExtension>
        </extensions>
      </trkpt>
      <trkpt lat="43.470410294830799102783203125" lon="1.46680212579667568206787109375">
        <ele>235.8000030517578125</ele>
        <time>2026-08-05T08:02:48.000Z</time>
        <extensions>
          <ns3:TrackPointExtension>
            <ns3:hr>70</ns3:hr>
            <ns3:cad>0</ns3:cad>
          </ns3:TrackPointExtension>
        </extensions>
      </trkpt>
      <trkpt lat="43.470410294830799102783203125" lon="1.46680212579667568206787109375">
        <ele>235.8000030517578125</ele>
        <time>2026-08-05T08:02:49.000Z</time>
        <extensions>
          <ns3:TrackPointExtension>
            <ns3:hr>69</ns3:hr>
            <ns3:cad>0</ns3:cad>
          </ns3:TrackPointExtension>
        </extensions>
      </trkpt>
      <trkpt lat="43.470410294830799102783203125" lon="1.46680212579667568206787109375">
        <ele>235.8000030517578125</ele>
        <time>2026-08-05T08:02:50.000Z</time>
        <extensions>
          <ns3:TrackPointExtension>
            <ns3:hr>63</ns3:hr>
            <ns3:cad>0</ns3:cad>
          </ns3:TrackPointExtension>
        </extensions>
      </trkpt>
      <trkpt lat="43.470410294830799102783203125" lon="1.46680212579667568206787109375">
        <ele>235.8000030517578125</ele>
        <time>2026-08-05T08:02:51.000Z</time>
        <extensions>
          <ns3:TrackPointExtension>
            <ns3:hr>62</ns3:hr>
            <ns3:cad>0</ns3:cad>
          </ns3:TrackPointExtension>
        </extensions>
      </trkpt>
      <trkpt lat="43.470410294830799102783203125" lon="1.46680212579667568206787109375">
        <ele>235.8000030517578125</ele>
        <time>2026-08-05T08:02:52.000Z</time>
        <extensions>
          <ns3:TrackPointExtension>
            <ns3:hr>62</ns3:hr>
            <ns3:cad>0</ns3:cad>
          </ns3:TrackPointExtension>
        </extensions>
      </trkpt>
      <trkpt lat="43.470410294830799102783203125" lon="1.46680212579667568206787109375">
        <ele>235.8000030517578125</ele>
        <time>2026-08-05T08:02:53.000Z</time>
        <extensions>
          <ns3:TrackPointExtension>
            <ns3:hr>62</ns3:hr>
            <ns3:cad>0</ns3:cad>
          </ns3:TrackPointExtension>
        </extensions>
      </trkpt>
      <trkpt lat="43.470410294830799102783203125" lon="1.46680212579667568206787109375">
        <ele>235.8000030517578125</ele>
        <time>2026-08-05T08:02:54.000Z</time>
        <extensions>
          <ns3:TrackPointExtension>
            <ns3:hr>63</ns3:hr>
            <ns3:cad>0</ns3:cad>
          </ns3:TrackPointExtension>
        </extensions>
      </trkpt>
      <trkpt lat="43.470410294830799102783203125" lon="1.46680212579667568206787109375">
        <ele>235.8000030517578125</ele>
        <time>2026-08-05T08:02:55.000Z</time>
        <extensions>
          <ns3:TrackPointExtension>
            <ns3:hr>62</ns3:hr>
            <ns3:cad>0</ns3:cad>
          </ns3:TrackPointExtension>
        </extensions>
      </trkpt>
      <trkpt lat="43.470410294830799102783203125" lon="1.46680212579667568206787109375">
        <ele>235.8000030517578125</ele>
        <time>2026-08-05T08:02:56.000Z</time>
        <extensions>
          <ns3:TrackPointExtension>
            <ns3:hr>62</ns3:hr>
            <ns3:cad>0</ns3:cad>
          </ns3:TrackPointExtension>
        </extensions>
      </trkpt>
      <trkpt lat="43.470410294830799102783203125" lon="1.46680212579667568206787109375">
        <ele>235.8000030517578125</ele>
        <time>2026-08-05T08:02:57.000Z</time>
        <extensions>
          <ns3:TrackPointExtension>
            <ns3:hr>62</ns3:hr>
            <ns3:cad>0</ns3:cad>
          </ns3:TrackPointExtension>
        </extensions>
      </trkpt>
      <trkpt lat="43.470410294830799102783203125" lon="1.46680212579667568206787109375">
        <ele>235.8000030517578125</ele>
        <time>2026-08-05T08:02:58.000Z</time>
        <extensions>
          <ns3:TrackPointExtension>
            <ns3:hr>61</ns3:hr>
            <ns3:cad>0</ns3:cad>
          </ns3:TrackPointExtension>
        </extensions>
      </trkpt>
      <trkpt lat="43.470410294830799102783203125" lon="1.46680212579667568206787109375">
        <ele>235.8000030517578125</ele>
        <time>2026-08-05T08:02:59.000Z</time>
        <extensions>
          <ns3:TrackPointExtension>
            <ns3:hr>61</ns3:hr>
            <ns3:cad>0</ns3:cad>
          </ns3:TrackPointExtension>
        </extensions>
      </trkpt>
      <trkpt lat="43.470410294830799102783203125" lon="1.46680212579667568206787109375">
        <ele>235.8000030517578125</ele>
        <time>2026-08-05T08:03:00.000Z</time>
        <extensions>
          <ns3:TrackPointExtension>
            <ns3:hr>61</ns3:hr>
            <ns3:cad>0</ns3:cad>
          </ns3:TrackPointExtension>
        </extensions>
      </trkpt>
      <trkpt lat="43.470410294830799102783203125" lon="1.46680212579667568206787109375">
        <ele>235.8000030517578125</ele>
        <time>2026-08-05T08:03:01.000Z</time>
        <extensions>
          <ns3:TrackPointExtension>
            <ns3:hr>61</ns3:hr>
            <ns3:cad>0</ns3:cad>
          </ns3:TrackPointExtension>
        </extensions>
      </trkpt>
      <trkpt lat="43.470410294830799102783203125" lon="1.46680212579667568206787109375">
        <ele>235.8000030517578125</ele>
        <time>2026-08-05T08:03:02.000Z</time>
        <extensions>
          <ns3:TrackPointExtension>
            <ns3:hr>61</ns3:hr>
            <ns3:cad>0</ns3:cad>
          </ns3:TrackPointExtension>
        </extensions>
      </trkpt>
      <trkpt lat="43.470410294830799102783203125" lon="1.46680212579667568206787109375">
        <ele>235.8000030517578125</ele>
        <time>2026-08-05T08:03:03.000Z</time>
        <extensions>
          <ns3:TrackPointExtension>
            <ns3:hr>61</ns3:hr>
            <ns3:cad>0</ns3:cad>
          </ns3:TrackPointExtension>
        </extensions>
      </trkpt>
      <trkpt lat="43.470410294830799102783203125" lon="1.46680212579667568206787109375">
        <ele>235.8000030517578125</ele>
        <time>2026-08-05T08:03:04.000Z</time>
        <extensions>
          <ns3:TrackPointExtension>
            <ns3:hr>62</ns3:hr>
            <ns3:cad>0</ns3:cad>
          </ns3:TrackPointExtension>
        </extensions>
      </trkpt>
      <trkpt lat="43.470410294830799102783203125" lon="1.46680212579667568206787109375">
        <ele>235.8000030517578125</ele>
        <time>2026-08-05T08:03:05.000Z</time>
        <extensions>
          <ns3:TrackPointExtension>
            <ns3:hr>62</ns3:hr>
            <ns3:cad>0</ns3:cad>
          </ns3:TrackPointExtension>
        </extensions>
      </trkpt>
      <trkpt lat="43.470410294830799102783203125" lon="1.46680212579667568206787109375">
        <ele>235.8000030517578125</ele>
        <time>2026-08-05T08:03:06.000Z</time>
        <extensions>
          <ns3:TrackPointExtension>
            <ns3:hr>63</ns3:hr>
            <ns3:cad>0</ns3:cad>
          </ns3:TrackPointExtension>
        </extensions>
      </trkpt>
      <trkpt lat="43.470410294830799102783203125" lon="1.46680212579667568206787109375">
        <ele>235.8000030517578125</ele>
        <time>2026-08-05T08:03:07.000Z</time>
        <extensions>
          <ns3:TrackPointExtension>
            <ns3:hr>67</ns3:hr>
            <ns3:cad>0</ns3:cad>
          </ns3:TrackPointExtension>
        </extensions>
      </trkpt>
      <trkpt lat="43.470410294830799102783203125" lon="1.46680212579667568206787109375">
        <ele>235.8000030517578125</ele>
        <time>2026-08-05T08:03:08.000Z</time>
        <extensions>
          <ns3:TrackPointExtension>
            <ns3:hr>70</ns3:hr>
            <ns3:cad>0</ns3:cad>
          </ns3:TrackPointExtension>
        </extensions>
      </trkpt>
      <trkpt lat="43.470410294830799102783203125" lon="1.46680212579667568206787109375">
        <ele>235.8000030517578125</ele>
        <time>2026-08-05T08:03:09.000Z</time>
        <extensions>
          <ns3:TrackPointExtension>
            <ns3:hr>70</ns3:hr>
            <ns3:cad>0</ns3:cad>
          </ns3:TrackPointExtension>
        </extensions>
      </trkpt>
      <trkpt lat="43.470410294830799102783203125" lon="1.46680212579667568206787109375">
        <ele>235.8000030517578125</ele>
        <time>2026-08-05T08:03:10.000Z</time>
        <extensions>
          <ns3:TrackPointExtension>
            <ns3:hr>71</ns3:hr>
            <ns3:cad>0</ns3:cad>
          </ns3:TrackPointExtension>
        </extensions>
      </trkpt>
      <trkpt lat="43.470410294830799102783203125" lon="1.46680212579667568206787109375">
        <ele>235.8000030517578125</ele>
        <time>2026-08-05T08:03:11.000Z</time>
        <extensions>
          <ns3:TrackPointExtension>
            <ns3:hr>71</ns3:hr>
            <ns3:cad>0</ns3:cad>
          </ns3:TrackPointExtension>
        </extensions>
      </trkpt>
      <trkpt lat="43.4704077802598476409912109375" lon="1.4668017067015171051025390625">
        <ele>235.8000030517578125</ele>
        <time>2026-08-05T08:03:12.000Z</time>
        <extensions>
          <ns3:TrackPointExtension>
            <ns3:hr>71</ns3:hr>
            <ns3:cad>0</ns3:cad>
          </ns3:TrackPointExtension>
        </extensions>
      </trkpt>
      <trkpt lat="43.470408283174037933349609375" lon="1.4668000303208827972412109375">
        <ele>235.8000030517578125</ele>
        <time>2026-08-05T08:03:13.000Z</time>
        <extensions>
          <ns3:TrackPointExtension>
            <ns3:hr>72</ns3:hr>
            <ns3:cad>0</ns3:cad>
          </ns3:TrackPointExtension>
        </extensions>
      </trkpt>
      <trkpt lat="43.47041037864983081817626953125" lon="1.46679994650185108184814453125">
        <ele>235.8000030517578125</ele>
        <time>2026-08-05T08:03:14.000Z</time>
        <extensions>
          <ns3:TrackPointExtension>
            <ns3:hr>72</ns3:hr>
            <ns3:cad>0</ns3:cad>
          </ns3:TrackPointExtension>
        </extensions>
      </trkpt>
      <trkpt lat="43.47041071392595767974853515625" lon="1.46679994650185108184814453125">
        <ele>235.8000030517578125</ele>
        <time>2026-08-05T08:03:15.000Z</time>
        <extensions>
          <ns3:TrackPointExtension>
            <ns3:hr>72</ns3:hr>
            <ns3:cad>0</ns3:cad>
          </ns3:TrackPointExtension>
        </extensions>
      </trkpt>
      <trkpt lat="43.470410294830799102783203125" lon="1.46680212579667568206787109375">
        <ele>235.8000030517578125</ele>
        <time>2026-08-05T08:03:16.000Z</time>
        <extensions>
          <ns3:TrackPointExtension>
            <ns3:hr>72</ns3:hr>
            <ns3:cad>0</ns3:cad>
          </ns3:TrackPointExtension>
        </extensions>
      </trkpt>
      <trkpt lat="43.470410294830799102783203125" lon="1.46680212579667568206787109375">
        <ele>235.8000030517578125</ele>
        <time>2026-08-05T08:03:17.000Z</time>
        <extensions>
          <ns3:TrackPointExtension>
            <ns3:hr>72</ns3:hr>
            <ns3:cad>0</ns3:cad>
          </ns3:TrackPointExtension>
        </extensions>
      </trkpt>
      <trkpt lat="43.470410294830799102783203125" lon="1.46680212579667568206787109375">
        <ele>235.8000030517578125</ele>
        <time>2026-08-05T08:03:18.000Z</time>
        <extensions>
          <ns3:TrackPointExtension>
            <ns3:hr>72</ns3:hr>
            <ns3:cad>0</ns3:cad>
          </ns3:TrackPointExtension>
        </extensions>
      </trkpt>
      <trkpt lat="43.470410294830799102783203125" lon="1.46680212579667568206787109375">
        <ele>235.8000030517578125</ele>
        <time>2026-08-05T08:03:19.000Z</time>
        <extensions>
          <ns3:TrackPointExtension>
            <ns3:hr>73</ns3:hr>
            <ns3:cad>0</ns3:cad>
          </ns3:TrackPointExtension>
        </extensions>
      </trkpt>
      <trkpt lat="43.470410294830799102783203125" lon="1.46680212579667568206787109375">
        <ele>235.8000030517578125</ele>
        <time>2026-08-05T08:03:20.000Z</time>
        <extensions>
          <ns3:TrackPointExtension>
            <ns3:hr>72</ns3:hr>
            <ns3:cad>0</ns3:cad>
          </ns3:TrackPointExtension>
        </extensions>
      </trkpt>
      <trkpt lat="43.470410294830799102783203125" lon="1.46680212579667568206787109375">
        <ele>235.8000030517578125</ele>
        <time>2026-08-05T08:03:21.000Z</time>
        <extensions>
          <ns3:TrackPointExtension>
            <ns3:hr>72</ns3:hr>
            <ns3:cad>0</ns3:cad>
          </ns3:TrackPointExtension>
        </extensions>
      </trkpt>
      <trkpt lat="43.470410294830799102783203125" lon="1.46680212579667568206787109375">
        <ele>235.8000030517578125</ele>
        <time>2026-08-05T08:03:22.000Z</time>
        <extensions>
          <ns3:TrackPointExtension>
            <ns3:hr>72</ns3:hr>
            <ns3:cad>0</ns3:cad>
          </ns3:TrackPointExtension>
        </extensions>
      </trkpt>
      <trkpt lat="43.470410294830799102783203125" lon="1.46680212579667568206787109375">
        <ele>235.8000030517578125</ele>
        <time>2026-08-05T08:03:23.000Z</time>
        <extensions>
          <ns3:TrackPointExtension>
            <ns3:hr>73</ns3:hr>
            <ns3:cad>0</ns3:cad>
          </ns3:TrackPointExtension>
        </extensions>
      </trkpt>
      <trkpt lat="43.470410294830799102783203125" lon="1.46680212579667568206787109375">
        <ele>235.8000030517578125</ele>
        <time>2026-08-05T08:03:24.000Z</time>
        <extensions>
          <ns3:TrackPointExtension>
            <ns3:hr>73</ns3:hr>
            <ns3:cad>0</ns3:cad>
          </ns3:TrackPointExtension>
        </extensions>
      </trkpt>
      <trkpt lat="43.470410294830799102783203125" lon="1.46680212579667568206787109375">
        <ele>235.600006103515625</ele>
        <time>2026-08-05T08:03:25.000Z</time>
        <extensions>
          <ns3:TrackPointExtension>
            <ns3:hr>73</ns3:hr>
            <ns3:cad>0</ns3:cad>
          </ns3:TrackPointExtension>
        </extensions>
      </trkpt>
      <trkpt lat="43.470410294830799102783203125" lon="1.46680212579667568206787109375">
        <ele>235.600006103515625</ele>
        <time>2026-08-05T08:03:26.000Z</time>
        <extensions>
          <ns3:TrackPointExtension>
            <ns3:hr>73</ns3:hr>
            <ns3:cad>0</ns3:cad>
          </ns3:TrackPointExtension>
        </extensions>
      </trkpt>
      <trkpt lat="43.470410294830799102783203125" lon="1.46680212579667568206787109375">
        <ele>235.600006103515625</ele>
        <time>2026-08-05T08:03:27.000Z</time>
        <extensions>
          <ns3:TrackPointExtension>
            <ns3:hr>73</ns3:hr>
            <ns3:cad>0</ns3:cad>
          </ns3:TrackPointExtension>
        </extensions>
      </trkpt>
      <trkpt lat="43.470410294830799102783203125" lon="1.46680212579667568206787109375">
        <ele>235.600006103515625</ele>
        <time>2026-08-05T08:03:28.000Z</time>
        <extensions>
          <ns3:TrackPointExtension>
            <ns3:hr>73</ns3:hr>
            <ns3:cad>0</ns3:cad>
          </ns3:TrackPointExtension>
        </extensions>
      </trkpt>
      <trkpt lat="43.470410294830799102783203125" lon="1.46680212579667568206787109375">
        <ele>235.600006103515625</ele>
        <time>2026-08-05T08:03:29.000Z</time>
        <extensions>
          <ns3:TrackPointExtension>
            <ns3:hr>72</ns3:hr>
            <ns3:cad>0</ns3:cad>
          </ns3:TrackPointExtension>
        </extensions>
      </trkpt>
      <trkpt lat="43.470410294830799102783203125" lon="1.46680212579667568206787109375">
        <ele>235.600006103515625</ele>
        <time>2026-08-05T08:03:30.000Z</time>
        <extensions>
          <ns3:TrackPointExtension>
            <ns3:hr>71</ns3:hr>
            <ns3:cad>0</ns3:cad>
          </ns3:TrackPointExtension>
        </extensions>
      </trkpt>
      <trkpt lat="43.470410294830799102783203125" lon="1.46680212579667568206787109375">
        <ele>235.600006103515625</ele>
        <time>2026-08-05T08:03:31.000Z</time>
        <extensions>
          <ns3:TrackPointExtension>
            <ns3:hr>68</ns3:hr>
            <ns3:cad>0</ns3:cad>
          </ns3:TrackPointExtension>
        </extensions>
      </trkpt>
      <trkpt lat="43.470410294830799102783203125" lon="1.46680212579667568206787109375">
        <ele>235.600006103515625</ele>
        <time>2026-08-05T08:03:32.000Z</time>
        <extensions>
          <ns3:TrackPointExtension>
            <ns3:hr>65</ns3:hr>
            <ns3:cad>0</ns3:cad>
          </ns3:TrackPointExtension>
        </extensions>
      </trkpt>
      <trkpt lat="43.470410294830799102783203125" lon="1.46680212579667568206787109375">
        <ele>235.600006103515625</ele>
        <time>2026-08-05T08:03:33.000Z</time>
        <extensions>
          <ns3:TrackPointExtension>
            <ns3:hr>64</ns3:hr>
            <ns3:cad>0</ns3:cad>
          </ns3:TrackPointExtension>
        </extensions>
      </trkpt>
      <trkpt lat="43.470410294830799102783203125" lon="1.46680212579667568206787109375">
        <ele>235.600006103515625</ele>
        <time>2026-08-05T08:03:34.000Z</time>
        <extensions>
          <ns3:TrackPointExtension>
            <ns3:hr>63</ns3:hr>
            <ns3:cad>0</ns3:cad>
          </ns3:TrackPointExtension>
        </extensions>
      </trkpt>
      <trkpt lat="43.470410294830799102783203125" lon="1.46680212579667568206787109375">
        <ele>235.600006103515625</ele>
        <time>2026-08-05T08:03:35.000Z</time>
        <extensions>
          <ns3:TrackPointExtension>
            <ns3:hr>61</ns3:hr>
            <ns3:cad>0</ns3:cad>
          </ns3:TrackPointExtension>
        </extensions>
      </trkpt>
      <trkpt lat="43.470410294830799102783203125" lon="1.46680212579667568206787109375">
        <ele>235.600006103515625</ele>
        <time>2026-08-05T08:03:36.000Z</time>
        <extensions>
          <ns3:TrackPointExtension>
            <ns3:hr>59</ns3:hr>
            <ns3:cad>0</ns3:cad>
          </ns3:TrackPointExtension>
        </extensions>
      </trkpt>
      <trkpt lat="43.470410294830799102783203125" lon="1.46680212579667568206787109375">
        <ele>235.600006103515625</ele>
        <time>2026-08-05T08:03:37.000Z</time>
        <extensions>
          <ns3:TrackPointExtension>
            <ns3:hr>59</ns3:hr>
            <ns3:cad>0</ns3:cad>
          </ns3:TrackPointExtension>
        </extensions>
      </trkpt>
      <trkpt lat="43.470410294830799102783203125" lon="1.46680212579667568206787109375">
        <ele>235.600006103515625</ele>
        <time>2026-08-05T08:03:38.000Z</time>
        <extensions>
          <ns3:TrackPointExtension>
            <ns3:hr>59</ns3:hr>
            <ns3:cad>0</ns3:cad>
          </ns3:TrackPointExtension>
        </extensions>
      </trkpt>
      <trkpt lat="43.470410294830799102783203125" lon="1.46680212579667568206787109375">
        <ele>235.600006103515625</ele>
        <time>2026-08-05T08:03:39.000Z</time>
        <extensions>
          <ns3:TrackPointExtension>
            <ns3:hr>58</ns3:hr>
            <ns3:cad>0</ns3:cad>
          </ns3:TrackPointExtension>
        </extensions>
      </trkpt>
      <trkpt lat="43.470410294830799102783203125" lon="1.46680212579667568206787109375">
        <ele>235.600006103515625</ele>
        <time>2026-08-05T08:03:40.000Z</time>
        <extensions>
          <ns3:TrackPointExtension>
            <ns3:hr>59</ns3:hr>
            <ns3:cad>0</ns3:cad>
          </ns3:TrackPointExtension>
        </extensions>
      </trkpt>
      <trkpt lat="43.470410294830799102783203125" lon="1.46680212579667568206787109375">
        <ele>235.600006103515625</ele>
        <time>2026-08-05T08:03:41.000Z</time>
        <extensions>
          <ns3:TrackPointExtension>
            <ns3:hr>59</ns3:hr>
            <ns3:cad>0</ns3:cad>
          </ns3:TrackPointExtension>
        </extensions>
      </trkpt>
      <trkpt lat="43.470410294830799102783203125" lon="1.46680212579667568206787109375">
        <ele>235.600006103515625</ele>
        <time>2026-08-05T08:03:42.000Z</time>
        <extensions>
          <ns3:TrackPointExtension>
            <ns3:hr>60</ns3:hr>
            <ns3:cad>0</ns3:cad>
          </ns3:TrackPointExtension>
        </extensions>
      </trkpt>
      <trkpt lat="43.470410294830799102783203125" lon="1.46680212579667568206787109375">
        <ele>235.600006103515625</ele>
        <time>2026-08-05T08:03:43.000Z</time>
        <extensions>
          <ns3:TrackPointExtension>
            <ns3:hr>60</ns3:hr>
            <ns3:cad>0</ns3:cad>
          </ns3:TrackPointExtension>
        </extensions>
      </trkpt>
      <trkpt lat="43.470410294830799102783203125" lon="1.46680212579667568206787109375">
        <ele>235.600006103515625</ele>
        <time>2026-08-05T08:03:44.000Z</time>
        <extensions>
          <ns3:TrackPointExtension>
            <ns3:hr>61</ns3:hr>
            <ns3:cad>0</ns3:cad>
          </ns3:TrackPointExtension>
        </extensions>
      </trkpt>
      <trkpt lat="43.470410294830799102783203125" lon="1.46680212579667568206787109375">
        <ele>235.600006103515625</ele>
        <time>2026-08-05T08:03:45.000Z</time>
        <extensions>
          <ns3:TrackPointExtension>
            <ns3:hr>61</ns3:hr>
            <ns3:cad>0</ns3:cad>
          </ns3:TrackPointExtension>
        </extensions>
      </trkpt>
      <trkpt lat="43.470410294830799102783203125" lon="1.46680212579667568206787109375">
        <ele>235.600006103515625</ele>
        <time>2026-08-05T08:03:46.000Z</time>
        <extensions>
          <ns3:TrackPointExtension>
            <ns3:hr>61</ns3:hr>
            <ns3:cad>0</ns3:cad>
          </ns3:TrackPointExtension>
        </extensions>
      </trkpt>
      <trkpt lat="43.470410294830799102783203125" lon="1.46680212579667568206787109375">
        <ele>235.600006103515625</ele>
        <time>2026-08-05T08:03:47.000Z</time>
        <extensions>
          <ns3:TrackPointExtension>
            <ns3:hr>60</ns3:hr>
            <ns3:cad>0</ns3:cad>
          </ns3:TrackPointExtension>
        </extensions>
      </trkpt>
      <trkpt lat="43.470410294830799102783203125" lon="1.46680212579667568206787109375">
        <ele>235.600006103515625</ele>
        <time>2026-08-05T08:03:48.000Z</time>
        <extensions>
          <ns3:TrackPointExtension>
            <ns3:hr>60</ns3:hr>
            <ns3:cad>0</ns3:cad>
          </ns3:TrackPointExtension>
        </extensions>
      </trkpt>
      <trkpt lat="43.470410294830799102783203125" lon="1.46680212579667568206787109375">
        <ele>235.600006103515625</ele>
        <time>2026-08-05T08:03:49.000Z</time>
        <extensions>
          <ns3:TrackPointExtension>
            <ns3:hr>60</ns3:hr>
            <ns3:cad>0</ns3:cad>
          </ns3:TrackPointExtension>
        </extensions>
      </trkpt>
      <trkpt lat="43.470410294830799102783203125" lon="1.46680212579667568206787109375">
        <ele>235.600006103515625</ele>
        <time>2026-08-05T08:03:50.000Z</time>
        <extensions>
          <ns3:TrackPointExtension>
            <ns3:hr>60</ns3:hr>
            <ns3:cad>0</ns3:cad>
          </ns3:TrackPointExtension>
        </extensions>
      </trkpt>
      <trkpt lat="43.470410294830799102783203125" lon="1.46680212579667568206787109375">
        <ele>235.600006103515625</ele>
        <time>2026-08-05T08:03:51.000Z</time>
        <extensions>
          <ns3:TrackPointExtension>
            <ns3:hr>60</ns3:hr>
            <ns3:cad>0</ns3:cad>
          </ns3:TrackPointExtension>
        </extensions>
      </trkpt>
      <trkpt lat="43.470410294830799102783203125" lon="1.46680212579667568206787109375">
        <ele>235.600006103515625</ele>
        <time>2026-08-05T08:03:52.000Z</time>
        <extensions>
          <ns3:TrackPointExtension>
            <ns3:hr>60</ns3:hr>
            <ns3:cad>0</ns3:cad>
          </ns3:TrackPointExtension>
        </extensions>
      </trkpt>
      <trkpt lat="43.470410294830799102783203125" lon="1.46680212579667568206787109375">
        <ele>235.399993896484375</ele>
        <time>2026-08-05T08:03:53.000Z</time>
        <extensions>
          <ns3:TrackPointExtension>
            <ns3:hr>61</ns3:hr>
            <ns3:cad>0</ns3:cad>
          </ns3:TrackPointExtension>
        </extensions>
      </trkpt>
      <trkpt lat="43.470410294830799102783203125" lon="1.46680212579667568206787109375">
        <ele>235.399993896484375</ele>
        <time>2026-08-05T08:03:54.000Z</time>
        <extensions>
          <ns3:TrackPointExtension>
            <ns3:hr>61</ns3:hr>
            <ns3:cad>0</ns3:cad>
          </ns3:TrackPointExtension>
        </extensions>
      </trkpt>
      <trkpt lat="43.470410294830799102783203125" lon="1.46680212579667568206787109375">
        <ele>235.399993896484375</ele>
        <time>2026-08-05T08:03:55.000Z</time>
        <extensions>
          <ns3:TrackPointExtension>
            <ns3:hr>61</ns3:hr>
            <ns3:cad>0</ns3:cad>
          </ns3:TrackPointExtension>
        </extensions>
      </trkpt>
      <trkpt lat="43.470410294830799102783203125" lon="1.46680212579667568206787109375">
        <ele>235.399993896484375</ele>
        <time>2026-08-05T08:03:56.000Z</time>
        <extensions>
          <ns3:TrackPointExtension>
            <ns3:hr>62</ns3:hr>
            <ns3:cad>0</ns3:cad>
          </ns3:TrackPointExtension>
        </extensions>
      </trkpt>
      <trkpt lat="43.470410294830799102783203125" lon="1.46680212579667568206787109375">
        <ele>235.399993896484375</ele>
        <time>2026-08-05T08:03:57.000Z</time>
        <extensions>
          <ns3:TrackPointExtension>
            <ns3:hr>62</ns3:hr>
            <ns3:cad>0</ns3:cad>
          </ns3:TrackPointExtension>
        </extensions>
      </trkpt>
      <trkpt lat="43.470410294830799102783203125" lon="1.46680212579667568206787109375">
        <ele>235.399993896484375</ele>
        <time>2026-08-05T08:03:58.000Z</time>
        <extensions>
          <ns3:TrackPointExtension>
            <ns3:hr>62</ns3:hr>
            <ns3:cad>0</ns3:cad>
          </ns3:TrackPointExtension>
        </extensions>
      </trkpt>
      <trkpt lat="43.470410294830799102783203125" lon="1.46680212579667568206787109375">
        <ele>235.399993896484375</ele>
        <time>2026-08-05T08:03:59.000Z</time>
        <extensions>
          <ns3:TrackPointExtension>
            <ns3:hr>63</ns3:hr>
            <ns3:cad>0</ns3:cad>
          </ns3:TrackPointExtension>
        </extensions>
      </trkpt>
      <trkpt lat="43.470410294830799102783203125" lon="1.46680212579667568206787109375">
        <ele>235.399993896484375</ele>
        <time>2026-08-05T08:04:00.000Z</time>
        <extensions>
          <ns3:TrackPointExtension>
            <ns3:hr>63</ns3:hr>
            <ns3:cad>0</ns3:cad>
          </ns3:TrackPointExtension>
        </extensions>
      </trkpt>
      <trkpt lat="43.470410294830799102783203125" lon="1.46680212579667568206787109375">
        <ele>235.399993896484375</ele>
        <time>2026-08-05T08:04:01.000Z</time>
        <extensions>
          <ns3:TrackPointExtension>
            <ns3:hr>63</ns3:hr>
            <ns3:cad>0</ns3:cad>
          </ns3:TrackPointExtension>
        </extensions>
      </trkpt>
      <trkpt lat="43.470410294830799102783203125" lon="1.46680212579667568206787109375">
        <ele>235.399993896484375</ele>
        <time>2026-08-05T08:04:02.000Z</time>
        <extensions>
          <ns3:TrackPointExtension>
            <ns3:hr>63</ns3:hr>
            <ns3:cad>0</ns3:cad>
          </ns3:TrackPointExtension>
        </extensions>
      </trkpt>
      <trkpt lat="43.470410294830799102783203125" lon="1.46680212579667568206787109375">
        <ele>235.600006103515625</ele>
        <time>2026-08-05T08:04:03.000Z</time>
        <extensions>
          <ns3:TrackPointExtension>
            <ns3:hr>63</ns3:hr>
            <ns3:cad>0</ns3:cad>
          </ns3:TrackPointExtension>
        </extensions>
      </trkpt>
      <trkpt lat="43.470410294830799102783203125" lon="1.46680212579667568206787109375">
        <ele>235.600006103515625</ele>
        <time>2026-08-05T08:04:04.000Z</time>
        <extensions>
          <ns3:TrackPointExtension>
            <ns3:hr>63</ns3:hr>
            <ns3:cad>0</ns3:cad>
          </ns3:TrackPointExtension>
        </extensions>
      </trkpt>
      <trkpt lat="43.470410294830799102783203125" lon="1.46680212579667568206787109375">
        <ele>235.600006103515625</ele>
        <time>2026-08-05T08:04:05.000Z</time>
        <extensions>
          <ns3:TrackPointExtension>
            <ns3:hr>63</ns3:hr>
            <ns3:cad>0</ns3:cad>
          </ns3:TrackPointExtension>
        </extensions>
      </trkpt>
      <trkpt lat="43.470410294830799102783203125" lon="1.46680212579667568206787109375">
        <ele>235.600006103515625</ele>
        <time>2026-08-05T08:04:06.000Z</time>
        <extensions>
          <ns3:TrackPointExtension>
            <ns3:hr>63</ns3:hr>
            <ns3:cad>0</ns3:cad>
          </ns3:TrackPointExtension>
        </extensions>
      </trkpt>
      <trkpt lat="43.470410294830799102783203125" lon="1.46680212579667568206787109375">
        <ele>235.600006103515625</ele>
        <time>2026-08-05T08:04:07.000Z</time>
        <extensions>
          <ns3:TrackPointExtension>
            <ns3:hr>63</ns3:hr>
            <ns3:cad>0</ns3:cad>
          </ns3:TrackPointExtension>
        </extensions>
      </trkpt>
      <trkpt lat="43.470410294830799102783203125" lon="1.46680212579667568206787109375">
        <ele>235.399993896484375</ele>
        <time>2026-08-05T08:04:08.000Z</time>
        <extensions>
          <ns3:TrackPointExtension>
            <ns3:hr>63</ns3:hr>
            <ns3:cad>0</ns3:cad>
          </ns3:TrackPointExtension>
        </extensions>
      </trkpt>
      <trkpt lat="43.470410294830799102783203125" lon="1.46680212579667568206787109375">
        <ele>235.399993896484375</ele>
        <time>2026-08-05T08:04:09.000Z</time>
        <extensions>
          <ns3:TrackPointExtension>
            <ns3:hr>64</ns3:hr>
            <ns3:cad>0</ns3:cad>
          </ns3:TrackPointExtension>
        </extensions>
      </trkpt>
      <trkpt lat="43.470410294830799102783203125" lon="1.46680212579667568206787109375">
        <ele>235.399993896484375</ele>
        <time>2026-08-05T08:04:10.000Z</time>
        <extensions>
          <ns3:TrackPointExtension>
            <ns3:hr>65</ns3:hr>
            <ns3:cad>0</ns3:cad>
          </ns3:TrackPointExtension>
        </extensions>
      </trkpt>
      <trkpt lat="43.470410294830799102783203125" lon="1.46680212579667568206787109375">
        <ele>235.399993896484375</ele>
        <time>2026-08-05T08:04:11.000Z</time>
        <extensions>
          <ns3:TrackPointExtension>
            <ns3:hr>66</ns3:hr>
            <ns3:cad>0</ns3:cad>
          </ns3:TrackPointExtension>
        </extensions>
      </trkpt>
      <trkpt lat="43.470410294830799102783203125" lon="1.46680212579667568206787109375">
        <ele>235.399993896484375</ele>
        <time>2026-08-05T08:04:12.000Z</time>
        <extensions>
          <ns3:TrackPointExtension>
            <ns3:hr>67</ns3:hr>
            <ns3:cad>0</ns3:cad>
          </ns3:TrackPointExtension>
        </extensions>
      </trkpt>
      <trkpt lat="43.470410294830799102783203125" lon="1.46680212579667568206787109375">
        <ele>235.399993896484375</ele>
        <time>2026-08-05T08:04:13.000Z</time>
        <extensions>
          <ns3:TrackPointExtension>
            <ns3:hr>67</ns3:hr>
            <ns3:cad>0</ns3:cad>
          </ns3:TrackPointExtension>
        </extensions>
      </trkpt>
      <trkpt lat="43.470410294830799102783203125" lon="1.46680212579667568206787109375">
        <ele>235.399993896484375</ele>
        <time>2026-08-05T08:04:14.000Z</time>
        <extensions>
          <ns3:TrackPointExtension>
            <ns3:hr>64</ns3:hr>
            <ns3:cad>0</ns3:cad>
          </ns3:TrackPointExtension>
        </extensions>
      </trkpt>
      <trkpt lat="43.470410294830799102783203125" lon="1.46680212579667568206787109375">
        <ele>235.399993896484375</ele>
        <time>2026-08-05T08:04:15.000Z</time>
        <extensions>
          <ns3:TrackPointExtension>
            <ns3:hr>63</ns3:hr>
            <ns3:cad>0</ns3:cad>
          </ns3:TrackPointExtension>
        </extensions>
      </trkpt>
      <trkpt lat="43.470410294830799102783203125" lon="1.46680212579667568206787109375">
        <ele>235.600006103515625</ele>
        <time>2026-08-05T08:04:16.000Z</time>
        <extensions>
          <ns3:TrackPointExtension>
            <ns3:hr>62</ns3:hr>
            <ns3:cad>0</ns3:cad>
          </ns3:TrackPointExtension>
        </extensions>
      </trkpt>
      <trkpt lat="43.470410294830799102783203125" lon="1.46680212579667568206787109375">
        <ele>235.600006103515625</ele>
        <time>2026-08-05T08:04:17.000Z</time>
        <extensions>
          <ns3:TrackPointExtension>
            <ns3:hr>62</ns3:hr>
            <ns3:cad>0</ns3:cad>
          </ns3:TrackPointExtension>
        </extensions>
      </trkpt>
      <trkpt lat="43.470410294830799102783203125" lon="1.46680212579667568206787109375">
        <ele>235.600006103515625</ele>
        <time>2026-08-05T08:04:18.000Z</time>
        <extensions>
          <ns3:TrackPointExtension>
            <ns3:hr>61</ns3:hr>
            <ns3:cad>0</ns3:cad>
          </ns3:TrackPointExtension>
        </extensions>
      </trkpt>
      <trkpt lat="43.470410294830799102783203125" lon="1.46680212579667568206787109375">
        <ele>235.600006103515625</ele>
        <time>2026-08-05T08:04:19.000Z</time>
        <extensions>
          <ns3:TrackPointExtension>
            <ns3:hr>61</ns3:hr>
            <ns3:cad>0</ns3:cad>
          </ns3:TrackPointExtension>
        </extensions>
      </trkpt>
      <trkpt lat="43.470410294830799102783203125" lon="1.46680212579667568206787109375">
        <ele>235.600006103515625</ele>
        <time>2026-08-05T08:04:20.000Z</time>
        <extensions>
          <ns3:TrackPointExtension>
            <ns3:hr>61</ns3:hr>
            <ns3:cad>0</ns3:cad>
          </ns3:TrackPointExtension>
        </extensions>
      </trkpt>
      <trkpt lat="43.470410294830799102783203125" lon="1.46680212579667568206787109375">
        <ele>235.399993896484375</ele>
        <time>2026-08-05T08:04:21.000Z</time>
        <extensions>
          <ns3:TrackPointExtension>
            <ns3:hr>61</ns3:hr>
            <ns3:cad>0</ns3:cad>
          </ns3:TrackPointExtension>
        </extensions>
      </trkpt>
      <trkpt lat="43.470410294830799102783203125" lon="1.46680212579667568206787109375">
        <ele>235.399993896484375</ele>
        <time>2026-08-05T08:04:22.000Z</time>
        <extensions>
          <ns3:TrackPointExtension>
            <ns3:hr>61</ns3:hr>
            <ns3:cad>0</ns3:cad>
          </ns3:TrackPointExtension>
        </extensions>
      </trkpt>
      <trkpt lat="43.470410294830799102783203125" lon="1.46680212579667568206787109375">
        <ele>235.399993896484375</ele>
        <time>2026-08-05T08:04:23.000Z</time>
        <extensions>
          <ns3:TrackPointExtension>
            <ns3:hr>60</ns3:hr>
            <ns3:cad>0</ns3:cad>
          </ns3:TrackPointExtension>
        </extensions>
      </trkpt>
      <trkpt lat="43.470410294830799102783203125" lon="1.46680212579667568206787109375">
        <ele>235.399993896484375</ele>
        <time>2026-08-05T08:04:24.000Z</time>
        <extensions>
          <ns3:TrackPointExtension>
            <ns3:hr>60</ns3:hr>
            <ns3:cad>0</ns3:cad>
          </ns3:TrackPointExtension>
        </extensions>
      </trkpt>
      <trkpt lat="43.470410294830799102783203125" lon="1.46680212579667568206787109375">
        <ele>235.399993896484375</ele>
        <time>2026-08-05T08:04:25.000Z</time>
        <extensions>
          <ns3:TrackPointExtension>
            <ns3:hr>60</ns3:hr>
            <ns3:cad>0</ns3:cad>
          </ns3:TrackPointExtension>
        </extensions>
      </trkpt>
      <trkpt lat="43.470410294830799102783203125" lon="1.46680212579667568206787109375">
        <ele>235.399993896484375</ele>
        <time>2026-08-05T08:04:26.000Z</time>
        <extensions>
          <ns3:TrackPointExtension>
            <ns3:hr>60</ns3:hr>
            <ns3:cad>0</ns3:cad>
          </ns3:TrackPointExtension>
        </extensions>
      </trkpt>
      <trkpt lat="43.470410294830799102783203125" lon="1.46680212579667568206787109375">
        <ele>235.399993896484375</ele>
        <time>2026-08-05T08:04:27.000Z</time>
        <extensions>
          <ns3:TrackPointExtension>
            <ns3:hr>60</ns3:hr>
            <ns3:cad>0</ns3:cad>
          </ns3:TrackPointExtension>
        </extensions>
      </trkpt>
      <trkpt lat="43.470410294830799102783203125" lon="1.46680212579667568206787109375">
        <ele>235.399993896484375</ele>
        <time>2026-08-05T08:04:28.000Z</time>
        <extensions>
          <ns3:TrackPointExtension>
            <ns3:hr>60</ns3:hr>
            <ns3:cad>0</ns3:cad>
          </ns3:TrackPointExtension>
        </extensions>
      </trkpt>
      <trkpt lat="43.470410294830799102783203125" lon="1.46680212579667568206787109375">
        <ele>235.399993896484375</ele>
        <time>2026-08-05T08:04:29.000Z</time>
        <extensions>
          <ns3:TrackPointExtension>
            <ns3:hr>60</ns3:hr>
            <ns3:cad>0</ns3:cad>
          </ns3:TrackPointExtension>
        </extensions>
      </trkpt>
      <trkpt lat="43.470410294830799102783203125" lon="1.46680212579667568206787109375">
        <ele>235.399993896484375</ele>
        <time>2026-08-05T08:04:30.000Z</time>
        <extensions>
          <ns3:TrackPointExtension>
            <ns3:hr>60</ns3:hr>
            <ns3:cad>0</ns3:cad>
          </ns3:TrackPointExtension>
        </extensions>
      </trkpt>
      <trkpt lat="43.470410294830799102783203125" lon="1.46680212579667568206787109375">
        <ele>235.399993896484375</ele>
        <time>2026-08-05T08:04:31.000Z</time>
        <extensions>
          <ns3:TrackPointExtension>
            <ns3:hr>60</ns3:hr>
            <ns3:cad>0</ns3:cad>
          </ns3:TrackPointExtension>
        </extensions>
      </trkpt>
      <trkpt lat="43.470410294830799102783203125" lon="1.46680212579667568206787109375">
        <ele>235.399993896484375</ele>
        <time>2026-08-05T08:04:32.000Z</time>
        <extensions>
          <ns3:TrackPointExtension>
            <ns3:hr>61</ns3:hr>
            <ns3:cad>0</ns3:cad>
          </ns3:TrackPointExtension>
        </extensions>
      </trkpt>
      <trkpt lat="43.470410294830799102783203125" lon="1.46680212579667568206787109375">
        <ele>235.399993896484375</ele>
        <time>2026-08-05T08:04:33.000Z</time>
        <extensions>
          <ns3:TrackPointExtension>
            <ns3:hr>62</ns3:hr>
            <ns3:cad>0</ns3:cad>
          </ns3:TrackPointExtension>
        </extensions>
      </trkpt>
      <trkpt lat="43.470410294830799102783203125" lon="1.46680212579667568206787109375">
        <ele>235.399993896484375</ele>
        <time>2026-08-05T08:04:34.000Z</time>
        <extensions>
          <ns3:TrackPointExtension>
            <ns3:hr>62</ns3:hr>
            <ns3:cad>0</ns3:cad>
          </ns3:TrackPointExtension>
        </extensions>
      </trkpt>
      <trkpt lat="43.470410294830799102783203125" lon="1.46680212579667568206787109375">
        <ele>235.399993896484375</ele>
        <time>2026-08-05T08:04:35.000Z</time>
        <extensions>
          <ns3:TrackPointExtension>
            <ns3:hr>62</ns3:hr>
            <ns3:cad>0</ns3:cad>
          </ns3:TrackPointExtension>
        </extensions>
      </trkpt>
      <trkpt lat="43.470410294830799102783203125" lon="1.46680212579667568206787109375">
        <ele>235.399993896484375</ele>
        <time>2026-08-05T08:04:36.000Z</time>
        <extensions>
          <ns3:TrackPointExtension>
            <ns3:hr>63</ns3:hr>
            <ns3:cad>0</ns3:cad>
          </ns3:TrackPointExtension>
        </extensions>
      </trkpt>
      <trkpt lat="43.470410294830799102783203125" lon="1.46680212579667568206787109375">
        <ele>235.399993896484375</ele>
        <time>2026-08-05T08:04:37.000Z</time>
        <extensions>
          <ns3:TrackPointExtension>
            <ns3:hr>63</ns3:hr>
            <ns3:cad>0</ns3:cad>
          </ns3:TrackPointExtension>
        </extensions>
      </trkpt>
      <trkpt lat="43.470410294830799102783203125" lon="1.46680212579667568206787109375">
        <ele>235.399993896484375</ele>
        <time>2026-08-05T08:04:38.000Z</time>
        <extensions>
          <ns3:TrackPointExtension>
            <ns3:hr>63</ns3:hr>
            <ns3:cad>0</ns3:cad>
          </ns3:TrackPointExtension>
        </extensions>
      </trkpt>
      <trkpt lat="43.470410294830799102783203125" lon="1.46680212579667568206787109375">
        <ele>235.1999969482421875</ele>
        <time>2026-08-05T08:04:39.000Z</time>
        <extensions>
          <ns3:TrackPointExtension>
            <ns3:hr>64</ns3:hr>
            <ns3:cad>0</ns3:cad>
          </ns3:TrackPointExtension>
        </extensions>
      </trkpt>
      <trkpt lat="43.470410294830799102783203125" lon="1.46680212579667568206787109375">
        <ele>235.1999969482421875</ele>
        <time>2026-08-05T08:04:40.000Z</time>
        <extensions>
          <ns3:TrackPointExtension>
            <ns3:hr>65</ns3:hr>
            <ns3:cad>0</ns3:cad>
          </ns3:TrackPointExtension>
        </extensions>
      </trkpt>
      <trkpt lat="43.470410294830799102783203125" lon="1.46680212579667568206787109375">
        <ele>235.1999969482421875</ele>
        <time>2026-08-05T08:04:41.000Z</time>
        <extensions>
          <ns3:TrackPointExtension>
            <ns3:hr>65</ns3:hr>
            <ns3:cad>0</ns3:cad>
          </ns3:TrackPointExtension>
        </extensions>
      </trkpt>
      <trkpt lat="43.470410294830799102783203125" lon="1.46680212579667568206787109375">
        <ele>235.1999969482421875</ele>
        <time>2026-08-05T08:04:42.000Z</time>
        <extensions>
          <ns3:TrackPointExtension>
            <ns3:hr>65</ns3:hr>
            <ns3:cad>0</ns3:cad>
          </ns3:TrackPointExtension>
        </extensions>
      </trkpt>
      <trkpt lat="43.470410294830799102783203125" lon="1.46680212579667568206787109375">
        <ele>235.1999969482421875</ele>
        <time>2026-08-05T08:04:43.000Z</time>
        <extensions>
          <ns3:TrackPointExtension>
            <ns3:hr>65</ns3:hr>
            <ns3:cad>0</ns3:cad>
          </ns3:TrackPointExtension>
        </extensions>
      </trkpt>
      <trkpt lat="43.470410294830799102783203125" lon="1.46680212579667568206787109375">
        <ele>235.1999969482421875</ele>
        <time>2026-08-05T08:04:44.000Z</time>
        <extensions>
          <ns3:TrackPointExtension>
            <ns3:hr>65</ns3:hr>
            <ns3:cad>0</ns3:cad>
          </ns3:TrackPointExtension>
        </extensions>
      </trkpt>
      <trkpt lat="43.470410294830799102783203125" lon="1.46680212579667568206787109375">
        <ele>235.1999969482421875</ele>
        <time>2026-08-05T08:04:45.000Z</time>
        <extensions>
          <ns3:TrackPointExtension>
            <ns3:hr>65</ns3:hr>
            <ns3:cad>0</ns3:cad>
          </ns3:TrackPointExtension>
        </extensions>
      </trkpt>
      <trkpt lat="43.470410294830799102783203125" lon="1.46680212579667568206787109375">
        <ele>235.1999969482421875</ele>
        <time>2026-08-05T08:04:46.000Z</time>
        <extensions>
          <ns3:TrackPointExtension>
            <ns3:hr>65</ns3:hr>
            <ns3:cad>0</ns3:cad>
          </ns3:TrackPointExtension>
        </extensions>
      </trkpt>
      <trkpt lat="43.470410294830799102783203125" lon="1.46680212579667568206787109375">
        <ele>235.1999969482421875</ele>
        <time>2026-08-05T08:04:47.000Z</time>
        <extensions>
          <ns3:TrackPointExtension>
            <ns3:hr>65</ns3:hr>
            <ns3:cad>0</ns3:cad>
          </ns3:TrackPointExtension>
        </extensions>
      </trkpt>
      <trkpt lat="43.470410294830799102783203125" lon="1.46680212579667568206787109375">
        <ele>235.1999969482421875</ele>
        <time>2026-08-05T08:04:48.000Z</time>
        <extensions>
          <ns3:TrackPointExtension>
            <ns3:hr>65</ns3:hr>
            <ns3:cad>0</ns3:cad>
          </ns3:TrackPointExtension>
        </extensions>
      </trkpt>
      <trkpt lat="43.470410294830799102783203125" lon="1.46680212579667568206787109375">
        <ele>235.1999969482421875</ele>
        <time>2026-08-05T08:04:49.000Z</time>
        <extensions>
          <ns3:TrackPointExtension>
            <ns3:hr>65</ns3:hr>
            <ns3:cad>0</ns3:cad>
          </ns3:TrackPointExtension>
        </extensions>
      </trkpt>
      <trkpt lat="43.470410294830799102783203125" lon="1.46680212579667568206787109375">
        <ele>235.1999969482421875</ele>
        <time>2026-08-05T08:04:50.000Z</time>
        <extensions>
          <ns3:TrackPointExtension>
            <ns3:hr>65</ns3:hr>
            <ns3:cad>0</ns3:cad>
          </ns3:TrackPointExtension>
        </extensions>
      </trkpt>
      <trkpt lat="43.470410294830799102783203125" lon="1.46680212579667568206787109375">
        <ele>235.399993896484375</ele>
        <time>2026-08-05T08:04:51.000Z</time>
        <extensions>
          <ns3:TrackPointExtension>
            <ns3:hr>66</ns3:hr>
            <ns3:cad>0</ns3:cad>
          </ns3:TrackPointExtension>
        </extensions>
      </trkpt>
      <trkpt lat="43.470410294830799102783203125" lon="1.46680212579667568206787109375">
        <ele>235.399993896484375</ele>
        <time>2026-08-05T08:04:52.000Z</time>
        <extensions>
          <ns3:TrackPointExtension>
            <ns3:hr>66</ns3:hr>
            <ns3:cad>0</ns3:cad>
          </ns3:TrackPointExtension>
        </extensions>
      </trkpt>
      <trkpt lat="43.470410294830799102783203125" lon="1.46680212579667568206787109375">
        <ele>235.399993896484375</ele>
        <time>2026-08-05T08:04:53.000Z</time>
        <extensions>
          <ns3:TrackPointExtension>
            <ns3:hr>66</ns3:hr>
            <ns3:cad>0</ns3:cad>
          </ns3:TrackPointExtension>
        </extensions>
      </trkpt>
      <trkpt lat="43.470410294830799102783203125" lon="1.46680212579667568206787109375">
        <ele>235.1999969482421875</ele>
        <time>2026-08-05T08:04:54.000Z</time>
        <extensions>
          <ns3:TrackPointExtension>
            <ns3:hr>66</ns3:hr>
            <ns3:cad>0</ns3:cad>
          </ns3:TrackPointExtension>
        </extensions>
      </trkpt>
      <trkpt lat="43.470410294830799102783203125" lon="1.46680212579667568206787109375">
        <ele>235.1999969482421875</ele>
        <time>2026-08-05T08:04:55.000Z</time>
        <extensions>
          <ns3:TrackPointExtension>
            <ns3:hr>66</ns3:hr>
            <ns3:cad>0</ns3:cad>
          </ns3:TrackPointExtension>
        </extensions>
      </trkpt>
      <trkpt lat="43.470410294830799102783203125" lon="1.46680212579667568206787109375">
        <ele>235.1999969482421875</ele>
        <time>2026-08-05T08:04:56.000Z</time>
        <extensions>
          <ns3:TrackPointExtension>
            <ns3:hr>66</ns3:hr>
            <ns3:cad>0</ns3:cad>
          </ns3:TrackPointExtension>
        </extensions>
      </trkpt>
      <trkpt lat="43.470410294830799102783203125" lon="1.46680212579667568206787109375">
        <ele>235.1999969482421875</ele>
        <time>2026-08-05T08:04:57.000Z</time>
        <extensions>
          <ns3:TrackPointExtension>
            <ns3:hr>65</ns3:hr>
            <ns3:cad>0</ns3:cad>
          </ns3:TrackPointExtension>
        </extensions>
      </trkpt>
      <trkpt lat="43.470410294830799102783203125" lon="1.46680212579667568206787109375">
        <ele>235.1999969482421875</ele>
        <time>2026-08-05T08:04:58.000Z</time>
        <extensions>
          <ns3:TrackPointExtension>
            <ns3:hr>65</ns3:hr>
            <ns3:cad>0</ns3:cad>
          </ns3:TrackPointExtension>
        </extensions>
      </trkpt>
      <trkpt lat="43.470410294830799102783203125" lon="1.46680212579667568206787109375">
        <ele>235.1999969482421875</ele>
        <time>2026-08-05T08:04:59.000Z</time>
        <extensions>
          <ns3:TrackPointExtension>
            <ns3:hr>64</ns3:hr>
            <ns3:cad>0</ns3:cad>
          </ns3:TrackPointExtension>
        </extensions>
      </trkpt>
      <trkpt lat="43.470410294830799102783203125" lon="1.46680212579667568206787109375">
        <ele>235.1999969482421875</ele>
        <time>2026-08-05T08:05:00.000Z</time>
        <extensions>
          <ns3:TrackPointExtension>
            <ns3:hr>65</ns3:hr>
            <ns3:cad>0</ns3:cad>
          </ns3:TrackPointExtension>
        </extensions>
      </trkpt>
      <trkpt lat="43.470410294830799102783203125" lon="1.46680212579667568206787109375">
        <ele>235.1999969482421875</ele>
        <time>2026-08-05T08:05:01.000Z</time>
        <extensions>
          <ns3:TrackPointExtension>
            <ns3:hr>67</ns3:hr>
            <ns3:cad>0</ns3:cad>
          </ns3:TrackPointExtension>
        </extensions>
      </trkpt>
      <trkpt lat="43.470410294830799102783203125" lon="1.46680212579667568206787109375">
        <ele>235.1999969482421875</ele>
        <time>2026-08-05T08:05:02.000Z</time>
        <extensions>
          <ns3:TrackPointExtension>
            <ns3:hr>68</ns3:hr>
            <ns3:cad>0</ns3:cad>
          </ns3:TrackPointExtension>
        </extensions>
      </trkpt>
      <trkpt lat="43.470410294830799102783203125" lon="1.46680212579667568206787109375">
        <ele>235.1999969482421875</ele>
        <time>2026-08-05T08:05:03.000Z</time>
        <extensions>
          <ns3:TrackPointExtension>
            <ns3:hr>69</ns3:hr>
            <ns3:cad>0</ns3:cad>
          </ns3:TrackPointExtension>
        </extensions>
      </trkpt>
      <trkpt lat="43.470410294830799102783203125" lon="1.46680212579667568206787109375">
        <ele>235.1999969482421875</ele>
        <time>2026-08-05T08:05:04.000Z</time>
        <extensions>
          <ns3:TrackPointExtension>
            <ns3:hr>69</ns3:hr>
            <ns3:cad>0</ns3:cad>
          </ns3:TrackPointExtension>
        </extensions>
      </trkpt>
      <trkpt lat="43.47040660679340362548828125" lon="1.46679525263607501983642578125">
        <ele>235.1999969482421875</ele>
        <time>2026-08-05T08:05:05.000Z</time>
        <extensions>
          <ns3:TrackPointExtension>
            <ns3:hr>70</ns3:hr>
            <ns3:cad>0</ns3:cad>
          </ns3:TrackPointExtension>
        </extensions>
      </trkpt>
      <trkpt lat="43.47040886990725994110107421875" lon="1.46679542027413845062255859375">
        <ele>235.1999969482421875</ele>
        <time>2026-08-05T08:05:06.000Z</time>
        <extensions>
          <ns3:TrackPointExtension>
            <ns3:hr>70</ns3:hr>
            <ns3:cad>0</ns3:cad>
          </ns3:TrackPointExtension>
        </extensions>
      </trkpt>
      <trkpt lat="43.47040920518338680267333984375" lon="1.46680095233023166656494140625">
        <ele>235.1999969482421875</ele>
        <time>2026-08-05T08:05:07.000Z</time>
        <extensions>
          <ns3:TrackPointExtension>
            <ns3:hr>71</ns3:hr>
            <ns3:cad>0</ns3:cad>
          </ns3:TrackPointExtension>
        </extensions>
      </trkpt>
      <trkpt lat="43.4704074449837207794189453125" lon="1.46679776720702648162841796875">
        <ele>235.1999969482421875</ele>
        <time>2026-08-05T08:05:08.000Z</time>
        <extensions>
          <ns3:TrackPointExtension>
            <ns3:hr>71</ns3:hr>
            <ns3:cad>0</ns3:cad>
          </ns3:TrackPointExtension>
        </extensions>
      </trkpt>
      <trkpt lat="43.47040769644081592559814453125" lon="1.46679885685443878173828125">
        <ele>235.1999969482421875</ele>
        <time>2026-08-05T08:05:09.000Z</time>
        <extensions>
          <ns3:TrackPointExtension>
            <ns3:hr>71</ns3:hr>
            <ns3:cad>0</ns3:cad>
          </ns3:TrackPointExtension>
        </extensions>
      </trkpt>
      <trkpt lat="43.4704087860882282257080078125" lon="1.466797851026058197021484375">
        <ele>235</ele>
        <time>2026-08-05T08:05:10.000Z</time>
        <extensions>
          <ns3:TrackPointExtension>
            <ns3:hr>70</ns3:hr>
            <ns3:cad>0</ns3:cad>
          </ns3:TrackPointExtension>
        </extensions>
      </trkpt>
      <trkpt lat="43.470408618450164794921875" lon="1.46679659374058246612548828125">
        <ele>235</ele>
        <time>2026-08-05T08:05:11.000Z</time>
        <extensions>
          <ns3:TrackPointExtension>
            <ns3:hr>71</ns3:hr>
            <ns3:cad>0</ns3:cad>
          </ns3:TrackPointExtension>
        </extensions>
      </trkpt>
      <trkpt lat="43.47040928900241851806640625" lon="1.46679709665477275848388671875">
        <ele>235</ele>
        <time>2026-08-05T08:05:12.000Z</time>
        <extensions>
          <ns3:TrackPointExtension>
            <ns3:hr>71</ns3:hr>
            <ns3:cad>0</ns3:cad>
          </ns3:TrackPointExtension>
        </extensions>
      </trkpt>
      <trkpt lat="43.4704094566404819488525390625" lon="1.46679860539734363555908203125">
        <ele>235</ele>
        <time>2026-08-05T08:05:13.000Z</time>
        <extensions>
          <ns3:TrackPointExtension>
            <ns3:hr>70</ns3:hr>
            <ns3:cad>0</ns3:cad>
          </ns3:TrackPointExtension>
        </extensions>
      </trkpt>
      <trkpt lat="43.47040618769824504852294921875" lon="1.46679894067347049713134765625">
        <ele>235</ele>
        <time>2026-08-05T08:05:14.000Z</time>
        <extensions>
          <ns3:TrackPointExtension>
            <ns3:hr>71</ns3:hr>
            <ns3:cad>0</ns3:cad>
          </ns3:TrackPointExtension>
        </extensions>
      </trkpt>
      <trkpt lat="43.4704067744314670562744140625" lon="1.46679751574993133544921875">
        <ele>234.8000030517578125</ele>
        <time>2026-08-05T08:05:15.000Z</time>
        <extensions>
          <ns3:TrackPointExtension>
            <ns3:hr>71</ns3:hr>
            <ns3:cad>0</ns3:cad>
          </ns3:TrackPointExtension>
        </extensions>
      </trkpt>
      <trkpt lat="43.4704071097075939178466796875" lon="1.46679558791220188140869140625">
        <ele>234.8000030517578125</ele>
        <time>2026-08-05T08:05:16.000Z</time>
        <extensions>
          <ns3:TrackPointExtension>
            <ns3:hr>71</ns3:hr>
            <ns3:cad>0</ns3:cad>
          </ns3:TrackPointExtension>
        </extensions>
      </trkpt>
      <trkpt lat="43.470406271517276763916015625" lon="1.46679508499801158905029296875">
        <ele>234.8000030517578125</ele>
        <time>2026-08-05T08:05:17.000Z</time>
        <extensions>
          <ns3:TrackPointExtension>
            <ns3:hr>73</ns3:hr>
            <ns3:cad>0</ns3:cad>
          </ns3:TrackPointExtension>
        </extensions>
      </trkpt>
      <trkpt lat="43.47040685825049877166748046875" lon="1.4667933247983455657958984375">
        <ele>234.8000030517578125</ele>
        <time>2026-08-05T08:05:18.000Z</time>
        <extensions>
          <ns3:TrackPointExtension>
            <ns3:hr>74</ns3:hr>
            <ns3:cad>0</ns3:cad>
          </ns3:TrackPointExtension>
        </extensions>
      </trkpt>
      <trkpt lat="43.47040618769824504852294921875" lon="1.46679022349417209625244140625">
        <ele>234.8000030517578125</ele>
        <time>2026-08-05T08:05:19.000Z</time>
        <extensions>
          <ns3:TrackPointExtension>
            <ns3:hr>75</ns3:hr>
            <ns3:cad>0</ns3:cad>
          </ns3:TrackPointExtension>
        </extensions>
      </trkpt>
      <trkpt lat="43.470410294830799102783203125" lon="1.46680212579667568206787109375">
        <ele>234.8000030517578125</ele>
        <time>2026-08-05T08:05:20.000Z</time>
        <extensions>
          <ns3:TrackPointExtension>
            <ns3:hr>75</ns3:hr>
            <ns3:cad>0</ns3:cad>
          </ns3:TrackPointExtension>
        </extensions>
      </trkpt>
      <trkpt lat="43.470410294830799102783203125" lon="1.46680212579667568206787109375">
        <ele>234.8000030517578125</ele>
        <time>2026-08-05T08:05:21.000Z</time>
        <extensions>
          <ns3:TrackPointExtension>
            <ns3:hr>75</ns3:hr>
            <ns3:cad>0</ns3:cad>
          </ns3:TrackPointExtension>
        </extensions>
      </trkpt>
      <trkpt lat="43.470410294830799102783203125" lon="1.46680212579667568206787109375">
        <ele>234.8000030517578125</ele>
        <time>2026-08-05T08:05:22.000Z</time>
        <extensions>
          <ns3:TrackPointExtension>
            <ns3:hr>75</ns3:hr>
            <ns3:cad>0</ns3:cad>
          </ns3:TrackPointExtension>
        </extensions>
      </trkpt>
      <trkpt lat="43.470410294830799102783203125" lon="1.46680212579667568206787109375">
        <ele>234.8000030517578125</ele>
        <time>2026-08-05T08:05:23.000Z</time>
        <extensions>
          <ns3:TrackPointExtension>
            <ns3:hr>75</ns3:hr>
            <ns3:cad>0</ns3:cad>
          </ns3:TrackPointExtension>
        </extensions>
      </trkpt>
      <trkpt lat="43.470410294830799102783203125" lon="1.46680212579667568206787109375">
        <ele>234.8000030517578125</ele>
        <time>2026-08-05T08:05:24.000Z</time>
        <extensions>
          <ns3:TrackPointExtension>
            <ns3:hr>75</ns3:hr>
            <ns3:cad>0</ns3:cad>
          </ns3:TrackPointExtension>
        </extensions>
      </trkpt>
      <trkpt lat="43.470410294830799102783203125" lon="1.46680212579667568206787109375">
        <ele>234.8000030517578125</ele>
        <time>2026-08-05T08:05:25.000Z</time>
        <extensions>
          <ns3:TrackPointExtension>
            <ns3:hr>75</ns3:hr>
            <ns3:cad>0</ns3:cad>
          </ns3:TrackPointExtension>
        </extensions>
      </trkpt>
      <trkpt lat="43.470410294830799102783203125" lon="1.46680212579667568206787109375">
        <ele>235</ele>
        <time>2026-08-05T08:05:26.000Z</time>
        <extensions>
          <ns3:TrackPointExtension>
            <ns3:hr>75</ns3:hr>
            <ns3:cad>0</ns3:cad>
          </ns3:TrackPointExtension>
        </extensions>
      </trkpt>
      <trkpt lat="43.470410294830799102783203125" lon="1.46680212579667568206787109375">
        <ele>235</ele>
        <time>2026-08-05T08:05:27.000Z</time>
        <extensions>
          <ns3:TrackPointExtension>
            <ns3:hr>76</ns3:hr>
            <ns3:cad>0</ns3:cad>
          </ns3:TrackPointExtension>
        </extensions>
      </trkpt>
      <trkpt lat="43.470410294830799102783203125" lon="1.46680212579667568206787109375">
        <ele>235</ele>
        <time>2026-08-05T08:05:28.000Z</time>
        <extensions>
          <ns3:TrackPointExtension>
            <ns3:hr>75</ns3:hr>
            <ns3:cad>0</ns3:cad>
          </ns3:TrackPointExtension>
        </extensions>
      </trkpt>
      <trkpt lat="43.470410294830799102783203125" lon="1.46680212579667568206787109375">
        <ele>235</ele>
        <time>2026-08-05T08:05:29.000Z</time>
        <extensions>
          <ns3:TrackPointExtension>
            <ns3:hr>74</ns3:hr>
            <ns3:cad>0</ns3:cad>
          </ns3:TrackPointExtension>
        </extensions>
      </trkpt>
      <trkpt lat="43.470410294830799102783203125" lon="1.46680212579667568206787109375">
        <ele>235</ele>
        <time>2026-08-05T08:05:30.000Z</time>
        <extensions>
          <ns3:TrackPointExtension>
            <ns3:hr>72</ns3:hr>
            <ns3:cad>0</ns3:cad>
          </ns3:TrackPointExtension>
        </extensions>
      </trkpt>
      <trkpt lat="43.470410294830799102783203125" lon="1.46680212579667568206787109375">
        <ele>235</ele>
        <time>2026-08-05T08:05:31.000Z</time>
        <extensions>
          <ns3:TrackPointExtension>
            <ns3:hr>69</ns3:hr>
            <ns3:cad>0</ns3:cad>
          </ns3:TrackPointExtension>
        </extensions>
      </trkpt>
      <trkpt lat="43.470410294830799102783203125" lon="1.46680212579667568206787109375">
        <ele>234.8000030517578125</ele>
        <time>2026-08-05T08:05:32.000Z</time>
        <extensions>
          <ns3:TrackPointExtension>
            <ns3:hr>66</ns3:hr>
            <ns3:cad>0</ns3:cad>
          </ns3:TrackPointExtension>
        </extensions>
      </trkpt>
      <trkpt lat="43.470410294830799102783203125" lon="1.46680212579667568206787109375">
        <ele>234.8000030517578125</ele>
        <time>2026-08-05T08:05:33.000Z</time>
        <extensions>
          <ns3:TrackPointExtension>
            <ns3:hr>64</ns3:hr>
            <ns3:cad>0</ns3:cad>
          </ns3:TrackPointExtension>
        </extensions>
      </trkpt>
      <trkpt lat="43.470410294830799102783203125" lon="1.46680212579667568206787109375">
        <ele>234.8000030517578125</ele>
        <time>2026-08-05T08:05:34.000Z</time>
        <extensions>
          <ns3:TrackPointExtension>
            <ns3:hr>63</ns3:hr>
            <ns3:cad>0</ns3:cad>
          </ns3:TrackPointExtension>
        </extensions>
      </trkpt>
      <trkpt lat="43.470410294830799102783203125" lon="1.46680212579667568206787109375">
        <ele>234.8000030517578125</ele>
        <time>2026-08-05T08:05:35.000Z</time>
        <extensions>
          <ns3:TrackPointExtension>
            <ns3:hr>63</ns3:hr>
            <ns3:cad>0</ns3:cad>
          </ns3:TrackPointExtension>
        </extensions>
      </trkpt>
      <trkpt lat="43.470410294830799102783203125" lon="1.46680212579667568206787109375">
        <ele>234.8000030517578125</ele>
        <time>2026-08-05T08:05:36.000Z</time>
        <extensions>
          <ns3:TrackPointExtension>
            <ns3:hr>62</ns3:hr>
            <ns3:cad>0</ns3:cad>
          </ns3:TrackPointExtension>
        </extensions>
      </trkpt>
      <trkpt lat="43.47040836699306964874267578125" lon="1.466791816055774688720703125">
        <ele>234.8000030517578125</ele>
        <time>2026-08-05T08:05:37.000Z</time>
        <extensions>
          <ns3:TrackPointExtension>
            <ns3:hr>62</ns3:hr>
            <ns3:cad>0</ns3:cad>
          </ns3:TrackPointExtension>
        </extensions>
      </trkpt>
      <trkpt lat="43.47040602006018161773681640625" lon="1.4667872898280620574951171875">
        <ele>234.8000030517578125</ele>
        <time>2026-08-05T08:05:38.000Z</time>
        <extensions>
          <ns3:TrackPointExtension>
            <ns3:hr>61</ns3:hr>
            <ns3:cad>0</ns3:cad>
          </ns3:TrackPointExtension>
        </extensions>
      </trkpt>
      <trkpt lat="43.47040484659373760223388671875" lon="1.46678821183741092681884765625">
        <ele>235</ele>
        <time>2026-08-05T08:05:39.000Z</time>
        <extensions>
          <ns3:TrackPointExtension>
            <ns3:hr>61</ns3:hr>
            <ns3:cad>0</ns3:cad>
          </ns3:TrackPointExtension>
        </extensions>
      </trkpt>
      <trkpt lat="43.47041071392595767974853515625" lon="1.46679508499801158905029296875">
        <ele>235</ele>
        <time>2026-08-05T08:05:40.000Z</time>
        <extensions>
          <ns3:TrackPointExtension>
            <ns3:hr>61</ns3:hr>
            <ns3:cad>0</ns3:cad>
          </ns3:TrackPointExtension>
        </extensions>
      </trkpt>
      <trkpt lat="43.47040752880275249481201171875" lon="1.46679625846445560455322265625">
        <ele>235</ele>
        <time>2026-08-05T08:05:41.000Z</time>
        <extensions>
          <ns3:TrackPointExtension>
            <ns3:hr>62</ns3:hr>
            <ns3:cad>0</ns3:cad>
          </ns3:TrackPointExtension>
        </extensions>
      </trkpt>
      <trkpt lat="43.470410294830799102783203125" lon="1.46680212579667568206787109375">
        <ele>235</ele>
        <time>2026-08-05T08:05:42.000Z</time>
        <extensions>
          <ns3:TrackPointExtension>
            <ns3:hr>61</ns3:hr>
            <ns3:cad>0</ns3:cad>
          </ns3:TrackPointExtension>
        </extensions>
      </trkpt>
      <trkpt lat="43.470410294830799102783203125" lon="1.46680212579667568206787109375">
        <ele>234.8000030517578125</ele>
        <time>2026-08-05T08:05:43.000Z</time>
        <extensions>
          <ns3:TrackPointExtension>
            <ns3:hr>61</ns3:hr>
            <ns3:cad>0</ns3:cad>
          </ns3:TrackPointExtension>
        </extensions>
      </trkpt>
      <trkpt lat="43.470410294830799102783203125" lon="1.46680212579667568206787109375">
        <ele>234.8000030517578125</ele>
        <time>2026-08-05T08:05:44.000Z</time>
        <extensions>
          <ns3:TrackPointExtension>
            <ns3:hr>62</ns3:hr>
            <ns3:cad>0</ns3:cad>
          </ns3:TrackPointExtension>
        </extensions>
      </trkpt>
      <trkpt lat="43.470410294830799102783203125" lon="1.46680212579667568206787109375">
        <ele>234.8000030517578125</ele>
        <time>2026-08-05T08:05:45.000Z</time>
        <extensions>
          <ns3:TrackPointExtension>
            <ns3:hr>62</ns3:hr>
            <ns3:cad>0</ns3:cad>
          </ns3:TrackPointExtension>
        </extensions>
      </trkpt>
      <trkpt lat="43.470410294830799102783203125" lon="1.46680212579667568206787109375">
        <ele>234.8000030517578125</ele>
        <time>2026-08-05T08:05:46.000Z</time>
        <extensions>
          <ns3:TrackPointExtension>
            <ns3:hr>62</ns3:hr>
            <ns3:cad>0</ns3:cad>
          </ns3:TrackPointExtension>
        </extensions>
      </trkpt>
      <trkpt lat="43.470410294830799102783203125" lon="1.46680212579667568206787109375">
        <ele>234.600006103515625</ele>
        <time>2026-08-05T08:05:47.000Z</time>
        <extensions>
          <ns3:TrackPointExtension>
            <ns3:hr>62</ns3:hr>
            <ns3:cad>0</ns3:cad>
          </ns3:TrackPointExtension>
        </extensions>
      </trkpt>
      <trkpt lat="43.470410294830799102783203125" lon="1.46680212579667568206787109375">
        <ele>234.600006103515625</ele>
        <time>2026-08-05T08:05:48.000Z</time>
        <extensions>
          <ns3:TrackPointExtension>
            <ns3:hr>62</ns3:hr>
            <ns3:cad>0</ns3:cad>
          </ns3:TrackPointExtension>
        </extensions>
      </trkpt>
      <trkpt lat="43.470410294830799102783203125" lon="1.46680212579667568206787109375">
        <ele>234.600006103515625</ele>
        <time>2026-08-05T08:05:49.000Z</time>
        <extensions>
          <ns3:TrackPointExtension>
            <ns3:hr>62</ns3:hr>
            <ns3:cad>0</ns3:cad>
          </ns3:TrackPointExtension>
        </extensions>
      </trkpt>
      <trkpt lat="43.470410294830799102783203125" lon="1.46680212579667568206787109375">
        <ele>234.600006103515625</ele>
        <time>2026-08-05T08:05:50.000Z</time>
        <extensions>
          <ns3:TrackPointExtension>
            <ns3:hr>63</ns3:hr>
            <ns3:cad>0</ns3:cad>
          </ns3:TrackPointExtension>
        </extensions>
      </trkpt>
      <trkpt lat="43.470410294830799102783203125" lon="1.46680212579667568206787109375">
        <ele>234.8000030517578125</ele>
        <time>2026-08-05T08:05:51.000Z</time>
        <extensions>
          <ns3:TrackPointExtension>
            <ns3:hr>63</ns3:hr>
            <ns3:cad>0</ns3:cad>
          </ns3:TrackPointExtension>
        </extensions>
      </trkpt>
      <trkpt lat="43.470410294830799102783203125" lon="1.46680212579667568206787109375">
        <ele>234.8000030517578125</ele>
        <time>2026-08-05T08:05:52.000Z</time>
        <extensions>
          <ns3:TrackPointExtension>
            <ns3:hr>63</ns3:hr>
            <ns3:cad>0</ns3:cad>
          </ns3:TrackPointExtension>
        </extensions>
      </trkpt>
      <trkpt lat="43.470410294830799102783203125" lon="1.46680212579667568206787109375">
        <ele>234.8000030517578125</ele>
        <time>2026-08-05T08:05:53.000Z</time>
        <extensions>
          <ns3:TrackPointExtension>
            <ns3:hr>64</ns3:hr>
            <ns3:cad>0</ns3:cad>
          </ns3:TrackPointExtension>
        </extensions>
      </trkpt>
      <trkpt lat="43.470410294830799102783203125" lon="1.46680212579667568206787109375">
        <ele>234.8000030517578125</ele>
        <time>2026-08-05T08:05:54.000Z</time>
        <extensions>
          <ns3:TrackPointExtension>
            <ns3:hr>64</ns3:hr>
            <ns3:cad>0</ns3:cad>
          </ns3:TrackPointExtension>
        </extensions>
      </trkpt>
      <trkpt lat="43.470410294830799102783203125" lon="1.46680212579667568206787109375">
        <ele>234.8000030517578125</ele>
        <time>2026-08-05T08:05:55.000Z</time>
        <extensions>
          <ns3:TrackPointExtension>
            <ns3:hr>65</ns3:hr>
            <ns3:cad>0</ns3:cad>
          </ns3:TrackPointExtension>
        </extensions>
      </trkpt>
      <trkpt lat="43.470410294830799102783203125" lon="1.46680212579667568206787109375">
        <ele>234.8000030517578125</ele>
        <time>2026-08-05T08:05:56.000Z</time>
        <extensions>
          <ns3:TrackPointExtension>
            <ns3:hr>65</ns3:hr>
            <ns3:cad>0</ns3:cad>
          </ns3:TrackPointExtension>
        </extensions>
      </trkpt>
      <trkpt lat="43.47040794789791107177734375" lon="1.46679441444575786590576171875">
        <ele>234.8000030517578125</ele>
        <time>2026-08-05T08:05:57.000Z</time>
        <extensions>
          <ns3:TrackPointExtension>
            <ns3:hr>66</ns3:hr>
            <ns3:cad>0</ns3:cad>
          </ns3:TrackPointExtension>
        </extensions>
      </trkpt>
      <trkpt lat="43.470410294830799102783203125" lon="1.46680212579667568206787109375">
        <ele>234.8000030517578125</ele>
        <time>2026-08-05T08:05:58.000Z</time>
        <extensions>
          <ns3:TrackPointExtension>
            <ns3:hr>66</ns3:hr>
            <ns3:cad>0</ns3:cad>
          </ns3:TrackPointExtension>
        </extensions>
      </trkpt>
      <trkpt lat="43.470410294830799102783203125" lon="1.46680212579667568206787109375">
        <ele>234.8000030517578125</ele>
        <time>2026-08-05T08:05:59.000Z</time>
        <extensions>
          <ns3:TrackPointExtension>
            <ns3:hr>67</ns3:hr>
            <ns3:cad>0</ns3:cad>
          </ns3:TrackPointExtension>
        </extensions>
      </trkpt>
      <trkpt lat="43.470410294830799102783203125" lon="1.46680212579667568206787109375">
        <ele>234.8000030517578125</ele>
        <time>2026-08-05T08:06:00.000Z</time>
        <extensions>
          <ns3:TrackPointExtension>
            <ns3:hr>68</ns3:hr>
            <ns3:cad>0</ns3:cad>
          </ns3:TrackPointExtension>
        </extensions>
      </trkpt>
      <trkpt lat="43.470410294830799102783203125" lon="1.46680212579667568206787109375">
        <ele>234.8000030517578125</ele>
        <time>2026-08-05T08:06:01.000Z</time>
        <extensions>
          <ns3:TrackPointExtension>
            <ns3:hr>69</ns3:hr>
            <ns3:cad>0</ns3:cad>
          </ns3:TrackPointExtension>
        </extensions>
      </trkpt>
      <trkpt lat="43.470410294830799102783203125" lon="1.46680212579667568206787109375">
        <ele>234.600006103515625</ele>
        <time>2026-08-05T08:06:02.000Z</time>
        <extensions>
          <ns3:TrackPointExtension>
            <ns3:hr>69</ns3:hr>
            <ns3:cad>0</ns3:cad>
          </ns3:TrackPointExtension>
        </extensions>
      </trkpt>
      <trkpt lat="43.470410294830799102783203125" lon="1.46680212579667568206787109375">
        <ele>234.600006103515625</ele>
        <time>2026-08-05T08:06:03.000Z</time>
        <extensions>
          <ns3:TrackPointExtension>
            <ns3:hr>70</ns3:hr>
            <ns3:cad>0</ns3:cad>
          </ns3:TrackPointExtension>
        </extensions>
      </trkpt>
      <trkpt lat="43.470410294830799102783203125" lon="1.46680212579667568206787109375">
        <ele>234.600006103515625</ele>
        <time>2026-08-05T08:06:04.000Z</time>
        <extensions>
          <ns3:TrackPointExtension>
            <ns3:hr>73</ns3:hr>
            <ns3:cad>0</ns3:cad>
          </ns3:TrackPointExtension>
        </extensions>
      </trkpt>
      <trkpt lat="43.470410294830799102783203125" lon="1.46680212579667568206787109375">
        <ele>234.600006103515625</ele>
        <time>2026-08-05T08:06:05.000Z</time>
        <extensions>
          <ns3:TrackPointExtension>
            <ns3:hr>73</ns3:hr>
            <ns3:cad>0</ns3:cad>
          </ns3:TrackPointExtension>
        </extensions>
      </trkpt>
      <trkpt lat="43.470410294830799102783203125" lon="1.46680212579667568206787109375">
        <ele>234.600006103515625</ele>
        <time>2026-08-05T08:06:06.000Z</time>
        <extensions>
          <ns3:TrackPointExtension>
            <ns3:hr>73</ns3:hr>
            <ns3:cad>0</ns3:cad>
          </ns3:TrackPointExtension>
        </extensions>
      </trkpt>
      <trkpt lat="43.470410294830799102783203125" lon="1.46680212579667568206787109375">
        <ele>234.8000030517578125</ele>
        <time>2026-08-05T08:06:07.000Z</time>
        <extensions>
          <ns3:TrackPointExtension>
            <ns3:hr>75</ns3:hr>
            <ns3:cad>0</ns3:cad>
          </ns3:TrackPointExtension>
        </extensions>
      </trkpt>
      <trkpt lat="43.470410294830799102783203125" lon="1.46680212579667568206787109375">
        <ele>234.8000030517578125</ele>
        <time>2026-08-05T08:06:08.000Z</time>
        <extensions>
          <ns3:TrackPointExtension>
            <ns3:hr>77</ns3:hr>
            <ns3:cad>0</ns3:cad>
          </ns3:TrackPointExtension>
        </extensions>
      </trkpt>
      <trkpt lat="43.470410294830799102783203125" lon="1.46680212579667568206787109375">
        <ele>234.8000030517578125</ele>
        <time>2026-08-05T08:06:09.000Z</time>
        <extensions>
          <ns3:TrackPointExtension>
            <ns3:hr>78</ns3:hr>
            <ns3:cad>0</ns3:cad>
          </ns3:TrackPointExtension>
        </extensions>
      </trkpt>
      <trkpt lat="43.470410294830799102783203125" lon="1.46680212579667568206787109375">
        <ele>234.600006103515625</ele>
        <time>2026-08-05T08:06:10.000Z</time>
        <extensions>
          <ns3:TrackPointExtension>
            <ns3:hr>80</ns3:hr>
            <ns3:cad>0</ns3:cad>
          </ns3:TrackPointExtension>
        </extensions>
      </trkpt>
      <trkpt lat="43.470410294830799102783203125" lon="1.46680212579667568206787109375">
        <ele>234.600006103515625</ele>
        <time>2026-08-05T08:06:11.000Z</time>
        <extensions>
          <ns3:TrackPointExtension>
            <ns3:hr>81</ns3:hr>
            <ns3:cad>0</ns3:cad>
          </ns3:TrackPointExtension>
        </extensions>
      </trkpt>
      <trkpt lat="43.470410294830799102783203125" lon="1.46680212579667568206787109375">
        <ele>234.600006103515625</ele>
        <time>2026-08-05T08:06:12.000Z</time>
        <extensions>
          <ns3:TrackPointExtension>
            <ns3:hr>81</ns3:hr>
            <ns3:cad>0</ns3:cad>
          </ns3:TrackPointExtension>
        </extensions>
      </trkpt>
      <trkpt lat="43.470410294830799102783203125" lon="1.46680212579667568206787109375">
        <ele>234.8000030517578125</ele>
        <time>2026-08-05T08:06:13.000Z</time>
        <extensions>
          <ns3:TrackPointExtension>
            <ns3:hr>81</ns3:hr>
            <ns3:cad>0</ns3:cad>
          </ns3:TrackPointExtension>
        </extensions>
      </trkpt>
      <trkpt lat="43.470410294830799102783203125" lon="1.46680212579667568206787109375">
        <ele>234.8000030517578125</ele>
        <time>2026-08-05T08:06:14.000Z</time>
        <extensions>
          <ns3:TrackPointExtension>
            <ns3:hr>82</ns3:hr>
            <ns3:cad>0</ns3:cad>
          </ns3:TrackPointExtension>
        </extensions>
      </trkpt>
      <trkpt lat="43.470410294830799102783203125" lon="1.46680212579667568206787109375">
        <ele>234.8000030517578125</ele>
        <time>2026-08-05T08:06:15.000Z</time>
        <extensions>
          <ns3:TrackPointExtension>
            <ns3:hr>82</ns3:hr>
            <ns3:cad>0</ns3:cad>
          </ns3:TrackPointExtension>
        </extensions>
      </trkpt>
      <trkpt lat="43.470410294830799102783203125" lon="1.46680212579667568206787109375">
        <ele>235</ele>
        <time>2026-08-05T08:06:16.000Z</time>
        <extensions>
          <ns3:TrackPointExtension>
            <ns3:hr>82</ns3:hr>
            <ns3:cad>0</ns3:cad>
          </ns3:TrackPointExtension>
        </extensions>
      </trkpt>
      <trkpt lat="43.470410294830799102783203125" lon="1.46680212579667568206787109375">
        <ele>235</ele>
        <time>2026-08-05T08:06:17.000Z</time>
        <extensions>
          <ns3:TrackPointExtension>
            <ns3:hr>82</ns3:hr>
            <ns3:cad>0</ns3:cad>
          </ns3:TrackPointExtension>
        </extensions>
      </trkpt>
      <trkpt lat="43.470410294830799102783203125" lon="1.46680212579667568206787109375">
        <ele>234.8000030517578125</ele>
        <time>2026-08-05T08:06:18.000Z</time>
        <extensions>
          <ns3:TrackPointExtension>
            <ns3:hr>82</ns3:hr>
            <ns3:cad>0</ns3:cad>
          </ns3:TrackPointExtension>
        </extensions>
      </trkpt>
      <trkpt lat="43.470410294830799102783203125" lon="1.46680212579667568206787109375">
        <ele>234.8000030517578125</ele>
        <time>2026-08-05T08:06:19.000Z</time>
        <extensions>
          <ns3:TrackPointExtension>
            <ns3:hr>82</ns3:hr>
            <ns3:cad>0</ns3:cad>
          </ns3:TrackPointExtension>
        </extensions>
      </trkpt>
      <trkpt lat="43.470410294830799102783203125" lon="1.46680212579667568206787109375">
        <ele>234.8000030517578125</ele>
        <time>2026-08-05T08:06:20.000Z</time>
        <extensions>
          <ns3:TrackPointExtension>
            <ns3:hr>82</ns3:hr>
            <ns3:cad>0</ns3:cad>
          </ns3:TrackPointExtension>
        </extensions>
      </trkpt>
      <trkpt lat="43.470410294830799102783203125" lon="1.46680212579667568206787109375">
        <ele>234.8000030517578125</ele>
        <time>2026-08-05T08:06:21.000Z</time>
        <extensions>
          <ns3:TrackPointExtension>
            <ns3:hr>82</ns3:hr>
            <ns3:cad>0</ns3:cad>
          </ns3:TrackPointExtension>
        </extensions>
      </trkpt>
      <trkpt lat="43.470410294830799102783203125" lon="1.46680212579667568206787109375">
        <ele>234.8000030517578125</ele>
        <time>2026-08-05T08:06:22.000Z</time>
        <extensions>
          <ns3:TrackPointExtension>
            <ns3:hr>83</ns3:hr>
            <ns3:cad>0</ns3:cad>
          </ns3:TrackPointExtension>
        </extensions>
      </trkpt>
      <trkpt lat="43.470410294830799102783203125" lon="1.46680212579667568206787109375">
        <ele>234.8000030517578125</ele>
        <time>2026-08-05T08:06:23.000Z</time>
        <extensions>
          <ns3:TrackPointExtension>
            <ns3:hr>83</ns3:hr>
            <ns3:cad>0</ns3:cad>
          </ns3:TrackPointExtension>
        </extensions>
      </trkpt>
      <trkpt lat="43.470410294830799102783203125" lon="1.46680212579667568206787109375">
        <ele>234.8000030517578125</ele>
        <time>2026-08-05T08:06:24.000Z</time>
        <extensions>
          <ns3:TrackPointExtension>
            <ns3:hr>84</ns3:hr>
            <ns3:cad>0</ns3:cad>
          </ns3:TrackPointExtension>
        </extensions>
      </trkpt>
      <trkpt lat="43.470410294830799102783203125" lon="1.46680212579667568206787109375">
        <ele>234.8000030517578125</ele>
        <time>2026-08-05T08:06:25.000Z</time>
        <extensions>
          <ns3:TrackPointExtension>
            <ns3:hr>85</ns3:hr>
            <ns3:cad>0</ns3:cad>
          </ns3:TrackPointExtension>
        </extensions>
      </trkpt>
      <trkpt lat="43.470410294830799102783203125" lon="1.46680212579667568206787109375">
        <ele>234.8000030517578125</ele>
        <time>2026-08-05T08:06:26.000Z</time>
        <extensions>
          <ns3:TrackPointExtension>
            <ns3:hr>85</ns3:hr>
            <ns3:cad>0</ns3:cad>
          </ns3:TrackPointExtension>
        </extensions>
      </trkpt>
      <trkpt lat="43.470410294830799102783203125" lon="1.46680212579667568206787109375">
        <ele>234.8000030517578125</ele>
        <time>2026-08-05T08:06:27.000Z</time>
        <extensions>
          <ns3:TrackPointExtension>
            <ns3:hr>86</ns3:hr>
            <ns3:cad>0</ns3:cad>
          </ns3:TrackPointExtension>
        </extensions>
      </trkpt>
      <trkpt lat="43.470410294830799102783203125" lon="1.46680212579667568206787109375">
        <ele>234.8000030517578125</ele>
        <time>2026-08-05T08:06:28.000Z</time>
        <extensions>
          <ns3:TrackPointExtension>
            <ns3:hr>86</ns3:hr>
            <ns3:cad>0</ns3:cad>
          </ns3:TrackPointExtension>
        </extensions>
      </trkpt>
      <trkpt lat="43.470410294830799102783203125" lon="1.46680212579667568206787109375">
        <ele>234.8000030517578125</ele>
        <time>2026-08-05T08:06:29.000Z</time>
        <extensions>
          <ns3:TrackPointExtension>
            <ns3:hr>86</ns3:hr>
            <ns3:cad>0</ns3:cad>
          </ns3:TrackPointExtension>
        </extensions>
      </trkpt>
      <trkpt lat="43.470410294830799102783203125" lon="1.46680212579667568206787109375">
        <ele>234.8000030517578125</ele>
        <time>2026-08-05T08:06:30.000Z</time>
        <extensions>
          <ns3:TrackPointExtension>
            <ns3:hr>86</ns3:hr>
            <ns3:cad>0</ns3:cad>
          </ns3:TrackPointExtension>
        </extensions>
      </trkpt>
      <trkpt lat="43.470410294830799102783203125" lon="1.46680212579667568206787109375">
        <ele>234.8000030517578125</ele>
        <time>2026-08-05T08:06:31.000Z</time>
        <extensions>
          <ns3:TrackPointExtension>
            <ns3:hr>86</ns3:hr>
            <ns3:cad>0</ns3:cad>
          </ns3:TrackPointExtension>
        </extensions>
      </trkpt>
      <trkpt lat="43.470410294830799102783203125" lon="1.46680212579667568206787109375">
        <ele>234.8000030517578125</ele>
        <time>2026-08-05T08:06:32.000Z</time>
        <extensions>
          <ns3:TrackPointExtension>
            <ns3:hr>85</ns3:hr>
            <ns3:cad>0</ns3:cad>
          </ns3:TrackPointExtension>
        </extensions>
      </trkpt>
      <trkpt lat="43.470410294830799102783203125" lon="1.46680212579667568206787109375">
        <ele>234.8000030517578125</ele>
        <time>2026-08-05T08:06:33.000Z</time>
        <extensions>
          <ns3:TrackPointExtension>
            <ns3:hr>86</ns3:hr>
            <ns3:cad>0</ns3:cad>
          </ns3:TrackPointExtension>
        </extensions>
      </trkpt>
      <trkpt lat="43.470410294830799102783203125" lon="1.46680212579667568206787109375">
        <ele>234.8000030517578125</ele>
        <time>2026-08-05T08:06:34.000Z</time>
        <extensions>
          <ns3:TrackPointExtension>
            <ns3:hr>85</ns3:hr>
            <ns3:cad>0</ns3:cad>
          </ns3:TrackPointExtension>
        </extensions>
      </trkpt>
      <trkpt lat="43.470410294830799102783203125" lon="1.46680212579667568206787109375">
        <ele>234.8000030517578125</ele>
        <time>2026-08-05T08:06:35.000Z</time>
        <extensions>
          <ns3:TrackPointExtension>
            <ns3:hr>85</ns3:hr>
            <ns3:cad>0</ns3:cad>
          </ns3:TrackPointExtension>
        </extensions>
      </trkpt>
      <trkpt lat="43.470410294830799102783203125" lon="1.46680212579667568206787109375">
        <ele>234.8000030517578125</ele>
        <time>2026-08-05T08:06:36.000Z</time>
        <extensions>
          <ns3:TrackPointExtension>
            <ns3:hr>85</ns3:hr>
            <ns3:cad>0</ns3:cad>
          </ns3:TrackPointExtension>
        </extensions>
      </trkpt>
      <trkpt lat="43.470410294830799102783203125" lon="1.46680212579667568206787109375">
        <ele>234.8000030517578125</ele>
        <time>2026-08-05T08:06:37.000Z</time>
        <extensions>
          <ns3:TrackPointExtension>
            <ns3:hr>86</ns3:hr>
            <ns3:cad>0</ns3:cad>
          </ns3:TrackPointExtension>
        </extensions>
      </trkpt>
      <trkpt lat="43.470410294830799102783203125" lon="1.46680212579667568206787109375">
        <ele>234.600006103515625</ele>
        <time>2026-08-05T08:06:38.000Z</time>
        <extensions>
          <ns3:TrackPointExtension>
            <ns3:hr>85</ns3:hr>
            <ns3:cad>0</ns3:cad>
          </ns3:TrackPointExtension>
        </extensions>
      </trkpt>
      <trkpt lat="43.470410294830799102783203125" lon="1.46680212579667568206787109375">
        <ele>234.8000030517578125</ele>
        <time>2026-08-05T08:06:39.000Z</time>
        <extensions>
          <ns3:TrackPointExtension>
            <ns3:hr>85</ns3:hr>
            <ns3:cad>0</ns3:cad>
          </ns3:TrackPointExtension>
        </extensions>
      </trkpt>
      <trkpt lat="43.470410294830799102783203125" lon="1.46680212579667568206787109375">
        <ele>234.8000030517578125</ele>
        <time>2026-08-05T08:06:40.000Z</time>
        <extensions>
          <ns3:TrackPointExtension>
            <ns3:hr>86</ns3:hr>
            <ns3:cad>0</ns3:cad>
          </ns3:TrackPointExtension>
        </extensions>
      </trkpt>
      <trkpt lat="43.470410294830799102783203125" lon="1.46680212579667568206787109375">
        <ele>234.8000030517578125</ele>
        <time>2026-08-05T08:06:41.000Z</time>
        <extensions>
          <ns3:TrackPointExtension>
            <ns3:hr>85</ns3:hr>
            <ns3:cad>0</ns3:cad>
          </ns3:TrackPointExtension>
        </extensions>
      </trkpt>
      <trkpt lat="43.470410294830799102783203125" lon="1.46680212579667568206787109375">
        <ele>234.8000030517578125</ele>
        <time>2026-08-05T08:06:42.000Z</time>
        <extensions>
          <ns3:TrackPointExtension>
            <ns3:hr>85</ns3:hr>
            <ns3:cad>0</ns3:cad>
          </ns3:TrackPointExtension>
        </extensions>
      </trkpt>
      <trkpt lat="43.470410294830799102783203125" lon="1.46680212579667568206787109375">
        <ele>234.8000030517578125</ele>
        <time>2026-08-05T08:06:43.000Z</time>
        <extensions>
          <ns3:TrackPointExtension>
            <ns3:hr>84</ns3:hr>
            <ns3:cad>0</ns3:cad>
          </ns3:TrackPointExtension>
        </extensions>
      </trkpt>
      <trkpt lat="43.470410294830799102783203125" lon="1.46680212579667568206787109375">
        <ele>234.8000030517578125</ele>
        <time>2026-08-05T08:06:44.000Z</time>
        <extensions>
          <ns3:TrackPointExtension>
            <ns3:hr>84</ns3:hr>
            <ns3:cad>0</ns3:cad>
          </ns3:TrackPointExtension>
        </extensions>
      </trkpt>
      <trkpt lat="43.470410294830799102783203125" lon="1.46680212579667568206787109375">
        <ele>234.8000030517578125</ele>
        <time>2026-08-05T08:06:45.000Z</time>
        <extensions>
          <ns3:TrackPointExtension>
            <ns3:hr>84</ns3:hr>
            <ns3:cad>0</ns3:cad>
          </ns3:TrackPointExtension>
        </extensions>
      </trkpt>
      <trkpt lat="43.47040920518338680267333984375" lon="1.46679483354091644287109375">
        <ele>234.8000030517578125</ele>
        <time>2026-08-05T08:06:46.000Z</time>
        <extensions>
          <ns3:TrackPointExtension>
            <ns3:hr>83</ns3:hr>
            <ns3:cad>0</ns3:cad>
          </ns3:TrackPointExtension>
        </extensions>
      </trkpt>
      <trkpt lat="43.470406271517276763916015625" lon="1.46679894067347049713134765625">
        <ele>234.8000030517578125</ele>
        <time>2026-08-05T08:06:47.000Z</time>
        <extensions>
          <ns3:TrackPointExtension>
            <ns3:hr>83</ns3:hr>
            <ns3:cad>0</ns3:cad>
          </ns3:TrackPointExtension>
        </extensions>
      </trkpt>
      <trkpt lat="43.47040392458438873291015625" lon="1.46679927594959735870361328125">
        <ele>234.8000030517578125</ele>
        <time>2026-08-05T08:06:48.000Z</time>
        <extensions>
          <ns3:TrackPointExtension>
            <ns3:hr>82</ns3:hr>
            <ns3:cad>0</ns3:cad>
          </ns3:TrackPointExtension>
        </extensions>
      </trkpt>
      <trkpt lat="43.470410294830799102783203125" lon="1.46680212579667568206787109375">
        <ele>234.8000030517578125</ele>
        <time>2026-08-05T08:06:49.000Z</time>
        <extensions>
          <ns3:TrackPointExtension>
            <ns3:hr>81</ns3:hr>
            <ns3:cad>0</ns3:cad>
          </ns3:TrackPointExtension>
        </extensions>
      </trkpt>
      <trkpt lat="43.470410294830799102783203125" lon="1.46680212579667568206787109375">
        <ele>234.8000030517578125</ele>
        <time>2026-08-05T08:06:50.000Z</time>
        <extensions>
          <ns3:TrackPointExtension>
            <ns3:hr>80</ns3:hr>
            <ns3:cad>0</ns3:cad>
          </ns3:TrackPointExtension>
        </extensions>
      </trkpt>
      <trkpt lat="43.470410294830799102783203125" lon="1.46680212579667568206787109375">
        <ele>234.8000030517578125</ele>
        <time>2026-08-05T08:06:51.000Z</time>
        <extensions>
          <ns3:TrackPointExtension>
            <ns3:hr>80</ns3:hr>
            <ns3:cad>0</ns3:cad>
          </ns3:TrackPointExtension>
        </extensions>
      </trkpt>
      <trkpt lat="43.470410294830799102783203125" lon="1.46680212579667568206787109375">
        <ele>234.600006103515625</ele>
        <time>2026-08-05T08:06:52.000Z</time>
        <extensions>
          <ns3:TrackPointExtension>
            <ns3:hr>79</ns3:hr>
            <ns3:cad>0</ns3:cad>
          </ns3:TrackPointExtension>
        </extensions>
      </trkpt>
      <trkpt lat="43.470410294830799102783203125" lon="1.46680212579667568206787109375">
        <ele>234.600006103515625</ele>
        <time>2026-08-05T08:06:53.000Z</time>
        <extensions>
          <ns3:TrackPointExtension>
            <ns3:hr>79</ns3:hr>
            <ns3:cad>0</ns3:cad>
          </ns3:TrackPointExtension>
        </extensions>
      </trkpt>
      <trkpt lat="43.470410294830799102783203125" lon="1.46680212579667568206787109375">
        <ele>234.600006103515625</ele>
        <time>2026-08-05T08:06:54.000Z</time>
        <extensions>
          <ns3:TrackPointExtension>
            <ns3:hr>79</ns3:hr>
            <ns3:cad>0</ns3:cad>
          </ns3:TrackPointExtension>
        </extensions>
      </trkpt>
      <trkpt lat="43.470410294830799102783203125" lon="1.46680212579667568206787109375">
        <ele>234.8000030517578125</ele>
        <time>2026-08-05T08:06:55.000Z</time>
        <extensions>
          <ns3:TrackPointExtension>
            <ns3:hr>78</ns3:hr>
            <ns3:cad>0</ns3:cad>
          </ns3:TrackPointExtension>
        </extensions>
      </trkpt>
      <trkpt lat="43.470410294830799102783203125" lon="1.46680212579667568206787109375">
        <ele>234.8000030517578125</ele>
        <time>2026-08-05T08:06:56.000Z</time>
        <extensions>
          <ns3:TrackPointExtension>
            <ns3:hr>78</ns3:hr>
            <ns3:cad>0</ns3:cad>
          </ns3:TrackPointExtension>
        </extensions>
      </trkpt>
      <trkpt lat="43.47040635533630847930908203125" lon="1.46679827012121677398681640625">
        <ele>234.8000030517578125</ele>
        <time>2026-08-05T08:06:57.000Z</time>
        <extensions>
          <ns3:TrackPointExtension>
            <ns3:hr>78</ns3:hr>
            <ns3:cad>56</ns3:cad>
          </ns3:TrackPointExtension>
        </extensions>
      </trkpt>
      <trkpt lat="43.4704084508121013641357421875" lon="1.4667976833879947662353515625">
        <ele>234.8000030517578125</ele>
        <time>2026-08-05T08:06:58.000Z</time>
        <extensions>
          <ns3:TrackPointExtension>
            <ns3:hr>78</ns3:hr>
            <ns3:cad>56</ns3:cad>
          </ns3:TrackPointExtension>
        </extensions>
      </trkpt>
      <trkpt lat="43.47041063010692596435546875" lon="1.466799192130565643310546875">
        <ele>234.8000030517578125</ele>
        <time>2026-08-05T08:06:59.000Z</time>
        <extensions>
          <ns3:TrackPointExtension>
            <ns3:hr>78</ns3:hr>
            <ns3:cad>0</ns3:cad>
          </ns3:TrackPointExtension>
        </extensions>
      </trkpt>
      <trkpt lat="43.4704128094017505645751953125" lon="1.466801203787326812744140625">
        <ele>234.8000030517578125</ele>
        <time>2026-08-05T08:07:00.000Z</time>
        <extensions>
          <ns3:TrackPointExtension>
            <ns3:hr>78</ns3:hr>
            <ns3:cad>0</ns3:cad>
          </ns3:TrackPointExtension>
        </extensions>
      </trkpt>
      <trkpt lat="43.47041306085884571075439453125" lon="1.4668022096157073974609375">
        <ele>234.8000030517578125</ele>
        <time>2026-08-05T08:07:01.000Z</time>
        <extensions>
          <ns3:TrackPointExtension>
            <ns3:hr>78</ns3:hr>
            <ns3:cad>0</ns3:cad>
          </ns3:TrackPointExtension>
        </extensions>
      </trkpt>
      <trkpt lat="43.470414318144321441650390625" lon="1.4668040536344051361083984375">
        <ele>234.8000030517578125</ele>
        <time>2026-08-05T08:07:02.000Z</time>
        <extensions>
          <ns3:TrackPointExtension>
            <ns3:hr>79</ns3:hr>
            <ns3:cad>0</ns3:cad>
          </ns3:TrackPointExtension>
        </extensions>
      </trkpt>
      <trkpt lat="43.47041624598205089569091796875" lon="1.46680556237697601318359375">
        <ele>234.600006103515625</ele>
        <time>2026-08-05T08:07:03.000Z</time>
        <extensions>
          <ns3:TrackPointExtension>
            <ns3:hr>79</ns3:hr>
            <ns3:cad>0</ns3:cad>
          </ns3:TrackPointExtension>
        </extensions>
      </trkpt>
      <trkpt lat="43.47041674889624118804931640625" lon="1.46680816076695919036865234375">
        <ele>234.600006103515625</ele>
        <time>2026-08-05T08:07:04.000Z</time>
        <extensions>
          <ns3:TrackPointExtension>
            <ns3:hr>79</ns3:hr>
            <ns3:cad>0</ns3:cad>
          </ns3:TrackPointExtension>
        </extensions>
      </trkpt>
      <trkpt lat="43.47041725181043148040771484375" lon="1.46680916659533977508544921875">
        <ele>234.600006103515625</ele>
        <time>2026-08-05T08:07:05.000Z</time>
        <extensions>
          <ns3:TrackPointExtension>
            <ns3:hr>79</ns3:hr>
            <ns3:cad>0</ns3:cad>
          </ns3:TrackPointExtension>
        </extensions>
      </trkpt>
      <trkpt lat="43.47041733562946319580078125" lon="1.46680581383407115936279296875">
        <ele>234.600006103515625</ele>
        <time>2026-08-05T08:07:06.000Z</time>
        <extensions>
          <ns3:TrackPointExtension>
            <ns3:hr>80</ns3:hr>
            <ns3:cad>0</ns3:cad>
          </ns3:TrackPointExtension>
        </extensions>
      </trkpt>
      <trkpt lat="43.47041733562946319580078125" lon="1.4668050594627857208251953125">
        <ele>234.600006103515625</ele>
        <time>2026-08-05T08:07:07.000Z</time>
        <extensions>
          <ns3:TrackPointExtension>
            <ns3:hr>79</ns3:hr>
            <ns3:cad>0</ns3:cad>
          </ns3:TrackPointExtension>
        </extensions>
      </trkpt>
      <trkpt lat="43.470417670905590057373046875" lon="1.4668053947389125823974609375">
        <ele>234.600006103515625</ele>
        <time>2026-08-05T08:07:08.000Z</time>
        <extensions>
          <ns3:TrackPointExtension>
            <ns3:hr>80</ns3:hr>
            <ns3:cad>0</ns3:cad>
          </ns3:TrackPointExtension>
        </extensions>
      </trkpt>
      <trkpt lat="43.470410294830799102783203125" lon="1.46680212579667568206787109375">
        <ele>234.399993896484375</ele>
        <time>2026-08-05T08:07:09.000Z</time>
        <extensions>
          <ns3:TrackPointExtension>
            <ns3:hr>80</ns3:hr>
            <ns3:cad>0</ns3:cad>
          </ns3:TrackPointExtension>
        </extensions>
      </trkpt>
      <trkpt lat="43.470410294830799102783203125" lon="1.46680212579667568206787109375">
        <ele>234.399993896484375</ele>
        <time>2026-08-05T08:07:10.000Z</time>
        <extensions>
          <ns3:TrackPointExtension>
            <ns3:hr>80</ns3:hr>
            <ns3:cad>0</ns3:cad>
          </ns3:TrackPointExtension>
        </extensions>
      </trkpt>
      <trkpt lat="43.470410294830799102783203125" lon="1.46680212579667568206787109375">
        <ele>234.399993896484375</ele>
        <time>2026-08-05T08:07:11.000Z</time>
        <extensions>
          <ns3:TrackPointExtension>
            <ns3:hr>79</ns3:hr>
            <ns3:cad>0</ns3:cad>
          </ns3:TrackPointExtension>
        </extensions>
      </trkpt>
      <trkpt lat="43.470410294830799102783203125" lon="1.46680212579667568206787109375">
        <ele>234.399993896484375</ele>
        <time>2026-08-05T08:07:12.000Z</time>
        <extensions>
          <ns3:TrackPointExtension>
            <ns3:hr>79</ns3:hr>
            <ns3:cad>0</ns3:cad>
          </ns3:TrackPointExtension>
        </extensions>
      </trkpt>
      <trkpt lat="43.470410294830799102783203125" lon="1.46680212579667568206787109375">
        <ele>234.399993896484375</ele>
        <time>2026-08-05T08:07:13.000Z</time>
        <extensions>
          <ns3:TrackPointExtension>
            <ns3:hr>79</ns3:hr>
            <ns3:cad>0</ns3:cad>
          </ns3:TrackPointExtension>
        </extensions>
      </trkpt>
      <trkpt lat="43.470410294830799102783203125" lon="1.46680212579667568206787109375">
        <ele>234.600006103515625</ele>
        <time>2026-08-05T08:07:14.000Z</time>
        <extensions>
          <ns3:TrackPointExtension>
            <ns3:hr>79</ns3:hr>
            <ns3:cad>0</ns3:cad>
          </ns3:TrackPointExtension>
        </extensions>
      </trkpt>
      <trkpt lat="43.470410294830799102783203125" lon="1.46680212579667568206787109375">
        <ele>234.600006103515625</ele>
        <time>2026-08-05T08:07:15.000Z</time>
        <extensions>
          <ns3:TrackPointExtension>
            <ns3:hr>78</ns3:hr>
            <ns3:cad>0</ns3:cad>
          </ns3:TrackPointExtension>
        </extensions>
      </trkpt>
      <trkpt lat="43.470410294830799102783203125" lon="1.46680212579667568206787109375">
        <ele>234.8000030517578125</ele>
        <time>2026-08-05T08:07:16.000Z</time>
        <extensions>
          <ns3:TrackPointExtension>
            <ns3:hr>78</ns3:hr>
            <ns3:cad>0</ns3:cad>
          </ns3:TrackPointExtension>
        </extensions>
      </trkpt>
      <trkpt lat="43.470410294830799102783203125" lon="1.46680212579667568206787109375">
        <ele>234.8000030517578125</ele>
        <time>2026-08-05T08:07:17.000Z</time>
        <extensions>
          <ns3:TrackPointExtension>
            <ns3:hr>78</ns3:hr>
            <ns3:cad>0</ns3:cad>
          </ns3:TrackPointExtension>
        </extensions>
      </trkpt>
      <trkpt lat="43.470410294830799102783203125" lon="1.46680212579667568206787109375">
        <ele>234.8000030517578125</ele>
        <time>2026-08-05T08:07:18.000Z</time>
        <extensions>
          <ns3:TrackPointExtension>
            <ns3:hr>79</ns3:hr>
            <ns3:cad>0</ns3:cad>
          </ns3:TrackPointExtension>
        </extensions>
      </trkpt>
      <trkpt lat="43.470410294830799102783203125" lon="1.46680212579667568206787109375">
        <ele>234.8000030517578125</ele>
        <time>2026-08-05T08:07:19.000Z</time>
        <extensions>
          <ns3:TrackPointExtension>
            <ns3:hr>79</ns3:hr>
            <ns3:cad>0</ns3:cad>
          </ns3:TrackPointExtension>
        </extensions>
      </trkpt>
      <trkpt lat="43.470410294830799102783203125" lon="1.46680212579667568206787109375">
        <ele>234.600006103515625</ele>
        <time>2026-08-05T08:07:20.000Z</time>
        <extensions>
          <ns3:TrackPointExtension>
            <ns3:hr>79</ns3:hr>
            <ns3:cad>0</ns3:cad>
          </ns3:TrackPointExtension>
        </extensions>
      </trkpt>
      <trkpt lat="43.470410294830799102783203125" lon="1.46680212579667568206787109375">
        <ele>234.600006103515625</ele>
        <time>2026-08-05T08:07:21.000Z</time>
        <extensions>
          <ns3:TrackPointExtension>
            <ns3:hr>79</ns3:hr>
            <ns3:cad>0</ns3:cad>
          </ns3:TrackPointExtension>
        </extensions>
      </trkpt>
      <trkpt lat="43.470410294830799102783203125" lon="1.46680212579667568206787109375">
        <ele>234.600006103515625</ele>
        <time>2026-08-05T08:07:22.000Z</time>
        <extensions>
          <ns3:TrackPointExtension>
            <ns3:hr>80</ns3:hr>
            <ns3:cad>0</ns3:cad>
          </ns3:TrackPointExtension>
        </extensions>
      </trkpt>
      <trkpt lat="43.470410294830799102783203125" lon="1.46680212579667568206787109375">
        <ele>234.600006103515625</ele>
        <time>2026-08-05T08:07:23.000Z</time>
        <extensions>
          <ns3:TrackPointExtension>
            <ns3:hr>81</ns3:hr>
            <ns3:cad>0</ns3:cad>
          </ns3:TrackPointExtension>
        </extensions>
      </trkpt>
      <trkpt lat="43.470410294830799102783203125" lon="1.46680212579667568206787109375">
        <ele>234.600006103515625</ele>
        <time>2026-08-05T08:07:24.000Z</time>
        <extensions>
          <ns3:TrackPointExtension>
            <ns3:hr>81</ns3:hr>
            <ns3:cad>0</ns3:cad>
          </ns3:TrackPointExtension>
        </extensions>
      </trkpt>
      <trkpt lat="43.470410294830799102783203125" lon="1.46680212579667568206787109375">
        <ele>234.600006103515625</ele>
        <time>2026-08-05T08:07:25.000Z</time>
        <extensions>
          <ns3:TrackPointExtension>
            <ns3:hr>82</ns3:hr>
            <ns3:cad>0</ns3:cad>
          </ns3:TrackPointExtension>
        </extensions>
      </trkpt>
      <trkpt lat="43.470410294830799102783203125" lon="1.46680212579667568206787109375">
        <ele>234.600006103515625</ele>
        <time>2026-08-05T08:07:26.000Z</time>
        <extensions>
          <ns3:TrackPointExtension>
            <ns3:hr>83</ns3:hr>
            <ns3:cad>0</ns3:cad>
          </ns3:TrackPointExtension>
        </extensions>
      </trkpt>
      <trkpt lat="43.470410294830799102783203125" lon="1.46680212579667568206787109375">
        <ele>234.600006103515625</ele>
        <time>2026-08-05T08:07:27.000Z</time>
        <extensions>
          <ns3:TrackPointExtension>
            <ns3:hr>83</ns3:hr>
            <ns3:cad>0</ns3:cad>
          </ns3:TrackPointExtension>
        </extensions>
      </trkpt>
      <trkpt lat="43.470410294830799102783203125" lon="1.46680212579667568206787109375">
        <ele>234.600006103515625</ele>
        <time>2026-08-05T08:07:28.000Z</time>
        <extensions>
          <ns3:TrackPointExtension>
            <ns3:hr>83</ns3:hr>
            <ns3:cad>0</ns3:cad>
          </ns3:TrackPointExtension>
        </extensions>
      </trkpt>
      <trkpt lat="43.470410294830799102783203125" lon="1.46680212579667568206787109375">
        <ele>234.600006103515625</ele>
        <time>2026-08-05T08:07:29.000Z</time>
        <extensions>
          <ns3:TrackPointExtension>
            <ns3:hr>82</ns3:hr>
            <ns3:cad>0</ns3:cad>
          </ns3:TrackPointExtension>
        </extensions>
      </trkpt>
      <trkpt lat="43.470410294830799102783203125" lon="1.46680212579667568206787109375">
        <ele>234.600006103515625</ele>
        <time>2026-08-05T08:07:30.000Z</time>
        <extensions>
          <ns3:TrackPointExtension>
            <ns3:hr>82</ns3:hr>
            <ns3:cad>0</ns3:cad>
          </ns3:TrackPointExtension>
        </extensions>
      </trkpt>
      <trkpt lat="43.470410294830799102783203125" lon="1.46680212579667568206787109375">
        <ele>234.600006103515625</ele>
        <time>2026-08-05T08:07:31.000Z</time>
        <extensions>
          <ns3:TrackPointExtension>
            <ns3:hr>81</ns3:hr>
            <ns3:cad>0</ns3:cad>
          </ns3:TrackPointExtension>
        </extensions>
      </trkpt>
      <trkpt lat="43.470410294830799102783203125" lon="1.46680212579667568206787109375">
        <ele>234.600006103515625</ele>
        <time>2026-08-05T08:07:32.000Z</time>
        <extensions>
          <ns3:TrackPointExtension>
            <ns3:hr>80</ns3:hr>
            <ns3:cad>0</ns3:cad>
          </ns3:TrackPointExtension>
        </extensions>
      </trkpt>
      <trkpt lat="43.470410294830799102783203125" lon="1.46680212579667568206787109375">
        <ele>234.600006103515625</ele>
        <time>2026-08-05T08:07:33.000Z</time>
        <extensions>
          <ns3:TrackPointExtension>
            <ns3:hr>79</ns3:hr>
            <ns3:cad>0</ns3:cad>
          </ns3:TrackPointExtension>
        </extensions>
      </trkpt>
      <trkpt lat="43.470410294830799102783203125" lon="1.46680212579667568206787109375">
        <ele>234.600006103515625</ele>
        <time>2026-08-05T08:07:34.000Z</time>
        <extensions>
          <ns3:TrackPointExtension>
            <ns3:hr>78</ns3:hr>
            <ns3:cad>0</ns3:cad>
          </ns3:TrackPointExtension>
        </extensions>
      </trkpt>
      <trkpt lat="43.470410294830799102783203125" lon="1.46680212579667568206787109375">
        <ele>234.600006103515625</ele>
        <time>2026-08-05T08:07:35.000Z</time>
        <extensions>
          <ns3:TrackPointExtension>
            <ns3:hr>77</ns3:hr>
            <ns3:cad>0</ns3:cad>
          </ns3:TrackPointExtension>
        </extensions>
      </trkpt>
      <trkpt lat="43.470410294830799102783203125" lon="1.46680212579667568206787109375">
        <ele>234.600006103515625</ele>
        <time>2026-08-05T08:07:36.000Z</time>
        <extensions>
          <ns3:TrackPointExtension>
            <ns3:hr>77</ns3:hr>
            <ns3:cad>0</ns3:cad>
          </ns3:TrackPointExtension>
        </extensions>
      </trkpt>
      <trkpt lat="43.470410294830799102783203125" lon="1.46680212579667568206787109375">
        <ele>234.600006103515625</ele>
        <time>2026-08-05T08:07:37.000Z</time>
        <extensions>
          <ns3:TrackPointExtension>
            <ns3:hr>77</ns3:hr>
            <ns3:cad>0</ns3:cad>
          </ns3:TrackPointExtension>
        </extensions>
      </trkpt>
      <trkpt lat="43.470410294830799102783203125" lon="1.46680212579667568206787109375">
        <ele>234.600006103515625</ele>
        <time>2026-08-05T08:07:38.000Z</time>
        <extensions>
          <ns3:TrackPointExtension>
            <ns3:hr>77</ns3:hr>
            <ns3:cad>0</ns3:cad>
          </ns3:TrackPointExtension>
        </extensions>
      </trkpt>
      <trkpt lat="43.470410294830799102783203125" lon="1.46680212579667568206787109375">
        <ele>234.600006103515625</ele>
        <time>2026-08-05T08:07:39.000Z</time>
        <extensions>
          <ns3:TrackPointExtension>
            <ns3:hr>76</ns3:hr>
            <ns3:cad>0</ns3:cad>
          </ns3:TrackPointExtension>
        </extensions>
      </trkpt>
      <trkpt lat="43.470410294830799102783203125" lon="1.46680212579667568206787109375">
        <ele>234.600006103515625</ele>
        <time>2026-08-05T08:07:40.000Z</time>
        <extensions>
          <ns3:TrackPointExtension>
            <ns3:hr>76</ns3:hr>
            <ns3:cad>0</ns3:cad>
          </ns3:TrackPointExtension>
        </extensions>
      </trkpt>
      <trkpt lat="43.470410294830799102783203125" lon="1.46680212579667568206787109375">
        <ele>234.600006103515625</ele>
        <time>2026-08-05T08:07:41.000Z</time>
        <extensions>
          <ns3:TrackPointExtension>
            <ns3:hr>76</ns3:hr>
            <ns3:cad>0</ns3:cad>
          </ns3:TrackPointExtension>
        </extensions>
      </trkpt>
      <trkpt lat="43.470410294830799102783203125" lon="1.46680212579667568206787109375">
        <ele>234.600006103515625</ele>
        <time>2026-08-05T08:07:42.000Z</time>
        <extensions>
          <ns3:TrackPointExtension>
            <ns3:hr>75</ns3:hr>
            <ns3:cad>0</ns3:cad>
          </ns3:TrackPointExtension>
        </extensions>
      </trkpt>
      <trkpt lat="43.470410294830799102783203125" lon="1.46680212579667568206787109375">
        <ele>234.600006103515625</ele>
        <time>2026-08-05T08:07:43.000Z</time>
        <extensions>
          <ns3:TrackPointExtension>
            <ns3:hr>75</ns3:hr>
            <ns3:cad>0</ns3:cad>
          </ns3:TrackPointExtension>
        </extensions>
      </trkpt>
      <trkpt lat="43.470410294830799102783203125" lon="1.46680212579667568206787109375">
        <ele>234.600006103515625</ele>
        <time>2026-08-05T08:07:44.000Z</time>
        <extensions>
          <ns3:TrackPointExtension>
            <ns3:hr>74</ns3:hr>
            <ns3:cad>0</ns3:cad>
          </ns3:TrackPointExtension>
        </extensions>
      </trkpt>
      <trkpt lat="43.470410294830799102783203125" lon="1.46680212579667568206787109375">
        <ele>234.600006103515625</ele>
        <time>2026-08-05T08:07:45.000Z</time>
        <extensions>
          <ns3:TrackPointExtension>
            <ns3:hr>73</ns3:hr>
            <ns3:cad>0</ns3:cad>
          </ns3:TrackPointExtension>
        </extensions>
      </trkpt>
      <trkpt lat="43.470410294830799102783203125" lon="1.46680212579667568206787109375">
        <ele>234.600006103515625</ele>
        <time>2026-08-05T08:07:46.000Z</time>
        <extensions>
          <ns3:TrackPointExtension>
            <ns3:hr>72</ns3:hr>
            <ns3:cad>0</ns3:cad>
          </ns3:TrackPointExtension>
        </extensions>
      </trkpt>
      <trkpt lat="43.470410294830799102783203125" lon="1.46680212579667568206787109375">
        <ele>234.600006103515625</ele>
        <time>2026-08-05T08:07:47.000Z</time>
        <extensions>
          <ns3:TrackPointExtension>
            <ns3:hr>72</ns3:hr>
            <ns3:cad>0</ns3:cad>
          </ns3:TrackPointExtension>
        </extensions>
      </trkpt>
      <trkpt lat="43.470410294830799102783203125" lon="1.46680212579667568206787109375">
        <ele>234.600006103515625</ele>
        <time>2026-08-05T08:07:48.000Z</time>
        <extensions>
          <ns3:TrackPointExtension>
            <ns3:hr>72</ns3:hr>
            <ns3:cad>0</ns3:cad>
          </ns3:TrackPointExtension>
        </extensions>
      </trkpt>
      <trkpt lat="43.470410294830799102783203125" lon="1.46680212579667568206787109375">
        <ele>234.600006103515625</ele>
        <time>2026-08-05T08:07:49.000Z</time>
        <extensions>
          <ns3:TrackPointExtension>
            <ns3:hr>72</ns3:hr>
            <ns3:cad>0</ns3:cad>
          </ns3:TrackPointExtension>
        </extensions>
      </trkpt>
      <trkpt lat="43.470410294830799102783203125" lon="1.46680212579667568206787109375">
        <ele>234.600006103515625</ele>
        <time>2026-08-05T08:07:50.000Z</time>
        <extensions>
          <ns3:TrackPointExtension>
            <ns3:hr>72</ns3:hr>
            <ns3:cad>0</ns3:cad>
          </ns3:TrackPointExtension>
        </extensions>
      </trkpt>
      <trkpt lat="43.470410294830799102783203125" lon="1.46680212579667568206787109375">
        <ele>234.600006103515625</ele>
        <time>2026-08-05T08:07:51.000Z</time>
        <extensions>
          <ns3:TrackPointExtension>
            <ns3:hr>72</ns3:hr>
            <ns3:cad>0</ns3:cad>
          </ns3:TrackPointExtension>
        </extensions>
      </trkpt>
      <trkpt lat="43.470410294830799102783203125" lon="1.46680212579667568206787109375">
        <ele>234.600006103515625</ele>
        <time>2026-08-05T08:07:52.000Z</time>
        <extensions>
          <ns3:TrackPointExtension>
            <ns3:hr>72</ns3:hr>
            <ns3:cad>0</ns3:cad>
          </ns3:TrackPointExtension>
        </extensions>
      </trkpt>
      <trkpt lat="43.470410294830799102783203125" lon="1.46680212579667568206787109375">
        <ele>234.600006103515625</ele>
        <time>2026-08-05T08:07:53.000Z</time>
        <extensions>
          <ns3:TrackPointExtension>
            <ns3:hr>71</ns3:hr>
            <ns3:cad>0</ns3:cad>
          </ns3:TrackPointExtension>
        </extensions>
      </trkpt>
      <trkpt lat="43.470410294830799102783203125" lon="1.46680212579667568206787109375">
        <ele>234.600006103515625</ele>
        <time>2026-08-05T08:07:54.000Z</time>
        <extensions>
          <ns3:TrackPointExtension>
            <ns3:hr>71</ns3:hr>
            <ns3:cad>0</ns3:cad>
          </ns3:TrackPointExtension>
        </extensions>
      </trkpt>
      <trkpt lat="43.470410294830799102783203125" lon="1.46680212579667568206787109375">
        <ele>234.600006103515625</ele>
        <time>2026-08-05T08:07:55.000Z</time>
        <extensions>
          <ns3:TrackPointExtension>
            <ns3:hr>71</ns3:hr>
            <ns3:cad>0</ns3:cad>
          </ns3:TrackPointExtension>
        </extensions>
      </trkpt>
      <trkpt lat="43.470410294830799102783203125" lon="1.46680212579667568206787109375">
        <ele>234.600006103515625</ele>
        <time>2026-08-05T08:07:56.000Z</time>
        <extensions>
          <ns3:TrackPointExtension>
            <ns3:hr>69</ns3:hr>
            <ns3:cad>0</ns3:cad>
          </ns3:TrackPointExtension>
        </extensions>
      </trkpt>
      <trkpt lat="43.470410294830799102783203125" lon="1.46680212579667568206787109375">
        <ele>234.600006103515625</ele>
        <time>2026-08-05T08:07:57.000Z</time>
        <extensions>
          <ns3:TrackPointExtension>
            <ns3:hr>65</ns3:hr>
            <ns3:cad>0</ns3:cad>
          </ns3:TrackPointExtension>
        </extensions>
      </trkpt>
      <trkpt lat="43.470410294830799102783203125" lon="1.46680212579667568206787109375">
        <ele>234.600006103515625</ele>
        <time>2026-08-05T08:07:58.000Z</time>
        <extensions>
          <ns3:TrackPointExtension>
            <ns3:hr>65</ns3:hr>
            <ns3:cad>0</ns3:cad>
          </ns3:TrackPointExtension>
        </extensions>
      </trkpt>
      <trkpt lat="43.470410294830799102783203125" lon="1.46680212579667568206787109375">
        <ele>234.600006103515625</ele>
        <time>2026-08-05T08:07:59.000Z</time>
        <extensions>
          <ns3:TrackPointExtension>
            <ns3:hr>65</ns3:hr>
            <ns3:cad>0</ns3:cad>
          </ns3:TrackPointExtension>
        </extensions>
      </trkpt>
      <trkpt lat="43.470410294830799102783203125" lon="1.46680212579667568206787109375">
        <ele>234.8000030517578125</ele>
        <time>2026-08-05T08:08:00.000Z</time>
        <extensions>
          <ns3:TrackPointExtension>
            <ns3:hr>64</ns3:hr>
            <ns3:cad>0</ns3:cad>
          </ns3:TrackPointExtension>
        </extensions>
      </trkpt>
      <trkpt lat="43.470410294830799102783203125" lon="1.46680212579667568206787109375">
        <ele>234.8000030517578125</ele>
        <time>2026-08-05T08:08:01.000Z</time>
        <extensions>
          <ns3:TrackPointExtension>
            <ns3:hr>63</ns3:hr>
            <ns3:cad>0</ns3:cad>
          </ns3:TrackPointExtension>
        </extensions>
      </trkpt>
      <trkpt lat="43.470410294830799102783203125" lon="1.46680212579667568206787109375">
        <ele>234.8000030517578125</ele>
        <time>2026-08-05T08:08:02.000Z</time>
        <extensions>
          <ns3:TrackPointExtension>
            <ns3:hr>63</ns3:hr>
            <ns3:cad>0</ns3:cad>
          </ns3:TrackPointExtension>
        </extensions>
      </trkpt>
      <trkpt lat="43.470410294830799102783203125" lon="1.46680212579667568206787109375">
        <ele>234.8000030517578125</ele>
        <time>2026-08-05T08:08:03.000Z</time>
        <extensions>
          <ns3:TrackPointExtension>
            <ns3:hr>64</ns3:hr>
            <ns3:cad>0</ns3:cad>
          </ns3:TrackPointExtension>
        </extensions>
      </trkpt>
      <trkpt lat="43.470410294830799102783203125" lon="1.46680212579667568206787109375">
        <ele>234.8000030517578125</ele>
        <time>2026-08-05T08:08:04.000Z</time>
        <extensions>
          <ns3:TrackPointExtension>
            <ns3:hr>64</ns3:hr>
            <ns3:cad>0</ns3:cad>
          </ns3:TrackPointExtension>
        </extensions>
      </trkpt>
      <trkpt lat="43.470410294830799102783203125" lon="1.46680212579667568206787109375">
        <ele>234.8000030517578125</ele>
        <time>2026-08-05T08:08:05.000Z</time>
        <extensions>
          <ns3:TrackPointExtension>
            <ns3:hr>65</ns3:hr>
            <ns3:cad>0</ns3:cad>
          </ns3:TrackPointExtension>
        </extensions>
      </trkpt>
      <trkpt lat="43.470410294830799102783203125" lon="1.46680212579667568206787109375">
        <ele>234.8000030517578125</ele>
        <time>2026-08-05T08:08:06.000Z</time>
        <extensions>
          <ns3:TrackPointExtension>
            <ns3:hr>65</ns3:hr>
            <ns3:cad>0</ns3:cad>
          </ns3:TrackPointExtension>
        </extensions>
      </trkpt>
      <trkpt lat="43.470410294830799102783203125" lon="1.46680212579667568206787109375">
        <ele>234.8000030517578125</ele>
        <time>2026-08-05T08:08:07.000Z</time>
        <extensions>
          <ns3:TrackPointExtension>
            <ns3:hr>65</ns3:hr>
            <ns3:cad>0</ns3:cad>
          </ns3:TrackPointExtension>
        </extensions>
      </trkpt>
      <trkpt lat="43.470410294830799102783203125" lon="1.46680212579667568206787109375">
        <ele>234.8000030517578125</ele>
        <time>2026-08-05T08:08:08.000Z</time>
        <extensions>
          <ns3:TrackPointExtension>
            <ns3:hr>64</ns3:hr>
            <ns3:cad>0</ns3:cad>
          </ns3:TrackPointExtension>
        </extensions>
      </trkpt>
      <trkpt lat="43.470410294830799102783203125" lon="1.46680212579667568206787109375">
        <ele>234.600006103515625</ele>
        <time>2026-08-05T08:08:09.000Z</time>
        <extensions>
          <ns3:TrackPointExtension>
            <ns3:hr>64</ns3:hr>
            <ns3:cad>0</ns3:cad>
          </ns3:TrackPointExtension>
        </extensions>
      </trkpt>
      <trkpt lat="43.470410294830799102783203125" lon="1.46680212579667568206787109375">
        <ele>234.600006103515625</ele>
        <time>2026-08-05T08:08:10.000Z</time>
        <extensions>
          <ns3:TrackPointExtension>
            <ns3:hr>64</ns3:hr>
            <ns3:cad>0</ns3:cad>
          </ns3:TrackPointExtension>
        </extensions>
      </trkpt>
      <trkpt lat="43.470410294830799102783203125" lon="1.46680212579667568206787109375">
        <ele>234.600006103515625</ele>
        <time>2026-08-05T08:08:11.000Z</time>
        <extensions>
          <ns3:TrackPointExtension>
            <ns3:hr>65</ns3:hr>
            <ns3:cad>0</ns3:cad>
          </ns3:TrackPointExtension>
        </extensions>
      </trkpt>
      <trkpt lat="43.470410294830799102783203125" lon="1.46680212579667568206787109375">
        <ele>234.600006103515625</ele>
        <time>2026-08-05T08:08:12.000Z</time>
        <extensions>
          <ns3:TrackPointExtension>
            <ns3:hr>65</ns3:hr>
            <ns3:cad>0</ns3:cad>
          </ns3:TrackPointExtension>
        </extensions>
      </trkpt>
      <trkpt lat="43.470410294830799102783203125" lon="1.46680212579667568206787109375">
        <ele>234.600006103515625</ele>
        <time>2026-08-05T08:08:13.000Z</time>
        <extensions>
          <ns3:TrackPointExtension>
            <ns3:hr>65</ns3:hr>
            <ns3:cad>0</ns3:cad>
          </ns3:TrackPointExtension>
        </extensions>
      </trkpt>
      <trkpt lat="43.470410294830799102783203125" lon="1.46680212579667568206787109375">
        <ele>234.600006103515625</ele>
        <time>2026-08-05T08:08:14.000Z</time>
        <extensions>
          <ns3:TrackPointExtension>
            <ns3:hr>65</ns3:hr>
            <ns3:cad>0</ns3:cad>
          </ns3:TrackPointExtension>
        </extensions>
      </trkpt>
      <trkpt lat="43.470410294830799102783203125" lon="1.46680212579667568206787109375">
        <ele>234.600006103515625</ele>
        <time>2026-08-05T08:08:15.000Z</time>
        <extensions>
          <ns3:TrackPointExtension>
            <ns3:hr>65</ns3:hr>
            <ns3:cad>0</ns3:cad>
          </ns3:TrackPointExtension>
        </extensions>
      </trkpt>
      <trkpt lat="43.470410294830799102783203125" lon="1.46680212579667568206787109375">
        <ele>234.600006103515625</ele>
        <time>2026-08-05T08:08:16.000Z</time>
        <extensions>
          <ns3:TrackPointExtension>
            <ns3:hr>66</ns3:hr>
            <ns3:cad>0</ns3:cad>
          </ns3:TrackPointExtension>
        </extensions>
      </trkpt>
      <trkpt lat="43.470410294830799102783203125" lon="1.46680212579667568206787109375">
        <ele>234.600006103515625</ele>
        <time>2026-08-05T08:08:17.000Z</time>
        <extensions>
          <ns3:TrackPointExtension>
            <ns3:hr>66</ns3:hr>
            <ns3:cad>0</ns3:cad>
          </ns3:TrackPointExtension>
        </extensions>
      </trkpt>
      <trkpt lat="43.470410294830799102783203125" lon="1.46680212579667568206787109375">
        <ele>234.600006103515625</ele>
        <time>2026-08-05T08:08:18.000Z</time>
        <extensions>
          <ns3:TrackPointExtension>
            <ns3:hr>66</ns3:hr>
            <ns3:cad>0</ns3:cad>
          </ns3:TrackPointExtension>
        </extensions>
      </trkpt>
      <trkpt lat="43.470410294830799102783203125" lon="1.46680212579667568206787109375">
        <ele>234.600006103515625</ele>
        <time>2026-08-05T08:08:19.000Z</time>
        <extensions>
          <ns3:TrackPointExtension>
            <ns3:hr>66</ns3:hr>
            <ns3:cad>0</ns3:cad>
          </ns3:TrackPointExtension>
        </extensions>
      </trkpt>
      <trkpt lat="43.470410294830799102783203125" lon="1.46680212579667568206787109375">
        <ele>234.600006103515625</ele>
        <time>2026-08-05T08:08:20.000Z</time>
        <extensions>
          <ns3:TrackPointExtension>
            <ns3:hr>66</ns3:hr>
            <ns3:cad>0</ns3:cad>
          </ns3:TrackPointExtension>
        </extensions>
      </trkpt>
      <trkpt lat="43.470410294830799102783203125" lon="1.46680212579667568206787109375">
        <ele>234.600006103515625</ele>
        <time>2026-08-05T08:08:21.000Z</time>
        <extensions>
          <ns3:TrackPointExtension>
            <ns3:hr>66</ns3:hr>
            <ns3:cad>0</ns3:cad>
          </ns3:TrackPointExtension>
        </extensions>
      </trkpt>
      <trkpt lat="43.470410294830799102783203125" lon="1.46680212579667568206787109375">
        <ele>234.600006103515625</ele>
        <time>2026-08-05T08:08:22.000Z</time>
        <extensions>
          <ns3:TrackPointExtension>
            <ns3:hr>65</ns3:hr>
            <ns3:cad>0</ns3:cad>
          </ns3:TrackPointExtension>
        </extensions>
      </trkpt>
      <trkpt lat="43.470410294830799102783203125" lon="1.46680212579667568206787109375">
        <ele>234.600006103515625</ele>
        <time>2026-08-05T08:08:23.000Z</time>
        <extensions>
          <ns3:TrackPointExtension>
            <ns3:hr>65</ns3:hr>
            <ns3:cad>0</ns3:cad>
          </ns3:TrackPointExtension>
        </extensions>
      </trkpt>
      <trkpt lat="43.470410294830799102783203125" lon="1.46680212579667568206787109375">
        <ele>234.600006103515625</ele>
        <time>2026-08-05T08:08:24.000Z</time>
        <extensions>
          <ns3:TrackPointExtension>
            <ns3:hr>65</ns3:hr>
            <ns3:cad>0</ns3:cad>
          </ns3:TrackPointExtension>
        </extensions>
      </trkpt>
      <trkpt lat="43.470410294830799102783203125" lon="1.46680212579667568206787109375">
        <ele>234.600006103515625</ele>
        <time>2026-08-05T08:08:25.000Z</time>
        <extensions>
          <ns3:TrackPointExtension>
            <ns3:hr>62</ns3:hr>
            <ns3:cad>0</ns3:cad>
          </ns3:TrackPointExtension>
        </extensions>
      </trkpt>
      <trkpt lat="43.470410294830799102783203125" lon="1.46680212579667568206787109375">
        <ele>234.600006103515625</ele>
        <time>2026-08-05T08:08:26.000Z</time>
        <extensions>
          <ns3:TrackPointExtension>
            <ns3:hr>61</ns3:hr>
            <ns3:cad>0</ns3:cad>
          </ns3:TrackPointExtension>
        </extensions>
      </trkpt>
      <trkpt lat="43.470410294830799102783203125" lon="1.46680212579667568206787109375">
        <ele>234.600006103515625</ele>
        <time>2026-08-05T08:08:27.000Z</time>
        <extensions>
          <ns3:TrackPointExtension>
            <ns3:hr>60</ns3:hr>
            <ns3:cad>0</ns3:cad>
          </ns3:TrackPointExtension>
        </extensions>
      </trkpt>
      <trkpt lat="43.470410294830799102783203125" lon="1.46680212579667568206787109375">
        <ele>234.399993896484375</ele>
        <time>2026-08-05T08:08:28.000Z</time>
        <extensions>
          <ns3:TrackPointExtension>
            <ns3:hr>59</ns3:hr>
            <ns3:cad>0</ns3:cad>
          </ns3:TrackPointExtension>
        </extensions>
      </trkpt>
      <trkpt lat="43.470410294830799102783203125" lon="1.46680212579667568206787109375">
        <ele>234.399993896484375</ele>
        <time>2026-08-05T08:08:29.000Z</time>
        <extensions>
          <ns3:TrackPointExtension>
            <ns3:hr>58</ns3:hr>
            <ns3:cad>0</ns3:cad>
          </ns3:TrackPointExtension>
        </extensions>
      </trkpt>
      <trkpt lat="43.470410294830799102783203125" lon="1.46680212579667568206787109375">
        <ele>234.399993896484375</ele>
        <time>2026-08-05T08:08:30.000Z</time>
        <extensions>
          <ns3:TrackPointExtension>
            <ns3:hr>58</ns3:hr>
            <ns3:cad>0</ns3:cad>
          </ns3:TrackPointExtension>
        </extensions>
      </trkpt>
      <trkpt lat="43.47041825763881206512451171875" lon="1.46679357625544071197509765625">
        <ele>234.399993896484375</ele>
        <time>2026-08-05T08:08:31.000Z</time>
        <extensions>
          <ns3:TrackPointExtension>
            <ns3:hr>57</ns3:hr>
            <ns3:cad>0</ns3:cad>
          </ns3:TrackPointExtension>
        </extensions>
      </trkpt>
      <trkpt lat="43.4704215265810489654541015625" lon="1.4667661674320697784423828125">
        <ele>234.399993896484375</ele>
        <time>2026-08-05T08:08:32.000Z</time>
        <extensions>
          <ns3:TrackPointExtension>
            <ns3:hr>55</ns3:hr>
            <ns3:cad>0</ns3:cad>
          </ns3:TrackPointExtension>
        </extensions>
      </trkpt>
      <trkpt lat="43.470424376428127288818359375" lon="1.46675485186278820037841796875">
        <ele>234.399993896484375</ele>
        <time>2026-08-05T08:08:33.000Z</time>
        <extensions>
          <ns3:TrackPointExtension>
            <ns3:hr>55</ns3:hr>
            <ns3:cad>0</ns3:cad>
          </ns3:TrackPointExtension>
        </extensions>
      </trkpt>
      <trkpt lat="43.4704272262752056121826171875" lon="1.46674948744475841522216796875">
        <ele>234.399993896484375</ele>
        <time>2026-08-05T08:08:34.000Z</time>
        <extensions>
          <ns3:TrackPointExtension>
            <ns3:hr>55</ns3:hr>
            <ns3:cad>0</ns3:cad>
          </ns3:TrackPointExtension>
        </extensions>
      </trkpt>
      <trkpt lat="43.47042965702712535858154296875" lon="1.466743536293506622314453125">
        <ele>234.399993896484375</ele>
        <time>2026-08-05T08:08:35.000Z</time>
        <extensions>
          <ns3:TrackPointExtension>
            <ns3:hr>55</ns3:hr>
            <ns3:cad>0</ns3:cad>
          </ns3:TrackPointExtension>
        </extensions>
      </trkpt>
      <trkpt lat="43.470430076122283935546875" lon="1.46673305891454219818115234375">
        <ele>234.399993896484375</ele>
        <time>2026-08-05T08:08:36.000Z</time>
        <extensions>
          <ns3:TrackPointExtension>
            <ns3:hr>54</ns3:hr>
            <ns3:cad>0</ns3:cad>
          </ns3:TrackPointExtension>
        </extensions>
      </trkpt>
      <trkpt lat="43.4704346023499965667724609375" lon="1.466724760830402374267578125">
        <ele>234.399993896484375</ele>
        <time>2026-08-05T08:08:37.000Z</time>
        <extensions>
          <ns3:TrackPointExtension>
            <ns3:hr>53</ns3:hr>
            <ns3:cad>0</ns3:cad>
          </ns3:TrackPointExtension>
        </extensions>
      </trkpt>
      <trkpt lat="43.47043879330158233642578125" lon="1.4667190611362457275390625">
        <ele>234.399993896484375</ele>
        <time>2026-08-05T08:08:38.000Z</time>
        <extensions>
          <ns3:TrackPointExtension>
            <ns3:hr>52</ns3:hr>
            <ns3:cad>0</ns3:cad>
          </ns3:TrackPointExtension>
        </extensions>
      </trkpt>
      <trkpt lat="43.47044692374765872955322265625" lon="1.46671243943274021148681640625">
        <ele>234.399993896484375</ele>
        <time>2026-08-05T08:08:39.000Z</time>
        <extensions>
          <ns3:TrackPointExtension>
            <ns3:hr>52</ns3:hr>
            <ns3:cad>0</ns3:cad>
          </ns3:TrackPointExtension>
        </extensions>
      </trkpt>
      <trkpt lat="43.47044826485216617584228515625" lon="1.46671579219400882720947265625">
        <ele>234.399993896484375</ele>
        <time>2026-08-05T08:08:40.000Z</time>
        <extensions>
          <ns3:TrackPointExtension>
            <ns3:hr>51</ns3:hr>
            <ns3:cad>0</ns3:cad>
          </ns3:TrackPointExtension>
        </extensions>
      </trkpt>
      <trkpt lat="43.47044776193797588348388671875" lon="1.466714031994342803955078125">
        <ele>234.1999969482421875</ele>
        <time>2026-08-05T08:08:41.000Z</time>
        <extensions>
          <ns3:TrackPointExtension>
            <ns3:hr>51</ns3:hr>
            <ns3:cad>0</ns3:cad>
          </ns3:TrackPointExtension>
        </extensions>
      </trkpt>
      <trkpt lat="43.47044792957603931427001953125" lon="1.46671394817531108856201171875">
        <ele>234.1999969482421875</ele>
        <time>2026-08-05T08:08:42.000Z</time>
        <extensions>
          <ns3:TrackPointExtension>
            <ns3:hr>51</ns3:hr>
            <ns3:cad>0</ns3:cad>
          </ns3:TrackPointExtension>
        </extensions>
      </trkpt>
      <trkpt lat="43.47044792957603931427001953125" lon="1.46671394817531108856201171875">
        <ele>234.1999969482421875</ele>
        <time>2026-08-05T08:08:43.000Z</time>
        <extensions>
          <ns3:TrackPointExtension>
            <ns3:hr>52</ns3:hr>
            <ns3:cad>0</ns3:cad>
          </ns3:TrackPointExtension>
        </extensions>
      </trkpt>
      <trkpt lat="43.47044792957603931427001953125" lon="1.46671394817531108856201171875">
        <ele>234.1999969482421875</ele>
        <time>2026-08-05T08:08:44.000Z</time>
        <extensions>
          <ns3:TrackPointExtension>
            <ns3:hr>52</ns3:hr>
            <ns3:cad>0</ns3:cad>
          </ns3:TrackPointExtension>
        </extensions>
      </trkpt>
      <trkpt lat="43.47044792957603931427001953125" lon="1.46671394817531108856201171875">
        <ele>234.1999969482421875</ele>
        <time>2026-08-05T08:08:45.000Z</time>
        <extensions>
          <ns3:TrackPointExtension>
            <ns3:hr>52</ns3:hr>
            <ns3:cad>0</ns3:cad>
          </ns3:TrackPointExtension>
        </extensions>
      </trkpt>
      <trkpt lat="43.47044792957603931427001953125" lon="1.46671394817531108856201171875">
        <ele>234.1999969482421875</ele>
        <time>2026-08-05T08:08:46.000Z</time>
        <extensions>
          <ns3:TrackPointExtension>
            <ns3:hr>52</ns3:hr>
            <ns3:cad>0</ns3:cad>
          </ns3:TrackPointExtension>
        </extensions>
      </trkpt>
      <trkpt lat="43.4704483486711978912353515625" lon="1.4667131938040256500244140625">
        <ele>234.1999969482421875</ele>
        <time>2026-08-05T08:08:47.000Z</time>
        <extensions>
          <ns3:TrackPointExtension>
            <ns3:hr>52</ns3:hr>
            <ns3:cad>0</ns3:cad>
          </ns3:TrackPointExtension>
        </extensions>
      </trkpt>
      <trkpt lat="43.470459915697574615478515625" lon="1.466699950397014617919921875">
        <ele>234.1999969482421875</ele>
        <time>2026-08-05T08:08:48.000Z</time>
        <extensions>
          <ns3:TrackPointExtension>
            <ns3:hr>52</ns3:hr>
            <ns3:cad>0</ns3:cad>
          </ns3:TrackPointExtension>
        </extensions>
      </trkpt>
      <trkpt lat="43.47046695649623870849609375" lon="1.46668980829417705535888671875">
        <ele>234.1999969482421875</ele>
        <time>2026-08-05T08:08:49.000Z</time>
        <extensions>
          <ns3:TrackPointExtension>
            <ns3:hr>52</ns3:hr>
            <ns3:cad>0</ns3:cad>
          </ns3:TrackPointExtension>
        </extensions>
      </trkpt>
      <trkpt lat="43.4704711474478244781494140625" lon="1.466684527695178985595703125">
        <ele>234.1999969482421875</ele>
        <time>2026-08-05T08:08:50.000Z</time>
        <extensions>
          <ns3:TrackPointExtension>
            <ns3:hr>53</ns3:hr>
            <ns3:cad>0</ns3:cad>
          </ns3:TrackPointExtension>
        </extensions>
      </trkpt>
      <trkpt lat="43.47047609277069568634033203125" lon="1.46667187102138996124267578125">
        <ele>234</ele>
        <time>2026-08-05T08:08:51.000Z</time>
        <extensions>
          <ns3:TrackPointExtension>
            <ns3:hr>53</ns3:hr>
            <ns3:cad>0</ns3:cad>
          </ns3:TrackPointExtension>
        </extensions>
      </trkpt>
      <trkpt lat="43.47048304975032806396484375" lon="1.4666605554521083831787109375">
        <ele>234</ele>
        <time>2026-08-05T08:08:52.000Z</time>
        <extensions>
          <ns3:TrackPointExtension>
            <ns3:hr>54</ns3:hr>
            <ns3:cad>61</ns3:cad>
          </ns3:TrackPointExtension>
        </extensions>
      </trkpt>
      <trkpt lat="43.470488749444484710693359375" lon="1.46665058098733425140380859375">
        <ele>233.8000030517578125</ele>
        <time>2026-08-05T08:08:53.000Z</time>
        <extensions>
          <ns3:TrackPointExtension>
            <ns3:hr>55</ns3:hr>
            <ns3:cad>61</ns3:cad>
          </ns3:TrackPointExtension>
        </extensions>
      </trkpt>
      <trkpt lat="43.4704936109483242034912109375" lon="1.4666427858173847198486328125">
        <ele>233.600006103515625</ele>
        <time>2026-08-05T08:08:54.000Z</time>
        <extensions>
          <ns3:TrackPointExtension>
            <ns3:hr>56</ns3:hr>
            <ns3:cad>61</ns3:cad>
          </ns3:TrackPointExtension>
        </extensions>
      </trkpt>
      <trkpt lat="43.4704983048141002655029296875" lon="1.4666344039142131805419921875">
        <ele>233.600006103515625</ele>
        <time>2026-08-05T08:08:55.000Z</time>
        <extensions>
          <ns3:TrackPointExtension>
            <ns3:hr>56</ns3:hr>
            <ns3:cad>47</ns3:cad>
          </ns3:TrackPointExtension>
        </extensions>
      </trkpt>
      <trkpt lat="43.47050442360341548919677734375" lon="1.46662426181137561798095703125">
        <ele>233.399993896484375</ele>
        <time>2026-08-05T08:08:56.000Z</time>
        <extensions>
          <ns3:TrackPointExtension>
            <ns3:hr>56</ns3:hr>
            <ns3:cad>47</ns3:cad>
          </ns3:TrackPointExtension>
        </extensions>
      </trkpt>
      <trkpt lat="43.470508195459842681884765625" lon="1.4666142873466014862060546875">
        <ele>233.399993896484375</ele>
        <time>2026-08-05T08:08:57.000Z</time>
        <extensions>
          <ns3:TrackPointExtension>
            <ns3:hr>57</ns3:hr>
            <ns3:cad>47</ns3:cad>
          </ns3:TrackPointExtension>
        </extensions>
      </trkpt>
      <trkpt lat="43.47051322460174560546875" lon="1.46660573780536651611328125">
        <ele>233.399993896484375</ele>
        <time>2026-08-05T08:08:58.000Z</time>
        <extensions>
          <ns3:TrackPointExtension>
            <ns3:hr>57</ns3:hr>
            <ns3:cad>47</ns3:cad>
          </ns3:TrackPointExtension>
        </extensions>
      </trkpt>
      <trkpt lat="43.47051766701042652130126953125" lon="1.4666015468537807464599609375">
        <ele>233.1999969482421875</ele>
        <time>2026-08-05T08:08:59.000Z</time>
        <extensions>
          <ns3:TrackPointExtension>
            <ns3:hr>56</ns3:hr>
            <ns3:cad>47</ns3:cad>
          </ns3:TrackPointExtension>
        </extensions>
      </trkpt>
      <trkpt lat="43.4705224446952342987060546875" lon="1.46659308113157749176025390625">
        <ele>233</ele>
        <time>2026-08-05T08:09:00.000Z</time>
        <extensions>
          <ns3:TrackPointExtension>
            <ns3:hr>55</ns3:hr>
            <ns3:cad>47</ns3:cad>
          </ns3:TrackPointExtension>
        </extensions>
      </trkpt>
      <trkpt lat="43.47053023986518383026123046875" lon="1.46658067591488361358642578125">
        <ele>233</ele>
        <time>2026-08-05T08:09:01.000Z</time>
        <extensions>
          <ns3:TrackPointExtension>
            <ns3:hr>54</ns3:hr>
            <ns3:cad>48</ns3:cad>
          </ns3:TrackPointExtension>
        </extensions>
      </trkpt>
      <trkpt lat="43.47053862176835536956787109375" lon="1.46657095290720462799072265625">
        <ele>232.8000030517578125</ele>
        <time>2026-08-05T08:09:02.000Z</time>
        <extensions>
          <ns3:TrackPointExtension>
            <ns3:hr>53</ns3:hr>
            <ns3:cad>48</ns3:cad>
          </ns3:TrackPointExtension>
        </extensions>
      </trkpt>
      <trkpt lat="43.47054465673863887786865234375" lon="1.46656340919435024261474609375">
        <ele>232.8000030517578125</ele>
        <time>2026-08-05T08:09:03.000Z</time>
        <extensions>
          <ns3:TrackPointExtension>
            <ns3:hr>52</ns3:hr>
            <ns3:cad>48</ns3:cad>
          </ns3:TrackPointExtension>
        </extensions>
      </trkpt>
      <trkpt lat="43.47055253572762012481689453125" lon="1.46655435673892498016357421875">
        <ele>232.600006103515625</ele>
        <time>2026-08-05T08:09:04.000Z</time>
        <extensions>
          <ns3:TrackPointExtension>
            <ns3:hr>52</ns3:hr>
            <ns3:cad>48</ns3:cad>
          </ns3:TrackPointExtension>
        </extensions>
      </trkpt>
      <trkpt lat="43.47056108526885509490966796875" lon="1.466548405587673187255859375">
        <ele>232.600006103515625</ele>
        <time>2026-08-05T08:09:05.000Z</time>
        <extensions>
          <ns3:TrackPointExtension>
            <ns3:hr>51</ns3:hr>
            <ns3:cad>48</ns3:cad>
          </ns3:TrackPointExtension>
        </extensions>
      </trkpt>
      <trkpt lat="43.470567204058170318603515625" lon="1.4665422029793262481689453125">
        <ele>232.399993896484375</ele>
        <time>2026-08-05T08:09:06.000Z</time>
        <extensions>
          <ns3:TrackPointExtension>
            <ns3:hr>51</ns3:hr>
            <ns3:cad>50</ns3:cad>
          </ns3:TrackPointExtension>
        </extensions>
      </trkpt>
      <trkpt lat="43.47057248465716838836669921875" lon="1.46653197705745697021484375">
        <ele>232.399993896484375</ele>
        <time>2026-08-05T08:09:07.000Z</time>
        <extensions>
          <ns3:TrackPointExtension>
            <ns3:hr>51</ns3:hr>
            <ns3:cad>50</ns3:cad>
          </ns3:TrackPointExtension>
        </extensions>
      </trkpt>
      <trkpt lat="43.47057600505650043487548828125" lon="1.46652250550687313079833984375">
        <ele>232.1999969482421875</ele>
        <time>2026-08-05T08:09:08.000Z</time>
        <extensions>
          <ns3:TrackPointExtension>
            <ns3:hr>51</ns3:hr>
            <ns3:cad>49</ns3:cad>
          </ns3:TrackPointExtension>
        </extensions>
      </trkpt>
      <trkpt lat="43.4705861471593379974365234375" lon="1.4665180630981922149658203125">
        <ele>232.1999969482421875</ele>
        <time>2026-08-05T08:09:09.000Z</time>
        <extensions>
          <ns3:TrackPointExtension>
            <ns3:hr>51</ns3:hr>
            <ns3:cad>49</ns3:cad>
          </ns3:TrackPointExtension>
        </extensions>
      </trkpt>
      <trkpt lat="43.4705908410251140594482421875" lon="1.466512195765972137451171875">
        <ele>232</ele>
        <time>2026-08-05T08:09:10.000Z</time>
        <extensions>
          <ns3:TrackPointExtension>
            <ns3:hr>51</ns3:hr>
            <ns3:cad>49</ns3:cad>
          </ns3:TrackPointExtension>
        </extensions>
      </trkpt>
      <trkpt lat="43.4705995582044124603271484375" lon="1.46649979054927825927734375">
        <ele>232</ele>
        <time>2026-08-05T08:09:11.000Z</time>
        <extensions>
          <ns3:TrackPointExtension>
            <ns3:hr>50</ns3:hr>
            <ns3:cad>48</ns3:cad>
          </ns3:TrackPointExtension>
        </extensions>
      </trkpt>
      <trkpt lat="43.47060643136501312255859375" lon="1.466487385332584381103515625">
        <ele>231.8000030517578125</ele>
        <time>2026-08-05T08:09:12.000Z</time>
        <extensions>
          <ns3:TrackPointExtension>
            <ns3:hr>50</ns3:hr>
            <ns3:cad>48</ns3:cad>
          </ns3:TrackPointExtension>
        </extensions>
      </trkpt>
      <trkpt lat="43.47061372362077236175537109375" lon="1.46647640503942966461181640625">
        <ele>231.8000030517578125</ele>
        <time>2026-08-05T08:09:13.000Z</time>
        <extensions>
          <ns3:TrackPointExtension>
            <ns3:hr>50</ns3:hr>
            <ns3:cad>47</ns3:cad>
          </ns3:TrackPointExtension>
        </extensions>
      </trkpt>
      <trkpt lat="43.4706190042197704315185546875" lon="1.46647028625011444091796875">
        <ele>231.600006103515625</ele>
        <time>2026-08-05T08:09:14.000Z</time>
        <extensions>
          <ns3:TrackPointExtension>
            <ns3:hr>50</ns3:hr>
            <ns3:cad>46</ns3:cad>
          </ns3:TrackPointExtension>
        </extensions>
      </trkpt>
      <trkpt lat="43.47062587738037109375" lon="1.4664677716791629791259765625">
        <ele>231.600006103515625</ele>
        <time>2026-08-05T08:09:15.000Z</time>
        <extensions>
          <ns3:TrackPointExtension>
            <ns3:hr>49</ns3:hr>
            <ns3:cad>46</ns3:cad>
          </ns3:TrackPointExtension>
        </extensions>
      </trkpt>
      <trkpt lat="43.4706334210932254791259765625" lon="1.46645913831889629364013671875">
        <ele>231.600006103515625</ele>
        <time>2026-08-05T08:09:16.000Z</time>
        <extensions>
          <ns3:TrackPointExtension>
            <ns3:hr>49</ns3:hr>
            <ns3:cad>48</ns3:cad>
          </ns3:TrackPointExtension>
        </extensions>
      </trkpt>
      <trkpt lat="43.4706407971680164337158203125" lon="1.46644773893058300018310546875">
        <ele>231.399993896484375</ele>
        <time>2026-08-05T08:09:17.000Z</time>
        <extensions>
          <ns3:TrackPointExtension>
            <ns3:hr>49</ns3:hr>
            <ns3:cad>48</ns3:cad>
          </ns3:TrackPointExtension>
        </extensions>
      </trkpt>
      <trkpt lat="43.47064658068120479583740234375" lon="1.46643902175128459930419921875">
        <ele>231.399993896484375</ele>
        <time>2026-08-05T08:09:18.000Z</time>
        <extensions>
          <ns3:TrackPointExtension>
            <ns3:hr>48</ns3:hr>
            <ns3:cad>48</ns3:cad>
          </ns3:TrackPointExtension>
        </extensions>
      </trkpt>
      <trkpt lat="43.47065311856567859649658203125" lon="1.46642996929585933685302734375">
        <ele>231.399993896484375</ele>
        <time>2026-08-05T08:09:19.000Z</time>
        <extensions>
          <ns3:TrackPointExtension>
            <ns3:hr>48</ns3:hr>
            <ns3:cad>48</ns3:cad>
          </ns3:TrackPointExtension>
        </extensions>
      </trkpt>
      <trkpt lat="43.47066200338304042816162109375" lon="1.46641991101205348968505859375">
        <ele>231.1999969482421875</ele>
        <time>2026-08-05T08:09:20.000Z</time>
        <extensions>
          <ns3:TrackPointExtension>
            <ns3:hr>48</ns3:hr>
            <ns3:cad>47</ns3:cad>
          </ns3:TrackPointExtension>
        </extensions>
      </trkpt>
      <trkpt lat="43.47066720016300678253173828125" lon="1.4664161391556262969970703125">
        <ele>231.1999969482421875</ele>
        <time>2026-08-05T08:09:21.000Z</time>
        <extensions>
          <ns3:TrackPointExtension>
            <ns3:hr>49</ns3:hr>
            <ns3:cad>47</ns3:cad>
          </ns3:TrackPointExtension>
        </extensions>
      </trkpt>
      <trkpt lat="43.47066921181976795196533203125" lon="1.46641664206981658935546875">
        <ele>231.1999969482421875</ele>
        <time>2026-08-05T08:09:22.000Z</time>
        <extensions>
          <ns3:TrackPointExtension>
            <ns3:hr>49</ns3:hr>
            <ns3:cad>47</ns3:cad>
          </ns3:TrackPointExtension>
        </extensions>
      </trkpt>
      <trkpt lat="43.47067348659038543701171875" lon="1.46641253493726253509521484375">
        <ele>231.1999969482421875</ele>
        <time>2026-08-05T08:09:23.000Z</time>
        <extensions>
          <ns3:TrackPointExtension>
            <ns3:hr>49</ns3:hr>
            <ns3:cad>0</ns3:cad>
          </ns3:TrackPointExtension>
        </extensions>
      </trkpt>
      <trkpt lat="43.470678515732288360595703125" lon="1.46640482358634471893310546875">
        <ele>231.1999969482421875</ele>
        <time>2026-08-05T08:09:24.000Z</time>
        <extensions>
          <ns3:TrackPointExtension>
            <ns3:hr>50</ns3:hr>
            <ns3:cad>0</ns3:cad>
          </ns3:TrackPointExtension>
        </extensions>
      </trkpt>
      <trkpt lat="43.47068681381642818450927734375" lon="1.46639878861606121063232421875">
        <ele>231.1999969482421875</ele>
        <time>2026-08-05T08:09:25.000Z</time>
        <extensions>
          <ns3:TrackPointExtension>
            <ns3:hr>52</ns3:hr>
            <ns3:cad>50</ns3:cad>
          </ns3:TrackPointExtension>
        </extensions>
      </trkpt>
      <trkpt lat="43.47069351933896541595458984375" lon="1.46639124490320682525634765625">
        <ele>231</ele>
        <time>2026-08-05T08:09:26.000Z</time>
        <extensions>
          <ns3:TrackPointExtension>
            <ns3:hr>57</ns3:hr>
            <ns3:cad>50</ns3:cad>
          </ns3:TrackPointExtension>
        </extensions>
      </trkpt>
      <trkpt lat="43.47070123068988323211669921875" lon="1.4663829468190670013427734375">
        <ele>231</ele>
        <time>2026-08-05T08:09:27.000Z</time>
        <extensions>
          <ns3:TrackPointExtension>
            <ns3:hr>60</ns3:hr>
            <ns3:cad>50</ns3:cad>
          </ns3:TrackPointExtension>
        </extensions>
      </trkpt>
      <trkpt lat="43.4707048349082469940185546875" lon="1.4663749001920223236083984375">
        <ele>231</ele>
        <time>2026-08-05T08:09:28.000Z</time>
        <extensions>
          <ns3:TrackPointExtension>
            <ns3:hr>61</ns3:hr>
            <ns3:cad>50</ns3:cad>
          </ns3:TrackPointExtension>
        </extensions>
      </trkpt>
      <trkpt lat="43.47071128897368907928466796875" lon="1.4663671888411045074462890625">
        <ele>230.8000030517578125</ele>
        <time>2026-08-05T08:09:29.000Z</time>
        <extensions>
          <ns3:TrackPointExtension>
            <ns3:hr>61</ns3:hr>
            <ns3:cad>50</ns3:cad>
          </ns3:TrackPointExtension>
        </extensions>
      </trkpt>
      <trkpt lat="43.47071564756333827972412109375" lon="1.46636174060404300689697265625">
        <ele>230.8000030517578125</ele>
        <time>2026-08-05T08:09:30.000Z</time>
        <extensions>
          <ns3:TrackPointExtension>
            <ns3:hr>61</ns3:hr>
            <ns3:cad>49</ns3:cad>
          </ns3:TrackPointExtension>
        </extensions>
      </trkpt>
      <trkpt lat="43.47072185017168521881103515625" lon="1.46635436452925205230712890625">
        <ele>230.600006103515625</ele>
        <time>2026-08-05T08:09:31.000Z</time>
        <extensions>
          <ns3:TrackPointExtension>
            <ns3:hr>62</ns3:hr>
            <ns3:cad>49</ns3:cad>
          </ns3:TrackPointExtension>
        </extensions>
      </trkpt>
      <trkpt lat="43.4707276336848735809326171875" lon="1.46634757518768310546875">
        <ele>230.399993896484375</ele>
        <time>2026-08-05T08:09:32.000Z</time>
        <extensions>
          <ns3:TrackPointExtension>
            <ns3:hr>62</ns3:hr>
            <ns3:cad>49</ns3:cad>
          </ns3:TrackPointExtension>
        </extensions>
      </trkpt>
      <trkpt lat="43.4707283042371273040771484375" lon="1.46633910946547985076904296875">
        <ele>230.399993896484375</ele>
        <time>2026-08-05T08:09:33.000Z</time>
        <extensions>
          <ns3:TrackPointExtension>
            <ns3:hr>62</ns3:hr>
            <ns3:cad>49</ns3:cad>
          </ns3:TrackPointExtension>
        </extensions>
      </trkpt>
      <trkpt lat="43.47073291428387165069580078125" lon="1.46633290685713291168212890625">
        <ele>230.1999969482421875</ele>
        <time>2026-08-05T08:09:34.000Z</time>
        <extensions>
          <ns3:TrackPointExtension>
            <ns3:hr>62</ns3:hr>
            <ns3:cad>49</ns3:cad>
          </ns3:TrackPointExtension>
        </extensions>
      </trkpt>
      <trkpt lat="43.4707386977970600128173828125" lon="1.4663276262581348419189453125">
        <ele>230.1999969482421875</ele>
        <time>2026-08-05T08:09:35.000Z</time>
        <extensions>
          <ns3:TrackPointExtension>
            <ns3:hr>61</ns3:hr>
            <ns3:cad>49</ns3:cad>
          </ns3:TrackPointExtension>
        </extensions>
      </trkpt>
      <trkpt lat="43.4707477502524852752685546875" lon="1.4663165621459484100341796875">
        <ele>230</ele>
        <time>2026-08-05T08:09:36.000Z</time>
        <extensions>
          <ns3:TrackPointExtension>
            <ns3:hr>62</ns3:hr>
            <ns3:cad>47</ns3:cad>
          </ns3:TrackPointExtension>
        </extensions>
      </trkpt>
      <trkpt lat="43.470756299793720245361328125" lon="1.46630424074828624725341796875">
        <ele>230</ele>
        <time>2026-08-05T08:09:37.000Z</time>
        <extensions>
          <ns3:TrackPointExtension>
            <ns3:hr>62</ns3:hr>
            <ns3:cad>47</ns3:cad>
          </ns3:TrackPointExtension>
        </extensions>
      </trkpt>
      <trkpt lat="43.470764346420764923095703125" lon="1.46629351191222667694091796875">
        <ele>229.8000030517578125</ele>
        <time>2026-08-05T08:09:38.000Z</time>
        <extensions>
          <ns3:TrackPointExtension>
            <ns3:hr>63</ns3:hr>
            <ns3:cad>47</ns3:cad>
          </ns3:TrackPointExtension>
        </extensions>
      </trkpt>
      <trkpt lat="43.47077247686684131622314453125" lon="1.4662847109138965606689453125">
        <ele>229.8000030517578125</ele>
        <time>2026-08-05T08:09:39.000Z</time>
        <extensions>
          <ns3:TrackPointExtension>
            <ns3:hr>63</ns3:hr>
            <ns3:cad>49</ns3:cad>
          </ns3:TrackPointExtension>
        </extensions>
      </trkpt>
      <trkpt lat="43.47078002057969570159912109375" lon="1.4662773348391056060791015625">
        <ele>229.8000030517578125</ele>
        <time>2026-08-05T08:09:40.000Z</time>
        <extensions>
          <ns3:TrackPointExtension>
            <ns3:hr>63</ns3:hr>
            <ns3:cad>50</ns3:cad>
          </ns3:TrackPointExtension>
        </extensions>
      </trkpt>
      <trkpt lat="43.470787145197391510009765625" lon="1.46627155132591724395751953125">
        <ele>229.8000030517578125</ele>
        <time>2026-08-05T08:09:41.000Z</time>
        <extensions>
          <ns3:TrackPointExtension>
            <ns3:hr>63</ns3:hr>
            <ns3:cad>50</ns3:cad>
          </ns3:TrackPointExtension>
        </extensions>
      </trkpt>
      <trkpt lat="43.47079711966216564178466796875" lon="1.46626350469887256622314453125">
        <ele>229.600006103515625</ele>
        <time>2026-08-05T08:09:42.000Z</time>
        <extensions>
          <ns3:TrackPointExtension>
            <ns3:hr>63</ns3:hr>
            <ns3:cad>49</ns3:cad>
          </ns3:TrackPointExtension>
        </extensions>
      </trkpt>
      <trkpt lat="43.47080550156533718109130859375" lon="1.4662515185773372650146484375">
        <ele>229.399993896484375</ele>
        <time>2026-08-05T08:09:43.000Z</time>
        <extensions>
          <ns3:TrackPointExtension>
            <ns3:hr>62</ns3:hr>
            <ns3:cad>49</ns3:cad>
          </ns3:TrackPointExtension>
        </extensions>
      </trkpt>
      <trkpt lat="43.470813296735286712646484375" lon="1.4662414602935314178466796875">
        <ele>229.399993896484375</ele>
        <time>2026-08-05T08:09:44.000Z</time>
        <extensions>
          <ns3:TrackPointExtension>
            <ns3:hr>61</ns3:hr>
            <ns3:cad>49</ns3:cad>
          </ns3:TrackPointExtension>
        </extensions>
      </trkpt>
      <trkpt lat="43.4708245284855365753173828125" lon="1.4662320725619792938232421875">
        <ele>229.399993896484375</ele>
        <time>2026-08-05T08:09:45.000Z</time>
        <extensions>
          <ns3:TrackPointExtension>
            <ns3:hr>60</ns3:hr>
            <ns3:cad>50</ns3:cad>
          </ns3:TrackPointExtension>
        </extensions>
      </trkpt>
      <trkpt lat="43.47083332948386669158935546875" lon="1.46622846834361553192138671875">
        <ele>229.1999969482421875</ele>
        <time>2026-08-05T08:09:46.000Z</time>
        <extensions>
          <ns3:TrackPointExtension>
            <ns3:hr>59</ns3:hr>
            <ns3:cad>50</ns3:cad>
          </ns3:TrackPointExtension>
        </extensions>
      </trkpt>
      <trkpt lat="43.47084271721541881561279296875" lon="1.46622478030622005462646484375">
        <ele>229.1999969482421875</ele>
        <time>2026-08-05T08:09:47.000Z</time>
        <extensions>
          <ns3:TrackPointExtension>
            <ns3:hr>59</ns3:hr>
            <ns3:cad>50</ns3:cad>
          </ns3:TrackPointExtension>
        </extensions>
      </trkpt>
      <trkpt lat="43.470848500728607177734375" lon="1.4662201702594757080078125">
        <ele>229.1999969482421875</ele>
        <time>2026-08-05T08:09:48.000Z</time>
        <extensions>
          <ns3:TrackPointExtension>
            <ns3:hr>59</ns3:hr>
            <ns3:cad>50</ns3:cad>
          </ns3:TrackPointExtension>
        </extensions>
      </trkpt>
      <trkpt lat="43.47085453569889068603515625" lon="1.46621413528919219970703125">
        <ele>229.1999969482421875</ele>
        <time>2026-08-05T08:09:49.000Z</time>
        <extensions>
          <ns3:TrackPointExtension>
            <ns3:hr>59</ns3:hr>
            <ns3:cad>52</ns3:cad>
          </ns3:TrackPointExtension>
        </extensions>
      </trkpt>
      <trkpt lat="43.47085981629788875579833984375" lon="1.4662119559943675994873046875">
        <ele>229</ele>
        <time>2026-08-05T08:09:50.000Z</time>
        <extensions>
          <ns3:TrackPointExtension>
            <ns3:hr>59</ns3:hr>
            <ns3:cad>52</ns3:cad>
          </ns3:TrackPointExtension>
        </extensions>
      </trkpt>
      <trkpt lat="43.470866940915584564208984375" lon="1.46620432846248149871826171875">
        <ele>229</ele>
        <time>2026-08-05T08:09:51.000Z</time>
        <extensions>
          <ns3:TrackPointExtension>
            <ns3:hr>59</ns3:hr>
            <ns3:cad>49</ns3:cad>
          </ns3:TrackPointExtension>
        </extensions>
      </trkpt>
      <trkpt lat="43.47087037749588489532470703125" lon="1.46619670093059539794921875">
        <ele>228.8000030517578125</ele>
        <time>2026-08-05T08:09:52.000Z</time>
        <extensions>
          <ns3:TrackPointExtension>
            <ns3:hr>59</ns3:hr>
            <ns3:cad>47</ns3:cad>
          </ns3:TrackPointExtension>
        </extensions>
      </trkpt>
      <trkpt lat="43.47087590955197811126708984375" lon="1.4661920070648193359375">
        <ele>228.8000030517578125</ele>
        <time>2026-08-05T08:09:53.000Z</time>
        <extensions>
          <ns3:TrackPointExtension>
            <ns3:hr>59</ns3:hr>
            <ns3:cad>47</ns3:cad>
          </ns3:TrackPointExtension>
        </extensions>
      </trkpt>
      <trkpt lat="43.4708821959793567657470703125" lon="1.46618664264678955078125">
        <ele>228.600006103515625</ele>
        <time>2026-08-05T08:09:54.000Z</time>
        <extensions>
          <ns3:TrackPointExtension>
            <ns3:hr>59</ns3:hr>
            <ns3:cad>47</ns3:cad>
          </ns3:TrackPointExtension>
        </extensions>
      </trkpt>
      <trkpt lat="43.4708875603973865509033203125" lon="1.4661821164190769195556640625">
        <ele>228.399993896484375</ele>
        <time>2026-08-05T08:09:55.000Z</time>
        <extensions>
          <ns3:TrackPointExtension>
            <ns3:hr>59</ns3:hr>
            <ns3:cad>46</ns3:cad>
          </ns3:TrackPointExtension>
        </extensions>
      </trkpt>
      <trkpt lat="43.4708966128528118133544921875" lon="1.46617524325847625732421875">
        <ele>228.399993896484375</ele>
        <time>2026-08-05T08:09:56.000Z</time>
        <extensions>
          <ns3:TrackPointExtension>
            <ns3:hr>59</ns3:hr>
            <ns3:cad>46</ns3:cad>
          </ns3:TrackPointExtension>
        </extensions>
      </trkpt>
      <trkpt lat="43.4709026478230953216552734375" lon="1.46616593934595584869384765625">
        <ele>228.1999969482421875</ele>
        <time>2026-08-05T08:09:57.000Z</time>
        <extensions>
          <ns3:TrackPointExtension>
            <ns3:hr>59</ns3:hr>
            <ns3:cad>46</ns3:cad>
          </ns3:TrackPointExtension>
        </extensions>
      </trkpt>
      <trkpt lat="43.4709113650023937225341796875" lon="1.46615705452859401702880859375">
        <ele>228.1999969482421875</ele>
        <time>2026-08-05T08:09:58.000Z</time>
        <extensions>
          <ns3:TrackPointExtension>
            <ns3:hr>59</ns3:hr>
            <ns3:cad>47</ns3:cad>
          </ns3:TrackPointExtension>
        </extensions>
      </trkpt>
      <trkpt lat="43.470917232334613800048828125" lon="1.4661482535302639007568359375">
        <ele>228</ele>
        <time>2026-08-05T08:09:59.000Z</time>
        <extensions>
          <ns3:TrackPointExtension>
            <ns3:hr>59</ns3:hr>
            <ns3:cad>47</ns3:cad>
          </ns3:TrackPointExtension>
        </extensions>
      </trkpt>
      <trkpt lat="43.47092485986649990081787109375" lon="1.46613727323710918426513671875">
        <ele>228</ele>
        <time>2026-08-05T08:10:00.000Z</time>
        <extensions>
          <ns3:TrackPointExtension>
            <ns3:hr>59</ns3:hr>
            <ns3:cad>47</ns3:cad>
          </ns3:TrackPointExtension>
        </extensions>
      </trkpt>
      <trkpt lat="43.470935337245464324951171875" lon="1.46612872369587421417236328125">
        <ele>228</ele>
        <time>2026-08-05T08:10:01.000Z</time>
        <extensions>
          <ns3:TrackPointExtension>
            <ns3:hr>59</ns3:hr>
            <ns3:cad>0</ns3:cad>
          </ns3:TrackPointExtension>
        </extensions>
      </trkpt>
      <trkpt lat="43.47094330005347728729248046875" lon="1.46612159907817840576171875">
        <ele>227.8000030517578125</ele>
        <time>2026-08-05T08:10:02.000Z</time>
        <extensions>
          <ns3:TrackPointExtension>
            <ns3:hr>58</ns3:hr>
            <ns3:cad>0</ns3:cad>
          </ns3:TrackPointExtension>
        </extensions>
      </trkpt>
      <trkpt lat="43.470950089395046234130859375" lon="1.46611162461340427398681640625">
        <ele>227.8000030517578125</ele>
        <time>2026-08-05T08:10:03.000Z</time>
        <extensions>
          <ns3:TrackPointExtension>
            <ns3:hr>58</ns3:hr>
            <ns3:cad>46</ns3:cad>
          </ns3:TrackPointExtension>
        </extensions>
      </trkpt>
      <trkpt lat="43.47095780074596405029296875" lon="1.46610508672893047332763671875">
        <ele>227.8000030517578125</ele>
        <time>2026-08-05T08:10:04.000Z</time>
        <extensions>
          <ns3:TrackPointExtension>
            <ns3:hr>59</ns3:hr>
            <ns3:cad>47</ns3:cad>
          </ns3:TrackPointExtension>
        </extensions>
      </trkpt>
      <trkpt lat="43.47096559591591358184814453125" lon="1.46609938703477382659912109375">
        <ele>227.600006103515625</ele>
        <time>2026-08-05T08:10:05.000Z</time>
        <extensions>
          <ns3:TrackPointExtension>
            <ns3:hr>60</ns3:hr>
            <ns3:cad>47</ns3:cad>
          </ns3:TrackPointExtension>
        </extensions>
      </trkpt>
      <trkpt lat="43.47097246907651424407958984375" lon="1.46609201095998287200927734375">
        <ele>227.600006103515625</ele>
        <time>2026-08-05T08:10:06.000Z</time>
        <extensions>
          <ns3:TrackPointExtension>
            <ns3:hr>63</ns3:hr>
            <ns3:cad>49</ns3:cad>
          </ns3:TrackPointExtension>
        </extensions>
      </trkpt>
      <trkpt lat="43.47097548656165599822998046875" lon="1.46608044393360614776611328125">
        <ele>227.399993896484375</ele>
        <time>2026-08-05T08:10:07.000Z</time>
        <extensions>
          <ns3:TrackPointExtension>
            <ns3:hr>63</ns3:hr>
            <ns3:cad>49</ns3:cad>
          </ns3:TrackPointExtension>
        </extensions>
      </trkpt>
      <trkpt lat="43.470981605350971221923828125" lon="1.46607072092592716217041015625">
        <ele>227.399993896484375</ele>
        <time>2026-08-05T08:10:08.000Z</time>
        <extensions>
          <ns3:TrackPointExtension>
            <ns3:hr>65</ns3:hr>
            <ns3:cad>15</ns3:cad>
          </ns3:TrackPointExtension>
        </extensions>
      </trkpt>
      <trkpt lat="43.470986969769001007080078125" lon="1.46606435067951679229736328125">
        <ele>227.1999969482421875</ele>
        <time>2026-08-05T08:10:09.000Z</time>
        <extensions>
          <ns3:TrackPointExtension>
            <ns3:hr>68</ns3:hr>
            <ns3:cad>15</ns3:cad>
          </ns3:TrackPointExtension>
        </extensions>
      </trkpt>
      <trkpt lat="43.470990322530269622802734375" lon="1.4660573936998844146728515625">
        <ele>227.1999969482421875</ele>
        <time>2026-08-05T08:10:10.000Z</time>
        <extensions>
          <ns3:TrackPointExtension>
            <ns3:hr>69</ns3:hr>
            <ns3:cad>45</ns3:cad>
          </ns3:TrackPointExtension>
        </extensions>
      </trkpt>
      <trkpt lat="43.470996357500553131103515625" lon="1.4660493470728397369384765625">
        <ele>227.1999969482421875</ele>
        <time>2026-08-05T08:10:11.000Z</time>
        <extensions>
          <ns3:TrackPointExtension>
            <ns3:hr>69</ns3:hr>
            <ns3:cad>45</ns3:cad>
          </ns3:TrackPointExtension>
        </extensions>
      </trkpt>
      <trkpt lat="43.471002392470836639404296875" lon="1.4660372771322727203369140625">
        <ele>227</ele>
        <time>2026-08-05T08:10:12.000Z</time>
        <extensions>
          <ns3:TrackPointExtension>
            <ns3:hr>69</ns3:hr>
            <ns3:cad>45</ns3:cad>
          </ns3:TrackPointExtension>
        </extensions>
      </trkpt>
      <trkpt lat="43.4710065834224224090576171875" lon="1.4660252071917057037353515625">
        <ele>227</ele>
        <time>2026-08-05T08:10:13.000Z</time>
        <extensions>
          <ns3:TrackPointExtension>
            <ns3:hr>69</ns3:hr>
            <ns3:cad>45</ns3:cad>
          </ns3:TrackPointExtension>
        </extensions>
      </trkpt>
      <trkpt lat="43.47101144492626190185546875" lon="1.46601322107017040252685546875">
        <ele>226.8000030517578125</ele>
        <time>2026-08-05T08:10:14.000Z</time>
        <extensions>
          <ns3:TrackPointExtension>
            <ns3:hr>69</ns3:hr>
            <ns3:cad>45</ns3:cad>
          </ns3:TrackPointExtension>
        </extensions>
      </trkpt>
      <trkpt lat="43.47101605497300624847412109375" lon="1.46600165404379367828369140625">
        <ele>226.8000030517578125</ele>
        <time>2026-08-05T08:10:15.000Z</time>
        <extensions>
          <ns3:TrackPointExtension>
            <ns3:hr>69</ns3:hr>
            <ns3:cad>47</ns3:cad>
          </ns3:TrackPointExtension>
        </extensions>
      </trkpt>
      <trkpt lat="43.47102309577167034149169921875" lon="1.4659921824932098388671875">
        <ele>226.600006103515625</ele>
        <time>2026-08-05T08:10:16.000Z</time>
        <extensions>
          <ns3:TrackPointExtension>
            <ns3:hr>68</ns3:hr>
            <ns3:cad>48</ns3:cad>
          </ns3:TrackPointExtension>
        </extensions>
      </trkpt>
      <trkpt lat="43.47102561034262180328369140625" lon="1.465987153351306915283203125">
        <ele>226.600006103515625</ele>
        <time>2026-08-05T08:10:17.000Z</time>
        <extensions>
          <ns3:TrackPointExtension>
            <ns3:hr>68</ns3:hr>
            <ns3:cad>48</ns3:cad>
          </ns3:TrackPointExtension>
        </extensions>
      </trkpt>
      <trkpt lat="43.47102778963744640350341796875" lon="1.46597952581942081451416015625">
        <ele>226.600006103515625</ele>
        <time>2026-08-05T08:10:18.000Z</time>
        <extensions>
          <ns3:TrackPointExtension>
            <ns3:hr>68</ns3:hr>
            <ns3:cad>48</ns3:cad>
          </ns3:TrackPointExtension>
        </extensions>
      </trkpt>
      <trkpt lat="43.47103516571223735809326171875" lon="1.4659712277352809906005859375">
        <ele>226.600006103515625</ele>
        <time>2026-08-05T08:10:19.000Z</time>
        <extensions>
          <ns3:TrackPointExtension>
            <ns3:hr>67</ns3:hr>
            <ns3:cad>0</ns3:cad>
          </ns3:TrackPointExtension>
        </extensions>
      </trkpt>
      <trkpt lat="43.47103985957801342010498046875" lon="1.4659628458321094512939453125">
        <ele>226.600006103515625</ele>
        <time>2026-08-05T08:10:20.000Z</time>
        <extensions>
          <ns3:TrackPointExtension>
            <ns3:hr>67</ns3:hr>
            <ns3:cad>0</ns3:cad>
          </ns3:TrackPointExtension>
        </extensions>
      </trkpt>
      <trkpt lat="43.47104673273861408233642578125" lon="1.4659544639289379119873046875">
        <ele>226.600006103515625</ele>
        <time>2026-08-05T08:10:21.000Z</time>
        <extensions>
          <ns3:TrackPointExtension>
            <ns3:hr>66</ns3:hr>
            <ns3:cad>0</ns3:cad>
          </ns3:TrackPointExtension>
        </extensions>
      </trkpt>
      <trkpt lat="43.4710521809756755828857421875" lon="1.4659474231302738189697265625">
        <ele>226.399993896484375</ele>
        <time>2026-08-05T08:10:22.000Z</time>
        <extensions>
          <ns3:TrackPointExtension>
            <ns3:hr>66</ns3:hr>
            <ns3:cad>47</ns3:cad>
          </ns3:TrackPointExtension>
        </extensions>
      </trkpt>
      <trkpt lat="43.471057713031768798828125" lon="1.4659464173018932342529296875">
        <ele>226.399993896484375</ele>
        <time>2026-08-05T08:10:23.000Z</time>
        <extensions>
          <ns3:TrackPointExtension>
            <ns3:hr>66</ns3:hr>
            <ns3:cad>47</ns3:cad>
          </ns3:TrackPointExtension>
        </extensions>
      </trkpt>
      <trkpt lat="43.47106643021106719970703125" lon="1.46594163961708545684814453125">
        <ele>226.1999969482421875</ele>
        <time>2026-08-05T08:10:24.000Z</time>
        <extensions>
          <ns3:TrackPointExtension>
            <ns3:hr>65</ns3:hr>
            <ns3:cad>47</ns3:cad>
          </ns3:TrackPointExtension>
        </extensions>
      </trkpt>
      <trkpt lat="43.471069447696208953857421875" lon="1.465936191380023956298828125">
        <ele>226.1999969482421875</ele>
        <time>2026-08-05T08:10:25.000Z</time>
        <extensions>
          <ns3:TrackPointExtension>
            <ns3:hr>65</ns3:hr>
            <ns3:cad>52</ns3:cad>
          </ns3:TrackPointExtension>
        </extensions>
      </trkpt>
      <trkpt lat="43.4710753150284290313720703125" lon="1.46592822857201099395751953125">
        <ele>226.1999969482421875</ele>
        <time>2026-08-05T08:10:26.000Z</time>
        <extensions>
          <ns3:TrackPointExtension>
            <ns3:hr>65</ns3:hr>
            <ns3:cad>52</ns3:cad>
          </ns3:TrackPointExtension>
        </extensions>
      </trkpt>
      <trkpt lat="43.47108327783644199371337890625" lon="1.4659189246594905853271484375">
        <ele>226</ele>
        <time>2026-08-05T08:10:27.000Z</time>
        <extensions>
          <ns3:TrackPointExtension>
            <ns3:hr>64</ns3:hr>
            <ns3:cad>51</ns3:cad>
          </ns3:TrackPointExtension>
        </extensions>
      </trkpt>
      <trkpt lat="43.4710910730063915252685546875" lon="1.46591062657535076141357421875">
        <ele>226</ele>
        <time>2026-08-05T08:10:28.000Z</time>
        <extensions>
          <ns3:TrackPointExtension>
            <ns3:hr>64</ns3:hr>
            <ns3:cad>51</ns3:cad>
          </ns3:TrackPointExtension>
        </extensions>
      </trkpt>
      <trkpt lat="43.47109920345246791839599609375" lon="1.46590023301541805267333984375">
        <ele>226</ele>
        <time>2026-08-05T08:10:29.000Z</time>
        <extensions>
          <ns3:TrackPointExtension>
            <ns3:hr>64</ns3:hr>
            <ns3:cad>0</ns3:cad>
          </ns3:TrackPointExtension>
        </extensions>
      </trkpt>
      <trkpt lat="43.47110607661306858062744140625" lon="1.4658910967409610748291015625">
        <ele>226</ele>
        <time>2026-08-05T08:10:30.000Z</time>
        <extensions>
          <ns3:TrackPointExtension>
            <ns3:hr>64</ns3:hr>
            <ns3:cad>0</ns3:cad>
          </ns3:TrackPointExtension>
        </extensions>
      </trkpt>
      <trkpt lat="43.47111194394528865814208984375" lon="1.46588162519037723541259765625">
        <ele>225.8000030517578125</ele>
        <time>2026-08-05T08:10:31.000Z</time>
        <extensions>
          <ns3:TrackPointExtension>
            <ns3:hr>65</ns3:hr>
            <ns3:cad>0</ns3:cad>
          </ns3:TrackPointExtension>
        </extensions>
      </trkpt>
      <trkpt lat="43.47111982293426990509033203125" lon="1.46587022580206394195556640625">
        <ele>225.8000030517578125</ele>
        <time>2026-08-05T08:10:32.000Z</time>
        <extensions>
          <ns3:TrackPointExtension>
            <ns3:hr>64</ns3:hr>
            <ns3:cad>0</ns3:cad>
          </ns3:TrackPointExtension>
        </extensions>
      </trkpt>
      <trkpt lat="43.471127115190029144287109375" lon="1.46586134098470211029052734375">
        <ele>225.600006103515625</ele>
        <time>2026-08-05T08:10:33.000Z</time>
        <extensions>
          <ns3:TrackPointExtension>
            <ns3:hr>64</ns3:hr>
            <ns3:cad>59</ns3:cad>
          </ns3:TrackPointExtension>
        </extensions>
      </trkpt>
      <trkpt lat="43.4711360000073909759521484375" lon="1.46585195325314998626708984375">
        <ele>225.399993896484375</ele>
        <time>2026-08-05T08:10:34.000Z</time>
        <extensions>
          <ns3:TrackPointExtension>
            <ns3:hr>64</ns3:hr>
            <ns3:cad>0</ns3:cad>
          </ns3:TrackPointExtension>
        </extensions>
      </trkpt>
      <trkpt lat="43.47114312462508678436279296875" lon="1.465841643512248992919921875">
        <ele>225.399993896484375</ele>
        <time>2026-08-05T08:10:35.000Z</time>
        <extensions>
          <ns3:TrackPointExtension>
            <ns3:hr>63</ns3:hr>
            <ns3:cad>0</ns3:cad>
          </ns3:TrackPointExtension>
        </extensions>
      </trkpt>
      <trkpt lat="43.4711524285376071929931640625" lon="1.46583301015198230743408203125">
        <ele>225.399993896484375</ele>
        <time>2026-08-05T08:10:36.000Z</time>
        <extensions>
          <ns3:TrackPointExtension>
            <ns3:hr>63</ns3:hr>
            <ns3:cad>0</ns3:cad>
          </ns3:TrackPointExtension>
        </extensions>
      </trkpt>
      <trkpt lat="43.471157960593700408935546875" lon="1.46582395769655704498291015625">
        <ele>225.1999969482421875</ele>
        <time>2026-08-05T08:10:37.000Z</time>
        <extensions>
          <ns3:TrackPointExtension>
            <ns3:hr>62</ns3:hr>
            <ns3:cad>0</ns3:cad>
          </ns3:TrackPointExtension>
        </extensions>
      </trkpt>
      <trkpt lat="43.47116567194461822509765625" lon="1.465817503631114959716796875">
        <ele>225.1999969482421875</ele>
        <time>2026-08-05T08:10:38.000Z</time>
        <extensions>
          <ns3:TrackPointExtension>
            <ns3:hr>62</ns3:hr>
            <ns3:cad>0</ns3:cad>
          </ns3:TrackPointExtension>
        </extensions>
      </trkpt>
      <trkpt lat="43.4711738862097263336181640625" lon="1.4658092893660068511962890625">
        <ele>225.1999969482421875</ele>
        <time>2026-08-05T08:10:39.000Z</time>
        <extensions>
          <ns3:TrackPointExtension>
            <ns3:hr>61</ns3:hr>
            <ns3:cad>0</ns3:cad>
          </ns3:TrackPointExtension>
        </extensions>
      </trkpt>
      <trkpt lat="43.4711824357509613037109375" lon="1.46580216474831104278564453125">
        <ele>225</ele>
        <time>2026-08-05T08:10:40.000Z</time>
        <extensions>
          <ns3:TrackPointExtension>
            <ns3:hr>61</ns3:hr>
            <ns3:cad>0</ns3:cad>
          </ns3:TrackPointExtension>
        </extensions>
      </trkpt>
      <trkpt lat="43.47119090147316455841064453125" lon="1.46579361520707607269287109375">
        <ele>225</ele>
        <time>2026-08-05T08:10:41.000Z</time>
        <extensions>
          <ns3:TrackPointExtension>
            <ns3:hr>61</ns3:hr>
            <ns3:cad>0</ns3:cad>
          </ns3:TrackPointExtension>
        </extensions>
      </trkpt>
      <trkpt lat="43.4711976908147335052490234375" lon="1.4657864905893802642822265625">
        <ele>224.8000030517578125</ele>
        <time>2026-08-05T08:10:42.000Z</time>
        <extensions>
          <ns3:TrackPointExtension>
            <ns3:hr>61</ns3:hr>
            <ns3:cad>0</ns3:cad>
          </ns3:TrackPointExtension>
        </extensions>
      </trkpt>
      <trkpt lat="43.471204899251461029052734375" lon="1.46577886305749416351318359375">
        <ele>224.8000030517578125</ele>
        <time>2026-08-05T08:10:43.000Z</time>
        <extensions>
          <ns3:TrackPointExtension>
            <ns3:hr>61</ns3:hr>
            <ns3:cad>48</ns3:cad>
          </ns3:TrackPointExtension>
        </extensions>
      </trkpt>
      <trkpt lat="43.4712107665836811065673828125" lon="1.4657690562307834625244140625">
        <ele>224.600006103515625</ele>
        <time>2026-08-05T08:10:44.000Z</time>
        <extensions>
          <ns3:TrackPointExtension>
            <ns3:hr>61</ns3:hr>
            <ns3:cad>48</ns3:cad>
          </ns3:TrackPointExtension>
        </extensions>
      </trkpt>
      <trkpt lat="43.4712171368300914764404296875" lon="1.46576176397502422332763671875">
        <ele>224.600006103515625</ele>
        <time>2026-08-05T08:10:45.000Z</time>
        <extensions>
          <ns3:TrackPointExtension>
            <ns3:hr>62</ns3:hr>
            <ns3:cad>48</ns3:cad>
          </ns3:TrackPointExtension>
        </extensions>
      </trkpt>
      <trkpt lat="43.471220992505550384521484375" lon="1.465759165585041046142578125">
        <ele>224.600006103515625</ele>
        <time>2026-08-05T08:10:46.000Z</time>
        <extensions>
          <ns3:TrackPointExtension>
            <ns3:hr>61</ns3:hr>
            <ns3:cad>48</ns3:cad>
          </ns3:TrackPointExtension>
        </extensions>
      </trkpt>
      <trkpt lat="43.471221663057804107666015625" lon="1.46576084196567535400390625">
        <ele>224.600006103515625</ele>
        <time>2026-08-05T08:10:47.000Z</time>
        <extensions>
          <ns3:TrackPointExtension>
            <ns3:hr>61</ns3:hr>
            <ns3:cad>48</ns3:cad>
          </ns3:TrackPointExtension>
        </extensions>
      </trkpt>
      <trkpt lat="43.471224345266819000244140625" lon="1.46575991995632648468017578125">
        <ele>224.399993896484375</ele>
        <time>2026-08-05T08:10:48.000Z</time>
        <extensions>
          <ns3:TrackPointExtension>
            <ns3:hr>61</ns3:hr>
            <ns3:cad>0</ns3:cad>
          </ns3:TrackPointExtension>
        </extensions>
      </trkpt>
      <trkpt lat="43.47122493200004100799560546875" lon="1.46575757302343845367431640625">
        <ele>224.399993896484375</ele>
        <time>2026-08-05T08:10:49.000Z</time>
        <extensions>
          <ns3:TrackPointExtension>
            <ns3:hr>62</ns3:hr>
            <ns3:cad>0</ns3:cad>
          </ns3:TrackPointExtension>
        </extensions>
      </trkpt>
      <trkpt lat="43.4712245129048824310302734375" lon="1.4657546393573284149169921875">
        <ele>224.600006103515625</ele>
        <time>2026-08-05T08:10:50.000Z</time>
        <extensions>
          <ns3:TrackPointExtension>
            <ns3:hr>62</ns3:hr>
            <ns3:cad>0</ns3:cad>
          </ns3:TrackPointExtension>
        </extensions>
      </trkpt>
      <trkpt lat="43.47122660838067531585693359375" lon="1.46574969403445720672607421875">
        <ele>224.600006103515625</ele>
        <time>2026-08-05T08:10:51.000Z</time>
        <extensions>
          <ns3:TrackPointExtension>
            <ns3:hr>62</ns3:hr>
            <ns3:cad>0</ns3:cad>
          </ns3:TrackPointExtension>
        </extensions>
      </trkpt>
      <trkpt lat="43.4712318889796733856201171875" lon="1.4657429046928882598876953125">
        <ele>224.399993896484375</ele>
        <time>2026-08-05T08:10:52.000Z</time>
        <extensions>
          <ns3:TrackPointExtension>
            <ns3:hr>62</ns3:hr>
            <ns3:cad>0</ns3:cad>
          </ns3:TrackPointExtension>
        </extensions>
      </trkpt>
      <trkpt lat="43.47123767249286174774169921875" lon="1.46573661826550960540771484375">
        <ele>224.399993896484375</ele>
        <time>2026-08-05T08:10:53.000Z</time>
        <extensions>
          <ns3:TrackPointExtension>
            <ns3:hr>63</ns3:hr>
            <ns3:cad>0</ns3:cad>
          </ns3:TrackPointExtension>
        </extensions>
      </trkpt>
      <trkpt lat="43.47124387510120868682861328125" lon="1.46572940982878208160400390625">
        <ele>224.399993896484375</ele>
        <time>2026-08-05T08:10:54.000Z</time>
        <extensions>
          <ns3:TrackPointExtension>
            <ns3:hr>64</ns3:hr>
            <ns3:cad>0</ns3:cad>
          </ns3:TrackPointExtension>
        </extensions>
      </trkpt>
      <trkpt lat="43.47125259228050708770751953125" lon="1.4657261408865451812744140625">
        <ele>224.1999969482421875</ele>
        <time>2026-08-05T08:10:55.000Z</time>
        <extensions>
          <ns3:TrackPointExtension>
            <ns3:hr>65</ns3:hr>
            <ns3:cad>0</ns3:cad>
          </ns3:TrackPointExtension>
        </extensions>
      </trkpt>
      <trkpt lat="43.47126281820237636566162109375" lon="1.465716920793056488037109375">
        <ele>224.1999969482421875</ele>
        <time>2026-08-05T08:10:56.000Z</time>
        <extensions>
          <ns3:TrackPointExtension>
            <ns3:hr>65</ns3:hr>
            <ns3:cad>0</ns3:cad>
          </ns3:TrackPointExtension>
        </extensions>
      </trkpt>
      <trkpt lat="43.47126533277332782745361328125" lon="1.4657117240130901336669921875">
        <ele>224.1999969482421875</ele>
        <time>2026-08-05T08:10:57.000Z</time>
        <extensions>
          <ns3:TrackPointExtension>
            <ns3:hr>66</ns3:hr>
            <ns3:cad>0</ns3:cad>
          </ns3:TrackPointExtension>
        </extensions>
      </trkpt>
      <trkpt lat="43.4712677635252475738525390625" lon="1.46570929326117038726806640625">
        <ele>224</ele>
        <time>2026-08-05T08:10:58.000Z</time>
        <extensions>
          <ns3:TrackPointExtension>
            <ns3:hr>66</ns3:hr>
            <ns3:cad>0</ns3:cad>
          </ns3:TrackPointExtension>
        </extensions>
      </trkpt>
      <trkpt lat="43.4712647460401058197021484375" lon="1.46570996381342411041259765625">
        <ele>224</ele>
        <time>2026-08-05T08:10:59.000Z</time>
        <extensions>
          <ns3:TrackPointExtension>
            <ns3:hr>67</ns3:hr>
            <ns3:cad>0</ns3:cad>
          </ns3:TrackPointExtension>
        </extensions>
      </trkpt>
      <trkpt lat="43.4712650813162326812744140625" lon="1.46570795215666294097900390625">
        <ele>224</ele>
        <time>2026-08-05T08:11:00.000Z</time>
        <extensions>
          <ns3:TrackPointExtension>
            <ns3:hr>67</ns3:hr>
            <ns3:cad>0</ns3:cad>
          </ns3:TrackPointExtension>
        </extensions>
      </trkpt>
      <trkpt lat="43.4712667576968669891357421875" lon="1.46570585668087005615234375">
        <ele>224</ele>
        <time>2026-08-05T08:11:01.000Z</time>
        <extensions>
          <ns3:TrackPointExtension>
            <ns3:hr>67</ns3:hr>
            <ns3:cad>0</ns3:cad>
          </ns3:TrackPointExtension>
        </extensions>
      </trkpt>
      <trkpt lat="43.47126466222107410430908203125" lon="1.46570376120507717132568359375">
        <ele>224</ele>
        <time>2026-08-05T08:11:02.000Z</time>
        <extensions>
          <ns3:TrackPointExtension>
            <ns3:hr>67</ns3:hr>
            <ns3:cad>0</ns3:cad>
          </ns3:TrackPointExtension>
        </extensions>
      </trkpt>
      <trkpt lat="43.47126717679202556610107421875" lon="1.46569973789155483245849609375">
        <ele>224</ele>
        <time>2026-08-05T08:11:03.000Z</time>
        <extensions>
          <ns3:TrackPointExtension>
            <ns3:hr>68</ns3:hr>
            <ns3:cad>0</ns3:cad>
          </ns3:TrackPointExtension>
        </extensions>
      </trkpt>
      <trkpt lat="43.471272289752960205078125" lon="1.46569085307419300079345703125">
        <ele>224</ele>
        <time>2026-08-05T08:11:04.000Z</time>
        <extensions>
          <ns3:TrackPointExtension>
            <ns3:hr>68</ns3:hr>
            <ns3:cad>0</ns3:cad>
          </ns3:TrackPointExtension>
        </extensions>
      </trkpt>
      <trkpt lat="43.47127572633326053619384765625" lon="1.46568439900875091552734375">
        <ele>224</ele>
        <time>2026-08-05T08:11:05.000Z</time>
        <extensions>
          <ns3:TrackPointExtension>
            <ns3:hr>68</ns3:hr>
            <ns3:cad>0</ns3:cad>
          </ns3:TrackPointExtension>
        </extensions>
      </trkpt>
      <trkpt lat="43.47128226421773433685302734375" lon="1.46567710675299167633056640625">
        <ele>224</ele>
        <time>2026-08-05T08:11:06.000Z</time>
        <extensions>
          <ns3:TrackPointExtension>
            <ns3:hr>68</ns3:hr>
            <ns3:cad>0</ns3:cad>
          </ns3:TrackPointExtension>
        </extensions>
      </trkpt>
      <trkpt lat="43.47128947265446186065673828125" lon="1.46566830575466156005859375">
        <ele>224</ele>
        <time>2026-08-05T08:11:07.000Z</time>
        <extensions>
          <ns3:TrackPointExtension>
            <ns3:hr>68</ns3:hr>
            <ns3:cad>0</ns3:cad>
          </ns3:TrackPointExtension>
        </extensions>
      </trkpt>
      <trkpt lat="43.471295423805713653564453125" lon="1.46565916948020458221435546875">
        <ele>224</ele>
        <time>2026-08-05T08:11:08.000Z</time>
        <extensions>
          <ns3:TrackPointExtension>
            <ns3:hr>68</ns3:hr>
            <ns3:cad>44</ns3:cad>
          </ns3:TrackPointExtension>
        </extensions>
      </trkpt>
      <trkpt lat="43.47130372188985347747802734375" lon="1.46564609371125698089599609375">
        <ele>223.8000030517578125</ele>
        <time>2026-08-05T08:11:09.000Z</time>
        <extensions>
          <ns3:TrackPointExtension>
            <ns3:hr>68</ns3:hr>
            <ns3:cad>46</ns3:cad>
          </ns3:TrackPointExtension>
        </extensions>
      </trkpt>
      <trkpt lat="43.47130958922207355499267578125" lon="1.4656379632651805877685546875">
        <ele>223.8000030517578125</ele>
        <time>2026-08-05T08:11:10.000Z</time>
        <extensions>
          <ns3:TrackPointExtension>
            <ns3:hr>68</ns3:hr>
            <ns3:cad>46</ns3:cad>
          </ns3:TrackPointExtension>
        </extensions>
      </trkpt>
      <trkpt lat="43.4713147021830081939697265625" lon="1.46563134156167507171630859375">
        <ele>223.8000030517578125</ele>
        <time>2026-08-05T08:11:11.000Z</time>
        <extensions>
          <ns3:TrackPointExtension>
            <ns3:hr>68</ns3:hr>
            <ns3:cad>47</ns3:cad>
          </ns3:TrackPointExtension>
        </extensions>
      </trkpt>
      <trkpt lat="43.47131855785846710205078125" lon="1.46562363021075725555419921875">
        <ele>223.8000030517578125</ele>
        <time>2026-08-05T08:11:12.000Z</time>
        <extensions>
          <ns3:TrackPointExtension>
            <ns3:hr>69</ns3:hr>
            <ns3:cad>47</ns3:cad>
          </ns3:TrackPointExtension>
        </extensions>
      </trkpt>
      <trkpt lat="43.4713234193623065948486328125" lon="1.4656154997646808624267578125">
        <ele>223.8000030517578125</ele>
        <time>2026-08-05T08:11:13.000Z</time>
        <extensions>
          <ns3:TrackPointExtension>
            <ns3:hr>68</ns3:hr>
            <ns3:cad>47</ns3:cad>
          </ns3:TrackPointExtension>
        </extensions>
      </trkpt>
      <trkpt lat="43.47132501192390918731689453125" lon="1.46560669876635074615478515625">
        <ele>223.600006103515625</ele>
        <time>2026-08-05T08:11:14.000Z</time>
        <extensions>
          <ns3:TrackPointExtension>
            <ns3:hr>68</ns3:hr>
            <ns3:cad>47</ns3:cad>
          </ns3:TrackPointExtension>
        </extensions>
      </trkpt>
      <trkpt lat="43.471330963075160980224609375" lon="1.465599238872528076171875">
        <ele>223.600006103515625</ele>
        <time>2026-08-05T08:11:15.000Z</time>
        <extensions>
          <ns3:TrackPointExtension>
            <ns3:hr>68</ns3:hr>
            <ns3:cad>47</ns3:cad>
          </ns3:TrackPointExtension>
        </extensions>
      </trkpt>
      <trkpt lat="43.47133507020771503448486328125" lon="1.465590186417102813720703125">
        <ele>223.399993896484375</ele>
        <time>2026-08-05T08:11:16.000Z</time>
        <extensions>
          <ns3:TrackPointExtension>
            <ns3:hr>68</ns3:hr>
            <ns3:cad>47</ns3:cad>
          </ns3:TrackPointExtension>
        </extensions>
      </trkpt>
      <trkpt lat="43.47134135663509368896484375" lon="1.465577445924282073974609375">
        <ele>223.399993896484375</ele>
        <time>2026-08-05T08:11:17.000Z</time>
        <extensions>
          <ns3:TrackPointExtension>
            <ns3:hr>68</ns3:hr>
            <ns3:cad>47</ns3:cad>
          </ns3:TrackPointExtension>
        </extensions>
      </trkpt>
      <trkpt lat="43.4713462181389331817626953125" lon="1.46556797437369823455810546875">
        <ele>223.399993896484375</ele>
        <time>2026-08-05T08:11:18.000Z</time>
        <extensions>
          <ns3:TrackPointExtension>
            <ns3:hr>68</ns3:hr>
            <ns3:cad>47</ns3:cad>
          </ns3:TrackPointExtension>
        </extensions>
      </trkpt>
      <trkpt lat="43.47135066054761409759521484375" lon="1.46556311286985874176025390625">
        <ele>223.1999969482421875</ele>
        <time>2026-08-05T08:11:19.000Z</time>
        <extensions>
          <ns3:TrackPointExtension>
            <ns3:hr>68</ns3:hr>
            <ns3:cad>47</ns3:cad>
          </ns3:TrackPointExtension>
        </extensions>
      </trkpt>
      <trkpt lat="43.47135837189853191375732421875" lon="1.465551964938640594482421875">
        <ele>223.1999969482421875</ele>
        <time>2026-08-05T08:11:20.000Z</time>
        <extensions>
          <ns3:TrackPointExtension>
            <ns3:hr>68</ns3:hr>
            <ns3:cad>45</ns3:cad>
          </ns3:TrackPointExtension>
        </extensions>
      </trkpt>
      <trkpt lat="43.47136558033525943756103515625" lon="1.46553997881710529327392578125">
        <ele>223.1999969482421875</ele>
        <time>2026-08-05T08:11:21.000Z</time>
        <extensions>
          <ns3:TrackPointExtension>
            <ns3:hr>68</ns3:hr>
            <ns3:cad>45</ns3:cad>
          </ns3:TrackPointExtension>
        </extensions>
      </trkpt>
      <trkpt lat="43.47137580625712871551513671875" lon="1.46552539430558681488037109375">
        <ele>223.1999969482421875</ele>
        <time>2026-08-05T08:11:22.000Z</time>
        <extensions>
          <ns3:TrackPointExtension>
            <ns3:hr>68</ns3:hr>
            <ns3:cad>44</ns3:cad>
          </ns3:TrackPointExtension>
        </extensions>
      </trkpt>
      <trkpt lat="43.4713851101696491241455078125" lon="1.4655139110982418060302734375">
        <ele>223</ele>
        <time>2026-08-05T08:11:23.000Z</time>
        <extensions>
          <ns3:TrackPointExtension>
            <ns3:hr>68</ns3:hr>
            <ns3:cad>43</ns3:cad>
          </ns3:TrackPointExtension>
        </extensions>
      </trkpt>
      <trkpt lat="43.47139240242540836334228515625" lon="1.465504355728626251220703125">
        <ele>223</ele>
        <time>2026-08-05T08:11:24.000Z</time>
        <extensions>
          <ns3:TrackPointExtension>
            <ns3:hr>68</ns3:hr>
            <ns3:cad>43</ns3:cad>
          </ns3:TrackPointExtension>
        </extensions>
      </trkpt>
      <trkpt lat="43.4714015386998653411865234375" lon="1.46549253724515438079833984375">
        <ele>222.8000030517578125</ele>
        <time>2026-08-05T08:11:25.000Z</time>
        <extensions>
          <ns3:TrackPointExtension>
            <ns3:hr>67</ns3:hr>
            <ns3:cad>48</ns3:cad>
          </ns3:TrackPointExtension>
        </extensions>
      </trkpt>
      <trkpt lat="43.4714136086404323577880859375" lon="1.46548750810325145721435546875">
        <ele>222.8000030517578125</ele>
        <time>2026-08-05T08:11:26.000Z</time>
        <extensions>
          <ns3:TrackPointExtension>
            <ns3:hr>68</ns3:hr>
            <ns3:cad>48</ns3:cad>
          </ns3:TrackPointExtension>
        </extensions>
      </trkpt>
      <trkpt lat="43.47142375074326992034912109375" lon="1.46547728218138217926025390625">
        <ele>222.600006103515625</ele>
        <time>2026-08-05T08:11:27.000Z</time>
        <extensions>
          <ns3:TrackPointExtension>
            <ns3:hr>68</ns3:hr>
            <ns3:cad>50</ns3:cad>
          </ns3:TrackPointExtension>
        </extensions>
      </trkpt>
      <trkpt lat="43.47143196500837802886962890625" lon="1.4654673077166080474853515625">
        <ele>222.399993896484375</ele>
        <time>2026-08-05T08:11:28.000Z</time>
        <extensions>
          <ns3:TrackPointExtension>
            <ns3:hr>69</ns3:hr>
            <ns3:cad>51</ns3:cad>
          </ns3:TrackPointExtension>
        </extensions>
      </trkpt>
      <trkpt lat="43.47144252620637416839599609375" lon="1.46545683033764362335205078125">
        <ele>222.399993896484375</ele>
        <time>2026-08-05T08:11:29.000Z</time>
        <extensions>
          <ns3:TrackPointExtension>
            <ns3:hr>70</ns3:hr>
            <ns3:cad>51</ns3:cad>
          </ns3:TrackPointExtension>
        </extensions>
      </trkpt>
      <trkpt lat="43.47144864499568939208984375" lon="1.46544526331126689910888671875">
        <ele>222.399993896484375</ele>
        <time>2026-08-05T08:11:30.000Z</time>
        <extensions>
          <ns3:TrackPointExtension>
            <ns3:hr>71</ns3:hr>
            <ns3:cad>52</ns3:cad>
          </ns3:TrackPointExtension>
        </extensions>
      </trkpt>
      <trkpt lat="43.4714548476040363311767578125" lon="1.4654347859323024749755859375">
        <ele>222.1999969482421875</ele>
        <time>2026-08-05T08:11:31.000Z</time>
        <extensions>
          <ns3:TrackPointExtension>
            <ns3:hr>74</ns3:hr>
            <ns3:cad>52</ns3:cad>
          </ns3:TrackPointExtension>
        </extensions>
      </trkpt>
      <trkpt lat="43.47146063111722469329833984375" lon="1.46542699076235294342041015625">
        <ele>222.1999969482421875</ele>
        <time>2026-08-05T08:11:32.000Z</time>
        <extensions>
          <ns3:TrackPointExtension>
            <ns3:hr>75</ns3:hr>
            <ns3:cad>52</ns3:cad>
          </ns3:TrackPointExtension>
        </extensions>
      </trkpt>
      <trkpt lat="43.4714706055819988250732421875" lon="1.4654181897640228271484375">
        <ele>222.1999969482421875</ele>
        <time>2026-08-05T08:11:33.000Z</time>
        <extensions>
          <ns3:TrackPointExtension>
            <ns3:hr>75</ns3:hr>
            <ns3:cad>52</ns3:cad>
          </ns3:TrackPointExtension>
        </extensions>
      </trkpt>
      <trkpt lat="43.47147907130420207977294921875" lon="1.465408466756343841552734375">
        <ele>222</ele>
        <time>2026-08-05T08:11:34.000Z</time>
        <extensions>
          <ns3:TrackPointExtension>
            <ns3:hr>75</ns3:hr>
            <ns3:cad>51</ns3:cad>
          </ns3:TrackPointExtension>
        </extensions>
      </trkpt>
      <trkpt lat="43.4714882075786590576171875" lon="1.46539949811995029449462890625">
        <ele>222</ele>
        <time>2026-08-05T08:11:35.000Z</time>
        <extensions>
          <ns3:TrackPointExtension>
            <ns3:hr>76</ns3:hr>
            <ns3:cad>51</ns3:cad>
          </ns3:TrackPointExtension>
        </extensions>
      </trkpt>
      <trkpt lat="43.471497595310211181640625" lon="1.4653885178267955780029296875">
        <ele>221.8000030517578125</ele>
        <time>2026-08-05T08:11:36.000Z</time>
        <extensions>
          <ns3:TrackPointExtension>
            <ns3:hr>75</ns3:hr>
            <ns3:cad>51</ns3:cad>
          </ns3:TrackPointExtension>
        </extensions>
      </trkpt>
      <trkpt lat="43.4715068154036998748779296875" lon="1.46538105793297290802001953125">
        <ele>221.8000030517578125</ele>
        <time>2026-08-05T08:11:37.000Z</time>
        <extensions>
          <ns3:TrackPointExtension>
            <ns3:hr>75</ns3:hr>
            <ns3:cad>51</ns3:cad>
          </ns3:TrackPointExtension>
        </extensions>
      </trkpt>
      <trkpt lat="43.471513688564300537109375" lon="1.465373933315277099609375">
        <ele>221.8000030517578125</ele>
        <time>2026-08-05T08:11:38.000Z</time>
        <extensions>
          <ns3:TrackPointExtension>
            <ns3:hr>74</ns3:hr>
            <ns3:cad>50</ns3:cad>
          </ns3:TrackPointExtension>
        </extensions>
      </trkpt>
      <trkpt lat="43.4715198911726474761962890625" lon="1.465363539755344390869140625">
        <ele>221.600006103515625</ele>
        <time>2026-08-05T08:11:39.000Z</time>
        <extensions>
          <ns3:TrackPointExtension>
            <ns3:hr>74</ns3:hr>
            <ns3:cad>50</ns3:cad>
          </ns3:TrackPointExtension>
        </extensions>
      </trkpt>
      <trkpt lat="43.4715284407138824462890625" lon="1.465350128710269927978515625">
        <ele>221.600006103515625</ele>
        <time>2026-08-05T08:11:40.000Z</time>
        <extensions>
          <ns3:TrackPointExtension>
            <ns3:hr>73</ns3:hr>
            <ns3:cad>49</ns3:cad>
          </ns3:TrackPointExtension>
        </extensions>
      </trkpt>
      <trkpt lat="43.47153640352189540863037109375" lon="1.46534015424549579620361328125">
        <ele>221.399993896484375</ele>
        <time>2026-08-05T08:11:41.000Z</time>
        <extensions>
          <ns3:TrackPointExtension>
            <ns3:hr>72</ns3:hr>
            <ns3:cad>49</ns3:cad>
          </ns3:TrackPointExtension>
        </extensions>
      </trkpt>
      <trkpt lat="43.47154176793992519378662109375" lon="1.4653288386762142181396484375">
        <ele>221.1999969482421875</ele>
        <time>2026-08-05T08:11:42.000Z</time>
        <extensions>
          <ns3:TrackPointExtension>
            <ns3:hr>70</ns3:hr>
            <ns3:cad>49</ns3:cad>
          </ns3:TrackPointExtension>
        </extensions>
      </trkpt>
      <trkpt lat="43.47154646180570125579833984375" lon="1.465320289134979248046875">
        <ele>221.1999969482421875</ele>
        <time>2026-08-05T08:11:43.000Z</time>
        <extensions>
          <ns3:TrackPointExtension>
            <ns3:hr>67</ns3:hr>
            <ns3:cad>49</ns3:cad>
          </ns3:TrackPointExtension>
        </extensions>
      </trkpt>
      <trkpt lat="43.47155316732823848724365234375" lon="1.465311236679553985595703125">
        <ele>221</ele>
        <time>2026-08-05T08:11:44.000Z</time>
        <extensions>
          <ns3:TrackPointExtension>
            <ns3:hr>66</ns3:hr>
            <ns3:cad>49</ns3:cad>
          </ns3:TrackPointExtension>
        </extensions>
      </trkpt>
      <trkpt lat="43.47156121395528316497802734375" lon="1.4653026871383190155029296875">
        <ele>221</ele>
        <time>2026-08-05T08:11:45.000Z</time>
        <extensions>
          <ns3:TrackPointExtension>
            <ns3:hr>66</ns3:hr>
            <ns3:cad>49</ns3:cad>
          </ns3:TrackPointExtension>
        </extensions>
      </trkpt>
      <trkpt lat="43.47156825475394725799560546875" lon="1.46529413759708404541015625">
        <ele>220.8000030517578125</ele>
        <time>2026-08-05T08:11:46.000Z</time>
        <extensions>
          <ns3:TrackPointExtension>
            <ns3:hr>66</ns3:hr>
            <ns3:cad>49</ns3:cad>
          </ns3:TrackPointExtension>
        </extensions>
      </trkpt>
      <trkpt lat="43.47157730720937252044677734375" lon="1.46528433077037334442138671875">
        <ele>220.8000030517578125</ele>
        <time>2026-08-05T08:11:47.000Z</time>
        <extensions>
          <ns3:TrackPointExtension>
            <ns3:hr>66</ns3:hr>
            <ns3:cad>49</ns3:cad>
          </ns3:TrackPointExtension>
        </extensions>
      </trkpt>
      <trkpt lat="43.47158250398933887481689453125" lon="1.46527427248656749725341796875">
        <ele>220.600006103515625</ele>
        <time>2026-08-05T08:11:48.000Z</time>
        <extensions>
          <ns3:TrackPointExtension>
            <ns3:hr>66</ns3:hr>
            <ns3:cad>50</ns3:cad>
          </ns3:TrackPointExtension>
        </extensions>
      </trkpt>
      <trkpt lat="43.47159205935895442962646484375" lon="1.46526371128857135772705078125">
        <ele>220.600006103515625</ele>
        <time>2026-08-05T08:11:49.000Z</time>
        <extensions>
          <ns3:TrackPointExtension>
            <ns3:hr>66</ns3:hr>
            <ns3:cad>50</ns3:cad>
          </ns3:TrackPointExtension>
        </extensions>
      </trkpt>
      <trkpt lat="43.471597172319889068603515625" lon="1.46525717340409755706787109375">
        <ele>220.600006103515625</ele>
        <time>2026-08-05T08:11:50.000Z</time>
        <extensions>
          <ns3:TrackPointExtension>
            <ns3:hr>67</ns3:hr>
            <ns3:cad>50</ns3:cad>
          </ns3:TrackPointExtension>
        </extensions>
      </trkpt>
      <trkpt lat="43.471603877842426300048828125" lon="1.46524610929191112518310546875">
        <ele>220.600006103515625</ele>
        <time>2026-08-05T08:11:51.000Z</time>
        <extensions>
          <ns3:TrackPointExtension>
            <ns3:hr>67</ns3:hr>
            <ns3:cad>51</ns3:cad>
          </ns3:TrackPointExtension>
        </extensions>
      </trkpt>
      <trkpt lat="43.47160848788917064666748046875" lon="1.4652373082935810089111328125">
        <ele>220.399993896484375</ele>
        <time>2026-08-05T08:11:52.000Z</time>
        <extensions>
          <ns3:TrackPointExtension>
            <ns3:hr>67</ns3:hr>
            <ns3:cad>52</ns3:cad>
          </ns3:TrackPointExtension>
        </extensions>
      </trkpt>
      <trkpt lat="43.4716120921075344085693359375" lon="1.465230770409107208251953125">
        <ele>220.399993896484375</ele>
        <time>2026-08-05T08:11:53.000Z</time>
        <extensions>
          <ns3:TrackPointExtension>
            <ns3:hr>66</ns3:hr>
            <ns3:cad>52</ns3:cad>
          </ns3:TrackPointExtension>
        </extensions>
      </trkpt>
      <trkpt lat="43.47161904908716678619384765625" lon="1.46522129885852336883544921875">
        <ele>220.399993896484375</ele>
        <time>2026-08-05T08:11:54.000Z</time>
        <extensions>
          <ns3:TrackPointExtension>
            <ns3:hr>67</ns3:hr>
            <ns3:cad>52</ns3:cad>
          </ns3:TrackPointExtension>
        </extensions>
      </trkpt>
      <trkpt lat="43.471626341342926025390625" lon="1.46521392278373241424560546875">
        <ele>220.1999969482421875</ele>
        <time>2026-08-05T08:11:55.000Z</time>
        <extensions>
          <ns3:TrackPointExtension>
            <ns3:hr>67</ns3:hr>
            <ns3:cad>52</ns3:cad>
          </ns3:TrackPointExtension>
        </extensions>
      </trkpt>
      <trkpt lat="43.47163279540836811065673828125" lon="1.46520554088056087493896484375">
        <ele>220.1999969482421875</ele>
        <time>2026-08-05T08:11:56.000Z</time>
        <extensions>
          <ns3:TrackPointExtension>
            <ns3:hr>66</ns3:hr>
            <ns3:cad>52</ns3:cad>
          </ns3:TrackPointExtension>
        </extensions>
      </trkpt>
      <trkpt lat="43.47163950093090534210205078125" lon="1.465198583900928497314453125">
        <ele>220.1999969482421875</ele>
        <time>2026-08-05T08:11:57.000Z</time>
        <extensions>
          <ns3:TrackPointExtension>
            <ns3:hr>66</ns3:hr>
            <ns3:cad>52</ns3:cad>
          </ns3:TrackPointExtension>
        </extensions>
      </trkpt>
      <trkpt lat="43.47164587117731571197509765625" lon="1.465191207826137542724609375">
        <ele>220.1999969482421875</ele>
        <time>2026-08-05T08:11:58.000Z</time>
        <extensions>
          <ns3:TrackPointExtension>
            <ns3:hr>66</ns3:hr>
            <ns3:cad>52</ns3:cad>
          </ns3:TrackPointExtension>
        </extensions>
      </trkpt>
      <trkpt lat="43.47165115177631378173828125" lon="1.4651809819042682647705078125">
        <ele>220</ele>
        <time>2026-08-05T08:11:59.000Z</time>
        <extensions>
          <ns3:TrackPointExtension>
            <ns3:hr>65</ns3:hr>
            <ns3:cad>52</ns3:cad>
          </ns3:TrackPointExtension>
        </extensions>
      </trkpt>
      <trkpt lat="43.4716545045375823974609375" lon="1.46517100743949413299560546875">
        <ele>220</ele>
        <time>2026-08-05T08:12:00.000Z</time>
        <extensions>
          <ns3:TrackPointExtension>
            <ns3:hr>65</ns3:hr>
            <ns3:cad>49</ns3:cad>
          </ns3:TrackPointExtension>
        </extensions>
      </trkpt>
      <trkpt lat="43.47166045568883419036865234375" lon="1.4651618711650371551513671875">
        <ele>219.8000030517578125</ele>
        <time>2026-08-05T08:12:01.000Z</time>
        <extensions>
          <ns3:TrackPointExtension>
            <ns3:hr>65</ns3:hr>
            <ns3:cad>49</ns3:cad>
          </ns3:TrackPointExtension>
        </extensions>
      </trkpt>
      <trkpt lat="43.47166598774492740631103515625" lon="1.465151645243167877197265625">
        <ele>219.600006103515625</ele>
        <time>2026-08-05T08:12:02.000Z</time>
        <extensions>
          <ns3:TrackPointExtension>
            <ns3:hr>65</ns3:hr>
            <ns3:cad>50</ns3:cad>
          </ns3:TrackPointExtension>
        </extensions>
      </trkpt>
      <trkpt lat="43.47167202271521091461181640625" lon="1.46514284424483776092529296875">
        <ele>219.600006103515625</ele>
        <time>2026-08-05T08:12:03.000Z</time>
        <extensions>
          <ns3:TrackPointExtension>
            <ns3:hr>65</ns3:hr>
            <ns3:cad>50</ns3:cad>
          </ns3:TrackPointExtension>
        </extensions>
      </trkpt>
      <trkpt lat="43.47167889587581157684326171875" lon="1.46513546817004680633544921875">
        <ele>219.399993896484375</ele>
        <time>2026-08-05T08:12:04.000Z</time>
        <extensions>
          <ns3:TrackPointExtension>
            <ns3:hr>64</ns3:hr>
            <ns3:cad>50</ns3:cad>
          </ns3:TrackPointExtension>
        </extensions>
      </trkpt>
      <trkpt lat="43.471689037978649139404296875" lon="1.4651253260672092437744140625">
        <ele>219.399993896484375</ele>
        <time>2026-08-05T08:12:05.000Z</time>
        <extensions>
          <ns3:TrackPointExtension>
            <ns3:hr>64</ns3:hr>
            <ns3:cad>50</ns3:cad>
          </ns3:TrackPointExtension>
        </extensions>
      </trkpt>
      <trkpt lat="43.47169649787247180938720703125" lon="1.46511417813599109649658203125">
        <ele>219.1999969482421875</ele>
        <time>2026-08-05T08:12:06.000Z</time>
        <extensions>
          <ns3:TrackPointExtension>
            <ns3:hr>64</ns3:hr>
            <ns3:cad>50</ns3:cad>
          </ns3:TrackPointExtension>
        </extensions>
      </trkpt>
      <trkpt lat="43.471702449023723602294921875" lon="1.465108394622802734375">
        <ele>219.1999969482421875</ele>
        <time>2026-08-05T08:12:07.000Z</time>
        <extensions>
          <ns3:TrackPointExtension>
            <ns3:hr>64</ns3:hr>
            <ns3:cad>50</ns3:cad>
          </ns3:TrackPointExtension>
        </extensions>
      </trkpt>
      <trkpt lat="43.4717076458036899566650390625" lon="1.46510462276637554168701171875">
        <ele>219.1999969482421875</ele>
        <time>2026-08-05T08:12:08.000Z</time>
        <extensions>
          <ns3:TrackPointExtension>
            <ns3:hr>64</ns3:hr>
            <ns3:cad>50</ns3:cad>
          </ns3:TrackPointExtension>
        </extensions>
      </trkpt>
      <trkpt lat="43.47171225585043430328369140625" lon="1.4650971628725528717041015625">
        <ele>219</ele>
        <time>2026-08-05T08:12:09.000Z</time>
        <extensions>
          <ns3:TrackPointExtension>
            <ns3:hr>65</ns3:hr>
            <ns3:cad>50</ns3:cad>
          </ns3:TrackPointExtension>
        </extensions>
      </trkpt>
      <trkpt lat="43.471721224486827850341796875" lon="1.46508769132196903228759765625">
        <ele>219</ele>
        <time>2026-08-05T08:12:10.000Z</time>
        <extensions>
          <ns3:TrackPointExtension>
            <ns3:hr>65</ns3:hr>
            <ns3:cad>50</ns3:cad>
          </ns3:TrackPointExtension>
        </extensions>
      </trkpt>
      <trkpt lat="43.47172801382839679718017578125" lon="1.46508048288524150848388671875">
        <ele>219</ele>
        <time>2026-08-05T08:12:11.000Z</time>
        <extensions>
          <ns3:TrackPointExtension>
            <ns3:hr>66</ns3:hr>
            <ns3:cad>50</ns3:cad>
          </ns3:TrackPointExtension>
        </extensions>
      </trkpt>
      <trkpt lat="43.47173857502639293670654296875" lon="1.4650763757526874542236328125">
        <ele>218.8000030517578125</ele>
        <time>2026-08-05T08:12:12.000Z</time>
        <extensions>
          <ns3:TrackPointExtension>
            <ns3:hr>67</ns3:hr>
            <ns3:cad>50</ns3:cad>
          </ns3:TrackPointExtension>
        </extensions>
      </trkpt>
      <trkpt lat="43.47174637019634246826171875" lon="1.4650706760585308074951171875">
        <ele>218.8000030517578125</ele>
        <time>2026-08-05T08:12:13.000Z</time>
        <extensions>
          <ns3:TrackPointExtension>
            <ns3:hr>68</ns3:hr>
            <ns3:cad>50</ns3:cad>
          </ns3:TrackPointExtension>
        </extensions>
      </trkpt>
      <trkpt lat="43.47175550647079944610595703125" lon="1.4650666527450084686279296875">
        <ele>218.600006103515625</ele>
        <time>2026-08-05T08:12:14.000Z</time>
        <extensions>
          <ns3:TrackPointExtension>
            <ns3:hr>68</ns3:hr>
            <ns3:cad>44</ns3:cad>
          </ns3:TrackPointExtension>
        </extensions>
      </trkpt>
      <trkpt lat="43.471760787069797515869140625" lon="1.46506891585886478424072265625">
        <ele>218.600006103515625</ele>
        <time>2026-08-05T08:12:15.000Z</time>
        <extensions>
          <ns3:TrackPointExtension>
            <ns3:hr>69</ns3:hr>
            <ns3:cad>44</ns3:cad>
          </ns3:TrackPointExtension>
        </extensions>
      </trkpt>
      <trkpt lat="43.47176112234592437744140625" lon="1.46506941877305507659912109375">
        <ele>218.399993896484375</ele>
        <time>2026-08-05T08:12:16.000Z</time>
        <extensions>
          <ns3:TrackPointExtension>
            <ns3:hr>70</ns3:hr>
            <ns3:cad>44</ns3:cad>
          </ns3:TrackPointExtension>
        </extensions>
      </trkpt>
      <trkpt lat="43.47176782786846160888671875" lon="1.46506204269826412200927734375">
        <ele>218.399993896484375</ele>
        <time>2026-08-05T08:12:17.000Z</time>
        <extensions>
          <ns3:TrackPointExtension>
            <ns3:hr>70</ns3:hr>
            <ns3:cad>44</ns3:cad>
          </ns3:TrackPointExtension>
        </extensions>
      </trkpt>
      <trkpt lat="43.47176908515393733978271484375" lon="1.465055085718631744384765625">
        <ele>218.399993896484375</ele>
        <time>2026-08-05T08:12:18.000Z</time>
        <extensions>
          <ns3:TrackPointExtension>
            <ns3:hr>70</ns3:hr>
            <ns3:cad>44</ns3:cad>
          </ns3:TrackPointExtension>
        </extensions>
      </trkpt>
      <trkpt lat="43.47177319228649139404296875" lon="1.46503622643649578094482421875">
        <ele>218.399993896484375</ele>
        <time>2026-08-05T08:12:19.000Z</time>
        <extensions>
          <ns3:TrackPointExtension>
            <ns3:hr>70</ns3:hr>
            <ns3:cad>0</ns3:cad>
          </ns3:TrackPointExtension>
        </extensions>
      </trkpt>
      <trkpt lat="43.47177729941904544830322265625" lon="1.46501652896404266357421875">
        <ele>218.399993896484375</ele>
        <time>2026-08-05T08:12:20.000Z</time>
        <extensions>
          <ns3:TrackPointExtension>
            <ns3:hr>70</ns3:hr>
            <ns3:cad>0</ns3:cad>
          </ns3:TrackPointExtension>
        </extensions>
      </trkpt>
      <trkpt lat="43.4717834182083606719970703125" lon="1.46500152535736560821533203125">
        <ele>218.1999969482421875</ele>
        <time>2026-08-05T08:12:21.000Z</time>
        <extensions>
          <ns3:TrackPointExtension>
            <ns3:hr>70</ns3:hr>
            <ns3:cad>0</ns3:cad>
          </ns3:TrackPointExtension>
        </extensions>
      </trkpt>
      <trkpt lat="43.47178786061704158782958984375" lon="1.4649905450642108917236328125">
        <ele>218.1999969482421875</ele>
        <time>2026-08-05T08:12:22.000Z</time>
        <extensions>
          <ns3:TrackPointExtension>
            <ns3:hr>70</ns3:hr>
            <ns3:cad>0</ns3:cad>
          </ns3:TrackPointExtension>
        </extensions>
      </trkpt>
      <trkpt lat="43.47179255448281764984130859375" lon="1.4649791456758975982666015625">
        <ele>218.1999969482421875</ele>
        <time>2026-08-05T08:12:23.000Z</time>
        <extensions>
          <ns3:TrackPointExtension>
            <ns3:hr>70</ns3:hr>
            <ns3:cad>0</ns3:cad>
          </ns3:TrackPointExtension>
        </extensions>
      </trkpt>
      <trkpt lat="43.47179657779633998870849609375" lon="1.46496950648725032806396484375">
        <ele>218.1999969482421875</ele>
        <time>2026-08-05T08:12:24.000Z</time>
        <extensions>
          <ns3:TrackPointExtension>
            <ns3:hr>70</ns3:hr>
            <ns3:cad>0</ns3:cad>
          </ns3:TrackPointExtension>
        </extensions>
      </trkpt>
      <trkpt lat="43.4718011878430843353271484375" lon="1.46496154367923736572265625">
        <ele>218.1999969482421875</ele>
        <time>2026-08-05T08:12:25.000Z</time>
        <extensions>
          <ns3:TrackPointExtension>
            <ns3:hr>70</ns3:hr>
            <ns3:cad>50</ns3:cad>
          </ns3:TrackPointExtension>
        </extensions>
      </trkpt>
      <trkpt lat="43.471809066832065582275390625" lon="1.4649546705186367034912109375">
        <ele>218</ele>
        <time>2026-08-05T08:12:26.000Z</time>
        <extensions>
          <ns3:TrackPointExtension>
            <ns3:hr>70</ns3:hr>
            <ns3:cad>50</ns3:cad>
          </ns3:TrackPointExtension>
        </extensions>
      </trkpt>
      <trkpt lat="43.47181803546845912933349609375" lon="1.46494419313967227935791015625">
        <ele>218</ele>
        <time>2026-08-05T08:12:27.000Z</time>
        <extensions>
          <ns3:TrackPointExtension>
            <ns3:hr>70</ns3:hr>
            <ns3:cad>50</ns3:cad>
          </ns3:TrackPointExtension>
        </extensions>
      </trkpt>
      <trkpt lat="43.4718293510377407073974609375" lon="1.464935727417469024658203125">
        <ele>218</ele>
        <time>2026-08-05T08:12:28.000Z</time>
        <extensions>
          <ns3:TrackPointExtension>
            <ns3:hr>70</ns3:hr>
            <ns3:cad>50</ns3:cad>
          </ns3:TrackPointExtension>
        </extensions>
      </trkpt>
      <trkpt lat="43.47183781675994396209716796875" lon="1.4649325422942638397216796875">
        <ele>218</ele>
        <time>2026-08-05T08:12:29.000Z</time>
        <extensions>
          <ns3:TrackPointExtension>
            <ns3:hr>70</ns3:hr>
            <ns3:cad>50</ns3:cad>
          </ns3:TrackPointExtension>
        </extensions>
      </trkpt>
      <trkpt lat="43.4718467853963375091552734375" lon="1.46492642350494861602783203125">
        <ele>218</ele>
        <time>2026-08-05T08:12:30.000Z</time>
        <extensions>
          <ns3:TrackPointExtension>
            <ns3:hr>70</ns3:hr>
            <ns3:cad>51</ns3:cad>
          </ns3:TrackPointExtension>
        </extensions>
      </trkpt>
      <trkpt lat="43.4718541614711284637451171875" lon="1.46491971798241138458251953125">
        <ele>218</ele>
        <time>2026-08-05T08:12:31.000Z</time>
        <extensions>
          <ns3:TrackPointExtension>
            <ns3:hr>70</ns3:hr>
            <ns3:cad>51</ns3:cad>
          </ns3:TrackPointExtension>
        </extensions>
      </trkpt>
      <trkpt lat="43.471861369907855987548828125" lon="1.46490831859409809112548828125">
        <ele>218</ele>
        <time>2026-08-05T08:12:32.000Z</time>
        <extensions>
          <ns3:TrackPointExtension>
            <ns3:hr>70</ns3:hr>
            <ns3:cad>50</ns3:cad>
          </ns3:TrackPointExtension>
        </extensions>
      </trkpt>
      <trkpt lat="43.4718625433743000030517578125" lon="1.4648953266441822052001953125">
        <ele>218</ele>
        <time>2026-08-05T08:12:33.000Z</time>
        <extensions>
          <ns3:TrackPointExtension>
            <ns3:hr>71</ns3:hr>
            <ns3:cad>49</ns3:cad>
          </ns3:TrackPointExtension>
        </extensions>
      </trkpt>
      <trkpt lat="43.471867404878139495849609375" lon="1.4648889563977718353271484375">
        <ele>218</ele>
        <time>2026-08-05T08:12:34.000Z</time>
        <extensions>
          <ns3:TrackPointExtension>
            <ns3:hr>70</ns3:hr>
            <ns3:cad>49</ns3:cad>
          </ns3:TrackPointExtension>
        </extensions>
      </trkpt>
      <trkpt lat="43.47187201492488384246826171875" lon="1.46487982012331485748291015625">
        <ele>217.8000030517578125</ele>
        <time>2026-08-05T08:12:35.000Z</time>
        <extensions>
          <ns3:TrackPointExtension>
            <ns3:hr>71</ns3:hr>
            <ns3:cad>48</ns3:cad>
          </ns3:TrackPointExtension>
        </extensions>
      </trkpt>
      <trkpt lat="43.47187737934291362762451171875" lon="1.46487009711563587188720703125">
        <ele>217.8000030517578125</ele>
        <time>2026-08-05T08:12:36.000Z</time>
        <extensions>
          <ns3:TrackPointExtension>
            <ns3:hr>71</ns3:hr>
            <ns3:cad>48</ns3:cad>
          </ns3:TrackPointExtension>
        </extensions>
      </trkpt>
      <trkpt lat="43.47188458777964115142822265625" lon="1.4648631401360034942626953125">
        <ele>217.8000030517578125</ele>
        <time>2026-08-05T08:12:37.000Z</time>
        <extensions>
          <ns3:TrackPointExtension>
            <ns3:hr>71</ns3:hr>
            <ns3:cad>48</ns3:cad>
          </ns3:TrackPointExtension>
        </extensions>
      </trkpt>
      <trkpt lat="43.47188643179833889007568359375" lon="1.464851908385753631591796875">
        <ele>217.8000030517578125</ele>
        <time>2026-08-05T08:12:38.000Z</time>
        <extensions>
          <ns3:TrackPointExtension>
            <ns3:hr>69</ns3:hr>
            <ns3:cad>48</ns3:cad>
          </ns3:TrackPointExtension>
        </extensions>
      </trkpt>
      <trkpt lat="43.47189255058765411376953125" lon="1.46483480930328369140625">
        <ele>217.8000030517578125</ele>
        <time>2026-08-05T08:12:39.000Z</time>
        <extensions>
          <ns3:TrackPointExtension>
            <ns3:hr>69</ns3:hr>
            <ns3:cad>47</ns3:cad>
          </ns3:TrackPointExtension>
        </extensions>
      </trkpt>
      <trkpt lat="43.4718937240540981292724609375" lon="1.46482114680111408233642578125">
        <ele>217.600006103515625</ele>
        <time>2026-08-05T08:12:40.000Z</time>
        <extensions>
          <ns3:TrackPointExtension>
            <ns3:hr>69</ns3:hr>
            <ns3:cad>47</ns3:cad>
          </ns3:TrackPointExtension>
        </extensions>
      </trkpt>
      <trkpt lat="43.4718974120914936065673828125" lon="1.4648121781647205352783203125">
        <ele>217.600006103515625</ele>
        <time>2026-08-05T08:12:41.000Z</time>
        <extensions>
          <ns3:TrackPointExtension>
            <ns3:hr>69</ns3:hr>
            <ns3:cad>47</ns3:cad>
          </ns3:TrackPointExtension>
        </extensions>
      </trkpt>
      <trkpt lat="43.4719017706811428070068359375" lon="1.464802958071231842041015625">
        <ele>217.600006103515625</ele>
        <time>2026-08-05T08:12:42.000Z</time>
        <extensions>
          <ns3:TrackPointExtension>
            <ns3:hr>69</ns3:hr>
            <ns3:cad>44</ns3:cad>
          </ns3:TrackPointExtension>
        </extensions>
      </trkpt>
      <trkpt lat="43.471905626356601715087890625" lon="1.46479348652064800262451171875">
        <ele>217.399993896484375</ele>
        <time>2026-08-05T08:12:43.000Z</time>
        <extensions>
          <ns3:TrackPointExtension>
            <ns3:hr>69</ns3:hr>
            <ns3:cad>0</ns3:cad>
          </ns3:TrackPointExtension>
        </extensions>
      </trkpt>
      <trkpt lat="43.4719108231365680694580078125" lon="1.464782841503620147705078125">
        <ele>217.399993896484375</ele>
        <time>2026-08-05T08:12:44.000Z</time>
        <extensions>
          <ns3:TrackPointExtension>
            <ns3:hr>69</ns3:hr>
            <ns3:cad>0</ns3:cad>
          </ns3:TrackPointExtension>
        </extensions>
      </trkpt>
      <trkpt lat="43.4719146788120269775390625" lon="1.46476565860211849212646484375">
        <ele>217.399993896484375</ele>
        <time>2026-08-05T08:12:45.000Z</time>
        <extensions>
          <ns3:TrackPointExtension>
            <ns3:hr>69</ns3:hr>
            <ns3:cad>0</ns3:cad>
          </ns3:TrackPointExtension>
        </extensions>
      </trkpt>
      <trkpt lat="43.47191375680267810821533203125" lon="1.46475099027156829833984375">
        <ele>217.399993896484375</ele>
        <time>2026-08-05T08:12:46.000Z</time>
        <extensions>
          <ns3:TrackPointExtension>
            <ns3:hr>69</ns3:hr>
            <ns3:cad>47</ns3:cad>
          </ns3:TrackPointExtension>
        </extensions>
      </trkpt>
      <trkpt lat="43.47191979177296161651611328125" lon="1.464741267263889312744140625">
        <ele>217.1999969482421875</ele>
        <time>2026-08-05T08:12:47.000Z</time>
        <extensions>
          <ns3:TrackPointExtension>
            <ns3:hr>69</ns3:hr>
            <ns3:cad>47</ns3:cad>
          </ns3:TrackPointExtension>
        </extensions>
      </trkpt>
      <trkpt lat="43.47192205488681793212890625" lon="1.46473447792232036590576171875">
        <ele>217.1999969482421875</ele>
        <time>2026-08-05T08:12:48.000Z</time>
        <extensions>
          <ns3:TrackPointExtension>
            <ns3:hr>69</ns3:hr>
            <ns3:cad>47</ns3:cad>
          </ns3:TrackPointExtension>
        </extensions>
      </trkpt>
      <trkpt lat="43.4719275869429111480712890625" lon="1.46471939049661159515380859375">
        <ele>217.1999969482421875</ele>
        <time>2026-08-05T08:12:49.000Z</time>
        <extensions>
          <ns3:TrackPointExtension>
            <ns3:hr>69</ns3:hr>
            <ns3:cad>48</ns3:cad>
          </ns3:TrackPointExtension>
        </extensions>
      </trkpt>
      <trkpt lat="43.4719299338757991790771484375" lon="1.46470698527991771697998046875">
        <ele>217.1999969482421875</ele>
        <time>2026-08-05T08:12:50.000Z</time>
        <extensions>
          <ns3:TrackPointExtension>
            <ns3:hr>69</ns3:hr>
            <ns3:cad>48</ns3:cad>
          </ns3:TrackPointExtension>
        </extensions>
      </trkpt>
      <trkpt lat="43.47193554975092411041259765625" lon="1.46469441242516040802001953125">
        <ele>217</ele>
        <time>2026-08-05T08:12:51.000Z</time>
        <extensions>
          <ns3:TrackPointExtension>
            <ns3:hr>69</ns3:hr>
            <ns3:cad>48</ns3:cad>
          </ns3:TrackPointExtension>
        </extensions>
      </trkpt>
      <trkpt lat="43.471939153969287872314453125" lon="1.46468435414135456085205078125">
        <ele>217</ele>
        <time>2026-08-05T08:12:52.000Z</time>
        <extensions>
          <ns3:TrackPointExtension>
            <ns3:hr>69</ns3:hr>
            <ns3:cad>47</ns3:cad>
          </ns3:TrackPointExtension>
        </extensions>
      </trkpt>
      <trkpt lat="43.471945859491825103759765625" lon="1.46467329002916812896728515625">
        <ele>217</ele>
        <time>2026-08-05T08:12:53.000Z</time>
        <extensions>
          <ns3:TrackPointExtension>
            <ns3:hr>69</ns3:hr>
            <ns3:cad>47</ns3:cad>
          </ns3:TrackPointExtension>
        </extensions>
      </trkpt>
      <trkpt lat="43.47195415757596492767333984375" lon="1.46466289646923542022705078125">
        <ele>217</ele>
        <time>2026-08-05T08:12:54.000Z</time>
        <extensions>
          <ns3:TrackPointExtension>
            <ns3:hr>70</ns3:hr>
            <ns3:cad>0</ns3:cad>
          </ns3:TrackPointExtension>
        </extensions>
      </trkpt>
      <trkpt lat="43.47195918671786785125732421875" lon="1.46465484984219074249267578125">
        <ele>217</ele>
        <time>2026-08-05T08:12:55.000Z</time>
        <extensions>
          <ns3:TrackPointExtension>
            <ns3:hr>70</ns3:hr>
            <ns3:cad>0</ns3:cad>
          </ns3:TrackPointExtension>
        </extensions>
      </trkpt>
      <trkpt lat="43.4719637967646121978759765625" lon="1.464652083814144134521484375">
        <ele>216.8000030517578125</ele>
        <time>2026-08-05T08:12:56.000Z</time>
        <extensions>
          <ns3:TrackPointExtension>
            <ns3:hr>70</ns3:hr>
            <ns3:cad>0</ns3:cad>
          </ns3:TrackPointExtension>
        </extensions>
      </trkpt>
      <trkpt lat="43.47196941263973712921142578125" lon="1.464648060500621795654296875">
        <ele>216.8000030517578125</ele>
        <time>2026-08-05T08:12:57.000Z</time>
        <extensions>
          <ns3:TrackPointExtension>
            <ns3:hr>70</ns3:hr>
            <ns3:cad>0</ns3:cad>
          </ns3:TrackPointExtension>
        </extensions>
      </trkpt>
      <trkpt lat="43.47197678871452808380126953125" lon="1.46464294753968715667724609375">
        <ele>216.8000030517578125</ele>
        <time>2026-08-05T08:12:58.000Z</time>
        <extensions>
          <ns3:TrackPointExtension>
            <ns3:hr>70</ns3:hr>
            <ns3:cad>0</ns3:cad>
          </ns3:TrackPointExtension>
        </extensions>
      </trkpt>
      <trkpt lat="43.47198030911386013031005859375" lon="1.46464110352098941802978515625">
        <ele>216.8000030517578125</ele>
        <time>2026-08-05T08:12:59.000Z</time>
        <extensions>
          <ns3:TrackPointExtension>
            <ns3:hr>70</ns3:hr>
            <ns3:cad>0</ns3:cad>
          </ns3:TrackPointExtension>
        </extensions>
      </trkpt>
      <trkpt lat="43.47198374569416046142578125" lon="1.4646395109593868255615234375">
        <ele>216.8000030517578125</ele>
        <time>2026-08-05T08:13:00.000Z</time>
        <extensions>
          <ns3:TrackPointExtension>
            <ns3:hr>70</ns3:hr>
            <ns3:cad>0</ns3:cad>
          </ns3:TrackPointExtension>
        </extensions>
      </trkpt>
      <trkpt lat="43.4720000065863132476806640625" lon="1.46463691256940364837646484375">
        <ele>216.600006103515625</ele>
        <time>2026-08-05T08:13:01.000Z</time>
        <extensions>
          <ns3:TrackPointExtension>
            <ns3:hr>70</ns3:hr>
            <ns3:cad>0</ns3:cad>
          </ns3:TrackPointExtension>
        </extensions>
      </trkpt>
      <trkpt lat="43.47200696356594562530517578125" lon="1.46463221870362758636474609375">
        <ele>216.600006103515625</ele>
        <time>2026-08-05T08:13:02.000Z</time>
        <extensions>
          <ns3:TrackPointExtension>
            <ns3:hr>71</ns3:hr>
            <ns3:cad>0</ns3:cad>
          </ns3:TrackPointExtension>
        </extensions>
      </trkpt>
      <trkpt lat="43.47201350145041942596435546875" lon="1.464630626142024993896484375">
        <ele>216.600006103515625</ele>
        <time>2026-08-05T08:13:03.000Z</time>
        <extensions>
          <ns3:TrackPointExtension>
            <ns3:hr>71</ns3:hr>
            <ns3:cad>0</ns3:cad>
          </ns3:TrackPointExtension>
        </extensions>
      </trkpt>
      <trkpt lat="43.47201836295425891876220703125" lon="1.464631296694278717041015625">
        <ele>216.399993896484375</ele>
        <time>2026-08-05T08:13:04.000Z</time>
        <extensions>
          <ns3:TrackPointExtension>
            <ns3:hr>71</ns3:hr>
            <ns3:cad>0</ns3:cad>
          </ns3:TrackPointExtension>
        </extensions>
      </trkpt>
      <trkpt lat="43.47202590666711330413818359375" lon="1.46463255397975444793701171875">
        <ele>216.399993896484375</ele>
        <time>2026-08-05T08:13:05.000Z</time>
        <extensions>
          <ns3:TrackPointExtension>
            <ns3:hr>71</ns3:hr>
            <ns3:cad>0</ns3:cad>
          </ns3:TrackPointExtension>
        </extensions>
      </trkpt>
      <trkpt lat="43.472033031284809112548828125" lon="1.464630626142024993896484375">
        <ele>216.399993896484375</ele>
        <time>2026-08-05T08:13:06.000Z</time>
        <extensions>
          <ns3:TrackPointExtension>
            <ns3:hr>71</ns3:hr>
            <ns3:cad>0</ns3:cad>
          </ns3:TrackPointExtension>
        </extensions>
      </trkpt>
      <trkpt lat="43.47203713841736316680908203125" lon="1.4646301232278347015380859375">
        <ele>216.399993896484375</ele>
        <time>2026-08-05T08:13:07.000Z</time>
        <extensions>
          <ns3:TrackPointExtension>
            <ns3:hr>71</ns3:hr>
            <ns3:cad>0</ns3:cad>
          </ns3:TrackPointExtension>
        </extensions>
      </trkpt>
      <trkpt lat="43.4720429219305515289306640625" lon="1.46463029086589813232421875">
        <ele>216.399993896484375</ele>
        <time>2026-08-05T08:13:08.000Z</time>
        <extensions>
          <ns3:TrackPointExtension>
            <ns3:hr>71</ns3:hr>
            <ns3:cad>0</ns3:cad>
          </ns3:TrackPointExtension>
        </extensions>
      </trkpt>
      <trkpt lat="43.4720496274530887603759765625" lon="1.4646307937800884246826171875">
        <ele>216.399993896484375</ele>
        <time>2026-08-05T08:13:09.000Z</time>
        <extensions>
          <ns3:TrackPointExtension>
            <ns3:hr>70</ns3:hr>
            <ns3:cad>0</ns3:cad>
          </ns3:TrackPointExtension>
        </extensions>
      </trkpt>
      <trkpt lat="43.4720580093562602996826171875" lon="1.46463096141815185546875">
        <ele>216.399993896484375</ele>
        <time>2026-08-05T08:13:10.000Z</time>
        <extensions>
          <ns3:TrackPointExtension>
            <ns3:hr>71</ns3:hr>
            <ns3:cad>0</ns3:cad>
          </ns3:TrackPointExtension>
        </extensions>
      </trkpt>
      <trkpt lat="43.4720684029161930084228515625" lon="1.464633308351039886474609375">
        <ele>216.399993896484375</ele>
        <time>2026-08-05T08:13:11.000Z</time>
        <extensions>
          <ns3:TrackPointExtension>
            <ns3:hr>70</ns3:hr>
            <ns3:cad>77</ns3:cad>
          </ns3:TrackPointExtension>
        </extensions>
      </trkpt>
      <trkpt lat="43.47207971848547458648681640625" lon="1.4646351523697376251220703125">
        <ele>216.399993896484375</ele>
        <time>2026-08-05T08:13:12.000Z</time>
        <extensions>
          <ns3:TrackPointExtension>
            <ns3:hr>70</ns3:hr>
            <ns3:cad>77</ns3:cad>
          </ns3:TrackPointExtension>
        </extensions>
      </trkpt>
      <trkpt lat="43.472089357674121856689453125" lon="1.46463372744619846343994140625">
        <ele>216.399993896484375</ele>
        <time>2026-08-05T08:13:13.000Z</time>
        <extensions>
          <ns3:TrackPointExtension>
            <ns3:hr>70</ns3:hr>
            <ns3:cad>48</ns3:cad>
          </ns3:TrackPointExtension>
        </extensions>
      </trkpt>
      <trkpt lat="43.47209899686276912689208984375" lon="1.46463238634169101715087890625">
        <ele>216.399993896484375</ele>
        <time>2026-08-05T08:13:14.000Z</time>
        <extensions>
          <ns3:TrackPointExtension>
            <ns3:hr>70</ns3:hr>
            <ns3:cad>0</ns3:cad>
          </ns3:TrackPointExtension>
        </extensions>
      </trkpt>
      <trkpt lat="43.47210821695625782012939453125" lon="1.464631967246532440185546875">
        <ele>216.399993896484375</ele>
        <time>2026-08-05T08:13:15.000Z</time>
        <extensions>
          <ns3:TrackPointExtension>
            <ns3:hr>71</ns3:hr>
            <ns3:cad>0</ns3:cad>
          </ns3:TrackPointExtension>
        </extensions>
      </trkpt>
      <trkpt lat="43.472120873630046844482421875" lon="1.464633643627166748046875">
        <ele>216.399993896484375</ele>
        <time>2026-08-05T08:13:16.000Z</time>
        <extensions>
          <ns3:TrackPointExtension>
            <ns3:hr>70</ns3:hr>
            <ns3:cad>0</ns3:cad>
          </ns3:TrackPointExtension>
        </extensions>
      </trkpt>
      <trkpt lat="43.4721304289996623992919921875" lon="1.464635320007801055908203125">
        <ele>216.399993896484375</ele>
        <time>2026-08-05T08:13:17.000Z</time>
        <extensions>
          <ns3:TrackPointExtension>
            <ns3:hr>70</ns3:hr>
            <ns3:cad>47</ns3:cad>
          </ns3:TrackPointExtension>
        </extensions>
      </trkpt>
      <trkpt lat="43.4721361286938190460205078125" lon="1.4646385051310062408447265625">
        <ele>216.399993896484375</ele>
        <time>2026-08-05T08:13:18.000Z</time>
        <extensions>
          <ns3:TrackPointExtension>
            <ns3:hr>69</ns3:hr>
            <ns3:cad>47</ns3:cad>
          </ns3:TrackPointExtension>
        </extensions>
      </trkpt>
      <trkpt lat="43.47214308567345142364501953125" lon="1.46464294753968715667724609375">
        <ele>216.399993896484375</ele>
        <time>2026-08-05T08:13:19.000Z</time>
        <extensions>
          <ns3:TrackPointExtension>
            <ns3:hr>70</ns3:hr>
            <ns3:cad>47</ns3:cad>
          </ns3:TrackPointExtension>
        </extensions>
      </trkpt>
      <trkpt lat="43.4721575863659381866455078125" lon="1.4646519161760807037353515625">
        <ele>216.399993896484375</ele>
        <time>2026-08-05T08:13:20.000Z</time>
        <extensions>
          <ns3:TrackPointExtension>
            <ns3:hr>70</ns3:hr>
            <ns3:cad>47</ns3:cad>
          </ns3:TrackPointExtension>
        </extensions>
      </trkpt>
      <trkpt lat="43.47216772846877574920654296875" lon="1.46465501748025417327880859375">
        <ele>216.399993896484375</ele>
        <time>2026-08-05T08:13:21.000Z</time>
        <extensions>
          <ns3:TrackPointExtension>
            <ns3:hr>70</ns3:hr>
            <ns3:cad>47</ns3:cad>
          </ns3:TrackPointExtension>
        </extensions>
      </trkpt>
      <trkpt lat="43.47217426635324954986572265625" lon="1.46465845406055450439453125">
        <ele>216.600006103515625</ele>
        <time>2026-08-05T08:13:22.000Z</time>
        <extensions>
          <ns3:TrackPointExtension>
            <ns3:hr>71</ns3:hr>
            <ns3:cad>46</ns3:cad>
          </ns3:TrackPointExtension>
        </extensions>
      </trkpt>
      <trkpt lat="43.47218197770416736602783203125" lon="1.46465904079377651214599609375">
        <ele>216.600006103515625</ele>
        <time>2026-08-05T08:13:23.000Z</time>
        <extensions>
          <ns3:TrackPointExtension>
            <ns3:hr>72</ns3:hr>
            <ns3:cad>46</ns3:cad>
          </ns3:TrackPointExtension>
        </extensions>
      </trkpt>
      <trkpt lat="43.47218616865575313568115234375" lon="1.4646569453179836273193359375">
        <ele>216.600006103515625</ele>
        <time>2026-08-05T08:13:24.000Z</time>
        <extensions>
          <ns3:TrackPointExtension>
            <ns3:hr>73</ns3:hr>
            <ns3:cad>45</ns3:cad>
          </ns3:TrackPointExtension>
        </extensions>
      </trkpt>
      <trkpt lat="43.47219136543571949005126953125" lon="1.46465635858476161956787109375">
        <ele>216.600006103515625</ele>
        <time>2026-08-05T08:13:25.000Z</time>
        <extensions>
          <ns3:TrackPointExtension>
            <ns3:hr>74</ns3:hr>
            <ns3:cad>44</ns3:cad>
          </ns3:TrackPointExtension>
        </extensions>
      </trkpt>
      <trkpt lat="43.472200334072113037109375" lon="1.46465434692800045013427734375">
        <ele>216.8000030517578125</ele>
        <time>2026-08-05T08:13:26.000Z</time>
        <extensions>
          <ns3:TrackPointExtension>
            <ns3:hr>75</ns3:hr>
            <ns3:cad>44</ns3:cad>
          </ns3:TrackPointExtension>
        </extensions>
      </trkpt>
      <trkpt lat="43.47220544703304767608642578125" lon="1.46464948542416095733642578125">
        <ele>216.8000030517578125</ele>
        <time>2026-08-05T08:13:27.000Z</time>
        <extensions>
          <ns3:TrackPointExtension>
            <ns3:hr>75</ns3:hr>
            <ns3:cad>43</ns3:cad>
          </ns3:TrackPointExtension>
        </extensions>
      </trkpt>
      <trkpt lat="43.4722142480313777923583984375" lon="1.4646435342729091644287109375">
        <ele>216.8000030517578125</ele>
        <time>2026-08-05T08:13:28.000Z</time>
        <extensions>
          <ns3:TrackPointExtension>
            <ns3:hr>76</ns3:hr>
            <ns3:cad>43</ns3:cad>
          </ns3:TrackPointExtension>
        </extensions>
      </trkpt>
      <trkpt lat="43.4722209535539150238037109375" lon="1.46463473327457904815673828125">
        <ele>216.8000030517578125</ele>
        <time>2026-08-05T08:13:29.000Z</time>
        <extensions>
          <ns3:TrackPointExtension>
            <ns3:hr>76</ns3:hr>
            <ns3:cad>43</ns3:cad>
          </ns3:TrackPointExtension>
        </extensions>
      </trkpt>
      <trkpt lat="43.47222958691418170928955078125" lon="1.464621908962726593017578125">
        <ele>217</ele>
        <time>2026-08-05T08:13:30.000Z</time>
        <extensions>
          <ns3:TrackPointExtension>
            <ns3:hr>76</ns3:hr>
            <ns3:cad>42</ns3:cad>
          </ns3:TrackPointExtension>
        </extensions>
      </trkpt>
      <trkpt lat="43.472236208617687225341796875" lon="1.4646110124886035919189453125">
        <ele>217</ele>
        <time>2026-08-05T08:13:31.000Z</time>
        <extensions>
          <ns3:TrackPointExtension>
            <ns3:hr>77</ns3:hr>
            <ns3:cad>41</ns3:cad>
          </ns3:TrackPointExtension>
        </extensions>
      </trkpt>
      <trkpt lat="43.47224182449281215667724609375" lon="1.4646027982234954833984375">
        <ele>217</ele>
        <time>2026-08-05T08:13:32.000Z</time>
        <extensions>
          <ns3:TrackPointExtension>
            <ns3:hr>77</ns3:hr>
            <ns3:cad>41</ns3:cad>
          </ns3:TrackPointExtension>
        </extensions>
      </trkpt>
      <trkpt lat="43.47224517725408077239990234375" lon="1.464595086872577667236328125">
        <ele>217</ele>
        <time>2026-08-05T08:13:33.000Z</time>
        <extensions>
          <ns3:TrackPointExtension>
            <ns3:hr>77</ns3:hr>
            <ns3:cad>43</ns3:cad>
          </ns3:TrackPointExtension>
        </extensions>
      </trkpt>
      <trkpt lat="43.47225188277661800384521484375" lon="1.46457907743752002716064453125">
        <ele>217</ele>
        <time>2026-08-05T08:13:34.000Z</time>
        <extensions>
          <ns3:TrackPointExtension>
            <ns3:hr>77</ns3:hr>
            <ns3:cad>43</ns3:cad>
          </ns3:TrackPointExtension>
        </extensions>
      </trkpt>
      <trkpt lat="43.472253642976284027099609375" lon="1.46456298418343067169189453125">
        <ele>217</ele>
        <time>2026-08-05T08:13:35.000Z</time>
        <extensions>
          <ns3:TrackPointExtension>
            <ns3:hr>77</ns3:hr>
            <ns3:cad>43</ns3:cad>
          </ns3:TrackPointExtension>
        </extensions>
      </trkpt>
      <trkpt lat="43.47225959412753582000732421875" lon="1.464555524289608001708984375">
        <ele>217</ele>
        <time>2026-08-05T08:13:36.000Z</time>
        <extensions>
          <ns3:TrackPointExtension>
            <ns3:hr>77</ns3:hr>
            <ns3:cad>43</ns3:cad>
          </ns3:TrackPointExtension>
        </extensions>
      </trkpt>
      <trkpt lat="43.47226412035524845123291015625" lon="1.46455007605254650115966796875">
        <ele>217</ele>
        <time>2026-08-05T08:13:37.000Z</time>
        <extensions>
          <ns3:TrackPointExtension>
            <ns3:hr>78</ns3:hr>
            <ns3:cad>43</ns3:cad>
          </ns3:TrackPointExtension>
        </extensions>
      </trkpt>
      <trkpt lat="43.47227233462035655975341796875" lon="1.46453599445521831512451171875">
        <ele>217</ele>
        <time>2026-08-05T08:13:38.000Z</time>
        <extensions>
          <ns3:TrackPointExtension>
            <ns3:hr>78</ns3:hr>
            <ns3:cad>45</ns3:cad>
          </ns3:TrackPointExtension>
        </extensions>
      </trkpt>
      <trkpt lat="43.47227535210549831390380859375" lon="1.46452493034303188323974609375">
        <ele>217</ele>
        <time>2026-08-05T08:13:39.000Z</time>
        <extensions>
          <ns3:TrackPointExtension>
            <ns3:hr>80</ns3:hr>
            <ns3:cad>45</ns3:cad>
          </ns3:TrackPointExtension>
        </extensions>
      </trkpt>
      <trkpt lat="43.4722792915999889373779296875" lon="1.4645171351730823516845703125">
        <ele>216.8000030517578125</ele>
        <time>2026-08-05T08:13:40.000Z</time>
        <extensions>
          <ns3:TrackPointExtension>
            <ns3:hr>81</ns3:hr>
            <ns3:cad>45</ns3:cad>
          </ns3:TrackPointExtension>
        </extensions>
      </trkpt>
      <trkpt lat="43.47228406928479671478271484375" lon="1.464510262012481689453125">
        <ele>216.8000030517578125</ele>
        <time>2026-08-05T08:13:41.000Z</time>
        <extensions>
          <ns3:TrackPointExtension>
            <ns3:hr>81</ns3:hr>
            <ns3:cad>45</ns3:cad>
          </ns3:TrackPointExtension>
        </extensions>
      </trkpt>
      <trkpt lat="43.4722888469696044921875" lon="1.46449492312967777252197265625">
        <ele>216.8000030517578125</ele>
        <time>2026-08-05T08:13:42.000Z</time>
        <extensions>
          <ns3:TrackPointExtension>
            <ns3:hr>81</ns3:hr>
            <ns3:cad>44</ns3:cad>
          </ns3:TrackPointExtension>
        </extensions>
      </trkpt>
      <trkpt lat="43.472290523350238800048828125" lon="1.46447899751365184783935546875">
        <ele>216.8000030517578125</ele>
        <time>2026-08-05T08:13:43.000Z</time>
        <extensions>
          <ns3:TrackPointExtension>
            <ns3:hr>78</ns3:hr>
            <ns3:cad>44</ns3:cad>
          </ns3:TrackPointExtension>
        </extensions>
      </trkpt>
      <trkpt lat="43.4722955524921417236328125" lon="1.46446826867759227752685546875">
        <ele>216.8000030517578125</ele>
        <time>2026-08-05T08:13:44.000Z</time>
        <extensions>
          <ns3:TrackPointExtension>
            <ns3:hr>77</ns3:hr>
            <ns3:cad>45</ns3:cad>
          </ns3:TrackPointExtension>
        </extensions>
      </trkpt>
      <trkpt lat="43.47229630686342716217041015625" lon="1.46446139551699161529541015625">
        <ele>216.8000030517578125</ele>
        <time>2026-08-05T08:13:45.000Z</time>
        <extensions>
          <ns3:TrackPointExtension>
            <ns3:hr>76</ns3:hr>
            <ns3:cad>46</ns3:cad>
          </ns3:TrackPointExtension>
        </extensions>
      </trkpt>
      <trkpt lat="43.4723030962049961090087890625" lon="1.4644463919103145599365234375">
        <ele>216.600006103515625</ele>
        <time>2026-08-05T08:13:46.000Z</time>
        <extensions>
          <ns3:TrackPointExtension>
            <ns3:hr>76</ns3:hr>
            <ns3:cad>46</ns3:cad>
          </ns3:TrackPointExtension>
        </extensions>
      </trkpt>
      <trkpt lat="43.47230988554656505584716796875" lon="1.464434154331684112548828125">
        <ele>216.600006103515625</ele>
        <time>2026-08-05T08:13:47.000Z</time>
        <extensions>
          <ns3:TrackPointExtension>
            <ns3:hr>76</ns3:hr>
            <ns3:cad>46</ns3:cad>
          </ns3:TrackPointExtension>
        </extensions>
      </trkpt>
      <trkpt lat="43.47231499850749969482421875" lon="1.46442669443786144256591796875">
        <ele>216.600006103515625</ele>
        <time>2026-08-05T08:13:48.000Z</time>
        <extensions>
          <ns3:TrackPointExtension>
            <ns3:hr>75</ns3:hr>
            <ns3:cad>46</ns3:cad>
          </ns3:TrackPointExtension>
        </extensions>
      </trkpt>
      <trkpt lat="43.472321368753910064697265625" lon="1.46441563032567501068115234375">
        <ele>216.399993896484375</ele>
        <time>2026-08-05T08:13:49.000Z</time>
        <extensions>
          <ns3:TrackPointExtension>
            <ns3:hr>75</ns3:hr>
            <ns3:cad>47</ns3:cad>
          </ns3:TrackPointExtension>
        </extensions>
      </trkpt>
      <trkpt lat="43.4723265655338764190673828125" lon="1.4644085057079792022705078125">
        <ele>216.399993896484375</ele>
        <time>2026-08-05T08:13:50.000Z</time>
        <extensions>
          <ns3:TrackPointExtension>
            <ns3:hr>75</ns3:hr>
            <ns3:cad>47</ns3:cad>
          </ns3:TrackPointExtension>
        </extensions>
      </trkpt>
      <trkpt lat="43.4723322652280330657958984375" lon="1.4643937535583972930908203125">
        <ele>216.1999969482421875</ele>
        <time>2026-08-05T08:13:51.000Z</time>
        <extensions>
          <ns3:TrackPointExtension>
            <ns3:hr>75</ns3:hr>
            <ns3:cad>47</ns3:cad>
          </ns3:TrackPointExtension>
        </extensions>
      </trkpt>
      <trkpt lat="43.47233620472252368927001953125" lon="1.464376486837863922119140625">
        <ele>216.1999969482421875</ele>
        <time>2026-08-05T08:13:52.000Z</time>
        <extensions>
          <ns3:TrackPointExtension>
            <ns3:hr>75</ns3:hr>
            <ns3:cad>47</ns3:cad>
          </ns3:TrackPointExtension>
        </extensions>
      </trkpt>
      <trkpt lat="43.4723383001983165740966796875" lon="1.4643608964979648590087890625">
        <ele>216.1999969482421875</ele>
        <time>2026-08-05T08:13:53.000Z</time>
        <extensions>
          <ns3:TrackPointExtension>
            <ns3:hr>74</ns3:hr>
            <ns3:cad>47</ns3:cad>
          </ns3:TrackPointExtension>
        </extensions>
      </trkpt>
      <trkpt lat="43.472341485321521759033203125" lon="1.46434941329061985015869140625">
        <ele>216.1999969482421875</ele>
        <time>2026-08-05T08:13:54.000Z</time>
        <extensions>
          <ns3:TrackPointExtension>
            <ns3:hr>75</ns3:hr>
            <ns3:cad>48</ns3:cad>
          </ns3:TrackPointExtension>
        </extensions>
      </trkpt>
      <trkpt lat="43.47234659828245639801025390625" lon="1.46434119902551174163818359375">
        <ele>216.1999969482421875</ele>
        <time>2026-08-05T08:13:55.000Z</time>
        <extensions>
          <ns3:TrackPointExtension>
            <ns3:hr>75</ns3:hr>
            <ns3:cad>48</ns3:cad>
          </ns3:TrackPointExtension>
        </extensions>
      </trkpt>
      <trkpt lat="43.4723490290343761444091796875" lon="1.46432845853269100189208984375">
        <ele>216.1999969482421875</ele>
        <time>2026-08-05T08:13:56.000Z</time>
        <extensions>
          <ns3:TrackPointExtension>
            <ns3:hr>75</ns3:hr>
            <ns3:cad>48</ns3:cad>
          </ns3:TrackPointExtension>
        </extensions>
      </trkpt>
      <trkpt lat="43.47235196270048618316650390625" lon="1.46431705914437770843505859375">
        <ele>216.1999969482421875</ele>
        <time>2026-08-05T08:13:57.000Z</time>
        <extensions>
          <ns3:TrackPointExtension>
            <ns3:hr>75</ns3:hr>
            <ns3:cad>48</ns3:cad>
          </ns3:TrackPointExtension>
        </extensions>
      </trkpt>
      <trkpt lat="43.472354896366596221923828125" lon="1.464308090507984161376953125">
        <ele>216.1999969482421875</ele>
        <time>2026-08-05T08:13:58.000Z</time>
        <extensions>
          <ns3:TrackPointExtension>
            <ns3:hr>75</ns3:hr>
            <ns3:cad>48</ns3:cad>
          </ns3:TrackPointExtension>
        </extensions>
      </trkpt>
      <trkpt lat="43.47235657274723052978515625" lon="1.464305408298969268798828125">
        <ele>216.1999969482421875</ele>
        <time>2026-08-05T08:13:59.000Z</time>
        <extensions>
          <ns3:TrackPointExtension>
            <ns3:hr>75</ns3:hr>
            <ns3:cad>48</ns3:cad>
          </ns3:TrackPointExtension>
        </extensions>
      </trkpt>
      <trkpt lat="43.472358919680118560791015625" lon="1.4642938412725925445556640625">
        <ele>216</ele>
        <time>2026-08-05T08:14:00.000Z</time>
        <extensions>
          <ns3:TrackPointExtension>
            <ns3:hr>75</ns3:hr>
            <ns3:cad>48</ns3:cad>
          </ns3:TrackPointExtension>
        </extensions>
      </trkpt>
      <trkpt lat="43.4723634459078311920166015625" lon="1.46428789012134075164794921875">
        <ele>216</ele>
        <time>2026-08-05T08:14:01.000Z</time>
        <extensions>
          <ns3:TrackPointExtension>
            <ns3:hr>75</ns3:hr>
            <ns3:cad>43</ns3:cad>
          </ns3:TrackPointExtension>
        </extensions>
      </trkpt>
      <trkpt lat="43.47236721776425838470458984375" lon="1.4642827771604061126708984375">
        <ele>216</ele>
        <time>2026-08-05T08:14:02.000Z</time>
        <extensions>
          <ns3:TrackPointExtension>
            <ns3:hr>75</ns3:hr>
            <ns3:cad>43</ns3:cad>
          </ns3:TrackPointExtension>
        </extensions>
      </trkpt>
      <trkpt lat="43.47236738540232181549072265625" lon="1.4642750658094882965087890625">
        <ele>215.8000030517578125</ele>
        <time>2026-08-05T08:14:03.000Z</time>
        <extensions>
          <ns3:TrackPointExtension>
            <ns3:hr>75</ns3:hr>
            <ns3:cad>43</ns3:cad>
          </ns3:TrackPointExtension>
        </extensions>
      </trkpt>
      <trkpt lat="43.47236931324005126953125" lon="1.4642680250108242034912109375">
        <ele>215.8000030517578125</ele>
        <time>2026-08-05T08:14:04.000Z</time>
        <extensions>
          <ns3:TrackPointExtension>
            <ns3:hr>74</ns3:hr>
            <ns3:cad>43</ns3:cad>
          </ns3:TrackPointExtension>
        </extensions>
      </trkpt>
      <trkpt lat="43.47237342037260532379150390625" lon="1.464259810745716094970703125">
        <ele>215.8000030517578125</ele>
        <time>2026-08-05T08:14:05.000Z</time>
        <extensions>
          <ns3:TrackPointExtension>
            <ns3:hr>75</ns3:hr>
            <ns3:cad>43</ns3:cad>
          </ns3:TrackPointExtension>
        </extensions>
      </trkpt>
      <trkpt lat="43.47237761132419109344482421875" lon="1.46425469778478145599365234375">
        <ele>215.8000030517578125</ele>
        <time>2026-08-05T08:14:06.000Z</time>
        <extensions>
          <ns3:TrackPointExtension>
            <ns3:hr>75</ns3:hr>
            <ns3:cad>43</ns3:cad>
          </ns3:TrackPointExtension>
        </extensions>
      </trkpt>
      <trkpt lat="43.47237928770482540130615234375" lon="1.46424732170999050140380859375">
        <ele>215.8000030517578125</ele>
        <time>2026-08-05T08:14:07.000Z</time>
        <extensions>
          <ns3:TrackPointExtension>
            <ns3:hr>74</ns3:hr>
            <ns3:cad>47</ns3:cad>
          </ns3:TrackPointExtension>
        </extensions>
      </trkpt>
      <trkpt lat="43.47238213755190372467041015625" lon="1.4642393589019775390625">
        <ele>215.8000030517578125</ele>
        <time>2026-08-05T08:14:08.000Z</time>
        <extensions>
          <ns3:TrackPointExtension>
            <ns3:hr>74</ns3:hr>
            <ns3:cad>47</ns3:cad>
          </ns3:TrackPointExtension>
        </extensions>
      </trkpt>
      <trkpt lat="43.47238649614155292510986328125" lon="1.46421714685857295989990234375">
        <ele>215.8000030517578125</ele>
        <time>2026-08-05T08:14:09.000Z</time>
        <extensions>
          <ns3:TrackPointExtension>
            <ns3:hr>74</ns3:hr>
            <ns3:cad>47</ns3:cad>
          </ns3:TrackPointExtension>
        </extensions>
      </trkpt>
      <trkpt lat="43.4723906032741069793701171875" lon="1.46420725621283054351806640625">
        <ele>215.600006103515625</ele>
        <time>2026-08-05T08:14:10.000Z</time>
        <extensions>
          <ns3:TrackPointExtension>
            <ns3:hr>74</ns3:hr>
            <ns3:cad>47</ns3:cad>
          </ns3:TrackPointExtension>
        </extensions>
      </trkpt>
      <trkpt lat="43.472391776740550994873046875" lon="1.46419635973870754241943359375">
        <ele>215.600006103515625</ele>
        <time>2026-08-05T08:14:11.000Z</time>
        <extensions>
          <ns3:TrackPointExtension>
            <ns3:hr>74</ns3:hr>
            <ns3:cad>47</ns3:cad>
          </ns3:TrackPointExtension>
        </extensions>
      </trkpt>
      <trkpt lat="43.47239546477794647216796875" lon="1.46418143995106220245361328125">
        <ele>215.600006103515625</ele>
        <time>2026-08-05T08:14:12.000Z</time>
        <extensions>
          <ns3:TrackPointExtension>
            <ns3:hr>73</ns3:hr>
            <ns3:cad>43</ns3:cad>
          </ns3:TrackPointExtension>
        </extensions>
      </trkpt>
      <trkpt lat="43.4724020026624202728271484375" lon="1.4641728065907955169677734375">
        <ele>215.600006103515625</ele>
        <time>2026-08-05T08:14:13.000Z</time>
        <extensions>
          <ns3:TrackPointExtension>
            <ns3:hr>72</ns3:hr>
            <ns3:cad>43</ns3:cad>
          </ns3:TrackPointExtension>
        </extensions>
      </trkpt>
      <trkpt lat="43.472411893308162689208984375" lon="1.464162580668926239013671875">
        <ele>215.600006103515625</ele>
        <time>2026-08-05T08:14:14.000Z</time>
        <extensions>
          <ns3:TrackPointExtension>
            <ns3:hr>72</ns3:hr>
            <ns3:cad>43</ns3:cad>
          </ns3:TrackPointExtension>
        </extensions>
      </trkpt>
      <trkpt lat="43.4724164195358753204345703125" lon="1.46414958871901035308837890625">
        <ele>215.600006103515625</ele>
        <time>2026-08-05T08:14:15.000Z</time>
        <extensions>
          <ns3:TrackPointExtension>
            <ns3:hr>72</ns3:hr>
            <ns3:cad>48</ns3:cad>
          </ns3:TrackPointExtension>
        </extensions>
      </trkpt>
      <trkpt lat="43.47241633571684360504150390625" lon="1.46413768641650676727294921875">
        <ele>215.399993896484375</ele>
        <time>2026-08-05T08:14:16.000Z</time>
        <extensions>
          <ns3:TrackPointExtension>
            <ns3:hr>72</ns3:hr>
            <ns3:cad>48</ns3:cad>
          </ns3:TrackPointExtension>
        </extensions>
      </trkpt>
      <trkpt lat="43.47241516225039958953857421875" lon="1.464130394160747528076171875">
        <ele>215.399993896484375</ele>
        <time>2026-08-05T08:14:17.000Z</time>
        <extensions>
          <ns3:TrackPointExtension>
            <ns3:hr>72</ns3:hr>
            <ns3:cad>48</ns3:cad>
          </ns3:TrackPointExtension>
        </extensions>
      </trkpt>
      <trkpt lat="43.47241935320198535919189453125" lon="1.4641161449253559112548828125">
        <ele>215.1999969482421875</ele>
        <time>2026-08-05T08:14:18.000Z</time>
        <extensions>
          <ns3:TrackPointExtension>
            <ns3:hr>73</ns3:hr>
            <ns3:cad>48</ns3:cad>
          </ns3:TrackPointExtension>
        </extensions>
      </trkpt>
      <trkpt lat="43.47242203541100025177001953125" lon="1.46410516463220119476318359375">
        <ele>215.1999969482421875</ele>
        <time>2026-08-05T08:14:19.000Z</time>
        <extensions>
          <ns3:TrackPointExtension>
            <ns3:hr>72</ns3:hr>
            <ns3:cad>47</ns3:cad>
          </ns3:TrackPointExtension>
        </extensions>
      </trkpt>
      <trkpt lat="43.47242756746709346771240234375" lon="1.4641000516712665557861328125">
        <ele>215.1999969482421875</ele>
        <time>2026-08-05T08:14:20.000Z</time>
        <extensions>
          <ns3:TrackPointExtension>
            <ns3:hr>73</ns3:hr>
            <ns3:cad>47</ns3:cad>
          </ns3:TrackPointExtension>
        </extensions>
      </trkpt>
      <trkpt lat="43.47243108786642551422119140625" lon="1.46409519016742706298828125">
        <ele>215</ele>
        <time>2026-08-05T08:14:21.000Z</time>
        <extensions>
          <ns3:TrackPointExtension>
            <ns3:hr>73</ns3:hr>
            <ns3:cad>49</ns3:cad>
          </ns3:TrackPointExtension>
        </extensions>
      </trkpt>
      <trkpt lat="43.47242924384772777557373046875" lon="1.4640852995216846466064453125">
        <ele>215</ele>
        <time>2026-08-05T08:14:22.000Z</time>
        <extensions>
          <ns3:TrackPointExtension>
            <ns3:hr>73</ns3:hr>
            <ns3:cad>49</ns3:cad>
          </ns3:TrackPointExtension>
        </extensions>
      </trkpt>
      <trkpt lat="43.4724311716854572296142578125" lon="1.46407901309430599212646484375">
        <ele>215</ele>
        <time>2026-08-05T08:14:23.000Z</time>
        <extensions>
          <ns3:TrackPointExtension>
            <ns3:hr>73</ns3:hr>
            <ns3:cad>48</ns3:cad>
          </ns3:TrackPointExtension>
        </extensions>
      </trkpt>
      <trkpt lat="43.4724351949989795684814453125" lon="1.46406828425824642181396484375">
        <ele>215</ele>
        <time>2026-08-05T08:14:24.000Z</time>
        <extensions>
          <ns3:TrackPointExtension>
            <ns3:hr>73</ns3:hr>
            <ns3:cad>48</ns3:cad>
          </ns3:TrackPointExtension>
        </extensions>
      </trkpt>
      <trkpt lat="43.47244164906442165374755859375" lon="1.46405520848929882049560546875">
        <ele>215</ele>
        <time>2026-08-05T08:14:25.000Z</time>
        <extensions>
          <ns3:TrackPointExtension>
            <ns3:hr>73</ns3:hr>
            <ns3:cad>44</ns3:cad>
          </ns3:TrackPointExtension>
        </extensions>
      </trkpt>
      <trkpt lat="43.47244818694889545440673828125" lon="1.4640368521213531494140625">
        <ele>215</ele>
        <time>2026-08-05T08:14:26.000Z</time>
        <extensions>
          <ns3:TrackPointExtension>
            <ns3:hr>74</ns3:hr>
            <ns3:cad>44</ns3:cad>
          </ns3:TrackPointExtension>
        </extensions>
      </trkpt>
      <trkpt lat="43.4724455885589122772216796875" lon="1.4640283025801181793212890625">
        <ele>215</ele>
        <time>2026-08-05T08:14:27.000Z</time>
        <extensions>
          <ns3:TrackPointExtension>
            <ns3:hr>74</ns3:hr>
            <ns3:cad>44</ns3:cad>
          </ns3:TrackPointExtension>
        </extensions>
      </trkpt>
      <trkpt lat="43.47244315780699253082275390625" lon="1.46402721293270587921142578125">
        <ele>215</ele>
        <time>2026-08-05T08:14:28.000Z</time>
        <extensions>
          <ns3:TrackPointExtension>
            <ns3:hr>74</ns3:hr>
            <ns3:cad>51</ns3:cad>
          </ns3:TrackPointExtension>
        </extensions>
      </trkpt>
      <trkpt lat="43.47244315780699253082275390625" lon="1.4640314877033233642578125">
        <ele>215</ele>
        <time>2026-08-05T08:14:29.000Z</time>
        <extensions>
          <ns3:TrackPointExtension>
            <ns3:hr>74</ns3:hr>
            <ns3:cad>51</ns3:cad>
          </ns3:TrackPointExtension>
        </extensions>
      </trkpt>
      <trkpt lat="43.4724430739879608154296875" lon="1.46402402780950069427490234375">
        <ele>215</ele>
        <time>2026-08-05T08:14:30.000Z</time>
        <extensions>
          <ns3:TrackPointExtension>
            <ns3:hr>74</ns3:hr>
            <ns3:cad>0</ns3:cad>
          </ns3:TrackPointExtension>
        </extensions>
      </trkpt>
      <trkpt lat="43.47244868986308574676513671875" lon="1.4640085212886333465576171875">
        <ele>215</ele>
        <time>2026-08-05T08:14:31.000Z</time>
        <extensions>
          <ns3:TrackPointExtension>
            <ns3:hr>74</ns3:hr>
            <ns3:cad>0</ns3:cad>
          </ns3:TrackPointExtension>
        </extensions>
      </trkpt>
      <trkpt lat="43.4724526293575763702392578125" lon="1.46399988792836666107177734375">
        <ele>215</ele>
        <time>2026-08-05T08:14:32.000Z</time>
        <extensions>
          <ns3:TrackPointExtension>
            <ns3:hr>75</ns3:hr>
            <ns3:cad>0</ns3:cad>
          </ns3:TrackPointExtension>
        </extensions>
      </trkpt>
      <trkpt lat="43.47245472483336925506591796875" lon="1.46399133838713169097900390625">
        <ele>215</ele>
        <time>2026-08-05T08:14:33.000Z</time>
        <extensions>
          <ns3:TrackPointExtension>
            <ns3:hr>74</ns3:hr>
            <ns3:cad>0</ns3:cad>
          </ns3:TrackPointExtension>
        </extensions>
      </trkpt>
      <trkpt lat="43.47245539538562297821044921875" lon="1.4639853872358798980712890625">
        <ele>215</ele>
        <time>2026-08-05T08:14:34.000Z</time>
        <extensions>
          <ns3:TrackPointExtension>
            <ns3:hr>73</ns3:hr>
            <ns3:cad>0</ns3:cad>
          </ns3:TrackPointExtension>
        </extensions>
      </trkpt>
      <trkpt lat="43.4724583290517330169677734375" lon="1.463981531560420989990234375">
        <ele>215</ele>
        <time>2026-08-05T08:14:35.000Z</time>
        <extensions>
          <ns3:TrackPointExtension>
            <ns3:hr>73</ns3:hr>
            <ns3:cad>55</ns3:cad>
          </ns3:TrackPointExtension>
        </extensions>
      </trkpt>
      <trkpt lat="43.47246176563203334808349609375" lon="1.4639780111610889434814453125">
        <ele>215</ele>
        <time>2026-08-05T08:14:36.000Z</time>
        <extensions>
          <ns3:TrackPointExtension>
            <ns3:hr>73</ns3:hr>
            <ns3:cad>55</ns3:cad>
          </ns3:TrackPointExtension>
        </extensions>
      </trkpt>
      <trkpt lat="43.472466878592967987060546875" lon="1.46397189237177371978759765625">
        <ele>215</ele>
        <time>2026-08-05T08:14:37.000Z</time>
        <extensions>
          <ns3:TrackPointExtension>
            <ns3:hr>73</ns3:hr>
            <ns3:cad>55</ns3:cad>
          </ns3:TrackPointExtension>
        </extensions>
      </trkpt>
      <trkpt lat="43.472472913563251495361328125" lon="1.4639629237353801727294921875">
        <ele>215</ele>
        <time>2026-08-05T08:14:38.000Z</time>
        <extensions>
          <ns3:TrackPointExtension>
            <ns3:hr>72</ns3:hr>
            <ns3:cad>55</ns3:cad>
          </ns3:TrackPointExtension>
        </extensions>
      </trkpt>
      <trkpt lat="43.47247534431517124176025390625" lon="1.46395864896476268768310546875">
        <ele>214.8000030517578125</ele>
        <time>2026-08-05T08:14:39.000Z</time>
        <extensions>
          <ns3:TrackPointExtension>
            <ns3:hr>73</ns3:hr>
            <ns3:cad>55</ns3:cad>
          </ns3:TrackPointExtension>
        </extensions>
      </trkpt>
      <trkpt lat="43.47247769124805927276611328125" lon="1.4639575593173503875732421875">
        <ele>215</ele>
        <time>2026-08-05T08:14:40.000Z</time>
        <extensions>
          <ns3:TrackPointExtension>
            <ns3:hr>73</ns3:hr>
            <ns3:cad>55</ns3:cad>
          </ns3:TrackPointExtension>
        </extensions>
      </trkpt>
      <trkpt lat="43.47247567959129810333251953125" lon="1.4639582298696041107177734375">
        <ele>215</ele>
        <time>2026-08-05T08:14:41.000Z</time>
        <extensions>
          <ns3:TrackPointExtension>
            <ns3:hr>72</ns3:hr>
            <ns3:cad>55</ns3:cad>
          </ns3:TrackPointExtension>
        </extensions>
      </trkpt>
      <trkpt lat="43.472476266324520111083984375" lon="1.46395579911768436431884765625">
        <ele>215</ele>
        <time>2026-08-05T08:14:42.000Z</time>
        <extensions>
          <ns3:TrackPointExtension>
            <ns3:hr>73</ns3:hr>
            <ns3:cad>0</ns3:cad>
          </ns3:TrackPointExtension>
        </extensions>
      </trkpt>
      <trkpt lat="43.472475595772266387939453125" lon="1.4639525301754474639892578125">
        <ele>215</ele>
        <time>2026-08-05T08:14:43.000Z</time>
        <extensions>
          <ns3:TrackPointExtension>
            <ns3:hr>72</ns3:hr>
            <ns3:cad>0</ns3:cad>
          </ns3:TrackPointExtension>
        </extensions>
      </trkpt>
      <trkpt lat="43.47247802652418613433837890625" lon="1.46394792012870311737060546875">
        <ele>215</ele>
        <time>2026-08-05T08:14:44.000Z</time>
        <extensions>
          <ns3:TrackPointExtension>
            <ns3:hr>73</ns3:hr>
            <ns3:cad>0</ns3:cad>
          </ns3:TrackPointExtension>
        </extensions>
      </trkpt>
      <trkpt lat="43.47247995436191558837890625" lon="1.4639451541006565093994140625">
        <ele>215</ele>
        <time>2026-08-05T08:14:45.000Z</time>
        <extensions>
          <ns3:TrackPointExtension>
            <ns3:hr>73</ns3:hr>
            <ns3:cad>0</ns3:cad>
          </ns3:TrackPointExtension>
        </extensions>
      </trkpt>
      <trkpt lat="43.47248406149446964263916015625" lon="1.46393350325524806976318359375">
        <ele>214.8000030517578125</ele>
        <time>2026-08-05T08:14:46.000Z</time>
        <extensions>
          <ns3:TrackPointExtension>
            <ns3:hr>73</ns3:hr>
            <ns3:cad>0</ns3:cad>
          </ns3:TrackPointExtension>
        </extensions>
      </trkpt>
      <trkpt lat="43.47248842008411884307861328125" lon="1.463923193514347076416015625">
        <ele>214.8000030517578125</ele>
        <time>2026-08-05T08:14:47.000Z</time>
        <extensions>
          <ns3:TrackPointExtension>
            <ns3:hr>73</ns3:hr>
            <ns3:cad>0</ns3:cad>
          </ns3:TrackPointExtension>
        </extensions>
      </trkpt>
      <trkpt lat="43.47249009646475315093994140625" lon="1.4639129675924777984619140625">
        <ele>214.600006103515625</ele>
        <time>2026-08-05T08:14:48.000Z</time>
        <extensions>
          <ns3:TrackPointExtension>
            <ns3:hr>73</ns3:hr>
            <ns3:cad>0</ns3:cad>
          </ns3:TrackPointExtension>
        </extensions>
      </trkpt>
      <trkpt lat="43.4724921919405460357666015625" lon="1.4639029093086719512939453125">
        <ele>214.600006103515625</ele>
        <time>2026-08-05T08:14:49.000Z</time>
        <extensions>
          <ns3:TrackPointExtension>
            <ns3:hr>74</ns3:hr>
            <ns3:cad>44</ns3:cad>
          </ns3:TrackPointExtension>
        </extensions>
      </trkpt>
      <trkpt lat="43.4724975563585758209228515625" lon="1.46388924680650234222412109375">
        <ele>214.600006103515625</ele>
        <time>2026-08-05T08:14:50.000Z</time>
        <extensions>
          <ns3:TrackPointExtension>
            <ns3:hr>74</ns3:hr>
            <ns3:cad>44</ns3:cad>
          </ns3:TrackPointExtension>
        </extensions>
      </trkpt>
      <trkpt lat="43.47250082530081272125244140625" lon="1.46387659013271331787109375">
        <ele>214.600006103515625</ele>
        <time>2026-08-05T08:14:51.000Z</time>
        <extensions>
          <ns3:TrackPointExtension>
            <ns3:hr>74</ns3:hr>
            <ns3:cad>44</ns3:cad>
          </ns3:TrackPointExtension>
        </extensions>
      </trkpt>
      <trkpt lat="43.47250317223370075225830078125" lon="1.46386661566793918609619140625">
        <ele>214.600006103515625</ele>
        <time>2026-08-05T08:14:52.000Z</time>
        <extensions>
          <ns3:TrackPointExtension>
            <ns3:hr>74</ns3:hr>
            <ns3:cad>44</ns3:cad>
          </ns3:TrackPointExtension>
        </extensions>
      </trkpt>
      <trkpt lat="43.47250434570014476776123046875" lon="1.46385856904089450836181640625">
        <ele>214.600006103515625</ele>
        <time>2026-08-05T08:14:53.000Z</time>
        <extensions>
          <ns3:TrackPointExtension>
            <ns3:hr>73</ns3:hr>
            <ns3:cad>44</ns3:cad>
          </ns3:TrackPointExtension>
        </extensions>
      </trkpt>
      <trkpt lat="43.4725102968513965606689453125" lon="1.46384281106293201446533203125">
        <ele>214.399993896484375</ele>
        <time>2026-08-05T08:14:54.000Z</time>
        <extensions>
          <ns3:TrackPointExtension>
            <ns3:hr>73</ns3:hr>
            <ns3:cad>45</ns3:cad>
          </ns3:TrackPointExtension>
        </extensions>
      </trkpt>
      <trkpt lat="43.4725156612694263458251953125" lon="1.46382420323789119720458984375">
        <ele>214.399993896484375</ele>
        <time>2026-08-05T08:14:55.000Z</time>
        <extensions>
          <ns3:TrackPointExtension>
            <ns3:hr>73</ns3:hr>
            <ns3:cad>45</ns3:cad>
          </ns3:TrackPointExtension>
        </extensions>
      </trkpt>
      <trkpt lat="43.47251691855490207672119140625" lon="1.4638083614408969879150390625">
        <ele>214.1999969482421875</ele>
        <time>2026-08-05T08:14:56.000Z</time>
        <extensions>
          <ns3:TrackPointExtension>
            <ns3:hr>73</ns3:hr>
            <ns3:cad>46</ns3:cad>
          </ns3:TrackPointExtension>
        </extensions>
      </trkpt>
      <trkpt lat="43.4725190140306949615478515625" lon="1.4637979678809642791748046875">
        <ele>214.1999969482421875</ele>
        <time>2026-08-05T08:14:57.000Z</time>
        <extensions>
          <ns3:TrackPointExtension>
            <ns3:hr>74</ns3:hr>
            <ns3:cad>46</ns3:cad>
          </ns3:TrackPointExtension>
        </extensions>
      </trkpt>
      <trkpt lat="43.4725240431725978851318359375" lon="1.46379075944423675537109375">
        <ele>214</ele>
        <time>2026-08-05T08:14:58.000Z</time>
        <extensions>
          <ns3:TrackPointExtension>
            <ns3:hr>74</ns3:hr>
            <ns3:cad>47</ns3:cad>
          </ns3:TrackPointExtension>
        </extensions>
      </trkpt>
      <trkpt lat="43.47252664156258106231689453125" lon="1.463780365884304046630859375">
        <ele>214</ele>
        <time>2026-08-05T08:14:59.000Z</time>
        <extensions>
          <ns3:TrackPointExtension>
            <ns3:hr>75</ns3:hr>
            <ns3:cad>47</ns3:cad>
          </ns3:TrackPointExtension>
        </extensions>
      </trkpt>
      <trkpt lat="43.47253628075122833251953125" lon="1.4637610875070095062255859375">
        <ele>214</ele>
        <time>2026-08-05T08:15:00.000Z</time>
        <extensions>
          <ns3:TrackPointExtension>
            <ns3:hr>75</ns3:hr>
            <ns3:cad>47</ns3:cad>
          </ns3:TrackPointExtension>
        </extensions>
      </trkpt>
      <trkpt lat="43.47254340536892414093017578125" lon="1.46374859847128391265869140625">
        <ele>213.8000030517578125</ele>
        <time>2026-08-05T08:15:01.000Z</time>
        <extensions>
          <ns3:TrackPointExtension>
            <ns3:hr>75</ns3:hr>
            <ns3:cad>48</ns3:cad>
          </ns3:TrackPointExtension>
        </extensions>
      </trkpt>
      <trkpt lat="43.4725485183298587799072265625" lon="1.46374071948230266571044921875">
        <ele>213.8000030517578125</ele>
        <time>2026-08-05T08:15:02.000Z</time>
        <extensions>
          <ns3:TrackPointExtension>
            <ns3:hr>75</ns3:hr>
            <ns3:cad>50</ns3:cad>
          </ns3:TrackPointExtension>
        </extensions>
      </trkpt>
      <trkpt lat="43.47254835069179534912109375" lon="1.46373569034039974212646484375">
        <ele>213.8000030517578125</ele>
        <time>2026-08-05T08:15:03.000Z</time>
        <extensions>
          <ns3:TrackPointExtension>
            <ns3:hr>75</ns3:hr>
            <ns3:cad>50</ns3:cad>
          </ns3:TrackPointExtension>
        </extensions>
      </trkpt>
      <trkpt lat="43.47255413420498371124267578125" lon="1.46372261457145214080810546875">
        <ele>213.8000030517578125</ele>
        <time>2026-08-05T08:15:04.000Z</time>
        <extensions>
          <ns3:TrackPointExtension>
            <ns3:hr>75</ns3:hr>
            <ns3:cad>49</ns3:cad>
          </ns3:TrackPointExtension>
        </extensions>
      </trkpt>
      <trkpt lat="43.47255815751850605010986328125" lon="1.46370761096477508544921875">
        <ele>213.8000030517578125</ele>
        <time>2026-08-05T08:15:05.000Z</time>
        <extensions>
          <ns3:TrackPointExtension>
            <ns3:hr>75</ns3:hr>
            <ns3:cad>49</ns3:cad>
          </ns3:TrackPointExtension>
        </extensions>
      </trkpt>
      <trkpt lat="43.4725625999271869659423828125" lon="1.463692188262939453125">
        <ele>213.8000030517578125</ele>
        <time>2026-08-05T08:15:06.000Z</time>
        <extensions>
          <ns3:TrackPointExtension>
            <ns3:hr>75</ns3:hr>
            <ns3:cad>49</ns3:cad>
          </ns3:TrackPointExtension>
        </extensions>
      </trkpt>
      <trkpt lat="43.47256888635456562042236328125" lon="1.463678441941738128662109375">
        <ele>213.8000030517578125</ele>
        <time>2026-08-05T08:15:07.000Z</time>
        <extensions>
          <ns3:TrackPointExtension>
            <ns3:hr>75</ns3:hr>
            <ns3:cad>49</ns3:cad>
          </ns3:TrackPointExtension>
        </extensions>
      </trkpt>
      <trkpt lat="43.47257391549646854400634765625" lon="1.46366603672504425048828125">
        <ele>213.8000030517578125</ele>
        <time>2026-08-05T08:15:08.000Z</time>
        <extensions>
          <ns3:TrackPointExtension>
            <ns3:hr>76</ns3:hr>
            <ns3:cad>47</ns3:cad>
          </ns3:TrackPointExtension>
        </extensions>
      </trkpt>
      <trkpt lat="43.47258112393319606781005859375" lon="1.463649608194828033447265625">
        <ele>213.8000030517578125</ele>
        <time>2026-08-05T08:15:09.000Z</time>
        <extensions>
          <ns3:TrackPointExtension>
            <ns3:hr>78</ns3:hr>
            <ns3:cad>47</ns3:cad>
          </ns3:TrackPointExtension>
        </extensions>
      </trkpt>
      <trkpt lat="43.47258388996124267578125" lon="1.4636407233774662017822265625">
        <ele>213.600006103515625</ele>
        <time>2026-08-05T08:15:10.000Z</time>
        <extensions>
          <ns3:TrackPointExtension>
            <ns3:hr>78</ns3:hr>
            <ns3:cad>47</ns3:cad>
          </ns3:TrackPointExtension>
        </extensions>
      </trkpt>
      <trkpt lat="43.47258388996124267578125" lon="1.46363259293138980865478515625">
        <ele>213.600006103515625</ele>
        <time>2026-08-05T08:15:11.000Z</time>
        <extensions>
          <ns3:TrackPointExtension>
            <ns3:hr>78</ns3:hr>
            <ns3:cad>48</ns3:cad>
          </ns3:TrackPointExtension>
        </extensions>
      </trkpt>
      <trkpt lat="43.47258296795189380645751953125" lon="1.46361951716244220733642578125">
        <ele>213.399993896484375</ele>
        <time>2026-08-05T08:15:12.000Z</time>
        <extensions>
          <ns3:TrackPointExtension>
            <ns3:hr>78</ns3:hr>
            <ns3:cad>48</ns3:cad>
          </ns3:TrackPointExtension>
        </extensions>
      </trkpt>
      <trkpt lat="43.47258548252284526824951171875" lon="1.46360459737479686737060546875">
        <ele>213.399993896484375</ele>
        <time>2026-08-05T08:15:13.000Z</time>
        <extensions>
          <ns3:TrackPointExtension>
            <ns3:hr>77</ns3:hr>
            <ns3:cad>49</ns3:cad>
          </ns3:TrackPointExtension>
        </extensions>
      </trkpt>
      <trkpt lat="43.47258816473186016082763671875" lon="1.46359420381486415863037109375">
        <ele>213.399993896484375</ele>
        <time>2026-08-05T08:15:14.000Z</time>
        <extensions>
          <ns3:TrackPointExtension>
            <ns3:hr>77</ns3:hr>
            <ns3:cad>49</ns3:cad>
          </ns3:TrackPointExtension>
        </extensions>
      </trkpt>
      <trkpt lat="43.472591936588287353515625" lon="1.463579200208187103271484375">
        <ele>213.1999969482421875</ele>
        <time>2026-08-05T08:15:15.000Z</time>
        <extensions>
          <ns3:TrackPointExtension>
            <ns3:hr>77</ns3:hr>
            <ns3:cad>49</ns3:cad>
          </ns3:TrackPointExtension>
        </extensions>
      </trkpt>
      <trkpt lat="43.4725967980921268463134765625" lon="1.4635703153908252716064453125">
        <ele>213.1999969482421875</ele>
        <time>2026-08-05T08:15:16.000Z</time>
        <extensions>
          <ns3:TrackPointExtension>
            <ns3:hr>77</ns3:hr>
            <ns3:cad>49</ns3:cad>
          </ns3:TrackPointExtension>
        </extensions>
      </trkpt>
      <trkpt lat="43.4726051799952983856201171875" lon="1.46355614997446537017822265625">
        <ele>213.1999969482421875</ele>
        <time>2026-08-05T08:15:17.000Z</time>
        <extensions>
          <ns3:TrackPointExtension>
            <ns3:hr>77</ns3:hr>
            <ns3:cad>49</ns3:cad>
          </ns3:TrackPointExtension>
        </extensions>
      </trkpt>
      <trkpt lat="43.4726092033088207244873046875" lon="1.46354055963456630706787109375">
        <ele>213.1999969482421875</ele>
        <time>2026-08-05T08:15:18.000Z</time>
        <extensions>
          <ns3:TrackPointExtension>
            <ns3:hr>77</ns3:hr>
            <ns3:cad>50</ns3:cad>
          </ns3:TrackPointExtension>
        </extensions>
      </trkpt>
      <trkpt lat="43.47261331044137477874755859375" lon="1.46352899260818958282470703125">
        <ele>213.1999969482421875</ele>
        <time>2026-08-05T08:15:19.000Z</time>
        <extensions>
          <ns3:TrackPointExtension>
            <ns3:hr>78</ns3:hr>
            <ns3:cad>50</ns3:cad>
          </ns3:TrackPointExtension>
        </extensions>
      </trkpt>
      <trkpt lat="43.4726182557642459869384765625" lon="1.4635196886956691741943359375">
        <ele>213.1999969482421875</ele>
        <time>2026-08-05T08:15:20.000Z</time>
        <extensions>
          <ns3:TrackPointExtension>
            <ns3:hr>78</ns3:hr>
            <ns3:cad>50</ns3:cad>
          </ns3:TrackPointExtension>
        </extensions>
      </trkpt>
      <trkpt lat="43.47262437455356121063232421875" lon="1.46350753493607044219970703125">
        <ele>213</ele>
        <time>2026-08-05T08:15:21.000Z</time>
        <extensions>
          <ns3:TrackPointExtension>
            <ns3:hr>78</ns3:hr>
            <ns3:cad>50</ns3:cad>
          </ns3:TrackPointExtension>
        </extensions>
      </trkpt>
      <trkpt lat="43.47262940369546413421630859375" lon="1.4634911902248859405517578125">
        <ele>213</ele>
        <time>2026-08-05T08:15:22.000Z</time>
        <extensions>
          <ns3:TrackPointExtension>
            <ns3:hr>78</ns3:hr>
            <ns3:cad>50</ns3:cad>
          </ns3:TrackPointExtension>
        </extensions>
      </trkpt>
      <trkpt lat="43.47263418138027191162109375" lon="1.46347383968532085418701171875">
        <ele>213</ele>
        <time>2026-08-05T08:15:23.000Z</time>
        <extensions>
          <ns3:TrackPointExtension>
            <ns3:hr>77</ns3:hr>
            <ns3:cad>48</ns3:cad>
          </ns3:TrackPointExtension>
        </extensions>
      </trkpt>
      <trkpt lat="43.47263862378895282745361328125" lon="1.46346210502088069915771484375">
        <ele>213</ele>
        <time>2026-08-05T08:15:24.000Z</time>
        <extensions>
          <ns3:TrackPointExtension>
            <ns3:hr>75</ns3:hr>
            <ns3:cad>46</ns3:cad>
          </ns3:TrackPointExtension>
        </extensions>
      </trkpt>
      <trkpt lat="43.4726427309215068817138671875" lon="1.4634509570896625518798828125">
        <ele>212.8000030517578125</ele>
        <time>2026-08-05T08:15:25.000Z</time>
        <extensions>
          <ns3:TrackPointExtension>
            <ns3:hr>73</ns3:hr>
            <ns3:cad>46</ns3:cad>
          </ns3:TrackPointExtension>
        </extensions>
      </trkpt>
      <trkpt lat="43.47264625132083892822265625" lon="1.4634378813207149505615234375">
        <ele>212.8000030517578125</ele>
        <time>2026-08-05T08:15:26.000Z</time>
        <extensions>
          <ns3:TrackPointExtension>
            <ns3:hr>71</ns3:hr>
            <ns3:cad>47</ns3:cad>
          </ns3:TrackPointExtension>
        </extensions>
      </trkpt>
      <trkpt lat="43.4726514481008052825927734375" lon="1.46342254243791103363037109375">
        <ele>212.8000030517578125</ele>
        <time>2026-08-05T08:15:27.000Z</time>
        <extensions>
          <ns3:TrackPointExtension>
            <ns3:hr>70</ns3:hr>
            <ns3:cad>48</ns3:cad>
          </ns3:TrackPointExtension>
        </extensions>
      </trkpt>
      <trkpt lat="43.47265555523335933685302734375" lon="1.4634130708873271942138671875">
        <ele>212.8000030517578125</ele>
        <time>2026-08-05T08:15:28.000Z</time>
        <extensions>
          <ns3:TrackPointExtension>
            <ns3:hr>70</ns3:hr>
            <ns3:cad>49</ns3:cad>
          </ns3:TrackPointExtension>
        </extensions>
      </trkpt>
      <trkpt lat="43.47266460768878459930419921875" lon="1.46340142004191875457763671875">
        <ele>212.8000030517578125</ele>
        <time>2026-08-05T08:15:29.000Z</time>
        <extensions>
          <ns3:TrackPointExtension>
            <ns3:hr>70</ns3:hr>
            <ns3:cad>49</ns3:cad>
          </ns3:TrackPointExtension>
        </extensions>
      </trkpt>
      <trkpt lat="43.47266913391649723052978515625" lon="1.46339253522455692291259765625">
        <ele>212.8000030517578125</ele>
        <time>2026-08-05T08:15:30.000Z</time>
        <extensions>
          <ns3:TrackPointExtension>
            <ns3:hr>70</ns3:hr>
            <ns3:cad>48</ns3:cad>
          </ns3:TrackPointExtension>
        </extensions>
      </trkpt>
      <trkpt lat="43.4726718999445438385009765625" lon="1.463384740054607391357421875">
        <ele>212.8000030517578125</ele>
        <time>2026-08-05T08:15:31.000Z</time>
        <extensions>
          <ns3:TrackPointExtension>
            <ns3:hr>70</ns3:hr>
            <ns3:cad>48</ns3:cad>
          </ns3:TrackPointExtension>
        </extensions>
      </trkpt>
      <trkpt lat="43.4726792760193347930908203125" lon="1.46336873061954975128173828125">
        <ele>212.600006103515625</ele>
        <time>2026-08-05T08:15:32.000Z</time>
        <extensions>
          <ns3:TrackPointExtension>
            <ns3:hr>70</ns3:hr>
            <ns3:cad>48</ns3:cad>
          </ns3:TrackPointExtension>
        </extensions>
      </trkpt>
      <trkpt lat="43.47268438898026943206787109375" lon="1.46335397846996784210205078125">
        <ele>212.600006103515625</ele>
        <time>2026-08-05T08:15:33.000Z</time>
        <extensions>
          <ns3:TrackPointExtension>
            <ns3:hr>71</ns3:hr>
            <ns3:cad>48</ns3:cad>
          </ns3:TrackPointExtension>
        </extensions>
      </trkpt>
      <trkpt lat="43.4726896695792675018310546875" lon="1.4633486978709697723388671875">
        <ele>212.600006103515625</ele>
        <time>2026-08-05T08:15:34.000Z</time>
        <extensions>
          <ns3:TrackPointExtension>
            <ns3:hr>70</ns3:hr>
            <ns3:cad>49</ns3:cad>
          </ns3:TrackPointExtension>
        </extensions>
      </trkpt>
      <trkpt lat="43.47268992103636264801025390625" lon="1.463349200785160064697265625">
        <ele>212.600006103515625</ele>
        <time>2026-08-05T08:15:35.000Z</time>
        <extensions>
          <ns3:TrackPointExtension>
            <ns3:hr>70</ns3:hr>
            <ns3:cad>48</ns3:cad>
          </ns3:TrackPointExtension>
        </extensions>
      </trkpt>
      <trkpt lat="43.472689501941204071044921875" lon="1.4633399806916713714599609375">
        <ele>212.600006103515625</ele>
        <time>2026-08-05T08:15:36.000Z</time>
        <extensions>
          <ns3:TrackPointExtension>
            <ns3:hr>70</ns3:hr>
            <ns3:cad>48</ns3:cad>
          </ns3:TrackPointExtension>
        </extensions>
      </trkpt>
      <trkpt lat="43.472693525254726409912109375" lon="1.463330090045928955078125">
        <ele>212.600006103515625</ele>
        <time>2026-08-05T08:15:37.000Z</time>
        <extensions>
          <ns3:TrackPointExtension>
            <ns3:hr>69</ns3:hr>
            <ns3:cad>0</ns3:cad>
          </ns3:TrackPointExtension>
        </extensions>
      </trkpt>
      <trkpt lat="43.47269930876791477203369140625" lon="1.4633134938776493072509765625">
        <ele>212.600006103515625</ele>
        <time>2026-08-05T08:15:38.000Z</time>
        <extensions>
          <ns3:TrackPointExtension>
            <ns3:hr>70</ns3:hr>
            <ns3:cad>0</ns3:cad>
          </ns3:TrackPointExtension>
        </extensions>
      </trkpt>
      <trkpt lat="43.472704254090785980224609375" lon="1.46330058574676513671875">
        <ele>212.399993896484375</ele>
        <time>2026-08-05T08:15:39.000Z</time>
        <extensions>
          <ns3:TrackPointExtension>
            <ns3:hr>69</ns3:hr>
            <ns3:cad>0</ns3:cad>
          </ns3:TrackPointExtension>
        </extensions>
      </trkpt>
      <trkpt lat="43.47270953468978404998779296875" lon="1.46329061128199100494384765625">
        <ele>212.399993896484375</ele>
        <time>2026-08-05T08:15:40.000Z</time>
        <extensions>
          <ns3:TrackPointExtension>
            <ns3:hr>69</ns3:hr>
            <ns3:cad>50</ns3:cad>
          </ns3:TrackPointExtension>
        </extensions>
      </trkpt>
      <trkpt lat="43.472715653479099273681640625" lon="1.463279463350772857666015625">
        <ele>212.399993896484375</ele>
        <time>2026-08-05T08:15:41.000Z</time>
        <extensions>
          <ns3:TrackPointExtension>
            <ns3:hr>69</ns3:hr>
            <ns3:cad>50</ns3:cad>
          </ns3:TrackPointExtension>
        </extensions>
      </trkpt>
      <trkpt lat="43.4727208502590656280517578125" lon="1.4632712490856647491455078125">
        <ele>212.399993896484375</ele>
        <time>2026-08-05T08:15:42.000Z</time>
        <extensions>
          <ns3:TrackPointExtension>
            <ns3:hr>70</ns3:hr>
            <ns3:cad>0</ns3:cad>
          </ns3:TrackPointExtension>
        </extensions>
      </trkpt>
      <trkpt lat="43.4727238677442073822021484375" lon="1.46326596848666667938232421875">
        <ele>212.1999969482421875</ele>
        <time>2026-08-05T08:15:43.000Z</time>
        <extensions>
          <ns3:TrackPointExtension>
            <ns3:hr>70</ns3:hr>
            <ns3:cad>0</ns3:cad>
          </ns3:TrackPointExtension>
        </extensions>
      </trkpt>
      <trkpt lat="43.47272780723869800567626953125" lon="1.4632564969360828399658203125">
        <ele>212.1999969482421875</ele>
        <time>2026-08-05T08:15:44.000Z</time>
        <extensions>
          <ns3:TrackPointExtension>
            <ns3:hr>70</ns3:hr>
            <ns3:cad>0</ns3:cad>
          </ns3:TrackPointExtension>
        </extensions>
      </trkpt>
      <trkpt lat="43.47273082472383975982666015625" lon="1.463242582976818084716796875">
        <ele>212</ele>
        <time>2026-08-05T08:15:45.000Z</time>
        <extensions>
          <ns3:TrackPointExtension>
            <ns3:hr>70</ns3:hr>
            <ns3:cad>49</ns3:cad>
          </ns3:TrackPointExtension>
        </extensions>
      </trkpt>
      <trkpt lat="43.47273518331348896026611328125" lon="1.46322573535144329071044921875">
        <ele>212</ele>
        <time>2026-08-05T08:15:46.000Z</time>
        <extensions>
          <ns3:TrackPointExtension>
            <ns3:hr>70</ns3:hr>
            <ns3:cad>49</ns3:cad>
          </ns3:TrackPointExtension>
        </extensions>
      </trkpt>
      <trkpt lat="43.47273887135088443756103515625" lon="1.4632108993828296661376953125">
        <ele>212</ele>
        <time>2026-08-05T08:15:47.000Z</time>
        <extensions>
          <ns3:TrackPointExtension>
            <ns3:hr>71</ns3:hr>
            <ns3:cad>52</ns3:cad>
          </ns3:TrackPointExtension>
        </extensions>
      </trkpt>
      <trkpt lat="43.47274239175021648406982421875" lon="1.46319824270904064178466796875">
        <ele>211.8000030517578125</ele>
        <time>2026-08-05T08:15:48.000Z</time>
        <extensions>
          <ns3:TrackPointExtension>
            <ns3:hr>71</ns3:hr>
            <ns3:cad>52</ns3:cad>
          </ns3:TrackPointExtension>
        </extensions>
      </trkpt>
      <trkpt lat="43.47274624742567539215087890625" lon="1.46318701095879077911376953125">
        <ele>211.8000030517578125</ele>
        <time>2026-08-05T08:15:49.000Z</time>
        <extensions>
          <ns3:TrackPointExtension>
            <ns3:hr>71</ns3:hr>
            <ns3:cad>52</ns3:cad>
          </ns3:TrackPointExtension>
        </extensions>
      </trkpt>
      <trkpt lat="43.47274859435856342315673828125" lon="1.46317812614142894744873046875">
        <ele>211.8000030517578125</ele>
        <time>2026-08-05T08:15:50.000Z</time>
        <extensions>
          <ns3:TrackPointExtension>
            <ns3:hr>71</ns3:hr>
            <ns3:cad>52</ns3:cad>
          </ns3:TrackPointExtension>
        </extensions>
      </trkpt>
      <trkpt lat="43.4727506898343563079833984375" lon="1.4631659723818302154541015625">
        <ele>211.600006103515625</ele>
        <time>2026-08-05T08:15:51.000Z</time>
        <extensions>
          <ns3:TrackPointExtension>
            <ns3:hr>71</ns3:hr>
            <ns3:cad>50</ns3:cad>
          </ns3:TrackPointExtension>
        </extensions>
      </trkpt>
      <trkpt lat="43.47275429405272006988525390625" lon="1.46315909922122955322265625">
        <ele>211.600006103515625</ele>
        <time>2026-08-05T08:15:52.000Z</time>
        <extensions>
          <ns3:TrackPointExtension>
            <ns3:hr>72</ns3:hr>
            <ns3:cad>50</ns3:cad>
          </ns3:TrackPointExtension>
        </extensions>
      </trkpt>
      <trkpt lat="43.47275647334754467010498046875" lon="1.46315448917448520660400390625">
        <ele>211.600006103515625</ele>
        <time>2026-08-05T08:15:53.000Z</time>
        <extensions>
          <ns3:TrackPointExtension>
            <ns3:hr>72</ns3:hr>
            <ns3:cad>50</ns3:cad>
          </ns3:TrackPointExtension>
        </extensions>
      </trkpt>
      <trkpt lat="43.472755216062068939208984375" lon="1.46314409561455249786376953125">
        <ele>211.600006103515625</ele>
        <time>2026-08-05T08:15:54.000Z</time>
        <extensions>
          <ns3:TrackPointExtension>
            <ns3:hr>72</ns3:hr>
            <ns3:cad>49</ns3:cad>
          </ns3:TrackPointExtension>
        </extensions>
      </trkpt>
      <trkpt lat="43.472755886614322662353515625" lon="1.46313353441655635833740234375">
        <ele>211.600006103515625</ele>
        <time>2026-08-05T08:15:55.000Z</time>
        <extensions>
          <ns3:TrackPointExtension>
            <ns3:hr>72</ns3:hr>
            <ns3:cad>0</ns3:cad>
          </ns3:TrackPointExtension>
        </extensions>
      </trkpt>
      <trkpt lat="43.47275781445205211639404296875" lon="1.46312020719051361083984375">
        <ele>211.399993896484375</ele>
        <time>2026-08-05T08:15:56.000Z</time>
        <extensions>
          <ns3:TrackPointExtension>
            <ns3:hr>72</ns3:hr>
            <ns3:cad>0</ns3:cad>
          </ns3:TrackPointExtension>
        </extensions>
      </trkpt>
      <trkpt lat="43.47276116721332073211669921875" lon="1.4631072990596294403076171875">
        <ele>211.399993896484375</ele>
        <time>2026-08-05T08:15:57.000Z</time>
        <extensions>
          <ns3:TrackPointExtension>
            <ns3:hr>73</ns3:hr>
            <ns3:cad>0</ns3:cad>
          </ns3:TrackPointExtension>
        </extensions>
      </trkpt>
      <trkpt lat="43.47276502288877964019775390625" lon="1.4630918763577938079833984375">
        <ele>211.399993896484375</ele>
        <time>2026-08-05T08:15:58.000Z</time>
        <extensions>
          <ns3:TrackPointExtension>
            <ns3:hr>72</ns3:hr>
            <ns3:cad>0</ns3:cad>
          </ns3:TrackPointExtension>
        </extensions>
      </trkpt>
      <trkpt lat="43.47276837565004825592041015625" lon="1.4630781300365924835205078125">
        <ele>211.1999969482421875</ele>
        <time>2026-08-05T08:15:59.000Z</time>
        <extensions>
          <ns3:TrackPointExtension>
            <ns3:hr>72</ns3:hr>
            <ns3:cad>0</ns3:cad>
          </ns3:TrackPointExtension>
        </extensions>
      </trkpt>
      <trkpt lat="43.472769968211650848388671875" lon="1.4630640484392642974853515625">
        <ele>211.1999969482421875</ele>
        <time>2026-08-05T08:16:00.000Z</time>
        <extensions>
          <ns3:TrackPointExtension>
            <ns3:hr>72</ns3:hr>
            <ns3:cad>0</ns3:cad>
          </ns3:TrackPointExtension>
        </extensions>
      </trkpt>
      <trkpt lat="43.47277290187776088714599609375" lon="1.46305021829903125762939453125">
        <ele>211.1999969482421875</ele>
        <time>2026-08-05T08:16:01.000Z</time>
        <extensions>
          <ns3:TrackPointExtension>
            <ns3:hr>72</ns3:hr>
            <ns3:cad>0</ns3:cad>
          </ns3:TrackPointExtension>
        </extensions>
      </trkpt>
      <trkpt lat="43.47277742810547351837158203125" lon="1.46303647197782993316650390625">
        <ele>211</ele>
        <time>2026-08-05T08:16:02.000Z</time>
        <extensions>
          <ns3:TrackPointExtension>
            <ns3:hr>72</ns3:hr>
            <ns3:cad>50</ns3:cad>
          </ns3:TrackPointExtension>
        </extensions>
      </trkpt>
      <trkpt lat="43.47278178669512271881103515625" lon="1.4630211330950260162353515625">
        <ele>211</ele>
        <time>2026-08-05T08:16:03.000Z</time>
        <extensions>
          <ns3:TrackPointExtension>
            <ns3:hr>71</ns3:hr>
            <ns3:cad>50</ns3:cad>
          </ns3:TrackPointExtension>
        </extensions>
      </trkpt>
      <trkpt lat="43.47278849221765995025634765625" lon="1.46300755441188812255859375">
        <ele>211</ele>
        <time>2026-08-05T08:16:04.000Z</time>
        <extensions>
          <ns3:TrackPointExtension>
            <ns3:hr>71</ns3:hr>
            <ns3:cad>50</ns3:cad>
          </ns3:TrackPointExtension>
        </extensions>
      </trkpt>
      <trkpt lat="43.47279352135956287384033203125" lon="1.46299674175679683685302734375">
        <ele>211</ele>
        <time>2026-08-05T08:16:05.000Z</time>
        <extensions>
          <ns3:TrackPointExtension>
            <ns3:hr>71</ns3:hr>
            <ns3:cad>50</ns3:cad>
          </ns3:TrackPointExtension>
        </extensions>
      </trkpt>
      <trkpt lat="43.47280140034854412078857421875" lon="1.462981402873992919921875">
        <ele>211</ele>
        <time>2026-08-05T08:16:06.000Z</time>
        <extensions>
          <ns3:TrackPointExtension>
            <ns3:hr>71</ns3:hr>
            <ns3:cad>49</ns3:cad>
          </ns3:TrackPointExtension>
        </extensions>
      </trkpt>
      <trkpt lat="43.4728063456714153289794921875" lon="1.46297075785696506500244140625">
        <ele>211</ele>
        <time>2026-08-05T08:16:07.000Z</time>
        <extensions>
          <ns3:TrackPointExtension>
            <ns3:hr>71</ns3:hr>
            <ns3:cad>48</ns3:cad>
          </ns3:TrackPointExtension>
        </extensions>
      </trkpt>
      <trkpt lat="43.47281263209879398345947265625" lon="1.462958268821239471435546875">
        <ele>211</ele>
        <time>2026-08-05T08:16:08.000Z</time>
        <extensions>
          <ns3:TrackPointExtension>
            <ns3:hr>70</ns3:hr>
            <ns3:cad>48</ns3:cad>
          </ns3:TrackPointExtension>
        </extensions>
      </trkpt>
      <trkpt lat="43.4728180803358554840087890625" lon="1.46294846199452877044677734375">
        <ele>211</ele>
        <time>2026-08-05T08:16:09.000Z</time>
        <extensions>
          <ns3:TrackPointExtension>
            <ns3:hr>70</ns3:hr>
            <ns3:cad>48</ns3:cad>
          </ns3:TrackPointExtension>
        </extensions>
      </trkpt>
      <trkpt lat="43.4728224389255046844482421875" lon="1.4629456959664821624755859375">
        <ele>211</ele>
        <time>2026-08-05T08:16:10.000Z</time>
        <extensions>
          <ns3:TrackPointExtension>
            <ns3:hr>70</ns3:hr>
            <ns3:cad>48</ns3:cad>
          </ns3:TrackPointExtension>
        </extensions>
      </trkpt>
      <trkpt lat="43.4728267975151538848876953125" lon="1.46295064128935337066650390625">
        <ele>211</ele>
        <time>2026-08-05T08:16:11.000Z</time>
        <extensions>
          <ns3:TrackPointExtension>
            <ns3:hr>70</ns3:hr>
            <ns3:cad>48</ns3:cad>
          </ns3:TrackPointExtension>
        </extensions>
      </trkpt>
      <trkpt lat="43.4728267975151538848876953125" lon="1.46294862963259220123291015625">
        <ele>211</ele>
        <time>2026-08-05T08:16:12.000Z</time>
        <extensions>
          <ns3:TrackPointExtension>
            <ns3:hr>71</ns3:hr>
            <ns3:cad>0</ns3:cad>
          </ns3:TrackPointExtension>
        </extensions>
      </trkpt>
      <trkpt lat="43.4728314913809299468994140625" lon="1.462934128940105438232421875">
        <ele>211</ele>
        <time>2026-08-05T08:16:13.000Z</time>
        <extensions>
          <ns3:TrackPointExtension>
            <ns3:hr>70</ns3:hr>
            <ns3:cad>0</ns3:cad>
          </ns3:TrackPointExtension>
        </extensions>
      </trkpt>
      <trkpt lat="43.4728365205228328704833984375" lon="1.46292298100888729095458984375">
        <ele>211</ele>
        <time>2026-08-05T08:16:14.000Z</time>
        <extensions>
          <ns3:TrackPointExtension>
            <ns3:hr>70</ns3:hr>
            <ns3:cad>0</ns3:cad>
          </ns3:TrackPointExtension>
        </extensions>
      </trkpt>
      <trkpt lat="43.47284046001732349395751953125" lon="1.4629125036299228668212890625">
        <ele>210.8000030517578125</ele>
        <time>2026-08-05T08:16:15.000Z</time>
        <extensions>
          <ns3:TrackPointExtension>
            <ns3:hr>70</ns3:hr>
            <ns3:cad>0</ns3:cad>
          </ns3:TrackPointExtension>
        </extensions>
      </trkpt>
      <trkpt lat="43.472845070064067840576171875" lon="1.46289867348968982696533203125">
        <ele>210.8000030517578125</ele>
        <time>2026-08-05T08:16:16.000Z</time>
        <extensions>
          <ns3:TrackPointExtension>
            <ns3:hr>70</ns3:hr>
            <ns3:cad>0</ns3:cad>
          </ns3:TrackPointExtension>
        </extensions>
      </trkpt>
      <trkpt lat="43.472848422825336456298828125" lon="1.4628888666629791259765625">
        <ele>210.8000030517578125</ele>
        <time>2026-08-05T08:16:17.000Z</time>
        <extensions>
          <ns3:TrackPointExtension>
            <ns3:hr>70</ns3:hr>
            <ns3:cad>0</ns3:cad>
          </ns3:TrackPointExtension>
        </extensions>
      </trkpt>
      <trkpt lat="43.47285487689077854156494140625" lon="1.46287570707499980926513671875">
        <ele>210.600006103515625</ele>
        <time>2026-08-05T08:16:18.000Z</time>
        <extensions>
          <ns3:TrackPointExtension>
            <ns3:hr>69</ns3:hr>
            <ns3:cad>0</ns3:cad>
          </ns3:TrackPointExtension>
        </extensions>
      </trkpt>
      <trkpt lat="43.47286091186106204986572265625" lon="1.46285944618284702301025390625">
        <ele>210.600006103515625</ele>
        <time>2026-08-05T08:16:19.000Z</time>
        <extensions>
          <ns3:TrackPointExtension>
            <ns3:hr>70</ns3:hr>
            <ns3:cad>53</ns3:cad>
          </ns3:TrackPointExtension>
        </extensions>
      </trkpt>
      <trkpt lat="43.47286694683134555816650390625" lon="1.46284486167132854461669921875">
        <ele>210.600006103515625</ele>
        <time>2026-08-05T08:16:20.000Z</time>
        <extensions>
          <ns3:TrackPointExtension>
            <ns3:hr>70</ns3:hr>
            <ns3:cad>53</ns3:cad>
          </ns3:TrackPointExtension>
        </extensions>
      </trkpt>
      <trkpt lat="43.47287264652550220489501953125" lon="1.46283865906298160552978515625">
        <ele>210.399993896484375</ele>
        <time>2026-08-05T08:16:21.000Z</time>
        <extensions>
          <ns3:TrackPointExtension>
            <ns3:hr>71</ns3:hr>
            <ns3:cad>48</ns3:cad>
          </ns3:TrackPointExtension>
        </extensions>
      </trkpt>
      <trkpt lat="43.47287851385772228240966796875" lon="1.462832875549793243408203125">
        <ele>210.399993896484375</ele>
        <time>2026-08-05T08:16:22.000Z</time>
        <extensions>
          <ns3:TrackPointExtension>
            <ns3:hr>72</ns3:hr>
            <ns3:cad>48</ns3:cad>
          </ns3:TrackPointExtension>
        </extensions>
      </trkpt>
      <trkpt lat="43.472883291542530059814453125" lon="1.462822817265987396240234375">
        <ele>210.399993896484375</ele>
        <time>2026-08-05T08:16:23.000Z</time>
        <extensions>
          <ns3:TrackPointExtension>
            <ns3:hr>73</ns3:hr>
            <ns3:cad>48</ns3:cad>
          </ns3:TrackPointExtension>
        </extensions>
      </trkpt>
      <trkpt lat="43.47288756631314754486083984375" lon="1.4628095738589763641357421875">
        <ele>210.399993896484375</ele>
        <time>2026-08-05T08:16:24.000Z</time>
        <extensions>
          <ns3:TrackPointExtension>
            <ns3:hr>73</ns3:hr>
            <ns3:cad>50</ns3:cad>
          </ns3:TrackPointExtension>
        </extensions>
      </trkpt>
      <trkpt lat="43.4728938527405261993408203125" lon="1.4627964980900287628173828125">
        <ele>210.1999969482421875</ele>
        <time>2026-08-05T08:16:25.000Z</time>
        <extensions>
          <ns3:TrackPointExtension>
            <ns3:hr>73</ns3:hr>
            <ns3:cad>50</ns3:cad>
          </ns3:TrackPointExtension>
        </extensions>
      </trkpt>
      <trkpt lat="43.4729015640914440155029296875" lon="1.46278015337884426116943359375">
        <ele>210.1999969482421875</ele>
        <time>2026-08-05T08:16:26.000Z</time>
        <extensions>
          <ns3:TrackPointExtension>
            <ns3:hr>73</ns3:hr>
            <ns3:cad>50</ns3:cad>
          </ns3:TrackPointExtension>
        </extensions>
      </trkpt>
      <trkpt lat="43.47290466539561748504638671875" lon="1.46277076564729213714599609375">
        <ele>210.1999969482421875</ele>
        <time>2026-08-05T08:16:27.000Z</time>
        <extensions>
          <ns3:TrackPointExtension>
            <ns3:hr>74</ns3:hr>
            <ns3:cad>49</ns3:cad>
          </ns3:TrackPointExtension>
        </extensions>
      </trkpt>
      <trkpt lat="43.472909443080425262451171875" lon="1.46275886334478855133056640625">
        <ele>210.1999969482421875</ele>
        <time>2026-08-05T08:16:28.000Z</time>
        <extensions>
          <ns3:TrackPointExtension>
            <ns3:hr>74</ns3:hr>
            <ns3:cad>49</ns3:cad>
          </ns3:TrackPointExtension>
        </extensions>
      </trkpt>
      <trkpt lat="43.47291447222232818603515625" lon="1.462745033204555511474609375">
        <ele>210.1999969482421875</ele>
        <time>2026-08-05T08:16:29.000Z</time>
        <extensions>
          <ns3:TrackPointExtension>
            <ns3:hr>74</ns3:hr>
            <ns3:cad>50</ns3:cad>
          </ns3:TrackPointExtension>
        </extensions>
      </trkpt>
      <trkpt lat="43.472919501364231109619140625" lon="1.4627332985401153564453125">
        <ele>210.1999969482421875</ele>
        <time>2026-08-05T08:16:30.000Z</time>
        <extensions>
          <ns3:TrackPointExtension>
            <ns3:hr>74</ns3:hr>
            <ns3:cad>50</ns3:cad>
          </ns3:TrackPointExtension>
        </extensions>
      </trkpt>
      <trkpt lat="43.472926206886768341064453125" lon="1.46272265352308750152587890625">
        <ele>210.1999969482421875</ele>
        <time>2026-08-05T08:16:31.000Z</time>
        <extensions>
          <ns3:TrackPointExtension>
            <ns3:hr>74</ns3:hr>
            <ns3:cad>50</ns3:cad>
          </ns3:TrackPointExtension>
        </extensions>
      </trkpt>
      <trkpt lat="43.4729290567338466644287109375" lon="1.4627079851925373077392578125">
        <ele>210.1999969482421875</ele>
        <time>2026-08-05T08:16:32.000Z</time>
        <extensions>
          <ns3:TrackPointExtension>
            <ns3:hr>74</ns3:hr>
            <ns3:cad>47</ns3:cad>
          </ns3:TrackPointExtension>
        </extensions>
      </trkpt>
      <trkpt lat="43.47293467260897159576416015625" lon="1.4626888744533061981201171875">
        <ele>210</ele>
        <time>2026-08-05T08:16:33.000Z</time>
        <extensions>
          <ns3:TrackPointExtension>
            <ns3:hr>74</ns3:hr>
            <ns3:cad>47</ns3:cad>
          </ns3:TrackPointExtension>
        </extensions>
      </trkpt>
      <trkpt lat="43.472936935722827911376953125" lon="1.462672613561153411865234375">
        <ele>210</ele>
        <time>2026-08-05T08:16:34.000Z</time>
        <extensions>
          <ns3:TrackPointExtension>
            <ns3:hr>74</ns3:hr>
            <ns3:cad>46</ns3:cad>
          </ns3:TrackPointExtension>
        </extensions>
      </trkpt>
      <trkpt lat="43.47294104285538196563720703125" lon="1.46265928633511066436767578125">
        <ele>210</ele>
        <time>2026-08-05T08:16:35.000Z</time>
        <extensions>
          <ns3:TrackPointExtension>
            <ns3:hr>75</ns3:hr>
            <ns3:cad>45</ns3:cad>
          </ns3:TrackPointExtension>
        </extensions>
      </trkpt>
      <trkpt lat="43.47294238395988941192626953125" lon="1.4626432769000530242919921875">
        <ele>210</ele>
        <time>2026-08-05T08:16:36.000Z</time>
        <extensions>
          <ns3:TrackPointExtension>
            <ns3:hr>75</ns3:hr>
            <ns3:cad>45</ns3:cad>
          </ns3:TrackPointExtension>
        </extensions>
      </trkpt>
      <trkpt lat="43.47294523380696773529052734375" lon="1.4626338891685009002685546875">
        <ele>210</ele>
        <time>2026-08-05T08:16:37.000Z</time>
        <extensions>
          <ns3:TrackPointExtension>
            <ns3:hr>75</ns3:hr>
            <ns3:cad>45</ns3:cad>
          </ns3:TrackPointExtension>
        </extensions>
      </trkpt>
      <trkpt lat="43.47295193932950496673583984375" lon="1.46261955611407756805419921875">
        <ele>210</ele>
        <time>2026-08-05T08:16:38.000Z</time>
        <extensions>
          <ns3:TrackPointExtension>
            <ns3:hr>75</ns3:hr>
            <ns3:cad>44</ns3:cad>
          </ns3:TrackPointExtension>
        </extensions>
      </trkpt>
      <trkpt lat="43.472954370081424713134765625" lon="1.4626070670783519744873046875">
        <ele>209.8000030517578125</ele>
        <time>2026-08-05T08:16:39.000Z</time>
        <extensions>
          <ns3:TrackPointExtension>
            <ns3:hr>75</ns3:hr>
            <ns3:cad>45</ns3:cad>
          </ns3:TrackPointExtension>
        </extensions>
      </trkpt>
      <trkpt lat="43.472958393394947052001953125" lon="1.4625943265855312347412109375">
        <ele>209.8000030517578125</ele>
        <time>2026-08-05T08:16:40.000Z</time>
        <extensions>
          <ns3:TrackPointExtension>
            <ns3:hr>74</ns3:hr>
            <ns3:cad>45</ns3:cad>
          </ns3:TrackPointExtension>
        </extensions>
      </trkpt>
      <trkpt lat="43.4729599021375179290771484375" lon="1.46258569322526454925537109375">
        <ele>209.8000030517578125</ele>
        <time>2026-08-05T08:16:41.000Z</time>
        <extensions>
          <ns3:TrackPointExtension>
            <ns3:hr>74</ns3:hr>
            <ns3:cad>48</ns3:cad>
          </ns3:TrackPointExtension>
        </extensions>
      </trkpt>
      <trkpt lat="43.472963757812976837158203125" lon="1.46257362328469753265380859375">
        <ele>209.8000030517578125</ele>
        <time>2026-08-05T08:16:42.000Z</time>
        <extensions>
          <ns3:TrackPointExtension>
            <ns3:hr>74</ns3:hr>
            <ns3:cad>48</ns3:cad>
          </ns3:TrackPointExtension>
        </extensions>
      </trkpt>
      <trkpt lat="43.4729692898690700531005859375" lon="1.4625621400773525238037109375">
        <ele>209.8000030517578125</ele>
        <time>2026-08-05T08:16:43.000Z</time>
        <extensions>
          <ns3:TrackPointExtension>
            <ns3:hr>74</ns3:hr>
            <ns3:cad>48</ns3:cad>
          </ns3:TrackPointExtension>
        </extensions>
      </trkpt>
      <trkpt lat="43.4729754924774169921875" lon="1.46255183033645153045654296875">
        <ele>209.8000030517578125</ele>
        <time>2026-08-05T08:16:44.000Z</time>
        <extensions>
          <ns3:TrackPointExtension>
            <ns3:hr>74</ns3:hr>
            <ns3:cad>47</ns3:cad>
          </ns3:TrackPointExtension>
        </extensions>
      </trkpt>
      <trkpt lat="43.47297809086740016937255859375" lon="1.462541520595550537109375">
        <ele>209.8000030517578125</ele>
        <time>2026-08-05T08:16:45.000Z</time>
        <extensions>
          <ns3:TrackPointExtension>
            <ns3:hr>74</ns3:hr>
            <ns3:cad>47</ns3:cad>
          </ns3:TrackPointExtension>
        </extensions>
      </trkpt>
      <trkpt lat="43.47298161126673221588134765625" lon="1.462527774274349212646484375">
        <ele>209.8000030517578125</ele>
        <time>2026-08-05T08:16:46.000Z</time>
        <extensions>
          <ns3:TrackPointExtension>
            <ns3:hr>74</ns3:hr>
            <ns3:cad>48</ns3:cad>
          </ns3:TrackPointExtension>
        </extensions>
      </trkpt>
      <trkpt lat="43.4729867242276668548583984375" lon="1.46251109428703784942626953125">
        <ele>209.8000030517578125</ele>
        <time>2026-08-05T08:16:47.000Z</time>
        <extensions>
          <ns3:TrackPointExtension>
            <ns3:hr>73</ns3:hr>
            <ns3:cad>48</ns3:cad>
          </ns3:TrackPointExtension>
        </extensions>
      </trkpt>
      <trkpt lat="43.47298982553184032440185546875" lon="1.46249650977551937103271484375">
        <ele>209.600006103515625</ele>
        <time>2026-08-05T08:16:48.000Z</time>
        <extensions>
          <ns3:TrackPointExtension>
            <ns3:hr>73</ns3:hr>
            <ns3:cad>48</ns3:cad>
          </ns3:TrackPointExtension>
        </extensions>
      </trkpt>
      <trkpt lat="43.472993932664394378662109375" lon="1.46248695440590381622314453125">
        <ele>209.600006103515625</ele>
        <time>2026-08-05T08:16:49.000Z</time>
        <extensions>
          <ns3:TrackPointExtension>
            <ns3:hr>73</ns3:hr>
            <ns3:cad>47</ns3:cad>
          </ns3:TrackPointExtension>
        </extensions>
      </trkpt>
      <trkpt lat="43.47299787215888500213623046875" lon="1.462476812303066253662109375">
        <ele>209.600006103515625</ele>
        <time>2026-08-05T08:16:50.000Z</time>
        <extensions>
          <ns3:TrackPointExtension>
            <ns3:hr>73</ns3:hr>
            <ns3:cad>46</ns3:cad>
          </ns3:TrackPointExtension>
        </extensions>
      </trkpt>
      <trkpt lat="43.47300139255821704864501953125" lon="1.4624635688960552215576171875">
        <ele>209.600006103515625</ele>
        <time>2026-08-05T08:16:51.000Z</time>
        <extensions>
          <ns3:TrackPointExtension>
            <ns3:hr>74</ns3:hr>
            <ns3:cad>46</ns3:cad>
          </ns3:TrackPointExtension>
        </extensions>
      </trkpt>
      <trkpt lat="43.47300541587173938751220703125" lon="1.46244697272777557373046875">
        <ele>209.600006103515625</ele>
        <time>2026-08-05T08:16:52.000Z</time>
        <extensions>
          <ns3:TrackPointExtension>
            <ns3:hr>73</ns3:hr>
            <ns3:cad>45</ns3:cad>
          </ns3:TrackPointExtension>
        </extensions>
      </trkpt>
      <trkpt lat="43.473009355366230010986328125" lon="1.46243314258754253387451171875">
        <ele>209.399993896484375</ele>
        <time>2026-08-05T08:16:53.000Z</time>
        <extensions>
          <ns3:TrackPointExtension>
            <ns3:hr>73</ns3:hr>
            <ns3:cad>45</ns3:cad>
          </ns3:TrackPointExtension>
        </extensions>
      </trkpt>
      <trkpt lat="43.4730138815939426422119140625" lon="1.46241939626634120941162109375">
        <ele>209.399993896484375</ele>
        <time>2026-08-05T08:16:54.000Z</time>
        <extensions>
          <ns3:TrackPointExtension>
            <ns3:hr>73</ns3:hr>
            <ns3:cad>48</ns3:cad>
          </ns3:TrackPointExtension>
        </extensions>
      </trkpt>
      <trkpt lat="43.473017401993274688720703125" lon="1.4624116010963916778564453125">
        <ele>209.399993896484375</ele>
        <time>2026-08-05T08:16:55.000Z</time>
        <extensions>
          <ns3:TrackPointExtension>
            <ns3:hr>74</ns3:hr>
            <ns3:cad>48</ns3:cad>
          </ns3:TrackPointExtension>
        </extensions>
      </trkpt>
      <trkpt lat="43.473022766411304473876953125" lon="1.462398357689380645751953125">
        <ele>209.399993896484375</ele>
        <time>2026-08-05T08:16:56.000Z</time>
        <extensions>
          <ns3:TrackPointExtension>
            <ns3:hr>73</ns3:hr>
            <ns3:cad>48</ns3:cad>
          </ns3:TrackPointExtension>
        </extensions>
      </trkpt>
      <trkpt lat="43.47303114831447601318359375" lon="1.4623857848346233367919921875">
        <ele>209.399993896484375</ele>
        <time>2026-08-05T08:16:57.000Z</time>
        <extensions>
          <ns3:TrackPointExtension>
            <ns3:hr>71</ns3:hr>
            <ns3:cad>48</ns3:cad>
          </ns3:TrackPointExtension>
        </extensions>
      </trkpt>
      <trkpt lat="43.47303257323801517486572265625" lon="1.46237455308437347412109375">
        <ele>209.399993896484375</ele>
        <time>2026-08-05T08:16:58.000Z</time>
        <extensions>
          <ns3:TrackPointExtension>
            <ns3:hr>70</ns3:hr>
            <ns3:cad>47</ns3:cad>
          </ns3:TrackPointExtension>
        </extensions>
      </trkpt>
      <trkpt lat="43.4730356745421886444091796875" lon="1.46236625500023365020751953125">
        <ele>209.1999969482421875</ele>
        <time>2026-08-05T08:16:59.000Z</time>
        <extensions>
          <ns3:TrackPointExtension>
            <ns3:hr>70</ns3:hr>
            <ns3:cad>47</ns3:cad>
          </ns3:TrackPointExtension>
        </extensions>
      </trkpt>
      <trkpt lat="43.47303919494152069091796875" lon="1.46235644817352294921875">
        <ele>209.1999969482421875</ele>
        <time>2026-08-05T08:17:00.000Z</time>
        <extensions>
          <ns3:TrackPointExtension>
            <ns3:hr>69</ns3:hr>
            <ns3:cad>47</ns3:cad>
          </ns3:TrackPointExtension>
        </extensions>
      </trkpt>
      <trkpt lat="43.47304296679794788360595703125" lon="1.4623432047665119171142578125">
        <ele>209.1999969482421875</ele>
        <time>2026-08-05T08:17:01.000Z</time>
        <extensions>
          <ns3:TrackPointExtension>
            <ns3:hr>68</ns3:hr>
            <ns3:cad>48</ns3:cad>
          </ns3:TrackPointExtension>
        </extensions>
      </trkpt>
      <trkpt lat="43.4730497561395168304443359375" lon="1.46232753060758113861083984375">
        <ele>209</ele>
        <time>2026-08-05T08:17:02.000Z</time>
        <extensions>
          <ns3:TrackPointExtension>
            <ns3:hr>69</ns3:hr>
            <ns3:cad>48</ns3:cad>
          </ns3:TrackPointExtension>
        </extensions>
      </trkpt>
      <trkpt lat="43.47305369563400745391845703125" lon="1.4623177237808704376220703125">
        <ele>209</ele>
        <time>2026-08-05T08:17:03.000Z</time>
        <extensions>
          <ns3:TrackPointExtension>
            <ns3:hr>69</ns3:hr>
            <ns3:cad>48</ns3:cad>
          </ns3:TrackPointExtension>
        </extensions>
      </trkpt>
      <trkpt lat="43.4730581380426883697509765625" lon="1.46231059916317462921142578125">
        <ele>209</ele>
        <time>2026-08-05T08:17:04.000Z</time>
        <extensions>
          <ns3:TrackPointExtension>
            <ns3:hr>70</ns3:hr>
            <ns3:cad>45</ns3:cad>
          </ns3:TrackPointExtension>
        </extensions>
      </trkpt>
      <trkpt lat="43.47306593321263790130615234375" lon="1.46229936741292476654052734375">
        <ele>209</ele>
        <time>2026-08-05T08:17:05.000Z</time>
        <extensions>
          <ns3:TrackPointExtension>
            <ns3:hr>70</ns3:hr>
            <ns3:cad>45</ns3:cad>
          </ns3:TrackPointExtension>
        </extensions>
      </trkpt>
      <trkpt lat="43.47307096235454082489013671875" lon="1.46228645928204059600830078125">
        <ele>209</ele>
        <time>2026-08-05T08:17:06.000Z</time>
        <extensions>
          <ns3:TrackPointExtension>
            <ns3:hr>71</ns3:hr>
            <ns3:cad>45</ns3:cad>
          </ns3:TrackPointExtension>
        </extensions>
      </trkpt>
      <trkpt lat="43.4730769135057926177978515625" lon="1.46227505989372730255126953125">
        <ele>208.8000030517578125</ele>
        <time>2026-08-05T08:17:07.000Z</time>
        <extensions>
          <ns3:TrackPointExtension>
            <ns3:hr>72</ns3:hr>
            <ns3:cad>47</ns3:cad>
          </ns3:TrackPointExtension>
        </extensions>
      </trkpt>
      <trkpt lat="43.4730822779238224029541015625" lon="1.46226701326668262481689453125">
        <ele>208.8000030517578125</ele>
        <time>2026-08-05T08:17:08.000Z</time>
        <extensions>
          <ns3:TrackPointExtension>
            <ns3:hr>72</ns3:hr>
            <ns3:cad>47</ns3:cad>
          </ns3:TrackPointExtension>
        </extensions>
      </trkpt>
      <trkpt lat="43.47308806143701076507568359375" lon="1.462254859507083892822265625">
        <ele>208.8000030517578125</ele>
        <time>2026-08-05T08:17:09.000Z</time>
        <extensions>
          <ns3:TrackPointExtension>
            <ns3:hr>71</ns3:hr>
            <ns3:cad>47</ns3:cad>
          </ns3:TrackPointExtension>
        </extensions>
      </trkpt>
      <trkpt lat="43.473098538815975189208984375" lon="1.4622392691671848297119140625">
        <ele>208.600006103515625</ele>
        <time>2026-08-05T08:17:10.000Z</time>
        <extensions>
          <ns3:TrackPointExtension>
            <ns3:hr>71</ns3:hr>
            <ns3:cad>47</ns3:cad>
          </ns3:TrackPointExtension>
        </extensions>
      </trkpt>
      <trkpt lat="43.47310499288141727447509765625" lon="1.46222409792244434356689453125">
        <ele>208.600006103515625</ele>
        <time>2026-08-05T08:17:11.000Z</time>
        <extensions>
          <ns3:TrackPointExtension>
            <ns3:hr>71</ns3:hr>
            <ns3:cad>47</ns3:cad>
          </ns3:TrackPointExtension>
        </extensions>
      </trkpt>
      <trkpt lat="43.47311086021363735198974609375" lon="1.46221269853413105010986328125">
        <ele>208.600006103515625</ele>
        <time>2026-08-05T08:17:12.000Z</time>
        <extensions>
          <ns3:TrackPointExtension>
            <ns3:hr>71</ns3:hr>
            <ns3:cad>47</ns3:cad>
          </ns3:TrackPointExtension>
        </extensions>
      </trkpt>
      <trkpt lat="43.47311622463166713714599609375" lon="1.46220264025032520294189453125">
        <ele>208.600006103515625</ele>
        <time>2026-08-05T08:17:13.000Z</time>
        <extensions>
          <ns3:TrackPointExtension>
            <ns3:hr>71</ns3:hr>
            <ns3:cad>47</ns3:cad>
          </ns3:TrackPointExtension>
        </extensions>
      </trkpt>
      <trkpt lat="43.47311832010746002197265625" lon="1.46219459362328052520751953125">
        <ele>208.399993896484375</ele>
        <time>2026-08-05T08:17:14.000Z</time>
        <extensions>
          <ns3:TrackPointExtension>
            <ns3:hr>71</ns3:hr>
            <ns3:cad>48</ns3:cad>
          </ns3:TrackPointExtension>
        </extensions>
      </trkpt>
      <trkpt lat="43.47312008030712604522705078125" lon="1.462180428206920623779296875">
        <ele>208.399993896484375</ele>
        <time>2026-08-05T08:17:15.000Z</time>
        <extensions>
          <ns3:TrackPointExtension>
            <ns3:hr>71</ns3:hr>
            <ns3:cad>50</ns3:cad>
          </ns3:TrackPointExtension>
        </extensions>
      </trkpt>
      <trkpt lat="43.47312234342098236083984375" lon="1.462163664400577545166015625">
        <ele>208.399993896484375</ele>
        <time>2026-08-05T08:17:16.000Z</time>
        <extensions>
          <ns3:TrackPointExtension>
            <ns3:hr>72</ns3:hr>
            <ns3:cad>50</ns3:cad>
          </ns3:TrackPointExtension>
        </extensions>
      </trkpt>
      <trkpt lat="43.47312510944902896881103515625" lon="1.4621494151651859283447265625">
        <ele>208.1999969482421875</ele>
        <time>2026-08-05T08:17:17.000Z</time>
        <extensions>
          <ns3:TrackPointExtension>
            <ns3:hr>72</ns3:hr>
            <ns3:cad>50</ns3:cad>
          </ns3:TrackPointExtension>
        </extensions>
      </trkpt>
      <trkpt lat="43.4731285460293292999267578125" lon="1.4621373452246189117431640625">
        <ele>208.1999969482421875</ele>
        <time>2026-08-05T08:17:18.000Z</time>
        <extensions>
          <ns3:TrackPointExtension>
            <ns3:hr>72</ns3:hr>
            <ns3:cad>47</ns3:cad>
          </ns3:TrackPointExtension>
        </extensions>
      </trkpt>
      <trkpt lat="43.473128713667392730712890625" lon="1.46212921477854251861572265625">
        <ele>208</ele>
        <time>2026-08-05T08:17:19.000Z</time>
        <extensions>
          <ns3:TrackPointExtension>
            <ns3:hr>72</ns3:hr>
            <ns3:cad>47</ns3:cad>
          </ns3:TrackPointExtension>
        </extensions>
      </trkpt>
      <trkpt lat="43.473128713667392730712890625" lon="1.46211831830441951751708984375">
        <ele>208</ele>
        <time>2026-08-05T08:17:20.000Z</time>
        <extensions>
          <ns3:TrackPointExtension>
            <ns3:hr>72</ns3:hr>
            <ns3:cad>47</ns3:cad>
          </ns3:TrackPointExtension>
        </extensions>
      </trkpt>
      <trkpt lat="43.473135419189929962158203125" lon="1.462101973593235015869140625">
        <ele>207.8000030517578125</ele>
        <time>2026-08-05T08:17:21.000Z</time>
        <extensions>
          <ns3:TrackPointExtension>
            <ns3:hr>72</ns3:hr>
            <ns3:cad>48</ns3:cad>
          </ns3:TrackPointExtension>
        </extensions>
      </trkpt>
      <trkpt lat="43.47313835285604000091552734375" lon="1.46208898164331912994384765625">
        <ele>207.8000030517578125</ele>
        <time>2026-08-05T08:17:22.000Z</time>
        <extensions>
          <ns3:TrackPointExtension>
            <ns3:hr>72</ns3:hr>
            <ns3:cad>48</ns3:cad>
          </ns3:TrackPointExtension>
        </extensions>
      </trkpt>
      <trkpt lat="43.4731453098356723785400390625" lon="1.46207808516919612884521484375">
        <ele>207.600006103515625</ele>
        <time>2026-08-05T08:17:23.000Z</time>
        <extensions>
          <ns3:TrackPointExtension>
            <ns3:hr>72</ns3:hr>
            <ns3:cad>48</ns3:cad>
          </ns3:TrackPointExtension>
        </extensions>
      </trkpt>
      <trkpt lat="43.4731486625969409942626953125" lon="1.46206567995250225067138671875">
        <ele>207.600006103515625</ele>
        <time>2026-08-05T08:17:24.000Z</time>
        <extensions>
          <ns3:TrackPointExtension>
            <ns3:hr>72</ns3:hr>
            <ns3:cad>48</ns3:cad>
          </ns3:TrackPointExtension>
        </extensions>
      </trkpt>
      <trkpt lat="43.47315712831914424896240234375" lon="1.46205176599323749542236328125">
        <ele>207.600006103515625</ele>
        <time>2026-08-05T08:17:25.000Z</time>
        <extensions>
          <ns3:TrackPointExtension>
            <ns3:hr>72</ns3:hr>
            <ns3:cad>48</ns3:cad>
          </ns3:TrackPointExtension>
        </extensions>
      </trkpt>
      <trkpt lat="43.47316467203199863433837890625" lon="1.46203801967203617095947265625">
        <ele>207.8000030517578125</ele>
        <time>2026-08-05T08:17:26.000Z</time>
        <extensions>
          <ns3:TrackPointExtension>
            <ns3:hr>72</ns3:hr>
            <ns3:cad>48</ns3:cad>
          </ns3:TrackPointExtension>
        </extensions>
      </trkpt>
      <trkpt lat="43.47317037172615528106689453125" lon="1.46203198470175266265869140625">
        <ele>207.8000030517578125</ele>
        <time>2026-08-05T08:17:27.000Z</time>
        <extensions>
          <ns3:TrackPointExtension>
            <ns3:hr>72</ns3:hr>
            <ns3:cad>47</ns3:cad>
          </ns3:TrackPointExtension>
        </extensions>
      </trkpt>
      <trkpt lat="43.4731724672019481658935546875" lon="1.46202444098889827728271484375">
        <ele>208</ele>
        <time>2026-08-05T08:17:28.000Z</time>
        <extensions>
          <ns3:TrackPointExtension>
            <ns3:hr>71</ns3:hr>
            <ns3:cad>47</ns3:cad>
          </ns3:TrackPointExtension>
        </extensions>
      </trkpt>
      <trkpt lat="43.47318160347640514373779296875" lon="1.4620096050202846527099609375">
        <ele>208</ele>
        <time>2026-08-05T08:17:29.000Z</time>
        <extensions>
          <ns3:TrackPointExtension>
            <ns3:hr>70</ns3:hr>
            <ns3:cad>47</ns3:cad>
          </ns3:TrackPointExtension>
        </extensions>
      </trkpt>
      <trkpt lat="43.47318411804735660552978515625" lon="1.46200398914515972137451171875">
        <ele>208</ele>
        <time>2026-08-05T08:17:30.000Z</time>
        <extensions>
          <ns3:TrackPointExtension>
            <ns3:hr>69</ns3:hr>
            <ns3:cad>47</ns3:cad>
          </ns3:TrackPointExtension>
        </extensions>
      </trkpt>
      <trkpt lat="43.473188392817974090576171875" lon="1.46199476905167102813720703125">
        <ele>208</ele>
        <time>2026-08-05T08:17:31.000Z</time>
        <extensions>
          <ns3:TrackPointExtension>
            <ns3:hr>69</ns3:hr>
            <ns3:cad>47</ns3:cad>
          </ns3:TrackPointExtension>
        </extensions>
      </trkpt>
      <trkpt lat="43.47319342195987701416015625" lon="1.46198571659624576568603515625">
        <ele>208</ele>
        <time>2026-08-05T08:17:32.000Z</time>
        <extensions>
          <ns3:TrackPointExtension>
            <ns3:hr>69</ns3:hr>
            <ns3:cad>44</ns3:cad>
          </ns3:TrackPointExtension>
        </extensions>
      </trkpt>
      <trkpt lat="43.47320339642465114593505859375" lon="1.4619700424373149871826171875">
        <ele>208</ele>
        <time>2026-08-05T08:17:33.000Z</time>
        <extensions>
          <ns3:TrackPointExtension>
            <ns3:hr>69</ns3:hr>
            <ns3:cad>43</ns3:cad>
          </ns3:TrackPointExtension>
        </extensions>
      </trkpt>
      <trkpt lat="43.47320959903299808502197265625" lon="1.4619603194296360015869140625">
        <ele>208</ele>
        <time>2026-08-05T08:17:34.000Z</time>
        <extensions>
          <ns3:TrackPointExtension>
            <ns3:hr>69</ns3:hr>
            <ns3:cad>42</ns3:cad>
          </ns3:TrackPointExtension>
        </extensions>
      </trkpt>
      <trkpt lat="43.473214209079742431640625" lon="1.46194565109908580780029296875">
        <ele>208</ele>
        <time>2026-08-05T08:17:35.000Z</time>
        <extensions>
          <ns3:TrackPointExtension>
            <ns3:hr>70</ns3:hr>
            <ns3:cad>42</ns3:cad>
          </ns3:TrackPointExtension>
        </extensions>
      </trkpt>
      <trkpt lat="43.47321848385035991668701171875" lon="1.46193475462496280670166015625">
        <ele>207.8000030517578125</ele>
        <time>2026-08-05T08:17:36.000Z</time>
        <extensions>
          <ns3:TrackPointExtension>
            <ns3:hr>70</ns3:hr>
            <ns3:cad>47</ns3:cad>
          </ns3:TrackPointExtension>
        </extensions>
      </trkpt>
      <trkpt lat="43.47322502173483371734619140625" lon="1.46192050538957118988037109375">
        <ele>208</ele>
        <time>2026-08-05T08:17:37.000Z</time>
        <extensions>
          <ns3:TrackPointExtension>
            <ns3:hr>72</ns3:hr>
            <ns3:cad>49</ns3:cad>
          </ns3:TrackPointExtension>
        </extensions>
      </trkpt>
      <trkpt lat="43.473228625953197479248046875" lon="1.46190742962062358856201171875">
        <ele>208</ele>
        <time>2026-08-05T08:17:38.000Z</time>
        <extensions>
          <ns3:TrackPointExtension>
            <ns3:hr>72</ns3:hr>
            <ns3:cad>49</ns3:cad>
          </ns3:TrackPointExtension>
        </extensions>
      </trkpt>
      <trkpt lat="43.47323340363800525665283203125" lon="1.46189066581428050994873046875">
        <ele>207.8000030517578125</ele>
        <time>2026-08-05T08:17:39.000Z</time>
        <extensions>
          <ns3:TrackPointExtension>
            <ns3:hr>72</ns3:hr>
            <ns3:cad>49</ns3:cad>
          </ns3:TrackPointExtension>
        </extensions>
      </trkpt>
      <trkpt lat="43.47323834896087646484375" lon="1.46187675185501575469970703125">
        <ele>207.8000030517578125</ele>
        <time>2026-08-05T08:17:40.000Z</time>
        <extensions>
          <ns3:TrackPointExtension>
            <ns3:hr>73</ns3:hr>
            <ns3:cad>49</ns3:cad>
          </ns3:TrackPointExtension>
        </extensions>
      </trkpt>
      <trkpt lat="43.47324161790311336517333984375" lon="1.4618669450283050537109375">
        <ele>207.8000030517578125</ele>
        <time>2026-08-05T08:17:41.000Z</time>
        <extensions>
          <ns3:TrackPointExtension>
            <ns3:hr>73</ns3:hr>
            <ns3:cad>49</ns3:cad>
          </ns3:TrackPointExtension>
        </extensions>
      </trkpt>
      <trkpt lat="43.4732489101588726043701171875" lon="1.46185219287872314453125">
        <ele>207.8000030517578125</ele>
        <time>2026-08-05T08:17:42.000Z</time>
        <extensions>
          <ns3:TrackPointExtension>
            <ns3:hr>73</ns3:hr>
            <ns3:cad>49</ns3:cad>
          </ns3:TrackPointExtension>
        </extensions>
      </trkpt>
      <trkpt lat="43.47325284965336322784423828125" lon="1.46183920092880725860595703125">
        <ele>207.600006103515625</ele>
        <time>2026-08-05T08:17:43.000Z</time>
        <extensions>
          <ns3:TrackPointExtension>
            <ns3:hr>73</ns3:hr>
            <ns3:cad>49</ns3:cad>
          </ns3:TrackPointExtension>
        </extensions>
      </trkpt>
      <trkpt lat="43.473258130252361297607421875" lon="1.46182310767471790313720703125">
        <ele>207.600006103515625</ele>
        <time>2026-08-05T08:17:44.000Z</time>
        <extensions>
          <ns3:TrackPointExtension>
            <ns3:hr>72</ns3:hr>
            <ns3:cad>49</ns3:cad>
          </ns3:TrackPointExtension>
        </extensions>
      </trkpt>
      <trkpt lat="43.473258800804615020751953125" lon="1.46180994808673858642578125">
        <ele>207.600006103515625</ele>
        <time>2026-08-05T08:17:45.000Z</time>
        <extensions>
          <ns3:TrackPointExtension>
            <ns3:hr>73</ns3:hr>
            <ns3:cad>48</ns3:cad>
          </ns3:TrackPointExtension>
        </extensions>
      </trkpt>
      <trkpt lat="43.47326315939426422119140625" lon="1.46180014126002788543701171875">
        <ele>207.600006103515625</ele>
        <time>2026-08-05T08:17:46.000Z</time>
        <extensions>
          <ns3:TrackPointExtension>
            <ns3:hr>73</ns3:hr>
            <ns3:cad>48</ns3:cad>
          </ns3:TrackPointExtension>
        </extensions>
      </trkpt>
      <trkpt lat="43.47326944582164287567138671875" lon="1.46178756840527057647705078125">
        <ele>207.399993896484375</ele>
        <time>2026-08-05T08:17:47.000Z</time>
        <extensions>
          <ns3:TrackPointExtension>
            <ns3:hr>72</ns3:hr>
            <ns3:cad>48</ns3:cad>
          </ns3:TrackPointExtension>
        </extensions>
      </trkpt>
      <trkpt lat="43.47327481023967266082763671875" lon="1.46177248097956180572509765625">
        <ele>207.399993896484375</ele>
        <time>2026-08-05T08:17:48.000Z</time>
        <extensions>
          <ns3:TrackPointExtension>
            <ns3:hr>71</ns3:hr>
            <ns3:cad>47</ns3:cad>
          </ns3:TrackPointExtension>
        </extensions>
      </trkpt>
      <trkpt lat="43.473279587924480438232421875" lon="1.4617544598877429962158203125">
        <ele>207.399993896484375</ele>
        <time>2026-08-05T08:17:49.000Z</time>
        <extensions>
          <ns3:TrackPointExtension>
            <ns3:hr>71</ns3:hr>
            <ns3:cad>47</ns3:cad>
          </ns3:TrackPointExtension>
        </extensions>
      </trkpt>
      <trkpt lat="43.4732834435999393463134765625" lon="1.461745910346508026123046875">
        <ele>207.1999969482421875</ele>
        <time>2026-08-05T08:17:50.000Z</time>
        <extensions>
          <ns3:TrackPointExtension>
            <ns3:hr>72</ns3:hr>
            <ns3:cad>48</ns3:cad>
          </ns3:TrackPointExtension>
        </extensions>
      </trkpt>
      <trkpt lat="43.47328864037990570068359375" lon="1.46173928864300251007080078125">
        <ele>207.1999969482421875</ele>
        <time>2026-08-05T08:17:51.000Z</time>
        <extensions>
          <ns3:TrackPointExtension>
            <ns3:hr>72</ns3:hr>
            <ns3:cad>48</ns3:cad>
          </ns3:TrackPointExtension>
        </extensions>
      </trkpt>
      <trkpt lat="43.473289646208286285400390625" lon="1.461729817092418670654296875">
        <ele>207.1999969482421875</ele>
        <time>2026-08-05T08:17:52.000Z</time>
        <extensions>
          <ns3:TrackPointExtension>
            <ns3:hr>73</ns3:hr>
            <ns3:cad>47</ns3:cad>
          </ns3:TrackPointExtension>
        </extensions>
      </trkpt>
      <trkpt lat="43.47329677082598209381103515625" lon="1.46171472966670989990234375">
        <ele>207</ele>
        <time>2026-08-05T08:17:53.000Z</time>
        <extensions>
          <ns3:TrackPointExtension>
            <ns3:hr>73</ns3:hr>
            <ns3:cad>47</ns3:cad>
          </ns3:TrackPointExtension>
        </extensions>
      </trkpt>
      <trkpt lat="43.473301045596599578857421875" lon="1.461699642241001129150390625">
        <ele>207</ele>
        <time>2026-08-05T08:17:54.000Z</time>
        <extensions>
          <ns3:TrackPointExtension>
            <ns3:hr>74</ns3:hr>
            <ns3:cad>47</ns3:cad>
          </ns3:TrackPointExtension>
        </extensions>
      </trkpt>
      <trkpt lat="43.47330934368073940277099609375" lon="1.46168665029108524322509765625">
        <ele>207</ele>
        <time>2026-08-05T08:17:55.000Z</time>
        <extensions>
          <ns3:TrackPointExtension>
            <ns3:hr>74</ns3:hr>
            <ns3:cad>49</ns3:cad>
          </ns3:TrackPointExtension>
        </extensions>
      </trkpt>
      <trkpt lat="43.47331655211746692657470703125" lon="1.4616766758263111114501953125">
        <ele>206.8000030517578125</ele>
        <time>2026-08-05T08:17:56.000Z</time>
        <extensions>
          <ns3:TrackPointExtension>
            <ns3:hr>73</ns3:hr>
            <ns3:cad>49</ns3:cad>
          </ns3:TrackPointExtension>
        </extensions>
      </trkpt>
      <trkpt lat="43.47332342527806758880615234375" lon="1.46166401915252208709716796875">
        <ele>206.8000030517578125</ele>
        <time>2026-08-05T08:17:57.000Z</time>
        <extensions>
          <ns3:TrackPointExtension>
            <ns3:hr>73</ns3:hr>
            <ns3:cad>48</ns3:cad>
          </ns3:TrackPointExtension>
        </extensions>
      </trkpt>
      <trkpt lat="43.47333046607673168182373046875" lon="1.46164993755519390106201171875">
        <ele>206.8000030517578125</ele>
        <time>2026-08-05T08:17:58.000Z</time>
        <extensions>
          <ns3:TrackPointExtension>
            <ns3:hr>73</ns3:hr>
            <ns3:cad>48</ns3:cad>
          </ns3:TrackPointExtension>
        </extensions>
      </trkpt>
      <trkpt lat="43.47333583049476146697998046875" lon="1.46163837052881717681884765625">
        <ele>206.8000030517578125</ele>
        <time>2026-08-05T08:17:59.000Z</time>
        <extensions>
          <ns3:TrackPointExtension>
            <ns3:hr>73</ns3:hr>
            <ns3:cad>49</ns3:cad>
          </ns3:TrackPointExtension>
        </extensions>
      </trkpt>
      <trkpt lat="43.47334052436053752899169921875" lon="1.46162881515920162200927734375">
        <ele>206.8000030517578125</ele>
        <time>2026-08-05T08:18:00.000Z</time>
        <extensions>
          <ns3:TrackPointExtension>
            <ns3:hr>73</ns3:hr>
            <ns3:cad>49</ns3:cad>
          </ns3:TrackPointExtension>
        </extensions>
      </trkpt>
      <trkpt lat="43.47334471531212329864501953125" lon="1.461619175970554351806640625">
        <ele>206.8000030517578125</ele>
        <time>2026-08-05T08:18:01.000Z</time>
        <extensions>
          <ns3:TrackPointExtension>
            <ns3:hr>73</ns3:hr>
            <ns3:cad>48</ns3:cad>
          </ns3:TrackPointExtension>
        </extensions>
      </trkpt>
      <trkpt lat="43.47334790043532848358154296875" lon="1.46160283125936985015869140625">
        <ele>206.8000030517578125</ele>
        <time>2026-08-05T08:18:02.000Z</time>
        <extensions>
          <ns3:TrackPointExtension>
            <ns3:hr>72</ns3:hr>
            <ns3:cad>47</ns3:cad>
          </ns3:TrackPointExtension>
        </extensions>
      </trkpt>
      <trkpt lat="43.4733521752059459686279296875" lon="1.461586654186248779296875">
        <ele>206.8000030517578125</ele>
        <time>2026-08-05T08:18:03.000Z</time>
        <extensions>
          <ns3:TrackPointExtension>
            <ns3:hr>72</ns3:hr>
            <ns3:cad>45</ns3:cad>
          </ns3:TrackPointExtension>
        </extensions>
      </trkpt>
      <trkpt lat="43.47335569560527801513671875" lon="1.46157181821763515472412109375">
        <ele>206.600006103515625</ele>
        <time>2026-08-05T08:18:04.000Z</time>
        <extensions>
          <ns3:TrackPointExtension>
            <ns3:hr>72</ns3:hr>
            <ns3:cad>45</ns3:cad>
          </ns3:TrackPointExtension>
        </extensions>
      </trkpt>
      <trkpt lat="43.4733603894710540771484375" lon="1.46155991591513156890869140625">
        <ele>206.600006103515625</ele>
        <time>2026-08-05T08:18:05.000Z</time>
        <extensions>
          <ns3:TrackPointExtension>
            <ns3:hr>72</ns3:hr>
            <ns3:cad>45</ns3:cad>
          </ns3:TrackPointExtension>
        </extensions>
      </trkpt>
      <trkpt lat="43.4733622334897518157958984375" lon="1.46154784597456455230712890625">
        <ele>206.600006103515625</ele>
        <time>2026-08-05T08:18:06.000Z</time>
        <extensions>
          <ns3:TrackPointExtension>
            <ns3:hr>71</ns3:hr>
            <ns3:cad>48</ns3:cad>
          </ns3:TrackPointExtension>
        </extensions>
      </trkpt>
      <trkpt lat="43.473367430269718170166015625" lon="1.46153124980628490447998046875">
        <ele>206.600006103515625</ele>
        <time>2026-08-05T08:18:07.000Z</time>
        <extensions>
          <ns3:TrackPointExtension>
            <ns3:hr>70</ns3:hr>
            <ns3:cad>48</ns3:cad>
          </ns3:TrackPointExtension>
        </extensions>
      </trkpt>
      <trkpt lat="43.473369441926479339599609375" lon="1.46151482127606868743896484375">
        <ele>206.600006103515625</ele>
        <time>2026-08-05T08:18:08.000Z</time>
        <extensions>
          <ns3:TrackPointExtension>
            <ns3:hr>70</ns3:hr>
            <ns3:cad>49</ns3:cad>
          </ns3:TrackPointExtension>
        </extensions>
      </trkpt>
      <trkpt lat="43.47337237559258937835693359375" lon="1.4614996500313282012939453125">
        <ele>206.600006103515625</ele>
        <time>2026-08-05T08:18:09.000Z</time>
        <extensions>
          <ns3:TrackPointExtension>
            <ns3:hr>70</ns3:hr>
            <ns3:cad>49</ns3:cad>
          </ns3:TrackPointExtension>
        </extensions>
      </trkpt>
      <trkpt lat="43.473375141620635986328125" lon="1.4614875800907611846923828125">
        <ele>206.600006103515625</ele>
        <time>2026-08-05T08:18:10.000Z</time>
        <extensions>
          <ns3:TrackPointExtension>
            <ns3:hr>70</ns3:hr>
            <ns3:cad>48</ns3:cad>
          </ns3:TrackPointExtension>
        </extensions>
      </trkpt>
      <trkpt lat="43.47337874583899974822998046875" lon="1.46147676743566989898681640625">
        <ele>206.600006103515625</ele>
        <time>2026-08-05T08:18:11.000Z</time>
        <extensions>
          <ns3:TrackPointExtension>
            <ns3:hr>71</ns3:hr>
            <ns3:cad>48</ns3:cad>
          </ns3:TrackPointExtension>
        </extensions>
      </trkpt>
      <trkpt lat="43.47338327206671237945556640625" lon="1.4614620991051197052001953125">
        <ele>206.600006103515625</ele>
        <time>2026-08-05T08:18:12.000Z</time>
        <extensions>
          <ns3:TrackPointExtension>
            <ns3:hr>71</ns3:hr>
            <ns3:cad>48</ns3:cad>
          </ns3:TrackPointExtension>
        </extensions>
      </trkpt>
      <trkpt lat="43.4733870439231395721435546875" lon="1.46145053207874298095703125">
        <ele>206.600006103515625</ele>
        <time>2026-08-05T08:18:13.000Z</time>
        <extensions>
          <ns3:TrackPointExtension>
            <ns3:hr>71</ns3:hr>
            <ns3:cad>47</ns3:cad>
          </ns3:TrackPointExtension>
        </extensions>
      </trkpt>
      <trkpt lat="43.47339115105569362640380859375" lon="1.4614403061568737030029296875">
        <ele>206.600006103515625</ele>
        <time>2026-08-05T08:18:14.000Z</time>
        <extensions>
          <ns3:TrackPointExtension>
            <ns3:hr>70</ns3:hr>
            <ns3:cad>47</ns3:cad>
          </ns3:TrackPointExtension>
        </extensions>
      </trkpt>
      <trkpt lat="43.47339534200727939605712890625" lon="1.461434774100780487060546875">
        <ele>206.600006103515625</ele>
        <time>2026-08-05T08:18:15.000Z</time>
        <extensions>
          <ns3:TrackPointExtension>
            <ns3:hr>70</ns3:hr>
            <ns3:cad>47</ns3:cad>
          </ns3:TrackPointExtension>
        </extensions>
      </trkpt>
      <trkpt lat="43.473402298986911773681640625" lon="1.4614222012460231781005859375">
        <ele>206.399993896484375</ele>
        <time>2026-08-05T08:18:16.000Z</time>
        <extensions>
          <ns3:TrackPointExtension>
            <ns3:hr>71</ns3:hr>
            <ns3:cad>47</ns3:cad>
          </ns3:TrackPointExtension>
        </extensions>
      </trkpt>
      <trkpt lat="43.4734059870243072509765625" lon="1.46141138859093189239501953125">
        <ele>206.399993896484375</ele>
        <time>2026-08-05T08:18:17.000Z</time>
        <extensions>
          <ns3:TrackPointExtension>
            <ns3:hr>71</ns3:hr>
            <ns3:cad>47</ns3:cad>
          </ns3:TrackPointExtension>
        </extensions>
      </trkpt>
      <trkpt lat="43.4734125249087810516357421875" lon="1.4614002406597137451171875">
        <ele>206.399993896484375</ele>
        <time>2026-08-05T08:18:18.000Z</time>
        <extensions>
          <ns3:TrackPointExtension>
            <ns3:hr>71</ns3:hr>
            <ns3:cad>47</ns3:cad>
          </ns3:TrackPointExtension>
        </extensions>
      </trkpt>
      <trkpt lat="43.47341394983232021331787109375" lon="1.46139244548976421356201171875">
        <ele>206.1999969482421875</ele>
        <time>2026-08-05T08:18:19.000Z</time>
        <extensions>
          <ns3:TrackPointExtension>
            <ns3:hr>71</ns3:hr>
            <ns3:cad>47</ns3:cad>
          </ns3:TrackPointExtension>
        </extensions>
      </trkpt>
      <trkpt lat="43.47341562621295452117919921875" lon="1.46138071082532405853271484375">
        <ele>206.1999969482421875</ele>
        <time>2026-08-05T08:18:20.000Z</time>
        <extensions>
          <ns3:TrackPointExtension>
            <ns3:hr>72</ns3:hr>
            <ns3:cad>47</ns3:cad>
          </ns3:TrackPointExtension>
        </extensions>
      </trkpt>
      <trkpt lat="43.47342132590711116790771484375" lon="1.46136310882866382598876953125">
        <ele>206.1999969482421875</ele>
        <time>2026-08-05T08:18:21.000Z</time>
        <extensions>
          <ns3:TrackPointExtension>
            <ns3:hr>72</ns3:hr>
            <ns3:cad>47</ns3:cad>
          </ns3:TrackPointExtension>
        </extensions>
      </trkpt>
      <trkpt lat="43.47342333756387233734130859375" lon="1.46135103888809680938720703125">
        <ele>206</ele>
        <time>2026-08-05T08:18:22.000Z</time>
        <extensions>
          <ns3:TrackPointExtension>
            <ns3:hr>72</ns3:hr>
            <ns3:cad>47</ns3:cad>
          </ns3:TrackPointExtension>
        </extensions>
      </trkpt>
      <trkpt lat="43.4734235890209674835205078125" lon="1.46134131588041782379150390625">
        <ele>206</ele>
        <time>2026-08-05T08:18:23.000Z</time>
        <extensions>
          <ns3:TrackPointExtension>
            <ns3:hr>72</ns3:hr>
            <ns3:cad>44</ns3:cad>
          </ns3:TrackPointExtension>
        </extensions>
      </trkpt>
      <trkpt lat="43.473427109420299530029296875" lon="1.4613300003111362457275390625">
        <ele>206</ele>
        <time>2026-08-05T08:18:24.000Z</time>
        <extensions>
          <ns3:TrackPointExtension>
            <ns3:hr>72</ns3:hr>
            <ns3:cad>44</ns3:cad>
          </ns3:TrackPointExtension>
        </extensions>
      </trkpt>
      <trkpt lat="43.47343088127672672271728515625" lon="1.4613165892660617828369140625">
        <ele>206.1999969482421875</ele>
        <time>2026-08-05T08:18:25.000Z</time>
        <extensions>
          <ns3:TrackPointExtension>
            <ns3:hr>72</ns3:hr>
            <ns3:cad>44</ns3:cad>
          </ns3:TrackPointExtension>
        </extensions>
      </trkpt>
      <trkpt lat="43.4734376706182956695556640625" lon="1.46129622124135494232177734375">
        <ele>206.1999969482421875</ele>
        <time>2026-08-05T08:18:26.000Z</time>
        <extensions>
          <ns3:TrackPointExtension>
            <ns3:hr>72</ns3:hr>
            <ns3:cad>0</ns3:cad>
          </ns3:TrackPointExtension>
        </extensions>
      </trkpt>
      <trkpt lat="43.47344077192246913909912109375" lon="1.461284570395946502685546875">
        <ele>206</ele>
        <time>2026-08-05T08:18:27.000Z</time>
        <extensions>
          <ns3:TrackPointExtension>
            <ns3:hr>72</ns3:hr>
            <ns3:cad>0</ns3:cad>
          </ns3:TrackPointExtension>
        </extensions>
      </trkpt>
      <trkpt lat="43.47344462759792804718017578125" lon="1.46127828396856784820556640625">
        <ele>206</ele>
        <time>2026-08-05T08:18:28.000Z</time>
        <extensions>
          <ns3:TrackPointExtension>
            <ns3:hr>71</ns3:hr>
            <ns3:cad>0</ns3:cad>
          </ns3:TrackPointExtension>
        </extensions>
      </trkpt>
      <trkpt lat="43.47344479523599147796630859375" lon="1.46127828396856784820556640625">
        <ele>205.8000030517578125</ele>
        <time>2026-08-05T08:18:29.000Z</time>
        <extensions>
          <ns3:TrackPointExtension>
            <ns3:hr>72</ns3:hr>
            <ns3:cad>0</ns3:cad>
          </ns3:TrackPointExtension>
        </extensions>
      </trkpt>
      <trkpt lat="43.47344479523599147796630859375" lon="1.461275517940521240234375">
        <ele>205.8000030517578125</ele>
        <time>2026-08-05T08:18:30.000Z</time>
        <extensions>
          <ns3:TrackPointExtension>
            <ns3:hr>72</ns3:hr>
            <ns3:cad>0</ns3:cad>
          </ns3:TrackPointExtension>
        </extensions>
      </trkpt>
      <trkpt lat="43.4734463877975940704345703125" lon="1.46127208136022090911865234375">
        <ele>205.8000030517578125</ele>
        <time>2026-08-05T08:18:31.000Z</time>
        <extensions>
          <ns3:TrackPointExtension>
            <ns3:hr>72</ns3:hr>
            <ns3:cad>0</ns3:cad>
          </ns3:TrackPointExtension>
        </extensions>
      </trkpt>
      <trkpt lat="43.47345267422497272491455078125" lon="1.46126654930412769317626953125">
        <ele>205.8000030517578125</ele>
        <time>2026-08-05T08:18:32.000Z</time>
        <extensions>
          <ns3:TrackPointExtension>
            <ns3:hr>72</ns3:hr>
            <ns3:cad>0</ns3:cad>
          </ns3:TrackPointExtension>
        </extensions>
      </trkpt>
      <trkpt lat="43.47345921210944652557373046875" lon="1.46124743856489658355712890625">
        <ele>205.8000030517578125</ele>
        <time>2026-08-05T08:18:33.000Z</time>
        <extensions>
          <ns3:TrackPointExtension>
            <ns3:hr>72</ns3:hr>
            <ns3:cad>0</ns3:cad>
          </ns3:TrackPointExtension>
        </extensions>
      </trkpt>
      <trkpt lat="43.47346005029976367950439453125" lon="1.461238302290439605712890625">
        <ele>205.8000030517578125</ele>
        <time>2026-08-05T08:18:34.000Z</time>
        <extensions>
          <ns3:TrackPointExtension>
            <ns3:hr>72</ns3:hr>
            <ns3:cad>0</ns3:cad>
          </ns3:TrackPointExtension>
        </extensions>
      </trkpt>
      <trkpt lat="43.47346859984099864959716796875" lon="1.4612220413982868194580078125">
        <ele>205.8000030517578125</ele>
        <time>2026-08-05T08:18:35.000Z</time>
        <extensions>
          <ns3:TrackPointExtension>
            <ns3:hr>72</ns3:hr>
            <ns3:cad>0</ns3:cad>
          </ns3:TrackPointExtension>
        </extensions>
      </trkpt>
      <trkpt lat="43.47347346134483814239501953125" lon="1.46120368503034114837646484375">
        <ele>205.8000030517578125</ele>
        <time>2026-08-05T08:18:36.000Z</time>
        <extensions>
          <ns3:TrackPointExtension>
            <ns3:hr>72</ns3:hr>
            <ns3:cad>0</ns3:cad>
          </ns3:TrackPointExtension>
        </extensions>
      </trkpt>
      <trkpt lat="43.4734742157161235809326171875" lon="1.461192034184932708740234375">
        <ele>205.8000030517578125</ele>
        <time>2026-08-05T08:18:37.000Z</time>
        <extensions>
          <ns3:TrackPointExtension>
            <ns3:hr>71</ns3:hr>
            <ns3:cad>0</ns3:cad>
          </ns3:TrackPointExtension>
        </extensions>
      </trkpt>
      <trkpt lat="43.47347882576286792755126953125" lon="1.461179964244365692138671875">
        <ele>205.8000030517578125</ele>
        <time>2026-08-05T08:18:38.000Z</time>
        <extensions>
          <ns3:TrackPointExtension>
            <ns3:hr>71</ns3:hr>
            <ns3:cad>48</ns3:cad>
          </ns3:TrackPointExtension>
        </extensions>
      </trkpt>
      <trkpt lat="43.4734846092760562896728515625" lon="1.46116781048476696014404296875">
        <ele>205.8000030517578125</ele>
        <time>2026-08-05T08:18:39.000Z</time>
        <extensions>
          <ns3:TrackPointExtension>
            <ns3:hr>72</ns3:hr>
            <ns3:cad>48</ns3:cad>
          </ns3:TrackPointExtension>
        </extensions>
      </trkpt>
      <trkpt lat="43.47348972223699092864990234375" lon="1.46115724928677082061767578125">
        <ele>205.600006103515625</ele>
        <time>2026-08-05T08:18:40.000Z</time>
        <extensions>
          <ns3:TrackPointExtension>
            <ns3:hr>72</ns3:hr>
            <ns3:cad>48</ns3:cad>
          </ns3:TrackPointExtension>
        </extensions>
      </trkpt>
      <trkpt lat="43.47349517047405242919921875" lon="1.46114584989845752716064453125">
        <ele>205.600006103515625</ele>
        <time>2026-08-05T08:18:41.000Z</time>
        <extensions>
          <ns3:TrackPointExtension>
            <ns3:hr>72</ns3:hr>
            <ns3:cad>46</ns3:cad>
          </ns3:TrackPointExtension>
        </extensions>
      </trkpt>
      <trkpt lat="43.473500199615955352783203125" lon="1.46113612689077854156494140625">
        <ele>205.600006103515625</ele>
        <time>2026-08-05T08:18:42.000Z</time>
        <extensions>
          <ns3:TrackPointExtension>
            <ns3:hr>72</ns3:hr>
            <ns3:cad>46</ns3:cad>
          </ns3:TrackPointExtension>
        </extensions>
      </trkpt>
      <trkpt lat="43.47350648604333400726318359375" lon="1.46112405695021152496337890625">
        <ele>205.600006103515625</ele>
        <time>2026-08-05T08:18:43.000Z</time>
        <extensions>
          <ns3:TrackPointExtension>
            <ns3:hr>72</ns3:hr>
            <ns3:cad>46</ns3:cad>
          </ns3:TrackPointExtension>
        </extensions>
      </trkpt>
      <trkpt lat="43.47350916825234889984130859375" lon="1.46111316047608852386474609375">
        <ele>205.600006103515625</ele>
        <time>2026-08-05T08:18:44.000Z</time>
        <extensions>
          <ns3:TrackPointExtension>
            <ns3:hr>73</ns3:hr>
            <ns3:cad>50</ns3:cad>
          </ns3:TrackPointExtension>
        </extensions>
      </trkpt>
      <trkpt lat="43.47351528704166412353515625" lon="1.461100168526172637939453125">
        <ele>205.600006103515625</ele>
        <time>2026-08-05T08:18:45.000Z</time>
        <extensions>
          <ns3:TrackPointExtension>
            <ns3:hr>74</ns3:hr>
            <ns3:cad>50</ns3:cad>
          </ns3:TrackPointExtension>
        </extensions>
      </trkpt>
      <trkpt lat="43.4735208190977573394775390625" lon="1.46108700893819332122802734375">
        <ele>205.600006103515625</ele>
        <time>2026-08-05T08:18:46.000Z</time>
        <extensions>
          <ns3:TrackPointExtension>
            <ns3:hr>74</ns3:hr>
            <ns3:cad>48</ns3:cad>
          </ns3:TrackPointExtension>
        </extensions>
      </trkpt>
      <trkpt lat="43.47352467477321624755859375" lon="1.46107326261699199676513671875">
        <ele>205.600006103515625</ele>
        <time>2026-08-05T08:18:47.000Z</time>
        <extensions>
          <ns3:TrackPointExtension>
            <ns3:hr>75</ns3:hr>
            <ns3:cad>47</ns3:cad>
          </ns3:TrackPointExtension>
        </extensions>
      </trkpt>
      <trkpt lat="43.473530374467372894287109375" lon="1.46106169559061527252197265625">
        <ele>205.399993896484375</ele>
        <time>2026-08-05T08:18:48.000Z</time>
        <extensions>
          <ns3:TrackPointExtension>
            <ns3:hr>75</ns3:hr>
            <ns3:cad>47</ns3:cad>
          </ns3:TrackPointExtension>
        </extensions>
      </trkpt>
      <trkpt lat="43.4735345654189586639404296875" lon="1.4610507152974605560302734375">
        <ele>205.399993896484375</ele>
        <time>2026-08-05T08:18:49.000Z</time>
        <extensions>
          <ns3:TrackPointExtension>
            <ns3:hr>75</ns3:hr>
            <ns3:cad>47</ns3:cad>
          </ns3:TrackPointExtension>
        </extensions>
      </trkpt>
      <trkpt lat="43.47354135476052761077880859375" lon="1.46103520877659320831298828125">
        <ele>205.399993896484375</ele>
        <time>2026-08-05T08:18:50.000Z</time>
        <extensions>
          <ns3:TrackPointExtension>
            <ns3:hr>75</ns3:hr>
            <ns3:cad>49</ns3:cad>
          </ns3:TrackPointExtension>
        </extensions>
      </trkpt>
      <trkpt lat="43.47354453988373279571533203125" lon="1.46103034727275371551513671875">
        <ele>205.399993896484375</ele>
        <time>2026-08-05T08:18:51.000Z</time>
        <extensions>
          <ns3:TrackPointExtension>
            <ns3:hr>75</ns3:hr>
            <ns3:cad>49</ns3:cad>
          </ns3:TrackPointExtension>
        </extensions>
      </trkpt>
      <trkpt lat="43.4735463000833988189697265625" lon="1.46102816797792911529541015625">
        <ele>205.399993896484375</ele>
        <time>2026-08-05T08:18:52.000Z</time>
        <extensions>
          <ns3:TrackPointExtension>
            <ns3:hr>75</ns3:hr>
            <ns3:cad>49</ns3:cad>
          </ns3:TrackPointExtension>
        </extensions>
      </trkpt>
      <trkpt lat="43.47354412078857421875" lon="1.46102783270180225372314453125">
        <ele>205.399993896484375</ele>
        <time>2026-08-05T08:18:53.000Z</time>
        <extensions>
          <ns3:TrackPointExtension>
            <ns3:hr>75</ns3:hr>
            <ns3:cad>0</ns3:cad>
          </ns3:TrackPointExtension>
        </extensions>
      </trkpt>
      <trkpt lat="43.47354336641728878021240234375" lon="1.46102582104504108428955078125">
        <ele>205.1999969482421875</ele>
        <time>2026-08-05T08:18:54.000Z</time>
        <extensions>
          <ns3:TrackPointExtension>
            <ns3:hr>75</ns3:hr>
            <ns3:cad>0</ns3:cad>
          </ns3:TrackPointExtension>
        </extensions>
      </trkpt>
      <trkpt lat="43.47354185767471790313720703125" lon="1.46102263592183589935302734375">
        <ele>205.1999969482421875</ele>
        <time>2026-08-05T08:18:55.000Z</time>
        <extensions>
          <ns3:TrackPointExtension>
            <ns3:hr>75</ns3:hr>
            <ns3:cad>0</ns3:cad>
          </ns3:TrackPointExtension>
        </extensions>
      </trkpt>
      <trkpt lat="43.473542444407939910888671875" lon="1.461013667285442352294921875">
        <ele>205.1999969482421875</ele>
        <time>2026-08-05T08:18:56.000Z</time>
        <extensions>
          <ns3:TrackPointExtension>
            <ns3:hr>75</ns3:hr>
            <ns3:cad>0</ns3:cad>
          </ns3:TrackPointExtension>
        </extensions>
      </trkpt>
      <trkpt lat="43.4735473059117794036865234375" lon="1.46099966950714588165283203125">
        <ele>205.1999969482421875</ele>
        <time>2026-08-05T08:18:57.000Z</time>
        <extensions>
          <ns3:TrackPointExtension>
            <ns3:hr>75</ns3:hr>
            <ns3:cad>0</ns3:cad>
          </ns3:TrackPointExtension>
        </extensions>
      </trkpt>
      <trkpt lat="43.47355275414884090423583984375" lon="1.46098785102367401123046875">
        <ele>205.1999969482421875</ele>
        <time>2026-08-05T08:18:58.000Z</time>
        <extensions>
          <ns3:TrackPointExtension>
            <ns3:hr>75</ns3:hr>
            <ns3:cad>0</ns3:cad>
          </ns3:TrackPointExtension>
        </extensions>
      </trkpt>
      <trkpt lat="43.473557196557521820068359375" lon="1.46097737364470958709716796875">
        <ele>205</ele>
        <time>2026-08-05T08:18:59.000Z</time>
        <extensions>
          <ns3:TrackPointExtension>
            <ns3:hr>75</ns3:hr>
            <ns3:cad>0</ns3:cad>
          </ns3:TrackPointExtension>
        </extensions>
      </trkpt>
      <trkpt lat="43.473559878766536712646484375" lon="1.46096580661833286285400390625">
        <ele>205</ele>
        <time>2026-08-05T08:19:00.000Z</time>
        <extensions>
          <ns3:TrackPointExtension>
            <ns3:hr>74</ns3:hr>
            <ns3:cad>0</ns3:cad>
          </ns3:TrackPointExtension>
        </extensions>
      </trkpt>
      <trkpt lat="43.47356566227972507476806640625" lon="1.4609563350677490234375">
        <ele>204.8000030517578125</ele>
        <time>2026-08-05T08:19:01.000Z</time>
        <extensions>
          <ns3:TrackPointExtension>
            <ns3:hr>74</ns3:hr>
            <ns3:cad>0</ns3:cad>
          </ns3:TrackPointExtension>
        </extensions>
      </trkpt>
      <trkpt lat="43.47357094287872314453125" lon="1.460939235985279083251953125">
        <ele>204.8000030517578125</ele>
        <time>2026-08-05T08:19:02.000Z</time>
        <extensions>
          <ns3:TrackPointExtension>
            <ns3:hr>74</ns3:hr>
            <ns3:cad>0</ns3:cad>
          </ns3:TrackPointExtension>
        </extensions>
      </trkpt>
      <trkpt lat="43.47357622347772121429443359375" lon="1.46092037670314311981201171875">
        <ele>204.600006103515625</ele>
        <time>2026-08-05T08:19:03.000Z</time>
        <extensions>
          <ns3:TrackPointExtension>
            <ns3:hr>74</ns3:hr>
            <ns3:cad>51</ns3:cad>
          </ns3:TrackPointExtension>
        </extensions>
      </trkpt>
      <trkpt lat="43.47358058206737041473388671875" lon="1.46090579219162464141845703125">
        <ele>204.600006103515625</ele>
        <time>2026-08-05T08:19:04.000Z</time>
        <extensions>
          <ns3:TrackPointExtension>
            <ns3:hr>74</ns3:hr>
            <ns3:cad>51</ns3:cad>
          </ns3:TrackPointExtension>
        </extensions>
      </trkpt>
      <trkpt lat="43.47358628176152706146240234375" lon="1.46089087240397930145263671875">
        <ele>204.600006103515625</ele>
        <time>2026-08-05T08:19:05.000Z</time>
        <extensions>
          <ns3:TrackPointExtension>
            <ns3:hr>73</ns3:hr>
            <ns3:cad>51</ns3:cad>
          </ns3:TrackPointExtension>
        </extensions>
      </trkpt>
      <trkpt lat="43.473592065274715423583984375" lon="1.460879556834697723388671875">
        <ele>204.600006103515625</ele>
        <time>2026-08-05T08:19:06.000Z</time>
        <extensions>
          <ns3:TrackPointExtension>
            <ns3:hr>73</ns3:hr>
            <ns3:cad>50</ns3:cad>
          </ns3:TrackPointExtension>
        </extensions>
      </trkpt>
      <trkpt lat="43.47359801642596721649169921875" lon="1.460869498550891876220703125">
        <ele>204.600006103515625</ele>
        <time>2026-08-05T08:19:07.000Z</time>
        <extensions>
          <ns3:TrackPointExtension>
            <ns3:hr>72</ns3:hr>
            <ns3:cad>50</ns3:cad>
          </ns3:TrackPointExtension>
        </extensions>
      </trkpt>
      <trkpt lat="43.4736046381294727325439453125" lon="1.460856087505817413330078125">
        <ele>204.8000030517578125</ele>
        <time>2026-08-05T08:19:08.000Z</time>
        <extensions>
          <ns3:TrackPointExtension>
            <ns3:hr>73</ns3:hr>
            <ns3:cad>50</ns3:cad>
          </ns3:TrackPointExtension>
        </extensions>
      </trkpt>
      <trkpt lat="43.4736103378236293792724609375" lon="1.46084435284137725830078125">
        <ele>204.8000030517578125</ele>
        <time>2026-08-05T08:19:09.000Z</time>
        <extensions>
          <ns3:TrackPointExtension>
            <ns3:hr>73</ns3:hr>
            <ns3:cad>50</ns3:cad>
          </ns3:TrackPointExtension>
        </extensions>
      </trkpt>
      <trkpt lat="43.4736160375177860260009765625" lon="1.46083362400531768798828125">
        <ele>204.8000030517578125</ele>
        <time>2026-08-05T08:19:10.000Z</time>
        <extensions>
          <ns3:TrackPointExtension>
            <ns3:hr>73</ns3:hr>
            <ns3:cad>50</ns3:cad>
          </ns3:TrackPointExtension>
        </extensions>
      </trkpt>
      <trkpt lat="43.47361796535551548004150390625" lon="1.46082398481667041778564453125">
        <ele>204.8000030517578125</ele>
        <time>2026-08-05T08:19:11.000Z</time>
        <extensions>
          <ns3:TrackPointExtension>
            <ns3:hr>73</ns3:hr>
            <ns3:cad>49</ns3:cad>
          </ns3:TrackPointExtension>
        </extensions>
      </trkpt>
      <trkpt lat="43.47362115047872066497802734375" lon="1.4608109928667545318603515625">
        <ele>204.600006103515625</ele>
        <time>2026-08-05T08:19:12.000Z</time>
        <extensions>
          <ns3:TrackPointExtension>
            <ns3:hr>73</ns3:hr>
            <ns3:cad>47</ns3:cad>
          </ns3:TrackPointExtension>
        </extensions>
      </trkpt>
      <trkpt lat="43.4736287780106067657470703125" lon="1.4607948996126651763916015625">
        <ele>204.600006103515625</ele>
        <time>2026-08-05T08:19:13.000Z</time>
        <extensions>
          <ns3:TrackPointExtension>
            <ns3:hr>74</ns3:hr>
            <ns3:cad>47</ns3:cad>
          </ns3:TrackPointExtension>
        </extensions>
      </trkpt>
      <trkpt lat="43.4736311249434947967529296875" lon="1.46078140474855899810791015625">
        <ele>204.600006103515625</ele>
        <time>2026-08-05T08:19:14.000Z</time>
        <extensions>
          <ns3:TrackPointExtension>
            <ns3:hr>74</ns3:hr>
            <ns3:cad>47</ns3:cad>
          </ns3:TrackPointExtension>
        </extensions>
      </trkpt>
      <trkpt lat="43.47363439388573169708251953125" lon="1.460767574608325958251953125">
        <ele>204.600006103515625</ele>
        <time>2026-08-05T08:19:15.000Z</time>
        <extensions>
          <ns3:TrackPointExtension>
            <ns3:hr>73</ns3:hr>
            <ns3:cad>47</ns3:cad>
          </ns3:TrackPointExtension>
        </extensions>
      </trkpt>
      <trkpt lat="43.47363724373281002044677734375" lon="1.46075659431517124176025390625">
        <ele>204.399993896484375</ele>
        <time>2026-08-05T08:19:16.000Z</time>
        <extensions>
          <ns3:TrackPointExtension>
            <ns3:hr>73</ns3:hr>
            <ns3:cad>47</ns3:cad>
          </ns3:TrackPointExtension>
        </extensions>
      </trkpt>
      <trkpt lat="43.473643027245998382568359375" lon="1.46074402146041393280029296875">
        <ele>204.399993896484375</ele>
        <time>2026-08-05T08:19:17.000Z</time>
        <extensions>
          <ns3:TrackPointExtension>
            <ns3:hr>73</ns3:hr>
            <ns3:cad>48</ns3:cad>
          </ns3:TrackPointExtension>
        </extensions>
      </trkpt>
      <trkpt lat="43.47364713437855243682861328125" lon="1.46073480136692523956298828125">
        <ele>204.399993896484375</ele>
        <time>2026-08-05T08:19:18.000Z</time>
        <extensions>
          <ns3:TrackPointExtension>
            <ns3:hr>73</ns3:hr>
            <ns3:cad>48</ns3:cad>
          </ns3:TrackPointExtension>
        </extensions>
      </trkpt>
      <trkpt lat="43.47365400753915309906005859375" lon="1.46071971394121646881103515625">
        <ele>204.399993896484375</ele>
        <time>2026-08-05T08:19:19.000Z</time>
        <extensions>
          <ns3:TrackPointExtension>
            <ns3:hr>73</ns3:hr>
            <ns3:cad>49</ns3:cad>
          </ns3:TrackPointExtension>
        </extensions>
      </trkpt>
      <trkpt lat="43.47366104833781719207763671875" lon="1.46070596762001514434814453125">
        <ele>204.399993896484375</ele>
        <time>2026-08-05T08:19:20.000Z</time>
        <extensions>
          <ns3:TrackPointExtension>
            <ns3:hr>73</ns3:hr>
            <ns3:cad>49</ns3:cad>
          </ns3:TrackPointExtension>
        </extensions>
      </trkpt>
      <trkpt lat="43.47366909496486186981201171875" lon="1.4606921374797821044921875">
        <ele>204.399993896484375</ele>
        <time>2026-08-05T08:19:21.000Z</time>
        <extensions>
          <ns3:TrackPointExtension>
            <ns3:hr>74</ns3:hr>
            <ns3:cad>48</ns3:cad>
          </ns3:TrackPointExtension>
        </extensions>
      </trkpt>
      <trkpt lat="43.47367621958255767822265625" lon="1.46068216301500797271728515625">
        <ele>204.399993896484375</ele>
        <time>2026-08-05T08:19:22.000Z</time>
        <extensions>
          <ns3:TrackPointExtension>
            <ns3:hr>74</ns3:hr>
            <ns3:cad>48</ns3:cad>
          </ns3:TrackPointExtension>
        </extensions>
      </trkpt>
      <trkpt lat="43.47368066199123859405517578125" lon="1.4606695063412189483642578125">
        <ele>204.1999969482421875</ele>
        <time>2026-08-05T08:19:23.000Z</time>
        <extensions>
          <ns3:TrackPointExtension>
            <ns3:hr>74</ns3:hr>
            <ns3:cad>48</ns3:cad>
          </ns3:TrackPointExtension>
        </extensions>
      </trkpt>
      <trkpt lat="43.47368921153247356414794921875" lon="1.4606571011245250701904296875">
        <ele>204.1999969482421875</ele>
        <time>2026-08-05T08:19:24.000Z</time>
        <extensions>
          <ns3:TrackPointExtension>
            <ns3:hr>75</ns3:hr>
            <ns3:cad>48</ns3:cad>
          </ns3:TrackPointExtension>
        </extensions>
      </trkpt>
      <trkpt lat="43.47369767725467681884765625" lon="1.460643522441387176513671875">
        <ele>204.1999969482421875</ele>
        <time>2026-08-05T08:19:25.000Z</time>
        <extensions>
          <ns3:TrackPointExtension>
            <ns3:hr>75</ns3:hr>
            <ns3:cad>48</ns3:cad>
          </ns3:TrackPointExtension>
        </extensions>
      </trkpt>
      <trkpt lat="43.47370329312980175018310546875" lon="1.460632123053073883056640625">
        <ele>204.1999969482421875</ele>
        <time>2026-08-05T08:19:26.000Z</time>
        <extensions>
          <ns3:TrackPointExtension>
            <ns3:hr>75</ns3:hr>
            <ns3:cad>48</ns3:cad>
          </ns3:TrackPointExtension>
        </extensions>
      </trkpt>
      <trkpt lat="43.47370983101427555084228515625" lon="1.46062483079731464385986328125">
        <ele>204.1999969482421875</ele>
        <time>2026-08-05T08:19:27.000Z</time>
        <extensions>
          <ns3:TrackPointExtension>
            <ns3:hr>76</ns3:hr>
            <ns3:cad>48</ns3:cad>
          </ns3:TrackPointExtension>
        </extensions>
      </trkpt>
      <trkpt lat="43.473716787993907928466796875" lon="1.46061410196125507354736328125">
        <ele>204.1999969482421875</ele>
        <time>2026-08-05T08:19:28.000Z</time>
        <extensions>
          <ns3:TrackPointExtension>
            <ns3:hr>77</ns3:hr>
            <ns3:cad>49</ns3:cad>
          </ns3:TrackPointExtension>
        </extensions>
      </trkpt>
      <trkpt lat="43.473725505173206329345703125" lon="1.46059918217360973358154296875">
        <ele>204.1999969482421875</ele>
        <time>2026-08-05T08:19:29.000Z</time>
        <extensions>
          <ns3:TrackPointExtension>
            <ns3:hr>78</ns3:hr>
            <ns3:cad>50</ns3:cad>
          </ns3:TrackPointExtension>
        </extensions>
      </trkpt>
      <trkpt lat="43.47373195923864841461181640625" lon="1.46059046499431133270263671875">
        <ele>204.1999969482421875</ele>
        <time>2026-08-05T08:19:30.000Z</time>
        <extensions>
          <ns3:TrackPointExtension>
            <ns3:hr>78</ns3:hr>
            <ns3:cad>50</ns3:cad>
          </ns3:TrackPointExtension>
        </extensions>
      </trkpt>
      <trkpt lat="43.47374084405601024627685546875" lon="1.4605821669101715087890625">
        <ele>204.1999969482421875</ele>
        <time>2026-08-05T08:19:31.000Z</time>
        <extensions>
          <ns3:TrackPointExtension>
            <ns3:hr>78</ns3:hr>
            <ns3:cad>51</ns3:cad>
          </ns3:TrackPointExtension>
        </extensions>
      </trkpt>
      <trkpt lat="43.47374319098889827728271484375" lon="1.460581161081790924072265625">
        <ele>204.1999969482421875</ele>
        <time>2026-08-05T08:19:32.000Z</time>
        <extensions>
          <ns3:TrackPointExtension>
            <ns3:hr>78</ns3:hr>
            <ns3:cad>50</ns3:cad>
          </ns3:TrackPointExtension>
        </extensions>
      </trkpt>
      <trkpt lat="43.47374998033046722412109375" lon="1.46057286299765110015869140625">
        <ele>204.399993896484375</ele>
        <time>2026-08-05T08:19:33.000Z</time>
        <extensions>
          <ns3:TrackPointExtension>
            <ns3:hr>78</ns3:hr>
            <ns3:cad>47</ns3:cad>
          </ns3:TrackPointExtension>
        </extensions>
      </trkpt>
      <trkpt lat="43.47375341691076755523681640625" lon="1.46055492572486400604248046875">
        <ele>204.399993896484375</ele>
        <time>2026-08-05T08:19:34.000Z</time>
        <extensions>
          <ns3:TrackPointExtension>
            <ns3:hr>78</ns3:hr>
            <ns3:cad>47</ns3:cad>
          </ns3:TrackPointExtension>
        </extensions>
      </trkpt>
      <trkpt lat="43.4737518243491649627685546875" lon="1.460546962916851043701171875">
        <ele>204.399993896484375</ele>
        <time>2026-08-05T08:19:35.000Z</time>
        <extensions>
          <ns3:TrackPointExtension>
            <ns3:hr>78</ns3:hr>
            <ns3:cad>47</ns3:cad>
          </ns3:TrackPointExtension>
        </extensions>
      </trkpt>
      <trkpt lat="43.47375073470175266265869140625" lon="1.460545957088470458984375">
        <ele>204.1999969482421875</ele>
        <time>2026-08-05T08:19:36.000Z</time>
        <extensions>
          <ns3:TrackPointExtension>
            <ns3:hr>78</ns3:hr>
            <ns3:cad>47</ns3:cad>
          </ns3:TrackPointExtension>
        </extensions>
      </trkpt>
      <trkpt lat="43.4737451188266277313232421875" lon="1.4605414308607578277587890625">
        <ele>204.1999969482421875</ele>
        <time>2026-08-05T08:19:37.000Z</time>
        <extensions>
          <ns3:TrackPointExtension>
            <ns3:hr>77</ns3:hr>
            <ns3:cad>45</ns3:cad>
          </ns3:TrackPointExtension>
        </extensions>
      </trkpt>
      <trkpt lat="43.473740927875041961669921875" lon="1.4605338871479034423828125">
        <ele>204</ele>
        <time>2026-08-05T08:19:38.000Z</time>
        <extensions>
          <ns3:TrackPointExtension>
            <ns3:hr>77</ns3:hr>
            <ns3:cad>45</ns3:cad>
          </ns3:TrackPointExtension>
        </extensions>
      </trkpt>
      <trkpt lat="43.4737421013414859771728515625" lon="1.460522823035717010498046875">
        <ele>204</ele>
        <time>2026-08-05T08:19:39.000Z</time>
        <extensions>
          <ns3:TrackPointExtension>
            <ns3:hr>77</ns3:hr>
            <ns3:cad>45</ns3:cad>
          </ns3:TrackPointExtension>
        </extensions>
      </trkpt>
      <trkpt lat="43.4737454541027545928955078125" lon="1.4605177938938140869140625">
        <ele>203.8000030517578125</ele>
        <time>2026-08-05T08:19:40.000Z</time>
        <extensions>
          <ns3:TrackPointExtension>
            <ns3:hr>77</ns3:hr>
            <ns3:cad>48</ns3:cad>
          </ns3:TrackPointExtension>
        </extensions>
      </trkpt>
      <trkpt lat="43.473751656711101531982421875" lon="1.460509411990642547607421875">
        <ele>203.8000030517578125</ele>
        <time>2026-08-05T08:19:41.000Z</time>
        <extensions>
          <ns3:TrackPointExtension>
            <ns3:hr>77</ns3:hr>
            <ns3:cad>48</ns3:cad>
          </ns3:TrackPointExtension>
        </extensions>
      </trkpt>
      <trkpt lat="43.47375693731009960174560546875" lon="1.46049491129815578460693359375">
        <ele>203.8000030517578125</ele>
        <time>2026-08-05T08:19:42.000Z</time>
        <extensions>
          <ns3:TrackPointExtension>
            <ns3:hr>77</ns3:hr>
            <ns3:cad>50</ns3:cad>
          </ns3:TrackPointExtension>
        </extensions>
      </trkpt>
      <trkpt lat="43.47376163117587566375732421875" lon="1.460481248795986175537109375">
        <ele>204</ele>
        <time>2026-08-05T08:19:43.000Z</time>
        <extensions>
          <ns3:TrackPointExtension>
            <ns3:hr>77</ns3:hr>
            <ns3:cad>50</ns3:cad>
          </ns3:TrackPointExtension>
        </extensions>
      </trkpt>
      <trkpt lat="43.4737682528793811798095703125" lon="1.46046406589448451995849609375">
        <ele>204</ele>
        <time>2026-08-05T08:19:44.000Z</time>
        <extensions>
          <ns3:TrackPointExtension>
            <ns3:hr>77</ns3:hr>
            <ns3:cad>43</ns3:cad>
          </ns3:TrackPointExtension>
        </extensions>
      </trkpt>
      <trkpt lat="43.47377277910709381103515625" lon="1.460450403392314910888671875">
        <ele>204</ele>
        <time>2026-08-05T08:19:45.000Z</time>
        <extensions>
          <ns3:TrackPointExtension>
            <ns3:hr>76</ns3:hr>
            <ns3:cad>43</ns3:cad>
          </ns3:TrackPointExtension>
        </extensions>
      </trkpt>
      <trkpt lat="43.4737786464393138885498046875" lon="1.46043741144239902496337890625">
        <ele>204</ele>
        <time>2026-08-05T08:19:46.000Z</time>
        <extensions>
          <ns3:TrackPointExtension>
            <ns3:hr>77</ns3:hr>
            <ns3:cad>49</ns3:cad>
          </ns3:TrackPointExtension>
        </extensions>
      </trkpt>
      <trkpt lat="43.47378593869507312774658203125" lon="1.46042190492153167724609375">
        <ele>204</ele>
        <time>2026-08-05T08:19:47.000Z</time>
        <extensions>
          <ns3:TrackPointExtension>
            <ns3:hr>77</ns3:hr>
            <ns3:cad>49</ns3:cad>
          </ns3:TrackPointExtension>
        </extensions>
      </trkpt>
      <trkpt lat="43.4737940691411495208740234375" lon="1.4604026265442371368408203125">
        <ele>204</ele>
        <time>2026-08-05T08:19:48.000Z</time>
        <extensions>
          <ns3:TrackPointExtension>
            <ns3:hr>76</ns3:hr>
            <ns3:cad>50</ns3:cad>
          </ns3:TrackPointExtension>
        </extensions>
      </trkpt>
      <trkpt lat="43.47380203194916248321533203125" lon="1.46038569509983062744140625">
        <ele>204</ele>
        <time>2026-08-05T08:19:49.000Z</time>
        <extensions>
          <ns3:TrackPointExtension>
            <ns3:hr>76</ns3:hr>
            <ns3:cad>50</ns3:cad>
          </ns3:TrackPointExtension>
        </extensions>
      </trkpt>
      <trkpt lat="43.47381033003330230712890625" lon="1.46037002094089984893798828125">
        <ele>204</ele>
        <time>2026-08-05T08:19:50.000Z</time>
        <extensions>
          <ns3:TrackPointExtension>
            <ns3:hr>76</ns3:hr>
            <ns3:cad>52</ns3:cad>
          </ns3:TrackPointExtension>
        </extensions>
      </trkpt>
      <trkpt lat="43.47381846047937870025634765625" lon="1.46035543642938137054443359375">
        <ele>204</ele>
        <time>2026-08-05T08:19:51.000Z</time>
        <extensions>
          <ns3:TrackPointExtension>
            <ns3:hr>77</ns3:hr>
            <ns3:cad>52</ns3:cad>
          </ns3:TrackPointExtension>
        </extensions>
      </trkpt>
      <trkpt lat="43.47382566891610622406005859375" lon="1.460343115031719207763671875">
        <ele>204</ele>
        <time>2026-08-05T08:19:52.000Z</time>
        <extensions>
          <ns3:TrackPointExtension>
            <ns3:hr>77</ns3:hr>
            <ns3:cad>51</ns3:cad>
          </ns3:TrackPointExtension>
        </extensions>
      </trkpt>
      <trkpt lat="43.47383069805800914764404296875" lon="1.46033045835793018341064453125">
        <ele>204</ele>
        <time>2026-08-05T08:19:53.000Z</time>
        <extensions>
          <ns3:TrackPointExtension>
            <ns3:hr>77</ns3:hr>
            <ns3:cad>51</ns3:cad>
          </ns3:TrackPointExtension>
        </extensions>
      </trkpt>
      <trkpt lat="43.4738356433808803558349609375" lon="1.46031537093222141265869140625">
        <ele>204</ele>
        <time>2026-08-05T08:19:54.000Z</time>
        <extensions>
          <ns3:TrackPointExtension>
            <ns3:hr>78</ns3:hr>
            <ns3:cad>51</ns3:cad>
          </ns3:TrackPointExtension>
        </extensions>
      </trkpt>
      <trkpt lat="43.47384461201727390289306640625" lon="1.46030061878263950347900390625">
        <ele>204</ele>
        <time>2026-08-05T08:19:55.000Z</time>
        <extensions>
          <ns3:TrackPointExtension>
            <ns3:hr>78</ns3:hr>
            <ns3:cad>50</ns3:cad>
          </ns3:TrackPointExtension>
        </extensions>
      </trkpt>
      <trkpt lat="43.47384897060692310333251953125" lon="1.46028217859566211700439453125">
        <ele>204</ele>
        <time>2026-08-05T08:19:56.000Z</time>
        <extensions>
          <ns3:TrackPointExtension>
            <ns3:hr>78</ns3:hr>
            <ns3:cad>50</ns3:cad>
          </ns3:TrackPointExtension>
        </extensions>
      </trkpt>
      <trkpt lat="43.47385567612946033477783203125" lon="1.4602698571979999542236328125">
        <ele>204</ele>
        <time>2026-08-05T08:19:57.000Z</time>
        <extensions>
          <ns3:TrackPointExtension>
            <ns3:hr>78</ns3:hr>
            <ns3:cad>50</ns3:cad>
          </ns3:TrackPointExtension>
        </extensions>
      </trkpt>
      <trkpt lat="43.47385936416685581207275390625" lon="1.4602564461529254913330078125">
        <ele>204</ele>
        <time>2026-08-05T08:19:58.000Z</time>
        <extensions>
          <ns3:TrackPointExtension>
            <ns3:hr>78</ns3:hr>
            <ns3:cad>50</ns3:cad>
          </ns3:TrackPointExtension>
        </extensions>
      </trkpt>
      <trkpt lat="43.473864309489727020263671875" lon="1.46024278365075588226318359375">
        <ele>204</ele>
        <time>2026-08-05T08:19:59.000Z</time>
        <extensions>
          <ns3:TrackPointExtension>
            <ns3:hr>79</ns3:hr>
            <ns3:cad>50</ns3:cad>
          </ns3:TrackPointExtension>
        </extensions>
      </trkpt>
      <trkpt lat="43.47387093119323253631591796875" lon="1.4602267742156982421875">
        <ele>204</ele>
        <time>2026-08-05T08:20:00.000Z</time>
        <extensions>
          <ns3:TrackPointExtension>
            <ns3:hr>79</ns3:hr>
            <ns3:cad>49</ns3:cad>
          </ns3:TrackPointExtension>
        </extensions>
      </trkpt>
      <trkpt lat="43.4738753736019134521484375" lon="1.46021143533289432525634765625">
        <ele>204</ele>
        <time>2026-08-05T08:20:01.000Z</time>
        <extensions>
          <ns3:TrackPointExtension>
            <ns3:hr>79</ns3:hr>
            <ns3:cad>49</ns3:cad>
          </ns3:TrackPointExtension>
        </extensions>
      </trkpt>
      <trkpt lat="43.47387872636318206787109375" lon="1.4601997844874858856201171875">
        <ele>203.8000030517578125</ele>
        <time>2026-08-05T08:20:02.000Z</time>
        <extensions>
          <ns3:TrackPointExtension>
            <ns3:hr>80</ns3:hr>
            <ns3:cad>48</ns3:cad>
          </ns3:TrackPointExtension>
        </extensions>
      </trkpt>
      <trkpt lat="43.4738835878670215606689453125" lon="1.46018494851887226104736328125">
        <ele>203.8000030517578125</ele>
        <time>2026-08-05T08:20:03.000Z</time>
        <extensions>
          <ns3:TrackPointExtension>
            <ns3:hr>80</ns3:hr>
            <ns3:cad>48</ns3:cad>
          </ns3:TrackPointExtension>
        </extensions>
      </trkpt>
      <trkpt lat="43.4738914668560028076171875" lon="1.4601743035018444061279296875">
        <ele>204</ele>
        <time>2026-08-05T08:20:04.000Z</time>
        <extensions>
          <ns3:TrackPointExtension>
            <ns3:hr>80</ns3:hr>
            <ns3:cad>47</ns3:cad>
          </ns3:TrackPointExtension>
        </extensions>
      </trkpt>
      <trkpt lat="43.4738976694643497467041015625" lon="1.46015745587646961212158203125">
        <ele>204</ele>
        <time>2026-08-05T08:20:05.000Z</time>
        <extensions>
          <ns3:TrackPointExtension>
            <ns3:hr>81</ns3:hr>
            <ns3:cad>47</ns3:cad>
          </ns3:TrackPointExtension>
        </extensions>
      </trkpt>
      <trkpt lat="43.47390278242528438568115234375" lon="1.46014270372688770294189453125">
        <ele>203.8000030517578125</ele>
        <time>2026-08-05T08:20:06.000Z</time>
        <extensions>
          <ns3:TrackPointExtension>
            <ns3:hr>81</ns3:hr>
            <ns3:cad>48</ns3:cad>
          </ns3:TrackPointExtension>
        </extensions>
      </trkpt>
      <trkpt lat="43.47390688955783843994140625" lon="1.46012417972087860107421875">
        <ele>203.8000030517578125</ele>
        <time>2026-08-05T08:20:07.000Z</time>
        <extensions>
          <ns3:TrackPointExtension>
            <ns3:hr>81</ns3:hr>
            <ns3:cad>48</ns3:cad>
          </ns3:TrackPointExtension>
        </extensions>
      </trkpt>
      <trkpt lat="43.473909907042980194091796875" lon="1.46010540425777435302734375">
        <ele>203.8000030517578125</ele>
        <time>2026-08-05T08:20:08.000Z</time>
        <extensions>
          <ns3:TrackPointExtension>
            <ns3:hr>81</ns3:hr>
            <ns3:cad>48</ns3:cad>
          </ns3:TrackPointExtension>
        </extensions>
      </trkpt>
      <trkpt lat="43.47391300834715366363525390625" lon="1.46008688025176525115966796875">
        <ele>203.600006103515625</ele>
        <time>2026-08-05T08:20:09.000Z</time>
        <extensions>
          <ns3:TrackPointExtension>
            <ns3:hr>81</ns3:hr>
            <ns3:cad>48</ns3:cad>
          </ns3:TrackPointExtension>
        </extensions>
      </trkpt>
      <trkpt lat="43.4739177860319614410400390625" lon="1.460069529712200164794921875">
        <ele>203.399993896484375</ele>
        <time>2026-08-05T08:20:10.000Z</time>
        <extensions>
          <ns3:TrackPointExtension>
            <ns3:hr>81</ns3:hr>
            <ns3:cad>49</ns3:cad>
          </ns3:TrackPointExtension>
        </extensions>
      </trkpt>
      <trkpt lat="43.4739244915544986724853515625" lon="1.460054777562618255615234375">
        <ele>203.1999969482421875</ele>
        <time>2026-08-05T08:20:11.000Z</time>
        <extensions>
          <ns3:TrackPointExtension>
            <ns3:hr>81</ns3:hr>
            <ns3:cad>50</ns3:cad>
          </ns3:TrackPointExtension>
        </extensions>
      </trkpt>
      <trkpt lat="43.47393211908638477325439453125" lon="1.46004195325076580047607421875">
        <ele>203.1999969482421875</ele>
        <time>2026-08-05T08:20:12.000Z</time>
        <extensions>
          <ns3:TrackPointExtension>
            <ns3:hr>82</ns3:hr>
            <ns3:cad>51</ns3:cad>
          </ns3:TrackPointExtension>
        </extensions>
      </trkpt>
      <trkpt lat="43.47394200973212718963623046875" lon="1.4600301347672939300537109375">
        <ele>203</ele>
        <time>2026-08-05T08:20:13.000Z</time>
        <extensions>
          <ns3:TrackPointExtension>
            <ns3:hr>82</ns3:hr>
            <ns3:cad>52</ns3:cad>
          </ns3:TrackPointExtension>
        </extensions>
      </trkpt>
      <trkpt lat="43.47394720651209354400634765625" lon="1.4600135385990142822265625">
        <ele>203</ele>
        <time>2026-08-05T08:20:14.000Z</time>
        <extensions>
          <ns3:TrackPointExtension>
            <ns3:hr>82</ns3:hr>
            <ns3:cad>54</ns3:cad>
          </ns3:TrackPointExtension>
        </extensions>
      </trkpt>
      <trkpt lat="43.47395173273980617523193359375" lon="1.45999945700168609619140625">
        <ele>203</ele>
        <time>2026-08-05T08:20:15.000Z</time>
        <extensions>
          <ns3:TrackPointExtension>
            <ns3:hr>82</ns3:hr>
            <ns3:cad>54</ns3:cad>
          </ns3:TrackPointExtension>
        </extensions>
      </trkpt>
      <trkpt lat="43.4739560075104236602783203125" lon="1.4599805139005184173583984375">
        <ele>202.8000030517578125</ele>
        <time>2026-08-05T08:20:16.000Z</time>
        <extensions>
          <ns3:TrackPointExtension>
            <ns3:hr>83</ns3:hr>
            <ns3:cad>54</ns3:cad>
          </ns3:TrackPointExtension>
        </extensions>
      </trkpt>
      <trkpt lat="43.4739607013761997222900390625" lon="1.45996400155127048492431640625">
        <ele>202.8000030517578125</ele>
        <time>2026-08-05T08:20:17.000Z</time>
        <extensions>
          <ns3:TrackPointExtension>
            <ns3:hr>83</ns3:hr>
            <ns3:cad>53</ns3:cad>
          </ns3:TrackPointExtension>
        </extensions>
      </trkpt>
      <trkpt lat="43.47396480850875377655029296875" lon="1.45994790829718112945556640625">
        <ele>202.8000030517578125</ele>
        <time>2026-08-05T08:20:18.000Z</time>
        <extensions>
          <ns3:TrackPointExtension>
            <ns3:hr>83</ns3:hr>
            <ns3:cad>53</ns3:cad>
          </ns3:TrackPointExtension>
        </extensions>
      </trkpt>
      <trkpt lat="43.47397050820291042327880859375" lon="1.45993231795728206634521484375">
        <ele>202.600006103515625</ele>
        <time>2026-08-05T08:20:19.000Z</time>
        <extensions>
          <ns3:TrackPointExtension>
            <ns3:hr>83</ns3:hr>
            <ns3:cad>52</ns3:cad>
          </ns3:TrackPointExtension>
        </extensions>
      </trkpt>
      <trkpt lat="43.47397469915449619293212890625" lon="1.45991790108382701873779296875">
        <ele>202.600006103515625</ele>
        <time>2026-08-05T08:20:20.000Z</time>
        <extensions>
          <ns3:TrackPointExtension>
            <ns3:hr>82</ns3:hr>
            <ns3:cad>52</ns3:cad>
          </ns3:TrackPointExtension>
        </extensions>
      </trkpt>
      <trkpt lat="43.47397922538220882415771484375" lon="1.4599003829061985015869140625">
        <ele>202.600006103515625</ele>
        <time>2026-08-05T08:20:21.000Z</time>
        <extensions>
          <ns3:TrackPointExtension>
            <ns3:hr>83</ns3:hr>
            <ns3:cad>52</ns3:cad>
          </ns3:TrackPointExtension>
        </extensions>
      </trkpt>
      <trkpt lat="43.4739841707050800323486328125" lon="1.45988521166145801544189453125">
        <ele>202.600006103515625</ele>
        <time>2026-08-05T08:20:22.000Z</time>
        <extensions>
          <ns3:TrackPointExtension>
            <ns3:hr>83</ns3:hr>
            <ns3:cad>52</ns3:cad>
          </ns3:TrackPointExtension>
        </extensions>
      </trkpt>
      <trkpt lat="43.47398945130407810211181640625" lon="1.45987205207347869873046875">
        <ele>202.600006103515625</ele>
        <time>2026-08-05T08:20:23.000Z</time>
        <extensions>
          <ns3:TrackPointExtension>
            <ns3:hr>83</ns3:hr>
            <ns3:cad>52</ns3:cad>
          </ns3:TrackPointExtension>
        </extensions>
      </trkpt>
      <trkpt lat="43.4739948995411396026611328125" lon="1.45985470153391361236572265625">
        <ele>202.399993896484375</ele>
        <time>2026-08-05T08:20:24.000Z</time>
        <extensions>
          <ns3:TrackPointExtension>
            <ns3:hr>83</ns3:hr>
            <ns3:cad>53</ns3:cad>
          </ns3:TrackPointExtension>
        </extensions>
      </trkpt>
      <trkpt lat="43.47400152124464511871337890625" lon="1.45983760245144367218017578125">
        <ele>202.399993896484375</ele>
        <time>2026-08-05T08:20:25.000Z</time>
        <extensions>
          <ns3:TrackPointExtension>
            <ns3:hr>84</ns3:hr>
            <ns3:cad>53</ns3:cad>
          </ns3:TrackPointExtension>
        </extensions>
      </trkpt>
      <trkpt lat="43.4740066342055797576904296875" lon="1.45982352085411548614501953125">
        <ele>202.399993896484375</ele>
        <time>2026-08-05T08:20:26.000Z</time>
        <extensions>
          <ns3:TrackPointExtension>
            <ns3:hr>84</ns3:hr>
            <ns3:cad>53</ns3:cad>
          </ns3:TrackPointExtension>
        </extensions>
      </trkpt>
      <trkpt lat="43.47401174716651439666748046875" lon="1.45981044508516788482666015625">
        <ele>202.399993896484375</ele>
        <time>2026-08-05T08:20:27.000Z</time>
        <extensions>
          <ns3:TrackPointExtension>
            <ns3:hr>85</ns3:hr>
            <ns3:cad>52</ns3:cad>
          </ns3:TrackPointExtension>
        </extensions>
      </trkpt>
      <trkpt lat="43.47401778213679790496826171875" lon="1.45979787223041057586669921875">
        <ele>202.1999969482421875</ele>
        <time>2026-08-05T08:20:28.000Z</time>
        <extensions>
          <ns3:TrackPointExtension>
            <ns3:hr>85</ns3:hr>
            <ns3:cad>53</ns3:cad>
          </ns3:TrackPointExtension>
        </extensions>
      </trkpt>
      <trkpt lat="43.47402331419289112091064453125" lon="1.459782533347606658935546875">
        <ele>202.1999969482421875</ele>
        <time>2026-08-05T08:20:29.000Z</time>
        <extensions>
          <ns3:TrackPointExtension>
            <ns3:hr>86</ns3:hr>
            <ns3:cad>53</ns3:cad>
          </ns3:TrackPointExtension>
        </extensions>
      </trkpt>
      <trkpt lat="43.4740297682583332061767578125" lon="1.45976610481739044189453125">
        <ele>202.1999969482421875</ele>
        <time>2026-08-05T08:20:30.000Z</time>
        <extensions>
          <ns3:TrackPointExtension>
            <ns3:hr>87</ns3:hr>
            <ns3:cad>53</ns3:cad>
          </ns3:TrackPointExtension>
        </extensions>
      </trkpt>
      <trkpt lat="43.4740354679524898529052734375" lon="1.45974992774426937103271484375">
        <ele>202</ele>
        <time>2026-08-05T08:20:31.000Z</time>
        <extensions>
          <ns3:TrackPointExtension>
            <ns3:hr>88</ns3:hr>
            <ns3:cad>52</ns3:cad>
          </ns3:TrackPointExtension>
        </extensions>
      </trkpt>
      <trkpt lat="43.47404141910374164581298828125" lon="1.45973349921405315399169921875">
        <ele>202</ele>
        <time>2026-08-05T08:20:32.000Z</time>
        <extensions>
          <ns3:TrackPointExtension>
            <ns3:hr>88</ns3:hr>
            <ns3:cad>52</ns3:cad>
          </ns3:TrackPointExtension>
        </extensions>
      </trkpt>
      <trkpt lat="43.4740465320646762847900390625" lon="1.45972444675862789154052734375">
        <ele>201.8000030517578125</ele>
        <time>2026-08-05T08:20:33.000Z</time>
        <extensions>
          <ns3:TrackPointExtension>
            <ns3:hr>87</ns3:hr>
            <ns3:cad>51</ns3:cad>
          </ns3:TrackPointExtension>
        </extensions>
      </trkpt>
      <trkpt lat="43.4740518964827060699462890625" lon="1.45971170626580715179443359375">
        <ele>201.8000030517578125</ele>
        <time>2026-08-05T08:20:34.000Z</time>
        <extensions>
          <ns3:TrackPointExtension>
            <ns3:hr>87</ns3:hr>
            <ns3:cad>51</ns3:cad>
          </ns3:TrackPointExtension>
        </extensions>
      </trkpt>
      <trkpt lat="43.47405843436717987060546875" lon="1.4596898294985294342041015625">
        <ele>201.600006103515625</ele>
        <time>2026-08-05T08:20:35.000Z</time>
        <extensions>
          <ns3:TrackPointExtension>
            <ns3:hr>87</ns3:hr>
            <ns3:cad>51</ns3:cad>
          </ns3:TrackPointExtension>
        </extensions>
      </trkpt>
      <trkpt lat="43.4740653075277805328369140625" lon="1.4596754126250743865966796875">
        <ele>201.600006103515625</ele>
        <time>2026-08-05T08:20:36.000Z</time>
        <extensions>
          <ns3:TrackPointExtension>
            <ns3:hr>87</ns3:hr>
            <ns3:cad>51</ns3:cad>
          </ns3:TrackPointExtension>
        </extensions>
      </trkpt>
      <trkpt lat="43.4740726836025714874267578125" lon="1.45965739153325557708740234375">
        <ele>201.600006103515625</ele>
        <time>2026-08-05T08:20:37.000Z</time>
        <extensions>
          <ns3:TrackPointExtension>
            <ns3:hr>87</ns3:hr>
            <ns3:cad>51</ns3:cad>
          </ns3:TrackPointExtension>
        </extensions>
      </trkpt>
      <trkpt lat="43.4740793891251087188720703125" lon="1.45964138209819793701171875">
        <ele>201.600006103515625</ele>
        <time>2026-08-05T08:20:38.000Z</time>
        <extensions>
          <ns3:TrackPointExtension>
            <ns3:hr>87</ns3:hr>
            <ns3:cad>51</ns3:cad>
          </ns3:TrackPointExtension>
        </extensions>
      </trkpt>
      <trkpt lat="43.474084921181201934814453125" lon="1.4596273005008697509765625">
        <ele>201.600006103515625</ele>
        <time>2026-08-05T08:20:39.000Z</time>
        <extensions>
          <ns3:TrackPointExtension>
            <ns3:hr>87</ns3:hr>
            <ns3:cad>50</ns3:cad>
          </ns3:TrackPointExtension>
        </extensions>
      </trkpt>
      <trkpt lat="43.4740904532372951507568359375" lon="1.4596143923699855804443359375">
        <ele>201.600006103515625</ele>
        <time>2026-08-05T08:20:40.000Z</time>
        <extensions>
          <ns3:TrackPointExtension>
            <ns3:hr>87</ns3:hr>
            <ns3:cad>50</ns3:cad>
          </ns3:TrackPointExtension>
        </extensions>
      </trkpt>
      <trkpt lat="43.474092297255992889404296875" lon="1.45959989167749881744384765625">
        <ele>201.600006103515625</ele>
        <time>2026-08-05T08:20:41.000Z</time>
        <extensions>
          <ns3:TrackPointExtension>
            <ns3:hr>88</ns3:hr>
            <ns3:cad>51</ns3:cad>
          </ns3:TrackPointExtension>
        </extensions>
      </trkpt>
      <trkpt lat="43.47409707494080066680908203125" lon="1.4595885761082172393798828125">
        <ele>201.399993896484375</ele>
        <time>2026-08-05T08:20:42.000Z</time>
        <extensions>
          <ns3:TrackPointExtension>
            <ns3:hr>87</ns3:hr>
            <ns3:cad>52</ns3:cad>
          </ns3:TrackPointExtension>
        </extensions>
      </trkpt>
      <trkpt lat="43.47410411573946475982666015625" lon="1.45957759581506252288818359375">
        <ele>201.1999969482421875</ele>
        <time>2026-08-05T08:20:43.000Z</time>
        <extensions>
          <ns3:TrackPointExtension>
            <ns3:hr>87</ns3:hr>
            <ns3:cad>52</ns3:cad>
          </ns3:TrackPointExtension>
        </extensions>
      </trkpt>
      <trkpt lat="43.4741085581481456756591796875" lon="1.45956468768417835235595703125">
        <ele>201.1999969482421875</ele>
        <time>2026-08-05T08:20:44.000Z</time>
        <extensions>
          <ns3:TrackPointExtension>
            <ns3:hr>86</ns3:hr>
            <ns3:cad>52</ns3:cad>
          </ns3:TrackPointExtension>
        </extensions>
      </trkpt>
      <trkpt lat="43.4741112403571605682373046875" lon="1.4595508575439453125">
        <ele>201</ele>
        <time>2026-08-05T08:20:45.000Z</time>
        <extensions>
          <ns3:TrackPointExtension>
            <ns3:hr>86</ns3:hr>
            <ns3:cad>51</ns3:cad>
          </ns3:TrackPointExtension>
        </extensions>
      </trkpt>
      <trkpt lat="43.4741152636706829071044921875" lon="1.4595356024801731109619140625">
        <ele>201</ele>
        <time>2026-08-05T08:20:46.000Z</time>
        <extensions>
          <ns3:TrackPointExtension>
            <ns3:hr>85</ns3:hr>
            <ns3:cad>51</ns3:cad>
          </ns3:TrackPointExtension>
        </extensions>
      </trkpt>
      <trkpt lat="43.4741202928125858306884765625" lon="1.459516324102878570556640625">
        <ele>201</ele>
        <time>2026-08-05T08:20:47.000Z</time>
        <extensions>
          <ns3:TrackPointExtension>
            <ns3:hr>85</ns3:hr>
            <ns3:cad>51</ns3:cad>
          </ns3:TrackPointExtension>
        </extensions>
      </trkpt>
      <trkpt lat="43.474127165973186492919921875" lon="1.45950500853359699249267578125">
        <ele>200.8000030517578125</ele>
        <time>2026-08-05T08:20:48.000Z</time>
        <extensions>
          <ns3:TrackPointExtension>
            <ns3:hr>84</ns3:hr>
            <ns3:cad>51</ns3:cad>
          </ns3:TrackPointExtension>
        </extensions>
      </trkpt>
      <trkpt lat="43.47413378767669200897216796875" lon="1.45949025638401508331298828125">
        <ele>200.8000030517578125</ele>
        <time>2026-08-05T08:20:49.000Z</time>
        <extensions>
          <ns3:TrackPointExtension>
            <ns3:hr>84</ns3:hr>
            <ns3:cad>51</ns3:cad>
          </ns3:TrackPointExtension>
        </extensions>
      </trkpt>
      <trkpt lat="43.47414082847535610198974609375" lon="1.45947550423443317413330078125">
        <ele>200.600006103515625</ele>
        <time>2026-08-05T08:20:50.000Z</time>
        <extensions>
          <ns3:TrackPointExtension>
            <ns3:hr>84</ns3:hr>
            <ns3:cad>52</ns3:cad>
          </ns3:TrackPointExtension>
        </extensions>
      </trkpt>
      <trkpt lat="43.474147617816925048828125" lon="1.45945689640939235687255859375">
        <ele>200.600006103515625</ele>
        <time>2026-08-05T08:20:51.000Z</time>
        <extensions>
          <ns3:TrackPointExtension>
            <ns3:hr>84</ns3:hr>
            <ns3:cad>52</ns3:cad>
          </ns3:TrackPointExtension>
        </extensions>
      </trkpt>
      <trkpt lat="43.4741531498730182647705078125" lon="1.45943996496498584747314453125">
        <ele>200.399993896484375</ele>
        <time>2026-08-05T08:20:52.000Z</time>
        <extensions>
          <ns3:TrackPointExtension>
            <ns3:hr>84</ns3:hr>
            <ns3:cad>52</ns3:cad>
          </ns3:TrackPointExtension>
        </extensions>
      </trkpt>
      <trkpt lat="43.4741598553955554962158203125" lon="1.4594249613583087921142578125">
        <ele>200.1999969482421875</ele>
        <time>2026-08-05T08:20:53.000Z</time>
        <extensions>
          <ns3:TrackPointExtension>
            <ns3:hr>84</ns3:hr>
            <ns3:cad>52</ns3:cad>
          </ns3:TrackPointExtension>
        </extensions>
      </trkpt>
      <trkpt lat="43.47416706383228302001953125" lon="1.45940979011356830596923828125">
        <ele>200.1999969482421875</ele>
        <time>2026-08-05T08:20:54.000Z</time>
        <extensions>
          <ns3:TrackPointExtension>
            <ns3:hr>84</ns3:hr>
            <ns3:cad>52</ns3:cad>
          </ns3:TrackPointExtension>
        </extensions>
      </trkpt>
      <trkpt lat="43.47417645156383514404296875" lon="1.45939369685947895050048828125">
        <ele>200.1999969482421875</ele>
        <time>2026-08-05T08:20:55.000Z</time>
        <extensions>
          <ns3:TrackPointExtension>
            <ns3:hr>84</ns3:hr>
            <ns3:cad>53</ns3:cad>
          </ns3:TrackPointExtension>
        </extensions>
      </trkpt>
      <trkpt lat="43.47418391145765781402587890625" lon="1.4593778550624847412109375">
        <ele>200</ele>
        <time>2026-08-05T08:20:56.000Z</time>
        <extensions>
          <ns3:TrackPointExtension>
            <ns3:hr>84</ns3:hr>
            <ns3:cad>53</ns3:cad>
          </ns3:TrackPointExtension>
        </extensions>
      </trkpt>
      <trkpt lat="43.47418852150440216064453125" lon="1.45935975015163421630859375">
        <ele>200</ele>
        <time>2026-08-05T08:20:57.000Z</time>
        <extensions>
          <ns3:TrackPointExtension>
            <ns3:hr>84</ns3:hr>
            <ns3:cad>53</ns3:cad>
          </ns3:TrackPointExtension>
        </extensions>
      </trkpt>
      <trkpt lat="43.47419279627501964569091796875" lon="1.459346003830432891845703125">
        <ele>200</ele>
        <time>2026-08-05T08:20:58.000Z</time>
        <extensions>
          <ns3:TrackPointExtension>
            <ns3:hr>84</ns3:hr>
            <ns3:cad>53</ns3:cad>
          </ns3:TrackPointExtension>
        </extensions>
      </trkpt>
      <trkpt lat="43.4741977415978908538818359375" lon="1.4593322575092315673828125">
        <ele>200</ele>
        <time>2026-08-05T08:20:59.000Z</time>
        <extensions>
          <ns3:TrackPointExtension>
            <ns3:hr>84</ns3:hr>
            <ns3:cad>53</ns3:cad>
          </ns3:TrackPointExtension>
        </extensions>
      </trkpt>
      <trkpt lat="43.474203608930110931396484375" lon="1.45931758917868137359619140625">
        <ele>200</ele>
        <time>2026-08-05T08:21:00.000Z</time>
        <extensions>
          <ns3:TrackPointExtension>
            <ns3:hr>85</ns3:hr>
            <ns3:cad>52</ns3:cad>
          </ns3:TrackPointExtension>
        </extensions>
      </trkpt>
      <trkpt lat="43.4742104820907115936279296875" lon="1.45929914899170398712158203125">
        <ele>200</ele>
        <time>2026-08-05T08:21:01.000Z</time>
        <extensions>
          <ns3:TrackPointExtension>
            <ns3:hr>85</ns3:hr>
            <ns3:cad>52</ns3:cad>
          </ns3:TrackPointExtension>
        </extensions>
      </trkpt>
      <trkpt lat="43.47421693615615367889404296875" lon="1.45928439684212207794189453125">
        <ele>199.8000030517578125</ele>
        <time>2026-08-05T08:21:02.000Z</time>
        <extensions>
          <ns3:TrackPointExtension>
            <ns3:hr>85</ns3:hr>
            <ns3:cad>52</ns3:cad>
          </ns3:TrackPointExtension>
        </extensions>
      </trkpt>
      <trkpt lat="43.47422397695481777191162109375" lon="1.4592710696160793304443359375">
        <ele>199.600006103515625</ele>
        <time>2026-08-05T08:21:03.000Z</time>
        <extensions>
          <ns3:TrackPointExtension>
            <ns3:hr>84</ns3:hr>
            <ns3:cad>52</ns3:cad>
          </ns3:TrackPointExtension>
        </extensions>
      </trkpt>
      <trkpt lat="43.47423051483929157257080078125" lon="1.45925581455230712890625">
        <ele>199.399993896484375</ele>
        <time>2026-08-05T08:21:04.000Z</time>
        <extensions>
          <ns3:TrackPointExtension>
            <ns3:hr>84</ns3:hr>
            <ns3:cad>53</ns3:cad>
          </ns3:TrackPointExtension>
        </extensions>
      </trkpt>
      <trkpt lat="43.47423587925732135772705078125" lon="1.45924265496432781219482421875">
        <ele>199.399993896484375</ele>
        <time>2026-08-05T08:21:05.000Z</time>
        <extensions>
          <ns3:TrackPointExtension>
            <ns3:hr>83</ns3:hr>
            <ns3:cad>53</ns3:cad>
          </ns3:TrackPointExtension>
        </extensions>
      </trkpt>
      <trkpt lat="43.4742414951324462890625" lon="1.45922488532960414886474609375">
        <ele>199.1999969482421875</ele>
        <time>2026-08-05T08:21:06.000Z</time>
        <extensions>
          <ns3:TrackPointExtension>
            <ns3:hr>83</ns3:hr>
            <ns3:cad>53</ns3:cad>
          </ns3:TrackPointExtension>
        </extensions>
      </trkpt>
      <trkpt lat="43.47424660809338092803955078125" lon="1.45921281538903713226318359375">
        <ele>199.1999969482421875</ele>
        <time>2026-08-05T08:21:07.000Z</time>
        <extensions>
          <ns3:TrackPointExtension>
            <ns3:hr>83</ns3:hr>
            <ns3:cad>52</ns3:cad>
          </ns3:TrackPointExtension>
        </extensions>
      </trkpt>
      <trkpt lat="43.4742540679872035980224609375" lon="1.4591993205249309539794921875">
        <ele>199.1999969482421875</ele>
        <time>2026-08-05T08:21:08.000Z</time>
        <extensions>
          <ns3:TrackPointExtension>
            <ns3:hr>84</ns3:hr>
            <ns3:cad>53</ns3:cad>
          </ns3:TrackPointExtension>
        </extensions>
      </trkpt>
      <trkpt lat="43.47426152788102626800537109375" lon="1.45918582566082477569580078125">
        <ele>199</ele>
        <time>2026-08-05T08:21:09.000Z</time>
        <extensions>
          <ns3:TrackPointExtension>
            <ns3:hr>84</ns3:hr>
            <ns3:cad>53</ns3:cad>
          </ns3:TrackPointExtension>
        </extensions>
      </trkpt>
      <trkpt lat="43.4742668084800243377685546875" lon="1.45917207933962345123291015625">
        <ele>199</ele>
        <time>2026-08-05T08:21:10.000Z</time>
        <extensions>
          <ns3:TrackPointExtension>
            <ns3:hr>84</ns3:hr>
            <ns3:cad>53</ns3:cad>
          </ns3:TrackPointExtension>
        </extensions>
      </trkpt>
      <trkpt lat="43.47427292726933956146240234375" lon="1.45915590226650238037109375">
        <ele>198.8000030517578125</ele>
        <time>2026-08-05T08:21:11.000Z</time>
        <extensions>
          <ns3:TrackPointExtension>
            <ns3:hr>85</ns3:hr>
            <ns3:cad>54</ns3:cad>
          </ns3:TrackPointExtension>
        </extensions>
      </trkpt>
      <trkpt lat="43.4742805548012256622314453125" lon="1.4591416530311107635498046875">
        <ele>198.8000030517578125</ele>
        <time>2026-08-05T08:21:12.000Z</time>
        <extensions>
          <ns3:TrackPointExtension>
            <ns3:hr>85</ns3:hr>
            <ns3:cad>54</ns3:cad>
          </ns3:TrackPointExtension>
        </extensions>
      </trkpt>
      <trkpt lat="43.47428583540022373199462890625" lon="1.4591295830905437469482421875">
        <ele>198.8000030517578125</ele>
        <time>2026-08-05T08:21:13.000Z</time>
        <extensions>
          <ns3:TrackPointExtension>
            <ns3:hr>85</ns3:hr>
            <ns3:cad>52</ns3:cad>
          </ns3:TrackPointExtension>
        </extensions>
      </trkpt>
      <trkpt lat="43.474290110170841217041015625" lon="1.459121368825435638427734375">
        <ele>198.600006103515625</ele>
        <time>2026-08-05T08:21:14.000Z</time>
        <extensions>
          <ns3:TrackPointExtension>
            <ns3:hr>85</ns3:hr>
            <ns3:cad>52</ns3:cad>
          </ns3:TrackPointExtension>
        </extensions>
      </trkpt>
      <trkpt lat="43.47429404966533184051513671875" lon="1.45911240018904209136962890625">
        <ele>198.600006103515625</ele>
        <time>2026-08-05T08:21:15.000Z</time>
        <extensions>
          <ns3:TrackPointExtension>
            <ns3:hr>85</ns3:hr>
            <ns3:cad>53</ns3:cad>
          </ns3:TrackPointExtension>
        </extensions>
      </trkpt>
      <trkpt lat="43.4742996655404567718505859375" lon="1.4591030962765216827392578125">
        <ele>198.399993896484375</ele>
        <time>2026-08-05T08:21:16.000Z</time>
        <extensions>
          <ns3:TrackPointExtension>
            <ns3:hr>86</ns3:hr>
            <ns3:cad>53</ns3:cad>
          </ns3:TrackPointExtension>
        </extensions>
      </trkpt>
      <trkpt lat="43.47430385649204254150390625" lon="1.45909127779304981231689453125">
        <ele>198.399993896484375</ele>
        <time>2026-08-05T08:21:17.000Z</time>
        <extensions>
          <ns3:TrackPointExtension>
            <ns3:hr>86</ns3:hr>
            <ns3:cad>53</ns3:cad>
          </ns3:TrackPointExtension>
        </extensions>
      </trkpt>
      <trkpt lat="43.474308550357818603515625" lon="1.45907870493829250335693359375">
        <ele>198.1999969482421875</ele>
        <time>2026-08-05T08:21:18.000Z</time>
        <extensions>
          <ns3:TrackPointExtension>
            <ns3:hr>87</ns3:hr>
            <ns3:cad>53</ns3:cad>
          </ns3:TrackPointExtension>
        </extensions>
      </trkpt>
      <trkpt lat="43.47431324422359466552734375" lon="1.45906680263578891754150390625">
        <ele>198.1999969482421875</ele>
        <time>2026-08-05T08:21:19.000Z</time>
        <extensions>
          <ns3:TrackPointExtension>
            <ns3:hr>88</ns3:hr>
            <ns3:cad>48</ns3:cad>
          </ns3:TrackPointExtension>
        </extensions>
      </trkpt>
      <trkpt lat="43.474316932260990142822265625" lon="1.4590554870665073394775390625">
        <ele>198.1999969482421875</ele>
        <time>2026-08-05T08:21:20.000Z</time>
        <extensions>
          <ns3:TrackPointExtension>
            <ns3:hr>88</ns3:hr>
            <ns3:cad>48</ns3:cad>
          </ns3:TrackPointExtension>
        </extensions>
      </trkpt>
      <trkpt lat="43.47431936301290988922119140625" lon="1.4590466022491455078125">
        <ele>198</ele>
        <time>2026-08-05T08:21:21.000Z</time>
        <extensions>
          <ns3:TrackPointExtension>
            <ns3:hr>88</ns3:hr>
            <ns3:cad>48</ns3:cad>
          </ns3:TrackPointExtension>
        </extensions>
      </trkpt>
      <trkpt lat="43.47432036884129047393798828125" lon="1.45903076045215129852294921875">
        <ele>198</ele>
        <time>2026-08-05T08:21:22.000Z</time>
        <extensions>
          <ns3:TrackPointExtension>
            <ns3:hr>88</ns3:hr>
            <ns3:cad>50</ns3:cad>
          </ns3:TrackPointExtension>
        </extensions>
      </trkpt>
      <trkpt lat="43.47432305105030536651611328125" lon="1.45902070216834545135498046875">
        <ele>197.8000030517578125</ele>
        <time>2026-08-05T08:21:23.000Z</time>
        <extensions>
          <ns3:TrackPointExtension>
            <ns3:hr>89</ns3:hr>
            <ns3:cad>50</ns3:cad>
          </ns3:TrackPointExtension>
        </extensions>
      </trkpt>
      <trkpt lat="43.4743281640112400054931640625" lon="1.45901131443679332733154296875">
        <ele>197.600006103515625</ele>
        <time>2026-08-05T08:21:24.000Z</time>
        <extensions>
          <ns3:TrackPointExtension>
            <ns3:hr>88</ns3:hr>
            <ns3:cad>50</ns3:cad>
          </ns3:TrackPointExtension>
        </extensions>
      </trkpt>
      <trkpt lat="43.474333696067333221435546875" lon="1.459000669419765472412109375">
        <ele>197.600006103515625</ele>
        <time>2026-08-05T08:21:25.000Z</time>
        <extensions>
          <ns3:TrackPointExtension>
            <ns3:hr>88</ns3:hr>
            <ns3:cad>50</ns3:cad>
          </ns3:TrackPointExtension>
        </extensions>
      </trkpt>
      <trkpt lat="43.474338389933109283447265625" lon="1.45899035967886447906494140625">
        <ele>197.399993896484375</ele>
        <time>2026-08-05T08:21:26.000Z</time>
        <extensions>
          <ns3:TrackPointExtension>
            <ns3:hr>88</ns3:hr>
            <ns3:cad>50</ns3:cad>
          </ns3:TrackPointExtension>
        </extensions>
      </trkpt>
      <trkpt lat="43.47434283234179019927978515625" lon="1.45898289978504180908203125">
        <ele>197.1999969482421875</ele>
        <time>2026-08-05T08:21:27.000Z</time>
        <extensions>
          <ns3:TrackPointExtension>
            <ns3:hr>88</ns3:hr>
            <ns3:cad>51</ns3:cad>
          </ns3:TrackPointExtension>
        </extensions>
      </trkpt>
      <trkpt lat="43.474348448216915130615234375" lon="1.4589683152735233306884765625">
        <ele>197</ele>
        <time>2026-08-05T08:21:28.000Z</time>
        <extensions>
          <ns3:TrackPointExtension>
            <ns3:hr>88</ns3:hr>
            <ns3:cad>51</ns3:cad>
          </ns3:TrackPointExtension>
        </extensions>
      </trkpt>
      <trkpt lat="43.4743496216833591461181640625" lon="1.45895280875265598297119140625">
        <ele>197</ele>
        <time>2026-08-05T08:21:29.000Z</time>
        <extensions>
          <ns3:TrackPointExtension>
            <ns3:hr>88</ns3:hr>
            <ns3:cad>51</ns3:cad>
          </ns3:TrackPointExtension>
        </extensions>
      </trkpt>
      <trkpt lat="43.47435079514980316162109375" lon="1.4589398168027400970458984375">
        <ele>196.8000030517578125</ele>
        <time>2026-08-05T08:21:30.000Z</time>
        <extensions>
          <ns3:TrackPointExtension>
            <ns3:hr>88</ns3:hr>
            <ns3:cad>51</ns3:cad>
          </ns3:TrackPointExtension>
        </extensions>
      </trkpt>
      <trkpt lat="43.474351130425930023193359375" lon="1.45892699249088764190673828125">
        <ele>196.8000030517578125</ele>
        <time>2026-08-05T08:21:31.000Z</time>
        <extensions>
          <ns3:TrackPointExtension>
            <ns3:hr>88</ns3:hr>
            <ns3:cad>51</ns3:cad>
          </ns3:TrackPointExtension>
        </extensions>
      </trkpt>
      <trkpt lat="43.47435071133077144622802734375" lon="1.45891458727419376373291015625">
        <ele>196.8000030517578125</ele>
        <time>2026-08-05T08:21:32.000Z</time>
        <extensions>
          <ns3:TrackPointExtension>
            <ns3:hr>87</ns3:hr>
            <ns3:cad>51</ns3:cad>
          </ns3:TrackPointExtension>
        </extensions>
      </trkpt>
      <trkpt lat="43.47434886731207370758056640625" lon="1.458901427686214447021484375">
        <ele>196.600006103515625</ele>
        <time>2026-08-05T08:21:33.000Z</time>
        <extensions>
          <ns3:TrackPointExtension>
            <ns3:hr>87</ns3:hr>
            <ns3:cad>51</ns3:cad>
          </ns3:TrackPointExtension>
        </extensions>
      </trkpt>
      <trkpt lat="43.47434601746499538421630859375" lon="1.45889380015432834625244140625">
        <ele>196.600006103515625</ele>
        <time>2026-08-05T08:21:34.000Z</time>
        <extensions>
          <ns3:TrackPointExtension>
            <ns3:hr>86</ns3:hr>
            <ns3:cad>51</ns3:cad>
          </ns3:TrackPointExtension>
        </extensions>
      </trkpt>
      <trkpt lat="43.474346101284027099609375" lon="1.45888491533696651458740234375">
        <ele>196.399993896484375</ele>
        <time>2026-08-05T08:21:35.000Z</time>
        <extensions>
          <ns3:TrackPointExtension>
            <ns3:hr>86</ns3:hr>
            <ns3:cad>50</ns3:cad>
          </ns3:TrackPointExtension>
        </extensions>
      </trkpt>
      <trkpt lat="43.47434719093143939971923828125" lon="1.4588737674057483673095703125">
        <ele>196.399993896484375</ele>
        <time>2026-08-05T08:21:36.000Z</time>
        <extensions>
          <ns3:TrackPointExtension>
            <ns3:hr>86</ns3:hr>
            <ns3:cad>49</ns3:cad>
          </ns3:TrackPointExtension>
        </extensions>
      </trkpt>
      <trkpt lat="43.4743435867130756378173828125" lon="1.45886194892227649688720703125">
        <ele>196.1999969482421875</ele>
        <time>2026-08-05T08:21:37.000Z</time>
        <extensions>
          <ns3:TrackPointExtension>
            <ns3:hr>86</ns3:hr>
            <ns3:cad>49</ns3:cad>
          </ns3:TrackPointExtension>
        </extensions>
      </trkpt>
      <trkpt lat="43.4743405692279338836669921875" lon="1.4588549919426441192626953125">
        <ele>196</ele>
        <time>2026-08-05T08:21:38.000Z</time>
        <extensions>
          <ns3:TrackPointExtension>
            <ns3:hr>85</ns3:hr>
            <ns3:cad>49</ns3:cad>
          </ns3:TrackPointExtension>
        </extensions>
      </trkpt>
      <trkpt lat="43.4743345342576503753662109375" lon="1.458843089640140533447265625">
        <ele>195.8000030517578125</ele>
        <time>2026-08-05T08:21:39.000Z</time>
        <extensions>
          <ns3:TrackPointExtension>
            <ns3:hr>85</ns3:hr>
            <ns3:cad>48</ns3:cad>
          </ns3:TrackPointExtension>
        </extensions>
      </trkpt>
      <trkpt lat="43.47432925365865230560302734375" lon="1.45883244462311267852783203125">
        <ele>195.8000030517578125</ele>
        <time>2026-08-05T08:21:40.000Z</time>
        <extensions>
          <ns3:TrackPointExtension>
            <ns3:hr>84</ns3:hr>
            <ns3:cad>48</ns3:cad>
          </ns3:TrackPointExtension>
        </extensions>
      </trkpt>
      <trkpt lat="43.47432263195514678955078125" lon="1.45881953649222850799560546875">
        <ele>195.600006103515625</ele>
        <time>2026-08-05T08:21:41.000Z</time>
        <extensions>
          <ns3:TrackPointExtension>
            <ns3:hr>83</ns3:hr>
            <ns3:cad>49</ns3:cad>
          </ns3:TrackPointExtension>
        </extensions>
      </trkpt>
      <trkpt lat="43.474319279193878173828125" lon="1.45881014876067638397216796875">
        <ele>195.399993896484375</ele>
        <time>2026-08-05T08:21:42.000Z</time>
        <extensions>
          <ns3:TrackPointExtension>
            <ns3:hr>82</ns3:hr>
            <ns3:cad>51</ns3:cad>
          </ns3:TrackPointExtension>
        </extensions>
      </trkpt>
      <trkpt lat="43.4743160940706729888916015625" lon="1.45880193449556827545166015625">
        <ele>195.1999969482421875</ele>
        <time>2026-08-05T08:21:43.000Z</time>
        <extensions>
          <ns3:TrackPointExtension>
            <ns3:hr>80</ns3:hr>
            <ns3:cad>51</ns3:cad>
          </ns3:TrackPointExtension>
        </extensions>
      </trkpt>
      <trkpt lat="43.4743124060332775115966796875" lon="1.458798833191394805908203125">
        <ele>195</ele>
        <time>2026-08-05T08:21:44.000Z</time>
        <extensions>
          <ns3:TrackPointExtension>
            <ns3:hr>79</ns3:hr>
            <ns3:cad>51</ns3:cad>
          </ns3:TrackPointExtension>
        </extensions>
      </trkpt>
      <trkpt lat="43.474305532872676849365234375" lon="1.4587959833443164825439453125">
        <ele>195</ele>
        <time>2026-08-05T08:21:45.000Z</time>
        <extensions>
          <ns3:TrackPointExtension>
            <ns3:hr>78</ns3:hr>
            <ns3:cad>51</ns3:cad>
          </ns3:TrackPointExtension>
        </extensions>
      </trkpt>
      <trkpt lat="43.474298156797885894775390625" lon="1.458792798221111297607421875">
        <ele>194.8000030517578125</ele>
        <time>2026-08-05T08:21:46.000Z</time>
        <extensions>
          <ns3:TrackPointExtension>
            <ns3:hr>78</ns3:hr>
            <ns3:cad>51</ns3:cad>
          </ns3:TrackPointExtension>
        </extensions>
      </trkpt>
      <trkpt lat="43.474291451275348663330078125" lon="1.45878902636468410491943359375">
        <ele>194.600006103515625</ele>
        <time>2026-08-05T08:21:47.000Z</time>
        <extensions>
          <ns3:TrackPointExtension>
            <ns3:hr>77</ns3:hr>
            <ns3:cad>51</ns3:cad>
          </ns3:TrackPointExtension>
        </extensions>
      </trkpt>
      <trkpt lat="43.47428751178085803985595703125" lon="1.45878533832728862762451171875">
        <ele>194.600006103515625</ele>
        <time>2026-08-05T08:21:48.000Z</time>
        <extensions>
          <ns3:TrackPointExtension>
            <ns3:hr>77</ns3:hr>
            <ns3:cad>50</ns3:cad>
          </ns3:TrackPointExtension>
        </extensions>
      </trkpt>
      <trkpt lat="43.47428030334413051605224609375" lon="1.45878349430859088897705078125">
        <ele>194.600006103515625</ele>
        <time>2026-08-05T08:21:49.000Z</time>
        <extensions>
          <ns3:TrackPointExtension>
            <ns3:hr>76</ns3:hr>
            <ns3:cad>50</ns3:cad>
          </ns3:TrackPointExtension>
        </extensions>
      </trkpt>
      <trkpt lat="43.47427594475448131561279296875" lon="1.45878097973763942718505859375">
        <ele>194.399993896484375</ele>
        <time>2026-08-05T08:21:50.000Z</time>
        <extensions>
          <ns3:TrackPointExtension>
            <ns3:hr>76</ns3:hr>
            <ns3:cad>50</ns3:cad>
          </ns3:TrackPointExtension>
        </extensions>
      </trkpt>
      <trkpt lat="43.47427242435514926910400390625" lon="1.4587772078812122344970703125">
        <ele>194.399993896484375</ele>
        <time>2026-08-05T08:21:51.000Z</time>
        <extensions>
          <ns3:TrackPointExtension>
            <ns3:hr>76</ns3:hr>
            <ns3:cad>44</ns3:cad>
          </ns3:TrackPointExtension>
        </extensions>
      </trkpt>
      <trkpt lat="43.4742688201367855072021484375" lon="1.45877796225249767303466796875">
        <ele>194.399993896484375</ele>
        <time>2026-08-05T08:21:52.000Z</time>
        <extensions>
          <ns3:TrackPointExtension>
            <ns3:hr>76</ns3:hr>
            <ns3:cad>44</ns3:cad>
          </ns3:TrackPointExtension>
        </extensions>
      </trkpt>
      <trkpt lat="43.47426521591842174530029296875" lon="1.45877494476735591888427734375">
        <ele>194.1999969482421875</ele>
        <time>2026-08-05T08:21:53.000Z</time>
        <extensions>
          <ns3:TrackPointExtension>
            <ns3:hr>76</ns3:hr>
            <ns3:cad>0</ns3:cad>
          </ns3:TrackPointExtension>
        </extensions>
      </trkpt>
      <trkpt lat="43.47426404245197772979736328125" lon="1.45877838134765625">
        <ele>194.1999969482421875</ele>
        <time>2026-08-05T08:21:54.000Z</time>
        <extensions>
          <ns3:TrackPointExtension>
            <ns3:hr>76</ns3:hr>
            <ns3:cad>0</ns3:cad>
          </ns3:TrackPointExtension>
        </extensions>
      </trkpt>
      <trkpt lat="43.47426488064229488372802734375" lon="1.4587812311947345733642578125">
        <ele>194.1999969482421875</ele>
        <time>2026-08-05T08:21:55.000Z</time>
        <extensions>
          <ns3:TrackPointExtension>
            <ns3:hr>76</ns3:hr>
            <ns3:cad>0</ns3:cad>
          </ns3:TrackPointExtension>
        </extensions>
      </trkpt>
      <trkpt lat="43.47426504828035831451416015625" lon="1.45878441631793975830078125">
        <ele>194.1999969482421875</ele>
        <time>2026-08-05T08:21:56.000Z</time>
        <extensions>
          <ns3:TrackPointExtension>
            <ns3:hr>76</ns3:hr>
            <ns3:cad>0</ns3:cad>
          </ns3:TrackPointExtension>
        </extensions>
      </trkpt>
      <trkpt lat="43.4742644615471363067626953125" lon="1.45878718234598636627197265625">
        <ele>194.1999969482421875</ele>
        <time>2026-08-05T08:21:57.000Z</time>
        <extensions>
          <ns3:TrackPointExtension>
            <ns3:hr>76</ns3:hr>
            <ns3:cad>0</ns3:cad>
          </ns3:TrackPointExtension>
        </extensions>
      </trkpt>
      <trkpt lat="43.4742641262710094451904296875" lon="1.45878785289824008941650390625">
        <ele>194.1999969482421875</ele>
        <time>2026-08-05T08:21:58.000Z</time>
        <extensions>
          <ns3:TrackPointExtension>
            <ns3:hr>76</ns3:hr>
            <ns3:cad>0</ns3:cad>
          </ns3:TrackPointExtension>
        </extensions>
      </trkpt>
      <trkpt lat="43.47426362335681915283203125" lon="1.45878869108855724334716796875">
        <ele>194.1999969482421875</ele>
        <time>2026-08-05T08:21:59.000Z</time>
        <extensions>
          <ns3:TrackPointExtension>
            <ns3:hr>76</ns3:hr>
            <ns3:cad>0</ns3:cad>
          </ns3:TrackPointExtension>
        </extensions>
      </trkpt>
      <trkpt lat="43.47426555119454860687255859375" lon="1.4587882719933986663818359375">
        <ele>194.1999969482421875</ele>
        <time>2026-08-05T08:22:00.000Z</time>
        <extensions>
          <ns3:TrackPointExtension>
            <ns3:hr>77</ns3:hr>
            <ns3:cad>0</ns3:cad>
          </ns3:TrackPointExtension>
        </extensions>
      </trkpt>
      <trkpt lat="43.47426622174680233001708984375" lon="1.45879036746919155120849609375">
        <ele>194</ele>
        <time>2026-08-05T08:22:01.000Z</time>
        <extensions>
          <ns3:TrackPointExtension>
            <ns3:hr>77</ns3:hr>
            <ns3:cad>0</ns3:cad>
          </ns3:TrackPointExtension>
        </extensions>
      </trkpt>
      <trkpt lat="43.47427032887935638427734375" lon="1.45879137329757213592529296875">
        <ele>194</ele>
        <time>2026-08-05T08:22:02.000Z</time>
        <extensions>
          <ns3:TrackPointExtension>
            <ns3:hr>77</ns3:hr>
            <ns3:cad>0</ns3:cad>
          </ns3:TrackPointExtension>
        </extensions>
      </trkpt>
      <trkpt lat="43.47427560947835445404052734375" lon="1.4587949775159358978271484375">
        <ele>194</ele>
        <time>2026-08-05T08:22:03.000Z</time>
        <extensions>
          <ns3:TrackPointExtension>
            <ns3:hr>77</ns3:hr>
            <ns3:cad>0</ns3:cad>
          </ns3:TrackPointExtension>
        </extensions>
      </trkpt>
      <trkpt lat="43.47427628003060817718505859375" lon="1.45879439078271389007568359375">
        <ele>194</ele>
        <time>2026-08-05T08:22:04.000Z</time>
        <extensions>
          <ns3:TrackPointExtension>
            <ns3:hr>77</ns3:hr>
            <ns3:cad>0</ns3:cad>
          </ns3:TrackPointExtension>
        </extensions>
      </trkpt>
      <trkpt lat="43.4742725081741809844970703125" lon="1.4587926305830478668212890625">
        <ele>194</ele>
        <time>2026-08-05T08:22:05.000Z</time>
        <extensions>
          <ns3:TrackPointExtension>
            <ns3:hr>78</ns3:hr>
            <ns3:cad>0</ns3:cad>
          </ns3:TrackPointExtension>
        </extensions>
      </trkpt>
      <trkpt lat="43.474270664155483245849609375" lon="1.45879053510725498199462890625">
        <ele>194.1999969482421875</ele>
        <time>2026-08-05T08:22:06.000Z</time>
        <extensions>
          <ns3:TrackPointExtension>
            <ns3:hr>78</ns3:hr>
            <ns3:cad>0</ns3:cad>
          </ns3:TrackPointExtension>
        </extensions>
      </trkpt>
      <trkpt lat="43.47426957450807094573974609375" lon="1.45878952927887439727783203125">
        <ele>194</ele>
        <time>2026-08-05T08:22:07.000Z</time>
        <extensions>
          <ns3:TrackPointExtension>
            <ns3:hr>78</ns3:hr>
            <ns3:cad>0</ns3:cad>
          </ns3:TrackPointExtension>
        </extensions>
      </trkpt>
      <trkpt lat="43.4742688201367855072021484375" lon="1.45878768526017665863037109375">
        <ele>194</ele>
        <time>2026-08-05T08:22:08.000Z</time>
        <extensions>
          <ns3:TrackPointExtension>
            <ns3:hr>78</ns3:hr>
            <ns3:cad>0</ns3:cad>
          </ns3:TrackPointExtension>
        </extensions>
      </trkpt>
      <trkpt lat="43.474265635013580322265625" lon="1.45878785289824008941650390625">
        <ele>194.1999969482421875</ele>
        <time>2026-08-05T08:22:09.000Z</time>
        <extensions>
          <ns3:TrackPointExtension>
            <ns3:hr>77</ns3:hr>
            <ns3:cad>0</ns3:cad>
          </ns3:TrackPointExtension>
        </extensions>
      </trkpt>
      <trkpt lat="43.47426169551908969879150390625" lon="1.45878349430859088897705078125">
        <ele>194.1999969482421875</ele>
        <time>2026-08-05T08:22:10.000Z</time>
        <extensions>
          <ns3:TrackPointExtension>
            <ns3:hr>77</ns3:hr>
            <ns3:cad>0</ns3:cad>
          </ns3:TrackPointExtension>
        </extensions>
      </trkpt>
      <trkpt lat="43.47426622174680233001708984375" lon="1.45877796225249767303466796875">
        <ele>194.1999969482421875</ele>
        <time>2026-08-05T08:22:11.000Z</time>
        <extensions>
          <ns3:TrackPointExtension>
            <ns3:hr>76</ns3:hr>
            <ns3:cad>0</ns3:cad>
          </ns3:TrackPointExtension>
        </extensions>
      </trkpt>
      <trkpt lat="43.474270664155483245849609375" lon="1.4587745256721973419189453125">
        <ele>194.1999969482421875</ele>
        <time>2026-08-05T08:22:12.000Z</time>
        <extensions>
          <ns3:TrackPointExtension>
            <ns3:hr>74</ns3:hr>
            <ns3:cad>0</ns3:cad>
          </ns3:TrackPointExtension>
        </extensions>
      </trkpt>
      <trkpt lat="43.47427292726933956146240234375" lon="1.45876991562545299530029296875">
        <ele>194.1999969482421875</ele>
        <time>2026-08-05T08:22:13.000Z</time>
        <extensions>
          <ns3:TrackPointExtension>
            <ns3:hr>70</ns3:hr>
            <ns3:cad>0</ns3:cad>
          </ns3:TrackPointExtension>
        </extensions>
      </trkpt>
      <trkpt lat="43.4742788784205913543701171875" lon="1.45876119844615459442138671875">
        <ele>194.1999969482421875</ele>
        <time>2026-08-05T08:22:14.000Z</time>
        <extensions>
          <ns3:TrackPointExtension>
            <ns3:hr>66</ns3:hr>
            <ns3:cad>0</ns3:cad>
          </ns3:TrackPointExtension>
        </extensions>
      </trkpt>
      <trkpt lat="43.47427845932543277740478515625" lon="1.4587547443807125091552734375">
        <ele>194</ele>
        <time>2026-08-05T08:22:15.000Z</time>
        <extensions>
          <ns3:TrackPointExtension>
            <ns3:hr>62</ns3:hr>
            <ns3:cad>0</ns3:cad>
          </ns3:TrackPointExtension>
        </extensions>
      </trkpt>
      <trkpt lat="43.4742808900773525238037109375" lon="1.458743847906589508056640625">
        <ele>194</ele>
        <time>2026-08-05T08:22:16.000Z</time>
        <extensions>
          <ns3:TrackPointExtension>
            <ns3:hr>62</ns3:hr>
            <ns3:cad>0</ns3:cad>
          </ns3:TrackPointExtension>
        </extensions>
      </trkpt>
      <trkpt lat="43.47428080625832080841064453125" lon="1.4587339572608470916748046875">
        <ele>194</ele>
        <time>2026-08-05T08:22:17.000Z</time>
        <extensions>
          <ns3:TrackPointExtension>
            <ns3:hr>62</ns3:hr>
            <ns3:cad>0</ns3:cad>
          </ns3:TrackPointExtension>
        </extensions>
      </trkpt>
      <trkpt lat="43.4742832370102405548095703125" lon="1.45872213877737522125244140625">
        <ele>194</ele>
        <time>2026-08-05T08:22:18.000Z</time>
        <extensions>
          <ns3:TrackPointExtension>
            <ns3:hr>62</ns3:hr>
            <ns3:cad>0</ns3:cad>
          </ns3:TrackPointExtension>
        </extensions>
      </trkpt>
      <trkpt lat="43.474286757409572601318359375" lon="1.4587124995887279510498046875">
        <ele>194</ele>
        <time>2026-08-05T08:22:19.000Z</time>
        <extensions>
          <ns3:TrackPointExtension>
            <ns3:hr>62</ns3:hr>
            <ns3:cad>0</ns3:cad>
          </ns3:TrackPointExtension>
        </extensions>
      </trkpt>
      <trkpt lat="43.47429446876049041748046875" lon="1.45870319567620754241943359375">
        <ele>194</ele>
        <time>2026-08-05T08:22:20.000Z</time>
        <extensions>
          <ns3:TrackPointExtension>
            <ns3:hr>62</ns3:hr>
            <ns3:cad>0</ns3:cad>
          </ns3:TrackPointExtension>
        </extensions>
      </trkpt>
      <trkpt lat="43.47429153509438037872314453125" lon="1.45869900472462177276611328125">
        <ele>193.8000030517578125</ele>
        <time>2026-08-05T08:22:21.000Z</time>
        <extensions>
          <ns3:TrackPointExtension>
            <ns3:hr>62</ns3:hr>
            <ns3:cad>0</ns3:cad>
          </ns3:TrackPointExtension>
        </extensions>
      </trkpt>
      <trkpt lat="43.4742912836372852325439453125" lon="1.458698250353336334228515625">
        <ele>193.8000030517578125</ele>
        <time>2026-08-05T08:22:22.000Z</time>
        <extensions>
          <ns3:TrackPointExtension>
            <ns3:hr>62</ns3:hr>
            <ns3:cad>0</ns3:cad>
          </ns3:TrackPointExtension>
        </extensions>
      </trkpt>
      <trkpt lat="43.474293462932109832763671875" lon="1.4586829952895641326904296875">
        <ele>193.600006103515625</ele>
        <time>2026-08-05T08:22:23.000Z</time>
        <extensions>
          <ns3:TrackPointExtension>
            <ns3:hr>62</ns3:hr>
            <ns3:cad>0</ns3:cad>
          </ns3:TrackPointExtension>
        </extensions>
      </trkpt>
      <trkpt lat="43.47429773770272731781005859375" lon="1.45867436192929744720458984375">
        <ele>193.600006103515625</ele>
        <time>2026-08-05T08:22:24.000Z</time>
        <extensions>
          <ns3:TrackPointExtension>
            <ns3:hr>62</ns3:hr>
            <ns3:cad>0</ns3:cad>
          </ns3:TrackPointExtension>
        </extensions>
      </trkpt>
      <trkpt lat="43.47430528141558170318603515625" lon="1.4586632139980792999267578125">
        <ele>193.399993896484375</ele>
        <time>2026-08-05T08:22:25.000Z</time>
        <extensions>
          <ns3:TrackPointExtension>
            <ns3:hr>62</ns3:hr>
            <ns3:cad>0</ns3:cad>
          </ns3:TrackPointExtension>
        </extensions>
      </trkpt>
      <trkpt lat="43.47431047819554805755615234375" lon="1.45865273661911487579345703125">
        <ele>193.399993896484375</ele>
        <time>2026-08-05T08:22:26.000Z</time>
        <extensions>
          <ns3:TrackPointExtension>
            <ns3:hr>62</ns3:hr>
            <ns3:cad>44</ns3:cad>
          </ns3:TrackPointExtension>
        </extensions>
      </trkpt>
      <trkpt lat="43.4743174351751804351806640625" lon="1.4586389064788818359375">
        <ele>193.1999969482421875</ele>
        <time>2026-08-05T08:22:27.000Z</time>
        <extensions>
          <ns3:TrackPointExtension>
            <ns3:hr>62</ns3:hr>
            <ns3:cad>44</ns3:cad>
          </ns3:TrackPointExtension>
        </extensions>
      </trkpt>
      <trkpt lat="43.47432455979287624359130859375" lon="1.458625495433807373046875">
        <ele>193.1999969482421875</ele>
        <time>2026-08-05T08:22:28.000Z</time>
        <extensions>
          <ns3:TrackPointExtension>
            <ns3:hr>62</ns3:hr>
            <ns3:cad>44</ns3:cad>
          </ns3:TrackPointExtension>
        </extensions>
      </trkpt>
      <trkpt lat="43.47433059476315975189208984375" lon="1.45861552096903324127197265625">
        <ele>193.1999969482421875</ele>
        <time>2026-08-05T08:22:29.000Z</time>
        <extensions>
          <ns3:TrackPointExtension>
            <ns3:hr>62</ns3:hr>
            <ns3:cad>47</ns3:cad>
          </ns3:TrackPointExtension>
        </extensions>
      </trkpt>
      <trkpt lat="43.47433461807668209075927734375" lon="1.45860462449491024017333984375">
        <ele>193</ele>
        <time>2026-08-05T08:22:30.000Z</time>
        <extensions>
          <ns3:TrackPointExtension>
            <ns3:hr>62</ns3:hr>
            <ns3:cad>48</ns3:cad>
          </ns3:TrackPointExtension>
        </extensions>
      </trkpt>
      <trkpt lat="43.47433864139020442962646484375" lon="1.45859121344983577728271484375">
        <ele>193</ele>
        <time>2026-08-05T08:22:31.000Z</time>
        <extensions>
          <ns3:TrackPointExtension>
            <ns3:hr>62</ns3:hr>
            <ns3:cad>48</ns3:cad>
          </ns3:TrackPointExtension>
        </extensions>
      </trkpt>
      <trkpt lat="43.47434501163661479949951171875" lon="1.4585837535560131072998046875">
        <ele>193</ele>
        <time>2026-08-05T08:22:32.000Z</time>
        <extensions>
          <ns3:TrackPointExtension>
            <ns3:hr>63</ns3:hr>
            <ns3:cad>48</ns3:cad>
          </ns3:TrackPointExtension>
        </extensions>
      </trkpt>
      <trkpt lat="43.47435356117784976959228515625" lon="1.45857126452028751373291015625">
        <ele>193</ele>
        <time>2026-08-05T08:22:33.000Z</time>
        <extensions>
          <ns3:TrackPointExtension>
            <ns3:hr>63</ns3:hr>
            <ns3:cad>0</ns3:cad>
          </ns3:TrackPointExtension>
        </extensions>
      </trkpt>
      <trkpt lat="43.47436412237584590911865234375" lon="1.45855802111327648162841796875">
        <ele>192.8000030517578125</ele>
        <time>2026-08-05T08:22:34.000Z</time>
        <extensions>
          <ns3:TrackPointExtension>
            <ns3:hr>62</ns3:hr>
            <ns3:cad>45</ns3:cad>
          </ns3:TrackPointExtension>
        </extensions>
      </trkpt>
      <trkpt lat="43.474367894232273101806640625" lon="1.4585508964955806732177734375">
        <ele>192.8000030517578125</ele>
        <time>2026-08-05T08:22:35.000Z</time>
        <extensions>
          <ns3:TrackPointExtension>
            <ns3:hr>62</ns3:hr>
            <ns3:cad>45</ns3:cad>
          </ns3:TrackPointExtension>
        </extensions>
      </trkpt>
      <trkpt lat="43.47437225282192230224609375" lon="1.45854461006820201873779296875">
        <ele>192.8000030517578125</ele>
        <time>2026-08-05T08:22:36.000Z</time>
        <extensions>
          <ns3:TrackPointExtension>
            <ns3:hr>62</ns3:hr>
            <ns3:cad>45</ns3:cad>
          </ns3:TrackPointExtension>
        </extensions>
      </trkpt>
      <trkpt lat="43.4743787907063961029052734375" lon="1.45853086374700069427490234375">
        <ele>192.8000030517578125</ele>
        <time>2026-08-05T08:22:37.000Z</time>
        <extensions>
          <ns3:TrackPointExtension>
            <ns3:hr>63</ns3:hr>
            <ns3:cad>45</ns3:cad>
          </ns3:TrackPointExtension>
        </extensions>
      </trkpt>
      <trkpt lat="43.47438591532409191131591796875" lon="1.458521224558353424072265625">
        <ele>192.8000030517578125</ele>
        <time>2026-08-05T08:22:38.000Z</time>
        <extensions>
          <ns3:TrackPointExtension>
            <ns3:hr>63</ns3:hr>
            <ns3:cad>43</ns3:cad>
          </ns3:TrackPointExtension>
        </extensions>
      </trkpt>
      <trkpt lat="43.47438910044729709625244140625" lon="1.45850823260843753814697265625">
        <ele>192.8000030517578125</ele>
        <time>2026-08-05T08:22:39.000Z</time>
        <extensions>
          <ns3:TrackPointExtension>
            <ns3:hr>63</ns3:hr>
            <ns3:cad>43</ns3:cad>
          </ns3:TrackPointExtension>
        </extensions>
      </trkpt>
      <trkpt lat="43.47439480014145374298095703125" lon="1.4584965817630290985107421875">
        <ele>192.8000030517578125</ele>
        <time>2026-08-05T08:22:40.000Z</time>
        <extensions>
          <ns3:TrackPointExtension>
            <ns3:hr>64</ns3:hr>
            <ns3:cad>43</ns3:cad>
          </ns3:TrackPointExtension>
        </extensions>
      </trkpt>
      <trkpt lat="43.4744015894830226898193359375" lon="1.4584851823747158050537109375">
        <ele>192.600006103515625</ele>
        <time>2026-08-05T08:22:41.000Z</time>
        <extensions>
          <ns3:TrackPointExtension>
            <ns3:hr>65</ns3:hr>
            <ns3:cad>43</ns3:cad>
          </ns3:TrackPointExtension>
        </extensions>
      </trkpt>
      <trkpt lat="43.47440452314913272857666015625" lon="1.4584741182625293731689453125">
        <ele>192.600006103515625</ele>
        <time>2026-08-05T08:22:42.000Z</time>
        <extensions>
          <ns3:TrackPointExtension>
            <ns3:hr>65</ns3:hr>
            <ns3:cad>43</ns3:cad>
          </ns3:TrackPointExtension>
        </extensions>
      </trkpt>
      <trkpt lat="43.4744064509868621826171875" lon="1.45846816711127758026123046875">
        <ele>192.600006103515625</ele>
        <time>2026-08-05T08:22:43.000Z</time>
        <extensions>
          <ns3:TrackPointExtension>
            <ns3:hr>70</ns3:hr>
            <ns3:cad>43</ns3:cad>
          </ns3:TrackPointExtension>
        </extensions>
      </trkpt>
      <trkpt lat="43.47441256977617740631103515625" lon="1.4584623835980892181396484375">
        <ele>192.600006103515625</ele>
        <time>2026-08-05T08:22:44.000Z</time>
        <extensions>
          <ns3:TrackPointExtension>
            <ns3:hr>70</ns3:hr>
            <ns3:cad>0</ns3:cad>
          </ns3:TrackPointExtension>
        </extensions>
      </trkpt>
      <trkpt lat="43.4744113124907016754150390625" lon="1.45845525898039340972900390625">
        <ele>192.600006103515625</ele>
        <time>2026-08-05T08:22:45.000Z</time>
        <extensions>
          <ns3:TrackPointExtension>
            <ns3:hr>70</ns3:hr>
            <ns3:cad>0</ns3:cad>
          </ns3:TrackPointExtension>
        </extensions>
      </trkpt>
      <trkpt lat="43.47441759891808032989501953125" lon="1.4584479667246341705322265625">
        <ele>192.600006103515625</ele>
        <time>2026-08-05T08:22:46.000Z</time>
        <extensions>
          <ns3:TrackPointExtension>
            <ns3:hr>70</ns3:hr>
            <ns3:cad>0</ns3:cad>
          </ns3:TrackPointExtension>
        </extensions>
      </trkpt>
      <trkpt lat="43.47442329861223697662353515625" lon="1.45844134502112865447998046875">
        <ele>192.8000030517578125</ele>
        <time>2026-08-05T08:22:47.000Z</time>
        <extensions>
          <ns3:TrackPointExtension>
            <ns3:hr>70</ns3:hr>
            <ns3:cad>44</ns3:cad>
          </ns3:TrackPointExtension>
        </extensions>
      </trkpt>
      <trkpt lat="43.47442782483994960784912109375" lon="1.45843229256570339202880859375">
        <ele>192.600006103515625</ele>
        <time>2026-08-05T08:22:48.000Z</time>
        <extensions>
          <ns3:TrackPointExtension>
            <ns3:hr>70</ns3:hr>
            <ns3:cad>44</ns3:cad>
          </ns3:TrackPointExtension>
        </extensions>
      </trkpt>
      <trkpt lat="43.474432267248630523681640625" lon="1.45841888152062892913818359375">
        <ele>192.600006103515625</ele>
        <time>2026-08-05T08:22:49.000Z</time>
        <extensions>
          <ns3:TrackPointExtension>
            <ns3:hr>70</ns3:hr>
            <ns3:cad>0</ns3:cad>
          </ns3:TrackPointExtension>
        </extensions>
      </trkpt>
      <trkpt lat="43.47443620674312114715576171875" lon="1.4584087394177913665771484375">
        <ele>192.600006103515625</ele>
        <time>2026-08-05T08:22:50.000Z</time>
        <extensions>
          <ns3:TrackPointExtension>
            <ns3:hr>71</ns3:hr>
            <ns3:cad>0</ns3:cad>
          </ns3:TrackPointExtension>
        </extensions>
      </trkpt>
      <trkpt lat="43.4744398109614849090576171875" lon="1.458398513495922088623046875">
        <ele>192.600006103515625</ele>
        <time>2026-08-05T08:22:51.000Z</time>
        <extensions>
          <ns3:TrackPointExtension>
            <ns3:hr>71</ns3:hr>
            <ns3:cad>0</ns3:cad>
          </ns3:TrackPointExtension>
        </extensions>
      </trkpt>
      <trkpt lat="43.47444592975080013275146484375" lon="1.4583876170217990875244140625">
        <ele>192.399993896484375</ele>
        <time>2026-08-05T08:22:52.000Z</time>
        <extensions>
          <ns3:TrackPointExtension>
            <ns3:hr>71</ns3:hr>
            <ns3:cad>0</ns3:cad>
          </ns3:TrackPointExtension>
        </extensions>
      </trkpt>
      <trkpt lat="43.47445330582559108734130859375" lon="1.45838233642280101776123046875">
        <ele>192.399993896484375</ele>
        <time>2026-08-05T08:22:53.000Z</time>
        <extensions>
          <ns3:TrackPointExtension>
            <ns3:hr>70</ns3:hr>
            <ns3:cad>0</ns3:cad>
          </ns3:TrackPointExtension>
        </extensions>
      </trkpt>
      <trkpt lat="43.47445950843393802642822265625" lon="1.4583795703947544097900390625">
        <ele>192.399993896484375</ele>
        <time>2026-08-05T08:22:54.000Z</time>
        <extensions>
          <ns3:TrackPointExtension>
            <ns3:hr>71</ns3:hr>
            <ns3:cad>0</ns3:cad>
          </ns3:TrackPointExtension>
        </extensions>
      </trkpt>
      <trkpt lat="43.47446654923260211944580078125" lon="1.4583681710064411163330078125">
        <ele>192.600006103515625</ele>
        <time>2026-08-05T08:22:55.000Z</time>
        <extensions>
          <ns3:TrackPointExtension>
            <ns3:hr>71</ns3:hr>
            <ns3:cad>0</ns3:cad>
          </ns3:TrackPointExtension>
        </extensions>
      </trkpt>
      <trkpt lat="43.47447476349771022796630859375" lon="1.45835584960877895355224609375">
        <ele>192.600006103515625</ele>
        <time>2026-08-05T08:22:56.000Z</time>
        <extensions>
          <ns3:TrackPointExtension>
            <ns3:hr>70</ns3:hr>
            <ns3:cad>45</ns3:cad>
          </ns3:TrackPointExtension>
        </extensions>
      </trkpt>
      <trkpt lat="43.47448197193443775177001953125" lon="1.4583430252969264984130859375">
        <ele>192.399993896484375</ele>
        <time>2026-08-05T08:22:57.000Z</time>
        <extensions>
          <ns3:TrackPointExtension>
            <ns3:hr>71</ns3:hr>
            <ns3:cad>45</ns3:cad>
          </ns3:TrackPointExtension>
        </extensions>
      </trkpt>
      <trkpt lat="43.4744870848953723907470703125" lon="1.45833204500377178192138671875">
        <ele>192.399993896484375</ele>
        <time>2026-08-05T08:22:58.000Z</time>
        <extensions>
          <ns3:TrackPointExtension>
            <ns3:hr>71</ns3:hr>
            <ns3:cad>45</ns3:cad>
          </ns3:TrackPointExtension>
        </extensions>
      </trkpt>
      <trkpt lat="43.47449303604662418365478515625" lon="1.4583242498338222503662109375">
        <ele>192.399993896484375</ele>
        <time>2026-08-05T08:22:59.000Z</time>
        <extensions>
          <ns3:TrackPointExtension>
            <ns3:hr>70</ns3:hr>
            <ns3:cad>43</ns3:cad>
          </ns3:TrackPointExtension>
        </extensions>
      </trkpt>
      <trkpt lat="43.474501334130764007568359375" lon="1.4583135209977626800537109375">
        <ele>192.399993896484375</ele>
        <time>2026-08-05T08:23:00.000Z</time>
        <extensions>
          <ns3:TrackPointExtension>
            <ns3:hr>71</ns3:hr>
            <ns3:cad>43</ns3:cad>
          </ns3:TrackPointExtension>
        </extensions>
      </trkpt>
      <trkpt lat="43.47450661472976207733154296875" lon="1.4582997746765613555908203125">
        <ele>192.399993896484375</ele>
        <time>2026-08-05T08:23:01.000Z</time>
        <extensions>
          <ns3:TrackPointExtension>
            <ns3:hr>72</ns3:hr>
            <ns3:cad>47</ns3:cad>
          </ns3:TrackPointExtension>
        </extensions>
      </trkpt>
      <trkpt lat="43.474510721862316131591796875" lon="1.45829114131629467010498046875">
        <ele>192.399993896484375</ele>
        <time>2026-08-05T08:23:02.000Z</time>
        <extensions>
          <ns3:TrackPointExtension>
            <ns3:hr>72</ns3:hr>
            <ns3:cad>47</ns3:cad>
          </ns3:TrackPointExtension>
        </extensions>
      </trkpt>
      <trkpt lat="43.47451717592775821685791015625" lon="1.45828544162213802337646484375">
        <ele>192.399993896484375</ele>
        <time>2026-08-05T08:23:03.000Z</time>
        <extensions>
          <ns3:TrackPointExtension>
            <ns3:hr>72</ns3:hr>
            <ns3:cad>46</ns3:cad>
          </ns3:TrackPointExtension>
        </extensions>
      </trkpt>
      <trkpt lat="43.4745249710977077484130859375" lon="1.45827471278607845306396484375">
        <ele>192.399993896484375</ele>
        <time>2026-08-05T08:23:04.000Z</time>
        <extensions>
          <ns3:TrackPointExtension>
            <ns3:hr>72</ns3:hr>
            <ns3:cad>46</ns3:cad>
          </ns3:TrackPointExtension>
        </extensions>
      </trkpt>
      <trkpt lat="43.4745306707918643951416015625" lon="1.4582588709890842437744140625">
        <ele>192.399993896484375</ele>
        <time>2026-08-05T08:23:05.000Z</time>
        <extensions>
          <ns3:TrackPointExtension>
            <ns3:hr>72</ns3:hr>
            <ns3:cad>47</ns3:cad>
          </ns3:TrackPointExtension>
        </extensions>
      </trkpt>
      <trkpt lat="43.4745340235531330108642578125" lon="1.45824730396270751953125">
        <ele>192.399993896484375</ele>
        <time>2026-08-05T08:23:06.000Z</time>
        <extensions>
          <ns3:TrackPointExtension>
            <ns3:hr>72</ns3:hr>
            <ns3:cad>47</ns3:cad>
          </ns3:TrackPointExtension>
        </extensions>
      </trkpt>
      <trkpt lat="43.4745419025421142578125" lon="1.45823732949793338775634765625">
        <ele>192.399993896484375</ele>
        <time>2026-08-05T08:23:07.000Z</time>
        <extensions>
          <ns3:TrackPointExtension>
            <ns3:hr>72</ns3:hr>
            <ns3:cad>47</ns3:cad>
          </ns3:TrackPointExtension>
        </extensions>
      </trkpt>
      <trkpt lat="43.474546931684017181396484375" lon="1.45822593010962009429931640625">
        <ele>192.399993896484375</ele>
        <time>2026-08-05T08:23:08.000Z</time>
        <extensions>
          <ns3:TrackPointExtension>
            <ns3:hr>72</ns3:hr>
            <ns3:cad>46</ns3:cad>
          </ns3:TrackPointExtension>
        </extensions>
      </trkpt>
      <trkpt lat="43.474555313587188720703125" lon="1.458210758864879608154296875">
        <ele>192.399993896484375</ele>
        <time>2026-08-05T08:23:09.000Z</time>
        <extensions>
          <ns3:TrackPointExtension>
            <ns3:hr>72</ns3:hr>
            <ns3:cad>46</ns3:cad>
          </ns3:TrackPointExtension>
        </extensions>
      </trkpt>
      <trkpt lat="43.4745635278522968292236328125" lon="1.458198018372058868408203125">
        <ele>192.399993896484375</ele>
        <time>2026-08-05T08:23:10.000Z</time>
        <extensions>
          <ns3:TrackPointExtension>
            <ns3:hr>73</ns3:hr>
            <ns3:cad>48</ns3:cad>
          </ns3:TrackPointExtension>
        </extensions>
      </trkpt>
      <trkpt lat="43.47457115538418292999267578125" lon="1.45818670280277729034423828125">
        <ele>192.399993896484375</ele>
        <time>2026-08-05T08:23:11.000Z</time>
        <extensions>
          <ns3:TrackPointExtension>
            <ns3:hr>73</ns3:hr>
            <ns3:cad>48</ns3:cad>
          </ns3:TrackPointExtension>
        </extensions>
      </trkpt>
      <trkpt lat="43.47457744181156158447265625" lon="1.45817614160478115081787109375">
        <ele>192.399993896484375</ele>
        <time>2026-08-05T08:23:12.000Z</time>
        <extensions>
          <ns3:TrackPointExtension>
            <ns3:hr>75</ns3:hr>
            <ns3:cad>48</ns3:cad>
          </ns3:TrackPointExtension>
        </extensions>
      </trkpt>
      <trkpt lat="43.4745849855244159698486328125" lon="1.45816708914935588836669921875">
        <ele>192.399993896484375</ele>
        <time>2026-08-05T08:23:13.000Z</time>
        <extensions>
          <ns3:TrackPointExtension>
            <ns3:hr>75</ns3:hr>
            <ns3:cad>48</ns3:cad>
          </ns3:TrackPointExtension>
        </extensions>
      </trkpt>
      <trkpt lat="43.4745926968753337860107421875" lon="1.4581542648375034332275390625">
        <ele>192.399993896484375</ele>
        <time>2026-08-05T08:23:14.000Z</time>
        <extensions>
          <ns3:TrackPointExtension>
            <ns3:hr>75</ns3:hr>
            <ns3:cad>47</ns3:cad>
          </ns3:TrackPointExtension>
        </extensions>
      </trkpt>
      <trkpt lat="43.47459487617015838623046875" lon="1.4581425301730632781982421875">
        <ele>192.399993896484375</ele>
        <time>2026-08-05T08:23:15.000Z</time>
        <extensions>
          <ns3:TrackPointExtension>
            <ns3:hr>77</ns3:hr>
            <ns3:cad>47</ns3:cad>
          </ns3:TrackPointExtension>
        </extensions>
      </trkpt>
      <trkpt lat="43.47460158169269561767578125" lon="1.4581333100795745849609375">
        <ele>192.1999969482421875</ele>
        <time>2026-08-05T08:23:16.000Z</time>
        <extensions>
          <ns3:TrackPointExtension>
            <ns3:hr>77</ns3:hr>
            <ns3:cad>47</ns3:cad>
          </ns3:TrackPointExtension>
        </extensions>
      </trkpt>
      <trkpt lat="43.47460803575813770294189453125" lon="1.4581250958144664764404296875">
        <ele>192.1999969482421875</ele>
        <time>2026-08-05T08:23:17.000Z</time>
        <extensions>
          <ns3:TrackPointExtension>
            <ns3:hr>78</ns3:hr>
            <ns3:cad>48</ns3:cad>
          </ns3:TrackPointExtension>
        </extensions>
      </trkpt>
      <trkpt lat="43.47461138851940631866455078125" lon="1.4581180550158023834228515625">
        <ele>192.1999969482421875</ele>
        <time>2026-08-05T08:23:18.000Z</time>
        <extensions>
          <ns3:TrackPointExtension>
            <ns3:hr>78</ns3:hr>
            <ns3:cad>48</ns3:cad>
          </ns3:TrackPointExtension>
        </extensions>
      </trkpt>
      <trkpt lat="43.47462035715579986572265625" lon="1.45810958929359912872314453125">
        <ele>192.1999969482421875</ele>
        <time>2026-08-05T08:23:19.000Z</time>
        <extensions>
          <ns3:TrackPointExtension>
            <ns3:hr>78</ns3:hr>
            <ns3:cad>48</ns3:cad>
          </ns3:TrackPointExtension>
        </extensions>
      </trkpt>
      <trkpt lat="43.4746285714209079742431640625" lon="1.45810254849493503570556640625">
        <ele>192.1999969482421875</ele>
        <time>2026-08-05T08:23:20.000Z</time>
        <extensions>
          <ns3:TrackPointExtension>
            <ns3:hr>78</ns3:hr>
            <ns3:cad>47</ns3:cad>
          </ns3:TrackPointExtension>
        </extensions>
      </trkpt>
      <trkpt lat="43.4746342711150646209716796875" lon="1.45809852518141269683837890625">
        <ele>192.1999969482421875</ele>
        <time>2026-08-05T08:23:21.000Z</time>
        <extensions>
          <ns3:TrackPointExtension>
            <ns3:hr>78</ns3:hr>
            <ns3:cad>47</ns3:cad>
          </ns3:TrackPointExtension>
        </extensions>
      </trkpt>
      <trkpt lat="43.47464391030371189117431640625" lon="1.45808704197406768798828125">
        <ele>192.1999969482421875</ele>
        <time>2026-08-05T08:23:22.000Z</time>
        <extensions>
          <ns3:TrackPointExtension>
            <ns3:hr>78</ns3:hr>
            <ns3:cad>47</ns3:cad>
          </ns3:TrackPointExtension>
        </extensions>
      </trkpt>
      <trkpt lat="43.47465245984494686126708984375" lon="1.4580768160521984100341796875">
        <ele>192.1999969482421875</ele>
        <time>2026-08-05T08:23:23.000Z</time>
        <extensions>
          <ns3:TrackPointExtension>
            <ns3:hr>79</ns3:hr>
            <ns3:cad>46</ns3:cad>
          </ns3:TrackPointExtension>
        </extensions>
      </trkpt>
      <trkpt lat="43.4746600873768329620361328125" lon="1.45806935615837574005126953125">
        <ele>192.1999969482421875</ele>
        <time>2026-08-05T08:23:24.000Z</time>
        <extensions>
          <ns3:TrackPointExtension>
            <ns3:hr>78</ns3:hr>
            <ns3:cad>46</ns3:cad>
          </ns3:TrackPointExtension>
        </extensions>
      </trkpt>
      <trkpt lat="43.47466452978551387786865234375" lon="1.458062231540679931640625">
        <ele>192.1999969482421875</ele>
        <time>2026-08-05T08:23:25.000Z</time>
        <extensions>
          <ns3:TrackPointExtension>
            <ns3:hr>78</ns3:hr>
            <ns3:cad>45</ns3:cad>
          </ns3:TrackPointExtension>
        </extensions>
      </trkpt>
      <trkpt lat="43.474677018821239471435546875" lon="1.4580489881336688995361328125">
        <ele>192.1999969482421875</ele>
        <time>2026-08-05T08:23:26.000Z</time>
        <extensions>
          <ns3:TrackPointExtension>
            <ns3:hr>79</ns3:hr>
            <ns3:cad>45</ns3:cad>
          </ns3:TrackPointExtension>
        </extensions>
      </trkpt>
      <trkpt lat="43.47468213178217411041259765625" lon="1.4580345712602138519287109375">
        <ele>192.1999969482421875</ele>
        <time>2026-08-05T08:23:27.000Z</time>
        <extensions>
          <ns3:TrackPointExtension>
            <ns3:hr>78</ns3:hr>
            <ns3:cad>44</ns3:cad>
          </ns3:TrackPointExtension>
        </extensions>
      </trkpt>
      <trkpt lat="43.4746892563998699188232421875" lon="1.45802476443350315093994140625">
        <ele>192.1999969482421875</ele>
        <time>2026-08-05T08:23:28.000Z</time>
        <extensions>
          <ns3:TrackPointExtension>
            <ns3:hr>78</ns3:hr>
            <ns3:cad>44</ns3:cad>
          </ns3:TrackPointExtension>
        </extensions>
      </trkpt>
      <trkpt lat="43.47469805739820003509521484375" lon="1.4580161310732364654541015625">
        <ele>192</ele>
        <time>2026-08-05T08:23:29.000Z</time>
        <extensions>
          <ns3:TrackPointExtension>
            <ns3:hr>78</ns3:hr>
            <ns3:cad>44</ns3:cad>
          </ns3:TrackPointExtension>
        </extensions>
      </trkpt>
      <trkpt lat="43.4747068583965301513671875" lon="1.45800364203751087188720703125">
        <ele>192</ele>
        <time>2026-08-05T08:23:30.000Z</time>
        <extensions>
          <ns3:TrackPointExtension>
            <ns3:hr>78</ns3:hr>
            <ns3:cad>44</ns3:cad>
          </ns3:TrackPointExtension>
        </extensions>
      </trkpt>
      <trkpt lat="43.47471482120454311370849609375" lon="1.45799257792532444000244140625">
        <ele>192</ele>
        <time>2026-08-05T08:23:31.000Z</time>
        <extensions>
          <ns3:TrackPointExtension>
            <ns3:hr>78</ns3:hr>
            <ns3:cad>45</ns3:cad>
          </ns3:TrackPointExtension>
        </extensions>
      </trkpt>
      <trkpt lat="43.4747234545648097991943359375" lon="1.45798369310796260833740234375">
        <ele>192</ele>
        <time>2026-08-05T08:23:32.000Z</time>
        <extensions>
          <ns3:TrackPointExtension>
            <ns3:hr>78</ns3:hr>
            <ns3:cad>45</ns3:cad>
          </ns3:TrackPointExtension>
        </extensions>
      </trkpt>
      <trkpt lat="43.4747311659157276153564453125" lon="1.45797707140445709228515625">
        <ele>192</ele>
        <time>2026-08-05T08:23:33.000Z</time>
        <extensions>
          <ns3:TrackPointExtension>
            <ns3:hr>78</ns3:hr>
            <ns3:cad>47</ns3:cad>
          </ns3:TrackPointExtension>
        </extensions>
      </trkpt>
      <trkpt lat="43.47473896108567714691162109375" lon="1.4579735510051250457763671875">
        <ele>192</ele>
        <time>2026-08-05T08:23:34.000Z</time>
        <extensions>
          <ns3:TrackPointExtension>
            <ns3:hr>78</ns3:hr>
            <ns3:cad>47</ns3:cad>
          </ns3:TrackPointExtension>
        </extensions>
      </trkpt>
      <trkpt lat="43.4747492708265781402587890625" lon="1.45796500146389007568359375">
        <ele>192</ele>
        <time>2026-08-05T08:23:35.000Z</time>
        <extensions>
          <ns3:TrackPointExtension>
            <ns3:hr>78</ns3:hr>
            <ns3:cad>49</ns3:cad>
          </ns3:TrackPointExtension>
        </extensions>
      </trkpt>
      <trkpt lat="43.47476092167198657989501953125" lon="1.4579589664936065673828125">
        <ele>191.8000030517578125</ele>
        <time>2026-08-05T08:23:36.000Z</time>
        <extensions>
          <ns3:TrackPointExtension>
            <ns3:hr>78</ns3:hr>
            <ns3:cad>49</ns3:cad>
          </ns3:TrackPointExtension>
        </extensions>
      </trkpt>
      <trkpt lat="43.4747700579464435577392578125" lon="1.45795024931430816650390625">
        <ele>191.8000030517578125</ele>
        <time>2026-08-05T08:23:37.000Z</time>
        <extensions>
          <ns3:TrackPointExtension>
            <ns3:hr>77</ns3:hr>
            <ns3:cad>48</ns3:cad>
          </ns3:TrackPointExtension>
        </extensions>
      </trkpt>
      <trkpt lat="43.47478003241121768951416015625" lon="1.4579437114298343658447265625">
        <ele>191.600006103515625</ele>
        <time>2026-08-05T08:23:38.000Z</time>
        <extensions>
          <ns3:TrackPointExtension>
            <ns3:hr>77</ns3:hr>
            <ns3:cad>48</ns3:cad>
          </ns3:TrackPointExtension>
        </extensions>
      </trkpt>
      <trkpt lat="43.47478992305696010589599609375" lon="1.45793817937374114990234375">
        <ele>191.600006103515625</ele>
        <time>2026-08-05T08:23:39.000Z</time>
        <extensions>
          <ns3:TrackPointExtension>
            <ns3:hr>77</ns3:hr>
            <ns3:cad>49</ns3:cad>
          </ns3:TrackPointExtension>
        </extensions>
      </trkpt>
      <trkpt lat="43.47479947842657566070556640625" lon="1.45793239586055278778076171875">
        <ele>191.399993896484375</ele>
        <time>2026-08-05T08:23:40.000Z</time>
        <extensions>
          <ns3:TrackPointExtension>
            <ns3:hr>77</ns3:hr>
            <ns3:cad>48</ns3:cad>
          </ns3:TrackPointExtension>
        </extensions>
      </trkpt>
      <trkpt lat="43.47480651922523975372314453125" lon="1.45792686380445957183837890625">
        <ele>191.399993896484375</ele>
        <time>2026-08-05T08:23:41.000Z</time>
        <extensions>
          <ns3:TrackPointExtension>
            <ns3:hr>77</ns3:hr>
            <ns3:cad>48</ns3:cad>
          </ns3:TrackPointExtension>
        </extensions>
      </trkpt>
      <trkpt lat="43.474813811480998992919921875" lon="1.457922421395778656005859375">
        <ele>191.399993896484375</ele>
        <time>2026-08-05T08:23:42.000Z</time>
        <extensions>
          <ns3:TrackPointExtension>
            <ns3:hr>77</ns3:hr>
            <ns3:cad>47</ns3:cad>
          </ns3:TrackPointExtension>
        </extensions>
      </trkpt>
      <trkpt lat="43.4748260490596294403076171875" lon="1.4579158835113048553466796875">
        <ele>191.399993896484375</ele>
        <time>2026-08-05T08:23:43.000Z</time>
        <extensions>
          <ns3:TrackPointExtension>
            <ns3:hr>77</ns3:hr>
            <ns3:cad>46</ns3:cad>
          </ns3:TrackPointExtension>
        </extensions>
      </trkpt>
      <trkpt lat="43.474836610257625579833984375" lon="1.45791077055037021636962890625">
        <ele>191.399993896484375</ele>
        <time>2026-08-05T08:23:44.000Z</time>
        <extensions>
          <ns3:TrackPointExtension>
            <ns3:hr>77</ns3:hr>
            <ns3:cad>44</ns3:cad>
          </ns3:TrackPointExtension>
        </extensions>
      </trkpt>
      <trkpt lat="43.47484038211405277252197265625" lon="1.45790875889360904693603515625">
        <ele>191.399993896484375</ele>
        <time>2026-08-05T08:23:45.000Z</time>
        <extensions>
          <ns3:TrackPointExtension>
            <ns3:hr>77</ns3:hr>
            <ns3:cad>42</ns3:cad>
          </ns3:TrackPointExtension>
        </extensions>
      </trkpt>
      <trkpt lat="43.47484809346497058868408203125" lon="1.45790305919945240020751953125">
        <ele>191.600006103515625</ele>
        <time>2026-08-05T08:23:46.000Z</time>
        <extensions>
          <ns3:TrackPointExtension>
            <ns3:hr>76</ns3:hr>
            <ns3:cad>41</ns3:cad>
          </ns3:TrackPointExtension>
        </extensions>
      </trkpt>
      <trkpt lat="43.4748592413961887359619140625" lon="1.45789400674402713775634765625">
        <ele>191.600006103515625</ele>
        <time>2026-08-05T08:23:47.000Z</time>
        <extensions>
          <ns3:TrackPointExtension>
            <ns3:hr>76</ns3:hr>
            <ns3:cad>41</ns3:cad>
          </ns3:TrackPointExtension>
        </extensions>
      </trkpt>
      <trkpt lat="43.47486770711839199066162109375" lon="1.45788948051631450653076171875">
        <ele>191.600006103515625</ele>
        <time>2026-08-05T08:23:48.000Z</time>
        <extensions>
          <ns3:TrackPointExtension>
            <ns3:hr>76</ns3:hr>
            <ns3:cad>41</ns3:cad>
          </ns3:TrackPointExtension>
        </extensions>
      </trkpt>
      <trkpt lat="43.47487810067832469940185546875" lon="1.45788713358342647552490234375">
        <ele>191.600006103515625</ele>
        <time>2026-08-05T08:23:49.000Z</time>
        <extensions>
          <ns3:TrackPointExtension>
            <ns3:hr>77</ns3:hr>
            <ns3:cad>43</ns3:cad>
          </ns3:TrackPointExtension>
        </extensions>
      </trkpt>
      <trkpt lat="43.47488530911505222320556640625" lon="1.45788026042282581329345703125">
        <ele>191.600006103515625</ele>
        <time>2026-08-05T08:23:50.000Z</time>
        <extensions>
          <ns3:TrackPointExtension>
            <ns3:hr>77</ns3:hr>
            <ns3:cad>44</ns3:cad>
          </ns3:TrackPointExtension>
        </extensions>
      </trkpt>
      <trkpt lat="43.47489687614142894744873046875" lon="1.45787372253835201263427734375">
        <ele>191.600006103515625</ele>
        <time>2026-08-05T08:23:51.000Z</time>
        <extensions>
          <ns3:TrackPointExtension>
            <ns3:hr>77</ns3:hr>
            <ns3:cad>45</ns3:cad>
          </ns3:TrackPointExtension>
        </extensions>
      </trkpt>
      <trkpt lat="43.47490492276847362518310546875" lon="1.45786684937775135040283203125">
        <ele>191.600006103515625</ele>
        <time>2026-08-05T08:23:52.000Z</time>
        <extensions>
          <ns3:TrackPointExtension>
            <ns3:hr>76</ns3:hr>
            <ns3:cad>46</ns3:cad>
          </ns3:TrackPointExtension>
        </extensions>
      </trkpt>
      <trkpt lat="43.47491498105227947235107421875" lon="1.4578612335026264190673828125">
        <ele>191.600006103515625</ele>
        <time>2026-08-05T08:23:53.000Z</time>
        <extensions>
          <ns3:TrackPointExtension>
            <ns3:hr>77</ns3:hr>
            <ns3:cad>46</ns3:cad>
          </ns3:TrackPointExtension>
        </extensions>
      </trkpt>
      <trkpt lat="43.47492302767932415008544921875" lon="1.45785695873200893402099609375">
        <ele>191.600006103515625</ele>
        <time>2026-08-05T08:23:54.000Z</time>
        <extensions>
          <ns3:TrackPointExtension>
            <ns3:hr>77</ns3:hr>
            <ns3:cad>46</ns3:cad>
          </ns3:TrackPointExtension>
        </extensions>
      </trkpt>
      <trkpt lat="43.4749330021440982818603515625" lon="1.45784857682883739471435546875">
        <ele>191.600006103515625</ele>
        <time>2026-08-05T08:23:55.000Z</time>
        <extensions>
          <ns3:TrackPointExtension>
            <ns3:hr>77</ns3:hr>
            <ns3:cad>46</ns3:cad>
          </ns3:TrackPointExtension>
        </extensions>
      </trkpt>
      <trkpt lat="43.47494364716112613677978515625" lon="1.45783902145922183990478515625">
        <ele>191.600006103515625</ele>
        <time>2026-08-05T08:23:56.000Z</time>
        <extensions>
          <ns3:TrackPointExtension>
            <ns3:hr>77</ns3:hr>
            <ns3:cad>45</ns3:cad>
          </ns3:TrackPointExtension>
        </extensions>
      </trkpt>
      <trkpt lat="43.47495219670236110687255859375" lon="1.4578313939273357391357421875">
        <ele>191.399993896484375</ele>
        <time>2026-08-05T08:23:57.000Z</time>
        <extensions>
          <ns3:TrackPointExtension>
            <ns3:hr>77</ns3:hr>
            <ns3:cad>45</ns3:cad>
          </ns3:TrackPointExtension>
        </extensions>
      </trkpt>
      <trkpt lat="43.47496108151972293853759765625" lon="1.45782661624252796173095703125">
        <ele>191.399993896484375</ele>
        <time>2026-08-05T08:23:58.000Z</time>
        <extensions>
          <ns3:TrackPointExtension>
            <ns3:hr>77</ns3:hr>
            <ns3:cad>46</ns3:cad>
          </ns3:TrackPointExtension>
        </extensions>
      </trkpt>
      <trkpt lat="43.47496544010937213897705078125" lon="1.45782443694770336151123046875">
        <ele>191.399993896484375</ele>
        <time>2026-08-05T08:23:59.000Z</time>
        <extensions>
          <ns3:TrackPointExtension>
            <ns3:hr>77</ns3:hr>
            <ns3:cad>47</ns3:cad>
          </ns3:TrackPointExtension>
        </extensions>
      </trkpt>
      <trkpt lat="43.47497683949768543243408203125" lon="1.45781722851097583770751953125">
        <ele>191.399993896484375</ele>
        <time>2026-08-05T08:24:00.000Z</time>
        <extensions>
          <ns3:TrackPointExtension>
            <ns3:hr>78</ns3:hr>
            <ns3:cad>48</ns3:cad>
          </ns3:TrackPointExtension>
        </extensions>
      </trkpt>
      <trkpt lat="43.4749849699437618255615234375" lon="1.4578102715313434600830078125">
        <ele>191.399993896484375</ele>
        <time>2026-08-05T08:24:01.000Z</time>
        <extensions>
          <ns3:TrackPointExtension>
            <ns3:hr>78</ns3:hr>
            <ns3:cad>48</ns3:cad>
          </ns3:TrackPointExtension>
        </extensions>
      </trkpt>
      <trkpt lat="43.4749930165708065032958984375" lon="1.45780750550329685211181640625">
        <ele>191.399993896484375</ele>
        <time>2026-08-05T08:24:02.000Z</time>
        <extensions>
          <ns3:TrackPointExtension>
            <ns3:hr>78</ns3:hr>
            <ns3:cad>48</ns3:cad>
          </ns3:TrackPointExtension>
        </extensions>
      </trkpt>
      <trkpt lat="43.47499779425561428070068359375" lon="1.45780180580914020538330078125">
        <ele>191.399993896484375</ele>
        <time>2026-08-05T08:24:03.000Z</time>
        <extensions>
          <ns3:TrackPointExtension>
            <ns3:hr>78</ns3:hr>
            <ns3:cad>48</ns3:cad>
          </ns3:TrackPointExtension>
        </extensions>
      </trkpt>
      <trkpt lat="43.47500952892005443572998046875" lon="1.4577928371727466583251953125">
        <ele>191.399993896484375</ele>
        <time>2026-08-05T08:24:04.000Z</time>
        <extensions>
          <ns3:TrackPointExtension>
            <ns3:hr>78</ns3:hr>
            <ns3:cad>47</ns3:cad>
          </ns3:TrackPointExtension>
        </extensions>
      </trkpt>
      <trkpt lat="43.47502059303224086761474609375" lon="1.45778403617441654205322265625">
        <ele>191.1999969482421875</ele>
        <time>2026-08-05T08:24:05.000Z</time>
        <extensions>
          <ns3:TrackPointExtension>
            <ns3:hr>78</ns3:hr>
            <ns3:cad>46</ns3:cad>
          </ns3:TrackPointExtension>
        </extensions>
      </trkpt>
      <trkpt lat="43.475031740963459014892578125" lon="1.457774229347705841064453125">
        <ele>191.1999969482421875</ele>
        <time>2026-08-05T08:24:06.000Z</time>
        <extensions>
          <ns3:TrackPointExtension>
            <ns3:hr>78</ns3:hr>
            <ns3:cad>46</ns3:cad>
          </ns3:TrackPointExtension>
        </extensions>
      </trkpt>
      <trkpt lat="43.47503869794309139251708984375" lon="1.457771547138690948486328125">
        <ele>191.1999969482421875</ele>
        <time>2026-08-05T08:24:07.000Z</time>
        <extensions>
          <ns3:TrackPointExtension>
            <ns3:hr>78</ns3:hr>
            <ns3:cad>46</ns3:cad>
          </ns3:TrackPointExtension>
        </extensions>
      </trkpt>
      <trkpt lat="43.475044481456279754638671875" lon="1.4577670209109783172607421875">
        <ele>191.1999969482421875</ele>
        <time>2026-08-05T08:24:08.000Z</time>
        <extensions>
          <ns3:TrackPointExtension>
            <ns3:hr>78</ns3:hr>
            <ns3:cad>47</ns3:cad>
          </ns3:TrackPointExtension>
        </extensions>
      </trkpt>
      <trkpt lat="43.47505294717848300933837890625" lon="1.457760147750377655029296875">
        <ele>191.1999969482421875</ele>
        <time>2026-08-05T08:24:09.000Z</time>
        <extensions>
          <ns3:TrackPointExtension>
            <ns3:hr>78</ns3:hr>
            <ns3:cad>48</ns3:cad>
          </ns3:TrackPointExtension>
        </extensions>
      </trkpt>
      <trkpt lat="43.475059233605861663818359375" lon="1.4577519334852695465087890625">
        <ele>191</ele>
        <time>2026-08-05T08:24:10.000Z</time>
        <extensions>
          <ns3:TrackPointExtension>
            <ns3:hr>77</ns3:hr>
            <ns3:cad>48</ns3:cad>
          </ns3:TrackPointExtension>
        </extensions>
      </trkpt>
      <trkpt lat="43.47506853751838207244873046875" lon="1.45774682052433490753173828125">
        <ele>191</ele>
        <time>2026-08-05T08:24:11.000Z</time>
        <extensions>
          <ns3:TrackPointExtension>
            <ns3:hr>77</ns3:hr>
            <ns3:cad>48</ns3:cad>
          </ns3:TrackPointExtension>
        </extensions>
      </trkpt>
      <trkpt lat="43.475077338516712188720703125" lon="1.45774195902049541473388671875">
        <ele>191</ele>
        <time>2026-08-05T08:24:12.000Z</time>
        <extensions>
          <ns3:TrackPointExtension>
            <ns3:hr>77</ns3:hr>
            <ns3:cad>49</ns3:cad>
          </ns3:TrackPointExtension>
        </extensions>
      </trkpt>
      <trkpt lat="43.4750862233340740203857421875" lon="1.4577390253543853759765625">
        <ele>191</ele>
        <time>2026-08-05T08:24:13.000Z</time>
        <extensions>
          <ns3:TrackPointExtension>
            <ns3:hr>77</ns3:hr>
            <ns3:cad>48</ns3:cad>
          </ns3:TrackPointExtension>
        </extensions>
      </trkpt>
      <trkpt lat="43.47509720362722873687744140625" lon="1.4577281288802623748779296875">
        <ele>191</ele>
        <time>2026-08-05T08:24:14.000Z</time>
        <extensions>
          <ns3:TrackPointExtension>
            <ns3:hr>78</ns3:hr>
            <ns3:cad>47</ns3:cad>
          </ns3:TrackPointExtension>
        </extensions>
      </trkpt>
      <trkpt lat="43.4751053340733051300048828125" lon="1.45772653631865978240966796875">
        <ele>191</ele>
        <time>2026-08-05T08:24:15.000Z</time>
        <extensions>
          <ns3:TrackPointExtension>
            <ns3:hr>78</ns3:hr>
            <ns3:cad>47</ns3:cad>
          </ns3:TrackPointExtension>
        </extensions>
      </trkpt>
      <trkpt lat="43.475112877786159515380859375" lon="1.45772770978510379791259765625">
        <ele>191</ele>
        <time>2026-08-05T08:24:16.000Z</time>
        <extensions>
          <ns3:TrackPointExtension>
            <ns3:hr>78</ns3:hr>
            <ns3:cad>46</ns3:cad>
          </ns3:TrackPointExtension>
        </extensions>
      </trkpt>
      <trkpt lat="43.4751244448125362396240234375" lon="1.45772133953869342803955078125">
        <ele>191</ele>
        <time>2026-08-05T08:24:17.000Z</time>
        <extensions>
          <ns3:TrackPointExtension>
            <ns3:hr>79</ns3:hr>
            <ns3:cad>46</ns3:cad>
          </ns3:TrackPointExtension>
        </extensions>
      </trkpt>
      <trkpt lat="43.47513668239116668701171875" lon="1.4577113650739192962646484375">
        <ele>190.8000030517578125</ele>
        <time>2026-08-05T08:24:18.000Z</time>
        <extensions>
          <ns3:TrackPointExtension>
            <ns3:hr>79</ns3:hr>
            <ns3:cad>46</ns3:cad>
          </ns3:TrackPointExtension>
        </extensions>
      </trkpt>
      <trkpt lat="43.47515034489333629608154296875" lon="1.45770072005689144134521484375">
        <ele>190.8000030517578125</ele>
        <time>2026-08-05T08:24:19.000Z</time>
        <extensions>
          <ns3:TrackPointExtension>
            <ns3:hr>79</ns3:hr>
            <ns3:cad>46</ns3:cad>
          </ns3:TrackPointExtension>
        </extensions>
      </trkpt>
      <trkpt lat="43.47515990026295185089111328125" lon="1.4576969482004642486572265625">
        <ele>190.8000030517578125</ele>
        <time>2026-08-05T08:24:20.000Z</time>
        <extensions>
          <ns3:TrackPointExtension>
            <ns3:hr>79</ns3:hr>
            <ns3:cad>46</ns3:cad>
          </ns3:TrackPointExtension>
        </extensions>
      </trkpt>
      <trkpt lat="43.47516844980418682098388671875" lon="1.45769200287759304046630859375">
        <ele>190.8000030517578125</ele>
        <time>2026-08-05T08:24:21.000Z</time>
        <extensions>
          <ns3:TrackPointExtension>
            <ns3:hr>78</ns3:hr>
            <ns3:cad>46</ns3:cad>
          </ns3:TrackPointExtension>
        </extensions>
      </trkpt>
      <trkpt lat="43.47517582587897777557373046875" lon="1.4576868899166584014892578125">
        <ele>190.8000030517578125</ele>
        <time>2026-08-05T08:24:22.000Z</time>
        <extensions>
          <ns3:TrackPointExtension>
            <ns3:hr>79</ns3:hr>
            <ns3:cad>46</ns3:cad>
          </ns3:TrackPointExtension>
        </extensions>
      </trkpt>
      <trkpt lat="43.47518722526729106903076171875" lon="1.4576788432896137237548828125">
        <ele>190.8000030517578125</ele>
        <time>2026-08-05T08:24:23.000Z</time>
        <extensions>
          <ns3:TrackPointExtension>
            <ns3:hr>79</ns3:hr>
            <ns3:cad>46</ns3:cad>
          </ns3:TrackPointExtension>
        </extensions>
      </trkpt>
      <trkpt lat="43.475197367370128631591796875" lon="1.45767071284353733062744140625">
        <ele>190.8000030517578125</ele>
        <time>2026-08-05T08:24:24.000Z</time>
        <extensions>
          <ns3:TrackPointExtension>
            <ns3:hr>78</ns3:hr>
            <ns3:cad>50</ns3:cad>
          </ns3:TrackPointExtension>
        </extensions>
      </trkpt>
      <trkpt lat="43.475205413997173309326171875" lon="1.45765897817909717559814453125">
        <ele>190.8000030517578125</ele>
        <time>2026-08-05T08:24:25.000Z</time>
        <extensions>
          <ns3:TrackPointExtension>
            <ns3:hr>79</ns3:hr>
            <ns3:cad>50</ns3:cad>
          </ns3:TrackPointExtension>
        </extensions>
      </trkpt>
      <trkpt lat="43.47521580755710601806640625" lon="1.457654871046543121337890625">
        <ele>190.8000030517578125</ele>
        <time>2026-08-05T08:24:26.000Z</time>
        <extensions>
          <ns3:TrackPointExtension>
            <ns3:hr>79</ns3:hr>
            <ns3:cad>50</ns3:cad>
          </ns3:TrackPointExtension>
        </extensions>
      </trkpt>
      <trkpt lat="43.475216813385486602783203125" lon="1.45765042863786220550537109375">
        <ele>190.8000030517578125</ele>
        <time>2026-08-05T08:24:27.000Z</time>
        <extensions>
          <ns3:TrackPointExtension>
            <ns3:hr>78</ns3:hr>
            <ns3:cad>50</ns3:cad>
          </ns3:TrackPointExtension>
        </extensions>
      </trkpt>
      <trkpt lat="43.47522544674575328826904296875" lon="1.45764623768627643585205078125">
        <ele>190.8000030517578125</ele>
        <time>2026-08-05T08:24:28.000Z</time>
        <extensions>
          <ns3:TrackPointExtension>
            <ns3:hr>79</ns3:hr>
            <ns3:cad>50</ns3:cad>
          </ns3:TrackPointExtension>
        </extensions>
      </trkpt>
      <trkpt lat="43.47523785196244716644287109375" lon="1.45763919688761234283447265625">
        <ele>190.8000030517578125</ele>
        <time>2026-08-05T08:24:29.000Z</time>
        <extensions>
          <ns3:TrackPointExtension>
            <ns3:hr>79</ns3:hr>
            <ns3:cad>48</ns3:cad>
          </ns3:TrackPointExtension>
        </extensions>
      </trkpt>
      <trkpt lat="43.47524891607463359832763671875" lon="1.45763165317475795745849609375">
        <ele>190.8000030517578125</ele>
        <time>2026-08-05T08:24:30.000Z</time>
        <extensions>
          <ns3:TrackPointExtension>
            <ns3:hr>79</ns3:hr>
            <ns3:cad>48</ns3:cad>
          </ns3:TrackPointExtension>
        </extensions>
      </trkpt>
      <trkpt lat="43.47525696270167827606201171875" lon="1.457627713680267333984375">
        <ele>190.8000030517578125</ele>
        <time>2026-08-05T08:24:31.000Z</time>
        <extensions>
          <ns3:TrackPointExtension>
            <ns3:hr>79</ns3:hr>
            <ns3:cad>48</ns3:cad>
          </ns3:TrackPointExtension>
        </extensions>
      </trkpt>
      <trkpt lat="43.47526500932872295379638671875" lon="1.4576255343854427337646484375">
        <ele>190.8000030517578125</ele>
        <time>2026-08-05T08:24:32.000Z</time>
        <extensions>
          <ns3:TrackPointExtension>
            <ns3:hr>79</ns3:hr>
            <ns3:cad>48</ns3:cad>
          </ns3:TrackPointExtension>
        </extensions>
      </trkpt>
      <trkpt lat="43.4752759896218776702880859375" lon="1.45761690102517604827880859375">
        <ele>190.8000030517578125</ele>
        <time>2026-08-05T08:24:33.000Z</time>
        <extensions>
          <ns3:TrackPointExtension>
            <ns3:hr>79</ns3:hr>
            <ns3:cad>48</ns3:cad>
          </ns3:TrackPointExtension>
        </extensions>
      </trkpt>
      <trkpt lat="43.475286550819873809814453125" lon="1.45760717801749706268310546875">
        <ele>190.8000030517578125</ele>
        <time>2026-08-05T08:24:34.000Z</time>
        <extensions>
          <ns3:TrackPointExtension>
            <ns3:hr>79</ns3:hr>
            <ns3:cad>48</ns3:cad>
          </ns3:TrackPointExtension>
        </extensions>
      </trkpt>
      <trkpt lat="43.47529627382755279541015625" lon="1.45759913139045238494873046875">
        <ele>190.600006103515625</ele>
        <time>2026-08-05T08:24:35.000Z</time>
        <extensions>
          <ns3:TrackPointExtension>
            <ns3:hr>80</ns3:hr>
            <ns3:cad>48</ns3:cad>
          </ns3:TrackPointExtension>
        </extensions>
      </trkpt>
      <trkpt lat="43.47530172206461429595947265625" lon="1.45759896375238895416259765625">
        <ele>190.8000030517578125</ele>
        <time>2026-08-05T08:24:36.000Z</time>
        <extensions>
          <ns3:TrackPointExtension>
            <ns3:hr>80</ns3:hr>
            <ns3:cad>48</ns3:cad>
          </ns3:TrackPointExtension>
        </extensions>
      </trkpt>
      <trkpt lat="43.47530641593039035797119140625" lon="1.457601226866245269775390625">
        <ele>190.8000030517578125</ele>
        <time>2026-08-05T08:24:37.000Z</time>
        <extensions>
          <ns3:TrackPointExtension>
            <ns3:hr>80</ns3:hr>
            <ns3:cad>48</ns3:cad>
          </ns3:TrackPointExtension>
        </extensions>
      </trkpt>
      <trkpt lat="43.47531999461352825164794921875" lon="1.45759544335305690765380859375">
        <ele>190.8000030517578125</ele>
        <time>2026-08-05T08:24:38.000Z</time>
        <extensions>
          <ns3:TrackPointExtension>
            <ns3:hr>80</ns3:hr>
            <ns3:cad>47</ns3:cad>
          </ns3:TrackPointExtension>
        </extensions>
      </trkpt>
      <trkpt lat="43.47532670013606548309326171875" lon="1.45758974365890026092529296875">
        <ele>190.8000030517578125</ele>
        <time>2026-08-05T08:24:39.000Z</time>
        <extensions>
          <ns3:TrackPointExtension>
            <ns3:hr>79</ns3:hr>
            <ns3:cad>47</ns3:cad>
          </ns3:TrackPointExtension>
        </extensions>
      </trkpt>
      <trkpt lat="43.47533374093472957611083984375" lon="1.45759510807693004608154296875">
        <ele>190.8000030517578125</ele>
        <time>2026-08-05T08:24:40.000Z</time>
        <extensions>
          <ns3:TrackPointExtension>
            <ns3:hr>79</ns3:hr>
            <ns3:cad>47</ns3:cad>
          </ns3:TrackPointExtension>
        </extensions>
      </trkpt>
      <trkpt lat="43.4753349982202053070068359375" lon="1.4575903303921222686767578125">
        <ele>190.600006103515625</ele>
        <time>2026-08-05T08:24:41.000Z</time>
        <extensions>
          <ns3:TrackPointExtension>
            <ns3:hr>79</ns3:hr>
            <ns3:cad>47</ns3:cad>
          </ns3:TrackPointExtension>
        </extensions>
      </trkpt>
      <trkpt lat="43.47534832544624805450439453125" lon="1.45757800899446010589599609375">
        <ele>190.600006103515625</ele>
        <time>2026-08-05T08:24:42.000Z</time>
        <extensions>
          <ns3:TrackPointExtension>
            <ns3:hr>79</ns3:hr>
            <ns3:cad>0</ns3:cad>
          </ns3:TrackPointExtension>
        </extensions>
      </trkpt>
      <trkpt lat="43.47535385750234127044677734375" lon="1.45757465623319149017333984375">
        <ele>190.600006103515625</ele>
        <time>2026-08-05T08:24:43.000Z</time>
        <extensions>
          <ns3:TrackPointExtension>
            <ns3:hr>79</ns3:hr>
            <ns3:cad>0</ns3:cad>
          </ns3:TrackPointExtension>
        </extensions>
      </trkpt>
      <trkpt lat="43.47536324523389339447021484375" lon="1.457572393119335174560546875">
        <ele>190.600006103515625</ele>
        <time>2026-08-05T08:24:44.000Z</time>
        <extensions>
          <ns3:TrackPointExtension>
            <ns3:hr>79</ns3:hr>
            <ns3:cad>47</ns3:cad>
          </ns3:TrackPointExtension>
        </extensions>
      </trkpt>
      <trkpt lat="43.47537296824157238006591796875" lon="1.4575712196528911590576171875">
        <ele>190.600006103515625</ele>
        <time>2026-08-05T08:24:45.000Z</time>
        <extensions>
          <ns3:TrackPointExtension>
            <ns3:hr>79</ns3:hr>
            <ns3:cad>0</ns3:cad>
          </ns3:TrackPointExtension>
        </extensions>
      </trkpt>
      <trkpt lat="43.475387133657932281494140625" lon="1.45756627433001995086669921875">
        <ele>190.600006103515625</ele>
        <time>2026-08-05T08:24:46.000Z</time>
        <extensions>
          <ns3:TrackPointExtension>
            <ns3:hr>79</ns3:hr>
            <ns3:cad>0</ns3:cad>
          </ns3:TrackPointExtension>
        </extensions>
      </trkpt>
      <trkpt lat="43.47539953887462615966796875" lon="1.45756359212100505828857421875">
        <ele>190.600006103515625</ele>
        <time>2026-08-05T08:24:47.000Z</time>
        <extensions>
          <ns3:TrackPointExtension>
            <ns3:hr>79</ns3:hr>
            <ns3:cad>0</ns3:cad>
          </ns3:TrackPointExtension>
        </extensions>
      </trkpt>
      <trkpt lat="43.4754094295203685760498046875" lon="1.457560323178768157958984375">
        <ele>190.600006103515625</ele>
        <time>2026-08-05T08:24:48.000Z</time>
        <extensions>
          <ns3:TrackPointExtension>
            <ns3:hr>80</ns3:hr>
            <ns3:cad>48</ns3:cad>
          </ns3:TrackPointExtension>
        </extensions>
      </trkpt>
      <trkpt lat="43.475420661270618438720703125" lon="1.45755487494170665740966796875">
        <ele>190.600006103515625</ele>
        <time>2026-08-05T08:24:49.000Z</time>
        <extensions>
          <ns3:TrackPointExtension>
            <ns3:hr>80</ns3:hr>
            <ns3:cad>48</ns3:cad>
          </ns3:TrackPointExtension>
        </extensions>
      </trkpt>
      <trkpt lat="43.4754315577447414398193359375" lon="1.45754783414304256439208984375">
        <ele>190.600006103515625</ele>
        <time>2026-08-05T08:24:50.000Z</time>
        <extensions>
          <ns3:TrackPointExtension>
            <ns3:hr>80</ns3:hr>
            <ns3:cad>48</ns3:cad>
          </ns3:TrackPointExtension>
        </extensions>
      </trkpt>
      <trkpt lat="43.47545477561652660369873046875" lon="1.4575333334505558013916015625">
        <ele>190.600006103515625</ele>
        <time>2026-08-05T08:24:51.000Z</time>
        <extensions>
          <ns3:TrackPointExtension>
            <ns3:hr>79</ns3:hr>
            <ns3:cad>49</ns3:cad>
          </ns3:TrackPointExtension>
        </extensions>
      </trkpt>
      <trkpt lat="43.47546466626226902008056640625" lon="1.45752377808094024658203125">
        <ele>190.600006103515625</ele>
        <time>2026-08-05T08:24:52.000Z</time>
        <extensions>
          <ns3:TrackPointExtension>
            <ns3:hr>79</ns3:hr>
            <ns3:cad>49</ns3:cad>
          </ns3:TrackPointExtension>
        </extensions>
      </trkpt>
      <trkpt lat="43.4754731319844722747802734375" lon="1.45750860683619976043701171875">
        <ele>190.600006103515625</ele>
        <time>2026-08-05T08:24:53.000Z</time>
        <extensions>
          <ns3:TrackPointExtension>
            <ns3:hr>79</ns3:hr>
            <ns3:cad>49</ns3:cad>
          </ns3:TrackPointExtension>
        </extensions>
      </trkpt>
      <trkpt lat="43.4754774905741214752197265625" lon="1.45750123076140880584716796875">
        <ele>190.8000030517578125</ele>
        <time>2026-08-05T08:24:54.000Z</time>
        <extensions>
          <ns3:TrackPointExtension>
            <ns3:hr>80</ns3:hr>
            <ns3:cad>48</ns3:cad>
          </ns3:TrackPointExtension>
        </extensions>
      </trkpt>
      <trkpt lat="43.475487716495990753173828125" lon="1.4574977941811084747314453125">
        <ele>190.8000030517578125</ele>
        <time>2026-08-05T08:24:55.000Z</time>
        <extensions>
          <ns3:TrackPointExtension>
            <ns3:hr>80</ns3:hr>
            <ns3:cad>48</ns3:cad>
          </ns3:TrackPointExtension>
        </extensions>
      </trkpt>
      <trkpt lat="43.4754955954849720001220703125" lon="1.4574895799160003662109375">
        <ele>190.600006103515625</ele>
        <time>2026-08-05T08:24:56.000Z</time>
        <extensions>
          <ns3:TrackPointExtension>
            <ns3:hr>80</ns3:hr>
            <ns3:cad>48</ns3:cad>
          </ns3:TrackPointExtension>
        </extensions>
      </trkpt>
      <trkpt lat="43.4755090065300464630126953125" lon="1.45748161710798740386962890625">
        <ele>190.600006103515625</ele>
        <time>2026-08-05T08:24:57.000Z</time>
        <extensions>
          <ns3:TrackPointExtension>
            <ns3:hr>80</ns3:hr>
            <ns3:cad>48</ns3:cad>
          </ns3:TrackPointExtension>
        </extensions>
      </trkpt>
      <trkpt lat="43.47552157938480377197265625" lon="1.4574746601283550262451171875">
        <ele>190.399993896484375</ele>
        <time>2026-08-05T08:24:58.000Z</time>
        <extensions>
          <ns3:TrackPointExtension>
            <ns3:hr>80</ns3:hr>
            <ns3:cad>49</ns3:cad>
          </ns3:TrackPointExtension>
        </extensions>
      </trkpt>
      <trkpt lat="43.47553289495408535003662109375" lon="1.45746611058712005615234375">
        <ele>190.399993896484375</ele>
        <time>2026-08-05T08:24:59.000Z</time>
        <extensions>
          <ns3:TrackPointExtension>
            <ns3:hr>80</ns3:hr>
            <ns3:cad>49</ns3:cad>
          </ns3:TrackPointExtension>
        </extensions>
      </trkpt>
      <trkpt lat="43.47554680891335010528564453125" lon="1.45745806396007537841796875">
        <ele>190.399993896484375</ele>
        <time>2026-08-05T08:25:00.000Z</time>
        <extensions>
          <ns3:TrackPointExtension>
            <ns3:hr>80</ns3:hr>
            <ns3:cad>49</ns3:cad>
          </ns3:TrackPointExtension>
        </extensions>
      </trkpt>
      <trkpt lat="43.47555619664490222930908203125" lon="1.457456052303314208984375">
        <ele>190.399993896484375</ele>
        <time>2026-08-05T08:25:01.000Z</time>
        <extensions>
          <ns3:TrackPointExtension>
            <ns3:hr>81</ns3:hr>
            <ns3:cad>49</ns3:cad>
          </ns3:TrackPointExtension>
        </extensions>
      </trkpt>
      <trkpt lat="43.47556558437645435333251953125" lon="1.4574495144188404083251953125">
        <ele>190.399993896484375</ele>
        <time>2026-08-05T08:25:02.000Z</time>
        <extensions>
          <ns3:TrackPointExtension>
            <ns3:hr>81</ns3:hr>
            <ns3:cad>49</ns3:cad>
          </ns3:TrackPointExtension>
        </extensions>
      </trkpt>
      <trkpt lat="43.475575558841228485107421875" lon="1.45744121633470058441162109375">
        <ele>190.600006103515625</ele>
        <time>2026-08-05T08:25:03.000Z</time>
        <extensions>
          <ns3:TrackPointExtension>
            <ns3:hr>81</ns3:hr>
            <ns3:cad>49</ns3:cad>
          </ns3:TrackPointExtension>
        </extensions>
      </trkpt>
      <trkpt lat="43.4755844436585903167724609375" lon="1.4574340917170047760009765625">
        <ele>190.600006103515625</ele>
        <time>2026-08-05T08:25:04.000Z</time>
        <extensions>
          <ns3:TrackPointExtension>
            <ns3:hr>82</ns3:hr>
            <ns3:cad>50</ns3:cad>
          </ns3:TrackPointExtension>
        </extensions>
      </trkpt>
      <trkpt lat="43.47559508867561817169189453125" lon="1.45742855966091156005859375">
        <ele>190.600006103515625</ele>
        <time>2026-08-05T08:25:05.000Z</time>
        <extensions>
          <ns3:TrackPointExtension>
            <ns3:hr>82</ns3:hr>
            <ns3:cad>50</ns3:cad>
          </ns3:TrackPointExtension>
        </extensions>
      </trkpt>
      <trkpt lat="43.4756028838455677032470703125" lon="1.45742478780448436737060546875">
        <ele>190.600006103515625</ele>
        <time>2026-08-05T08:25:06.000Z</time>
        <extensions>
          <ns3:TrackPointExtension>
            <ns3:hr>83</ns3:hr>
            <ns3:cad>50</ns3:cad>
          </ns3:TrackPointExtension>
        </extensions>
      </trkpt>
      <trkpt lat="43.475607745349407196044921875" lon="1.45741917192935943603515625">
        <ele>190.399993896484375</ele>
        <time>2026-08-05T08:25:07.000Z</time>
        <extensions>
          <ns3:TrackPointExtension>
            <ns3:hr>84</ns3:hr>
            <ns3:cad>50</ns3:cad>
          </ns3:TrackPointExtension>
        </extensions>
      </trkpt>
      <trkpt lat="43.47561839036643505096435546875" lon="1.4574149809777736663818359375">
        <ele>190.399993896484375</ele>
        <time>2026-08-05T08:25:08.000Z</time>
        <extensions>
          <ns3:TrackPointExtension>
            <ns3:hr>84</ns3:hr>
            <ns3:cad>50</ns3:cad>
          </ns3:TrackPointExtension>
        </extensions>
      </trkpt>
      <trkpt lat="43.47562962211668491363525390625" lon="1.45740483887493610382080078125">
        <ele>190.399993896484375</ele>
        <time>2026-08-05T08:25:09.000Z</time>
        <extensions>
          <ns3:TrackPointExtension>
            <ns3:hr>84</ns3:hr>
            <ns3:cad>49</ns3:cad>
          </ns3:TrackPointExtension>
        </extensions>
      </trkpt>
      <trkpt lat="43.47564227879047393798828125" lon="1.45739561878144741058349609375">
        <ele>190.399993896484375</ele>
        <time>2026-08-05T08:25:10.000Z</time>
        <extensions>
          <ns3:TrackPointExtension>
            <ns3:hr>84</ns3:hr>
            <ns3:cad>49</ns3:cad>
          </ns3:TrackPointExtension>
        </extensions>
      </trkpt>
      <trkpt lat="43.47565275616943836212158203125" lon="1.45738891325891017913818359375">
        <ele>190.399993896484375</ele>
        <time>2026-08-05T08:25:11.000Z</time>
        <extensions>
          <ns3:TrackPointExtension>
            <ns3:hr>84</ns3:hr>
            <ns3:cad>49</ns3:cad>
          </ns3:TrackPointExtension>
        </extensions>
      </trkpt>
      <trkpt lat="43.47566130571067333221435546875" lon="1.45738690160214900970458984375">
        <ele>190.399993896484375</ele>
        <time>2026-08-05T08:25:12.000Z</time>
        <extensions>
          <ns3:TrackPointExtension>
            <ns3:hr>84</ns3:hr>
            <ns3:cad>49</ns3:cad>
          </ns3:TrackPointExtension>
        </extensions>
      </trkpt>
      <trkpt lat="43.4756726212799549102783203125" lon="1.45739109255373477935791015625">
        <ele>190.399993896484375</ele>
        <time>2026-08-05T08:25:13.000Z</time>
        <extensions>
          <ns3:TrackPointExtension>
            <ns3:hr>84</ns3:hr>
            <ns3:cad>49</ns3:cad>
          </ns3:TrackPointExtension>
        </extensions>
      </trkpt>
      <trkpt lat="43.47568393684923648834228515625" lon="1.457384638488292694091796875">
        <ele>190.399993896484375</ele>
        <time>2026-08-05T08:25:14.000Z</time>
        <extensions>
          <ns3:TrackPointExtension>
            <ns3:hr>84</ns3:hr>
            <ns3:cad>49</ns3:cad>
          </ns3:TrackPointExtension>
        </extensions>
      </trkpt>
      <trkpt lat="43.4756944142282009124755859375" lon="1.4573801122605800628662109375">
        <ele>190.399993896484375</ele>
        <time>2026-08-05T08:25:15.000Z</time>
        <extensions>
          <ns3:TrackPointExtension>
            <ns3:hr>85</ns3:hr>
            <ns3:cad>49</ns3:cad>
          </ns3:TrackPointExtension>
        </extensions>
      </trkpt>
      <trkpt lat="43.4757051430642604827880859375" lon="1.45737382583320140838623046875">
        <ele>190.399993896484375</ele>
        <time>2026-08-05T08:25:16.000Z</time>
        <extensions>
          <ns3:TrackPointExtension>
            <ns3:hr>85</ns3:hr>
            <ns3:cad>49</ns3:cad>
          </ns3:TrackPointExtension>
        </extensions>
      </trkpt>
      <trkpt lat="43.475715704262256622314453125" lon="1.4573661983013153076171875">
        <ele>190.399993896484375</ele>
        <time>2026-08-05T08:25:17.000Z</time>
        <extensions>
          <ns3:TrackPointExtension>
            <ns3:hr>85</ns3:hr>
            <ns3:cad>49</ns3:cad>
          </ns3:TrackPointExtension>
        </extensions>
      </trkpt>
      <trkpt lat="43.4757262654602527618408203125" lon="1.457359157502651214599609375">
        <ele>190.399993896484375</ele>
        <time>2026-08-05T08:25:18.000Z</time>
        <extensions>
          <ns3:TrackPointExtension>
            <ns3:hr>86</ns3:hr>
            <ns3:cad>49</ns3:cad>
          </ns3:TrackPointExtension>
        </extensions>
      </trkpt>
      <trkpt lat="43.4757376648485660552978515625" lon="1.45735345780849456787109375">
        <ele>190.399993896484375</ele>
        <time>2026-08-05T08:25:19.000Z</time>
        <extensions>
          <ns3:TrackPointExtension>
            <ns3:hr>86</ns3:hr>
            <ns3:cad>49</ns3:cad>
          </ns3:TrackPointExtension>
        </extensions>
      </trkpt>
      <trkpt lat="43.47574998624622821807861328125" lon="1.4573455788195133209228515625">
        <ele>190.399993896484375</ele>
        <time>2026-08-05T08:25:20.000Z</time>
        <extensions>
          <ns3:TrackPointExtension>
            <ns3:hr>87</ns3:hr>
            <ns3:cad>49</ns3:cad>
          </ns3:TrackPointExtension>
        </extensions>
      </trkpt>
      <trkpt lat="43.47575769759714603424072265625" lon="1.4573418907821178436279296875">
        <ele>190.399993896484375</ele>
        <time>2026-08-05T08:25:21.000Z</time>
        <extensions>
          <ns3:TrackPointExtension>
            <ns3:hr>87</ns3:hr>
            <ns3:cad>49</ns3:cad>
          </ns3:TrackPointExtension>
        </extensions>
      </trkpt>
      <trkpt lat="43.47576356492936611175537109375" lon="1.4573385380208492279052734375">
        <ele>190.1999969482421875</ele>
        <time>2026-08-05T08:25:22.000Z</time>
        <extensions>
          <ns3:TrackPointExtension>
            <ns3:hr>87</ns3:hr>
            <ns3:cad>46</ns3:cad>
          </ns3:TrackPointExtension>
        </extensions>
      </trkpt>
      <trkpt lat="43.475773371756076812744140625" lon="1.4573311619460582733154296875">
        <ele>190.1999969482421875</ele>
        <time>2026-08-05T08:25:23.000Z</time>
        <extensions>
          <ns3:TrackPointExtension>
            <ns3:hr>87</ns3:hr>
            <ns3:cad>46</ns3:cad>
          </ns3:TrackPointExtension>
        </extensions>
      </trkpt>
      <trkpt lat="43.47578485496342182159423828125" lon="1.45732261240482330322265625">
        <ele>190.1999969482421875</ele>
        <time>2026-08-05T08:25:24.000Z</time>
        <extensions>
          <ns3:TrackPointExtension>
            <ns3:hr>87</ns3:hr>
            <ns3:cad>46</ns3:cad>
          </ns3:TrackPointExtension>
        </extensions>
      </trkpt>
      <trkpt lat="43.47579357214272022247314453125" lon="1.4573123864829540252685546875">
        <ele>190.1999969482421875</ele>
        <time>2026-08-05T08:25:25.000Z</time>
        <extensions>
          <ns3:TrackPointExtension>
            <ns3:hr>88</ns3:hr>
            <ns3:cad>46</ns3:cad>
          </ns3:TrackPointExtension>
        </extensions>
      </trkpt>
      <trkpt lat="43.4758023731410503387451171875" lon="1.45730677060782909393310546875">
        <ele>190.1999969482421875</ele>
        <time>2026-08-05T08:25:26.000Z</time>
        <extensions>
          <ns3:TrackPointExtension>
            <ns3:hr>87</ns3:hr>
            <ns3:cad>45</ns3:cad>
          </ns3:TrackPointExtension>
        </extensions>
      </trkpt>
      <trkpt lat="43.47581117413938045501708984375" lon="1.45730241201817989349365234375">
        <ele>190</ele>
        <time>2026-08-05T08:25:27.000Z</time>
        <extensions>
          <ns3:TrackPointExtension>
            <ns3:hr>86</ns3:hr>
            <ns3:cad>45</ns3:cad>
          </ns3:TrackPointExtension>
        </extensions>
      </trkpt>
      <trkpt lat="43.4758218191564083099365234375" lon="1.4572952874004840850830078125">
        <ele>190</ele>
        <time>2026-08-05T08:25:28.000Z</time>
        <extensions>
          <ns3:TrackPointExtension>
            <ns3:hr>86</ns3:hr>
            <ns3:cad>45</ns3:cad>
          </ns3:TrackPointExtension>
        </extensions>
      </trkpt>
      <trkpt lat="43.4758328832685947418212890625" lon="1.45728950388729572296142578125">
        <ele>190</ele>
        <time>2026-08-05T08:25:29.000Z</time>
        <extensions>
          <ns3:TrackPointExtension>
            <ns3:hr>87</ns3:hr>
            <ns3:cad>48</ns3:cad>
          </ns3:TrackPointExtension>
        </extensions>
      </trkpt>
      <trkpt lat="43.4758429415524005889892578125" lon="1.457282714545726776123046875">
        <ele>190</ele>
        <time>2026-08-05T08:25:30.000Z</time>
        <extensions>
          <ns3:TrackPointExtension>
            <ns3:hr>87</ns3:hr>
            <ns3:cad>48</ns3:cad>
          </ns3:TrackPointExtension>
        </extensions>
      </trkpt>
      <trkpt lat="43.4758508205413818359375" lon="1.4572745002806186676025390625">
        <ele>190</ele>
        <time>2026-08-05T08:25:31.000Z</time>
        <extensions>
          <ns3:TrackPointExtension>
            <ns3:hr>87</ns3:hr>
            <ns3:cad>48</ns3:cad>
          </ns3:TrackPointExtension>
        </extensions>
      </trkpt>
      <trkpt lat="43.47585895098745822906494140625" lon="1.4572696387767791748046875">
        <ele>190</ele>
        <time>2026-08-05T08:25:32.000Z</time>
        <extensions>
          <ns3:TrackPointExtension>
            <ns3:hr>87</ns3:hr>
            <ns3:cad>47</ns3:cad>
          </ns3:TrackPointExtension>
        </extensions>
      </trkpt>
      <trkpt lat="43.47587252967059612274169921875" lon="1.45725899375975131988525390625">
        <ele>190</ele>
        <time>2026-08-05T08:25:33.000Z</time>
        <extensions>
          <ns3:TrackPointExtension>
            <ns3:hr>87</ns3:hr>
            <ns3:cad>47</ns3:cad>
          </ns3:TrackPointExtension>
        </extensions>
      </trkpt>
      <trkpt lat="43.4758821688592433929443359375" lon="1.45725161768496036529541015625">
        <ele>190</ele>
        <time>2026-08-05T08:25:34.000Z</time>
        <extensions>
          <ns3:TrackPointExtension>
            <ns3:hr>86</ns3:hr>
            <ns3:cad>46</ns3:cad>
          </ns3:TrackPointExtension>
        </extensions>
      </trkpt>
      <trkpt lat="43.475891053676605224609375" lon="1.457241140305995941162109375">
        <ele>189.8000030517578125</ele>
        <time>2026-08-05T08:25:35.000Z</time>
        <extensions>
          <ns3:TrackPointExtension>
            <ns3:hr>87</ns3:hr>
            <ns3:cad>45</ns3:cad>
          </ns3:TrackPointExtension>
        </extensions>
      </trkpt>
      <trkpt lat="43.47589918412268161773681640625" lon="1.4572346024215221405029296875">
        <ele>189.8000030517578125</ele>
        <time>2026-08-05T08:25:36.000Z</time>
        <extensions>
          <ns3:TrackPointExtension>
            <ns3:hr>86</ns3:hr>
            <ns3:cad>48</ns3:cad>
          </ns3:TrackPointExtension>
        </extensions>
      </trkpt>
      <trkpt lat="43.47591075114905834197998046875" lon="1.45722781307995319366455078125">
        <ele>189.8000030517578125</ele>
        <time>2026-08-05T08:25:37.000Z</time>
        <extensions>
          <ns3:TrackPointExtension>
            <ns3:hr>86</ns3:hr>
            <ns3:cad>48</ns3:cad>
          </ns3:TrackPointExtension>
        </extensions>
      </trkpt>
      <trkpt lat="43.47592282108962535858154296875" lon="1.45722043700516223907470703125">
        <ele>189.8000030517578125</ele>
        <time>2026-08-05T08:25:38.000Z</time>
        <extensions>
          <ns3:TrackPointExtension>
            <ns3:hr>86</ns3:hr>
            <ns3:cad>48</ns3:cad>
          </ns3:TrackPointExtension>
        </extensions>
      </trkpt>
      <trkpt lat="43.47592868842184543609619140625" lon="1.457212306559085845947265625">
        <ele>190</ele>
        <time>2026-08-05T08:25:39.000Z</time>
        <extensions>
          <ns3:TrackPointExtension>
            <ns3:hr>86</ns3:hr>
            <ns3:cad>48</ns3:cad>
          </ns3:TrackPointExtension>
        </extensions>
      </trkpt>
      <trkpt lat="43.47593422047793865203857421875" lon="1.457209624350070953369140625">
        <ele>190</ele>
        <time>2026-08-05T08:25:40.000Z</time>
        <extensions>
          <ns3:TrackPointExtension>
            <ns3:hr>85</ns3:hr>
            <ns3:cad>48</ns3:cad>
          </ns3:TrackPointExtension>
        </extensions>
      </trkpt>
      <trkpt lat="43.475942350924015045166015625" lon="1.45720350556075572967529296875">
        <ele>190</ele>
        <time>2026-08-05T08:25:41.000Z</time>
        <extensions>
          <ns3:TrackPointExtension>
            <ns3:hr>85</ns3:hr>
            <ns3:cad>48</ns3:cad>
          </ns3:TrackPointExtension>
        </extensions>
      </trkpt>
      <trkpt lat="43.4759545885026454925537109375" lon="1.45719193853437900543212890625">
        <ele>190</ele>
        <time>2026-08-05T08:25:42.000Z</time>
        <extensions>
          <ns3:TrackPointExtension>
            <ns3:hr>85</ns3:hr>
            <ns3:cad>47</ns3:cad>
          </ns3:TrackPointExtension>
        </extensions>
      </trkpt>
      <trkpt lat="43.47596623934805393218994140625" lon="1.4571829698979854583740234375">
        <ele>189.8000030517578125</ele>
        <time>2026-08-05T08:25:43.000Z</time>
        <extensions>
          <ns3:TrackPointExtension>
            <ns3:hr>85</ns3:hr>
            <ns3:cad>47</ns3:cad>
          </ns3:TrackPointExtension>
        </extensions>
      </trkpt>
      <trkpt lat="43.4759728610515594482421875" lon="1.457178778946399688720703125">
        <ele>189.8000030517578125</ele>
        <time>2026-08-05T08:25:44.000Z</time>
        <extensions>
          <ns3:TrackPointExtension>
            <ns3:hr>85</ns3:hr>
            <ns3:cad>47</ns3:cad>
          </ns3:TrackPointExtension>
        </extensions>
      </trkpt>
      <trkpt lat="43.47597663290798664093017578125" lon="1.45717618055641651153564453125">
        <ele>189.8000030517578125</ele>
        <time>2026-08-05T08:25:45.000Z</time>
        <extensions>
          <ns3:TrackPointExtension>
            <ns3:hr>85</ns3:hr>
            <ns3:cad>47</ns3:cad>
          </ns3:TrackPointExtension>
        </extensions>
      </trkpt>
      <trkpt lat="43.47598518244922161102294921875" lon="1.45716628991067409515380859375">
        <ele>189.8000030517578125</ele>
        <time>2026-08-05T08:25:46.000Z</time>
        <extensions>
          <ns3:TrackPointExtension>
            <ns3:hr>85</ns3:hr>
            <ns3:cad>47</ns3:cad>
          </ns3:TrackPointExtension>
        </extensions>
      </trkpt>
      <trkpt lat="43.475992642343044281005859375" lon="1.45715237595140933990478515625">
        <ele>189.8000030517578125</ele>
        <time>2026-08-05T08:25:47.000Z</time>
        <extensions>
          <ns3:TrackPointExtension>
            <ns3:hr>84</ns3:hr>
            <ns3:cad>47</ns3:cad>
          </ns3:TrackPointExtension>
        </extensions>
      </trkpt>
      <trkpt lat="43.47599775530397891998291015625" lon="1.45714147947728633880615234375">
        <ele>189.8000030517578125</ele>
        <time>2026-08-05T08:25:48.000Z</time>
        <extensions>
          <ns3:TrackPointExtension>
            <ns3:hr>84</ns3:hr>
            <ns3:cad>48</ns3:cad>
          </ns3:TrackPointExtension>
        </extensions>
      </trkpt>
      <trkpt lat="43.4760035388171672821044921875" lon="1.45713217556476593017578125">
        <ele>189.8000030517578125</ele>
        <time>2026-08-05T08:25:49.000Z</time>
        <extensions>
          <ns3:TrackPointExtension>
            <ns3:hr>84</ns3:hr>
            <ns3:cad>48</ns3:cad>
          </ns3:TrackPointExtension>
        </extensions>
      </trkpt>
      <trkpt lat="43.47600814886391162872314453125" lon="1.45712421275675296783447265625">
        <ele>189.600006103515625</ele>
        <time>2026-08-05T08:25:50.000Z</time>
        <extensions>
          <ns3:TrackPointExtension>
            <ns3:hr>85</ns3:hr>
            <ns3:cad>48</ns3:cad>
          </ns3:TrackPointExtension>
        </extensions>
      </trkpt>
      <trkpt lat="43.47601602785289287567138671875" lon="1.45711750723421573638916015625">
        <ele>189.600006103515625</ele>
        <time>2026-08-05T08:25:51.000Z</time>
        <extensions>
          <ns3:TrackPointExtension>
            <ns3:hr>85</ns3:hr>
            <ns3:cad>47</ns3:cad>
          </ns3:TrackPointExtension>
        </extensions>
      </trkpt>
      <trkpt lat="43.4760260023176670074462890625" lon="1.45710669457912445068359375">
        <ele>189.600006103515625</ele>
        <time>2026-08-05T08:25:52.000Z</time>
        <extensions>
          <ns3:TrackPointExtension>
            <ns3:hr>85</ns3:hr>
            <ns3:cad>47</ns3:cad>
          </ns3:TrackPointExtension>
        </extensions>
      </trkpt>
      <trkpt lat="43.4760337136685848236083984375" lon="1.45710040815174579620361328125">
        <ele>189.600006103515625</ele>
        <time>2026-08-05T08:25:53.000Z</time>
        <extensions>
          <ns3:TrackPointExtension>
            <ns3:hr>85</ns3:hr>
            <ns3:cad>47</ns3:cad>
          </ns3:TrackPointExtension>
        </extensions>
      </trkpt>
      <trkpt lat="43.476042263209819793701171875" lon="1.4570957981050014495849609375">
        <ele>189.399993896484375</ele>
        <time>2026-08-05T08:25:54.000Z</time>
        <extensions>
          <ns3:TrackPointExtension>
            <ns3:hr>85</ns3:hr>
            <ns3:cad>47</ns3:cad>
          </ns3:TrackPointExtension>
        </extensions>
      </trkpt>
      <trkpt lat="43.47605374641716480255126953125" lon="1.4570872485637664794921875">
        <ele>189.399993896484375</ele>
        <time>2026-08-05T08:25:55.000Z</time>
        <extensions>
          <ns3:TrackPointExtension>
            <ns3:hr>85</ns3:hr>
            <ns3:cad>0</ns3:cad>
          </ns3:TrackPointExtension>
        </extensions>
      </trkpt>
      <trkpt lat="43.4760648943483829498291015625" lon="1.45707878284156322479248046875">
        <ele>189.399993896484375</ele>
        <time>2026-08-05T08:25:56.000Z</time>
        <extensions>
          <ns3:TrackPointExtension>
            <ns3:hr>84</ns3:hr>
            <ns3:cad>0</ns3:cad>
          </ns3:TrackPointExtension>
        </extensions>
      </trkpt>
      <trkpt lat="43.47607486881315708160400390625" lon="1.4570736698806285858154296875">
        <ele>189.399993896484375</ele>
        <time>2026-08-05T08:25:57.000Z</time>
        <extensions>
          <ns3:TrackPointExtension>
            <ns3:hr>84</ns3:hr>
            <ns3:cad>0</ns3:cad>
          </ns3:TrackPointExtension>
        </extensions>
      </trkpt>
      <trkpt lat="43.47608073614537715911865234375" lon="1.4570740051567554473876953125">
        <ele>189.600006103515625</ele>
        <time>2026-08-05T08:25:58.000Z</time>
        <extensions>
          <ns3:TrackPointExtension>
            <ns3:hr>84</ns3:hr>
            <ns3:cad>48</ns3:cad>
          </ns3:TrackPointExtension>
        </extensions>
      </trkpt>
      <trkpt lat="43.47608752548694610595703125" lon="1.45707073621451854705810546875">
        <ele>189.600006103515625</ele>
        <time>2026-08-05T08:25:59.000Z</time>
        <extensions>
          <ns3:TrackPointExtension>
            <ns3:hr>84</ns3:hr>
            <ns3:cad>48</ns3:cad>
          </ns3:TrackPointExtension>
        </extensions>
      </trkpt>
      <trkpt lat="43.47610102035105228424072265625" lon="1.45706319250166416168212890625">
        <ele>189.600006103515625</ele>
        <time>2026-08-05T08:26:00.000Z</time>
        <extensions>
          <ns3:TrackPointExtension>
            <ns3:hr>83</ns3:hr>
            <ns3:cad>48</ns3:cad>
          </ns3:TrackPointExtension>
        </extensions>
      </trkpt>
      <trkpt lat="43.476113341748714447021484375" lon="1.45705380477011203765869140625">
        <ele>189.600006103515625</ele>
        <time>2026-08-05T08:26:01.000Z</time>
        <extensions>
          <ns3:TrackPointExtension>
            <ns3:hr>83</ns3:hr>
            <ns3:cad>48</ns3:cad>
          </ns3:TrackPointExtension>
        </extensions>
      </trkpt>
      <trkpt lat="43.47612331621348857879638671875" lon="1.45704634487628936767578125">
        <ele>189.399993896484375</ele>
        <time>2026-08-05T08:26:02.000Z</time>
        <extensions>
          <ns3:TrackPointExtension>
            <ns3:hr>83</ns3:hr>
            <ns3:cad>48</ns3:cad>
          </ns3:TrackPointExtension>
        </extensions>
      </trkpt>
      <trkpt lat="43.476132452487945556640625" lon="1.45703829824924468994140625">
        <ele>189.399993896484375</ele>
        <time>2026-08-05T08:26:03.000Z</time>
        <extensions>
          <ns3:TrackPointExtension>
            <ns3:hr>83</ns3:hr>
            <ns3:cad>47</ns3:cad>
          </ns3:TrackPointExtension>
        </extensions>
      </trkpt>
      <trkpt lat="43.47613974474370479583740234375" lon="1.45702983252704143524169921875">
        <ele>189.399993896484375</ele>
        <time>2026-08-05T08:26:04.000Z</time>
        <extensions>
          <ns3:TrackPointExtension>
            <ns3:hr>82</ns3:hr>
            <ns3:cad>47</ns3:cad>
          </ns3:TrackPointExtension>
        </extensions>
      </trkpt>
      <trkpt lat="43.476146869361400604248046875" lon="1.45702228881418704986572265625">
        <ele>189.399993896484375</ele>
        <time>2026-08-05T08:26:05.000Z</time>
        <extensions>
          <ns3:TrackPointExtension>
            <ns3:hr>82</ns3:hr>
            <ns3:cad>49</ns3:cad>
          </ns3:TrackPointExtension>
        </extensions>
      </trkpt>
      <trkpt lat="43.4761564247310161590576171875" lon="1.45701172761619091033935546875">
        <ele>189.1999969482421875</ele>
        <time>2026-08-05T08:26:06.000Z</time>
        <extensions>
          <ns3:TrackPointExtension>
            <ns3:hr>82</ns3:hr>
            <ns3:cad>49</ns3:cad>
          </ns3:TrackPointExtension>
        </extensions>
      </trkpt>
      <trkpt lat="43.47616187296807765960693359375" lon="1.4570072852075099945068359375">
        <ele>189.1999969482421875</ele>
        <time>2026-08-05T08:26:07.000Z</time>
        <extensions>
          <ns3:TrackPointExtension>
            <ns3:hr>82</ns3:hr>
            <ns3:cad>49</ns3:cad>
          </ns3:TrackPointExtension>
        </extensions>
      </trkpt>
      <trkpt lat="43.47616991959512233734130859375" lon="1.45700518973171710968017578125">
        <ele>189.1999969482421875</ele>
        <time>2026-08-05T08:26:08.000Z</time>
        <extensions>
          <ns3:TrackPointExtension>
            <ns3:hr>82</ns3:hr>
            <ns3:cad>49</ns3:cad>
          </ns3:TrackPointExtension>
        </extensions>
      </trkpt>
      <trkpt lat="43.47617796622216701507568359375" lon="1.4570002444088459014892578125">
        <ele>189.1999969482421875</ele>
        <time>2026-08-05T08:26:09.000Z</time>
        <extensions>
          <ns3:TrackPointExtension>
            <ns3:hr>82</ns3:hr>
            <ns3:cad>48</ns3:cad>
          </ns3:TrackPointExtension>
        </extensions>
      </trkpt>
      <trkpt lat="43.47618819214403629302978515625" lon="1.45699395798146724700927734375">
        <ele>189.1999969482421875</ele>
        <time>2026-08-05T08:26:10.000Z</time>
        <extensions>
          <ns3:TrackPointExtension>
            <ns3:hr>82</ns3:hr>
            <ns3:cad>48</ns3:cad>
          </ns3:TrackPointExtension>
        </extensions>
      </trkpt>
      <trkpt lat="43.4761956520378589630126953125" lon="1.4569881744682788848876953125">
        <ele>189.1999969482421875</ele>
        <time>2026-08-05T08:26:11.000Z</time>
        <extensions>
          <ns3:TrackPointExtension>
            <ns3:hr>81</ns3:hr>
            <ns3:cad>47</ns3:cad>
          </ns3:TrackPointExtension>
        </extensions>
      </trkpt>
      <trkpt lat="43.47620554268360137939453125" lon="1.4569838158786296844482421875">
        <ele>189.1999969482421875</ele>
        <time>2026-08-05T08:26:12.000Z</time>
        <extensions>
          <ns3:TrackPointExtension>
            <ns3:hr>80</ns3:hr>
            <ns3:cad>46</ns3:cad>
          </ns3:TrackPointExtension>
        </extensions>
      </trkpt>
      <trkpt lat="43.476211912930011749267578125" lon="1.4569777809083461761474609375">
        <ele>189.1999969482421875</ele>
        <time>2026-08-05T08:26:13.000Z</time>
        <extensions>
          <ns3:TrackPointExtension>
            <ns3:hr>80</ns3:hr>
            <ns3:cad>46</ns3:cad>
          </ns3:TrackPointExtension>
        </extensions>
      </trkpt>
      <trkpt lat="43.47622440196573734283447265625" lon="1.456972248852252960205078125">
        <ele>189.1999969482421875</ele>
        <time>2026-08-05T08:26:14.000Z</time>
        <extensions>
          <ns3:TrackPointExtension>
            <ns3:hr>80</ns3:hr>
            <ns3:cad>46</ns3:cad>
          </ns3:TrackPointExtension>
        </extensions>
      </trkpt>
      <trkpt lat="43.47623663954436779022216796875" lon="1.4569670520722866058349609375">
        <ele>189.1999969482421875</ele>
        <time>2026-08-05T08:26:15.000Z</time>
        <extensions>
          <ns3:TrackPointExtension>
            <ns3:hr>80</ns3:hr>
            <ns3:cad>47</ns3:cad>
          </ns3:TrackPointExtension>
        </extensions>
      </trkpt>
      <trkpt lat="43.47624569199979305267333984375" lon="1.456962525844573974609375">
        <ele>189.1999969482421875</ele>
        <time>2026-08-05T08:26:16.000Z</time>
        <extensions>
          <ns3:TrackPointExtension>
            <ns3:hr>80</ns3:hr>
            <ns3:cad>47</ns3:cad>
          </ns3:TrackPointExtension>
        </extensions>
      </trkpt>
      <trkpt lat="43.47625407390296459197998046875" lon="1.45695825107395648956298828125">
        <ele>189.1999969482421875</ele>
        <time>2026-08-05T08:26:17.000Z</time>
        <extensions>
          <ns3:TrackPointExtension>
            <ns3:hr>79</ns3:hr>
            <ns3:cad>47</ns3:cad>
          </ns3:TrackPointExtension>
        </extensions>
      </trkpt>
      <trkpt lat="43.4762633778154850006103515625" lon="1.45695121027529239654541015625">
        <ele>189.1999969482421875</ele>
        <time>2026-08-05T08:26:18.000Z</time>
        <extensions>
          <ns3:TrackPointExtension>
            <ns3:hr>79</ns3:hr>
            <ns3:cad>47</ns3:cad>
          </ns3:TrackPointExtension>
        </extensions>
      </trkpt>
      <trkpt lat="43.47627636976540088653564453125" lon="1.45694081671535968780517578125">
        <ele>189.1999969482421875</ele>
        <time>2026-08-05T08:26:19.000Z</time>
        <extensions>
          <ns3:TrackPointExtension>
            <ns3:hr>79</ns3:hr>
            <ns3:cad>47</ns3:cad>
          </ns3:TrackPointExtension>
        </extensions>
      </trkpt>
      <trkpt lat="43.47628274001181125640869140625" lon="1.45693637430667877197265625">
        <ele>189.1999969482421875</ele>
        <time>2026-08-05T08:26:20.000Z</time>
        <extensions>
          <ns3:TrackPointExtension>
            <ns3:hr>79</ns3:hr>
            <ns3:cad>47</ns3:cad>
          </ns3:TrackPointExtension>
        </extensions>
      </trkpt>
      <trkpt lat="43.4762928821146488189697265625" lon="1.45693092606961727142333984375">
        <ele>189.1999969482421875</ele>
        <time>2026-08-05T08:26:21.000Z</time>
        <extensions>
          <ns3:TrackPointExtension>
            <ns3:hr>80</ns3:hr>
            <ns3:cad>47</ns3:cad>
          </ns3:TrackPointExtension>
        </extensions>
      </trkpt>
      <trkpt lat="43.47630403004586696624755859375" lon="1.4569258131086826324462890625">
        <ele>189</ele>
        <time>2026-08-05T08:26:22.000Z</time>
        <extensions>
          <ns3:TrackPointExtension>
            <ns3:hr>79</ns3:hr>
            <ns3:cad>47</ns3:cad>
          </ns3:TrackPointExtension>
        </extensions>
      </trkpt>
      <trkpt lat="43.47631559707224369049072265625" lon="1.4569224603474140167236328125">
        <ele>189</ele>
        <time>2026-08-05T08:26:23.000Z</time>
        <extensions>
          <ns3:TrackPointExtension>
            <ns3:hr>79</ns3:hr>
            <ns3:cad>47</ns3:cad>
          </ns3:TrackPointExtension>
        </extensions>
      </trkpt>
      <trkpt lat="43.4763295948505401611328125" lon="1.456913910806179046630859375">
        <ele>189.1999969482421875</ele>
        <time>2026-08-05T08:26:24.000Z</time>
        <extensions>
          <ns3:TrackPointExtension>
            <ns3:hr>80</ns3:hr>
            <ns3:cad>47</ns3:cad>
          </ns3:TrackPointExtension>
        </extensions>
      </trkpt>
      <trkpt lat="43.4763391502201557159423828125" lon="1.45690728910267353057861328125">
        <ele>189.1999969482421875</ele>
        <time>2026-08-05T08:26:25.000Z</time>
        <extensions>
          <ns3:TrackPointExtension>
            <ns3:hr>80</ns3:hr>
            <ns3:cad>47</ns3:cad>
          </ns3:TrackPointExtension>
        </extensions>
      </trkpt>
      <trkpt lat="43.47634929232299327850341796875" lon="1.45689907483756542205810546875">
        <ele>189.1999969482421875</ele>
        <time>2026-08-05T08:26:26.000Z</time>
        <extensions>
          <ns3:TrackPointExtension>
            <ns3:hr>80</ns3:hr>
            <ns3:cad>48</ns3:cad>
          </ns3:TrackPointExtension>
        </extensions>
      </trkpt>
      <trkpt lat="43.47635700367391109466552734375" lon="1.45689287222921848297119140625">
        <ele>189.1999969482421875</ele>
        <time>2026-08-05T08:26:27.000Z</time>
        <extensions>
          <ns3:TrackPointExtension>
            <ns3:hr>80</ns3:hr>
            <ns3:cad>49</ns3:cad>
          </ns3:TrackPointExtension>
        </extensions>
      </trkpt>
      <trkpt lat="43.476368822157382965087890625" lon="1.45688633434474468231201171875">
        <ele>189.1999969482421875</ele>
        <time>2026-08-05T08:26:28.000Z</time>
        <extensions>
          <ns3:TrackPointExtension>
            <ns3:hr>79</ns3:hr>
            <ns3:cad>49</ns3:cad>
          </ns3:TrackPointExtension>
        </extensions>
      </trkpt>
      <trkpt lat="43.47638231702148914337158203125" lon="1.4568782038986682891845703125">
        <ele>189.1999969482421875</ele>
        <time>2026-08-05T08:26:29.000Z</time>
        <extensions>
          <ns3:TrackPointExtension>
            <ns3:hr>80</ns3:hr>
            <ns3:cad>49</ns3:cad>
          </ns3:TrackPointExtension>
        </extensions>
      </trkpt>
      <trkpt lat="43.47639354877173900604248046875" lon="1.45687066018581390380859375">
        <ele>189.1999969482421875</ele>
        <time>2026-08-05T08:26:30.000Z</time>
        <extensions>
          <ns3:TrackPointExtension>
            <ns3:hr>80</ns3:hr>
            <ns3:cad>47</ns3:cad>
          </ns3:TrackPointExtension>
        </extensions>
      </trkpt>
      <trkpt lat="43.4764031879603862762451171875" lon="1.4568661339581012725830078125">
        <ele>189.1999969482421875</ele>
        <time>2026-08-05T08:26:31.000Z</time>
        <extensions>
          <ns3:TrackPointExtension>
            <ns3:hr>80</ns3:hr>
            <ns3:cad>47</ns3:cad>
          </ns3:TrackPointExtension>
        </extensions>
      </trkpt>
      <trkpt lat="43.47641064785420894622802734375" lon="1.45685900934040546417236328125">
        <ele>189.1999969482421875</ele>
        <time>2026-08-05T08:26:32.000Z</time>
        <extensions>
          <ns3:TrackPointExtension>
            <ns3:hr>79</ns3:hr>
            <ns3:cad>47</ns3:cad>
          </ns3:TrackPointExtension>
        </extensions>
      </trkpt>
      <trkpt lat="43.47642372362315654754638671875" lon="1.4568520523607730865478515625">
        <ele>189.1999969482421875</ele>
        <time>2026-08-05T08:26:33.000Z</time>
        <extensions>
          <ns3:TrackPointExtension>
            <ns3:hr>79</ns3:hr>
            <ns3:cad>48</ns3:cad>
          </ns3:TrackPointExtension>
        </extensions>
      </trkpt>
      <trkpt lat="43.4764363802969455718994140625" lon="1.45684442482888698577880859375">
        <ele>189.1999969482421875</ele>
        <time>2026-08-05T08:26:34.000Z</time>
        <extensions>
          <ns3:TrackPointExtension>
            <ns3:hr>79</ns3:hr>
            <ns3:cad>49</ns3:cad>
          </ns3:TrackPointExtension>
        </extensions>
      </trkpt>
      <trkpt lat="43.47644669003784656524658203125" lon="1.45683847367763519287109375">
        <ele>189.1999969482421875</ele>
        <time>2026-08-05T08:26:35.000Z</time>
        <extensions>
          <ns3:TrackPointExtension>
            <ns3:hr>79</ns3:hr>
            <ns3:cad>48</ns3:cad>
          </ns3:TrackPointExtension>
        </extensions>
      </trkpt>
      <trkpt lat="43.476454317569732666015625" lon="1.45683520473539829254150390625">
        <ele>189.1999969482421875</ele>
        <time>2026-08-05T08:26:36.000Z</time>
        <extensions>
          <ns3:TrackPointExtension>
            <ns3:hr>80</ns3:hr>
            <ns3:cad>48</ns3:cad>
          </ns3:TrackPointExtension>
        </extensions>
      </trkpt>
      <trkpt lat="43.47646295092999935150146484375" lon="1.45682598464190959930419921875">
        <ele>189.1999969482421875</ele>
        <time>2026-08-05T08:26:37.000Z</time>
        <extensions>
          <ns3:TrackPointExtension>
            <ns3:hr>80</ns3:hr>
            <ns3:cad>48</ns3:cad>
          </ns3:TrackPointExtension>
        </extensions>
      </trkpt>
      <trkpt lat="43.47647585906088352203369140625" lon="1.45681659691035747528076171875">
        <ele>189.1999969482421875</ele>
        <time>2026-08-05T08:26:38.000Z</time>
        <extensions>
          <ns3:TrackPointExtension>
            <ns3:hr>80</ns3:hr>
            <ns3:cad>48</ns3:cad>
          </ns3:TrackPointExtension>
        </extensions>
      </trkpt>
      <trkpt lat="43.47648474387824535369873046875" lon="1.45680955611169338226318359375">
        <ele>189</ele>
        <time>2026-08-05T08:26:39.000Z</time>
        <extensions>
          <ns3:TrackPointExtension>
            <ns3:hr>80</ns3:hr>
            <ns3:cad>47</ns3:cad>
          </ns3:TrackPointExtension>
        </extensions>
      </trkpt>
      <trkpt lat="43.4764930419623851776123046875" lon="1.4568051137030124664306640625">
        <ele>189</ele>
        <time>2026-08-05T08:26:40.000Z</time>
        <extensions>
          <ns3:TrackPointExtension>
            <ns3:hr>80</ns3:hr>
            <ns3:cad>47</ns3:cad>
          </ns3:TrackPointExtension>
        </extensions>
      </trkpt>
      <trkpt lat="43.47649932838976383209228515625" lon="1.456799246370792388916015625">
        <ele>189</ele>
        <time>2026-08-05T08:26:41.000Z</time>
        <extensions>
          <ns3:TrackPointExtension>
            <ns3:hr>80</ns3:hr>
            <ns3:cad>47</ns3:cad>
          </ns3:TrackPointExtension>
        </extensions>
      </trkpt>
      <trkpt lat="43.47650955431163311004638671875" lon="1.4567895233631134033203125">
        <ele>189</ele>
        <time>2026-08-05T08:26:42.000Z</time>
        <extensions>
          <ns3:TrackPointExtension>
            <ns3:hr>80</ns3:hr>
            <ns3:cad>48</ns3:cad>
          </ns3:TrackPointExtension>
        </extensions>
      </trkpt>
      <trkpt lat="43.47651860676705837249755859375" lon="1.45677736960351467132568359375">
        <ele>189</ele>
        <time>2026-08-05T08:26:43.000Z</time>
        <extensions>
          <ns3:TrackPointExtension>
            <ns3:hr>79</ns3:hr>
            <ns3:cad>48</ns3:cad>
          </ns3:TrackPointExtension>
        </extensions>
      </trkpt>
      <trkpt lat="43.476525060832500457763671875" lon="1.45676965825259685516357421875">
        <ele>189</ele>
        <time>2026-08-05T08:26:44.000Z</time>
        <extensions>
          <ns3:TrackPointExtension>
            <ns3:hr>79</ns3:hr>
            <ns3:cad>47</ns3:cad>
          </ns3:TrackPointExtension>
        </extensions>
      </trkpt>
      <trkpt lat="43.47653101198375225067138671875" lon="1.45676203072071075439453125">
        <ele>189</ele>
        <time>2026-08-05T08:26:45.000Z</time>
        <extensions>
          <ns3:TrackPointExtension>
            <ns3:hr>79</ns3:hr>
            <ns3:cad>47</ns3:cad>
          </ns3:TrackPointExtension>
        </extensions>
      </trkpt>
      <trkpt lat="43.47654215991497039794921875" lon="1.4567501284182071685791015625">
        <ele>189</ele>
        <time>2026-08-05T08:26:46.000Z</time>
        <extensions>
          <ns3:TrackPointExtension>
            <ns3:hr>79</ns3:hr>
            <ns3:cad>47</ns3:cad>
          </ns3:TrackPointExtension>
        </extensions>
      </trkpt>
      <trkpt lat="43.47655448131263256072998046875" lon="1.45673789083957672119140625">
        <ele>189</ele>
        <time>2026-08-05T08:26:47.000Z</time>
        <extensions>
          <ns3:TrackPointExtension>
            <ns3:hr>79</ns3:hr>
            <ns3:cad>47</ns3:cad>
          </ns3:TrackPointExtension>
        </extensions>
      </trkpt>
      <trkpt lat="43.47656286321580410003662109375" lon="1.456730850040912628173828125">
        <ele>189</ele>
        <time>2026-08-05T08:26:48.000Z</time>
        <extensions>
          <ns3:TrackPointExtension>
            <ns3:hr>79</ns3:hr>
            <ns3:cad>47</ns3:cad>
          </ns3:TrackPointExtension>
        </extensions>
      </trkpt>
      <trkpt lat="43.4765701554715633392333984375" lon="1.45672623999416828155517578125">
        <ele>189</ele>
        <time>2026-08-05T08:26:49.000Z</time>
        <extensions>
          <ns3:TrackPointExtension>
            <ns3:hr>79</ns3:hr>
            <ns3:cad>47</ns3:cad>
          </ns3:TrackPointExtension>
        </extensions>
      </trkpt>
      <trkpt lat="43.47657929174602031707763671875" lon="1.45671903155744075775146484375">
        <ele>189</ele>
        <time>2026-08-05T08:26:50.000Z</time>
        <extensions>
          <ns3:TrackPointExtension>
            <ns3:hr>78</ns3:hr>
            <ns3:cad>47</ns3:cad>
          </ns3:TrackPointExtension>
        </extensions>
      </trkpt>
      <trkpt lat="43.47659178078174591064453125" lon="1.4567088894546031951904296875">
        <ele>189</ele>
        <time>2026-08-05T08:26:51.000Z</time>
        <extensions>
          <ns3:TrackPointExtension>
            <ns3:hr>78</ns3:hr>
            <ns3:cad>47</ns3:cad>
          </ns3:TrackPointExtension>
        </extensions>
      </trkpt>
      <trkpt lat="43.47660292871296405792236328125" lon="1.456697322428226470947265625">
        <ele>189</ele>
        <time>2026-08-05T08:26:52.000Z</time>
        <extensions>
          <ns3:TrackPointExtension>
            <ns3:hr>78</ns3:hr>
            <ns3:cad>47</ns3:cad>
          </ns3:TrackPointExtension>
        </extensions>
      </trkpt>
      <trkpt lat="43.47661214880645275115966796875" lon="1.45669690333306789398193359375">
        <ele>189</ele>
        <time>2026-08-05T08:26:53.000Z</time>
        <extensions>
          <ns3:TrackPointExtension>
            <ns3:hr>78</ns3:hr>
            <ns3:cad>47</ns3:cad>
          </ns3:TrackPointExtension>
        </extensions>
      </trkpt>
      <trkpt lat="43.47662254236638545989990234375" lon="1.456697322428226470947265625">
        <ele>189</ele>
        <time>2026-08-05T08:26:54.000Z</time>
        <extensions>
          <ns3:TrackPointExtension>
            <ns3:hr>78</ns3:hr>
            <ns3:cad>47</ns3:cad>
          </ns3:TrackPointExtension>
        </extensions>
      </trkpt>
      <trkpt lat="43.47662941552698612213134765625" lon="1.4566904492676258087158203125">
        <ele>189</ele>
        <time>2026-08-05T08:26:55.000Z</time>
        <extensions>
          <ns3:TrackPointExtension>
            <ns3:hr>78</ns3:hr>
            <ns3:cad>47</ns3:cad>
          </ns3:TrackPointExtension>
        </extensions>
      </trkpt>
      <trkpt lat="43.4766378812491893768310546875" lon="1.45668231882154941558837890625">
        <ele>189</ele>
        <time>2026-08-05T08:26:56.000Z</time>
        <extensions>
          <ns3:TrackPointExtension>
            <ns3:hr>78</ns3:hr>
            <ns3:cad>48</ns3:cad>
          </ns3:TrackPointExtension>
        </extensions>
      </trkpt>
      <trkpt lat="43.47664668224751949310302734375" lon="1.45667360164225101470947265625">
        <ele>188.8000030517578125</ele>
        <time>2026-08-05T08:26:57.000Z</time>
        <extensions>
          <ns3:TrackPointExtension>
            <ns3:hr>79</ns3:hr>
            <ns3:cad>48</ns3:cad>
          </ns3:TrackPointExtension>
        </extensions>
      </trkpt>
      <trkpt lat="43.476651795208454132080078125" lon="1.4566661417484283447265625">
        <ele>188.8000030517578125</ele>
        <time>2026-08-05T08:26:58.000Z</time>
        <extensions>
          <ns3:TrackPointExtension>
            <ns3:hr>79</ns3:hr>
            <ns3:cad>48</ns3:cad>
          </ns3:TrackPointExtension>
        </extensions>
      </trkpt>
      <trkpt lat="43.47665623761713504791259765625" lon="1.45666069351136684417724609375">
        <ele>188.8000030517578125</ele>
        <time>2026-08-05T08:26:59.000Z</time>
        <extensions>
          <ns3:TrackPointExtension>
            <ns3:hr>79</ns3:hr>
            <ns3:cad>48</ns3:cad>
          </ns3:TrackPointExtension>
        </extensions>
      </trkpt>
      <trkpt lat="43.47666327841579914093017578125" lon="1.45665231160819530487060546875">
        <ele>188.8000030517578125</ele>
        <time>2026-08-05T08:27:00.000Z</time>
        <extensions>
          <ns3:TrackPointExtension>
            <ns3:hr>80</ns3:hr>
            <ns3:cad>48</ns3:cad>
          </ns3:TrackPointExtension>
        </extensions>
      </trkpt>
      <trkpt lat="43.47667166031897068023681640625" lon="1.456643678247928619384765625">
        <ele>188.8000030517578125</ele>
        <time>2026-08-05T08:27:01.000Z</time>
        <extensions>
          <ns3:TrackPointExtension>
            <ns3:hr>80</ns3:hr>
            <ns3:cad>48</ns3:cad>
          </ns3:TrackPointExtension>
        </extensions>
      </trkpt>
      <trkpt lat="43.47667953930795192718505859375" lon="1.4566326141357421875">
        <ele>188.8000030517578125</ele>
        <time>2026-08-05T08:27:02.000Z</time>
        <extensions>
          <ns3:TrackPointExtension>
            <ns3:hr>80</ns3:hr>
            <ns3:cad>48</ns3:cad>
          </ns3:TrackPointExtension>
        </extensions>
      </trkpt>
      <trkpt lat="43.4766876697540283203125" lon="1.456622220575809478759765625">
        <ele>188.8000030517578125</ele>
        <time>2026-08-05T08:27:03.000Z</time>
        <extensions>
          <ns3:TrackPointExtension>
            <ns3:hr>80</ns3:hr>
            <ns3:cad>45</ns3:cad>
          </ns3:TrackPointExtension>
        </extensions>
      </trkpt>
      <trkpt lat="43.47669638693332672119140625" lon="1.45661693997681140899658203125">
        <ele>188.8000030517578125</ele>
        <time>2026-08-05T08:27:04.000Z</time>
        <extensions>
          <ns3:TrackPointExtension>
            <ns3:hr>80</ns3:hr>
            <ns3:cad>45</ns3:cad>
          </ns3:TrackPointExtension>
        </extensions>
      </trkpt>
      <trkpt lat="43.47670309245586395263671875" lon="1.4566106535494327545166015625">
        <ele>188.8000030517578125</ele>
        <time>2026-08-05T08:27:05.000Z</time>
        <extensions>
          <ns3:TrackPointExtension>
            <ns3:hr>81</ns3:hr>
            <ns3:cad>45</ns3:cad>
          </ns3:TrackPointExtension>
        </extensions>
      </trkpt>
      <trkpt lat="43.47671189345419406890869140625" lon="1.456599421799182891845703125">
        <ele>188.8000030517578125</ele>
        <time>2026-08-05T08:27:06.000Z</time>
        <extensions>
          <ns3:TrackPointExtension>
            <ns3:hr>81</ns3:hr>
            <ns3:cad>50</ns3:cad>
          </ns3:TrackPointExtension>
        </extensions>
      </trkpt>
      <trkpt lat="43.47672186791896820068359375" lon="1.4565871842205524444580078125">
        <ele>188.8000030517578125</ele>
        <time>2026-08-05T08:27:07.000Z</time>
        <extensions>
          <ns3:TrackPointExtension>
            <ns3:hr>81</ns3:hr>
            <ns3:cad>50</ns3:cad>
          </ns3:TrackPointExtension>
        </extensions>
      </trkpt>
      <trkpt lat="43.47672932781279087066650390625" lon="1.45657989196479320526123046875">
        <ele>188.600006103515625</ele>
        <time>2026-08-05T08:27:08.000Z</time>
        <extensions>
          <ns3:TrackPointExtension>
            <ns3:hr>81</ns3:hr>
            <ns3:cad>50</ns3:cad>
          </ns3:TrackPointExtension>
        </extensions>
      </trkpt>
      <trkpt lat="43.476738631725311279296875" lon="1.45657335408031940460205078125">
        <ele>188.600006103515625</ele>
        <time>2026-08-05T08:27:09.000Z</time>
        <extensions>
          <ns3:TrackPointExtension>
            <ns3:hr>81</ns3:hr>
            <ns3:cad>50</ns3:cad>
          </ns3:TrackPointExtension>
        </extensions>
      </trkpt>
      <trkpt lat="43.476747013628482818603515625" lon="1.45656413398683071136474609375">
        <ele>188.600006103515625</ele>
        <time>2026-08-05T08:27:10.000Z</time>
        <extensions>
          <ns3:TrackPointExtension>
            <ns3:hr>82</ns3:hr>
            <ns3:cad>50</ns3:cad>
          </ns3:TrackPointExtension>
        </extensions>
      </trkpt>
      <trkpt lat="43.4767548926174640655517578125" lon="1.45655139349400997161865234375">
        <ele>188.600006103515625</ele>
        <time>2026-08-05T08:27:11.000Z</time>
        <extensions>
          <ns3:TrackPointExtension>
            <ns3:hr>82</ns3:hr>
            <ns3:cad>50</ns3:cad>
          </ns3:TrackPointExtension>
        </extensions>
      </trkpt>
      <trkpt lat="43.47675950266420841217041015625" lon="1.45654686726629734039306640625">
        <ele>188.600006103515625</ele>
        <time>2026-08-05T08:27:12.000Z</time>
        <extensions>
          <ns3:TrackPointExtension>
            <ns3:hr>82</ns3:hr>
            <ns3:cad>46</ns3:cad>
          </ns3:TrackPointExtension>
        </extensions>
      </trkpt>
      <trkpt lat="43.4767642803490161895751953125" lon="1.456543765962123870849609375">
        <ele>188.600006103515625</ele>
        <time>2026-08-05T08:27:13.000Z</time>
        <extensions>
          <ns3:TrackPointExtension>
            <ns3:hr>82</ns3:hr>
            <ns3:cad>46</ns3:cad>
          </ns3:TrackPointExtension>
        </extensions>
      </trkpt>
      <trkpt lat="43.47677509300410747528076171875" lon="1.45653806626796722412109375">
        <ele>188.600006103515625</ele>
        <time>2026-08-05T08:27:14.000Z</time>
        <extensions>
          <ns3:TrackPointExtension>
            <ns3:hr>82</ns3:hr>
            <ns3:cad>46</ns3:cad>
          </ns3:TrackPointExtension>
        </extensions>
      </trkpt>
      <trkpt lat="43.476785235106945037841796875" lon="1.45653010345995426177978515625">
        <ele>188.600006103515625</ele>
        <time>2026-08-05T08:27:15.000Z</time>
        <extensions>
          <ns3:TrackPointExtension>
            <ns3:hr>82</ns3:hr>
            <ns3:cad>47</ns3:cad>
          </ns3:TrackPointExtension>
        </extensions>
      </trkpt>
      <trkpt lat="43.47679571248590946197509765625" lon="1.45652272738516330718994140625">
        <ele>188.600006103515625</ele>
        <time>2026-08-05T08:27:16.000Z</time>
        <extensions>
          <ns3:TrackPointExtension>
            <ns3:hr>82</ns3:hr>
            <ns3:cad>47</ns3:cad>
          </ns3:TrackPointExtension>
        </extensions>
      </trkpt>
      <trkpt lat="43.47680241800844669342041015625" lon="1.45651836879551410675048828125">
        <ele>188.600006103515625</ele>
        <time>2026-08-05T08:27:17.000Z</time>
        <extensions>
          <ns3:TrackPointExtension>
            <ns3:hr>82</ns3:hr>
            <ns3:cad>47</ns3:cad>
          </ns3:TrackPointExtension>
        </extensions>
      </trkpt>
      <trkpt lat="43.476810045540332794189453125" lon="1.4565097354352474212646484375">
        <ele>188.600006103515625</ele>
        <time>2026-08-05T08:27:18.000Z</time>
        <extensions>
          <ns3:TrackPointExtension>
            <ns3:hr>82</ns3:hr>
            <ns3:cad>48</ns3:cad>
          </ns3:TrackPointExtension>
        </extensions>
      </trkpt>
      <trkpt lat="43.4768192656338214874267578125" lon="1.45649925805628299713134765625">
        <ele>188.600006103515625</ele>
        <time>2026-08-05T08:27:19.000Z</time>
        <extensions>
          <ns3:TrackPointExtension>
            <ns3:hr>82</ns3:hr>
            <ns3:cad>47</ns3:cad>
          </ns3:TrackPointExtension>
        </extensions>
      </trkpt>
      <trkpt lat="43.47682890482246875762939453125" lon="1.45649188198149204254150390625">
        <ele>188.600006103515625</ele>
        <time>2026-08-05T08:27:20.000Z</time>
        <extensions>
          <ns3:TrackPointExtension>
            <ns3:hr>82</ns3:hr>
            <ns3:cad>47</ns3:cad>
          </ns3:TrackPointExtension>
        </extensions>
      </trkpt>
      <trkpt lat="43.4768373705446720123291015625" lon="1.4564837515354156494140625">
        <ele>188.600006103515625</ele>
        <time>2026-08-05T08:27:21.000Z</time>
        <extensions>
          <ns3:TrackPointExtension>
            <ns3:hr>82</ns3:hr>
            <ns3:cad>47</ns3:cad>
          </ns3:TrackPointExtension>
        </extensions>
      </trkpt>
      <trkpt lat="43.47684415988624095916748046875" lon="1.456483416259288787841796875">
        <ele>188.600006103515625</ele>
        <time>2026-08-05T08:27:22.000Z</time>
        <extensions>
          <ns3:TrackPointExtension>
            <ns3:hr>82</ns3:hr>
            <ns3:cad>47</ns3:cad>
          </ns3:TrackPointExtension>
        </extensions>
      </trkpt>
      <trkpt lat="43.47685463726520538330078125" lon="1.4564772136509418487548828125">
        <ele>188.600006103515625</ele>
        <time>2026-08-05T08:27:23.000Z</time>
        <extensions>
          <ns3:TrackPointExtension>
            <ns3:hr>82</ns3:hr>
            <ns3:cad>47</ns3:cad>
          </ns3:TrackPointExtension>
        </extensions>
      </trkpt>
      <trkpt lat="43.476865030825138092041015625" lon="1.4564711786806583404541015625">
        <ele>188.600006103515625</ele>
        <time>2026-08-05T08:27:24.000Z</time>
        <extensions>
          <ns3:TrackPointExtension>
            <ns3:hr>82</ns3:hr>
            <ns3:cad>51</ns3:cad>
          </ns3:TrackPointExtension>
        </extensions>
      </trkpt>
      <trkpt lat="43.476874418556690216064453125" lon="1.45646539516746997833251953125">
        <ele>188.600006103515625</ele>
        <time>2026-08-05T08:27:25.000Z</time>
        <extensions>
          <ns3:TrackPointExtension>
            <ns3:hr>82</ns3:hr>
            <ns3:cad>51</ns3:cad>
          </ns3:TrackPointExtension>
        </extensions>
      </trkpt>
      <trkpt lat="43.47688405774533748626708984375" lon="1.4564601145684719085693359375">
        <ele>188.600006103515625</ele>
        <time>2026-08-05T08:27:26.000Z</time>
        <extensions>
          <ns3:TrackPointExtension>
            <ns3:hr>82</ns3:hr>
            <ns3:cad>49</ns3:cad>
          </ns3:TrackPointExtension>
        </extensions>
      </trkpt>
      <trkpt lat="43.47689151763916015625" lon="1.45646271295845508575439453125">
        <ele>188.600006103515625</ele>
        <time>2026-08-05T08:27:27.000Z</time>
        <extensions>
          <ns3:TrackPointExtension>
            <ns3:hr>81</ns3:hr>
            <ns3:cad>48</ns3:cad>
          </ns3:TrackPointExtension>
        </extensions>
      </trkpt>
      <trkpt lat="43.4769022464752197265625" lon="1.4564624615013599395751953125">
        <ele>188.600006103515625</ele>
        <time>2026-08-05T08:27:28.000Z</time>
        <extensions>
          <ns3:TrackPointExtension>
            <ns3:hr>80</ns3:hr>
            <ns3:cad>48</ns3:cad>
          </ns3:TrackPointExtension>
        </extensions>
      </trkpt>
      <trkpt lat="43.4769144840538501739501953125" lon="1.4564547501504421234130859375">
        <ele>188.600006103515625</ele>
        <time>2026-08-05T08:27:29.000Z</time>
        <extensions>
          <ns3:TrackPointExtension>
            <ns3:hr>79</ns3:hr>
            <ns3:cad>48</ns3:cad>
          </ns3:TrackPointExtension>
        </extensions>
      </trkpt>
      <trkpt lat="43.47692294977605342864990234375" lon="1.45645332522690296173095703125">
        <ele>188.600006103515625</ele>
        <time>2026-08-05T08:27:30.000Z</time>
        <extensions>
          <ns3:TrackPointExtension>
            <ns3:hr>79</ns3:hr>
            <ns3:cad>48</ns3:cad>
          </ns3:TrackPointExtension>
        </extensions>
      </trkpt>
      <trkpt lat="43.4769312478601932525634765625" lon="1.4564534090459346771240234375">
        <ele>188.600006103515625</ele>
        <time>2026-08-05T08:27:31.000Z</time>
        <extensions>
          <ns3:TrackPointExtension>
            <ns3:hr>78</ns3:hr>
            <ns3:cad>48</ns3:cad>
          </ns3:TrackPointExtension>
        </extensions>
      </trkpt>
      <trkpt lat="43.47694759257137775421142578125" lon="1.45644687116146087646484375">
        <ele>188.600006103515625</ele>
        <time>2026-08-05T08:27:32.000Z</time>
        <extensions>
          <ns3:TrackPointExtension>
            <ns3:hr>78</ns3:hr>
            <ns3:cad>47</ns3:cad>
          </ns3:TrackPointExtension>
        </extensions>
      </trkpt>
      <trkpt lat="43.47696100361645221710205078125" lon="1.4564399980008602142333984375">
        <ele>188.600006103515625</ele>
        <time>2026-08-05T08:27:33.000Z</time>
        <extensions>
          <ns3:TrackPointExtension>
            <ns3:hr>78</ns3:hr>
            <ns3:cad>45</ns3:cad>
          </ns3:TrackPointExtension>
        </extensions>
      </trkpt>
      <trkpt lat="43.47697265446186065673828125" lon="1.4564329572021961212158203125">
        <ele>188.600006103515625</ele>
        <time>2026-08-05T08:27:34.000Z</time>
        <extensions>
          <ns3:TrackPointExtension>
            <ns3:hr>78</ns3:hr>
            <ns3:cad>44</ns3:cad>
          </ns3:TrackPointExtension>
        </extensions>
      </trkpt>
      <trkpt lat="43.47697977907955646514892578125" lon="1.45643119700253009796142578125">
        <ele>188.600006103515625</ele>
        <time>2026-08-05T08:27:35.000Z</time>
        <extensions>
          <ns3:TrackPointExtension>
            <ns3:hr>78</ns3:hr>
            <ns3:cad>44</ns3:cad>
          </ns3:TrackPointExtension>
        </extensions>
      </trkpt>
      <trkpt lat="43.476988412439823150634765625" lon="1.4564262516796588897705078125">
        <ele>188.600006103515625</ele>
        <time>2026-08-05T08:27:36.000Z</time>
        <extensions>
          <ns3:TrackPointExtension>
            <ns3:hr>77</ns3:hr>
            <ns3:cad>44</ns3:cad>
          </ns3:TrackPointExtension>
        </extensions>
      </trkpt>
      <trkpt lat="43.47699754871428012847900390625" lon="1.4564228989183902740478515625">
        <ele>188.600006103515625</ele>
        <time>2026-08-05T08:27:37.000Z</time>
        <extensions>
          <ns3:TrackPointExtension>
            <ns3:hr>77</ns3:hr>
            <ns3:cad>44</ns3:cad>
          </ns3:TrackPointExtension>
        </extensions>
      </trkpt>
      <trkpt lat="43.47700693644583225250244140625" lon="1.45641845650970935821533203125">
        <ele>188.600006103515625</ele>
        <time>2026-08-05T08:27:38.000Z</time>
        <extensions>
          <ns3:TrackPointExtension>
            <ns3:hr>78</ns3:hr>
            <ns3:cad>45</ns3:cad>
          </ns3:TrackPointExtension>
        </extensions>
      </trkpt>
      <trkpt lat="43.4770143963396549224853515625" lon="1.45641141571104526519775390625">
        <ele>188.600006103515625</ele>
        <time>2026-08-05T08:27:39.000Z</time>
        <extensions>
          <ns3:TrackPointExtension>
            <ns3:hr>78</ns3:hr>
            <ns3:cad>45</ns3:cad>
          </ns3:TrackPointExtension>
        </extensions>
      </trkpt>
      <trkpt lat="43.47702562808990478515625" lon="1.45640420727431774139404296875">
        <ele>188.600006103515625</ele>
        <time>2026-08-05T08:27:40.000Z</time>
        <extensions>
          <ns3:TrackPointExtension>
            <ns3:hr>78</ns3:hr>
            <ns3:cad>46</ns3:cad>
          </ns3:TrackPointExtension>
        </extensions>
      </trkpt>
      <trkpt lat="43.47703342325985431671142578125" lon="1.4563967473804950714111328125">
        <ele>188.600006103515625</ele>
        <time>2026-08-05T08:27:41.000Z</time>
        <extensions>
          <ns3:TrackPointExtension>
            <ns3:hr>78</ns3:hr>
            <ns3:cad>46</ns3:cad>
          </ns3:TrackPointExtension>
        </extensions>
      </trkpt>
      <trkpt lat="43.4770398773252964019775390625" lon="1.4563937298953533172607421875">
        <ele>188.600006103515625</ele>
        <time>2026-08-05T08:27:42.000Z</time>
        <extensions>
          <ns3:TrackPointExtension>
            <ns3:hr>78</ns3:hr>
            <ns3:cad>45</ns3:cad>
          </ns3:TrackPointExtension>
        </extensions>
      </trkpt>
      <trkpt lat="43.477046750485897064208984375" lon="1.4563927240669727325439453125">
        <ele>188.600006103515625</ele>
        <time>2026-08-05T08:27:43.000Z</time>
        <extensions>
          <ns3:TrackPointExtension>
            <ns3:hr>78</ns3:hr>
            <ns3:cad>45</ns3:cad>
          </ns3:TrackPointExtension>
        </extensions>
      </trkpt>
      <trkpt lat="43.47705940715968608856201171875" lon="1.45638425834476947784423828125">
        <ele>188.8000030517578125</ele>
        <time>2026-08-05T08:27:44.000Z</time>
        <extensions>
          <ns3:TrackPointExtension>
            <ns3:hr>78</ns3:hr>
            <ns3:cad>43</ns3:cad>
          </ns3:TrackPointExtension>
        </extensions>
      </trkpt>
      <trkpt lat="43.4770717285573482513427734375" lon="1.45637713372707366943359375">
        <ele>188.8000030517578125</ele>
        <time>2026-08-05T08:27:45.000Z</time>
        <extensions>
          <ns3:TrackPointExtension>
            <ns3:hr>77</ns3:hr>
            <ns3:cad>43</ns3:cad>
          </ns3:TrackPointExtension>
        </extensions>
      </trkpt>
      <trkpt lat="43.477078936994075775146484375" lon="1.45637889392673969268798828125">
        <ele>188.8000030517578125</ele>
        <time>2026-08-05T08:27:46.000Z</time>
        <extensions>
          <ns3:TrackPointExtension>
            <ns3:hr>78</ns3:hr>
            <ns3:cad>43</ns3:cad>
          </ns3:TrackPointExtension>
        </extensions>
      </trkpt>
      <trkpt lat="43.47708388231694698333740234375" lon="1.4563764631748199462890625">
        <ele>188.8000030517578125</ele>
        <time>2026-08-05T08:27:47.000Z</time>
        <extensions>
          <ns3:TrackPointExtension>
            <ns3:hr>78</ns3:hr>
            <ns3:cad>43</ns3:cad>
          </ns3:TrackPointExtension>
        </extensions>
      </trkpt>
      <trkpt lat="43.477096371352672576904296875" lon="1.45637101493775844573974609375">
        <ele>188.8000030517578125</ele>
        <time>2026-08-05T08:27:48.000Z</time>
        <extensions>
          <ns3:TrackPointExtension>
            <ns3:hr>78</ns3:hr>
            <ns3:cad>46</ns3:cad>
          </ns3:TrackPointExtension>
        </extensions>
      </trkpt>
      <trkpt lat="43.477109782397747039794921875" lon="1.4563655667006969451904296875">
        <ele>188.8000030517578125</ele>
        <time>2026-08-05T08:27:49.000Z</time>
        <extensions>
          <ns3:TrackPointExtension>
            <ns3:hr>78</ns3:hr>
            <ns3:cad>47</ns3:cad>
          </ns3:TrackPointExtension>
        </extensions>
      </trkpt>
      <trkpt lat="43.47711757756769657135009765625" lon="1.45636380650103092193603515625">
        <ele>188.8000030517578125</ele>
        <time>2026-08-05T08:27:50.000Z</time>
        <extensions>
          <ns3:TrackPointExtension>
            <ns3:hr>79</ns3:hr>
            <ns3:cad>47</ns3:cad>
          </ns3:TrackPointExtension>
        </extensions>
      </trkpt>
      <trkpt lat="43.477121181786060333251953125" lon="1.4563659019768238067626953125">
        <ele>188.8000030517578125</ele>
        <time>2026-08-05T08:27:51.000Z</time>
        <extensions>
          <ns3:TrackPointExtension>
            <ns3:hr>79</ns3:hr>
            <ns3:cad>46</ns3:cad>
          </ns3:TrackPointExtension>
        </extensions>
      </trkpt>
      <trkpt lat="43.477135933935642242431640625" lon="1.4563603699207305908203125">
        <ele>188.8000030517578125</ele>
        <time>2026-08-05T08:27:52.000Z</time>
        <extensions>
          <ns3:TrackPointExtension>
            <ns3:hr>79</ns3:hr>
            <ns3:cad>46</ns3:cad>
          </ns3:TrackPointExtension>
        </extensions>
      </trkpt>
      <trkpt lat="43.477146662771701812744140625" lon="1.4563504792749881744384765625">
        <ele>189</ele>
        <time>2026-08-05T08:27:53.000Z</time>
        <extensions>
          <ns3:TrackPointExtension>
            <ns3:hr>79</ns3:hr>
            <ns3:cad>46</ns3:cad>
          </ns3:TrackPointExtension>
        </extensions>
      </trkpt>
      <trkpt lat="43.47715261392295360565185546875" lon="1.45634771324694156646728515625">
        <ele>189</ele>
        <time>2026-08-05T08:27:54.000Z</time>
        <extensions>
          <ns3:TrackPointExtension>
            <ns3:hr>80</ns3:hr>
            <ns3:cad>46</ns3:cad>
          </ns3:TrackPointExtension>
        </extensions>
      </trkpt>
      <trkpt lat="43.47715797834098339080810546875" lon="1.4563481323421001434326171875">
        <ele>189</ele>
        <time>2026-08-05T08:27:55.000Z</time>
        <extensions>
          <ns3:TrackPointExtension>
            <ns3:hr>80</ns3:hr>
            <ns3:cad>46</ns3:cad>
          </ns3:TrackPointExtension>
        </extensions>
      </trkpt>
      <trkpt lat="43.47717457450926303863525390625" lon="1.4563550055027008056640625">
        <ele>189</ele>
        <time>2026-08-05T08:27:56.000Z</time>
        <extensions>
          <ns3:TrackPointExtension>
            <ns3:hr>80</ns3:hr>
            <ns3:cad>44</ns3:cad>
          </ns3:TrackPointExtension>
        </extensions>
      </trkpt>
      <trkpt lat="43.47718128003180027008056640625" lon="1.4563467912375926971435546875">
        <ele>189</ele>
        <time>2026-08-05T08:27:57.000Z</time>
        <extensions>
          <ns3:TrackPointExtension>
            <ns3:hr>80</ns3:hr>
            <ns3:cad>44</ns3:cad>
          </ns3:TrackPointExtension>
        </extensions>
      </trkpt>
      <trkpt lat="43.47719150595366954803466796875" lon="1.4563434384763240814208984375">
        <ele>189</ele>
        <time>2026-08-05T08:27:58.000Z</time>
        <extensions>
          <ns3:TrackPointExtension>
            <ns3:hr>80</ns3:hr>
            <ns3:cad>44</ns3:cad>
          </ns3:TrackPointExtension>
        </extensions>
      </trkpt>
      <trkpt lat="43.47719972021877765655517578125" lon="1.456340253353118896484375">
        <ele>189</ele>
        <time>2026-08-05T08:27:59.000Z</time>
        <extensions>
          <ns3:TrackPointExtension>
            <ns3:hr>80</ns3:hr>
            <ns3:cad>44</ns3:cad>
          </ns3:TrackPointExtension>
        </extensions>
      </trkpt>
      <trkpt lat="43.47721631638705730438232421875" lon="1.456331871449947357177734375">
        <ele>189</ele>
        <time>2026-08-05T08:28:00.000Z</time>
        <extensions>
          <ns3:TrackPointExtension>
            <ns3:hr>80</ns3:hr>
            <ns3:cad>44</ns3:cad>
          </ns3:TrackPointExtension>
        </extensions>
      </trkpt>
      <trkpt lat="43.47723190672695636749267578125" lon="1.45632105879485607147216796875">
        <ele>189.1999969482421875</ele>
        <time>2026-08-05T08:28:01.000Z</time>
        <extensions>
          <ns3:TrackPointExtension>
            <ns3:hr>81</ns3:hr>
            <ns3:cad>44</ns3:cad>
          </ns3:TrackPointExtension>
        </extensions>
      </trkpt>
      <trkpt lat="43.477241210639476776123046875" lon="1.4563179574906826019287109375">
        <ele>189.1999969482421875</ele>
        <time>2026-08-05T08:28:02.000Z</time>
        <extensions>
          <ns3:TrackPointExtension>
            <ns3:hr>81</ns3:hr>
            <ns3:cad>43</ns3:cad>
          </ns3:TrackPointExtension>
        </extensions>
      </trkpt>
      <trkpt lat="43.4772500954568386077880859375" lon="1.45631351508200168609619140625">
        <ele>189.1999969482421875</ele>
        <time>2026-08-05T08:28:03.000Z</time>
        <extensions>
          <ns3:TrackPointExtension>
            <ns3:hr>81</ns3:hr>
            <ns3:cad>44</ns3:cad>
          </ns3:TrackPointExtension>
        </extensions>
      </trkpt>
      <trkpt lat="43.47726442851126194000244140625" lon="1.45630815066397190093994140625">
        <ele>189.1999969482421875</ele>
        <time>2026-08-05T08:28:04.000Z</time>
        <extensions>
          <ns3:TrackPointExtension>
            <ns3:hr>81</ns3:hr>
            <ns3:cad>45</ns3:cad>
          </ns3:TrackPointExtension>
        </extensions>
      </trkpt>
      <trkpt lat="43.477274067699909210205078125" lon="1.45630161277949810028076171875">
        <ele>189.399993896484375</ele>
        <time>2026-08-05T08:28:05.000Z</time>
        <extensions>
          <ns3:TrackPointExtension>
            <ns3:hr>82</ns3:hr>
            <ns3:cad>45</ns3:cad>
          </ns3:TrackPointExtension>
        </extensions>
      </trkpt>
      <trkpt lat="43.47728052176535129547119140625" lon="1.4562958292663097381591796875">
        <ele>189.399993896484375</ele>
        <time>2026-08-05T08:28:06.000Z</time>
        <extensions>
          <ns3:TrackPointExtension>
            <ns3:hr>82</ns3:hr>
            <ns3:cad>46</ns3:cad>
          </ns3:TrackPointExtension>
        </extensions>
      </trkpt>
      <trkpt lat="43.47728404216468334197998046875" lon="1.45629339851438999176025390625">
        <ele>189.399993896484375</ele>
        <time>2026-08-05T08:28:07.000Z</time>
        <extensions>
          <ns3:TrackPointExtension>
            <ns3:hr>82</ns3:hr>
            <ns3:cad>46</ns3:cad>
          </ns3:TrackPointExtension>
        </extensions>
      </trkpt>
      <trkpt lat="43.4772925078868865966796875" lon="1.45628987811505794525146484375">
        <ele>189.399993896484375</ele>
        <time>2026-08-05T08:28:08.000Z</time>
        <extensions>
          <ns3:TrackPointExtension>
            <ns3:hr>82</ns3:hr>
            <ns3:cad>46</ns3:cad>
          </ns3:TrackPointExtension>
        </extensions>
      </trkpt>
      <trkpt lat="43.47730617038905620574951171875" lon="1.456284932792186737060546875">
        <ele>189.399993896484375</ele>
        <time>2026-08-05T08:28:09.000Z</time>
        <extensions>
          <ns3:TrackPointExtension>
            <ns3:hr>83</ns3:hr>
            <ns3:cad>46</ns3:cad>
          </ns3:TrackPointExtension>
        </extensions>
      </trkpt>
      <trkpt lat="43.47731270827353000640869140625" lon="1.4562785625457763671875">
        <ele>189.399993896484375</ele>
        <time>2026-08-05T08:28:10.000Z</time>
        <extensions>
          <ns3:TrackPointExtension>
            <ns3:hr>83</ns3:hr>
            <ns3:cad>48</ns3:cad>
          </ns3:TrackPointExtension>
        </extensions>
      </trkpt>
      <trkpt lat="43.4773245267570018768310546875" lon="1.45627428777515888214111328125">
        <ele>189.399993896484375</ele>
        <time>2026-08-05T08:28:11.000Z</time>
        <extensions>
          <ns3:TrackPointExtension>
            <ns3:hr>83</ns3:hr>
            <ns3:cad>48</ns3:cad>
          </ns3:TrackPointExtension>
        </extensions>
      </trkpt>
      <trkpt lat="43.477333076298236846923828125" lon="1.45627244375646114349365234375">
        <ele>189.399993896484375</ele>
        <time>2026-08-05T08:28:12.000Z</time>
        <extensions>
          <ns3:TrackPointExtension>
            <ns3:hr>84</ns3:hr>
            <ns3:cad>48</ns3:cad>
          </ns3:TrackPointExtension>
        </extensions>
      </trkpt>
      <trkpt lat="43.47734414041042327880859375" lon="1.45626640878617763519287109375">
        <ele>189.399993896484375</ele>
        <time>2026-08-05T08:28:13.000Z</time>
        <extensions>
          <ns3:TrackPointExtension>
            <ns3:hr>84</ns3:hr>
            <ns3:cad>48</ns3:cad>
          </ns3:TrackPointExtension>
        </extensions>
      </trkpt>
      <trkpt lat="43.477351851761341094970703125" lon="1.45626045763492584228515625">
        <ele>189.399993896484375</ele>
        <time>2026-08-05T08:28:14.000Z</time>
        <extensions>
          <ns3:TrackPointExtension>
            <ns3:hr>84</ns3:hr>
            <ns3:cad>48</ns3:cad>
          </ns3:TrackPointExtension>
        </extensions>
      </trkpt>
      <trkpt lat="43.4773593954741954803466796875" lon="1.45625836215913295745849609375">
        <ele>189.399993896484375</ele>
        <time>2026-08-05T08:28:15.000Z</time>
        <extensions>
          <ns3:TrackPointExtension>
            <ns3:hr>85</ns3:hr>
            <ns3:cad>47</ns3:cad>
          </ns3:TrackPointExtension>
        </extensions>
      </trkpt>
      <trkpt lat="43.47736618481576442718505859375" lon="1.45625417120754718780517578125">
        <ele>189.399993896484375</ele>
        <time>2026-08-05T08:28:16.000Z</time>
        <extensions>
          <ns3:TrackPointExtension>
            <ns3:hr>86</ns3:hr>
            <ns3:cad>47</ns3:cad>
          </ns3:TrackPointExtension>
        </extensions>
      </trkpt>
      <trkpt lat="43.4773761592805385589599609375" lon="1.45625375211238861083984375">
        <ele>189.399993896484375</ele>
        <time>2026-08-05T08:28:17.000Z</time>
        <extensions>
          <ns3:TrackPointExtension>
            <ns3:hr>87</ns3:hr>
            <ns3:cad>47</ns3:cad>
          </ns3:TrackPointExtension>
        </extensions>
      </trkpt>
      <trkpt lat="43.47738303244113922119140625" lon="1.45625115372240543365478515625">
        <ele>189.600006103515625</ele>
        <time>2026-08-05T08:28:18.000Z</time>
        <extensions>
          <ns3:TrackPointExtension>
            <ns3:hr>87</ns3:hr>
            <ns3:cad>46</ns3:cad>
          </ns3:TrackPointExtension>
        </extensions>
      </trkpt>
      <trkpt lat="43.4773925878107547760009765625" lon="1.45625165663659572601318359375">
        <ele>189.600006103515625</ele>
        <time>2026-08-05T08:28:19.000Z</time>
        <extensions>
          <ns3:TrackPointExtension>
            <ns3:hr>87</ns3:hr>
            <ns3:cad>44</ns3:cad>
          </ns3:TrackPointExtension>
        </extensions>
      </trkpt>
      <trkpt lat="43.47739988006651401519775390625" lon="1.4562478847801685333251953125">
        <ele>189.600006103515625</ele>
        <time>2026-08-05T08:28:20.000Z</time>
        <extensions>
          <ns3:TrackPointExtension>
            <ns3:hr>87</ns3:hr>
            <ns3:cad>44</ns3:cad>
          </ns3:TrackPointExtension>
        </extensions>
      </trkpt>
      <trkpt lat="43.47740910016000270843505859375" lon="1.45624562166631221771240234375">
        <ele>189.600006103515625</ele>
        <time>2026-08-05T08:28:21.000Z</time>
        <extensions>
          <ns3:TrackPointExtension>
            <ns3:hr>86</ns3:hr>
            <ns3:cad>43</ns3:cad>
          </ns3:TrackPointExtension>
        </extensions>
      </trkpt>
      <trkpt lat="43.47742150537669658660888671875" lon="1.45623941905796527862548828125">
        <ele>189.399993896484375</ele>
        <time>2026-08-05T08:28:22.000Z</time>
        <extensions>
          <ns3:TrackPointExtension>
            <ns3:hr>85</ns3:hr>
            <ns3:cad>43</ns3:cad>
          </ns3:TrackPointExtension>
        </extensions>
      </trkpt>
      <trkpt lat="43.477433659136295318603515625" lon="1.456236653029918670654296875">
        <ele>189.399993896484375</ele>
        <time>2026-08-05T08:28:23.000Z</time>
        <extensions>
          <ns3:TrackPointExtension>
            <ns3:hr>85</ns3:hr>
            <ns3:cad>43</ns3:cad>
          </ns3:TrackPointExtension>
        </extensions>
      </trkpt>
      <trkpt lat="43.4774425439536571502685546875" lon="1.45623539574444293975830078125">
        <ele>189.399993896484375</ele>
        <time>2026-08-05T08:28:24.000Z</time>
        <extensions>
          <ns3:TrackPointExtension>
            <ns3:hr>85</ns3:hr>
            <ns3:cad>43</ns3:cad>
          </ns3:TrackPointExtension>
        </extensions>
      </trkpt>
      <trkpt lat="43.47745469771325588226318359375" lon="1.45623841322958469390869140625">
        <ele>189.399993896484375</ele>
        <time>2026-08-05T08:28:25.000Z</time>
        <extensions>
          <ns3:TrackPointExtension>
            <ns3:hr>85</ns3:hr>
            <ns3:cad>47</ns3:cad>
          </ns3:TrackPointExtension>
        </extensions>
      </trkpt>
      <trkpt lat="43.47747020423412322998046875" lon="1.45623573102056980133056640625">
        <ele>189.399993896484375</ele>
        <time>2026-08-05T08:28:26.000Z</time>
        <extensions>
          <ns3:TrackPointExtension>
            <ns3:hr>85</ns3:hr>
            <ns3:cad>49</ns3:cad>
          </ns3:TrackPointExtension>
        </extensions>
      </trkpt>
      <trkpt lat="43.47748436965048313140869140625" lon="1.45623028278350830078125">
        <ele>189.399993896484375</ele>
        <time>2026-08-05T08:28:27.000Z</time>
        <extensions>
          <ns3:TrackPointExtension>
            <ns3:hr>86</ns3:hr>
            <ns3:cad>49</ns3:cad>
          </ns3:TrackPointExtension>
        </extensions>
      </trkpt>
      <trkpt lat="43.477495349943637847900390625" lon="1.45622651092708110809326171875">
        <ele>189.399993896484375</ele>
        <time>2026-08-05T08:28:28.000Z</time>
        <extensions>
          <ns3:TrackPointExtension>
            <ns3:hr>85</ns3:hr>
            <ns3:cad>49</ns3:cad>
          </ns3:TrackPointExtension>
        </extensions>
      </trkpt>
      <trkpt lat="43.47750633023679256439208984375" lon="1.45622399635612964630126953125">
        <ele>189.399993896484375</ele>
        <time>2026-08-05T08:28:29.000Z</time>
        <extensions>
          <ns3:TrackPointExtension>
            <ns3:hr>85</ns3:hr>
            <ns3:cad>48</ns3:cad>
          </ns3:TrackPointExtension>
        </extensions>
      </trkpt>
      <trkpt lat="43.47752091474831104278564453125" lon="1.4562190510332584381103515625">
        <ele>189.399993896484375</ele>
        <time>2026-08-05T08:28:30.000Z</time>
        <extensions>
          <ns3:TrackPointExtension>
            <ns3:hr>85</ns3:hr>
            <ns3:cad>48</ns3:cad>
          </ns3:TrackPointExtension>
        </extensions>
      </trkpt>
      <trkpt lat="43.477532900869846343994140625" lon="1.456213854253292083740234375">
        <ele>189.600006103515625</ele>
        <time>2026-08-05T08:28:31.000Z</time>
        <extensions>
          <ns3:TrackPointExtension>
            <ns3:hr>85</ns3:hr>
            <ns3:cad>48</ns3:cad>
          </ns3:TrackPointExtension>
        </extensions>
      </trkpt>
      <trkpt lat="43.4775414504110813140869140625" lon="1.4562089927494525909423828125">
        <ele>189.600006103515625</ele>
        <time>2026-08-05T08:28:32.000Z</time>
        <extensions>
          <ns3:TrackPointExtension>
            <ns3:hr>85</ns3:hr>
            <ns3:cad>48</ns3:cad>
          </ns3:TrackPointExtension>
        </extensions>
      </trkpt>
      <trkpt lat="43.4775518439710140228271484375" lon="1.45620220340788364410400390625">
        <ele>189.600006103515625</ele>
        <time>2026-08-05T08:28:33.000Z</time>
        <extensions>
          <ns3:TrackPointExtension>
            <ns3:hr>85</ns3:hr>
            <ns3:cad>48</ns3:cad>
          </ns3:TrackPointExtension>
        </extensions>
      </trkpt>
      <trkpt lat="43.47755880095064640045166015625" lon="1.45619868300855159759521484375">
        <ele>189.600006103515625</ele>
        <time>2026-08-05T08:28:34.000Z</time>
        <extensions>
          <ns3:TrackPointExtension>
            <ns3:hr>84</ns3:hr>
            <ns3:cad>47</ns3:cad>
          </ns3:TrackPointExtension>
        </extensions>
      </trkpt>
      <trkpt lat="43.47757355310022830963134765625" lon="1.456189714372158050537109375">
        <ele>189.600006103515625</ele>
        <time>2026-08-05T08:28:35.000Z</time>
        <extensions>
          <ns3:TrackPointExtension>
            <ns3:hr>84</ns3:hr>
            <ns3:cad>46</ns3:cad>
          </ns3:TrackPointExtension>
        </extensions>
      </trkpt>
      <trkpt lat="43.47758361138403415679931640625" lon="1.456188373267650604248046875">
        <ele>189.600006103515625</ele>
        <time>2026-08-05T08:28:36.000Z</time>
        <extensions>
          <ns3:TrackPointExtension>
            <ns3:hr>84</ns3:hr>
            <ns3:cad>46</ns3:cad>
          </ns3:TrackPointExtension>
        </extensions>
      </trkpt>
      <trkpt lat="43.47758931107819080352783203125" lon="1.45618510432541370391845703125">
        <ele>189.8000030517578125</ele>
        <time>2026-08-05T08:28:37.000Z</time>
        <extensions>
          <ns3:TrackPointExtension>
            <ns3:hr>84</ns3:hr>
            <ns3:cad>47</ns3:cad>
          </ns3:TrackPointExtension>
        </extensions>
      </trkpt>
      <trkpt lat="43.47759853117167949676513671875" lon="1.45618527196347713470458984375">
        <ele>189.8000030517578125</ele>
        <time>2026-08-05T08:28:38.000Z</time>
        <extensions>
          <ns3:TrackPointExtension>
            <ns3:hr>84</ns3:hr>
            <ns3:cad>47</ns3:cad>
          </ns3:TrackPointExtension>
        </extensions>
      </trkpt>
      <trkpt lat="43.47760842181742191314697265625" lon="1.4561845175921916961669921875">
        <ele>189.8000030517578125</ele>
        <time>2026-08-05T08:28:39.000Z</time>
        <extensions>
          <ns3:TrackPointExtension>
            <ns3:hr>84</ns3:hr>
            <ns3:cad>47</ns3:cad>
          </ns3:TrackPointExtension>
        </extensions>
      </trkpt>
      <trkpt lat="43.4776175580918788909912109375" lon="1.456182003021240234375">
        <ele>189.8000030517578125</ele>
        <time>2026-08-05T08:28:40.000Z</time>
        <extensions>
          <ns3:TrackPointExtension>
            <ns3:hr>84</ns3:hr>
            <ns3:cad>46</ns3:cad>
          </ns3:TrackPointExtension>
        </extensions>
      </trkpt>
      <trkpt lat="43.47762501798570156097412109375" lon="1.4561806619167327880859375">
        <ele>190</ele>
        <time>2026-08-05T08:28:41.000Z</time>
        <extensions>
          <ns3:TrackPointExtension>
            <ns3:hr>84</ns3:hr>
            <ns3:cad>45</ns3:cad>
          </ns3:TrackPointExtension>
        </extensions>
      </trkpt>
      <trkpt lat="43.4776366688311100006103515625" lon="1.45617739297449588775634765625">
        <ele>190</ele>
        <time>2026-08-05T08:28:42.000Z</time>
        <extensions>
          <ns3:TrackPointExtension>
            <ns3:hr>84</ns3:hr>
            <ns3:cad>45</ns3:cad>
          </ns3:TrackPointExtension>
        </extensions>
      </trkpt>
      <trkpt lat="43.4776534326374530792236328125" lon="1.4561712741851806640625">
        <ele>190.1999969482421875</ele>
        <time>2026-08-05T08:28:43.000Z</time>
        <extensions>
          <ns3:TrackPointExtension>
            <ns3:hr>84</ns3:hr>
            <ns3:cad>44</ns3:cad>
          </ns3:TrackPointExtension>
        </extensions>
      </trkpt>
      <trkpt lat="43.47766206599771976470947265625" lon="1.45616926252841949462890625">
        <ele>190.1999969482421875</ele>
        <time>2026-08-05T08:28:44.000Z</time>
        <extensions>
          <ns3:TrackPointExtension>
            <ns3:hr>84</ns3:hr>
            <ns3:cad>44</ns3:cad>
          </ns3:TrackPointExtension>
        </extensions>
      </trkpt>
      <trkpt lat="43.4776688553392887115478515625" lon="1.4561660774052143096923828125">
        <ele>190.1999969482421875</ele>
        <time>2026-08-05T08:28:45.000Z</time>
        <extensions>
          <ns3:TrackPointExtension>
            <ns3:hr>84</ns3:hr>
            <ns3:cad>44</ns3:cad>
          </ns3:TrackPointExtension>
        </extensions>
      </trkpt>
      <trkpt lat="43.4776826016604900360107421875" lon="1.45616431720554828643798828125">
        <ele>190.1999969482421875</ele>
        <time>2026-08-05T08:28:46.000Z</time>
        <extensions>
          <ns3:TrackPointExtension>
            <ns3:hr>85</ns3:hr>
            <ns3:cad>43</ns3:cad>
          </ns3:TrackPointExtension>
        </extensions>
      </trkpt>
      <trkpt lat="43.4776923246681690216064453125" lon="1.45616255700588226318359375">
        <ele>190.1999969482421875</ele>
        <time>2026-08-05T08:28:47.000Z</time>
        <extensions>
          <ns3:TrackPointExtension>
            <ns3:hr>84</ns3:hr>
            <ns3:cad>43</ns3:cad>
          </ns3:TrackPointExtension>
        </extensions>
      </trkpt>
      <trkpt lat="43.477698527276515960693359375" lon="1.456160880625247955322265625">
        <ele>190.1999969482421875</ele>
        <time>2026-08-05T08:28:48.000Z</time>
        <extensions>
          <ns3:TrackPointExtension>
            <ns3:hr>84</ns3:hr>
            <ns3:cad>44</ns3:cad>
          </ns3:TrackPointExtension>
        </extensions>
      </trkpt>
      <trkpt lat="43.477705232799053192138671875" lon="1.45615828223526477813720703125">
        <ele>190.1999969482421875</ele>
        <time>2026-08-05T08:28:49.000Z</time>
        <extensions>
          <ns3:TrackPointExtension>
            <ns3:hr>84</ns3:hr>
            <ns3:cad>44</ns3:cad>
          </ns3:TrackPointExtension>
        </extensions>
      </trkpt>
      <trkpt lat="43.477715291082859039306640625" lon="1.4561533369123935699462890625">
        <ele>190.399993896484375</ele>
        <time>2026-08-05T08:28:50.000Z</time>
        <extensions>
          <ns3:TrackPointExtension>
            <ns3:hr>84</ns3:hr>
            <ns3:cad>44</ns3:cad>
          </ns3:TrackPointExtension>
        </extensions>
      </trkpt>
      <trkpt lat="43.47772342152893543243408203125" lon="1.4561498165130615234375">
        <ele>190.399993896484375</ele>
        <time>2026-08-05T08:28:51.000Z</time>
        <extensions>
          <ns3:TrackPointExtension>
            <ns3:hr>84</ns3:hr>
            <ns3:cad>44</ns3:cad>
          </ns3:TrackPointExtension>
        </extensions>
      </trkpt>
      <trkpt lat="43.4777359105646610260009765625" lon="1.45614403299987316131591796875">
        <ele>190.399993896484375</ele>
        <time>2026-08-05T08:28:52.000Z</time>
        <extensions>
          <ns3:TrackPointExtension>
            <ns3:hr>85</ns3:hr>
            <ns3:cad>45</ns3:cad>
          </ns3:TrackPointExtension>
        </extensions>
      </trkpt>
      <trkpt lat="43.4777463041245937347412109375" lon="1.4561404287815093994140625">
        <ele>190.399993896484375</ele>
        <time>2026-08-05T08:28:53.000Z</time>
        <extensions>
          <ns3:TrackPointExtension>
            <ns3:hr>85</ns3:hr>
            <ns3:cad>45</ns3:cad>
          </ns3:TrackPointExtension>
        </extensions>
      </trkpt>
      <trkpt lat="43.47775720059871673583984375" lon="1.45614034496247768402099609375">
        <ele>190.399993896484375</ele>
        <time>2026-08-05T08:28:54.000Z</time>
        <extensions>
          <ns3:TrackPointExtension>
            <ns3:hr>85</ns3:hr>
            <ns3:cad>45</ns3:cad>
          </ns3:TrackPointExtension>
        </extensions>
      </trkpt>
      <trkpt lat="43.47776466049253940582275390625" lon="1.456140093505382537841796875">
        <ele>190.399993896484375</ele>
        <time>2026-08-05T08:28:55.000Z</time>
        <extensions>
          <ns3:TrackPointExtension>
            <ns3:hr>84</ns3:hr>
            <ns3:cad>45</ns3:cad>
          </ns3:TrackPointExtension>
        </extensions>
      </trkpt>
      <trkpt lat="43.47777019254863262176513671875" lon="1.456138081848621368408203125">
        <ele>190.399993896484375</ele>
        <time>2026-08-05T08:28:56.000Z</time>
        <extensions>
          <ns3:TrackPointExtension>
            <ns3:hr>84</ns3:hr>
            <ns3:cad>45</ns3:cad>
          </ns3:TrackPointExtension>
        </extensions>
      </trkpt>
      <trkpt lat="43.47778092138469219207763671875" lon="1.45613380707800388336181640625">
        <ele>190.399993896484375</ele>
        <time>2026-08-05T08:28:57.000Z</time>
        <extensions>
          <ns3:TrackPointExtension>
            <ns3:hr>85</ns3:hr>
            <ns3:cad>45</ns3:cad>
          </ns3:TrackPointExtension>
        </extensions>
      </trkpt>
      <trkpt lat="43.477797098457813262939453125" lon="1.4561298675835132598876953125">
        <ele>190.399993896484375</ele>
        <time>2026-08-05T08:28:58.000Z</time>
        <extensions>
          <ns3:TrackPointExtension>
            <ns3:hr>85</ns3:hr>
            <ns3:cad>45</ns3:cad>
          </ns3:TrackPointExtension>
        </extensions>
      </trkpt>
      <trkpt lat="43.47781042568385601043701171875" lon="1.45612500607967376708984375">
        <ele>190.600006103515625</ele>
        <time>2026-08-05T08:28:59.000Z</time>
        <extensions>
          <ns3:TrackPointExtension>
            <ns3:hr>85</ns3:hr>
            <ns3:cad>43</ns3:cad>
          </ns3:TrackPointExtension>
        </extensions>
      </trkpt>
      <trkpt lat="43.47782266326248645782470703125" lon="1.456122659146785736083984375">
        <ele>190.600006103515625</ele>
        <time>2026-08-05T08:29:00.000Z</time>
        <extensions>
          <ns3:TrackPointExtension>
            <ns3:hr>86</ns3:hr>
            <ns3:cad>43</ns3:cad>
          </ns3:TrackPointExtension>
        </extensions>
      </trkpt>
      <trkpt lat="43.47783054225146770477294921875" lon="1.4561198092997074127197265625">
        <ele>190.600006103515625</ele>
        <time>2026-08-05T08:29:01.000Z</time>
        <extensions>
          <ns3:TrackPointExtension>
            <ns3:hr>86</ns3:hr>
            <ns3:cad>43</ns3:cad>
          </ns3:TrackPointExtension>
        </extensions>
      </trkpt>
      <trkpt lat="43.4778418578207492828369140625" lon="1.45611427724361419677734375">
        <ele>190.600006103515625</ele>
        <time>2026-08-05T08:29:02.000Z</time>
        <extensions>
          <ns3:TrackPointExtension>
            <ns3:hr>86</ns3:hr>
            <ns3:cad>44</ns3:cad>
          </ns3:TrackPointExtension>
        </extensions>
      </trkpt>
      <trkpt lat="43.47785241901874542236328125" lon="1.456109918653964996337890625">
        <ele>190.8000030517578125</ele>
        <time>2026-08-05T08:29:03.000Z</time>
        <extensions>
          <ns3:TrackPointExtension>
            <ns3:hr>86</ns3:hr>
            <ns3:cad>44</ns3:cad>
          </ns3:TrackPointExtension>
        </extensions>
      </trkpt>
      <trkpt lat="43.477860130369663238525390625" lon="1.456107236444950103759765625">
        <ele>190.8000030517578125</ele>
        <time>2026-08-05T08:29:04.000Z</time>
        <extensions>
          <ns3:TrackPointExtension>
            <ns3:hr>86</ns3:hr>
            <ns3:cad>44</ns3:cad>
          </ns3:TrackPointExtension>
        </extensions>
      </trkpt>
      <trkpt lat="43.47786717116832733154296875" lon="1.456108577549457550048828125">
        <ele>191</ele>
        <time>2026-08-05T08:29:05.000Z</time>
        <extensions>
          <ns3:TrackPointExtension>
            <ns3:hr>86</ns3:hr>
            <ns3:cad>45</ns3:cad>
          </ns3:TrackPointExtension>
        </extensions>
      </trkpt>
      <trkpt lat="43.477878235280513763427734375" lon="1.45610966719686985015869140625">
        <ele>191</ele>
        <time>2026-08-05T08:29:06.000Z</time>
        <extensions>
          <ns3:TrackPointExtension>
            <ns3:hr>86</ns3:hr>
            <ns3:cad>45</ns3:cad>
          </ns3:TrackPointExtension>
        </extensions>
      </trkpt>
      <trkpt lat="43.47788971848785877227783203125" lon="1.4561067335307598114013671875">
        <ele>191.1999969482421875</ele>
        <time>2026-08-05T08:29:07.000Z</time>
        <extensions>
          <ns3:TrackPointExtension>
            <ns3:hr>87</ns3:hr>
            <ns3:cad>45</ns3:cad>
          </ns3:TrackPointExtension>
        </extensions>
      </trkpt>
      <trkpt lat="43.4778960049152374267578125" lon="1.4561055600643157958984375">
        <ele>191.1999969482421875</ele>
        <time>2026-08-05T08:29:08.000Z</time>
        <extensions>
          <ns3:TrackPointExtension>
            <ns3:hr>88</ns3:hr>
            <ns3:cad>46</ns3:cad>
          </ns3:TrackPointExtension>
        </extensions>
      </trkpt>
      <trkpt lat="43.47790212370455265045166015625" lon="1.45609977655112743377685546875">
        <ele>191.399993896484375</ele>
        <time>2026-08-05T08:29:09.000Z</time>
        <extensions>
          <ns3:TrackPointExtension>
            <ns3:hr>88</ns3:hr>
            <ns3:cad>46</ns3:cad>
          </ns3:TrackPointExtension>
        </extensions>
      </trkpt>
      <trkpt lat="43.47791402600705623626708984375" lon="1.45609826780855655670166015625">
        <ele>191.399993896484375</ele>
        <time>2026-08-05T08:29:10.000Z</time>
        <extensions>
          <ns3:TrackPointExtension>
            <ns3:hr>89</ns3:hr>
            <ns3:cad>46</ns3:cad>
          </ns3:TrackPointExtension>
        </extensions>
      </trkpt>
      <trkpt lat="43.4779260121285915374755859375" lon="1.45609659142792224884033203125">
        <ele>191.600006103515625</ele>
        <time>2026-08-05T08:29:11.000Z</time>
        <extensions>
          <ns3:TrackPointExtension>
            <ns3:hr>91</ns3:hr>
            <ns3:cad>46</ns3:cad>
          </ns3:TrackPointExtension>
        </extensions>
      </trkpt>
      <trkpt lat="43.4779347293078899383544921875" lon="1.456099189817905426025390625">
        <ele>191.600006103515625</ele>
        <time>2026-08-05T08:29:12.000Z</time>
        <extensions>
          <ns3:TrackPointExtension>
            <ns3:hr>92</ns3:hr>
            <ns3:cad>46</ns3:cad>
          </ns3:TrackPointExtension>
        </extensions>
      </trkpt>
      <trkpt lat="43.47794269211590290069580078125" lon="1.45609877072274684906005859375">
        <ele>191.600006103515625</ele>
        <time>2026-08-05T08:29:13.000Z</time>
        <extensions>
          <ns3:TrackPointExtension>
            <ns3:hr>92</ns3:hr>
            <ns3:cad>46</ns3:cad>
          </ns3:TrackPointExtension>
        </extensions>
      </trkpt>
      <trkpt lat="43.47795476205646991729736328125" lon="1.45609541796147823333740234375">
        <ele>191.600006103515625</ele>
        <time>2026-08-05T08:29:14.000Z</time>
        <extensions>
          <ns3:TrackPointExtension>
            <ns3:hr>93</ns3:hr>
            <ns3:cad>46</ns3:cad>
          </ns3:TrackPointExtension>
        </extensions>
      </trkpt>
      <trkpt lat="43.4779642336070537567138671875" lon="1.456088460981845855712890625">
        <ele>191.600006103515625</ele>
        <time>2026-08-05T08:29:15.000Z</time>
        <extensions>
          <ns3:TrackPointExtension>
            <ns3:hr>94</ns3:hr>
            <ns3:cad>44</ns3:cad>
          </ns3:TrackPointExtension>
        </extensions>
      </trkpt>
      <trkpt lat="43.47797420807182788848876953125" lon="1.45608745515346527099609375">
        <ele>191.600006103515625</ele>
        <time>2026-08-05T08:29:16.000Z</time>
        <extensions>
          <ns3:TrackPointExtension>
            <ns3:hr>94</ns3:hr>
            <ns3:cad>44</ns3:cad>
          </ns3:TrackPointExtension>
        </extensions>
      </trkpt>
      <trkpt lat="43.47798225469887256622314453125" lon="1.45608653314411640167236328125">
        <ele>191.600006103515625</ele>
        <time>2026-08-05T08:29:17.000Z</time>
        <extensions>
          <ns3:TrackPointExtension>
            <ns3:hr>95</ns3:hr>
            <ns3:cad>44</ns3:cad>
          </ns3:TrackPointExtension>
        </extensions>
      </trkpt>
      <trkpt lat="43.4779887087643146514892578125" lon="1.45608083344995975494384765625">
        <ele>191.600006103515625</ele>
        <time>2026-08-05T08:29:18.000Z</time>
        <extensions>
          <ns3:TrackPointExtension>
            <ns3:hr>95</ns3:hr>
            <ns3:cad>46</ns3:cad>
          </ns3:TrackPointExtension>
        </extensions>
      </trkpt>
      <trkpt lat="43.47799985669553279876708984375" lon="1.45607463084161281585693359375">
        <ele>191.399993896484375</ele>
        <time>2026-08-05T08:29:19.000Z</time>
        <extensions>
          <ns3:TrackPointExtension>
            <ns3:hr>95</ns3:hr>
            <ns3:cad>46</ns3:cad>
          </ns3:TrackPointExtension>
        </extensions>
      </trkpt>
      <trkpt lat="43.4780108369886875152587890625" lon="1.45607412792742252349853515625">
        <ele>191.399993896484375</ele>
        <time>2026-08-05T08:29:20.000Z</time>
        <extensions>
          <ns3:TrackPointExtension>
            <ns3:hr>97</ns3:hr>
            <ns3:cad>48</ns3:cad>
          </ns3:TrackPointExtension>
        </extensions>
      </trkpt>
      <trkpt lat="43.478020727634429931640625" lon="1.45607228390872478485107421875">
        <ele>191.1999969482421875</ele>
        <time>2026-08-05T08:29:21.000Z</time>
        <extensions>
          <ns3:TrackPointExtension>
            <ns3:hr>97</ns3:hr>
            <ns3:cad>48</ns3:cad>
          </ns3:TrackPointExtension>
        </extensions>
      </trkpt>
      <trkpt lat="43.47803053446114063262939453125" lon="1.45607463084161281585693359375">
        <ele>191.1999969482421875</ele>
        <time>2026-08-05T08:29:22.000Z</time>
        <extensions>
          <ns3:TrackPointExtension>
            <ns3:hr>98</ns3:hr>
            <ns3:cad>48</ns3:cad>
          </ns3:TrackPointExtension>
        </extensions>
      </trkpt>
      <trkpt lat="43.47803908400237560272216796875" lon="1.4560772292315959930419921875">
        <ele>191</ele>
        <time>2026-08-05T08:29:23.000Z</time>
        <extensions>
          <ns3:TrackPointExtension>
            <ns3:hr>97</ns3:hr>
            <ns3:cad>48</ns3:cad>
          </ns3:TrackPointExtension>
        </extensions>
      </trkpt>
      <trkpt lat="43.47805199213325977325439453125" lon="1.456079073250293731689453125">
        <ele>191</ele>
        <time>2026-08-05T08:29:24.000Z</time>
        <extensions>
          <ns3:TrackPointExtension>
            <ns3:hr>97</ns3:hr>
            <ns3:cad>48</ns3:cad>
          </ns3:TrackPointExtension>
        </extensions>
      </trkpt>
      <trkpt lat="43.47806355915963649749755859375" lon="1.4560748822987079620361328125">
        <ele>190.8000030517578125</ele>
        <time>2026-08-05T08:29:25.000Z</time>
        <extensions>
          <ns3:TrackPointExtension>
            <ns3:hr>96</ns3:hr>
            <ns3:cad>48</ns3:cad>
          </ns3:TrackPointExtension>
        </extensions>
      </trkpt>
      <trkpt lat="43.47807546146214008331298828125" lon="1.45607328973710536956787109375">
        <ele>190.8000030517578125</ele>
        <time>2026-08-05T08:29:26.000Z</time>
        <extensions>
          <ns3:TrackPointExtension>
            <ns3:hr>96</ns3:hr>
            <ns3:cad>48</ns3:cad>
          </ns3:TrackPointExtension>
        </extensions>
      </trkpt>
      <trkpt lat="43.47808652557432651519775390625" lon="1.4560748822987079620361328125">
        <ele>190.600006103515625</ele>
        <time>2026-08-05T08:29:27.000Z</time>
        <extensions>
          <ns3:TrackPointExtension>
            <ns3:hr>96</ns3:hr>
            <ns3:cad>48</ns3:cad>
          </ns3:TrackPointExtension>
        </extensions>
      </trkpt>
      <trkpt lat="43.478094153106212615966796875" lon="1.456073038280010223388671875">
        <ele>190.600006103515625</ele>
        <time>2026-08-05T08:29:28.000Z</time>
        <extensions>
          <ns3:TrackPointExtension>
            <ns3:hr>97</ns3:hr>
            <ns3:cad>48</ns3:cad>
          </ns3:TrackPointExtension>
        </extensions>
      </trkpt>
      <trkpt lat="43.47810320556163787841796875" lon="1.456075049936771392822265625">
        <ele>190.399993896484375</ele>
        <time>2026-08-05T08:29:29.000Z</time>
        <extensions>
          <ns3:TrackPointExtension>
            <ns3:hr>97</ns3:hr>
            <ns3:cad>49</ns3:cad>
          </ns3:TrackPointExtension>
        </extensions>
      </trkpt>
      <trkpt lat="43.47811183892190456390380859375" lon="1.4560735411942005157470703125">
        <ele>190.399993896484375</ele>
        <time>2026-08-05T08:29:30.000Z</time>
        <extensions>
          <ns3:TrackPointExtension>
            <ns3:hr>97</ns3:hr>
            <ns3:cad>49</ns3:cad>
          </ns3:TrackPointExtension>
        </extensions>
      </trkpt>
      <trkpt lat="43.4781224839389324188232421875" lon="1.45606742240488529205322265625">
        <ele>190.1999969482421875</ele>
        <time>2026-08-05T08:29:31.000Z</time>
        <extensions>
          <ns3:TrackPointExtension>
            <ns3:hr>96</ns3:hr>
            <ns3:cad>48</ns3:cad>
          </ns3:TrackPointExtension>
        </extensions>
      </trkpt>
      <trkpt lat="43.47813027910888195037841796875" lon="1.456064991652965545654296875">
        <ele>190.1999969482421875</ele>
        <time>2026-08-05T08:29:32.000Z</time>
        <extensions>
          <ns3:TrackPointExtension>
            <ns3:hr>96</ns3:hr>
            <ns3:cad>48</ns3:cad>
          </ns3:TrackPointExtension>
        </extensions>
      </trkpt>
      <trkpt lat="43.47813882865011692047119140625" lon="1.45606867969036102294921875">
        <ele>190</ele>
        <time>2026-08-05T08:29:33.000Z</time>
        <extensions>
          <ns3:TrackPointExtension>
            <ns3:hr>95</ns3:hr>
            <ns3:cad>48</ns3:cad>
          </ns3:TrackPointExtension>
        </extensions>
      </trkpt>
      <trkpt lat="43.4781476296484470367431640625" lon="1.4560688473284244537353515625">
        <ele>190</ele>
        <time>2026-08-05T08:29:34.000Z</time>
        <extensions>
          <ns3:TrackPointExtension>
            <ns3:hr>93</ns3:hr>
            <ns3:cad>48</ns3:cad>
          </ns3:TrackPointExtension>
        </extensions>
      </trkpt>
      <trkpt lat="43.478155843913555145263671875" lon="1.45606792531907558441162109375">
        <ele>189.8000030517578125</ele>
        <time>2026-08-05T08:29:35.000Z</time>
        <extensions>
          <ns3:TrackPointExtension>
            <ns3:hr>89</ns3:hr>
            <ns3:cad>49</ns3:cad>
          </ns3:TrackPointExtension>
        </extensions>
      </trkpt>
      <trkpt lat="43.478171266615390777587890625" lon="1.4560654945671558380126953125">
        <ele>189.8000030517578125</ele>
        <time>2026-08-05T08:29:36.000Z</time>
        <extensions>
          <ns3:TrackPointExtension>
            <ns3:hr>87</ns3:hr>
            <ns3:cad>50</ns3:cad>
          </ns3:TrackPointExtension>
        </extensions>
      </trkpt>
      <trkpt lat="43.47818241454660892486572265625" lon="1.456058956682682037353515625">
        <ele>189.8000030517578125</ele>
        <time>2026-08-05T08:29:37.000Z</time>
        <extensions>
          <ns3:TrackPointExtension>
            <ns3:hr>87</ns3:hr>
            <ns3:cad>50</ns3:cad>
          </ns3:TrackPointExtension>
        </extensions>
      </trkpt>
      <trkpt lat="43.47819398157298564910888671875" lon="1.4560527540743350982666015625">
        <ele>189.600006103515625</ele>
        <time>2026-08-05T08:29:38.000Z</time>
        <extensions>
          <ns3:TrackPointExtension>
            <ns3:hr>87</ns3:hr>
            <ns3:cad>50</ns3:cad>
          </ns3:TrackPointExtension>
        </extensions>
      </trkpt>
      <trkpt lat="43.47820068709552288055419921875" lon="1.4560480602085590362548828125">
        <ele>189.600006103515625</ele>
        <time>2026-08-05T08:29:39.000Z</time>
        <extensions>
          <ns3:TrackPointExtension>
            <ns3:hr>87</ns3:hr>
            <ns3:cad>50</ns3:cad>
          </ns3:TrackPointExtension>
        </extensions>
      </trkpt>
      <trkpt lat="43.47820973955094814300537109375" lon="1.4560457132756710052490234375">
        <ele>189.600006103515625</ele>
        <time>2026-08-05T08:29:40.000Z</time>
        <extensions>
          <ns3:TrackPointExtension>
            <ns3:hr>87</ns3:hr>
            <ns3:cad>48</ns3:cad>
          </ns3:TrackPointExtension>
        </extensions>
      </trkpt>
      <trkpt lat="43.4782213903963565826416015625" lon="1.45604294724762439727783203125">
        <ele>189.600006103515625</ele>
        <time>2026-08-05T08:29:41.000Z</time>
        <extensions>
          <ns3:TrackPointExtension>
            <ns3:hr>87</ns3:hr>
            <ns3:cad>48</ns3:cad>
          </ns3:TrackPointExtension>
        </extensions>
      </trkpt>
      <trkpt lat="43.478229604661464691162109375" lon="1.45604076795279979705810546875">
        <ele>189.600006103515625</ele>
        <time>2026-08-05T08:29:42.000Z</time>
        <extensions>
          <ns3:TrackPointExtension>
            <ns3:hr>87</ns3:hr>
            <ns3:cad>47</ns3:cad>
          </ns3:TrackPointExtension>
        </extensions>
      </trkpt>
      <trkpt lat="43.47823597490787506103515625" lon="1.456039510667324066162109375">
        <ele>189.600006103515625</ele>
        <time>2026-08-05T08:29:43.000Z</time>
        <extensions>
          <ns3:TrackPointExtension>
            <ns3:hr>86</ns3:hr>
            <ns3:cad>47</ns3:cad>
          </ns3:TrackPointExtension>
        </extensions>
      </trkpt>
      <trkpt lat="43.47824360243976116180419921875" lon="1.45603305660188198089599609375">
        <ele>189.399993896484375</ele>
        <time>2026-08-05T08:29:44.000Z</time>
        <extensions>
          <ns3:TrackPointExtension>
            <ns3:hr>86</ns3:hr>
            <ns3:cad>48</ns3:cad>
          </ns3:TrackPointExtension>
        </extensions>
      </trkpt>
      <trkpt lat="43.4782549180090427398681640625" lon="1.4560282789170742034912109375">
        <ele>189.399993896484375</ele>
        <time>2026-08-05T08:29:45.000Z</time>
        <extensions>
          <ns3:TrackPointExtension>
            <ns3:hr>86</ns3:hr>
            <ns3:cad>48</ns3:cad>
          </ns3:TrackPointExtension>
        </extensions>
      </trkpt>
      <trkpt lat="43.47826338373124599456787109375" lon="1.4560212381184101104736328125">
        <ele>189.399993896484375</ele>
        <time>2026-08-05T08:29:46.000Z</time>
        <extensions>
          <ns3:TrackPointExtension>
            <ns3:hr>86</ns3:hr>
            <ns3:cad>48</ns3:cad>
          </ns3:TrackPointExtension>
        </extensions>
      </trkpt>
      <trkpt lat="43.47827218472957611083984375" lon="1.45601193420588970184326171875">
        <ele>189.399993896484375</ele>
        <time>2026-08-05T08:29:47.000Z</time>
        <extensions>
          <ns3:TrackPointExtension>
            <ns3:hr>85</ns3:hr>
            <ns3:cad>45</ns3:cad>
          </ns3:TrackPointExtension>
        </extensions>
      </trkpt>
      <trkpt lat="43.47828383557498455047607421875" lon="1.456006653606891632080078125">
        <ele>189.399993896484375</ele>
        <time>2026-08-05T08:29:48.000Z</time>
        <extensions>
          <ns3:TrackPointExtension>
            <ns3:hr>85</ns3:hr>
            <ns3:cad>45</ns3:cad>
          </ns3:TrackPointExtension>
        </extensions>
      </trkpt>
      <trkpt lat="43.47829540260136127471923828125" lon="1.45599567331373691558837890625">
        <ele>189.1999969482421875</ele>
        <time>2026-08-05T08:29:49.000Z</time>
        <extensions>
          <ns3:TrackPointExtension>
            <ns3:hr>85</ns3:hr>
            <ns3:cad>45</ns3:cad>
          </ns3:TrackPointExtension>
        </extensions>
      </trkpt>
      <trkpt lat="43.478307388722896575927734375" lon="1.4559848606586456298828125">
        <ele>189.1999969482421875</ele>
        <time>2026-08-05T08:29:50.000Z</time>
        <extensions>
          <ns3:TrackPointExtension>
            <ns3:hr>84</ns3:hr>
            <ns3:cad>47</ns3:cad>
          </ns3:TrackPointExtension>
        </extensions>
      </trkpt>
      <trkpt lat="43.47832038067281246185302734375" lon="1.45597740076482295989990234375">
        <ele>189.1999969482421875</ele>
        <time>2026-08-05T08:29:51.000Z</time>
        <extensions>
          <ns3:TrackPointExtension>
            <ns3:hr>84</ns3:hr>
            <ns3:cad>49</ns3:cad>
          </ns3:TrackPointExtension>
        </extensions>
      </trkpt>
      <trkpt lat="43.47833446227014064788818359375" lon="1.455972455441951751708984375">
        <ele>189.399993896484375</ele>
        <time>2026-08-05T08:29:52.000Z</time>
        <extensions>
          <ns3:TrackPointExtension>
            <ns3:hr>84</ns3:hr>
            <ns3:cad>49</ns3:cad>
          </ns3:TrackPointExtension>
        </extensions>
      </trkpt>
      <trkpt lat="43.47834535874426364898681640625" lon="1.455966420471668243408203125">
        <ele>189.399993896484375</ele>
        <time>2026-08-05T08:29:53.000Z</time>
        <extensions>
          <ns3:TrackPointExtension>
            <ns3:hr>84</ns3:hr>
            <ns3:cad>49</ns3:cad>
          </ns3:TrackPointExtension>
        </extensions>
      </trkpt>
      <trkpt lat="43.47836011089384555816650390625" lon="1.45595929585397243499755859375">
        <ele>189.399993896484375</ele>
        <time>2026-08-05T08:29:54.000Z</time>
        <extensions>
          <ns3:TrackPointExtension>
            <ns3:hr>83</ns3:hr>
            <ns3:cad>47</ns3:cad>
          </ns3:TrackPointExtension>
        </extensions>
      </trkpt>
      <trkpt lat="43.47837100736796855926513671875" lon="1.45595057867467403411865234375">
        <ele>189.399993896484375</ele>
        <time>2026-08-05T08:29:55.000Z</time>
        <extensions>
          <ns3:TrackPointExtension>
            <ns3:hr>83</ns3:hr>
            <ns3:cad>46</ns3:cad>
          </ns3:TrackPointExtension>
        </extensions>
      </trkpt>
      <trkpt lat="43.478377126157283782958984375" lon="1.455950997769832611083984375">
        <ele>189.399993896484375</ele>
        <time>2026-08-05T08:29:56.000Z</time>
        <extensions>
          <ns3:TrackPointExtension>
            <ns3:hr>83</ns3:hr>
            <ns3:cad>46</ns3:cad>
          </ns3:TrackPointExtension>
        </extensions>
      </trkpt>
      <trkpt lat="43.47838274203240871429443359375" lon="1.45595292560756206512451171875">
        <ele>189.399993896484375</ele>
        <time>2026-08-05T08:29:57.000Z</time>
        <extensions>
          <ns3:TrackPointExtension>
            <ns3:hr>83</ns3:hr>
            <ns3:cad>46</ns3:cad>
          </ns3:TrackPointExtension>
        </extensions>
      </trkpt>
      <trkpt lat="43.4783967398107051849365234375" lon="1.45595510490238666534423828125">
        <ele>189.399993896484375</ele>
        <time>2026-08-05T08:29:58.000Z</time>
        <extensions>
          <ns3:TrackPointExtension>
            <ns3:hr>83</ns3:hr>
            <ns3:cad>46</ns3:cad>
          </ns3:TrackPointExtension>
        </extensions>
      </trkpt>
      <trkpt lat="43.4784091450273990631103515625" lon="1.455951668322086334228515625">
        <ele>189.600006103515625</ele>
        <time>2026-08-05T08:29:59.000Z</time>
        <extensions>
          <ns3:TrackPointExtension>
            <ns3:hr>82</ns3:hr>
            <ns3:cad>46</ns3:cad>
          </ns3:TrackPointExtension>
        </extensions>
      </trkpt>
      <trkpt lat="43.47842263989150524139404296875" lon="1.4559441246092319488525390625">
        <ele>189.8000030517578125</ele>
        <time>2026-08-05T08:30:00.000Z</time>
        <extensions>
          <ns3:TrackPointExtension>
            <ns3:hr>83</ns3:hr>
            <ns3:cad>46</ns3:cad>
          </ns3:TrackPointExtension>
        </extensions>
      </trkpt>
      <trkpt lat="43.478430770337581634521484375" lon="1.4559380896389484405517578125">
        <ele>189.8000030517578125</ele>
        <time>2026-08-05T08:30:01.000Z</time>
        <extensions>
          <ns3:TrackPointExtension>
            <ns3:hr>82</ns3:hr>
            <ns3:cad>46</ns3:cad>
          </ns3:TrackPointExtension>
        </extensions>
      </trkpt>
      <trkpt lat="43.47844476811587810516357421875" lon="1.45593012683093547821044921875">
        <ele>190</ele>
        <time>2026-08-05T08:30:02.000Z</time>
        <extensions>
          <ns3:TrackPointExtension>
            <ns3:hr>82</ns3:hr>
            <ns3:cad>47</ns3:cad>
          </ns3:TrackPointExtension>
        </extensions>
      </trkpt>
      <trkpt lat="43.4784537367522716522216796875" lon="1.4559230022132396697998046875">
        <ele>190</ele>
        <time>2026-08-05T08:30:03.000Z</time>
        <extensions>
          <ns3:TrackPointExtension>
            <ns3:hr>83</ns3:hr>
            <ns3:cad>47</ns3:cad>
          </ns3:TrackPointExtension>
        </extensions>
      </trkpt>
      <trkpt lat="43.47846220247447490692138671875" lon="1.45592275075614452362060546875">
        <ele>190.1999969482421875</ele>
        <time>2026-08-05T08:30:04.000Z</time>
        <extensions>
          <ns3:TrackPointExtension>
            <ns3:hr>83</ns3:hr>
            <ns3:cad>47</ns3:cad>
          </ns3:TrackPointExtension>
        </extensions>
      </trkpt>
      <trkpt lat="43.47846907563507556915283203125" lon="1.455920152366161346435546875">
        <ele>190.1999969482421875</ele>
        <time>2026-08-05T08:30:05.000Z</time>
        <extensions>
          <ns3:TrackPointExtension>
            <ns3:hr>84</ns3:hr>
            <ns3:cad>46</ns3:cad>
          </ns3:TrackPointExtension>
        </extensions>
      </trkpt>
      <trkpt lat="43.47848231904208660125732421875" lon="1.45590841770172119140625">
        <ele>190.1999969482421875</ele>
        <time>2026-08-05T08:30:06.000Z</time>
        <extensions>
          <ns3:TrackPointExtension>
            <ns3:hr>84</ns3:hr>
            <ns3:cad>45</ns3:cad>
          </ns3:TrackPointExtension>
        </extensions>
      </trkpt>
      <trkpt lat="43.47849472425878047943115234375" lon="1.4558961801230907440185546875">
        <ele>190.399993896484375</ele>
        <time>2026-08-05T08:30:07.000Z</time>
        <extensions>
          <ns3:TrackPointExtension>
            <ns3:hr>86</ns3:hr>
            <ns3:cad>45</ns3:cad>
          </ns3:TrackPointExtension>
        </extensions>
      </trkpt>
      <trkpt lat="43.4785013459622859954833984375" lon="1.4558918215334415435791015625">
        <ele>190.399993896484375</ele>
        <time>2026-08-05T08:30:08.000Z</time>
        <extensions>
          <ns3:TrackPointExtension>
            <ns3:hr>86</ns3:hr>
            <ns3:cad>45</ns3:cad>
          </ns3:TrackPointExtension>
        </extensions>
      </trkpt>
      <trkpt lat="43.47850997932255268096923828125" lon="1.45588587038218975067138671875">
        <ele>190.399993896484375</ele>
        <time>2026-08-05T08:30:09.000Z</time>
        <extensions>
          <ns3:TrackPointExtension>
            <ns3:hr>87</ns3:hr>
            <ns3:cad>44</ns3:cad>
          </ns3:TrackPointExtension>
        </extensions>
      </trkpt>
      <trkpt lat="43.478523977100849151611328125" lon="1.45587681792676448822021484375">
        <ele>190.399993896484375</ele>
        <time>2026-08-05T08:30:10.000Z</time>
        <extensions>
          <ns3:TrackPointExtension>
            <ns3:hr>87</ns3:hr>
            <ns3:cad>44</ns3:cad>
          </ns3:TrackPointExtension>
        </extensions>
      </trkpt>
      <trkpt lat="43.47853143699467182159423828125" lon="1.455866508185863494873046875">
        <ele>190.600006103515625</ele>
        <time>2026-08-05T08:30:11.000Z</time>
        <extensions>
          <ns3:TrackPointExtension>
            <ns3:hr>87</ns3:hr>
            <ns3:cad>44</ns3:cad>
          </ns3:TrackPointExtension>
        </extensions>
      </trkpt>
      <trkpt lat="43.47854040563106536865234375" lon="1.455858461558818817138671875">
        <ele>190.600006103515625</ele>
        <time>2026-08-05T08:30:12.000Z</time>
        <extensions>
          <ns3:TrackPointExtension>
            <ns3:hr>87</ns3:hr>
            <ns3:cad>44</ns3:cad>
          </ns3:TrackPointExtension>
        </extensions>
      </trkpt>
      <trkpt lat="43.478550128638744354248046875" lon="1.455852091312408447265625">
        <ele>190.600006103515625</ele>
        <time>2026-08-05T08:30:13.000Z</time>
        <extensions>
          <ns3:TrackPointExtension>
            <ns3:hr>86</ns3:hr>
            <ns3:cad>44</ns3:cad>
          </ns3:TrackPointExtension>
        </extensions>
      </trkpt>
      <trkpt lat="43.47855976782739162445068359375" lon="1.4558428712189197540283203125">
        <ele>190.600006103515625</ele>
        <time>2026-08-05T08:30:14.000Z</time>
        <extensions>
          <ns3:TrackPointExtension>
            <ns3:hr>86</ns3:hr>
            <ns3:cad>43</ns3:cad>
          </ns3:TrackPointExtension>
        </extensions>
      </trkpt>
      <trkpt lat="43.4785647131502628326416015625" lon="1.45583557896316051483154296875">
        <ele>190.8000030517578125</ele>
        <time>2026-08-05T08:30:15.000Z</time>
        <extensions>
          <ns3:TrackPointExtension>
            <ns3:hr>86</ns3:hr>
            <ns3:cad>42</ns3:cad>
          </ns3:TrackPointExtension>
        </extensions>
      </trkpt>
      <trkpt lat="43.47856949083507061004638671875" lon="1.45582702942192554473876953125">
        <ele>190.8000030517578125</ele>
        <time>2026-08-05T08:30:16.000Z</time>
        <extensions>
          <ns3:TrackPointExtension>
            <ns3:hr>86</ns3:hr>
            <ns3:cad>42</ns3:cad>
          </ns3:TrackPointExtension>
        </extensions>
      </trkpt>
      <trkpt lat="43.4785700775682926177978515625" lon="1.45582116208970546722412109375">
        <ele>190.8000030517578125</ele>
        <time>2026-08-05T08:30:17.000Z</time>
        <extensions>
          <ns3:TrackPointExtension>
            <ns3:hr>86</ns3:hr>
            <ns3:cad>45</ns3:cad>
          </ns3:TrackPointExtension>
        </extensions>
      </trkpt>
      <trkpt lat="43.47857787273824214935302734375" lon="1.4558096788823604583740234375">
        <ele>190.8000030517578125</ele>
        <time>2026-08-05T08:30:18.000Z</time>
        <extensions>
          <ns3:TrackPointExtension>
            <ns3:hr>85</ns3:hr>
            <ns3:cad>45</ns3:cad>
          </ns3:TrackPointExtension>
        </extensions>
      </trkpt>
      <trkpt lat="43.4785855002701282501220703125" lon="1.45580045878887176513671875">
        <ele>190.8000030517578125</ele>
        <time>2026-08-05T08:30:19.000Z</time>
        <extensions>
          <ns3:TrackPointExtension>
            <ns3:hr>85</ns3:hr>
            <ns3:cad>45</ns3:cad>
          </ns3:TrackPointExtension>
        </extensions>
      </trkpt>
      <trkpt lat="43.47859136760234832763671875" lon="1.45579065196216106414794921875">
        <ele>190.8000030517578125</ele>
        <time>2026-08-05T08:30:20.000Z</time>
        <extensions>
          <ns3:TrackPointExtension>
            <ns3:hr>84</ns3:hr>
            <ns3:cad>46</ns3:cad>
          </ns3:TrackPointExtension>
        </extensions>
      </trkpt>
      <trkpt lat="43.47859849222004413604736328125" lon="1.45578495226800441741943359375">
        <ele>190.8000030517578125</ele>
        <time>2026-08-05T08:30:21.000Z</time>
        <extensions>
          <ns3:TrackPointExtension>
            <ns3:hr>84</ns3:hr>
            <ns3:cad>46</ns3:cad>
          </ns3:TrackPointExtension>
        </extensions>
      </trkpt>
      <trkpt lat="43.47860746085643768310546875" lon="1.455785371363162994384765625">
        <ele>190.600006103515625</ele>
        <time>2026-08-05T08:30:22.000Z</time>
        <extensions>
          <ns3:TrackPointExtension>
            <ns3:hr>84</ns3:hr>
            <ns3:cad>46</ns3:cad>
          </ns3:TrackPointExtension>
        </extensions>
      </trkpt>
      <trkpt lat="43.4786227159202098846435546875" lon="1.4557784982025623321533203125">
        <ele>190.600006103515625</ele>
        <time>2026-08-05T08:30:23.000Z</time>
        <extensions>
          <ns3:TrackPointExtension>
            <ns3:hr>85</ns3:hr>
            <ns3:cad>46</ns3:cad>
          </ns3:TrackPointExtension>
        </extensions>
      </trkpt>
      <trkpt lat="43.47862757742404937744140625" lon="1.4557717926800251007080078125">
        <ele>190.399993896484375</ele>
        <time>2026-08-05T08:30:24.000Z</time>
        <extensions>
          <ns3:TrackPointExtension>
            <ns3:hr>84</ns3:hr>
            <ns3:cad>46</ns3:cad>
          </ns3:TrackPointExtension>
        </extensions>
      </trkpt>
      <trkpt lat="43.47863185219466686248779296875" lon="1.45577355287969112396240234375">
        <ele>190.399993896484375</ele>
        <time>2026-08-05T08:30:25.000Z</time>
        <extensions>
          <ns3:TrackPointExtension>
            <ns3:hr>83</ns3:hr>
            <ns3:cad>46</ns3:cad>
          </ns3:TrackPointExtension>
        </extensions>
      </trkpt>
      <trkpt lat="43.478631936013698577880859375" lon="1.45577363669872283935546875">
        <ele>190.399993896484375</ele>
        <time>2026-08-05T08:30:26.000Z</time>
        <extensions>
          <ns3:TrackPointExtension>
            <ns3:hr>83</ns3:hr>
            <ns3:cad>46</ns3:cad>
          </ns3:TrackPointExtension>
        </extensions>
      </trkpt>
      <trkpt lat="43.47863168455660343170166015625" lon="1.45576827228069305419921875">
        <ele>190.399993896484375</ele>
        <time>2026-08-05T08:30:27.000Z</time>
        <extensions>
          <ns3:TrackPointExtension>
            <ns3:hr>82</ns3:hr>
            <ns3:cad>46</ns3:cad>
          </ns3:TrackPointExtension>
        </extensions>
      </trkpt>
      <trkpt lat="43.4786411561071872711181640625" lon="1.45575326867401599884033203125">
        <ele>190.399993896484375</ele>
        <time>2026-08-05T08:30:28.000Z</time>
        <extensions>
          <ns3:TrackPointExtension>
            <ns3:hr>81</ns3:hr>
            <ns3:cad>0</ns3:cad>
          </ns3:TrackPointExtension>
        </extensions>
      </trkpt>
      <trkpt lat="43.478648364543914794921875" lon="1.4557453058660030364990234375">
        <ele>190.399993896484375</ele>
        <time>2026-08-05T08:30:29.000Z</time>
        <extensions>
          <ns3:TrackPointExtension>
            <ns3:hr>81</ns3:hr>
            <ns3:cad>0</ns3:cad>
          </ns3:TrackPointExtension>
        </extensions>
      </trkpt>
      <trkpt lat="43.47865565679967403411865234375" lon="1.455734409391880035400390625">
        <ele>190.399993896484375</ele>
        <time>2026-08-05T08:30:30.000Z</time>
        <extensions>
          <ns3:TrackPointExtension>
            <ns3:hr>80</ns3:hr>
            <ns3:cad>0</ns3:cad>
          </ns3:TrackPointExtension>
        </extensions>
      </trkpt>
      <trkpt lat="43.4786626137793064117431640625" lon="1.4557245187461376190185546875">
        <ele>190.399993896484375</ele>
        <time>2026-08-05T08:30:31.000Z</time>
        <extensions>
          <ns3:TrackPointExtension>
            <ns3:hr>80</ns3:hr>
            <ns3:cad>0</ns3:cad>
          </ns3:TrackPointExtension>
        </extensions>
      </trkpt>
      <trkpt lat="43.47867325879633426666259765625" lon="1.4557139575481414794921875">
        <ele>190.399993896484375</ele>
        <time>2026-08-05T08:30:32.000Z</time>
        <extensions>
          <ns3:TrackPointExtension>
            <ns3:hr>80</ns3:hr>
            <ns3:cad>0</ns3:cad>
          </ns3:TrackPointExtension>
        </extensions>
      </trkpt>
      <trkpt lat="43.47868633456528186798095703125" lon="1.455702222883701324462890625">
        <ele>190.399993896484375</ele>
        <time>2026-08-05T08:30:33.000Z</time>
        <extensions>
          <ns3:TrackPointExtension>
            <ns3:hr>80</ns3:hr>
            <ns3:cad>0</ns3:cad>
          </ns3:TrackPointExtension>
        </extensions>
      </trkpt>
      <trkpt lat="43.47869773395359516143798828125" lon="1.455694176256656646728515625">
        <ele>190.1999969482421875</ele>
        <time>2026-08-05T08:30:34.000Z</time>
        <extensions>
          <ns3:TrackPointExtension>
            <ns3:hr>80</ns3:hr>
            <ns3:cad>0</ns3:cad>
          </ns3:TrackPointExtension>
        </extensions>
      </trkpt>
      <trkpt lat="43.47870678640902042388916015625" lon="1.4556869678199291229248046875">
        <ele>190.1999969482421875</ele>
        <time>2026-08-05T08:30:35.000Z</time>
        <extensions>
          <ns3:TrackPointExtension>
            <ns3:hr>79</ns3:hr>
            <ns3:cad>0</ns3:cad>
          </ns3:TrackPointExtension>
        </extensions>
      </trkpt>
      <trkpt lat="43.47871743142604827880859375" lon="1.45567766390740871429443359375">
        <ele>190.1999969482421875</ele>
        <time>2026-08-05T08:30:36.000Z</time>
        <extensions>
          <ns3:TrackPointExtension>
            <ns3:hr>80</ns3:hr>
            <ns3:cad>53</ns3:cad>
          </ns3:TrackPointExtension>
        </extensions>
      </trkpt>
      <trkpt lat="43.47872413694858551025390625" lon="1.45567028783261775970458984375">
        <ele>190.1999969482421875</ele>
        <time>2026-08-05T08:30:37.000Z</time>
        <extensions>
          <ns3:TrackPointExtension>
            <ns3:hr>80</ns3:hr>
            <ns3:cad>53</ns3:cad>
          </ns3:TrackPointExtension>
        </extensions>
      </trkpt>
      <trkpt lat="43.47873662598431110382080078125" lon="1.45566098392009735107421875">
        <ele>190.1999969482421875</ele>
        <time>2026-08-05T08:30:38.000Z</time>
        <extensions>
          <ns3:TrackPointExtension>
            <ns3:hr>82</ns3:hr>
            <ns3:cad>52</ns3:cad>
          </ns3:TrackPointExtension>
        </extensions>
      </trkpt>
      <trkpt lat="43.4787491150200366973876953125" lon="1.45565159618854522705078125">
        <ele>190.1999969482421875</ele>
        <time>2026-08-05T08:30:39.000Z</time>
        <extensions>
          <ns3:TrackPointExtension>
            <ns3:hr>84</ns3:hr>
            <ns3:cad>52</ns3:cad>
          </ns3:TrackPointExtension>
        </extensions>
      </trkpt>
      <trkpt lat="43.47875976003706455230712890625" lon="1.455643214285373687744140625">
        <ele>190.1999969482421875</ele>
        <time>2026-08-05T08:30:40.000Z</time>
        <extensions>
          <ns3:TrackPointExtension>
            <ns3:hr>85</ns3:hr>
            <ns3:cad>52</ns3:cad>
          </ns3:TrackPointExtension>
        </extensions>
      </trkpt>
      <trkpt lat="43.47876864485442638397216796875" lon="1.45563893951475620269775390625">
        <ele>190.1999969482421875</ele>
        <time>2026-08-05T08:30:41.000Z</time>
        <extensions>
          <ns3:TrackPointExtension>
            <ns3:hr>86</ns3:hr>
            <ns3:cad>52</ns3:cad>
          </ns3:TrackPointExtension>
        </extensions>
      </trkpt>
      <trkpt lat="43.4787762723863124847412109375" lon="1.4556326530873775482177734375">
        <ele>190.1999969482421875</ele>
        <time>2026-08-05T08:30:42.000Z</time>
        <extensions>
          <ns3:TrackPointExtension>
            <ns3:hr>86</ns3:hr>
            <ns3:cad>52</ns3:cad>
          </ns3:TrackPointExtension>
        </extensions>
      </trkpt>
      <trkpt lat="43.47878339700400829315185546875" lon="1.45562888123095035552978515625">
        <ele>190.1999969482421875</ele>
        <time>2026-08-05T08:30:43.000Z</time>
        <extensions>
          <ns3:TrackPointExtension>
            <ns3:hr>86</ns3:hr>
            <ns3:cad>52</ns3:cad>
          </ns3:TrackPointExtension>
        </extensions>
      </trkpt>
      <trkpt lat="43.47879060544073581695556640625" lon="1.455623097717761993408203125">
        <ele>190.399993896484375</ele>
        <time>2026-08-05T08:30:44.000Z</time>
        <extensions>
          <ns3:TrackPointExtension>
            <ns3:hr>87</ns3:hr>
            <ns3:cad>52</ns3:cad>
          </ns3:TrackPointExtension>
        </extensions>
      </trkpt>
      <trkpt lat="43.47879714332520961761474609375" lon="1.45561647601425647735595703125">
        <ele>190.399993896484375</ele>
        <time>2026-08-05T08:30:45.000Z</time>
        <extensions>
          <ns3:TrackPointExtension>
            <ns3:hr>87</ns3:hr>
            <ns3:cad>52</ns3:cad>
          </ns3:TrackPointExtension>
        </extensions>
      </trkpt>
      <trkpt lat="43.478800915181636810302734375" lon="1.455608345568180084228515625">
        <ele>190.399993896484375</ele>
        <time>2026-08-05T08:30:46.000Z</time>
        <extensions>
          <ns3:TrackPointExtension>
            <ns3:hr>88</ns3:hr>
            <ns3:cad>52</ns3:cad>
          </ns3:TrackPointExtension>
        </extensions>
      </trkpt>
      <trkpt lat="43.478805609047412872314453125" lon="1.45560323260724544525146484375">
        <ele>190.399993896484375</ele>
        <time>2026-08-05T08:30:47.000Z</time>
        <extensions>
          <ns3:TrackPointExtension>
            <ns3:hr>88</ns3:hr>
            <ns3:cad>44</ns3:cad>
          </ns3:TrackPointExtension>
        </extensions>
      </trkpt>
      <trkpt lat="43.47880996763706207275390625" lon="1.4555981196463108062744140625">
        <ele>190.399993896484375</ele>
        <time>2026-08-05T08:30:48.000Z</time>
        <extensions>
          <ns3:TrackPointExtension>
            <ns3:hr>88</ns3:hr>
            <ns3:cad>44</ns3:cad>
          </ns3:TrackPointExtension>
        </extensions>
      </trkpt>
      <trkpt lat="43.4788175113499164581298828125" lon="1.45558931864798069000244140625">
        <ele>190.1999969482421875</ele>
        <time>2026-08-05T08:30:49.000Z</time>
        <extensions>
          <ns3:TrackPointExtension>
            <ns3:hr>89</ns3:hr>
            <ns3:cad>44</ns3:cad>
          </ns3:TrackPointExtension>
        </extensions>
      </trkpt>
      <trkpt lat="43.47882430069148540496826171875" lon="1.4555840380489826202392578125">
        <ele>190.1999969482421875</ele>
        <time>2026-08-05T08:30:50.000Z</time>
        <extensions>
          <ns3:TrackPointExtension>
            <ns3:hr>89</ns3:hr>
            <ns3:cad>0</ns3:cad>
          </ns3:TrackPointExtension>
        </extensions>
      </trkpt>
      <trkpt lat="43.47882849164307117462158203125" lon="1.4555806852877140045166015625">
        <ele>190.1999969482421875</ele>
        <time>2026-08-05T08:30:51.000Z</time>
        <extensions>
          <ns3:TrackPointExtension>
            <ns3:hr>89</ns3:hr>
            <ns3:cad>0</ns3:cad>
          </ns3:TrackPointExtension>
        </extensions>
      </trkpt>
      <trkpt lat="43.47883653827011585235595703125" lon="1.45556651987135410308837890625">
        <ele>190.1999969482421875</ele>
        <time>2026-08-05T08:30:52.000Z</time>
        <extensions>
          <ns3:TrackPointExtension>
            <ns3:hr>89</ns3:hr>
            <ns3:cad>41</ns3:cad>
          </ns3:TrackPointExtension>
        </extensions>
      </trkpt>
      <trkpt lat="43.478841148316860198974609375" lon="1.455555371940135955810546875">
        <ele>190.1999969482421875</ele>
        <time>2026-08-05T08:30:53.000Z</time>
        <extensions>
          <ns3:TrackPointExtension>
            <ns3:hr>88</ns3:hr>
            <ns3:cad>41</ns3:cad>
          </ns3:TrackPointExtension>
        </extensions>
      </trkpt>
      <trkpt lat="43.47884357906877994537353515625" lon="1.45554958842694759368896484375">
        <ele>190.399993896484375</ele>
        <time>2026-08-05T08:30:54.000Z</time>
        <extensions>
          <ns3:TrackPointExtension>
            <ns3:hr>88</ns3:hr>
            <ns3:cad>41</ns3:cad>
          </ns3:TrackPointExtension>
        </extensions>
      </trkpt>
      <trkpt lat="43.4788530506193637847900390625" lon="1.45553869195282459259033203125">
        <ele>190.399993896484375</ele>
        <time>2026-08-05T08:30:55.000Z</time>
        <extensions>
          <ns3:TrackPointExtension>
            <ns3:hr>87</ns3:hr>
            <ns3:cad>41</ns3:cad>
          </ns3:TrackPointExtension>
        </extensions>
      </trkpt>
      <trkpt lat="43.47886134870350360870361328125" lon="1.4555315673351287841796875">
        <ele>190.399993896484375</ele>
        <time>2026-08-05T08:30:56.000Z</time>
        <extensions>
          <ns3:TrackPointExtension>
            <ns3:hr>87</ns3:hr>
            <ns3:cad>41</ns3:cad>
          </ns3:TrackPointExtension>
        </extensions>
      </trkpt>
      <trkpt lat="43.478867299854755401611328125" lon="1.4555275440216064453125">
        <ele>190.399993896484375</ele>
        <time>2026-08-05T08:30:57.000Z</time>
        <extensions>
          <ns3:TrackPointExtension>
            <ns3:hr>87</ns3:hr>
            <ns3:cad>40</ns3:cad>
          </ns3:TrackPointExtension>
        </extensions>
      </trkpt>
      <trkpt lat="43.47887299954891204833984375" lon="1.45552125759422779083251953125">
        <ele>190.399993896484375</ele>
        <time>2026-08-05T08:30:58.000Z</time>
        <extensions>
          <ns3:TrackPointExtension>
            <ns3:hr>87</ns3:hr>
            <ns3:cad>40</ns3:cad>
          </ns3:TrackPointExtension>
        </extensions>
      </trkpt>
      <trkpt lat="43.478884063661098480224609375" lon="1.45550541579723358154296875">
        <ele>190.399993896484375</ele>
        <time>2026-08-05T08:30:59.000Z</time>
        <extensions>
          <ns3:TrackPointExtension>
            <ns3:hr>87</ns3:hr>
            <ns3:cad>40</ns3:cad>
          </ns3:TrackPointExtension>
        </extensions>
      </trkpt>
      <trkpt lat="43.47889705561101436614990234375" lon="1.45550013519823551177978515625">
        <ele>190.399993896484375</ele>
        <time>2026-08-05T08:31:00.000Z</time>
        <extensions>
          <ns3:TrackPointExtension>
            <ns3:hr>87</ns3:hr>
            <ns3:cad>41</ns3:cad>
          </ns3:TrackPointExtension>
        </extensions>
      </trkpt>
      <trkpt lat="43.47890208475291728973388671875" lon="1.45549108274281024932861328125">
        <ele>190.399993896484375</ele>
        <time>2026-08-05T08:31:01.000Z</time>
        <extensions>
          <ns3:TrackPointExtension>
            <ns3:hr>87</ns3:hr>
            <ns3:cad>41</ns3:cad>
          </ns3:TrackPointExtension>
        </extensions>
      </trkpt>
      <trkpt lat="43.4789191000163555145263671875" lon="1.4554787613451480865478515625">
        <ele>190.600006103515625</ele>
        <time>2026-08-05T08:31:02.000Z</time>
        <extensions>
          <ns3:TrackPointExtension>
            <ns3:hr>89</ns3:hr>
            <ns3:cad>43</ns3:cad>
          </ns3:TrackPointExtension>
        </extensions>
      </trkpt>
      <trkpt lat="43.47892605699598789215087890625" lon="1.4554730616509914398193359375">
        <ele>190.600006103515625</ele>
        <time>2026-08-05T08:31:03.000Z</time>
        <extensions>
          <ns3:TrackPointExtension>
            <ns3:hr>90</ns3:hr>
            <ns3:cad>43</ns3:cad>
          </ns3:TrackPointExtension>
        </extensions>
      </trkpt>
      <trkpt lat="43.4789325110614299774169921875" lon="1.45546711049973964691162109375">
        <ele>190.600006103515625</ele>
        <time>2026-08-05T08:31:04.000Z</time>
        <extensions>
          <ns3:TrackPointExtension>
            <ns3:hr>90</ns3:hr>
            <ns3:cad>44</ns3:cad>
          </ns3:TrackPointExtension>
        </extensions>
      </trkpt>
      <trkpt lat="43.478935696184635162353515625" lon="1.45545906387269496917724609375">
        <ele>190.600006103515625</ele>
        <time>2026-08-05T08:31:05.000Z</time>
        <extensions>
          <ns3:TrackPointExtension>
            <ns3:hr>90</ns3:hr>
            <ns3:cad>44</ns3:cad>
          </ns3:TrackPointExtension>
        </extensions>
      </trkpt>
      <trkpt lat="43.47893997095525264739990234375" lon="1.4554519392549991607666015625">
        <ele>190.600006103515625</ele>
        <time>2026-08-05T08:31:06.000Z</time>
        <extensions>
          <ns3:TrackPointExtension>
            <ns3:hr>89</ns3:hr>
            <ns3:cad>44</ns3:cad>
          </ns3:TrackPointExtension>
        </extensions>
      </trkpt>
      <trkpt lat="43.47894550301134586334228515625" lon="1.45544414408504962921142578125">
        <ele>190.600006103515625</ele>
        <time>2026-08-05T08:31:07.000Z</time>
        <extensions>
          <ns3:TrackPointExtension>
            <ns3:hr>89</ns3:hr>
            <ns3:cad>42</ns3:cad>
          </ns3:TrackPointExtension>
        </extensions>
      </trkpt>
      <trkpt lat="43.4789509512484073638916015625" lon="1.45543425343930721282958984375">
        <ele>190.600006103515625</ele>
        <time>2026-08-05T08:31:08.000Z</time>
        <extensions>
          <ns3:TrackPointExtension>
            <ns3:hr>88</ns3:hr>
            <ns3:cad>43</ns3:cad>
          </ns3:TrackPointExtension>
        </extensions>
      </trkpt>
      <trkpt lat="43.47895824350416660308837890625" lon="1.4554271288216114044189453125">
        <ele>190.600006103515625</ele>
        <time>2026-08-05T08:31:09.000Z</time>
        <extensions>
          <ns3:TrackPointExtension>
            <ns3:hr>88</ns3:hr>
            <ns3:cad>43</ns3:cad>
          </ns3:TrackPointExtension>
        </extensions>
      </trkpt>
      <trkpt lat="43.47896344028413295745849609375" lon="1.45541916601359844207763671875">
        <ele>190.600006103515625</ele>
        <time>2026-08-05T08:31:10.000Z</time>
        <extensions>
          <ns3:TrackPointExtension>
            <ns3:hr>88</ns3:hr>
            <ns3:cad>43</ns3:cad>
          </ns3:TrackPointExtension>
        </extensions>
      </trkpt>
      <trkpt lat="43.47896821796894073486328125" lon="1.45541162230074405670166015625">
        <ele>190.600006103515625</ele>
        <time>2026-08-05T08:31:11.000Z</time>
        <extensions>
          <ns3:TrackPointExtension>
            <ns3:hr>88</ns3:hr>
            <ns3:cad>43</ns3:cad>
          </ns3:TrackPointExtension>
        </extensions>
      </trkpt>
      <trkpt lat="43.4789804555475711822509765625" lon="1.4554080180823802947998046875">
        <ele>190.600006103515625</ele>
        <time>2026-08-05T08:31:12.000Z</time>
        <extensions>
          <ns3:TrackPointExtension>
            <ns3:hr>88</ns3:hr>
            <ns3:cad>43</ns3:cad>
          </ns3:TrackPointExtension>
        </extensions>
      </trkpt>
      <trkpt lat="43.47899277694523334503173828125" lon="1.45539619959890842437744140625">
        <ele>190.8000030517578125</ele>
        <time>2026-08-05T08:31:13.000Z</time>
        <extensions>
          <ns3:TrackPointExtension>
            <ns3:hr>87</ns3:hr>
            <ns3:cad>42</ns3:cad>
          </ns3:TrackPointExtension>
        </extensions>
      </trkpt>
      <trkpt lat="43.4789975546300411224365234375" lon="1.455389074981212615966796875">
        <ele>190.8000030517578125</ele>
        <time>2026-08-05T08:31:14.000Z</time>
        <extensions>
          <ns3:TrackPointExtension>
            <ns3:hr>88</ns3:hr>
            <ns3:cad>41</ns3:cad>
          </ns3:TrackPointExtension>
        </extensions>
      </trkpt>
      <trkpt lat="43.47900317050516605377197265625" lon="1.45538806915283203125">
        <ele>190.8000030517578125</ele>
        <time>2026-08-05T08:31:15.000Z</time>
        <extensions>
          <ns3:TrackPointExtension>
            <ns3:hr>88</ns3:hr>
            <ns3:cad>41</ns3:cad>
          </ns3:TrackPointExtension>
        </extensions>
      </trkpt>
      <trkpt lat="43.4790146537125110626220703125" lon="1.45538044162094593048095703125">
        <ele>190.8000030517578125</ele>
        <time>2026-08-05T08:31:16.000Z</time>
        <extensions>
          <ns3:TrackPointExtension>
            <ns3:hr>88</ns3:hr>
            <ns3:cad>41</ns3:cad>
          </ns3:TrackPointExtension>
        </extensions>
      </trkpt>
      <trkpt lat="43.47902320325374603271484375" lon="1.45537130534648895263671875">
        <ele>190.8000030517578125</ele>
        <time>2026-08-05T08:31:17.000Z</time>
        <extensions>
          <ns3:TrackPointExtension>
            <ns3:hr>88</ns3:hr>
            <ns3:cad>41</ns3:cad>
          </ns3:TrackPointExtension>
        </extensions>
      </trkpt>
      <trkpt lat="43.47903124988079071044921875" lon="1.45536283962428569793701171875">
        <ele>190.8000030517578125</ele>
        <time>2026-08-05T08:31:18.000Z</time>
        <extensions>
          <ns3:TrackPointExtension>
            <ns3:hr>88</ns3:hr>
            <ns3:cad>42</ns3:cad>
          </ns3:TrackPointExtension>
        </extensions>
      </trkpt>
      <trkpt lat="43.4790354408323764801025390625" lon="1.4553594030439853668212890625">
        <ele>190.8000030517578125</ele>
        <time>2026-08-05T08:31:19.000Z</time>
        <extensions>
          <ns3:TrackPointExtension>
            <ns3:hr>89</ns3:hr>
            <ns3:cad>42</ns3:cad>
          </ns3:TrackPointExtension>
        </extensions>
      </trkpt>
      <trkpt lat="43.47904508002102375030517578125" lon="1.455350853502750396728515625">
        <ele>190.8000030517578125</ele>
        <time>2026-08-05T08:31:20.000Z</time>
        <extensions>
          <ns3:TrackPointExtension>
            <ns3:hr>89</ns3:hr>
            <ns3:cad>43</ns3:cad>
          </ns3:TrackPointExtension>
        </extensions>
      </trkpt>
      <trkpt lat="43.47905027680099010467529296875" lon="1.4553433097898960113525390625">
        <ele>190.8000030517578125</ele>
        <time>2026-08-05T08:31:21.000Z</time>
        <extensions>
          <ns3:TrackPointExtension>
            <ns3:hr>89</ns3:hr>
            <ns3:cad>43</ns3:cad>
          </ns3:TrackPointExtension>
        </extensions>
      </trkpt>
      <trkpt lat="43.47905538976192474365234375" lon="1.455342471599578857421875">
        <ele>190.8000030517578125</ele>
        <time>2026-08-05T08:31:22.000Z</time>
        <extensions>
          <ns3:TrackPointExtension>
            <ns3:hr>88</ns3:hr>
            <ns3:cad>44</ns3:cad>
          </ns3:TrackPointExtension>
        </extensions>
      </trkpt>
      <trkpt lat="43.479065112769603729248046875" lon="1.455336101353168487548828125">
        <ele>190.8000030517578125</ele>
        <time>2026-08-05T08:31:23.000Z</time>
        <extensions>
          <ns3:TrackPointExtension>
            <ns3:hr>89</ns3:hr>
            <ns3:cad>44</ns3:cad>
          </ns3:TrackPointExtension>
        </extensions>
      </trkpt>
      <trkpt lat="43.47907290793955326080322265625" lon="1.455330066382884979248046875">
        <ele>190.8000030517578125</ele>
        <time>2026-08-05T08:31:24.000Z</time>
        <extensions>
          <ns3:TrackPointExtension>
            <ns3:hr>89</ns3:hr>
            <ns3:cad>44</ns3:cad>
          </ns3:TrackPointExtension>
        </extensions>
      </trkpt>
      <trkpt lat="43.4790796972811222076416015625" lon="1.45532210357487201690673828125">
        <ele>190.8000030517578125</ele>
        <time>2026-08-05T08:31:25.000Z</time>
        <extensions>
          <ns3:TrackPointExtension>
            <ns3:hr>89</ns3:hr>
            <ns3:cad>44</ns3:cad>
          </ns3:TrackPointExtension>
        </extensions>
      </trkpt>
      <trkpt lat="43.479084558784961700439453125" lon="1.455319337546825408935546875">
        <ele>190.8000030517578125</ele>
        <time>2026-08-05T08:31:26.000Z</time>
        <extensions>
          <ns3:TrackPointExtension>
            <ns3:hr>89</ns3:hr>
            <ns3:cad>43</ns3:cad>
          </ns3:TrackPointExtension>
        </extensions>
      </trkpt>
      <trkpt lat="43.4790927730500698089599609375" lon="1.45530902780592441558837890625">
        <ele>190.8000030517578125</ele>
        <time>2026-08-05T08:31:27.000Z</time>
        <extensions>
          <ns3:TrackPointExtension>
            <ns3:hr>88</ns3:hr>
            <ns3:cad>43</ns3:cad>
          </ns3:TrackPointExtension>
        </extensions>
      </trkpt>
      <trkpt lat="43.47909964621067047119140625" lon="1.45529846660792827606201171875">
        <ele>191</ele>
        <time>2026-08-05T08:31:28.000Z</time>
        <extensions>
          <ns3:TrackPointExtension>
            <ns3:hr>87</ns3:hr>
            <ns3:cad>43</ns3:cad>
          </ns3:TrackPointExtension>
        </extensions>
      </trkpt>
      <trkpt lat="43.47910375334322452545166015625" lon="1.455291174352169036865234375">
        <ele>190.8000030517578125</ele>
        <time>2026-08-05T08:31:29.000Z</time>
        <extensions>
          <ns3:TrackPointExtension>
            <ns3:hr>87</ns3:hr>
            <ns3:cad>43</ns3:cad>
          </ns3:TrackPointExtension>
        </extensions>
      </trkpt>
      <trkpt lat="43.479110710322856903076171875" lon="1.455283798277378082275390625">
        <ele>190.8000030517578125</ele>
        <time>2026-08-05T08:31:30.000Z</time>
        <extensions>
          <ns3:TrackPointExtension>
            <ns3:hr>87</ns3:hr>
            <ns3:cad>43</ns3:cad>
          </ns3:TrackPointExtension>
        </extensions>
      </trkpt>
      <trkpt lat="43.479116074740886688232421875" lon="1.4552769251167774200439453125">
        <ele>190.8000030517578125</ele>
        <time>2026-08-05T08:31:31.000Z</time>
        <extensions>
          <ns3:TrackPointExtension>
            <ns3:hr>87</ns3:hr>
            <ns3:cad>0</ns3:cad>
          </ns3:TrackPointExtension>
        </extensions>
      </trkpt>
      <trkpt lat="43.4791169129312038421630859375" lon="1.45526980049908161163330078125">
        <ele>190.8000030517578125</ele>
        <time>2026-08-05T08:31:32.000Z</time>
        <extensions>
          <ns3:TrackPointExtension>
            <ns3:hr>87</ns3:hr>
            <ns3:cad>0</ns3:cad>
          </ns3:TrackPointExtension>
        </extensions>
      </trkpt>
      <trkpt lat="43.479122780263423919677734375" lon="1.4552588202059268951416015625">
        <ele>190.8000030517578125</ele>
        <time>2026-08-05T08:31:33.000Z</time>
        <extensions>
          <ns3:TrackPointExtension>
            <ns3:hr>86</ns3:hr>
            <ns3:cad>0</ns3:cad>
          </ns3:TrackPointExtension>
        </extensions>
      </trkpt>
      <trkpt lat="43.479126133024692535400390625" lon="1.45525018684566020965576171875">
        <ele>190.8000030517578125</ele>
        <time>2026-08-05T08:31:34.000Z</time>
        <extensions>
          <ns3:TrackPointExtension>
            <ns3:hr>87</ns3:hr>
            <ns3:cad>0</ns3:cad>
          </ns3:TrackPointExtension>
        </extensions>
      </trkpt>
      <trkpt lat="43.4791351854801177978515625" lon="1.455242224037647247314453125">
        <ele>190.8000030517578125</ele>
        <time>2026-08-05T08:31:35.000Z</time>
        <extensions>
          <ns3:TrackPointExtension>
            <ns3:hr>87</ns3:hr>
            <ns3:cad>49</ns3:cad>
          </ns3:TrackPointExtension>
        </extensions>
      </trkpt>
      <trkpt lat="43.47914532758295536041259765625" lon="1.45523861981928348541259765625">
        <ele>190.600006103515625</ele>
        <time>2026-08-05T08:31:36.000Z</time>
        <extensions>
          <ns3:TrackPointExtension>
            <ns3:hr>86</ns3:hr>
            <ns3:cad>49</ns3:cad>
          </ns3:TrackPointExtension>
        </extensions>
      </trkpt>
      <trkpt lat="43.4791553020477294921875" lon="1.4552340097725391387939453125">
        <ele>190.600006103515625</ele>
        <time>2026-08-05T08:31:37.000Z</time>
        <extensions>
          <ns3:TrackPointExtension>
            <ns3:hr>86</ns3:hr>
            <ns3:cad>48</ns3:cad>
          </ns3:TrackPointExtension>
        </extensions>
      </trkpt>
      <trkpt lat="43.47916460596024990081787109375" lon="1.45523191429674625396728515625">
        <ele>190.600006103515625</ele>
        <time>2026-08-05T08:31:38.000Z</time>
        <extensions>
          <ns3:TrackPointExtension>
            <ns3:hr>86</ns3:hr>
            <ns3:cad>46</ns3:cad>
          </ns3:TrackPointExtension>
        </extensions>
      </trkpt>
      <trkpt lat="43.47917382605373859405517578125" lon="1.45522939972579479217529296875">
        <ele>190.399993896484375</ele>
        <time>2026-08-05T08:31:39.000Z</time>
        <extensions>
          <ns3:TrackPointExtension>
            <ns3:hr>86</ns3:hr>
            <ns3:cad>46</ns3:cad>
          </ns3:TrackPointExtension>
        </extensions>
      </trkpt>
      <trkpt lat="43.47918556071817874908447265625" lon="1.4552266336977481842041015625">
        <ele>190.399993896484375</ele>
        <time>2026-08-05T08:31:40.000Z</time>
        <extensions>
          <ns3:TrackPointExtension>
            <ns3:hr>86</ns3:hr>
            <ns3:cad>46</ns3:cad>
          </ns3:TrackPointExtension>
        </extensions>
      </trkpt>
      <trkpt lat="43.47919394262135028839111328125" lon="1.455224789679050445556640625">
        <ele>190.399993896484375</ele>
        <time>2026-08-05T08:31:41.000Z</time>
        <extensions>
          <ns3:TrackPointExtension>
            <ns3:hr>85</ns3:hr>
            <ns3:cad>46</ns3:cad>
          </ns3:TrackPointExtension>
        </extensions>
      </trkpt>
      <trkpt lat="43.4791997261345386505126953125" lon="1.4552242867648601531982421875">
        <ele>190.399993896484375</ele>
        <time>2026-08-05T08:31:42.000Z</time>
        <extensions>
          <ns3:TrackPointExtension>
            <ns3:hr>85</ns3:hr>
            <ns3:cad>46</ns3:cad>
          </ns3:TrackPointExtension>
        </extensions>
      </trkpt>
      <trkpt lat="43.47920450381934642791748046875" lon="1.45521967671811580657958984375">
        <ele>190.399993896484375</ele>
        <time>2026-08-05T08:31:43.000Z</time>
        <extensions>
          <ns3:TrackPointExtension>
            <ns3:hr>84</ns3:hr>
            <ns3:cad>46</ns3:cad>
          </ns3:TrackPointExtension>
        </extensions>
      </trkpt>
      <trkpt lat="43.4792081080377101898193359375" lon="1.4552169106900691986083984375">
        <ele>190.399993896484375</ele>
        <time>2026-08-05T08:31:44.000Z</time>
        <extensions>
          <ns3:TrackPointExtension>
            <ns3:hr>83</ns3:hr>
            <ns3:cad>0</ns3:cad>
          </ns3:TrackPointExtension>
        </extensions>
      </trkpt>
      <trkpt lat="43.47920970059931278228759765625" lon="1.4552128873765468597412109375">
        <ele>190.399993896484375</ele>
        <time>2026-08-05T08:31:45.000Z</time>
        <extensions>
          <ns3:TrackPointExtension>
            <ns3:hr>83</ns3:hr>
            <ns3:cad>0</ns3:cad>
          </ns3:TrackPointExtension>
        </extensions>
      </trkpt>
      <trkpt lat="43.47920785658061504364013671875" lon="1.45521146245300769805908203125">
        <ele>190.600006103515625</ele>
        <time>2026-08-05T08:31:46.000Z</time>
        <extensions>
          <ns3:TrackPointExtension>
            <ns3:hr>83</ns3:hr>
            <ns3:cad>0</ns3:cad>
          </ns3:TrackPointExtension>
        </extensions>
      </trkpt>
      <trkpt lat="43.47920634783804416656494140625" lon="1.45521028898656368255615234375">
        <ele>190.600006103515625</ele>
        <time>2026-08-05T08:31:47.000Z</time>
        <extensions>
          <ns3:TrackPointExtension>
            <ns3:hr>83</ns3:hr>
            <ns3:cad>0</ns3:cad>
          </ns3:TrackPointExtension>
        </extensions>
      </trkpt>
      <trkpt lat="43.47920534200966358184814453125" lon="1.45521246828138828277587890625">
        <ele>190.600006103515625</ele>
        <time>2026-08-05T08:31:48.000Z</time>
        <extensions>
          <ns3:TrackPointExtension>
            <ns3:hr>83</ns3:hr>
            <ns3:cad>0</ns3:cad>
          </ns3:TrackPointExtension>
        </extensions>
      </trkpt>
      <trkpt lat="43.47920483909547328948974609375" lon="1.45521565340459346771240234375">
        <ele>190.600006103515625</ele>
        <time>2026-08-05T08:31:49.000Z</time>
        <extensions>
          <ns3:TrackPointExtension>
            <ns3:hr>82</ns3:hr>
            <ns3:cad>0</ns3:cad>
          </ns3:TrackPointExtension>
        </extensions>
      </trkpt>
      <trkpt lat="43.4792049229145050048828125" lon="1.4552155695855617523193359375">
        <ele>190.600006103515625</ele>
        <time>2026-08-05T08:31:50.000Z</time>
        <extensions>
          <ns3:TrackPointExtension>
            <ns3:hr>82</ns3:hr>
            <ns3:cad>0</ns3:cad>
          </ns3:TrackPointExtension>
        </extensions>
      </trkpt>
      <trkpt lat="43.47921104170382022857666015625" lon="1.4552159048616886138916015625">
        <ele>190.600006103515625</ele>
        <time>2026-08-05T08:31:51.000Z</time>
        <extensions>
          <ns3:TrackPointExtension>
            <ns3:hr>82</ns3:hr>
            <ns3:cad>0</ns3:cad>
          </ns3:TrackPointExtension>
        </extensions>
      </trkpt>
      <trkpt lat="43.47921020351350307464599609375" lon="1.45521330647170543670654296875">
        <ele>190.399993896484375</ele>
        <time>2026-08-05T08:31:52.000Z</time>
        <extensions>
          <ns3:TrackPointExtension>
            <ns3:hr>81</ns3:hr>
            <ns3:cad>0</ns3:cad>
          </ns3:TrackPointExtension>
        </extensions>
      </trkpt>
      <trkpt lat="43.47920869477093219757080078125" lon="1.4552071876823902130126953125">
        <ele>190.399993896484375</ele>
        <time>2026-08-05T08:31:53.000Z</time>
        <extensions>
          <ns3:TrackPointExtension>
            <ns3:hr>81</ns3:hr>
            <ns3:cad>0</ns3:cad>
          </ns3:TrackPointExtension>
        </extensions>
      </trkpt>
      <trkpt lat="43.47921221517026424407958984375" lon="1.45520576275885105133056640625">
        <ele>190.399993896484375</ele>
        <time>2026-08-05T08:31:54.000Z</time>
        <extensions>
          <ns3:TrackPointExtension>
            <ns3:hr>81</ns3:hr>
            <ns3:cad>0</ns3:cad>
          </ns3:TrackPointExtension>
        </extensions>
      </trkpt>
      <trkpt lat="43.4792134724557399749755859375" lon="1.4552041701972484588623046875">
        <ele>190.399993896484375</ele>
        <time>2026-08-05T08:31:55.000Z</time>
        <extensions>
          <ns3:TrackPointExtension>
            <ns3:hr>81</ns3:hr>
            <ns3:cad>0</ns3:cad>
          </ns3:TrackPointExtension>
        </extensions>
      </trkpt>
      <trkpt lat="43.47921364009380340576171875" lon="1.45520391874015331268310546875">
        <ele>190.399993896484375</ele>
        <time>2026-08-05T08:31:56.000Z</time>
        <extensions>
          <ns3:TrackPointExtension>
            <ns3:hr>81</ns3:hr>
            <ns3:cad>0</ns3:cad>
          </ns3:TrackPointExtension>
        </extensions>
      </trkpt>
      <trkpt lat="43.47921364009380340576171875" lon="1.45520391874015331268310546875">
        <ele>190.399993896484375</ele>
        <time>2026-08-05T08:31:57.000Z</time>
        <extensions>
          <ns3:TrackPointExtension>
            <ns3:hr>82</ns3:hr>
            <ns3:cad>0</ns3:cad>
          </ns3:TrackPointExtension>
        </extensions>
      </trkpt>
      <trkpt lat="43.47921364009380340576171875" lon="1.45520391874015331268310546875">
        <ele>190.600006103515625</ele>
        <time>2026-08-05T08:31:58.000Z</time>
        <extensions>
          <ns3:TrackPointExtension>
            <ns3:hr>82</ns3:hr>
            <ns3:cad>0</ns3:cad>
          </ns3:TrackPointExtension>
        </extensions>
      </trkpt>
      <trkpt lat="43.47921389155089855194091796875" lon="1.4552031643688678741455078125">
        <ele>190.600006103515625</ele>
        <time>2026-08-05T08:31:59.000Z</time>
        <extensions>
          <ns3:TrackPointExtension>
            <ns3:hr>82</ns3:hr>
            <ns3:cad>0</ns3:cad>
          </ns3:TrackPointExtension>
        </extensions>
      </trkpt>
      <trkpt lat="43.47921900451183319091796875" lon="1.45519168116152286529541015625">
        <ele>190.600006103515625</ele>
        <time>2026-08-05T08:32:00.000Z</time>
        <extensions>
          <ns3:TrackPointExtension>
            <ns3:hr>83</ns3:hr>
            <ns3:cad>0</ns3:cad>
          </ns3:TrackPointExtension>
        </extensions>
      </trkpt>
      <trkpt lat="43.47922034561634063720703125" lon="1.4551867358386516571044921875">
        <ele>190.600006103515625</ele>
        <time>2026-08-05T08:32:01.000Z</time>
        <extensions>
          <ns3:TrackPointExtension>
            <ns3:hr>83</ns3:hr>
            <ns3:cad>0</ns3:cad>
          </ns3:TrackPointExtension>
        </extensions>
      </trkpt>
      <trkpt lat="43.47922747023403644561767578125" lon="1.45518547855317592620849609375">
        <ele>190.600006103515625</ele>
        <time>2026-08-05T08:32:02.000Z</time>
        <extensions>
          <ns3:TrackPointExtension>
            <ns3:hr>83</ns3:hr>
            <ns3:cad>0</ns3:cad>
          </ns3:TrackPointExtension>
        </extensions>
      </trkpt>
      <trkpt lat="43.479229398071765899658203125" lon="1.45518782548606395721435546875">
        <ele>190.600006103515625</ele>
        <time>2026-08-05T08:32:03.000Z</time>
        <extensions>
          <ns3:TrackPointExtension>
            <ns3:hr>82</ns3:hr>
            <ns3:cad>0</ns3:cad>
          </ns3:TrackPointExtension>
        </extensions>
      </trkpt>
      <trkpt lat="43.47922814078629016876220703125" lon="1.455182544887065887451171875">
        <ele>190.600006103515625</ele>
        <time>2026-08-05T08:32:04.000Z</time>
        <extensions>
          <ns3:TrackPointExtension>
            <ns3:hr>82</ns3:hr>
            <ns3:cad>0</ns3:cad>
          </ns3:TrackPointExtension>
        </extensions>
      </trkpt>
      <trkpt lat="43.47922646440565586090087890625" lon="1.4551810361444950103759765625">
        <ele>190.600006103515625</ele>
        <time>2026-08-05T08:32:05.000Z</time>
        <extensions>
          <ns3:TrackPointExtension>
            <ns3:hr>82</ns3:hr>
            <ns3:cad>0</ns3:cad>
          </ns3:TrackPointExtension>
        </extensions>
      </trkpt>
      <trkpt lat="43.47922948189079761505126953125" lon="1.45517927594482898712158203125">
        <ele>190.600006103515625</ele>
        <time>2026-08-05T08:32:06.000Z</time>
        <extensions>
          <ns3:TrackPointExtension>
            <ns3:hr>81</ns3:hr>
            <ns3:cad>0</ns3:cad>
          </ns3:TrackPointExtension>
        </extensions>
      </trkpt>
      <trkpt lat="43.479229398071765899658203125" lon="1.455179192125797271728515625">
        <ele>190.600006103515625</ele>
        <time>2026-08-05T08:32:07.000Z</time>
        <extensions>
          <ns3:TrackPointExtension>
            <ns3:hr>81</ns3:hr>
            <ns3:cad>0</ns3:cad>
          </ns3:TrackPointExtension>
        </extensions>
      </trkpt>
      <trkpt lat="43.479229398071765899658203125" lon="1.455179192125797271728515625">
        <ele>190.600006103515625</ele>
        <time>2026-08-05T08:32:08.000Z</time>
        <extensions>
          <ns3:TrackPointExtension>
            <ns3:hr>81</ns3:hr>
            <ns3:cad>0</ns3:cad>
          </ns3:TrackPointExtension>
        </extensions>
      </trkpt>
      <trkpt lat="43.479229398071765899658203125" lon="1.455179192125797271728515625">
        <ele>190.600006103515625</ele>
        <time>2026-08-05T08:32:09.000Z</time>
        <extensions>
          <ns3:TrackPointExtension>
            <ns3:hr>81</ns3:hr>
            <ns3:cad>0</ns3:cad>
          </ns3:TrackPointExtension>
        </extensions>
      </trkpt>
      <trkpt lat="43.47922981716692447662353515625" lon="1.455179192125797271728515625">
        <ele>190.600006103515625</ele>
        <time>2026-08-05T08:32:10.000Z</time>
        <extensions>
          <ns3:TrackPointExtension>
            <ns3:hr>81</ns3:hr>
            <ns3:cad>0</ns3:cad>
          </ns3:TrackPointExtension>
        </extensions>
      </trkpt>
      <trkpt lat="43.479231409728527069091796875" lon="1.455181874334812164306640625">
        <ele>190.600006103515625</ele>
        <time>2026-08-05T08:32:11.000Z</time>
        <extensions>
          <ns3:TrackPointExtension>
            <ns3:hr>81</ns3:hr>
            <ns3:cad>0</ns3:cad>
          </ns3:TrackPointExtension>
        </extensions>
      </trkpt>
      <trkpt lat="43.47923400811851024627685546875" lon="1.4551748335361480712890625">
        <ele>190.8000030517578125</ele>
        <time>2026-08-05T08:32:12.000Z</time>
        <extensions>
          <ns3:TrackPointExtension>
            <ns3:hr>81</ns3:hr>
            <ns3:cad>0</ns3:cad>
          </ns3:TrackPointExtension>
        </extensions>
      </trkpt>
      <trkpt lat="43.47923886962234973907470703125" lon="1.45516611635684967041015625">
        <ele>190.8000030517578125</ele>
        <time>2026-08-05T08:32:13.000Z</time>
        <extensions>
          <ns3:TrackPointExtension>
            <ns3:hr>81</ns3:hr>
            <ns3:cad>0</ns3:cad>
          </ns3:TrackPointExtension>
        </extensions>
      </trkpt>
      <trkpt lat="43.4792433120310306549072265625" lon="1.4551518671214580535888671875">
        <ele>190.8000030517578125</ele>
        <time>2026-08-05T08:32:14.000Z</time>
        <extensions>
          <ns3:TrackPointExtension>
            <ns3:hr>81</ns3:hr>
            <ns3:cad>0</ns3:cad>
          </ns3:TrackPointExtension>
        </extensions>
      </trkpt>
      <trkpt lat="43.47924850881099700927734375" lon="1.4551401324570178985595703125">
        <ele>190.8000030517578125</ele>
        <time>2026-08-05T08:32:15.000Z</time>
        <extensions>
          <ns3:TrackPointExtension>
            <ns3:hr>81</ns3:hr>
            <ns3:cad>0</ns3:cad>
          </ns3:TrackPointExtension>
        </extensions>
      </trkpt>
      <trkpt lat="43.47925161011517047882080078125" lon="1.45512663759291172027587890625">
        <ele>190.8000030517578125</ele>
        <time>2026-08-05T08:32:16.000Z</time>
        <extensions>
          <ns3:TrackPointExtension>
            <ns3:hr>81</ns3:hr>
            <ns3:cad>41</ns3:cad>
          </ns3:TrackPointExtension>
        </extensions>
      </trkpt>
      <trkpt lat="43.47925764508545398712158203125" lon="1.4551190100610256195068359375">
        <ele>190.8000030517578125</ele>
        <time>2026-08-05T08:32:17.000Z</time>
        <extensions>
          <ns3:TrackPointExtension>
            <ns3:hr>81</ns3:hr>
            <ns3:cad>41</ns3:cad>
          </ns3:TrackPointExtension>
        </extensions>
      </trkpt>
      <trkpt lat="43.479262925684452056884765625" lon="1.45511305890977382659912109375">
        <ele>190.8000030517578125</ele>
        <time>2026-08-05T08:32:18.000Z</time>
        <extensions>
          <ns3:TrackPointExtension>
            <ns3:hr>81</ns3:hr>
            <ns3:cad>41</ns3:cad>
          </ns3:TrackPointExtension>
        </extensions>
      </trkpt>
      <trkpt lat="43.4792692959308624267578125" lon="1.45510534755885601043701171875">
        <ele>190.8000030517578125</ele>
        <time>2026-08-05T08:32:19.000Z</time>
        <extensions>
          <ns3:TrackPointExtension>
            <ns3:hr>81</ns3:hr>
            <ns3:cad>41</ns3:cad>
          </ns3:TrackPointExtension>
        </extensions>
      </trkpt>
      <trkpt lat="43.479279689490795135498046875" lon="1.45510115660727024078369140625">
        <ele>191</ele>
        <time>2026-08-05T08:32:20.000Z</time>
        <extensions>
          <ns3:TrackPointExtension>
            <ns3:hr>80</ns3:hr>
            <ns3:cad>42</ns3:cad>
          </ns3:TrackPointExtension>
        </extensions>
      </trkpt>
      <trkpt lat="43.47929502837359905242919921875" lon="1.45509235560894012451171875">
        <ele>191</ele>
        <time>2026-08-05T08:32:21.000Z</time>
        <extensions>
          <ns3:TrackPointExtension>
            <ns3:hr>80</ns3:hr>
            <ns3:cad>42</ns3:cad>
          </ns3:TrackPointExtension>
        </extensions>
      </trkpt>
      <trkpt lat="43.47930558957159519195556640625" lon="1.4550868235528469085693359375">
        <ele>191.1999969482421875</ele>
        <time>2026-08-05T08:32:22.000Z</time>
        <extensions>
          <ns3:TrackPointExtension>
            <ns3:hr>80</ns3:hr>
            <ns3:cad>42</ns3:cad>
          </ns3:TrackPointExtension>
        </extensions>
      </trkpt>
      <trkpt lat="43.47931581549346446990966796875" lon="1.4550854824483394622802734375">
        <ele>191.1999969482421875</ele>
        <time>2026-08-05T08:32:23.000Z</time>
        <extensions>
          <ns3:TrackPointExtension>
            <ns3:hr>80</ns3:hr>
            <ns3:cad>43</ns3:cad>
          </ns3:TrackPointExtension>
        </extensions>
      </trkpt>
      <trkpt lat="43.47932470031082630157470703125" lon="1.4550781063735485076904296875">
        <ele>191.1999969482421875</ele>
        <time>2026-08-05T08:32:24.000Z</time>
        <extensions>
          <ns3:TrackPointExtension>
            <ns3:hr>80</ns3:hr>
            <ns3:cad>43</ns3:cad>
          </ns3:TrackPointExtension>
        </extensions>
      </trkpt>
      <trkpt lat="43.47933744080364704132080078125" lon="1.45507064647972583770751953125">
        <ele>191.1999969482421875</ele>
        <time>2026-08-05T08:32:25.000Z</time>
        <extensions>
          <ns3:TrackPointExtension>
            <ns3:hr>80</ns3:hr>
            <ns3:cad>44</ns3:cad>
          </ns3:TrackPointExtension>
        </extensions>
      </trkpt>
      <trkpt lat="43.47934716381132602691650390625" lon="1.45506645552814006805419921875">
        <ele>191.1999969482421875</ele>
        <time>2026-08-05T08:32:26.000Z</time>
        <extensions>
          <ns3:TrackPointExtension>
            <ns3:hr>81</ns3:hr>
            <ns3:cad>44</ns3:cad>
          </ns3:TrackPointExtension>
        </extensions>
      </trkpt>
      <trkpt lat="43.47935336641967296600341796875" lon="1.45506042055785655975341796875">
        <ele>191.399993896484375</ele>
        <time>2026-08-05T08:32:27.000Z</time>
        <extensions>
          <ns3:TrackPointExtension>
            <ns3:hr>81</ns3:hr>
            <ns3:cad>44</ns3:cad>
          </ns3:TrackPointExtension>
        </extensions>
      </trkpt>
      <trkpt lat="43.47936023958027362823486328125" lon="1.45505480468273162841796875">
        <ele>191.399993896484375</ele>
        <time>2026-08-05T08:32:28.000Z</time>
        <extensions>
          <ns3:TrackPointExtension>
            <ns3:hr>81</ns3:hr>
            <ns3:cad>44</ns3:cad>
          </ns3:TrackPointExtension>
        </extensions>
      </trkpt>
      <trkpt lat="43.47937725484371185302734375" lon="1.45504483021795749664306640625">
        <ele>191.399993896484375</ele>
        <time>2026-08-05T08:32:29.000Z</time>
        <extensions>
          <ns3:TrackPointExtension>
            <ns3:hr>81</ns3:hr>
            <ns3:cad>44</ns3:cad>
          </ns3:TrackPointExtension>
        </extensions>
      </trkpt>
      <trkpt lat="43.4793871454894542694091796875" lon="1.45504005253314971923828125">
        <ele>191.600006103515625</ele>
        <time>2026-08-05T08:32:30.000Z</time>
        <extensions>
          <ns3:TrackPointExtension>
            <ns3:hr>81</ns3:hr>
            <ns3:cad>44</ns3:cad>
          </ns3:TrackPointExtension>
        </extensions>
      </trkpt>
      <trkpt lat="43.47939577884972095489501953125" lon="1.45503829233348369598388671875">
        <ele>191.600006103515625</ele>
        <time>2026-08-05T08:32:31.000Z</time>
        <extensions>
          <ns3:TrackPointExtension>
            <ns3:hr>81</ns3:hr>
            <ns3:cad>44</ns3:cad>
          </ns3:TrackPointExtension>
        </extensions>
      </trkpt>
      <trkpt lat="43.47939946688711643218994140625" lon="1.45503426901996135711669921875">
        <ele>191.600006103515625</ele>
        <time>2026-08-05T08:32:32.000Z</time>
        <extensions>
          <ns3:TrackPointExtension>
            <ns3:hr>82</ns3:hr>
            <ns3:cad>44</ns3:cad>
          </ns3:TrackPointExtension>
        </extensions>
      </trkpt>
      <trkpt lat="43.4794122911989688873291015625" lon="1.45502387546002864837646484375">
        <ele>191.8000030517578125</ele>
        <time>2026-08-05T08:32:33.000Z</time>
        <extensions>
          <ns3:TrackPointExtension>
            <ns3:hr>81</ns3:hr>
            <ns3:cad>45</ns3:cad>
          </ns3:TrackPointExtension>
        </extensions>
      </trkpt>
      <trkpt lat="43.4794253669679164886474609375" lon="1.45501465536653995513916015625">
        <ele>191.8000030517578125</ele>
        <time>2026-08-05T08:32:34.000Z</time>
        <extensions>
          <ns3:TrackPointExtension>
            <ns3:hr>81</ns3:hr>
            <ns3:cad>45</ns3:cad>
          </ns3:TrackPointExtension>
        </extensions>
      </trkpt>
      <trkpt lat="43.47943081520497798919677734375" lon="1.45500945858657360076904296875">
        <ele>192</ele>
        <time>2026-08-05T08:32:35.000Z</time>
        <extensions>
          <ns3:TrackPointExtension>
            <ns3:hr>81</ns3:hr>
            <ns3:cad>45</ns3:cad>
          </ns3:TrackPointExtension>
        </extensions>
      </trkpt>
      <trkpt lat="43.47943534143269062042236328125" lon="1.45501331426203250885009765625">
        <ele>192</ele>
        <time>2026-08-05T08:32:36.000Z</time>
        <extensions>
          <ns3:TrackPointExtension>
            <ns3:hr>82</ns3:hr>
            <ns3:cad>45</ns3:cad>
          </ns3:TrackPointExtension>
        </extensions>
      </trkpt>
      <trkpt lat="43.47944741137325763702392578125" lon="1.4550112187862396240234375">
        <ele>192</ele>
        <time>2026-08-05T08:32:37.000Z</time>
        <extensions>
          <ns3:TrackPointExtension>
            <ns3:hr>82</ns3:hr>
            <ns3:cad>48</ns3:cad>
          </ns3:TrackPointExtension>
        </extensions>
      </trkpt>
      <trkpt lat="43.47946040332317352294921875" lon="1.45500384271144866943359375">
        <ele>192.1999969482421875</ele>
        <time>2026-08-05T08:32:38.000Z</time>
        <extensions>
          <ns3:TrackPointExtension>
            <ns3:hr>83</ns3:hr>
            <ns3:cad>48</ns3:cad>
          </ns3:TrackPointExtension>
        </extensions>
      </trkpt>
      <trkpt lat="43.47947188653051853179931640625" lon="1.45499906502664089202880859375">
        <ele>192.1999969482421875</ele>
        <time>2026-08-05T08:32:39.000Z</time>
        <extensions>
          <ns3:TrackPointExtension>
            <ns3:hr>83</ns3:hr>
            <ns3:cad>48</ns3:cad>
          </ns3:TrackPointExtension>
        </extensions>
      </trkpt>
      <trkpt lat="43.47948043607175350189208984375" lon="1.45500116050243377685546875">
        <ele>192.399993896484375</ele>
        <time>2026-08-05T08:32:40.000Z</time>
        <extensions>
          <ns3:TrackPointExtension>
            <ns3:hr>83</ns3:hr>
            <ns3:cad>48</ns3:cad>
          </ns3:TrackPointExtension>
        </extensions>
      </trkpt>
      <trkpt lat="43.47948663868010044097900390625" lon="1.4550013281404972076416015625">
        <ele>192.399993896484375</ele>
        <time>2026-08-05T08:32:41.000Z</time>
        <extensions>
          <ns3:TrackPointExtension>
            <ns3:hr>84</ns3:hr>
            <ns3:cad>48</ns3:cad>
          </ns3:TrackPointExtension>
        </extensions>
      </trkpt>
      <trkpt lat="43.47949569113552570343017578125" lon="1.4549962989985942840576171875">
        <ele>192.600006103515625</ele>
        <time>2026-08-05T08:32:42.000Z</time>
        <extensions>
          <ns3:TrackPointExtension>
            <ns3:hr>84</ns3:hr>
            <ns3:cad>47</ns3:cad>
          </ns3:TrackPointExtension>
        </extensions>
      </trkpt>
      <trkpt lat="43.47951027564704418182373046875" lon="1.45498766563832759857177734375">
        <ele>192.600006103515625</ele>
        <time>2026-08-05T08:32:43.000Z</time>
        <extensions>
          <ns3:TrackPointExtension>
            <ns3:hr>84</ns3:hr>
            <ns3:cad>47</ns3:cad>
          </ns3:TrackPointExtension>
        </extensions>
      </trkpt>
      <trkpt lat="43.4795236028730869293212890625" lon="1.45498213358223438262939453125">
        <ele>192.8000030517578125</ele>
        <time>2026-08-05T08:32:44.000Z</time>
        <extensions>
          <ns3:TrackPointExtension>
            <ns3:hr>84</ns3:hr>
            <ns3:cad>47</ns3:cad>
          </ns3:TrackPointExtension>
        </extensions>
      </trkpt>
      <trkpt lat="43.4795303083956241607666015625" lon="1.4549822174012660980224609375">
        <ele>192.8000030517578125</ele>
        <time>2026-08-05T08:32:45.000Z</time>
        <extensions>
          <ns3:TrackPointExtension>
            <ns3:hr>83</ns3:hr>
            <ns3:cad>48</ns3:cad>
          </ns3:TrackPointExtension>
        </extensions>
      </trkpt>
      <trkpt lat="43.47953684628009796142578125" lon="1.454980373382568359375">
        <ele>193</ele>
        <time>2026-08-05T08:32:46.000Z</time>
        <extensions>
          <ns3:TrackPointExtension>
            <ns3:hr>82</ns3:hr>
            <ns3:cad>48</ns3:cad>
          </ns3:TrackPointExtension>
        </extensions>
      </trkpt>
      <trkpt lat="43.47954698838293552398681640625" lon="1.454976014792919158935546875">
        <ele>193</ele>
        <time>2026-08-05T08:32:47.000Z</time>
        <extensions>
          <ns3:TrackPointExtension>
            <ns3:hr>83</ns3:hr>
            <ns3:cad>48</ns3:cad>
          </ns3:TrackPointExtension>
        </extensions>
      </trkpt>
      <trkpt lat="43.47956098616123199462890625" lon="1.45496905781328678131103515625">
        <ele>193.1999969482421875</ele>
        <time>2026-08-05T08:32:48.000Z</time>
        <extensions>
          <ns3:TrackPointExtension>
            <ns3:hr>84</ns3:hr>
            <ns3:cad>48</ns3:cad>
          </ns3:TrackPointExtension>
        </extensions>
      </trkpt>
      <trkpt lat="43.47957313992083072662353515625" lon="1.4549604244530200958251953125">
        <ele>193.1999969482421875</ele>
        <time>2026-08-05T08:32:49.000Z</time>
        <extensions>
          <ns3:TrackPointExtension>
            <ns3:hr>85</ns3:hr>
            <ns3:cad>48</ns3:cad>
          </ns3:TrackPointExtension>
        </extensions>
      </trkpt>
      <trkpt lat="43.47958269529044628143310546875" lon="1.45495690405368804931640625">
        <ele>193.399993896484375</ele>
        <time>2026-08-05T08:32:50.000Z</time>
        <extensions>
          <ns3:TrackPointExtension>
            <ns3:hr>86</ns3:hr>
            <ns3:cad>48</ns3:cad>
          </ns3:TrackPointExtension>
        </extensions>
      </trkpt>
      <trkpt lat="43.47959023900330066680908203125" lon="1.45495413802564144134521484375">
        <ele>193.399993896484375</ele>
        <time>2026-08-05T08:32:51.000Z</time>
        <extensions>
          <ns3:TrackPointExtension>
            <ns3:hr>88</ns3:hr>
            <ns3:cad>49</ns3:cad>
          </ns3:TrackPointExtension>
        </extensions>
      </trkpt>
      <trkpt lat="43.47960415296256542205810546875" lon="1.45494676195085048675537109375">
        <ele>193.399993896484375</ele>
        <time>2026-08-05T08:32:52.000Z</time>
        <extensions>
          <ns3:TrackPointExtension>
            <ns3:hr>90</ns3:hr>
            <ns3:cad>47</ns3:cad>
          </ns3:TrackPointExtension>
        </extensions>
      </trkpt>
      <trkpt lat="43.479616977274417877197265625" lon="1.45493485964834690093994140625">
        <ele>193.600006103515625</ele>
        <time>2026-08-05T08:32:53.000Z</time>
        <extensions>
          <ns3:TrackPointExtension>
            <ns3:hr>91</ns3:hr>
            <ns3:cad>47</ns3:cad>
          </ns3:TrackPointExtension>
        </extensions>
      </trkpt>
      <trkpt lat="43.47962678410112857818603515625" lon="1.4549252204596996307373046875">
        <ele>193.600006103515625</ele>
        <time>2026-08-05T08:32:54.000Z</time>
        <extensions>
          <ns3:TrackPointExtension>
            <ns3:hr>91</ns3:hr>
            <ns3:cad>47</ns3:cad>
          </ns3:TrackPointExtension>
        </extensions>
      </trkpt>
      <trkpt lat="43.4796352498233318328857421875" lon="1.454922370612621307373046875">
        <ele>193.8000030517578125</ele>
        <time>2026-08-05T08:32:55.000Z</time>
        <extensions>
          <ns3:TrackPointExtension>
            <ns3:hr>91</ns3:hr>
            <ns3:cad>47</ns3:cad>
          </ns3:TrackPointExtension>
        </extensions>
      </trkpt>
      <trkpt lat="43.47964287735521793365478515625" lon="1.454919688403606414794921875">
        <ele>193.8000030517578125</ele>
        <time>2026-08-05T08:32:56.000Z</time>
        <extensions>
          <ns3:TrackPointExtension>
            <ns3:hr>91</ns3:hr>
            <ns3:cad>47</ns3:cad>
          </ns3:TrackPointExtension>
        </extensions>
      </trkpt>
      <trkpt lat="43.47965813241899013519287109375" lon="1.4549141563475131988525390625">
        <ele>194</ele>
        <time>2026-08-05T08:32:57.000Z</time>
        <extensions>
          <ns3:TrackPointExtension>
            <ns3:hr>91</ns3:hr>
            <ns3:cad>47</ns3:cad>
          </ns3:TrackPointExtension>
        </extensions>
      </trkpt>
      <trkpt lat="43.47967363893985748291015625" lon="1.4549077861011028289794921875">
        <ele>194</ele>
        <time>2026-08-05T08:32:58.000Z</time>
        <extensions>
          <ns3:TrackPointExtension>
            <ns3:hr>91</ns3:hr>
            <ns3:cad>47</ns3:cad>
          </ns3:TrackPointExtension>
        </extensions>
      </trkpt>
      <trkpt lat="43.479686044156551361083984375" lon="1.45490015856921672821044921875">
        <ele>194</ele>
        <time>2026-08-05T08:32:59.000Z</time>
        <extensions>
          <ns3:TrackPointExtension>
            <ns3:hr>91</ns3:hr>
            <ns3:cad>48</ns3:cad>
          </ns3:TrackPointExtension>
        </extensions>
      </trkpt>
      <trkpt lat="43.47969241440296173095703125" lon="1.45489479415118694305419921875">
        <ele>194.1999969482421875</ele>
        <time>2026-08-05T08:33:00.000Z</time>
        <extensions>
          <ns3:TrackPointExtension>
            <ns3:hr>91</ns3:hr>
            <ns3:cad>48</ns3:cad>
          </ns3:TrackPointExtension>
        </extensions>
      </trkpt>
      <trkpt lat="43.47969551570713520050048828125" lon="1.4548923633992671966552734375">
        <ele>194.1999969482421875</ele>
        <time>2026-08-05T08:33:01.000Z</time>
        <extensions>
          <ns3:TrackPointExtension>
            <ns3:hr>91</ns3:hr>
            <ns3:cad>48</ns3:cad>
          </ns3:TrackPointExtension>
        </extensions>
      </trkpt>
      <trkpt lat="43.47970574162900447845458984375" lon="1.45488909445703029632568359375">
        <ele>194.399993896484375</ele>
        <time>2026-08-05T08:33:02.000Z</time>
        <extensions>
          <ns3:TrackPointExtension>
            <ns3:hr>91</ns3:hr>
            <ns3:cad>49</ns3:cad>
          </ns3:TrackPointExtension>
        </extensions>
      </trkpt>
      <trkpt lat="43.47972518764436244964599609375" lon="1.4548802934587001800537109375">
        <ele>194.399993896484375</ele>
        <time>2026-08-05T08:33:03.000Z</time>
        <extensions>
          <ns3:TrackPointExtension>
            <ns3:hr>91</ns3:hr>
            <ns3:cad>49</ns3:cad>
          </ns3:TrackPointExtension>
        </extensions>
      </trkpt>
      <trkpt lat="43.47973809577524662017822265625" lon="1.4548744261264801025390625">
        <ele>194.600006103515625</ele>
        <time>2026-08-05T08:33:04.000Z</time>
        <extensions>
          <ns3:TrackPointExtension>
            <ns3:hr>92</ns3:hr>
            <ns3:cad>49</ns3:cad>
          </ns3:TrackPointExtension>
        </extensions>
      </trkpt>
      <trkpt lat="43.47975184209644794464111328125" lon="1.45487107336521148681640625">
        <ele>194.600006103515625</ele>
        <time>2026-08-05T08:33:05.000Z</time>
        <extensions>
          <ns3:TrackPointExtension>
            <ns3:hr>92</ns3:hr>
            <ns3:cad>49</ns3:cad>
          </ns3:TrackPointExtension>
        </extensions>
      </trkpt>
      <trkpt lat="43.4797586314380168914794921875" lon="1.4548668824136257171630859375">
        <ele>194.8000030517578125</ele>
        <time>2026-08-05T08:33:06.000Z</time>
        <extensions>
          <ns3:TrackPointExtension>
            <ns3:hr>92</ns3:hr>
            <ns3:cad>49</ns3:cad>
          </ns3:TrackPointExtension>
        </extensions>
      </trkpt>
      <trkpt lat="43.47976676188409328460693359375" lon="1.45486260764300823211669921875">
        <ele>194.8000030517578125</ele>
        <time>2026-08-05T08:33:07.000Z</time>
        <extensions>
          <ns3:TrackPointExtension>
            <ns3:hr>92</ns3:hr>
            <ns3:cad>48</ns3:cad>
          </ns3:TrackPointExtension>
        </extensions>
      </trkpt>
      <trkpt lat="43.4797790832817554473876953125" lon="1.4548588357865810394287109375">
        <ele>194.8000030517578125</ele>
        <time>2026-08-05T08:33:08.000Z</time>
        <extensions>
          <ns3:TrackPointExtension>
            <ns3:hr>93</ns3:hr>
            <ns3:cad>48</ns3:cad>
          </ns3:TrackPointExtension>
        </extensions>
      </trkpt>
      <trkpt lat="43.47979023121297359466552734375" lon="1.4548531360924243927001953125">
        <ele>195</ele>
        <time>2026-08-05T08:33:09.000Z</time>
        <extensions>
          <ns3:TrackPointExtension>
            <ns3:hr>93</ns3:hr>
            <ns3:cad>48</ns3:cad>
          </ns3:TrackPointExtension>
        </extensions>
      </trkpt>
      <trkpt lat="43.47980179823935031890869140625" lon="1.45484902895987033843994140625">
        <ele>195</ele>
        <time>2026-08-05T08:33:10.000Z</time>
        <extensions>
          <ns3:TrackPointExtension>
            <ns3:hr>93</ns3:hr>
            <ns3:cad>48</ns3:cad>
          </ns3:TrackPointExtension>
        </extensions>
      </trkpt>
      <trkpt lat="43.4798105992376804351806640625" lon="1.45484265871345996856689453125">
        <ele>195.1999969482421875</ele>
        <time>2026-08-05T08:33:11.000Z</time>
        <extensions>
          <ns3:TrackPointExtension>
            <ns3:hr>93</ns3:hr>
            <ns3:cad>48</ns3:cad>
          </ns3:TrackPointExtension>
        </extensions>
      </trkpt>
      <trkpt lat="43.4798240102827548980712890625" lon="1.4548397250473499298095703125">
        <ele>195.1999969482421875</ele>
        <time>2026-08-05T08:33:12.000Z</time>
        <extensions>
          <ns3:TrackPointExtension>
            <ns3:hr>93</ns3:hr>
            <ns3:cad>48</ns3:cad>
          </ns3:TrackPointExtension>
        </extensions>
      </trkpt>
      <trkpt lat="43.4798380918800830841064453125" lon="1.45482706837356090545654296875">
        <ele>195.399993896484375</ele>
        <time>2026-08-05T08:33:13.000Z</time>
        <extensions>
          <ns3:TrackPointExtension>
            <ns3:hr>93</ns3:hr>
            <ns3:cad>48</ns3:cad>
          </ns3:TrackPointExtension>
        </extensions>
      </trkpt>
      <trkpt lat="43.47984689287841320037841796875" lon="1.45482338033616542816162109375">
        <ele>195.399993896484375</ele>
        <time>2026-08-05T08:33:14.000Z</time>
        <extensions>
          <ns3:TrackPointExtension>
            <ns3:hr>93</ns3:hr>
            <ns3:cad>48</ns3:cad>
          </ns3:TrackPointExtension>
        </extensions>
      </trkpt>
      <trkpt lat="43.47985242493450641632080078125" lon="1.454822123050689697265625">
        <ele>195.600006103515625</ele>
        <time>2026-08-05T08:33:15.000Z</time>
        <extensions>
          <ns3:TrackPointExtension>
            <ns3:hr>94</ns3:hr>
            <ns3:cad>48</ns3:cad>
          </ns3:TrackPointExtension>
        </extensions>
      </trkpt>
      <trkpt lat="43.47986097447574138641357421875" lon="1.4548219554126262664794921875">
        <ele>195.600006103515625</ele>
        <time>2026-08-05T08:33:16.000Z</time>
        <extensions>
          <ns3:TrackPointExtension>
            <ns3:hr>94</ns3:hr>
            <ns3:cad>47</ns3:cad>
          </ns3:TrackPointExtension>
        </extensions>
      </trkpt>
      <trkpt lat="43.4798736311495304107666015625" lon="1.454816423356533050537109375">
        <ele>195.8000030517578125</ele>
        <time>2026-08-05T08:33:17.000Z</time>
        <extensions>
          <ns3:TrackPointExtension>
            <ns3:hr>94</ns3:hr>
            <ns3:cad>47</ns3:cad>
          </ns3:TrackPointExtension>
        </extensions>
      </trkpt>
      <trkpt lat="43.47988477908074855804443359375" lon="1.454808376729488372802734375">
        <ele>195.8000030517578125</ele>
        <time>2026-08-05T08:33:18.000Z</time>
        <extensions>
          <ns3:TrackPointExtension>
            <ns3:hr>94</ns3:hr>
            <ns3:cad>0</ns3:cad>
          </ns3:TrackPointExtension>
        </extensions>
      </trkpt>
      <trkpt lat="43.479892574250698089599609375" lon="1.45480527542531490325927734375">
        <ele>196</ele>
        <time>2026-08-05T08:33:19.000Z</time>
        <extensions>
          <ns3:TrackPointExtension>
            <ns3:hr>94</ns3:hr>
            <ns3:cad>0</ns3:cad>
          </ns3:TrackPointExtension>
        </extensions>
      </trkpt>
      <trkpt lat="43.4798974357545375823974609375" lon="1.45480276085436344146728515625">
        <ele>196</ele>
        <time>2026-08-05T08:33:20.000Z</time>
        <extensions>
          <ns3:TrackPointExtension>
            <ns3:hr>94</ns3:hr>
            <ns3:cad>47</ns3:cad>
          </ns3:TrackPointExtension>
        </extensions>
      </trkpt>
      <trkpt lat="43.47990556620061397552490234375" lon="1.45479999482631683349609375">
        <ele>196.1999969482421875</ele>
        <time>2026-08-05T08:33:21.000Z</time>
        <extensions>
          <ns3:TrackPointExtension>
            <ns3:hr>94</ns3:hr>
            <ns3:cad>48</ns3:cad>
          </ns3:TrackPointExtension>
        </extensions>
      </trkpt>
      <trkpt lat="43.4799195639789104461669921875" lon="1.45479253493249416351318359375">
        <ele>196.1999969482421875</ele>
        <time>2026-08-05T08:33:22.000Z</time>
        <extensions>
          <ns3:TrackPointExtension>
            <ns3:hr>94</ns3:hr>
            <ns3:cad>48</ns3:cad>
          </ns3:TrackPointExtension>
        </extensions>
      </trkpt>
      <trkpt lat="43.47993188537657260894775390625" lon="1.45478331483900547027587890625">
        <ele>196.399993896484375</ele>
        <time>2026-08-05T08:33:23.000Z</time>
        <extensions>
          <ns3:TrackPointExtension>
            <ns3:hr>95</ns3:hr>
            <ns3:cad>48</ns3:cad>
          </ns3:TrackPointExtension>
        </extensions>
      </trkpt>
      <trkpt lat="43.47994328476488590240478515625" lon="1.4547770284116268157958984375">
        <ele>196.399993896484375</ele>
        <time>2026-08-05T08:33:24.000Z</time>
        <extensions>
          <ns3:TrackPointExtension>
            <ns3:hr>95</ns3:hr>
            <ns3:cad>48</ns3:cad>
          </ns3:TrackPointExtension>
        </extensions>
      </trkpt>
      <trkpt lat="43.47995015792548656463623046875" lon="1.4547813870012760162353515625">
        <ele>196.600006103515625</ele>
        <time>2026-08-05T08:33:25.000Z</time>
        <extensions>
          <ns3:TrackPointExtension>
            <ns3:hr>96</ns3:hr>
            <ns3:cad>48</ns3:cad>
          </ns3:TrackPointExtension>
        </extensions>
      </trkpt>
      <trkpt lat="43.47995937801897525787353515625" lon="1.45477727986872196197509765625">
        <ele>196.600006103515625</ele>
        <time>2026-08-05T08:33:26.000Z</time>
        <extensions>
          <ns3:TrackPointExtension>
            <ns3:hr>97</ns3:hr>
            <ns3:cad>48</ns3:cad>
          </ns3:TrackPointExtension>
        </extensions>
      </trkpt>
      <trkpt lat="43.4799745492637157440185546875" lon="1.45477040670812129974365234375">
        <ele>196.8000030517578125</ele>
        <time>2026-08-05T08:33:27.000Z</time>
        <extensions>
          <ns3:TrackPointExtension>
            <ns3:hr>98</ns3:hr>
            <ns3:cad>48</ns3:cad>
          </ns3:TrackPointExtension>
        </extensions>
      </trkpt>
      <trkpt lat="43.47999039106070995330810546875" lon="1.4547649584710597991943359375">
        <ele>197</ele>
        <time>2026-08-05T08:33:28.000Z</time>
        <extensions>
          <ns3:TrackPointExtension>
            <ns3:hr>99</ns3:hr>
            <ns3:cad>48</ns3:cad>
          </ns3:TrackPointExtension>
        </extensions>
      </trkpt>
      <trkpt lat="43.48000145517289638519287109375" lon="1.45475951023399829864501953125">
        <ele>197</ele>
        <time>2026-08-05T08:33:29.000Z</time>
        <extensions>
          <ns3:TrackPointExtension>
            <ns3:hr>99</ns3:hr>
            <ns3:cad>48</ns3:cad>
          </ns3:TrackPointExtension>
        </extensions>
      </trkpt>
      <trkpt lat="43.48000916652381420135498046875" lon="1.45475565455853939056396484375">
        <ele>197.1999969482421875</ele>
        <time>2026-08-05T08:33:30.000Z</time>
        <extensions>
          <ns3:TrackPointExtension>
            <ns3:hr>99</ns3:hr>
            <ns3:cad>48</ns3:cad>
          </ns3:TrackPointExtension>
        </extensions>
      </trkpt>
      <trkpt lat="43.4800176322460174560546875" lon="1.45475062541663646697998046875">
        <ele>197.1999969482421875</ele>
        <time>2026-08-05T08:33:31.000Z</time>
        <extensions>
          <ns3:TrackPointExtension>
            <ns3:hr>99</ns3:hr>
            <ns3:cad>48</ns3:cad>
          </ns3:TrackPointExtension>
        </extensions>
      </trkpt>
      <trkpt lat="43.48003246821463108062744140625" lon="1.4547408185899257659912109375">
        <ele>197.399993896484375</ele>
        <time>2026-08-05T08:33:32.000Z</time>
        <extensions>
          <ns3:TrackPointExtension>
            <ns3:hr>99</ns3:hr>
            <ns3:cad>48</ns3:cad>
          </ns3:TrackPointExtension>
        </extensions>
      </trkpt>
      <trkpt lat="43.480043448507785797119140625" lon="1.4547361247241497039794921875">
        <ele>197.399993896484375</ele>
        <time>2026-08-05T08:33:33.000Z</time>
        <extensions>
          <ns3:TrackPointExtension>
            <ns3:hr>99</ns3:hr>
            <ns3:cad>48</ns3:cad>
          </ns3:TrackPointExtension>
        </extensions>
      </trkpt>
      <trkpt lat="43.4800540097057819366455078125" lon="1.45473604090511798858642578125">
        <ele>197.600006103515625</ele>
        <time>2026-08-05T08:33:34.000Z</time>
        <extensions>
          <ns3:TrackPointExtension>
            <ns3:hr>99</ns3:hr>
            <ns3:cad>48</ns3:cad>
          </ns3:TrackPointExtension>
        </extensions>
      </trkpt>
      <trkpt lat="43.4800620563328266143798828125" lon="1.45473671145737171173095703125">
        <ele>197.600006103515625</ele>
        <time>2026-08-05T08:33:35.000Z</time>
        <extensions>
          <ns3:TrackPointExtension>
            <ns3:hr>99</ns3:hr>
            <ns3:cad>48</ns3:cad>
          </ns3:TrackPointExtension>
        </extensions>
      </trkpt>
      <trkpt lat="43.48007328808307647705078125" lon="1.45473050884902477264404296875">
        <ele>197.600006103515625</ele>
        <time>2026-08-05T08:33:36.000Z</time>
        <extensions>
          <ns3:TrackPointExtension>
            <ns3:hr>99</ns3:hr>
            <ns3:cad>48</ns3:cad>
          </ns3:TrackPointExtension>
        </extensions>
      </trkpt>
      <trkpt lat="43.48008728586137294769287109375" lon="1.454720534384250640869140625">
        <ele>197.8000030517578125</ele>
        <time>2026-08-05T08:33:37.000Z</time>
        <extensions>
          <ns3:TrackPointExtension>
            <ns3:hr>100</ns3:hr>
            <ns3:cad>48</ns3:cad>
          </ns3:TrackPointExtension>
        </extensions>
      </trkpt>
      <trkpt lat="43.48009667359292507171630859375" lon="1.45471659488976001739501953125">
        <ele>197.8000030517578125</ele>
        <time>2026-08-05T08:33:38.000Z</time>
        <extensions>
          <ns3:TrackPointExtension>
            <ns3:hr>100</ns3:hr>
            <ns3:cad>47</ns3:cad>
          </ns3:TrackPointExtension>
        </extensions>
      </trkpt>
      <trkpt lat="43.48010254092514514923095703125" lon="1.45471005700528621673583984375">
        <ele>197.8000030517578125</ele>
        <time>2026-08-05T08:33:39.000Z</time>
        <extensions>
          <ns3:TrackPointExtension>
            <ns3:hr>100</ns3:hr>
            <ns3:cad>47</ns3:cad>
          </ns3:TrackPointExtension>
        </extensions>
      </trkpt>
      <trkpt lat="43.48011243157088756561279296875" lon="1.45470368675887584686279296875">
        <ele>198</ele>
        <time>2026-08-05T08:33:40.000Z</time>
        <extensions>
          <ns3:TrackPointExtension>
            <ns3:hr>99</ns3:hr>
            <ns3:cad>47</ns3:cad>
          </ns3:TrackPointExtension>
        </extensions>
      </trkpt>
      <trkpt lat="43.48012450151145458221435546875" lon="1.45469463430345058441162109375">
        <ele>198</ele>
        <time>2026-08-05T08:33:41.000Z</time>
        <extensions>
          <ns3:TrackPointExtension>
            <ns3:hr>99</ns3:hr>
            <ns3:cad>47</ns3:cad>
          </ns3:TrackPointExtension>
        </extensions>
      </trkpt>
      <trkpt lat="43.480133302509784698486328125" lon="1.45468759350478649139404296875">
        <ele>198</ele>
        <time>2026-08-05T08:33:42.000Z</time>
        <extensions>
          <ns3:TrackPointExtension>
            <ns3:hr>99</ns3:hr>
            <ns3:cad>46</ns3:cad>
          </ns3:TrackPointExtension>
        </extensions>
      </trkpt>
      <trkpt lat="43.48013657145202159881591796875" lon="1.454684324562549591064453125">
        <ele>198</ele>
        <time>2026-08-05T08:33:43.000Z</time>
        <extensions>
          <ns3:TrackPointExtension>
            <ns3:hr>100</ns3:hr>
            <ns3:cad>45</ns3:cad>
          </ns3:TrackPointExtension>
        </extensions>
      </trkpt>
      <trkpt lat="43.48014696501195430755615234375" lon="1.45467719994485378265380859375">
        <ele>198.1999969482421875</ele>
        <time>2026-08-05T08:33:44.000Z</time>
        <extensions>
          <ns3:TrackPointExtension>
            <ns3:hr>99</ns3:hr>
            <ns3:cad>45</ns3:cad>
          </ns3:TrackPointExtension>
        </extensions>
      </trkpt>
      <trkpt lat="43.48015869967639446258544921875" lon="1.45466915331780910491943359375">
        <ele>198.1999969482421875</ele>
        <time>2026-08-05T08:33:45.000Z</time>
        <extensions>
          <ns3:TrackPointExtension>
            <ns3:hr>99</ns3:hr>
            <ns3:cad>45</ns3:cad>
          </ns3:TrackPointExtension>
        </extensions>
      </trkpt>
      <trkpt lat="43.48016892559826374053955078125" lon="1.4546663872897624969482421875">
        <ele>198.1999969482421875</ele>
        <time>2026-08-05T08:33:46.000Z</time>
        <extensions>
          <ns3:TrackPointExtension>
            <ns3:hr>99</ns3:hr>
            <ns3:cad>45</ns3:cad>
          </ns3:TrackPointExtension>
        </extensions>
      </trkpt>
      <trkpt lat="43.4801750443875789642333984375" lon="1.45466764457523822784423828125">
        <ele>198.399993896484375</ele>
        <time>2026-08-05T08:33:47.000Z</time>
        <extensions>
          <ns3:TrackPointExtension>
            <ns3:hr>99</ns3:hr>
            <ns3:cad>45</ns3:cad>
          </ns3:TrackPointExtension>
        </extensions>
      </trkpt>
      <trkpt lat="43.4801852703094482421875" lon="1.45466010086238384246826171875">
        <ele>198.399993896484375</ele>
        <time>2026-08-05T08:33:48.000Z</time>
        <extensions>
          <ns3:TrackPointExtension>
            <ns3:hr>99</ns3:hr>
            <ns3:cad>45</ns3:cad>
          </ns3:TrackPointExtension>
        </extensions>
      </trkpt>
      <trkpt lat="43.48019809462130069732666015625" lon="1.4546464383602142333984375">
        <ele>198.399993896484375</ele>
        <time>2026-08-05T08:33:49.000Z</time>
        <extensions>
          <ns3:TrackPointExtension>
            <ns3:hr>99</ns3:hr>
            <ns3:cad>44</ns3:cad>
          </ns3:TrackPointExtension>
        </extensions>
      </trkpt>
      <trkpt lat="43.48020848818123340606689453125" lon="1.45463864319026470184326171875">
        <ele>198.399993896484375</ele>
        <time>2026-08-05T08:33:50.000Z</time>
        <extensions>
          <ns3:TrackPointExtension>
            <ns3:hr>99</ns3:hr>
            <ns3:cad>44</ns3:cad>
          </ns3:TrackPointExtension>
        </extensions>
      </trkpt>
      <trkpt lat="43.48021385259926319122314453125" lon="1.4546352066099643707275390625">
        <ele>198.600006103515625</ele>
        <time>2026-08-05T08:33:51.000Z</time>
        <extensions>
          <ns3:TrackPointExtension>
            <ns3:hr>99</ns3:hr>
            <ns3:cad>45</ns3:cad>
          </ns3:TrackPointExtension>
        </extensions>
      </trkpt>
      <trkpt lat="43.48022340796887874603271484375" lon="1.45462607033550739288330078125">
        <ele>198.600006103515625</ele>
        <time>2026-08-05T08:33:52.000Z</time>
        <extensions>
          <ns3:TrackPointExtension>
            <ns3:hr>99</ns3:hr>
            <ns3:cad>45</ns3:cad>
          </ns3:TrackPointExtension>
        </extensions>
      </trkpt>
      <trkpt lat="43.4802353940904140472412109375" lon="1.45461232401430606842041015625">
        <ele>198.8000030517578125</ele>
        <time>2026-08-05T08:33:53.000Z</time>
        <extensions>
          <ns3:TrackPointExtension>
            <ns3:hr>100</ns3:hr>
            <ns3:cad>45</ns3:cad>
          </ns3:TrackPointExtension>
        </extensions>
      </trkpt>
      <trkpt lat="43.48024335689842700958251953125" lon="1.4546067081391811370849609375">
        <ele>198.8000030517578125</ele>
        <time>2026-08-05T08:33:54.000Z</time>
        <extensions>
          <ns3:TrackPointExtension>
            <ns3:hr>99</ns3:hr>
            <ns3:cad>46</ns3:cad>
          </ns3:TrackPointExtension>
        </extensions>
      </trkpt>
      <trkpt lat="43.4802494756877422332763671875" lon="1.454601176083087921142578125">
        <ele>199</ele>
        <time>2026-08-05T08:33:55.000Z</time>
        <extensions>
          <ns3:TrackPointExtension>
            <ns3:hr>99</ns3:hr>
            <ns3:cad>46</ns3:cad>
          </ns3:TrackPointExtension>
        </extensions>
      </trkpt>
      <trkpt lat="43.48025576211512088775634765625" lon="1.45459405146539211273193359375">
        <ele>199</ele>
        <time>2026-08-05T08:33:56.000Z</time>
        <extensions>
          <ns3:TrackPointExtension>
            <ns3:hr>99</ns3:hr>
            <ns3:cad>46</ns3:cad>
          </ns3:TrackPointExtension>
        </extensions>
      </trkpt>
      <trkpt lat="43.48026598803699016571044921875" lon="1.45458449609577655792236328125">
        <ele>199.1999969482421875</ele>
        <time>2026-08-05T08:33:57.000Z</time>
        <extensions>
          <ns3:TrackPointExtension>
            <ns3:hr>99</ns3:hr>
            <ns3:cad>46</ns3:cad>
          </ns3:TrackPointExtension>
        </extensions>
      </trkpt>
      <trkpt lat="43.4802732802927494049072265625" lon="1.4545775391161441802978515625">
        <ele>199.1999969482421875</ele>
        <time>2026-08-05T08:33:58.000Z</time>
        <extensions>
          <ns3:TrackPointExtension>
            <ns3:hr>99</ns3:hr>
            <ns3:cad>46</ns3:cad>
          </ns3:TrackPointExtension>
        </extensions>
      </trkpt>
      <trkpt lat="43.4802793152630329132080078125" lon="1.45457292906939983367919921875">
        <ele>199.1999969482421875</ele>
        <time>2026-08-05T08:33:59.000Z</time>
        <extensions>
          <ns3:TrackPointExtension>
            <ns3:hr>99</ns3:hr>
            <ns3:cad>46</ns3:cad>
          </ns3:TrackPointExtension>
        </extensions>
      </trkpt>
      <trkpt lat="43.4802866913378238677978515625" lon="1.45456672646105289459228515625">
        <ele>199.1999969482421875</ele>
        <time>2026-08-05T08:34:00.000Z</time>
        <extensions>
          <ns3:TrackPointExtension>
            <ns3:hr>99</ns3:hr>
            <ns3:cad>46</ns3:cad>
          </ns3:TrackPointExtension>
        </extensions>
      </trkpt>
      <trkpt lat="43.480301611125469207763671875" lon="1.4545547403395175933837890625">
        <ele>199.399993896484375</ele>
        <time>2026-08-05T08:34:01.000Z</time>
        <extensions>
          <ns3:TrackPointExtension>
            <ns3:hr>99</ns3:hr>
            <ns3:cad>45</ns3:cad>
          </ns3:TrackPointExtension>
        </extensions>
      </trkpt>
      <trkpt lat="43.48031326197087764739990234375" lon="1.45454996265470981597900390625">
        <ele>199.399993896484375</ele>
        <time>2026-08-05T08:34:02.000Z</time>
        <extensions>
          <ns3:TrackPointExtension>
            <ns3:hr>99</ns3:hr>
            <ns3:cad>45</ns3:cad>
          </ns3:TrackPointExtension>
        </extensions>
      </trkpt>
      <trkpt lat="43.48032231442630290985107421875" lon="1.4545463584363460540771484375">
        <ele>199.600006103515625</ele>
        <time>2026-08-05T08:34:03.000Z</time>
        <extensions>
          <ns3:TrackPointExtension>
            <ns3:hr>100</ns3:hr>
            <ns3:cad>45</ns3:cad>
          </ns3:TrackPointExtension>
        </extensions>
      </trkpt>
      <trkpt lat="43.48032281734049320220947265625" lon="1.45454007200896739959716796875">
        <ele>199.600006103515625</ele>
        <time>2026-08-05T08:34:04.000Z</time>
        <extensions>
          <ns3:TrackPointExtension>
            <ns3:hr>100</ns3:hr>
            <ns3:cad>45</ns3:cad>
          </ns3:TrackPointExtension>
        </extensions>
      </trkpt>
      <trkpt lat="43.4803346358239650726318359375" lon="1.45453051663935184478759765625">
        <ele>199.600006103515625</ele>
        <time>2026-08-05T08:34:05.000Z</time>
        <extensions>
          <ns3:TrackPointExtension>
            <ns3:hr>100</ns3:hr>
            <ns3:cad>45</ns3:cad>
          </ns3:TrackPointExtension>
        </extensions>
      </trkpt>
      <trkpt lat="43.4803456999361515045166015625" lon="1.45451777614653110504150390625">
        <ele>199.8000030517578125</ele>
        <time>2026-08-05T08:34:06.000Z</time>
        <extensions>
          <ns3:TrackPointExtension>
            <ns3:hr>100</ns3:hr>
            <ns3:cad>45</ns3:cad>
          </ns3:TrackPointExtension>
        </extensions>
      </trkpt>
      <trkpt lat="43.48035399802029132843017578125" lon="1.45451157353818416595458984375">
        <ele>199.8000030517578125</ele>
        <time>2026-08-05T08:34:07.000Z</time>
        <extensions>
          <ns3:TrackPointExtension>
            <ns3:hr>101</ns3:hr>
            <ns3:cad>45</ns3:cad>
          </ns3:TrackPointExtension>
        </extensions>
      </trkpt>
      <trkpt lat="43.48036003299057483673095703125" lon="1.454507969319820404052734375">
        <ele>199.8000030517578125</ele>
        <time>2026-08-05T08:34:08.000Z</time>
        <extensions>
          <ns3:TrackPointExtension>
            <ns3:hr>100</ns3:hr>
            <ns3:cad>45</ns3:cad>
          </ns3:TrackPointExtension>
        </extensions>
      </trkpt>
      <trkpt lat="43.48036875016987323760986328125" lon="1.45449933595955371856689453125">
        <ele>200</ele>
        <time>2026-08-05T08:34:09.000Z</time>
        <extensions>
          <ns3:TrackPointExtension>
            <ns3:hr>99</ns3:hr>
            <ns3:cad>48</ns3:cad>
          </ns3:TrackPointExtension>
        </extensions>
      </trkpt>
      <trkpt lat="43.48038065247237682342529296875" lon="1.454489864408969879150390625">
        <ele>200</ele>
        <time>2026-08-05T08:34:10.000Z</time>
        <extensions>
          <ns3:TrackPointExtension>
            <ns3:hr>98</ns3:hr>
            <ns3:cad>48</ns3:cad>
          </ns3:TrackPointExtension>
        </extensions>
      </trkpt>
      <trkpt lat="43.4803896211087703704833984375" lon="1.4544826559722423553466796875">
        <ele>200</ele>
        <time>2026-08-05T08:34:11.000Z</time>
        <extensions>
          <ns3:TrackPointExtension>
            <ns3:hr>98</ns3:hr>
            <ns3:cad>46</ns3:cad>
          </ns3:TrackPointExtension>
        </extensions>
      </trkpt>
      <trkpt lat="43.4803966619074344635009765625" lon="1.45448072813451290130615234375">
        <ele>200</ele>
        <time>2026-08-05T08:34:12.000Z</time>
        <extensions>
          <ns3:TrackPointExtension>
            <ns3:hr>98</ns3:hr>
            <ns3:cad>46</ns3:cad>
          </ns3:TrackPointExtension>
        </extensions>
      </trkpt>
      <trkpt lat="43.48040412180125713348388671875" lon="1.45447184331715106964111328125">
        <ele>200</ele>
        <time>2026-08-05T08:34:13.000Z</time>
        <extensions>
          <ns3:TrackPointExtension>
            <ns3:hr>98</ns3:hr>
            <ns3:cad>47</ns3:cad>
          </ns3:TrackPointExtension>
        </extensions>
      </trkpt>
      <trkpt lat="43.4804167784750461578369140625" lon="1.4544611983001232147216796875">
        <ele>200</ele>
        <time>2026-08-05T08:34:14.000Z</time>
        <extensions>
          <ns3:TrackPointExtension>
            <ns3:hr>98</ns3:hr>
            <ns3:cad>47</ns3:cad>
          </ns3:TrackPointExtension>
        </extensions>
      </trkpt>
      <trkpt lat="43.48042658530175685882568359375" lon="1.45445130765438079833984375">
        <ele>200.1999969482421875</ele>
        <time>2026-08-05T08:34:15.000Z</time>
        <extensions>
          <ns3:TrackPointExtension>
            <ns3:hr>99</ns3:hr>
            <ns3:cad>46</ns3:cad>
          </ns3:TrackPointExtension>
        </extensions>
      </trkpt>
      <trkpt lat="43.4804335422813892364501953125" lon="1.4544484578073024749755859375">
        <ele>200.1999969482421875</ele>
        <time>2026-08-05T08:34:16.000Z</time>
        <extensions>
          <ns3:TrackPointExtension>
            <ns3:hr>99</ns3:hr>
            <ns3:cad>46</ns3:cad>
          </ns3:TrackPointExtension>
        </extensions>
      </trkpt>
      <trkpt lat="43.4804402478039264678955078125" lon="1.45444057881832122802734375">
        <ele>200.399993896484375</ele>
        <time>2026-08-05T08:34:17.000Z</time>
        <extensions>
          <ns3:TrackPointExtension>
            <ns3:hr>99</ns3:hr>
            <ns3:cad>45</ns3:cad>
          </ns3:TrackPointExtension>
        </extensions>
      </trkpt>
      <trkpt lat="43.48044904880225658416748046875" lon="1.454430185258388519287109375">
        <ele>200.399993896484375</ele>
        <time>2026-08-05T08:34:18.000Z</time>
        <extensions>
          <ns3:TrackPointExtension>
            <ns3:hr>98</ns3:hr>
            <ns3:cad>45</ns3:cad>
          </ns3:TrackPointExtension>
        </extensions>
      </trkpt>
      <trkpt lat="43.48045877180993556976318359375" lon="1.454418115317821502685546875">
        <ele>200.600006103515625</ele>
        <time>2026-08-05T08:34:19.000Z</time>
        <extensions>
          <ns3:TrackPointExtension>
            <ns3:hr>98</ns3:hr>
            <ns3:cad>45</ns3:cad>
          </ns3:TrackPointExtension>
        </extensions>
      </trkpt>
      <trkpt lat="43.48046732135117053985595703125" lon="1.45440830849111080169677734375">
        <ele>200.600006103515625</ele>
        <time>2026-08-05T08:34:20.000Z</time>
        <extensions>
          <ns3:TrackPointExtension>
            <ns3:hr>98</ns3:hr>
            <ns3:cad>44</ns3:cad>
          </ns3:TrackPointExtension>
        </extensions>
      </trkpt>
      <trkpt lat="43.48047704435884952545166015625" lon="1.45440009422600269317626953125">
        <ele>200.8000030517578125</ele>
        <time>2026-08-05T08:34:21.000Z</time>
        <extensions>
          <ns3:TrackPointExtension>
            <ns3:hr>98</ns3:hr>
            <ns3:cad>44</ns3:cad>
          </ns3:TrackPointExtension>
        </extensions>
      </trkpt>
      <trkpt lat="43.48048727028071880340576171875" lon="1.454391293227672576904296875">
        <ele>200.8000030517578125</ele>
        <time>2026-08-05T08:34:22.000Z</time>
        <extensions>
          <ns3:TrackPointExtension>
            <ns3:hr>97</ns3:hr>
            <ns3:cad>44</ns3:cad>
          </ns3:TrackPointExtension>
        </extensions>
      </trkpt>
      <trkpt lat="43.48049565218389034271240234375" lon="1.45438333041965961456298828125">
        <ele>200.8000030517578125</ele>
        <time>2026-08-05T08:34:23.000Z</time>
        <extensions>
          <ns3:TrackPointExtension>
            <ns3:hr>98</ns3:hr>
            <ns3:cad>48</ns3:cad>
          </ns3:TrackPointExtension>
        </extensions>
      </trkpt>
      <trkpt lat="43.480501435697078704833984375" lon="1.45437863655388355255126953125">
        <ele>200.8000030517578125</ele>
        <time>2026-08-05T08:34:24.000Z</time>
        <extensions>
          <ns3:TrackPointExtension>
            <ns3:hr>98</ns3:hr>
            <ns3:cad>48</ns3:cad>
          </ns3:TrackPointExtension>
        </extensions>
      </trkpt>
      <trkpt lat="43.48050956614315509796142578125" lon="1.45437444560229778289794921875">
        <ele>200.8000030517578125</ele>
        <time>2026-08-05T08:34:25.000Z</time>
        <extensions>
          <ns3:TrackPointExtension>
            <ns3:hr>98</ns3:hr>
            <ns3:cad>47</ns3:cad>
          </ns3:TrackPointExtension>
        </extensions>
      </trkpt>
      <trkpt lat="43.4805187024176120758056640625" lon="1.45436723716557025909423828125">
        <ele>200.8000030517578125</ele>
        <time>2026-08-05T08:34:26.000Z</time>
        <extensions>
          <ns3:TrackPointExtension>
            <ns3:hr>98</ns3:hr>
            <ns3:cad>46</ns3:cad>
          </ns3:TrackPointExtension>
        </extensions>
      </trkpt>
      <trkpt lat="43.48052834160625934600830078125" lon="1.4543572627007961273193359375">
        <ele>200.8000030517578125</ele>
        <time>2026-08-05T08:34:27.000Z</time>
        <extensions>
          <ns3:TrackPointExtension>
            <ns3:hr>98</ns3:hr>
            <ns3:cad>45</ns3:cad>
          </ns3:TrackPointExtension>
        </extensions>
      </trkpt>
      <trkpt lat="43.4805347956717014312744140625" lon="1.45435013808310031890869140625">
        <ele>200.8000030517578125</ele>
        <time>2026-08-05T08:34:28.000Z</time>
        <extensions>
          <ns3:TrackPointExtension>
            <ns3:hr>99</ns3:hr>
            <ns3:cad>45</ns3:cad>
          </ns3:TrackPointExtension>
        </extensions>
      </trkpt>
      <trkpt lat="43.48054259084165096282958984375" lon="1.45434544421732425689697265625">
        <ele>201</ele>
        <time>2026-08-05T08:34:29.000Z</time>
        <extensions>
          <ns3:TrackPointExtension>
            <ns3:hr>100</ns3:hr>
            <ns3:cad>45</ns3:cad>
          </ns3:TrackPointExtension>
        </extensions>
      </trkpt>
      <trkpt lat="43.48055281676352024078369140625" lon="1.454336978495121002197265625">
        <ele>201</ele>
        <time>2026-08-05T08:34:30.000Z</time>
        <extensions>
          <ns3:TrackPointExtension>
            <ns3:hr>101</ns3:hr>
            <ns3:cad>45</ns3:cad>
          </ns3:TrackPointExtension>
        </extensions>
      </trkpt>
      <trkpt lat="43.480563461780548095703125" lon="1.4543270878493785858154296875">
        <ele>201.1999969482421875</ele>
        <time>2026-08-05T08:34:31.000Z</time>
        <extensions>
          <ns3:TrackPointExtension>
            <ns3:hr>102</ns3:hr>
            <ns3:cad>46</ns3:cad>
          </ns3:TrackPointExtension>
        </extensions>
      </trkpt>
      <trkpt lat="43.480572514235973358154296875" lon="1.45431719720363616943359375">
        <ele>201.1999969482421875</ele>
        <time>2026-08-05T08:34:32.000Z</time>
        <extensions>
          <ns3:TrackPointExtension>
            <ns3:hr>103</ns3:hr>
            <ns3:cad>47</ns3:cad>
          </ns3:TrackPointExtension>
        </extensions>
      </trkpt>
      <trkpt lat="43.4805797226727008819580078125" lon="1.45430940203368663787841796875">
        <ele>201.1999969482421875</ele>
        <time>2026-08-05T08:34:33.000Z</time>
        <extensions>
          <ns3:TrackPointExtension>
            <ns3:hr>105</ns3:hr>
            <ns3:cad>47</ns3:cad>
          </ns3:TrackPointExtension>
        </extensions>
      </trkpt>
      <trkpt lat="43.4805904515087604522705078125" lon="1.45430336706340312957763671875">
        <ele>201.399993896484375</ele>
        <time>2026-08-05T08:34:34.000Z</time>
        <extensions>
          <ns3:TrackPointExtension>
            <ns3:hr>105</ns3:hr>
            <ns3:cad>47</ns3:cad>
          </ns3:TrackPointExtension>
        </extensions>
      </trkpt>
      <trkpt lat="43.480596654117107391357421875" lon="1.4542989246547222137451171875">
        <ele>201.399993896484375</ele>
        <time>2026-08-05T08:34:35.000Z</time>
        <extensions>
          <ns3:TrackPointExtension>
            <ns3:hr>105</ns3:hr>
            <ns3:cad>47</ns3:cad>
          </ns3:TrackPointExtension>
        </extensions>
      </trkpt>
      <trkpt lat="43.48060327582061290740966796875" lon="1.45429230295121669769287109375">
        <ele>201.399993896484375</ele>
        <time>2026-08-05T08:34:36.000Z</time>
        <extensions>
          <ns3:TrackPointExtension>
            <ns3:hr>105</ns3:hr>
            <ns3:cad>47</ns3:cad>
          </ns3:TrackPointExtension>
        </extensions>
      </trkpt>
      <trkpt lat="43.480606712400913238525390625" lon="1.4542888663709163665771484375">
        <ele>201.399993896484375</ele>
        <time>2026-08-05T08:34:37.000Z</time>
        <extensions>
          <ns3:TrackPointExtension>
            <ns3:hr>105</ns3:hr>
            <ns3:cad>47</ns3:cad>
          </ns3:TrackPointExtension>
        </extensions>
      </trkpt>
      <trkpt lat="43.4806112386286258697509765625" lon="1.4542794786393642425537109375">
        <ele>201.399993896484375</ele>
        <time>2026-08-05T08:34:38.000Z</time>
        <extensions>
          <ns3:TrackPointExtension>
            <ns3:hr>105</ns3:hr>
            <ns3:cad>47</ns3:cad>
          </ns3:TrackPointExtension>
        </extensions>
      </trkpt>
      <trkpt lat="43.4806184470653533935546875" lon="1.45426799543201923370361328125">
        <ele>201.399993896484375</ele>
        <time>2026-08-05T08:34:39.000Z</time>
        <extensions>
          <ns3:TrackPointExtension>
            <ns3:hr>105</ns3:hr>
            <ns3:cad>46</ns3:cad>
          </ns3:TrackPointExtension>
        </extensions>
      </trkpt>
      <trkpt lat="43.480624146759510040283203125" lon="1.454259194433689117431640625">
        <ele>201.399993896484375</ele>
        <time>2026-08-05T08:34:40.000Z</time>
        <extensions>
          <ns3:TrackPointExtension>
            <ns3:hr>105</ns3:hr>
            <ns3:cad>43</ns3:cad>
          </ns3:TrackPointExtension>
        </extensions>
      </trkpt>
      <trkpt lat="43.48062925972044467926025390625" lon="1.4542546682059764862060546875">
        <ele>201.399993896484375</ele>
        <time>2026-08-05T08:34:41.000Z</time>
        <extensions>
          <ns3:TrackPointExtension>
            <ns3:hr>105</ns3:hr>
            <ns3:cad>41</ns3:cad>
          </ns3:TrackPointExtension>
        </extensions>
      </trkpt>
      <trkpt lat="43.48063680343329906463623046875" lon="1.45424519665539264678955078125">
        <ele>201.399993896484375</ele>
        <time>2026-08-05T08:34:42.000Z</time>
        <extensions>
          <ns3:TrackPointExtension>
            <ns3:hr>104</ns3:hr>
            <ns3:cad>45</ns3:cad>
          </ns3:TrackPointExtension>
        </extensions>
      </trkpt>
      <trkpt lat="43.4806444309651851654052734375" lon="1.45423530600965023040771484375">
        <ele>201.399993896484375</ele>
        <time>2026-08-05T08:34:43.000Z</time>
        <extensions>
          <ns3:TrackPointExtension>
            <ns3:hr>104</ns3:hr>
            <ns3:cad>45</ns3:cad>
          </ns3:TrackPointExtension>
        </extensions>
      </trkpt>
      <trkpt lat="43.48064820282161235809326171875" lon="1.45422524772584438323974609375">
        <ele>201.600006103515625</ele>
        <time>2026-08-05T08:34:44.000Z</time>
        <extensions>
          <ns3:TrackPointExtension>
            <ns3:hr>104</ns3:hr>
            <ns3:cad>45</ns3:cad>
          </ns3:TrackPointExtension>
        </extensions>
      </trkpt>
      <trkpt lat="43.4806601889431476593017578125" lon="1.454216279089450836181640625">
        <ele>201.600006103515625</ele>
        <time>2026-08-05T08:34:45.000Z</time>
        <extensions>
          <ns3:TrackPointExtension>
            <ns3:hr>104</ns3:hr>
            <ns3:cad>46</ns3:cad>
          </ns3:TrackPointExtension>
        </extensions>
      </trkpt>
      <trkpt lat="43.4806658886373043060302734375" lon="1.4542070589959621429443359375">
        <ele>201.600006103515625</ele>
        <time>2026-08-05T08:34:46.000Z</time>
        <extensions>
          <ns3:TrackPointExtension>
            <ns3:hr>104</ns3:hr>
            <ns3:cad>46</ns3:cad>
          </ns3:TrackPointExtension>
        </extensions>
      </trkpt>
      <trkpt lat="43.48067720420658588409423828125" lon="1.45419272594153881072998046875">
        <ele>201.600006103515625</ele>
        <time>2026-08-05T08:34:47.000Z</time>
        <extensions>
          <ns3:TrackPointExtension>
            <ns3:hr>104</ns3:hr>
            <ns3:cad>47</ns3:cad>
          </ns3:TrackPointExtension>
        </extensions>
      </trkpt>
      <trkpt lat="43.480685837566852569580078125" lon="1.45417965017259120941162109375">
        <ele>201.600006103515625</ele>
        <time>2026-08-05T08:34:48.000Z</time>
        <extensions>
          <ns3:TrackPointExtension>
            <ns3:hr>104</ns3:hr>
            <ns3:cad>47</ns3:cad>
          </ns3:TrackPointExtension>
        </extensions>
      </trkpt>
      <trkpt lat="43.48069245927035808563232421875" lon="1.454166658222675323486328125">
        <ele>201.399993896484375</ele>
        <time>2026-08-05T08:34:49.000Z</time>
        <extensions>
          <ns3:TrackPointExtension>
            <ns3:hr>104</ns3:hr>
            <ns3:cad>46</ns3:cad>
          </ns3:TrackPointExtension>
        </extensions>
      </trkpt>
      <trkpt lat="43.4806967340409755706787109375" lon="1.454157270491123199462890625">
        <ele>201.399993896484375</ele>
        <time>2026-08-05T08:34:50.000Z</time>
        <extensions>
          <ns3:TrackPointExtension>
            <ns3:hr>103</ns3:hr>
            <ns3:cad>46</ns3:cad>
          </ns3:TrackPointExtension>
        </extensions>
      </trkpt>
      <trkpt lat="43.48070402629673480987548828125" lon="1.4541470445692539215087890625">
        <ele>201.399993896484375</ele>
        <time>2026-08-05T08:34:51.000Z</time>
        <extensions>
          <ns3:TrackPointExtension>
            <ns3:hr>103</ns3:hr>
            <ns3:cad>47</ns3:cad>
          </ns3:TrackPointExtension>
        </extensions>
      </trkpt>
      <trkpt lat="43.480713665485382080078125" lon="1.4541400037705898284912109375">
        <ele>201.399993896484375</ele>
        <time>2026-08-05T08:34:52.000Z</time>
        <extensions>
          <ns3:TrackPointExtension>
            <ns3:hr>103</ns3:hr>
            <ns3:cad>47</ns3:cad>
          </ns3:TrackPointExtension>
        </extensions>
      </trkpt>
      <trkpt lat="43.48072129301726818084716796875" lon="1.45412902347743511199951171875">
        <ele>201.399993896484375</ele>
        <time>2026-08-05T08:34:53.000Z</time>
        <extensions>
          <ns3:TrackPointExtension>
            <ns3:hr>103</ns3:hr>
            <ns3:cad>47</ns3:cad>
          </ns3:TrackPointExtension>
        </extensions>
      </trkpt>
      <trkpt lat="43.48072774708271026611328125" lon="1.45411963574588298797607421875">
        <ele>201.399993896484375</ele>
        <time>2026-08-05T08:34:54.000Z</time>
        <extensions>
          <ns3:TrackPointExtension>
            <ns3:hr>103</ns3:hr>
            <ns3:cad>47</ns3:cad>
          </ns3:TrackPointExtension>
        </extensions>
      </trkpt>
      <trkpt lat="43.4807339496910572052001953125" lon="1.4541131816804409027099609375">
        <ele>201.399993896484375</ele>
        <time>2026-08-05T08:34:55.000Z</time>
        <extensions>
          <ns3:TrackPointExtension>
            <ns3:hr>102</ns3:hr>
            <ns3:cad>47</ns3:cad>
          </ns3:TrackPointExtension>
        </extensions>
      </trkpt>
      <trkpt lat="43.48074325360357761383056640625" lon="1.4541024528443813323974609375">
        <ele>201.399993896484375</ele>
        <time>2026-08-05T08:34:56.000Z</time>
        <extensions>
          <ns3:TrackPointExtension>
            <ns3:hr>102</ns3:hr>
            <ns3:cad>48</ns3:cad>
          </ns3:TrackPointExtension>
        </extensions>
      </trkpt>
      <trkpt lat="43.48074828274548053741455078125" lon="1.454087197780609130859375">
        <ele>201.600006103515625</ele>
        <time>2026-08-05T08:34:57.000Z</time>
        <extensions>
          <ns3:TrackPointExtension>
            <ns3:hr>102</ns3:hr>
            <ns3:cad>48</ns3:cad>
          </ns3:TrackPointExtension>
        </extensions>
      </trkpt>
      <trkpt lat="43.4807552397251129150390625" lon="1.45407621748745441436767578125">
        <ele>201.600006103515625</ele>
        <time>2026-08-05T08:34:58.000Z</time>
        <extensions>
          <ns3:TrackPointExtension>
            <ns3:hr>102</ns3:hr>
            <ns3:cad>48</ns3:cad>
          </ns3:TrackPointExtension>
        </extensions>
      </trkpt>
      <trkpt lat="43.48076370544731616973876953125" lon="1.45406548865139484405517578125">
        <ele>201.600006103515625</ele>
        <time>2026-08-05T08:34:59.000Z</time>
        <extensions>
          <ns3:TrackPointExtension>
            <ns3:hr>102</ns3:hr>
            <ns3:cad>48</ns3:cad>
          </ns3:TrackPointExtension>
        </extensions>
      </trkpt>
      <trkpt lat="43.4807715006172657012939453125" lon="1.45405677147209644317626953125">
        <ele>201.600006103515625</ele>
        <time>2026-08-05T08:35:00.000Z</time>
        <extensions>
          <ns3:TrackPointExtension>
            <ns3:hr>101</ns3:hr>
            <ns3:cad>48</ns3:cad>
          </ns3:TrackPointExtension>
        </extensions>
      </trkpt>
      <trkpt lat="43.480778038501739501953125" lon="1.45404721610248088836669921875">
        <ele>201.600006103515625</ele>
        <time>2026-08-05T08:35:01.000Z</time>
        <extensions>
          <ns3:TrackPointExtension>
            <ns3:hr>101</ns3:hr>
            <ns3:cad>48</ns3:cad>
          </ns3:TrackPointExtension>
        </extensions>
      </trkpt>
      <trkpt lat="43.4807860851287841796875" lon="1.454033218324184417724609375">
        <ele>201.600006103515625</ele>
        <time>2026-08-05T08:35:02.000Z</time>
        <extensions>
          <ns3:TrackPointExtension>
            <ns3:hr>100</ns3:hr>
            <ns3:cad>51</ns3:cad>
          </ns3:TrackPointExtension>
        </extensions>
      </trkpt>
      <trkpt lat="43.48079354502260684967041015625" lon="1.4540223218500614166259765625">
        <ele>201.600006103515625</ele>
        <time>2026-08-05T08:35:03.000Z</time>
        <extensions>
          <ns3:TrackPointExtension>
            <ns3:hr>97</ns3:hr>
            <ns3:cad>51</ns3:cad>
          </ns3:TrackPointExtension>
        </extensions>
      </trkpt>
      <trkpt lat="43.48080008290708065032958984375" lon="1.45401184447109699249267578125">
        <ele>201.600006103515625</ele>
        <time>2026-08-05T08:35:04.000Z</time>
        <extensions>
          <ns3:TrackPointExtension>
            <ns3:hr>96</ns3:hr>
            <ns3:cad>48</ns3:cad>
          </ns3:TrackPointExtension>
        </extensions>
      </trkpt>
      <trkpt lat="43.48080427385866641998291015625" lon="1.45400178618729114532470703125">
        <ele>201.600006103515625</ele>
        <time>2026-08-05T08:35:05.000Z</time>
        <extensions>
          <ns3:TrackPointExtension>
            <ns3:hr>89</ns3:hr>
            <ns3:cad>48</ns3:cad>
          </ns3:TrackPointExtension>
        </extensions>
      </trkpt>
      <trkpt lat="43.48080880008637905120849609375" lon="1.453990638256072998046875">
        <ele>201.600006103515625</ele>
        <time>2026-08-05T08:35:06.000Z</time>
        <extensions>
          <ns3:TrackPointExtension>
            <ns3:hr>86</ns3:hr>
            <ns3:cad>47</ns3:cad>
          </ns3:TrackPointExtension>
        </extensions>
      </trkpt>
      <trkpt lat="43.48081466741859912872314453125" lon="1.45397881977260112762451171875">
        <ele>201.600006103515625</ele>
        <time>2026-08-05T08:35:07.000Z</time>
        <extensions>
          <ns3:TrackPointExtension>
            <ns3:hr>84</ns3:hr>
            <ns3:cad>47</ns3:cad>
          </ns3:TrackPointExtension>
        </extensions>
      </trkpt>
      <trkpt lat="43.48082170821726322174072265625" lon="1.4539670012891292572021484375">
        <ele>201.600006103515625</ele>
        <time>2026-08-05T08:35:08.000Z</time>
        <extensions>
          <ns3:TrackPointExtension>
            <ns3:hr>83</ns3:hr>
            <ns3:cad>48</ns3:cad>
          </ns3:TrackPointExtension>
        </extensions>
      </trkpt>
      <trkpt lat="43.48082807846367359161376953125" lon="1.45395652391016483306884765625">
        <ele>201.600006103515625</ele>
        <time>2026-08-05T08:35:09.000Z</time>
        <extensions>
          <ns3:TrackPointExtension>
            <ns3:hr>83</ns3:hr>
            <ns3:cad>48</ns3:cad>
          </ns3:TrackPointExtension>
        </extensions>
      </trkpt>
      <trkpt lat="43.48083394579589366912841796875" lon="1.45394445396959781646728515625">
        <ele>201.600006103515625</ele>
        <time>2026-08-05T08:35:10.000Z</time>
        <extensions>
          <ns3:TrackPointExtension>
            <ns3:hr>83</ns3:hr>
            <ns3:cad>48</ns3:cad>
          </ns3:TrackPointExtension>
        </extensions>
      </trkpt>
      <trkpt lat="43.480838723480701446533203125" lon="1.453931629657745361328125">
        <ele>201.600006103515625</ele>
        <time>2026-08-05T08:35:11.000Z</time>
        <extensions>
          <ns3:TrackPointExtension>
            <ns3:hr>83</ns3:hr>
            <ns3:cad>48</ns3:cad>
          </ns3:TrackPointExtension>
        </extensions>
      </trkpt>
      <trkpt lat="43.48084350116550922393798828125" lon="1.453917883336544036865234375">
        <ele>201.600006103515625</ele>
        <time>2026-08-05T08:35:12.000Z</time>
        <extensions>
          <ns3:TrackPointExtension>
            <ns3:hr>83</ns3:hr>
            <ns3:cad>48</ns3:cad>
          </ns3:TrackPointExtension>
        </extensions>
      </trkpt>
      <trkpt lat="43.48085020668804645538330078125" lon="1.45390413701534271240234375">
        <ele>201.600006103515625</ele>
        <time>2026-08-05T08:35:13.000Z</time>
        <extensions>
          <ns3:TrackPointExtension>
            <ns3:hr>84</ns3:hr>
            <ns3:cad>48</ns3:cad>
          </ns3:TrackPointExtension>
        </extensions>
      </trkpt>
      <trkpt lat="43.48085490055382251739501953125" lon="1.45389315672218799591064453125">
        <ele>201.8000030517578125</ele>
        <time>2026-08-05T08:35:14.000Z</time>
        <extensions>
          <ns3:TrackPointExtension>
            <ns3:hr>84</ns3:hr>
            <ns3:cad>47</ns3:cad>
          </ns3:TrackPointExtension>
        </extensions>
      </trkpt>
      <trkpt lat="43.4808580018579959869384765625" lon="1.45388175733387470245361328125">
        <ele>201.8000030517578125</ele>
        <time>2026-08-05T08:35:15.000Z</time>
        <extensions>
          <ns3:TrackPointExtension>
            <ns3:hr>84</ns3:hr>
            <ns3:cad>47</ns3:cad>
          </ns3:TrackPointExtension>
        </extensions>
      </trkpt>
      <trkpt lat="43.480861186981201171875" lon="1.45387052558362483978271484375">
        <ele>201.8000030517578125</ele>
        <time>2026-08-05T08:35:16.000Z</time>
        <extensions>
          <ns3:TrackPointExtension>
            <ns3:hr>83</ns3:hr>
            <ns3:cad>47</ns3:cad>
          </ns3:TrackPointExtension>
        </extensions>
      </trkpt>
      <trkpt lat="43.48086512647569179534912109375" lon="1.4538607187569141387939453125">
        <ele>201.8000030517578125</ele>
        <time>2026-08-05T08:35:17.000Z</time>
        <extensions>
          <ns3:TrackPointExtension>
            <ns3:hr>83</ns3:hr>
            <ns3:cad>48</ns3:cad>
          </ns3:TrackPointExtension>
        </extensions>
      </trkpt>
      <trkpt lat="43.4808705747127532958984375" lon="1.45385208539664745330810546875">
        <ele>201.8000030517578125</ele>
        <time>2026-08-05T08:35:18.000Z</time>
        <extensions>
          <ns3:TrackPointExtension>
            <ns3:hr>83</ns3:hr>
            <ns3:cad>0</ns3:cad>
          </ns3:TrackPointExtension>
        </extensions>
      </trkpt>
      <trkpt lat="43.480870909988880157470703125" lon="1.45384420640766620635986328125">
        <ele>201.8000030517578125</ele>
        <time>2026-08-05T08:35:19.000Z</time>
        <extensions>
          <ns3:TrackPointExtension>
            <ns3:hr>83</ns3:hr>
            <ns3:cad>0</ns3:cad>
          </ns3:TrackPointExtension>
        </extensions>
      </trkpt>
      <trkpt lat="43.48087233491241931915283203125" lon="1.45383615978062152862548828125">
        <ele>201.8000030517578125</ele>
        <time>2026-08-05T08:35:20.000Z</time>
        <extensions>
          <ns3:TrackPointExtension>
            <ns3:hr>83</ns3:hr>
            <ns3:cad>0</ns3:cad>
          </ns3:TrackPointExtension>
        </extensions>
      </trkpt>
      <trkpt lat="43.48087015561759471893310546875" lon="1.4538308791816234588623046875">
        <ele>201.8000030517578125</ele>
        <time>2026-08-05T08:35:21.000Z</time>
        <extensions>
          <ns3:TrackPointExtension>
            <ns3:hr>83</ns3:hr>
            <ns3:cad>0</ns3:cad>
          </ns3:TrackPointExtension>
        </extensions>
      </trkpt>
      <trkpt lat="43.48086797632277011871337890625" lon="1.45382693968713283538818359375">
        <ele>201.8000030517578125</ele>
        <time>2026-08-05T08:35:22.000Z</time>
        <extensions>
          <ns3:TrackPointExtension>
            <ns3:hr>83</ns3:hr>
            <ns3:cad>0</ns3:cad>
          </ns3:TrackPointExtension>
        </extensions>
      </trkpt>
      <trkpt lat="43.4808637015521526336669921875" lon="1.45382442511618137359619140625">
        <ele>201.8000030517578125</ele>
        <time>2026-08-05T08:35:23.000Z</time>
        <extensions>
          <ns3:TrackPointExtension>
            <ns3:hr>83</ns3:hr>
            <ns3:cad>0</ns3:cad>
          </ns3:TrackPointExtension>
        </extensions>
      </trkpt>
      <trkpt lat="43.480858504772186279296875" lon="1.45381939597427845001220703125">
        <ele>202</ele>
        <time>2026-08-05T08:35:24.000Z</time>
        <extensions>
          <ns3:TrackPointExtension>
            <ns3:hr>82</ns3:hr>
            <ns3:cad>0</ns3:cad>
          </ns3:TrackPointExtension>
        </extensions>
      </trkpt>
      <trkpt lat="43.4808546490967273712158203125" lon="1.45381294190883636474609375">
        <ele>202</ele>
        <time>2026-08-05T08:35:25.000Z</time>
        <extensions>
          <ns3:TrackPointExtension>
            <ns3:hr>82</ns3:hr>
            <ns3:cad>0</ns3:cad>
          </ns3:TrackPointExtension>
        </extensions>
      </trkpt>
      <trkpt lat="43.48084853030741214752197265625" lon="1.4538090862333774566650390625">
        <ele>202</ele>
        <time>2026-08-05T08:35:26.000Z</time>
        <extensions>
          <ns3:TrackPointExtension>
            <ns3:hr>82</ns3:hr>
            <ns3:cad>0</ns3:cad>
          </ns3:TrackPointExtension>
        </extensions>
      </trkpt>
      <trkpt lat="43.48083914257586002349853515625" lon="1.453805901110172271728515625">
        <ele>202</ele>
        <time>2026-08-05T08:35:27.000Z</time>
        <extensions>
          <ns3:TrackPointExtension>
            <ns3:hr>82</ns3:hr>
            <ns3:cad>0</ns3:cad>
          </ns3:TrackPointExtension>
        </extensions>
      </trkpt>
      <trkpt lat="43.48083143122494220733642578125" lon="1.45380196161568164825439453125">
        <ele>202.1999969482421875</ele>
        <time>2026-08-05T08:35:28.000Z</time>
        <extensions>
          <ns3:TrackPointExtension>
            <ns3:hr>82</ns3:hr>
            <ns3:cad>40</ns3:cad>
          </ns3:TrackPointExtension>
        </extensions>
      </trkpt>
      <trkpt lat="43.480825982987880706787109375" lon="1.45379827357828617095947265625">
        <ele>202.1999969482421875</ele>
        <time>2026-08-05T08:35:29.000Z</time>
        <extensions>
          <ns3:TrackPointExtension>
            <ns3:hr>83</ns3:hr>
            <ns3:cad>40</ns3:cad>
          </ns3:TrackPointExtension>
        </extensions>
      </trkpt>
      <trkpt lat="43.4808211214840412139892578125" lon="1.45379542373120784759521484375">
        <ele>202.1999969482421875</ele>
        <time>2026-08-05T08:35:30.000Z</time>
        <extensions>
          <ns3:TrackPointExtension>
            <ns3:hr>83</ns3:hr>
            <ns3:cad>41</ns3:cad>
          </ns3:TrackPointExtension>
        </extensions>
      </trkpt>
      <trkpt lat="43.48081500269472599029541015625" lon="1.453792490065097808837890625">
        <ele>202.1999969482421875</ele>
        <time>2026-08-05T08:35:31.000Z</time>
        <extensions>
          <ns3:TrackPointExtension>
            <ns3:hr>85</ns3:hr>
            <ns3:cad>79</ns3:cad>
          </ns3:TrackPointExtension>
        </extensions>
      </trkpt>
      <trkpt lat="43.480809219181537628173828125" lon="1.45379324443638324737548828125">
        <ele>202.1999969482421875</ele>
        <time>2026-08-05T08:35:32.000Z</time>
        <extensions>
          <ns3:TrackPointExtension>
            <ns3:hr>88</ns3:hr>
            <ns3:cad>79</ns3:cad>
          </ns3:TrackPointExtension>
        </extensions>
      </trkpt>
      <trkpt lat="43.48080142401158809661865234375" lon="1.45379710011184215545654296875">
        <ele>202.1999969482421875</ele>
        <time>2026-08-05T08:35:33.000Z</time>
        <extensions>
          <ns3:TrackPointExtension>
            <ns3:hr>89</ns3:hr>
            <ns3:cad>40</ns3:cad>
          </ns3:TrackPointExtension>
        </extensions>
      </trkpt>
      <trkpt lat="43.48079455085098743438720703125" lon="1.45379978232085704803466796875">
        <ele>202.1999969482421875</ele>
        <time>2026-08-05T08:35:34.000Z</time>
        <extensions>
          <ns3:TrackPointExtension>
            <ns3:hr>89</ns3:hr>
            <ns3:cad>40</ns3:cad>
          </ns3:TrackPointExtension>
        </extensions>
      </trkpt>
      <trkpt lat="43.48078616894781589508056640625" lon="1.45380355417728424072265625">
        <ele>202.399993896484375</ele>
        <time>2026-08-05T08:35:35.000Z</time>
        <extensions>
          <ns3:TrackPointExtension>
            <ns3:hr>89</ns3:hr>
            <ns3:cad>40</ns3:cad>
          </ns3:TrackPointExtension>
        </extensions>
      </trkpt>
      <trkpt lat="43.48077334463596343994140625" lon="1.4538057334721088409423828125">
        <ele>202.399993896484375</ele>
        <time>2026-08-05T08:35:36.000Z</time>
        <extensions>
          <ns3:TrackPointExtension>
            <ns3:hr>89</ns3:hr>
            <ns3:cad>79</ns3:cad>
          </ns3:TrackPointExtension>
        </extensions>
      </trkpt>
      <trkpt lat="43.48076286725699901580810546875" lon="1.45380816422402858734130859375">
        <ele>202.399993896484375</ele>
        <time>2026-08-05T08:35:37.000Z</time>
        <extensions>
          <ns3:TrackPointExtension>
            <ns3:hr>88</ns3:hr>
            <ns3:cad>79</ns3:cad>
          </ns3:TrackPointExtension>
        </extensions>
      </trkpt>
      <trkpt lat="43.48075280897319316864013671875" lon="1.453812606632709503173828125">
        <ele>202.399993896484375</ele>
        <time>2026-08-05T08:35:38.000Z</time>
        <extensions>
          <ns3:TrackPointExtension>
            <ns3:hr>88</ns3:hr>
            <ns3:cad>79</ns3:cad>
          </ns3:TrackPointExtension>
        </extensions>
      </trkpt>
      <trkpt lat="43.4807466901838779449462890625" lon="1.45381428301334381103515625">
        <ele>202.399993896484375</ele>
        <time>2026-08-05T08:35:39.000Z</time>
        <extensions>
          <ns3:TrackPointExtension>
            <ns3:hr>88</ns3:hr>
            <ns3:cad>43</ns3:cad>
          </ns3:TrackPointExtension>
        </extensions>
      </trkpt>
      <trkpt lat="43.48075054585933685302734375" lon="1.45381352864205837249755859375">
        <ele>202.600006103515625</ele>
        <time>2026-08-05T08:35:40.000Z</time>
        <extensions>
          <ns3:TrackPointExtension>
            <ns3:hr>87</ns3:hr>
            <ns3:cad>0</ns3:cad>
          </ns3:TrackPointExtension>
        </extensions>
      </trkpt>
      <trkpt lat="43.48075230605900287628173828125" lon="1.45381218753755092620849609375">
        <ele>202.600006103515625</ele>
        <time>2026-08-05T08:35:41.000Z</time>
        <extensions>
          <ns3:TrackPointExtension>
            <ns3:hr>87</ns3:hr>
            <ns3:cad>0</ns3:cad>
          </ns3:TrackPointExtension>
        </extensions>
      </trkpt>
      <trkpt lat="43.48075280897319316864013671875" lon="1.4538124389946460723876953125">
        <ele>202.600006103515625</ele>
        <time>2026-08-05T08:35:42.000Z</time>
        <extensions>
          <ns3:TrackPointExtension>
            <ns3:hr>87</ns3:hr>
            <ns3:cad>0</ns3:cad>
          </ns3:TrackPointExtension>
        </extensions>
      </trkpt>
      <trkpt lat="43.4807527251541614532470703125" lon="1.4538124389946460723876953125">
        <ele>202.600006103515625</ele>
        <time>2026-08-05T08:35:43.000Z</time>
        <extensions>
          <ns3:TrackPointExtension>
            <ns3:hr>87</ns3:hr>
            <ns3:cad>0</ns3:cad>
          </ns3:TrackPointExtension>
        </extensions>
      </trkpt>
      <trkpt lat="43.4807527251541614532470703125" lon="1.4538124389946460723876953125">
        <ele>202.8000030517578125</ele>
        <time>2026-08-05T08:35:44.000Z</time>
        <extensions>
          <ns3:TrackPointExtension>
            <ns3:hr>87</ns3:hr>
            <ns3:cad>0</ns3:cad>
          </ns3:TrackPointExtension>
        </extensions>
      </trkpt>
      <trkpt lat="43.48075247369706630706787109375" lon="1.4538122713565826416015625">
        <ele>202.8000030517578125</ele>
        <time>2026-08-05T08:35:45.000Z</time>
        <extensions>
          <ns3:TrackPointExtension>
            <ns3:hr>87</ns3:hr>
            <ns3:cad>0</ns3:cad>
          </ns3:TrackPointExtension>
        </extensions>
      </trkpt>
      <trkpt lat="43.48074694164097309112548828125" lon="1.45381352864205837249755859375">
        <ele>202.8000030517578125</ele>
        <time>2026-08-05T08:35:46.000Z</time>
        <extensions>
          <ns3:TrackPointExtension>
            <ns3:hr>87</ns3:hr>
            <ns3:cad>0</ns3:cad>
          </ns3:TrackPointExtension>
        </extensions>
      </trkpt>
      <trkpt lat="43.48074476234614849090576171875" lon="1.45381025969982147216796875">
        <ele>202.8000030517578125</ele>
        <time>2026-08-05T08:35:47.000Z</time>
        <extensions>
          <ns3:TrackPointExtension>
            <ns3:hr>87</ns3:hr>
            <ns3:cad>0</ns3:cad>
          </ns3:TrackPointExtension>
        </extensions>
      </trkpt>
      <trkpt lat="43.48074342124164104461669921875" lon="1.45381160080432891845703125">
        <ele>202.600006103515625</ele>
        <time>2026-08-05T08:35:48.000Z</time>
        <extensions>
          <ns3:TrackPointExtension>
            <ns3:hr>87</ns3:hr>
            <ns3:cad>0</ns3:cad>
          </ns3:TrackPointExtension>
        </extensions>
      </trkpt>
      <trkpt lat="43.480744175612926483154296875" lon="1.45381025969982147216796875">
        <ele>202.600006103515625</ele>
        <time>2026-08-05T08:35:49.000Z</time>
        <extensions>
          <ns3:TrackPointExtension>
            <ns3:hr>87</ns3:hr>
            <ns3:cad>0</ns3:cad>
          </ns3:TrackPointExtension>
        </extensions>
      </trkpt>
      <trkpt lat="43.4807352907955646514892578125" lon="1.45381503738462924957275390625">
        <ele>202.600006103515625</ele>
        <time>2026-08-05T08:35:50.000Z</time>
        <extensions>
          <ns3:TrackPointExtension>
            <ns3:hr>87</ns3:hr>
            <ns3:cad>0</ns3:cad>
          </ns3:TrackPointExtension>
        </extensions>
      </trkpt>
      <trkpt lat="43.4807252325117588043212890625" lon="1.45381989888846874237060546875">
        <ele>202.600006103515625</ele>
        <time>2026-08-05T08:35:51.000Z</time>
        <extensions>
          <ns3:TrackPointExtension>
            <ns3:hr>87</ns3:hr>
            <ns3:cad>0</ns3:cad>
          </ns3:TrackPointExtension>
        </extensions>
      </trkpt>
      <trkpt lat="43.480714000761508941650390625" lon="1.45382232964038848876953125">
        <ele>202.600006103515625</ele>
        <time>2026-08-05T08:35:52.000Z</time>
        <extensions>
          <ns3:TrackPointExtension>
            <ns3:hr>87</ns3:hr>
            <ns3:cad>0</ns3:cad>
          </ns3:TrackPointExtension>
        </extensions>
      </trkpt>
      <trkpt lat="43.48070922307670116424560546875" lon="1.4538198150694370269775390625">
        <ele>202.600006103515625</ele>
        <time>2026-08-05T08:35:53.000Z</time>
        <extensions>
          <ns3:TrackPointExtension>
            <ns3:hr>86</ns3:hr>
            <ns3:cad>50</ns3:cad>
          </ns3:TrackPointExtension>
        </extensions>
      </trkpt>
      <trkpt lat="43.4807007573544979095458984375" lon="1.45381906069815158843994140625">
        <ele>202.8000030517578125</ele>
        <time>2026-08-05T08:35:54.000Z</time>
        <extensions>
          <ns3:TrackPointExtension>
            <ns3:hr>87</ns3:hr>
            <ns3:cad>50</ns3:cad>
          </ns3:TrackPointExtension>
        </extensions>
      </trkpt>
      <trkpt lat="43.48068617284297943115234375" lon="1.4538211561739444732666015625">
        <ele>202.8000030517578125</ele>
        <time>2026-08-05T08:35:55.000Z</time>
        <extensions>
          <ns3:TrackPointExtension>
            <ns3:hr>87</ns3:hr>
            <ns3:cad>50</ns3:cad>
          </ns3:TrackPointExtension>
        </extensions>
      </trkpt>
      <trkpt lat="43.48067485727369785308837890625" lon="1.45382274873554706573486328125">
        <ele>202.8000030517578125</ele>
        <time>2026-08-05T08:35:56.000Z</time>
        <extensions>
          <ns3:TrackPointExtension>
            <ns3:hr>87</ns3:hr>
            <ns3:cad>50</ns3:cad>
          </ns3:TrackPointExtension>
        </extensions>
      </trkpt>
      <trkpt lat="43.48066496662795543670654296875" lon="1.4538251794874668121337890625">
        <ele>202.8000030517578125</ele>
        <time>2026-08-05T08:35:57.000Z</time>
        <extensions>
          <ns3:TrackPointExtension>
            <ns3:hr>86</ns3:hr>
            <ns3:cad>44</ns3:cad>
          </ns3:TrackPointExtension>
        </extensions>
      </trkpt>
      <trkpt lat="43.48065624944865703582763671875" lon="1.4538288675248622894287109375">
        <ele>202.8000030517578125</ele>
        <time>2026-08-05T08:35:58.000Z</time>
        <extensions>
          <ns3:TrackPointExtension>
            <ns3:hr>87</ns3:hr>
            <ns3:cad>43</ns3:cad>
          </ns3:TrackPointExtension>
        </extensions>
      </trkpt>
      <trkpt lat="43.4806420840322971343994140625" lon="1.45383314229547977447509765625">
        <ele>202.8000030517578125</ele>
        <time>2026-08-05T08:35:59.000Z</time>
        <extensions>
          <ns3:TrackPointExtension>
            <ns3:hr>88</ns3:hr>
            <ns3:cad>43</ns3:cad>
          </ns3:TrackPointExtension>
        </extensions>
      </trkpt>
      <trkpt lat="43.48063110373914241790771484375" lon="1.45383314229547977447509765625">
        <ele>202.8000030517578125</ele>
        <time>2026-08-05T08:36:00.000Z</time>
        <extensions>
          <ns3:TrackPointExtension>
            <ns3:hr>89</ns3:hr>
            <ns3:cad>43</ns3:cad>
          </ns3:TrackPointExtension>
        </extensions>
      </trkpt>
      <trkpt lat="43.48062573932111263275146484375" lon="1.4538325555622577667236328125">
        <ele>202.8000030517578125</ele>
        <time>2026-08-05T08:36:01.000Z</time>
        <extensions>
          <ns3:TrackPointExtension>
            <ns3:hr>89</ns3:hr>
            <ns3:cad>44</ns3:cad>
          </ns3:TrackPointExtension>
        </extensions>
      </trkpt>
      <trkpt lat="43.4806104004383087158203125" lon="1.45383439958095550537109375">
        <ele>203</ele>
        <time>2026-08-05T08:36:02.000Z</time>
        <extensions>
          <ns3:TrackPointExtension>
            <ns3:hr>89</ns3:hr>
            <ns3:cad>44</ns3:cad>
          </ns3:TrackPointExtension>
        </extensions>
      </trkpt>
      <trkpt lat="43.480601347982883453369140625" lon="1.45383800379931926727294921875">
        <ele>203</ele>
        <time>2026-08-05T08:36:03.000Z</time>
        <extensions>
          <ns3:TrackPointExtension>
            <ns3:hr>88</ns3:hr>
            <ns3:cad>43</ns3:cad>
          </ns3:TrackPointExtension>
        </extensions>
      </trkpt>
      <trkpt lat="43.48059439100325107574462890625" lon="1.45383900962769985198974609375">
        <ele>203</ele>
        <time>2026-08-05T08:36:04.000Z</time>
        <extensions>
          <ns3:TrackPointExtension>
            <ns3:hr>88</ns3:hr>
            <ns3:cad>42</ns3:cad>
          </ns3:TrackPointExtension>
        </extensions>
      </trkpt>
      <trkpt lat="43.4805837459862232208251953125" lon="1.453840769827365875244140625">
        <ele>203</ele>
        <time>2026-08-05T08:36:05.000Z</time>
        <extensions>
          <ns3:TrackPointExtension>
            <ns3:hr>88</ns3:hr>
            <ns3:cad>42</ns3:cad>
          </ns3:TrackPointExtension>
        </extensions>
      </trkpt>
      <trkpt lat="43.48057494498789310455322265625" lon="1.453847475349903106689453125">
        <ele>203.1999969482421875</ele>
        <time>2026-08-05T08:36:06.000Z</time>
        <extensions>
          <ns3:TrackPointExtension>
            <ns3:hr>88</ns3:hr>
            <ns3:cad>44</ns3:cad>
          </ns3:TrackPointExtension>
        </extensions>
      </trkpt>
      <trkpt lat="43.4805674850940704345703125" lon="1.45385979674756526947021484375">
        <ele>203.1999969482421875</ele>
        <time>2026-08-05T08:36:07.000Z</time>
        <extensions>
          <ns3:TrackPointExtension>
            <ns3:hr>87</ns3:hr>
            <ns3:cad>44</ns3:cad>
          </ns3:TrackPointExtension>
        </extensions>
      </trkpt>
      <trkpt lat="43.48055952228605747222900390625" lon="1.45386231131851673126220703125">
        <ele>203.1999969482421875</ele>
        <time>2026-08-05T08:36:08.000Z</time>
        <extensions>
          <ns3:TrackPointExtension>
            <ns3:hr>87</ns3:hr>
            <ns3:cad>44</ns3:cad>
          </ns3:TrackPointExtension>
        </extensions>
      </trkpt>
      <trkpt lat="43.48055114038288593292236328125" lon="1.453864909708499908447265625">
        <ele>203.1999969482421875</ele>
        <time>2026-08-05T08:36:09.000Z</time>
        <extensions>
          <ns3:TrackPointExtension>
            <ns3:hr>87</ns3:hr>
            <ns3:cad>44</ns3:cad>
          </ns3:TrackPointExtension>
        </extensions>
      </trkpt>
      <trkpt lat="43.480542339384555816650390625" lon="1.4538674242794513702392578125">
        <ele>203.1999969482421875</ele>
        <time>2026-08-05T08:36:10.000Z</time>
        <extensions>
          <ns3:TrackPointExtension>
            <ns3:hr>87</ns3:hr>
            <ns3:cad>44</ns3:cad>
          </ns3:TrackPointExtension>
        </extensions>
      </trkpt>
      <trkpt lat="43.48053052090108394622802734375" lon="1.45387086085975170135498046875">
        <ele>203.399993896484375</ele>
        <time>2026-08-05T08:36:11.000Z</time>
        <extensions>
          <ns3:TrackPointExtension>
            <ns3:hr>86</ns3:hr>
            <ns3:cad>43</ns3:cad>
          </ns3:TrackPointExtension>
        </extensions>
      </trkpt>
      <trkpt lat="43.48052247427403926849365234375" lon="1.453874967992305755615234375">
        <ele>203.399993896484375</ele>
        <time>2026-08-05T08:36:12.000Z</time>
        <extensions>
          <ns3:TrackPointExtension>
            <ns3:hr>86</ns3:hr>
            <ns3:cad>0</ns3:cad>
          </ns3:TrackPointExtension>
        </extensions>
      </trkpt>
      <trkpt lat="43.48050906322896480560302734375" lon="1.45387589000165462493896484375">
        <ele>203.399993896484375</ele>
        <time>2026-08-05T08:36:13.000Z</time>
        <extensions>
          <ns3:TrackPointExtension>
            <ns3:hr>86</ns3:hr>
            <ns3:cad>0</ns3:cad>
          </ns3:TrackPointExtension>
        </extensions>
      </trkpt>
      <trkpt lat="43.480502776801586151123046875" lon="1.4538778178393840789794921875">
        <ele>203.399993896484375</ele>
        <time>2026-08-05T08:36:14.000Z</time>
        <extensions>
          <ns3:TrackPointExtension>
            <ns3:hr>85</ns3:hr>
            <ns3:cad>0</ns3:cad>
          </ns3:TrackPointExtension>
        </extensions>
      </trkpt>
      <trkpt lat="43.480496741831302642822265625" lon="1.4538841880857944488525390625">
        <ele>203.399993896484375</ele>
        <time>2026-08-05T08:36:15.000Z</time>
        <extensions>
          <ns3:TrackPointExtension>
            <ns3:hr>86</ns3:hr>
            <ns3:cad>0</ns3:cad>
          </ns3:TrackPointExtension>
        </extensions>
      </trkpt>
      <trkpt lat="43.48049213178455829620361328125" lon="1.45388795994222164154052734375">
        <ele>203.399993896484375</ele>
        <time>2026-08-05T08:36:16.000Z</time>
        <extensions>
          <ns3:TrackPointExtension>
            <ns3:hr>86</ns3:hr>
            <ns3:cad>0</ns3:cad>
          </ns3:TrackPointExtension>
        </extensions>
      </trkpt>
      <trkpt lat="43.48048743791878223419189453125" lon="1.453892402350902557373046875">
        <ele>203.399993896484375</ele>
        <time>2026-08-05T08:36:17.000Z</time>
        <extensions>
          <ns3:TrackPointExtension>
            <ns3:hr>85</ns3:hr>
            <ns3:cad>0</ns3:cad>
          </ns3:TrackPointExtension>
        </extensions>
      </trkpt>
      <trkpt lat="43.48047587089240550994873046875" lon="1.45390053279697895050048828125">
        <ele>203.399993896484375</ele>
        <time>2026-08-05T08:36:18.000Z</time>
        <extensions>
          <ns3:TrackPointExtension>
            <ns3:hr>85</ns3:hr>
            <ns3:cad>0</ns3:cad>
          </ns3:TrackPointExtension>
        </extensions>
      </trkpt>
      <trkpt lat="43.48046547733247280120849609375" lon="1.4539069868624210357666015625">
        <ele>203.399993896484375</ele>
        <time>2026-08-05T08:36:19.000Z</time>
        <extensions>
          <ns3:TrackPointExtension>
            <ns3:hr>84</ns3:hr>
            <ns3:cad>44</ns3:cad>
          </ns3:TrackPointExtension>
        </extensions>
      </trkpt>
      <trkpt lat="43.48045541904866695404052734375" lon="1.45391042344272136688232421875">
        <ele>203.399993896484375</ele>
        <time>2026-08-05T08:36:20.000Z</time>
        <extensions>
          <ns3:TrackPointExtension>
            <ns3:hr>84</ns3:hr>
            <ns3:cad>44</ns3:cad>
          </ns3:TrackPointExtension>
        </extensions>
      </trkpt>
      <trkpt lat="43.48044485785067081451416015625" lon="1.4539150334894657135009765625">
        <ele>203.399993896484375</ele>
        <time>2026-08-05T08:36:21.000Z</time>
        <extensions>
          <ns3:TrackPointExtension>
            <ns3:hr>83</ns3:hr>
            <ns3:cad>44</ns3:cad>
          </ns3:TrackPointExtension>
        </extensions>
      </trkpt>
      <trkpt lat="43.48043362610042095184326171875" lon="1.4539200626313686370849609375">
        <ele>203.600006103515625</ele>
        <time>2026-08-05T08:36:22.000Z</time>
        <extensions>
          <ns3:TrackPointExtension>
            <ns3:hr>83</ns3:hr>
            <ns3:cad>44</ns3:cad>
          </ns3:TrackPointExtension>
        </extensions>
      </trkpt>
      <trkpt lat="43.48042306490242481231689453125" lon="1.45392358303070068359375">
        <ele>203.600006103515625</ele>
        <time>2026-08-05T08:36:23.000Z</time>
        <extensions>
          <ns3:TrackPointExtension>
            <ns3:hr>83</ns3:hr>
            <ns3:cad>45</ns3:cad>
          </ns3:TrackPointExtension>
        </extensions>
      </trkpt>
      <trkpt lat="43.48041367717087268829345703125" lon="1.45392014645040035247802734375">
        <ele>203.600006103515625</ele>
        <time>2026-08-05T08:36:24.000Z</time>
        <extensions>
          <ns3:TrackPointExtension>
            <ns3:hr>82</ns3:hr>
            <ns3:cad>45</ns3:cad>
          </ns3:TrackPointExtension>
        </extensions>
      </trkpt>
      <trkpt lat="43.4804073907434940338134765625" lon="1.4539197273552417755126953125">
        <ele>203.600006103515625</ele>
        <time>2026-08-05T08:36:25.000Z</time>
        <extensions>
          <ns3:TrackPointExtension>
            <ns3:hr>82</ns3:hr>
            <ns3:cad>45</ns3:cad>
          </ns3:TrackPointExtension>
        </extensions>
      </trkpt>
      <trkpt lat="43.4803946502506732940673828125" lon="1.4539240859448909759521484375">
        <ele>203.8000030517578125</ele>
        <time>2026-08-05T08:36:26.000Z</time>
        <extensions>
          <ns3:TrackPointExtension>
            <ns3:hr>82</ns3:hr>
            <ns3:cad>46</ns3:cad>
          </ns3:TrackPointExtension>
        </extensions>
      </trkpt>
      <trkpt lat="43.48038576543331146240234375" lon="1.45392618142068386077880859375">
        <ele>203.8000030517578125</ele>
        <time>2026-08-05T08:36:27.000Z</time>
        <extensions>
          <ns3:TrackPointExtension>
            <ns3:hr>82</ns3:hr>
            <ns3:cad>47</ns3:cad>
          </ns3:TrackPointExtension>
        </extensions>
      </trkpt>
      <trkpt lat="43.4803758747875690460205078125" lon="1.453925259411334991455078125">
        <ele>203.8000030517578125</ele>
        <time>2026-08-05T08:36:28.000Z</time>
        <extensions>
          <ns3:TrackPointExtension>
            <ns3:hr>82</ns3:hr>
            <ns3:cad>47</ns3:cad>
          </ns3:TrackPointExtension>
        </extensions>
      </trkpt>
      <trkpt lat="43.480370007455348968505859375" lon="1.45392559468746185302734375">
        <ele>203.8000030517578125</ele>
        <time>2026-08-05T08:36:29.000Z</time>
        <extensions>
          <ns3:TrackPointExtension>
            <ns3:hr>81</ns3:hr>
            <ns3:cad>46</ns3:cad>
          </ns3:TrackPointExtension>
        </extensions>
      </trkpt>
      <trkpt lat="43.48036305047571659088134765625" lon="1.45392886362969875335693359375">
        <ele>204</ele>
        <time>2026-08-05T08:36:30.000Z</time>
        <extensions>
          <ns3:TrackPointExtension>
            <ns3:hr>82</ns3:hr>
            <ns3:cad>45</ns3:cad>
          </ns3:TrackPointExtension>
        </extensions>
      </trkpt>
      <trkpt lat="43.4803483821451663970947265625" lon="1.4539358206093311309814453125">
        <ele>204</ele>
        <time>2026-08-05T08:36:31.000Z</time>
        <extensions>
          <ns3:TrackPointExtension>
            <ns3:hr>81</ns3:hr>
            <ns3:cad>45</ns3:cad>
          </ns3:TrackPointExtension>
        </extensions>
      </trkpt>
      <trkpt lat="43.48034016788005828857421875" lon="1.4539388380944728851318359375">
        <ele>204</ele>
        <time>2026-08-05T08:36:32.000Z</time>
        <extensions>
          <ns3:TrackPointExtension>
            <ns3:hr>81</ns3:hr>
            <ns3:cad>45</ns3:cad>
          </ns3:TrackPointExtension>
        </extensions>
      </trkpt>
      <trkpt lat="43.4803319536149501800537109375" lon="1.45394160412251949310302734375">
        <ele>204</ele>
        <time>2026-08-05T08:36:33.000Z</time>
        <extensions>
          <ns3:TrackPointExtension>
            <ns3:hr>81</ns3:hr>
            <ns3:cad>45</ns3:cad>
          </ns3:TrackPointExtension>
        </extensions>
      </trkpt>
      <trkpt lat="43.48032432608306407928466796875" lon="1.45394763909280300140380859375">
        <ele>204</ele>
        <time>2026-08-05T08:36:34.000Z</time>
        <extensions>
          <ns3:TrackPointExtension>
            <ns3:hr>82</ns3:hr>
            <ns3:cad>45</ns3:cad>
          </ns3:TrackPointExtension>
        </extensions>
      </trkpt>
      <trkpt lat="43.48031275905668735504150390625" lon="1.4539552666246891021728515625">
        <ele>204</ele>
        <time>2026-08-05T08:36:35.000Z</time>
        <extensions>
          <ns3:TrackPointExtension>
            <ns3:hr>82</ns3:hr>
            <ns3:cad>46</ns3:cad>
          </ns3:TrackPointExtension>
        </extensions>
      </trkpt>
      <trkpt lat="43.4803054668009281158447265625" lon="1.45395719446241855621337890625">
        <ele>204</ele>
        <time>2026-08-05T08:36:36.000Z</time>
        <extensions>
          <ns3:TrackPointExtension>
            <ns3:hr>82</ns3:hr>
            <ns3:cad>46</ns3:cad>
          </ns3:TrackPointExtension>
        </extensions>
      </trkpt>
      <trkpt lat="43.4802977554500102996826171875" lon="1.4539613015949726104736328125">
        <ele>204.1999969482421875</ele>
        <time>2026-08-05T08:36:37.000Z</time>
        <extensions>
          <ns3:TrackPointExtension>
            <ns3:hr>82</ns3:hr>
            <ns3:cad>46</ns3:cad>
          </ns3:TrackPointExtension>
        </extensions>
      </trkpt>
      <trkpt lat="43.4802876971662044525146484375" lon="1.45396607927978038787841796875">
        <ele>204.1999969482421875</ele>
        <time>2026-08-05T08:36:38.000Z</time>
        <extensions>
          <ns3:TrackPointExtension>
            <ns3:hr>81</ns3:hr>
            <ns3:cad>45</ns3:cad>
          </ns3:TrackPointExtension>
        </extensions>
      </trkpt>
      <trkpt lat="43.48027587868273258209228515625" lon="1.453974880278110504150390625">
        <ele>204.1999969482421875</ele>
        <time>2026-08-05T08:36:39.000Z</time>
        <extensions>
          <ns3:TrackPointExtension>
            <ns3:hr>82</ns3:hr>
            <ns3:cad>44</ns3:cad>
          </ns3:TrackPointExtension>
        </extensions>
      </trkpt>
      <trkpt lat="43.480268754065036773681640625" lon="1.4539760537445545196533203125">
        <ele>204.1999969482421875</ele>
        <time>2026-08-05T08:36:40.000Z</time>
        <extensions>
          <ns3:TrackPointExtension>
            <ns3:hr>82</ns3:hr>
            <ns3:cad>44</ns3:cad>
          </ns3:TrackPointExtension>
        </extensions>
      </trkpt>
      <trkpt lat="43.480263054370880126953125" lon="1.45397529937326908111572265625">
        <ele>204.1999969482421875</ele>
        <time>2026-08-05T08:36:41.000Z</time>
        <extensions>
          <ns3:TrackPointExtension>
            <ns3:hr>82</ns3:hr>
            <ns3:cad>44</ns3:cad>
          </ns3:TrackPointExtension>
        </extensions>
      </trkpt>
      <trkpt lat="43.4802509844303131103515625" lon="1.453979909420013427734375">
        <ele>204.1999969482421875</ele>
        <time>2026-08-05T08:36:42.000Z</time>
        <extensions>
          <ns3:TrackPointExtension>
            <ns3:hr>82</ns3:hr>
            <ns3:cad>44</ns3:cad>
          </ns3:TrackPointExtension>
        </extensions>
      </trkpt>
      <trkpt lat="43.48024184815585613250732421875" lon="1.45398183725774288177490234375">
        <ele>204.1999969482421875</ele>
        <time>2026-08-05T08:36:43.000Z</time>
        <extensions>
          <ns3:TrackPointExtension>
            <ns3:hr>82</ns3:hr>
            <ns3:cad>44</ns3:cad>
          </ns3:TrackPointExtension>
        </extensions>
      </trkpt>
      <trkpt lat="43.48023279570043087005615234375" lon="1.453982926905155181884765625">
        <ele>204.399993896484375</ele>
        <time>2026-08-05T08:36:44.000Z</time>
        <extensions>
          <ns3:TrackPointExtension>
            <ns3:hr>82</ns3:hr>
            <ns3:cad>44</ns3:cad>
          </ns3:TrackPointExtension>
        </extensions>
      </trkpt>
      <trkpt lat="43.4802307002246379852294921875" lon="1.45398460328578948974609375">
        <ele>204.399993896484375</ele>
        <time>2026-08-05T08:36:45.000Z</time>
        <extensions>
          <ns3:TrackPointExtension>
            <ns3:hr>82</ns3:hr>
            <ns3:cad>43</ns3:cad>
          </ns3:TrackPointExtension>
        </extensions>
      </trkpt>
      <trkpt lat="43.48021871410310268402099609375" lon="1.4539901353418827056884765625">
        <ele>204.399993896484375</ele>
        <time>2026-08-05T08:36:46.000Z</time>
        <extensions>
          <ns3:TrackPointExtension>
            <ns3:hr>82</ns3:hr>
            <ns3:cad>43</ns3:cad>
          </ns3:TrackPointExtension>
        </extensions>
      </trkpt>
      <trkpt lat="43.48021150566637516021728515625" lon="1.45399156026542186737060546875">
        <ele>204.399993896484375</ele>
        <time>2026-08-05T08:36:47.000Z</time>
        <extensions>
          <ns3:TrackPointExtension>
            <ns3:hr>82</ns3:hr>
            <ns3:cad>43</ns3:cad>
          </ns3:TrackPointExtension>
        </extensions>
      </trkpt>
      <trkpt lat="43.4802032075822353363037109375" lon="1.45399005152285099029541015625">
        <ele>204.399993896484375</ele>
        <time>2026-08-05T08:36:48.000Z</time>
        <extensions>
          <ns3:TrackPointExtension>
            <ns3:hr>82</ns3:hr>
            <ns3:cad>44</ns3:cad>
          </ns3:TrackPointExtension>
        </extensions>
      </trkpt>
      <trkpt lat="43.4801946580410003662109375" lon="1.45399105735123157501220703125">
        <ele>204.399993896484375</ele>
        <time>2026-08-05T08:36:49.000Z</time>
        <extensions>
          <ns3:TrackPointExtension>
            <ns3:hr>82</ns3:hr>
            <ns3:cad>44</ns3:cad>
          </ns3:TrackPointExtension>
        </extensions>
      </trkpt>
      <trkpt lat="43.480182252824306488037109375" lon="1.45399860106408596038818359375">
        <ele>204.399993896484375</ele>
        <time>2026-08-05T08:36:50.000Z</time>
        <extensions>
          <ns3:TrackPointExtension>
            <ns3:hr>82</ns3:hr>
            <ns3:cad>44</ns3:cad>
          </ns3:TrackPointExtension>
        </extensions>
      </trkpt>
      <trkpt lat="43.48017244599759578704833984375" lon="1.4540058933198451995849609375">
        <ele>204.399993896484375</ele>
        <time>2026-08-05T08:36:51.000Z</time>
        <extensions>
          <ns3:TrackPointExtension>
            <ns3:hr>83</ns3:hr>
            <ns3:cad>44</ns3:cad>
          </ns3:TrackPointExtension>
        </extensions>
      </trkpt>
      <trkpt lat="43.4801616333425045013427734375" lon="1.45400932990014553070068359375">
        <ele>204.600006103515625</ele>
        <time>2026-08-05T08:36:52.000Z</time>
        <extensions>
          <ns3:TrackPointExtension>
            <ns3:hr>84</ns3:hr>
            <ns3:cad>44</ns3:cad>
          </ns3:TrackPointExtension>
        </extensions>
      </trkpt>
      <trkpt lat="43.4801535867154598236083984375" lon="1.45401318557560443878173828125">
        <ele>204.600006103515625</ele>
        <time>2026-08-05T08:36:53.000Z</time>
        <extensions>
          <ns3:TrackPointExtension>
            <ns3:hr>84</ns3:hr>
            <ns3:cad>44</ns3:cad>
          </ns3:TrackPointExtension>
        </extensions>
      </trkpt>
      <trkpt lat="43.4801361523568630218505859375" lon="1.45401871763169765472412109375">
        <ele>204.600006103515625</ele>
        <time>2026-08-05T08:36:54.000Z</time>
        <extensions>
          <ns3:TrackPointExtension>
            <ns3:hr>85</ns3:hr>
            <ns3:cad>45</ns3:cad>
          </ns3:TrackPointExtension>
        </extensions>
      </trkpt>
      <trkpt lat="43.48012634553015232086181640625" lon="1.45402709953486919403076171875">
        <ele>204.600006103515625</ele>
        <time>2026-08-05T08:36:55.000Z</time>
        <extensions>
          <ns3:TrackPointExtension>
            <ns3:hr>85</ns3:hr>
            <ns3:cad>46</ns3:cad>
          </ns3:TrackPointExtension>
        </extensions>
      </trkpt>
      <trkpt lat="43.48011712543666362762451171875" lon="1.454028524458408355712890625">
        <ele>204.600006103515625</ele>
        <time>2026-08-05T08:36:56.000Z</time>
        <extensions>
          <ns3:TrackPointExtension>
            <ns3:hr>85</ns3:hr>
            <ns3:cad>46</ns3:cad>
          </ns3:TrackPointExtension>
        </extensions>
      </trkpt>
      <trkpt lat="43.48010807298123836517333984375" lon="1.45403665490448474884033203125">
        <ele>204.8000030517578125</ele>
        <time>2026-08-05T08:36:57.000Z</time>
        <extensions>
          <ns3:TrackPointExtension>
            <ns3:hr>86</ns3:hr>
            <ns3:cad>47</ns3:cad>
          </ns3:TrackPointExtension>
        </extensions>
      </trkpt>
      <trkpt lat="43.4800935722887516021728515625" lon="1.454038582742214202880859375">
        <ele>204.8000030517578125</ele>
        <time>2026-08-05T08:36:58.000Z</time>
        <extensions>
          <ns3:TrackPointExtension>
            <ns3:hr>85</ns3:hr>
            <ns3:cad>47</ns3:cad>
          </ns3:TrackPointExtension>
        </extensions>
      </trkpt>
      <trkpt lat="43.4800815023481845855712890625" lon="1.45404118113219738006591796875">
        <ele>204.8000030517578125</ele>
        <time>2026-08-05T08:36:59.000Z</time>
        <extensions>
          <ns3:TrackPointExtension>
            <ns3:hr>85</ns3:hr>
            <ns3:cad>43</ns3:cad>
          </ns3:TrackPointExtension>
        </extensions>
      </trkpt>
      <trkpt lat="43.4800707735121250152587890625" lon="1.45404352806508541107177734375">
        <ele>204.8000030517578125</ele>
        <time>2026-08-05T08:37:00.000Z</time>
        <extensions>
          <ns3:TrackPointExtension>
            <ns3:hr>85</ns3:hr>
            <ns3:cad>43</ns3:cad>
          </ns3:TrackPointExtension>
        </extensions>
      </trkpt>
      <trkpt lat="43.48006331361830234527587890625" lon="1.4540441147983074188232421875">
        <ele>204.8000030517578125</ele>
        <time>2026-08-05T08:37:01.000Z</time>
        <extensions>
          <ns3:TrackPointExtension>
            <ns3:hr>85</ns3:hr>
            <ns3:cad>44</ns3:cad>
          </ns3:TrackPointExtension>
        </extensions>
      </trkpt>
      <trkpt lat="43.480048142373561859130859375" lon="1.45404470153152942657470703125">
        <ele>205</ele>
        <time>2026-08-05T08:37:02.000Z</time>
        <extensions>
          <ns3:TrackPointExtension>
            <ns3:hr>85</ns3:hr>
            <ns3:cad>44</ns3:cad>
          </ns3:TrackPointExtension>
        </extensions>
      </trkpt>
      <trkpt lat="43.48003950901329517364501953125" lon="1.4540481381118297576904296875">
        <ele>205</ele>
        <time>2026-08-05T08:37:03.000Z</time>
        <extensions>
          <ns3:TrackPointExtension>
            <ns3:hr>85</ns3:hr>
            <ns3:cad>44</ns3:cad>
          </ns3:TrackPointExtension>
        </extensions>
      </trkpt>
      <trkpt lat="43.48003364168107509613037109375" lon="1.45404319278895854949951171875">
        <ele>205</ele>
        <time>2026-08-05T08:37:04.000Z</time>
        <extensions>
          <ns3:TrackPointExtension>
            <ns3:hr>85</ns3:hr>
            <ns3:cad>0</ns3:cad>
          </ns3:TrackPointExtension>
        </extensions>
      </trkpt>
      <trkpt lat="43.48002140410244464874267578125" lon="1.45403816364705562591552734375">
        <ele>205</ele>
        <time>2026-08-05T08:37:05.000Z</time>
        <extensions>
          <ns3:TrackPointExtension>
            <ns3:hr>85</ns3:hr>
            <ns3:cad>44</ns3:cad>
          </ns3:TrackPointExtension>
        </extensions>
      </trkpt>
      <trkpt lat="43.480010926723480224609375" lon="1.45403816364705562591552734375">
        <ele>205</ele>
        <time>2026-08-05T08:37:06.000Z</time>
        <extensions>
          <ns3:TrackPointExtension>
            <ns3:hr>84</ns3:hr>
            <ns3:cad>44</ns3:cad>
          </ns3:TrackPointExtension>
        </extensions>
      </trkpt>
      <trkpt lat="43.480003885924816131591796875" lon="1.45403824746608734130859375">
        <ele>205</ele>
        <time>2026-08-05T08:37:07.000Z</time>
        <extensions>
          <ns3:TrackPointExtension>
            <ns3:hr>84</ns3:hr>
            <ns3:cad>44</ns3:cad>
          </ns3:TrackPointExtension>
        </extensions>
      </trkpt>
      <trkpt lat="43.4799996949732303619384765625" lon="1.4540400914847850799560546875">
        <ele>205.1999969482421875</ele>
        <time>2026-08-05T08:37:08.000Z</time>
        <extensions>
          <ns3:TrackPointExtension>
            <ns3:hr>84</ns3:hr>
            <ns3:cad>44</ns3:cad>
          </ns3:TrackPointExtension>
        </extensions>
      </trkpt>
      <trkpt lat="43.4799854457378387451171875" lon="1.45404218696057796478271484375">
        <ele>205.1999969482421875</ele>
        <time>2026-08-05T08:37:09.000Z</time>
        <extensions>
          <ns3:TrackPointExtension>
            <ns3:hr>85</ns3:hr>
            <ns3:cad>42</ns3:cad>
          </ns3:TrackPointExtension>
        </extensions>
      </trkpt>
      <trkpt lat="43.47997664473950862884521484375" lon="1.4540427736937999725341796875">
        <ele>205.1999969482421875</ele>
        <time>2026-08-05T08:37:10.000Z</time>
        <extensions>
          <ns3:TrackPointExtension>
            <ns3:hr>84</ns3:hr>
            <ns3:cad>42</ns3:cad>
          </ns3:TrackPointExtension>
        </extensions>
      </trkpt>
      <trkpt lat="43.47996993921697139739990234375" lon="1.4540421031415462493896484375">
        <ele>205.1999969482421875</ele>
        <time>2026-08-05T08:37:11.000Z</time>
        <extensions>
          <ns3:TrackPointExtension>
            <ns3:hr>84</ns3:hr>
            <ns3:cad>42</ns3:cad>
          </ns3:TrackPointExtension>
        </extensions>
      </trkpt>
      <trkpt lat="43.47996440716087818145751953125" lon="1.4540421031415462493896484375">
        <ele>205.1999969482421875</ele>
        <time>2026-08-05T08:37:12.000Z</time>
        <extensions>
          <ns3:TrackPointExtension>
            <ns3:hr>85</ns3:hr>
            <ns3:cad>43</ns3:cad>
          </ns3:TrackPointExtension>
        </extensions>
      </trkpt>
      <trkpt lat="43.47994999028742313385009765625" lon="1.4540483057498931884765625">
        <ele>205.1999969482421875</ele>
        <time>2026-08-05T08:37:13.000Z</time>
        <extensions>
          <ns3:TrackPointExtension>
            <ns3:hr>85</ns3:hr>
            <ns3:cad>43</ns3:cad>
          </ns3:TrackPointExtension>
        </extensions>
      </trkpt>
      <trkpt lat="43.47994194366037845611572265625" lon="1.45405090413987636566162109375">
        <ele>205.399993896484375</ele>
        <time>2026-08-05T08:37:14.000Z</time>
        <extensions>
          <ns3:TrackPointExtension>
            <ns3:hr>85</ns3:hr>
            <ns3:cad>43</ns3:cad>
          </ns3:TrackPointExtension>
        </extensions>
      </trkpt>
      <trkpt lat="43.4799373336136341094970703125" lon="1.4540498144924640655517578125">
        <ele>205.399993896484375</ele>
        <time>2026-08-05T08:37:15.000Z</time>
        <extensions>
          <ns3:TrackPointExtension>
            <ns3:hr>85</ns3:hr>
            <ns3:cad>43</ns3:cad>
          </ns3:TrackPointExtension>
        </extensions>
      </trkpt>
      <trkpt lat="43.4799237549304962158203125" lon="1.45405291579663753509521484375">
        <ele>205.399993896484375</ele>
        <time>2026-08-05T08:37:16.000Z</time>
        <extensions>
          <ns3:TrackPointExtension>
            <ns3:hr>85</ns3:hr>
            <ns3:cad>43</ns3:cad>
          </ns3:TrackPointExtension>
        </extensions>
      </trkpt>
      <trkpt lat="43.4799108467996120452880859375" lon="1.45405702292919158935546875">
        <ele>205.399993896484375</ele>
        <time>2026-08-05T08:37:17.000Z</time>
        <extensions>
          <ns3:TrackPointExtension>
            <ns3:hr>85</ns3:hr>
            <ns3:cad>43</ns3:cad>
          </ns3:TrackPointExtension>
        </extensions>
      </trkpt>
      <trkpt lat="43.47990288399159908294677734375" lon="1.4540590345859527587890625">
        <ele>205.399993896484375</ele>
        <time>2026-08-05T08:37:18.000Z</time>
        <extensions>
          <ns3:TrackPointExtension>
            <ns3:hr>85</ns3:hr>
            <ns3:cad>44</ns3:cad>
          </ns3:TrackPointExtension>
        </extensions>
      </trkpt>
      <trkpt lat="43.479896597564220428466796875" lon="1.45405970513820648193359375">
        <ele>205.399993896484375</ele>
        <time>2026-08-05T08:37:19.000Z</time>
        <extensions>
          <ns3:TrackPointExtension>
            <ns3:hr>85</ns3:hr>
            <ns3:cad>44</ns3:cad>
          </ns3:TrackPointExtension>
        </extensions>
      </trkpt>
      <trkpt lat="43.47988192923367023468017578125" lon="1.45406506955623626708984375">
        <ele>205.399993896484375</ele>
        <time>2026-08-05T08:37:20.000Z</time>
        <extensions>
          <ns3:TrackPointExtension>
            <ns3:hr>86</ns3:hr>
            <ns3:cad>42</ns3:cad>
          </ns3:TrackPointExtension>
        </extensions>
      </trkpt>
      <trkpt lat="43.47987354733049869537353515625" lon="1.45406431518495082855224609375">
        <ele>205.399993896484375</ele>
        <time>2026-08-05T08:37:21.000Z</time>
        <extensions>
          <ns3:TrackPointExtension>
            <ns3:hr>85</ns3:hr>
            <ns3:cad>42</ns3:cad>
          </ns3:TrackPointExtension>
        </extensions>
      </trkpt>
      <trkpt lat="43.4798699431121349334716796875" lon="1.4540588669478893280029296875">
        <ele>205.600006103515625</ele>
        <time>2026-08-05T08:37:22.000Z</time>
        <extensions>
          <ns3:TrackPointExtension>
            <ns3:hr>85</ns3:hr>
            <ns3:cad>42</ns3:cad>
          </ns3:TrackPointExtension>
        </extensions>
      </trkpt>
      <trkpt lat="43.4798588789999485015869140625" lon="1.4540575258433818817138671875">
        <ele>205.600006103515625</ele>
        <time>2026-08-05T08:37:23.000Z</time>
        <extensions>
          <ns3:TrackPointExtension>
            <ns3:hr>86</ns3:hr>
            <ns3:cad>42</ns3:cad>
          </ns3:TrackPointExtension>
        </extensions>
      </trkpt>
      <trkpt lat="43.47984789870679378509521484375" lon="1.45405794493854045867919921875">
        <ele>205.600006103515625</ele>
        <time>2026-08-05T08:37:24.000Z</time>
        <extensions>
          <ns3:TrackPointExtension>
            <ns3:hr>85</ns3:hr>
            <ns3:cad>43</ns3:cad>
          </ns3:TrackPointExtension>
        </extensions>
      </trkpt>
      <trkpt lat="43.47983951680362224578857421875" lon="1.45405224524438381195068359375">
        <ele>205.600006103515625</ele>
        <time>2026-08-05T08:37:25.000Z</time>
        <extensions>
          <ns3:TrackPointExtension>
            <ns3:hr>86</ns3:hr>
            <ns3:cad>44</ns3:cad>
          </ns3:TrackPointExtension>
        </extensions>
      </trkpt>
      <trkpt lat="43.47983817569911479949951171875" lon="1.454047970473766326904296875">
        <ele>205.600006103515625</ele>
        <time>2026-08-05T08:37:26.000Z</time>
        <extensions>
          <ns3:TrackPointExtension>
            <ns3:hr>86</ns3:hr>
            <ns3:cad>44</ns3:cad>
          </ns3:TrackPointExtension>
        </extensions>
      </trkpt>
      <trkpt lat="43.4798240102827548980712890625" lon="1.45404101349413394927978515625">
        <ele>205.600006103515625</ele>
        <time>2026-08-05T08:37:27.000Z</time>
        <extensions>
          <ns3:TrackPointExtension>
            <ns3:hr>86</ns3:hr>
            <ns3:cad>42</ns3:cad>
          </ns3:TrackPointExtension>
        </extensions>
      </trkpt>
      <trkpt lat="43.47981403581798076629638671875" lon="1.45403631962835788726806640625">
        <ele>205.600006103515625</ele>
        <time>2026-08-05T08:37:28.000Z</time>
        <extensions>
          <ns3:TrackPointExtension>
            <ns3:hr>86</ns3:hr>
            <ns3:cad>42</ns3:cad>
          </ns3:TrackPointExtension>
        </extensions>
      </trkpt>
      <trkpt lat="43.47980498336255550384521484375" lon="1.45403699018061161041259765625">
        <ele>205.600006103515625</ele>
        <time>2026-08-05T08:37:29.000Z</time>
        <extensions>
          <ns3:TrackPointExtension>
            <ns3:hr>86</ns3:hr>
            <ns3:cad>42</ns3:cad>
          </ns3:TrackPointExtension>
        </extensions>
      </trkpt>
      <trkpt lat="43.479795344173908233642578125" lon="1.45403615199029445648193359375">
        <ele>205.600006103515625</ele>
        <time>2026-08-05T08:37:30.000Z</time>
        <extensions>
          <ns3:TrackPointExtension>
            <ns3:hr>89</ns3:hr>
            <ns3:cad>42</ns3:cad>
          </ns3:TrackPointExtension>
        </extensions>
      </trkpt>
      <trkpt lat="43.47979358397424221038818359375" lon="1.4540367387235164642333984375">
        <ele>205.8000030517578125</ele>
        <time>2026-08-05T08:37:31.000Z</time>
        <extensions>
          <ns3:TrackPointExtension>
            <ns3:hr>93</ns3:hr>
            <ns3:cad>42</ns3:cad>
          </ns3:TrackPointExtension>
        </extensions>
      </trkpt>
      <trkpt lat="43.47978922538459300994873046875" lon="1.45403732545673847198486328125">
        <ele>205.8000030517578125</ele>
        <time>2026-08-05T08:37:32.000Z</time>
        <extensions>
          <ns3:TrackPointExtension>
            <ns3:hr>96</ns3:hr>
            <ns3:cad>42</ns3:cad>
          </ns3:TrackPointExtension>
        </extensions>
      </trkpt>
      <trkpt lat="43.47978897392749786376953125" lon="1.45404302515089511871337890625">
        <ele>205.8000030517578125</ele>
        <time>2026-08-05T08:37:33.000Z</time>
        <extensions>
          <ns3:TrackPointExtension>
            <ns3:hr>98</ns3:hr>
            <ns3:cad>0</ns3:cad>
          </ns3:TrackPointExtension>
        </extensions>
      </trkpt>
      <trkpt lat="43.47978469915688037872314453125" lon="1.45403967238962650299072265625">
        <ele>205.8000030517578125</ele>
        <time>2026-08-05T08:37:34.000Z</time>
        <extensions>
          <ns3:TrackPointExtension>
            <ns3:hr>100</ns3:hr>
            <ns3:cad>0</ns3:cad>
          </ns3:TrackPointExtension>
        </extensions>
      </trkpt>
      <trkpt lat="43.47977967001497745513916015625" lon="1.45404160022735595703125">
        <ele>205.8000030517578125</ele>
        <time>2026-08-05T08:37:35.000Z</time>
        <extensions>
          <ns3:TrackPointExtension>
            <ns3:hr>101</ns3:hr>
            <ns3:cad>0</ns3:cad>
          </ns3:TrackPointExtension>
        </extensions>
      </trkpt>
      <trkpt lat="43.47977556288242340087890625" lon="1.45403933711349964141845703125">
        <ele>205.8000030517578125</ele>
        <time>2026-08-05T08:37:36.000Z</time>
        <extensions>
          <ns3:TrackPointExtension>
            <ns3:hr>101</ns3:hr>
            <ns3:cad>0</ns3:cad>
          </ns3:TrackPointExtension>
        </extensions>
      </trkpt>
      <trkpt lat="43.4797710366547107696533203125" lon="1.454033218324184417724609375">
        <ele>205.8000030517578125</ele>
        <time>2026-08-05T08:37:37.000Z</time>
        <extensions>
          <ns3:TrackPointExtension>
            <ns3:hr>102</ns3:hr>
            <ns3:cad>0</ns3:cad>
          </ns3:TrackPointExtension>
        </extensions>
      </trkpt>
      <trkpt lat="43.47976776771247386932373046875" lon="1.4540293626487255096435546875">
        <ele>205.8000030517578125</ele>
        <time>2026-08-05T08:37:38.000Z</time>
        <extensions>
          <ns3:TrackPointExtension>
            <ns3:hr>103</ns3:hr>
            <ns3:cad>0</ns3:cad>
          </ns3:TrackPointExtension>
        </extensions>
      </trkpt>
      <trkpt lat="43.479764163494110107421875" lon="1.45402408204972743988037109375">
        <ele>206</ele>
        <time>2026-08-05T08:37:39.000Z</time>
        <extensions>
          <ns3:TrackPointExtension>
            <ns3:hr>104</ns3:hr>
            <ns3:cad>0</ns3:cad>
          </ns3:TrackPointExtension>
        </extensions>
      </trkpt>
      <trkpt lat="43.47976156510412693023681640625" lon="1.45401737652719020843505859375">
        <ele>206</ele>
        <time>2026-08-05T08:37:40.000Z</time>
        <extensions>
          <ns3:TrackPointExtension>
            <ns3:hr>105</ns3:hr>
            <ns3:cad>0</ns3:cad>
          </ns3:TrackPointExtension>
        </extensions>
      </trkpt>
      <trkpt lat="43.4797623194754123687744140625" lon="1.45400949753820896148681640625">
        <ele>206</ele>
        <time>2026-08-05T08:37:41.000Z</time>
        <extensions>
          <ns3:TrackPointExtension>
            <ns3:hr>108</ns3:hr>
            <ns3:cad>0</ns3:cad>
          </ns3:TrackPointExtension>
        </extensions>
      </trkpt>
      <trkpt lat="43.47975469194352626800537109375" lon="1.45400212146341800689697265625">
        <ele>206</ele>
        <time>2026-08-05T08:37:42.000Z</time>
        <extensions>
          <ns3:TrackPointExtension>
            <ns3:hr>111</ns3:hr>
            <ns3:cad>0</ns3:cad>
          </ns3:TrackPointExtension>
        </extensions>
      </trkpt>
      <trkpt lat="43.47974329255521297454833984375" lon="1.45399172790348529815673828125">
        <ele>206.1999969482421875</ele>
        <time>2026-08-05T08:37:43.000Z</time>
        <extensions>
          <ns3:TrackPointExtension>
            <ns3:hr>111</ns3:hr>
            <ns3:cad>65</ns3:cad>
          </ns3:TrackPointExtension>
        </extensions>
      </trkpt>
      <trkpt lat="43.47973457537591457366943359375" lon="1.453982256352901458740234375">
        <ele>206.1999969482421875</ele>
        <time>2026-08-05T08:37:44.000Z</time>
        <extensions>
          <ns3:TrackPointExtension>
            <ns3:hr>111</ns3:hr>
            <ns3:cad>67</ns3:cad>
          </ns3:TrackPointExtension>
        </extensions>
      </trkpt>
      <trkpt lat="43.479726612567901611328125" lon="1.453972868621349334716796875">
        <ele>206.1999969482421875</ele>
        <time>2026-08-05T08:37:45.000Z</time>
        <extensions>
          <ns3:TrackPointExtension>
            <ns3:hr>111</ns3:hr>
            <ns3:cad>67</ns3:cad>
          </ns3:TrackPointExtension>
        </extensions>
      </trkpt>
      <trkpt lat="43.47971881739795207977294921875" lon="1.4539673365652561187744140625">
        <ele>206.399993896484375</ele>
        <time>2026-08-05T08:37:46.000Z</time>
        <extensions>
          <ns3:TrackPointExtension>
            <ns3:hr>111</ns3:hr>
            <ns3:cad>0</ns3:cad>
          </ns3:TrackPointExtension>
        </extensions>
      </trkpt>
      <trkpt lat="43.4797140397131443023681640625" lon="1.45396423526108264923095703125">
        <ele>206.399993896484375</ele>
        <time>2026-08-05T08:37:47.000Z</time>
        <extensions>
          <ns3:TrackPointExtension>
            <ns3:hr>112</ns3:hr>
            <ns3:cad>0</ns3:cad>
          </ns3:TrackPointExtension>
        </extensions>
      </trkpt>
      <trkpt lat="43.47970875911414623260498046875" lon="1.45395987667143344879150390625">
        <ele>206.600006103515625</ele>
        <time>2026-08-05T08:37:48.000Z</time>
        <extensions>
          <ns3:TrackPointExtension>
            <ns3:hr>113</ns3:hr>
            <ns3:cad>43</ns3:cad>
          </ns3:TrackPointExtension>
        </extensions>
      </trkpt>
      <trkpt lat="43.47970054484903812408447265625" lon="1.453953422605991363525390625">
        <ele>206.600006103515625</ele>
        <time>2026-08-05T08:37:49.000Z</time>
        <extensions>
          <ns3:TrackPointExtension>
            <ns3:hr>113</ns3:hr>
            <ns3:cad>43</ns3:cad>
          </ns3:TrackPointExtension>
        </extensions>
      </trkpt>
      <trkpt lat="43.47969241440296173095703125" lon="1.45394705235958099365234375">
        <ele>206.8000030517578125</ele>
        <time>2026-08-05T08:37:50.000Z</time>
        <extensions>
          <ns3:TrackPointExtension>
            <ns3:hr>113</ns3:hr>
            <ns3:cad>43</ns3:cad>
          </ns3:TrackPointExtension>
        </extensions>
      </trkpt>
      <trkpt lat="43.47968445159494876861572265625" lon="1.4539411850273609161376953125">
        <ele>206.8000030517578125</ele>
        <time>2026-08-05T08:37:51.000Z</time>
        <extensions>
          <ns3:TrackPointExtension>
            <ns3:hr>113</ns3:hr>
            <ns3:cad>43</ns3:cad>
          </ns3:TrackPointExtension>
        </extensions>
      </trkpt>
      <trkpt lat="43.47967498004436492919921875" lon="1.4539301209151744842529296875">
        <ele>206.8000030517578125</ele>
        <time>2026-08-05T08:37:52.000Z</time>
        <extensions>
          <ns3:TrackPointExtension>
            <ns3:hr>113</ns3:hr>
            <ns3:cad>43</ns3:cad>
          </ns3:TrackPointExtension>
        </extensions>
      </trkpt>
      <trkpt lat="43.47967171110212802886962890625" lon="1.4539220742881298065185546875">
        <ele>207</ele>
        <time>2026-08-05T08:37:53.000Z</time>
        <extensions>
          <ns3:TrackPointExtension>
            <ns3:hr>114</ns3:hr>
            <ns3:cad>79</ns3:cad>
          </ns3:TrackPointExtension>
        </extensions>
      </trkpt>
      <trkpt lat="43.479669280350208282470703125" lon="1.4539167098701000213623046875">
        <ele>207</ele>
        <time>2026-08-05T08:37:54.000Z</time>
        <extensions>
          <ns3:TrackPointExtension>
            <ns3:hr>113</ns3:hr>
            <ns3:cad>79</ns3:cad>
          </ns3:TrackPointExtension>
        </extensions>
      </trkpt>
      <trkpt lat="43.4796640835702419281005859375" lon="1.45391394384205341339111328125">
        <ele>207.1999969482421875</ele>
        <time>2026-08-05T08:37:55.000Z</time>
        <extensions>
          <ns3:TrackPointExtension>
            <ns3:hr>114</ns3:hr>
            <ns3:cad>0</ns3:cad>
          </ns3:TrackPointExtension>
        </extensions>
      </trkpt>
      <trkpt lat="43.47965947352349758148193359375" lon="1.45390606485307216644287109375">
        <ele>207.1999969482421875</ele>
        <time>2026-08-05T08:37:56.000Z</time>
        <extensions>
          <ns3:TrackPointExtension>
            <ns3:hr>114</ns3:hr>
            <ns3:cad>0</ns3:cad>
          </ns3:TrackPointExtension>
        </extensions>
      </trkpt>
      <trkpt lat="43.47965327091515064239501953125" lon="1.45390271209180355072021484375">
        <ele>207.1999969482421875</ele>
        <time>2026-08-05T08:37:57.000Z</time>
        <extensions>
          <ns3:TrackPointExtension>
            <ns3:hr>114</ns3:hr>
            <ns3:cad>0</ns3:cad>
          </ns3:TrackPointExtension>
        </extensions>
      </trkpt>
      <trkpt lat="43.479651175439357757568359375" lon="1.4538969285786151885986328125">
        <ele>207.1999969482421875</ele>
        <time>2026-08-05T08:37:58.000Z</time>
        <extensions>
          <ns3:TrackPointExtension>
            <ns3:hr>114</ns3:hr>
            <ns3:cad>0</ns3:cad>
          </ns3:TrackPointExtension>
        </extensions>
      </trkpt>
      <trkpt lat="43.47964388318359851837158203125" lon="1.453892402350902557373046875">
        <ele>207.1999969482421875</ele>
        <time>2026-08-05T08:37:59.000Z</time>
        <extensions>
          <ns3:TrackPointExtension>
            <ns3:hr>114</ns3:hr>
            <ns3:cad>0</ns3:cad>
          </ns3:TrackPointExtension>
        </extensions>
      </trkpt>
      <trkpt lat="43.47963801585137844085693359375" lon="1.45388812758028507232666015625">
        <ele>207.1999969482421875</ele>
        <time>2026-08-05T08:38:00.000Z</time>
        <extensions>
          <ns3:TrackPointExtension>
            <ns3:hr>114</ns3:hr>
            <ns3:cad>0</ns3:cad>
          </ns3:TrackPointExtension>
        </extensions>
      </trkpt>
      <trkpt lat="43.47963013686239719390869140625" lon="1.45388343371450901031494140625">
        <ele>207.399993896484375</ele>
        <time>2026-08-05T08:38:01.000Z</time>
        <extensions>
          <ns3:TrackPointExtension>
            <ns3:hr>114</ns3:hr>
            <ns3:cad>0</ns3:cad>
          </ns3:TrackPointExtension>
        </extensions>
      </trkpt>
      <trkpt lat="43.47962192259728908538818359375" lon="1.4538764767348766326904296875">
        <ele>207.399993896484375</ele>
        <time>2026-08-05T08:38:02.000Z</time>
        <extensions>
          <ns3:TrackPointExtension>
            <ns3:hr>114</ns3:hr>
            <ns3:cad>0</ns3:cad>
          </ns3:TrackPointExtension>
        </extensions>
      </trkpt>
      <trkpt lat="43.47961504943668842315673828125" lon="1.45386382006108760833740234375">
        <ele>207.399993896484375</ele>
        <time>2026-08-05T08:38:03.000Z</time>
        <extensions>
          <ns3:TrackPointExtension>
            <ns3:hr>115</ns3:hr>
            <ns3:cad>0</ns3:cad>
          </ns3:TrackPointExtension>
        </extensions>
      </trkpt>
      <trkpt lat="43.47961756400763988494873046875" lon="1.45385560579597949981689453125">
        <ele>207.600006103515625</ele>
        <time>2026-08-05T08:38:04.000Z</time>
        <extensions>
          <ns3:TrackPointExtension>
            <ns3:hr>115</ns3:hr>
            <ns3:cad>42</ns3:cad>
          </ns3:TrackPointExtension>
        </extensions>
      </trkpt>
      <trkpt lat="43.47961328923702239990234375" lon="1.45384789444506168365478515625">
        <ele>207.600006103515625</ele>
        <time>2026-08-05T08:38:05.000Z</time>
        <extensions>
          <ns3:TrackPointExtension>
            <ns3:hr>115</ns3:hr>
            <ns3:cad>42</ns3:cad>
          </ns3:TrackPointExtension>
        </extensions>
      </trkpt>
      <trkpt lat="43.479608595371246337890625" lon="1.45383984781801700592041015625">
        <ele>207.8000030517578125</ele>
        <time>2026-08-05T08:38:06.000Z</time>
        <extensions>
          <ns3:TrackPointExtension>
            <ns3:hr>115</ns3:hr>
            <ns3:cad>42</ns3:cad>
          </ns3:TrackPointExtension>
        </extensions>
      </trkpt>
      <trkpt lat="43.47960297949612140655517578125" lon="1.45383398048579692840576171875">
        <ele>208</ele>
        <time>2026-08-05T08:38:07.000Z</time>
        <extensions>
          <ns3:TrackPointExtension>
            <ns3:hr>115</ns3:hr>
            <ns3:cad>44</ns3:cad>
          </ns3:TrackPointExtension>
        </extensions>
      </trkpt>
      <trkpt lat="43.47959409467875957489013671875" lon="1.453823335468769073486328125">
        <ele>208</ele>
        <time>2026-08-05T08:38:08.000Z</time>
        <extensions>
          <ns3:TrackPointExtension>
            <ns3:hr>115</ns3:hr>
            <ns3:cad>44</ns3:cad>
          </ns3:TrackPointExtension>
        </extensions>
      </trkpt>
      <trkpt lat="43.47958588041365146636962890625" lon="1.4538181386888027191162109375">
        <ele>208</ele>
        <time>2026-08-05T08:38:09.000Z</time>
        <extensions>
          <ns3:TrackPointExtension>
            <ns3:hr>115</ns3:hr>
            <ns3:cad>44</ns3:cad>
          </ns3:TrackPointExtension>
        </extensions>
      </trkpt>
      <trkpt lat="43.47958168946206569671630859375" lon="1.4538144506514072418212890625">
        <ele>208</ele>
        <time>2026-08-05T08:38:10.000Z</time>
        <extensions>
          <ns3:TrackPointExtension>
            <ns3:hr>115</ns3:hr>
            <ns3:cad>44</ns3:cad>
          </ns3:TrackPointExtension>
        </extensions>
      </trkpt>
      <trkpt lat="43.47957431338727474212646484375" lon="1.4538015425205230712890625">
        <ele>208</ele>
        <time>2026-08-05T08:38:11.000Z</time>
        <extensions>
          <ns3:TrackPointExtension>
            <ns3:hr>116</ns3:hr>
            <ns3:cad>44</ns3:cad>
          </ns3:TrackPointExtension>
        </extensions>
      </trkpt>
      <trkpt lat="43.47956190817058086395263671875" lon="1.45379123277962207794189453125">
        <ele>208.1999969482421875</ele>
        <time>2026-08-05T08:38:12.000Z</time>
        <extensions>
          <ns3:TrackPointExtension>
            <ns3:hr>116</ns3:hr>
            <ns3:cad>44</ns3:cad>
          </ns3:TrackPointExtension>
        </extensions>
      </trkpt>
      <trkpt lat="43.47955553792417049407958984375" lon="1.4537815935909748077392578125">
        <ele>208.1999969482421875</ele>
        <time>2026-08-05T08:38:13.000Z</time>
        <extensions>
          <ns3:TrackPointExtension>
            <ns3:hr>116</ns3:hr>
            <ns3:cad>42</ns3:cad>
          </ns3:TrackPointExtension>
        </extensions>
      </trkpt>
      <trkpt lat="43.47955889068543910980224609375" lon="1.45377782173454761505126953125">
        <ele>208.399993896484375</ele>
        <time>2026-08-05T08:38:14.000Z</time>
        <extensions>
          <ns3:TrackPointExtension>
            <ns3:hr>116</ns3:hr>
            <ns3:cad>42</ns3:cad>
          </ns3:TrackPointExtension>
        </extensions>
      </trkpt>
      <trkpt lat="43.479552604258060455322265625" lon="1.45376977510750293731689453125">
        <ele>208.600006103515625</ele>
        <time>2026-08-05T08:38:15.000Z</time>
        <extensions>
          <ns3:TrackPointExtension>
            <ns3:hr>117</ns3:hr>
            <ns3:cad>41</ns3:cad>
          </ns3:TrackPointExtension>
        </extensions>
      </trkpt>
      <trkpt lat="43.4795428812503814697265625" lon="1.4537611417472362518310546875">
        <ele>208.600006103515625</ele>
        <time>2026-08-05T08:38:16.000Z</time>
        <extensions>
          <ns3:TrackPointExtension>
            <ns3:hr>117</ns3:hr>
            <ns3:cad>0</ns3:cad>
          </ns3:TrackPointExtension>
        </extensions>
      </trkpt>
      <trkpt lat="43.47953223623335361480712890625" lon="1.4537514187395572662353515625">
        <ele>208.600006103515625</ele>
        <time>2026-08-05T08:38:17.000Z</time>
        <extensions>
          <ns3:TrackPointExtension>
            <ns3:hr>117</ns3:hr>
            <ns3:cad>0</ns3:cad>
          </ns3:TrackPointExtension>
        </extensions>
      </trkpt>
      <trkpt lat="43.47952502779662609100341796875" lon="1.45374613814055919647216796875">
        <ele>208.8000030517578125</ele>
        <time>2026-08-05T08:38:18.000Z</time>
        <extensions>
          <ns3:TrackPointExtension>
            <ns3:hr>118</ns3:hr>
            <ns3:cad>42</ns3:cad>
          </ns3:TrackPointExtension>
        </extensions>
      </trkpt>
      <trkpt lat="43.47952100448310375213623046875" lon="1.45374010317027568817138671875">
        <ele>208.8000030517578125</ele>
        <time>2026-08-05T08:38:19.000Z</time>
        <extensions>
          <ns3:TrackPointExtension>
            <ns3:hr>118</ns3:hr>
            <ns3:cad>43</ns3:cad>
          </ns3:TrackPointExtension>
        </extensions>
      </trkpt>
      <trkpt lat="43.479512371122837066650390625" lon="1.45372987724840641021728515625">
        <ele>208.8000030517578125</ele>
        <time>2026-08-05T08:38:20.000Z</time>
        <extensions>
          <ns3:TrackPointExtension>
            <ns3:hr>118</ns3:hr>
            <ns3:cad>43</ns3:cad>
          </ns3:TrackPointExtension>
        </extensions>
      </trkpt>
      <trkpt lat="43.4795048274099826812744140625" lon="1.453723423182964324951171875">
        <ele>209</ele>
        <time>2026-08-05T08:38:21.000Z</time>
        <extensions>
          <ns3:TrackPointExtension>
            <ns3:hr>118</ns3:hr>
            <ns3:cad>43</ns3:cad>
          </ns3:TrackPointExtension>
        </extensions>
      </trkpt>
      <trkpt lat="43.47949988208711147308349609375" lon="1.45371898077428340911865234375">
        <ele>209</ele>
        <time>2026-08-05T08:38:22.000Z</time>
        <extensions>
          <ns3:TrackPointExtension>
            <ns3:hr>118</ns3:hr>
            <ns3:cad>43</ns3:cad>
          </ns3:TrackPointExtension>
        </extensions>
      </trkpt>
      <trkpt lat="43.47950306721031665802001953125" lon="1.4537135325372219085693359375">
        <ele>209</ele>
        <time>2026-08-05T08:38:23.000Z</time>
        <extensions>
          <ns3:TrackPointExtension>
            <ns3:hr>119</ns3:hr>
            <ns3:cad>44</ns3:cad>
          </ns3:TrackPointExtension>
        </extensions>
      </trkpt>
      <trkpt lat="43.479492254555225372314453125" lon="1.453703306615352630615234375">
        <ele>209.1999969482421875</ele>
        <time>2026-08-05T08:38:24.000Z</time>
        <extensions>
          <ns3:TrackPointExtension>
            <ns3:hr>119</ns3:hr>
            <ns3:cad>44</ns3:cad>
          </ns3:TrackPointExtension>
        </extensions>
      </trkpt>
      <trkpt lat="43.47948596812784671783447265625" lon="1.45369852893054485321044921875">
        <ele>209.1999969482421875</ele>
        <time>2026-08-05T08:38:25.000Z</time>
        <extensions>
          <ns3:TrackPointExtension>
            <ns3:hr>119</ns3:hr>
            <ns3:cad>43</ns3:cad>
          </ns3:TrackPointExtension>
        </extensions>
      </trkpt>
      <trkpt lat="43.479479849338531494140625" lon="1.45369249396026134490966796875">
        <ele>209.399993896484375</ele>
        <time>2026-08-05T08:38:26.000Z</time>
        <extensions>
          <ns3:TrackPointExtension>
            <ns3:hr>119</ns3:hr>
            <ns3:cad>43</ns3:cad>
          </ns3:TrackPointExtension>
        </extensions>
      </trkpt>
      <trkpt lat="43.47947004251182079315185546875" lon="1.4536836929619312286376953125">
        <ele>209.399993896484375</ele>
        <time>2026-08-05T08:38:27.000Z</time>
        <extensions>
          <ns3:TrackPointExtension>
            <ns3:hr>119</ns3:hr>
            <ns3:cad>43</ns3:cad>
          </ns3:TrackPointExtension>
        </extensions>
      </trkpt>
      <trkpt lat="43.47946216352283954620361328125" lon="1.453677155077457427978515625">
        <ele>209.600006103515625</ele>
        <time>2026-08-05T08:38:28.000Z</time>
        <extensions>
          <ns3:TrackPointExtension>
            <ns3:hr>120</ns3:hr>
            <ns3:cad>43</ns3:cad>
          </ns3:TrackPointExtension>
        </extensions>
      </trkpt>
      <trkpt lat="43.47945797257125377655029296875" lon="1.4536689408123493194580078125">
        <ele>209.600006103515625</ele>
        <time>2026-08-05T08:38:29.000Z</time>
        <extensions>
          <ns3:TrackPointExtension>
            <ns3:hr>120</ns3:hr>
            <ns3:cad>43</ns3:cad>
          </ns3:TrackPointExtension>
        </extensions>
      </trkpt>
      <trkpt lat="43.47944875247776508331298828125" lon="1.45365728996694087982177734375">
        <ele>209.600006103515625</ele>
        <time>2026-08-05T08:38:30.000Z</time>
        <extensions>
          <ns3:TrackPointExtension>
            <ns3:hr>120</ns3:hr>
            <ns3:cad>42</ns3:cad>
          </ns3:TrackPointExtension>
        </extensions>
      </trkpt>
      <trkpt lat="43.47943894565105438232421875" lon="1.45365024916827678680419921875">
        <ele>209.8000030517578125</ele>
        <time>2026-08-05T08:38:31.000Z</time>
        <extensions>
          <ns3:TrackPointExtension>
            <ns3:hr>120</ns3:hr>
            <ns3:cad>42</ns3:cad>
          </ns3:TrackPointExtension>
        </extensions>
      </trkpt>
      <trkpt lat="43.47943316213786602020263671875" lon="1.45364119671285152435302734375">
        <ele>209.8000030517578125</ele>
        <time>2026-08-05T08:38:32.000Z</time>
        <extensions>
          <ns3:TrackPointExtension>
            <ns3:hr>120</ns3:hr>
            <ns3:cad>42</ns3:cad>
          </ns3:TrackPointExtension>
        </extensions>
      </trkpt>
      <trkpt lat="43.4794287197291851043701171875" lon="1.45364086143672466278076171875">
        <ele>209.8000030517578125</ele>
        <time>2026-08-05T08:38:33.000Z</time>
        <extensions>
          <ns3:TrackPointExtension>
            <ns3:hr>120</ns3:hr>
            <ns3:cad>41</ns3:cad>
          </ns3:TrackPointExtension>
        </extensions>
      </trkpt>
      <trkpt lat="43.47942042164504528045654296875" lon="1.4536437951028347015380859375">
        <ele>209.8000030517578125</ele>
        <time>2026-08-05T08:38:34.000Z</time>
        <extensions>
          <ns3:TrackPointExtension>
            <ns3:hr>120</ns3:hr>
            <ns3:cad>0</ns3:cad>
          </ns3:TrackPointExtension>
        </extensions>
      </trkpt>
      <trkpt lat="43.479418493807315826416015625" lon="1.45364035852253437042236328125">
        <ele>209.8000030517578125</ele>
        <time>2026-08-05T08:38:35.000Z</time>
        <extensions>
          <ns3:TrackPointExtension>
            <ns3:hr>121</ns3:hr>
            <ns3:cad>0</ns3:cad>
          </ns3:TrackPointExtension>
        </extensions>
      </trkpt>
      <trkpt lat="43.4794139675796031951904296875" lon="1.45363298244774341583251953125">
        <ele>210</ele>
        <time>2026-08-05T08:38:36.000Z</time>
        <extensions>
          <ns3:TrackPointExtension>
            <ns3:hr>122</ns3:hr>
            <ns3:cad>0</ns3:cad>
          </ns3:TrackPointExtension>
        </extensions>
      </trkpt>
      <trkpt lat="43.47940416075289249420166015625" lon="1.45361906848847866058349609375">
        <ele>210</ele>
        <time>2026-08-05T08:38:37.000Z</time>
        <extensions>
          <ns3:TrackPointExtension>
            <ns3:hr>122</ns3:hr>
            <ns3:cad>0</ns3:cad>
          </ns3:TrackPointExtension>
        </extensions>
      </trkpt>
      <trkpt lat="43.479399383068084716796875" lon="1.45361018367111682891845703125">
        <ele>210.1999969482421875</ele>
        <time>2026-08-05T08:38:38.000Z</time>
        <extensions>
          <ns3:TrackPointExtension>
            <ns3:hr>122</ns3:hr>
            <ns3:cad>0</ns3:cad>
          </ns3:TrackPointExtension>
        </extensions>
      </trkpt>
      <trkpt lat="43.479394353926181793212890625" lon="1.4536015503108501434326171875">
        <ele>210.1999969482421875</ele>
        <time>2026-08-05T08:38:39.000Z</time>
        <extensions>
          <ns3:TrackPointExtension>
            <ns3:hr>122</ns3:hr>
            <ns3:cad>0</ns3:cad>
          </ns3:TrackPointExtension>
        </extensions>
      </trkpt>
      <trkpt lat="43.47939158789813518524169921875" lon="1.453594006597995758056640625">
        <ele>210.399993896484375</ele>
        <time>2026-08-05T08:38:40.000Z</time>
        <extensions>
          <ns3:TrackPointExtension>
            <ns3:hr>123</ns3:hr>
            <ns3:cad>0</ns3:cad>
          </ns3:TrackPointExtension>
        </extensions>
      </trkpt>
      <trkpt lat="43.47937725484371185302734375" lon="1.45359308458864688873291015625">
        <ele>210.600006103515625</ele>
        <time>2026-08-05T08:38:41.000Z</time>
        <extensions>
          <ns3:TrackPointExtension>
            <ns3:hr>122</ns3:hr>
            <ns3:cad>0</ns3:cad>
          </ns3:TrackPointExtension>
        </extensions>
      </trkpt>
      <trkpt lat="43.47937046550214290618896484375" lon="1.45359325222671031951904296875">
        <ele>210.600006103515625</ele>
        <time>2026-08-05T08:38:42.000Z</time>
        <extensions>
          <ns3:TrackPointExtension>
            <ns3:hr>122</ns3:hr>
            <ns3:cad>45</ns3:cad>
          </ns3:TrackPointExtension>
        </extensions>
      </trkpt>
      <trkpt lat="43.47936493344604969024658203125" lon="1.45358403213322162628173828125">
        <ele>210.600006103515625</ele>
        <time>2026-08-05T08:38:43.000Z</time>
        <extensions>
          <ns3:TrackPointExtension>
            <ns3:hr>123</ns3:hr>
            <ns3:cad>45</ns3:cad>
          </ns3:TrackPointExtension>
        </extensions>
      </trkpt>
      <trkpt lat="43.47936023958027362823486328125" lon="1.45357833243906497955322265625">
        <ele>210.8000030517578125</ele>
        <time>2026-08-05T08:38:44.000Z</time>
        <extensions>
          <ns3:TrackPointExtension>
            <ns3:hr>123</ns3:hr>
            <ns3:cad>0</ns3:cad>
          </ns3:TrackPointExtension>
        </extensions>
      </trkpt>
      <trkpt lat="43.4793643467128276824951171875" lon="1.45357363857328891754150390625">
        <ele>210.8000030517578125</ele>
        <time>2026-08-05T08:38:45.000Z</time>
        <extensions>
          <ns3:TrackPointExtension>
            <ns3:hr>123</ns3:hr>
            <ns3:cad>0</ns3:cad>
          </ns3:TrackPointExtension>
        </extensions>
      </trkpt>
      <trkpt lat="43.479368872940540313720703125" lon="1.45356944762170314788818359375">
        <ele>210.8000030517578125</ele>
        <time>2026-08-05T08:38:46.000Z</time>
        <extensions>
          <ns3:TrackPointExtension>
            <ns3:hr>123</ns3:hr>
            <ns3:cad>0</ns3:cad>
          </ns3:TrackPointExtension>
        </extensions>
      </trkpt>
      <trkpt lat="43.47936384379863739013671875" lon="1.4535757340490818023681640625">
        <ele>210.8000030517578125</ele>
        <time>2026-08-05T08:38:47.000Z</time>
        <extensions>
          <ns3:TrackPointExtension>
            <ns3:hr>123</ns3:hr>
            <ns3:cad>0</ns3:cad>
          </ns3:TrackPointExtension>
        </extensions>
      </trkpt>
      <trkpt lat="43.47935420460999011993408203125" lon="1.45357690751552581787109375">
        <ele>210.8000030517578125</ele>
        <time>2026-08-05T08:38:48.000Z</time>
        <extensions>
          <ns3:TrackPointExtension>
            <ns3:hr>123</ns3:hr>
            <ns3:cad>0</ns3:cad>
          </ns3:TrackPointExtension>
        </extensions>
      </trkpt>
      <trkpt lat="43.479350768029689788818359375" lon="1.45357212983071804046630859375">
        <ele>210.8000030517578125</ele>
        <time>2026-08-05T08:38:49.000Z</time>
        <extensions>
          <ns3:TrackPointExtension>
            <ns3:hr>123</ns3:hr>
            <ns3:cad>0</ns3:cad>
          </ns3:TrackPointExtension>
        </extensions>
      </trkpt>
      <trkpt lat="43.47935001365840435028076171875" lon="1.45356542430818080902099609375">
        <ele>210.8000030517578125</ele>
        <time>2026-08-05T08:38:50.000Z</time>
        <extensions>
          <ns3:TrackPointExtension>
            <ns3:hr>123</ns3:hr>
            <ns3:cad>0</ns3:cad>
          </ns3:TrackPointExtension>
        </extensions>
      </trkpt>
      <trkpt lat="43.4793408773839473724365234375" lon="1.4535519294440746307373046875">
        <ele>210.8000030517578125</ele>
        <time>2026-08-05T08:38:51.000Z</time>
        <extensions>
          <ns3:TrackPointExtension>
            <ns3:hr>123</ns3:hr>
            <ns3:cad>0</ns3:cad>
          </ns3:TrackPointExtension>
        </extensions>
      </trkpt>
      <trkpt lat="43.47933157347142696380615234375" lon="1.4535435475409030914306640625">
        <ele>211</ele>
        <time>2026-08-05T08:38:52.000Z</time>
        <extensions>
          <ns3:TrackPointExtension>
            <ns3:hr>123</ns3:hr>
            <ns3:cad>0</ns3:cad>
          </ns3:TrackPointExtension>
        </extensions>
      </trkpt>
      <trkpt lat="43.4793257899582386016845703125" lon="1.4535365067422389984130859375">
        <ele>211</ele>
        <time>2026-08-05T08:38:53.000Z</time>
        <extensions>
          <ns3:TrackPointExtension>
            <ns3:hr>123</ns3:hr>
            <ns3:cad>0</ns3:cad>
          </ns3:TrackPointExtension>
        </extensions>
      </trkpt>
      <trkpt lat="43.4793264605104923248291015625" lon="1.4535244368016719818115234375">
        <ele>211.1999969482421875</ele>
        <time>2026-08-05T08:38:54.000Z</time>
        <extensions>
          <ns3:TrackPointExtension>
            <ns3:hr>123</ns3:hr>
            <ns3:cad>0</ns3:cad>
          </ns3:TrackPointExtension>
        </extensions>
      </trkpt>
      <trkpt lat="43.47932185046374797821044921875" lon="1.45352720282971858978271484375">
        <ele>211.399993896484375</ele>
        <time>2026-08-05T08:38:55.000Z</time>
        <extensions>
          <ns3:TrackPointExtension>
            <ns3:hr>123</ns3:hr>
            <ns3:cad>0</ns3:cad>
          </ns3:TrackPointExtension>
        </extensions>
      </trkpt>
      <trkpt lat="43.479313217103481292724609375" lon="1.4535225927829742431640625">
        <ele>211.399993896484375</ele>
        <time>2026-08-05T08:38:56.000Z</time>
        <extensions>
          <ns3:TrackPointExtension>
            <ns3:hr>122</ns3:hr>
            <ns3:cad>0</ns3:cad>
          </ns3:TrackPointExtension>
        </extensions>
      </trkpt>
      <trkpt lat="43.4793095290660858154296875" lon="1.4535167254507541656494140625">
        <ele>211.399993896484375</ele>
        <time>2026-08-05T08:38:57.000Z</time>
        <extensions>
          <ns3:TrackPointExtension>
            <ns3:hr>122</ns3:hr>
            <ns3:cad>42</ns3:cad>
          </ns3:TrackPointExtension>
        </extensions>
      </trkpt>
      <trkpt lat="43.4793039970099925994873046875" lon="1.45351110957562923431396484375">
        <ele>211.399993896484375</ele>
        <time>2026-08-05T08:38:58.000Z</time>
        <extensions>
          <ns3:TrackPointExtension>
            <ns3:hr>122</ns3:hr>
            <ns3:cad>45</ns3:cad>
          </ns3:TrackPointExtension>
        </extensions>
      </trkpt>
      <trkpt lat="43.47929477691650390625" lon="1.4535016380250453948974609375">
        <ele>211.600006103515625</ele>
        <time>2026-08-05T08:38:59.000Z</time>
        <extensions>
          <ns3:TrackPointExtension>
            <ns3:hr>123</ns3:hr>
            <ns3:cad>45</ns3:cad>
          </ns3:TrackPointExtension>
        </extensions>
      </trkpt>
      <trkpt lat="43.47928312607109546661376953125" lon="1.4534892328083515167236328125">
        <ele>211.600006103515625</ele>
        <time>2026-08-05T08:39:00.000Z</time>
        <extensions>
          <ns3:TrackPointExtension>
            <ns3:hr>122</ns3:hr>
            <ns3:cad>45</ns3:cad>
          </ns3:TrackPointExtension>
        </extensions>
      </trkpt>
      <trkpt lat="43.47927273251116275787353515625" lon="1.45347858779132366180419921875">
        <ele>211.8000030517578125</ele>
        <time>2026-08-05T08:39:01.000Z</time>
        <extensions>
          <ns3:TrackPointExtension>
            <ns3:hr>122</ns3:hr>
            <ns3:cad>45</ns3:cad>
          </ns3:TrackPointExtension>
        </extensions>
      </trkpt>
      <trkpt lat="43.47925923764705657958984375" lon="1.45346584729850292205810546875">
        <ele>212</ele>
        <time>2026-08-05T08:39:02.000Z</time>
        <extensions>
          <ns3:TrackPointExtension>
            <ns3:hr>123</ns3:hr>
            <ns3:cad>45</ns3:cad>
          </ns3:TrackPointExtension>
        </extensions>
      </trkpt>
      <trkpt lat="43.4792483411729335784912109375" lon="1.45345377735793590545654296875">
        <ele>212.1999969482421875</ele>
        <time>2026-08-05T08:39:03.000Z</time>
        <extensions>
          <ns3:TrackPointExtension>
            <ns3:hr>123</ns3:hr>
            <ns3:cad>52</ns3:cad>
          </ns3:TrackPointExtension>
        </extensions>
      </trkpt>
      <trkpt lat="43.47924054600298404693603515625" lon="1.45344078540802001953125">
        <ele>212.399993896484375</ele>
        <time>2026-08-05T08:39:04.000Z</time>
        <extensions>
          <ns3:TrackPointExtension>
            <ns3:hr>123</ns3:hr>
            <ns3:cad>52</ns3:cad>
          </ns3:TrackPointExtension>
        </extensions>
      </trkpt>
      <trkpt lat="43.47923484630882740020751953125" lon="1.45342645235359668731689453125">
        <ele>212.399993896484375</ele>
        <time>2026-08-05T08:39:05.000Z</time>
        <extensions>
          <ns3:TrackPointExtension>
            <ns3:hr>123</ns3:hr>
            <ns3:cad>51</ns3:cad>
          </ns3:TrackPointExtension>
        </extensions>
      </trkpt>
      <trkpt lat="43.4792282246053218841552734375" lon="1.45341404713690280914306640625">
        <ele>212.600006103515625</ele>
        <time>2026-08-05T08:39:06.000Z</time>
        <extensions>
          <ns3:TrackPointExtension>
            <ns3:hr>124</ns3:hr>
            <ns3:cad>51</ns3:cad>
          </ns3:TrackPointExtension>
        </extensions>
      </trkpt>
      <trkpt lat="43.47921766340732574462890625" lon="1.45339946262538433074951171875">
        <ele>212.8000030517578125</ele>
        <time>2026-08-05T08:39:07.000Z</time>
        <extensions>
          <ns3:TrackPointExtension>
            <ns3:hr>124</ns3:hr>
            <ns3:cad>51</ns3:cad>
          </ns3:TrackPointExtension>
        </extensions>
      </trkpt>
      <trkpt lat="43.4792017377912998199462890625" lon="1.45338823087513446807861328125">
        <ele>213</ele>
        <time>2026-08-05T08:39:08.000Z</time>
        <extensions>
          <ns3:TrackPointExtension>
            <ns3:hr>124</ns3:hr>
            <ns3:cad>51</ns3:cad>
          </ns3:TrackPointExtension>
        </extensions>
      </trkpt>
      <trkpt lat="43.47918681800365447998046875" lon="1.45337599329650402069091796875">
        <ele>213.1999969482421875</ele>
        <time>2026-08-05T08:39:09.000Z</time>
        <extensions>
          <ns3:TrackPointExtension>
            <ns3:hr>125</ns3:hr>
            <ns3:cad>51</ns3:cad>
          </ns3:TrackPointExtension>
        </extensions>
      </trkpt>
      <trkpt lat="43.47917617298662662506103515625" lon="1.45336124114692211151123046875">
        <ele>213.1999969482421875</ele>
        <time>2026-08-05T08:39:10.000Z</time>
        <extensions>
          <ns3:TrackPointExtension>
            <ns3:hr>125</ns3:hr>
            <ns3:cad>53</ns3:cad>
          </ns3:TrackPointExtension>
        </extensions>
      </trkpt>
      <trkpt lat="43.47916644997894763946533203125" lon="1.45334757864475250244140625">
        <ele>213.399993896484375</ele>
        <time>2026-08-05T08:39:11.000Z</time>
        <extensions>
          <ns3:TrackPointExtension>
            <ns3:hr>125</ns3:hr>
            <ns3:cad>53</ns3:cad>
          </ns3:TrackPointExtension>
        </extensions>
      </trkpt>
      <trkpt lat="43.47915873862802982330322265625" lon="1.45333550870418548583984375">
        <ele>213.600006103515625</ele>
        <time>2026-08-05T08:39:12.000Z</time>
        <extensions>
          <ns3:TrackPointExtension>
            <ns3:hr>126</ns3:hr>
            <ns3:cad>53</ns3:cad>
          </ns3:TrackPointExtension>
        </extensions>
      </trkpt>
      <trkpt lat="43.47915203310549259185791015625" lon="1.4533266238868236541748046875">
        <ele>213.8000030517578125</ele>
        <time>2026-08-05T08:39:13.000Z</time>
        <extensions>
          <ns3:TrackPointExtension>
            <ns3:hr>126</ns3:hr>
            <ns3:cad>54</ns3:cad>
          </ns3:TrackPointExtension>
        </extensions>
      </trkpt>
      <trkpt lat="43.4791459143161773681640625" lon="1.45332184620201587677001953125">
        <ele>214</ele>
        <time>2026-08-05T08:39:14.000Z</time>
        <extensions>
          <ns3:TrackPointExtension>
            <ns3:hr>127</ns3:hr>
            <ns3:cad>54</ns3:cad>
          </ns3:TrackPointExtension>
        </extensions>
      </trkpt>
      <trkpt lat="43.4791397117078304290771484375" lon="1.45331463776528835296630859375">
        <ele>214.1999969482421875</ele>
        <time>2026-08-05T08:39:15.000Z</time>
        <extensions>
          <ns3:TrackPointExtension>
            <ns3:hr>127</ns3:hr>
            <ns3:cad>54</ns3:cad>
          </ns3:TrackPointExtension>
        </extensions>
      </trkpt>
      <trkpt lat="43.47912847995758056640625" lon="1.45330307073891162872314453125">
        <ele>214.399993896484375</ele>
        <time>2026-08-05T08:39:16.000Z</time>
        <extensions>
          <ns3:TrackPointExtension>
            <ns3:hr>128</ns3:hr>
            <ns3:cad>54</ns3:cad>
          </ns3:TrackPointExtension>
        </extensions>
      </trkpt>
      <trkpt lat="43.479116074740886688232421875" lon="1.45329334773123264312744140625">
        <ele>214.600006103515625</ele>
        <time>2026-08-05T08:39:17.000Z</time>
        <extensions>
          <ns3:TrackPointExtension>
            <ns3:hr>128</ns3:hr>
            <ns3:cad>53</ns3:cad>
          </ns3:TrackPointExtension>
        </extensions>
      </trkpt>
      <trkpt lat="43.479104004800319671630859375" lon="1.45328412763774394989013671875">
        <ele>214.8000030517578125</ele>
        <time>2026-08-05T08:39:18.000Z</time>
        <extensions>
          <ns3:TrackPointExtension>
            <ns3:hr>129</ns3:hr>
            <ns3:cad>53</ns3:cad>
          </ns3:TrackPointExtension>
        </extensions>
      </trkpt>
      <trkpt lat="43.47909403033554553985595703125" lon="1.45327406935393810272216796875">
        <ele>215</ele>
        <time>2026-08-05T08:39:19.000Z</time>
        <extensions>
          <ns3:TrackPointExtension>
            <ns3:hr>130</ns3:hr>
            <ns3:cad>52</ns3:cad>
          </ns3:TrackPointExtension>
        </extensions>
      </trkpt>
      <trkpt lat="43.479086570441722869873046875" lon="1.45326401107013225555419921875">
        <ele>215.1999969482421875</ele>
        <time>2026-08-05T08:39:20.000Z</time>
        <extensions>
          <ns3:TrackPointExtension>
            <ns3:hr>130</ns3:hr>
            <ns3:cad>52</ns3:cad>
          </ns3:TrackPointExtension>
        </extensions>
      </trkpt>
      <trkpt lat="43.4790803678333759307861328125" lon="1.45325546152889728546142578125">
        <ele>215.1999969482421875</ele>
        <time>2026-08-05T08:39:21.000Z</time>
        <extensions>
          <ns3:TrackPointExtension>
            <ns3:hr>131</ns3:hr>
            <ns3:cad>52</ns3:cad>
          </ns3:TrackPointExtension>
        </extensions>
      </trkpt>
      <trkpt lat="43.47907324321568012237548828125" lon="1.45324674434959888458251953125">
        <ele>215.399993896484375</ele>
        <time>2026-08-05T08:39:22.000Z</time>
        <extensions>
          <ns3:TrackPointExtension>
            <ns3:hr>131</ns3:hr>
            <ns3:cad>53</ns3:cad>
          </ns3:TrackPointExtension>
        </extensions>
      </trkpt>
      <trkpt lat="43.4790612570941448211669921875" lon="1.453234590590000152587890625">
        <ele>215.600006103515625</ele>
        <time>2026-08-05T08:39:23.000Z</time>
        <extensions>
          <ns3:TrackPointExtension>
            <ns3:hr>131</ns3:hr>
            <ns3:cad>53</ns3:cad>
          </ns3:TrackPointExtension>
        </extensions>
      </trkpt>
      <trkpt lat="43.47904658876359462738037109375" lon="1.4532223530113697052001953125">
        <ele>215.8000030517578125</ele>
        <time>2026-08-05T08:39:24.000Z</time>
        <extensions>
          <ns3:TrackPointExtension>
            <ns3:hr>132</ns3:hr>
            <ns3:cad>53</ns3:cad>
          </ns3:TrackPointExtension>
        </extensions>
      </trkpt>
      <trkpt lat="43.4790307469666004180908203125" lon="1.4532092772424221038818359375">
        <ele>216</ele>
        <time>2026-08-05T08:39:25.000Z</time>
        <extensions>
          <ns3:TrackPointExtension>
            <ns3:hr>132</ns3:hr>
            <ns3:cad>53</ns3:cad>
          </ns3:TrackPointExtension>
        </extensions>
      </trkpt>
      <trkpt lat="43.479018844664096832275390625" lon="1.45319762639701366424560546875">
        <ele>216.1999969482421875</ele>
        <time>2026-08-05T08:39:26.000Z</time>
        <extensions>
          <ns3:TrackPointExtension>
            <ns3:hr>133</ns3:hr>
            <ns3:cad>52</ns3:cad>
          </ns3:TrackPointExtension>
        </extensions>
      </trkpt>
      <trkpt lat="43.47900937311351299285888671875" lon="1.45318723283708095550537109375">
        <ele>216.399993896484375</ele>
        <time>2026-08-05T08:39:27.000Z</time>
        <extensions>
          <ns3:TrackPointExtension>
            <ns3:hr>133</ns3:hr>
            <ns3:cad>51</ns3:cad>
          </ns3:TrackPointExtension>
        </extensions>
      </trkpt>
      <trkpt lat="43.47900048829615116119384765625" lon="1.453179605305194854736328125">
        <ele>216.399993896484375</ele>
        <time>2026-08-05T08:39:28.000Z</time>
        <extensions>
          <ns3:TrackPointExtension>
            <ns3:hr>133</ns3:hr>
            <ns3:cad>51</ns3:cad>
          </ns3:TrackPointExtension>
        </extensions>
      </trkpt>
      <trkpt lat="43.47899235785007476806640625" lon="1.45317449234426021575927734375">
        <ele>216.600006103515625</ele>
        <time>2026-08-05T08:39:29.000Z</time>
        <extensions>
          <ns3:TrackPointExtension>
            <ns3:hr>134</ns3:hr>
            <ns3:cad>51</ns3:cad>
          </ns3:TrackPointExtension>
        </extensions>
      </trkpt>
      <trkpt lat="43.47898162901401519775390625" lon="1.45316761918365955352783203125">
        <ele>216.8000030517578125</ele>
        <time>2026-08-05T08:39:30.000Z</time>
        <extensions>
          <ns3:TrackPointExtension>
            <ns3:hr>134</ns3:hr>
            <ns3:cad>51</ns3:cad>
          </ns3:TrackPointExtension>
        </extensions>
      </trkpt>
      <trkpt lat="43.47897064872086048126220703125" lon="1.45315772853791713714599609375">
        <ele>217</ele>
        <time>2026-08-05T08:39:31.000Z</time>
        <extensions>
          <ns3:TrackPointExtension>
            <ns3:hr>135</ns3:hr>
            <ns3:cad>50</ns3:cad>
          </ns3:TrackPointExtension>
        </extensions>
      </trkpt>
      <trkpt lat="43.47895891405642032623291015625" lon="1.4531470835208892822265625">
        <ele>217.1999969482421875</ele>
        <time>2026-08-05T08:39:32.000Z</time>
        <extensions>
          <ns3:TrackPointExtension>
            <ns3:hr>135</ns3:hr>
            <ns3:cad>50</ns3:cad>
          </ns3:TrackPointExtension>
        </extensions>
      </trkpt>
      <trkpt lat="43.478951118886470794677734375" lon="1.4531363546848297119140625">
        <ele>217.1999969482421875</ele>
        <time>2026-08-05T08:39:33.000Z</time>
        <extensions>
          <ns3:TrackPointExtension>
            <ns3:hr>135</ns3:hr>
            <ns3:cad>50</ns3:cad>
          </ns3:TrackPointExtension>
        </extensions>
      </trkpt>
      <trkpt lat="43.478949777781963348388671875" lon="1.45312093198299407958984375">
        <ele>217.399993896484375</ele>
        <time>2026-08-05T08:39:34.000Z</time>
        <extensions>
          <ns3:TrackPointExtension>
            <ns3:hr>136</ns3:hr>
            <ns3:cad>51</ns3:cad>
          </ns3:TrackPointExtension>
        </extensions>
      </trkpt>
      <trkpt lat="43.478946425020694732666015625" lon="1.45310794003307819366455078125">
        <ele>217.600006103515625</ele>
        <time>2026-08-05T08:39:35.000Z</time>
        <extensions>
          <ns3:TrackPointExtension>
            <ns3:hr>136</ns3:hr>
            <ns3:cad>51</ns3:cad>
          </ns3:TrackPointExtension>
        </extensions>
      </trkpt>
      <trkpt lat="43.47893695347011089324951171875" lon="1.4531014859676361083984375">
        <ele>217.8000030517578125</ele>
        <time>2026-08-05T08:39:36.000Z</time>
        <extensions>
          <ns3:TrackPointExtension>
            <ns3:hr>136</ns3:hr>
            <ns3:cad>51</ns3:cad>
          </ns3:TrackPointExtension>
        </extensions>
      </trkpt>
      <trkpt lat="43.4789224527776241302490234375" lon="1.4530929364264011383056640625">
        <ele>217.8000030517578125</ele>
        <time>2026-08-05T08:39:37.000Z</time>
        <extensions>
          <ns3:TrackPointExtension>
            <ns3:hr>137</ns3:hr>
            <ns3:cad>51</ns3:cad>
          </ns3:TrackPointExtension>
        </extensions>
      </trkpt>
      <trkpt lat="43.4789073653519153594970703125" lon="1.45308061502873897552490234375">
        <ele>218</ele>
        <time>2026-08-05T08:39:38.000Z</time>
        <extensions>
          <ns3:TrackPointExtension>
            <ns3:hr>137</ns3:hr>
            <ns3:cad>51</ns3:cad>
          </ns3:TrackPointExtension>
        </extensions>
      </trkpt>
      <trkpt lat="43.4788978099822998046875" lon="1.45306955091655254364013671875">
        <ele>218.1999969482421875</ele>
        <time>2026-08-05T08:39:39.000Z</time>
        <extensions>
          <ns3:TrackPointExtension>
            <ns3:hr>138</ns3:hr>
            <ns3:cad>51</ns3:cad>
          </ns3:TrackPointExtension>
        </extensions>
      </trkpt>
      <trkpt lat="43.47888599149882793426513671875" lon="1.45305848680436611175537109375">
        <ele>218.399993896484375</ele>
        <time>2026-08-05T08:39:40.000Z</time>
        <extensions>
          <ns3:TrackPointExtension>
            <ns3:hr>138</ns3:hr>
            <ns3:cad>51</ns3:cad>
          </ns3:TrackPointExtension>
        </extensions>
      </trkpt>
      <trkpt lat="43.47887945361435413360595703125" lon="1.4530480094254016876220703125">
        <ele>218.600006103515625</ele>
        <time>2026-08-05T08:39:41.000Z</time>
        <extensions>
          <ns3:TrackPointExtension>
            <ns3:hr>138</ns3:hr>
            <ns3:cad>51</ns3:cad>
          </ns3:TrackPointExtension>
        </extensions>
      </trkpt>
      <trkpt lat="43.47887056879699230194091796875" lon="1.45303267054259777069091796875">
        <ele>218.600006103515625</ele>
        <time>2026-08-05T08:39:42.000Z</time>
        <extensions>
          <ns3:TrackPointExtension>
            <ns3:hr>139</ns3:hr>
            <ns3:cad>51</ns3:cad>
          </ns3:TrackPointExtension>
        </extensions>
      </trkpt>
      <trkpt lat="43.478861264884471893310546875" lon="1.45302831195294857025146484375">
        <ele>218.8000030517578125</ele>
        <time>2026-08-05T08:39:43.000Z</time>
        <extensions>
          <ns3:TrackPointExtension>
            <ns3:hr>139</ns3:hr>
            <ns3:cad>51</ns3:cad>
          </ns3:TrackPointExtension>
        </extensions>
      </trkpt>
      <trkpt lat="43.47884827293455600738525390625" lon="1.45301775075495243072509765625">
        <ele>219</ele>
        <time>2026-08-05T08:39:44.000Z</time>
        <extensions>
          <ns3:TrackPointExtension>
            <ns3:hr>139</ns3:hr>
            <ns3:cad>51</ns3:cad>
          </ns3:TrackPointExtension>
        </extensions>
      </trkpt>
      <trkpt lat="43.47883486188948154449462890625" lon="1.453003920614719390869140625">
        <ele>219</ele>
        <time>2026-08-05T08:39:45.000Z</time>
        <extensions>
          <ns3:TrackPointExtension>
            <ns3:hr>139</ns3:hr>
            <ns3:cad>51</ns3:cad>
          </ns3:TrackPointExtension>
        </extensions>
      </trkpt>
      <trkpt lat="43.47882312722504138946533203125" lon="1.4529896713793277740478515625">
        <ele>219.1999969482421875</ele>
        <time>2026-08-05T08:39:46.000Z</time>
        <extensions>
          <ns3:TrackPointExtension>
            <ns3:hr>139</ns3:hr>
            <ns3:cad>51</ns3:cad>
          </ns3:TrackPointExtension>
        </extensions>
      </trkpt>
      <trkpt lat="43.47881558351218700408935546875" lon="1.452978439629077911376953125">
        <ele>219.399993896484375</ele>
        <time>2026-08-05T08:39:47.000Z</time>
        <extensions>
          <ns3:TrackPointExtension>
            <ns3:hr>140</ns3:hr>
            <ns3:cad>51</ns3:cad>
          </ns3:TrackPointExtension>
        </extensions>
      </trkpt>
      <trkpt lat="43.47880728542804718017578125" lon="1.45296913571655750274658203125">
        <ele>219.600006103515625</ele>
        <time>2026-08-05T08:39:48.000Z</time>
        <extensions>
          <ns3:TrackPointExtension>
            <ns3:hr>140</ns3:hr>
            <ns3:cad>51</ns3:cad>
          </ns3:TrackPointExtension>
        </extensions>
      </trkpt>
      <trkpt lat="43.4788020886480808258056640625" lon="1.4529611729085445404052734375">
        <ele>219.8000030517578125</ele>
        <time>2026-08-05T08:39:49.000Z</time>
        <extensions>
          <ns3:TrackPointExtension>
            <ns3:hr>140</ns3:hr>
            <ns3:cad>51</ns3:cad>
          </ns3:TrackPointExtension>
        </extensions>
      </trkpt>
      <trkpt lat="43.47879664041101932525634765625" lon="1.45295321010053157806396484375">
        <ele>220</ele>
        <time>2026-08-05T08:39:50.000Z</time>
        <extensions>
          <ns3:TrackPointExtension>
            <ns3:hr>140</ns3:hr>
            <ns3:cad>51</ns3:cad>
          </ns3:TrackPointExtension>
        </extensions>
      </trkpt>
      <trkpt lat="43.47879077307879924774169921875" lon="1.4529434032738208770751953125">
        <ele>220.1999969482421875</ele>
        <time>2026-08-05T08:39:51.000Z</time>
        <extensions>
          <ns3:TrackPointExtension>
            <ns3:hr>140</ns3:hr>
            <ns3:cad>51</ns3:cad>
          </ns3:TrackPointExtension>
        </extensions>
      </trkpt>
      <trkpt lat="43.478780798614025115966796875" lon="1.45293242298066616058349609375">
        <ele>220.399993896484375</ele>
        <time>2026-08-05T08:39:52.000Z</time>
        <extensions>
          <ns3:TrackPointExtension>
            <ns3:hr>141</ns3:hr>
            <ns3:cad>52</ns3:cad>
          </ns3:TrackPointExtension>
        </extensions>
      </trkpt>
      <trkpt lat="43.47876780666410923004150390625" lon="1.4529179222881793975830078125">
        <ele>220.600006103515625</ele>
        <time>2026-08-05T08:39:53.000Z</time>
        <extensions>
          <ns3:TrackPointExtension>
            <ns3:hr>141</ns3:hr>
            <ns3:cad>52</ns3:cad>
          </ns3:TrackPointExtension>
        </extensions>
      </trkpt>
      <trkpt lat="43.47875556908547878265380859375" lon="1.452906019985675811767578125">
        <ele>220.8000030517578125</ele>
        <time>2026-08-05T08:39:54.000Z</time>
        <extensions>
          <ns3:TrackPointExtension>
            <ns3:hr>141</ns3:hr>
            <ns3:cad>52</ns3:cad>
          </ns3:TrackPointExtension>
        </extensions>
      </trkpt>
      <trkpt lat="43.47874500788748264312744140625" lon="1.45289696753025054931640625">
        <ele>221</ele>
        <time>2026-08-05T08:39:55.000Z</time>
        <extensions>
          <ns3:TrackPointExtension>
            <ns3:hr>141</ns3:hr>
            <ns3:cad>53</ns3:cad>
          </ns3:TrackPointExtension>
        </extensions>
      </trkpt>
      <trkpt lat="43.4787360392510890960693359375" lon="1.45289084874093532562255859375">
        <ele>221.1999969482421875</ele>
        <time>2026-08-05T08:39:56.000Z</time>
        <extensions>
          <ns3:TrackPointExtension>
            <ns3:hr>141</ns3:hr>
            <ns3:cad>53</ns3:cad>
          </ns3:TrackPointExtension>
        </extensions>
      </trkpt>
      <trkpt lat="43.47872857935726642608642578125" lon="1.4528860710561275482177734375">
        <ele>221.1999969482421875</ele>
        <time>2026-08-05T08:39:57.000Z</time>
        <extensions>
          <ns3:TrackPointExtension>
            <ns3:hr>141</ns3:hr>
            <ns3:cad>53</ns3:cad>
          </ns3:TrackPointExtension>
        </extensions>
      </trkpt>
      <trkpt lat="43.47872120328247547149658203125" lon="1.45287911407649517059326171875">
        <ele>221.399993896484375</ele>
        <time>2026-08-05T08:39:58.000Z</time>
        <extensions>
          <ns3:TrackPointExtension>
            <ns3:hr>141</ns3:hr>
            <ns3:cad>53</ns3:cad>
          </ns3:TrackPointExtension>
        </extensions>
      </trkpt>
      <trkpt lat="43.478711731731891632080078125" lon="1.45286922343075275421142578125">
        <ele>221.600006103515625</ele>
        <time>2026-08-05T08:39:59.000Z</time>
        <extensions>
          <ns3:TrackPointExtension>
            <ns3:hr>142</ns3:hr>
            <ns3:cad>53</ns3:cad>
          </ns3:TrackPointExtension>
        </extensions>
      </trkpt>
      <trkpt lat="43.4787015058100223541259765625" lon="1.452859751880168914794921875">
        <ele>221.8000030517578125</ele>
        <time>2026-08-05T08:40:00.000Z</time>
        <extensions>
          <ns3:TrackPointExtension>
            <ns3:hr>142</ns3:hr>
            <ns3:cad>53</ns3:cad>
          </ns3:TrackPointExtension>
        </extensions>
      </trkpt>
      <trkpt lat="43.4786917828023433685302734375" lon="1.45284810103476047515869140625">
        <ele>222</ele>
        <time>2026-08-05T08:40:01.000Z</time>
        <extensions>
          <ns3:TrackPointExtension>
            <ns3:hr>142</ns3:hr>
            <ns3:cad>53</ns3:cad>
          </ns3:TrackPointExtension>
        </extensions>
      </trkpt>
      <trkpt lat="43.47868499346077442169189453125" lon="1.45283971913158893585205078125">
        <ele>222.1999969482421875</ele>
        <time>2026-08-05T08:40:02.000Z</time>
        <extensions>
          <ns3:TrackPointExtension>
            <ns3:hr>142</ns3:hr>
            <ns3:cad>53</ns3:cad>
          </ns3:TrackPointExtension>
        </extensions>
      </trkpt>
      <trkpt lat="43.47867828793823719024658203125" lon="1.4528320915997028350830078125">
        <ele>222.399993896484375</ele>
        <time>2026-08-05T08:40:03.000Z</time>
        <extensions>
          <ns3:TrackPointExtension>
            <ns3:hr>142</ns3:hr>
            <ns3:cad>53</ns3:cad>
          </ns3:TrackPointExtension>
        </extensions>
      </trkpt>
      <trkpt lat="43.4786723367869853973388671875" lon="1.4528250508010387420654296875">
        <ele>222.600006103515625</ele>
        <time>2026-08-05T08:40:04.000Z</time>
        <extensions>
          <ns3:TrackPointExtension>
            <ns3:hr>142</ns3:hr>
            <ns3:cad>53</ns3:cad>
          </ns3:TrackPointExtension>
        </extensions>
      </trkpt>
      <trkpt lat="43.47866504453122615814208984375" lon="1.45281742326915264129638671875">
        <ele>222.8000030517578125</ele>
        <time>2026-08-05T08:40:05.000Z</time>
        <extensions>
          <ns3:TrackPointExtension>
            <ns3:hr>143</ns3:hr>
            <ns3:cad>50</ns3:cad>
          </ns3:TrackPointExtension>
        </extensions>
      </trkpt>
      <trkpt lat="43.4786532260477542877197265625" lon="1.45280585624277591705322265625">
        <ele>223</ele>
        <time>2026-08-05T08:40:06.000Z</time>
        <extensions>
          <ns3:TrackPointExtension>
            <ns3:hr>143</ns3:hr>
            <ns3:cad>50</ns3:cad>
          </ns3:TrackPointExtension>
        </extensions>
      </trkpt>
      <trkpt lat="43.4786424972116947174072265625" lon="1.4527942053973674774169921875">
        <ele>223.399993896484375</ele>
        <time>2026-08-05T08:40:07.000Z</time>
        <extensions>
          <ns3:TrackPointExtension>
            <ns3:hr>143</ns3:hr>
            <ns3:cad>51</ns3:cad>
          </ns3:TrackPointExtension>
        </extensions>
      </trkpt>
      <trkpt lat="43.4786337800323963165283203125" lon="1.452783308923244476318359375">
        <ele>223.600006103515625</ele>
        <time>2026-08-05T08:40:08.000Z</time>
        <extensions>
          <ns3:TrackPointExtension>
            <ns3:hr>144</ns3:hr>
            <ns3:cad>51</ns3:cad>
          </ns3:TrackPointExtension>
        </extensions>
      </trkpt>
      <trkpt lat="43.478626906871795654296875" lon="1.4527727477252483367919921875">
        <ele>223.8000030517578125</ele>
        <time>2026-08-05T08:40:09.000Z</time>
        <extensions>
          <ns3:TrackPointExtension>
            <ns3:hr>144</ns3:hr>
            <ns3:cad>50</ns3:cad>
          </ns3:TrackPointExtension>
        </extensions>
      </trkpt>
      <trkpt lat="43.478619866073131561279296875" lon="1.45276143215596675872802734375">
        <ele>224</ele>
        <time>2026-08-05T08:40:10.000Z</time>
        <extensions>
          <ns3:TrackPointExtension>
            <ns3:hr>145</ns3:hr>
            <ns3:cad>50</ns3:cad>
          </ns3:TrackPointExtension>
        </extensions>
      </trkpt>
      <trkpt lat="43.4786133281886577606201171875" lon="1.45274802111089229583740234375">
        <ele>224</ele>
        <time>2026-08-05T08:40:11.000Z</time>
        <extensions>
          <ns3:TrackPointExtension>
            <ns3:hr>146</ns3:hr>
            <ns3:cad>51</ns3:cad>
          </ns3:TrackPointExtension>
        </extensions>
      </trkpt>
      <trkpt lat="43.47860201261937618255615234375" lon="1.45273603498935699462890625">
        <ele>224.1999969482421875</ele>
        <time>2026-08-05T08:40:12.000Z</time>
        <extensions>
          <ns3:TrackPointExtension>
            <ns3:hr>146</ns3:hr>
            <ns3:cad>51</ns3:cad>
          </ns3:TrackPointExtension>
        </extensions>
      </trkpt>
      <trkpt lat="43.478587679564952850341796875" lon="1.4527217857539653778076171875">
        <ele>224.399993896484375</ele>
        <time>2026-08-05T08:40:13.000Z</time>
        <extensions>
          <ns3:TrackPointExtension>
            <ns3:hr>147</ns3:hr>
            <ns3:cad>51</ns3:cad>
          </ns3:TrackPointExtension>
        </extensions>
      </trkpt>
      <trkpt lat="43.47857636399567127227783203125" lon="1.452710218727588653564453125">
        <ele>224.600006103515625</ele>
        <time>2026-08-05T08:40:14.000Z</time>
        <extensions>
          <ns3:TrackPointExtension>
            <ns3:hr>148</ns3:hr>
            <ns3:cad>50</ns3:cad>
          </ns3:TrackPointExtension>
        </extensions>
      </trkpt>
      <trkpt lat="43.47856647334992885589599609375" lon="1.452700830996036529541015625">
        <ele>224.8000030517578125</ele>
        <time>2026-08-05T08:40:15.000Z</time>
        <extensions>
          <ns3:TrackPointExtension>
            <ns3:hr>149</ns3:hr>
            <ns3:cad>50</ns3:cad>
          </ns3:TrackPointExtension>
        </extensions>
      </trkpt>
      <trkpt lat="43.47855675034224987030029296875" lon="1.45268850959837436676025390625">
        <ele>225</ele>
        <time>2026-08-05T08:40:16.000Z</time>
        <extensions>
          <ns3:TrackPointExtension>
            <ns3:hr>150</ns3:hr>
            <ns3:cad>51</ns3:cad>
          </ns3:TrackPointExtension>
        </extensions>
      </trkpt>
      <trkpt lat="43.47855138592422008514404296875" lon="1.45268331281840801239013671875">
        <ele>225.1999969482421875</ele>
        <time>2026-08-05T08:40:17.000Z</time>
        <extensions>
          <ns3:TrackPointExtension>
            <ns3:hr>151</ns3:hr>
            <ns3:cad>51</ns3:cad>
          </ns3:TrackPointExtension>
        </extensions>
      </trkpt>
      <trkpt lat="43.47854048945009708404541015625" lon="1.45267032086849212646484375">
        <ele>225.399993896484375</ele>
        <time>2026-08-05T08:40:18.000Z</time>
        <extensions>
          <ns3:TrackPointExtension>
            <ns3:hr>151</ns3:hr>
            <ns3:cad>52</ns3:cad>
          </ns3:TrackPointExtension>
        </extensions>
      </trkpt>
      <trkpt lat="43.47852992825210094451904296875" lon="1.45265682600438594818115234375">
        <ele>225.600006103515625</ele>
        <time>2026-08-05T08:40:19.000Z</time>
        <extensions>
          <ns3:TrackPointExtension>
            <ns3:hr>151</ns3:hr>
            <ns3:cad>52</ns3:cad>
          </ns3:TrackPointExtension>
        </extensions>
      </trkpt>
      <trkpt lat="43.47851894795894622802734375" lon="1.45264576189219951629638671875">
        <ele>225.8000030517578125</ele>
        <time>2026-08-05T08:40:20.000Z</time>
        <extensions>
          <ns3:TrackPointExtension>
            <ns3:hr>151</ns3:hr>
            <ns3:cad>52</ns3:cad>
          </ns3:TrackPointExtension>
        </extensions>
      </trkpt>
      <trkpt lat="43.47851098515093326568603515625" lon="1.45263637416064739227294921875">
        <ele>226</ele>
        <time>2026-08-05T08:40:21.000Z</time>
        <extensions>
          <ns3:TrackPointExtension>
            <ns3:hr>152</ns3:hr>
            <ns3:cad>52</ns3:cad>
          </ns3:TrackPointExtension>
        </extensions>
      </trkpt>
      <trkpt lat="43.47850813530385494232177734375" lon="1.4526265673339366912841796875">
        <ele>226.1999969482421875</ele>
        <time>2026-08-05T08:40:22.000Z</time>
        <extensions>
          <ns3:TrackPointExtension>
            <ns3:hr>152</ns3:hr>
            <ns3:cad>50</ns3:cad>
          </ns3:TrackPointExtension>
        </extensions>
      </trkpt>
      <trkpt lat="43.47850411199033260345458984375" lon="1.4526144973933696746826171875">
        <ele>226.399993896484375</ele>
        <time>2026-08-05T08:40:23.000Z</time>
        <extensions>
          <ns3:TrackPointExtension>
            <ns3:hr>152</ns3:hr>
            <ns3:cad>50</ns3:cad>
          </ns3:TrackPointExtension>
        </extensions>
      </trkpt>
      <trkpt lat="43.4784963168203830718994140625" lon="1.45260552875697612762451171875">
        <ele>226.600006103515625</ele>
        <time>2026-08-05T08:40:24.000Z</time>
        <extensions>
          <ns3:TrackPointExtension>
            <ns3:hr>152</ns3:hr>
            <ns3:cad>50</ns3:cad>
          </ns3:TrackPointExtension>
        </extensions>
      </trkpt>
      <trkpt lat="43.47848366014659404754638671875" lon="1.4525916986167430877685546875">
        <ele>226.8000030517578125</ele>
        <time>2026-08-05T08:40:25.000Z</time>
        <extensions>
          <ns3:TrackPointExtension>
            <ns3:hr>152</ns3:hr>
            <ns3:cad>50</ns3:cad>
          </ns3:TrackPointExtension>
        </extensions>
      </trkpt>
      <trkpt lat="43.47847066819667816162109375" lon="1.452579461038112640380859375">
        <ele>226.8000030517578125</ele>
        <time>2026-08-05T08:40:26.000Z</time>
        <extensions>
          <ns3:TrackPointExtension>
            <ns3:hr>151</ns3:hr>
            <ns3:cad>50</ns3:cad>
          </ns3:TrackPointExtension>
        </extensions>
      </trkpt>
      <trkpt lat="43.47845993936061859130859375" lon="1.45256839692592620849609375">
        <ele>227</ele>
        <time>2026-08-05T08:40:27.000Z</time>
        <extensions>
          <ns3:TrackPointExtension>
            <ns3:hr>150</ns3:hr>
            <ns3:cad>50</ns3:cad>
          </ns3:TrackPointExtension>
        </extensions>
      </trkpt>
      <trkpt lat="43.4784537367522716522216796875" lon="1.45255842246115207672119140625">
        <ele>227.1999969482421875</ele>
        <time>2026-08-05T08:40:28.000Z</time>
        <extensions>
          <ns3:TrackPointExtension>
            <ns3:hr>148</ns3:hr>
            <ns3:cad>50</ns3:cad>
          </ns3:TrackPointExtension>
        </extensions>
      </trkpt>
      <trkpt lat="43.47845130600035190582275390625" lon="1.452547274529933929443359375">
        <ele>227.399993896484375</ele>
        <time>2026-08-05T08:40:29.000Z</time>
        <extensions>
          <ns3:TrackPointExtension>
            <ns3:hr>147</ns3:hr>
            <ns3:cad>51</ns3:cad>
          </ns3:TrackPointExtension>
        </extensions>
      </trkpt>
      <trkpt lat="43.47844996489584445953369140625" lon="1.4525382220745086669921875">
        <ele>227.600006103515625</ele>
        <time>2026-08-05T08:40:30.000Z</time>
        <extensions>
          <ns3:TrackPointExtension>
            <ns3:hr>146</ns3:hr>
            <ns3:cad>51</ns3:cad>
          </ns3:TrackPointExtension>
        </extensions>
      </trkpt>
      <trkpt lat="43.4784423373639583587646484375" lon="1.45252657122910022735595703125">
        <ele>227.8000030517578125</ele>
        <time>2026-08-05T08:40:31.000Z</time>
        <extensions>
          <ns3:TrackPointExtension>
            <ns3:hr>145</ns3:hr>
            <ns3:cad>51</ns3:cad>
          </ns3:TrackPointExtension>
        </extensions>
      </trkpt>
      <trkpt lat="43.47842909395694732666015625" lon="1.45251751877367496490478515625">
        <ele>228</ele>
        <time>2026-08-05T08:40:32.000Z</time>
        <extensions>
          <ns3:TrackPointExtension>
            <ns3:hr>145</ns3:hr>
            <ns3:cad>51</ns3:cad>
          </ns3:TrackPointExtension>
        </extensions>
      </trkpt>
      <trkpt lat="43.47841576673090457916259765625" lon="1.4525065384805202484130859375">
        <ele>228.1999969482421875</ele>
        <time>2026-08-05T08:40:33.000Z</time>
        <extensions>
          <ns3:TrackPointExtension>
            <ns3:hr>144</ns3:hr>
            <ns3:cad>51</ns3:cad>
          </ns3:TrackPointExtension>
        </extensions>
      </trkpt>
      <trkpt lat="43.4784047864377498626708984375" lon="1.45249756984412670135498046875">
        <ele>228.399993896484375</ele>
        <time>2026-08-05T08:40:34.000Z</time>
        <extensions>
          <ns3:TrackPointExtension>
            <ns3:hr>144</ns3:hr>
            <ns3:cad>51</ns3:cad>
          </ns3:TrackPointExtension>
        </extensions>
      </trkpt>
      <trkpt lat="43.47839782945811748504638671875" lon="1.45248717628419399261474609375">
        <ele>228.600006103515625</ele>
        <time>2026-08-05T08:40:35.000Z</time>
        <extensions>
          <ns3:TrackPointExtension>
            <ns3:hr>144</ns3:hr>
            <ns3:cad>51</ns3:cad>
          </ns3:TrackPointExtension>
        </extensions>
      </trkpt>
      <trkpt lat="43.47839296795427799224853515625" lon="1.4524780400097370147705078125">
        <ele>228.8000030517578125</ele>
        <time>2026-08-05T08:40:36.000Z</time>
        <extensions>
          <ns3:TrackPointExtension>
            <ns3:hr>143</ns3:hr>
            <ns3:cad>50</ns3:cad>
          </ns3:TrackPointExtension>
        </extensions>
      </trkpt>
      <trkpt lat="43.47838391549885272979736328125" lon="1.45247049629688262939453125">
        <ele>229</ele>
        <time>2026-08-05T08:40:37.000Z</time>
        <extensions>
          <ns3:TrackPointExtension>
            <ns3:hr>141</ns3:hr>
            <ns3:cad>50</ns3:cad>
          </ns3:TrackPointExtension>
        </extensions>
      </trkpt>
      <trkpt lat="43.47837050445377826690673828125" lon="1.4524585939943790435791015625">
        <ele>229</ele>
        <time>2026-08-05T08:40:38.000Z</time>
        <extensions>
          <ns3:TrackPointExtension>
            <ns3:hr>127</ns3:hr>
            <ns3:cad>50</ns3:cad>
          </ns3:TrackPointExtension>
        </extensions>
      </trkpt>
      <trkpt lat="43.47835860215127468109130859375" lon="1.452448032796382904052734375">
        <ele>229.1999969482421875</ele>
        <time>2026-08-05T08:40:39.000Z</time>
        <extensions>
          <ns3:TrackPointExtension>
            <ns3:hr>122</ns3:hr>
            <ns3:cad>50</ns3:cad>
          </ns3:TrackPointExtension>
        </extensions>
      </trkpt>
      <trkpt lat="43.4783454425632953643798828125" lon="1.45243369974195957183837890625">
        <ele>229.399993896484375</ele>
        <time>2026-08-05T08:40:40.000Z</time>
        <extensions>
          <ns3:TrackPointExtension>
            <ns3:hr>122</ns3:hr>
            <ns3:cad>50</ns3:cad>
          </ns3:TrackPointExtension>
        </extensions>
      </trkpt>
      <trkpt lat="43.47833764739334583282470703125" lon="1.45241777412593364715576171875">
        <ele>229.600006103515625</ele>
        <time>2026-08-05T08:40:41.000Z</time>
        <extensions>
          <ns3:TrackPointExtension>
            <ns3:hr>123</ns3:hr>
            <ns3:cad>50</ns3:cad>
          </ns3:TrackPointExtension>
        </extensions>
      </trkpt>
      <trkpt lat="43.4783323667943477630615234375" lon="1.45240335725247859954833984375">
        <ele>229.8000030517578125</ele>
        <time>2026-08-05T08:40:42.000Z</time>
        <extensions>
          <ns3:TrackPointExtension>
            <ns3:hr>123</ns3:hr>
            <ns3:cad>51</ns3:cad>
          </ns3:TrackPointExtension>
        </extensions>
      </trkpt>
      <trkpt lat="43.4783263318240642547607421875" lon="1.452393718063831329345703125">
        <ele>230</ele>
        <time>2026-08-05T08:40:43.000Z</time>
        <extensions>
          <ns3:TrackPointExtension>
            <ns3:hr>124</ns3:hr>
            <ns3:cad>51</ns3:cad>
          </ns3:TrackPointExtension>
        </extensions>
      </trkpt>
      <trkpt lat="43.4783192910254001617431640625" lon="1.45238391123712062835693359375">
        <ele>230</ele>
        <time>2026-08-05T08:40:44.000Z</time>
        <extensions>
          <ns3:TrackPointExtension>
            <ns3:hr>124</ns3:hr>
            <ns3:cad>52</ns3:cad>
          </ns3:TrackPointExtension>
        </extensions>
      </trkpt>
      <trkpt lat="43.47830797545611858367919921875" lon="1.4523727633059024810791015625">
        <ele>230.1999969482421875</ele>
        <time>2026-08-05T08:40:45.000Z</time>
        <extensions>
          <ns3:TrackPointExtension>
            <ns3:hr>124</ns3:hr>
            <ns3:cad>52</ns3:cad>
          </ns3:TrackPointExtension>
        </extensions>
      </trkpt>
      <trkpt lat="43.478294648230075836181640625" lon="1.4523620344698429107666015625">
        <ele>230.399993896484375</ele>
        <time>2026-08-05T08:40:46.000Z</time>
        <extensions>
          <ns3:TrackPointExtension>
            <ns3:hr>124</ns3:hr>
            <ns3:cad>52</ns3:cad>
          </ns3:TrackPointExtension>
        </extensions>
      </trkpt>
      <trkpt lat="43.47828291356563568115234375" lon="1.45235507749021053314208984375">
        <ele>230.600006103515625</ele>
        <time>2026-08-05T08:40:47.000Z</time>
        <extensions>
          <ns3:TrackPointExtension>
            <ns3:hr>124</ns3:hr>
            <ns3:cad>51</ns3:cad>
          </ns3:TrackPointExtension>
        </extensions>
      </trkpt>
      <trkpt lat="43.478276543319225311279296875" lon="1.4523429237306118011474609375">
        <ele>230.8000030517578125</ele>
        <time>2026-08-05T08:40:48.000Z</time>
        <extensions>
          <ns3:TrackPointExtension>
            <ns3:hr>124</ns3:hr>
            <ns3:cad>51</ns3:cad>
          </ns3:TrackPointExtension>
        </extensions>
      </trkpt>
      <trkpt lat="43.47826950252056121826171875" lon="1.45233370363712310791015625">
        <ele>230.8000030517578125</ele>
        <time>2026-08-05T08:40:49.000Z</time>
        <extensions>
          <ns3:TrackPointExtension>
            <ns3:hr>124</ns3:hr>
            <ns3:cad>52</ns3:cad>
          </ns3:TrackPointExtension>
        </extensions>
      </trkpt>
      <trkpt lat="43.47826145589351654052734375" lon="1.45232708193361759185791015625">
        <ele>231</ele>
        <time>2026-08-05T08:40:50.000Z</time>
        <extensions>
          <ns3:TrackPointExtension>
            <ns3:hr>123</ns3:hr>
            <ns3:cad>52</ns3:cad>
          </ns3:TrackPointExtension>
        </extensions>
      </trkpt>
      <trkpt lat="43.47825399599969387054443359375" lon="1.452321298420429229736328125">
        <ele>231.1999969482421875</ele>
        <time>2026-08-05T08:40:51.000Z</time>
        <extensions>
          <ns3:TrackPointExtension>
            <ns3:hr>123</ns3:hr>
            <ns3:cad>51</ns3:cad>
          </ns3:TrackPointExtension>
        </extensions>
      </trkpt>
      <trkpt lat="43.4782431833446025848388671875" lon="1.45230947993695735931396484375">
        <ele>231.1999969482421875</ele>
        <time>2026-08-05T08:40:52.000Z</time>
        <extensions>
          <ns3:TrackPointExtension>
            <ns3:hr>124</ns3:hr>
            <ns3:cad>51</ns3:cad>
          </ns3:TrackPointExtension>
        </extensions>
      </trkpt>
      <trkpt lat="43.47823287360370159149169921875" lon="1.4522973261773586273193359375">
        <ele>231.399993896484375</ele>
        <time>2026-08-05T08:40:53.000Z</time>
        <extensions>
          <ns3:TrackPointExtension>
            <ns3:hr>124</ns3:hr>
            <ns3:cad>50</ns3:cad>
          </ns3:TrackPointExtension>
        </extensions>
      </trkpt>
      <trkpt lat="43.47822365351021289825439453125" lon="1.4522852562367916107177734375">
        <ele>231.600006103515625</ele>
        <time>2026-08-05T08:40:54.000Z</time>
        <extensions>
          <ns3:TrackPointExtension>
            <ns3:hr>124</ns3:hr>
            <ns3:cad>50</ns3:cad>
          </ns3:TrackPointExtension>
        </extensions>
      </trkpt>
      <trkpt lat="43.47821476869285106658935546875" lon="1.45227561704814434051513671875">
        <ele>231.600006103515625</ele>
        <time>2026-08-05T08:40:55.000Z</time>
        <extensions>
          <ns3:TrackPointExtension>
            <ns3:hr>124</ns3:hr>
            <ns3:cad>50</ns3:cad>
          </ns3:TrackPointExtension>
        </extensions>
      </trkpt>
      <trkpt lat="43.4782089851796627044677734375" lon="1.45226798951625823974609375">
        <ele>231.8000030517578125</ele>
        <time>2026-08-05T08:40:56.000Z</time>
        <extensions>
          <ns3:TrackPointExtension>
            <ns3:hr>124</ns3:hr>
            <ns3:cad>50</ns3:cad>
          </ns3:TrackPointExtension>
        </extensions>
      </trkpt>
      <trkpt lat="43.47820186056196689605712890625" lon="1.452260948717594146728515625">
        <ele>231.8000030517578125</ele>
        <time>2026-08-05T08:40:57.000Z</time>
        <extensions>
          <ns3:TrackPointExtension>
            <ns3:hr>123</ns3:hr>
            <ns3:cad>51</ns3:cad>
          </ns3:TrackPointExtension>
        </extensions>
      </trkpt>
      <trkpt lat="43.47819079644978046417236328125" lon="1.4522487111389636993408203125">
        <ele>231.8000030517578125</ele>
        <time>2026-08-05T08:40:58.000Z</time>
        <extensions>
          <ns3:TrackPointExtension>
            <ns3:hr>123</ns3:hr>
            <ns3:cad>51</ns3:cad>
          </ns3:TrackPointExtension>
        </extensions>
      </trkpt>
      <trkpt lat="43.47817738540470600128173828125" lon="1.45223823375999927520751953125">
        <ele>232</ele>
        <time>2026-08-05T08:40:59.000Z</time>
        <extensions>
          <ns3:TrackPointExtension>
            <ns3:hr>123</ns3:hr>
            <ns3:cad>51</ns3:cad>
          </ns3:TrackPointExtension>
        </extensions>
      </trkpt>
      <trkpt lat="43.47816489636898040771484375" lon="1.45222968421876430511474609375">
        <ele>232</ele>
        <time>2026-08-05T08:41:00.000Z</time>
        <extensions>
          <ns3:TrackPointExtension>
            <ns3:hr>123</ns3:hr>
            <ns3:cad>49</ns3:cad>
          </ns3:TrackPointExtension>
        </extensions>
      </trkpt>
      <trkpt lat="43.47815609537065029144287109375" lon="1.45221836864948272705078125">
        <ele>232.1999969482421875</ele>
        <time>2026-08-05T08:41:01.000Z</time>
        <extensions>
          <ns3:TrackPointExtension>
            <ns3:hr>123</ns3:hr>
            <ns3:cad>48</ns3:cad>
          </ns3:TrackPointExtension>
        </extensions>
      </trkpt>
      <trkpt lat="43.4781479649245738983154296875" lon="1.45221208222210407257080078125">
        <ele>232.1999969482421875</ele>
        <time>2026-08-05T08:41:02.000Z</time>
        <extensions>
          <ns3:TrackPointExtension>
            <ns3:hr>123</ns3:hr>
            <ns3:cad>48</ns3:cad>
          </ns3:TrackPointExtension>
        </extensions>
      </trkpt>
      <trkpt lat="43.47813539206981658935546875" lon="1.45220319740474224090576171875">
        <ele>232.399993896484375</ele>
        <time>2026-08-05T08:41:03.000Z</time>
        <extensions>
          <ns3:TrackPointExtension>
            <ns3:hr>123</ns3:hr>
            <ns3:cad>48</ns3:cad>
          </ns3:TrackPointExtension>
        </extensions>
      </trkpt>
      <trkpt lat="43.47812340594828128814697265625" lon="1.45219624042510986328125">
        <ele>232.399993896484375</ele>
        <time>2026-08-05T08:41:04.000Z</time>
        <extensions>
          <ns3:TrackPointExtension>
            <ns3:hr>123</ns3:hr>
            <ns3:cad>48</ns3:cad>
          </ns3:TrackPointExtension>
        </extensions>
      </trkpt>
      <trkpt lat="43.4781127609312534332275390625" lon="1.4521886967122554779052734375">
        <ele>232.399993896484375</ele>
        <time>2026-08-05T08:41:05.000Z</time>
        <extensions>
          <ns3:TrackPointExtension>
            <ns3:hr>123</ns3:hr>
            <ns3:cad>48</ns3:cad>
          </ns3:TrackPointExtension>
        </extensions>
      </trkpt>
      <trkpt lat="43.47810463048517704010009765625" lon="1.45218023099005222320556640625">
        <ele>232.600006103515625</ele>
        <time>2026-08-05T08:41:06.000Z</time>
        <extensions>
          <ns3:TrackPointExtension>
            <ns3:hr>123</ns3:hr>
            <ns3:cad>48</ns3:cad>
          </ns3:TrackPointExtension>
        </extensions>
      </trkpt>
      <trkpt lat="43.478099517524242401123046875" lon="1.452173776924610137939453125">
        <ele>232.600006103515625</ele>
        <time>2026-08-05T08:41:07.000Z</time>
        <extensions>
          <ns3:TrackPointExtension>
            <ns3:hr>122</ns3:hr>
            <ns3:cad>48</ns3:cad>
          </ns3:TrackPointExtension>
        </extensions>
      </trkpt>
      <trkpt lat="43.4780933149158954620361328125" lon="1.4521726034581661224365234375">
        <ele>232.8000030517578125</ele>
        <time>2026-08-05T08:41:08.000Z</time>
        <extensions>
          <ns3:TrackPointExtension>
            <ns3:hr>122</ns3:hr>
            <ns3:cad>48</ns3:cad>
          </ns3:TrackPointExtension>
        </extensions>
      </trkpt>
      <trkpt lat="43.47808845341205596923828125" lon="1.452172100543975830078125">
        <ele>232.8000030517578125</ele>
        <time>2026-08-05T08:41:09.000Z</time>
        <extensions>
          <ns3:TrackPointExtension>
            <ns3:hr>122</ns3:hr>
            <ns3:cad>46</ns3:cad>
          </ns3:TrackPointExtension>
        </extensions>
      </trkpt>
      <trkpt lat="43.4780862741172313690185546875" lon="1.4521732740104198455810546875">
        <ele>232.8000030517578125</ele>
        <time>2026-08-05T08:41:10.000Z</time>
        <extensions>
          <ns3:TrackPointExtension>
            <ns3:hr>121</ns3:hr>
            <ns3:cad>46</ns3:cad>
          </ns3:TrackPointExtension>
        </extensions>
      </trkpt>
      <trkpt lat="43.478085100650787353515625" lon="1.45217319019138813018798828125">
        <ele>232.8000030517578125</ele>
        <time>2026-08-05T08:41:11.000Z</time>
        <extensions>
          <ns3:TrackPointExtension>
            <ns3:hr>121</ns3:hr>
            <ns3:cad>46</ns3:cad>
          </ns3:TrackPointExtension>
        </extensions>
      </trkpt>
      <trkpt lat="43.47808602266013622283935546875" lon="1.4521742798388004302978515625">
        <ele>233</ele>
        <time>2026-08-05T08:41:12.000Z</time>
        <extensions>
          <ns3:TrackPointExtension>
            <ns3:hr>121</ns3:hr>
            <ns3:cad>0</ns3:cad>
          </ns3:TrackPointExtension>
        </extensions>
      </trkpt>
      <trkpt lat="43.4780852682888507843017578125" lon="1.4521779678761959075927734375">
        <ele>233</ele>
        <time>2026-08-05T08:41:13.000Z</time>
        <extensions>
          <ns3:TrackPointExtension>
            <ns3:hr>121</ns3:hr>
            <ns3:cad>0</ns3:cad>
          </ns3:TrackPointExtension>
        </extensions>
      </trkpt>
      <trkpt lat="43.47808568738400936126708984375" lon="1.4521850086748600006103515625">
        <ele>233</ele>
        <time>2026-08-05T08:41:14.000Z</time>
        <extensions>
          <ns3:TrackPointExtension>
            <ns3:hr>121</ns3:hr>
            <ns3:cad>0</ns3:cad>
          </ns3:TrackPointExtension>
        </extensions>
      </trkpt>
      <trkpt lat="43.47808484919369220733642578125" lon="1.4521922171115875244140625">
        <ele>233</ele>
        <time>2026-08-05T08:41:15.000Z</time>
        <extensions>
          <ns3:TrackPointExtension>
            <ns3:hr>120</ns3:hr>
            <ns3:cad>0</ns3:cad>
          </ns3:TrackPointExtension>
        </extensions>
      </trkpt>
      <trkpt lat="43.478080071508884429931640625" lon="1.452198922634124755859375">
        <ele>233</ele>
        <time>2026-08-05T08:41:16.000Z</time>
        <extensions>
          <ns3:TrackPointExtension>
            <ns3:hr>120</ns3:hr>
            <ns3:cad>0</ns3:cad>
          </ns3:TrackPointExtension>
        </extensions>
      </trkpt>
      <trkpt lat="43.47807370126247406005859375" lon="1.45220470614731311798095703125">
        <ele>233</ele>
        <time>2026-08-05T08:41:17.000Z</time>
        <extensions>
          <ns3:TrackPointExtension>
            <ns3:hr>119</ns3:hr>
            <ns3:cad>0</ns3:cad>
          </ns3:TrackPointExtension>
        </extensions>
      </trkpt>
      <trkpt lat="43.4780671633780002593994140625" lon="1.45220604725182056427001953125">
        <ele>233</ele>
        <time>2026-08-05T08:41:18.000Z</time>
        <extensions>
          <ns3:TrackPointExtension>
            <ns3:hr>118</ns3:hr>
            <ns3:cad>0</ns3:cad>
          </ns3:TrackPointExtension>
        </extensions>
      </trkpt>
      <trkpt lat="43.4780638106167316436767578125" lon="1.45219867117702960968017578125">
        <ele>233</ele>
        <time>2026-08-05T08:41:19.000Z</time>
        <extensions>
          <ns3:TrackPointExtension>
            <ns3:hr>117</ns3:hr>
            <ns3:cad>0</ns3:cad>
          </ns3:TrackPointExtension>
        </extensions>
      </trkpt>
      <trkpt lat="43.4780661575496196746826171875" lon="1.45220252685248851776123046875">
        <ele>233</ele>
        <time>2026-08-05T08:41:20.000Z</time>
        <extensions>
          <ns3:TrackPointExtension>
            <ns3:hr>116</ns3:hr>
            <ns3:cad>0</ns3:cad>
          </ns3:TrackPointExtension>
        </extensions>
      </trkpt>
      <trkpt lat="43.4780658222734928131103515625" lon="1.45220017991960048675537109375">
        <ele>233</ele>
        <time>2026-08-05T08:41:21.000Z</time>
        <extensions>
          <ns3:TrackPointExtension>
            <ns3:hr>115</ns3:hr>
            <ns3:cad>0</ns3:cad>
          </ns3:TrackPointExtension>
        </extensions>
      </trkpt>
      <trkpt lat="43.47806632518768310546875" lon="1.4521990902721881866455078125">
        <ele>233</ele>
        <time>2026-08-05T08:41:22.000Z</time>
        <extensions>
          <ns3:TrackPointExtension>
            <ns3:hr>115</ns3:hr>
            <ns3:cad>0</ns3:cad>
          </ns3:TrackPointExtension>
        </extensions>
      </trkpt>
      <trkpt lat="43.47806632518768310546875" lon="1.45219883881509304046630859375">
        <ele>233</ele>
        <time>2026-08-05T08:41:23.000Z</time>
        <extensions>
          <ns3:TrackPointExtension>
            <ns3:hr>114</ns3:hr>
            <ns3:cad>0</ns3:cad>
          </ns3:TrackPointExtension>
        </extensions>
      </trkpt>
      <trkpt lat="43.47806632518768310546875" lon="1.45219883881509304046630859375">
        <ele>233</ele>
        <time>2026-08-05T08:41:24.000Z</time>
        <extensions>
          <ns3:TrackPointExtension>
            <ns3:hr>114</ns3:hr>
            <ns3:cad>0</ns3:cad>
          </ns3:TrackPointExtension>
        </extensions>
      </trkpt>
      <trkpt lat="43.47806632518768310546875" lon="1.45219883881509304046630859375">
        <ele>233</ele>
        <time>2026-08-05T08:41:25.000Z</time>
        <extensions>
          <ns3:TrackPointExtension>
            <ns3:hr>113</ns3:hr>
            <ns3:cad>0</ns3:cad>
          </ns3:TrackPointExtension>
        </extensions>
      </trkpt>
      <trkpt lat="43.47806657664477825164794921875" lon="1.45219816826283931732177734375">
        <ele>233</ele>
        <time>2026-08-05T08:41:26.000Z</time>
        <extensions>
          <ns3:TrackPointExtension>
            <ns3:hr>112</ns3:hr>
            <ns3:cad>0</ns3:cad>
          </ns3:TrackPointExtension>
        </extensions>
      </trkpt>
      <trkpt lat="43.47806473262608051300048828125" lon="1.452196575701236724853515625">
        <ele>233</ele>
        <time>2026-08-05T08:41:27.000Z</time>
        <extensions>
          <ns3:TrackPointExtension>
            <ns3:hr>111</ns3:hr>
            <ns3:cad>0</ns3:cad>
          </ns3:TrackPointExtension>
        </extensions>
      </trkpt>
      <trkpt lat="43.47805920056998729705810546875" lon="1.45219330675899982452392578125">
        <ele>233</ele>
        <time>2026-08-05T08:41:28.000Z</time>
        <extensions>
          <ns3:TrackPointExtension>
            <ns3:hr>110</ns3:hr>
            <ns3:cad>0</ns3:cad>
          </ns3:TrackPointExtension>
        </extensions>
      </trkpt>
      <trkpt lat="43.47805492579936981201171875" lon="1.45218618214130401611328125">
        <ele>233</ele>
        <time>2026-08-05T08:41:29.000Z</time>
        <extensions>
          <ns3:TrackPointExtension>
            <ns3:hr>109</ns3:hr>
            <ns3:cad>0</ns3:cad>
          </ns3:TrackPointExtension>
        </extensions>
      </trkpt>
      <trkpt lat="43.47804897464811801910400390625" lon="1.4521813206374645233154296875">
        <ele>233</ele>
        <time>2026-08-05T08:41:30.000Z</time>
        <extensions>
          <ns3:TrackPointExtension>
            <ns3:hr>109</ns3:hr>
            <ns3:cad>0</ns3:cad>
          </ns3:TrackPointExtension>
        </extensions>
      </trkpt>
      <trkpt lat="43.47805199213325977325439453125" lon="1.45217738114297389984130859375">
        <ele>233.1999969482421875</ele>
        <time>2026-08-05T08:41:31.000Z</time>
        <extensions>
          <ns3:TrackPointExtension>
            <ns3:hr>109</ns3:hr>
            <ns3:cad>0</ns3:cad>
          </ns3:TrackPointExtension>
        </extensions>
      </trkpt>
      <trkpt lat="43.47805199213325977325439453125" lon="1.45217738114297389984130859375">
        <ele>233.1999969482421875</ele>
        <time>2026-08-05T08:41:32.000Z</time>
        <extensions>
          <ns3:TrackPointExtension>
            <ns3:hr>108</ns3:hr>
            <ns3:cad>0</ns3:cad>
          </ns3:TrackPointExtension>
        </extensions>
      </trkpt>
      <trkpt lat="43.47805199213325977325439453125" lon="1.45217738114297389984130859375">
        <ele>233.1999969482421875</ele>
        <time>2026-08-05T08:41:33.000Z</time>
        <extensions>
          <ns3:TrackPointExtension>
            <ns3:hr>108</ns3:hr>
            <ns3:cad>0</ns3:cad>
          </ns3:TrackPointExtension>
        </extensions>
      </trkpt>
      <trkpt lat="43.47805199213325977325439453125" lon="1.45217738114297389984130859375">
        <ele>233.1999969482421875</ele>
        <time>2026-08-05T08:41:34.000Z</time>
        <extensions>
          <ns3:TrackPointExtension>
            <ns3:hr>109</ns3:hr>
            <ns3:cad>0</ns3:cad>
          </ns3:TrackPointExtension>
        </extensions>
      </trkpt>
      <trkpt lat="43.47805199213325977325439453125" lon="1.45217738114297389984130859375">
        <ele>233.1999969482421875</ele>
        <time>2026-08-05T08:41:35.000Z</time>
        <extensions>
          <ns3:TrackPointExtension>
            <ns3:hr>110</ns3:hr>
            <ns3:cad>0</ns3:cad>
          </ns3:TrackPointExtension>
        </extensions>
      </trkpt>
      <trkpt lat="43.47805199213325977325439453125" lon="1.45217738114297389984130859375">
        <ele>233.1999969482421875</ele>
        <time>2026-08-05T08:41:36.000Z</time>
        <extensions>
          <ns3:TrackPointExtension>
            <ns3:hr>110</ns3:hr>
            <ns3:cad>0</ns3:cad>
          </ns3:TrackPointExtension>
        </extensions>
      </trkpt>
      <trkpt lat="43.47805199213325977325439453125" lon="1.45217738114297389984130859375">
        <ele>233.1999969482421875</ele>
        <time>2026-08-05T08:41:37.000Z</time>
        <extensions>
          <ns3:TrackPointExtension>
            <ns3:hr>110</ns3:hr>
            <ns3:cad>0</ns3:cad>
          </ns3:TrackPointExtension>
        </extensions>
      </trkpt>
      <trkpt lat="43.4780530817806720733642578125" lon="1.45217687822878360748291015625">
        <ele>233</ele>
        <time>2026-08-05T08:41:38.000Z</time>
        <extensions>
          <ns3:TrackPointExtension>
            <ns3:hr>111</ns3:hr>
            <ns3:cad>0</ns3:cad>
          </ns3:TrackPointExtension>
        </extensions>
      </trkpt>
      <trkpt lat="43.47805752418935298919677734375" lon="1.4521814882755279541015625">
        <ele>233</ele>
        <time>2026-08-05T08:41:39.000Z</time>
        <extensions>
          <ns3:TrackPointExtension>
            <ns3:hr>110</ns3:hr>
            <ns3:cad>0</ns3:cad>
          </ns3:TrackPointExtension>
        </extensions>
      </trkpt>
      <trkpt lat="43.47806272096931934356689453125" lon="1.45218542777001857757568359375">
        <ele>233</ele>
        <time>2026-08-05T08:41:40.000Z</time>
        <extensions>
          <ns3:TrackPointExtension>
            <ns3:hr>110</ns3:hr>
            <ns3:cad>0</ns3:cad>
          </ns3:TrackPointExtension>
        </extensions>
      </trkpt>
      <trkpt lat="43.4780641458928585052490234375" lon="1.45218626596033573150634765625">
        <ele>233</ele>
        <time>2026-08-05T08:41:41.000Z</time>
        <extensions>
          <ns3:TrackPointExtension>
            <ns3:hr>110</ns3:hr>
            <ns3:cad>0</ns3:cad>
          </ns3:TrackPointExtension>
        </extensions>
      </trkpt>
      <trkpt lat="43.47806439734995365142822265625" lon="1.452186517417430877685546875">
        <ele>232.8000030517578125</ele>
        <time>2026-08-05T08:41:42.000Z</time>
        <extensions>
          <ns3:TrackPointExtension>
            <ns3:hr>110</ns3:hr>
            <ns3:cad>0</ns3:cad>
          </ns3:TrackPointExtension>
        </extensions>
      </trkpt>
      <trkpt lat="43.47806439734995365142822265625" lon="1.452186517417430877685546875">
        <ele>232.8000030517578125</ele>
        <time>2026-08-05T08:41:43.000Z</time>
        <extensions>
          <ns3:TrackPointExtension>
            <ns3:hr>109</ns3:hr>
            <ns3:cad>0</ns3:cad>
          </ns3:TrackPointExtension>
        </extensions>
      </trkpt>
      <trkpt lat="43.47806439734995365142822265625" lon="1.452186517417430877685546875">
        <ele>232.8000030517578125</ele>
        <time>2026-08-05T08:41:44.000Z</time>
        <extensions>
          <ns3:TrackPointExtension>
            <ns3:hr>109</ns3:hr>
            <ns3:cad>0</ns3:cad>
          </ns3:TrackPointExtension>
        </extensions>
      </trkpt>
      <trkpt lat="43.47806439734995365142822265625" lon="1.452186517417430877685546875">
        <ele>232.8000030517578125</ele>
        <time>2026-08-05T08:41:45.000Z</time>
        <extensions>
          <ns3:TrackPointExtension>
            <ns3:hr>109</ns3:hr>
            <ns3:cad>0</ns3:cad>
          </ns3:TrackPointExtension>
        </extensions>
      </trkpt>
      <trkpt lat="43.47806439734995365142822265625" lon="1.452186517417430877685546875">
        <ele>232.8000030517578125</ele>
        <time>2026-08-05T08:41:46.000Z</time>
        <extensions>
          <ns3:TrackPointExtension>
            <ns3:hr>109</ns3:hr>
            <ns3:cad>0</ns3:cad>
          </ns3:TrackPointExtension>
        </extensions>
      </trkpt>
      <trkpt lat="43.47806439734995365142822265625" lon="1.452186517417430877685546875">
        <ele>232.8000030517578125</ele>
        <time>2026-08-05T08:41:47.000Z</time>
        <extensions>
          <ns3:TrackPointExtension>
            <ns3:hr>109</ns3:hr>
            <ns3:cad>0</ns3:cad>
          </ns3:TrackPointExtension>
        </extensions>
      </trkpt>
      <trkpt lat="43.47806439734995365142822265625" lon="1.452186517417430877685546875">
        <ele>232.8000030517578125</ele>
        <time>2026-08-05T08:41:48.000Z</time>
        <extensions>
          <ns3:TrackPointExtension>
            <ns3:hr>108</ns3:hr>
            <ns3:cad>0</ns3:cad>
          </ns3:TrackPointExtension>
        </extensions>
      </trkpt>
      <trkpt lat="43.47806590609252452850341796875" lon="1.45218676887452602386474609375">
        <ele>232.8000030517578125</ele>
        <time>2026-08-05T08:41:49.000Z</time>
        <extensions>
          <ns3:TrackPointExtension>
            <ns3:hr>108</ns3:hr>
            <ns3:cad>0</ns3:cad>
          </ns3:TrackPointExtension>
        </extensions>
      </trkpt>
      <trkpt lat="43.478068001568317413330078125" lon="1.45217687822878360748291015625">
        <ele>232.8000030517578125</ele>
        <time>2026-08-05T08:41:50.000Z</time>
        <extensions>
          <ns3:TrackPointExtension>
            <ns3:hr>108</ns3:hr>
            <ns3:cad>0</ns3:cad>
          </ns3:TrackPointExtension>
        </extensions>
      </trkpt>
      <trkpt lat="43.47806842066347599029541015625" lon="1.4521762914955615997314453125">
        <ele>232.8000030517578125</ele>
        <time>2026-08-05T08:41:51.000Z</time>
        <extensions>
          <ns3:TrackPointExtension>
            <ns3:hr>108</ns3:hr>
            <ns3:cad>0</ns3:cad>
          </ns3:TrackPointExtension>
        </extensions>
      </trkpt>
      <trkpt lat="43.4780718572437763214111328125" lon="1.45217637531459331512451171875">
        <ele>232.8000030517578125</ele>
        <time>2026-08-05T08:41:52.000Z</time>
        <extensions>
          <ns3:TrackPointExtension>
            <ns3:hr>107</ns3:hr>
            <ns3:cad>0</ns3:cad>
          </ns3:TrackPointExtension>
        </extensions>
      </trkpt>
      <trkpt lat="43.478075377643108367919921875" lon="1.4521746151149272918701171875">
        <ele>232.8000030517578125</ele>
        <time>2026-08-05T08:41:53.000Z</time>
        <extensions>
          <ns3:TrackPointExtension>
            <ns3:hr>106</ns3:hr>
            <ns3:cad>0</ns3:cad>
          </ns3:TrackPointExtension>
        </extensions>
      </trkpt>
      <trkpt lat="43.478076048195362091064453125" lon="1.452172100543975830078125">
        <ele>232.8000030517578125</ele>
        <time>2026-08-05T08:41:54.000Z</time>
        <extensions>
          <ns3:TrackPointExtension>
            <ns3:hr>105</ns3:hr>
            <ns3:cad>0</ns3:cad>
          </ns3:TrackPointExtension>
        </extensions>
      </trkpt>
      <trkpt lat="43.478078730404376983642578125" lon="1.4521642215549945831298828125">
        <ele>232.8000030517578125</ele>
        <time>2026-08-05T08:41:55.000Z</time>
        <extensions>
          <ns3:TrackPointExtension>
            <ns3:hr>102</ns3:hr>
            <ns3:cad>0</ns3:cad>
          </ns3:TrackPointExtension>
        </extensions>
      </trkpt>
      <trkpt lat="43.478080071508884429931640625" lon="1.45215894095599651336669921875">
        <ele>232.600006103515625</ele>
        <time>2026-08-05T08:41:56.000Z</time>
        <extensions>
          <ns3:TrackPointExtension>
            <ns3:hr>96</ns3:hr>
            <ns3:cad>0</ns3:cad>
          </ns3:TrackPointExtension>
        </extensions>
      </trkpt>
      <trkpt lat="43.4780805744230747222900390625" lon="1.45215332508087158203125">
        <ele>232.600006103515625</ele>
        <time>2026-08-05T08:41:57.000Z</time>
        <extensions>
          <ns3:TrackPointExtension>
            <ns3:hr>95</ns3:hr>
            <ns3:cad>0</ns3:cad>
          </ns3:TrackPointExtension>
        </extensions>
      </trkpt>
      <trkpt lat="43.47808166407048702239990234375" lon="1.452151648700237274169921875">
        <ele>232.600006103515625</ele>
        <time>2026-08-05T08:41:58.000Z</time>
        <extensions>
          <ns3:TrackPointExtension>
            <ns3:hr>93</ns3:hr>
            <ns3:cad>0</ns3:cad>
          </ns3:TrackPointExtension>
        </extensions>
      </trkpt>
      <trkpt lat="43.4780815802514553070068359375" lon="1.4521518163383007049560546875">
        <ele>232.600006103515625</ele>
        <time>2026-08-05T08:41:59.000Z</time>
        <extensions>
          <ns3:TrackPointExtension>
            <ns3:hr>93</ns3:hr>
            <ns3:cad>0</ns3:cad>
          </ns3:TrackPointExtension>
        </extensions>
      </trkpt>
      <trkpt lat="43.4780815802514553070068359375" lon="1.4521518163383007049560546875">
        <ele>232.8000030517578125</ele>
        <time>2026-08-05T08:42:00.000Z</time>
        <extensions>
          <ns3:TrackPointExtension>
            <ns3:hr>92</ns3:hr>
            <ns3:cad>0</ns3:cad>
          </ns3:TrackPointExtension>
        </extensions>
      </trkpt>
      <trkpt lat="43.4780815802514553070068359375" lon="1.4521518163383007049560546875">
        <ele>232.8000030517578125</ele>
        <time>2026-08-05T08:42:01.000Z</time>
        <extensions>
          <ns3:TrackPointExtension>
            <ns3:hr>92</ns3:hr>
            <ns3:cad>0</ns3:cad>
          </ns3:TrackPointExtension>
        </extensions>
      </trkpt>
      <trkpt lat="43.47808149643242359161376953125" lon="1.4521519839763641357421875">
        <ele>232.8000030517578125</ele>
        <time>2026-08-05T08:42:02.000Z</time>
        <extensions>
          <ns3:TrackPointExtension>
            <ns3:hr>92</ns3:hr>
            <ns3:cad>0</ns3:cad>
          </ns3:TrackPointExtension>
        </extensions>
      </trkpt>
      <trkpt lat="43.47808132879436016082763671875" lon="1.45214787684381008148193359375">
        <ele>232.8000030517578125</ele>
        <time>2026-08-05T08:42:03.000Z</time>
        <extensions>
          <ns3:TrackPointExtension>
            <ns3:hr>91</ns3:hr>
            <ns3:cad>0</ns3:cad>
          </ns3:TrackPointExtension>
        </extensions>
      </trkpt>
      <trkpt lat="43.47807847894728183746337890625" lon="1.4521400816738605499267578125">
        <ele>232.8000030517578125</ele>
        <time>2026-08-05T08:42:04.000Z</time>
        <extensions>
          <ns3:TrackPointExtension>
            <ns3:hr>91</ns3:hr>
            <ns3:cad>0</ns3:cad>
          </ns3:TrackPointExtension>
        </extensions>
      </trkpt>
      <trkpt lat="43.47807764075696468353271484375" lon="1.45213295705616474151611328125">
        <ele>233</ele>
        <time>2026-08-05T08:42:05.000Z</time>
        <extensions>
          <ns3:TrackPointExtension>
            <ns3:hr>91</ns3:hr>
            <ns3:cad>0</ns3:cad>
          </ns3:TrackPointExtension>
        </extensions>
      </trkpt>
      <trkpt lat="43.4780792333185672760009765625" lon="1.4521283470094203948974609375">
        <ele>233</ele>
        <time>2026-08-05T08:42:06.000Z</time>
        <extensions>
          <ns3:TrackPointExtension>
            <ns3:hr>91</ns3:hr>
            <ns3:cad>0</ns3:cad>
          </ns3:TrackPointExtension>
        </extensions>
      </trkpt>
      <trkpt lat="43.4780812449753284454345703125" lon="1.4521263353526592254638671875">
        <ele>233</ele>
        <time>2026-08-05T08:42:07.000Z</time>
        <extensions>
          <ns3:TrackPointExtension>
            <ns3:hr>91</ns3:hr>
            <ns3:cad>0</ns3:cad>
          </ns3:TrackPointExtension>
        </extensions>
      </trkpt>
      <trkpt lat="43.47808149643242359161376953125" lon="1.452126167714595794677734375">
        <ele>233</ele>
        <time>2026-08-05T08:42:08.000Z</time>
        <extensions>
          <ns3:TrackPointExtension>
            <ns3:hr>92</ns3:hr>
            <ns3:cad>0</ns3:cad>
          </ns3:TrackPointExtension>
        </extensions>
      </trkpt>
      <trkpt lat="43.47808334045112133026123046875" lon="1.45213027484714984893798828125">
        <ele>233</ele>
        <time>2026-08-05T08:42:09.000Z</time>
        <extensions>
          <ns3:TrackPointExtension>
            <ns3:hr>91</ns3:hr>
            <ns3:cad>0</ns3:cad>
          </ns3:TrackPointExtension>
        </extensions>
      </trkpt>
      <trkpt lat="43.478084765374660491943359375" lon="1.4521358907222747802734375">
        <ele>233</ele>
        <time>2026-08-05T08:42:10.000Z</time>
        <extensions>
          <ns3:TrackPointExtension>
            <ns3:hr>91</ns3:hr>
            <ns3:cad>0</ns3:cad>
          </ns3:TrackPointExtension>
        </extensions>
      </trkpt>
      <trkpt lat="43.47808585502207279205322265625" lon="1.45214100368320941925048828125">
        <ele>233</ele>
        <time>2026-08-05T08:42:11.000Z</time>
        <extensions>
          <ns3:TrackPointExtension>
            <ns3:hr>91</ns3:hr>
            <ns3:cad>0</ns3:cad>
          </ns3:TrackPointExtension>
        </extensions>
      </trkpt>
      <trkpt lat="43.4780913032591342926025390625" lon="1.4521487988531589508056640625">
        <ele>232.8000030517578125</ele>
        <time>2026-08-05T08:42:12.000Z</time>
        <extensions>
          <ns3:TrackPointExtension>
            <ns3:hr>91</ns3:hr>
            <ns3:cad>0</ns3:cad>
          </ns3:TrackPointExtension>
        </extensions>
      </trkpt>
      <trkpt lat="43.4781000204384326934814453125" lon="1.45215860567986965179443359375">
        <ele>232.8000030517578125</ele>
        <time>2026-08-05T08:42:13.000Z</time>
        <extensions>
          <ns3:TrackPointExtension>
            <ns3:hr>90</ns3:hr>
            <ns3:cad>0</ns3:cad>
          </ns3:TrackPointExtension>
        </extensions>
      </trkpt>
      <trkpt lat="43.4781050495803356170654296875" lon="1.45216749049723148345947265625">
        <ele>232.600006103515625</ele>
        <time>2026-08-05T08:42:14.000Z</time>
        <extensions>
          <ns3:TrackPointExtension>
            <ns3:hr>90</ns3:hr>
            <ns3:cad>0</ns3:cad>
          </ns3:TrackPointExtension>
        </extensions>
      </trkpt>
      <trkpt lat="43.47810882143676280975341796875" lon="1.452167071402072906494140625">
        <ele>232.600006103515625</ele>
        <time>2026-08-05T08:42:15.000Z</time>
        <extensions>
          <ns3:TrackPointExtension>
            <ns3:hr>90</ns3:hr>
            <ns3:cad>0</ns3:cad>
          </ns3:TrackPointExtension>
        </extensions>
      </trkpt>
      <trkpt lat="43.4781090728938579559326171875" lon="1.45216698758304119110107421875">
        <ele>232.600006103515625</ele>
        <time>2026-08-05T08:42:16.000Z</time>
        <extensions>
          <ns3:TrackPointExtension>
            <ns3:hr>90</ns3:hr>
            <ns3:cad>0</ns3:cad>
          </ns3:TrackPointExtension>
        </extensions>
      </trkpt>
      <trkpt lat="43.4781211428344249725341796875" lon="1.4521756209433078765869140625">
        <ele>232.399993896484375</ele>
        <time>2026-08-05T08:42:17.000Z</time>
        <extensions>
          <ns3:TrackPointExtension>
            <ns3:hr>90</ns3:hr>
            <ns3:cad>45</ns3:cad>
          </ns3:TrackPointExtension>
        </extensions>
      </trkpt>
      <trkpt lat="43.47812977619469165802001953125" lon="1.452186517417430877685546875">
        <ele>232.399993896484375</ele>
        <time>2026-08-05T08:42:18.000Z</time>
        <extensions>
          <ns3:TrackPointExtension>
            <ns3:hr>90</ns3:hr>
            <ns3:cad>45</ns3:cad>
          </ns3:TrackPointExtension>
        </extensions>
      </trkpt>
      <trkpt lat="43.47813966684043407440185546875" lon="1.45219816826283931732177734375">
        <ele>232.399993896484375</ele>
        <time>2026-08-05T08:42:19.000Z</time>
        <extensions>
          <ns3:TrackPointExtension>
            <ns3:hr>89</ns3:hr>
            <ns3:cad>47</ns3:cad>
          </ns3:TrackPointExtension>
        </extensions>
      </trkpt>
      <trkpt lat="43.47814989276230335235595703125" lon="1.45221023820340633392333984375">
        <ele>232.399993896484375</ele>
        <time>2026-08-05T08:42:20.000Z</time>
        <extensions>
          <ns3:TrackPointExtension>
            <ns3:hr>89</ns3:hr>
            <ns3:cad>49</ns3:cad>
          </ns3:TrackPointExtension>
        </extensions>
      </trkpt>
      <trkpt lat="43.478161878883838653564453125" lon="1.4522255770862102508544921875">
        <ele>232.1999969482421875</ele>
        <time>2026-08-05T08:42:21.000Z</time>
        <extensions>
          <ns3:TrackPointExtension>
            <ns3:hr>89</ns3:hr>
            <ns3:cad>49</ns3:cad>
          </ns3:TrackPointExtension>
        </extensions>
      </trkpt>
      <trkpt lat="43.47817235626280307769775390625" lon="1.4522379823029041290283203125">
        <ele>232.1999969482421875</ele>
        <time>2026-08-05T08:42:22.000Z</time>
        <extensions>
          <ns3:TrackPointExtension>
            <ns3:hr>89</ns3:hr>
            <ns3:cad>50</ns3:cad>
          </ns3:TrackPointExtension>
        </extensions>
      </trkpt>
      <trkpt lat="43.4781824983656406402587890625" lon="1.4522480405867099761962890625">
        <ele>232</ele>
        <time>2026-08-05T08:42:23.000Z</time>
        <extensions>
          <ns3:TrackPointExtension>
            <ns3:hr>89</ns3:hr>
            <ns3:cad>52</ns3:cad>
          </ns3:TrackPointExtension>
        </extensions>
      </trkpt>
      <trkpt lat="43.47819917835295200347900390625" lon="1.45225323736667633056640625">
        <ele>232</ele>
        <time>2026-08-05T08:42:24.000Z</time>
        <extensions>
          <ns3:TrackPointExtension>
            <ns3:hr>89</ns3:hr>
            <ns3:cad>52</ns3:cad>
          </ns3:TrackPointExtension>
        </extensions>
      </trkpt>
      <trkpt lat="43.4782106615602970123291015625" lon="1.45226555876433849334716796875">
        <ele>232</ele>
        <time>2026-08-05T08:42:25.000Z</time>
        <extensions>
          <ns3:TrackPointExtension>
            <ns3:hr>88</ns3:hr>
            <ns3:cad>52</ns3:cad>
          </ns3:TrackPointExtension>
        </extensions>
      </trkpt>
      <trkpt lat="43.4782232344150543212890625" lon="1.45227813161909580230712890625">
        <ele>231.8000030517578125</ele>
        <time>2026-08-05T08:42:26.000Z</time>
        <extensions>
          <ns3:TrackPointExtension>
            <ns3:hr>88</ns3:hr>
            <ns3:cad>53</ns3:cad>
          </ns3:TrackPointExtension>
        </extensions>
      </trkpt>
      <trkpt lat="43.47823270596563816070556640625" lon="1.452287770807743072509765625">
        <ele>231.8000030517578125</ele>
        <time>2026-08-05T08:42:27.000Z</time>
        <extensions>
          <ns3:TrackPointExtension>
            <ns3:hr>88</ns3:hr>
            <ns3:cad>54</ns3:cad>
          </ns3:TrackPointExtension>
        </extensions>
      </trkpt>
      <trkpt lat="43.4782438538968563079833984375" lon="1.4522995054721832275390625">
        <ele>231.8000030517578125</ele>
        <time>2026-08-05T08:42:28.000Z</time>
        <extensions>
          <ns3:TrackPointExtension>
            <ns3:hr>88</ns3:hr>
            <ns3:cad>54</ns3:cad>
          </ns3:TrackPointExtension>
        </extensions>
      </trkpt>
      <trkpt lat="43.478255085647106170654296875" lon="1.4523107372224330902099609375">
        <ele>231.8000030517578125</ele>
        <time>2026-08-05T08:42:29.000Z</time>
        <extensions>
          <ns3:TrackPointExtension>
            <ns3:hr>88</ns3:hr>
            <ns3:cad>54</ns3:cad>
          </ns3:TrackPointExtension>
        </extensions>
      </trkpt>
      <trkpt lat="43.47826556302607059478759765625" lon="1.45232138223946094512939453125">
        <ele>231.600006103515625</ele>
        <time>2026-08-05T08:42:30.000Z</time>
        <extensions>
          <ns3:TrackPointExtension>
            <ns3:hr>87</ns3:hr>
            <ns3:cad>54</ns3:cad>
          </ns3:TrackPointExtension>
        </extensions>
      </trkpt>
      <trkpt lat="43.4782755374908447265625" lon="1.452330686151981353759765625">
        <ele>231.399993896484375</ele>
        <time>2026-08-05T08:42:31.000Z</time>
        <extensions>
          <ns3:TrackPointExtension>
            <ns3:hr>87</ns3:hr>
            <ns3:cad>54</ns3:cad>
          </ns3:TrackPointExtension>
        </extensions>
      </trkpt>
      <trkpt lat="43.47828333266079425811767578125" lon="1.4523399062454700469970703125">
        <ele>231.1999969482421875</ele>
        <time>2026-08-05T08:42:32.000Z</time>
        <extensions>
          <ns3:TrackPointExtension>
            <ns3:hr>87</ns3:hr>
            <ns3:cad>55</ns3:cad>
          </ns3:TrackPointExtension>
        </extensions>
      </trkpt>
      <trkpt lat="43.47829272039234638214111328125" lon="1.45234887488186359405517578125">
        <ele>231</ele>
        <time>2026-08-05T08:42:33.000Z</time>
        <extensions>
          <ns3:TrackPointExtension>
            <ns3:hr>87</ns3:hr>
            <ns3:cad>55</ns3:cad>
          </ns3:TrackPointExtension>
        </extensions>
      </trkpt>
      <trkpt lat="43.47829992882907390594482421875" lon="1.45235792733728885650634765625">
        <ele>230.8000030517578125</ele>
        <time>2026-08-05T08:42:34.000Z</time>
        <extensions>
          <ns3:TrackPointExtension>
            <ns3:hr>87</ns3:hr>
            <ns3:cad>55</ns3:cad>
          </ns3:TrackPointExtension>
        </extensions>
      </trkpt>
      <trkpt lat="43.47830914892256259918212890625" lon="1.45237150602042675018310546875">
        <ele>230.600006103515625</ele>
        <time>2026-08-05T08:42:35.000Z</time>
        <extensions>
          <ns3:TrackPointExtension>
            <ns3:hr>87</ns3:hr>
            <ns3:cad>55</ns3:cad>
          </ns3:TrackPointExtension>
        </extensions>
      </trkpt>
      <trkpt lat="43.4783197939395904541015625" lon="1.45238491706550121307373046875">
        <ele>230.600006103515625</ele>
        <time>2026-08-05T08:42:36.000Z</time>
        <extensions>
          <ns3:TrackPointExtension>
            <ns3:hr>86</ns3:hr>
            <ns3:cad>55</ns3:cad>
          </ns3:TrackPointExtension>
        </extensions>
      </trkpt>
      <trkpt lat="43.4783286787569522857666015625" lon="1.45239581353962421417236328125">
        <ele>230.399993896484375</ele>
        <time>2026-08-05T08:42:37.000Z</time>
        <extensions>
          <ns3:TrackPointExtension>
            <ns3:hr>85</ns3:hr>
            <ns3:cad>56</ns3:cad>
          </ns3:TrackPointExtension>
        </extensions>
      </trkpt>
      <trkpt lat="43.4783377312123775482177734375" lon="1.45240989513695240020751953125">
        <ele>230.1999969482421875</ele>
        <time>2026-08-05T08:42:38.000Z</time>
        <extensions>
          <ns3:TrackPointExtension>
            <ns3:hr>84</ns3:hr>
            <ns3:cad>56</ns3:cad>
          </ns3:TrackPointExtension>
        </extensions>
      </trkpt>
      <trkpt lat="43.47834770567715167999267578125" lon="1.45242280326783657073974609375">
        <ele>230</ele>
        <time>2026-08-05T08:42:39.000Z</time>
        <extensions>
          <ns3:TrackPointExtension>
            <ns3:hr>84</ns3:hr>
            <ns3:cad>56</ns3:cad>
          </ns3:TrackPointExtension>
        </extensions>
      </trkpt>
      <trkpt lat="43.47835793159902095794677734375" lon="1.45243755541741847991943359375">
        <ele>229.8000030517578125</ele>
        <time>2026-08-05T08:42:40.000Z</time>
        <extensions>
          <ns3:TrackPointExtension>
            <ns3:hr>84</ns3:hr>
            <ns3:cad>56</ns3:cad>
          </ns3:TrackPointExtension>
        </extensions>
      </trkpt>
      <trkpt lat="43.478369750082492828369140625" lon="1.4524485357105731964111328125">
        <ele>229.600006103515625</ele>
        <time>2026-08-05T08:42:41.000Z</time>
        <extensions>
          <ns3:TrackPointExtension>
            <ns3:hr>85</ns3:hr>
            <ns3:cad>56</ns3:cad>
          </ns3:TrackPointExtension>
        </extensions>
      </trkpt>
      <trkpt lat="43.47838022746145725250244140625" lon="1.45245968364179134368896484375">
        <ele>229.399993896484375</ele>
        <time>2026-08-05T08:42:42.000Z</time>
        <extensions>
          <ns3:TrackPointExtension>
            <ns3:hr>85</ns3:hr>
            <ns3:cad>56</ns3:cad>
          </ns3:TrackPointExtension>
        </extensions>
      </trkpt>
      <trkpt lat="43.4783920459449291229248046875" lon="1.45247208885848522186279296875">
        <ele>229.1999969482421875</ele>
        <time>2026-08-05T08:42:43.000Z</time>
        <extensions>
          <ns3:TrackPointExtension>
            <ns3:hr>85</ns3:hr>
            <ns3:cad>56</ns3:cad>
          </ns3:TrackPointExtension>
        </extensions>
      </trkpt>
      <trkpt lat="43.47840134985744953155517578125" lon="1.45248214714229106903076171875">
        <ele>229</ele>
        <time>2026-08-05T08:42:44.000Z</time>
        <extensions>
          <ns3:TrackPointExtension>
            <ns3:hr>85</ns3:hr>
            <ns3:cad>55</ns3:cad>
          </ns3:TrackPointExtension>
        </extensions>
      </trkpt>
      <trkpt lat="43.478410653769969940185546875" lon="1.4524941332638263702392578125">
        <ele>228.8000030517578125</ele>
        <time>2026-08-05T08:42:45.000Z</time>
        <extensions>
          <ns3:TrackPointExtension>
            <ns3:hr>84</ns3:hr>
            <ns3:cad>55</ns3:cad>
          </ns3:TrackPointExtension>
        </extensions>
      </trkpt>
      <trkpt lat="43.478418700397014617919921875" lon="1.45250536501407623291015625">
        <ele>228.600006103515625</ele>
        <time>2026-08-05T08:42:46.000Z</time>
        <extensions>
          <ns3:TrackPointExtension>
            <ns3:hr>84</ns3:hr>
            <ns3:cad>55</ns3:cad>
          </ns3:TrackPointExtension>
        </extensions>
      </trkpt>
      <trkpt lat="43.478425405919551849365234375" lon="1.45251466892659664154052734375">
        <ele>228.600006103515625</ele>
        <time>2026-08-05T08:42:47.000Z</time>
        <extensions>
          <ns3:TrackPointExtension>
            <ns3:hr>84</ns3:hr>
            <ns3:cad>55</ns3:cad>
          </ns3:TrackPointExtension>
        </extensions>
      </trkpt>
      <trkpt lat="43.47843102179467678070068359375" lon="1.45252606831490993499755859375">
        <ele>228.399993896484375</ele>
        <time>2026-08-05T08:42:48.000Z</time>
        <extensions>
          <ns3:TrackPointExtension>
            <ns3:hr>83</ns3:hr>
            <ns3:cad>56</ns3:cad>
          </ns3:TrackPointExtension>
        </extensions>
      </trkpt>
      <trkpt lat="43.4784386493265628814697265625" lon="1.45253813825547695159912109375">
        <ele>228.1999969482421875</ele>
        <time>2026-08-05T08:42:49.000Z</time>
        <extensions>
          <ns3:TrackPointExtension>
            <ns3:hr>83</ns3:hr>
            <ns3:cad>56</ns3:cad>
          </ns3:TrackPointExtension>
        </extensions>
      </trkpt>
      <trkpt lat="43.47844577394425868988037109375" lon="1.4525481127202510833740234375">
        <ele>228</ele>
        <time>2026-08-05T08:42:50.000Z</time>
        <extensions>
          <ns3:TrackPointExtension>
            <ns3:hr>83</ns3:hr>
            <ns3:cad>56</ns3:cad>
          </ns3:TrackPointExtension>
        </extensions>
      </trkpt>
      <trkpt lat="43.4784540720283985137939453125" lon="1.452560015022754669189453125">
        <ele>227.8000030517578125</ele>
        <time>2026-08-05T08:42:51.000Z</time>
        <extensions>
          <ns3:TrackPointExtension>
            <ns3:hr>82</ns3:hr>
            <ns3:cad>54</ns3:cad>
          </ns3:TrackPointExtension>
        </extensions>
      </trkpt>
      <trkpt lat="43.47846555523574352264404296875" lon="1.452577114105224609375">
        <ele>227.600006103515625</ele>
        <time>2026-08-05T08:42:52.000Z</time>
        <extensions>
          <ns3:TrackPointExtension>
            <ns3:hr>82</ns3:hr>
            <ns3:cad>54</ns3:cad>
          </ns3:TrackPointExtension>
        </extensions>
      </trkpt>
      <trkpt lat="43.47847326658666133880615234375" lon="1.45259111188352108001708984375">
        <ele>227.399993896484375</ele>
        <time>2026-08-05T08:42:53.000Z</time>
        <extensions>
          <ns3:TrackPointExtension>
            <ns3:hr>81</ns3:hr>
            <ns3:cad>54</ns3:cad>
          </ns3:TrackPointExtension>
        </extensions>
      </trkpt>
      <trkpt lat="43.4784808941185474395751953125" lon="1.45259966142475605010986328125">
        <ele>227.1999969482421875</ele>
        <time>2026-08-05T08:42:54.000Z</time>
        <extensions>
          <ns3:TrackPointExtension>
            <ns3:hr>80</ns3:hr>
            <ns3:cad>54</ns3:cad>
          </ns3:TrackPointExtension>
        </extensions>
      </trkpt>
      <trkpt lat="43.4784872643649578094482421875" lon="1.45260854624211788177490234375">
        <ele>227</ele>
        <time>2026-08-05T08:42:55.000Z</time>
        <extensions>
          <ns3:TrackPointExtension>
            <ns3:hr>80</ns3:hr>
            <ns3:cad>54</ns3:cad>
          </ns3:TrackPointExtension>
        </extensions>
      </trkpt>
      <trkpt lat="43.4784929640591144561767578125" lon="1.45261810161173343658447265625">
        <ele>226.8000030517578125</ele>
        <time>2026-08-05T08:42:56.000Z</time>
        <extensions>
          <ns3:TrackPointExtension>
            <ns3:hr>80</ns3:hr>
            <ns3:cad>54</ns3:cad>
          </ns3:TrackPointExtension>
        </extensions>
      </trkpt>
      <trkpt lat="43.478503189980983734130859375" lon="1.4526302553713321685791015625">
        <ele>226.600006103515625</ele>
        <time>2026-08-05T08:42:57.000Z</time>
        <extensions>
          <ns3:TrackPointExtension>
            <ns3:hr>80</ns3:hr>
            <ns3:cad>54</ns3:cad>
          </ns3:TrackPointExtension>
        </extensions>
      </trkpt>
      <trkpt lat="43.478514589369297027587890625" lon="1.45264173857867717742919921875">
        <ele>226.399993896484375</ele>
        <time>2026-08-05T08:42:58.000Z</time>
        <extensions>
          <ns3:TrackPointExtension>
            <ns3:hr>79</ns3:hr>
            <ns3:cad>54</ns3:cad>
          </ns3:TrackPointExtension>
        </extensions>
      </trkpt>
      <trkpt lat="43.47852422855794429779052734375" lon="1.4526503719389438629150390625">
        <ele>226.1999969482421875</ele>
        <time>2026-08-05T08:42:59.000Z</time>
        <extensions>
          <ns3:TrackPointExtension>
            <ns3:hr>79</ns3:hr>
            <ns3:cad>54</ns3:cad>
          </ns3:TrackPointExtension>
        </extensions>
      </trkpt>
      <trkpt lat="43.47853411920368671417236328125" lon="1.45265867002308368682861328125">
        <ele>226.1999969482421875</ele>
        <time>2026-08-05T08:43:00.000Z</time>
        <extensions>
          <ns3:TrackPointExtension>
            <ns3:hr>79</ns3:hr>
            <ns3:cad>54</ns3:cad>
          </ns3:TrackPointExtension>
        </extensions>
      </trkpt>
      <trkpt lat="43.47854065708816051483154296875" lon="1.45266520790755748748779296875">
        <ele>226</ele>
        <time>2026-08-05T08:43:01.000Z</time>
        <extensions>
          <ns3:TrackPointExtension>
            <ns3:hr>79</ns3:hr>
            <ns3:cad>54</ns3:cad>
          </ns3:TrackPointExtension>
        </extensions>
      </trkpt>
      <trkpt lat="43.47854954190552234649658203125" lon="1.4526751823723316192626953125">
        <ele>225.8000030517578125</ele>
        <time>2026-08-05T08:43:02.000Z</time>
        <extensions>
          <ns3:TrackPointExtension>
            <ns3:hr>78</ns3:hr>
            <ns3:cad>60</ns3:cad>
          </ns3:TrackPointExtension>
        </extensions>
      </trkpt>
      <trkpt lat="43.478561528027057647705078125" lon="1.4526909403502941131591796875">
        <ele>225.600006103515625</ele>
        <time>2026-08-05T08:43:03.000Z</time>
        <extensions>
          <ns3:TrackPointExtension>
            <ns3:hr>78</ns3:hr>
            <ns3:cad>60</ns3:cad>
          </ns3:TrackPointExtension>
        </extensions>
      </trkpt>
      <trkpt lat="43.4785724245011806488037109375" lon="1.452705860137939453125">
        <ele>225.399993896484375</ele>
        <time>2026-08-05T08:43:04.000Z</time>
        <extensions>
          <ns3:TrackPointExtension>
            <ns3:hr>78</ns3:hr>
            <ns3:cad>0</ns3:cad>
          </ns3:TrackPointExtension>
        </extensions>
      </trkpt>
      <trkpt lat="43.47858256660401821136474609375" lon="1.45271818153560161590576171875">
        <ele>225.1999969482421875</ele>
        <time>2026-08-05T08:43:05.000Z</time>
        <extensions>
          <ns3:TrackPointExtension>
            <ns3:hr>78</ns3:hr>
            <ns3:cad>57</ns3:cad>
          </ns3:TrackPointExtension>
        </extensions>
      </trkpt>
      <trkpt lat="43.4785942174494266510009765625" lon="1.4527308382093906402587890625">
        <ele>225</ele>
        <time>2026-08-05T08:43:06.000Z</time>
        <extensions>
          <ns3:TrackPointExtension>
            <ns3:hr>78</ns3:hr>
            <ns3:cad>57</ns3:cad>
          </ns3:TrackPointExtension>
        </extensions>
      </trkpt>
      <trkpt lat="43.47860503010451793670654296875" lon="1.4527419023215770721435546875">
        <ele>224.600006103515625</ele>
        <time>2026-08-05T08:43:07.000Z</time>
        <extensions>
          <ns3:TrackPointExtension>
            <ns3:hr>79</ns3:hr>
            <ns3:cad>58</ns3:cad>
          </ns3:TrackPointExtension>
        </extensions>
      </trkpt>
      <trkpt lat="43.47861575894057750701904296875" lon="1.45275321789085865020751953125">
        <ele>224.399993896484375</ele>
        <time>2026-08-05T08:43:08.000Z</time>
        <extensions>
          <ns3:TrackPointExtension>
            <ns3:hr>80</ns3:hr>
            <ns3:cad>59</ns3:cad>
          </ns3:TrackPointExtension>
        </extensions>
      </trkpt>
      <trkpt lat="43.47862632013857364654541015625" lon="1.4527653716504573822021484375">
        <ele>224.1999969482421875</ele>
        <time>2026-08-05T08:43:09.000Z</time>
        <extensions>
          <ns3:TrackPointExtension>
            <ns3:hr>81</ns3:hr>
            <ns3:cad>59</ns3:cad>
          </ns3:TrackPointExtension>
        </extensions>
      </trkpt>
      <trkpt lat="43.47863839007914066314697265625" lon="1.45277417264878749847412109375">
        <ele>224</ele>
        <time>2026-08-05T08:43:10.000Z</time>
        <extensions>
          <ns3:TrackPointExtension>
            <ns3:hr>82</ns3:hr>
            <ns3:cad>59</ns3:cad>
          </ns3:TrackPointExtension>
        </extensions>
      </trkpt>
      <trkpt lat="43.4786497056484222412109375" lon="1.45278431475162506103515625">
        <ele>223.8000030517578125</ele>
        <time>2026-08-05T08:43:11.000Z</time>
        <extensions>
          <ns3:TrackPointExtension>
            <ns3:hr>82</ns3:hr>
            <ns3:cad>59</ns3:cad>
          </ns3:TrackPointExtension>
        </extensions>
      </trkpt>
      <trkpt lat="43.47866102121770381927490234375" lon="1.45279663614928722381591796875">
        <ele>223.600006103515625</ele>
        <time>2026-08-05T08:43:12.000Z</time>
        <extensions>
          <ns3:TrackPointExtension>
            <ns3:hr>82</ns3:hr>
            <ns3:cad>58</ns3:cad>
          </ns3:TrackPointExtension>
        </extensions>
      </trkpt>
      <trkpt lat="43.478671498596668243408203125" lon="1.45280954428017139434814453125">
        <ele>223.1999969482421875</ele>
        <time>2026-08-05T08:43:13.000Z</time>
        <extensions>
          <ns3:TrackPointExtension>
            <ns3:hr>83</ns3:hr>
            <ns3:cad>58</ns3:cad>
          </ns3:TrackPointExtension>
        </extensions>
      </trkpt>
      <trkpt lat="43.47868381999433040618896484375" lon="1.45282228477299213409423828125">
        <ele>223</ele>
        <time>2026-08-05T08:43:14.000Z</time>
        <extensions>
          <ns3:TrackPointExtension>
            <ns3:hr>83</ns3:hr>
            <ns3:cad>57</ns3:cad>
          </ns3:TrackPointExtension>
        </extensions>
      </trkpt>
      <trkpt lat="43.4786953032016754150390625" lon="1.4528359472751617431640625">
        <ele>222.8000030517578125</ele>
        <time>2026-08-05T08:43:15.000Z</time>
        <extensions>
          <ns3:TrackPointExtension>
            <ns3:hr>83</ns3:hr>
            <ns3:cad>57</ns3:cad>
          </ns3:TrackPointExtension>
        </extensions>
      </trkpt>
      <trkpt lat="43.4787078760564327239990234375" lon="1.45284826867282390594482421875">
        <ele>222.399993896484375</ele>
        <time>2026-08-05T08:43:16.000Z</time>
        <extensions>
          <ns3:TrackPointExtension>
            <ns3:hr>83</ns3:hr>
            <ns3:cad>57</ns3:cad>
          </ns3:TrackPointExtension>
        </extensions>
      </trkpt>
      <trkpt lat="43.4787196107208728790283203125" lon="1.45286033861339092254638671875">
        <ele>222.1999969482421875</ele>
        <time>2026-08-05T08:43:17.000Z</time>
        <extensions>
          <ns3:TrackPointExtension>
            <ns3:hr>84</ns3:hr>
            <ns3:cad>57</ns3:cad>
          </ns3:TrackPointExtension>
        </extensions>
      </trkpt>
      <trkpt lat="43.47872950136661529541015625" lon="1.4528719894587993621826171875">
        <ele>222</ele>
        <time>2026-08-05T08:43:18.000Z</time>
        <extensions>
          <ns3:TrackPointExtension>
            <ns3:hr>84</ns3:hr>
            <ns3:cad>57</ns3:cad>
          </ns3:TrackPointExtension>
        </extensions>
      </trkpt>
      <trkpt lat="43.47874098457396030426025390625" lon="1.452886573970317840576171875">
        <ele>221.8000030517578125</ele>
        <time>2026-08-05T08:43:19.000Z</time>
        <extensions>
          <ns3:TrackPointExtension>
            <ns3:hr>83</ns3:hr>
            <ns3:cad>57</ns3:cad>
          </ns3:TrackPointExtension>
        </extensions>
      </trkpt>
      <trkpt lat="43.47875230014324188232421875" lon="1.452899314463138580322265625">
        <ele>221.600006103515625</ele>
        <time>2026-08-05T08:43:20.000Z</time>
        <extensions>
          <ns3:TrackPointExtension>
            <ns3:hr>83</ns3:hr>
            <ns3:cad>57</ns3:cad>
          </ns3:TrackPointExtension>
        </extensions>
      </trkpt>
      <trkpt lat="43.47876369953155517578125" lon="1.4529110491275787353515625">
        <ele>221.600006103515625</ele>
        <time>2026-08-05T08:43:21.000Z</time>
        <extensions>
          <ns3:TrackPointExtension>
            <ns3:hr>83</ns3:hr>
            <ns3:cad>57</ns3:cad>
          </ns3:TrackPointExtension>
        </extensions>
      </trkpt>
      <trkpt lat="43.478774763643741607666015625" lon="1.452923454344272613525390625">
        <ele>221.399993896484375</ele>
        <time>2026-08-05T08:43:22.000Z</time>
        <extensions>
          <ns3:TrackPointExtension>
            <ns3:hr>84</ns3:hr>
            <ns3:cad>57</ns3:cad>
          </ns3:TrackPointExtension>
        </extensions>
      </trkpt>
      <trkpt lat="43.478786163032054901123046875" lon="1.4529336802661418914794921875">
        <ele>221</ele>
        <time>2026-08-05T08:43:23.000Z</time>
        <extensions>
          <ns3:TrackPointExtension>
            <ns3:hr>84</ns3:hr>
            <ns3:cad>57</ns3:cad>
          </ns3:TrackPointExtension>
        </extensions>
      </trkpt>
      <trkpt lat="43.478796221315860748291015625" lon="1.45294415764510631561279296875">
        <ele>220.8000030517578125</ele>
        <time>2026-08-05T08:43:24.000Z</time>
        <extensions>
          <ns3:TrackPointExtension>
            <ns3:hr>84</ns3:hr>
            <ns3:cad>56</ns3:cad>
          </ns3:TrackPointExtension>
        </extensions>
      </trkpt>
      <trkpt lat="43.47880569286644458770751953125" lon="1.45295505411922931671142578125">
        <ele>220.399993896484375</ele>
        <time>2026-08-05T08:43:25.000Z</time>
        <extensions>
          <ns3:TrackPointExtension>
            <ns3:hr>83</ns3:hr>
            <ns3:cad>56</ns3:cad>
          </ns3:TrackPointExtension>
        </extensions>
      </trkpt>
      <trkpt lat="43.47881457768380641937255859375" lon="1.45296528004109859466552734375">
        <ele>220.1999969482421875</ele>
        <time>2026-08-05T08:43:26.000Z</time>
        <extensions>
          <ns3:TrackPointExtension>
            <ns3:hr>82</ns3:hr>
            <ns3:cad>57</ns3:cad>
          </ns3:TrackPointExtension>
        </extensions>
      </trkpt>
      <trkpt lat="43.47882346250116825103759765625" lon="1.4529769308865070343017578125">
        <ele>220</ele>
        <time>2026-08-05T08:43:27.000Z</time>
        <extensions>
          <ns3:TrackPointExtension>
            <ns3:hr>82</ns3:hr>
            <ns3:cad>57</ns3:cad>
          </ns3:TrackPointExtension>
        </extensions>
      </trkpt>
      <trkpt lat="43.47883352078497409820556640625" lon="1.4529893361032009124755859375">
        <ele>219.8000030517578125</ele>
        <time>2026-08-05T08:43:28.000Z</time>
        <extensions>
          <ns3:TrackPointExtension>
            <ns3:hr>82</ns3:hr>
            <ns3:cad>57</ns3:cad>
          </ns3:TrackPointExtension>
        </extensions>
      </trkpt>
      <trkpt lat="43.4788446687161922454833984375" lon="1.4530007354915142059326171875">
        <ele>219.600006103515625</ele>
        <time>2026-08-05T08:43:29.000Z</time>
        <extensions>
          <ns3:TrackPointExtension>
            <ns3:hr>82</ns3:hr>
            <ns3:cad>57</ns3:cad>
          </ns3:TrackPointExtension>
        </extensions>
      </trkpt>
      <trkpt lat="43.47885556519031524658203125" lon="1.4530131407082080841064453125">
        <ele>219.600006103515625</ele>
        <time>2026-08-05T08:43:30.000Z</time>
        <extensions>
          <ns3:TrackPointExtension>
            <ns3:hr>82</ns3:hr>
            <ns3:cad>57</ns3:cad>
          </ns3:TrackPointExtension>
        </extensions>
      </trkpt>
      <trkpt lat="43.47886570729315280914306640625" lon="1.45302462391555309295654296875">
        <ele>219.399993896484375</ele>
        <time>2026-08-05T08:43:31.000Z</time>
        <extensions>
          <ns3:TrackPointExtension>
            <ns3:hr>82</ns3:hr>
            <ns3:cad>57</ns3:cad>
          </ns3:TrackPointExtension>
        </extensions>
      </trkpt>
      <trkpt lat="43.4788763523101806640625" lon="1.4530371129512786865234375">
        <ele>219.1999969482421875</ele>
        <time>2026-08-05T08:43:32.000Z</time>
        <extensions>
          <ns3:TrackPointExtension>
            <ns3:hr>83</ns3:hr>
            <ns3:cad>56</ns3:cad>
          </ns3:TrackPointExtension>
        </extensions>
      </trkpt>
      <trkpt lat="43.4788875840604305267333984375" lon="1.45304960198700428009033203125">
        <ele>219</ele>
        <time>2026-08-05T08:43:33.000Z</time>
        <extensions>
          <ns3:TrackPointExtension>
            <ns3:hr>83</ns3:hr>
            <ns3:cad>56</ns3:cad>
          </ns3:TrackPointExtension>
        </extensions>
      </trkpt>
      <trkpt lat="43.4788991510868072509765625" lon="1.4530612528324127197265625">
        <ele>219</ele>
        <time>2026-08-05T08:43:34.000Z</time>
        <extensions>
          <ns3:TrackPointExtension>
            <ns3:hr>83</ns3:hr>
            <ns3:cad>56</ns3:cad>
          </ns3:TrackPointExtension>
        </extensions>
      </trkpt>
      <trkpt lat="43.47891055047512054443359375" lon="1.45307206548750400543212890625">
        <ele>218.8000030517578125</ele>
        <time>2026-08-05T08:43:35.000Z</time>
        <extensions>
          <ns3:TrackPointExtension>
            <ns3:hr>83</ns3:hr>
            <ns3:cad>56</ns3:cad>
          </ns3:TrackPointExtension>
        </extensions>
      </trkpt>
      <trkpt lat="43.47892086021602153778076171875" lon="1.45308430306613445281982421875">
        <ele>218.600006103515625</ele>
        <time>2026-08-05T08:43:36.000Z</time>
        <extensions>
          <ns3:TrackPointExtension>
            <ns3:hr>83</ns3:hr>
            <ns3:cad>56</ns3:cad>
          </ns3:TrackPointExtension>
        </extensions>
      </trkpt>
      <trkpt lat="43.478932343423366546630859375" lon="1.45309545099735260009765625">
        <ele>218.399993896484375</ele>
        <time>2026-08-05T08:43:37.000Z</time>
        <extensions>
          <ns3:TrackPointExtension>
            <ns3:hr>83</ns3:hr>
            <ns3:cad>57</ns3:cad>
          </ns3:TrackPointExtension>
        </extensions>
      </trkpt>
      <trkpt lat="43.47894231788814067840576171875" lon="1.4531066827476024627685546875">
        <ele>218.1999969482421875</ele>
        <time>2026-08-05T08:43:38.000Z</time>
        <extensions>
          <ns3:TrackPointExtension>
            <ns3:hr>83</ns3:hr>
            <ns3:cad>57</ns3:cad>
          </ns3:TrackPointExtension>
        </extensions>
      </trkpt>
      <trkpt lat="43.478952459990978240966796875" lon="1.4531160704791545867919921875">
        <ele>218</ele>
        <time>2026-08-05T08:43:39.000Z</time>
        <extensions>
          <ns3:TrackPointExtension>
            <ns3:hr>82</ns3:hr>
            <ns3:cad>57</ns3:cad>
          </ns3:TrackPointExtension>
        </extensions>
      </trkpt>
      <trkpt lat="43.4789633564651012420654296875" lon="1.4531251229345798492431640625">
        <ele>217.8000030517578125</ele>
        <time>2026-08-05T08:43:40.000Z</time>
        <extensions>
          <ns3:TrackPointExtension>
            <ns3:hr>83</ns3:hr>
            <ns3:cad>57</ns3:cad>
          </ns3:TrackPointExtension>
        </extensions>
      </trkpt>
      <trkpt lat="43.478973917663097381591796875" lon="1.453135013580322265625">
        <ele>217.600006103515625</ele>
        <time>2026-08-05T08:43:41.000Z</time>
        <extensions>
          <ns3:TrackPointExtension>
            <ns3:hr>83</ns3:hr>
            <ns3:cad>57</ns3:cad>
          </ns3:TrackPointExtension>
        </extensions>
      </trkpt>
      <trkpt lat="43.4789822995662689208984375" lon="1.453146077692508697509765625">
        <ele>217.399993896484375</ele>
        <time>2026-08-05T08:43:42.000Z</time>
        <extensions>
          <ns3:TrackPointExtension>
            <ns3:hr>84</ns3:hr>
            <ns3:cad>56</ns3:cad>
          </ns3:TrackPointExtension>
        </extensions>
      </trkpt>
      <trkpt lat="43.47899009473621845245361328125" lon="1.453157477080821990966796875">
        <ele>217.1999969482421875</ele>
        <time>2026-08-05T08:43:43.000Z</time>
        <extensions>
          <ns3:TrackPointExtension>
            <ns3:hr>84</ns3:hr>
            <ns3:cad>56</ns3:cad>
          </ns3:TrackPointExtension>
        </extensions>
      </trkpt>
      <trkpt lat="43.47899965010583400726318359375" lon="1.45316812209784984588623046875">
        <ele>217</ele>
        <time>2026-08-05T08:43:44.000Z</time>
        <extensions>
          <ns3:TrackPointExtension>
            <ns3:hr>84</ns3:hr>
            <ns3:cad>57</ns3:cad>
          </ns3:TrackPointExtension>
        </extensions>
      </trkpt>
      <trkpt lat="43.4790079481899738311767578125" lon="1.453178264200687408447265625">
        <ele>216.8000030517578125</ele>
        <time>2026-08-05T08:43:45.000Z</time>
        <extensions>
          <ns3:TrackPointExtension>
            <ns3:hr>84</ns3:hr>
            <ns3:cad>57</ns3:cad>
          </ns3:TrackPointExtension>
        </extensions>
      </trkpt>
      <trkpt lat="43.47901641391217708587646484375" lon="1.453188993036746978759765625">
        <ele>216.600006103515625</ele>
        <time>2026-08-05T08:43:46.000Z</time>
        <extensions>
          <ns3:TrackPointExtension>
            <ns3:hr>84</ns3:hr>
            <ns3:cad>56</ns3:cad>
          </ns3:TrackPointExtension>
        </extensions>
      </trkpt>
      <trkpt lat="43.4790263883769512176513671875" lon="1.45320097915828227996826171875">
        <ele>216.399993896484375</ele>
        <time>2026-08-05T08:43:47.000Z</time>
        <extensions>
          <ns3:TrackPointExtension>
            <ns3:hr>84</ns3:hr>
            <ns3:cad>56</ns3:cad>
          </ns3:TrackPointExtension>
        </extensions>
      </trkpt>
      <trkpt lat="43.47903753630816936492919921875" lon="1.4532129652798175811767578125">
        <ele>216.399993896484375</ele>
        <time>2026-08-05T08:43:48.000Z</time>
        <extensions>
          <ns3:TrackPointExtension>
            <ns3:hr>84</ns3:hr>
            <ns3:cad>56</ns3:cad>
          </ns3:TrackPointExtension>
        </extensions>
      </trkpt>
      <trkpt lat="43.47904927097260951995849609375" lon="1.45322595722973346710205078125">
        <ele>216.1999969482421875</ele>
        <time>2026-08-05T08:43:49.000Z</time>
        <extensions>
          <ns3:TrackPointExtension>
            <ns3:hr>84</ns3:hr>
            <ns3:cad>56</ns3:cad>
          </ns3:TrackPointExtension>
        </extensions>
      </trkpt>
      <trkpt lat="43.4790609218180179595947265625" lon="1.45323953591287136077880859375">
        <ele>216</ele>
        <time>2026-08-05T08:43:50.000Z</time>
        <extensions>
          <ns3:TrackPointExtension>
            <ns3:hr>84</ns3:hr>
            <ns3:cad>56</ns3:cad>
          </ns3:TrackPointExtension>
        </extensions>
      </trkpt>
      <trkpt lat="43.47907072864472866058349609375" lon="1.45325110293924808502197265625">
        <ele>215.8000030517578125</ele>
        <time>2026-08-05T08:43:51.000Z</time>
        <extensions>
          <ns3:TrackPointExtension>
            <ns3:hr>84</ns3:hr>
            <ns3:cad>56</ns3:cad>
          </ns3:TrackPointExtension>
        </extensions>
      </trkpt>
      <trkpt lat="43.4790810383856296539306640625" lon="1.45326308906078338623046875">
        <ele>215.600006103515625</ele>
        <time>2026-08-05T08:43:52.000Z</time>
        <extensions>
          <ns3:TrackPointExtension>
            <ns3:hr>83</ns3:hr>
            <ns3:cad>56</ns3:cad>
          </ns3:TrackPointExtension>
        </extensions>
      </trkpt>
      <trkpt lat="43.4790917672216892242431640625" lon="1.45327306352555751800537109375">
        <ele>215.399993896484375</ele>
        <time>2026-08-05T08:43:53.000Z</time>
        <extensions>
          <ns3:TrackPointExtension>
            <ns3:hr>83</ns3:hr>
            <ns3:cad>56</ns3:cad>
          </ns3:TrackPointExtension>
        </extensions>
      </trkpt>
      <trkpt lat="43.47910157404839992523193359375" lon="1.45328362472355365753173828125">
        <ele>215.1999969482421875</ele>
        <time>2026-08-05T08:43:54.000Z</time>
        <extensions>
          <ns3:TrackPointExtension>
            <ns3:hr>83</ns3:hr>
            <ns3:cad>56</ns3:cad>
          </ns3:TrackPointExtension>
        </extensions>
      </trkpt>
      <trkpt lat="43.47911314107477664947509765625" lon="1.45329301245510578155517578125">
        <ele>215</ele>
        <time>2026-08-05T08:43:55.000Z</time>
        <extensions>
          <ns3:TrackPointExtension>
            <ns3:hr>83</ns3:hr>
            <ns3:cad>57</ns3:cad>
          </ns3:TrackPointExtension>
        </extensions>
      </trkpt>
      <trkpt lat="43.4791259653866291046142578125" lon="1.45330541767179965972900390625">
        <ele>214.8000030517578125</ele>
        <time>2026-08-05T08:43:56.000Z</time>
        <extensions>
          <ns3:TrackPointExtension>
            <ns3:hr>83</ns3:hr>
            <ns3:cad>57</ns3:cad>
          </ns3:TrackPointExtension>
        </extensions>
      </trkpt>
      <trkpt lat="43.47913920879364013671875" lon="1.45331648178398609161376953125">
        <ele>214.600006103515625</ele>
        <time>2026-08-05T08:43:57.000Z</time>
        <extensions>
          <ns3:TrackPointExtension>
            <ns3:hr>84</ns3:hr>
            <ns3:cad>57</ns3:cad>
          </ns3:TrackPointExtension>
        </extensions>
      </trkpt>
      <trkpt lat="43.4791514463722705841064453125" lon="1.45332821644842624664306640625">
        <ele>214.399993896484375</ele>
        <time>2026-08-05T08:43:58.000Z</time>
        <extensions>
          <ns3:TrackPointExtension>
            <ns3:hr>83</ns3:hr>
            <ns3:cad>57</ns3:cad>
          </ns3:TrackPointExtension>
        </extensions>
      </trkpt>
      <trkpt lat="43.47916276194155216217041015625" lon="1.4533410407602787017822265625">
        <ele>214.1999969482421875</ele>
        <time>2026-08-05T08:43:59.000Z</time>
        <extensions>
          <ns3:TrackPointExtension>
            <ns3:hr>83</ns3:hr>
            <ns3:cad>56</ns3:cad>
          </ns3:TrackPointExtension>
        </extensions>
      </trkpt>
      <trkpt lat="43.47917382605373859405517578125" lon="1.4533521048724651336669921875">
        <ele>214</ele>
        <time>2026-08-05T08:44:00.000Z</time>
        <extensions>
          <ns3:TrackPointExtension>
            <ns3:hr>83</ns3:hr>
            <ns3:cad>56</ns3:cad>
          </ns3:TrackPointExtension>
        </extensions>
      </trkpt>
      <trkpt lat="43.47918354906141757965087890625" lon="1.45336308516561985015869140625">
        <ele>213.8000030517578125</ele>
        <time>2026-08-05T08:44:01.000Z</time>
        <extensions>
          <ns3:TrackPointExtension>
            <ns3:hr>84</ns3:hr>
            <ns3:cad>56</ns3:cad>
          </ns3:TrackPointExtension>
        </extensions>
      </trkpt>
      <trkpt lat="43.479197882115840911865234375" lon="1.45338018424808979034423828125">
        <ele>213.600006103515625</ele>
        <time>2026-08-05T08:44:02.000Z</time>
        <extensions>
          <ns3:TrackPointExtension>
            <ns3:hr>83</ns3:hr>
            <ns3:cad>56</ns3:cad>
          </ns3:TrackPointExtension>
        </extensions>
      </trkpt>
      <trkpt lat="43.47920986823737621307373046875" lon="1.4533960260450839996337890625">
        <ele>213.399993896484375</ele>
        <time>2026-08-05T08:44:03.000Z</time>
        <extensions>
          <ns3:TrackPointExtension>
            <ns3:hr>84</ns3:hr>
            <ns3:cad>56</ns3:cad>
          </ns3:TrackPointExtension>
        </extensions>
      </trkpt>
      <trkpt lat="43.47922160290181636810302734375" lon="1.4534091018140316009521484375">
        <ele>213.1999969482421875</ele>
        <time>2026-08-05T08:44:04.000Z</time>
        <extensions>
          <ns3:TrackPointExtension>
            <ns3:hr>84</ns3:hr>
            <ns3:cad>56</ns3:cad>
          </ns3:TrackPointExtension>
        </extensions>
      </trkpt>
      <trkpt lat="43.479233421385288238525390625" lon="1.4534228481352329254150390625">
        <ele>213</ele>
        <time>2026-08-05T08:44:05.000Z</time>
        <extensions>
          <ns3:TrackPointExtension>
            <ns3:hr>84</ns3:hr>
            <ns3:cad>56</ns3:cad>
          </ns3:TrackPointExtension>
        </extensions>
      </trkpt>
      <trkpt lat="43.4792439825832843780517578125" lon="1.4534349180757999420166015625">
        <ele>213</ele>
        <time>2026-08-05T08:44:06.000Z</time>
        <extensions>
          <ns3:TrackPointExtension>
            <ns3:hr>84</ns3:hr>
            <ns3:cad>57</ns3:cad>
          </ns3:TrackPointExtension>
        </extensions>
      </trkpt>
      <trkpt lat="43.4792540408670902252197265625" lon="1.453448496758937835693359375">
        <ele>212.8000030517578125</ele>
        <time>2026-08-05T08:44:07.000Z</time>
        <extensions>
          <ns3:TrackPointExtension>
            <ns3:hr>84</ns3:hr>
            <ns3:cad>57</ns3:cad>
          </ns3:TrackPointExtension>
        </extensions>
      </trkpt>
      <trkpt lat="43.47926384769380092620849609375" lon="1.45345981232821941375732421875">
        <ele>212.600006103515625</ele>
        <time>2026-08-05T08:44:08.000Z</time>
        <extensions>
          <ns3:TrackPointExtension>
            <ns3:hr>84</ns3:hr>
            <ns3:cad>57</ns3:cad>
          </ns3:TrackPointExtension>
        </extensions>
      </trkpt>
      <trkpt lat="43.4792734868824481964111328125" lon="1.45347121171653270721435546875">
        <ele>212.399993896484375</ele>
        <time>2026-08-05T08:44:09.000Z</time>
        <extensions>
          <ns3:TrackPointExtension>
            <ns3:hr>85</ns3:hr>
            <ns3:cad>57</ns3:cad>
          </ns3:TrackPointExtension>
        </extensions>
      </trkpt>
      <trkpt lat="43.47928346134722232818603515625" lon="1.45348261110484600067138671875">
        <ele>212.1999969482421875</ele>
        <time>2026-08-05T08:44:10.000Z</time>
        <extensions>
          <ns3:TrackPointExtension>
            <ns3:hr>84</ns3:hr>
            <ns3:cad>57</ns3:cad>
          </ns3:TrackPointExtension>
        </extensions>
      </trkpt>
      <trkpt lat="43.47929553128778934478759765625" lon="1.45349451340734958648681640625">
        <ele>212</ele>
        <time>2026-08-05T08:44:11.000Z</time>
        <extensions>
          <ns3:TrackPointExtension>
            <ns3:hr>84</ns3:hr>
            <ns3:cad>57</ns3:cad>
          </ns3:TrackPointExtension>
        </extensions>
      </trkpt>
      <trkpt lat="43.4793056733906269073486328125" lon="1.45350675098598003387451171875">
        <ele>211.8000030517578125</ele>
        <time>2026-08-05T08:44:12.000Z</time>
        <extensions>
          <ns3:TrackPointExtension>
            <ns3:hr>84</ns3:hr>
            <ns3:cad>56</ns3:cad>
          </ns3:TrackPointExtension>
        </extensions>
      </trkpt>
      <trkpt lat="43.479319922626018524169921875" lon="1.453518569469451904296875">
        <ele>211.600006103515625</ele>
        <time>2026-08-05T08:44:13.000Z</time>
        <extensions>
          <ns3:TrackPointExtension>
            <ns3:hr>84</ns3:hr>
            <ns3:cad>56</ns3:cad>
          </ns3:TrackPointExtension>
        </extensions>
      </trkpt>
      <trkpt lat="43.4793309867382049560546875" lon="1.45352971740067005157470703125">
        <ele>211.600006103515625</ele>
        <time>2026-08-05T08:44:14.000Z</time>
        <extensions>
          <ns3:TrackPointExtension>
            <ns3:hr>83</ns3:hr>
            <ns3:cad>56</ns3:cad>
          </ns3:TrackPointExtension>
        </extensions>
      </trkpt>
      <trkpt lat="43.47934104502201080322265625" lon="1.4535388536751270294189453125">
        <ele>211.399993896484375</ele>
        <time>2026-08-05T08:44:15.000Z</time>
        <extensions>
          <ns3:TrackPointExtension>
            <ns3:hr>83</ns3:hr>
            <ns3:cad>56</ns3:cad>
          </ns3:TrackPointExtension>
        </extensions>
      </trkpt>
      <trkpt lat="43.47935169003903865814208984375" lon="1.45355050452053546905517578125">
        <ele>211.1999969482421875</ele>
        <time>2026-08-05T08:44:16.000Z</time>
        <extensions>
          <ns3:TrackPointExtension>
            <ns3:hr>82</ns3:hr>
            <ns3:cad>56</ns3:cad>
          </ns3:TrackPointExtension>
        </extensions>
      </trkpt>
      <trkpt lat="43.479360826313495635986328125" lon="1.45356223918497562408447265625">
        <ele>211.1999969482421875</ele>
        <time>2026-08-05T08:44:17.000Z</time>
        <extensions>
          <ns3:TrackPointExtension>
            <ns3:hr>81</ns3:hr>
            <ns3:cad>56</ns3:cad>
          </ns3:TrackPointExtension>
        </extensions>
      </trkpt>
      <trkpt lat="43.47937147133052349090576171875" lon="1.45357497967779636383056640625">
        <ele>211</ele>
        <time>2026-08-05T08:44:18.000Z</time>
        <extensions>
          <ns3:TrackPointExtension>
            <ns3:hr>81</ns3:hr>
            <ns3:cad>56</ns3:cad>
          </ns3:TrackPointExtension>
        </extensions>
      </trkpt>
      <trkpt lat="43.47938186489045619964599609375" lon="1.45358973182737827301025390625">
        <ele>210.8000030517578125</ele>
        <time>2026-08-05T08:44:19.000Z</time>
        <extensions>
          <ns3:TrackPointExtension>
            <ns3:hr>81</ns3:hr>
            <ns3:cad>57</ns3:cad>
          </ns3:TrackPointExtension>
        </extensions>
      </trkpt>
      <trkpt lat="43.47939209081232547760009765625" lon="1.45360180176794528961181640625">
        <ele>210.600006103515625</ele>
        <time>2026-08-05T08:44:20.000Z</time>
        <extensions>
          <ns3:TrackPointExtension>
            <ns3:hr>81</ns3:hr>
            <ns3:cad>57</ns3:cad>
          </ns3:TrackPointExtension>
        </extensions>
      </trkpt>
      <trkpt lat="43.479403071105480194091796875" lon="1.4536149613559246063232421875">
        <ele>210.399993896484375</ele>
        <time>2026-08-05T08:44:21.000Z</time>
        <extensions>
          <ns3:TrackPointExtension>
            <ns3:hr>80</ns3:hr>
            <ns3:cad>57</ns3:cad>
          </ns3:TrackPointExtension>
        </extensions>
      </trkpt>
      <trkpt lat="43.4794132970273494720458984375" lon="1.45362786948680877685546875">
        <ele>210.399993896484375</ele>
        <time>2026-08-05T08:44:22.000Z</time>
        <extensions>
          <ns3:TrackPointExtension>
            <ns3:hr>81</ns3:hr>
            <ns3:cad>57</ns3:cad>
          </ns3:TrackPointExtension>
        </extensions>
      </trkpt>
      <trkpt lat="43.47942327149212360382080078125" lon="1.45363935269415378570556640625">
        <ele>210.1999969482421875</ele>
        <time>2026-08-05T08:44:23.000Z</time>
        <extensions>
          <ns3:TrackPointExtension>
            <ns3:hr>81</ns3:hr>
            <ns3:cad>57</ns3:cad>
          </ns3:TrackPointExtension>
        </extensions>
      </trkpt>
      <trkpt lat="43.4794337488710880279541015625" lon="1.453649997711181640625">
        <ele>210</ele>
        <time>2026-08-05T08:44:24.000Z</time>
        <extensions>
          <ns3:TrackPointExtension>
            <ns3:hr>80</ns3:hr>
            <ns3:cad>57</ns3:cad>
          </ns3:TrackPointExtension>
        </extensions>
      </trkpt>
      <trkpt lat="43.479444980621337890625" lon="1.45366081036627292633056640625">
        <ele>209.8000030517578125</ele>
        <time>2026-08-05T08:44:25.000Z</time>
        <extensions>
          <ns3:TrackPointExtension>
            <ns3:hr>80</ns3:hr>
            <ns3:cad>57</ns3:cad>
          </ns3:TrackPointExtension>
        </extensions>
      </trkpt>
      <trkpt lat="43.47945596091449260711669921875" lon="1.4536719582974910736083984375">
        <ele>209.600006103515625</ele>
        <time>2026-08-05T08:44:26.000Z</time>
        <extensions>
          <ns3:TrackPointExtension>
            <ns3:hr>80</ns3:hr>
            <ns3:cad>56</ns3:cad>
          </ns3:TrackPointExtension>
        </extensions>
      </trkpt>
      <trkpt lat="43.47946752794086933135986328125" lon="1.45368394441902637481689453125">
        <ele>209.600006103515625</ele>
        <time>2026-08-05T08:44:27.000Z</time>
        <extensions>
          <ns3:TrackPointExtension>
            <ns3:hr>79</ns3:hr>
            <ns3:cad>56</ns3:cad>
          </ns3:TrackPointExtension>
        </extensions>
      </trkpt>
      <trkpt lat="43.47947708331048488616943359375" lon="1.45369668491184711456298828125">
        <ele>209.399993896484375</ele>
        <time>2026-08-05T08:44:28.000Z</time>
        <extensions>
          <ns3:TrackPointExtension>
            <ns3:hr>79</ns3:hr>
            <ns3:cad>56</ns3:cad>
          </ns3:TrackPointExtension>
        </extensions>
      </trkpt>
      <trkpt lat="43.4794877283275127410888671875" lon="1.4537081681191921234130859375">
        <ele>209.1999969482421875</ele>
        <time>2026-08-05T08:44:29.000Z</time>
        <extensions>
          <ns3:TrackPointExtension>
            <ns3:hr>79</ns3:hr>
            <ns3:cad>56</ns3:cad>
          </ns3:TrackPointExtension>
        </extensions>
      </trkpt>
      <trkpt lat="43.47949954681098461151123046875" lon="1.45371948368847370147705078125">
        <ele>209.1999969482421875</ele>
        <time>2026-08-05T08:44:30.000Z</time>
        <extensions>
          <ns3:TrackPointExtension>
            <ns3:hr>79</ns3:hr>
            <ns3:cad>56</ns3:cad>
          </ns3:TrackPointExtension>
        </extensions>
      </trkpt>
      <trkpt lat="43.47951061092317104339599609375" lon="1.4537318050861358642578125">
        <ele>209</ele>
        <time>2026-08-05T08:44:31.000Z</time>
        <extensions>
          <ns3:TrackPointExtension>
            <ns3:hr>79</ns3:hr>
            <ns3:cad>56</ns3:cad>
          </ns3:TrackPointExtension>
        </extensions>
      </trkpt>
      <trkpt lat="43.479521088302135467529296875" lon="1.45374412648379802703857421875">
        <ele>209</ele>
        <time>2026-08-05T08:44:32.000Z</time>
        <extensions>
          <ns3:TrackPointExtension>
            <ns3:hr>79</ns3:hr>
            <ns3:cad>56</ns3:cad>
          </ns3:TrackPointExtension>
        </extensions>
      </trkpt>
      <trkpt lat="43.479531817138195037841796875" lon="1.45375686697661876678466796875">
        <ele>208.8000030517578125</ele>
        <time>2026-08-05T08:44:33.000Z</time>
        <extensions>
          <ns3:TrackPointExtension>
            <ns3:hr>79</ns3:hr>
            <ns3:cad>56</ns3:cad>
          </ns3:TrackPointExtension>
        </extensions>
      </trkpt>
      <trkpt lat="43.4795413725078105926513671875" lon="1.453769020736217498779296875">
        <ele>208.8000030517578125</ele>
        <time>2026-08-05T08:44:34.000Z</time>
        <extensions>
          <ns3:TrackPointExtension>
            <ns3:hr>79</ns3:hr>
            <ns3:cad>56</ns3:cad>
          </ns3:TrackPointExtension>
        </extensions>
      </trkpt>
      <trkpt lat="43.47955168224871158599853515625" lon="1.453781425952911376953125">
        <ele>208.600006103515625</ele>
        <time>2026-08-05T08:44:35.000Z</time>
        <extensions>
          <ns3:TrackPointExtension>
            <ns3:hr>78</ns3:hr>
            <ns3:cad>55</ns3:cad>
          </ns3:TrackPointExtension>
        </extensions>
      </trkpt>
      <trkpt lat="43.47956375218927860260009765625" lon="1.4537933282554149627685546875">
        <ele>208.600006103515625</ele>
        <time>2026-08-05T08:44:36.000Z</time>
        <extensions>
          <ns3:TrackPointExtension>
            <ns3:hr>78</ns3:hr>
            <ns3:cad>55</ns3:cad>
          </ns3:TrackPointExtension>
        </extensions>
      </trkpt>
      <trkpt lat="43.47957414574921131134033203125" lon="1.4538033865392208099365234375">
        <ele>208.399993896484375</ele>
        <time>2026-08-05T08:44:37.000Z</time>
        <extensions>
          <ns3:TrackPointExtension>
            <ns3:hr>77</ns3:hr>
            <ns3:cad>55</ns3:cad>
          </ns3:TrackPointExtension>
        </extensions>
      </trkpt>
      <trkpt lat="43.4795859642326831817626953125" lon="1.4538137800991535186767578125">
        <ele>208.1999969482421875</ele>
        <time>2026-08-05T08:44:38.000Z</time>
        <extensions>
          <ns3:TrackPointExtension>
            <ns3:hr>77</ns3:hr>
            <ns3:cad>55</ns3:cad>
          </ns3:TrackPointExtension>
        </extensions>
      </trkpt>
      <trkpt lat="43.47959727980196475982666015625" lon="1.45382392220199108123779296875">
        <ele>208.1999969482421875</ele>
        <time>2026-08-05T08:44:39.000Z</time>
        <extensions>
          <ns3:TrackPointExtension>
            <ns3:hr>77</ns3:hr>
            <ns3:cad>55</ns3:cad>
          </ns3:TrackPointExtension>
        </extensions>
      </trkpt>
      <trkpt lat="43.47960767336189746856689453125" lon="1.4538325555622577667236328125">
        <ele>208</ele>
        <time>2026-08-05T08:44:40.000Z</time>
        <extensions>
          <ns3:TrackPointExtension>
            <ns3:hr>76</ns3:hr>
            <ns3:cad>55</ns3:cad>
          </ns3:TrackPointExtension>
        </extensions>
      </trkpt>
      <trkpt lat="43.47961823455989360809326171875" lon="1.45384336821734905242919921875">
        <ele>207.8000030517578125</ele>
        <time>2026-08-05T08:44:41.000Z</time>
        <extensions>
          <ns3:TrackPointExtension>
            <ns3:hr>76</ns3:hr>
            <ns3:cad>54</ns3:cad>
          </ns3:TrackPointExtension>
        </extensions>
      </trkpt>
      <trkpt lat="43.47962778992950916290283203125" lon="1.4538543485105037689208984375">
        <ele>207.8000030517578125</ele>
        <time>2026-08-05T08:44:42.000Z</time>
        <extensions>
          <ns3:TrackPointExtension>
            <ns3:hr>76</ns3:hr>
            <ns3:cad>54</ns3:cad>
          </ns3:TrackPointExtension>
        </extensions>
      </trkpt>
      <trkpt lat="43.47963885404169559478759765625" lon="1.45386599935591220855712890625">
        <ele>207.600006103515625</ele>
        <time>2026-08-05T08:44:43.000Z</time>
        <extensions>
          <ns3:TrackPointExtension>
            <ns3:hr>77</ns3:hr>
            <ns3:cad>54</ns3:cad>
          </ns3:TrackPointExtension>
        </extensions>
      </trkpt>
      <trkpt lat="43.47964949905872344970703125" lon="1.4538774825632572174072265625">
        <ele>207.600006103515625</ele>
        <time>2026-08-05T08:44:44.000Z</time>
        <extensions>
          <ns3:TrackPointExtension>
            <ns3:hr>76</ns3:hr>
            <ns3:cad>54</ns3:cad>
          </ns3:TrackPointExtension>
        </extensions>
      </trkpt>
      <trkpt lat="43.4796603955328464508056640625" lon="1.45388997159898281097412109375">
        <ele>207.399993896484375</ele>
        <time>2026-08-05T08:44:45.000Z</time>
        <extensions>
          <ns3:TrackPointExtension>
            <ns3:hr>77</ns3:hr>
            <ns3:cad>54</ns3:cad>
          </ns3:TrackPointExtension>
        </extensions>
      </trkpt>
      <trkpt lat="43.47967036999762058258056640625" lon="1.4539002813398838043212890625">
        <ele>207.399993896484375</ele>
        <time>2026-08-05T08:44:46.000Z</time>
        <extensions>
          <ns3:TrackPointExtension>
            <ns3:hr>77</ns3:hr>
            <ns3:cad>53</ns3:cad>
          </ns3:TrackPointExtension>
        </extensions>
      </trkpt>
      <trkpt lat="43.4796810150146484375" lon="1.453909166157245635986328125">
        <ele>207.1999969482421875</ele>
        <time>2026-08-05T08:44:47.000Z</time>
        <extensions>
          <ns3:TrackPointExtension>
            <ns3:hr>77</ns3:hr>
            <ns3:cad>53</ns3:cad>
          </ns3:TrackPointExtension>
        </extensions>
      </trkpt>
      <trkpt lat="43.4796912409365177154541015625" lon="1.45391888916492462158203125">
        <ele>207.1999969482421875</ele>
        <time>2026-08-05T08:44:48.000Z</time>
        <extensions>
          <ns3:TrackPointExtension>
            <ns3:hr>77</ns3:hr>
            <ns3:cad>53</ns3:cad>
          </ns3:TrackPointExtension>
        </extensions>
      </trkpt>
      <trkpt lat="43.47970104776322841644287109375" lon="1.45392827689647674560546875">
        <ele>207</ele>
        <time>2026-08-05T08:44:49.000Z</time>
        <extensions>
          <ns3:TrackPointExtension>
            <ns3:hr>77</ns3:hr>
            <ns3:cad>53</ns3:cad>
          </ns3:TrackPointExtension>
        </extensions>
      </trkpt>
      <trkpt lat="43.4797096811234951019287109375" lon="1.453940011560916900634765625">
        <ele>206.8000030517578125</ele>
        <time>2026-08-05T08:44:50.000Z</time>
        <extensions>
          <ns3:TrackPointExtension>
            <ns3:hr>78</ns3:hr>
            <ns3:cad>53</ns3:cad>
          </ns3:TrackPointExtension>
        </extensions>
      </trkpt>
      <trkpt lat="43.47971915267407894134521484375" lon="1.45394847728312015533447265625">
        <ele>206.8000030517578125</ele>
        <time>2026-08-05T08:44:51.000Z</time>
        <extensions>
          <ns3:TrackPointExtension>
            <ns3:hr>78</ns3:hr>
            <ns3:cad>53</ns3:cad>
          </ns3:TrackPointExtension>
        </extensions>
      </trkpt>
      <trkpt lat="43.4797261096537113189697265625" lon="1.45395518280565738677978515625">
        <ele>206.8000030517578125</ele>
        <time>2026-08-05T08:44:52.000Z</time>
        <extensions>
          <ns3:TrackPointExtension>
            <ns3:hr>78</ns3:hr>
            <ns3:cad>52</ns3:cad>
          </ns3:TrackPointExtension>
        </extensions>
      </trkpt>
      <trkpt lat="43.47973256371915340423583984375" lon="1.4539633132517337799072265625">
        <ele>206.600006103515625</ele>
        <time>2026-08-05T08:44:53.000Z</time>
        <extensions>
          <ns3:TrackPointExtension>
            <ns3:hr>77</ns3:hr>
            <ns3:cad>51</ns3:cad>
          </ns3:TrackPointExtension>
        </extensions>
      </trkpt>
      <trkpt lat="43.4797408618032932281494140625" lon="1.45397345535457134246826171875">
        <ele>206.600006103515625</ele>
        <time>2026-08-05T08:44:54.000Z</time>
        <extensions>
          <ns3:TrackPointExtension>
            <ns3:hr>77</ns3:hr>
            <ns3:cad>51</ns3:cad>
          </ns3:TrackPointExtension>
        </extensions>
      </trkpt>
      <trkpt lat="43.4797509200870990753173828125" lon="1.45398552529513835906982421875">
        <ele>206.399993896484375</ele>
        <time>2026-08-05T08:44:55.000Z</time>
        <extensions>
          <ns3:TrackPointExtension>
            <ns3:hr>77</ns3:hr>
            <ns3:cad>53</ns3:cad>
          </ns3:TrackPointExtension>
        </extensions>
      </trkpt>
      <trkpt lat="43.47976089455187320709228515625" lon="1.45399424247443675994873046875">
        <ele>206.1999969482421875</ele>
        <time>2026-08-05T08:44:56.000Z</time>
        <extensions>
          <ns3:TrackPointExtension>
            <ns3:hr>77</ns3:hr>
            <ns3:cad>53</ns3:cad>
          </ns3:TrackPointExtension>
        </extensions>
      </trkpt>
      <trkpt lat="43.47977095283567905426025390625" lon="1.4540042169392108917236328125">
        <ele>206</ele>
        <time>2026-08-05T08:44:57.000Z</time>
        <extensions>
          <ns3:TrackPointExtension>
            <ns3:hr>78</ns3:hr>
            <ns3:cad>53</ns3:cad>
          </ns3:TrackPointExtension>
        </extensions>
      </trkpt>
      <trkpt lat="43.4797780774533748626708984375" lon="1.45401502959430217742919921875">
        <ele>205.8000030517578125</ele>
        <time>2026-08-05T08:44:58.000Z</time>
        <extensions>
          <ns3:TrackPointExtension>
            <ns3:hr>77</ns3:hr>
            <ns3:cad>53</ns3:cad>
          </ns3:TrackPointExtension>
        </extensions>
      </trkpt>
      <trkpt lat="43.47978235222399234771728515625" lon="1.45402072928845882415771484375">
        <ele>205.8000030517578125</ele>
        <time>2026-08-05T08:44:59.000Z</time>
        <extensions>
          <ns3:TrackPointExtension>
            <ns3:hr>77</ns3:hr>
            <ns3:cad>53</ns3:cad>
          </ns3:TrackPointExtension>
        </extensions>
      </trkpt>
      <trkpt lat="43.47978872247040271759033203125" lon="1.454026512801647186279296875">
        <ele>205.600006103515625</ele>
        <time>2026-08-05T08:45:00.000Z</time>
        <extensions>
          <ns3:TrackPointExtension>
            <ns3:hr>77</ns3:hr>
            <ns3:cad>52</ns3:cad>
          </ns3:TrackPointExtension>
        </extensions>
      </trkpt>
      <trkpt lat="43.4797968529164791107177734375" lon="1.4540323801338672637939453125">
        <ele>205.600006103515625</ele>
        <time>2026-08-05T08:45:01.000Z</time>
        <extensions>
          <ns3:TrackPointExtension>
            <ns3:hr>78</ns3:hr>
            <ns3:cad>52</ns3:cad>
          </ns3:TrackPointExtension>
        </extensions>
      </trkpt>
      <trkpt lat="43.47980582155287265777587890625" lon="1.4540370739996433258056640625">
        <ele>205.600006103515625</ele>
        <time>2026-08-05T08:45:02.000Z</time>
        <extensions>
          <ns3:TrackPointExtension>
            <ns3:hr>77</ns3:hr>
            <ns3:cad>52</ns3:cad>
          </ns3:TrackPointExtension>
        </extensions>
      </trkpt>
      <trkpt lat="43.47981219179928302764892578125" lon="1.454038918018341064453125">
        <ele>205.399993896484375</ele>
        <time>2026-08-05T08:45:03.000Z</time>
        <extensions>
          <ns3:TrackPointExtension>
            <ns3:hr>77</ns3:hr>
            <ns3:cad>52</ns3:cad>
          </ns3:TrackPointExtension>
        </extensions>
      </trkpt>
      <trkpt lat="43.47982116043567657470703125" lon="1.45403950475156307220458984375">
        <ele>205.399993896484375</ele>
        <time>2026-08-05T08:45:04.000Z</time>
        <extensions>
          <ns3:TrackPointExtension>
            <ns3:hr>77</ns3:hr>
            <ns3:cad>52</ns3:cad>
          </ns3:TrackPointExtension>
        </extensions>
      </trkpt>
      <trkpt lat="43.47983029671013355255126953125" lon="1.454037912189960479736328125">
        <ele>205.399993896484375</ele>
        <time>2026-08-05T08:45:05.000Z</time>
        <extensions>
          <ns3:TrackPointExtension>
            <ns3:hr>77</ns3:hr>
            <ns3:cad>52</ns3:cad>
          </ns3:TrackPointExtension>
        </extensions>
      </trkpt>
      <trkpt lat="43.4798401035368442535400390625" lon="1.45403715781867504119873046875">
        <ele>205.399993896484375</ele>
        <time>2026-08-05T08:45:06.000Z</time>
        <extensions>
          <ns3:TrackPointExtension>
            <ns3:hr>77</ns3:hr>
            <ns3:cad>51</ns3:cad>
          </ns3:TrackPointExtension>
        </extensions>
      </trkpt>
      <trkpt lat="43.47986315377056598663330078125" lon="1.45403497852385044097900390625">
        <ele>205.399993896484375</ele>
        <time>2026-08-05T08:45:07.000Z</time>
        <extensions>
          <ns3:TrackPointExtension>
            <ns3:hr>77</ns3:hr>
            <ns3:cad>51</ns3:cad>
          </ns3:TrackPointExtension>
        </extensions>
      </trkpt>
      <trkpt lat="43.4798786602914333343505859375" lon="1.45403011702001094818115234375">
        <ele>205.399993896484375</ele>
        <time>2026-08-05T08:45:08.000Z</time>
        <extensions>
          <ns3:TrackPointExtension>
            <ns3:hr>76</ns3:hr>
            <ns3:cad>51</ns3:cad>
          </ns3:TrackPointExtension>
        </extensions>
      </trkpt>
      <trkpt lat="43.47988846711814403533935546875" lon="1.45402559079229831695556640625">
        <ele>205.399993896484375</ele>
        <time>2026-08-05T08:45:09.000Z</time>
        <extensions>
          <ns3:TrackPointExtension>
            <ns3:hr>76</ns3:hr>
            <ns3:cad>51</ns3:cad>
          </ns3:TrackPointExtension>
        </extensions>
      </trkpt>
      <trkpt lat="43.47990221343934535980224609375" lon="1.4540172927081584930419921875">
        <ele>205.399993896484375</ele>
        <time>2026-08-05T08:45:10.000Z</time>
        <extensions>
          <ns3:TrackPointExtension>
            <ns3:hr>76</ns3:hr>
            <ns3:cad>51</ns3:cad>
          </ns3:TrackPointExtension>
        </extensions>
      </trkpt>
      <trkpt lat="43.479917049407958984375" lon="1.45400865934789180755615234375">
        <ele>205.1999969482421875</ele>
        <time>2026-08-05T08:45:11.000Z</time>
        <extensions>
          <ns3:TrackPointExtension>
            <ns3:hr>76</ns3:hr>
            <ns3:cad>51</ns3:cad>
          </ns3:TrackPointExtension>
        </extensions>
      </trkpt>
      <trkpt lat="43.47993138246238231658935546875" lon="1.4539991877973079681396484375">
        <ele>205.1999969482421875</ele>
        <time>2026-08-05T08:45:12.000Z</time>
        <extensions>
          <ns3:TrackPointExtension>
            <ns3:hr>76</ns3:hr>
            <ns3:cad>51</ns3:cad>
          </ns3:TrackPointExtension>
        </extensions>
      </trkpt>
      <trkpt lat="43.479947559535503387451171875" lon="1.453988961875438690185546875">
        <ele>205</ele>
        <time>2026-08-05T08:45:13.000Z</time>
        <extensions>
          <ns3:TrackPointExtension>
            <ns3:hr>76</ns3:hr>
            <ns3:cad>52</ns3:cad>
          </ns3:TrackPointExtension>
        </extensions>
      </trkpt>
      <trkpt lat="43.47995929419994354248046875" lon="1.453981585800647735595703125">
        <ele>205</ele>
        <time>2026-08-05T08:45:14.000Z</time>
        <extensions>
          <ns3:TrackPointExtension>
            <ns3:hr>76</ns3:hr>
            <ns3:cad>53</ns3:cad>
          </ns3:TrackPointExtension>
        </extensions>
      </trkpt>
      <trkpt lat="43.4799693524837493896484375" lon="1.4539760537445545196533203125">
        <ele>205</ele>
        <time>2026-08-05T08:45:15.000Z</time>
        <extensions>
          <ns3:TrackPointExtension>
            <ns3:hr>75</ns3:hr>
            <ns3:cad>54</ns3:cad>
          </ns3:TrackPointExtension>
        </extensions>
      </trkpt>
      <trkpt lat="43.479981087148189544677734375" lon="1.45397127605974674224853515625">
        <ele>205</ele>
        <time>2026-08-05T08:45:16.000Z</time>
        <extensions>
          <ns3:TrackPointExtension>
            <ns3:hr>76</ns3:hr>
            <ns3:cad>54</ns3:cad>
          </ns3:TrackPointExtension>
        </extensions>
      </trkpt>
      <trkpt lat="43.47999206744134426116943359375" lon="1.453968845307826995849609375">
        <ele>205</ele>
        <time>2026-08-05T08:45:17.000Z</time>
        <extensions>
          <ns3:TrackPointExtension>
            <ns3:hr>76</ns3:hr>
            <ns3:cad>54</ns3:cad>
          </ns3:TrackPointExtension>
        </extensions>
      </trkpt>
      <trkpt lat="43.47999818623065948486328125" lon="1.4539683423936367034912109375">
        <ele>204.8000030517578125</ele>
        <time>2026-08-05T08:45:18.000Z</time>
        <extensions>
          <ns3:TrackPointExtension>
            <ns3:hr>76</ns3:hr>
            <ns3:cad>55</ns3:cad>
          </ns3:TrackPointExtension>
        </extensions>
      </trkpt>
      <trkpt lat="43.48000262863934040069580078125" lon="1.45396708510816097259521484375">
        <ele>204.8000030517578125</ele>
        <time>2026-08-05T08:45:19.000Z</time>
        <extensions>
          <ns3:TrackPointExtension>
            <ns3:hr>75</ns3:hr>
            <ns3:cad>55</ns3:cad>
          </ns3:TrackPointExtension>
        </extensions>
      </trkpt>
      <trkpt lat="43.48001033999025821685791015625" lon="1.45396507345139980316162109375">
        <ele>204.8000030517578125</ele>
        <time>2026-08-05T08:45:20.000Z</time>
        <extensions>
          <ns3:TrackPointExtension>
            <ns3:hr>76</ns3:hr>
            <ns3:cad>55</ns3:cad>
          </ns3:TrackPointExtension>
        </extensions>
      </trkpt>
      <trkpt lat="43.480020649731159210205078125" lon="1.45396557636559009552001953125">
        <ele>204.8000030517578125</ele>
        <time>2026-08-05T08:45:21.000Z</time>
        <extensions>
          <ns3:TrackPointExtension>
            <ns3:hr>76</ns3:hr>
            <ns3:cad>0</ns3:cad>
          </ns3:TrackPointExtension>
        </extensions>
      </trkpt>
      <trkpt lat="43.48003146238625049591064453125" lon="1.453962810337543487548828125">
        <ele>204.600006103515625</ele>
        <time>2026-08-05T08:45:22.000Z</time>
        <extensions>
          <ns3:TrackPointExtension>
            <ns3:hr>75</ns3:hr>
            <ns3:cad>0</ns3:cad>
          </ns3:TrackPointExtension>
        </extensions>
      </trkpt>
      <trkpt lat="43.480044789612293243408203125" lon="1.453960128128528594970703125">
        <ele>204.600006103515625</ele>
        <time>2026-08-05T08:45:23.000Z</time>
        <extensions>
          <ns3:TrackPointExtension>
            <ns3:hr>75</ns3:hr>
            <ns3:cad>50</ns3:cad>
          </ns3:TrackPointExtension>
        </extensions>
      </trkpt>
      <trkpt lat="43.4800607152283191680908203125" lon="1.45395652391016483306884765625">
        <ele>204.600006103515625</ele>
        <time>2026-08-05T08:45:24.000Z</time>
        <extensions>
          <ns3:TrackPointExtension>
            <ns3:hr>75</ns3:hr>
            <ns3:cad>50</ns3:cad>
          </ns3:TrackPointExtension>
        </extensions>
      </trkpt>
      <trkpt lat="43.48007337190210819244384765625" lon="1.4539512433111667633056640625">
        <ele>204.600006103515625</ele>
        <time>2026-08-05T08:45:25.000Z</time>
        <extensions>
          <ns3:TrackPointExtension>
            <ns3:hr>75</ns3:hr>
            <ns3:cad>0</ns3:cad>
          </ns3:TrackPointExtension>
        </extensions>
      </trkpt>
      <trkpt lat="43.480087034404277801513671875" lon="1.45394763909280300140380859375">
        <ele>204.600006103515625</ele>
        <time>2026-08-05T08:45:26.000Z</time>
        <extensions>
          <ns3:TrackPointExtension>
            <ns3:hr>75</ns3:hr>
            <ns3:cad>0</ns3:cad>
          </ns3:TrackPointExtension>
        </extensions>
      </trkpt>
      <trkpt lat="43.48009876906871795654296875" lon="1.45394328050315380096435546875">
        <ele>204.600006103515625</ele>
        <time>2026-08-05T08:45:27.000Z</time>
        <extensions>
          <ns3:TrackPointExtension>
            <ns3:hr>75</ns3:hr>
            <ns3:cad>0</ns3:cad>
          </ns3:TrackPointExtension>
        </extensions>
      </trkpt>
      <trkpt lat="43.480109162628650665283203125" lon="1.4539398439228534698486328125">
        <ele>204.600006103515625</ele>
        <time>2026-08-05T08:45:28.000Z</time>
        <extensions>
          <ns3:TrackPointExtension>
            <ns3:hr>76</ns3:hr>
            <ns3:cad>50</ns3:cad>
          </ns3:TrackPointExtension>
        </extensions>
      </trkpt>
      <trkpt lat="43.48012114875018596649169921875" lon="1.45393724553287029266357421875">
        <ele>204.600006103515625</ele>
        <time>2026-08-05T08:45:29.000Z</time>
        <extensions>
          <ns3:TrackPointExtension>
            <ns3:hr>77</ns3:hr>
            <ns3:cad>50</ns3:cad>
          </ns3:TrackPointExtension>
        </extensions>
      </trkpt>
      <trkpt lat="43.480134643614292144775390625" lon="1.45393338985741138458251953125">
        <ele>204.399993896484375</ele>
        <time>2026-08-05T08:45:30.000Z</time>
        <extensions>
          <ns3:TrackPointExtension>
            <ns3:hr>77</ns3:hr>
            <ns3:cad>50</ns3:cad>
          </ns3:TrackPointExtension>
        </extensions>
      </trkpt>
      <trkpt lat="43.4801485575735569000244140625" lon="1.45393054001033306121826171875">
        <ele>204.399993896484375</ele>
        <time>2026-08-05T08:45:31.000Z</time>
        <extensions>
          <ns3:TrackPointExtension>
            <ns3:hr>78</ns3:hr>
            <ns3:cad>50</ns3:cad>
          </ns3:TrackPointExtension>
        </extensions>
      </trkpt>
      <trkpt lat="43.48016045987606048583984375" lon="1.4539284445345401763916015625">
        <ele>204.399993896484375</ele>
        <time>2026-08-05T08:45:32.000Z</time>
        <extensions>
          <ns3:TrackPointExtension>
            <ns3:hr>79</ns3:hr>
            <ns3:cad>50</ns3:cad>
          </ns3:TrackPointExtension>
        </extensions>
      </trkpt>
      <trkpt lat="43.4801703505218029022216796875" lon="1.45392534323036670684814453125">
        <ele>204.1999969482421875</ele>
        <time>2026-08-05T08:45:33.000Z</time>
        <extensions>
          <ns3:TrackPointExtension>
            <ns3:hr>80</ns3:hr>
            <ns3:cad>50</ns3:cad>
          </ns3:TrackPointExtension>
        </extensions>
      </trkpt>
      <trkpt lat="43.48017814569175243377685546875" lon="1.4539237506687641143798828125">
        <ele>204.1999969482421875</ele>
        <time>2026-08-05T08:45:34.000Z</time>
        <extensions>
          <ns3:TrackPointExtension>
            <ns3:hr>80</ns3:hr>
            <ns3:cad>50</ns3:cad>
          </ns3:TrackPointExtension>
        </extensions>
      </trkpt>
      <trkpt lat="43.48018803633749485015869140625" lon="1.45392266102135181427001953125">
        <ele>204.1999969482421875</ele>
        <time>2026-08-05T08:45:35.000Z</time>
        <extensions>
          <ns3:TrackPointExtension>
            <ns3:hr>80</ns3:hr>
            <ns3:cad>50</ns3:cad>
          </ns3:TrackPointExtension>
        </extensions>
      </trkpt>
      <trkpt lat="43.4801981784403324127197265625" lon="1.45391511730849742889404296875">
        <ele>204</ele>
        <time>2026-08-05T08:45:36.000Z</time>
        <extensions>
          <ns3:TrackPointExtension>
            <ns3:hr>80</ns3:hr>
            <ns3:cad>50</ns3:cad>
          </ns3:TrackPointExtension>
        </extensions>
      </trkpt>
      <trkpt lat="43.48021133802831172943115234375" lon="1.45390681922435760498046875">
        <ele>204</ele>
        <time>2026-08-05T08:45:37.000Z</time>
        <extensions>
          <ns3:TrackPointExtension>
            <ns3:hr>80</ns3:hr>
            <ns3:cad>50</ns3:cad>
          </ns3:TrackPointExtension>
        </extensions>
      </trkpt>
      <trkpt lat="43.48022625781595706939697265625" lon="1.45389265380799770355224609375">
        <ele>204</ele>
        <time>2026-08-05T08:45:38.000Z</time>
        <extensions>
          <ns3:TrackPointExtension>
            <ns3:hr>80</ns3:hr>
            <ns3:cad>51</ns3:cad>
          </ns3:TrackPointExtension>
        </extensions>
      </trkpt>
      <trkpt lat="43.480237238109111785888671875" lon="1.45388276316225528717041015625">
        <ele>204</ele>
        <time>2026-08-05T08:45:39.000Z</time>
        <extensions>
          <ns3:TrackPointExtension>
            <ns3:hr>80</ns3:hr>
            <ns3:cad>52</ns3:cad>
          </ns3:TrackPointExtension>
        </extensions>
      </trkpt>
      <trkpt lat="43.48024838604032993316650390625" lon="1.45388259552419185638427734375">
        <ele>204</ele>
        <time>2026-08-05T08:45:40.000Z</time>
        <extensions>
          <ns3:TrackPointExtension>
            <ns3:hr>81</ns3:hr>
            <ns3:cad>52</ns3:cad>
          </ns3:TrackPointExtension>
        </extensions>
      </trkpt>
      <trkpt lat="43.48025609739124774932861328125" lon="1.4538845233619213104248046875">
        <ele>203.8000030517578125</ele>
        <time>2026-08-05T08:45:41.000Z</time>
        <extensions>
          <ns3:TrackPointExtension>
            <ns3:hr>81</ns3:hr>
            <ns3:cad>52</ns3:cad>
          </ns3:TrackPointExtension>
        </extensions>
      </trkpt>
      <trkpt lat="43.48026297055184841156005859375" lon="1.453883014619350433349609375">
        <ele>203.8000030517578125</ele>
        <time>2026-08-05T08:45:42.000Z</time>
        <extensions>
          <ns3:TrackPointExtension>
            <ns3:hr>81</ns3:hr>
            <ns3:cad>51</ns3:cad>
          </ns3:TrackPointExtension>
        </extensions>
      </trkpt>
      <trkpt lat="43.480280153453350067138671875" lon="1.453876309096813201904296875">
        <ele>203.600006103515625</ele>
        <time>2026-08-05T08:45:43.000Z</time>
        <extensions>
          <ns3:TrackPointExtension>
            <ns3:hr>82</ns3:hr>
            <ns3:cad>51</ns3:cad>
          </ns3:TrackPointExtension>
        </extensions>
      </trkpt>
      <trkpt lat="43.4802944026887416839599609375" lon="1.45386734046041965484619140625">
        <ele>203.600006103515625</ele>
        <time>2026-08-05T08:45:44.000Z</time>
        <extensions>
          <ns3:TrackPointExtension>
            <ns3:hr>82</ns3:hr>
            <ns3:cad>51</ns3:cad>
          </ns3:TrackPointExtension>
        </extensions>
      </trkpt>
      <trkpt lat="43.48030571825802326202392578125" lon="1.453860215842723846435546875">
        <ele>203.600006103515625</ele>
        <time>2026-08-05T08:45:45.000Z</time>
        <extensions>
          <ns3:TrackPointExtension>
            <ns3:hr>82</ns3:hr>
            <ns3:cad>51</ns3:cad>
          </ns3:TrackPointExtension>
        </extensions>
      </trkpt>
      <trkpt lat="43.4803182072937488555908203125" lon="1.4538560248911380767822265625">
        <ele>203.600006103515625</ele>
        <time>2026-08-05T08:45:46.000Z</time>
        <extensions>
          <ns3:TrackPointExtension>
            <ns3:hr>82</ns3:hr>
            <ns3:cad>50</ns3:cad>
          </ns3:TrackPointExtension>
        </extensions>
      </trkpt>
      <trkpt lat="43.480325751006603240966796875" lon="1.4538525044918060302734375">
        <ele>203.600006103515625</ele>
        <time>2026-08-05T08:45:47.000Z</time>
        <extensions>
          <ns3:TrackPointExtension>
            <ns3:hr>82</ns3:hr>
            <ns3:cad>50</ns3:cad>
          </ns3:TrackPointExtension>
        </extensions>
      </trkpt>
      <trkpt lat="43.480330444872379302978515625" lon="1.45385443232953548431396484375">
        <ele>203.600006103515625</ele>
        <time>2026-08-05T08:45:48.000Z</time>
        <extensions>
          <ns3:TrackPointExtension>
            <ns3:hr>82</ns3:hr>
            <ns3:cad>50</ns3:cad>
          </ns3:TrackPointExtension>
        </extensions>
      </trkpt>
      <trkpt lat="43.48034326918423175811767578125" lon="1.4538486488163471221923828125">
        <ele>203.600006103515625</ele>
        <time>2026-08-05T08:45:49.000Z</time>
        <extensions>
          <ns3:TrackPointExtension>
            <ns3:hr>82</ns3:hr>
            <ns3:cad>50</ns3:cad>
          </ns3:TrackPointExtension>
        </extensions>
      </trkpt>
      <trkpt lat="43.4803594462573528289794921875" lon="1.45384311676025390625">
        <ele>203.600006103515625</ele>
        <time>2026-08-05T08:45:50.000Z</time>
        <extensions>
          <ns3:TrackPointExtension>
            <ns3:hr>82</ns3:hr>
            <ns3:cad>50</ns3:cad>
          </ns3:TrackPointExtension>
        </extensions>
      </trkpt>
      <trkpt lat="43.48037478514015674591064453125" lon="1.4538364112377166748046875">
        <ele>203.399993896484375</ele>
        <time>2026-08-05T08:45:51.000Z</time>
        <extensions>
          <ns3:TrackPointExtension>
            <ns3:hr>82</ns3:hr>
            <ns3:cad>50</ns3:cad>
          </ns3:TrackPointExtension>
        </extensions>
      </trkpt>
      <trkpt lat="43.48038702271878719329833984375" lon="1.4538305439054965972900390625">
        <ele>203.399993896484375</ele>
        <time>2026-08-05T08:45:52.000Z</time>
        <extensions>
          <ns3:TrackPointExtension>
            <ns3:hr>82</ns3:hr>
            <ns3:cad>50</ns3:cad>
          </ns3:TrackPointExtension>
        </extensions>
      </trkpt>
      <trkpt lat="43.48039557226002216339111328125" lon="1.4538256824016571044921875">
        <ele>203.399993896484375</ele>
        <time>2026-08-05T08:45:53.000Z</time>
        <extensions>
          <ns3:TrackPointExtension>
            <ns3:hr>81</ns3:hr>
            <ns3:cad>50</ns3:cad>
          </ns3:TrackPointExtension>
        </extensions>
      </trkpt>
      <trkpt lat="43.4804040379822254180908203125" lon="1.45383012481033802032470703125">
        <ele>203.399993896484375</ele>
        <time>2026-08-05T08:45:54.000Z</time>
        <extensions>
          <ns3:TrackPointExtension>
            <ns3:hr>81</ns3:hr>
            <ns3:cad>50</ns3:cad>
          </ns3:TrackPointExtension>
        </extensions>
      </trkpt>
      <trkpt lat="43.48041300661861896514892578125" lon="1.45383146591484546661376953125">
        <ele>203.399993896484375</ele>
        <time>2026-08-05T08:45:55.000Z</time>
        <extensions>
          <ns3:TrackPointExtension>
            <ns3:hr>81</ns3:hr>
            <ns3:cad>50</ns3:cad>
          </ns3:TrackPointExtension>
        </extensions>
      </trkpt>
      <trkpt lat="43.480424992740154266357421875" lon="1.4538285322487354278564453125">
        <ele>203.399993896484375</ele>
        <time>2026-08-05T08:45:56.000Z</time>
        <extensions>
          <ns3:TrackPointExtension>
            <ns3:hr>81</ns3:hr>
            <ns3:cad>50</ns3:cad>
          </ns3:TrackPointExtension>
        </extensions>
      </trkpt>
      <trkpt lat="43.4804375655949115753173828125" lon="1.45382241345942020416259765625">
        <ele>203.1999969482421875</ele>
        <time>2026-08-05T08:45:57.000Z</time>
        <extensions>
          <ns3:TrackPointExtension>
            <ns3:hr>80</ns3:hr>
            <ns3:cad>51</ns3:cad>
          </ns3:TrackPointExtension>
        </extensions>
      </trkpt>
      <trkpt lat="43.48044921644032001495361328125" lon="1.453819312155246734619140625">
        <ele>203.1999969482421875</ele>
        <time>2026-08-05T08:45:58.000Z</time>
        <extensions>
          <ns3:TrackPointExtension>
            <ns3:hr>80</ns3:hr>
            <ns3:cad>51</ns3:cad>
          </ns3:TrackPointExtension>
        </extensions>
      </trkpt>
      <trkpt lat="43.48045961000025272369384765625" lon="1.45381696522235870361328125">
        <ele>203.1999969482421875</ele>
        <time>2026-08-05T08:45:59.000Z</time>
        <extensions>
          <ns3:TrackPointExtension>
            <ns3:hr>80</ns3:hr>
            <ns3:cad>51</ns3:cad>
          </ns3:TrackPointExtension>
        </extensions>
      </trkpt>
      <trkpt lat="43.48046849481761455535888671875" lon="1.453817300498485565185546875">
        <ele>203.1999969482421875</ele>
        <time>2026-08-05T08:46:00.000Z</time>
        <extensions>
          <ns3:TrackPointExtension>
            <ns3:hr>79</ns3:hr>
            <ns3:cad>50</ns3:cad>
          </ns3:TrackPointExtension>
        </extensions>
      </trkpt>
      <trkpt lat="43.4804784692823886871337890625" lon="1.4538117684423923492431640625">
        <ele>203</ele>
        <time>2026-08-05T08:46:01.000Z</time>
        <extensions>
          <ns3:TrackPointExtension>
            <ns3:hr>79</ns3:hr>
            <ns3:cad>50</ns3:cad>
          </ns3:TrackPointExtension>
        </extensions>
      </trkpt>
      <trkpt lat="43.48049213178455829620361328125" lon="1.45380556583404541015625">
        <ele>203</ele>
        <time>2026-08-05T08:46:02.000Z</time>
        <extensions>
          <ns3:TrackPointExtension>
            <ns3:hr>79</ns3:hr>
            <ns3:cad>50</ns3:cad>
          </ns3:TrackPointExtension>
        </extensions>
      </trkpt>
      <trkpt lat="43.48050420172512531280517578125" lon="1.45379978232085704803466796875">
        <ele>203</ele>
        <time>2026-08-05T08:46:03.000Z</time>
        <extensions>
          <ns3:TrackPointExtension>
            <ns3:hr>78</ns3:hr>
            <ns3:cad>50</ns3:cad>
          </ns3:TrackPointExtension>
        </extensions>
      </trkpt>
      <trkpt lat="43.48051576875150203704833984375" lon="1.45379425026476383209228515625">
        <ele>203</ele>
        <time>2026-08-05T08:46:04.000Z</time>
        <extensions>
          <ns3:TrackPointExtension>
            <ns3:hr>78</ns3:hr>
            <ns3:cad>50</ns3:cad>
          </ns3:TrackPointExtension>
        </extensions>
      </trkpt>
      <trkpt lat="43.48052716813981533050537109375" lon="1.453787125647068023681640625">
        <ele>203</ele>
        <time>2026-08-05T08:46:05.000Z</time>
        <extensions>
          <ns3:TrackPointExtension>
            <ns3:hr>78</ns3:hr>
            <ns3:cad>49</ns3:cad>
          </ns3:TrackPointExtension>
        </extensions>
      </trkpt>
      <trkpt lat="43.48053596913814544677734375" lon="1.45378410816192626953125">
        <ele>203</ele>
        <time>2026-08-05T08:46:06.000Z</time>
        <extensions>
          <ns3:TrackPointExtension>
            <ns3:hr>78</ns3:hr>
            <ns3:cad>49</ns3:cad>
          </ns3:TrackPointExtension>
        </extensions>
      </trkpt>
      <trkpt lat="43.48054376430809497833251953125" lon="1.45378016866743564605712890625">
        <ele>202.8000030517578125</ele>
        <time>2026-08-05T08:46:07.000Z</time>
        <extensions>
          <ns3:TrackPointExtension>
            <ns3:hr>78</ns3:hr>
            <ns3:cad>49</ns3:cad>
          </ns3:TrackPointExtension>
        </extensions>
      </trkpt>
      <trkpt lat="43.48055742681026458740234375" lon="1.453772373497486114501953125">
        <ele>202.8000030517578125</ele>
        <time>2026-08-05T08:46:08.000Z</time>
        <extensions>
          <ns3:TrackPointExtension>
            <ns3:hr>78</ns3:hr>
            <ns3:cad>49</ns3:cad>
          </ns3:TrackPointExtension>
        </extensions>
      </trkpt>
      <trkpt lat="43.4805730171501636505126953125" lon="1.45376239903271198272705078125">
        <ele>202.600006103515625</ele>
        <time>2026-08-05T08:46:09.000Z</time>
        <extensions>
          <ns3:TrackPointExtension>
            <ns3:hr>78</ns3:hr>
            <ns3:cad>50</ns3:cad>
          </ns3:TrackPointExtension>
        </extensions>
      </trkpt>
      <trkpt lat="43.48058450035750865936279296875" lon="1.4537561126053333282470703125">
        <ele>202.600006103515625</ele>
        <time>2026-08-05T08:46:10.000Z</time>
        <extensions>
          <ns3:TrackPointExtension>
            <ns3:hr>77</ns3:hr>
            <ns3:cad>51</ns3:cad>
          </ns3:TrackPointExtension>
        </extensions>
      </trkpt>
      <trkpt lat="43.480595313012599945068359375" lon="1.453753598034381866455078125">
        <ele>202.600006103515625</ele>
        <time>2026-08-05T08:46:11.000Z</time>
        <extensions>
          <ns3:TrackPointExtension>
            <ns3:hr>76</ns3:hr>
            <ns3:cad>52</ns3:cad>
          </ns3:TrackPointExtension>
        </extensions>
      </trkpt>
      <trkpt lat="43.4806028567254543304443359375" lon="1.45375066436827182769775390625">
        <ele>202.600006103515625</ele>
        <time>2026-08-05T08:46:12.000Z</time>
        <extensions>
          <ns3:TrackPointExtension>
            <ns3:hr>76</ns3:hr>
            <ns3:cad>53</ns3:cad>
          </ns3:TrackPointExtension>
        </extensions>
      </trkpt>
      <trkpt lat="43.48060998134315013885498046875" lon="1.4537453837692737579345703125">
        <ele>202.600006103515625</ele>
        <time>2026-08-05T08:46:13.000Z</time>
        <extensions>
          <ns3:TrackPointExtension>
            <ns3:hr>76</ns3:hr>
            <ns3:cad>53</ns3:cad>
          </ns3:TrackPointExtension>
        </extensions>
      </trkpt>
      <trkpt lat="43.48062221892178058624267578125" lon="1.45373960025608539581298828125">
        <ele>202.600006103515625</ele>
        <time>2026-08-05T08:46:14.000Z</time>
        <extensions>
          <ns3:TrackPointExtension>
            <ns3:hr>75</ns3:hr>
            <ns3:cad>51</ns3:cad>
          </ns3:TrackPointExtension>
        </extensions>
      </trkpt>
      <trkpt lat="43.480634875595569610595703125" lon="1.45373239181935787200927734375">
        <ele>202.600006103515625</ele>
        <time>2026-08-05T08:46:15.000Z</time>
        <extensions>
          <ns3:TrackPointExtension>
            <ns3:hr>76</ns3:hr>
            <ns3:cad>51</ns3:cad>
          </ns3:TrackPointExtension>
        </extensions>
      </trkpt>
      <trkpt lat="43.48064887337386608123779296875" lon="1.45372736267745494842529296875">
        <ele>202.600006103515625</ele>
        <time>2026-08-05T08:46:16.000Z</time>
        <extensions>
          <ns3:TrackPointExtension>
            <ns3:hr>76</ns3:hr>
            <ns3:cad>51</ns3:cad>
          </ns3:TrackPointExtension>
        </extensions>
      </trkpt>
      <trkpt lat="43.48066044040024280548095703125" lon="1.45372350700199604034423828125">
        <ele>202.600006103515625</ele>
        <time>2026-08-05T08:46:17.000Z</time>
        <extensions>
          <ns3:TrackPointExtension>
            <ns3:hr>77</ns3:hr>
            <ns3:cad>51</ns3:cad>
          </ns3:TrackPointExtension>
        </extensions>
      </trkpt>
      <trkpt lat="43.480669744312763214111328125" lon="1.4537205733358860015869140625">
        <ele>202.600006103515625</ele>
        <time>2026-08-05T08:46:18.000Z</time>
        <extensions>
          <ns3:TrackPointExtension>
            <ns3:hr>77</ns3:hr>
            <ns3:cad>50</ns3:cad>
          </ns3:TrackPointExtension>
        </extensions>
      </trkpt>
      <trkpt lat="43.48067435435950756072998046875" lon="1.453721411526203155517578125">
        <ele>202.399993896484375</ele>
        <time>2026-08-05T08:46:19.000Z</time>
        <extensions>
          <ns3:TrackPointExtension>
            <ns3:hr>77</ns3:hr>
            <ns3:cad>50</ns3:cad>
          </ns3:TrackPointExtension>
        </extensions>
      </trkpt>
      <trkpt lat="43.48068374209105968475341796875" lon="1.45372048951685428619384765625">
        <ele>202.399993896484375</ele>
        <time>2026-08-05T08:46:20.000Z</time>
        <extensions>
          <ns3:TrackPointExtension>
            <ns3:hr>77</ns3:hr>
            <ns3:cad>50</ns3:cad>
          </ns3:TrackPointExtension>
        </extensions>
      </trkpt>
      <trkpt lat="43.4806917048990726470947265625" lon="1.45371847786009311676025390625">
        <ele>202.399993896484375</ele>
        <time>2026-08-05T08:46:21.000Z</time>
        <extensions>
          <ns3:TrackPointExtension>
            <ns3:hr>78</ns3:hr>
            <ns3:cad>49</ns3:cad>
          </ns3:TrackPointExtension>
        </extensions>
      </trkpt>
      <trkpt lat="43.48070067353546619415283203125" lon="1.45371177233755588531494140625">
        <ele>202.399993896484375</ele>
        <time>2026-08-05T08:46:22.000Z</time>
        <extensions>
          <ns3:TrackPointExtension>
            <ns3:hr>79</ns3:hr>
            <ns3:cad>49</ns3:cad>
          </ns3:TrackPointExtension>
        </extensions>
      </trkpt>
      <trkpt lat="43.48071458749473094940185546875" lon="1.45370422862470149993896484375">
        <ele>202.1999969482421875</ele>
        <time>2026-08-05T08:46:23.000Z</time>
        <extensions>
          <ns3:TrackPointExtension>
            <ns3:hr>79</ns3:hr>
            <ns3:cad>49</ns3:cad>
          </ns3:TrackPointExtension>
        </extensions>
      </trkpt>
      <trkpt lat="43.480724729597568511962890625" lon="1.4537024684250354766845703125">
        <ele>202.1999969482421875</ele>
        <time>2026-08-05T08:46:24.000Z</time>
        <extensions>
          <ns3:TrackPointExtension>
            <ns3:hr>79</ns3:hr>
            <ns3:cad>50</ns3:cad>
          </ns3:TrackPointExtension>
        </extensions>
      </trkpt>
      <trkpt lat="43.480734117329120635986328125" lon="1.45370271988213062286376953125">
        <ele>202.1999969482421875</ele>
        <time>2026-08-05T08:46:25.000Z</time>
        <extensions>
          <ns3:TrackPointExtension>
            <ns3:hr>79</ns3:hr>
            <ns3:cad>51</ns3:cad>
          </ns3:TrackPointExtension>
        </extensions>
      </trkpt>
      <trkpt lat="43.480744846165180206298828125" lon="1.45370204932987689971923828125">
        <ele>202</ele>
        <time>2026-08-05T08:46:26.000Z</time>
        <extensions>
          <ns3:TrackPointExtension>
            <ns3:hr>80</ns3:hr>
            <ns3:cad>51</ns3:cad>
          </ns3:TrackPointExtension>
        </extensions>
      </trkpt>
      <trkpt lat="43.4807564131915569305419921875" lon="1.453697942197322845458984375">
        <ele>202</ele>
        <time>2026-08-05T08:46:27.000Z</time>
        <extensions>
          <ns3:TrackPointExtension>
            <ns3:hr>79</ns3:hr>
            <ns3:cad>50</ns3:cad>
          </ns3:TrackPointExtension>
        </extensions>
      </trkpt>
      <trkpt lat="43.480767309665679931640625" lon="1.45369132049381732940673828125">
        <ele>202</ele>
        <time>2026-08-05T08:46:28.000Z</time>
        <extensions>
          <ns3:TrackPointExtension>
            <ns3:hr>81</ns3:hr>
            <ns3:cad>50</ns3:cad>
          </ns3:TrackPointExtension>
        </extensions>
      </trkpt>
      <trkpt lat="43.48077661357820034027099609375" lon="1.45368947647511959075927734375">
        <ele>202</ele>
        <time>2026-08-05T08:46:29.000Z</time>
        <extensions>
          <ns3:TrackPointExtension>
            <ns3:hr>81</ns3:hr>
            <ns3:cad>50</ns3:cad>
          </ns3:TrackPointExtension>
        </extensions>
      </trkpt>
      <trkpt lat="43.4807865880429744720458984375" lon="1.45368729718029499053955078125">
        <ele>202</ele>
        <time>2026-08-05T08:46:30.000Z</time>
        <extensions>
          <ns3:TrackPointExtension>
            <ns3:hr>82</ns3:hr>
            <ns3:cad>50</ns3:cad>
          </ns3:TrackPointExtension>
        </extensions>
      </trkpt>
      <trkpt lat="43.480795137584209442138671875" lon="1.45368562079966068267822265625">
        <ele>201.8000030517578125</ele>
        <time>2026-08-05T08:46:31.000Z</time>
        <extensions>
          <ns3:TrackPointExtension>
            <ns3:hr>82</ns3:hr>
            <ns3:cad>50</ns3:cad>
          </ns3:TrackPointExtension>
        </extensions>
      </trkpt>
      <trkpt lat="43.48080561496317386627197265625" lon="1.4536766521632671356201171875">
        <ele>201.8000030517578125</ele>
        <time>2026-08-05T08:46:32.000Z</time>
        <extensions>
          <ns3:TrackPointExtension>
            <ns3:hr>82</ns3:hr>
            <ns3:cad>50</ns3:cad>
          </ns3:TrackPointExtension>
        </extensions>
      </trkpt>
      <trkpt lat="43.48081718198955059051513671875" lon="1.4536692760884761810302734375">
        <ele>201.8000030517578125</ele>
        <time>2026-08-05T08:46:33.000Z</time>
        <extensions>
          <ns3:TrackPointExtension>
            <ns3:hr>81</ns3:hr>
            <ns3:cad>50</ns3:cad>
          </ns3:TrackPointExtension>
        </extensions>
      </trkpt>
      <trkpt lat="43.48083361051976680755615234375" lon="1.4536608941853046417236328125">
        <ele>201.8000030517578125</ele>
        <time>2026-08-05T08:46:34.000Z</time>
        <extensions>
          <ns3:TrackPointExtension>
            <ns3:hr>80</ns3:hr>
            <ns3:cad>49</ns3:cad>
          </ns3:TrackPointExtension>
        </extensions>
      </trkpt>
      <trkpt lat="43.4808472730219364166259765625" lon="1.4536535181105136871337890625">
        <ele>201.600006103515625</ele>
        <time>2026-08-05T08:46:35.000Z</time>
        <extensions>
          <ns3:TrackPointExtension>
            <ns3:hr>78</ns3:hr>
            <ns3:cad>50</ns3:cad>
          </ns3:TrackPointExtension>
        </extensions>
      </trkpt>
      <trkpt lat="43.4808586724102497100830078125" lon="1.45364890806376934051513671875">
        <ele>201.600006103515625</ele>
        <time>2026-08-05T08:46:36.000Z</time>
        <extensions>
          <ns3:TrackPointExtension>
            <ns3:hr>77</ns3:hr>
            <ns3:cad>49</ns3:cad>
          </ns3:TrackPointExtension>
        </extensions>
      </trkpt>
      <trkpt lat="43.48086847923696041107177734375" lon="1.45364589057862758636474609375">
        <ele>201.399993896484375</ele>
        <time>2026-08-05T08:46:37.000Z</time>
        <extensions>
          <ns3:TrackPointExtension>
            <ns3:hr>76</ns3:hr>
            <ns3:cad>50</ns3:cad>
          </ns3:TrackPointExtension>
        </extensions>
      </trkpt>
      <trkpt lat="43.480880297720432281494140625" lon="1.453641615808010101318359375">
        <ele>201.399993896484375</ele>
        <time>2026-08-05T08:46:38.000Z</time>
        <extensions>
          <ns3:TrackPointExtension>
            <ns3:hr>75</ns3:hr>
            <ns3:cad>50</ns3:cad>
          </ns3:TrackPointExtension>
        </extensions>
      </trkpt>
      <trkpt lat="43.48089429549872875213623046875" lon="1.453637592494487762451171875">
        <ele>201.1999969482421875</ele>
        <time>2026-08-05T08:46:39.000Z</time>
        <extensions>
          <ns3:TrackPointExtension>
            <ns3:hr>74</ns3:hr>
            <ns3:cad>50</ns3:cad>
          </ns3:TrackPointExtension>
        </extensions>
      </trkpt>
      <trkpt lat="43.48090435378253459930419921875" lon="1.45363080315291881561279296875">
        <ele>201.1999969482421875</ele>
        <time>2026-08-05T08:46:40.000Z</time>
        <extensions>
          <ns3:TrackPointExtension>
            <ns3:hr>74</ns3:hr>
            <ns3:cad>50</ns3:cad>
          </ns3:TrackPointExtension>
        </extensions>
      </trkpt>
      <trkpt lat="43.4809163399040699005126953125" lon="1.4536270312964916229248046875">
        <ele>201.1999969482421875</ele>
        <time>2026-08-05T08:46:41.000Z</time>
        <extensions>
          <ns3:TrackPointExtension>
            <ns3:hr>74</ns3:hr>
            <ns3:cad>50</ns3:cad>
          </ns3:TrackPointExtension>
        </extensions>
      </trkpt>
      <trkpt lat="43.48092757165431976318359375" lon="1.453624181449413299560546875">
        <ele>201.1999969482421875</ele>
        <time>2026-08-05T08:46:42.000Z</time>
        <extensions>
          <ns3:TrackPointExtension>
            <ns3:hr>73</ns3:hr>
            <ns3:cad>50</ns3:cad>
          </ns3:TrackPointExtension>
        </extensions>
      </trkpt>
      <trkpt lat="43.48093804903328418731689453125" lon="1.45362108014523983001708984375">
        <ele>201.1999969482421875</ele>
        <time>2026-08-05T08:46:43.000Z</time>
        <extensions>
          <ns3:TrackPointExtension>
            <ns3:hr>72</ns3:hr>
            <ns3:cad>50</ns3:cad>
          </ns3:TrackPointExtension>
        </extensions>
      </trkpt>
      <trkpt lat="43.48094944842159748077392578125" lon="1.45361890085041522979736328125">
        <ele>201.1999969482421875</ele>
        <time>2026-08-05T08:46:44.000Z</time>
        <extensions>
          <ns3:TrackPointExtension>
            <ns3:hr>72</ns3:hr>
            <ns3:cad>50</ns3:cad>
          </ns3:TrackPointExtension>
        </extensions>
      </trkpt>
      <trkpt lat="43.4809617698192596435546875" lon="1.4536152966320514678955078125">
        <ele>201.1999969482421875</ele>
        <time>2026-08-05T08:46:45.000Z</time>
        <extensions>
          <ns3:TrackPointExtension>
            <ns3:hr>73</ns3:hr>
            <ns3:cad>50</ns3:cad>
          </ns3:TrackPointExtension>
        </extensions>
      </trkpt>
      <trkpt lat="43.48097459413111209869384765625" lon="1.45361018367111682891845703125">
        <ele>201.1999969482421875</ele>
        <time>2026-08-05T08:46:46.000Z</time>
        <extensions>
          <ns3:TrackPointExtension>
            <ns3:hr>73</ns3:hr>
            <ns3:cad>50</ns3:cad>
          </ns3:TrackPointExtension>
        </extensions>
      </trkpt>
      <trkpt lat="43.480987250804901123046875" lon="1.45360733382403850555419921875">
        <ele>201.1999969482421875</ele>
        <time>2026-08-05T08:46:47.000Z</time>
        <extensions>
          <ns3:TrackPointExtension>
            <ns3:hr>73</ns3:hr>
            <ns3:cad>50</ns3:cad>
          </ns3:TrackPointExtension>
        </extensions>
      </trkpt>
      <trkpt lat="43.4809993207454681396484375" lon="1.45359895192086696624755859375">
        <ele>201.1999969482421875</ele>
        <time>2026-08-05T08:46:48.000Z</time>
        <extensions>
          <ns3:TrackPointExtension>
            <ns3:hr>74</ns3:hr>
            <ns3:cad>50</ns3:cad>
          </ns3:TrackPointExtension>
        </extensions>
      </trkpt>
      <trkpt lat="43.48101113922894001007080078125" lon="1.45359643734991550445556640625">
        <ele>201.1999969482421875</ele>
        <time>2026-08-05T08:46:49.000Z</time>
        <extensions>
          <ns3:TrackPointExtension>
            <ns3:hr>74</ns3:hr>
            <ns3:cad>50</ns3:cad>
          </ns3:TrackPointExtension>
        </extensions>
      </trkpt>
      <trkpt lat="43.48102144896984100341796875" lon="1.45359057001769542694091796875">
        <ele>201.1999969482421875</ele>
        <time>2026-08-05T08:46:50.000Z</time>
        <extensions>
          <ns3:TrackPointExtension>
            <ns3:hr>74</ns3:hr>
            <ns3:cad>51</ns3:cad>
          </ns3:TrackPointExtension>
        </extensions>
      </trkpt>
      <trkpt lat="43.48103108815848827362060546875" lon="1.45358151756227016448974609375">
        <ele>201.1999969482421875</ele>
        <time>2026-08-05T08:46:51.000Z</time>
        <extensions>
          <ns3:TrackPointExtension>
            <ns3:hr>74</ns3:hr>
            <ns3:cad>51</ns3:cad>
          </ns3:TrackPointExtension>
        </extensions>
      </trkpt>
      <trkpt lat="43.48103930242359638214111328125" lon="1.453572213649749755859375">
        <ele>201</ele>
        <time>2026-08-05T08:46:52.000Z</time>
        <extensions>
          <ns3:TrackPointExtension>
            <ns3:hr>74</ns3:hr>
            <ns3:cad>51</ns3:cad>
          </ns3:TrackPointExtension>
        </extensions>
      </trkpt>
      <trkpt lat="43.481048606336116790771484375" lon="1.4535626582801342010498046875">
        <ele>201</ele>
        <time>2026-08-05T08:46:53.000Z</time>
        <extensions>
          <ns3:TrackPointExtension>
            <ns3:hr>74</ns3:hr>
            <ns3:cad>51</ns3:cad>
          </ns3:TrackPointExtension>
        </extensions>
      </trkpt>
      <trkpt lat="43.48105791024863719940185546875" lon="1.45355201326310634613037109375">
        <ele>201</ele>
        <time>2026-08-05T08:46:54.000Z</time>
        <extensions>
          <ns3:TrackPointExtension>
            <ns3:hr>75</ns3:hr>
            <ns3:cad>51</ns3:cad>
          </ns3:TrackPointExtension>
        </extensions>
      </trkpt>
      <trkpt lat="43.48106796853244304656982421875" lon="1.45354312844574451446533203125">
        <ele>201</ele>
        <time>2026-08-05T08:46:55.000Z</time>
        <extensions>
          <ns3:TrackPointExtension>
            <ns3:hr>75</ns3:hr>
            <ns3:cad>50</ns3:cad>
          </ns3:TrackPointExtension>
        </extensions>
      </trkpt>
      <trkpt lat="43.48107735626399517059326171875" lon="1.4535358361899852752685546875">
        <ele>201</ele>
        <time>2026-08-05T08:46:56.000Z</time>
        <extensions>
          <ns3:TrackPointExtension>
            <ns3:hr>75</ns3:hr>
            <ns3:cad>50</ns3:cad>
          </ns3:TrackPointExtension>
        </extensions>
      </trkpt>
      <trkpt lat="43.4810886718332767486572265625" lon="1.4535247720777988433837890625">
        <ele>201</ele>
        <time>2026-08-05T08:46:57.000Z</time>
        <extensions>
          <ns3:TrackPointExtension>
            <ns3:hr>75</ns3:hr>
            <ns3:cad>51</ns3:cad>
          </ns3:TrackPointExtension>
        </extensions>
      </trkpt>
      <trkpt lat="43.481098227202892303466796875" lon="1.4535091817378997802734375">
        <ele>201</ele>
        <time>2026-08-05T08:46:58.000Z</time>
        <extensions>
          <ns3:TrackPointExtension>
            <ns3:hr>75</ns3:hr>
            <ns3:cad>51</ns3:cad>
          </ns3:TrackPointExtension>
        </extensions>
      </trkpt>
      <trkpt lat="43.48110753111541271209716796875" lon="1.45349501632153987884521484375">
        <ele>200.8000030517578125</ele>
        <time>2026-08-05T08:46:59.000Z</time>
        <extensions>
          <ns3:TrackPointExtension>
            <ns3:hr>75</ns3:hr>
            <ns3:cad>51</ns3:cad>
          </ns3:TrackPointExtension>
        </extensions>
      </trkpt>
      <trkpt lat="43.4811158291995525360107421875" lon="1.45348194055259227752685546875">
        <ele>200.600006103515625</ele>
        <time>2026-08-05T08:47:00.000Z</time>
        <extensions>
          <ns3:TrackPointExtension>
            <ns3:hr>75</ns3:hr>
            <ns3:cad>51</ns3:cad>
          </ns3:TrackPointExtension>
        </extensions>
      </trkpt>
      <trkpt lat="43.4811235405504703521728515625" lon="1.4534689486026763916015625">
        <ele>200.600006103515625</ele>
        <time>2026-08-05T08:47:01.000Z</time>
        <extensions>
          <ns3:TrackPointExtension>
            <ns3:hr>75</ns3:hr>
            <ns3:cad>51</ns3:cad>
          </ns3:TrackPointExtension>
        </extensions>
      </trkpt>
      <trkpt lat="43.481132090091705322265625" lon="1.4534570463001728057861328125">
        <ele>200.600006103515625</ele>
        <time>2026-08-05T08:47:02.000Z</time>
        <extensions>
          <ns3:TrackPointExtension>
            <ns3:hr>75</ns3:hr>
            <ns3:cad>51</ns3:cad>
          </ns3:TrackPointExtension>
        </extensions>
      </trkpt>
      <trkpt lat="43.4811372868716716766357421875" lon="1.45344723947346210479736328125">
        <ele>200.399993896484375</ele>
        <time>2026-08-05T08:47:03.000Z</time>
        <extensions>
          <ns3:TrackPointExtension>
            <ns3:hr>75</ns3:hr>
            <ns3:cad>51</ns3:cad>
          </ns3:TrackPointExtension>
        </extensions>
      </trkpt>
      <trkpt lat="43.481143154203891754150390625" lon="1.45343718118965625762939453125">
        <ele>200.399993896484375</ele>
        <time>2026-08-05T08:47:04.000Z</time>
        <extensions>
          <ns3:TrackPointExtension>
            <ns3:hr>75</ns3:hr>
            <ns3:cad>52</ns3:cad>
          </ns3:TrackPointExtension>
        </extensions>
      </trkpt>
      <trkpt lat="43.481150530278682708740234375" lon="1.45342661999166011810302734375">
        <ele>200.399993896484375</ele>
        <time>2026-08-05T08:47:05.000Z</time>
        <extensions>
          <ns3:TrackPointExtension>
            <ns3:hr>75</ns3:hr>
            <ns3:cad>52</ns3:cad>
          </ns3:TrackPointExtension>
        </extensions>
      </trkpt>
      <trkpt lat="43.48115832544863224029541015625" lon="1.453413628041744232177734375">
        <ele>200.399993896484375</ele>
        <time>2026-08-05T08:47:06.000Z</time>
        <extensions>
          <ns3:TrackPointExtension>
            <ns3:hr>75</ns3:hr>
            <ns3:cad>52</ns3:cad>
          </ns3:TrackPointExtension>
        </extensions>
      </trkpt>
      <trkpt lat="43.4811644442379474639892578125" lon="1.453397534787654876708984375">
        <ele>200.399993896484375</ele>
        <time>2026-08-05T08:47:07.000Z</time>
        <extensions>
          <ns3:TrackPointExtension>
            <ns3:hr>75</ns3:hr>
            <ns3:cad>50</ns3:cad>
          </ns3:TrackPointExtension>
        </extensions>
      </trkpt>
      <trkpt lat="43.48117425106465816497802734375" lon="1.4533836208283901214599609375">
        <ele>200.399993896484375</ele>
        <time>2026-08-05T08:47:08.000Z</time>
        <extensions>
          <ns3:TrackPointExtension>
            <ns3:hr>75</ns3:hr>
            <ns3:cad>50</ns3:cad>
          </ns3:TrackPointExtension>
        </extensions>
      </trkpt>
      <trkpt lat="43.4811798669397830963134765625" lon="1.4533710479736328125">
        <ele>200.1999969482421875</ele>
        <time>2026-08-05T08:47:09.000Z</time>
        <extensions>
          <ns3:TrackPointExtension>
            <ns3:hr>75</ns3:hr>
            <ns3:cad>50</ns3:cad>
          </ns3:TrackPointExtension>
        </extensions>
      </trkpt>
      <trkpt lat="43.4811865724623203277587890625" lon="1.4533584751188755035400390625">
        <ele>200.1999969482421875</ele>
        <time>2026-08-05T08:47:10.000Z</time>
        <extensions>
          <ns3:TrackPointExtension>
            <ns3:hr>75</ns3:hr>
            <ns3:cad>50</ns3:cad>
          </ns3:TrackPointExtension>
        </extensions>
      </trkpt>
      <trkpt lat="43.48119285888969898223876953125" lon="1.45334447734057903289794921875">
        <ele>200.1999969482421875</ele>
        <time>2026-08-05T08:47:11.000Z</time>
        <extensions>
          <ns3:TrackPointExtension>
            <ns3:hr>76</ns3:hr>
            <ns3:cad>50</ns3:cad>
          </ns3:TrackPointExtension>
        </extensions>
      </trkpt>
      <trkpt lat="43.48119906149804592132568359375" lon="1.4533303119242191314697265625">
        <ele>200</ele>
        <time>2026-08-05T08:47:12.000Z</time>
        <extensions>
          <ns3:TrackPointExtension>
            <ns3:hr>76</ns3:hr>
            <ns3:cad>50</ns3:cad>
          </ns3:TrackPointExtension>
        </extensions>
      </trkpt>
      <trkpt lat="43.481206856667995452880859375" lon="1.4533148892223834991455078125">
        <ele>200</ele>
        <time>2026-08-05T08:47:13.000Z</time>
        <extensions>
          <ns3:TrackPointExtension>
            <ns3:hr>76</ns3:hr>
            <ns3:cad>50</ns3:cad>
          </ns3:TrackPointExtension>
        </extensions>
      </trkpt>
      <trkpt lat="43.481214903295040130615234375" lon="1.4532987959682941436767578125">
        <ele>200</ele>
        <time>2026-08-05T08:47:14.000Z</time>
        <extensions>
          <ns3:TrackPointExtension>
            <ns3:hr>76</ns3:hr>
            <ns3:cad>50</ns3:cad>
          </ns3:TrackPointExtension>
        </extensions>
      </trkpt>
      <trkpt lat="43.481220938265323638916015625" lon="1.45328580401837825775146484375">
        <ele>200</ele>
        <time>2026-08-05T08:47:15.000Z</time>
        <extensions>
          <ns3:TrackPointExtension>
            <ns3:hr>76</ns3:hr>
            <ns3:cad>50</ns3:cad>
          </ns3:TrackPointExtension>
        </extensions>
      </trkpt>
      <trkpt lat="43.4812268055975437164306640625" lon="1.45328144542872905731201171875">
        <ele>200</ele>
        <time>2026-08-05T08:47:16.000Z</time>
        <extensions>
          <ns3:TrackPointExtension>
            <ns3:hr>75</ns3:hr>
            <ns3:cad>50</ns3:cad>
          </ns3:TrackPointExtension>
        </extensions>
      </trkpt>
      <trkpt lat="43.481235690414905548095703125" lon="1.4532679505646228790283203125">
        <ele>200</ele>
        <time>2026-08-05T08:47:17.000Z</time>
        <extensions>
          <ns3:TrackPointExtension>
            <ns3:hr>75</ns3:hr>
            <ns3:cad>50</ns3:cad>
          </ns3:TrackPointExtension>
        </extensions>
      </trkpt>
      <trkpt lat="43.48124231211841106414794921875" lon="1.4532542042434215545654296875">
        <ele>200</ele>
        <time>2026-08-05T08:47:18.000Z</time>
        <extensions>
          <ns3:TrackPointExtension>
            <ns3:hr>75</ns3:hr>
            <ns3:cad>50</ns3:cad>
          </ns3:TrackPointExtension>
        </extensions>
      </trkpt>
      <trkpt lat="43.48124817945063114166259765625" lon="1.45323936827480792999267578125">
        <ele>200</ele>
        <time>2026-08-05T08:47:19.000Z</time>
        <extensions>
          <ns3:TrackPointExtension>
            <ns3:hr>75</ns3:hr>
            <ns3:cad>50</ns3:cad>
          </ns3:TrackPointExtension>
        </extensions>
      </trkpt>
      <trkpt lat="43.48125488497316837310791015625" lon="1.45322419703006744384765625">
        <ele>200</ele>
        <time>2026-08-05T08:47:20.000Z</time>
        <extensions>
          <ns3:TrackPointExtension>
            <ns3:hr>75</ns3:hr>
            <ns3:cad>50</ns3:cad>
          </ns3:TrackPointExtension>
        </extensions>
      </trkpt>
      <trkpt lat="43.48126259632408618927001953125" lon="1.45321556366980075836181640625">
        <ele>200</ele>
        <time>2026-08-05T08:47:21.000Z</time>
        <extensions>
          <ns3:TrackPointExtension>
            <ns3:hr>75</ns3:hr>
            <ns3:cad>50</ns3:cad>
          </ns3:TrackPointExtension>
        </extensions>
      </trkpt>
      <trkpt lat="43.4812713973224163055419921875" lon="1.45320332609117031097412109375">
        <ele>200</ele>
        <time>2026-08-05T08:47:22.000Z</time>
        <extensions>
          <ns3:TrackPointExtension>
            <ns3:hr>75</ns3:hr>
            <ns3:cad>50</ns3:cad>
          </ns3:TrackPointExtension>
        </extensions>
      </trkpt>
      <trkpt lat="43.481271900236606597900390625" lon="1.4531935192644596099853515625">
        <ele>200.1999969482421875</ele>
        <time>2026-08-05T08:47:23.000Z</time>
        <extensions>
          <ns3:TrackPointExtension>
            <ns3:hr>75</ns3:hr>
            <ns3:cad>50</ns3:cad>
          </ns3:TrackPointExtension>
        </extensions>
      </trkpt>
      <trkpt lat="43.48127734847366809844970703125" lon="1.45317901857197284698486328125">
        <ele>200</ele>
        <time>2026-08-05T08:47:24.000Z</time>
        <extensions>
          <ns3:TrackPointExtension>
            <ns3:hr>75</ns3:hr>
            <ns3:cad>50</ns3:cad>
          </ns3:TrackPointExtension>
        </extensions>
      </trkpt>
      <trkpt lat="43.48128137178719043731689453125" lon="1.45316527225077152252197265625">
        <ele>200</ele>
        <time>2026-08-05T08:47:25.000Z</time>
        <extensions>
          <ns3:TrackPointExtension>
            <ns3:hr>75</ns3:hr>
            <ns3:cad>51</ns3:cad>
          </ns3:TrackPointExtension>
        </extensions>
      </trkpt>
      <trkpt lat="43.48128690384328365325927734375" lon="1.45315169356763362884521484375">
        <ele>200</ele>
        <time>2026-08-05T08:47:26.000Z</time>
        <extensions>
          <ns3:TrackPointExtension>
            <ns3:hr>74</ns3:hr>
            <ns3:cad>52</ns3:cad>
          </ns3:TrackPointExtension>
        </extensions>
      </trkpt>
      <trkpt lat="43.48129176534712314605712890625" lon="1.45313434302806854248046875">
        <ele>199.8000030517578125</ele>
        <time>2026-08-05T08:47:27.000Z</time>
        <extensions>
          <ns3:TrackPointExtension>
            <ns3:hr>74</ns3:hr>
            <ns3:cad>52</ns3:cad>
          </ns3:TrackPointExtension>
        </extensions>
      </trkpt>
      <trkpt lat="43.481298387050628662109375" lon="1.453123278915882110595703125">
        <ele>199.600006103515625</ele>
        <time>2026-08-05T08:47:28.000Z</time>
        <extensions>
          <ns3:TrackPointExtension>
            <ns3:hr>74</ns3:hr>
            <ns3:cad>52</ns3:cad>
          </ns3:TrackPointExtension>
        </extensions>
      </trkpt>
      <trkpt lat="43.4813042543828487396240234375" lon="1.45311632193624973297119140625">
        <ele>199.600006103515625</ele>
        <time>2026-08-05T08:47:29.000Z</time>
        <extensions>
          <ns3:TrackPointExtension>
            <ns3:hr>75</ns3:hr>
            <ns3:cad>50</ns3:cad>
          </ns3:TrackPointExtension>
        </extensions>
      </trkpt>
      <trkpt lat="43.48131037317216396331787109375" lon="1.45310291089117527008056640625">
        <ele>199.600006103515625</ele>
        <time>2026-08-05T08:47:30.000Z</time>
        <extensions>
          <ns3:TrackPointExtension>
            <ns3:hr>77</ns3:hr>
            <ns3:cad>50</ns3:cad>
          </ns3:TrackPointExtension>
        </extensions>
      </trkpt>
      <trkpt lat="43.4813149832189083099365234375" lon="1.45308413542807102203369140625">
        <ele>199.600006103515625</ele>
        <time>2026-08-05T08:47:31.000Z</time>
        <extensions>
          <ns3:TrackPointExtension>
            <ns3:hr>78</ns3:hr>
            <ns3:cad>51</ns3:cad>
          </ns3:TrackPointExtension>
        </extensions>
      </trkpt>
      <trkpt lat="43.48131917417049407958984375" lon="1.45306519232690334320068359375">
        <ele>199.600006103515625</ele>
        <time>2026-08-05T08:47:32.000Z</time>
        <extensions>
          <ns3:TrackPointExtension>
            <ns3:hr>79</ns3:hr>
            <ns3:cad>51</ns3:cad>
          </ns3:TrackPointExtension>
        </extensions>
      </trkpt>
      <trkpt lat="43.48132328130304813385009765625" lon="1.4530505239963531494140625">
        <ele>199.600006103515625</ele>
        <time>2026-08-05T08:47:33.000Z</time>
        <extensions>
          <ns3:TrackPointExtension>
            <ns3:hr>79</ns3:hr>
            <ns3:cad>50</ns3:cad>
          </ns3:TrackPointExtension>
        </extensions>
      </trkpt>
      <trkpt lat="43.4813270531594753265380859375" lon="1.45303702913224697113037109375">
        <ele>199.600006103515625</ele>
        <time>2026-08-05T08:47:34.000Z</time>
        <extensions>
          <ns3:TrackPointExtension>
            <ns3:hr>79</ns3:hr>
            <ns3:cad>50</ns3:cad>
          </ns3:TrackPointExtension>
        </extensions>
      </trkpt>
      <trkpt lat="43.4813294000923633575439453125" lon="1.45302705466747283935546875">
        <ele>199.600006103515625</ele>
        <time>2026-08-05T08:47:35.000Z</time>
        <extensions>
          <ns3:TrackPointExtension>
            <ns3:hr>80</ns3:hr>
            <ns3:cad>49</ns3:cad>
          </ns3:TrackPointExtension>
        </extensions>
      </trkpt>
      <trkpt lat="43.481336273252964019775390625" lon="1.45301255397498607635498046875">
        <ele>199.600006103515625</ele>
        <time>2026-08-05T08:47:36.000Z</time>
        <extensions>
          <ns3:TrackPointExtension>
            <ns3:hr>79</ns3:hr>
            <ns3:cad>49</ns3:cad>
          </ns3:TrackPointExtension>
        </extensions>
      </trkpt>
      <trkpt lat="43.48134255968034267425537109375" lon="1.45299696363508701324462890625">
        <ele>199.600006103515625</ele>
        <time>2026-08-05T08:47:37.000Z</time>
        <extensions>
          <ns3:TrackPointExtension>
            <ns3:hr>78</ns3:hr>
            <ns3:cad>49</ns3:cad>
          </ns3:TrackPointExtension>
        </extensions>
      </trkpt>
      <trkpt lat="43.48134725354611873626708984375" lon="1.45298137329518795013427734375">
        <ele>199.600006103515625</ele>
        <time>2026-08-05T08:47:38.000Z</time>
        <extensions>
          <ns3:TrackPointExtension>
            <ns3:hr>78</ns3:hr>
            <ns3:cad>49</ns3:cad>
          </ns3:TrackPointExtension>
        </extensions>
      </trkpt>
      <trkpt lat="43.4813521988689899444580078125" lon="1.45296578295528888702392578125">
        <ele>199.600006103515625</ele>
        <time>2026-08-05T08:47:39.000Z</time>
        <extensions>
          <ns3:TrackPointExtension>
            <ns3:hr>77</ns3:hr>
            <ns3:cad>49</ns3:cad>
          </ns3:TrackPointExtension>
        </extensions>
      </trkpt>
      <trkpt lat="43.4813552163541316986083984375" lon="1.45294901914894580841064453125">
        <ele>199.600006103515625</ele>
        <time>2026-08-05T08:47:40.000Z</time>
        <extensions>
          <ns3:TrackPointExtension>
            <ns3:hr>76</ns3:hr>
            <ns3:cad>48</ns3:cad>
          </ns3:TrackPointExtension>
        </extensions>
      </trkpt>
      <trkpt lat="43.481360413134098052978515625" lon="1.452936194837093353271484375">
        <ele>199.600006103515625</ele>
        <time>2026-08-05T08:47:41.000Z</time>
        <extensions>
          <ns3:TrackPointExtension>
            <ns3:hr>75</ns3:hr>
            <ns3:cad>48</ns3:cad>
          </ns3:TrackPointExtension>
        </extensions>
      </trkpt>
      <trkpt lat="43.481367789208889007568359375" lon="1.45292244851589202880859375">
        <ele>199.600006103515625</ele>
        <time>2026-08-05T08:47:42.000Z</time>
        <extensions>
          <ns3:TrackPointExtension>
            <ns3:hr>75</ns3:hr>
            <ns3:cad>48</ns3:cad>
          </ns3:TrackPointExtension>
        </extensions>
      </trkpt>
      <trkpt lat="43.48137223161756992340087890625" lon="1.45290040411055088043212890625">
        <ele>199.399993896484375</ele>
        <time>2026-08-05T08:47:43.000Z</time>
        <extensions>
          <ns3:TrackPointExtension>
            <ns3:hr>75</ns3:hr>
            <ns3:cad>50</ns3:cad>
          </ns3:TrackPointExtension>
        </extensions>
      </trkpt>
      <trkpt lat="43.481378518044948577880859375" lon="1.452881880104541778564453125">
        <ele>199.399993896484375</ele>
        <time>2026-08-05T08:47:44.000Z</time>
        <extensions>
          <ns3:TrackPointExtension>
            <ns3:hr>75</ns3:hr>
            <ns3:cad>50</ns3:cad>
          </ns3:TrackPointExtension>
        </extensions>
      </trkpt>
      <trkpt lat="43.48138220608234405517578125" lon="1.4528629370033740997314453125">
        <ele>199.399993896484375</ele>
        <time>2026-08-05T08:47:45.000Z</time>
        <extensions>
          <ns3:TrackPointExtension>
            <ns3:hr>74</ns3:hr>
            <ns3:cad>50</ns3:cad>
          </ns3:TrackPointExtension>
        </extensions>
      </trkpt>
      <trkpt lat="43.4813850559294223785400390625" lon="1.45284692756831645965576171875">
        <ele>199.399993896484375</ele>
        <time>2026-08-05T08:47:46.000Z</time>
        <extensions>
          <ns3:TrackPointExtension>
            <ns3:hr>74</ns3:hr>
            <ns3:cad>51</ns3:cad>
          </ns3:TrackPointExtension>
        </extensions>
      </trkpt>
      <trkpt lat="43.481385223567485809326171875" lon="1.45283485762774944305419921875">
        <ele>199.399993896484375</ele>
        <time>2026-08-05T08:47:47.000Z</time>
        <extensions>
          <ns3:TrackPointExtension>
            <ns3:hr>74</ns3:hr>
            <ns3:cad>51</ns3:cad>
          </ns3:TrackPointExtension>
        </extensions>
      </trkpt>
      <trkpt lat="43.48138648085296154022216796875" lon="1.45281993784010410308837890625">
        <ele>199.399993896484375</ele>
        <time>2026-08-05T08:47:48.000Z</time>
        <extensions>
          <ns3:TrackPointExtension>
            <ns3:hr>74</ns3:hr>
            <ns3:cad>51</ns3:cad>
          </ns3:TrackPointExtension>
        </extensions>
      </trkpt>
      <trkpt lat="43.48139025270938873291015625" lon="1.45280300639569759368896484375">
        <ele>199.399993896484375</ele>
        <time>2026-08-05T08:47:49.000Z</time>
        <extensions>
          <ns3:TrackPointExtension>
            <ns3:hr>74</ns3:hr>
            <ns3:cad>51</ns3:cad>
          </ns3:TrackPointExtension>
        </extensions>
      </trkpt>
      <trkpt lat="43.48139184527099132537841796875" lon="1.4527881704270839691162109375">
        <ele>199.399993896484375</ele>
        <time>2026-08-05T08:47:50.000Z</time>
        <extensions>
          <ns3:TrackPointExtension>
            <ns3:hr>74</ns3:hr>
            <ns3:cad>51</ns3:cad>
          </ns3:TrackPointExtension>
        </extensions>
      </trkpt>
      <trkpt lat="43.48139670677483081817626953125" lon="1.4527687244117259979248046875">
        <ele>199.399993896484375</ele>
        <time>2026-08-05T08:47:51.000Z</time>
        <extensions>
          <ns3:TrackPointExtension>
            <ns3:hr>75</ns3:hr>
            <ns3:cad>52</ns3:cad>
          </ns3:TrackPointExtension>
        </extensions>
      </trkpt>
      <trkpt lat="43.48140290938317775726318359375" lon="1.45275590009987354278564453125">
        <ele>199.399993896484375</ele>
        <time>2026-08-05T08:47:52.000Z</time>
        <extensions>
          <ns3:TrackPointExtension>
            <ns3:hr>75</ns3:hr>
            <ns3:cad>52</ns3:cad>
          </ns3:TrackPointExtension>
        </extensions>
      </trkpt>
      <trkpt lat="43.48140726797282695770263671875" lon="1.45274030975997447967529296875">
        <ele>199.399993896484375</ele>
        <time>2026-08-05T08:47:53.000Z</time>
        <extensions>
          <ns3:TrackPointExtension>
            <ns3:hr>75</ns3:hr>
            <ns3:cad>51</ns3:cad>
          </ns3:TrackPointExtension>
        </extensions>
      </trkpt>
      <trkpt lat="43.48141212947666645050048828125" lon="1.452725641429424285888671875">
        <ele>199.399993896484375</ele>
        <time>2026-08-05T08:47:54.000Z</time>
        <extensions>
          <ns3:TrackPointExtension>
            <ns3:hr>76</ns3:hr>
            <ns3:cad>51</ns3:cad>
          </ns3:TrackPointExtension>
        </extensions>
      </trkpt>
      <trkpt lat="43.4814165718853473663330078125" lon="1.45271189510822296142578125">
        <ele>199.399993896484375</ele>
        <time>2026-08-05T08:47:55.000Z</time>
        <extensions>
          <ns3:TrackPointExtension>
            <ns3:hr>76</ns3:hr>
            <ns3:cad>51</ns3:cad>
          </ns3:TrackPointExtension>
        </extensions>
      </trkpt>
      <trkpt lat="43.4814205951988697052001953125" lon="1.45269454456865787506103515625">
        <ele>199.399993896484375</ele>
        <time>2026-08-05T08:47:56.000Z</time>
        <extensions>
          <ns3:TrackPointExtension>
            <ns3:hr>76</ns3:hr>
            <ns3:cad>51</ns3:cad>
          </ns3:TrackPointExtension>
        </extensions>
      </trkpt>
      <trkpt lat="43.48142445087432861328125" lon="1.45268146879971027374267578125">
        <ele>199.399993896484375</ele>
        <time>2026-08-05T08:47:57.000Z</time>
        <extensions>
          <ns3:TrackPointExtension>
            <ns3:hr>76</ns3:hr>
            <ns3:cad>51</ns3:cad>
          </ns3:TrackPointExtension>
        </extensions>
      </trkpt>
      <trkpt lat="43.48142906092107295989990234375" lon="1.45266504026949405670166015625">
        <ele>199.399993896484375</ele>
        <time>2026-08-05T08:47:58.000Z</time>
        <extensions>
          <ns3:TrackPointExtension>
            <ns3:hr>75</ns3:hr>
            <ns3:cad>50</ns3:cad>
          </ns3:TrackPointExtension>
        </extensions>
      </trkpt>
      <trkpt lat="43.4814330004155635833740234375" lon="1.452649533748626708984375">
        <ele>199.399993896484375</ele>
        <time>2026-08-05T08:47:59.000Z</time>
        <extensions>
          <ns3:TrackPointExtension>
            <ns3:hr>76</ns3:hr>
            <ns3:cad>50</ns3:cad>
          </ns3:TrackPointExtension>
        </extensions>
      </trkpt>
      <trkpt lat="43.481438867747783660888671875" lon="1.45263453014194965362548828125">
        <ele>199.1999969482421875</ele>
        <time>2026-08-05T08:48:00.000Z</time>
        <extensions>
          <ns3:TrackPointExtension>
            <ns3:hr>76</ns3:hr>
            <ns3:cad>50</ns3:cad>
          </ns3:TrackPointExtension>
        </extensions>
      </trkpt>
      <trkpt lat="43.48144113086163997650146484375" lon="1.4526225440204143524169921875">
        <ele>199.399993896484375</ele>
        <time>2026-08-05T08:48:01.000Z</time>
        <extensions>
          <ns3:TrackPointExtension>
            <ns3:hr>75</ns3:hr>
            <ns3:cad>50</ns3:cad>
          </ns3:TrackPointExtension>
        </extensions>
      </trkpt>
      <trkpt lat="43.4814437292516231536865234375" lon="1.4526057802140712738037109375">
        <ele>199.399993896484375</ele>
        <time>2026-08-05T08:48:02.000Z</time>
        <extensions>
          <ns3:TrackPointExtension>
            <ns3:hr>76</ns3:hr>
            <ns3:cad>50</ns3:cad>
          </ns3:TrackPointExtension>
        </extensions>
      </trkpt>
      <trkpt lat="43.4814480878412723541259765625" lon="1.452588178217411041259765625">
        <ele>199.1999969482421875</ele>
        <time>2026-08-05T08:48:03.000Z</time>
        <extensions>
          <ns3:TrackPointExtension>
            <ns3:hr>76</ns3:hr>
            <ns3:cad>50</ns3:cad>
          </ns3:TrackPointExtension>
        </extensions>
      </trkpt>
      <trkpt lat="43.481452278792858123779296875" lon="1.45257166586816310882568359375">
        <ele>199.1999969482421875</ele>
        <time>2026-08-05T08:48:04.000Z</time>
        <extensions>
          <ns3:TrackPointExtension>
            <ns3:hr>75</ns3:hr>
            <ns3:cad>50</ns3:cad>
          </ns3:TrackPointExtension>
        </extensions>
      </trkpt>
      <trkpt lat="43.481457643210887908935546875" lon="1.45255590789020061492919921875">
        <ele>199.1999969482421875</ele>
        <time>2026-08-05T08:48:05.000Z</time>
        <extensions>
          <ns3:TrackPointExtension>
            <ns3:hr>76</ns3:hr>
            <ns3:cad>50</ns3:cad>
          </ns3:TrackPointExtension>
        </extensions>
      </trkpt>
      <trkpt lat="43.4814638458192348480224609375" lon="1.45254316739737987518310546875">
        <ele>199</ele>
        <time>2026-08-05T08:48:06.000Z</time>
        <extensions>
          <ns3:TrackPointExtension>
            <ns3:hr>77</ns3:hr>
            <ns3:cad>50</ns3:cad>
          </ns3:TrackPointExtension>
        </extensions>
      </trkpt>
      <trkpt lat="43.48146895878016948699951171875" lon="1.45252908580005168914794921875">
        <ele>199</ele>
        <time>2026-08-05T08:48:07.000Z</time>
        <extensions>
          <ns3:TrackPointExtension>
            <ns3:hr>79</ns3:hr>
            <ns3:cad>50</ns3:cad>
          </ns3:TrackPointExtension>
        </extensions>
      </trkpt>
      <trkpt lat="43.48147197626531124114990234375" lon="1.45251248963177204132080078125">
        <ele>199</ele>
        <time>2026-08-05T08:48:08.000Z</time>
        <extensions>
          <ns3:TrackPointExtension>
            <ns3:hr>80</ns3:hr>
            <ns3:cad>50</ns3:cad>
          </ns3:TrackPointExtension>
        </extensions>
      </trkpt>
      <trkpt lat="43.48147532902657985687255859375" lon="1.45249471999704837799072265625">
        <ele>199</ele>
        <time>2026-08-05T08:48:09.000Z</time>
        <extensions>
          <ns3:TrackPointExtension>
            <ns3:hr>81</ns3:hr>
            <ns3:cad>50</ns3:cad>
          </ns3:TrackPointExtension>
        </extensions>
      </trkpt>
      <trkpt lat="43.48147834651172161102294921875" lon="1.452480889856815338134765625">
        <ele>198.8000030517578125</ele>
        <time>2026-08-05T08:48:10.000Z</time>
        <extensions>
          <ns3:TrackPointExtension>
            <ns3:hr>81</ns3:hr>
            <ns3:cad>50</ns3:cad>
          </ns3:TrackPointExtension>
        </extensions>
      </trkpt>
      <trkpt lat="43.48148270510137081146240234375" lon="1.45246420986950397491455078125">
        <ele>198.8000030517578125</ele>
        <time>2026-08-05T08:48:11.000Z</time>
        <extensions>
          <ns3:TrackPointExtension>
            <ns3:hr>80</ns3:hr>
            <ns3:cad>50</ns3:cad>
          </ns3:TrackPointExtension>
        </extensions>
      </trkpt>
      <trkpt lat="43.4814856387674808502197265625" lon="1.4524550735950469970703125">
        <ele>198.8000030517578125</ele>
        <time>2026-08-05T08:48:12.000Z</time>
        <extensions>
          <ns3:TrackPointExtension>
            <ns3:hr>80</ns3:hr>
            <ns3:cad>50</ns3:cad>
          </ns3:TrackPointExtension>
        </extensions>
      </trkpt>
      <trkpt lat="43.4814913384616374969482421875" lon="1.45244107581675052642822265625">
        <ele>198.8000030517578125</ele>
        <time>2026-08-05T08:48:13.000Z</time>
        <extensions>
          <ns3:TrackPointExtension>
            <ns3:hr>80</ns3:hr>
            <ns3:cad>50</ns3:cad>
          </ns3:TrackPointExtension>
        </extensions>
      </trkpt>
      <trkpt lat="43.48149561323225498199462890625" lon="1.45242162980139255523681640625">
        <ele>198.8000030517578125</ele>
        <time>2026-08-05T08:48:14.000Z</time>
        <extensions>
          <ns3:TrackPointExtension>
            <ns3:hr>80</ns3:hr>
            <ns3:cad>50</ns3:cad>
          </ns3:TrackPointExtension>
        </extensions>
      </trkpt>
      <trkpt lat="43.48149745725095272064208984375" lon="1.452410481870174407958984375">
        <ele>198.600006103515625</ele>
        <time>2026-08-05T08:48:15.000Z</time>
        <extensions>
          <ns3:TrackPointExtension>
            <ns3:hr>80</ns3:hr>
            <ns3:cad>50</ns3:cad>
          </ns3:TrackPointExtension>
        </extensions>
      </trkpt>
      <trkpt lat="43.48150081001222133636474609375" lon="1.45239631645381450653076171875">
        <ele>198.600006103515625</ele>
        <time>2026-08-05T08:48:16.000Z</time>
        <extensions>
          <ns3:TrackPointExtension>
            <ns3:hr>79</ns3:hr>
            <ns3:cad>49</ns3:cad>
          </ns3:TrackPointExtension>
        </extensions>
      </trkpt>
      <trkpt lat="43.4815067611634731292724609375" lon="1.4523868449032306671142578125">
        <ele>198.8000030517578125</ele>
        <time>2026-08-05T08:48:17.000Z</time>
        <extensions>
          <ns3:TrackPointExtension>
            <ns3:hr>78</ns3:hr>
            <ns3:cad>49</ns3:cad>
          </ns3:TrackPointExtension>
        </extensions>
      </trkpt>
      <trkpt lat="43.48151070065796375274658203125" lon="1.4523751102387905120849609375">
        <ele>198.8000030517578125</ele>
        <time>2026-08-05T08:48:18.000Z</time>
        <extensions>
          <ns3:TrackPointExtension>
            <ns3:hr>77</ns3:hr>
            <ns3:cad>49</ns3:cad>
          </ns3:TrackPointExtension>
        </extensions>
      </trkpt>
      <trkpt lat="43.48151539452373981475830078125" lon="1.45236412994563579559326171875">
        <ele>198.8000030517578125</ele>
        <time>2026-08-05T08:48:19.000Z</time>
        <extensions>
          <ns3:TrackPointExtension>
            <ns3:hr>77</ns3:hr>
            <ns3:cad>49</ns3:cad>
          </ns3:TrackPointExtension>
        </extensions>
      </trkpt>
      <trkpt lat="43.4815223515033721923828125" lon="1.452350132167339324951171875">
        <ele>198.8000030517578125</ele>
        <time>2026-08-05T08:48:20.000Z</time>
        <extensions>
          <ns3:TrackPointExtension>
            <ns3:hr>77</ns3:hr>
            <ns3:cad>48</ns3:cad>
          </ns3:TrackPointExtension>
        </extensions>
      </trkpt>
      <trkpt lat="43.48152595572173595428466796875" lon="1.4523375593125820159912109375">
        <ele>199</ele>
        <time>2026-08-05T08:48:21.000Z</time>
        <extensions>
          <ns3:TrackPointExtension>
            <ns3:hr>76</ns3:hr>
            <ns3:cad>48</ns3:cad>
          </ns3:TrackPointExtension>
        </extensions>
      </trkpt>
      <trkpt lat="43.4815278835594654083251953125" lon="1.452319957315921783447265625">
        <ele>199</ele>
        <time>2026-08-05T08:48:22.000Z</time>
        <extensions>
          <ns3:TrackPointExtension>
            <ns3:hr>76</ns3:hr>
            <ns3:cad>48</ns3:cad>
          </ns3:TrackPointExtension>
        </extensions>
      </trkpt>
      <trkpt lat="43.481530733406543731689453125" lon="1.45230847410857677459716796875">
        <ele>199</ele>
        <time>2026-08-05T08:48:23.000Z</time>
        <extensions>
          <ns3:TrackPointExtension>
            <ns3:hr>76</ns3:hr>
            <ns3:cad>48</ns3:cad>
          </ns3:TrackPointExtension>
        </extensions>
      </trkpt>
      <trkpt lat="43.48153601400554180145263671875" lon="1.45230059511959552764892578125">
        <ele>199</ele>
        <time>2026-08-05T08:48:24.000Z</time>
        <extensions>
          <ns3:TrackPointExtension>
            <ns3:hr>76</ns3:hr>
            <ns3:cad>44</ns3:cad>
          </ns3:TrackPointExtension>
        </extensions>
      </trkpt>
      <trkpt lat="43.48153551109135150909423828125" lon="1.45228902809321880340576171875">
        <ele>199</ele>
        <time>2026-08-05T08:48:25.000Z</time>
        <extensions>
          <ns3:TrackPointExtension>
            <ns3:hr>76</ns3:hr>
            <ns3:cad>44</ns3:cad>
          </ns3:TrackPointExtension>
        </extensions>
      </trkpt>
      <trkpt lat="43.48153936676681041717529296875" lon="1.45227293483912944793701171875">
        <ele>199</ele>
        <time>2026-08-05T08:48:26.000Z</time>
        <extensions>
          <ns3:TrackPointExtension>
            <ns3:hr>76</ns3:hr>
            <ns3:cad>44</ns3:cad>
          </ns3:TrackPointExtension>
        </extensions>
      </trkpt>
      <trkpt lat="43.4815449826419353485107421875" lon="1.4522580988705158233642578125">
        <ele>199.1999969482421875</ele>
        <time>2026-08-05T08:48:27.000Z</time>
        <extensions>
          <ns3:TrackPointExtension>
            <ns3:hr>76</ns3:hr>
            <ns3:cad>45</ns3:cad>
          </ns3:TrackPointExtension>
        </extensions>
      </trkpt>
      <trkpt lat="43.481552191078662872314453125" lon="1.45224653184413909912109375">
        <ele>199.1999969482421875</ele>
        <time>2026-08-05T08:48:28.000Z</time>
        <extensions>
          <ns3:TrackPointExtension>
            <ns3:hr>76</ns3:hr>
            <ns3:cad>45</ns3:cad>
          </ns3:TrackPointExtension>
        </extensions>
      </trkpt>
      <trkpt lat="43.48155696876347064971923828125" lon="1.45223848521709442138671875">
        <ele>199.1999969482421875</ele>
        <time>2026-08-05T08:48:29.000Z</time>
        <extensions>
          <ns3:TrackPointExtension>
            <ns3:hr>77</ns3:hr>
            <ns3:cad>45</ns3:cad>
          </ns3:TrackPointExtension>
        </extensions>
      </trkpt>
      <trkpt lat="43.4815627522766590118408203125" lon="1.4522252418100833892822265625">
        <ele>199.1999969482421875</ele>
        <time>2026-08-05T08:48:30.000Z</time>
        <extensions>
          <ns3:TrackPointExtension>
            <ns3:hr>78</ns3:hr>
            <ns3:cad>45</ns3:cad>
          </ns3:TrackPointExtension>
        </extensions>
      </trkpt>
      <trkpt lat="43.48156903870403766632080078125" lon="1.45220722071826457977294921875">
        <ele>199.1999969482421875</ele>
        <time>2026-08-05T08:48:31.000Z</time>
        <extensions>
          <ns3:TrackPointExtension>
            <ns3:hr>79</ns3:hr>
            <ns3:cad>47</ns3:cad>
          </ns3:TrackPointExtension>
        </extensions>
      </trkpt>
      <trkpt lat="43.48157205618917942047119140625" lon="1.45219833590090274810791015625">
        <ele>199.1999969482421875</ele>
        <time>2026-08-05T08:48:32.000Z</time>
        <extensions>
          <ns3:TrackPointExtension>
            <ns3:hr>79</ns3:hr>
            <ns3:cad>47</ns3:cad>
          </ns3:TrackPointExtension>
        </extensions>
      </trkpt>
      <trkpt lat="43.48157524131238460540771484375" lon="1.4521886967122554779052734375">
        <ele>199.1999969482421875</ele>
        <time>2026-08-05T08:48:33.000Z</time>
        <extensions>
          <ns3:TrackPointExtension>
            <ns3:hr>80</ns3:hr>
            <ns3:cad>47</ns3:cad>
          </ns3:TrackPointExtension>
        </extensions>
      </trkpt>
      <trkpt lat="43.4815786778926849365234375" lon="1.45217855460941791534423828125">
        <ele>199.1999969482421875</ele>
        <time>2026-08-05T08:48:34.000Z</time>
        <extensions>
          <ns3:TrackPointExtension>
            <ns3:hr>80</ns3:hr>
            <ns3:cad>47</ns3:cad>
          </ns3:TrackPointExtension>
        </extensions>
      </trkpt>
      <trkpt lat="43.481586389243602752685546875" lon="1.45216112025082111358642578125">
        <ele>199.1999969482421875</ele>
        <time>2026-08-05T08:48:35.000Z</time>
        <extensions>
          <ns3:TrackPointExtension>
            <ns3:hr>80</ns3:hr>
            <ns3:cad>47</ns3:cad>
          </ns3:TrackPointExtension>
        </extensions>
      </trkpt>
      <trkpt lat="43.48159418441355228424072265625" lon="1.45214754156768321990966796875">
        <ele>199.1999969482421875</ele>
        <time>2026-08-05T08:48:36.000Z</time>
        <extensions>
          <ns3:TrackPointExtension>
            <ns3:hr>79</ns3:hr>
            <ns3:cad>46</ns3:cad>
          </ns3:TrackPointExtension>
        </extensions>
      </trkpt>
      <trkpt lat="43.481601141393184661865234375" lon="1.4521372318267822265625">
        <ele>199.1999969482421875</ele>
        <time>2026-08-05T08:48:37.000Z</time>
        <extensions>
          <ns3:TrackPointExtension>
            <ns3:hr>80</ns3:hr>
            <ns3:cad>46</ns3:cad>
          </ns3:TrackPointExtension>
        </extensions>
      </trkpt>
      <trkpt lat="43.48160407505929470062255859375" lon="1.4521296881139278411865234375">
        <ele>199.1999969482421875</ele>
        <time>2026-08-05T08:48:38.000Z</time>
        <extensions>
          <ns3:TrackPointExtension>
            <ns3:hr>80</ns3:hr>
            <ns3:cad>46</ns3:cad>
          </ns3:TrackPointExtension>
        </extensions>
      </trkpt>
      <trkpt lat="43.48160826601088047027587890625" lon="1.45211108028888702392578125">
        <ele>199.1999969482421875</ele>
        <time>2026-08-05T08:48:39.000Z</time>
        <extensions>
          <ns3:TrackPointExtension>
            <ns3:hr>80</ns3:hr>
            <ns3:cad>46</ns3:cad>
          </ns3:TrackPointExtension>
        </extensions>
      </trkpt>
      <trkpt lat="43.481611870229244232177734375" lon="1.45209557376801967620849609375">
        <ele>199.1999969482421875</ele>
        <time>2026-08-05T08:48:40.000Z</time>
        <extensions>
          <ns3:TrackPointExtension>
            <ns3:hr>79</ns3:hr>
            <ns3:cad>47</ns3:cad>
          </ns3:TrackPointExtension>
        </extensions>
      </trkpt>
      <trkpt lat="43.48161824047565460205078125" lon="1.4520849287509918212890625">
        <ele>199.1999969482421875</ele>
        <time>2026-08-05T08:48:41.000Z</time>
        <extensions>
          <ns3:TrackPointExtension>
            <ns3:hr>79</ns3:hr>
            <ns3:cad>47</ns3:cad>
          </ns3:TrackPointExtension>
        </extensions>
      </trkpt>
      <trkpt lat="43.481621928513050079345703125" lon="1.452074535191059112548828125">
        <ele>199.399993896484375</ele>
        <time>2026-08-05T08:48:42.000Z</time>
        <extensions>
          <ns3:TrackPointExtension>
            <ns3:hr>79</ns3:hr>
            <ns3:cad>47</ns3:cad>
          </ns3:TrackPointExtension>
        </extensions>
      </trkpt>
      <trkpt lat="43.48162762820720672607421875" lon="1.45206011831760406494140625">
        <ele>199.399993896484375</ele>
        <time>2026-08-05T08:48:43.000Z</time>
        <extensions>
          <ns3:TrackPointExtension>
            <ns3:hr>78</ns3:hr>
            <ns3:cad>47</ns3:cad>
          </ns3:TrackPointExtension>
        </extensions>
      </trkpt>
      <trkpt lat="43.48163424991071224212646484375" lon="1.45204964093863964080810546875">
        <ele>199.399993896484375</ele>
        <time>2026-08-05T08:48:44.000Z</time>
        <extensions>
          <ns3:TrackPointExtension>
            <ns3:hr>78</ns3:hr>
            <ns3:cad>47</ns3:cad>
          </ns3:TrackPointExtension>
        </extensions>
      </trkpt>
      <trkpt lat="43.4816415421664714813232421875" lon="1.452044360339641571044921875">
        <ele>199.399993896484375</ele>
        <time>2026-08-05T08:48:45.000Z</time>
        <extensions>
          <ns3:TrackPointExtension>
            <ns3:hr>78</ns3:hr>
            <ns3:cad>46</ns3:cad>
          </ns3:TrackPointExtension>
        </extensions>
      </trkpt>
      <trkpt lat="43.4816415421664714813232421875" lon="1.4520408399403095245361328125">
        <ele>199.399993896484375</ele>
        <time>2026-08-05T08:48:46.000Z</time>
        <extensions>
          <ns3:TrackPointExtension>
            <ns3:hr>78</ns3:hr>
            <ns3:cad>46</ns3:cad>
          </ns3:TrackPointExtension>
        </extensions>
      </trkpt>
      <trkpt lat="43.48165118135511875152587890625" lon="1.45203103311359882354736328125">
        <ele>199.399993896484375</ele>
        <time>2026-08-05T08:48:47.000Z</time>
        <extensions>
          <ns3:TrackPointExtension>
            <ns3:hr>79</ns3:hr>
            <ns3:cad>46</ns3:cad>
          </ns3:TrackPointExtension>
        </extensions>
      </trkpt>
      <trkpt lat="43.48165713250637054443359375" lon="1.452018208801746368408203125">
        <ele>199.399993896484375</ele>
        <time>2026-08-05T08:48:48.000Z</time>
        <extensions>
          <ns3:TrackPointExtension>
            <ns3:hr>80</ns3:hr>
            <ns3:cad>45</ns3:cad>
          </ns3:TrackPointExtension>
        </extensions>
      </trkpt>
      <trkpt lat="43.4816640056669712066650390625" lon="1.45201041363179683685302734375">
        <ele>199.399993896484375</ele>
        <time>2026-08-05T08:48:49.000Z</time>
        <extensions>
          <ns3:TrackPointExtension>
            <ns3:hr>80</ns3:hr>
            <ns3:cad>44</ns3:cad>
          </ns3:TrackPointExtension>
        </extensions>
      </trkpt>
      <trkpt lat="43.4816700406372547149658203125" lon="1.4520009420812129974365234375">
        <ele>199.399993896484375</ele>
        <time>2026-08-05T08:48:50.000Z</time>
        <extensions>
          <ns3:TrackPointExtension>
            <ns3:hr>80</ns3:hr>
            <ns3:cad>43</ns3:cad>
          </ns3:TrackPointExtension>
        </extensions>
      </trkpt>
      <trkpt lat="43.4816747345030307769775390625" lon="1.4519888721406459808349609375">
        <ele>199.399993896484375</ele>
        <time>2026-08-05T08:48:51.000Z</time>
        <extensions>
          <ns3:TrackPointExtension>
            <ns3:hr>80</ns3:hr>
            <ns3:cad>43</ns3:cad>
          </ns3:TrackPointExtension>
        </extensions>
      </trkpt>
      <trkpt lat="43.48167917691171169281005859375" lon="1.4519835077226161956787109375">
        <ele>199.399993896484375</ele>
        <time>2026-08-05T08:48:52.000Z</time>
        <extensions>
          <ns3:TrackPointExtension>
            <ns3:hr>80</ns3:hr>
            <ns3:cad>43</ns3:cad>
          </ns3:TrackPointExtension>
        </extensions>
      </trkpt>
      <trkpt lat="43.4816868044435977935791015625" lon="1.45197671838104724884033203125">
        <ele>199.399993896484375</ele>
        <time>2026-08-05T08:48:53.000Z</time>
        <extensions>
          <ns3:TrackPointExtension>
            <ns3:hr>80</ns3:hr>
            <ns3:cad>42</ns3:cad>
          </ns3:TrackPointExtension>
        </extensions>
      </trkpt>
      <trkpt lat="43.4816874749958515167236328125" lon="1.451967917382717132568359375">
        <ele>199.399993896484375</ele>
        <time>2026-08-05T08:48:54.000Z</time>
        <extensions>
          <ns3:TrackPointExtension>
            <ns3:hr>80</ns3:hr>
            <ns3:cad>42</ns3:cad>
          </ns3:TrackPointExtension>
        </extensions>
      </trkpt>
      <trkpt lat="43.481686972081661224365234375" lon="1.45196364261209964752197265625">
        <ele>199.600006103515625</ele>
        <time>2026-08-05T08:48:55.000Z</time>
        <extensions>
          <ns3:TrackPointExtension>
            <ns3:hr>79</ns3:hr>
            <ns3:cad>41</ns3:cad>
          </ns3:TrackPointExtension>
        </extensions>
      </trkpt>
      <trkpt lat="43.4816874749958515167236328125" lon="1.451950483024120330810546875">
        <ele>199.600006103515625</ele>
        <time>2026-08-05T08:48:56.000Z</time>
        <extensions>
          <ns3:TrackPointExtension>
            <ns3:hr>79</ns3:hr>
            <ns3:cad>41</ns3:cad>
          </ns3:TrackPointExtension>
        </extensions>
      </trkpt>
      <trkpt lat="43.48168454132974147796630859375" lon="1.451947800815105438232421875">
        <ele>199.600006103515625</ele>
        <time>2026-08-05T08:48:57.000Z</time>
        <extensions>
          <ns3:TrackPointExtension>
            <ns3:hr>79</ns3:hr>
            <ns3:cad>78</ns3:cad>
          </ns3:TrackPointExtension>
        </extensions>
      </trkpt>
      <trkpt lat="43.48167934454977512359619140625" lon="1.4519432745873928070068359375">
        <ele>199.600006103515625</ele>
        <time>2026-08-05T08:48:58.000Z</time>
        <extensions>
          <ns3:TrackPointExtension>
            <ns3:hr>79</ns3:hr>
            <ns3:cad>78</ns3:cad>
          </ns3:TrackPointExtension>
        </extensions>
      </trkpt>
      <trkpt lat="43.48167750053107738494873046875" lon="1.4519345574080944061279296875">
        <ele>199.600006103515625</ele>
        <time>2026-08-05T08:48:59.000Z</time>
        <extensions>
          <ns3:TrackPointExtension>
            <ns3:hr>78</ns3:hr>
            <ns3:cad>0</ns3:cad>
          </ns3:TrackPointExtension>
        </extensions>
      </trkpt>
      <trkpt lat="43.481678254902362823486328125" lon="1.4519295282661914825439453125">
        <ele>199.600006103515625</ele>
        <time>2026-08-05T08:49:00.000Z</time>
        <extensions>
          <ns3:TrackPointExtension>
            <ns3:hr>78</ns3:hr>
            <ns3:cad>0</ns3:cad>
          </ns3:TrackPointExtension>
        </extensions>
      </trkpt>
      <trkpt lat="43.48168152384459972381591796875" lon="1.451930701732635498046875">
        <ele>199.8000030517578125</ele>
        <time>2026-08-05T08:49:01.000Z</time>
        <extensions>
          <ns3:TrackPointExtension>
            <ns3:hr>79</ns3:hr>
            <ns3:cad>0</ns3:cad>
          </ns3:TrackPointExtension>
        </extensions>
      </trkpt>
      <trkpt lat="43.48168194293975830078125" lon="1.45193078555166721343994140625">
        <ele>199.8000030517578125</ele>
        <time>2026-08-05T08:49:02.000Z</time>
        <extensions>
          <ns3:TrackPointExtension>
            <ns3:hr>79</ns3:hr>
            <ns3:cad>0</ns3:cad>
          </ns3:TrackPointExtension>
        </extensions>
      </trkpt>
      <trkpt lat="43.48168185912072658538818359375" lon="1.45193078555166721343994140625">
        <ele>200</ele>
        <time>2026-08-05T08:49:03.000Z</time>
        <extensions>
          <ns3:TrackPointExtension>
            <ns3:hr>80</ns3:hr>
            <ns3:cad>0</ns3:cad>
          </ns3:TrackPointExtension>
        </extensions>
      </trkpt>
      <trkpt lat="43.48168185912072658538818359375" lon="1.45193078555166721343994140625">
        <ele>200</ele>
        <time>2026-08-05T08:49:04.000Z</time>
        <extensions>
          <ns3:TrackPointExtension>
            <ns3:hr>80</ns3:hr>
            <ns3:cad>0</ns3:cad>
          </ns3:TrackPointExtension>
        </extensions>
      </trkpt>
      <trkpt lat="43.48168185912072658538818359375" lon="1.45193078555166721343994140625">
        <ele>200</ele>
        <time>2026-08-05T08:49:05.000Z</time>
        <extensions>
          <ns3:TrackPointExtension>
            <ns3:hr>81</ns3:hr>
            <ns3:cad>0</ns3:cad>
          </ns3:TrackPointExtension>
        </extensions>
      </trkpt>
      <trkpt lat="43.48168185912072658538818359375" lon="1.45193078555166721343994140625">
        <ele>200.1999969482421875</ele>
        <time>2026-08-05T08:49:06.000Z</time>
        <extensions>
          <ns3:TrackPointExtension>
            <ns3:hr>81</ns3:hr>
            <ns3:cad>0</ns3:cad>
          </ns3:TrackPointExtension>
        </extensions>
      </trkpt>
      <trkpt lat="43.48168185912072658538818359375" lon="1.45193078555166721343994140625">
        <ele>200.1999969482421875</ele>
        <time>2026-08-05T08:49:07.000Z</time>
        <extensions>
          <ns3:TrackPointExtension>
            <ns3:hr>81</ns3:hr>
            <ns3:cad>0</ns3:cad>
          </ns3:TrackPointExtension>
        </extensions>
      </trkpt>
      <trkpt lat="43.48168135620653629302978515625" lon="1.45193095318973064422607421875">
        <ele>200</ele>
        <time>2026-08-05T08:49:08.000Z</time>
        <extensions>
          <ns3:TrackPointExtension>
            <ns3:hr>81</ns3:hr>
            <ns3:cad>0</ns3:cad>
          </ns3:TrackPointExtension>
        </extensions>
      </trkpt>
      <trkpt lat="43.4816888161003589630126953125" lon="1.4519234932959079742431640625">
        <ele>200</ele>
        <time>2026-08-05T08:49:09.000Z</time>
        <extensions>
          <ns3:TrackPointExtension>
            <ns3:hr>81</ns3:hr>
            <ns3:cad>0</ns3:cad>
          </ns3:TrackPointExtension>
        </extensions>
      </trkpt>
      <trkpt lat="43.48168185912072658538818359375" lon="1.45193078555166721343994140625">
        <ele>200</ele>
        <time>2026-08-05T08:49:10.000Z</time>
        <extensions>
          <ns3:TrackPointExtension>
            <ns3:hr>81</ns3:hr>
            <ns3:cad>0</ns3:cad>
          </ns3:TrackPointExtension>
        </extensions>
      </trkpt>
      <trkpt lat="43.48168185912072658538818359375" lon="1.45193078555166721343994140625">
        <ele>200</ele>
        <time>2026-08-05T08:49:11.000Z</time>
        <extensions>
          <ns3:TrackPointExtension>
            <ns3:hr>81</ns3:hr>
            <ns3:cad>0</ns3:cad>
          </ns3:TrackPointExtension>
        </extensions>
      </trkpt>
      <trkpt lat="43.481689654290676116943359375" lon="1.4519186317920684814453125">
        <ele>199.8000030517578125</ele>
        <time>2026-08-05T08:49:12.000Z</time>
        <extensions>
          <ns3:TrackPointExtension>
            <ns3:hr>80</ns3:hr>
            <ns3:cad>0</ns3:cad>
          </ns3:TrackPointExtension>
        </extensions>
      </trkpt>
      <trkpt lat="43.481685630977153778076171875" lon="1.45192240364849567413330078125">
        <ele>199.8000030517578125</ele>
        <time>2026-08-05T08:49:13.000Z</time>
        <extensions>
          <ns3:TrackPointExtension>
            <ns3:hr>77</ns3:hr>
            <ns3:cad>0</ns3:cad>
          </ns3:TrackPointExtension>
        </extensions>
      </trkpt>
      <trkpt lat="43.481679596006870269775390625" lon="1.4519177936017513275146484375">
        <ele>199.8000030517578125</ele>
        <time>2026-08-05T08:49:14.000Z</time>
        <extensions>
          <ns3:TrackPointExtension>
            <ns3:hr>76</ns3:hr>
            <ns3:cad>0</ns3:cad>
          </ns3:TrackPointExtension>
        </extensions>
      </trkpt>
      <trkpt lat="43.481673561036586761474609375" lon="1.451909579336643218994140625">
        <ele>199.8000030517578125</ele>
        <time>2026-08-05T08:49:15.000Z</time>
        <extensions>
          <ns3:TrackPointExtension>
            <ns3:hr>75</ns3:hr>
            <ns3:cad>0</ns3:cad>
          </ns3:TrackPointExtension>
        </extensions>
      </trkpt>
      <trkpt lat="43.48167121410369873046875" lon="1.45190396346151828765869140625">
        <ele>199.8000030517578125</ele>
        <time>2026-08-05T08:49:16.000Z</time>
        <extensions>
          <ns3:TrackPointExtension>
            <ns3:hr>75</ns3:hr>
            <ns3:cad>0</ns3:cad>
          </ns3:TrackPointExtension>
        </extensions>
      </trkpt>
      <trkpt lat="43.48166610114276409149169921875" lon="1.45189893431961536407470703125">
        <ele>199.8000030517578125</ele>
        <time>2026-08-05T08:49:17.000Z</time>
        <extensions>
          <ns3:TrackPointExtension>
            <ns3:hr>75</ns3:hr>
            <ns3:cad>0</ns3:cad>
          </ns3:TrackPointExtension>
        </extensions>
      </trkpt>
      <trkpt lat="43.48166224546730518341064453125" lon="1.4518929831683635711669921875">
        <ele>199.600006103515625</ele>
        <time>2026-08-05T08:49:18.000Z</time>
        <extensions>
          <ns3:TrackPointExtension>
            <ns3:hr>74</ns3:hr>
            <ns3:cad>0</ns3:cad>
          </ns3:TrackPointExtension>
        </extensions>
      </trkpt>
      <trkpt lat="43.48166325129568576812744140625" lon="1.45188451744616031646728515625">
        <ele>199.600006103515625</ele>
        <time>2026-08-05T08:49:19.000Z</time>
        <extensions>
          <ns3:TrackPointExtension>
            <ns3:hr>74</ns3:hr>
            <ns3:cad>0</ns3:cad>
          </ns3:TrackPointExtension>
        </extensions>
      </trkpt>
      <trkpt lat="43.48166274838149547576904296875" lon="1.451878063380718231201171875">
        <ele>199.600006103515625</ele>
        <time>2026-08-05T08:49:20.000Z</time>
        <extensions>
          <ns3:TrackPointExtension>
            <ns3:hr>74</ns3:hr>
            <ns3:cad>0</ns3:cad>
          </ns3:TrackPointExtension>
        </extensions>
      </trkpt>
      <trkpt lat="43.48166392184793949127197265625" lon="1.45188468508422374725341796875">
        <ele>199.600006103515625</ele>
        <time>2026-08-05T08:49:21.000Z</time>
        <extensions>
          <ns3:TrackPointExtension>
            <ns3:hr>74</ns3:hr>
            <ns3:cad>0</ns3:cad>
          </ns3:TrackPointExtension>
        </extensions>
      </trkpt>
      <trkpt lat="43.48166383802890777587890625" lon="1.451884768903255462646484375">
        <ele>199.600006103515625</ele>
        <time>2026-08-05T08:49:22.000Z</time>
        <extensions>
          <ns3:TrackPointExtension>
            <ns3:hr>73</ns3:hr>
            <ns3:cad>0</ns3:cad>
          </ns3:TrackPointExtension>
        </extensions>
      </trkpt>
      <trkpt lat="43.48166383802890777587890625" lon="1.451884768903255462646484375">
        <ele>199.600006103515625</ele>
        <time>2026-08-05T08:49:23.000Z</time>
        <extensions>
          <ns3:TrackPointExtension>
            <ns3:hr>73</ns3:hr>
            <ns3:cad>0</ns3:cad>
          </ns3:TrackPointExtension>
        </extensions>
      </trkpt>
      <trkpt lat="43.48166383802890777587890625" lon="1.451884768903255462646484375">
        <ele>199.600006103515625</ele>
        <time>2026-08-05T08:49:24.000Z</time>
        <extensions>
          <ns3:TrackPointExtension>
            <ns3:hr>72</ns3:hr>
            <ns3:cad>0</ns3:cad>
          </ns3:TrackPointExtension>
        </extensions>
      </trkpt>
      <trkpt lat="43.48166383802890777587890625" lon="1.451884768903255462646484375">
        <ele>199.8000030517578125</ele>
        <time>2026-08-05T08:49:25.000Z</time>
        <extensions>
          <ns3:TrackPointExtension>
            <ns3:hr>71</ns3:hr>
            <ns3:cad>0</ns3:cad>
          </ns3:TrackPointExtension>
        </extensions>
      </trkpt>
      <trkpt lat="43.481663502752780914306640625" lon="1.45188518799841403961181640625">
        <ele>199.8000030517578125</ele>
        <time>2026-08-05T08:49:26.000Z</time>
        <extensions>
          <ns3:TrackPointExtension>
            <ns3:hr>71</ns3:hr>
            <ns3:cad>0</ns3:cad>
          </ns3:TrackPointExtension>
        </extensions>
      </trkpt>
      <trkpt lat="43.48166308365762233734130859375" lon="1.4518829248845577239990234375">
        <ele>199.8000030517578125</ele>
        <time>2026-08-05T08:49:27.000Z</time>
        <extensions>
          <ns3:TrackPointExtension>
            <ns3:hr>71</ns3:hr>
            <ns3:cad>0</ns3:cad>
          </ns3:TrackPointExtension>
        </extensions>
      </trkpt>
      <trkpt lat="43.4816656820476055145263671875" lon="1.45187848247587680816650390625">
        <ele>199.8000030517578125</ele>
        <time>2026-08-05T08:49:28.000Z</time>
        <extensions>
          <ns3:TrackPointExtension>
            <ns3:hr>71</ns3:hr>
            <ns3:cad>0</ns3:cad>
          </ns3:TrackPointExtension>
        </extensions>
      </trkpt>
      <trkpt lat="43.48166777752339839935302734375" lon="1.45187311805784702301025390625">
        <ele>199.600006103515625</ele>
        <time>2026-08-05T08:49:29.000Z</time>
        <extensions>
          <ns3:TrackPointExtension>
            <ns3:hr>70</ns3:hr>
            <ns3:cad>0</ns3:cad>
          </ns3:TrackPointExtension>
        </extensions>
      </trkpt>
      <trkpt lat="43.4816676937043666839599609375" lon="1.4518708549439907073974609375">
        <ele>199.600006103515625</ele>
        <time>2026-08-05T08:49:30.000Z</time>
        <extensions>
          <ns3:TrackPointExtension>
            <ns3:hr>70</ns3:hr>
            <ns3:cad>0</ns3:cad>
          </ns3:TrackPointExtension>
        </extensions>
      </trkpt>
      <trkpt lat="43.48166786134243011474609375" lon="1.4518678374588489532470703125">
        <ele>199.600006103515625</ele>
        <time>2026-08-05T08:49:31.000Z</time>
        <extensions>
          <ns3:TrackPointExtension>
            <ns3:hr>69</ns3:hr>
            <ns3:cad>0</ns3:cad>
          </ns3:TrackPointExtension>
        </extensions>
      </trkpt>
      <trkpt lat="43.48166610114276409149169921875" lon="1.4518664963543415069580078125">
        <ele>199.8000030517578125</ele>
        <time>2026-08-05T08:49:32.000Z</time>
        <extensions>
          <ns3:TrackPointExtension>
            <ns3:hr>69</ns3:hr>
            <ns3:cad>0</ns3:cad>
          </ns3:TrackPointExtension>
        </extensions>
      </trkpt>
      <trkpt lat="43.48166543059051036834716796875" lon="1.45186305977404117584228515625">
        <ele>199.8000030517578125</ele>
        <time>2026-08-05T08:49:33.000Z</time>
        <extensions>
          <ns3:TrackPointExtension>
            <ns3:hr>69</ns3:hr>
            <ns3:cad>0</ns3:cad>
          </ns3:TrackPointExtension>
        </extensions>
      </trkpt>
      <trkpt lat="43.48166442476212978363037109375" lon="1.4518634788691997528076171875">
        <ele>199.8000030517578125</ele>
        <time>2026-08-05T08:49:34.000Z</time>
        <extensions>
          <ns3:TrackPointExtension>
            <ns3:hr>69</ns3:hr>
            <ns3:cad>0</ns3:cad>
          </ns3:TrackPointExtension>
        </extensions>
      </trkpt>
      <trkpt lat="43.4816650114953517913818359375" lon="1.4518618024885654449462890625">
        <ele>199.8000030517578125</ele>
        <time>2026-08-05T08:49:35.000Z</time>
        <extensions>
          <ns3:TrackPointExtension>
            <ns3:hr>69</ns3:hr>
            <ns3:cad>0</ns3:cad>
          </ns3:TrackPointExtension>
        </extensions>
      </trkpt>
      <trkpt lat="43.481665514409542083740234375" lon="1.45186037756502628326416015625">
        <ele>199.8000030517578125</ele>
        <time>2026-08-05T08:49:36.000Z</time>
        <extensions>
          <ns3:TrackPointExtension>
            <ns3:hr>68</ns3:hr>
            <ns3:cad>0</ns3:cad>
          </ns3:TrackPointExtension>
        </extensions>
      </trkpt>
      <trkpt lat="43.48166358657181262969970703125" lon="1.451861299574375152587890625">
        <ele>199.8000030517578125</ele>
        <time>2026-08-05T08:49:37.000Z</time>
        <extensions>
          <ns3:TrackPointExtension>
            <ns3:hr>68</ns3:hr>
            <ns3:cad>0</ns3:cad>
          </ns3:TrackPointExtension>
        </extensions>
      </trkpt>
      <trkpt lat="43.4816626645624637603759765625" lon="1.45186373032629489898681640625">
        <ele>199.8000030517578125</ele>
        <time>2026-08-05T08:49:38.000Z</time>
        <extensions>
          <ns3:TrackPointExtension>
            <ns3:hr>68</ns3:hr>
            <ns3:cad>0</ns3:cad>
          </ns3:TrackPointExtension>
        </extensions>
      </trkpt>
      <trkpt lat="43.48166174255311489105224609375" lon="1.4518623054027557373046875">
        <ele>199.8000030517578125</ele>
        <time>2026-08-05T08:49:39.000Z</time>
        <extensions>
          <ns3:TrackPointExtension>
            <ns3:hr>69</ns3:hr>
            <ns3:cad>0</ns3:cad>
          </ns3:TrackPointExtension>
        </extensions>
      </trkpt>
      <trkpt lat="43.4816613234579563140869140625" lon="1.451861970126628875732421875">
        <ele>199.600006103515625</ele>
        <time>2026-08-05T08:49:40.000Z</time>
        <extensions>
          <ns3:TrackPointExtension>
            <ns3:hr>69</ns3:hr>
            <ns3:cad>0</ns3:cad>
          </ns3:TrackPointExtension>
        </extensions>
      </trkpt>
      <trkpt lat="43.48165939562022686004638671875" lon="1.4518638141453266143798828125">
        <ele>199.8000030517578125</ele>
        <time>2026-08-05T08:49:41.000Z</time>
        <extensions>
          <ns3:TrackPointExtension>
            <ns3:hr>70</ns3:hr>
            <ns3:cad>0</ns3:cad>
          </ns3:TrackPointExtension>
        </extensions>
      </trkpt>
      <trkpt lat="43.4816573001444339752197265625" lon="1.4518668316304683685302734375">
        <ele>199.8000030517578125</ele>
        <time>2026-08-05T08:49:42.000Z</time>
        <extensions>
          <ns3:TrackPointExtension>
            <ns3:hr>70</ns3:hr>
            <ns3:cad>0</ns3:cad>
          </ns3:TrackPointExtension>
        </extensions>
      </trkpt>
      <trkpt lat="43.481656126677989959716796875" lon="1.4518678374588489532470703125">
        <ele>199.8000030517578125</ele>
        <time>2026-08-05T08:49:43.000Z</time>
        <extensions>
          <ns3:TrackPointExtension>
            <ns3:hr>70</ns3:hr>
            <ns3:cad>0</ns3:cad>
          </ns3:TrackPointExtension>
        </extensions>
      </trkpt>
      <trkpt lat="43.48165688104927539825439453125" lon="1.4518668316304683685302734375">
        <ele>199.8000030517578125</ele>
        <time>2026-08-05T08:49:44.000Z</time>
        <extensions>
          <ns3:TrackPointExtension>
            <ns3:hr>70</ns3:hr>
            <ns3:cad>0</ns3:cad>
          </ns3:TrackPointExtension>
        </extensions>
      </trkpt>
      <trkpt lat="43.4816569648683071136474609375" lon="1.45186607725918292999267578125">
        <ele>199.8000030517578125</ele>
        <time>2026-08-05T08:49:45.000Z</time>
        <extensions>
          <ns3:TrackPointExtension>
            <ns3:hr>69</ns3:hr>
            <ns3:cad>0</ns3:cad>
          </ns3:TrackPointExtension>
        </extensions>
      </trkpt>
      <trkpt lat="43.48165587522089481353759765625" lon="1.45186658017337322235107421875">
        <ele>199.8000030517578125</ele>
        <time>2026-08-05T08:49:46.000Z</time>
        <extensions>
          <ns3:TrackPointExtension>
            <ns3:hr>68</ns3:hr>
            <ns3:cad>0</ns3:cad>
          </ns3:TrackPointExtension>
        </extensions>
      </trkpt>
      <trkpt lat="43.48165654577314853668212890625" lon="1.45186624489724636077880859375">
        <ele>199.8000030517578125</ele>
        <time>2026-08-05T08:49:47.000Z</time>
        <extensions>
          <ns3:TrackPointExtension>
            <ns3:hr>67</ns3:hr>
            <ns3:cad>0</ns3:cad>
          </ns3:TrackPointExtension>
        </extensions>
      </trkpt>
      <trkpt lat="43.4816559590399265289306640625" lon="1.4518675021827220916748046875">
        <ele>199.8000030517578125</ele>
        <time>2026-08-05T08:49:48.000Z</time>
        <extensions>
          <ns3:TrackPointExtension>
            <ns3:hr>64</ns3:hr>
            <ns3:cad>0</ns3:cad>
          </ns3:TrackPointExtension>
        </extensions>
      </trkpt>
      <trkpt lat="43.48165654577314853668212890625" lon="1.45186725072562694549560546875">
        <ele>199.8000030517578125</ele>
        <time>2026-08-05T08:49:49.000Z</time>
        <extensions>
          <ns3:TrackPointExtension>
            <ns3:hr>63</ns3:hr>
            <ns3:cad>0</ns3:cad>
          </ns3:TrackPointExtension>
        </extensions>
      </trkpt>
      <trkpt lat="43.48165587522089481353759765625" lon="1.45186842419207096099853515625">
        <ele>199.8000030517578125</ele>
        <time>2026-08-05T08:49:50.000Z</time>
        <extensions>
          <ns3:TrackPointExtension>
            <ns3:hr>62</ns3:hr>
            <ns3:cad>0</ns3:cad>
          </ns3:TrackPointExtension>
        </extensions>
      </trkpt>
      <trkpt lat="43.4816566295921802520751953125" lon="1.451868675649166107177734375">
        <ele>199.8000030517578125</ele>
        <time>2026-08-05T08:49:51.000Z</time>
        <extensions>
          <ns3:TrackPointExtension>
            <ns3:hr>62</ns3:hr>
            <ns3:cad>0</ns3:cad>
          </ns3:TrackPointExtension>
        </extensions>
      </trkpt>
      <trkpt lat="43.48165855742990970611572265625" lon="1.4518691785633563995361328125">
        <ele>199.8000030517578125</ele>
        <time>2026-08-05T08:49:52.000Z</time>
        <extensions>
          <ns3:TrackPointExtension>
            <ns3:hr>63</ns3:hr>
            <ns3:cad>0</ns3:cad>
          </ns3:TrackPointExtension>
        </extensions>
      </trkpt>
      <trkpt lat="43.4816613234579563140869140625" lon="1.451871693134307861328125">
        <ele>199.8000030517578125</ele>
        <time>2026-08-05T08:49:53.000Z</time>
        <extensions>
          <ns3:TrackPointExtension>
            <ns3:hr>64</ns3:hr>
            <ns3:cad>0</ns3:cad>
          </ns3:TrackPointExtension>
        </extensions>
      </trkpt>
      <trkpt lat="43.48166392184793949127197265625" lon="1.4518678374588489532470703125">
        <ele>199.8000030517578125</ele>
        <time>2026-08-05T08:49:54.000Z</time>
        <extensions>
          <ns3:TrackPointExtension>
            <ns3:hr>65</ns3:hr>
            <ns3:cad>0</ns3:cad>
          </ns3:TrackPointExtension>
        </extensions>
      </trkpt>
      <trkpt lat="43.48166652023792266845703125" lon="1.451870016753673553466796875">
        <ele>199.8000030517578125</ele>
        <time>2026-08-05T08:49:55.000Z</time>
        <extensions>
          <ns3:TrackPointExtension>
            <ns3:hr>65</ns3:hr>
            <ns3:cad>0</ns3:cad>
          </ns3:TrackPointExtension>
        </extensions>
      </trkpt>
      <trkpt lat="43.48166107200086116790771484375" lon="1.45186708308756351470947265625">
        <ele>199.8000030517578125</ele>
        <time>2026-08-05T08:49:56.000Z</time>
        <extensions>
          <ns3:TrackPointExtension>
            <ns3:hr>65</ns3:hr>
            <ns3:cad>0</ns3:cad>
          </ns3:TrackPointExtension>
        </extensions>
      </trkpt>
      <trkpt lat="43.48166191019117832183837890625" lon="1.4518705196678638458251953125">
        <ele>199.8000030517578125</ele>
        <time>2026-08-05T08:49:57.000Z</time>
        <extensions>
          <ns3:TrackPointExtension>
            <ns3:hr>65</ns3:hr>
            <ns3:cad>0</ns3:cad>
          </ns3:TrackPointExtension>
        </extensions>
      </trkpt>
      <trkpt lat="43.481662832200527191162109375" lon="1.45187144167721271514892578125">
        <ele>199.8000030517578125</ele>
        <time>2026-08-05T08:49:58.000Z</time>
        <extensions>
          <ns3:TrackPointExtension>
            <ns3:hr>66</ns3:hr>
            <ns3:cad>0</ns3:cad>
          </ns3:TrackPointExtension>
        </extensions>
      </trkpt>
      <trkpt lat="43.48166375420987606048583984375" lon="1.45187043584883213043212890625">
        <ele>199.8000030517578125</ele>
        <time>2026-08-05T08:49:59.000Z</time>
        <extensions>
          <ns3:TrackPointExtension>
            <ns3:hr>66</ns3:hr>
            <ns3:cad>0</ns3:cad>
          </ns3:TrackPointExtension>
        </extensions>
      </trkpt>
      <trkpt lat="43.48166341893374919891357421875" lon="1.45187211222946643829345703125">
        <ele>199.8000030517578125</ele>
        <time>2026-08-05T08:50:00.000Z</time>
        <extensions>
          <ns3:TrackPointExtension>
            <ns3:hr>66</ns3:hr>
            <ns3:cad>0</ns3:cad>
          </ns3:TrackPointExtension>
        </extensions>
      </trkpt>
      <trkpt lat="43.48166559822857379913330078125" lon="1.4518721960484981536865234375">
        <ele>199.8000030517578125</ele>
        <time>2026-08-05T08:50:01.000Z</time>
        <extensions>
          <ns3:TrackPointExtension>
            <ns3:hr>66</ns3:hr>
            <ns3:cad>0</ns3:cad>
          </ns3:TrackPointExtension>
        </extensions>
      </trkpt>
      <trkpt lat="43.48166677169501781463623046875" lon="1.45187395624816417694091796875">
        <ele>199.8000030517578125</ele>
        <time>2026-08-05T08:50:02.000Z</time>
        <extensions>
          <ns3:TrackPointExtension>
            <ns3:hr>66</ns3:hr>
            <ns3:cad>0</ns3:cad>
          </ns3:TrackPointExtension>
        </extensions>
      </trkpt>
      <trkpt lat="43.48166383802890777587890625" lon="1.451884768903255462646484375">
        <ele>199.8000030517578125</ele>
        <time>2026-08-05T08:50:03.000Z</time>
        <extensions>
          <ns3:TrackPointExtension>
            <ns3:hr>66</ns3:hr>
            <ns3:cad>0</ns3:cad>
          </ns3:TrackPointExtension>
        </extensions>
      </trkpt>
      <trkpt lat="43.48166383802890777587890625" lon="1.451884768903255462646484375">
        <ele>199.8000030517578125</ele>
        <time>2026-08-05T08:50:04.000Z</time>
        <extensions>
          <ns3:TrackPointExtension>
            <ns3:hr>66</ns3:hr>
            <ns3:cad>0</ns3:cad>
          </ns3:TrackPointExtension>
        </extensions>
      </trkpt>
      <trkpt lat="43.48166383802890777587890625" lon="1.451884768903255462646484375">
        <ele>199.600006103515625</ele>
        <time>2026-08-05T08:50:05.000Z</time>
        <extensions>
          <ns3:TrackPointExtension>
            <ns3:hr>66</ns3:hr>
            <ns3:cad>0</ns3:cad>
          </ns3:TrackPointExtension>
        </extensions>
      </trkpt>
      <trkpt lat="43.48167163319885730743408203125" lon="1.451869346201419830322265625">
        <ele>199.600006103515625</ele>
        <time>2026-08-05T08:50:06.000Z</time>
        <extensions>
          <ns3:TrackPointExtension>
            <ns3:hr>65</ns3:hr>
            <ns3:cad>0</ns3:cad>
          </ns3:TrackPointExtension>
        </extensions>
      </trkpt>
      <trkpt lat="43.4816737286746501922607421875" lon="1.45186792127788066864013671875">
        <ele>199.600006103515625</ele>
        <time>2026-08-05T08:50:07.000Z</time>
        <extensions>
          <ns3:TrackPointExtension>
            <ns3:hr>65</ns3:hr>
            <ns3:cad>0</ns3:cad>
          </ns3:TrackPointExtension>
        </extensions>
      </trkpt>
      <trkpt lat="43.4816737286746501922607421875" lon="1.45186792127788066864013671875">
        <ele>199.600006103515625</ele>
        <time>2026-08-05T08:50:08.000Z</time>
        <extensions>
          <ns3:TrackPointExtension>
            <ns3:hr>66</ns3:hr>
            <ns3:cad>0</ns3:cad>
          </ns3:TrackPointExtension>
        </extensions>
      </trkpt>
      <trkpt lat="43.4816737286746501922607421875" lon="1.45186792127788066864013671875">
        <ele>199.600006103515625</ele>
        <time>2026-08-05T08:50:09.000Z</time>
        <extensions>
          <ns3:TrackPointExtension>
            <ns3:hr>66</ns3:hr>
            <ns3:cad>0</ns3:cad>
          </ns3:TrackPointExtension>
        </extensions>
      </trkpt>
      <trkpt lat="43.4816737286746501922607421875" lon="1.45186792127788066864013671875">
        <ele>199.600006103515625</ele>
        <time>2026-08-05T08:50:10.000Z</time>
        <extensions>
          <ns3:TrackPointExtension>
            <ns3:hr>66</ns3:hr>
            <ns3:cad>0</ns3:cad>
          </ns3:TrackPointExtension>
        </extensions>
      </trkpt>
      <trkpt lat="43.4816737286746501922607421875" lon="1.45186792127788066864013671875">
        <ele>199.600006103515625</ele>
        <time>2026-08-05T08:50:11.000Z</time>
        <extensions>
          <ns3:TrackPointExtension>
            <ns3:hr>67</ns3:hr>
            <ns3:cad>0</ns3:cad>
          </ns3:TrackPointExtension>
        </extensions>
      </trkpt>
      <trkpt lat="43.4816737286746501922607421875" lon="1.45186792127788066864013671875">
        <ele>199.600006103515625</ele>
        <time>2026-08-05T08:50:12.000Z</time>
        <extensions>
          <ns3:TrackPointExtension>
            <ns3:hr>67</ns3:hr>
            <ns3:cad>0</ns3:cad>
          </ns3:TrackPointExtension>
        </extensions>
      </trkpt>
      <trkpt lat="43.4816737286746501922607421875" lon="1.45186792127788066864013671875">
        <ele>199.8000030517578125</ele>
        <time>2026-08-05T08:50:13.000Z</time>
        <extensions>
          <ns3:TrackPointExtension>
            <ns3:hr>66</ns3:hr>
            <ns3:cad>0</ns3:cad>
          </ns3:TrackPointExtension>
        </extensions>
      </trkpt>
      <trkpt lat="43.4816737286746501922607421875" lon="1.45186792127788066864013671875">
        <ele>199.8000030517578125</ele>
        <time>2026-08-05T08:50:14.000Z</time>
        <extensions>
          <ns3:TrackPointExtension>
            <ns3:hr>66</ns3:hr>
            <ns3:cad>0</ns3:cad>
          </ns3:TrackPointExtension>
        </extensions>
      </trkpt>
      <trkpt lat="43.4816737286746501922607421875" lon="1.45186792127788066864013671875">
        <ele>199.8000030517578125</ele>
        <time>2026-08-05T08:50:15.000Z</time>
        <extensions>
          <ns3:TrackPointExtension>
            <ns3:hr>66</ns3:hr>
            <ns3:cad>0</ns3:cad>
          </ns3:TrackPointExtension>
        </extensions>
      </trkpt>
      <trkpt lat="43.4816737286746501922607421875" lon="1.45186792127788066864013671875">
        <ele>199.8000030517578125</ele>
        <time>2026-08-05T08:50:16.000Z</time>
        <extensions>
          <ns3:TrackPointExtension>
            <ns3:hr>64</ns3:hr>
            <ns3:cad>0</ns3:cad>
          </ns3:TrackPointExtension>
        </extensions>
      </trkpt>
      <trkpt lat="43.4816737286746501922607421875" lon="1.45186792127788066864013671875">
        <ele>199.8000030517578125</ele>
        <time>2026-08-05T08:50:17.000Z</time>
        <extensions>
          <ns3:TrackPointExtension>
            <ns3:hr>60</ns3:hr>
            <ns3:cad>0</ns3:cad>
          </ns3:TrackPointExtension>
        </extensions>
      </trkpt>
      <trkpt lat="43.4816737286746501922607421875" lon="1.45186792127788066864013671875">
        <ele>199.8000030517578125</ele>
        <time>2026-08-05T08:50:18.000Z</time>
        <extensions>
          <ns3:TrackPointExtension>
            <ns3:hr>59</ns3:hr>
            <ns3:cad>0</ns3:cad>
          </ns3:TrackPointExtension>
        </extensions>
      </trkpt>
      <trkpt lat="43.4816737286746501922607421875" lon="1.45186725072562694549560546875">
        <ele>199.8000030517578125</ele>
        <time>2026-08-05T08:50:19.000Z</time>
        <extensions>
          <ns3:TrackPointExtension>
            <ns3:hr>59</ns3:hr>
            <ns3:cad>0</ns3:cad>
          </ns3:TrackPointExtension>
        </extensions>
      </trkpt>
      <trkpt lat="43.4816710464656352996826171875" lon="1.451870016753673553466796875">
        <ele>199.8000030517578125</ele>
        <time>2026-08-05T08:50:20.000Z</time>
        <extensions>
          <ns3:TrackPointExtension>
            <ns3:hr>58</ns3:hr>
            <ns3:cad>0</ns3:cad>
          </ns3:TrackPointExtension>
        </extensions>
      </trkpt>
      <trkpt lat="43.4816767461597919464111328125" lon="1.451868675649166107177734375">
        <ele>199.8000030517578125</ele>
        <time>2026-08-05T08:50:21.000Z</time>
        <extensions>
          <ns3:TrackPointExtension>
            <ns3:hr>57</ns3:hr>
            <ns3:cad>0</ns3:cad>
          </ns3:TrackPointExtension>
        </extensions>
      </trkpt>
      <trkpt lat="43.4816737286746501922607421875" lon="1.45186792127788066864013671875">
        <ele>199.8000030517578125</ele>
        <time>2026-08-05T08:50:22.000Z</time>
        <extensions>
          <ns3:TrackPointExtension>
            <ns3:hr>57</ns3:hr>
            <ns3:cad>0</ns3:cad>
          </ns3:TrackPointExtension>
        </extensions>
      </trkpt>
      <trkpt lat="43.4816737286746501922607421875" lon="1.45186792127788066864013671875">
        <ele>199.8000030517578125</ele>
        <time>2026-08-05T08:50:23.000Z</time>
        <extensions>
          <ns3:TrackPointExtension>
            <ns3:hr>57</ns3:hr>
            <ns3:cad>0</ns3:cad>
          </ns3:TrackPointExtension>
        </extensions>
      </trkpt>
      <trkpt lat="43.4816737286746501922607421875" lon="1.45186792127788066864013671875">
        <ele>199.8000030517578125</ele>
        <time>2026-08-05T08:50:24.000Z</time>
        <extensions>
          <ns3:TrackPointExtension>
            <ns3:hr>57</ns3:hr>
            <ns3:cad>0</ns3:cad>
          </ns3:TrackPointExtension>
        </extensions>
      </trkpt>
      <trkpt lat="43.4816737286746501922607421875" lon="1.45186792127788066864013671875">
        <ele>199.8000030517578125</ele>
        <time>2026-08-05T08:50:25.000Z</time>
        <extensions>
          <ns3:TrackPointExtension>
            <ns3:hr>57</ns3:hr>
            <ns3:cad>0</ns3:cad>
          </ns3:TrackPointExtension>
        </extensions>
      </trkpt>
      <trkpt lat="43.4816737286746501922607421875" lon="1.45186792127788066864013671875">
        <ele>199.8000030517578125</ele>
        <time>2026-08-05T08:50:26.000Z</time>
        <extensions>
          <ns3:TrackPointExtension>
            <ns3:hr>57</ns3:hr>
            <ns3:cad>0</ns3:cad>
          </ns3:TrackPointExtension>
        </extensions>
      </trkpt>
      <trkpt lat="43.4816737286746501922607421875" lon="1.45186792127788066864013671875">
        <ele>199.8000030517578125</ele>
        <time>2026-08-05T08:50:27.000Z</time>
        <extensions>
          <ns3:TrackPointExtension>
            <ns3:hr>58</ns3:hr>
            <ns3:cad>0</ns3:cad>
          </ns3:TrackPointExtension>
        </extensions>
      </trkpt>
      <trkpt lat="43.4816737286746501922607421875" lon="1.45186792127788066864013671875">
        <ele>199.8000030517578125</ele>
        <time>2026-08-05T08:50:28.000Z</time>
        <extensions>
          <ns3:TrackPointExtension>
            <ns3:hr>58</ns3:hr>
            <ns3:cad>0</ns3:cad>
          </ns3:TrackPointExtension>
        </extensions>
      </trkpt>
      <trkpt lat="43.4816737286746501922607421875" lon="1.45186792127788066864013671875">
        <ele>199.8000030517578125</ele>
        <time>2026-08-05T08:50:29.000Z</time>
        <extensions>
          <ns3:TrackPointExtension>
            <ns3:hr>58</ns3:hr>
            <ns3:cad>0</ns3:cad>
          </ns3:TrackPointExtension>
        </extensions>
      </trkpt>
      <trkpt lat="43.4816737286746501922607421875" lon="1.45186792127788066864013671875">
        <ele>199.8000030517578125</ele>
        <time>2026-08-05T08:50:30.000Z</time>
        <extensions>
          <ns3:TrackPointExtension>
            <ns3:hr>58</ns3:hr>
            <ns3:cad>0</ns3:cad>
          </ns3:TrackPointExtension>
        </extensions>
      </trkpt>
      <trkpt lat="43.4816737286746501922607421875" lon="1.45186792127788066864013671875">
        <ele>199.8000030517578125</ele>
        <time>2026-08-05T08:50:31.000Z</time>
        <extensions>
          <ns3:TrackPointExtension>
            <ns3:hr>59</ns3:hr>
            <ns3:cad>0</ns3:cad>
          </ns3:TrackPointExtension>
        </extensions>
      </trkpt>
      <trkpt lat="43.4816737286746501922607421875" lon="1.45186792127788066864013671875">
        <ele>199.8000030517578125</ele>
        <time>2026-08-05T08:50:32.000Z</time>
        <extensions>
          <ns3:TrackPointExtension>
            <ns3:hr>59</ns3:hr>
            <ns3:cad>0</ns3:cad>
          </ns3:TrackPointExtension>
        </extensions>
      </trkpt>
      <trkpt lat="43.4816737286746501922607421875" lon="1.45186792127788066864013671875">
        <ele>199.8000030517578125</ele>
        <time>2026-08-05T08:50:33.000Z</time>
        <extensions>
          <ns3:TrackPointExtension>
            <ns3:hr>59</ns3:hr>
            <ns3:cad>0</ns3:cad>
          </ns3:TrackPointExtension>
        </extensions>
      </trkpt>
      <trkpt lat="43.4816737286746501922607421875" lon="1.45186792127788066864013671875">
        <ele>199.8000030517578125</ele>
        <time>2026-08-05T08:50:34.000Z</time>
        <extensions>
          <ns3:TrackPointExtension>
            <ns3:hr>59</ns3:hr>
            <ns3:cad>0</ns3:cad>
          </ns3:TrackPointExtension>
        </extensions>
      </trkpt>
      <trkpt lat="43.4816737286746501922607421875" lon="1.45186792127788066864013671875">
        <ele>199.8000030517578125</ele>
        <time>2026-08-05T08:50:35.000Z</time>
        <extensions>
          <ns3:TrackPointExtension>
            <ns3:hr>58</ns3:hr>
            <ns3:cad>0</ns3:cad>
          </ns3:TrackPointExtension>
        </extensions>
      </trkpt>
      <trkpt lat="43.4816737286746501922607421875" lon="1.45186792127788066864013671875">
        <ele>199.8000030517578125</ele>
        <time>2026-08-05T08:50:36.000Z</time>
        <extensions>
          <ns3:TrackPointExtension>
            <ns3:hr>58</ns3:hr>
            <ns3:cad>0</ns3:cad>
          </ns3:TrackPointExtension>
        </extensions>
      </trkpt>
      <trkpt lat="43.4816737286746501922607421875" lon="1.45186792127788066864013671875">
        <ele>199.8000030517578125</ele>
        <time>2026-08-05T08:50:37.000Z</time>
        <extensions>
          <ns3:TrackPointExtension>
            <ns3:hr>58</ns3:hr>
            <ns3:cad>0</ns3:cad>
          </ns3:TrackPointExtension>
        </extensions>
      </trkpt>
      <trkpt lat="43.4816737286746501922607421875" lon="1.45186792127788066864013671875">
        <ele>199.8000030517578125</ele>
        <time>2026-08-05T08:50:38.000Z</time>
        <extensions>
          <ns3:TrackPointExtension>
            <ns3:hr>56</ns3:hr>
            <ns3:cad>0</ns3:cad>
          </ns3:TrackPointExtension>
        </extensions>
      </trkpt>
      <trkpt lat="43.4816737286746501922607421875" lon="1.45186792127788066864013671875">
        <ele>199.8000030517578125</ele>
        <time>2026-08-05T08:50:39.000Z</time>
        <extensions>
          <ns3:TrackPointExtension>
            <ns3:hr>57</ns3:hr>
            <ns3:cad>0</ns3:cad>
          </ns3:TrackPointExtension>
        </extensions>
      </trkpt>
      <trkpt lat="43.4816737286746501922607421875" lon="1.45186792127788066864013671875">
        <ele>199.8000030517578125</ele>
        <time>2026-08-05T08:50:40.000Z</time>
        <extensions>
          <ns3:TrackPointExtension>
            <ns3:hr>58</ns3:hr>
            <ns3:cad>0</ns3:cad>
          </ns3:TrackPointExtension>
        </extensions>
      </trkpt>
      <trkpt lat="43.4816737286746501922607421875" lon="1.45186792127788066864013671875">
        <ele>199.8000030517578125</ele>
        <time>2026-08-05T08:50:41.000Z</time>
        <extensions>
          <ns3:TrackPointExtension>
            <ns3:hr>59</ns3:hr>
            <ns3:cad>0</ns3:cad>
          </ns3:TrackPointExtension>
        </extensions>
      </trkpt>
      <trkpt lat="43.4816730581223964691162109375" lon="1.4518715254962444305419921875">
        <ele>199.8000030517578125</ele>
        <time>2026-08-05T08:50:42.000Z</time>
        <extensions>
          <ns3:TrackPointExtension>
            <ns3:hr>61</ns3:hr>
            <ns3:cad>0</ns3:cad>
          </ns3:TrackPointExtension>
        </extensions>
      </trkpt>
      <trkpt lat="43.48167113028466701507568359375" lon="1.45187797956168651580810546875">
        <ele>199.8000030517578125</ele>
        <time>2026-08-05T08:50:43.000Z</time>
        <extensions>
          <ns3:TrackPointExtension>
            <ns3:hr>63</ns3:hr>
            <ns3:cad>0</ns3:cad>
          </ns3:TrackPointExtension>
        </extensions>
      </trkpt>
      <trkpt lat="43.48166945390403270721435546875" lon="1.45187462680041790008544921875">
        <ele>199.600006103515625</ele>
        <time>2026-08-05T08:50:44.000Z</time>
        <extensions>
          <ns3:TrackPointExtension>
            <ns3:hr>64</ns3:hr>
            <ns3:cad>0</ns3:cad>
          </ns3:TrackPointExtension>
        </extensions>
      </trkpt>
      <trkpt lat="43.48166224546730518341064453125" lon="1.4518735371530055999755859375">
        <ele>199.399993896484375</ele>
        <time>2026-08-05T08:50:45.000Z</time>
        <extensions>
          <ns3:TrackPointExtension>
            <ns3:hr>65</ns3:hr>
            <ns3:cad>0</ns3:cad>
          </ns3:TrackPointExtension>
        </extensions>
      </trkpt>
      <trkpt lat="43.4816566295921802520751953125" lon="1.45187110640108585357666015625">
        <ele>199.399993896484375</ele>
        <time>2026-08-05T08:50:46.000Z</time>
        <extensions>
          <ns3:TrackPointExtension>
            <ns3:hr>65</ns3:hr>
            <ns3:cad>0</ns3:cad>
          </ns3:TrackPointExtension>
        </extensions>
      </trkpt>
      <trkpt lat="43.48165336064994335174560546875" lon="1.4518691785633563995361328125">
        <ele>199.399993896484375</ele>
        <time>2026-08-05T08:50:47.000Z</time>
        <extensions>
          <ns3:TrackPointExtension>
            <ns3:hr>65</ns3:hr>
            <ns3:cad>0</ns3:cad>
          </ns3:TrackPointExtension>
        </extensions>
      </trkpt>
      <trkpt lat="43.48165369592607021331787109375" lon="1.4518676698207855224609375">
        <ele>199.399993896484375</ele>
        <time>2026-08-05T08:50:48.000Z</time>
        <extensions>
          <ns3:TrackPointExtension>
            <ns3:hr>65</ns3:hr>
            <ns3:cad>0</ns3:cad>
          </ns3:TrackPointExtension>
        </extensions>
      </trkpt>
      <trkpt lat="43.48165352828800678253173828125" lon="1.4518651552498340606689453125">
        <ele>199.399993896484375</ele>
        <time>2026-08-05T08:50:49.000Z</time>
        <extensions>
          <ns3:TrackPointExtension>
            <ns3:hr>65</ns3:hr>
            <ns3:cad>0</ns3:cad>
          </ns3:TrackPointExtension>
        </extensions>
      </trkpt>
      <trkpt lat="43.48165352828800678253173828125" lon="1.45186523906886577606201171875">
        <ele>199.399993896484375</ele>
        <time>2026-08-05T08:50:50.000Z</time>
        <extensions>
          <ns3:TrackPointExtension>
            <ns3:hr>64</ns3:hr>
            <ns3:cad>0</ns3:cad>
          </ns3:TrackPointExtension>
        </extensions>
      </trkpt>
      <trkpt lat="43.48165352828800678253173828125" lon="1.45186523906886577606201171875">
        <ele>199.399993896484375</ele>
        <time>2026-08-05T08:50:51.000Z</time>
        <extensions>
          <ns3:TrackPointExtension>
            <ns3:hr>64</ns3:hr>
            <ns3:cad>0</ns3:cad>
          </ns3:TrackPointExtension>
        </extensions>
      </trkpt>
      <trkpt lat="43.48165352828800678253173828125" lon="1.45186523906886577606201171875">
        <ele>199.399993896484375</ele>
        <time>2026-08-05T08:50:52.000Z</time>
        <extensions>
          <ns3:TrackPointExtension>
            <ns3:hr>64</ns3:hr>
            <ns3:cad>0</ns3:cad>
          </ns3:TrackPointExtension>
        </extensions>
      </trkpt>
      <trkpt lat="43.48165352828800678253173828125" lon="1.45186523906886577606201171875">
        <ele>199.399993896484375</ele>
        <time>2026-08-05T08:50:53.000Z</time>
        <extensions>
          <ns3:TrackPointExtension>
            <ns3:hr>65</ns3:hr>
            <ns3:cad>0</ns3:cad>
          </ns3:TrackPointExtension>
        </extensions>
      </trkpt>
      <trkpt lat="43.48165352828800678253173828125" lon="1.45186523906886577606201171875">
        <ele>199.399993896484375</ele>
        <time>2026-08-05T08:50:54.000Z</time>
        <extensions>
          <ns3:TrackPointExtension>
            <ns3:hr>65</ns3:hr>
            <ns3:cad>0</ns3:cad>
          </ns3:TrackPointExtension>
        </extensions>
      </trkpt>
      <trkpt lat="43.48165352828800678253173828125" lon="1.45186523906886577606201171875">
        <ele>199.399993896484375</ele>
        <time>2026-08-05T08:50:55.000Z</time>
        <extensions>
          <ns3:TrackPointExtension>
            <ns3:hr>65</ns3:hr>
            <ns3:cad>0</ns3:cad>
          </ns3:TrackPointExtension>
        </extensions>
      </trkpt>
      <trkpt lat="43.48165352828800678253173828125" lon="1.45186523906886577606201171875">
        <ele>199.399993896484375</ele>
        <time>2026-08-05T08:50:56.000Z</time>
        <extensions>
          <ns3:TrackPointExtension>
            <ns3:hr>65</ns3:hr>
            <ns3:cad>0</ns3:cad>
          </ns3:TrackPointExtension>
        </extensions>
      </trkpt>
      <trkpt lat="43.48165352828800678253173828125" lon="1.45186523906886577606201171875">
        <ele>199.399993896484375</ele>
        <time>2026-08-05T08:50:57.000Z</time>
        <extensions>
          <ns3:TrackPointExtension>
            <ns3:hr>65</ns3:hr>
            <ns3:cad>0</ns3:cad>
          </ns3:TrackPointExtension>
        </extensions>
      </trkpt>
      <trkpt lat="43.48165352828800678253173828125" lon="1.45186523906886577606201171875">
        <ele>199.399993896484375</ele>
        <time>2026-08-05T08:50:58.000Z</time>
        <extensions>
          <ns3:TrackPointExtension>
            <ns3:hr>65</ns3:hr>
            <ns3:cad>0</ns3:cad>
          </ns3:TrackPointExtension>
        </extensions>
      </trkpt>
      <trkpt lat="43.48165352828800678253173828125" lon="1.45186523906886577606201171875">
        <ele>199.600006103515625</ele>
        <time>2026-08-05T08:50:59.000Z</time>
        <extensions>
          <ns3:TrackPointExtension>
            <ns3:hr>65</ns3:hr>
            <ns3:cad>0</ns3:cad>
          </ns3:TrackPointExtension>
        </extensions>
      </trkpt>
      <trkpt lat="43.48165352828800678253173828125" lon="1.45186523906886577606201171875">
        <ele>199.600006103515625</ele>
        <time>2026-08-05T08:51:00.000Z</time>
        <extensions>
          <ns3:TrackPointExtension>
            <ns3:hr>65</ns3:hr>
            <ns3:cad>0</ns3:cad>
          </ns3:TrackPointExtension>
        </extensions>
      </trkpt>
      <trkpt lat="43.48165352828800678253173828125" lon="1.45186523906886577606201171875">
        <ele>199.600006103515625</ele>
        <time>2026-08-05T08:51:01.000Z</time>
        <extensions>
          <ns3:TrackPointExtension>
            <ns3:hr>65</ns3:hr>
            <ns3:cad>0</ns3:cad>
          </ns3:TrackPointExtension>
        </extensions>
      </trkpt>
      <trkpt lat="43.48165352828800678253173828125" lon="1.45186523906886577606201171875">
        <ele>199.399993896484375</ele>
        <time>2026-08-05T08:51:02.000Z</time>
        <extensions>
          <ns3:TrackPointExtension>
            <ns3:hr>65</ns3:hr>
            <ns3:cad>0</ns3:cad>
          </ns3:TrackPointExtension>
        </extensions>
      </trkpt>
      <trkpt lat="43.48165352828800678253173828125" lon="1.45186523906886577606201171875">
        <ele>199.399993896484375</ele>
        <time>2026-08-05T08:51:03.000Z</time>
        <extensions>
          <ns3:TrackPointExtension>
            <ns3:hr>64</ns3:hr>
            <ns3:cad>0</ns3:cad>
          </ns3:TrackPointExtension>
        </extensions>
      </trkpt>
      <trkpt lat="43.48165352828800678253173828125" lon="1.45186523906886577606201171875">
        <ele>199.399993896484375</ele>
        <time>2026-08-05T08:51:04.000Z</time>
        <extensions>
          <ns3:TrackPointExtension>
            <ns3:hr>64</ns3:hr>
            <ns3:cad>0</ns3:cad>
          </ns3:TrackPointExtension>
        </extensions>
      </trkpt>
      <trkpt lat="43.48165352828800678253173828125" lon="1.45186523906886577606201171875">
        <ele>199.399993896484375</ele>
        <time>2026-08-05T08:51:05.000Z</time>
        <extensions>
          <ns3:TrackPointExtension>
            <ns3:hr>63</ns3:hr>
            <ns3:cad>0</ns3:cad>
          </ns3:TrackPointExtension>
        </extensions>
      </trkpt>
      <trkpt lat="43.48165352828800678253173828125" lon="1.45186523906886577606201171875">
        <ele>199.399993896484375</ele>
        <time>2026-08-05T08:51:06.000Z</time>
        <extensions>
          <ns3:TrackPointExtension>
            <ns3:hr>63</ns3:hr>
            <ns3:cad>0</ns3:cad>
          </ns3:TrackPointExtension>
        </extensions>
      </trkpt>
      <trkpt lat="43.4816485829651355743408203125" lon="1.45186456851661205291748046875">
        <ele>199.399993896484375</ele>
        <time>2026-08-05T08:51:07.000Z</time>
        <extensions>
          <ns3:TrackPointExtension>
            <ns3:hr>63</ns3:hr>
            <ns3:cad>0</ns3:cad>
          </ns3:TrackPointExtension>
        </extensions>
      </trkpt>
      <trkpt lat="43.4816472418606281280517578125" lon="1.45186155103147029876708984375">
        <ele>199.1999969482421875</ele>
        <time>2026-08-05T08:51:08.000Z</time>
        <extensions>
          <ns3:TrackPointExtension>
            <ns3:hr>64</ns3:hr>
            <ns3:cad>0</ns3:cad>
          </ns3:TrackPointExtension>
        </extensions>
      </trkpt>
      <trkpt lat="43.48163969814777374267578125" lon="1.451860964298248291015625">
        <ele>199.1999969482421875</ele>
        <time>2026-08-05T08:51:09.000Z</time>
        <extensions>
          <ns3:TrackPointExtension>
            <ns3:hr>63</ns3:hr>
            <ns3:cad>0</ns3:cad>
          </ns3:TrackPointExtension>
        </extensions>
      </trkpt>
      <trkpt lat="43.48163525573909282684326171875" lon="1.45185903646051883697509765625">
        <ele>199.1999969482421875</ele>
        <time>2026-08-05T08:51:10.000Z</time>
        <extensions>
          <ns3:TrackPointExtension>
            <ns3:hr>63</ns3:hr>
            <ns3:cad>0</ns3:cad>
          </ns3:TrackPointExtension>
        </extensions>
      </trkpt>
      <trkpt lat="43.48163223825395107269287109375" lon="1.4518530853092670440673828125">
        <ele>199.1999969482421875</ele>
        <time>2026-08-05T08:51:11.000Z</time>
        <extensions>
          <ns3:TrackPointExtension>
            <ns3:hr>64</ns3:hr>
            <ns3:cad>0</ns3:cad>
          </ns3:TrackPointExtension>
        </extensions>
      </trkpt>
      <trkpt lat="43.48162469454109668731689453125" lon="1.451851911842823028564453125">
        <ele>199.399993896484375</ele>
        <time>2026-08-05T08:51:12.000Z</time>
        <extensions>
          <ns3:TrackPointExtension>
            <ns3:hr>63</ns3:hr>
            <ns3:cad>0</ns3:cad>
          </ns3:TrackPointExtension>
        </extensions>
      </trkpt>
      <trkpt lat="43.48161983303725719451904296875" lon="1.45185182802379131317138671875">
        <ele>199.399993896484375</ele>
        <time>2026-08-05T08:51:13.000Z</time>
        <extensions>
          <ns3:TrackPointExtension>
            <ns3:hr>63</ns3:hr>
            <ns3:cad>0</ns3:cad>
          </ns3:TrackPointExtension>
        </extensions>
      </trkpt>
      <trkpt lat="43.48162092268466949462890625" lon="1.45185283385217189788818359375">
        <ele>199.399993896484375</ele>
        <time>2026-08-05T08:51:14.000Z</time>
        <extensions>
          <ns3:TrackPointExtension>
            <ns3:hr>64</ns3:hr>
            <ns3:cad>0</ns3:cad>
          </ns3:TrackPointExtension>
        </extensions>
      </trkpt>
      <trkpt lat="43.48162486217916011810302734375" lon="1.45185283385217189788818359375">
        <ele>199.399993896484375</ele>
        <time>2026-08-05T08:51:15.000Z</time>
        <extensions>
          <ns3:TrackPointExtension>
            <ns3:hr>64</ns3:hr>
            <ns3:cad>0</ns3:cad>
          </ns3:TrackPointExtension>
        </extensions>
      </trkpt>
      <trkpt lat="43.4816187433898448944091796875" lon="1.45184746943414211273193359375">
        <ele>199.399993896484375</ele>
        <time>2026-08-05T08:51:16.000Z</time>
        <extensions>
          <ns3:TrackPointExtension>
            <ns3:hr>64</ns3:hr>
            <ns3:cad>0</ns3:cad>
          </ns3:TrackPointExtension>
        </extensions>
      </trkpt>
      <trkpt lat="43.481611870229244232177734375" lon="1.45184663124382495880126953125">
        <ele>199.399993896484375</ele>
        <time>2026-08-05T08:51:17.000Z</time>
        <extensions>
          <ns3:TrackPointExtension>
            <ns3:hr>64</ns3:hr>
            <ns3:cad>0</ns3:cad>
          </ns3:TrackPointExtension>
        </extensions>
      </trkpt>
      <trkpt lat="43.48161019384860992431640625" lon="1.4518436975777149200439453125">
        <ele>199.399993896484375</ele>
        <time>2026-08-05T08:51:18.000Z</time>
        <extensions>
          <ns3:TrackPointExtension>
            <ns3:hr>64</ns3:hr>
            <ns3:cad>0</ns3:cad>
          </ns3:TrackPointExtension>
        </extensions>
      </trkpt>
      <trkpt lat="43.48160441033542156219482421875" lon="1.451839841902256011962890625">
        <ele>199.1999969482421875</ele>
        <time>2026-08-05T08:51:19.000Z</time>
        <extensions>
          <ns3:TrackPointExtension>
            <ns3:hr>65</ns3:hr>
            <ns3:cad>0</ns3:cad>
          </ns3:TrackPointExtension>
        </extensions>
      </trkpt>
      <trkpt lat="43.481599129736423492431640625" lon="1.45183322019875049591064453125">
        <ele>199.1999969482421875</ele>
        <time>2026-08-05T08:51:20.000Z</time>
        <extensions>
          <ns3:TrackPointExtension>
            <ns3:hr>65</ns3:hr>
            <ns3:cad>0</ns3:cad>
          </ns3:TrackPointExtension>
        </extensions>
      </trkpt>
      <trkpt lat="43.481592424213886260986328125" lon="1.45182249136269092559814453125">
        <ele>199.1999969482421875</ele>
        <time>2026-08-05T08:51:21.000Z</time>
        <extensions>
          <ns3:TrackPointExtension>
            <ns3:hr>65</ns3:hr>
            <ns3:cad>0</ns3:cad>
          </ns3:TrackPointExtension>
        </extensions>
      </trkpt>
      <trkpt lat="43.4815875627100467681884765625" lon="1.451811678707599639892578125">
        <ele>199.399993896484375</ele>
        <time>2026-08-05T08:51:22.000Z</time>
        <extensions>
          <ns3:TrackPointExtension>
            <ns3:hr>65</ns3:hr>
            <ns3:cad>0</ns3:cad>
          </ns3:TrackPointExtension>
        </extensions>
      </trkpt>
      <trkpt lat="43.4815764985978603363037109375" lon="1.45180170424282550811767578125">
        <ele>199.399993896484375</ele>
        <time>2026-08-05T08:51:23.000Z</time>
        <extensions>
          <ns3:TrackPointExtension>
            <ns3:hr>66</ns3:hr>
            <ns3:cad>0</ns3:cad>
          </ns3:TrackPointExtension>
        </extensions>
      </trkpt>
      <trkpt lat="43.48157264292240142822265625" lon="1.45179248414933681488037109375">
        <ele>199.399993896484375</ele>
        <time>2026-08-05T08:51:24.000Z</time>
        <extensions>
          <ns3:TrackPointExtension>
            <ns3:hr>67</ns3:hr>
            <ns3:cad>0</ns3:cad>
          </ns3:TrackPointExtension>
        </extensions>
      </trkpt>
      <trkpt lat="43.4815620817244052886962890625" lon="1.45177370868623256683349609375">
        <ele>199.399993896484375</ele>
        <time>2026-08-05T08:51:25.000Z</time>
        <extensions>
          <ns3:TrackPointExtension>
            <ns3:hr>68</ns3:hr>
            <ns3:cad>0</ns3:cad>
          </ns3:TrackPointExtension>
        </extensions>
      </trkpt>
      <trkpt lat="43.48156115971505641937255859375" lon="1.45176599733531475067138671875">
        <ele>199.600006103515625</ele>
        <time>2026-08-05T08:51:26.000Z</time>
        <extensions>
          <ns3:TrackPointExtension>
            <ns3:hr>69</ns3:hr>
            <ns3:cad>0</ns3:cad>
          </ns3:TrackPointExtension>
        </extensions>
      </trkpt>
      <trkpt lat="43.48155696876347064971923828125" lon="1.45175761543214321136474609375">
        <ele>199.600006103515625</ele>
        <time>2026-08-05T08:51:27.000Z</time>
        <extensions>
          <ns3:TrackPointExtension>
            <ns3:hr>69</ns3:hr>
            <ns3:cad>0</ns3:cad>
          </ns3:TrackPointExtension>
        </extensions>
      </trkpt>
      <trkpt lat="43.48154976032674312591552734375" lon="1.45174286328256130218505859375">
        <ele>199.600006103515625</ele>
        <time>2026-08-05T08:51:28.000Z</time>
        <extensions>
          <ns3:TrackPointExtension>
            <ns3:hr>69</ns3:hr>
            <ns3:cad>0</ns3:cad>
          </ns3:TrackPointExtension>
        </extensions>
      </trkpt>
      <trkpt lat="43.48154489882290363311767578125" lon="1.4517350681126117706298828125">
        <ele>199.8000030517578125</ele>
        <time>2026-08-05T08:51:29.000Z</time>
        <extensions>
          <ns3:TrackPointExtension>
            <ns3:hr>69</ns3:hr>
            <ns3:cad>0</ns3:cad>
          </ns3:TrackPointExtension>
        </extensions>
      </trkpt>
      <trkpt lat="43.4815436415374279022216796875" lon="1.45172341726720333099365234375">
        <ele>199.8000030517578125</ele>
        <time>2026-08-05T08:51:30.000Z</time>
        <extensions>
          <ns3:TrackPointExtension>
            <ns3:hr>69</ns3:hr>
            <ns3:cad>0</ns3:cad>
          </ns3:TrackPointExtension>
        </extensions>
      </trkpt>
      <trkpt lat="43.48153936676681041717529296875" lon="1.45171503536403179168701171875">
        <ele>199.8000030517578125</ele>
        <time>2026-08-05T08:51:31.000Z</time>
        <extensions>
          <ns3:TrackPointExtension>
            <ns3:hr>69</ns3:hr>
            <ns3:cad>0</ns3:cad>
          </ns3:TrackPointExtension>
        </extensions>
      </trkpt>
      <trkpt lat="43.48153132013976573944091796875" lon="1.45170095376670360565185546875">
        <ele>200</ele>
        <time>2026-08-05T08:51:32.000Z</time>
        <extensions>
          <ns3:TrackPointExtension>
            <ns3:hr>69</ns3:hr>
            <ns3:cad>0</ns3:cad>
          </ns3:TrackPointExtension>
        </extensions>
      </trkpt>
      <trkpt lat="43.4815275482833385467529296875" lon="1.4516944997012615203857421875">
        <ele>200</ele>
        <time>2026-08-05T08:51:33.000Z</time>
        <extensions>
          <ns3:TrackPointExtension>
            <ns3:hr>69</ns3:hr>
            <ns3:cad>0</ns3:cad>
          </ns3:TrackPointExtension>
        </extensions>
      </trkpt>
      <trkpt lat="43.48152637481689453125" lon="1.45168871618807315826416015625">
        <ele>200.1999969482421875</ele>
        <time>2026-08-05T08:51:34.000Z</time>
        <extensions>
          <ns3:TrackPointExtension>
            <ns3:hr>69</ns3:hr>
            <ns3:cad>0</ns3:cad>
          </ns3:TrackPointExtension>
        </extensions>
      </trkpt>
      <trkpt lat="43.4815161488950252532958984375" lon="1.4516784064471721649169921875">
        <ele>200.1999969482421875</ele>
        <time>2026-08-05T08:51:35.000Z</time>
        <extensions>
          <ns3:TrackPointExtension>
            <ns3:hr>69</ns3:hr>
            <ns3:cad>42</ns3:cad>
          </ns3:TrackPointExtension>
        </extensions>
      </trkpt>
      <trkpt lat="43.48150550387799739837646484375" lon="1.45166725851595401763916015625">
        <ele>200.399993896484375</ele>
        <time>2026-08-05T08:51:36.000Z</time>
        <extensions>
          <ns3:TrackPointExtension>
            <ns3:hr>70</ns3:hr>
            <ns3:cad>42</ns3:cad>
          </ns3:TrackPointExtension>
        </extensions>
      </trkpt>
      <trkpt lat="43.481497876346111297607421875" lon="1.45166072063148021697998046875">
        <ele>200.399993896484375</ele>
        <time>2026-08-05T08:51:37.000Z</time>
        <extensions>
          <ns3:TrackPointExtension>
            <ns3:hr>71</ns3:hr>
            <ns3:cad>42</ns3:cad>
          </ns3:TrackPointExtension>
        </extensions>
      </trkpt>
      <trkpt lat="43.48149125464260578155517578125" lon="1.45165468566119670867919921875">
        <ele>200.600006103515625</ele>
        <time>2026-08-05T08:51:38.000Z</time>
        <extensions>
          <ns3:TrackPointExtension>
            <ns3:hr>72</ns3:hr>
            <ns3:cad>43</ns3:cad>
          </ns3:TrackPointExtension>
        </extensions>
      </trkpt>
      <trkpt lat="43.4814839623868465423583984375" lon="1.4516586251556873321533203125">
        <ele>200.8000030517578125</ele>
        <time>2026-08-05T08:51:39.000Z</time>
        <extensions>
          <ns3:TrackPointExtension>
            <ns3:hr>73</ns3:hr>
            <ns3:cad>43</ns3:cad>
          </ns3:TrackPointExtension>
        </extensions>
      </trkpt>
      <trkpt lat="43.481474407017230987548828125" lon="1.45165384747087955474853515625">
        <ele>200.8000030517578125</ele>
        <time>2026-08-05T08:51:40.000Z</time>
        <extensions>
          <ns3:TrackPointExtension>
            <ns3:hr>74</ns3:hr>
            <ns3:cad>43</ns3:cad>
          </ns3:TrackPointExtension>
        </extensions>
      </trkpt>
      <trkpt lat="43.481471054255962371826171875" lon="1.45164412446320056915283203125">
        <ele>201</ele>
        <time>2026-08-05T08:51:41.000Z</time>
        <extensions>
          <ns3:TrackPointExtension>
            <ns3:hr>74</ns3:hr>
            <ns3:cad>44</ns3:cad>
          </ns3:TrackPointExtension>
        </extensions>
      </trkpt>
      <trkpt lat="43.4814687073230743408203125" lon="1.45163104869425296783447265625">
        <ele>201</ele>
        <time>2026-08-05T08:51:42.000Z</time>
        <extensions>
          <ns3:TrackPointExtension>
            <ns3:hr>75</ns3:hr>
            <ns3:cad>44</ns3:cad>
          </ns3:TrackPointExtension>
        </extensions>
      </trkpt>
      <trkpt lat="43.4814665280282497406005859375" lon="1.451611854135990142822265625">
        <ele>201</ele>
        <time>2026-08-05T08:51:43.000Z</time>
        <extensions>
          <ns3:TrackPointExtension>
            <ns3:hr>75</ns3:hr>
            <ns3:cad>44</ns3:cad>
          </ns3:TrackPointExtension>
        </extensions>
      </trkpt>
      <trkpt lat="43.48146912641823291778564453125" lon="1.45159785635769367218017578125">
        <ele>201</ele>
        <time>2026-08-05T08:51:44.000Z</time>
        <extensions>
          <ns3:TrackPointExtension>
            <ns3:hr>76</ns3:hr>
            <ns3:cad>44</ns3:cad>
          </ns3:TrackPointExtension>
        </extensions>
      </trkpt>
      <trkpt lat="43.4814687073230743408203125" lon="1.45159031264483928680419921875">
        <ele>201</ele>
        <time>2026-08-05T08:51:45.000Z</time>
        <extensions>
          <ns3:TrackPointExtension>
            <ns3:hr>77</ns3:hr>
            <ns3:cad>43</ns3:cad>
          </ns3:TrackPointExtension>
        </extensions>
      </trkpt>
      <trkpt lat="43.4814702160656452178955078125" lon="1.45157732069492340087890625">
        <ele>201.1999969482421875</ele>
        <time>2026-08-05T08:51:46.000Z</time>
        <extensions>
          <ns3:TrackPointExtension>
            <ns3:hr>77</ns3:hr>
            <ns3:cad>43</ns3:cad>
          </ns3:TrackPointExtension>
        </extensions>
      </trkpt>
      <trkpt lat="43.48147063516080379486083984375" lon="1.451556198298931121826171875">
        <ele>201.1999969482421875</ele>
        <time>2026-08-05T08:51:47.000Z</time>
        <extensions>
          <ns3:TrackPointExtension>
            <ns3:hr>77</ns3:hr>
            <ns3:cad>43</ns3:cad>
          </ns3:TrackPointExtension>
        </extensions>
      </trkpt>
      <trkpt lat="43.4814712218940258026123046875" lon="1.45154119469225406646728515625">
        <ele>201.1999969482421875</ele>
        <time>2026-08-05T08:51:48.000Z</time>
        <extensions>
          <ns3:TrackPointExtension>
            <ns3:hr>78</ns3:hr>
            <ns3:cad>43</ns3:cad>
          </ns3:TrackPointExtension>
        </extensions>
      </trkpt>
      <trkpt lat="43.48147398792207241058349609375" lon="1.45153105258941650390625">
        <ele>201.399993896484375</ele>
        <time>2026-08-05T08:51:49.000Z</time>
        <extensions>
          <ns3:TrackPointExtension>
            <ns3:hr>78</ns3:hr>
            <ns3:cad>43</ns3:cad>
          </ns3:TrackPointExtension>
        </extensions>
      </trkpt>
      <trkpt lat="43.4814742393791675567626953125" lon="1.45151671953499317169189453125">
        <ele>201.399993896484375</ele>
        <time>2026-08-05T08:51:50.000Z</time>
        <extensions>
          <ns3:TrackPointExtension>
            <ns3:hr>78</ns3:hr>
            <ns3:cad>44</ns3:cad>
          </ns3:TrackPointExtension>
        </extensions>
      </trkpt>
      <trkpt lat="43.48147130571305751800537109375" lon="1.45150464959442615509033203125">
        <ele>201.600006103515625</ele>
        <time>2026-08-05T08:51:51.000Z</time>
        <extensions>
          <ns3:TrackPointExtension>
            <ns3:hr>79</ns3:hr>
            <ns3:cad>45</ns3:cad>
          </ns3:TrackPointExtension>
        </extensions>
      </trkpt>
      <trkpt lat="43.48147013224661350250244140625" lon="1.45149408839643001556396484375">
        <ele>201.600006103515625</ele>
        <time>2026-08-05T08:51:52.000Z</time>
        <extensions>
          <ns3:TrackPointExtension>
            <ns3:hr>79</ns3:hr>
            <ns3:cad>45</ns3:cad>
          </ns3:TrackPointExtension>
        </extensions>
      </trkpt>
      <trkpt lat="43.481469713151454925537109375" lon="1.45148453302681446075439453125">
        <ele>201.8000030517578125</ele>
        <time>2026-08-05T08:51:53.000Z</time>
        <extensions>
          <ns3:TrackPointExtension>
            <ns3:hr>80</ns3:hr>
            <ns3:cad>45</ns3:cad>
          </ns3:TrackPointExtension>
        </extensions>
      </trkpt>
      <trkpt lat="43.4814668633043766021728515625" lon="1.45146206952631473541259765625">
        <ele>201.8000030517578125</ele>
        <time>2026-08-05T08:51:54.000Z</time>
        <extensions>
          <ns3:TrackPointExtension>
            <ns3:hr>80</ns3:hr>
            <ns3:cad>44</ns3:cad>
          </ns3:TrackPointExtension>
        </extensions>
      </trkpt>
      <trkpt lat="43.48146359436213970184326171875" lon="1.45144480280578136444091796875">
        <ele>201.8000030517578125</ele>
        <time>2026-08-05T08:51:55.000Z</time>
        <extensions>
          <ns3:TrackPointExtension>
            <ns3:hr>80</ns3:hr>
            <ns3:cad>44</ns3:cad>
          </ns3:TrackPointExtension>
        </extensions>
      </trkpt>
      <trkpt lat="43.48146342672407627105712890625" lon="1.45142938010394573211669921875">
        <ele>201.8000030517578125</ele>
        <time>2026-08-05T08:51:56.000Z</time>
        <extensions>
          <ns3:TrackPointExtension>
            <ns3:hr>80</ns3:hr>
            <ns3:cad>43</ns3:cad>
          </ns3:TrackPointExtension>
        </extensions>
      </trkpt>
      <trkpt lat="43.48146510310471057891845703125" lon="1.4514158852398395538330078125">
        <ele>201.8000030517578125</ele>
        <time>2026-08-05T08:51:57.000Z</time>
        <extensions>
          <ns3:TrackPointExtension>
            <ns3:hr>80</ns3:hr>
            <ns3:cad>43</ns3:cad>
          </ns3:TrackPointExtension>
        </extensions>
      </trkpt>
      <trkpt lat="43.48146476782858371734619140625" lon="1.4514028094708919525146484375">
        <ele>201.8000030517578125</ele>
        <time>2026-08-05T08:51:58.000Z</time>
        <extensions>
          <ns3:TrackPointExtension>
            <ns3:hr>81</ns3:hr>
            <ns3:cad>43</ns3:cad>
          </ns3:TrackPointExtension>
        </extensions>
      </trkpt>
      <trkpt lat="43.48146208561956882476806640625" lon="1.45138411782681941986083984375">
        <ele>201.8000030517578125</ele>
        <time>2026-08-05T08:51:59.000Z</time>
        <extensions>
          <ns3:TrackPointExtension>
            <ns3:hr>81</ns3:hr>
            <ns3:cad>47</ns3:cad>
          </ns3:TrackPointExtension>
        </extensions>
      </trkpt>
      <trkpt lat="43.48145957104861736297607421875" lon="1.45136953331530094146728515625">
        <ele>202</ele>
        <time>2026-08-05T08:52:00.000Z</time>
        <extensions>
          <ns3:TrackPointExtension>
            <ns3:hr>82</ns3:hr>
            <ns3:cad>47</ns3:cad>
          </ns3:TrackPointExtension>
        </extensions>
      </trkpt>
      <trkpt lat="43.48145772702991962432861328125" lon="1.45136131905019283294677734375">
        <ele>202</ele>
        <time>2026-08-05T08:52:01.000Z</time>
        <extensions>
          <ns3:TrackPointExtension>
            <ns3:hr>82</ns3:hr>
            <ns3:cad>47</ns3:cad>
          </ns3:TrackPointExtension>
        </extensions>
      </trkpt>
      <trkpt lat="43.48145588301122188568115234375" lon="1.45135478116571903228759765625">
        <ele>202.1999969482421875</ele>
        <time>2026-08-05T08:52:02.000Z</time>
        <extensions>
          <ns3:TrackPointExtension>
            <ns3:hr>83</ns3:hr>
            <ns3:cad>47</ns3:cad>
          </ns3:TrackPointExtension>
        </extensions>
      </trkpt>
      <trkpt lat="43.4814551286399364471435546875" lon="1.45133793354034423828125">
        <ele>202.1999969482421875</ele>
        <time>2026-08-05T08:52:03.000Z</time>
        <extensions>
          <ns3:TrackPointExtension>
            <ns3:hr>83</ns3:hr>
            <ns3:cad>47</ns3:cad>
          </ns3:TrackPointExtension>
        </extensions>
      </trkpt>
      <trkpt lat="43.48145596683025360107421875" lon="1.4513287134468555450439453125">
        <ele>202.1999969482421875</ele>
        <time>2026-08-05T08:52:04.000Z</time>
        <extensions>
          <ns3:TrackPointExtension>
            <ns3:hr>84</ns3:hr>
            <ns3:cad>47</ns3:cad>
          </ns3:TrackPointExtension>
        </extensions>
      </trkpt>
      <trkpt lat="43.481457643210887908935546875" lon="1.45132309757173061370849609375">
        <ele>202.1999969482421875</ele>
        <time>2026-08-05T08:52:05.000Z</time>
        <extensions>
          <ns3:TrackPointExtension>
            <ns3:hr>84</ns3:hr>
            <ns3:cad>46</ns3:cad>
          </ns3:TrackPointExtension>
        </extensions>
      </trkpt>
      <trkpt lat="43.4814554639160633087158203125" lon="1.45132393576204776763916015625">
        <ele>202.1999969482421875</ele>
        <time>2026-08-05T08:52:06.000Z</time>
        <extensions>
          <ns3:TrackPointExtension>
            <ns3:hr>84</ns3:hr>
            <ns3:cad>0</ns3:cad>
          </ns3:TrackPointExtension>
        </extensions>
      </trkpt>
      <trkpt lat="43.481452949345111846923828125" lon="1.451319493353366851806640625">
        <ele>202.1999969482421875</ele>
        <time>2026-08-05T08:52:07.000Z</time>
        <extensions>
          <ns3:TrackPointExtension>
            <ns3:hr>84</ns3:hr>
            <ns3:cad>0</ns3:cad>
          </ns3:TrackPointExtension>
        </extensions>
      </trkpt>
      <trkpt lat="43.48145085386931896209716796875" lon="1.45131622441112995147705078125">
        <ele>202.399993896484375</ele>
        <time>2026-08-05T08:52:08.000Z</time>
        <extensions>
          <ns3:TrackPointExtension>
            <ns3:hr>83</ns3:hr>
            <ns3:cad>0</ns3:cad>
          </ns3:TrackPointExtension>
        </extensions>
      </trkpt>
      <trkpt lat="43.48145185969769954681396484375" lon="1.451311446726322174072265625">
        <ele>202.399993896484375</ele>
        <time>2026-08-05T08:52:09.000Z</time>
        <extensions>
          <ns3:TrackPointExtension>
            <ns3:hr>84</ns3:hr>
            <ns3:cad>0</ns3:cad>
          </ns3:TrackPointExtension>
        </extensions>
      </trkpt>
      <trkpt lat="43.4814514406025409698486328125" lon="1.451303064823150634765625">
        <ele>202.399993896484375</ele>
        <time>2026-08-05T08:52:10.000Z</time>
        <extensions>
          <ns3:TrackPointExtension>
            <ns3:hr>84</ns3:hr>
            <ns3:cad>0</ns3:cad>
          </ns3:TrackPointExtension>
        </extensions>
      </trkpt>
      <trkpt lat="43.48144968040287494659423828125" lon="1.45128604955971240997314453125">
        <ele>202.399993896484375</ele>
        <time>2026-08-05T08:52:11.000Z</time>
        <extensions>
          <ns3:TrackPointExtension>
            <ns3:hr>84</ns3:hr>
            <ns3:cad>0</ns3:cad>
          </ns3:TrackPointExtension>
        </extensions>
      </trkpt>
      <trkpt lat="43.48144750110805034637451171875" lon="1.45126752555370330810546875">
        <ele>202.399993896484375</ele>
        <time>2026-08-05T08:52:12.000Z</time>
        <extensions>
          <ns3:TrackPointExtension>
            <ns3:hr>84</ns3:hr>
            <ns3:cad>0</ns3:cad>
          </ns3:TrackPointExtension>
        </extensions>
      </trkpt>
      <trkpt lat="43.48144649527966976165771484375" lon="1.4512526057660579681396484375">
        <ele>202.399993896484375</ele>
        <time>2026-08-05T08:52:13.000Z</time>
        <extensions>
          <ns3:TrackPointExtension>
            <ns3:hr>84</ns3:hr>
            <ns3:cad>0</ns3:cad>
          </ns3:TrackPointExtension>
        </extensions>
      </trkpt>
      <trkpt lat="43.48145194351673126220703125" lon="1.4512536115944385528564453125">
        <ele>202.399993896484375</ele>
        <time>2026-08-05T08:52:14.000Z</time>
        <extensions>
          <ns3:TrackPointExtension>
            <ns3:hr>84</ns3:hr>
            <ns3:cad>0</ns3:cad>
          </ns3:TrackPointExtension>
        </extensions>
      </trkpt>
      <trkpt lat="43.4814534522593021392822265625" lon="1.45123341120779514312744140625">
        <ele>202.399993896484375</ele>
        <time>2026-08-05T08:52:15.000Z</time>
        <extensions>
          <ns3:TrackPointExtension>
            <ns3:hr>83</ns3:hr>
            <ns3:cad>47</ns3:cad>
          </ns3:TrackPointExtension>
        </extensions>
      </trkpt>
      <trkpt lat="43.48144850693643093109130859375" lon="1.45121547393500804901123046875">
        <ele>202.399993896484375</ele>
        <time>2026-08-05T08:52:16.000Z</time>
        <extensions>
          <ns3:TrackPointExtension>
            <ns3:hr>83</ns3:hr>
            <ns3:cad>47</ns3:cad>
          </ns3:TrackPointExtension>
        </extensions>
      </trkpt>
      <trkpt lat="43.48144766874611377716064453125" lon="1.45120122469961643218994140625">
        <ele>202.399993896484375</ele>
        <time>2026-08-05T08:52:17.000Z</time>
        <extensions>
          <ns3:TrackPointExtension>
            <ns3:hr>83</ns3:hr>
            <ns3:cad>46</ns3:cad>
          </ns3:TrackPointExtension>
        </extensions>
      </trkpt>
      <trkpt lat="43.481446243822574615478515625" lon="1.4511892385780811309814453125">
        <ele>202.600006103515625</ele>
        <time>2026-08-05T08:52:18.000Z</time>
        <extensions>
          <ns3:TrackPointExtension>
            <ns3:hr>83</ns3:hr>
            <ns3:cad>45</ns3:cad>
          </ns3:TrackPointExtension>
        </extensions>
      </trkpt>
      <trkpt lat="43.4814427234232425689697265625" lon="1.45117373205721378326416015625">
        <ele>202.600006103515625</ele>
        <time>2026-08-05T08:52:19.000Z</time>
        <extensions>
          <ns3:TrackPointExtension>
            <ns3:hr>83</ns3:hr>
            <ns3:cad>45</ns3:cad>
          </ns3:TrackPointExtension>
        </extensions>
      </trkpt>
      <trkpt lat="43.48143744282424449920654296875" lon="1.451155208051204681396484375">
        <ele>202.600006103515625</ele>
        <time>2026-08-05T08:52:20.000Z</time>
        <extensions>
          <ns3:TrackPointExtension>
            <ns3:hr>83</ns3:hr>
            <ns3:cad>46</ns3:cad>
          </ns3:TrackPointExtension>
        </extensions>
      </trkpt>
      <trkpt lat="43.48143291659653186798095703125" lon="1.45114070735871791839599609375">
        <ele>202.600006103515625</ele>
        <time>2026-08-05T08:52:21.000Z</time>
        <extensions>
          <ns3:TrackPointExtension>
            <ns3:hr>83</ns3:hr>
            <ns3:cad>46</ns3:cad>
          </ns3:TrackPointExtension>
        </extensions>
      </trkpt>
      <trkpt lat="43.48142855800688266754150390625" lon="1.45113584585487842559814453125">
        <ele>202.600006103515625</ele>
        <time>2026-08-05T08:52:22.000Z</time>
        <extensions>
          <ns3:TrackPointExtension>
            <ns3:hr>83</ns3:hr>
            <ns3:cad>46</ns3:cad>
          </ns3:TrackPointExtension>
        </extensions>
      </trkpt>
      <trkpt lat="43.4814252890646457672119140625" lon="1.45112561993300914764404296875">
        <ele>202.8000030517578125</ele>
        <time>2026-08-05T08:52:23.000Z</time>
        <extensions>
          <ns3:TrackPointExtension>
            <ns3:hr>83</ns3:hr>
            <ns3:cad>46</ns3:cad>
          </ns3:TrackPointExtension>
        </extensions>
      </trkpt>
      <trkpt lat="43.4814249537885189056396484375" lon="1.4511067606508731842041015625">
        <ele>202.8000030517578125</ele>
        <time>2026-08-05T08:52:24.000Z</time>
        <extensions>
          <ns3:TrackPointExtension>
            <ns3:hr>84</ns3:hr>
            <ns3:cad>46</ns3:cad>
          </ns3:TrackPointExtension>
        </extensions>
      </trkpt>
      <trkpt lat="43.48142185248434543609619140625" lon="1.45109452307224273681640625">
        <ele>202.8000030517578125</ele>
        <time>2026-08-05T08:52:25.000Z</time>
        <extensions>
          <ns3:TrackPointExtension>
            <ns3:hr>83</ns3:hr>
            <ns3:cad>46</ns3:cad>
          </ns3:TrackPointExtension>
        </extensions>
      </trkpt>
      <trkpt lat="43.48142051137983798980712890625" lon="1.45108337514102458953857421875">
        <ele>202.8000030517578125</ele>
        <time>2026-08-05T08:52:26.000Z</time>
        <extensions>
          <ns3:TrackPointExtension>
            <ns3:hr>84</ns3:hr>
            <ns3:cad>46</ns3:cad>
          </ns3:TrackPointExtension>
        </extensions>
      </trkpt>
      <trkpt lat="43.4814209304749965667724609375" lon="1.451070047914981842041015625">
        <ele>202.8000030517578125</ele>
        <time>2026-08-05T08:52:27.000Z</time>
        <extensions>
          <ns3:TrackPointExtension>
            <ns3:hr>84</ns3:hr>
            <ns3:cad>46</ns3:cad>
          </ns3:TrackPointExtension>
        </extensions>
      </trkpt>
      <trkpt lat="43.4814189188182353973388671875" lon="1.45104934461414813995361328125">
        <ele>203</ele>
        <time>2026-08-05T08:52:28.000Z</time>
        <extensions>
          <ns3:TrackPointExtension>
            <ns3:hr>85</ns3:hr>
            <ns3:cad>46</ns3:cad>
          </ns3:TrackPointExtension>
        </extensions>
      </trkpt>
      <trkpt lat="43.48141430877149105072021484375" lon="1.4510335028171539306640625">
        <ele>203</ele>
        <time>2026-08-05T08:52:29.000Z</time>
        <extensions>
          <ns3:TrackPointExtension>
            <ns3:hr>85</ns3:hr>
            <ns3:cad>47</ns3:cad>
          </ns3:TrackPointExtension>
        </extensions>
      </trkpt>
      <trkpt lat="43.48141372203826904296875" lon="1.45102285780012607574462890625">
        <ele>203</ele>
        <time>2026-08-05T08:52:30.000Z</time>
        <extensions>
          <ns3:TrackPointExtension>
            <ns3:hr>85</ns3:hr>
            <ns3:cad>47</ns3:cad>
          </ns3:TrackPointExtension>
        </extensions>
      </trkpt>
      <trkpt lat="43.48141229711472988128662109375" lon="1.4510195888578891754150390625">
        <ele>203.1999969482421875</ele>
        <time>2026-08-05T08:52:31.000Z</time>
        <extensions>
          <ns3:TrackPointExtension>
            <ns3:hr>85</ns3:hr>
            <ns3:cad>47</ns3:cad>
          </ns3:TrackPointExtension>
        </extensions>
      </trkpt>
      <trkpt lat="43.48140575923025608062744140625" lon="1.45100391469895839691162109375">
        <ele>203.1999969482421875</ele>
        <time>2026-08-05T08:52:32.000Z</time>
        <extensions>
          <ns3:TrackPointExtension>
            <ns3:hr>84</ns3:hr>
            <ns3:cad>46</ns3:cad>
          </ns3:TrackPointExtension>
        </extensions>
      </trkpt>
      <trkpt lat="43.48140357993543148040771484375" lon="1.45098731853067874908447265625">
        <ele>203.1999969482421875</ele>
        <time>2026-08-05T08:52:33.000Z</time>
        <extensions>
          <ns3:TrackPointExtension>
            <ns3:hr>84</ns3:hr>
            <ns3:cad>45</ns3:cad>
          </ns3:TrackPointExtension>
        </extensions>
      </trkpt>
      <trkpt lat="43.48140475340187549591064453125" lon="1.4509729854762554168701171875">
        <ele>203.1999969482421875</ele>
        <time>2026-08-05T08:52:34.000Z</time>
        <extensions>
          <ns3:TrackPointExtension>
            <ns3:hr>84</ns3:hr>
            <ns3:cad>45</ns3:cad>
          </ns3:TrackPointExtension>
        </extensions>
      </trkpt>
      <trkpt lat="43.48140257410705089569091796875" lon="1.4509635977447032928466796875">
        <ele>203.1999969482421875</ele>
        <time>2026-08-05T08:52:35.000Z</time>
        <extensions>
          <ns3:TrackPointExtension>
            <ns3:hr>84</ns3:hr>
            <ns3:cad>45</ns3:cad>
          </ns3:TrackPointExtension>
        </extensions>
      </trkpt>
      <trkpt lat="43.4814001433551311492919921875" lon="1.4509411342442035675048828125">
        <ele>203.1999969482421875</ele>
        <time>2026-08-05T08:52:36.000Z</time>
        <extensions>
          <ns3:TrackPointExtension>
            <ns3:hr>84</ns3:hr>
            <ns3:cad>45</ns3:cad>
          </ns3:TrackPointExtension>
        </extensions>
      </trkpt>
      <trkpt lat="43.4813936054706573486328125" lon="1.45092428661882877349853515625">
        <ele>203.399993896484375</ele>
        <time>2026-08-05T08:52:37.000Z</time>
        <extensions>
          <ns3:TrackPointExtension>
            <ns3:hr>83</ns3:hr>
            <ns3:cad>45</ns3:cad>
          </ns3:TrackPointExtension>
        </extensions>
      </trkpt>
      <trkpt lat="43.48139025270938873291015625" lon="1.450911797583103179931640625">
        <ele>203.399993896484375</ele>
        <time>2026-08-05T08:52:38.000Z</time>
        <extensions>
          <ns3:TrackPointExtension>
            <ns3:hr>82</ns3:hr>
            <ns3:cad>45</ns3:cad>
          </ns3:TrackPointExtension>
        </extensions>
      </trkpt>
      <trkpt lat="43.4813874028623104095458984375" lon="1.4509005658328533172607421875">
        <ele>203.399993896484375</ele>
        <time>2026-08-05T08:52:39.000Z</time>
        <extensions>
          <ns3:TrackPointExtension>
            <ns3:hr>82</ns3:hr>
            <ns3:cad>45</ns3:cad>
          </ns3:TrackPointExtension>
        </extensions>
      </trkpt>
      <trkpt lat="43.48138312809169292449951171875" lon="1.45089243538677692413330078125">
        <ele>203.600006103515625</ele>
        <time>2026-08-05T08:52:40.000Z</time>
        <extensions>
          <ns3:TrackPointExtension>
            <ns3:hr>82</ns3:hr>
            <ns3:cad>45</ns3:cad>
          </ns3:TrackPointExtension>
        </extensions>
      </trkpt>
      <trkpt lat="43.48137340508401393890380859375" lon="1.4508737437427043914794921875">
        <ele>203.600006103515625</ele>
        <time>2026-08-05T08:52:41.000Z</time>
        <extensions>
          <ns3:TrackPointExtension>
            <ns3:hr>82</ns3:hr>
            <ns3:cad>45</ns3:cad>
          </ns3:TrackPointExtension>
        </extensions>
      </trkpt>
      <trkpt lat="43.4813656099140644073486328125" lon="1.4508613385260105133056640625">
        <ele>203.600006103515625</ele>
        <time>2026-08-05T08:52:42.000Z</time>
        <extensions>
          <ns3:TrackPointExtension>
            <ns3:hr>83</ns3:hr>
            <ns3:cad>45</ns3:cad>
          </ns3:TrackPointExtension>
        </extensions>
      </trkpt>
      <trkpt lat="43.4813615866005420684814453125" lon="1.4508512802422046661376953125">
        <ele>203.8000030517578125</ele>
        <time>2026-08-05T08:52:43.000Z</time>
        <extensions>
          <ns3:TrackPointExtension>
            <ns3:hr>83</ns3:hr>
            <ns3:cad>45</ns3:cad>
          </ns3:TrackPointExtension>
        </extensions>
      </trkpt>
      <trkpt lat="43.48135714419186115264892578125" lon="1.45084599964320659637451171875">
        <ele>203.8000030517578125</ele>
        <time>2026-08-05T08:52:44.000Z</time>
        <extensions>
          <ns3:TrackPointExtension>
            <ns3:hr>83</ns3:hr>
            <ns3:cad>47</ns3:cad>
          </ns3:TrackPointExtension>
        </extensions>
      </trkpt>
      <trkpt lat="43.48134976811707019805908203125" lon="1.4508314989507198333740234375">
        <ele>204</ele>
        <time>2026-08-05T08:52:45.000Z</time>
        <extensions>
          <ns3:TrackPointExtension>
            <ns3:hr>83</ns3:hr>
            <ns3:cad>47</ns3:cad>
          </ns3:TrackPointExtension>
        </extensions>
      </trkpt>
      <trkpt lat="43.4813404642045497894287109375" lon="1.45081465132534503936767578125">
        <ele>204</ele>
        <time>2026-08-05T08:52:46.000Z</time>
        <extensions>
          <ns3:TrackPointExtension>
            <ns3:hr>83</ns3:hr>
            <ns3:cad>47</ns3:cad>
          </ns3:TrackPointExtension>
        </extensions>
      </trkpt>
      <trkpt lat="43.48133082501590251922607421875" lon="1.4508023299276828765869140625">
        <ele>204</ele>
        <time>2026-08-05T08:52:47.000Z</time>
        <extensions>
          <ns3:TrackPointExtension>
            <ns3:hr>83</ns3:hr>
            <ns3:cad>47</ns3:cad>
          </ns3:TrackPointExtension>
        </extensions>
      </trkpt>
      <trkpt lat="43.48132613115012645721435546875" lon="1.45079118199646472930908203125">
        <ele>204.1999969482421875</ele>
        <time>2026-08-05T08:52:48.000Z</time>
        <extensions>
          <ns3:TrackPointExtension>
            <ns3:hr>83</ns3:hr>
            <ns3:cad>47</ns3:cad>
          </ns3:TrackPointExtension>
        </extensions>
      </trkpt>
      <trkpt lat="43.4813223592936992645263671875" lon="1.45078196190297603607177734375">
        <ele>204.399993896484375</ele>
        <time>2026-08-05T08:52:49.000Z</time>
        <extensions>
          <ns3:TrackPointExtension>
            <ns3:hr>83</ns3:hr>
            <ns3:cad>47</ns3:cad>
          </ns3:TrackPointExtension>
        </extensions>
      </trkpt>
      <trkpt lat="43.4813149832189083099365234375" lon="1.45076737739145755767822265625">
        <ele>204.399993896484375</ele>
        <time>2026-08-05T08:52:50.000Z</time>
        <extensions>
          <ns3:TrackPointExtension>
            <ns3:hr>83</ns3:hr>
            <ns3:cad>47</ns3:cad>
          </ns3:TrackPointExtension>
        </extensions>
      </trkpt>
      <trkpt lat="43.48130442202091217041015625" lon="1.4507530443370342254638671875">
        <ele>204.399993896484375</ele>
        <time>2026-08-05T08:52:51.000Z</time>
        <extensions>
          <ns3:TrackPointExtension>
            <ns3:hr>83</ns3:hr>
            <ns3:cad>47</ns3:cad>
          </ns3:TrackPointExtension>
        </extensions>
      </trkpt>
      <trkpt lat="43.4812997281551361083984375" lon="1.4507429860532283782958984375">
        <ele>204.600006103515625</ele>
        <time>2026-08-05T08:52:52.000Z</time>
        <extensions>
          <ns3:TrackPointExtension>
            <ns3:hr>83</ns3:hr>
            <ns3:cad>47</ns3:cad>
          </ns3:TrackPointExtension>
        </extensions>
      </trkpt>
      <trkpt lat="43.48130173981189727783203125" lon="1.4507330954074859619140625">
        <ele>204.600006103515625</ele>
        <time>2026-08-05T08:52:53.000Z</time>
        <extensions>
          <ns3:TrackPointExtension>
            <ns3:hr>83</ns3:hr>
            <ns3:cad>47</ns3:cad>
          </ns3:TrackPointExtension>
        </extensions>
      </trkpt>
      <trkpt lat="43.48129427991807460784912109375" lon="1.4507201872766017913818359375">
        <ele>204.600006103515625</ele>
        <time>2026-08-05T08:52:54.000Z</time>
        <extensions>
          <ns3:TrackPointExtension>
            <ns3:hr>82</ns3:hr>
            <ns3:cad>47</ns3:cad>
          </ns3:TrackPointExtension>
        </extensions>
      </trkpt>
      <trkpt lat="43.48128656856715679168701171875" lon="1.4507040940225124359130859375">
        <ele>204.600006103515625</ele>
        <time>2026-08-05T08:52:55.000Z</time>
        <extensions>
          <ns3:TrackPointExtension>
            <ns3:hr>82</ns3:hr>
            <ns3:cad>47</ns3:cad>
          </ns3:TrackPointExtension>
        </extensions>
      </trkpt>
      <trkpt lat="43.48128019832074642181396484375" lon="1.45069462247192859649658203125">
        <ele>204.8000030517578125</ele>
        <time>2026-08-05T08:52:56.000Z</time>
        <extensions>
          <ns3:TrackPointExtension>
            <ns3:hr>82</ns3:hr>
            <ns3:cad>47</ns3:cad>
          </ns3:TrackPointExtension>
        </extensions>
      </trkpt>
      <trkpt lat="43.481273911893367767333984375" lon="1.45068037323653697967529296875">
        <ele>204.8000030517578125</ele>
        <time>2026-08-05T08:52:57.000Z</time>
        <extensions>
          <ns3:TrackPointExtension>
            <ns3:hr>82</ns3:hr>
            <ns3:cad>47</ns3:cad>
          </ns3:TrackPointExtension>
        </extensions>
      </trkpt>
      <trkpt lat="43.48126955330371856689453125" lon="1.45066796801984310150146484375">
        <ele>204.8000030517578125</ele>
        <time>2026-08-05T08:52:58.000Z</time>
        <extensions>
          <ns3:TrackPointExtension>
            <ns3:hr>83</ns3:hr>
            <ns3:cad>47</ns3:cad>
          </ns3:TrackPointExtension>
        </extensions>
      </trkpt>
      <trkpt lat="43.48126016557216644287109375" lon="1.45065690390765666961669921875">
        <ele>205</ele>
        <time>2026-08-05T08:52:59.000Z</time>
        <extensions>
          <ns3:TrackPointExtension>
            <ns3:hr>83</ns3:hr>
            <ns3:cad>47</ns3:cad>
          </ns3:TrackPointExtension>
        </extensions>
      </trkpt>
      <trkpt lat="43.48125211894512176513671875" lon="1.45064500160515308380126953125">
        <ele>205</ele>
        <time>2026-08-05T08:53:00.000Z</time>
        <extensions>
          <ns3:TrackPointExtension>
            <ns3:hr>83</ns3:hr>
            <ns3:cad>48</ns3:cad>
          </ns3:TrackPointExtension>
        </extensions>
      </trkpt>
      <trkpt lat="43.4812465868890285491943359375" lon="1.45063586533069610595703125">
        <ele>205</ele>
        <time>2026-08-05T08:53:01.000Z</time>
        <extensions>
          <ns3:TrackPointExtension>
            <ns3:hr>83</ns3:hr>
            <ns3:cad>49</ns3:cad>
          </ns3:TrackPointExtension>
        </extensions>
      </trkpt>
      <trkpt lat="43.48124214448034763336181640625" lon="1.45062538795173168182373046875">
        <ele>205.1999969482421875</ele>
        <time>2026-08-05T08:53:02.000Z</time>
        <extensions>
          <ns3:TrackPointExtension>
            <ns3:hr>83</ns3:hr>
            <ns3:cad>48</ns3:cad>
          </ns3:TrackPointExtension>
        </extensions>
      </trkpt>
      <trkpt lat="43.481234014034271240234375" lon="1.4506162516772747039794921875">
        <ele>205.1999969482421875</ele>
        <time>2026-08-05T08:53:03.000Z</time>
        <extensions>
          <ns3:TrackPointExtension>
            <ns3:hr>83</ns3:hr>
            <ns3:cad>47</ns3:cad>
          </ns3:TrackPointExtension>
        </extensions>
      </trkpt>
      <trkpt lat="43.4812273085117340087890625" lon="1.45060661248862743377685546875">
        <ele>205.1999969482421875</ele>
        <time>2026-08-05T08:53:04.000Z</time>
        <extensions>
          <ns3:TrackPointExtension>
            <ns3:hr>83</ns3:hr>
            <ns3:cad>47</ns3:cad>
          </ns3:TrackPointExtension>
        </extensions>
      </trkpt>
      <trkpt lat="43.4812231175601482391357421875" lon="1.4505971409380435943603515625">
        <ele>205.399993896484375</ele>
        <time>2026-08-05T08:53:05.000Z</time>
        <extensions>
          <ns3:TrackPointExtension>
            <ns3:hr>83</ns3:hr>
            <ns3:cad>47</ns3:cad>
          </ns3:TrackPointExtension>
        </extensions>
      </trkpt>
      <trkpt lat="43.48121850751340389251708984375" lon="1.4505864121019840240478515625">
        <ele>205.399993896484375</ele>
        <time>2026-08-05T08:53:06.000Z</time>
        <extensions>
          <ns3:TrackPointExtension>
            <ns3:hr>83</ns3:hr>
            <ns3:cad>46</ns3:cad>
          </ns3:TrackPointExtension>
        </extensions>
      </trkpt>
      <trkpt lat="43.48121180199086666107177734375" lon="1.4505733363330364227294921875">
        <ele>205.399993896484375</ele>
        <time>2026-08-05T08:53:07.000Z</time>
        <extensions>
          <ns3:TrackPointExtension>
            <ns3:hr>83</ns3:hr>
            <ns3:cad>45</ns3:cad>
          </ns3:TrackPointExtension>
        </extensions>
      </trkpt>
      <trkpt lat="43.481206186115741729736328125" lon="1.45056084729731082916259765625">
        <ele>205.600006103515625</ele>
        <time>2026-08-05T08:53:08.000Z</time>
        <extensions>
          <ns3:TrackPointExtension>
            <ns3:hr>84</ns3:hr>
            <ns3:cad>44</ns3:cad>
          </ns3:TrackPointExtension>
        </extensions>
      </trkpt>
      <trkpt lat="43.48120073787868022918701171875" lon="1.450548358261585235595703125">
        <ele>205.600006103515625</ele>
        <time>2026-08-05T08:53:09.000Z</time>
        <extensions>
          <ns3:TrackPointExtension>
            <ns3:hr>83</ns3:hr>
            <ns3:cad>43</ns3:cad>
          </ns3:TrackPointExtension>
        </extensions>
      </trkpt>
      <trkpt lat="43.4811959601938724517822265625" lon="1.4505357854068279266357421875">
        <ele>205.600006103515625</ele>
        <time>2026-08-05T08:53:10.000Z</time>
        <extensions>
          <ns3:TrackPointExtension>
            <ns3:hr>84</ns3:hr>
            <ns3:cad>44</ns3:cad>
          </ns3:TrackPointExtension>
        </extensions>
      </trkpt>
      <trkpt lat="43.48119067959487438201904296875" lon="1.450521536171436309814453125">
        <ele>205.8000030517578125</ele>
        <time>2026-08-05T08:53:11.000Z</time>
        <extensions>
          <ns3:TrackPointExtension>
            <ns3:hr>84</ns3:hr>
            <ns3:cad>44</ns3:cad>
          </ns3:TrackPointExtension>
        </extensions>
      </trkpt>
      <trkpt lat="43.48118514753878116607666015625" lon="1.45050770603120326995849609375">
        <ele>205.8000030517578125</ele>
        <time>2026-08-05T08:53:12.000Z</time>
        <extensions>
          <ns3:TrackPointExtension>
            <ns3:hr>84</ns3:hr>
            <ns3:cad>45</ns3:cad>
          </ns3:TrackPointExtension>
        </extensions>
      </trkpt>
      <trkpt lat="43.48117894493043422698974609375" lon="1.45049731247127056121826171875">
        <ele>205.8000030517578125</ele>
        <time>2026-08-05T08:53:13.000Z</time>
        <extensions>
          <ns3:TrackPointExtension>
            <ns3:hr>85</ns3:hr>
            <ns3:cad>46</ns3:cad>
          </ns3:TrackPointExtension>
        </extensions>
      </trkpt>
      <trkpt lat="43.4811745025217533111572265625" lon="1.450486667454242706298828125">
        <ele>206</ele>
        <time>2026-08-05T08:53:14.000Z</time>
        <extensions>
          <ns3:TrackPointExtension>
            <ns3:hr>85</ns3:hr>
            <ns3:cad>46</ns3:cad>
          </ns3:TrackPointExtension>
        </extensions>
      </trkpt>
      <trkpt lat="43.481169305741786956787109375" lon="1.45047627389430999755859375">
        <ele>206</ele>
        <time>2026-08-05T08:53:15.000Z</time>
        <extensions>
          <ns3:TrackPointExtension>
            <ns3:hr>85</ns3:hr>
            <ns3:cad>46</ns3:cad>
          </ns3:TrackPointExtension>
        </extensions>
      </trkpt>
      <trkpt lat="43.48116419278085231781005859375" lon="1.45046378485858440399169921875">
        <ele>206</ele>
        <time>2026-08-05T08:53:16.000Z</time>
        <extensions>
          <ns3:TrackPointExtension>
            <ns3:hr>86</ns3:hr>
            <ns3:cad>46</ns3:cad>
          </ns3:TrackPointExtension>
        </extensions>
      </trkpt>
      <trkpt lat="43.48115782253444194793701171875" lon="1.45045439712703227996826171875">
        <ele>206</ele>
        <time>2026-08-05T08:53:17.000Z</time>
        <extensions>
          <ns3:TrackPointExtension>
            <ns3:hr>86</ns3:hr>
            <ns3:cad>46</ns3:cad>
          </ns3:TrackPointExtension>
        </extensions>
      </trkpt>
      <trkpt lat="43.48115413449704647064208984375" lon="1.45043947733938694000244140625">
        <ele>206.1999969482421875</ele>
        <time>2026-08-05T08:53:18.000Z</time>
        <extensions>
          <ns3:TrackPointExtension>
            <ns3:hr>86</ns3:hr>
            <ns3:cad>45</ns3:cad>
          </ns3:TrackPointExtension>
        </extensions>
      </trkpt>
      <trkpt lat="43.48114910535514354705810546875" lon="1.45042397081851959228515625">
        <ele>206.1999969482421875</ele>
        <time>2026-08-05T08:53:19.000Z</time>
        <extensions>
          <ns3:TrackPointExtension>
            <ns3:hr>85</ns3:hr>
            <ns3:cad>45</ns3:cad>
          </ns3:TrackPointExtension>
        </extensions>
      </trkpt>
      <trkpt lat="43.48114357329905033111572265625" lon="1.45041299052536487579345703125">
        <ele>206.1999969482421875</ele>
        <time>2026-08-05T08:53:20.000Z</time>
        <extensions>
          <ns3:TrackPointExtension>
            <ns3:hr>86</ns3:hr>
            <ns3:cad>45</ns3:cad>
          </ns3:TrackPointExtension>
        </extensions>
      </trkpt>
      <trkpt lat="43.4811369515955448150634765625" lon="1.45039857365190982818603515625">
        <ele>206.399993896484375</ele>
        <time>2026-08-05T08:53:21.000Z</time>
        <extensions>
          <ns3:TrackPointExtension>
            <ns3:hr>86</ns3:hr>
            <ns3:cad>45</ns3:cad>
          </ns3:TrackPointExtension>
        </extensions>
      </trkpt>
      <trkpt lat="43.481129743158817291259765625" lon="1.4503899402916431427001953125">
        <ele>206.399993896484375</ele>
        <time>2026-08-05T08:53:22.000Z</time>
        <extensions>
          <ns3:TrackPointExtension>
            <ns3:hr>86</ns3:hr>
            <ns3:cad>45</ns3:cad>
          </ns3:TrackPointExtension>
        </extensions>
      </trkpt>
      <trkpt lat="43.481125719845294952392578125" lon="1.4503792114555835723876953125">
        <ele>206.600006103515625</ele>
        <time>2026-08-05T08:53:23.000Z</time>
        <extensions>
          <ns3:TrackPointExtension>
            <ns3:hr>86</ns3:hr>
            <ns3:cad>45</ns3:cad>
          </ns3:TrackPointExtension>
        </extensions>
      </trkpt>
      <trkpt lat="43.48111934959888458251953125" lon="1.4503698237240314483642578125">
        <ele>206.600006103515625</ele>
        <time>2026-08-05T08:53:24.000Z</time>
        <extensions>
          <ns3:TrackPointExtension>
            <ns3:hr>86</ns3:hr>
            <ns3:cad>47</ns3:cad>
          </ns3:TrackPointExtension>
        </extensions>
      </trkpt>
      <trkpt lat="43.481110967695713043212890625" lon="1.450358591973781585693359375">
        <ele>206.8000030517578125</ele>
        <time>2026-08-05T08:53:25.000Z</time>
        <extensions>
          <ns3:TrackPointExtension>
            <ns3:hr>86</ns3:hr>
            <ns3:cad>47</ns3:cad>
          </ns3:TrackPointExtension>
        </extensions>
      </trkpt>
      <trkpt lat="43.481105603277683258056640625" lon="1.45034752786159515380859375">
        <ele>206.8000030517578125</ele>
        <time>2026-08-05T08:53:26.000Z</time>
        <extensions>
          <ns3:TrackPointExtension>
            <ns3:hr>86</ns3:hr>
            <ns3:cad>47</ns3:cad>
          </ns3:TrackPointExtension>
        </extensions>
      </trkpt>
      <trkpt lat="43.4811000712215900421142578125" lon="1.45033738575875759124755859375">
        <ele>206.8000030517578125</ele>
        <time>2026-08-05T08:53:27.000Z</time>
        <extensions>
          <ns3:TrackPointExtension>
            <ns3:hr>86</ns3:hr>
            <ns3:cad>48</ns3:cad>
          </ns3:TrackPointExtension>
        </extensions>
      </trkpt>
      <trkpt lat="43.481094539165496826171875" lon="1.4503280818462371826171875">
        <ele>206.8000030517578125</ele>
        <time>2026-08-05T08:53:28.000Z</time>
        <extensions>
          <ns3:TrackPointExtension>
            <ns3:hr>87</ns3:hr>
            <ns3:cad>49</ns3:cad>
          </ns3:TrackPointExtension>
        </extensions>
      </trkpt>
      <trkpt lat="43.48108640871942043304443359375" lon="1.45031542517244815826416015625">
        <ele>206.8000030517578125</ele>
        <time>2026-08-05T08:53:29.000Z</time>
        <extensions>
          <ns3:TrackPointExtension>
            <ns3:hr>87</ns3:hr>
            <ns3:cad>49</ns3:cad>
          </ns3:TrackPointExtension>
        </extensions>
      </trkpt>
      <trkpt lat="43.4810789488255977630615234375" lon="1.4503037743270397186279296875">
        <ele>207</ele>
        <time>2026-08-05T08:53:30.000Z</time>
        <extensions>
          <ns3:TrackPointExtension>
            <ns3:hr>87</ns3:hr>
            <ns3:cad>48</ns3:cad>
          </ns3:TrackPointExtension>
        </extensions>
      </trkpt>
      <trkpt lat="43.481072075664997100830078125" lon="1.450291536748409271240234375">
        <ele>207</ele>
        <time>2026-08-05T08:53:31.000Z</time>
        <extensions>
          <ns3:TrackPointExtension>
            <ns3:hr>87</ns3:hr>
            <ns3:cad>48</ns3:cad>
          </ns3:TrackPointExtension>
        </extensions>
      </trkpt>
      <trkpt lat="43.4810658730566501617431640625" lon="1.45027653314173221588134765625">
        <ele>207.1999969482421875</ele>
        <time>2026-08-05T08:53:32.000Z</time>
        <extensions>
          <ns3:TrackPointExtension>
            <ns3:hr>87</ns3:hr>
            <ns3:cad>47</ns3:cad>
          </ns3:TrackPointExtension>
        </extensions>
      </trkpt>
      <trkpt lat="43.48106034100055694580078125" lon="1.4502642117440700531005859375">
        <ele>207.1999969482421875</ele>
        <time>2026-08-05T08:53:33.000Z</time>
        <extensions>
          <ns3:TrackPointExtension>
            <ns3:hr>87</ns3:hr>
            <ns3:cad>47</ns3:cad>
          </ns3:TrackPointExtension>
        </extensions>
      </trkpt>
      <trkpt lat="43.48105405457317829132080078125" lon="1.45025105215609073638916015625">
        <ele>207.399993896484375</ele>
        <time>2026-08-05T08:53:34.000Z</time>
        <extensions>
          <ns3:TrackPointExtension>
            <ns3:hr>87</ns3:hr>
            <ns3:cad>47</ns3:cad>
          </ns3:TrackPointExtension>
        </extensions>
      </trkpt>
      <trkpt lat="43.4810474328696727752685546875" lon="1.45023713819682598114013671875">
        <ele>207.399993896484375</ele>
        <time>2026-08-05T08:53:35.000Z</time>
        <extensions>
          <ns3:TrackPointExtension>
            <ns3:hr>87</ns3:hr>
            <ns3:cad>47</ns3:cad>
          </ns3:TrackPointExtension>
        </extensions>
      </trkpt>
      <trkpt lat="43.48104290664196014404296875" lon="1.45022414624691009521484375">
        <ele>207.600006103515625</ele>
        <time>2026-08-05T08:53:36.000Z</time>
        <extensions>
          <ns3:TrackPointExtension>
            <ns3:hr>88</ns3:hr>
            <ns3:cad>48</ns3:cad>
          </ns3:TrackPointExtension>
        </extensions>
      </trkpt>
      <trkpt lat="43.481039218604564666748046875" lon="1.450209729373455047607421875">
        <ele>207.600006103515625</ele>
        <time>2026-08-05T08:53:37.000Z</time>
        <extensions>
          <ns3:TrackPointExtension>
            <ns3:hr>88</ns3:hr>
            <ns3:cad>48</ns3:cad>
          </ns3:TrackPointExtension>
        </extensions>
      </trkpt>
      <trkpt lat="43.4810373745858669281005859375" lon="1.45019422285258769989013671875">
        <ele>207.8000030517578125</ele>
        <time>2026-08-05T08:53:38.000Z</time>
        <extensions>
          <ns3:TrackPointExtension>
            <ns3:hr>89</ns3:hr>
            <ns3:cad>48</ns3:cad>
          </ns3:TrackPointExtension>
        </extensions>
      </trkpt>
      <trkpt lat="43.4810316748917102813720703125" lon="1.45017854869365692138671875">
        <ele>207.8000030517578125</ele>
        <time>2026-08-05T08:53:39.000Z</time>
        <extensions>
          <ns3:TrackPointExtension>
            <ns3:hr>90</ns3:hr>
            <ns3:cad>48</ns3:cad>
          </ns3:TrackPointExtension>
        </extensions>
      </trkpt>
      <trkpt lat="43.48102547228336334228515625" lon="1.45016019232571125030517578125">
        <ele>208</ele>
        <time>2026-08-05T08:53:40.000Z</time>
        <extensions>
          <ns3:TrackPointExtension>
            <ns3:hr>90</ns3:hr>
            <ns3:cad>48</ns3:cad>
          </ns3:TrackPointExtension>
        </extensions>
      </trkpt>
      <trkpt lat="43.481020443141460418701171875" lon="1.4501438476145267486572265625">
        <ele>208</ele>
        <time>2026-08-05T08:53:41.000Z</time>
        <extensions>
          <ns3:TrackPointExtension>
            <ns3:hr>91</ns3:hr>
            <ns3:cad>48</ns3:cad>
          </ns3:TrackPointExtension>
        </extensions>
      </trkpt>
      <trkpt lat="43.481017090380191802978515625" lon="1.45013052038848400115966796875">
        <ele>208.1999969482421875</ele>
        <time>2026-08-05T08:53:42.000Z</time>
        <extensions>
          <ns3:TrackPointExtension>
            <ns3:hr>91</ns3:hr>
            <ns3:cad>48</ns3:cad>
          </ns3:TrackPointExtension>
        </extensions>
      </trkpt>
      <trkpt lat="43.4810149110853672027587890625" lon="1.450117863714694976806640625">
        <ele>208.1999969482421875</ele>
        <time>2026-08-05T08:53:43.000Z</time>
        <extensions>
          <ns3:TrackPointExtension>
            <ns3:hr>92</ns3:hr>
            <ns3:cad>48</ns3:cad>
          </ns3:TrackPointExtension>
        </extensions>
      </trkpt>
      <trkpt lat="43.48101180978119373321533203125" lon="1.4501027762889862060546875">
        <ele>208.1999969482421875</ele>
        <time>2026-08-05T08:53:44.000Z</time>
        <extensions>
          <ns3:TrackPointExtension>
            <ns3:hr>92</ns3:hr>
            <ns3:cad>48</ns3:cad>
          </ns3:TrackPointExtension>
        </extensions>
      </trkpt>
      <trkpt lat="43.48100912757217884063720703125" lon="1.45008961670100688934326171875">
        <ele>208.399993896484375</ele>
        <time>2026-08-05T08:53:45.000Z</time>
        <extensions>
          <ns3:TrackPointExtension>
            <ns3:hr>92</ns3:hr>
            <ns3:cad>48</ns3:cad>
          </ns3:TrackPointExtension>
        </extensions>
      </trkpt>
      <trkpt lat="43.48100611008703708648681640625" lon="1.450078971683979034423828125">
        <ele>208.399993896484375</ele>
        <time>2026-08-05T08:53:46.000Z</time>
        <extensions>
          <ns3:TrackPointExtension>
            <ns3:hr>92</ns3:hr>
            <ns3:cad>48</ns3:cad>
          </ns3:TrackPointExtension>
        </extensions>
      </trkpt>
      <trkpt lat="43.4810025058686733245849609375" lon="1.45006597973406314849853515625">
        <ele>208.600006103515625</ele>
        <time>2026-08-05T08:53:47.000Z</time>
        <extensions>
          <ns3:TrackPointExtension>
            <ns3:hr>92</ns3:hr>
            <ns3:cad>48</ns3:cad>
          </ns3:TrackPointExtension>
        </extensions>
      </trkpt>
      <trkpt lat="43.4810008294880390167236328125" lon="1.45005248486995697021484375">
        <ele>208.600006103515625</ele>
        <time>2026-08-05T08:53:48.000Z</time>
        <extensions>
          <ns3:TrackPointExtension>
            <ns3:hr>93</ns3:hr>
            <ns3:cad>48</ns3:cad>
          </ns3:TrackPointExtension>
        </extensions>
      </trkpt>
      <trkpt lat="43.48099873401224613189697265625" lon="1.4500429295003414154052734375">
        <ele>208.8000030517578125</ele>
        <time>2026-08-05T08:53:49.000Z</time>
        <extensions>
          <ns3:TrackPointExtension>
            <ns3:hr>93</ns3:hr>
            <ns3:cad>48</ns3:cad>
          </ns3:TrackPointExtension>
        </extensions>
      </trkpt>
      <trkpt lat="43.48099571652710437774658203125" lon="1.4500305242836475372314453125">
        <ele>209</ele>
        <time>2026-08-05T08:53:50.000Z</time>
        <extensions>
          <ns3:TrackPointExtension>
            <ns3:hr>93</ns3:hr>
            <ns3:cad>48</ns3:cad>
          </ns3:TrackPointExtension>
        </extensions>
      </trkpt>
      <trkpt lat="43.4809894300997257232666015625" lon="1.450015939772129058837890625">
        <ele>209</ele>
        <time>2026-08-05T08:53:51.000Z</time>
        <extensions>
          <ns3:TrackPointExtension>
            <ns3:hr>93</ns3:hr>
            <ns3:cad>48</ns3:cad>
          </ns3:TrackPointExtension>
        </extensions>
      </trkpt>
      <trkpt lat="43.4809880889952182769775390625" lon="1.45000210963189601898193359375">
        <ele>209.1999969482421875</ele>
        <time>2026-08-05T08:53:52.000Z</time>
        <extensions>
          <ns3:TrackPointExtension>
            <ns3:hr>93</ns3:hr>
            <ns3:cad>48</ns3:cad>
          </ns3:TrackPointExtension>
        </extensions>
      </trkpt>
      <trkpt lat="43.480985574424266815185546875" lon="1.44998115487396717071533203125">
        <ele>209.1999969482421875</ele>
        <time>2026-08-05T08:53:53.000Z</time>
        <extensions>
          <ns3:TrackPointExtension>
            <ns3:hr>93</ns3:hr>
            <ns3:cad>47</ns3:cad>
          </ns3:TrackPointExtension>
        </extensions>
      </trkpt>
      <trkpt lat="43.48098431713879108428955078125" lon="1.44996573217213153839111328125">
        <ele>209.399993896484375</ele>
        <time>2026-08-05T08:53:54.000Z</time>
        <extensions>
          <ns3:TrackPointExtension>
            <ns3:hr>93</ns3:hr>
            <ns3:cad>47</ns3:cad>
          </ns3:TrackPointExtension>
        </extensions>
      </trkpt>
      <trkpt lat="43.48098532296717166900634765625" lon="1.44995198585093021392822265625">
        <ele>209.399993896484375</ele>
        <time>2026-08-05T08:53:55.000Z</time>
        <extensions>
          <ns3:TrackPointExtension>
            <ns3:hr>93</ns3:hr>
            <ns3:cad>47</ns3:cad>
          </ns3:TrackPointExtension>
        </extensions>
      </trkpt>
      <trkpt lat="43.48098398186266422271728515625" lon="1.4499430172145366668701171875">
        <ele>209.399993896484375</ele>
        <time>2026-08-05T08:53:56.000Z</time>
        <extensions>
          <ns3:TrackPointExtension>
            <ns3:hr>93</ns3:hr>
            <ns3:cad>47</ns3:cad>
          </ns3:TrackPointExtension>
        </extensions>
      </trkpt>
      <trkpt lat="43.48098398186266422271728515625" lon="1.44993312656879425048828125">
        <ele>209.600006103515625</ele>
        <time>2026-08-05T08:53:57.000Z</time>
        <extensions>
          <ns3:TrackPointExtension>
            <ns3:hr>94</ns3:hr>
            <ns3:cad>46</ns3:cad>
          </ns3:TrackPointExtension>
        </extensions>
      </trkpt>
      <trkpt lat="43.48098456859588623046875" lon="1.449922733008861541748046875">
        <ele>209.600006103515625</ele>
        <time>2026-08-05T08:53:58.000Z</time>
        <extensions>
          <ns3:TrackPointExtension>
            <ns3:hr>94</ns3:hr>
            <ns3:cad>46</ns3:cad>
          </ns3:TrackPointExtension>
        </extensions>
      </trkpt>
      <trkpt lat="43.480980210006237030029296875" lon="1.4499088190495967864990234375">
        <ele>209.8000030517578125</ele>
        <time>2026-08-05T08:53:59.000Z</time>
        <extensions>
          <ns3:TrackPointExtension>
            <ns3:hr>94</ns3:hr>
            <ns3:cad>46</ns3:cad>
          </ns3:TrackPointExtension>
        </extensions>
      </trkpt>
      <trkpt lat="43.48097945563495159149169921875" lon="1.449899263679981231689453125">
        <ele>209.8000030517578125</ele>
        <time>2026-08-05T08:54:00.000Z</time>
        <extensions>
          <ns3:TrackPointExtension>
            <ns3:hr>94</ns3:hr>
            <ns3:cad>45</ns3:cad>
          </ns3:TrackPointExtension>
        </extensions>
      </trkpt>
      <trkpt lat="43.48097694106400012969970703125" lon="1.44988778047263622283935546875">
        <ele>210</ele>
        <time>2026-08-05T08:54:01.000Z</time>
        <extensions>
          <ns3:TrackPointExtension>
            <ns3:hr>94</ns3:hr>
            <ns3:cad>45</ns3:cad>
          </ns3:TrackPointExtension>
        </extensions>
      </trkpt>
      <trkpt lat="43.48097316920757293701171875" lon="1.4498739503324031829833984375">
        <ele>210</ele>
        <time>2026-08-05T08:54:02.000Z</time>
        <extensions>
          <ns3:TrackPointExtension>
            <ns3:hr>94</ns3:hr>
            <ns3:cad>45</ns3:cad>
          </ns3:TrackPointExtension>
        </extensions>
      </trkpt>
      <trkpt lat="43.48096721805632114410400390625" lon="1.44986079074442386627197265625">
        <ele>210.1999969482421875</ele>
        <time>2026-08-05T08:54:03.000Z</time>
        <extensions>
          <ns3:TrackPointExtension>
            <ns3:hr>95</ns3:hr>
            <ns3:cad>45</ns3:cad>
          </ns3:TrackPointExtension>
        </extensions>
      </trkpt>
      <trkpt lat="43.480964787304401397705078125" lon="1.4498467929661273956298828125">
        <ele>210.1999969482421875</ele>
        <time>2026-08-05T08:54:04.000Z</time>
        <extensions>
          <ns3:TrackPointExtension>
            <ns3:hr>95</ns3:hr>
            <ns3:cad>45</ns3:cad>
          </ns3:TrackPointExtension>
        </extensions>
      </trkpt>
      <trkpt lat="43.48096311092376708984375" lon="1.449837572872638702392578125">
        <ele>210.399993896484375</ele>
        <time>2026-08-05T08:54:05.000Z</time>
        <extensions>
          <ns3:TrackPointExtension>
            <ns3:hr>95</ns3:hr>
            <ns3:cad>47</ns3:cad>
          </ns3:TrackPointExtension>
        </extensions>
      </trkpt>
      <trkpt lat="43.4809599258005619049072265625" lon="1.449823491275310516357421875">
        <ele>210.399993896484375</ele>
        <time>2026-08-05T08:54:06.000Z</time>
        <extensions>
          <ns3:TrackPointExtension>
            <ns3:hr>96</ns3:hr>
            <ns3:cad>48</ns3:cad>
          </ns3:TrackPointExtension>
        </extensions>
      </trkpt>
      <trkpt lat="43.48095833323895931243896484375" lon="1.4498077332973480224609375">
        <ele>210.600006103515625</ele>
        <time>2026-08-05T08:54:07.000Z</time>
        <extensions>
          <ns3:TrackPointExtension>
            <ns3:hr>96</ns3:hr>
            <ns3:cad>48</ns3:cad>
          </ns3:TrackPointExtension>
        </extensions>
      </trkpt>
      <trkpt lat="43.48095598630607128143310546875" lon="1.44979222677648067474365234375">
        <ele>210.600006103515625</ele>
        <time>2026-08-05T08:54:08.000Z</time>
        <extensions>
          <ns3:TrackPointExtension>
            <ns3:hr>97</ns3:hr>
            <ns3:cad>48</ns3:cad>
          </ns3:TrackPointExtension>
        </extensions>
      </trkpt>
      <trkpt lat="43.480955064296722412109375" lon="1.44977965392172336578369140625">
        <ele>210.8000030517578125</ele>
        <time>2026-08-05T08:54:09.000Z</time>
        <extensions>
          <ns3:TrackPointExtension>
            <ns3:hr>97</ns3:hr>
            <ns3:cad>48</ns3:cad>
          </ns3:TrackPointExtension>
        </extensions>
      </trkpt>
      <trkpt lat="43.4809559024870395660400390625" lon="1.4497676678001880645751953125">
        <ele>210.8000030517578125</ele>
        <time>2026-08-05T08:54:10.000Z</time>
        <extensions>
          <ns3:TrackPointExtension>
            <ns3:hr>97</ns3:hr>
            <ns3:cad>48</ns3:cad>
          </ns3:TrackPointExtension>
        </extensions>
      </trkpt>
      <trkpt lat="43.48095648922026157379150390625" lon="1.4497562684118747711181640625">
        <ele>211</ele>
        <time>2026-08-05T08:54:11.000Z</time>
        <extensions>
          <ns3:TrackPointExtension>
            <ns3:hr>97</ns3:hr>
            <ns3:cad>47</ns3:cad>
          </ns3:TrackPointExtension>
        </extensions>
      </trkpt>
      <trkpt lat="43.48095464520156383514404296875" lon="1.44974000751972198486328125">
        <ele>211</ele>
        <time>2026-08-05T08:54:12.000Z</time>
        <extensions>
          <ns3:TrackPointExtension>
            <ns3:hr>98</ns3:hr>
            <ns3:cad>47</ns3:cad>
          </ns3:TrackPointExtension>
        </extensions>
      </trkpt>
      <trkpt lat="43.48095305263996124267578125" lon="1.44972483627498149871826171875">
        <ele>211.1999969482421875</ele>
        <time>2026-08-05T08:54:13.000Z</time>
        <extensions>
          <ns3:TrackPointExtension>
            <ns3:hr>97</ns3:hr>
            <ns3:cad>48</ns3:cad>
          </ns3:TrackPointExtension>
        </extensions>
      </trkpt>
      <trkpt lat="43.48095347173511981964111328125" lon="1.44970916211605072021484375">
        <ele>211.1999969482421875</ele>
        <time>2026-08-05T08:54:14.000Z</time>
        <extensions>
          <ns3:TrackPointExtension>
            <ns3:hr>97</ns3:hr>
            <ns3:cad>49</ns3:cad>
          </ns3:TrackPointExtension>
        </extensions>
      </trkpt>
      <trkpt lat="43.48095430992543697357177734375" lon="1.4496945776045322418212890625">
        <ele>211.399993896484375</ele>
        <time>2026-08-05T08:54:15.000Z</time>
        <extensions>
          <ns3:TrackPointExtension>
            <ns3:hr>97</ns3:hr>
            <ns3:cad>49</ns3:cad>
          </ns3:TrackPointExtension>
        </extensions>
      </trkpt>
      <trkpt lat="43.4809572435915470123291015625" lon="1.44967689178884029388427734375">
        <ele>211.600006103515625</ele>
        <time>2026-08-05T08:54:16.000Z</time>
        <extensions>
          <ns3:TrackPointExtension>
            <ns3:hr>97</ns3:hr>
            <ns3:cad>49</ns3:cad>
          </ns3:TrackPointExtension>
        </extensions>
      </trkpt>
      <trkpt lat="43.48095699213445186614990234375" lon="1.44965979270637035369873046875">
        <ele>211.600006103515625</ele>
        <time>2026-08-05T08:54:17.000Z</time>
        <extensions>
          <ns3:TrackPointExtension>
            <ns3:hr>97</ns3:hr>
            <ns3:cad>49</ns3:cad>
          </ns3:TrackPointExtension>
        </extensions>
      </trkpt>
      <trkpt lat="43.48095833323895931243896484375" lon="1.44964202307164669036865234375">
        <ele>211.8000030517578125</ele>
        <time>2026-08-05T08:54:18.000Z</time>
        <extensions>
          <ns3:TrackPointExtension>
            <ns3:hr>97</ns3:hr>
            <ns3:cad>49</ns3:cad>
          </ns3:TrackPointExtension>
        </extensions>
      </trkpt>
      <trkpt lat="43.48095447756350040435791015625" lon="1.44962735474109649658203125">
        <ele>211.8000030517578125</ele>
        <time>2026-08-05T08:54:19.000Z</time>
        <extensions>
          <ns3:TrackPointExtension>
            <ns3:hr>98</ns3:hr>
            <ns3:cad>49</ns3:cad>
          </ns3:TrackPointExtension>
        </extensions>
      </trkpt>
      <trkpt lat="43.48095573484897613525390625" lon="1.44961838610470294952392578125">
        <ele>212</ele>
        <time>2026-08-05T08:54:20.000Z</time>
        <extensions>
          <ns3:TrackPointExtension>
            <ns3:hr>97</ns3:hr>
            <ns3:cad>48</ns3:cad>
          </ns3:TrackPointExtension>
        </extensions>
      </trkpt>
      <trkpt lat="43.4809552319347858428955078125" lon="1.449602544307708740234375">
        <ele>212.1999969482421875</ele>
        <time>2026-08-05T08:54:21.000Z</time>
        <extensions>
          <ns3:TrackPointExtension>
            <ns3:hr>97</ns3:hr>
            <ns3:cad>47</ns3:cad>
          </ns3:TrackPointExtension>
        </extensions>
      </trkpt>
      <trkpt lat="43.48095548339188098907470703125" lon="1.44958971999585628509521484375">
        <ele>212.1999969482421875</ele>
        <time>2026-08-05T08:54:22.000Z</time>
        <extensions>
          <ns3:TrackPointExtension>
            <ns3:hr>98</ns3:hr>
            <ns3:cad>47</ns3:cad>
          </ns3:TrackPointExtension>
        </extensions>
      </trkpt>
      <trkpt lat="43.4809538908302783966064453125" lon="1.44957580603659152984619140625">
        <ele>212.1999969482421875</ele>
        <time>2026-08-05T08:54:23.000Z</time>
        <extensions>
          <ns3:TrackPointExtension>
            <ns3:hr>97</ns3:hr>
            <ns3:cad>47</ns3:cad>
          </ns3:TrackPointExtension>
        </extensions>
      </trkpt>
      <trkpt lat="43.480952717363834381103515625" lon="1.44955954514443874359130859375">
        <ele>212.399993896484375</ele>
        <time>2026-08-05T08:54:24.000Z</time>
        <extensions>
          <ns3:TrackPointExtension>
            <ns3:hr>97</ns3:hr>
            <ns3:cad>47</ns3:cad>
          </ns3:TrackPointExtension>
        </extensions>
      </trkpt>
      <trkpt lat="43.4809535555541515350341796875" lon="1.4495448768138885498046875">
        <ele>212.600006103515625</ele>
        <time>2026-08-05T08:54:25.000Z</time>
        <extensions>
          <ns3:TrackPointExtension>
            <ns3:hr>98</ns3:hr>
            <ns3:cad>48</ns3:cad>
          </ns3:TrackPointExtension>
        </extensions>
      </trkpt>
      <trkpt lat="43.480951376259326934814453125" lon="1.4495269395411014556884765625">
        <ele>212.600006103515625</ele>
        <time>2026-08-05T08:54:26.000Z</time>
        <extensions>
          <ns3:TrackPointExtension>
            <ns3:hr>98</ns3:hr>
            <ns3:cad>48</ns3:cad>
          </ns3:TrackPointExtension>
        </extensions>
      </trkpt>
      <trkpt lat="43.4809483587741851806640625" lon="1.4495081640779972076416015625">
        <ele>212.8000030517578125</ele>
        <time>2026-08-05T08:54:27.000Z</time>
        <extensions>
          <ns3:TrackPointExtension>
            <ns3:hr>98</ns3:hr>
            <ns3:cad>48</ns3:cad>
          </ns3:TrackPointExtension>
        </extensions>
      </trkpt>
      <trkpt lat="43.4809441678225994110107421875" lon="1.4494890533387660980224609375">
        <ele>212.8000030517578125</ele>
        <time>2026-08-05T08:54:28.000Z</time>
        <extensions>
          <ns3:TrackPointExtension>
            <ns3:hr>97</ns3:hr>
            <ns3:cad>48</ns3:cad>
          </ns3:TrackPointExtension>
        </extensions>
      </trkpt>
      <trkpt lat="43.48094240762293338775634765625" lon="1.449472121894359588623046875">
        <ele>213</ele>
        <time>2026-08-05T08:54:29.000Z</time>
        <extensions>
          <ns3:TrackPointExtension>
            <ns3:hr>98</ns3:hr>
            <ns3:cad>47</ns3:cad>
          </ns3:TrackPointExtension>
        </extensions>
      </trkpt>
      <trkpt lat="43.48094232380390167236328125" lon="1.4494635723531246185302734375">
        <ele>213</ele>
        <time>2026-08-05T08:54:30.000Z</time>
        <extensions>
          <ns3:TrackPointExtension>
            <ns3:hr>98</ns3:hr>
            <ns3:cad>47</ns3:cad>
          </ns3:TrackPointExtension>
        </extensions>
      </trkpt>
      <trkpt lat="43.48094391636550426483154296875" lon="1.44945544190704822540283203125">
        <ele>213.1999969482421875</ele>
        <time>2026-08-05T08:54:31.000Z</time>
        <extensions>
          <ns3:TrackPointExtension>
            <ns3:hr>98</ns3:hr>
            <ns3:cad>47</ns3:cad>
          </ns3:TrackPointExtension>
        </extensions>
      </trkpt>
      <trkpt lat="43.48094257526099681854248046875" lon="1.44943616352975368499755859375">
        <ele>213.1999969482421875</ele>
        <time>2026-08-05T08:54:32.000Z</time>
        <extensions>
          <ns3:TrackPointExtension>
            <ns3:hr>98</ns3:hr>
            <ns3:cad>47</ns3:cad>
          </ns3:TrackPointExtension>
        </extensions>
      </trkpt>
      <trkpt lat="43.480938635766506195068359375" lon="1.44941571168601512908935546875">
        <ele>213.399993896484375</ele>
        <time>2026-08-05T08:54:33.000Z</time>
        <extensions>
          <ns3:TrackPointExtension>
            <ns3:hr>98</ns3:hr>
            <ns3:cad>47</ns3:cad>
          </ns3:TrackPointExtension>
        </extensions>
      </trkpt>
      <trkpt lat="43.480935953557491302490234375" lon="1.4493978582322597503662109375">
        <ele>213.399993896484375</ele>
        <time>2026-08-05T08:54:34.000Z</time>
        <extensions>
          <ns3:TrackPointExtension>
            <ns3:hr>98</ns3:hr>
            <ns3:cad>48</ns3:cad>
          </ns3:TrackPointExtension>
        </extensions>
      </trkpt>
      <trkpt lat="43.48093561828136444091796875" lon="1.4493844471871852874755859375">
        <ele>213.600006103515625</ele>
        <time>2026-08-05T08:54:35.000Z</time>
        <extensions>
          <ns3:TrackPointExtension>
            <ns3:hr>99</ns3:hr>
            <ns3:cad>48</ns3:cad>
          </ns3:TrackPointExtension>
        </extensions>
      </trkpt>
      <trkpt lat="43.48093603737652301788330078125" lon="1.44937464036047458648681640625">
        <ele>213.600006103515625</ele>
        <time>2026-08-05T08:54:36.000Z</time>
        <extensions>
          <ns3:TrackPointExtension>
            <ns3:hr>100</ns3:hr>
            <ns3:cad>48</ns3:cad>
          </ns3:TrackPointExtension>
        </extensions>
      </trkpt>
      <trkpt lat="43.48093637265264987945556640625" lon="1.44935620017349720001220703125">
        <ele>213.600006103515625</ele>
        <time>2026-08-05T08:54:37.000Z</time>
        <extensions>
          <ns3:TrackPointExtension>
            <ns3:hr>100</ns3:hr>
            <ns3:cad>48</ns3:cad>
          </ns3:TrackPointExtension>
        </extensions>
      </trkpt>
      <trkpt lat="43.48093369044363498687744140625" lon="1.44933759234845638275146484375">
        <ele>213.8000030517578125</ele>
        <time>2026-08-05T08:54:38.000Z</time>
        <extensions>
          <ns3:TrackPointExtension>
            <ns3:hr>100</ns3:hr>
            <ns3:cad>50</ns3:cad>
          </ns3:TrackPointExtension>
        </extensions>
      </trkpt>
      <trkpt lat="43.48093084059655666351318359375" lon="1.44932049326598644256591796875">
        <ele>214</ele>
        <time>2026-08-05T08:54:39.000Z</time>
        <extensions>
          <ns3:TrackPointExtension>
            <ns3:hr>101</ns3:hr>
            <ns3:cad>50</ns3:cad>
          </ns3:TrackPointExtension>
        </extensions>
      </trkpt>
      <trkpt lat="43.48093436099588871002197265625" lon="1.44930473528802394866943359375">
        <ele>214</ele>
        <time>2026-08-05T08:54:40.000Z</time>
        <extensions>
          <ns3:TrackPointExtension>
            <ns3:hr>101</ns3:hr>
            <ns3:cad>50</ns3:cad>
          </ns3:TrackPointExtension>
        </extensions>
      </trkpt>
      <trkpt lat="43.48093536682426929473876953125" lon="1.4492945931851863861083984375">
        <ele>214.1999969482421875</ele>
        <time>2026-08-05T08:54:41.000Z</time>
        <extensions>
          <ns3:TrackPointExtension>
            <ns3:hr>101</ns3:hr>
            <ns3:cad>49</ns3:cad>
          </ns3:TrackPointExtension>
        </extensions>
      </trkpt>
      <trkpt lat="43.4809357859194278717041015625" lon="1.4492778293788433074951171875">
        <ele>214.399993896484375</ele>
        <time>2026-08-05T08:54:42.000Z</time>
        <extensions>
          <ns3:TrackPointExtension>
            <ns3:hr>101</ns3:hr>
            <ns3:cad>48</ns3:cad>
          </ns3:TrackPointExtension>
        </extensions>
      </trkpt>
      <trkpt lat="43.48093452863395214080810546875" lon="1.4492607302963733673095703125">
        <ele>214.600006103515625</ele>
        <time>2026-08-05T08:54:43.000Z</time>
        <extensions>
          <ns3:TrackPointExtension>
            <ns3:hr>101</ns3:hr>
            <ns3:cad>47</ns3:cad>
          </ns3:TrackPointExtension>
        </extensions>
      </trkpt>
      <trkpt lat="43.48093293607234954833984375" lon="1.44924639724195003509521484375">
        <ele>214.600006103515625</ele>
        <time>2026-08-05T08:54:44.000Z</time>
        <extensions>
          <ns3:TrackPointExtension>
            <ns3:hr>101</ns3:hr>
            <ns3:cad>47</ns3:cad>
          </ns3:TrackPointExtension>
        </extensions>
      </trkpt>
      <trkpt lat="43.48093561828136444091796875" lon="1.44923499785363674163818359375">
        <ele>214.8000030517578125</ele>
        <time>2026-08-05T08:54:45.000Z</time>
        <extensions>
          <ns3:TrackPointExtension>
            <ns3:hr>101</ns3:hr>
            <ns3:cad>47</ns3:cad>
          </ns3:TrackPointExtension>
        </extensions>
      </trkpt>
      <trkpt lat="43.48093704320490360260009765625" lon="1.44922426901757717132568359375">
        <ele>214.8000030517578125</ele>
        <time>2026-08-05T08:54:46.000Z</time>
        <extensions>
          <ns3:TrackPointExtension>
            <ns3:hr>102</ns3:hr>
            <ns3:cad>47</ns3:cad>
          </ns3:TrackPointExtension>
        </extensions>
      </trkpt>
      <trkpt lat="43.4809364564716815948486328125" lon="1.4492127858102321624755859375">
        <ele>215</ele>
        <time>2026-08-05T08:54:47.000Z</time>
        <extensions>
          <ns3:TrackPointExtension>
            <ns3:hr>102</ns3:hr>
            <ns3:cad>47</ns3:cad>
          </ns3:TrackPointExtension>
        </extensions>
      </trkpt>
      <trkpt lat="43.480930589139461517333984375" lon="1.449192501604557037353515625">
        <ele>215</ele>
        <time>2026-08-05T08:54:48.000Z</time>
        <extensions>
          <ns3:TrackPointExtension>
            <ns3:hr>103</ns3:hr>
            <ns3:cad>47</ns3:cad>
          </ns3:TrackPointExtension>
        </extensions>
      </trkpt>
      <trkpt lat="43.4809287451207637786865234375" lon="1.4491725526750087738037109375">
        <ele>215.1999969482421875</ele>
        <time>2026-08-05T08:54:49.000Z</time>
        <extensions>
          <ns3:TrackPointExtension>
            <ns3:hr>103</ns3:hr>
            <ns3:cad>48</ns3:cad>
          </ns3:TrackPointExtension>
        </extensions>
      </trkpt>
      <trkpt lat="43.48092799074947834014892578125" lon="1.44915838725864887237548828125">
        <ele>215.1999969482421875</ele>
        <time>2026-08-05T08:54:50.000Z</time>
        <extensions>
          <ns3:TrackPointExtension>
            <ns3:hr>104</ns3:hr>
            <ns3:cad>48</ns3:cad>
          </ns3:TrackPointExtension>
        </extensions>
      </trkpt>
      <trkpt lat="43.4809277392923831939697265625" lon="1.44914849661290645599365234375">
        <ele>215.399993896484375</ele>
        <time>2026-08-05T08:54:51.000Z</time>
        <extensions>
          <ns3:TrackPointExtension>
            <ns3:hr>105</ns3:hr>
            <ns3:cad>48</ns3:cad>
          </ns3:TrackPointExtension>
        </extensions>
      </trkpt>
      <trkpt lat="43.48092866130173206329345703125" lon="1.449138186872005462646484375">
        <ele>215.399993896484375</ele>
        <time>2026-08-05T08:54:52.000Z</time>
        <extensions>
          <ns3:TrackPointExtension>
            <ns3:hr>105</ns3:hr>
            <ns3:cad>50</ns3:cad>
          </ns3:TrackPointExtension>
        </extensions>
      </trkpt>
      <trkpt lat="43.480928577482700347900390625" lon="1.44911731593310832977294921875">
        <ele>215.600006103515625</ele>
        <time>2026-08-05T08:54:53.000Z</time>
        <extensions>
          <ns3:TrackPointExtension>
            <ns3:hr>105</ns3:hr>
            <ns3:cad>50</ns3:cad>
          </ns3:TrackPointExtension>
        </extensions>
      </trkpt>
      <trkpt lat="43.48092681728303432464599609375" lon="1.44909485243260860443115234375">
        <ele>215.8000030517578125</ele>
        <time>2026-08-05T08:54:54.000Z</time>
        <extensions>
          <ns3:TrackPointExtension>
            <ns3:hr>106</ns3:hr>
            <ns3:cad>51</ns3:cad>
          </ns3:TrackPointExtension>
        </extensions>
      </trkpt>
      <trkpt lat="43.4809304215013980865478515625" lon="1.44907884299755096435546875">
        <ele>215.8000030517578125</ele>
        <time>2026-08-05T08:54:55.000Z</time>
        <extensions>
          <ns3:TrackPointExtension>
            <ns3:hr>106</ns3:hr>
            <ns3:cad>51</ns3:cad>
          </ns3:TrackPointExtension>
        </extensions>
      </trkpt>
      <trkpt lat="43.48093025386333465576171875" lon="1.44906400702893733978271484375">
        <ele>216</ele>
        <time>2026-08-05T08:54:56.000Z</time>
        <extensions>
          <ns3:TrackPointExtension>
            <ns3:hr>107</ns3:hr>
            <ns3:cad>51</ns3:cad>
          </ns3:TrackPointExtension>
        </extensions>
      </trkpt>
      <trkpt lat="43.48093201406300067901611328125" lon="1.449052356183528900146484375">
        <ele>216</ele>
        <time>2026-08-05T08:54:57.000Z</time>
        <extensions>
          <ns3:TrackPointExtension>
            <ns3:hr>107</ns3:hr>
            <ns3:cad>49</ns3:cad>
          </ns3:TrackPointExtension>
        </extensions>
      </trkpt>
      <trkpt lat="43.48093092441558837890625" lon="1.4490270428359508514404296875">
        <ele>216.1999969482421875</ele>
        <time>2026-08-05T08:54:58.000Z</time>
        <extensions>
          <ns3:TrackPointExtension>
            <ns3:hr>107</ns3:hr>
            <ns3:cad>49</ns3:cad>
          </ns3:TrackPointExtension>
        </extensions>
      </trkpt>
      <trkpt lat="43.4809277392923831939697265625" lon="1.44900583662092685699462890625">
        <ele>216.1999969482421875</ele>
        <time>2026-08-05T08:54:59.000Z</time>
        <extensions>
          <ns3:TrackPointExtension>
            <ns3:hr>107</ns3:hr>
            <ns3:cad>49</ns3:cad>
          </ns3:TrackPointExtension>
        </extensions>
      </trkpt>
      <trkpt lat="43.48092815838754177093505859375" lon="1.448993347585201263427734375">
        <ele>216.399993896484375</ele>
        <time>2026-08-05T08:55:00.000Z</time>
        <extensions>
          <ns3:TrackPointExtension>
            <ns3:hr>107</ns3:hr>
            <ns3:cad>48</ns3:cad>
          </ns3:TrackPointExtension>
        </extensions>
      </trkpt>
      <trkpt lat="43.48093268461525440216064453125" lon="1.44898102618753910064697265625">
        <ele>216.399993896484375</ele>
        <time>2026-08-05T08:55:01.000Z</time>
        <extensions>
          <ns3:TrackPointExtension>
            <ns3:hr>108</ns3:hr>
            <ns3:cad>48</ns3:cad>
          </ns3:TrackPointExtension>
        </extensions>
      </trkpt>
      <trkpt lat="43.48093251697719097137451171875" lon="1.4489737339317798614501953125">
        <ele>216.399993896484375</ele>
        <time>2026-08-05T08:55:02.000Z</time>
        <extensions>
          <ns3:TrackPointExtension>
            <ns3:hr>107</ns3:hr>
            <ns3:cad>48</ns3:cad>
          </ns3:TrackPointExtension>
        </extensions>
      </trkpt>
      <trkpt lat="43.4809334389865398406982421875" lon="1.448954455554485321044921875">
        <ele>216.399993896484375</ele>
        <time>2026-08-05T08:55:03.000Z</time>
        <extensions>
          <ns3:TrackPointExtension>
            <ns3:hr>107</ns3:hr>
            <ns3:cad>48</ns3:cad>
          </ns3:TrackPointExtension>
        </extensions>
      </trkpt>
      <trkpt lat="43.480933606624603271484375" lon="1.44893358461558818817138671875">
        <ele>216.600006103515625</ele>
        <time>2026-08-05T08:55:04.000Z</time>
        <extensions>
          <ns3:TrackPointExtension>
            <ns3:hr>107</ns3:hr>
            <ns3:cad>47</ns3:cad>
          </ns3:TrackPointExtension>
        </extensions>
      </trkpt>
      <trkpt lat="43.480933941900730133056640625" lon="1.4489145576953887939453125">
        <ele>216.600006103515625</ele>
        <time>2026-08-05T08:55:05.000Z</time>
        <extensions>
          <ns3:TrackPointExtension>
            <ns3:hr>107</ns3:hr>
            <ns3:cad>47</ns3:cad>
          </ns3:TrackPointExtension>
        </extensions>
      </trkpt>
      <trkpt lat="43.48093369044363498687744140625" lon="1.44890374504029750823974609375">
        <ele>216.600006103515625</ele>
        <time>2026-08-05T08:55:06.000Z</time>
        <extensions>
          <ns3:TrackPointExtension>
            <ns3:hr>108</ns3:hr>
            <ns3:cad>47</ns3:cad>
          </ns3:TrackPointExtension>
        </extensions>
      </trkpt>
      <trkpt lat="43.4809347800910472869873046875" lon="1.44889268092811107635498046875">
        <ele>216.600006103515625</ele>
        <time>2026-08-05T08:55:07.000Z</time>
        <extensions>
          <ns3:TrackPointExtension>
            <ns3:hr>107</ns3:hr>
            <ns3:cad>47</ns3:cad>
          </ns3:TrackPointExtension>
        </extensions>
      </trkpt>
      <trkpt lat="43.48093654029071331024169921875" lon="1.44887365400791168212890625">
        <ele>216.8000030517578125</ele>
        <time>2026-08-05T08:55:08.000Z</time>
        <extensions>
          <ns3:TrackPointExtension>
            <ns3:hr>107</ns3:hr>
            <ns3:cad>47</ns3:cad>
          </ns3:TrackPointExtension>
        </extensions>
      </trkpt>
      <trkpt lat="43.4809384681284427642822265625" lon="1.4488530345261096954345703125">
        <ele>217</ele>
        <time>2026-08-05T08:55:09.000Z</time>
        <extensions>
          <ns3:TrackPointExtension>
            <ns3:hr>107</ns3:hr>
            <ns3:cad>48</ns3:cad>
          </ns3:TrackPointExtension>
        </extensions>
      </trkpt>
      <trkpt lat="43.48094257526099681854248046875" lon="1.44883668981492519378662109375">
        <ele>217</ele>
        <time>2026-08-05T08:55:10.000Z</time>
        <extensions>
          <ns3:TrackPointExtension>
            <ns3:hr>107</ns3:hr>
            <ns3:cad>48</ns3:cad>
          </ns3:TrackPointExtension>
        </extensions>
      </trkpt>
      <trkpt lat="43.48094559274613857269287109375" lon="1.4488238655030727386474609375">
        <ele>217.1999969482421875</ele>
        <time>2026-08-05T08:55:11.000Z</time>
        <extensions>
          <ns3:TrackPointExtension>
            <ns3:hr>106</ns3:hr>
            <ns3:cad>47</ns3:cad>
          </ns3:TrackPointExtension>
        </extensions>
      </trkpt>
      <trkpt lat="43.48094777204096317291259765625" lon="1.448814310133457183837890625">
        <ele>217.1999969482421875</ele>
        <time>2026-08-05T08:55:12.000Z</time>
        <extensions>
          <ns3:TrackPointExtension>
            <ns3:hr>106</ns3:hr>
            <ns3:cad>47</ns3:cad>
          </ns3:TrackPointExtension>
        </extensions>
      </trkpt>
      <trkpt lat="43.48095028661191463470458984375" lon="1.44879897125065326690673828125">
        <ele>217.1999969482421875</ele>
        <time>2026-08-05T08:55:13.000Z</time>
        <extensions>
          <ns3:TrackPointExtension>
            <ns3:hr>106</ns3:hr>
            <ns3:cad>49</ns3:cad>
          </ns3:TrackPointExtension>
        </extensions>
      </trkpt>
      <trkpt lat="43.48095447756350040435791015625" lon="1.44877902232110500335693359375">
        <ele>217.1999969482421875</ele>
        <time>2026-08-05T08:55:14.000Z</time>
        <extensions>
          <ns3:TrackPointExtension>
            <ns3:hr>106</ns3:hr>
            <ns3:cad>49</ns3:cad>
          </ns3:TrackPointExtension>
        </extensions>
      </trkpt>
      <trkpt lat="43.4809569083154201507568359375" lon="1.448762007057666778564453125">
        <ele>217.1999969482421875</ele>
        <time>2026-08-05T08:55:15.000Z</time>
        <extensions>
          <ns3:TrackPointExtension>
            <ns3:hr>105</ns3:hr>
            <ns3:cad>48</ns3:cad>
          </ns3:TrackPointExtension>
        </extensions>
      </trkpt>
      <trkpt lat="43.480960093438625335693359375" lon="1.448747925460338592529296875">
        <ele>217.1999969482421875</ele>
        <time>2026-08-05T08:55:16.000Z</time>
        <extensions>
          <ns3:TrackPointExtension>
            <ns3:hr>105</ns3:hr>
            <ns3:cad>48</ns3:cad>
          </ns3:TrackPointExtension>
        </extensions>
      </trkpt>
      <trkpt lat="43.480960763990879058837890625" lon="1.44873728044331073760986328125">
        <ele>217.399993896484375</ele>
        <time>2026-08-05T08:55:17.000Z</time>
        <extensions>
          <ns3:TrackPointExtension>
            <ns3:hr>105</ns3:hr>
            <ns3:cad>48</ns3:cad>
          </ns3:TrackPointExtension>
        </extensions>
      </trkpt>
      <trkpt lat="43.48096420057117938995361328125" lon="1.44872655160725116729736328125">
        <ele>217.399993896484375</ele>
        <time>2026-08-05T08:55:18.000Z</time>
        <extensions>
          <ns3:TrackPointExtension>
            <ns3:hr>104</ns3:hr>
            <ns3:cad>49</ns3:cad>
          </ns3:TrackPointExtension>
        </extensions>
      </trkpt>
      <trkpt lat="43.48096805624663829803466796875" lon="1.44870760850608348846435546875">
        <ele>217.399993896484375</ele>
        <time>2026-08-05T08:55:19.000Z</time>
        <extensions>
          <ns3:TrackPointExtension>
            <ns3:hr>103</ns3:hr>
            <ns3:cad>49</ns3:cad>
          </ns3:TrackPointExtension>
        </extensions>
      </trkpt>
      <trkpt lat="43.48097073845565319061279296875" lon="1.44868724048137664794921875">
        <ele>217.399993896484375</ele>
        <time>2026-08-05T08:55:20.000Z</time>
        <extensions>
          <ns3:TrackPointExtension>
            <ns3:hr>103</ns3:hr>
            <ns3:cad>49</ns3:cad>
          </ns3:TrackPointExtension>
        </extensions>
      </trkpt>
      <trkpt lat="43.4809730015695095062255859375" lon="1.448672153055667877197265625">
        <ele>217.399993896484375</ele>
        <time>2026-08-05T08:55:21.000Z</time>
        <extensions>
          <ns3:TrackPointExtension>
            <ns3:hr>103</ns3:hr>
            <ns3:cad>49</ns3:cad>
          </ns3:TrackPointExtension>
        </extensions>
      </trkpt>
      <trkpt lat="43.48097576759755611419677734375" lon="1.448660753667354583740234375">
        <ele>217.399993896484375</ele>
        <time>2026-08-05T08:55:22.000Z</time>
        <extensions>
          <ns3:TrackPointExtension>
            <ns3:hr>103</ns3:hr>
            <ns3:cad>49</ns3:cad>
          </ns3:TrackPointExtension>
        </extensions>
      </trkpt>
      <trkpt lat="43.4809793718159198760986328125" lon="1.44864927046000957489013671875">
        <ele>217.600006103515625</ele>
        <time>2026-08-05T08:55:23.000Z</time>
        <extensions>
          <ns3:TrackPointExtension>
            <ns3:hr>103</ns3:hr>
            <ns3:cad>49</ns3:cad>
          </ns3:TrackPointExtension>
        </extensions>
      </trkpt>
      <trkpt lat="43.48098163492977619171142578125" lon="1.44863200373947620391845703125">
        <ele>217.600006103515625</ele>
        <time>2026-08-05T08:55:24.000Z</time>
        <extensions>
          <ns3:TrackPointExtension>
            <ns3:hr>103</ns3:hr>
            <ns3:cad>49</ns3:cad>
          </ns3:TrackPointExtension>
        </extensions>
      </trkpt>
      <trkpt lat="43.4809837304055690765380859375" lon="1.4486129768192768096923828125">
        <ele>217.600006103515625</ele>
        <time>2026-08-05T08:55:25.000Z</time>
        <extensions>
          <ns3:TrackPointExtension>
            <ns3:hr>103</ns3:hr>
            <ns3:cad>49</ns3:cad>
          </ns3:TrackPointExtension>
        </extensions>
      </trkpt>
      <trkpt lat="43.48098867572844028472900390625" lon="1.4485935308039188385009765625">
        <ele>217.8000030517578125</ele>
        <time>2026-08-05T08:55:26.000Z</time>
        <extensions>
          <ns3:TrackPointExtension>
            <ns3:hr>102</ns3:hr>
            <ns3:cad>47</ns3:cad>
          </ns3:TrackPointExtension>
        </extensions>
      </trkpt>
      <trkpt lat="43.48099051974713802337646484375" lon="1.4485747553408145904541015625">
        <ele>217.8000030517578125</ele>
        <time>2026-08-05T08:55:27.000Z</time>
        <extensions>
          <ns3:TrackPointExtension>
            <ns3:hr>102</ns3:hr>
            <ns3:cad>47</ns3:cad>
          </ns3:TrackPointExtension>
        </extensions>
      </trkpt>
      <trkpt lat="43.48099404014647006988525390625" lon="1.44856042228639125823974609375">
        <ele>217.8000030517578125</ele>
        <time>2026-08-05T08:55:28.000Z</time>
        <extensions>
          <ns3:TrackPointExtension>
            <ns3:hr>102</ns3:hr>
            <ns3:cad>47</ns3:cad>
          </ns3:TrackPointExtension>
        </extensions>
      </trkpt>
      <trkpt lat="43.48099471069872379302978515625" lon="1.4485486038029193878173828125">
        <ele>217.8000030517578125</ele>
        <time>2026-08-05T08:55:29.000Z</time>
        <extensions>
          <ns3:TrackPointExtension>
            <ns3:hr>101</ns3:hr>
            <ns3:cad>47</ns3:cad>
          </ns3:TrackPointExtension>
        </extensions>
      </trkpt>
      <trkpt lat="43.48099638707935810089111328125" lon="1.44853192381560802459716796875">
        <ele>217.8000030517578125</ele>
        <time>2026-08-05T08:55:30.000Z</time>
        <extensions>
          <ns3:TrackPointExtension>
            <ns3:hr>99</ns3:hr>
            <ns3:cad>50</ns3:cad>
          </ns3:TrackPointExtension>
        </extensions>
      </trkpt>
      <trkpt lat="43.4809998236596584320068359375" lon="1.4485140703618526458740234375">
        <ele>217.8000030517578125</ele>
        <time>2026-08-05T08:55:31.000Z</time>
        <extensions>
          <ns3:TrackPointExtension>
            <ns3:hr>97</ns3:hr>
            <ns3:cad>50</ns3:cad>
          </ns3:TrackPointExtension>
        </extensions>
      </trkpt>
      <trkpt lat="43.48100460134446620941162109375" lon="1.44849504344165325164794921875">
        <ele>217.8000030517578125</ele>
        <time>2026-08-05T08:55:32.000Z</time>
        <extensions>
          <ns3:TrackPointExtension>
            <ns3:hr>96</ns3:hr>
            <ns3:cad>50</ns3:cad>
          </ns3:TrackPointExtension>
        </extensions>
      </trkpt>
      <trkpt lat="43.4810102172195911407470703125" lon="1.44847861491143703460693359375">
        <ele>218</ele>
        <time>2026-08-05T08:55:33.000Z</time>
        <extensions>
          <ns3:TrackPointExtension>
            <ns3:hr>96</ns3:hr>
            <ns3:cad>50</ns3:cad>
          </ns3:TrackPointExtension>
        </extensions>
      </trkpt>
      <trkpt lat="43.4810155816376209259033203125" lon="1.44846587441861629486083984375">
        <ele>218</ele>
        <time>2026-08-05T08:55:34.000Z</time>
        <extensions>
          <ns3:TrackPointExtension>
            <ns3:hr>96</ns3:hr>
            <ns3:cad>50</ns3:cad>
          </ns3:TrackPointExtension>
        </extensions>
      </trkpt>
      <trkpt lat="43.4810199402272701263427734375" lon="1.44845648668706417083740234375">
        <ele>218</ele>
        <time>2026-08-05T08:55:35.000Z</time>
        <extensions>
          <ns3:TrackPointExtension>
            <ns3:hr>95</ns3:hr>
            <ns3:cad>50</ns3:cad>
          </ns3:TrackPointExtension>
        </extensions>
      </trkpt>
      <trkpt lat="43.481022454798221588134765625" lon="1.448442824184894561767578125">
        <ele>218</ele>
        <time>2026-08-05T08:55:36.000Z</time>
        <extensions>
          <ns3:TrackPointExtension>
            <ns3:hr>95</ns3:hr>
            <ns3:cad>50</ns3:cad>
          </ns3:TrackPointExtension>
        </extensions>
      </trkpt>
      <trkpt lat="43.481025807559490203857421875" lon="1.44842061214148998260498046875">
        <ele>218</ele>
        <time>2026-08-05T08:55:37.000Z</time>
        <extensions>
          <ns3:TrackPointExtension>
            <ns3:hr>95</ns3:hr>
            <ns3:cad>50</ns3:cad>
          </ns3:TrackPointExtension>
        </extensions>
      </trkpt>
      <trkpt lat="43.48102840594947338104248046875" lon="1.44839823246002197265625">
        <ele>218</ele>
        <time>2026-08-05T08:55:38.000Z</time>
        <extensions>
          <ns3:TrackPointExtension>
            <ns3:hr>95</ns3:hr>
            <ns3:cad>50</ns3:cad>
          </ns3:TrackPointExtension>
        </extensions>
      </trkpt>
      <trkpt lat="43.48103242926299571990966796875" lon="1.44838054664433002471923828125">
        <ele>218</ele>
        <time>2026-08-05T08:55:39.000Z</time>
        <extensions>
          <ns3:TrackPointExtension>
            <ns3:hr>95</ns3:hr>
            <ns3:cad>50</ns3:cad>
          </ns3:TrackPointExtension>
        </extensions>
      </trkpt>
      <trkpt lat="43.481035865843296051025390625" lon="1.44836562685668468475341796875">
        <ele>218</ele>
        <time>2026-08-05T08:55:40.000Z</time>
        <extensions>
          <ns3:TrackPointExtension>
            <ns3:hr>94</ns3:hr>
            <ns3:cad>51</ns3:cad>
          </ns3:TrackPointExtension>
        </extensions>
      </trkpt>
      <trkpt lat="43.4810393862426280975341796875" lon="1.4483554847538471221923828125">
        <ele>218.1999969482421875</ele>
        <time>2026-08-05T08:55:41.000Z</time>
        <extensions>
          <ns3:TrackPointExtension>
            <ns3:hr>93</ns3:hr>
            <ns3:cad>51</ns3:cad>
          </ns3:TrackPointExtension>
        </extensions>
      </trkpt>
      <trkpt lat="43.48104181699454784393310546875" lon="1.44834525883197784423828125">
        <ele>218.1999969482421875</ele>
        <time>2026-08-05T08:55:42.000Z</time>
        <extensions>
          <ns3:TrackPointExtension>
            <ns3:hr>91</ns3:hr>
            <ns3:cad>51</ns3:cad>
          </ns3:TrackPointExtension>
        </extensions>
      </trkpt>
      <trkpt lat="43.48104483447968959808349609375" lon="1.44832857884466648101806640625">
        <ele>218.1999969482421875</ele>
        <time>2026-08-05T08:55:43.000Z</time>
        <extensions>
          <ns3:TrackPointExtension>
            <ns3:hr>90</ns3:hr>
            <ns3:cad>51</ns3:cad>
          </ns3:TrackPointExtension>
        </extensions>
      </trkpt>
      <trkpt lat="43.4810454212129116058349609375" lon="1.4483115635812282562255859375">
        <ele>218.1999969482421875</ele>
        <time>2026-08-05T08:55:44.000Z</time>
        <extensions>
          <ns3:TrackPointExtension>
            <ns3:hr>89</ns3:hr>
            <ns3:cad>50</ns3:cad>
          </ns3:TrackPointExtension>
        </extensions>
      </trkpt>
      <trkpt lat="43.48104936070740222930908203125" lon="1.4482951350510120391845703125">
        <ele>218.1999969482421875</ele>
        <time>2026-08-05T08:55:45.000Z</time>
        <extensions>
          <ns3:TrackPointExtension>
            <ns3:hr>89</ns3:hr>
            <ns3:cad>50</ns3:cad>
          </ns3:TrackPointExtension>
        </extensions>
      </trkpt>
      <trkpt lat="43.48105506040155887603759765625" lon="1.44828197546303272247314453125">
        <ele>218.1999969482421875</ele>
        <time>2026-08-05T08:55:46.000Z</time>
        <extensions>
          <ns3:TrackPointExtension>
            <ns3:hr>89</ns3:hr>
            <ns3:cad>50</ns3:cad>
          </ns3:TrackPointExtension>
        </extensions>
      </trkpt>
      <trkpt lat="43.4810608439147472381591796875" lon="1.44827015697956085205078125">
        <ele>218.1999969482421875</ele>
        <time>2026-08-05T08:55:47.000Z</time>
        <extensions>
          <ns3:TrackPointExtension>
            <ns3:hr>89</ns3:hr>
            <ns3:cad>50</ns3:cad>
          </ns3:TrackPointExtension>
        </extensions>
      </trkpt>
      <trkpt lat="43.48106570541858673095703125" lon="1.448255740106105804443359375">
        <ele>218.1999969482421875</ele>
        <time>2026-08-05T08:55:48.000Z</time>
        <extensions>
          <ns3:TrackPointExtension>
            <ns3:hr>88</ns3:hr>
            <ns3:cad>50</ns3:cad>
          </ns3:TrackPointExtension>
        </extensions>
      </trkpt>
      <trkpt lat="43.481068722903728485107421875" lon="1.44823587499558925628662109375">
        <ele>218.1999969482421875</ele>
        <time>2026-08-05T08:55:49.000Z</time>
        <extensions>
          <ns3:TrackPointExtension>
            <ns3:hr>88</ns3:hr>
            <ns3:cad>50</ns3:cad>
          </ns3:TrackPointExtension>
        </extensions>
      </trkpt>
      <trkpt lat="43.48106830380856990814208984375" lon="1.4482163451611995697021484375">
        <ele>218.1999969482421875</ele>
        <time>2026-08-05T08:55:50.000Z</time>
        <extensions>
          <ns3:TrackPointExtension>
            <ns3:hr>88</ns3:hr>
            <ns3:cad>50</ns3:cad>
          </ns3:TrackPointExtension>
        </extensions>
      </trkpt>
      <trkpt lat="43.4810722433030605316162109375" lon="1.448202431201934814453125">
        <ele>218.1999969482421875</ele>
        <time>2026-08-05T08:55:51.000Z</time>
        <extensions>
          <ns3:TrackPointExtension>
            <ns3:hr>88</ns3:hr>
            <ns3:cad>50</ns3:cad>
          </ns3:TrackPointExtension>
        </extensions>
      </trkpt>
      <trkpt lat="43.4810766018927097320556640625" lon="1.44818927161395549774169921875">
        <ele>218.1999969482421875</ele>
        <time>2026-08-05T08:55:52.000Z</time>
        <extensions>
          <ns3:TrackPointExtension>
            <ns3:hr>87</ns3:hr>
            <ns3:cad>50</ns3:cad>
          </ns3:TrackPointExtension>
        </extensions>
      </trkpt>
      <trkpt lat="43.4810797870159149169921875" lon="1.448179967701435089111328125">
        <ele>218</ele>
        <time>2026-08-05T08:55:53.000Z</time>
        <extensions>
          <ns3:TrackPointExtension>
            <ns3:hr>87</ns3:hr>
            <ns3:cad>50</ns3:cad>
          </ns3:TrackPointExtension>
        </extensions>
      </trkpt>
      <trkpt lat="43.481083475053310394287109375" lon="1.44816580228507518768310546875">
        <ele>218</ele>
        <time>2026-08-05T08:55:54.000Z</time>
        <extensions>
          <ns3:TrackPointExtension>
            <ns3:hr>87</ns3:hr>
            <ns3:cad>49</ns3:cad>
          </ns3:TrackPointExtension>
        </extensions>
      </trkpt>
      <trkpt lat="43.48108582198619842529296875" lon="1.44814602099359035491943359375">
        <ele>218</ele>
        <time>2026-08-05T08:55:55.000Z</time>
        <extensions>
          <ns3:TrackPointExtension>
            <ns3:hr>87</ns3:hr>
            <ns3:cad>49</ns3:cad>
          </ns3:TrackPointExtension>
        </extensions>
      </trkpt>
      <trkpt lat="43.48108674399554729461669921875" lon="1.44812791608273983001708984375">
        <ele>218</ele>
        <time>2026-08-05T08:55:56.000Z</time>
        <extensions>
          <ns3:TrackPointExtension>
            <ns3:hr>86</ns3:hr>
            <ns3:cad>49</ns3:cad>
          </ns3:TrackPointExtension>
        </extensions>
      </trkpt>
      <trkpt lat="43.4810910187661647796630859375" lon="1.4481127448379993438720703125">
        <ele>218</ele>
        <time>2026-08-05T08:55:57.000Z</time>
        <extensions>
          <ns3:TrackPointExtension>
            <ns3:hr>86</ns3:hr>
            <ns3:cad>49</ns3:cad>
          </ns3:TrackPointExtension>
        </extensions>
      </trkpt>
      <trkpt lat="43.4810960479080677032470703125" lon="1.4480938017368316650390625">
        <ele>218</ele>
        <time>2026-08-05T08:55:58.000Z</time>
        <extensions>
          <ns3:TrackPointExtension>
            <ns3:hr>86</ns3:hr>
            <ns3:cad>49</ns3:cad>
          </ns3:TrackPointExtension>
        </extensions>
      </trkpt>
      <trkpt lat="43.4811007417738437652587890625" lon="1.44807972013950347900390625">
        <ele>218</ele>
        <time>2026-08-05T08:55:59.000Z</time>
        <extensions>
          <ns3:TrackPointExtension>
            <ns3:hr>86</ns3:hr>
            <ns3:cad>50</ns3:cad>
          </ns3:TrackPointExtension>
        </extensions>
      </trkpt>
      <trkpt lat="43.4811012446880340576171875" lon="1.448063962161540985107421875">
        <ele>218</ele>
        <time>2026-08-05T08:56:00.000Z</time>
        <extensions>
          <ns3:TrackPointExtension>
            <ns3:hr>85</ns3:hr>
            <ns3:cad>50</ns3:cad>
          </ns3:TrackPointExtension>
        </extensions>
      </trkpt>
      <trkpt lat="43.4811037592589855194091796875" lon="1.448046527802944183349609375">
        <ele>218</ele>
        <time>2026-08-05T08:56:01.000Z</time>
        <extensions>
          <ns3:TrackPointExtension>
            <ns3:hr>84</ns3:hr>
            <ns3:cad>50</ns3:cad>
          </ns3:TrackPointExtension>
        </extensions>
      </trkpt>
      <trkpt lat="43.4811091236770153045654296875" lon="1.4480279199779033660888671875">
        <ele>217.8000030517578125</ele>
        <time>2026-08-05T08:56:02.000Z</time>
        <extensions>
          <ns3:TrackPointExtension>
            <ns3:hr>84</ns3:hr>
            <ns3:cad>50</ns3:cad>
          </ns3:TrackPointExtension>
        </extensions>
      </trkpt>
      <trkpt lat="43.481115996837615966796875" lon="1.4480131678283214569091796875">
        <ele>217.8000030517578125</ele>
        <time>2026-08-05T08:56:03.000Z</time>
        <extensions>
          <ns3:TrackPointExtension>
            <ns3:hr>84</ns3:hr>
            <ns3:cad>50</ns3:cad>
          </ns3:TrackPointExtension>
        </extensions>
      </trkpt>
      <trkpt lat="43.48112395964562892913818359375" lon="1.44799967296421527862548828125">
        <ele>217.8000030517578125</ele>
        <time>2026-08-05T08:56:04.000Z</time>
        <extensions>
          <ns3:TrackPointExtension>
            <ns3:hr>83</ns3:hr>
            <ns3:cad>50</ns3:cad>
          </ns3:TrackPointExtension>
        </extensions>
      </trkpt>
      <trkpt lat="43.48113049753010272979736328125" lon="1.44798860885202884674072265625">
        <ele>217.8000030517578125</ele>
        <time>2026-08-05T08:56:05.000Z</time>
        <extensions>
          <ns3:TrackPointExtension>
            <ns3:hr>83</ns3:hr>
            <ns3:cad>51</ns3:cad>
          </ns3:TrackPointExtension>
        </extensions>
      </trkpt>
      <trkpt lat="43.48113586194813251495361328125" lon="1.447979472577571868896484375">
        <ele>217.8000030517578125</ele>
        <time>2026-08-05T08:56:06.000Z</time>
        <extensions>
          <ns3:TrackPointExtension>
            <ns3:hr>83</ns3:hr>
            <ns3:cad>51</ns3:cad>
          </ns3:TrackPointExtension>
        </extensions>
      </trkpt>
      <trkpt lat="43.4811413101851940155029296875" lon="1.447967402637004852294921875">
        <ele>217.600006103515625</ele>
        <time>2026-08-05T08:56:07.000Z</time>
        <extensions>
          <ns3:TrackPointExtension>
            <ns3:hr>82</ns3:hr>
            <ns3:cad>51</ns3:cad>
          </ns3:TrackPointExtension>
        </extensions>
      </trkpt>
      <trkpt lat="43.48114885389804840087890625" lon="1.44795097410678863525390625">
        <ele>217.600006103515625</ele>
        <time>2026-08-05T08:56:08.000Z</time>
        <extensions>
          <ns3:TrackPointExtension>
            <ns3:hr>82</ns3:hr>
            <ns3:cad>51</ns3:cad>
          </ns3:TrackPointExtension>
        </extensions>
      </trkpt>
      <trkpt lat="43.48115681670606136322021484375" lon="1.44793798215687274932861328125">
        <ele>217.600006103515625</ele>
        <time>2026-08-05T08:56:09.000Z</time>
        <extensions>
          <ns3:TrackPointExtension>
            <ns3:hr>82</ns3:hr>
            <ns3:cad>50</ns3:cad>
          </ns3:TrackPointExtension>
        </extensions>
      </trkpt>
      <trkpt lat="43.48116503097116947174072265625" lon="1.4479243196547031402587890625">
        <ele>217.399993896484375</ele>
        <time>2026-08-05T08:56:10.000Z</time>
        <extensions>
          <ns3:TrackPointExtension>
            <ns3:hr>82</ns3:hr>
            <ns3:cad>50</ns3:cad>
          </ns3:TrackPointExtension>
        </extensions>
      </trkpt>
      <trkpt lat="43.4811734966933727264404296875" lon="1.44791501574218273162841796875">
        <ele>217.399993896484375</ele>
        <time>2026-08-05T08:56:11.000Z</time>
        <extensions>
          <ns3:TrackPointExtension>
            <ns3:hr>82</ns3:hr>
            <ns3:cad>50</ns3:cad>
          </ns3:TrackPointExtension>
        </extensions>
      </trkpt>
      <trkpt lat="43.48117676563560962677001953125" lon="1.44790470600128173828125">
        <ele>217.399993896484375</ele>
        <time>2026-08-05T08:56:12.000Z</time>
        <extensions>
          <ns3:TrackPointExtension>
            <ns3:hr>81</ns3:hr>
            <ns3:cad>50</ns3:cad>
          </ns3:TrackPointExtension>
        </extensions>
      </trkpt>
      <trkpt lat="43.4811798669397830963134765625" lon="1.44789070822298526763916015625">
        <ele>217.1999969482421875</ele>
        <time>2026-08-05T08:56:13.000Z</time>
        <extensions>
          <ns3:TrackPointExtension>
            <ns3:hr>81</ns3:hr>
            <ns3:cad>50</ns3:cad>
          </ns3:TrackPointExtension>
        </extensions>
      </trkpt>
      <trkpt lat="43.4811817109584808349609375" lon="1.447875201702117919921875">
        <ele>217.1999969482421875</ele>
        <time>2026-08-05T08:56:14.000Z</time>
        <extensions>
          <ns3:TrackPointExtension>
            <ns3:hr>81</ns3:hr>
            <ns3:cad>50</ns3:cad>
          </ns3:TrackPointExtension>
        </extensions>
      </trkpt>
      <trkpt lat="43.4811848960816860198974609375" lon="1.44785843789577484130859375">
        <ele>217.1999969482421875</ele>
        <time>2026-08-05T08:56:15.000Z</time>
        <extensions>
          <ns3:TrackPointExtension>
            <ns3:hr>80</ns3:hr>
            <ns3:cad>50</ns3:cad>
          </ns3:TrackPointExtension>
        </extensions>
      </trkpt>
      <trkpt lat="43.48119017668068408966064453125" lon="1.4478425122797489166259765625">
        <ele>217.1999969482421875</ele>
        <time>2026-08-05T08:56:16.000Z</time>
        <extensions>
          <ns3:TrackPointExtension>
            <ns3:hr>79</ns3:hr>
            <ns3:cad>50</ns3:cad>
          </ns3:TrackPointExtension>
        </extensions>
      </trkpt>
      <trkpt lat="43.48119688220322132110595703125" lon="1.4478244073688983917236328125">
        <ele>217.1999969482421875</ele>
        <time>2026-08-05T08:56:17.000Z</time>
        <extensions>
          <ns3:TrackPointExtension>
            <ns3:hr>79</ns3:hr>
            <ns3:cad>50</ns3:cad>
          </ns3:TrackPointExtension>
        </extensions>
      </trkpt>
      <trkpt lat="43.48120425827801227569580078125" lon="1.4478083141148090362548828125">
        <ele>217.1999969482421875</ele>
        <time>2026-08-05T08:56:18.000Z</time>
        <extensions>
          <ns3:TrackPointExtension>
            <ns3:hr>79</ns3:hr>
            <ns3:cad>50</ns3:cad>
          </ns3:TrackPointExtension>
        </extensions>
      </trkpt>
      <trkpt lat="43.48120409063994884490966796875" lon="1.44779666326940059661865234375">
        <ele>217</ele>
        <time>2026-08-05T08:56:19.000Z</time>
        <extensions>
          <ns3:TrackPointExtension>
            <ns3:hr>78</ns3:hr>
            <ns3:cad>50</ns3:cad>
          </ns3:TrackPointExtension>
        </extensions>
      </trkpt>
      <trkpt lat="43.48120878450572490692138671875" lon="1.4477808214724063873291015625">
        <ele>217</ele>
        <time>2026-08-05T08:56:20.000Z</time>
        <extensions>
          <ns3:TrackPointExtension>
            <ns3:hr>78</ns3:hr>
            <ns3:cad>50</ns3:cad>
          </ns3:TrackPointExtension>
        </extensions>
      </trkpt>
      <trkpt lat="43.48121347837150096893310546875" lon="1.44776632077991962432861328125">
        <ele>216.8000030517578125</ele>
        <time>2026-08-05T08:56:21.000Z</time>
        <extensions>
          <ns3:TrackPointExtension>
            <ns3:hr>78</ns3:hr>
            <ns3:cad>51</ns3:cad>
          </ns3:TrackPointExtension>
        </extensions>
      </trkpt>
      <trkpt lat="43.4812160767614841461181640625" lon="1.447750143706798553466796875">
        <ele>216.8000030517578125</ele>
        <time>2026-08-05T08:56:22.000Z</time>
        <extensions>
          <ns3:TrackPointExtension>
            <ns3:hr>77</ns3:hr>
            <ns3:cad>51</ns3:cad>
          </ns3:TrackPointExtension>
        </extensions>
      </trkpt>
      <trkpt lat="43.48122169263660907745361328125" lon="1.4477369002997875213623046875">
        <ele>216.8000030517578125</ele>
        <time>2026-08-05T08:56:23.000Z</time>
        <extensions>
          <ns3:TrackPointExtension>
            <ns3:hr>77</ns3:hr>
            <ns3:cad>51</ns3:cad>
          </ns3:TrackPointExtension>
        </extensions>
      </trkpt>
      <trkpt lat="43.48122739233076572418212890625" lon="1.44772927276790142059326171875">
        <ele>216.8000030517578125</ele>
        <time>2026-08-05T08:56:24.000Z</time>
        <extensions>
          <ns3:TrackPointExtension>
            <ns3:hr>77</ns3:hr>
            <ns3:cad>51</ns3:cad>
          </ns3:TrackPointExtension>
        </extensions>
      </trkpt>
      <trkpt lat="43.481235019862651824951171875" lon="1.4477137662470340728759765625">
        <ele>216.8000030517578125</ele>
        <time>2026-08-05T08:56:25.000Z</time>
        <extensions>
          <ns3:TrackPointExtension>
            <ns3:hr>78</ns3:hr>
            <ns3:cad>50</ns3:cad>
          </ns3:TrackPointExtension>
        </extensions>
      </trkpt>
      <trkpt lat="43.481241725385189056396484375" lon="1.44769825972616672515869140625">
        <ele>216.600006103515625</ele>
        <time>2026-08-05T08:56:26.000Z</time>
        <extensions>
          <ns3:TrackPointExtension>
            <ns3:hr>77</ns3:hr>
            <ns3:cad>50</ns3:cad>
          </ns3:TrackPointExtension>
        </extensions>
      </trkpt>
      <trkpt lat="43.48124675452709197998046875" lon="1.44768484868109226226806640625">
        <ele>216.600006103515625</ele>
        <time>2026-08-05T08:56:27.000Z</time>
        <extensions>
          <ns3:TrackPointExtension>
            <ns3:hr>77</ns3:hr>
            <ns3:cad>48</ns3:cad>
          </ns3:TrackPointExtension>
        </extensions>
      </trkpt>
      <trkpt lat="43.4812514483928680419921875" lon="1.44767411984503269195556640625">
        <ele>216.600006103515625</ele>
        <time>2026-08-05T08:56:28.000Z</time>
        <extensions>
          <ns3:TrackPointExtension>
            <ns3:hr>78</ns3:hr>
            <ns3:cad>47</ns3:cad>
          </ns3:TrackPointExtension>
        </extensions>
      </trkpt>
      <trkpt lat="43.4812576510012149810791015625" lon="1.4476621337234973907470703125">
        <ele>216.600006103515625</ele>
        <time>2026-08-05T08:56:29.000Z</time>
        <extensions>
          <ns3:TrackPointExtension>
            <ns3:hr>77</ns3:hr>
            <ns3:cad>47</ns3:cad>
          </ns3:TrackPointExtension>
        </extensions>
      </trkpt>
      <trkpt lat="43.481261171400547027587890625" lon="1.447649896144866943359375">
        <ele>216.600006103515625</ele>
        <time>2026-08-05T08:56:30.000Z</time>
        <extensions>
          <ns3:TrackPointExtension>
            <ns3:hr>77</ns3:hr>
            <ns3:cad>48</ns3:cad>
          </ns3:TrackPointExtension>
        </extensions>
      </trkpt>
      <trkpt lat="43.48126276396214962005615234375" lon="1.44763640128076076507568359375">
        <ele>216.600006103515625</ele>
        <time>2026-08-05T08:56:31.000Z</time>
        <extensions>
          <ns3:TrackPointExtension>
            <ns3:hr>78</ns3:hr>
            <ns3:cad>48</ns3:cad>
          </ns3:TrackPointExtension>
        </extensions>
      </trkpt>
      <trkpt lat="43.4812690503895282745361328125" lon="1.44761997275054454803466796875">
        <ele>216.600006103515625</ele>
        <time>2026-08-05T08:56:32.000Z</time>
        <extensions>
          <ns3:TrackPointExtension>
            <ns3:hr>77</ns3:hr>
            <ns3:cad>48</ns3:cad>
          </ns3:TrackPointExtension>
        </extensions>
      </trkpt>
      <trkpt lat="43.48127357661724090576171875" lon="1.447605974972248077392578125">
        <ele>216.399993896484375</ele>
        <time>2026-08-05T08:56:33.000Z</time>
        <extensions>
          <ns3:TrackPointExtension>
            <ns3:hr>77</ns3:hr>
            <ns3:cad>48</ns3:cad>
          </ns3:TrackPointExtension>
        </extensions>
      </trkpt>
      <trkpt lat="43.481279946863651275634765625" lon="1.447593905031681060791015625">
        <ele>216.399993896484375</ele>
        <time>2026-08-05T08:56:34.000Z</time>
        <extensions>
          <ns3:TrackPointExtension>
            <ns3:hr>77</ns3:hr>
            <ns3:cad>49</ns3:cad>
          </ns3:TrackPointExtension>
        </extensions>
      </trkpt>
      <trkpt lat="43.48128623329102993011474609375" lon="1.4475816674530506134033203125">
        <ele>216.399993896484375</ele>
        <time>2026-08-05T08:56:35.000Z</time>
        <extensions>
          <ns3:TrackPointExtension>
            <ns3:hr>77</ns3:hr>
            <ns3:cad>50</ns3:cad>
          </ns3:TrackPointExtension>
        </extensions>
      </trkpt>
      <trkpt lat="43.481292016804218292236328125" lon="1.447568424046039581298828125">
        <ele>216.1999969482421875</ele>
        <time>2026-08-05T08:56:36.000Z</time>
        <extensions>
          <ns3:TrackPointExtension>
            <ns3:hr>77</ns3:hr>
            <ns3:cad>50</ns3:cad>
          </ns3:TrackPointExtension>
        </extensions>
      </trkpt>
      <trkpt lat="43.48129880614578723907470703125" lon="1.44755358807742595672607421875">
        <ele>216.1999969482421875</ele>
        <time>2026-08-05T08:56:37.000Z</time>
        <extensions>
          <ns3:TrackPointExtension>
            <ns3:hr>77</ns3:hr>
            <ns3:cad>50</ns3:cad>
          </ns3:TrackPointExtension>
        </extensions>
      </trkpt>
      <trkpt lat="43.48130618222057819366455078125" lon="1.44754151813685894012451171875">
        <ele>216</ele>
        <time>2026-08-05T08:56:38.000Z</time>
        <extensions>
          <ns3:TrackPointExtension>
            <ns3:hr>77</ns3:hr>
            <ns3:cad>50</ns3:cad>
          </ns3:TrackPointExtension>
        </extensions>
      </trkpt>
      <trkpt lat="43.48131188191473484039306640625" lon="1.44752710126340389251708984375">
        <ele>216</ele>
        <time>2026-08-05T08:56:39.000Z</time>
        <extensions>
          <ns3:TrackPointExtension>
            <ns3:hr>76</ns3:hr>
            <ns3:cad>50</ns3:cad>
          </ns3:TrackPointExtension>
        </extensions>
      </trkpt>
      <trkpt lat="43.48131741397082805633544921875" lon="1.4475144445896148681640625">
        <ele>216</ele>
        <time>2026-08-05T08:56:40.000Z</time>
        <extensions>
          <ns3:TrackPointExtension>
            <ns3:hr>76</ns3:hr>
            <ns3:cad>49</ns3:cad>
          </ns3:TrackPointExtension>
        </extensions>
      </trkpt>
      <trkpt lat="43.48132261075079441070556640625" lon="1.4475037157535552978515625">
        <ele>216</ele>
        <time>2026-08-05T08:56:41.000Z</time>
        <extensions>
          <ns3:TrackPointExtension>
            <ns3:hr>76</ns3:hr>
            <ns3:cad>49</ns3:cad>
          </ns3:TrackPointExtension>
        </extensions>
      </trkpt>
      <trkpt lat="43.4813273884356021881103515625" lon="1.44749139435589313507080078125">
        <ele>215.8000030517578125</ele>
        <time>2026-08-05T08:56:42.000Z</time>
        <extensions>
          <ns3:TrackPointExtension>
            <ns3:hr>76</ns3:hr>
            <ns3:cad>49</ns3:cad>
          </ns3:TrackPointExtension>
        </extensions>
      </trkpt>
      <trkpt lat="43.48133124411106109619140625" lon="1.44747882150113582611083984375">
        <ele>215.8000030517578125</ele>
        <time>2026-08-05T08:56:43.000Z</time>
        <extensions>
          <ns3:TrackPointExtension>
            <ns3:hr>76</ns3:hr>
            <ns3:cad>49</ns3:cad>
          </ns3:TrackPointExtension>
        </extensions>
      </trkpt>
      <trkpt lat="43.48133702762424945831298828125" lon="1.44746524281799793243408203125">
        <ele>215.8000030517578125</ele>
        <time>2026-08-05T08:56:44.000Z</time>
        <extensions>
          <ns3:TrackPointExtension>
            <ns3:hr>75</ns3:hr>
            <ns3:cad>50</ns3:cad>
          </ns3:TrackPointExtension>
        </extensions>
      </trkpt>
      <trkpt lat="43.481344319880008697509765625" lon="1.44745099358260631561279296875">
        <ele>215.600006103515625</ele>
        <time>2026-08-05T08:56:45.000Z</time>
        <extensions>
          <ns3:TrackPointExtension>
            <ns3:hr>75</ns3:hr>
            <ns3:cad>50</ns3:cad>
          </ns3:TrackPointExtension>
        </extensions>
      </trkpt>
      <trkpt lat="43.4813495166599750518798828125" lon="1.4474368281662464141845703125">
        <ele>215.600006103515625</ele>
        <time>2026-08-05T08:56:46.000Z</time>
        <extensions>
          <ns3:TrackPointExtension>
            <ns3:hr>75</ns3:hr>
            <ns3:cad>49</ns3:cad>
          </ns3:TrackPointExtension>
        </extensions>
      </trkpt>
      <trkpt lat="43.48135597072541713714599609375" lon="1.44742299802601337432861328125">
        <ele>215.600006103515625</ele>
        <time>2026-08-05T08:56:47.000Z</time>
        <extensions>
          <ns3:TrackPointExtension>
            <ns3:hr>74</ns3:hr>
            <ns3:cad>48</ns3:cad>
          </ns3:TrackPointExtension>
        </extensions>
      </trkpt>
      <trkpt lat="43.48136351443827152252197265625" lon="1.44740958698093891143798828125">
        <ele>215.600006103515625</ele>
        <time>2026-08-05T08:56:48.000Z</time>
        <extensions>
          <ns3:TrackPointExtension>
            <ns3:hr>74</ns3:hr>
            <ns3:cad>48</ns3:cad>
          </ns3:TrackPointExtension>
        </extensions>
      </trkpt>
      <trkpt lat="43.48137080669403076171875" lon="1.44739718176424503326416015625">
        <ele>215.600006103515625</ele>
        <time>2026-08-05T08:56:49.000Z</time>
        <extensions>
          <ns3:TrackPointExtension>
            <ns3:hr>73</ns3:hr>
            <ns3:cad>49</ns3:cad>
          </ns3:TrackPointExtension>
        </extensions>
      </trkpt>
      <trkpt lat="43.48137826658785343170166015625" lon="1.44738595001399517059326171875">
        <ele>215.600006103515625</ele>
        <time>2026-08-05T08:56:50.000Z</time>
        <extensions>
          <ns3:TrackPointExtension>
            <ns3:hr>73</ns3:hr>
            <ns3:cad>50</ns3:cad>
          </ns3:TrackPointExtension>
        </extensions>
      </trkpt>
      <trkpt lat="43.481385223567485809326171875" lon="1.44737455062568187713623046875">
        <ele>215.399993896484375</ele>
        <time>2026-08-05T08:56:51.000Z</time>
        <extensions>
          <ns3:TrackPointExtension>
            <ns3:hr>72</ns3:hr>
            <ns3:cad>51</ns3:cad>
          </ns3:TrackPointExtension>
        </extensions>
      </trkpt>
      <trkpt lat="43.4813924320042133331298828125" lon="1.4473657496273517608642578125">
        <ele>215.399993896484375</ele>
        <time>2026-08-05T08:56:52.000Z</time>
        <extensions>
          <ns3:TrackPointExtension>
            <ns3:hr>72</ns3:hr>
            <ns3:cad>51</ns3:cad>
          </ns3:TrackPointExtension>
        </extensions>
      </trkpt>
      <trkpt lat="43.48139737732708454132080078125" lon="1.447353847324848175048828125">
        <ele>215.399993896484375</ele>
        <time>2026-08-05T08:56:53.000Z</time>
        <extensions>
          <ns3:TrackPointExtension>
            <ns3:hr>71</ns3:hr>
            <ns3:cad>51</ns3:cad>
          </ns3:TrackPointExtension>
        </extensions>
      </trkpt>
      <trkpt lat="43.4814034961163997650146484375" lon="1.44733901135623455047607421875">
        <ele>215.1999969482421875</ele>
        <time>2026-08-05T08:56:54.000Z</time>
        <extensions>
          <ns3:TrackPointExtension>
            <ns3:hr>71</ns3:hr>
            <ns3:cad>51</ns3:cad>
          </ns3:TrackPointExtension>
        </extensions>
      </trkpt>
      <trkpt lat="43.48140810616314411163330078125" lon="1.447323001921176910400390625">
        <ele>215.1999969482421875</ele>
        <time>2026-08-05T08:56:55.000Z</time>
        <extensions>
          <ns3:TrackPointExtension>
            <ns3:hr>71</ns3:hr>
            <ns3:cad>51</ns3:cad>
          </ns3:TrackPointExtension>
        </extensions>
      </trkpt>
      <trkpt lat="43.48141439259052276611328125" lon="1.44730766303837299346923828125">
        <ele>215.1999969482421875</ele>
        <time>2026-08-05T08:56:56.000Z</time>
        <extensions>
          <ns3:TrackPointExtension>
            <ns3:hr>70</ns3:hr>
            <ns3:cad>51</ns3:cad>
          </ns3:TrackPointExtension>
        </extensions>
      </trkpt>
      <trkpt lat="43.48142017610371112823486328125" lon="1.44729383289813995361328125">
        <ele>215</ele>
        <time>2026-08-05T08:56:57.000Z</time>
        <extensions>
          <ns3:TrackPointExtension>
            <ns3:hr>69</ns3:hr>
            <ns3:cad>51</ns3:cad>
          </ns3:TrackPointExtension>
        </extensions>
      </trkpt>
      <trkpt lat="43.4814231097698211669921875" lon="1.44727765582501888275146484375">
        <ele>215</ele>
        <time>2026-08-05T08:56:58.000Z</time>
        <extensions>
          <ns3:TrackPointExtension>
            <ns3:hr>69</ns3:hr>
            <ns3:cad>51</ns3:cad>
          </ns3:TrackPointExtension>
        </extensions>
      </trkpt>
      <trkpt lat="43.48142688162624835968017578125" lon="1.44726508297026157379150390625">
        <ele>215</ele>
        <time>2026-08-05T08:56:59.000Z</time>
        <extensions>
          <ns3:TrackPointExtension>
            <ns3:hr>69</ns3:hr>
            <ns3:cad>51</ns3:cad>
          </ns3:TrackPointExtension>
        </extensions>
      </trkpt>
      <trkpt lat="43.4814311563968658447265625" lon="1.4472527615725994110107421875">
        <ele>214.8000030517578125</ele>
        <time>2026-08-05T08:57:00.000Z</time>
        <extensions>
          <ns3:TrackPointExtension>
            <ns3:hr>68</ns3:hr>
            <ns3:cad>50</ns3:cad>
          </ns3:TrackPointExtension>
        </extensions>
      </trkpt>
      <trkpt lat="43.48143710754811763763427734375" lon="1.4472383446991443634033203125">
        <ele>214.8000030517578125</ele>
        <time>2026-08-05T08:57:01.000Z</time>
        <extensions>
          <ns3:TrackPointExtension>
            <ns3:hr>68</ns3:hr>
            <ns3:cad>50</ns3:cad>
          </ns3:TrackPointExtension>
        </extensions>
      </trkpt>
      <trkpt lat="43.48144331015646457672119140625" lon="1.4472232572734355926513671875">
        <ele>214.8000030517578125</ele>
        <time>2026-08-05T08:57:02.000Z</time>
        <extensions>
          <ns3:TrackPointExtension>
            <ns3:hr>68</ns3:hr>
            <ns3:cad>50</ns3:cad>
          </ns3:TrackPointExtension>
        </extensions>
      </trkpt>
      <trkpt lat="43.4814494289457798004150390625" lon="1.4472081698477268218994140625">
        <ele>214.8000030517578125</ele>
        <time>2026-08-05T08:57:03.000Z</time>
        <extensions>
          <ns3:TrackPointExtension>
            <ns3:hr>68</ns3:hr>
            <ns3:cad>50</ns3:cad>
          </ns3:TrackPointExtension>
        </extensions>
      </trkpt>
      <trkpt lat="43.48145688883960247039794921875" lon="1.447193920612335205078125">
        <ele>214.8000030517578125</ele>
        <time>2026-08-05T08:57:04.000Z</time>
        <extensions>
          <ns3:TrackPointExtension>
            <ns3:hr>68</ns3:hr>
            <ns3:cad>49</ns3:cad>
          </ns3:TrackPointExtension>
        </extensions>
      </trkpt>
      <trkpt lat="43.48146460019052028656005859375" lon="1.44718327559530735015869140625">
        <ele>214.600006103515625</ele>
        <time>2026-08-05T08:57:05.000Z</time>
        <extensions>
          <ns3:TrackPointExtension>
            <ns3:hr>69</ns3:hr>
            <ns3:cad>49</ns3:cad>
          </ns3:TrackPointExtension>
        </extensions>
      </trkpt>
      <trkpt lat="43.48147147335112094879150390625" lon="1.44716986455023288726806640625">
        <ele>214.600006103515625</ele>
        <time>2026-08-05T08:57:06.000Z</time>
        <extensions>
          <ns3:TrackPointExtension>
            <ns3:hr>69</ns3:hr>
            <ns3:cad>50</ns3:cad>
          </ns3:TrackPointExtension>
        </extensions>
      </trkpt>
      <trkpt lat="43.48147817887365818023681640625" lon="1.44715511240065097808837890625">
        <ele>214.399993896484375</ele>
        <time>2026-08-05T08:57:07.000Z</time>
        <extensions>
          <ns3:TrackPointExtension>
            <ns3:hr>69</ns3:hr>
            <ns3:cad>50</ns3:cad>
          </ns3:TrackPointExtension>
        </extensions>
      </trkpt>
      <trkpt lat="43.48148605786263942718505859375" lon="1.44714019261300563812255859375">
        <ele>214.399993896484375</ele>
        <time>2026-08-05T08:57:08.000Z</time>
        <extensions>
          <ns3:TrackPointExtension>
            <ns3:hr>69</ns3:hr>
            <ns3:cad>50</ns3:cad>
          </ns3:TrackPointExtension>
        </extensions>
      </trkpt>
      <trkpt lat="43.48149343393743038177490234375" lon="1.44712694920599460601806640625">
        <ele>214.1999969482421875</ele>
        <time>2026-08-05T08:57:09.000Z</time>
        <extensions>
          <ns3:TrackPointExtension>
            <ns3:hr>70</ns3:hr>
            <ns3:cad>50</ns3:cad>
          </ns3:TrackPointExtension>
        </extensions>
      </trkpt>
      <trkpt lat="43.48149997182190418243408203125" lon="1.447115130722522735595703125">
        <ele>214.1999969482421875</ele>
        <time>2026-08-05T08:57:10.000Z</time>
        <extensions>
          <ns3:TrackPointExtension>
            <ns3:hr>70</ns3:hr>
            <ns3:cad>50</ns3:cad>
          </ns3:TrackPointExtension>
        </extensions>
      </trkpt>
      <trkpt lat="43.4815067611634731292724609375" lon="1.4471059106290340423583984375">
        <ele>214.1999969482421875</ele>
        <time>2026-08-05T08:57:11.000Z</time>
        <extensions>
          <ns3:TrackPointExtension>
            <ns3:hr>70</ns3:hr>
            <ns3:cad>50</ns3:cad>
          </ns3:TrackPointExtension>
        </extensions>
      </trkpt>
      <trkpt lat="43.4815121255815029144287109375" lon="1.44709509797394275665283203125">
        <ele>214.1999969482421875</ele>
        <time>2026-08-05T08:57:12.000Z</time>
        <extensions>
          <ns3:TrackPointExtension>
            <ns3:hr>70</ns3:hr>
            <ns3:cad>51</ns3:cad>
          </ns3:TrackPointExtension>
        </extensions>
      </trkpt>
      <trkpt lat="43.48151757381856441497802734375" lon="1.44708202220499515533447265625">
        <ele>214</ele>
        <time>2026-08-05T08:57:13.000Z</time>
        <extensions>
          <ns3:TrackPointExtension>
            <ns3:hr>70</ns3:hr>
            <ns3:cad>50</ns3:cad>
          </ns3:TrackPointExtension>
        </extensions>
      </trkpt>
      <trkpt lat="43.481522686779499053955078125" lon="1.44706727005541324615478515625">
        <ele>214</ele>
        <time>2026-08-05T08:57:14.000Z</time>
        <extensions>
          <ns3:TrackPointExtension>
            <ns3:hr>69</ns3:hr>
            <ns3:cad>50</ns3:cad>
          </ns3:TrackPointExtension>
        </extensions>
      </trkpt>
      <trkpt lat="43.48152746446430683135986328125" lon="1.447052098810672760009765625">
        <ele>214</ele>
        <time>2026-08-05T08:57:15.000Z</time>
        <extensions>
          <ns3:TrackPointExtension>
            <ns3:hr>69</ns3:hr>
            <ns3:cad>50</ns3:cad>
          </ns3:TrackPointExtension>
        </extensions>
      </trkpt>
      <trkpt lat="43.48153215833008289337158203125" lon="1.4470370113849639892578125">
        <ele>214</ele>
        <time>2026-08-05T08:57:16.000Z</time>
        <extensions>
          <ns3:TrackPointExtension>
            <ns3:hr>69</ns3:hr>
            <ns3:cad>49</ns3:cad>
          </ns3:TrackPointExtension>
        </extensions>
      </trkpt>
      <trkpt lat="43.48153869621455669403076171875" lon="1.44702385179698467254638671875">
        <ele>214</ele>
        <time>2026-08-05T08:57:17.000Z</time>
        <extensions>
          <ns3:TrackPointExtension>
            <ns3:hr>68</ns3:hr>
            <ns3:cad>49</ns3:cad>
          </ns3:TrackPointExtension>
        </extensions>
      </trkpt>
      <trkpt lat="43.4815463237464427947998046875" lon="1.4470103569328784942626953125">
        <ele>214</ele>
        <time>2026-08-05T08:57:18.000Z</time>
        <extensions>
          <ns3:TrackPointExtension>
            <ns3:hr>67</ns3:hr>
            <ns3:cad>49</ns3:cad>
          </ns3:TrackPointExtension>
        </extensions>
      </trkpt>
      <trkpt lat="43.48155328072607517242431640625" lon="1.4469989575445652008056640625">
        <ele>213.8000030517578125</ele>
        <time>2026-08-05T08:57:19.000Z</time>
        <extensions>
          <ns3:TrackPointExtension>
            <ns3:hr>66</ns3:hr>
            <ns3:cad>50</ns3:cad>
          </ns3:TrackPointExtension>
        </extensions>
      </trkpt>
      <trkpt lat="43.48155797459185123443603515625" lon="1.4469845406711101531982421875">
        <ele>213.8000030517578125</ele>
        <time>2026-08-05T08:57:20.000Z</time>
        <extensions>
          <ns3:TrackPointExtension>
            <ns3:hr>65</ns3:hr>
            <ns3:cad>50</ns3:cad>
          </ns3:TrackPointExtension>
        </extensions>
      </trkpt>
      <trkpt lat="43.4815630875527858734130859375" lon="1.44697221927344799041748046875">
        <ele>213.600006103515625</ele>
        <time>2026-08-05T08:57:21.000Z</time>
        <extensions>
          <ns3:TrackPointExtension>
            <ns3:hr>65</ns3:hr>
            <ns3:cad>50</ns3:cad>
          </ns3:TrackPointExtension>
        </extensions>
      </trkpt>
      <trkpt lat="43.481568284332752227783203125" lon="1.44695964641869068145751953125">
        <ele>213.600006103515625</ele>
        <time>2026-08-05T08:57:22.000Z</time>
        <extensions>
          <ns3:TrackPointExtension>
            <ns3:hr>64</ns3:hr>
            <ns3:cad>51</ns3:cad>
          </ns3:TrackPointExtension>
        </extensions>
      </trkpt>
      <trkpt lat="43.48157574422657489776611328125" lon="1.4469469897449016571044921875">
        <ele>213.399993896484375</ele>
        <time>2026-08-05T08:57:23.000Z</time>
        <extensions>
          <ns3:TrackPointExtension>
            <ns3:hr>64</ns3:hr>
            <ns3:cad>51</ns3:cad>
          </ns3:TrackPointExtension>
        </extensions>
      </trkpt>
      <trkpt lat="43.48158194683492183685302734375" lon="1.446936093270778656005859375">
        <ele>213.399993896484375</ele>
        <time>2026-08-05T08:57:24.000Z</time>
        <extensions>
          <ns3:TrackPointExtension>
            <ns3:hr>64</ns3:hr>
            <ns3:cad>51</ns3:cad>
          </ns3:TrackPointExtension>
        </extensions>
      </trkpt>
      <trkpt lat="43.48158848471939563751220703125" lon="1.4469243586063385009765625">
        <ele>213.399993896484375</ele>
        <time>2026-08-05T08:57:25.000Z</time>
        <extensions>
          <ns3:TrackPointExtension>
            <ns3:hr>65</ns3:hr>
            <ns3:cad>51</ns3:cad>
          </ns3:TrackPointExtension>
        </extensions>
      </trkpt>
      <trkpt lat="43.4815952740609645843505859375" lon="1.4469109475612640380859375">
        <ele>213.399993896484375</ele>
        <time>2026-08-05T08:57:26.000Z</time>
        <extensions>
          <ns3:TrackPointExtension>
            <ns3:hr>65</ns3:hr>
            <ns3:cad>50</ns3:cad>
          </ns3:TrackPointExtension>
        </extensions>
      </trkpt>
      <trkpt lat="43.48160156048834323883056640625" lon="1.4468983747065067291259765625">
        <ele>213.399993896484375</ele>
        <time>2026-08-05T08:57:27.000Z</time>
        <extensions>
          <ns3:TrackPointExtension>
            <ns3:hr>66</ns3:hr>
            <ns3:cad>50</ns3:cad>
          </ns3:TrackPointExtension>
        </extensions>
      </trkpt>
      <trkpt lat="43.4816073440015316009521484375" lon="1.44688479602336883544921875">
        <ele>213.399993896484375</ele>
        <time>2026-08-05T08:57:28.000Z</time>
        <extensions>
          <ns3:TrackPointExtension>
            <ns3:hr>66</ns3:hr>
            <ns3:cad>50</ns3:cad>
          </ns3:TrackPointExtension>
        </extensions>
      </trkpt>
      <trkpt lat="43.4816133789718151092529296875" lon="1.446870379149913787841796875">
        <ele>213.399993896484375</ele>
        <time>2026-08-05T08:57:29.000Z</time>
        <extensions>
          <ns3:TrackPointExtension>
            <ns3:hr>66</ns3:hr>
            <ns3:cad>50</ns3:cad>
          </ns3:TrackPointExtension>
        </extensions>
      </trkpt>
      <trkpt lat="43.48162184469401836395263671875" lon="1.44685587845742702484130859375">
        <ele>213.1999969482421875</ele>
        <time>2026-08-05T08:57:30.000Z</time>
        <extensions>
          <ns3:TrackPointExtension>
            <ns3:hr>67</ns3:hr>
            <ns3:cad>48</ns3:cad>
          </ns3:TrackPointExtension>
        </extensions>
      </trkpt>
      <trkpt lat="43.48162586800754070281982421875" lon="1.44684347324073314666748046875">
        <ele>213.1999969482421875</ele>
        <time>2026-08-05T08:57:31.000Z</time>
        <extensions>
          <ns3:TrackPointExtension>
            <ns3:hr>66</ns3:hr>
            <ns3:cad>48</ns3:cad>
          </ns3:TrackPointExtension>
        </extensions>
      </trkpt>
      <trkpt lat="43.4816331602632999420166015625" lon="1.44683240912854671478271484375">
        <ele>213</ele>
        <time>2026-08-05T08:57:32.000Z</time>
        <extensions>
          <ns3:TrackPointExtension>
            <ns3:hr>66</ns3:hr>
            <ns3:cad>48</ns3:cad>
          </ns3:TrackPointExtension>
        </extensions>
      </trkpt>
      <trkpt lat="43.4816375188529491424560546875" lon="1.44681774079799652099609375">
        <ele>213</ele>
        <time>2026-08-05T08:57:33.000Z</time>
        <extensions>
          <ns3:TrackPointExtension>
            <ns3:hr>66</ns3:hr>
            <ns3:cad>48</ns3:cad>
          </ns3:TrackPointExtension>
        </extensions>
      </trkpt>
      <trkpt lat="43.481644727289676666259765625" lon="1.4468063414096832275390625">
        <ele>213</ele>
        <time>2026-08-05T08:57:34.000Z</time>
        <extensions>
          <ns3:TrackPointExtension>
            <ns3:hr>66</ns3:hr>
            <ns3:cad>48</ns3:cad>
          </ns3:TrackPointExtension>
        </extensions>
      </trkpt>
      <trkpt lat="43.481652438640594482421875" lon="1.44679586403071880340576171875">
        <ele>213</ele>
        <time>2026-08-05T08:57:35.000Z</time>
        <extensions>
          <ns3:TrackPointExtension>
            <ns3:hr>66</ns3:hr>
            <ns3:cad>49</ns3:cad>
          </ns3:TrackPointExtension>
        </extensions>
      </trkpt>
      <trkpt lat="43.48166056908667087554931640625" lon="1.446783207356929779052734375">
        <ele>212.8000030517578125</ele>
        <time>2026-08-05T08:57:36.000Z</time>
        <extensions>
          <ns3:TrackPointExtension>
            <ns3:hr>65</ns3:hr>
            <ns3:cad>49</ns3:cad>
          </ns3:TrackPointExtension>
        </extensions>
      </trkpt>
      <trkpt lat="43.48166760988533496856689453125" lon="1.44677004776895046234130859375">
        <ele>212.8000030517578125</ele>
        <time>2026-08-05T08:57:37.000Z</time>
        <extensions>
          <ns3:TrackPointExtension>
            <ns3:hr>65</ns3:hr>
            <ns3:cad>49</ns3:cad>
          </ns3:TrackPointExtension>
        </extensions>
      </trkpt>
      <trkpt lat="43.4816730581223964691162109375" lon="1.44675378687679767608642578125">
        <ele>212.600006103515625</ele>
        <time>2026-08-05T08:57:38.000Z</time>
        <extensions>
          <ns3:TrackPointExtension>
            <ns3:hr>65</ns3:hr>
            <ns3:cad>49</ns3:cad>
          </ns3:TrackPointExtension>
        </extensions>
      </trkpt>
      <trkpt lat="43.4816780872642993927001953125" lon="1.4467387832701206207275390625">
        <ele>212.600006103515625</ele>
        <time>2026-08-05T08:57:39.000Z</time>
        <extensions>
          <ns3:TrackPointExtension>
            <ns3:hr>65</ns3:hr>
            <ns3:cad>50</ns3:cad>
          </ns3:TrackPointExtension>
        </extensions>
      </trkpt>
      <trkpt lat="43.481682948768138885498046875" lon="1.44672612659633159637451171875">
        <ele>212.600006103515625</ele>
        <time>2026-08-05T08:57:40.000Z</time>
        <extensions>
          <ns3:TrackPointExtension>
            <ns3:hr>65</ns3:hr>
            <ns3:cad>50</ns3:cad>
          </ns3:TrackPointExtension>
        </extensions>
      </trkpt>
      <trkpt lat="43.48168873228132724761962890625" lon="1.44671523012220859527587890625">
        <ele>212.399993896484375</ele>
        <time>2026-08-05T08:57:41.000Z</time>
        <extensions>
          <ns3:TrackPointExtension>
            <ns3:hr>65</ns3:hr>
            <ns3:cad>50</ns3:cad>
          </ns3:TrackPointExtension>
        </extensions>
      </trkpt>
      <trkpt lat="43.48169493488967418670654296875" lon="1.44670567475259304046630859375">
        <ele>212.399993896484375</ele>
        <time>2026-08-05T08:57:42.000Z</time>
        <extensions>
          <ns3:TrackPointExtension>
            <ns3:hr>65</ns3:hr>
            <ns3:cad>50</ns3:cad>
          </ns3:TrackPointExtension>
        </extensions>
      </trkpt>
      <trkpt lat="43.4817065857350826263427734375" lon="1.4466911740601062774658203125">
        <ele>212.399993896484375</ele>
        <time>2026-08-05T08:57:43.000Z</time>
        <extensions>
          <ns3:TrackPointExtension>
            <ns3:hr>65</ns3:hr>
            <ns3:cad>50</ns3:cad>
          </ns3:TrackPointExtension>
        </extensions>
      </trkpt>
      <trkpt lat="43.4817127883434295654296875" lon="1.44668119959533214569091796875">
        <ele>212.399993896484375</ele>
        <time>2026-08-05T08:57:44.000Z</time>
        <extensions>
          <ns3:TrackPointExtension>
            <ns3:hr>65</ns3:hr>
            <ns3:cad>50</ns3:cad>
          </ns3:TrackPointExtension>
        </extensions>
      </trkpt>
      <trkpt lat="43.481718488037586212158203125" lon="1.44667265005409717559814453125">
        <ele>212.399993896484375</ele>
        <time>2026-08-05T08:57:45.000Z</time>
        <extensions>
          <ns3:TrackPointExtension>
            <ns3:hr>65</ns3:hr>
            <ns3:cad>50</ns3:cad>
          </ns3:TrackPointExtension>
        </extensions>
      </trkpt>
      <trkpt lat="43.481723181903362274169921875" lon="1.4466599933803081512451171875">
        <ele>212.399993896484375</ele>
        <time>2026-08-05T08:57:46.000Z</time>
        <extensions>
          <ns3:TrackPointExtension>
            <ns3:hr>65</ns3:hr>
            <ns3:cad>50</ns3:cad>
          </ns3:TrackPointExtension>
        </extensions>
      </trkpt>
      <trkpt lat="43.4817277081310749053955078125" lon="1.44664867781102657318115234375">
        <ele>212.1999969482421875</ele>
        <time>2026-08-05T08:57:47.000Z</time>
        <extensions>
          <ns3:TrackPointExtension>
            <ns3:hr>65</ns3:hr>
            <ns3:cad>50</ns3:cad>
          </ns3:TrackPointExtension>
        </extensions>
      </trkpt>
      <trkpt lat="43.4817337431013584136962890625" lon="1.44663476385176181793212890625">
        <ele>212.1999969482421875</ele>
        <time>2026-08-05T08:57:48.000Z</time>
        <extensions>
          <ns3:TrackPointExtension>
            <ns3:hr>65</ns3:hr>
            <ns3:cad>50</ns3:cad>
          </ns3:TrackPointExtension>
        </extensions>
      </trkpt>
      <trkpt lat="43.481739275157451629638671875" lon="1.4466212689876556396484375">
        <ele>212.1999969482421875</ele>
        <time>2026-08-05T08:57:49.000Z</time>
        <extensions>
          <ns3:TrackPointExtension>
            <ns3:hr>65</ns3:hr>
            <ns3:cad>50</ns3:cad>
          </ns3:TrackPointExtension>
        </extensions>
      </trkpt>
      <trkpt lat="43.4817451424896717071533203125" lon="1.44660525955259799957275390625">
        <ele>212</ele>
        <time>2026-08-05T08:57:50.000Z</time>
        <extensions>
          <ns3:TrackPointExtension>
            <ns3:hr>65</ns3:hr>
            <ns3:cad>50</ns3:cad>
          </ns3:TrackPointExtension>
        </extensions>
      </trkpt>
      <trkpt lat="43.4817511774599552154541015625" lon="1.4465909264981746673583984375">
        <ele>212</ele>
        <time>2026-08-05T08:57:51.000Z</time>
        <extensions>
          <ns3:TrackPointExtension>
            <ns3:hr>66</ns3:hr>
            <ns3:cad>50</ns3:cad>
          </ns3:TrackPointExtension>
        </extensions>
      </trkpt>
      <trkpt lat="43.48175830207765102386474609375" lon="1.44657793454825878143310546875">
        <ele>211.8000030517578125</ele>
        <time>2026-08-05T08:57:52.000Z</time>
        <extensions>
          <ns3:TrackPointExtension>
            <ns3:hr>65</ns3:hr>
            <ns3:cad>50</ns3:cad>
          </ns3:TrackPointExtension>
        </extensions>
      </trkpt>
      <trkpt lat="43.48176182247698307037353515625" lon="1.44657005555927753448486328125">
        <ele>211.600006103515625</ele>
        <time>2026-08-05T08:57:53.000Z</time>
        <extensions>
          <ns3:TrackPointExtension>
            <ns3:hr>65</ns3:hr>
            <ns3:cad>50</ns3:cad>
          </ns3:TrackPointExtension>
        </extensions>
      </trkpt>
      <trkpt lat="43.48176383413374423980712890625" lon="1.4465590752661228179931640625">
        <ele>211.600006103515625</ele>
        <time>2026-08-05T08:57:54.000Z</time>
        <extensions>
          <ns3:TrackPointExtension>
            <ns3:hr>65</ns3:hr>
            <ns3:cad>50</ns3:cad>
          </ns3:TrackPointExtension>
        </extensions>
      </trkpt>
      <trkpt lat="43.48176903091371059417724609375" lon="1.4465434849262237548828125">
        <ele>211.399993896484375</ele>
        <time>2026-08-05T08:57:55.000Z</time>
        <extensions>
          <ns3:TrackPointExtension>
            <ns3:hr>65</ns3:hr>
            <ns3:cad>50</ns3:cad>
          </ns3:TrackPointExtension>
        </extensions>
      </trkpt>
      <trkpt lat="43.48177657462656497955322265625" lon="1.4465278945863246917724609375">
        <ele>211.399993896484375</ele>
        <time>2026-08-05T08:57:56.000Z</time>
        <extensions>
          <ns3:TrackPointExtension>
            <ns3:hr>65</ns3:hr>
            <ns3:cad>50</ns3:cad>
          </ns3:TrackPointExtension>
        </extensions>
      </trkpt>
      <trkpt lat="43.48178210668265819549560546875" lon="1.4465134777128696441650390625">
        <ele>211.1999969482421875</ele>
        <time>2026-08-05T08:57:57.000Z</time>
        <extensions>
          <ns3:TrackPointExtension>
            <ns3:hr>66</ns3:hr>
            <ns3:cad>50</ns3:cad>
          </ns3:TrackPointExtension>
        </extensions>
      </trkpt>
      <trkpt lat="43.48178763873875141143798828125" lon="1.44650065340101718902587890625">
        <ele>211.1999969482421875</ele>
        <time>2026-08-05T08:57:58.000Z</time>
        <extensions>
          <ns3:TrackPointExtension>
            <ns3:hr>67</ns3:hr>
            <ns3:cad>49</ns3:cad>
          </ns3:TrackPointExtension>
        </extensions>
      </trkpt>
      <trkpt lat="43.481790907680988311767578125" lon="1.4464898407459259033203125">
        <ele>211</ele>
        <time>2026-08-05T08:57:59.000Z</time>
        <extensions>
          <ns3:TrackPointExtension>
            <ns3:hr>68</ns3:hr>
            <ns3:cad>49</ns3:cad>
          </ns3:TrackPointExtension>
        </extensions>
      </trkpt>
      <trkpt lat="43.48179501481354236602783203125" lon="1.44647701643407344818115234375">
        <ele>211</ele>
        <time>2026-08-05T08:58:00.000Z</time>
        <extensions>
          <ns3:TrackPointExtension>
            <ns3:hr>69</ns3:hr>
            <ns3:cad>51</ns3:cad>
          </ns3:TrackPointExtension>
        </extensions>
      </trkpt>
      <trkpt lat="43.48179970867931842803955078125" lon="1.44646058790385723114013671875">
        <ele>210.8000030517578125</ele>
        <time>2026-08-05T08:58:01.000Z</time>
        <extensions>
          <ns3:TrackPointExtension>
            <ns3:hr>69</ns3:hr>
            <ns3:cad>51</ns3:cad>
          </ns3:TrackPointExtension>
        </extensions>
      </trkpt>
      <trkpt lat="43.48180339671671390533447265625" lon="1.44644332118332386016845703125">
        <ele>210.8000030517578125</ele>
        <time>2026-08-05T08:58:02.000Z</time>
        <extensions>
          <ns3:TrackPointExtension>
            <ns3:hr>70</ns3:hr>
            <ns3:cad>50</ns3:cad>
          </ns3:TrackPointExtension>
        </extensions>
      </trkpt>
      <trkpt lat="43.48180658183991909027099609375" lon="1.44642756320536136627197265625">
        <ele>210.8000030517578125</ele>
        <time>2026-08-05T08:58:03.000Z</time>
        <extensions>
          <ns3:TrackPointExtension>
            <ns3:hr>71</ns3:hr>
            <ns3:cad>50</ns3:cad>
          </ns3:TrackPointExtension>
        </extensions>
      </trkpt>
      <trkpt lat="43.4818108566105365753173828125" lon="1.44641079939901828765869140625">
        <ele>210.8000030517578125</ele>
        <time>2026-08-05T08:58:04.000Z</time>
        <extensions>
          <ns3:TrackPointExtension>
            <ns3:hr>71</ns3:hr>
            <ns3:cad>50</ns3:cad>
          </ns3:TrackPointExtension>
        </extensions>
      </trkpt>
      <trkpt lat="43.48181613720953464508056640625" lon="1.44640174694359302520751953125">
        <ele>210.600006103515625</ele>
        <time>2026-08-05T08:58:05.000Z</time>
        <extensions>
          <ns3:TrackPointExtension>
            <ns3:hr>71</ns3:hr>
            <ns3:cad>50</ns3:cad>
          </ns3:TrackPointExtension>
        </extensions>
      </trkpt>
      <trkpt lat="43.4818189032375812530517578125" lon="1.44638783298432826995849609375">
        <ele>210.600006103515625</ele>
        <time>2026-08-05T08:58:06.000Z</time>
        <extensions>
          <ns3:TrackPointExtension>
            <ns3:hr>72</ns3:hr>
            <ns3:cad>50</ns3:cad>
          </ns3:TrackPointExtension>
        </extensions>
      </trkpt>
      <trkpt lat="43.48182451911270618438720703125" lon="1.44637190736830234527587890625">
        <ele>210.600006103515625</ele>
        <time>2026-08-05T08:58:07.000Z</time>
        <extensions>
          <ns3:TrackPointExtension>
            <ns3:hr>72</ns3:hr>
            <ns3:cad>50</ns3:cad>
          </ns3:TrackPointExtension>
        </extensions>
      </trkpt>
      <trkpt lat="43.48183139227330684661865234375" lon="1.44635413773357868194580078125">
        <ele>210.399993896484375</ele>
        <time>2026-08-05T08:58:08.000Z</time>
        <extensions>
          <ns3:TrackPointExtension>
            <ns3:hr>72</ns3:hr>
            <ns3:cad>50</ns3:cad>
          </ns3:TrackPointExtension>
        </extensions>
      </trkpt>
      <trkpt lat="43.48183725960552692413330078125" lon="1.4463436603546142578125">
        <ele>210.399993896484375</ele>
        <time>2026-08-05T08:58:09.000Z</time>
        <extensions>
          <ns3:TrackPointExtension>
            <ns3:hr>72</ns3:hr>
            <ns3:cad>49</ns3:cad>
          </ns3:TrackPointExtension>
        </extensions>
      </trkpt>
      <trkpt lat="43.48184346221387386322021484375" lon="1.4463290758430957794189453125">
        <ele>210.1999969482421875</ele>
        <time>2026-08-05T08:58:10.000Z</time>
        <extensions>
          <ns3:TrackPointExtension>
            <ns3:hr>72</ns3:hr>
            <ns3:cad>49</ns3:cad>
          </ns3:TrackPointExtension>
        </extensions>
      </trkpt>
      <trkpt lat="43.48184664733707904815673828125" lon="1.4463136531412601470947265625">
        <ele>210.1999969482421875</ele>
        <time>2026-08-05T08:58:11.000Z</time>
        <extensions>
          <ns3:TrackPointExtension>
            <ns3:hr>73</ns3:hr>
            <ns3:cad>49</ns3:cad>
          </ns3:TrackPointExtension>
        </extensions>
      </trkpt>
      <trkpt lat="43.481849245727062225341796875" lon="1.44630267284810543060302734375">
        <ele>210</ele>
        <time>2026-08-05T08:58:12.000Z</time>
        <extensions>
          <ns3:TrackPointExtension>
            <ns3:hr>73</ns3:hr>
            <ns3:cad>50</ns3:cad>
          </ns3:TrackPointExtension>
        </extensions>
      </trkpt>
      <trkpt lat="43.4818520955741405487060546875" lon="1.44629144109785556793212890625">
        <ele>209.8000030517578125</ele>
        <time>2026-08-05T08:58:13.000Z</time>
        <extensions>
          <ns3:TrackPointExtension>
            <ns3:hr>73</ns3:hr>
            <ns3:cad>50</ns3:cad>
          </ns3:TrackPointExtension>
        </extensions>
      </trkpt>
      <trkpt lat="43.4818574599921703338623046875" lon="1.44627551548182964324951171875">
        <ele>209.600006103515625</ele>
        <time>2026-08-05T08:58:14.000Z</time>
        <extensions>
          <ns3:TrackPointExtension>
            <ns3:hr>74</ns3:hr>
            <ns3:cad>51</ns3:cad>
          </ns3:TrackPointExtension>
        </extensions>
      </trkpt>
      <trkpt lat="43.4818618185818195343017578125" lon="1.4462613500654697418212890625">
        <ele>209.600006103515625</ele>
        <time>2026-08-05T08:58:15.000Z</time>
        <extensions>
          <ns3:TrackPointExtension>
            <ns3:hr>73</ns3:hr>
            <ns3:cad>51</ns3:cad>
          </ns3:TrackPointExtension>
        </extensions>
      </trkpt>
      <trkpt lat="43.48186424933373928070068359375" lon="1.44624651409685611724853515625">
        <ele>209.399993896484375</ele>
        <time>2026-08-05T08:58:16.000Z</time>
        <extensions>
          <ns3:TrackPointExtension>
            <ns3:hr>73</ns3:hr>
            <ns3:cad>51</ns3:cad>
          </ns3:TrackPointExtension>
        </extensions>
      </trkpt>
      <trkpt lat="43.4818695299327373504638671875" lon="1.44623260013759136199951171875">
        <ele>209.399993896484375</ele>
        <time>2026-08-05T08:58:17.000Z</time>
        <extensions>
          <ns3:TrackPointExtension>
            <ns3:hr>73</ns3:hr>
            <ns3:cad>51</ns3:cad>
          </ns3:TrackPointExtension>
        </extensions>
      </trkpt>
      <trkpt lat="43.4818725474178791046142578125" lon="1.44621985964477062225341796875">
        <ele>209.399993896484375</ele>
        <time>2026-08-05T08:58:18.000Z</time>
        <extensions>
          <ns3:TrackPointExtension>
            <ns3:hr>74</ns3:hr>
            <ns3:cad>52</ns3:cad>
          </ns3:TrackPointExtension>
        </extensions>
      </trkpt>
      <trkpt lat="43.48187749274075031280517578125" lon="1.4462050236761569976806640625">
        <ele>209.1999969482421875</ele>
        <time>2026-08-05T08:58:19.000Z</time>
        <extensions>
          <ns3:TrackPointExtension>
            <ns3:hr>73</ns3:hr>
            <ns3:cad>52</ns3:cad>
          </ns3:TrackPointExtension>
        </extensions>
      </trkpt>
      <trkpt lat="43.48188051022589206695556640625" lon="1.44619035534560680389404296875">
        <ele>209.1999969482421875</ele>
        <time>2026-08-05T08:58:20.000Z</time>
        <extensions>
          <ns3:TrackPointExtension>
            <ns3:hr>73</ns3:hr>
            <ns3:cad>51</ns3:cad>
          </ns3:TrackPointExtension>
        </extensions>
      </trkpt>
      <trkpt lat="43.48188403062522411346435546875" lon="1.44617426209151744842529296875">
        <ele>209</ele>
        <time>2026-08-05T08:58:21.000Z</time>
        <extensions>
          <ns3:TrackPointExtension>
            <ns3:hr>73</ns3:hr>
            <ns3:cad>51</ns3:cad>
          </ns3:TrackPointExtension>
        </extensions>
      </trkpt>
      <trkpt lat="43.48188704811036586761474609375" lon="1.44615850411355495452880859375">
        <ele>208.8000030517578125</ele>
        <time>2026-08-05T08:58:22.000Z</time>
        <extensions>
          <ns3:TrackPointExtension>
            <ns3:hr>73</ns3:hr>
            <ns3:cad>51</ns3:cad>
          </ns3:TrackPointExtension>
        </extensions>
      </trkpt>
      <trkpt lat="43.48188914358615875244140625" lon="1.446142159402370452880859375">
        <ele>208.600006103515625</ele>
        <time>2026-08-05T08:58:23.000Z</time>
        <extensions>
          <ns3:TrackPointExtension>
            <ns3:hr>73</ns3:hr>
            <ns3:cad>51</ns3:cad>
          </ns3:TrackPointExtension>
        </extensions>
      </trkpt>
      <trkpt lat="43.48189090378582477569580078125" lon="1.4461272396147251129150390625">
        <ele>208.600006103515625</ele>
        <time>2026-08-05T08:58:24.000Z</time>
        <extensions>
          <ns3:TrackPointExtension>
            <ns3:hr>73</ns3:hr>
            <ns3:cad>51</ns3:cad>
          </ns3:TrackPointExtension>
        </extensions>
      </trkpt>
      <trkpt lat="43.48189107142388820648193359375" lon="1.44611123017966747283935546875">
        <ele>208.399993896484375</ele>
        <time>2026-08-05T08:58:25.000Z</time>
        <extensions>
          <ns3:TrackPointExtension>
            <ns3:hr>73</ns3:hr>
            <ns3:cad>52</ns3:cad>
          </ns3:TrackPointExtension>
        </extensions>
      </trkpt>
      <trkpt lat="43.4818919934332370758056640625" lon="1.44609647803008556365966796875">
        <ele>208.399993896484375</ele>
        <time>2026-08-05T08:58:26.000Z</time>
        <extensions>
          <ns3:TrackPointExtension>
            <ns3:hr>73</ns3:hr>
            <ns3:cad>52</ns3:cad>
          </ns3:TrackPointExtension>
        </extensions>
      </trkpt>
      <trkpt lat="43.481892161071300506591796875" lon="1.4460799656808376312255859375">
        <ele>208.1999969482421875</ele>
        <time>2026-08-05T08:58:27.000Z</time>
        <extensions>
          <ns3:TrackPointExtension>
            <ns3:hr>73</ns3:hr>
            <ns3:cad>52</ns3:cad>
          </ns3:TrackPointExtension>
        </extensions>
      </trkpt>
      <trkpt lat="43.48189274780452251434326171875" lon="1.4460660517215728759765625">
        <ele>208.1999969482421875</ele>
        <time>2026-08-05T08:58:28.000Z</time>
        <extensions>
          <ns3:TrackPointExtension>
            <ns3:hr>73</ns3:hr>
            <ns3:cad>52</ns3:cad>
          </ns3:TrackPointExtension>
        </extensions>
      </trkpt>
      <trkpt lat="43.4818946756422519683837890625" lon="1.44604786299169063568115234375">
        <ele>208</ele>
        <time>2026-08-05T08:58:29.000Z</time>
        <extensions>
          <ns3:TrackPointExtension>
            <ns3:hr>73</ns3:hr>
            <ns3:cad>52</ns3:cad>
          </ns3:TrackPointExtension>
        </extensions>
      </trkpt>
      <trkpt lat="43.48189719021320343017578125" lon="1.44603059627115726470947265625">
        <ele>207.8000030517578125</ele>
        <time>2026-08-05T08:58:30.000Z</time>
        <extensions>
          <ns3:TrackPointExtension>
            <ns3:hr>73</ns3:hr>
            <ns3:cad>51</ns3:cad>
          </ns3:TrackPointExtension>
        </extensions>
      </trkpt>
      <trkpt lat="43.481899201869964599609375" lon="1.44601550884544849395751953125">
        <ele>207.8000030517578125</ele>
        <time>2026-08-05T08:58:31.000Z</time>
        <extensions>
          <ns3:TrackPointExtension>
            <ns3:hr>73</ns3:hr>
            <ns3:cad>51</ns3:cad>
          </ns3:TrackPointExtension>
        </extensions>
      </trkpt>
      <trkpt lat="43.4819013811647891998291015625" lon="1.44600142724812030792236328125">
        <ele>207.600006103515625</ele>
        <time>2026-08-05T08:58:32.000Z</time>
        <extensions>
          <ns3:TrackPointExtension>
            <ns3:hr>72</ns3:hr>
            <ns3:cad>51</ns3:cad>
          </ns3:TrackPointExtension>
        </extensions>
      </trkpt>
      <trkpt lat="43.481903560459613800048828125" lon="1.445988602936267852783203125">
        <ele>207.399993896484375</ele>
        <time>2026-08-05T08:58:33.000Z</time>
        <extensions>
          <ns3:TrackPointExtension>
            <ns3:hr>73</ns3:hr>
            <ns3:cad>51</ns3:cad>
          </ns3:TrackPointExtension>
        </extensions>
      </trkpt>
      <trkpt lat="43.4819060750305652618408203125" lon="1.44597460515797138214111328125">
        <ele>207.399993896484375</ele>
        <time>2026-08-05T08:58:34.000Z</time>
        <extensions>
          <ns3:TrackPointExtension>
            <ns3:hr>73</ns3:hr>
            <ns3:cad>51</ns3:cad>
          </ns3:TrackPointExtension>
        </extensions>
      </trkpt>
      <trkpt lat="43.48190917633473873138427734375" lon="1.445960104465484619140625">
        <ele>207.1999969482421875</ele>
        <time>2026-08-05T08:58:35.000Z</time>
        <extensions>
          <ns3:TrackPointExtension>
            <ns3:hr>73</ns3:hr>
            <ns3:cad>51</ns3:cad>
          </ns3:TrackPointExtension>
        </extensions>
      </trkpt>
      <trkpt lat="43.48191135562956333160400390625" lon="1.4459455199539661407470703125">
        <ele>207</ele>
        <time>2026-08-05T08:58:36.000Z</time>
        <extensions>
          <ns3:TrackPointExtension>
            <ns3:hr>74</ns3:hr>
            <ns3:cad>51</ns3:cad>
          </ns3:TrackPointExtension>
        </extensions>
      </trkpt>
      <trkpt lat="43.4819114394485950469970703125" lon="1.44593101926147937774658203125">
        <ele>207</ele>
        <time>2026-08-05T08:58:37.000Z</time>
        <extensions>
          <ns3:TrackPointExtension>
            <ns3:hr>75</ns3:hr>
            <ns3:cad>51</ns3:cad>
          </ns3:TrackPointExtension>
        </extensions>
      </trkpt>
      <trkpt lat="43.481910265982151031494140625" lon="1.44591710530221462249755859375">
        <ele>206.8000030517578125</ele>
        <time>2026-08-05T08:58:38.000Z</time>
        <extensions>
          <ns3:TrackPointExtension>
            <ns3:hr>75</ns3:hr>
            <ns3:cad>50</ns3:cad>
          </ns3:TrackPointExtension>
        </extensions>
      </trkpt>
      <trkpt lat="43.481911607086658477783203125" lon="1.44590000621974468231201171875">
        <ele>206.8000030517578125</ele>
        <time>2026-08-05T08:58:39.000Z</time>
        <extensions>
          <ns3:TrackPointExtension>
            <ns3:hr>75</ns3:hr>
            <ns3:cad>50</ns3:cad>
          </ns3:TrackPointExtension>
        </extensions>
      </trkpt>
      <trkpt lat="43.4819124452769756317138671875" lon="1.445886678993701934814453125">
        <ele>206.600006103515625</ele>
        <time>2026-08-05T08:58:40.000Z</time>
        <extensions>
          <ns3:TrackPointExtension>
            <ns3:hr>75</ns3:hr>
            <ns3:cad>50</ns3:cad>
          </ns3:TrackPointExtension>
        </extensions>
      </trkpt>
      <trkpt lat="43.481914289295673370361328125" lon="1.44587418995797634124755859375">
        <ele>206.399993896484375</ele>
        <time>2026-08-05T08:58:41.000Z</time>
        <extensions>
          <ns3:TrackPointExtension>
            <ns3:hr>75</ns3:hr>
            <ns3:cad>51</ns3:cad>
          </ns3:TrackPointExtension>
        </extensions>
      </trkpt>
      <trkpt lat="43.4819147922098636627197265625" lon="1.4458613656461238861083984375">
        <ele>206.399993896484375</ele>
        <time>2026-08-05T08:58:42.000Z</time>
        <extensions>
          <ns3:TrackPointExtension>
            <ns3:hr>74</ns3:hr>
            <ns3:cad>51</ns3:cad>
          </ns3:TrackPointExtension>
        </extensions>
      </trkpt>
      <trkpt lat="43.4819141216576099395751953125" lon="1.44584518857300281524658203125">
        <ele>206.1999969482421875</ele>
        <time>2026-08-05T08:58:43.000Z</time>
        <extensions>
          <ns3:TrackPointExtension>
            <ns3:hr>75</ns3:hr>
            <ns3:cad>51</ns3:cad>
          </ns3:TrackPointExtension>
        </extensions>
      </trkpt>
      <trkpt lat="43.48191487602889537811279296875" lon="1.4458275027573108673095703125">
        <ele>206</ele>
        <time>2026-08-05T08:58:44.000Z</time>
        <extensions>
          <ns3:TrackPointExtension>
            <ns3:hr>75</ns3:hr>
            <ns3:cad>51</ns3:cad>
          </ns3:TrackPointExtension>
        </extensions>
      </trkpt>
      <trkpt lat="43.4819174744188785552978515625" lon="1.4458087272942066192626953125">
        <ele>206</ele>
        <time>2026-08-05T08:58:45.000Z</time>
        <extensions>
          <ns3:TrackPointExtension>
            <ns3:hr>74</ns3:hr>
            <ns3:cad>51</ns3:cad>
          </ns3:TrackPointExtension>
        </extensions>
      </trkpt>
      <trkpt lat="43.4819184802472591400146484375" lon="1.4457949809730052947998046875">
        <ele>205.8000030517578125</ele>
        <time>2026-08-05T08:58:46.000Z</time>
        <extensions>
          <ns3:TrackPointExtension>
            <ns3:hr>74</ns3:hr>
            <ns3:cad>51</ns3:cad>
          </ns3:TrackPointExtension>
        </extensions>
      </trkpt>
      <trkpt lat="43.48191906698048114776611328125" lon="1.4457808993756771087646484375">
        <ele>205.600006103515625</ele>
        <time>2026-08-05T08:58:47.000Z</time>
        <extensions>
          <ns3:TrackPointExtension>
            <ns3:hr>74</ns3:hr>
            <ns3:cad>51</ns3:cad>
          </ns3:TrackPointExtension>
        </extensions>
      </trkpt>
      <trkpt lat="43.48192158155143260955810546875" lon="1.44576254300773143768310546875">
        <ele>205.600006103515625</ele>
        <time>2026-08-05T08:58:48.000Z</time>
        <extensions>
          <ns3:TrackPointExtension>
            <ns3:hr>74</ns3:hr>
            <ns3:cad>51</ns3:cad>
          </ns3:TrackPointExtension>
        </extensions>
      </trkpt>
      <trkpt lat="43.4819214977324008941650390625" lon="1.4457460306584835052490234375">
        <ele>205.1999969482421875</ele>
        <time>2026-08-05T08:58:49.000Z</time>
        <extensions>
          <ns3:TrackPointExtension>
            <ns3:hr>74</ns3:hr>
            <ns3:cad>51</ns3:cad>
          </ns3:TrackPointExtension>
        </extensions>
      </trkpt>
      <trkpt lat="43.481921665370464324951171875" lon="1.445729434490203857421875">
        <ele>205</ele>
        <time>2026-08-05T08:58:50.000Z</time>
        <extensions>
          <ns3:TrackPointExtension>
            <ns3:hr>74</ns3:hr>
            <ns3:cad>51</ns3:cad>
          </ns3:TrackPointExtension>
        </extensions>
      </trkpt>
      <trkpt lat="43.48192258737981319427490234375" lon="1.445713005959987640380859375">
        <ele>205</ele>
        <time>2026-08-05T08:58:51.000Z</time>
        <extensions>
          <ns3:TrackPointExtension>
            <ns3:hr>74</ns3:hr>
            <ns3:cad>52</ns3:cad>
          </ns3:TrackPointExtension>
        </extensions>
      </trkpt>
      <trkpt lat="43.48192342557013034820556640625" lon="1.44570001401007175445556640625">
        <ele>204.8000030517578125</ele>
        <time>2026-08-05T08:58:52.000Z</time>
        <extensions>
          <ns3:TrackPointExtension>
            <ns3:hr>74</ns3:hr>
            <ns3:cad>52</ns3:cad>
          </ns3:TrackPointExtension>
        </extensions>
      </trkpt>
      <trkpt lat="43.48192543722689151763916015625" lon="1.445687524974346160888671875">
        <ele>204.600006103515625</ele>
        <time>2026-08-05T08:58:53.000Z</time>
        <extensions>
          <ns3:TrackPointExtension>
            <ns3:hr>74</ns3:hr>
            <ns3:cad>51</ns3:cad>
          </ns3:TrackPointExtension>
        </extensions>
      </trkpt>
      <trkpt lat="43.4819265268743038177490234375" lon="1.44567520357668399810791015625">
        <ele>204.600006103515625</ele>
        <time>2026-08-05T08:58:54.000Z</time>
        <extensions>
          <ns3:TrackPointExtension>
            <ns3:hr>74</ns3:hr>
            <ns3:cad>50</ns3:cad>
          </ns3:TrackPointExtension>
        </extensions>
      </trkpt>
      <trkpt lat="43.4819275327026844024658203125" lon="1.4456610381603240966796875">
        <ele>204.399993896484375</ele>
        <time>2026-08-05T08:58:55.000Z</time>
        <extensions>
          <ns3:TrackPointExtension>
            <ns3:hr>73</ns3:hr>
            <ns3:cad>50</ns3:cad>
          </ns3:TrackPointExtension>
        </extensions>
      </trkpt>
      <trkpt lat="43.4819285385310649871826171875" lon="1.44564737565815448760986328125">
        <ele>204.399993896484375</ele>
        <time>2026-08-05T08:58:56.000Z</time>
        <extensions>
          <ns3:TrackPointExtension>
            <ns3:hr>73</ns3:hr>
            <ns3:cad>50</ns3:cad>
          </ns3:TrackPointExtension>
        </extensions>
      </trkpt>
      <trkpt lat="43.481929711997509002685546875" lon="1.44563220441341400146484375">
        <ele>204.1999969482421875</ele>
        <time>2026-08-05T08:58:57.000Z</time>
        <extensions>
          <ns3:TrackPointExtension>
            <ns3:hr>73</ns3:hr>
            <ns3:cad>50</ns3:cad>
          </ns3:TrackPointExtension>
        </extensions>
      </trkpt>
      <trkpt lat="43.48193013109266757965087890625" lon="1.44561837427318096160888671875">
        <ele>204</ele>
        <time>2026-08-05T08:58:58.000Z</time>
        <extensions>
          <ns3:TrackPointExtension>
            <ns3:hr>73</ns3:hr>
            <ns3:cad>51</ns3:cad>
          </ns3:TrackPointExtension>
        </extensions>
      </trkpt>
      <trkpt lat="43.48192946054041385650634765625" lon="1.44560270011425018310546875">
        <ele>204</ele>
        <time>2026-08-05T08:58:59.000Z</time>
        <extensions>
          <ns3:TrackPointExtension>
            <ns3:hr>72</ns3:hr>
            <ns3:cad>51</ns3:cad>
          </ns3:TrackPointExtension>
        </extensions>
      </trkpt>
      <trkpt lat="43.48193046636879444122314453125" lon="1.445588953793048858642578125">
        <ele>203.8000030517578125</ele>
        <time>2026-08-05T08:59:00.000Z</time>
        <extensions>
          <ns3:TrackPointExtension>
            <ns3:hr>71</ns3:hr>
            <ns3:cad>51</ns3:cad>
          </ns3:TrackPointExtension>
        </extensions>
      </trkpt>
      <trkpt lat="43.4819315560162067413330078125" lon="1.4455743692815303802490234375">
        <ele>203.8000030517578125</ele>
        <time>2026-08-05T08:59:01.000Z</time>
        <extensions>
          <ns3:TrackPointExtension>
            <ns3:hr>71</ns3:hr>
            <ns3:cad>50</ns3:cad>
          </ns3:TrackPointExtension>
        </extensions>
      </trkpt>
      <trkpt lat="43.481931388378143310546875" lon="1.44556188024580478668212890625">
        <ele>203.600006103515625</ele>
        <time>2026-08-05T08:59:02.000Z</time>
        <extensions>
          <ns3:TrackPointExtension>
            <ns3:hr>71</ns3:hr>
            <ns3:cad>50</ns3:cad>
          </ns3:TrackPointExtension>
        </extensions>
      </trkpt>
      <trkpt lat="43.48193247802555561065673828125" lon="1.445547379553318023681640625">
        <ele>203.399993896484375</ele>
        <time>2026-08-05T08:59:03.000Z</time>
        <extensions>
          <ns3:TrackPointExtension>
            <ns3:hr>71</ns3:hr>
            <ns3:cad>50</ns3:cad>
          </ns3:TrackPointExtension>
        </extensions>
      </trkpt>
      <trkpt lat="43.4819352440536022186279296875" lon="1.44553237594664096832275390625">
        <ele>203.399993896484375</ele>
        <time>2026-08-05T08:59:04.000Z</time>
        <extensions>
          <ns3:TrackPointExtension>
            <ns3:hr>71</ns3:hr>
            <ns3:cad>50</ns3:cad>
          </ns3:TrackPointExtension>
        </extensions>
      </trkpt>
      <trkpt lat="43.481935746967792510986328125" lon="1.44551762379705905914306640625">
        <ele>203.1999969482421875</ele>
        <time>2026-08-05T08:59:05.000Z</time>
        <extensions>
          <ns3:TrackPointExtension>
            <ns3:hr>71</ns3:hr>
            <ns3:cad>50</ns3:cad>
          </ns3:TrackPointExtension>
        </extensions>
      </trkpt>
      <trkpt lat="43.48193666897714138031005859375" lon="1.44550303928554058074951171875">
        <ele>203</ele>
        <time>2026-08-05T08:59:06.000Z</time>
        <extensions>
          <ns3:TrackPointExtension>
            <ns3:hr>72</ns3:hr>
            <ns3:cad>51</ns3:cad>
          </ns3:TrackPointExtension>
        </extensions>
      </trkpt>
      <trkpt lat="43.4819372557103633880615234375" lon="1.44548761658370494842529296875">
        <ele>202.8000030517578125</ele>
        <time>2026-08-05T08:59:07.000Z</time>
        <extensions>
          <ns3:TrackPointExtension>
            <ns3:hr>73</ns3:hr>
            <ns3:cad>51</ns3:cad>
          </ns3:TrackPointExtension>
        </extensions>
      </trkpt>
      <trkpt lat="43.48193868063390254974365234375" lon="1.4454737864434719085693359375">
        <ele>202.600006103515625</ele>
        <time>2026-08-05T08:59:08.000Z</time>
        <extensions>
          <ns3:TrackPointExtension>
            <ns3:hr>73</ns3:hr>
            <ns3:cad>52</ns3:cad>
          </ns3:TrackPointExtension>
        </extensions>
      </trkpt>
      <trkpt lat="43.481941111385822296142578125" lon="1.4454570226371288299560546875">
        <ele>202.399993896484375</ele>
        <time>2026-08-05T08:59:09.000Z</time>
        <extensions>
          <ns3:TrackPointExtension>
            <ns3:hr>73</ns3:hr>
            <ns3:cad>52</ns3:cad>
          </ns3:TrackPointExtension>
        </extensions>
      </trkpt>
      <trkpt lat="43.481941111385822296142578125" lon="1.4454384148120880126953125">
        <ele>202.399993896484375</ele>
        <time>2026-08-05T08:59:10.000Z</time>
        <extensions>
          <ns3:TrackPointExtension>
            <ns3:hr>73</ns3:hr>
            <ns3:cad>52</ns3:cad>
          </ns3:TrackPointExtension>
        </extensions>
      </trkpt>
      <trkpt lat="43.4819412790238857269287109375" lon="1.44542274065315723419189453125">
        <ele>202.1999969482421875</ele>
        <time>2026-08-05T08:59:11.000Z</time>
        <extensions>
          <ns3:TrackPointExtension>
            <ns3:hr>73</ns3:hr>
            <ns3:cad>53</ns3:cad>
          </ns3:TrackPointExtension>
        </extensions>
      </trkpt>
      <trkpt lat="43.4819416143000125885009765625" lon="1.44540446810424327850341796875">
        <ele>202</ele>
        <time>2026-08-05T08:59:12.000Z</time>
        <extensions>
          <ns3:TrackPointExtension>
            <ns3:hr>73</ns3:hr>
            <ns3:cad>53</ns3:cad>
          </ns3:TrackPointExtension>
        </extensions>
      </trkpt>
      <trkpt lat="43.48194220103323459625244140625" lon="1.44538803957402706146240234375">
        <ele>202</ele>
        <time>2026-08-05T08:59:13.000Z</time>
        <extensions>
          <ns3:TrackPointExtension>
            <ns3:hr>73</ns3:hr>
            <ns3:cad>53</ns3:cad>
          </ns3:TrackPointExtension>
        </extensions>
      </trkpt>
      <trkpt lat="43.4819426201283931732177734375" lon="1.445373035967350006103515625">
        <ele>201.8000030517578125</ele>
        <time>2026-08-05T08:59:14.000Z</time>
        <extensions>
          <ns3:TrackPointExtension>
            <ns3:hr>73</ns3:hr>
            <ns3:cad>53</ns3:cad>
          </ns3:TrackPointExtension>
        </extensions>
      </trkpt>
      <trkpt lat="43.48194337449967861175537109375" lon="1.44535752944648265838623046875">
        <ele>201.8000030517578125</ele>
        <time>2026-08-05T08:59:15.000Z</time>
        <extensions>
          <ns3:TrackPointExtension>
            <ns3:hr>73</ns3:hr>
            <ns3:cad>51</ns3:cad>
          </ns3:TrackPointExtension>
        </extensions>
      </trkpt>
      <trkpt lat="43.4819434583187103271484375" lon="1.44534294493496417999267578125">
        <ele>201.600006103515625</ele>
        <time>2026-08-05T08:59:16.000Z</time>
        <extensions>
          <ns3:TrackPointExtension>
            <ns3:hr>72</ns3:hr>
            <ns3:cad>51</ns3:cad>
          </ns3:TrackPointExtension>
        </extensions>
      </trkpt>
      <trkpt lat="43.4819439612329006195068359375" lon="1.44532718695700168609619140625">
        <ele>201.600006103515625</ele>
        <time>2026-08-05T08:59:17.000Z</time>
        <extensions>
          <ns3:TrackPointExtension>
            <ns3:hr>73</ns3:hr>
            <ns3:cad>52</ns3:cad>
          </ns3:TrackPointExtension>
        </extensions>
      </trkpt>
      <trkpt lat="43.48194471560418605804443359375" lon="1.44530924968421459197998046875">
        <ele>201.399993896484375</ele>
        <time>2026-08-05T08:59:18.000Z</time>
        <extensions>
          <ns3:TrackPointExtension>
            <ns3:hr>72</ns3:hr>
            <ns3:cad>53</ns3:cad>
          </ns3:TrackPointExtension>
        </extensions>
      </trkpt>
      <trkpt lat="43.4819459728896617889404296875" lon="1.44529483281075954437255859375">
        <ele>201.399993896484375</ele>
        <time>2026-08-05T08:59:19.000Z</time>
        <extensions>
          <ns3:TrackPointExtension>
            <ns3:hr>72</ns3:hr>
            <ns3:cad>53</ns3:cad>
          </ns3:TrackPointExtension>
        </extensions>
      </trkpt>
      <trkpt lat="43.48194655962288379669189453125" lon="1.44527806900441646575927734375">
        <ele>201.1999969482421875</ele>
        <time>2026-08-05T08:59:20.000Z</time>
        <extensions>
          <ns3:TrackPointExtension>
            <ns3:hr>72</ns3:hr>
            <ns3:cad>52</ns3:cad>
          </ns3:TrackPointExtension>
        </extensions>
      </trkpt>
      <trkpt lat="43.48194706253707408905029296875" lon="1.4452635683119297027587890625">
        <ele>201</ele>
        <time>2026-08-05T08:59:21.000Z</time>
        <extensions>
          <ns3:TrackPointExtension>
            <ns3:hr>72</ns3:hr>
            <ns3:cad>52</ns3:cad>
          </ns3:TrackPointExtension>
        </extensions>
      </trkpt>
      <trkpt lat="43.48194706253707408905029296875" lon="1.4452474750578403472900390625">
        <ele>201</ele>
        <time>2026-08-05T08:59:22.000Z</time>
        <extensions>
          <ns3:TrackPointExtension>
            <ns3:hr>72</ns3:hr>
            <ns3:cad>51</ns3:cad>
          </ns3:TrackPointExtension>
        </extensions>
      </trkpt>
      <trkpt lat="43.4819469787180423736572265625" lon="1.445232890546321868896484375">
        <ele>200.8000030517578125</ele>
        <time>2026-08-05T08:59:23.000Z</time>
        <extensions>
          <ns3:TrackPointExtension>
            <ns3:hr>72</ns3:hr>
            <ns3:cad>51</ns3:cad>
          </ns3:TrackPointExtension>
        </extensions>
      </trkpt>
      <trkpt lat="43.48194689489901065826416015625" lon="1.44521906040608882904052734375">
        <ele>200.600006103515625</ele>
        <time>2026-08-05T08:59:24.000Z</time>
        <extensions>
          <ns3:TrackPointExtension>
            <ns3:hr>72</ns3:hr>
            <ns3:cad>51</ns3:cad>
          </ns3:TrackPointExtension>
        </extensions>
      </trkpt>
      <trkpt lat="43.481947816908359527587890625" lon="1.445203386247158050537109375">
        <ele>200.399993896484375</ele>
        <time>2026-08-05T08:59:25.000Z</time>
        <extensions>
          <ns3:TrackPointExtension>
            <ns3:hr>71</ns3:hr>
            <ns3:cad>51</ns3:cad>
          </ns3:TrackPointExtension>
        </extensions>
      </trkpt>
      <trkpt lat="43.48194823600351810455322265625" lon="1.44518804736435413360595703125">
        <ele>200.1999969482421875</ele>
        <time>2026-08-05T08:59:26.000Z</time>
        <extensions>
          <ns3:TrackPointExtension>
            <ns3:hr>71</ns3:hr>
            <ns3:cad>51</ns3:cad>
          </ns3:TrackPointExtension>
        </extensions>
      </trkpt>
      <trkpt lat="43.481948487460613250732421875" lon="1.4451733790338039398193359375">
        <ele>200</ele>
        <time>2026-08-05T08:59:27.000Z</time>
        <extensions>
          <ns3:TrackPointExtension>
            <ns3:hr>71</ns3:hr>
            <ns3:cad>52</ns3:cad>
          </ns3:TrackPointExtension>
        </extensions>
      </trkpt>
      <trkpt lat="43.4819493256509304046630859375" lon="1.4451594650745391845703125">
        <ele>199.8000030517578125</ele>
        <time>2026-08-05T08:59:28.000Z</time>
        <extensions>
          <ns3:TrackPointExtension>
            <ns3:hr>71</ns3:hr>
            <ns3:cad>52</ns3:cad>
          </ns3:TrackPointExtension>
        </extensions>
      </trkpt>
      <trkpt lat="43.48195083439350128173828125" lon="1.44514538347721099853515625">
        <ele>199.600006103515625</ele>
        <time>2026-08-05T08:59:29.000Z</time>
        <extensions>
          <ns3:TrackPointExtension>
            <ns3:hr>71</ns3:hr>
            <ns3:cad>52</ns3:cad>
          </ns3:TrackPointExtension>
        </extensions>
      </trkpt>
      <trkpt lat="43.48195242695510387420654296875" lon="1.4451291225850582122802734375">
        <ele>199.399993896484375</ele>
        <time>2026-08-05T08:59:30.000Z</time>
        <extensions>
          <ns3:TrackPointExtension>
            <ns3:hr>71</ns3:hr>
            <ns3:cad>51</ns3:cad>
          </ns3:TrackPointExtension>
        </extensions>
      </trkpt>
      <trkpt lat="43.48195351660251617431640625" lon="1.44511462189257144927978515625">
        <ele>199.399993896484375</ele>
        <time>2026-08-05T08:59:31.000Z</time>
        <extensions>
          <ns3:TrackPointExtension>
            <ns3:hr>71</ns3:hr>
            <ns3:cad>51</ns3:cad>
          </ns3:TrackPointExtension>
        </extensions>
      </trkpt>
      <trkpt lat="43.48195393569767475128173828125" lon="1.44510054029524326324462890625">
        <ele>199.1999969482421875</ele>
        <time>2026-08-05T08:59:32.000Z</time>
        <extensions>
          <ns3:TrackPointExtension>
            <ns3:hr>71</ns3:hr>
            <ns3:cad>51</ns3:cad>
          </ns3:TrackPointExtension>
        </extensions>
      </trkpt>
      <trkpt lat="43.48195393569767475128173828125" lon="1.4450845308601856231689453125">
        <ele>199.1999969482421875</ele>
        <time>2026-08-05T08:59:33.000Z</time>
        <extensions>
          <ns3:TrackPointExtension>
            <ns3:hr>70</ns3:hr>
            <ns3:cad>51</ns3:cad>
          </ns3:TrackPointExtension>
        </extensions>
      </trkpt>
      <trkpt lat="43.48195628263056278228759765625" lon="1.44506701268255710601806640625">
        <ele>199</ele>
        <time>2026-08-05T08:59:34.000Z</time>
        <extensions>
          <ns3:TrackPointExtension>
            <ns3:hr>70</ns3:hr>
            <ns3:cad>51</ns3:cad>
          </ns3:TrackPointExtension>
        </extensions>
      </trkpt>
      <trkpt lat="43.48195762373507022857666015625" lon="1.4450520090758800506591796875">
        <ele>199</ele>
        <time>2026-08-05T08:59:35.000Z</time>
        <extensions>
          <ns3:TrackPointExtension>
            <ns3:hr>71</ns3:hr>
            <ns3:cad>50</ns3:cad>
          </ns3:TrackPointExtension>
        </extensions>
      </trkpt>
      <trkpt lat="43.48195862956345081329345703125" lon="1.445039100944995880126953125">
        <ele>198.8000030517578125</ele>
        <time>2026-08-05T08:59:36.000Z</time>
        <extensions>
          <ns3:TrackPointExtension>
            <ns3:hr>71</ns3:hr>
            <ns3:cad>50</ns3:cad>
          </ns3:TrackPointExtension>
        </extensions>
      </trkpt>
      <trkpt lat="43.48195997066795825958251953125" lon="1.445024348795413970947265625">
        <ele>198.8000030517578125</ele>
        <time>2026-08-05T08:59:37.000Z</time>
        <extensions>
          <ns3:TrackPointExtension>
            <ns3:hr>71</ns3:hr>
            <ns3:cad>50</ns3:cad>
          </ns3:TrackPointExtension>
        </extensions>
      </trkpt>
      <trkpt lat="43.4819613955914974212646484375" lon="1.4450092613697052001953125">
        <ele>198.600006103515625</ele>
        <time>2026-08-05T08:59:38.000Z</time>
        <extensions>
          <ns3:TrackPointExtension>
            <ns3:hr>70</ns3:hr>
            <ns3:cad>50</ns3:cad>
          </ns3:TrackPointExtension>
        </extensions>
      </trkpt>
      <trkpt lat="43.48196181468665599822998046875" lon="1.4449940063059329986572265625">
        <ele>198.600006103515625</ele>
        <time>2026-08-05T08:59:39.000Z</time>
        <extensions>
          <ns3:TrackPointExtension>
            <ns3:hr>71</ns3:hr>
            <ns3:cad>50</ns3:cad>
          </ns3:TrackPointExtension>
        </extensions>
      </trkpt>
      <trkpt lat="43.48196080885827541351318359375" lon="1.4449779130518436431884765625">
        <ele>198.399993896484375</ele>
        <time>2026-08-05T08:59:40.000Z</time>
        <extensions>
          <ns3:TrackPointExtension>
            <ns3:hr>71</ns3:hr>
            <ns3:cad>50</ns3:cad>
          </ns3:TrackPointExtension>
        </extensions>
      </trkpt>
      <trkpt lat="43.48196097649633884429931640625" lon="1.44496710039675235748291015625">
        <ele>198.1999969482421875</ele>
        <time>2026-08-05T08:59:41.000Z</time>
        <extensions>
          <ns3:TrackPointExtension>
            <ns3:hr>70</ns3:hr>
            <ns3:cad>50</ns3:cad>
          </ns3:TrackPointExtension>
        </extensions>
      </trkpt>
      <trkpt lat="43.48195997066795825958251953125" lon="1.4449529349803924560546875">
        <ele>198</ele>
        <time>2026-08-05T08:59:42.000Z</time>
        <extensions>
          <ns3:TrackPointExtension>
            <ns3:hr>70</ns3:hr>
            <ns3:cad>51</ns3:cad>
          </ns3:TrackPointExtension>
        </extensions>
      </trkpt>
      <trkpt lat="43.4819613955914974212646484375" lon="1.44493885338306427001953125">
        <ele>198</ele>
        <time>2026-08-05T08:59:43.000Z</time>
        <extensions>
          <ns3:TrackPointExtension>
            <ns3:hr>70</ns3:hr>
            <ns3:cad>51</ns3:cad>
          </ns3:TrackPointExtension>
        </extensions>
      </trkpt>
      <trkpt lat="43.4819634072482585906982421875" lon="1.44492552615702152252197265625">
        <ele>197.8000030517578125</ele>
        <time>2026-08-05T08:59:44.000Z</time>
        <extensions>
          <ns3:TrackPointExtension>
            <ns3:hr>70</ns3:hr>
            <ns3:cad>51</ns3:cad>
          </ns3:TrackPointExtension>
        </extensions>
      </trkpt>
      <trkpt lat="43.4819627366960048675537109375" lon="1.444909013807773590087890625">
        <ele>197.600006103515625</ele>
        <time>2026-08-05T08:59:45.000Z</time>
        <extensions>
          <ns3:TrackPointExtension>
            <ns3:hr>70</ns3:hr>
            <ns3:cad>51</ns3:cad>
          </ns3:TrackPointExtension>
        </extensions>
      </trkpt>
      <trkpt lat="43.48196047358214855194091796875" lon="1.44488948397338390350341796875">
        <ele>197.600006103515625</ele>
        <time>2026-08-05T08:59:46.000Z</time>
        <extensions>
          <ns3:TrackPointExtension>
            <ns3:hr>70</ns3:hr>
            <ns3:cad>51</ns3:cad>
          </ns3:TrackPointExtension>
        </extensions>
      </trkpt>
      <trkpt lat="43.4819610603153705596923828125" lon="1.4448739774525165557861328125">
        <ele>197.399993896484375</ele>
        <time>2026-08-05T08:59:47.000Z</time>
        <extensions>
          <ns3:TrackPointExtension>
            <ns3:hr>69</ns3:hr>
            <ns3:cad>52</ns3:cad>
          </ns3:TrackPointExtension>
        </extensions>
      </trkpt>
      <trkpt lat="43.48196147941052913665771484375" lon="1.44485763274133205413818359375">
        <ele>197.399993896484375</ele>
        <time>2026-08-05T08:59:48.000Z</time>
        <extensions>
          <ns3:TrackPointExtension>
            <ns3:hr>69</ns3:hr>
            <ns3:cad>52</ns3:cad>
          </ns3:TrackPointExtension>
        </extensions>
      </trkpt>
      <trkpt lat="43.4819617308676242828369140625" lon="1.44484086893498897552490234375">
        <ele>197.1999969482421875</ele>
        <time>2026-08-05T08:59:49.000Z</time>
        <extensions>
          <ns3:TrackPointExtension>
            <ns3:hr>69</ns3:hr>
            <ns3:cad>52</ns3:cad>
          </ns3:TrackPointExtension>
        </extensions>
      </trkpt>
      <trkpt lat="43.48196282051503658294677734375" lon="1.4448246918618679046630859375">
        <ele>197.1999969482421875</ele>
        <time>2026-08-05T08:59:50.000Z</time>
        <extensions>
          <ns3:TrackPointExtension>
            <ns3:hr>69</ns3:hr>
            <ns3:cad>52</ns3:cad>
          </ns3:TrackPointExtension>
        </extensions>
      </trkpt>
      <trkpt lat="43.48196432925760746002197265625" lon="1.4448089338839054107666015625">
        <ele>197</ele>
        <time>2026-08-05T08:59:51.000Z</time>
        <extensions>
          <ns3:TrackPointExtension>
            <ns3:hr>69</ns3:hr>
            <ns3:cad>52</ns3:cad>
          </ns3:TrackPointExtension>
        </extensions>
      </trkpt>
      <trkpt lat="43.48196558654308319091796875" lon="1.44479376263916492462158203125">
        <ele>196.8000030517578125</ele>
        <time>2026-08-05T08:59:52.000Z</time>
        <extensions>
          <ns3:TrackPointExtension>
            <ns3:hr>69</ns3:hr>
            <ns3:cad>52</ns3:cad>
          </ns3:TrackPointExtension>
        </extensions>
      </trkpt>
      <trkpt lat="43.48196567036211490631103515625" lon="1.4447790943086147308349609375">
        <ele>196.8000030517578125</ele>
        <time>2026-08-05T08:59:53.000Z</time>
        <extensions>
          <ns3:TrackPointExtension>
            <ns3:hr>69</ns3:hr>
            <ns3:cad>52</ns3:cad>
          </ns3:TrackPointExtension>
        </extensions>
      </trkpt>
      <trkpt lat="43.48196533508598804473876953125" lon="1.4447636716067790985107421875">
        <ele>196.600006103515625</ele>
        <time>2026-08-05T08:59:54.000Z</time>
        <extensions>
          <ns3:TrackPointExtension>
            <ns3:hr>69</ns3:hr>
            <ns3:cad>52</ns3:cad>
          </ns3:TrackPointExtension>
        </extensions>
      </trkpt>
      <trkpt lat="43.48196416161954402923583984375" lon="1.4447499252855777740478515625">
        <ele>196.399993896484375</ele>
        <time>2026-08-05T08:59:55.000Z</time>
        <extensions>
          <ns3:TrackPointExtension>
            <ns3:hr>69</ns3:hr>
            <ns3:cad>52</ns3:cad>
          </ns3:TrackPointExtension>
        </extensions>
      </trkpt>
      <trkpt lat="43.48196248523890972137451171875" lon="1.444738022983074188232421875">
        <ele>196.399993896484375</ele>
        <time>2026-08-05T08:59:56.000Z</time>
        <extensions>
          <ns3:TrackPointExtension>
            <ns3:hr>69</ns3:hr>
            <ns3:cad>51</ns3:cad>
          </ns3:TrackPointExtension>
        </extensions>
      </trkpt>
      <trkpt lat="43.48196198232471942901611328125" lon="1.44472218118607997894287109375">
        <ele>196.1999969482421875</ele>
        <time>2026-08-05T08:59:57.000Z</time>
        <extensions>
          <ns3:TrackPointExtension>
            <ns3:hr>69</ns3:hr>
            <ns3:cad>51</ns3:cad>
          </ns3:TrackPointExtension>
        </extensions>
      </trkpt>
      <trkpt lat="43.48196156322956085205078125" lon="1.44470625557005405426025390625">
        <ele>196</ele>
        <time>2026-08-05T08:59:58.000Z</time>
        <extensions>
          <ns3:TrackPointExtension>
            <ns3:hr>69</ns3:hr>
            <ns3:cad>52</ns3:cad>
          </ns3:TrackPointExtension>
        </extensions>
      </trkpt>
      <trkpt lat="43.48196332342922687530517578125" lon="1.4446912519633769989013671875">
        <ele>196</ele>
        <time>2026-08-05T08:59:59.000Z</time>
        <extensions>
          <ns3:TrackPointExtension>
            <ns3:hr>69</ns3:hr>
            <ns3:cad>52</ns3:cad>
          </ns3:TrackPointExtension>
        </extensions>
      </trkpt>
      <trkpt lat="43.48196399398148059844970703125" lon="1.444674991071224212646484375">
        <ele>195.8000030517578125</ele>
        <time>2026-08-05T09:00:00.000Z</time>
        <extensions>
          <ns3:TrackPointExtension>
            <ns3:hr>69</ns3:hr>
            <ns3:cad>52</ns3:cad>
          </ns3:TrackPointExtension>
        </extensions>
      </trkpt>
      <trkpt lat="43.4819644130766391754150390625" lon="1.4446590654551982879638671875">
        <ele>195.600006103515625</ele>
        <time>2026-08-05T09:00:01.000Z</time>
        <extensions>
          <ns3:TrackPointExtension>
            <ns3:hr>69</ns3:hr>
            <ns3:cad>52</ns3:cad>
          </ns3:TrackPointExtension>
        </extensions>
      </trkpt>
      <trkpt lat="43.48196634091436862945556640625" lon="1.44464674405753612518310546875">
        <ele>195.600006103515625</ele>
        <time>2026-08-05T09:00:02.000Z</time>
        <extensions>
          <ns3:TrackPointExtension>
            <ns3:hr>69</ns3:hr>
            <ns3:cad>53</ns3:cad>
          </ns3:TrackPointExtension>
        </extensions>
      </trkpt>
      <trkpt lat="43.4819675981998443603515625" lon="1.444634757936000823974609375">
        <ele>195.399993896484375</ele>
        <time>2026-08-05T09:00:03.000Z</time>
        <extensions>
          <ns3:TrackPointExtension>
            <ns3:hr>69</ns3:hr>
            <ns3:cad>53</ns3:cad>
          </ns3:TrackPointExtension>
        </extensions>
      </trkpt>
      <trkpt lat="43.48196717910468578338623046875" lon="1.4446188323199748992919921875">
        <ele>195.1999969482421875</ele>
        <time>2026-08-05T09:00:04.000Z</time>
        <extensions>
          <ns3:TrackPointExtension>
            <ns3:hr>69</ns3:hr>
            <ns3:cad>52</ns3:cad>
          </ns3:TrackPointExtension>
        </extensions>
      </trkpt>
      <trkpt lat="43.48196784965693950653076171875" lon="1.44460315816104412078857421875">
        <ele>195.1999969482421875</ele>
        <time>2026-08-05T09:00:05.000Z</time>
        <extensions>
          <ns3:TrackPointExtension>
            <ns3:hr>69</ns3:hr>
            <ns3:cad>52</ns3:cad>
          </ns3:TrackPointExtension>
        </extensions>
      </trkpt>
      <trkpt lat="43.48196885548532009124755859375" lon="1.4445889927446842193603515625">
        <ele>195</ele>
        <time>2026-08-05T09:00:06.000Z</time>
        <extensions>
          <ns3:TrackPointExtension>
            <ns3:hr>69</ns3:hr>
            <ns3:cad>52</ns3:cad>
          </ns3:TrackPointExtension>
        </extensions>
      </trkpt>
      <trkpt lat="43.48197053186595439910888671875" lon="1.44457264803349971771240234375">
        <ele>194.8000030517578125</ele>
        <time>2026-08-05T09:00:07.000Z</time>
        <extensions>
          <ns3:TrackPointExtension>
            <ns3:hr>69</ns3:hr>
            <ns3:cad>52</ns3:cad>
          </ns3:TrackPointExtension>
        </extensions>
      </trkpt>
      <trkpt lat="43.4819731302559375762939453125" lon="1.444554291665554046630859375">
        <ele>194.8000030517578125</ele>
        <time>2026-08-05T09:00:08.000Z</time>
        <extensions>
          <ns3:TrackPointExtension>
            <ns3:hr>69</ns3:hr>
            <ns3:cad>52</ns3:cad>
          </ns3:TrackPointExtension>
        </extensions>
      </trkpt>
      <trkpt lat="43.4819768182933330535888671875" lon="1.44453576765954494476318359375">
        <ele>194.600006103515625</ele>
        <time>2026-08-05T09:00:09.000Z</time>
        <extensions>
          <ns3:TrackPointExtension>
            <ns3:hr>69</ns3:hr>
            <ns3:cad>52</ns3:cad>
          </ns3:TrackPointExtension>
        </extensions>
      </trkpt>
      <trkpt lat="43.48197941668331623077392578125" lon="1.444520093500614166259765625">
        <ele>194.600006103515625</ele>
        <time>2026-08-05T09:00:10.000Z</time>
        <extensions>
          <ns3:TrackPointExtension>
            <ns3:hr>69</ns3:hr>
            <ns3:cad>52</ns3:cad>
          </ns3:TrackPointExtension>
        </extensions>
      </trkpt>
      <trkpt lat="43.48198327235877513885498046875" lon="1.44450576044619083404541015625">
        <ele>194.399993896484375</ele>
        <time>2026-08-05T09:00:11.000Z</time>
        <extensions>
          <ns3:TrackPointExtension>
            <ns3:hr>68</ns3:hr>
            <ns3:cad>52</ns3:cad>
          </ns3:TrackPointExtension>
        </extensions>
      </trkpt>
      <trkpt lat="43.48198612220585346221923828125" lon="1.4444920979440212249755859375">
        <ele>194.399993896484375</ele>
        <time>2026-08-05T09:00:12.000Z</time>
        <extensions>
          <ns3:TrackPointExtension>
            <ns3:hr>68</ns3:hr>
            <ns3:cad>52</ns3:cad>
          </ns3:TrackPointExtension>
        </extensions>
      </trkpt>
      <trkpt lat="43.481988720595836639404296875" lon="1.44447910599410533905029296875">
        <ele>194.1999969482421875</ele>
        <time>2026-08-05T09:00:13.000Z</time>
        <extensions>
          <ns3:TrackPointExtension>
            <ns3:hr>68</ns3:hr>
            <ns3:cad>53</ns3:cad>
          </ns3:TrackPointExtension>
        </extensions>
      </trkpt>
      <trkpt lat="43.48199106752872467041015625" lon="1.444464437663555145263671875">
        <ele>194.1999969482421875</ele>
        <time>2026-08-05T09:00:14.000Z</time>
        <extensions>
          <ns3:TrackPointExtension>
            <ns3:hr>68</ns3:hr>
            <ns3:cad>53</ns3:cad>
          </ns3:TrackPointExtension>
        </extensions>
      </trkpt>
      <trkpt lat="43.48199182190001010894775390625" lon="1.44444960169494152069091796875">
        <ele>194</ele>
        <time>2026-08-05T09:00:15.000Z</time>
        <extensions>
          <ns3:TrackPointExtension>
            <ns3:hr>68</ns3:hr>
            <ns3:cad>53</ns3:cad>
          </ns3:TrackPointExtension>
        </extensions>
      </trkpt>
      <trkpt lat="43.48199266009032726287841796875" lon="1.44443853758275508880615234375">
        <ele>193.8000030517578125</ele>
        <time>2026-08-05T09:00:16.000Z</time>
        <extensions>
          <ns3:TrackPointExtension>
            <ns3:hr>68</ns3:hr>
            <ns3:cad>52</ns3:cad>
          </ns3:TrackPointExtension>
        </extensions>
      </trkpt>
      <trkpt lat="43.48199232481420040130615234375" lon="1.44442361779510974884033203125">
        <ele>193.8000030517578125</ele>
        <time>2026-08-05T09:00:17.000Z</time>
        <extensions>
          <ns3:TrackPointExtension>
            <ns3:hr>68</ns3:hr>
            <ns3:cad>51</ns3:cad>
          </ns3:TrackPointExtension>
        </extensions>
      </trkpt>
      <trkpt lat="43.48199249245226383209228515625" lon="1.44440769217908382415771484375">
        <ele>193.600006103515625</ele>
        <time>2026-08-05T09:00:18.000Z</time>
        <extensions>
          <ns3:TrackPointExtension>
            <ns3:hr>69</ns3:hr>
            <ns3:cad>51</ns3:cad>
          </ns3:TrackPointExtension>
        </extensions>
      </trkpt>
      <trkpt lat="43.48199299536645412445068359375" lon="1.44439168274402618408203125">
        <ele>193.399993896484375</ele>
        <time>2026-08-05T09:00:19.000Z</time>
        <extensions>
          <ns3:TrackPointExtension>
            <ns3:hr>69</ns3:hr>
            <ns3:cad>50</ns3:cad>
          </ns3:TrackPointExtension>
        </extensions>
      </trkpt>
      <trkpt lat="43.48199433647096157073974609375" lon="1.4443740807473659515380859375">
        <ele>193.399993896484375</ele>
        <time>2026-08-05T09:00:20.000Z</time>
        <extensions>
          <ns3:TrackPointExtension>
            <ns3:hr>69</ns3:hr>
            <ns3:cad>50</ns3:cad>
          </ns3:TrackPointExtension>
        </extensions>
      </trkpt>
      <trkpt lat="43.48199668340384960174560546875" lon="1.44435304217040538787841796875">
        <ele>193.1999969482421875</ele>
        <time>2026-08-05T09:00:21.000Z</time>
        <extensions>
          <ns3:TrackPointExtension>
            <ns3:hr>69</ns3:hr>
            <ns3:cad>49</ns3:cad>
          </ns3:TrackPointExtension>
        </extensions>
      </trkpt>
      <trkpt lat="43.48199634812772274017333984375" lon="1.44433644600212574005126953125">
        <ele>193</ele>
        <time>2026-08-05T09:00:22.000Z</time>
        <extensions>
          <ns3:TrackPointExtension>
            <ns3:hr>68</ns3:hr>
            <ns3:cad>49</ns3:cad>
          </ns3:TrackPointExtension>
        </extensions>
      </trkpt>
      <trkpt lat="43.48199735395610332489013671875" lon="1.44432194530963897705078125">
        <ele>192.8000030517578125</ele>
        <time>2026-08-05T09:00:23.000Z</time>
        <extensions>
          <ns3:TrackPointExtension>
            <ns3:hr>68</ns3:hr>
            <ns3:cad>49</ns3:cad>
          </ns3:TrackPointExtension>
        </extensions>
      </trkpt>
      <trkpt lat="43.4819976054131984710693359375" lon="1.4443043433129787445068359375">
        <ele>192.8000030517578125</ele>
        <time>2026-08-05T09:00:24.000Z</time>
        <extensions>
          <ns3:TrackPointExtension>
            <ns3:hr>68</ns3:hr>
            <ns3:cad>50</ns3:cad>
          </ns3:TrackPointExtension>
        </extensions>
      </trkpt>
      <trkpt lat="43.4819979406893253326416015625" lon="1.4442895911633968353271484375">
        <ele>192.8000030517578125</ele>
        <time>2026-08-05T09:00:25.000Z</time>
        <extensions>
          <ns3:TrackPointExtension>
            <ns3:hr>68</ns3:hr>
            <ns3:cad>50</ns3:cad>
          </ns3:TrackPointExtension>
        </extensions>
      </trkpt>
      <trkpt lat="43.482000790536403656005859375" lon="1.44427089951932430267333984375">
        <ele>192.600006103515625</ele>
        <time>2026-08-05T09:00:26.000Z</time>
        <extensions>
          <ns3:TrackPointExtension>
            <ns3:hr>69</ns3:hr>
            <ns3:cad>51</ns3:cad>
          </ns3:TrackPointExtension>
        </extensions>
      </trkpt>
      <trkpt lat="43.48200322128832340240478515625" lon="1.4442520402371883392333984375">
        <ele>192.600006103515625</ele>
        <time>2026-08-05T09:00:27.000Z</time>
        <extensions>
          <ns3:TrackPointExtension>
            <ns3:hr>68</ns3:hr>
            <ns3:cad>51</ns3:cad>
          </ns3:TrackPointExtension>
        </extensions>
      </trkpt>
      <trkpt lat="43.48200271837413311004638671875" lon="1.44423301331698894500732421875">
        <ele>192.399993896484375</ele>
        <time>2026-08-05T09:00:28.000Z</time>
        <extensions>
          <ns3:TrackPointExtension>
            <ns3:hr>68</ns3:hr>
            <ns3:cad>51</ns3:cad>
          </ns3:TrackPointExtension>
        </extensions>
      </trkpt>
      <trkpt lat="43.48200154490768909454345703125" lon="1.4442211948335170745849609375">
        <ele>192.399993896484375</ele>
        <time>2026-08-05T09:00:29.000Z</time>
        <extensions>
          <ns3:TrackPointExtension>
            <ns3:hr>68</ns3:hr>
            <ns3:cad>51</ns3:cad>
          </ns3:TrackPointExtension>
        </extensions>
      </trkpt>
      <trkpt lat="43.48200154490768909454345703125" lon="1.44420619122684001922607421875">
        <ele>192.1999969482421875</ele>
        <time>2026-08-05T09:00:30.000Z</time>
        <extensions>
          <ns3:TrackPointExtension>
            <ns3:hr>68</ns3:hr>
            <ns3:cad>51</ns3:cad>
          </ns3:TrackPointExtension>
        </extensions>
      </trkpt>
      <trkpt lat="43.48200104199349880218505859375" lon="1.44419445656239986419677734375">
        <ele>192.1999969482421875</ele>
        <time>2026-08-05T09:00:31.000Z</time>
        <extensions>
          <ns3:TrackPointExtension>
            <ns3:hr>68</ns3:hr>
            <ns3:cad>51</ns3:cad>
          </ns3:TrackPointExtension>
        </extensions>
      </trkpt>
      <trkpt lat="43.482001461088657379150390625" lon="1.444186829030513763427734375">
        <ele>192.1999969482421875</ele>
        <time>2026-08-05T09:00:32.000Z</time>
        <extensions>
          <ns3:TrackPointExtension>
            <ns3:hr>68</ns3:hr>
            <ns3:cad>51</ns3:cad>
          </ns3:TrackPointExtension>
        </extensions>
      </trkpt>
      <trkpt lat="43.48200154490768909454345703125" lon="1.44417031668126583099365234375">
        <ele>192</ele>
        <time>2026-08-05T09:00:33.000Z</time>
        <extensions>
          <ns3:TrackPointExtension>
            <ns3:hr>68</ns3:hr>
            <ns3:cad>51</ns3:cad>
          </ns3:TrackPointExtension>
        </extensions>
      </trkpt>
      <trkpt lat="43.48200322128832340240478515625" lon="1.44415237940847873687744140625">
        <ele>192</ele>
        <time>2026-08-05T09:00:34.000Z</time>
        <extensions>
          <ns3:TrackPointExtension>
            <ns3:hr>67</ns3:hr>
            <ns3:cad>51</ns3:cad>
          </ns3:TrackPointExtension>
        </extensions>
      </trkpt>
      <trkpt lat="43.48200456239283084869384765625" lon="1.44413494504988193511962890625">
        <ele>192</ele>
        <time>2026-08-05T09:00:35.000Z</time>
        <extensions>
          <ns3:TrackPointExtension>
            <ns3:hr>68</ns3:hr>
            <ns3:cad>51</ns3:cad>
          </ns3:TrackPointExtension>
        </extensions>
      </trkpt>
      <trkpt lat="43.4820039756596088409423828125" lon="1.44411943852901458740234375">
        <ele>192</ele>
        <time>2026-08-05T09:00:36.000Z</time>
        <extensions>
          <ns3:TrackPointExtension>
            <ns3:hr>68</ns3:hr>
            <ns3:cad>49</ns3:cad>
          </ns3:TrackPointExtension>
        </extensions>
      </trkpt>
      <trkpt lat="43.48200523294508457183837890625" lon="1.44410912878811359405517578125">
        <ele>192</ele>
        <time>2026-08-05T09:00:37.000Z</time>
        <extensions>
          <ns3:TrackPointExtension>
            <ns3:hr>67</ns3:hr>
            <ns3:cad>49</ns3:cad>
          </ns3:TrackPointExtension>
        </extensions>
      </trkpt>
      <trkpt lat="43.482007496058940887451171875" lon="1.44409487955272197723388671875">
        <ele>191.8000030517578125</ele>
        <time>2026-08-05T09:00:38.000Z</time>
        <extensions>
          <ns3:TrackPointExtension>
            <ns3:hr>68</ns3:hr>
            <ns3:cad>49</ns3:cad>
          </ns3:TrackPointExtension>
        </extensions>
      </trkpt>
      <trkpt lat="43.4820079989731311798095703125" lon="1.444080211222171783447265625">
        <ele>191.8000030517578125</ele>
        <time>2026-08-05T09:00:39.000Z</time>
        <extensions>
          <ns3:TrackPointExtension>
            <ns3:hr>68</ns3:hr>
            <ns3:cad>49</ns3:cad>
          </ns3:TrackPointExtension>
        </extensions>
      </trkpt>
      <trkpt lat="43.48200774751603603363037109375" lon="1.44406470470130443572998046875">
        <ele>191.8000030517578125</ele>
        <time>2026-08-05T09:00:40.000Z</time>
        <extensions>
          <ns3:TrackPointExtension>
            <ns3:hr>68</ns3:hr>
            <ns3:cad>50</ns3:cad>
          </ns3:TrackPointExtension>
        </extensions>
      </trkpt>
      <trkpt lat="43.48200623877346515655517578125" lon="1.4440538920462131500244140625">
        <ele>191.600006103515625</ele>
        <time>2026-08-05T09:00:41.000Z</time>
        <extensions>
          <ns3:TrackPointExtension>
            <ns3:hr>67</ns3:hr>
            <ns3:cad>50</ns3:cad>
          </ns3:TrackPointExtension>
        </extensions>
      </trkpt>
      <trkpt lat="43.4820063225924968719482421875" lon="1.44404073245823383331298828125">
        <ele>191.600006103515625</ele>
        <time>2026-08-05T09:00:42.000Z</time>
        <extensions>
          <ns3:TrackPointExtension>
            <ns3:hr>67</ns3:hr>
            <ns3:cad>50</ns3:cad>
          </ns3:TrackPointExtension>
        </extensions>
      </trkpt>
      <trkpt lat="43.482006825506687164306640625" lon="1.444027237594127655029296875">
        <ele>191.600006103515625</ele>
        <time>2026-08-05T09:00:43.000Z</time>
        <extensions>
          <ns3:TrackPointExtension>
            <ns3:hr>67</ns3:hr>
            <ns3:cad>50</ns3:cad>
          </ns3:TrackPointExtension>
        </extensions>
      </trkpt>
      <trkpt lat="43.48200640641152858734130859375" lon="1.4440106414258480072021484375">
        <ele>191.600006103515625</ele>
        <time>2026-08-05T09:00:44.000Z</time>
        <extensions>
          <ns3:TrackPointExtension>
            <ns3:hr>66</ns3:hr>
            <ns3:cad>50</ns3:cad>
          </ns3:TrackPointExtension>
        </extensions>
      </trkpt>
      <trkpt lat="43.48200581967830657958984375" lon="1.443990357220172882080078125">
        <ele>191.600006103515625</ele>
        <time>2026-08-05T09:00:45.000Z</time>
        <extensions>
          <ns3:TrackPointExtension>
            <ns3:hr>66</ns3:hr>
            <ns3:cad>50</ns3:cad>
          </ns3:TrackPointExtension>
        </extensions>
      </trkpt>
      <trkpt lat="43.4820053167641162872314453125" lon="1.44397133029997348785400390625">
        <ele>191.600006103515625</ele>
        <time>2026-08-05T09:00:46.000Z</time>
        <extensions>
          <ns3:TrackPointExtension>
            <ns3:hr>66</ns3:hr>
            <ns3:cad>50</ns3:cad>
          </ns3:TrackPointExtension>
        </extensions>
      </trkpt>
      <trkpt lat="43.48200573585927486419677734375" lon="1.44395322538912296295166015625">
        <ele>191.8000030517578125</ele>
        <time>2026-08-05T09:00:47.000Z</time>
        <extensions>
          <ns3:TrackPointExtension>
            <ns3:hr>66</ns3:hr>
            <ns3:cad>48</ns3:cad>
          </ns3:TrackPointExtension>
        </extensions>
      </trkpt>
      <trkpt lat="43.4820069931447505950927734375" lon="1.443938054144382476806640625">
        <ele>191.8000030517578125</ele>
        <time>2026-08-05T09:00:48.000Z</time>
        <extensions>
          <ns3:TrackPointExtension>
            <ns3:hr>65</ns3:hr>
            <ns3:cad>48</ns3:cad>
          </ns3:TrackPointExtension>
        </extensions>
      </trkpt>
      <trkpt lat="43.48200657404959201812744140625" lon="1.4439224638044834136962890625">
        <ele>191.8000030517578125</ele>
        <time>2026-08-05T09:00:49.000Z</time>
        <extensions>
          <ns3:TrackPointExtension>
            <ns3:hr>65</ns3:hr>
            <ns3:cad>48</ns3:cad>
          </ns3:TrackPointExtension>
        </extensions>
      </trkpt>
      <trkpt lat="43.48200590349733829498291015625" lon="1.44390410743653774261474609375">
        <ele>191.8000030517578125</ele>
        <time>2026-08-05T09:00:50.000Z</time>
        <extensions>
          <ns3:TrackPointExtension>
            <ns3:hr>65</ns3:hr>
            <ns3:cad>48</ns3:cad>
          </ns3:TrackPointExtension>
        </extensions>
      </trkpt>
      <trkpt lat="43.48200389184057712554931640625" lon="1.4438869245350360870361328125">
        <ele>191.600006103515625</ele>
        <time>2026-08-05T09:00:51.000Z</time>
        <extensions>
          <ns3:TrackPointExtension>
            <ns3:hr>65</ns3:hr>
            <ns3:cad>48</ns3:cad>
          </ns3:TrackPointExtension>
        </extensions>
      </trkpt>
      <trkpt lat="43.48200221545994281768798828125" lon="1.443874351680278778076171875">
        <ele>191.600006103515625</ele>
        <time>2026-08-05T09:00:52.000Z</time>
        <extensions>
          <ns3:TrackPointExtension>
            <ns3:hr>64</ns3:hr>
            <ns3:cad>48</ns3:cad>
          </ns3:TrackPointExtension>
        </extensions>
      </trkpt>
      <trkpt lat="43.482001461088657379150390625" lon="1.44386060535907745361328125">
        <ele>191.600006103515625</ele>
        <time>2026-08-05T09:00:53.000Z</time>
        <extensions>
          <ns3:TrackPointExtension>
            <ns3:hr>64</ns3:hr>
            <ns3:cad>48</ns3:cad>
          </ns3:TrackPointExtension>
        </extensions>
      </trkpt>
      <trkpt lat="43.48199986852705478668212890625" lon="1.44384459592401981353759765625">
        <ele>191.600006103515625</ele>
        <time>2026-08-05T09:00:54.000Z</time>
        <extensions>
          <ns3:TrackPointExtension>
            <ns3:hr>64</ns3:hr>
            <ns3:cad>48</ns3:cad>
          </ns3:TrackPointExtension>
        </extensions>
      </trkpt>
      <trkpt lat="43.4820002876222133636474609375" lon="1.4438264071941375732421875">
        <ele>191.600006103515625</ele>
        <time>2026-08-05T09:00:55.000Z</time>
        <extensions>
          <ns3:TrackPointExtension>
            <ns3:hr>64</ns3:hr>
            <ns3:cad>50</ns3:cad>
          </ns3:TrackPointExtension>
        </extensions>
      </trkpt>
      <trkpt lat="43.4820002876222133636474609375" lon="1.4438108168542385101318359375">
        <ele>191.8000030517578125</ele>
        <time>2026-08-05T09:00:56.000Z</time>
        <extensions>
          <ns3:TrackPointExtension>
            <ns3:hr>64</ns3:hr>
            <ns3:cad>50</ns3:cad>
          </ns3:TrackPointExtension>
        </extensions>
      </trkpt>
      <trkpt lat="43.48200003616511821746826171875" lon="1.44379732199013233184814453125">
        <ele>191.8000030517578125</ele>
        <time>2026-08-05T09:00:57.000Z</time>
        <extensions>
          <ns3:TrackPointExtension>
            <ns3:hr>64</ns3:hr>
            <ns3:cad>47</ns3:cad>
          </ns3:TrackPointExtension>
        </extensions>
      </trkpt>
      <trkpt lat="43.4820019640028476715087890625" lon="1.443784497678279876708984375">
        <ele>191.8000030517578125</ele>
        <time>2026-08-05T09:00:58.000Z</time>
        <extensions>
          <ns3:TrackPointExtension>
            <ns3:hr>64</ns3:hr>
            <ns3:cad>47</ns3:cad>
          </ns3:TrackPointExtension>
        </extensions>
      </trkpt>
      <trkpt lat="43.482002802193164825439453125" lon="1.4437673985958099365234375">
        <ele>191.8000030517578125</ele>
        <time>2026-08-05T09:00:59.000Z</time>
        <extensions>
          <ns3:TrackPointExtension>
            <ns3:hr>64</ns3:hr>
            <ns3:cad>47</ns3:cad>
          </ns3:TrackPointExtension>
        </extensions>
      </trkpt>
      <trkpt lat="43.482001461088657379150390625" lon="1.44374988041818141937255859375">
        <ele>191.8000030517578125</ele>
        <time>2026-08-05T09:01:00.000Z</time>
        <extensions>
          <ns3:TrackPointExtension>
            <ns3:hr>64</ns3:hr>
            <ns3:cad>49</ns3:cad>
          </ns3:TrackPointExtension>
        </extensions>
      </trkpt>
      <trkpt lat="43.482000790536403656005859375" lon="1.443736217916011810302734375">
        <ele>191.8000030517578125</ele>
        <time>2026-08-05T09:01:01.000Z</time>
        <extensions>
          <ns3:TrackPointExtension>
            <ns3:hr>64</ns3:hr>
            <ns3:cad>49</ns3:cad>
          </ns3:TrackPointExtension>
        </extensions>
      </trkpt>
      <trkpt lat="43.4820006228983402252197265625" lon="1.44372272305190563201904296875">
        <ele>191.8000030517578125</ele>
        <time>2026-08-05T09:01:02.000Z</time>
        <extensions>
          <ns3:TrackPointExtension>
            <ns3:hr>64</ns3:hr>
            <ns3:cad>48</ns3:cad>
          </ns3:TrackPointExtension>
        </extensions>
      </trkpt>
      <trkpt lat="43.482001461088657379150390625" lon="1.44371082074940204620361328125">
        <ele>192</ele>
        <time>2026-08-05T09:01:03.000Z</time>
        <extensions>
          <ns3:TrackPointExtension>
            <ns3:hr>65</ns3:hr>
            <ns3:cad>48</ns3:cad>
          </ns3:TrackPointExtension>
        </extensions>
      </trkpt>
      <trkpt lat="43.48200070671737194061279296875" lon="1.4436984993517398834228515625">
        <ele>192</ele>
        <time>2026-08-05T09:01:04.000Z</time>
        <extensions>
          <ns3:TrackPointExtension>
            <ns3:hr>65</ns3:hr>
            <ns3:cad>48</ns3:cad>
          </ns3:TrackPointExtension>
        </extensions>
      </trkpt>
      <trkpt lat="43.481998778879642486572265625" lon="1.44368223845958709716796875">
        <ele>192</ele>
        <time>2026-08-05T09:01:05.000Z</time>
        <extensions>
          <ns3:TrackPointExtension>
            <ns3:hr>66</ns3:hr>
            <ns3:cad>48</ns3:cad>
          </ns3:TrackPointExtension>
        </extensions>
      </trkpt>
      <trkpt lat="43.4819969348609447479248046875" lon="1.44366840831935405731201171875">
        <ele>192</ele>
        <time>2026-08-05T09:01:06.000Z</time>
        <extensions>
          <ns3:TrackPointExtension>
            <ns3:hr>67</ns3:hr>
            <ns3:cad>48</ns3:cad>
          </ns3:TrackPointExtension>
        </extensions>
      </trkpt>
      <trkpt lat="43.48199534229934215545654296875" lon="1.44365407526493072509765625">
        <ele>192</ele>
        <time>2026-08-05T09:01:07.000Z</time>
        <extensions>
          <ns3:TrackPointExtension>
            <ns3:hr>69</ns3:hr>
            <ns3:cad>47</ns3:cad>
          </ns3:TrackPointExtension>
        </extensions>
      </trkpt>
      <trkpt lat="43.4819944202899932861328125" lon="1.4436398260295391082763671875">
        <ele>192</ele>
        <time>2026-08-05T09:01:08.000Z</time>
        <extensions>
          <ns3:TrackPointExtension>
            <ns3:hr>70</ns3:hr>
            <ns3:cad>47</ns3:cad>
          </ns3:TrackPointExtension>
        </extensions>
      </trkpt>
      <trkpt lat="43.48199299536645412445068359375" lon="1.44362197257578372955322265625">
        <ele>192</ele>
        <time>2026-08-05T09:01:09.000Z</time>
        <extensions>
          <ns3:TrackPointExtension>
            <ns3:hr>72</ns3:hr>
            <ns3:cad>48</ns3:cad>
          </ns3:TrackPointExtension>
        </extensions>
      </trkpt>
      <trkpt lat="43.481992073357105255126953125" lon="1.443602107465267181396484375">
        <ele>192.1999969482421875</ele>
        <time>2026-08-05T09:01:10.000Z</time>
        <extensions>
          <ns3:TrackPointExtension>
            <ns3:hr>72</ns3:hr>
            <ns3:cad>48</ns3:cad>
          </ns3:TrackPointExtension>
        </extensions>
      </trkpt>
      <trkpt lat="43.48199048079550266265869140625" lon="1.4435871876776218414306640625">
        <ele>192.1999969482421875</ele>
        <time>2026-08-05T09:01:11.000Z</time>
        <extensions>
          <ns3:TrackPointExtension>
            <ns3:hr>73</ns3:hr>
            <ns3:cad>48</ns3:cad>
          </ns3:TrackPointExtension>
        </extensions>
      </trkpt>
      <trkpt lat="43.48198863677680492401123046875" lon="1.44357268698513507843017578125">
        <ele>192.1999969482421875</ele>
        <time>2026-08-05T09:01:12.000Z</time>
        <extensions>
          <ns3:TrackPointExtension>
            <ns3:hr>73</ns3:hr>
            <ns3:cad>47</ns3:cad>
          </ns3:TrackPointExtension>
        </extensions>
      </trkpt>
      <trkpt lat="43.4819885529577732086181640625" lon="1.4435608685016632080078125">
        <ele>192.1999969482421875</ele>
        <time>2026-08-05T09:01:13.000Z</time>
        <extensions>
          <ns3:TrackPointExtension>
            <ns3:hr>74</ns3:hr>
            <ns3:cad>47</ns3:cad>
          </ns3:TrackPointExtension>
        </extensions>
      </trkpt>
      <trkpt lat="43.4819872118532657623291015625" lon="1.44354812800884246826171875">
        <ele>192.399993896484375</ele>
        <time>2026-08-05T09:01:14.000Z</time>
        <extensions>
          <ns3:TrackPointExtension>
            <ns3:hr>74</ns3:hr>
            <ns3:cad>47</ns3:cad>
          </ns3:TrackPointExtension>
        </extensions>
      </trkpt>
      <trkpt lat="43.48198444582521915435791015625" lon="1.44353111274540424346923828125">
        <ele>192.399993896484375</ele>
        <time>2026-08-05T09:01:15.000Z</time>
        <extensions>
          <ns3:TrackPointExtension>
            <ns3:hr>74</ns3:hr>
            <ns3:cad>48</ns3:cad>
          </ns3:TrackPointExtension>
        </extensions>
      </trkpt>
      <trkpt lat="43.4819835238158702850341796875" lon="1.44351837225258350372314453125">
        <ele>192.399993896484375</ele>
        <time>2026-08-05T09:01:16.000Z</time>
        <extensions>
          <ns3:TrackPointExtension>
            <ns3:hr>75</ns3:hr>
            <ns3:cad>48</ns3:cad>
          </ns3:TrackPointExtension>
        </extensions>
      </trkpt>
      <trkpt lat="43.48198209889233112335205078125" lon="1.44350378774106502532958984375">
        <ele>192.600006103515625</ele>
        <time>2026-08-05T09:01:17.000Z</time>
        <extensions>
          <ns3:TrackPointExtension>
            <ns3:hr>75</ns3:hr>
            <ns3:cad>49</ns3:cad>
          </ns3:TrackPointExtension>
        </extensions>
      </trkpt>
      <trkpt lat="43.48198075778782367706298828125" lon="1.44349104724824428558349609375">
        <ele>192.600006103515625</ele>
        <time>2026-08-05T09:01:18.000Z</time>
        <extensions>
          <ns3:TrackPointExtension>
            <ns3:hr>76</ns3:hr>
            <ns3:cad>49</ns3:cad>
          </ns3:TrackPointExtension>
        </extensions>
      </trkpt>
      <trkpt lat="43.4819781593978404998779296875" lon="1.44347411580383777618408203125">
        <ele>192.600006103515625</ele>
        <time>2026-08-05T09:01:19.000Z</time>
        <extensions>
          <ns3:TrackPointExtension>
            <ns3:hr>77</ns3:hr>
            <ns3:cad>48</ns3:cad>
          </ns3:TrackPointExtension>
        </extensions>
      </trkpt>
      <trkpt lat="43.48197673447430133819580078125" lon="1.4434589445590972900390625">
        <ele>192.600006103515625</ele>
        <time>2026-08-05T09:01:20.000Z</time>
        <extensions>
          <ns3:TrackPointExtension>
            <ns3:hr>78</ns3:hr>
            <ns3:cad>48</ns3:cad>
          </ns3:TrackPointExtension>
        </extensions>
      </trkpt>
      <trkpt lat="43.481975309550762176513671875" lon="1.44344578497111797332763671875">
        <ele>192.8000030517578125</ele>
        <time>2026-08-05T09:01:21.000Z</time>
        <extensions>
          <ns3:TrackPointExtension>
            <ns3:hr>78</ns3:hr>
            <ns3:cad>46</ns3:cad>
          </ns3:TrackPointExtension>
        </extensions>
      </trkpt>
      <trkpt lat="43.4819761477410793304443359375" lon="1.44343078136444091796875">
        <ele>192.8000030517578125</ele>
        <time>2026-08-05T09:01:22.000Z</time>
        <extensions>
          <ns3:TrackPointExtension>
            <ns3:hr>79</ns3:hr>
            <ns3:cad>46</ns3:cad>
          </ns3:TrackPointExtension>
        </extensions>
      </trkpt>
      <trkpt lat="43.481974303722381591796875" lon="1.443412005901336669921875">
        <ele>192.8000030517578125</ele>
        <time>2026-08-05T09:01:23.000Z</time>
        <extensions>
          <ns3:TrackPointExtension>
            <ns3:hr>79</ns3:hr>
            <ns3:cad>48</ns3:cad>
          </ns3:TrackPointExtension>
        </extensions>
      </trkpt>
      <trkpt lat="43.48197220824658870697021484375" lon="1.443393565714359283447265625">
        <ele>192.8000030517578125</ele>
        <time>2026-08-05T09:01:24.000Z</time>
        <extensions>
          <ns3:TrackPointExtension>
            <ns3:hr>79</ns3:hr>
            <ns3:cad>48</ns3:cad>
          </ns3:TrackPointExtension>
        </extensions>
      </trkpt>
      <trkpt lat="43.4819702804088592529296875" lon="1.4433779753744602203369140625">
        <ele>193</ele>
        <time>2026-08-05T09:01:25.000Z</time>
        <extensions>
          <ns3:TrackPointExtension>
            <ns3:hr>80</ns3:hr>
            <ns3:cad>47</ns3:cad>
          </ns3:TrackPointExtension>
        </extensions>
      </trkpt>
      <trkpt lat="43.4819701127707958221435546875" lon="1.4433635585010051727294921875">
        <ele>193</ele>
        <time>2026-08-05T09:01:26.000Z</time>
        <extensions>
          <ns3:TrackPointExtension>
            <ns3:hr>80</ns3:hr>
            <ns3:cad>47</ns3:cad>
          </ns3:TrackPointExtension>
        </extensions>
      </trkpt>
      <trkpt lat="43.48196960985660552978515625" lon="1.44334754906594753265380859375">
        <ele>193</ele>
        <time>2026-08-05T09:01:27.000Z</time>
        <extensions>
          <ns3:TrackPointExtension>
            <ns3:hr>81</ns3:hr>
            <ns3:cad>47</ns3:cad>
          </ns3:TrackPointExtension>
        </extensions>
      </trkpt>
      <trkpt lat="43.48196852020919322967529296875" lon="1.4433317072689533233642578125">
        <ele>193.1999969482421875</ele>
        <time>2026-08-05T09:01:28.000Z</time>
        <extensions>
          <ns3:TrackPointExtension>
            <ns3:hr>81</ns3:hr>
            <ns3:cad>47</ns3:cad>
          </ns3:TrackPointExtension>
        </extensions>
      </trkpt>
      <trkpt lat="43.48196734674274921417236328125" lon="1.4433109201490879058837890625">
        <ele>193.1999969482421875</ele>
        <time>2026-08-05T09:01:29.000Z</time>
        <extensions>
          <ns3:TrackPointExtension>
            <ns3:hr>81</ns3:hr>
            <ns3:cad>48</ns3:cad>
          </ns3:TrackPointExtension>
        </extensions>
      </trkpt>
      <trkpt lat="43.48196600563824176788330078125" lon="1.44329373724758625030517578125">
        <ele>193.1999969482421875</ele>
        <time>2026-08-05T09:01:30.000Z</time>
        <extensions>
          <ns3:TrackPointExtension>
            <ns3:hr>82</ns3:hr>
            <ns3:cad>49</ns3:cad>
          </ns3:TrackPointExtension>
        </extensions>
      </trkpt>
      <trkpt lat="43.4819644130766391754150390625" lon="1.443276219069957733154296875">
        <ele>193.399993896484375</ele>
        <time>2026-08-05T09:01:31.000Z</time>
        <extensions>
          <ns3:TrackPointExtension>
            <ns3:hr>82</ns3:hr>
            <ns3:cad>49</ns3:cad>
          </ns3:TrackPointExtension>
        </extensions>
      </trkpt>
      <trkpt lat="43.48196466453373432159423828125" lon="1.44326373003423213958740234375">
        <ele>193.399993896484375</ele>
        <time>2026-08-05T09:01:32.000Z</time>
        <extensions>
          <ns3:TrackPointExtension>
            <ns3:hr>83</ns3:hr>
            <ns3:cad>48</ns3:cad>
          </ns3:TrackPointExtension>
        </extensions>
      </trkpt>
      <trkpt lat="43.48196617327630519866943359375" lon="1.4432552643120288848876953125">
        <ele>193.600006103515625</ele>
        <time>2026-08-05T09:01:33.000Z</time>
        <extensions>
          <ns3:TrackPointExtension>
            <ns3:hr>83</ns3:hr>
            <ns3:cad>48</ns3:cad>
          </ns3:TrackPointExtension>
        </extensions>
      </trkpt>
      <trkpt lat="43.4819634072482585906982421875" lon="1.44324193708598613739013671875">
        <ele>193.600006103515625</ele>
        <time>2026-08-05T09:01:34.000Z</time>
        <extensions>
          <ns3:TrackPointExtension>
            <ns3:hr>84</ns3:hr>
            <ns3:cad>48</ns3:cad>
          </ns3:TrackPointExtension>
        </extensions>
      </trkpt>
      <trkpt lat="43.4819620661437511444091796875" lon="1.44322198815643787384033203125">
        <ele>193.600006103515625</ele>
        <time>2026-08-05T09:01:35.000Z</time>
        <extensions>
          <ns3:TrackPointExtension>
            <ns3:hr>84</ns3:hr>
            <ns3:cad>48</ns3:cad>
          </ns3:TrackPointExtension>
        </extensions>
      </trkpt>
      <trkpt lat="43.48195888102054595947265625" lon="1.443202458322048187255859375">
        <ele>193.600006103515625</ele>
        <time>2026-08-05T09:01:36.000Z</time>
        <extensions>
          <ns3:TrackPointExtension>
            <ns3:hr>85</ns3:hr>
            <ns3:cad>48</ns3:cad>
          </ns3:TrackPointExtension>
        </extensions>
      </trkpt>
      <trkpt lat="43.48196131177246570587158203125" lon="1.44318737089633941650390625">
        <ele>193.600006103515625</ele>
        <time>2026-08-05T09:01:37.000Z</time>
        <extensions>
          <ns3:TrackPointExtension>
            <ns3:hr>85</ns3:hr>
            <ns3:cad>48</ns3:cad>
          </ns3:TrackPointExtension>
        </extensions>
      </trkpt>
      <trkpt lat="43.48196047358214855194091796875" lon="1.44317672587931156158447265625">
        <ele>193.8000030517578125</ele>
        <time>2026-08-05T09:01:38.000Z</time>
        <extensions>
          <ns3:TrackPointExtension>
            <ns3:hr>85</ns3:hr>
            <ns3:cad>48</ns3:cad>
          </ns3:TrackPointExtension>
        </extensions>
      </trkpt>
      <trkpt lat="43.48195862956345081329345703125" lon="1.44316381774842739105224609375">
        <ele>193.8000030517578125</ele>
        <time>2026-08-05T09:01:39.000Z</time>
        <extensions>
          <ns3:TrackPointExtension>
            <ns3:hr>86</ns3:hr>
            <ns3:cad>48</ns3:cad>
          </ns3:TrackPointExtension>
        </extensions>
      </trkpt>
      <trkpt lat="43.4819570370018482208251953125" lon="1.44314889796078205108642578125">
        <ele>194</ele>
        <time>2026-08-05T09:01:40.000Z</time>
        <extensions>
          <ns3:TrackPointExtension>
            <ns3:hr>86</ns3:hr>
            <ns3:cad>48</ns3:cad>
          </ns3:TrackPointExtension>
        </extensions>
      </trkpt>
      <trkpt lat="43.48195376805961132049560546875" lon="1.44312970340251922607421875">
        <ele>194</ele>
        <time>2026-08-05T09:01:41.000Z</time>
        <extensions>
          <ns3:TrackPointExtension>
            <ns3:hr>86</ns3:hr>
            <ns3:cad>48</ns3:cad>
          </ns3:TrackPointExtension>
        </extensions>
      </trkpt>
      <trkpt lat="43.48194991238415241241455078125" lon="1.4431094191968441009521484375">
        <ele>194.1999969482421875</ele>
        <time>2026-08-05T09:01:42.000Z</time>
        <extensions>
          <ns3:TrackPointExtension>
            <ns3:hr>87</ns3:hr>
            <ns3:cad>48</ns3:cad>
          </ns3:TrackPointExtension>
        </extensions>
      </trkpt>
      <trkpt lat="43.4819510020315647125244140625" lon="1.44309391267597675323486328125">
        <ele>194.1999969482421875</ele>
        <time>2026-08-05T09:01:43.000Z</time>
        <extensions>
          <ns3:TrackPointExtension>
            <ns3:hr>87</ns3:hr>
            <ns3:cad>48</ns3:cad>
          </ns3:TrackPointExtension>
        </extensions>
      </trkpt>
      <trkpt lat="43.48195091821253299713134765625" lon="1.44308268092572689056396484375">
        <ele>194.1999969482421875</ele>
        <time>2026-08-05T09:01:44.000Z</time>
        <extensions>
          <ns3:TrackPointExtension>
            <ns3:hr>88</ns3:hr>
            <ns3:cad>49</ns3:cad>
          </ns3:TrackPointExtension>
        </extensions>
      </trkpt>
      <trkpt lat="43.48194890655577182769775390625" lon="1.44307027570903301239013671875">
        <ele>194.399993896484375</ele>
        <time>2026-08-05T09:01:45.000Z</time>
        <extensions>
          <ns3:TrackPointExtension>
            <ns3:hr>88</ns3:hr>
            <ns3:cad>50</ns3:cad>
          </ns3:TrackPointExtension>
        </extensions>
      </trkpt>
      <trkpt lat="43.4819461405277252197265625" lon="1.44305133260786533355712890625">
        <ele>194.399993896484375</ele>
        <time>2026-08-05T09:01:46.000Z</time>
        <extensions>
          <ns3:TrackPointExtension>
            <ns3:hr>89</ns3:hr>
            <ns3:cad>50</ns3:cad>
          </ns3:TrackPointExtension>
        </extensions>
      </trkpt>
      <trkpt lat="43.48194488324224948883056640625" lon="1.44303557462990283966064453125">
        <ele>194.600006103515625</ele>
        <time>2026-08-05T09:01:47.000Z</time>
        <extensions>
          <ns3:TrackPointExtension>
            <ns3:hr>89</ns3:hr>
            <ns3:cad>49</ns3:cad>
          </ns3:TrackPointExtension>
        </extensions>
      </trkpt>
      <trkpt lat="43.4819442965090274810791015625" lon="1.44302434287965297698974609375">
        <ele>194.600006103515625</ele>
        <time>2026-08-05T09:01:48.000Z</time>
        <extensions>
          <ns3:TrackPointExtension>
            <ns3:hr>90</ns3:hr>
            <ns3:cad>48</ns3:cad>
          </ns3:TrackPointExtension>
        </extensions>
      </trkpt>
      <trkpt lat="43.481941781938076019287109375" lon="1.44301478751003742218017578125">
        <ele>194.600006103515625</ele>
        <time>2026-08-05T09:01:49.000Z</time>
        <extensions>
          <ns3:TrackPointExtension>
            <ns3:hr>90</ns3:hr>
            <ns3:cad>48</ns3:cad>
          </ns3:TrackPointExtension>
        </extensions>
      </trkpt>
      <trkpt lat="43.4819382615387439727783203125" lon="1.44299584440886974334716796875">
        <ele>194.8000030517578125</ele>
        <time>2026-08-05T09:01:50.000Z</time>
        <extensions>
          <ns3:TrackPointExtension>
            <ns3:hr>90</ns3:hr>
            <ns3:cad>48</ns3:cad>
          </ns3:TrackPointExtension>
        </extensions>
      </trkpt>
      <trkpt lat="43.48193566314876079559326171875" lon="1.44297455437481403350830078125">
        <ele>194.8000030517578125</ele>
        <time>2026-08-05T09:01:51.000Z</time>
        <extensions>
          <ns3:TrackPointExtension>
            <ns3:hr>90</ns3:hr>
            <ns3:cad>48</ns3:cad>
          </ns3:TrackPointExtension>
        </extensions>
      </trkpt>
      <trkpt lat="43.48193365149199962615966796875" lon="1.44295535981655120849609375">
        <ele>195</ele>
        <time>2026-08-05T09:01:52.000Z</time>
        <extensions>
          <ns3:TrackPointExtension>
            <ns3:hr>91</ns3:hr>
            <ns3:cad>48</ns3:cad>
          </ns3:TrackPointExtension>
        </extensions>
      </trkpt>
      <trkpt lat="43.481934070587158203125" lon="1.44293884746730327606201171875">
        <ele>195.1999969482421875</ele>
        <time>2026-08-05T09:01:53.000Z</time>
        <extensions>
          <ns3:TrackPointExtension>
            <ns3:hr>91</ns3:hr>
            <ns3:cad>48</ns3:cad>
          </ns3:TrackPointExtension>
        </extensions>
      </trkpt>
      <trkpt lat="43.48193348385393619537353515625" lon="1.44293046556413173675537109375">
        <ele>195.399993896484375</ele>
        <time>2026-08-05T09:01:54.000Z</time>
        <extensions>
          <ns3:TrackPointExtension>
            <ns3:hr>91</ns3:hr>
            <ns3:cad>48</ns3:cad>
          </ns3:TrackPointExtension>
        </extensions>
      </trkpt>
      <trkpt lat="43.481930382549762725830078125" lon="1.4429149590432643890380859375">
        <ele>195.399993896484375</ele>
        <time>2026-08-05T09:01:55.000Z</time>
        <extensions>
          <ns3:TrackPointExtension>
            <ns3:hr>92</ns3:hr>
            <ns3:cad>48</ns3:cad>
          </ns3:TrackPointExtension>
        </extensions>
      </trkpt>
      <trkpt lat="43.48192744888365268707275390625" lon="1.442898027598857879638671875">
        <ele>195.600006103515625</ele>
        <time>2026-08-05T09:01:56.000Z</time>
        <extensions>
          <ns3:TrackPointExtension>
            <ns3:hr>92</ns3:hr>
            <ns3:cad>48</ns3:cad>
          </ns3:TrackPointExtension>
        </extensions>
      </trkpt>
      <trkpt lat="43.48192426376044750213623046875" lon="1.442881934344768524169921875">
        <ele>195.600006103515625</ele>
        <time>2026-08-05T09:01:57.000Z</time>
        <extensions>
          <ns3:TrackPointExtension>
            <ns3:hr>92</ns3:hr>
            <ns3:cad>49</ns3:cad>
          </ns3:TrackPointExtension>
        </extensions>
      </trkpt>
      <trkpt lat="43.48192510195076465606689453125" lon="1.4428707025945186614990234375">
        <ele>195.8000030517578125</ele>
        <time>2026-08-05T09:01:58.000Z</time>
        <extensions>
          <ns3:TrackPointExtension>
            <ns3:hr>93</ns3:hr>
            <ns3:cad>49</ns3:cad>
          </ns3:TrackPointExtension>
        </extensions>
      </trkpt>
      <trkpt lat="43.481926359236240386962890625" lon="1.44286575727164745330810546875">
        <ele>195.8000030517578125</ele>
        <time>2026-08-05T09:01:59.000Z</time>
        <extensions>
          <ns3:TrackPointExtension>
            <ns3:hr>93</ns3:hr>
            <ns3:cad>47</ns3:cad>
          </ns3:TrackPointExtension>
        </extensions>
      </trkpt>
      <trkpt lat="43.48192543722689151763916015625" lon="1.44285351969301700592041015625">
        <ele>195.8000030517578125</ele>
        <time>2026-08-05T09:02:00.000Z</time>
        <extensions>
          <ns3:TrackPointExtension>
            <ns3:hr>93</ns3:hr>
            <ns3:cad>47</ns3:cad>
          </ns3:TrackPointExtension>
        </extensions>
      </trkpt>
      <trkpt lat="43.4819218330085277557373046875" lon="1.442832313477993011474609375">
        <ele>196</ele>
        <time>2026-08-05T09:02:01.000Z</time>
        <extensions>
          <ns3:TrackPointExtension>
            <ns3:hr>94</ns3:hr>
            <ns3:cad>47</ns3:cad>
          </ns3:TrackPointExtension>
        </extensions>
      </trkpt>
      <trkpt lat="43.4819184802472591400146484375" lon="1.4428140409290790557861328125">
        <ele>196</ele>
        <time>2026-08-05T09:02:02.000Z</time>
        <extensions>
          <ns3:TrackPointExtension>
            <ns3:hr>93</ns3:hr>
            <ns3:cad>47</ns3:cad>
          </ns3:TrackPointExtension>
        </extensions>
      </trkpt>
      <trkpt lat="43.48191730678081512451171875" lon="1.44279778003692626953125">
        <ele>196.1999969482421875</ele>
        <time>2026-08-05T09:02:03.000Z</time>
        <extensions>
          <ns3:TrackPointExtension>
            <ns3:hr>94</ns3:hr>
            <ns3:cad>47</ns3:cad>
          </ns3:TrackPointExtension>
        </extensions>
      </trkpt>
      <trkpt lat="43.48191655240952968597412109375" lon="1.44278830848634243011474609375">
        <ele>196.1999969482421875</ele>
        <time>2026-08-05T09:02:04.000Z</time>
        <extensions>
          <ns3:TrackPointExtension>
            <ns3:hr>94</ns3:hr>
            <ns3:cad>47</ns3:cad>
          </ns3:TrackPointExtension>
        </extensions>
      </trkpt>
      <trkpt lat="43.4819154627621173858642578125" lon="1.442771963775157928466796875">
        <ele>196.399993896484375</ele>
        <time>2026-08-05T09:02:05.000Z</time>
        <extensions>
          <ns3:TrackPointExtension>
            <ns3:hr>95</ns3:hr>
            <ns3:cad>47</ns3:cad>
          </ns3:TrackPointExtension>
        </extensions>
      </trkpt>
      <trkpt lat="43.4819127805531024932861328125" lon="1.4427508413791656494140625">
        <ele>196.399993896484375</ele>
        <time>2026-08-05T09:02:06.000Z</time>
        <extensions>
          <ns3:TrackPointExtension>
            <ns3:hr>95</ns3:hr>
            <ns3:cad>48</ns3:cad>
          </ns3:TrackPointExtension>
        </extensions>
      </trkpt>
      <trkpt lat="43.4819104336202144622802734375" lon="1.44273583777248859405517578125">
        <ele>196.600006103515625</ele>
        <time>2026-08-05T09:02:07.000Z</time>
        <extensions>
          <ns3:TrackPointExtension>
            <ns3:hr>95</ns3:hr>
            <ns3:cad>48</ns3:cad>
          </ns3:TrackPointExtension>
        </extensions>
      </trkpt>
      <trkpt lat="43.481908924877643585205078125" lon="1.4427221752703189849853515625">
        <ele>196.600006103515625</ele>
        <time>2026-08-05T09:02:08.000Z</time>
        <extensions>
          <ns3:TrackPointExtension>
            <ns3:hr>96</ns3:hr>
            <ns3:cad>48</ns3:cad>
          </ns3:TrackPointExtension>
        </extensions>
      </trkpt>
      <trkpt lat="43.48190716467797756195068359375" lon="1.4427101053297519683837890625">
        <ele>196.8000030517578125</ele>
        <time>2026-08-05T09:02:09.000Z</time>
        <extensions>
          <ns3:TrackPointExtension>
            <ns3:hr>96</ns3:hr>
            <ns3:cad>49</ns3:cad>
          </ns3:TrackPointExtension>
        </extensions>
      </trkpt>
      <trkpt lat="43.48190180025994777679443359375" lon="1.4426906593143939971923828125">
        <ele>196.8000030517578125</ele>
        <time>2026-08-05T09:02:10.000Z</time>
        <extensions>
          <ns3:TrackPointExtension>
            <ns3:hr>97</ns3:hr>
            <ns3:cad>49</ns3:cad>
          </ns3:TrackPointExtension>
        </extensions>
      </trkpt>
      <trkpt lat="43.48189660347998142242431640625" lon="1.44267180003225803375244140625">
        <ele>196.8000030517578125</ele>
        <time>2026-08-05T09:02:11.000Z</time>
        <extensions>
          <ns3:TrackPointExtension>
            <ns3:hr>97</ns3:hr>
            <ns3:cad>49</ns3:cad>
          </ns3:TrackPointExtension>
        </extensions>
      </trkpt>
      <trkpt lat="43.48189425654709339141845703125" lon="1.44265520386397838592529296875">
        <ele>197</ele>
        <time>2026-08-05T09:02:12.000Z</time>
        <extensions>
          <ns3:TrackPointExtension>
            <ns3:hr>98</ns3:hr>
            <ns3:cad>48</ns3:cad>
          </ns3:TrackPointExtension>
        </extensions>
      </trkpt>
      <trkpt lat="43.4818916581571102142333984375" lon="1.4426427148282527923583984375">
        <ele>197</ele>
        <time>2026-08-05T09:02:13.000Z</time>
        <extensions>
          <ns3:TrackPointExtension>
            <ns3:hr>98</ns3:hr>
            <ns3:cad>48</ns3:cad>
          </ns3:TrackPointExtension>
        </extensions>
      </trkpt>
      <trkpt lat="43.48188805393874645233154296875" lon="1.4426360093057155609130859375">
        <ele>197</ele>
        <time>2026-08-05T09:02:14.000Z</time>
        <extensions>
          <ns3:TrackPointExtension>
            <ns3:hr>99</ns3:hr>
            <ns3:cad>47</ns3:cad>
          </ns3:TrackPointExtension>
        </extensions>
      </trkpt>
      <trkpt lat="43.48188419826328754425048828125" lon="1.44261715002357959747314453125">
        <ele>197.1999969482421875</ele>
        <time>2026-08-05T09:02:15.000Z</time>
        <extensions>
          <ns3:TrackPointExtension>
            <ns3:hr>99</ns3:hr>
            <ns3:cad>47</ns3:cad>
          </ns3:TrackPointExtension>
        </extensions>
      </trkpt>
      <trkpt lat="43.48187983967363834381103515625" lon="1.4425951056182384490966796875">
        <ele>197.1999969482421875</ele>
        <time>2026-08-05T09:02:16.000Z</time>
        <extensions>
          <ns3:TrackPointExtension>
            <ns3:hr>98</ns3:hr>
            <ns3:cad>47</ns3:cad>
          </ns3:TrackPointExtension>
        </extensions>
      </trkpt>
      <trkpt lat="43.4818759001791477203369140625" lon="1.44257792271673679351806640625">
        <ele>197.399993896484375</ele>
        <time>2026-08-05T09:02:17.000Z</time>
        <extensions>
          <ns3:TrackPointExtension>
            <ns3:hr>98</ns3:hr>
            <ns3:cad>49</ns3:cad>
          </ns3:TrackPointExtension>
        </extensions>
      </trkpt>
      <trkpt lat="43.48187196068465709686279296875" lon="1.44256643950939178466796875">
        <ele>197.600006103515625</ele>
        <time>2026-08-05T09:02:18.000Z</time>
        <extensions>
          <ns3:TrackPointExtension>
            <ns3:hr>98</ns3:hr>
            <ns3:cad>49</ns3:cad>
          </ns3:TrackPointExtension>
        </extensions>
      </trkpt>
      <trkpt lat="43.4818715415894985198974609375" lon="1.4425572194159030914306640625">
        <ele>197.600006103515625</ele>
        <time>2026-08-05T09:02:19.000Z</time>
        <extensions>
          <ns3:TrackPointExtension>
            <ns3:hr>99</ns3:hr>
            <ns3:cad>49</ns3:cad>
          </ns3:TrackPointExtension>
        </extensions>
      </trkpt>
      <trkpt lat="43.48187028430402278900146484375" lon="1.442539952695369720458984375">
        <ele>197.600006103515625</ele>
        <time>2026-08-05T09:02:20.000Z</time>
        <extensions>
          <ns3:TrackPointExtension>
            <ns3:hr>99</ns3:hr>
            <ns3:cad>49</ns3:cad>
          </ns3:TrackPointExtension>
        </extensions>
      </trkpt>
      <trkpt lat="43.48186902701854705810546875" lon="1.44252008758485317230224609375">
        <ele>197.8000030517578125</ele>
        <time>2026-08-05T09:02:21.000Z</time>
        <extensions>
          <ns3:TrackPointExtension>
            <ns3:hr>99</ns3:hr>
            <ns3:cad>49</ns3:cad>
          </ns3:TrackPointExtension>
        </extensions>
      </trkpt>
      <trkpt lat="43.48186709918081760406494140625" lon="1.44250919111073017120361328125">
        <ele>197.8000030517578125</ele>
        <time>2026-08-05T09:02:22.000Z</time>
        <extensions>
          <ns3:TrackPointExtension>
            <ns3:hr>99</ns3:hr>
            <ns3:cad>49</ns3:cad>
          </ns3:TrackPointExtension>
        </extensions>
      </trkpt>
      <trkpt lat="43.48185989074409008026123046875" lon="1.4425008930265903472900390625">
        <ele>198</ele>
        <time>2026-08-05T09:02:23.000Z</time>
        <extensions>
          <ns3:TrackPointExtension>
            <ns3:hr>100</ns3:hr>
            <ns3:cad>49</ns3:cad>
          </ns3:TrackPointExtension>
        </extensions>
      </trkpt>
      <trkpt lat="43.48185888491570949554443359375" lon="1.44248857162892818450927734375">
        <ele>198</ele>
        <time>2026-08-05T09:02:24.000Z</time>
        <extensions>
          <ns3:TrackPointExtension>
            <ns3:hr>99</ns3:hr>
            <ns3:cad>48</ns3:cad>
          </ns3:TrackPointExtension>
        </extensions>
      </trkpt>
      <trkpt lat="43.48185637034475803375244140625" lon="1.44247013144195079803466796875">
        <ele>198.1999969482421875</ele>
        <time>2026-08-05T09:02:25.000Z</time>
        <extensions>
          <ns3:TrackPointExtension>
            <ns3:hr>99</ns3:hr>
            <ns3:cad>48</ns3:cad>
          </ns3:TrackPointExtension>
        </extensions>
      </trkpt>
      <trkpt lat="43.48185352049767971038818359375" lon="1.4424504339694976806640625">
        <ele>198.399993896484375</ele>
        <time>2026-08-05T09:02:26.000Z</time>
        <extensions>
          <ns3:TrackPointExtension>
            <ns3:hr>100</ns3:hr>
            <ns3:cad>48</ns3:cad>
          </ns3:TrackPointExtension>
        </extensions>
      </trkpt>
      <trkpt lat="43.48185301758348941802978515625" lon="1.4424361847341060638427734375">
        <ele>198.399993896484375</ele>
        <time>2026-08-05T09:02:27.000Z</time>
        <extensions>
          <ns3:TrackPointExtension>
            <ns3:hr>100</ns3:hr>
            <ns3:cad>46</ns3:cad>
          </ns3:TrackPointExtension>
        </extensions>
      </trkpt>
      <trkpt lat="43.4818531014025211334228515625" lon="1.4424234442412853240966796875">
        <ele>198.399993896484375</ele>
        <time>2026-08-05T09:02:28.000Z</time>
        <extensions>
          <ns3:TrackPointExtension>
            <ns3:hr>100</ns3:hr>
            <ns3:cad>46</ns3:cad>
          </ns3:TrackPointExtension>
        </extensions>
      </trkpt>
      <trkpt lat="43.48184966482222080230712890625" lon="1.4424102008342742919921875">
        <ele>198.600006103515625</ele>
        <time>2026-08-05T09:02:29.000Z</time>
        <extensions>
          <ns3:TrackPointExtension>
            <ns3:hr>101</ns3:hr>
            <ns3:cad>46</ns3:cad>
          </ns3:TrackPointExtension>
        </extensions>
      </trkpt>
      <trkpt lat="43.4818450547754764556884765625" lon="1.4423905871808528900146484375">
        <ele>198.600006103515625</ele>
        <time>2026-08-05T09:02:30.000Z</time>
        <extensions>
          <ns3:TrackPointExtension>
            <ns3:hr>102</ns3:hr>
            <ns3:cad>47</ns3:cad>
          </ns3:TrackPointExtension>
        </extensions>
      </trkpt>
      <trkpt lat="43.481840528547763824462890625" lon="1.44237390719354152679443359375">
        <ele>198.8000030517578125</ele>
        <time>2026-08-05T09:02:31.000Z</time>
        <extensions>
          <ns3:TrackPointExtension>
            <ns3:hr>102</ns3:hr>
            <ns3:cad>47</ns3:cad>
          </ns3:TrackPointExtension>
        </extensions>
      </trkpt>
      <trkpt lat="43.4818376787006855010986328125" lon="1.44236166961491107940673828125">
        <ele>199</ele>
        <time>2026-08-05T09:02:32.000Z</time>
        <extensions>
          <ns3:TrackPointExtension>
            <ns3:hr>102</ns3:hr>
            <ns3:cad>47</ns3:cad>
          </ns3:TrackPointExtension>
        </extensions>
      </trkpt>
      <trkpt lat="43.4818353317677974700927734375" lon="1.44235496409237384796142578125">
        <ele>199</ele>
        <time>2026-08-05T09:02:33.000Z</time>
        <extensions>
          <ns3:TrackPointExtension>
            <ns3:hr>103</ns3:hr>
            <ns3:cad>47</ns3:cad>
          </ns3:TrackPointExtension>
        </extensions>
      </trkpt>
      <trkpt lat="43.4818306379020214080810546875" lon="1.4423413015902042388916015625">
        <ele>199.1999969482421875</ele>
        <time>2026-08-05T09:02:34.000Z</time>
        <extensions>
          <ns3:TrackPointExtension>
            <ns3:hr>103</ns3:hr>
            <ns3:cad>47</ns3:cad>
          </ns3:TrackPointExtension>
        </extensions>
      </trkpt>
      <trkpt lat="43.481826446950435638427734375" lon="1.44232260994613170623779296875">
        <ele>199.1999969482421875</ele>
        <time>2026-08-05T09:02:35.000Z</time>
        <extensions>
          <ns3:TrackPointExtension>
            <ns3:hr>103</ns3:hr>
            <ns3:cad>47</ns3:cad>
          </ns3:TrackPointExtension>
        </extensions>
      </trkpt>
      <trkpt lat="43.48182099871337413787841796875" lon="1.44230668433010578155517578125">
        <ele>199.1999969482421875</ele>
        <time>2026-08-05T09:02:36.000Z</time>
        <extensions>
          <ns3:TrackPointExtension>
            <ns3:hr>103</ns3:hr>
            <ns3:cad>47</ns3:cad>
          </ns3:TrackPointExtension>
        </extensions>
      </trkpt>
      <trkpt lat="43.48181764595210552215576171875" lon="1.4422923512756824493408203125">
        <ele>199.399993896484375</ele>
        <time>2026-08-05T09:02:37.000Z</time>
        <extensions>
          <ns3:TrackPointExtension>
            <ns3:hr>103</ns3:hr>
            <ns3:cad>46</ns3:cad>
          </ns3:TrackPointExtension>
        </extensions>
      </trkpt>
      <trkpt lat="43.4818152152001857757568359375" lon="1.44228137098252773284912109375">
        <ele>199.399993896484375</ele>
        <time>2026-08-05T09:02:38.000Z</time>
        <extensions>
          <ns3:TrackPointExtension>
            <ns3:hr>103</ns3:hr>
            <ns3:cad>48</ns3:cad>
          </ns3:TrackPointExtension>
        </extensions>
      </trkpt>
      <trkpt lat="43.481811024248600006103515625" lon="1.4422707259654998779296875">
        <ele>199.600006103515625</ele>
        <time>2026-08-05T09:02:39.000Z</time>
        <extensions>
          <ns3:TrackPointExtension>
            <ns3:hr>102</ns3:hr>
            <ns3:cad>48</ns3:cad>
          </ns3:TrackPointExtension>
        </extensions>
      </trkpt>
      <trkpt lat="43.4818054921925067901611328125" lon="1.4422514475882053375244140625">
        <ele>199.600006103515625</ele>
        <time>2026-08-05T09:02:40.000Z</time>
        <extensions>
          <ns3:TrackPointExtension>
            <ns3:hr>102</ns3:hr>
            <ns3:cad>49</ns3:cad>
          </ns3:TrackPointExtension>
        </extensions>
      </trkpt>
      <trkpt lat="43.4817986190319061279296875" lon="1.442236192524433135986328125">
        <ele>199.8000030517578125</ele>
        <time>2026-08-05T09:02:41.000Z</time>
        <extensions>
          <ns3:TrackPointExtension>
            <ns3:hr>102</ns3:hr>
            <ns3:cad>49</ns3:cad>
          </ns3:TrackPointExtension>
        </extensions>
      </trkpt>
      <trkpt lat="43.48179384134709835052490234375" lon="1.44222303293645381927490234375">
        <ele>199.8000030517578125</ele>
        <time>2026-08-05T09:02:42.000Z</time>
        <extensions>
          <ns3:TrackPointExtension>
            <ns3:hr>101</ns3:hr>
            <ns3:cad>48</ns3:cad>
          </ns3:TrackPointExtension>
        </extensions>
      </trkpt>
      <trkpt lat="43.48179266788065433502197265625" lon="1.4422122202813625335693359375">
        <ele>200</ele>
        <time>2026-08-05T09:02:43.000Z</time>
        <extensions>
          <ns3:TrackPointExtension>
            <ns3:hr>101</ns3:hr>
            <ns3:cad>48</ns3:cad>
          </ns3:TrackPointExtension>
        </extensions>
      </trkpt>
      <trkpt lat="43.48178529180586338043212890625" lon="1.4422018267214298248291015625">
        <ele>200</ele>
        <time>2026-08-05T09:02:44.000Z</time>
        <extensions>
          <ns3:TrackPointExtension>
            <ns3:hr>101</ns3:hr>
            <ns3:cad>48</ns3:cad>
          </ns3:TrackPointExtension>
        </extensions>
      </trkpt>
      <trkpt lat="43.48177674226462841033935546875" lon="1.44218464381992816925048828125">
        <ele>200</ele>
        <time>2026-08-05T09:02:45.000Z</time>
        <extensions>
          <ns3:TrackPointExtension>
            <ns3:hr>102</ns3:hr>
            <ns3:cad>48</ns3:cad>
          </ns3:TrackPointExtension>
        </extensions>
      </trkpt>
      <trkpt lat="43.48176986910402774810791015625" lon="1.44217123277485370635986328125">
        <ele>200.1999969482421875</ele>
        <time>2026-08-05T09:02:46.000Z</time>
        <extensions>
          <ns3:TrackPointExtension>
            <ns3:hr>102</ns3:hr>
            <ns3:cad>48</ns3:cad>
          </ns3:TrackPointExtension>
        </extensions>
      </trkpt>
      <trkpt lat="43.4817666001617908477783203125" lon="1.44216184504330158233642578125">
        <ele>200.1999969482421875</ele>
        <time>2026-08-05T09:02:47.000Z</time>
        <extensions>
          <ns3:TrackPointExtension>
            <ns3:hr>102</ns3:hr>
            <ns3:cad>48</ns3:cad>
          </ns3:TrackPointExtension>
        </extensions>
      </trkpt>
      <trkpt lat="43.4817645885050296783447265625" lon="1.442157067358493804931640625">
        <ele>200.399993896484375</ele>
        <time>2026-08-05T09:02:48.000Z</time>
        <extensions>
          <ns3:TrackPointExtension>
            <ns3:hr>102</ns3:hr>
            <ns3:cad>47</ns3:cad>
          </ns3:TrackPointExtension>
        </extensions>
      </trkpt>
      <trkpt lat="43.48175578750669956207275390625" lon="1.442141644656658172607421875">
        <ele>200.399993896484375</ele>
        <time>2026-08-05T09:02:49.000Z</time>
        <extensions>
          <ns3:TrackPointExtension>
            <ns3:hr>101</ns3:hr>
            <ns3:cad>47</ns3:cad>
          </ns3:TrackPointExtension>
        </extensions>
      </trkpt>
      <trkpt lat="43.4817458130419254302978515625" lon="1.4421297423541545867919921875">
        <ele>200.600006103515625</ele>
        <time>2026-08-05T09:02:50.000Z</time>
        <extensions>
          <ns3:TrackPointExtension>
            <ns3:hr>101</ns3:hr>
            <ns3:cad>47</ns3:cad>
          </ns3:TrackPointExtension>
        </extensions>
      </trkpt>
      <trkpt lat="43.481739275157451629638671875" lon="1.44211876206099987030029296875">
        <ele>200.600006103515625</ele>
        <time>2026-08-05T09:02:51.000Z</time>
        <extensions>
          <ns3:TrackPointExtension>
            <ns3:hr>101</ns3:hr>
            <ns3:cad>47</ns3:cad>
          </ns3:TrackPointExtension>
        </extensions>
      </trkpt>
      <trkpt lat="43.4817357547581195831298828125" lon="1.442109458148479461669921875">
        <ele>200.8000030517578125</ele>
        <time>2026-08-05T09:02:52.000Z</time>
        <extensions>
          <ns3:TrackPointExtension>
            <ns3:hr>101</ns3:hr>
            <ns3:cad>47</ns3:cad>
          </ns3:TrackPointExtension>
        </extensions>
      </trkpt>
      <trkpt lat="43.481729216873645782470703125" lon="1.44209898076951503753662109375">
        <ele>201</ele>
        <time>2026-08-05T09:02:53.000Z</time>
        <extensions>
          <ns3:TrackPointExtension>
            <ns3:hr>100</ns3:hr>
            <ns3:cad>47</ns3:cad>
          </ns3:TrackPointExtension>
        </extensions>
      </trkpt>
      <trkpt lat="43.4817189909517765045166015625" lon="1.44208288751542568206787109375">
        <ele>201</ele>
        <time>2026-08-05T09:02:54.000Z</time>
        <extensions>
          <ns3:TrackPointExtension>
            <ns3:hr>100</ns3:hr>
            <ns3:cad>47</ns3:cad>
          </ns3:TrackPointExtension>
        </extensions>
      </trkpt>
      <trkpt lat="43.48170951940119266510009765625" lon="1.44207014702260494232177734375">
        <ele>201.1999969482421875</ele>
        <time>2026-08-05T09:02:55.000Z</time>
        <extensions>
          <ns3:TrackPointExtension>
            <ns3:hr>100</ns3:hr>
            <ns3:cad>46</ns3:cad>
          </ns3:TrackPointExtension>
        </extensions>
      </trkpt>
      <trkpt lat="43.48170465789735317230224609375" lon="1.4420600049197673797607421875">
        <ele>201.1999969482421875</ele>
        <time>2026-08-05T09:02:56.000Z</time>
        <extensions>
          <ns3:TrackPointExtension>
            <ns3:hr>100</ns3:hr>
            <ns3:cad>46</ns3:cad>
          </ns3:TrackPointExtension>
        </extensions>
      </trkpt>
      <trkpt lat="43.48169946111738681793212890625" lon="1.442054472863674163818359375">
        <ele>201.399993896484375</ele>
        <time>2026-08-05T09:02:57.000Z</time>
        <extensions>
          <ns3:TrackPointExtension>
            <ns3:hr>100</ns3:hr>
            <ns3:cad>46</ns3:cad>
          </ns3:TrackPointExtension>
        </extensions>
      </trkpt>
      <trkpt lat="43.4816904924809932708740234375" lon="1.442040391266345977783203125">
        <ele>201.399993896484375</ele>
        <time>2026-08-05T09:02:58.000Z</time>
        <extensions>
          <ns3:TrackPointExtension>
            <ns3:hr>100</ns3:hr>
            <ns3:cad>48</ns3:cad>
          </ns3:TrackPointExtension>
        </extensions>
      </trkpt>
      <trkpt lat="43.48168152384459972381591796875" lon="1.442030332982540130615234375">
        <ele>201.600006103515625</ele>
        <time>2026-08-05T09:02:59.000Z</time>
        <extensions>
          <ns3:TrackPointExtension>
            <ns3:hr>101</ns3:hr>
            <ns3:cad>48</ns3:cad>
          </ns3:TrackPointExtension>
        </extensions>
      </trkpt>
      <trkpt lat="43.48167465068399906158447265625" lon="1.442022621631622314453125">
        <ele>201.600006103515625</ele>
        <time>2026-08-05T09:03:00.000Z</time>
        <extensions>
          <ns3:TrackPointExtension>
            <ns3:hr>101</ns3:hr>
            <ns3:cad>47</ns3:cad>
          </ns3:TrackPointExtension>
        </extensions>
      </trkpt>
      <trkpt lat="43.48167146556079387664794921875" lon="1.44201524555683135986328125">
        <ele>201.8000030517578125</ele>
        <time>2026-08-05T09:03:01.000Z</time>
        <extensions>
          <ns3:TrackPointExtension>
            <ns3:hr>100</ns3:hr>
            <ns3:cad>47</ns3:cad>
          </ns3:TrackPointExtension>
        </extensions>
      </trkpt>
      <trkpt lat="43.481666184961795806884765625" lon="1.4420073665678501129150390625">
        <ele>201.8000030517578125</ele>
        <time>2026-08-05T09:03:02.000Z</time>
        <extensions>
          <ns3:TrackPointExtension>
            <ns3:hr>100</ns3:hr>
            <ns3:cad>47</ns3:cad>
          </ns3:TrackPointExtension>
        </extensions>
      </trkpt>
      <trkpt lat="43.48165369592607021331787109375" lon="1.44199470989406108856201171875">
        <ele>202</ele>
        <time>2026-08-05T09:03:03.000Z</time>
        <extensions>
          <ns3:TrackPointExtension>
            <ns3:hr>100</ns3:hr>
            <ns3:cad>46</ns3:cad>
          </ns3:TrackPointExtension>
        </extensions>
      </trkpt>
      <trkpt lat="43.48164279945194721221923828125" lon="1.44198716618120670318603515625">
        <ele>202.1999969482421875</ele>
        <time>2026-08-05T09:03:04.000Z</time>
        <extensions>
          <ns3:TrackPointExtension>
            <ns3:hr>100</ns3:hr>
            <ns3:cad>46</ns3:cad>
          </ns3:TrackPointExtension>
        </extensions>
      </trkpt>
      <trkpt lat="43.48163525573909282684326171875" lon="1.441978029906749725341796875">
        <ele>202.1999969482421875</ele>
        <time>2026-08-05T09:03:05.000Z</time>
        <extensions>
          <ns3:TrackPointExtension>
            <ns3:hr>100</ns3:hr>
            <ns3:cad>46</ns3:cad>
          </ns3:TrackPointExtension>
        </extensions>
      </trkpt>
      <trkpt lat="43.48163240589201450347900390625" lon="1.44197241403162479400634765625">
        <ele>202.399993896484375</ele>
        <time>2026-08-05T09:03:06.000Z</time>
        <extensions>
          <ns3:TrackPointExtension>
            <ns3:hr>101</ns3:hr>
            <ns3:cad>46</ns3:cad>
          </ns3:TrackPointExtension>
        </extensions>
      </trkpt>
      <trkpt lat="43.4816244430840015411376953125" lon="1.44196704961359500885009765625">
        <ele>202.600006103515625</ele>
        <time>2026-08-05T09:03:07.000Z</time>
        <extensions>
          <ns3:TrackPointExtension>
            <ns3:hr>101</ns3:hr>
            <ns3:cad>47</ns3:cad>
          </ns3:TrackPointExtension>
        </extensions>
      </trkpt>
      <trkpt lat="43.4816117025911808013916015625" lon="1.4419537223875522613525390625">
        <ele>202.600006103515625</ele>
        <time>2026-08-05T09:03:08.000Z</time>
        <extensions>
          <ns3:TrackPointExtension>
            <ns3:hr>101</ns3:hr>
            <ns3:cad>47</ns3:cad>
          </ns3:TrackPointExtension>
        </extensions>
      </trkpt>
      <trkpt lat="43.481599800288677215576171875" lon="1.4419443346560001373291015625">
        <ele>202.8000030517578125</ele>
        <time>2026-08-05T09:03:09.000Z</time>
        <extensions>
          <ns3:TrackPointExtension>
            <ns3:hr>100</ns3:hr>
            <ns3:cad>48</ns3:cad>
          </ns3:TrackPointExtension>
        </extensions>
      </trkpt>
      <trkpt lat="43.481590412557125091552734375" lon="1.44193402491509914398193359375">
        <ele>202.8000030517578125</ele>
        <time>2026-08-05T09:03:10.000Z</time>
        <extensions>
          <ns3:TrackPointExtension>
            <ns3:hr>101</ns3:hr>
            <ns3:cad>48</ns3:cad>
          </ns3:TrackPointExtension>
        </extensions>
      </trkpt>
      <trkpt lat="43.4815872274339199066162109375" lon="1.44192363135516643524169921875">
        <ele>203</ele>
        <time>2026-08-05T09:03:11.000Z</time>
        <extensions>
          <ns3:TrackPointExtension>
            <ns3:hr>101</ns3:hr>
            <ns3:cad>48</ns3:cad>
          </ns3:TrackPointExtension>
        </extensions>
      </trkpt>
      <trkpt lat="43.48157842643558979034423828125" lon="1.44191734492778778076171875">
        <ele>203</ele>
        <time>2026-08-05T09:03:12.000Z</time>
        <extensions>
          <ns3:TrackPointExtension>
            <ns3:hr>101</ns3:hr>
            <ns3:cad>48</ns3:cad>
          </ns3:TrackPointExtension>
        </extensions>
      </trkpt>
      <trkpt lat="43.4815647639334201812744140625" lon="1.44190770573914051055908203125">
        <ele>203.1999969482421875</ele>
        <time>2026-08-05T09:03:13.000Z</time>
        <extensions>
          <ns3:TrackPointExtension>
            <ns3:hr>100</ns3:hr>
            <ns3:cad>48</ns3:cad>
          </ns3:TrackPointExtension>
        </extensions>
      </trkpt>
      <trkpt lat="43.4815545380115509033203125" lon="1.44190100021660327911376953125">
        <ele>203.1999969482421875</ele>
        <time>2026-08-05T09:03:14.000Z</time>
        <extensions>
          <ns3:TrackPointExtension>
            <ns3:hr>100</ns3:hr>
            <ns3:cad>48</ns3:cad>
          </ns3:TrackPointExtension>
        </extensions>
      </trkpt>
      <trkpt lat="43.481550514698028564453125" lon="1.44189261831343173980712890625">
        <ele>203.399993896484375</ele>
        <time>2026-08-05T09:03:15.000Z</time>
        <extensions>
          <ns3:TrackPointExtension>
            <ns3:hr>100</ns3:hr>
            <ns3:cad>48</ns3:cad>
          </ns3:TrackPointExtension>
        </extensions>
      </trkpt>
      <trkpt lat="43.48154640756547451019287109375" lon="1.4418896846473217010498046875">
        <ele>203.399993896484375</ele>
        <time>2026-08-05T09:03:16.000Z</time>
        <extensions>
          <ns3:TrackPointExtension>
            <ns3:hr>100</ns3:hr>
            <ns3:cad>48</ns3:cad>
          </ns3:TrackPointExtension>
        </extensions>
      </trkpt>
      <trkpt lat="43.48153400234878063201904296875" lon="1.4418789558112621307373046875">
        <ele>203.600006103515625</ele>
        <time>2026-08-05T09:03:17.000Z</time>
        <extensions>
          <ns3:TrackPointExtension>
            <ns3:hr>100</ns3:hr>
            <ns3:cad>47</ns3:cad>
          </ns3:TrackPointExtension>
        </extensions>
      </trkpt>
      <trkpt lat="43.48152637481689453125" lon="1.44187384285032749176025390625">
        <ele>203.600006103515625</ele>
        <time>2026-08-05T09:03:18.000Z</time>
        <extensions>
          <ns3:TrackPointExtension>
            <ns3:hr>100</ns3:hr>
            <ns3:cad>47</ns3:cad>
          </ns3:TrackPointExtension>
        </extensions>
      </trkpt>
      <trkpt lat="43.48151857964694499969482421875" lon="1.441866718232631683349609375">
        <ele>203.8000030517578125</ele>
        <time>2026-08-05T09:03:19.000Z</time>
        <extensions>
          <ns3:TrackPointExtension>
            <ns3:hr>100</ns3:hr>
            <ns3:cad>46</ns3:cad>
          </ns3:TrackPointExtension>
        </extensions>
      </trkpt>
      <trkpt lat="43.48151137121021747589111328125" lon="1.44186110235750675201416015625">
        <ele>204</ele>
        <time>2026-08-05T09:03:20.000Z</time>
        <extensions>
          <ns3:TrackPointExtension>
            <ns3:hr>100</ns3:hr>
            <ns3:cad>46</ns3:cad>
          </ns3:TrackPointExtension>
        </extensions>
      </trkpt>
      <trkpt lat="43.48150097765028476715087890625" lon="1.44185137934982776641845703125">
        <ele>204</ele>
        <time>2026-08-05T09:03:21.000Z</time>
        <extensions>
          <ns3:TrackPointExtension>
            <ns3:hr>99</ns3:hr>
            <ns3:cad>46</ns3:cad>
          </ns3:TrackPointExtension>
        </extensions>
      </trkpt>
      <trkpt lat="43.481486476957798004150390625" lon="1.44184626638889312744140625">
        <ele>204.1999969482421875</ele>
        <time>2026-08-05T09:03:22.000Z</time>
        <extensions>
          <ns3:TrackPointExtension>
            <ns3:hr>99</ns3:hr>
            <ns3:cad>46</ns3:cad>
          </ns3:TrackPointExtension>
        </extensions>
      </trkpt>
      <trkpt lat="43.4814735688269138336181640625" lon="1.44184417091310024261474609375">
        <ele>204.399993896484375</ele>
        <time>2026-08-05T09:03:23.000Z</time>
        <extensions>
          <ns3:TrackPointExtension>
            <ns3:hr>99</ns3:hr>
            <ns3:cad>46</ns3:cad>
          </ns3:TrackPointExtension>
        </extensions>
      </trkpt>
      <trkpt lat="43.48146594129502773284912109375" lon="1.4418380521237850189208984375">
        <ele>204.600006103515625</ele>
        <time>2026-08-05T09:03:24.000Z</time>
        <extensions>
          <ns3:TrackPointExtension>
            <ns3:hr>99</ns3:hr>
            <ns3:cad>46</ns3:cad>
          </ns3:TrackPointExtension>
        </extensions>
      </trkpt>
      <trkpt lat="43.48146208561956882476806640625" lon="1.44182841293513774871826171875">
        <ele>204.8000030517578125</ele>
        <time>2026-08-05T09:03:25.000Z</time>
        <extensions>
          <ns3:TrackPointExtension>
            <ns3:hr>100</ns3:hr>
            <ns3:cad>47</ns3:cad>
          </ns3:TrackPointExtension>
        </extensions>
      </trkpt>
      <trkpt lat="43.481456302106380462646484375" lon="1.44181936047971248626708984375">
        <ele>204.8000030517578125</ele>
        <time>2026-08-05T09:03:26.000Z</time>
        <extensions>
          <ns3:TrackPointExtension>
            <ns3:hr>100</ns3:hr>
            <ns3:cad>47</ns3:cad>
          </ns3:TrackPointExtension>
        </extensions>
      </trkpt>
      <trkpt lat="43.48144314251840114593505859375" lon="1.44181282259523868560791015625">
        <ele>205</ele>
        <time>2026-08-05T09:03:27.000Z</time>
        <extensions>
          <ns3:TrackPointExtension>
            <ns3:hr>100</ns3:hr>
            <ns3:cad>47</ns3:cad>
          </ns3:TrackPointExtension>
        </extensions>
      </trkpt>
      <trkpt lat="43.48143124021589756011962890625" lon="1.44181215204298496246337890625">
        <ele>205</ele>
        <time>2026-08-05T09:03:28.000Z</time>
        <extensions>
          <ns3:TrackPointExtension>
            <ns3:hr>101</ns3:hr>
            <ns3:cad>47</ns3:cad>
          </ns3:TrackPointExtension>
        </extensions>
      </trkpt>
      <trkpt lat="43.48142352886497974395751953125" lon="1.44180796109139919281005859375">
        <ele>205.1999969482421875</ele>
        <time>2026-08-05T09:03:29.000Z</time>
        <extensions>
          <ns3:TrackPointExtension>
            <ns3:hr>101</ns3:hr>
            <ns3:cad>47</ns3:cad>
          </ns3:TrackPointExtension>
        </extensions>
      </trkpt>
      <trkpt lat="43.4814195893704891204833984375" lon="1.44180511124432086944580078125">
        <ele>205.1999969482421875</ele>
        <time>2026-08-05T09:03:30.000Z</time>
        <extensions>
          <ns3:TrackPointExtension>
            <ns3:hr>101</ns3:hr>
            <ns3:cad>48</ns3:cad>
          </ns3:TrackPointExtension>
        </extensions>
      </trkpt>
      <trkpt lat="43.48140995018184185028076171875" lon="1.4417994953691959381103515625">
        <ele>205.399993896484375</ele>
        <time>2026-08-05T09:03:31.000Z</time>
        <extensions>
          <ns3:TrackPointExtension>
            <ns3:hr>101</ns3:hr>
            <ns3:cad>48</ns3:cad>
          </ns3:TrackPointExtension>
        </extensions>
      </trkpt>
      <trkpt lat="43.481397293508052825927734375" lon="1.4417959749698638916015625">
        <ele>205.399993896484375</ele>
        <time>2026-08-05T09:03:32.000Z</time>
        <extensions>
          <ns3:TrackPointExtension>
            <ns3:hr>102</ns3:hr>
            <ns3:cad>48</ns3:cad>
          </ns3:TrackPointExtension>
        </extensions>
      </trkpt>
      <trkpt lat="43.48138757050037384033203125" lon="1.4417914487421512603759765625">
        <ele>205.600006103515625</ele>
        <time>2026-08-05T09:03:33.000Z</time>
        <extensions>
          <ns3:TrackPointExtension>
            <ns3:hr>102</ns3:hr>
            <ns3:cad>48</ns3:cad>
          </ns3:TrackPointExtension>
        </extensions>
      </trkpt>
      <trkpt lat="43.4813790209591388702392578125" lon="1.44178499467670917510986328125">
        <ele>205.600006103515625</ele>
        <time>2026-08-05T09:03:34.000Z</time>
        <extensions>
          <ns3:TrackPointExtension>
            <ns3:hr>102</ns3:hr>
            <ns3:cad>48</ns3:cad>
          </ns3:TrackPointExtension>
        </extensions>
      </trkpt>
      <trkpt lat="43.48137189634144306182861328125" lon="1.4417807199060916900634765625">
        <ele>205.8000030517578125</ele>
        <time>2026-08-05T09:03:35.000Z</time>
        <extensions>
          <ns3:TrackPointExtension>
            <ns3:hr>102</ns3:hr>
            <ns3:cad>47</ns3:cad>
          </ns3:TrackPointExtension>
        </extensions>
      </trkpt>
      <trkpt lat="43.48135915584862232208251953125" lon="1.441774852573871612548828125">
        <ele>205.8000030517578125</ele>
        <time>2026-08-05T09:03:36.000Z</time>
        <extensions>
          <ns3:TrackPointExtension>
            <ns3:hr>101</ns3:hr>
            <ns3:cad>47</ns3:cad>
          </ns3:TrackPointExtension>
        </extensions>
      </trkpt>
      <trkpt lat="43.48134406842291355133056640625" lon="1.44177309237420558929443359375">
        <ele>206</ele>
        <time>2026-08-05T09:03:37.000Z</time>
        <extensions>
          <ns3:TrackPointExtension>
            <ns3:hr>102</ns3:hr>
            <ns3:cad>47</ns3:cad>
          </ns3:TrackPointExtension>
        </extensions>
      </trkpt>
      <trkpt lat="43.48133568651974201202392578125" lon="1.44176856614649295806884765625">
        <ele>206.1999969482421875</ele>
        <time>2026-08-05T09:03:38.000Z</time>
        <extensions>
          <ns3:TrackPointExtension>
            <ns3:hr>102</ns3:hr>
            <ns3:cad>47</ns3:cad>
          </ns3:TrackPointExtension>
        </extensions>
      </trkpt>
      <trkpt lat="43.48133099265396595001220703125" lon="1.4417666383087635040283203125">
        <ele>206.1999969482421875</ele>
        <time>2026-08-05T09:03:39.000Z</time>
        <extensions>
          <ns3:TrackPointExtension>
            <ns3:hr>102</ns3:hr>
            <ns3:cad>47</ns3:cad>
          </ns3:TrackPointExtension>
        </extensions>
      </trkpt>
      <trkpt lat="43.48132160492241382598876953125" lon="1.4417602680623531341552734375">
        <ele>206.399993896484375</ele>
        <time>2026-08-05T09:03:40.000Z</time>
        <extensions>
          <ns3:TrackPointExtension>
            <ns3:hr>102</ns3:hr>
            <ns3:cad>47</ns3:cad>
          </ns3:TrackPointExtension>
        </extensions>
      </trkpt>
      <trkpt lat="43.48130953498184680938720703125" lon="1.4417562447488307952880859375">
        <ele>206.600006103515625</ele>
        <time>2026-08-05T09:03:41.000Z</time>
        <extensions>
          <ns3:TrackPointExtension>
            <ns3:hr>102</ns3:hr>
            <ns3:cad>45</ns3:cad>
          </ns3:TrackPointExtension>
        </extensions>
      </trkpt>
      <trkpt lat="43.4813022427260875701904296875" lon="1.44175297580659389495849609375">
        <ele>206.600006103515625</ele>
        <time>2026-08-05T09:03:42.000Z</time>
        <extensions>
          <ns3:TrackPointExtension>
            <ns3:hr>102</ns3:hr>
            <ns3:cad>46</ns3:cad>
          </ns3:TrackPointExtension>
        </extensions>
      </trkpt>
      <trkpt lat="43.48129578866064548492431640625" lon="1.44174828194081783294677734375">
        <ele>206.8000030517578125</ele>
        <time>2026-08-05T09:03:43.000Z</time>
        <extensions>
          <ns3:TrackPointExtension>
            <ns3:hr>103</ns3:hr>
            <ns3:cad>46</ns3:cad>
          </ns3:TrackPointExtension>
        </extensions>
      </trkpt>
      <trkpt lat="43.481285981833934783935546875" lon="1.4417414925992488861083984375">
        <ele>207</ele>
        <time>2026-08-05T09:03:44.000Z</time>
        <extensions>
          <ns3:TrackPointExtension>
            <ns3:hr>103</ns3:hr>
            <ns3:cad>46</ns3:cad>
          </ns3:TrackPointExtension>
        </extensions>
      </trkpt>
      <trkpt lat="43.48127215169370174407958984375" lon="1.44173554144799709320068359375">
        <ele>207.1999969482421875</ele>
        <time>2026-08-05T09:03:45.000Z</time>
        <extensions>
          <ns3:TrackPointExtension>
            <ns3:hr>103</ns3:hr>
            <ns3:cad>47</ns3:cad>
          </ns3:TrackPointExtension>
        </extensions>
      </trkpt>
      <trkpt lat="43.48126058466732501983642578125" lon="1.44173537380993366241455078125">
        <ele>207.1999969482421875</ele>
        <time>2026-08-05T09:03:46.000Z</time>
        <extensions>
          <ns3:TrackPointExtension>
            <ns3:hr>103</ns3:hr>
            <ns3:cad>47</ns3:cad>
          </ns3:TrackPointExtension>
        </extensions>
      </trkpt>
      <trkpt lat="43.481250442564487457275390625" lon="1.4417307637631893157958984375">
        <ele>207.399993896484375</ele>
        <time>2026-08-05T09:03:47.000Z</time>
        <extensions>
          <ns3:TrackPointExtension>
            <ns3:hr>102</ns3:hr>
            <ns3:cad>47</ns3:cad>
          </ns3:TrackPointExtension>
        </extensions>
      </trkpt>
      <trkpt lat="43.48124398849904537200927734375" lon="1.44172690808773040771484375">
        <ele>207.600006103515625</ele>
        <time>2026-08-05T09:03:48.000Z</time>
        <extensions>
          <ns3:TrackPointExtension>
            <ns3:hr>102</ns3:hr>
            <ns3:cad>47</ns3:cad>
          </ns3:TrackPointExtension>
        </extensions>
      </trkpt>
      <trkpt lat="43.481235019862651824951171875" lon="1.4417200349271297454833984375">
        <ele>207.600006103515625</ele>
        <time>2026-08-05T09:03:49.000Z</time>
        <extensions>
          <ns3:TrackPointExtension>
            <ns3:hr>103</ns3:hr>
            <ns3:cad>47</ns3:cad>
          </ns3:TrackPointExtension>
        </extensions>
      </trkpt>
      <trkpt lat="43.48122051917016506195068359375" lon="1.44171140156686305999755859375">
        <ele>207.8000030517578125</ele>
        <time>2026-08-05T09:03:50.000Z</time>
        <extensions>
          <ns3:TrackPointExtension>
            <ns3:hr>102</ns3:hr>
            <ns3:cad>47</ns3:cad>
          </ns3:TrackPointExtension>
        </extensions>
      </trkpt>
      <trkpt lat="43.4812083654105663299560546875" lon="1.44170620478689670562744140625">
        <ele>207.8000030517578125</ele>
        <time>2026-08-05T09:03:51.000Z</time>
        <extensions>
          <ns3:TrackPointExtension>
            <ns3:hr>103</ns3:hr>
            <ns3:cad>47</ns3:cad>
          </ns3:TrackPointExtension>
        </extensions>
      </trkpt>
      <trkpt lat="43.48120073787868022918701171875" lon="1.4416995830833911895751953125">
        <ele>208</ele>
        <time>2026-08-05T09:03:52.000Z</time>
        <extensions>
          <ns3:TrackPointExtension>
            <ns3:hr>103</ns3:hr>
            <ns3:cad>48</ns3:cad>
          </ns3:TrackPointExtension>
        </extensions>
      </trkpt>
      <trkpt lat="43.481196127831935882568359375" lon="1.44169748760759830474853515625">
        <ele>208</ele>
        <time>2026-08-05T09:03:53.000Z</time>
        <extensions>
          <ns3:TrackPointExtension>
            <ns3:hr>104</ns3:hr>
            <ns3:cad>48</ns3:cad>
          </ns3:TrackPointExtension>
        </extensions>
      </trkpt>
      <trkpt lat="43.48118380643427371978759765625" lon="1.44169162027537822723388671875">
        <ele>208.1999969482421875</ele>
        <time>2026-08-05T09:03:54.000Z</time>
        <extensions>
          <ns3:TrackPointExtension>
            <ns3:hr>104</ns3:hr>
            <ns3:cad>49</ns3:cad>
          </ns3:TrackPointExtension>
        </extensions>
      </trkpt>
      <trkpt lat="43.48117089830338954925537109375" lon="1.4416878484189510345458984375">
        <ele>208.1999969482421875</ele>
        <time>2026-08-05T09:03:55.000Z</time>
        <extensions>
          <ns3:TrackPointExtension>
            <ns3:hr>104</ns3:hr>
            <ns3:cad>49</ns3:cad>
          </ns3:TrackPointExtension>
        </extensions>
      </trkpt>
      <trkpt lat="43.4811637736856937408447265625" lon="1.441681645810604095458984375">
        <ele>208.399993896484375</ele>
        <time>2026-08-05T09:03:56.000Z</time>
        <extensions>
          <ns3:TrackPointExtension>
            <ns3:hr>104</ns3:hr>
            <ns3:cad>46</ns3:cad>
          </ns3:TrackPointExtension>
        </extensions>
      </trkpt>
      <trkpt lat="43.481155224144458770751953125" lon="1.44167401827871799468994140625">
        <ele>208.600006103515625</ele>
        <time>2026-08-05T09:03:57.000Z</time>
        <extensions>
          <ns3:TrackPointExtension>
            <ns3:hr>104</ns3:hr>
            <ns3:cad>46</ns3:cad>
          </ns3:TrackPointExtension>
        </extensions>
      </trkpt>
      <trkpt lat="43.48114692606031894683837890625" lon="1.44166697748005390167236328125">
        <ele>208.600006103515625</ele>
        <time>2026-08-05T09:03:58.000Z</time>
        <extensions>
          <ns3:TrackPointExtension>
            <ns3:hr>104</ns3:hr>
            <ns3:cad>47</ns3:cad>
          </ns3:TrackPointExtension>
        </extensions>
      </trkpt>
      <trkpt lat="43.481134437024593353271484375" lon="1.4416586793959140777587890625">
        <ele>208.8000030517578125</ele>
        <time>2026-08-05T09:03:59.000Z</time>
        <extensions>
          <ns3:TrackPointExtension>
            <ns3:hr>103</ns3:hr>
            <ns3:cad>47</ns3:cad>
          </ns3:TrackPointExtension>
        </extensions>
      </trkpt>
      <trkpt lat="43.48112479783594608306884765625" lon="1.4416502974927425384521484375">
        <ele>209</ele>
        <time>2026-08-05T09:04:00.000Z</time>
        <extensions>
          <ns3:TrackPointExtension>
            <ns3:hr>103</ns3:hr>
            <ns3:cad>47</ns3:cad>
          </ns3:TrackPointExtension>
        </extensions>
      </trkpt>
      <trkpt lat="43.4811208583414554595947265625" lon="1.44164116121828556060791015625">
        <ele>209</ele>
        <time>2026-08-05T09:04:01.000Z</time>
        <extensions>
          <ns3:TrackPointExtension>
            <ns3:hr>103</ns3:hr>
            <ns3:cad>47</ns3:cad>
          </ns3:TrackPointExtension>
        </extensions>
      </trkpt>
      <trkpt lat="43.4811158291995525360107421875" lon="1.44163495860993862152099609375">
        <ele>209.1999969482421875</ele>
        <time>2026-08-05T09:04:02.000Z</time>
        <extensions>
          <ns3:TrackPointExtension>
            <ns3:hr>104</ns3:hr>
            <ns3:cad>47</ns3:cad>
          </ns3:TrackPointExtension>
        </extensions>
      </trkpt>
      <trkpt lat="43.48110619001090526580810546875" lon="1.44162657670676708221435546875">
        <ele>209.399993896484375</ele>
        <time>2026-08-05T09:04:03.000Z</time>
        <extensions>
          <ns3:TrackPointExtension>
            <ns3:hr>104</ns3:hr>
            <ns3:cad>47</ns3:cad>
          </ns3:TrackPointExtension>
        </extensions>
      </trkpt>
      <trkpt lat="43.48109378479421138763427734375" lon="1.44161500968039035797119140625">
        <ele>209.399993896484375</ele>
        <time>2026-08-05T09:04:04.000Z</time>
        <extensions>
          <ns3:TrackPointExtension>
            <ns3:hr>104</ns3:hr>
            <ns3:cad>47</ns3:cad>
          </ns3:TrackPointExtension>
        </extensions>
      </trkpt>
      <trkpt lat="43.48108540289103984832763671875" lon="1.44160377793014049530029296875">
        <ele>209.399993896484375</ele>
        <time>2026-08-05T09:04:05.000Z</time>
        <extensions>
          <ns3:TrackPointExtension>
            <ns3:hr>104</ns3:hr>
            <ns3:cad>47</ns3:cad>
          </ns3:TrackPointExtension>
        </extensions>
      </trkpt>
      <trkpt lat="43.48108003847301006317138671875" lon="1.4415939711034297943115234375">
        <ele>209.600006103515625</ele>
        <time>2026-08-05T09:04:06.000Z</time>
        <extensions>
          <ns3:TrackPointExtension>
            <ns3:hr>103</ns3:hr>
            <ns3:cad>47</ns3:cad>
          </ns3:TrackPointExtension>
        </extensions>
      </trkpt>
      <trkpt lat="43.481076098978519439697265625" lon="1.4415899477899074554443359375">
        <ele>209.600006103515625</ele>
        <time>2026-08-05T09:04:07.000Z</time>
        <extensions>
          <ns3:TrackPointExtension>
            <ns3:hr>104</ns3:hr>
            <ns3:cad>49</ns3:cad>
          </ns3:TrackPointExtension>
        </extensions>
      </trkpt>
      <trkpt lat="43.48106704652309417724609375" lon="1.441577039659023284912109375">
        <ele>209.8000030517578125</ele>
        <time>2026-08-05T09:04:08.000Z</time>
        <extensions>
          <ns3:TrackPointExtension>
            <ns3:hr>104</ns3:hr>
            <ns3:cad>49</ns3:cad>
          </ns3:TrackPointExtension>
        </extensions>
      </trkpt>
      <trkpt lat="43.4810583293437957763671875" lon="1.44156790338456630706787109375">
        <ele>209.8000030517578125</ele>
        <time>2026-08-05T09:04:09.000Z</time>
        <extensions>
          <ns3:TrackPointExtension>
            <ns3:hr>104</ns3:hr>
            <ns3:cad>48</ns3:cad>
          </ns3:TrackPointExtension>
        </extensions>
      </trkpt>
      <trkpt lat="43.48105103708803653717041015625" lon="1.441558934748172760009765625">
        <ele>210</ele>
        <time>2026-08-05T09:04:10.000Z</time>
        <extensions>
          <ns3:TrackPointExtension>
            <ns3:hr>104</ns3:hr>
            <ns3:cad>47</ns3:cad>
          </ns3:TrackPointExtension>
        </extensions>
      </trkpt>
      <trkpt lat="43.48104751668870449066162109375" lon="1.441550888121128082275390625">
        <ele>210</ele>
        <time>2026-08-05T09:04:11.000Z</time>
        <extensions>
          <ns3:TrackPointExtension>
            <ns3:hr>105</ns3:hr>
            <ns3:cad>47</ns3:cad>
          </ns3:TrackPointExtension>
        </extensions>
      </trkpt>
      <trkpt lat="43.48103947006165981292724609375" lon="1.4415438473224639892578125">
        <ele>210.1999969482421875</ele>
        <time>2026-08-05T09:04:12.000Z</time>
        <extensions>
          <ns3:TrackPointExtension>
            <ns3:hr>105</ns3:hr>
            <ns3:cad>48</ns3:cad>
          </ns3:TrackPointExtension>
        </extensions>
      </trkpt>
      <trkpt lat="43.481033183634281158447265625" lon="1.441529430449008941650390625">
        <ele>210.1999969482421875</ele>
        <time>2026-08-05T09:04:13.000Z</time>
        <extensions>
          <ns3:TrackPointExtension>
            <ns3:hr>106</ns3:hr>
            <ns3:cad>48</ns3:cad>
          </ns3:TrackPointExtension>
        </extensions>
      </trkpt>
      <trkpt lat="43.48102740012109279632568359375" lon="1.4415181986987590789794921875">
        <ele>210.1999969482421875</ele>
        <time>2026-08-05T09:04:14.000Z</time>
        <extensions>
          <ns3:TrackPointExtension>
            <ns3:hr>106</ns3:hr>
            <ns3:cad>48</ns3:cad>
          </ns3:TrackPointExtension>
        </extensions>
      </trkpt>
      <trkpt lat="43.481023125350475311279296875" lon="1.441507972776889801025390625">
        <ele>210.399993896484375</ele>
        <time>2026-08-05T09:04:15.000Z</time>
        <extensions>
          <ns3:TrackPointExtension>
            <ns3:hr>107</ns3:hr>
            <ns3:cad>47</ns3:cad>
          </ns3:TrackPointExtension>
        </extensions>
      </trkpt>
      <trkpt lat="43.481018431484699249267578125" lon="1.44149833358824253082275390625">
        <ele>210.600006103515625</ele>
        <time>2026-08-05T09:04:16.000Z</time>
        <extensions>
          <ns3:TrackPointExtension>
            <ns3:hr>107</ns3:hr>
            <ns3:cad>47</ns3:cad>
          </ns3:TrackPointExtension>
        </extensions>
      </trkpt>
      <trkpt lat="43.48101046867668628692626953125" lon="1.44148257561028003692626953125">
        <ele>210.600006103515625</ele>
        <time>2026-08-05T09:04:17.000Z</time>
        <extensions>
          <ns3:TrackPointExtension>
            <ns3:hr>107</ns3:hr>
            <ns3:cad>47</ns3:cad>
          </ns3:TrackPointExtension>
        </extensions>
      </trkpt>
      <trkpt lat="43.48100426606833934783935546875" lon="1.44146866165101528167724609375">
        <ele>210.8000030517578125</ele>
        <time>2026-08-05T09:04:18.000Z</time>
        <extensions>
          <ns3:TrackPointExtension>
            <ns3:hr>107</ns3:hr>
            <ns3:cad>47</ns3:cad>
          </ns3:TrackPointExtension>
        </extensions>
      </trkpt>
      <trkpt lat="43.4810041822493076324462890625" lon="1.44145374186336994171142578125">
        <ele>210.8000030517578125</ele>
        <time>2026-08-05T09:04:19.000Z</time>
        <extensions>
          <ns3:TrackPointExtension>
            <ns3:hr>107</ns3:hr>
            <ns3:cad>46</ns3:cad>
          </ns3:TrackPointExtension>
        </extensions>
      </trkpt>
      <trkpt lat="43.48100225441157817840576171875" lon="1.4414451085031032562255859375">
        <ele>211</ele>
        <time>2026-08-05T09:04:20.000Z</time>
        <extensions>
          <ns3:TrackPointExtension>
            <ns3:hr>108</ns3:hr>
            <ns3:cad>46</ns3:cad>
          </ns3:TrackPointExtension>
        </extensions>
      </trkpt>
      <trkpt lat="43.48099906928837299346923828125" lon="1.4414311945438385009765625">
        <ele>211</ele>
        <time>2026-08-05T09:04:21.000Z</time>
        <extensions>
          <ns3:TrackPointExtension>
            <ns3:hr>107</ns3:hr>
            <ns3:cad>46</ns3:cad>
          </ns3:TrackPointExtension>
        </extensions>
      </trkpt>
      <trkpt lat="43.4809981472790241241455078125" lon="1.4414124190807342529296875">
        <ele>211.1999969482421875</ele>
        <time>2026-08-05T09:04:22.000Z</time>
        <extensions>
          <ns3:TrackPointExtension>
            <ns3:hr>108</ns3:hr>
            <ns3:cad>45</ns3:cad>
          </ns3:TrackPointExtension>
        </extensions>
      </trkpt>
      <trkpt lat="43.4809937886893749237060546875" lon="1.4413941465318202972412109375">
        <ele>211.1999969482421875</ele>
        <time>2026-08-05T09:04:23.000Z</time>
        <extensions>
          <ns3:TrackPointExtension>
            <ns3:hr>107</ns3:hr>
            <ns3:cad>45</ns3:cad>
          </ns3:TrackPointExtension>
        </extensions>
      </trkpt>
      <trkpt lat="43.48099253140389919281005859375" lon="1.441382579505443572998046875">
        <ele>211.399993896484375</ele>
        <time>2026-08-05T09:04:24.000Z</time>
        <extensions>
          <ns3:TrackPointExtension>
            <ns3:hr>107</ns3:hr>
            <ns3:cad>45</ns3:cad>
          </ns3:TrackPointExtension>
        </extensions>
      </trkpt>
      <trkpt lat="43.48099102266132831573486328125" lon="1.4413710124790668487548828125">
        <ele>211.399993896484375</ele>
        <time>2026-08-05T09:04:25.000Z</time>
        <extensions>
          <ns3:TrackPointExtension>
            <ns3:hr>107</ns3:hr>
            <ns3:cad>45</ns3:cad>
          </ns3:TrackPointExtension>
        </extensions>
      </trkpt>
      <trkpt lat="43.48098733462393283843994140625" lon="1.44136237911880016326904296875">
        <ele>211.600006103515625</ele>
        <time>2026-08-05T09:04:26.000Z</time>
        <extensions>
          <ns3:TrackPointExtension>
            <ns3:hr>106</ns3:hr>
            <ns3:cad>45</ns3:cad>
          </ns3:TrackPointExtension>
        </extensions>
      </trkpt>
      <trkpt lat="43.48098456859588623046875" lon="1.44134745933115482330322265625">
        <ele>211.8000030517578125</ele>
        <time>2026-08-05T09:04:27.000Z</time>
        <extensions>
          <ns3:TrackPointExtension>
            <ns3:hr>106</ns3:hr>
            <ns3:cad>49</ns3:cad>
          </ns3:TrackPointExtension>
        </extensions>
      </trkpt>
      <trkpt lat="43.48098129965364933013916015625" lon="1.4413327910006046295166015625">
        <ele>212</ele>
        <time>2026-08-05T09:04:28.000Z</time>
        <extensions>
          <ns3:TrackPointExtension>
            <ns3:hr>106</ns3:hr>
            <ns3:cad>50</ns3:cad>
          </ns3:TrackPointExtension>
        </extensions>
      </trkpt>
      <trkpt lat="43.48097719252109527587890625" lon="1.44131694920361042022705078125">
        <ele>212</ele>
        <time>2026-08-05T09:04:29.000Z</time>
        <extensions>
          <ns3:TrackPointExtension>
            <ns3:hr>106</ns3:hr>
            <ns3:cad>50</ns3:cad>
          </ns3:TrackPointExtension>
        </extensions>
      </trkpt>
      <trkpt lat="43.4809753485023975372314453125" lon="1.44130102358758449554443359375">
        <ele>212.1999969482421875</ele>
        <time>2026-08-05T09:04:30.000Z</time>
        <extensions>
          <ns3:TrackPointExtension>
            <ns3:hr>107</ns3:hr>
            <ns3:cad>50</ns3:cad>
          </ns3:TrackPointExtension>
        </extensions>
      </trkpt>
      <trkpt lat="43.48097375594079494476318359375" lon="1.44128358922898769378662109375">
        <ele>212.1999969482421875</ele>
        <time>2026-08-05T09:04:31.000Z</time>
        <extensions>
          <ns3:TrackPointExtension>
            <ns3:hr>106</ns3:hr>
            <ns3:cad>47</ns3:cad>
          </ns3:TrackPointExtension>
        </extensions>
      </trkpt>
      <trkpt lat="43.48097325302660465240478515625" lon="1.4412650652229785919189453125">
        <ele>212.399993896484375</ele>
        <time>2026-08-05T09:04:32.000Z</time>
        <extensions>
          <ns3:TrackPointExtension>
            <ns3:hr>106</ns3:hr>
            <ns3:cad>47</ns3:cad>
          </ns3:TrackPointExtension>
        </extensions>
      </trkpt>
      <trkpt lat="43.48097124136984348297119140625" lon="1.4412429369986057281494140625">
        <ele>212.399993896484375</ele>
        <time>2026-08-05T09:04:33.000Z</time>
        <extensions>
          <ns3:TrackPointExtension>
            <ns3:hr>107</ns3:hr>
            <ns3:cad>48</ns3:cad>
          </ns3:TrackPointExtension>
        </extensions>
      </trkpt>
      <trkpt lat="43.480972163379192352294921875" lon="1.44123095087707042694091796875">
        <ele>212.600006103515625</ele>
        <time>2026-08-05T09:04:34.000Z</time>
        <extensions>
          <ns3:TrackPointExtension>
            <ns3:hr>107</ns3:hr>
            <ns3:cad>48</ns3:cad>
          </ns3:TrackPointExtension>
        </extensions>
      </trkpt>
      <trkpt lat="43.48097308538854122161865234375" lon="1.44122709520161151885986328125">
        <ele>212.8000030517578125</ele>
        <time>2026-08-05T09:04:35.000Z</time>
        <extensions>
          <ns3:TrackPointExtension>
            <ns3:hr>107</ns3:hr>
            <ns3:cad>49</ns3:cad>
          </ns3:TrackPointExtension>
        </extensions>
      </trkpt>
      <trkpt lat="43.48097425885498523712158203125" lon="1.44121686927974224090576171875">
        <ele>213</ele>
        <time>2026-08-05T09:04:36.000Z</time>
        <extensions>
          <ns3:TrackPointExtension>
            <ns3:hr>107</ns3:hr>
            <ns3:cad>49</ns3:cad>
          </ns3:TrackPointExtension>
        </extensions>
      </trkpt>
      <trkpt lat="43.4809753485023975372314453125" lon="1.4411956630647182464599609375">
        <ele>213</ele>
        <time>2026-08-05T09:04:37.000Z</time>
        <extensions>
          <ns3:TrackPointExtension>
            <ns3:hr>107</ns3:hr>
            <ns3:cad>48</ns3:cad>
          </ns3:TrackPointExtension>
        </extensions>
      </trkpt>
      <trkpt lat="43.480972833931446075439453125" lon="1.44117831252515316009521484375">
        <ele>213.1999969482421875</ele>
        <time>2026-08-05T09:04:38.000Z</time>
        <extensions>
          <ns3:TrackPointExtension>
            <ns3:hr>108</ns3:hr>
            <ns3:cad>48</ns3:cad>
          </ns3:TrackPointExtension>
        </extensions>
      </trkpt>
      <trkpt lat="43.48097124136984348297119140625" lon="1.44116456620395183563232421875">
        <ele>213.399993896484375</ele>
        <time>2026-08-05T09:04:39.000Z</time>
        <extensions>
          <ns3:TrackPointExtension>
            <ns3:hr>109</ns3:hr>
            <ns3:cad>48</ns3:cad>
          </ns3:TrackPointExtension>
        </extensions>
      </trkpt>
      <trkpt lat="43.4809716604650020599365234375" lon="1.4411522448062896728515625">
        <ele>213.600006103515625</ele>
        <time>2026-08-05T09:04:40.000Z</time>
        <extensions>
          <ns3:TrackPointExtension>
            <ns3:hr>110</ns3:hr>
            <ns3:cad>48</ns3:cad>
          </ns3:TrackPointExtension>
        </extensions>
      </trkpt>
      <trkpt lat="43.48097451031208038330078125" lon="1.44114017486572265625">
        <ele>213.8000030517578125</ele>
        <time>2026-08-05T09:04:41.000Z</time>
        <extensions>
          <ns3:TrackPointExtension>
            <ns3:hr>110</ns3:hr>
            <ns3:cad>47</ns3:cad>
          </ns3:TrackPointExtension>
        </extensions>
      </trkpt>
      <trkpt lat="43.4809756837785243988037109375" lon="1.441125757992267608642578125">
        <ele>214</ele>
        <time>2026-08-05T09:04:42.000Z</time>
        <extensions>
          <ns3:TrackPointExtension>
            <ns3:hr>109</ns3:hr>
            <ns3:cad>47</ns3:cad>
          </ns3:TrackPointExtension>
        </extensions>
      </trkpt>
      <trkpt lat="43.480976186692714691162109375" lon="1.441110670566558837890625">
        <ele>214</ele>
        <time>2026-08-05T09:04:43.000Z</time>
        <extensions>
          <ns3:TrackPointExtension>
            <ns3:hr>108</ns3:hr>
            <ns3:cad>50</ns3:cad>
          </ns3:TrackPointExtension>
        </extensions>
      </trkpt>
      <trkpt lat="43.48097928799688816070556640625" lon="1.4410997740924358367919921875">
        <ele>214.1999969482421875</ele>
        <time>2026-08-05T09:04:44.000Z</time>
        <extensions>
          <ns3:TrackPointExtension>
            <ns3:hr>108</ns3:hr>
            <ns3:cad>50</ns3:cad>
          </ns3:TrackPointExtension>
        </extensions>
      </trkpt>
      <trkpt lat="43.480982221662998199462890625" lon="1.44108845852315425872802734375">
        <ele>214.399993896484375</ele>
        <time>2026-08-05T09:04:45.000Z</time>
        <extensions>
          <ns3:TrackPointExtension>
            <ns3:hr>108</ns3:hr>
            <ns3:cad>48</ns3:cad>
          </ns3:TrackPointExtension>
        </extensions>
      </trkpt>
      <trkpt lat="43.48098389804363250732421875" lon="1.44107387401163578033447265625">
        <ele>214.600006103515625</ele>
        <time>2026-08-05T09:04:46.000Z</time>
        <extensions>
          <ns3:TrackPointExtension>
            <ns3:hr>109</ns3:hr>
            <ns3:cad>48</ns3:cad>
          </ns3:TrackPointExtension>
        </extensions>
      </trkpt>
      <trkpt lat="43.48098616115748882293701171875" lon="1.44105727784335613250732421875">
        <ele>214.8000030517578125</ele>
        <time>2026-08-05T09:04:47.000Z</time>
        <extensions>
          <ns3:TrackPointExtension>
            <ns3:hr>109</ns3:hr>
            <ns3:cad>48</ns3:cad>
          </ns3:TrackPointExtension>
        </extensions>
      </trkpt>
      <trkpt lat="43.48098968155682086944580078125" lon="1.4410434477031230926513671875">
        <ele>214.8000030517578125</ele>
        <time>2026-08-05T09:04:48.000Z</time>
        <extensions>
          <ns3:TrackPointExtension>
            <ns3:hr>109</ns3:hr>
            <ns3:cad>48</ns3:cad>
          </ns3:TrackPointExtension>
        </extensions>
      </trkpt>
      <trkpt lat="43.48099152557551860809326171875" lon="1.44103162921965122222900390625">
        <ele>215</ele>
        <time>2026-08-05T09:04:49.000Z</time>
        <extensions>
          <ns3:TrackPointExtension>
            <ns3:hr>108</ns3:hr>
            <ns3:cad>48</ns3:cad>
          </ns3:TrackPointExtension>
        </extensions>
      </trkpt>
      <trkpt lat="43.48099529743194580078125" lon="1.44102006219327449798583984375">
        <ele>215.1999969482421875</ele>
        <time>2026-08-05T09:04:50.000Z</time>
        <extensions>
          <ns3:TrackPointExtension>
            <ns3:hr>108</ns3:hr>
            <ns3:cad>48</ns3:cad>
          </ns3:TrackPointExtension>
        </extensions>
      </trkpt>
      <trkpt lat="43.48099856637418270111083984375" lon="1.44100815989077091217041015625">
        <ele>215.399993896484375</ele>
        <time>2026-08-05T09:04:51.000Z</time>
        <extensions>
          <ns3:TrackPointExtension>
            <ns3:hr>107</ns3:hr>
            <ns3:cad>48</ns3:cad>
          </ns3:TrackPointExtension>
        </extensions>
      </trkpt>
      <trkpt lat="43.4810031764209270477294921875" lon="1.440992988646030426025390625">
        <ele>215.600006103515625</ele>
        <time>2026-08-05T09:04:52.000Z</time>
        <extensions>
          <ns3:TrackPointExtension>
            <ns3:hr>107</ns3:hr>
            <ns3:cad>48</ns3:cad>
          </ns3:TrackPointExtension>
        </extensions>
      </trkpt>
      <trkpt lat="43.481007702648639678955078125" lon="1.44097899086773395538330078125">
        <ele>215.600006103515625</ele>
        <time>2026-08-05T09:04:53.000Z</time>
        <extensions>
          <ns3:TrackPointExtension>
            <ns3:hr>107</ns3:hr>
            <ns3:cad>48</ns3:cad>
          </ns3:TrackPointExtension>
        </extensions>
      </trkpt>
      <trkpt lat="43.48101315088570117950439453125" lon="1.440965831279754638671875">
        <ele>215.8000030517578125</ele>
        <time>2026-08-05T09:04:54.000Z</time>
        <extensions>
          <ns3:TrackPointExtension>
            <ns3:hr>107</ns3:hr>
            <ns3:cad>48</ns3:cad>
          </ns3:TrackPointExtension>
        </extensions>
      </trkpt>
      <trkpt lat="43.48102069459855556488037109375" lon="1.44095174968242645263671875">
        <ele>216</ele>
        <time>2026-08-05T09:04:55.000Z</time>
        <extensions>
          <ns3:TrackPointExtension>
            <ns3:hr>107</ns3:hr>
            <ns3:cad>48</ns3:cad>
          </ns3:TrackPointExtension>
        </extensions>
      </trkpt>
      <trkpt lat="43.4810249693691730499267578125" lon="1.44093842245638370513916015625">
        <ele>216.1999969482421875</ele>
        <time>2026-08-05T09:04:56.000Z</time>
        <extensions>
          <ns3:TrackPointExtension>
            <ns3:hr>106</ns3:hr>
            <ns3:cad>48</ns3:cad>
          </ns3:TrackPointExtension>
        </extensions>
      </trkpt>
      <trkpt lat="43.48102773539721965789794921875" lon="1.44092652015388011932373046875">
        <ele>216.399993896484375</ele>
        <time>2026-08-05T09:04:57.000Z</time>
        <extensions>
          <ns3:TrackPointExtension>
            <ns3:hr>106</ns3:hr>
            <ns3:cad>48</ns3:cad>
          </ns3:TrackPointExtension>
        </extensions>
      </trkpt>
      <trkpt lat="43.4810315072536468505859375" lon="1.440913192927837371826171875">
        <ele>216.600006103515625</ele>
        <time>2026-08-05T09:04:58.000Z</time>
        <extensions>
          <ns3:TrackPointExtension>
            <ns3:hr>106</ns3:hr>
            <ns3:cad>48</ns3:cad>
          </ns3:TrackPointExtension>
        </extensions>
      </trkpt>
      <trkpt lat="43.48103477619588375091552734375" lon="1.440902464091777801513671875">
        <ele>216.8000030517578125</ele>
        <time>2026-08-05T09:04:59.000Z</time>
        <extensions>
          <ns3:TrackPointExtension>
            <ns3:hr>107</ns3:hr>
            <ns3:cad>48</ns3:cad>
          </ns3:TrackPointExtension>
        </extensions>
      </trkpt>
      <trkpt lat="43.4810387156903743743896484375" lon="1.4408902265131473541259765625">
        <ele>217</ele>
        <time>2026-08-05T09:05:00.000Z</time>
        <extensions>
          <ns3:TrackPointExtension>
            <ns3:hr>107</ns3:hr>
            <ns3:cad>49</ns3:cad>
          </ns3:TrackPointExtension>
        </extensions>
      </trkpt>
      <trkpt lat="43.4810430742800235748291015625" lon="1.44087958149611949920654296875">
        <ele>217</ele>
        <time>2026-08-05T09:05:01.000Z</time>
        <extensions>
          <ns3:TrackPointExtension>
            <ns3:hr>107</ns3:hr>
            <ns3:cad>49</ns3:cad>
          </ns3:TrackPointExtension>
        </extensions>
      </trkpt>
      <trkpt lat="43.4810477681457996368408203125" lon="1.440866924822330474853515625">
        <ele>217.399993896484375</ele>
        <time>2026-08-05T09:05:02.000Z</time>
        <extensions>
          <ns3:TrackPointExtension>
            <ns3:hr>108</ns3:hr>
            <ns3:cad>49</ns3:cad>
          </ns3:TrackPointExtension>
        </extensions>
      </trkpt>
      <trkpt lat="43.4810511209070682525634765625" lon="1.44085091538727283477783203125">
        <ele>217.600006103515625</ele>
        <time>2026-08-05T09:05:03.000Z</time>
        <extensions>
          <ns3:TrackPointExtension>
            <ns3:hr>108</ns3:hr>
            <ns3:cad>49</ns3:cad>
          </ns3:TrackPointExtension>
        </extensions>
      </trkpt>
      <trkpt lat="43.48105355165898799896240234375" lon="1.4408372528851032257080078125">
        <ele>217.600006103515625</ele>
        <time>2026-08-05T09:05:04.000Z</time>
        <extensions>
          <ns3:TrackPointExtension>
            <ns3:hr>108</ns3:hr>
            <ns3:cad>49</ns3:cad>
          </ns3:TrackPointExtension>
        </extensions>
      </trkpt>
      <trkpt lat="43.48105690442025661468505859375" lon="1.440824009478092193603515625">
        <ele>217.8000030517578125</ele>
        <time>2026-08-05T09:05:05.000Z</time>
        <extensions>
          <ns3:TrackPointExtension>
            <ns3:hr>109</ns3:hr>
            <ns3:cad>48</ns3:cad>
          </ns3:TrackPointExtension>
        </extensions>
      </trkpt>
      <trkpt lat="43.48105992190539836883544921875" lon="1.44080783240497112274169921875">
        <ele>218</ele>
        <time>2026-08-05T09:05:06.000Z</time>
        <extensions>
          <ns3:TrackPointExtension>
            <ns3:hr>109</ns3:hr>
            <ns3:cad>48</ns3:cad>
          </ns3:TrackPointExtension>
        </extensions>
      </trkpt>
      <trkpt lat="43.48106377758085727691650390625" lon="1.44079484045505523681640625">
        <ele>218.1999969482421875</ele>
        <time>2026-08-05T09:05:07.000Z</time>
        <extensions>
          <ns3:TrackPointExtension>
            <ns3:hr>110</ns3:hr>
            <ns3:cad>48</ns3:cad>
          </ns3:TrackPointExtension>
        </extensions>
      </trkpt>
      <trkpt lat="43.48106713034212589263916015625" lon="1.440781764686107635498046875">
        <ele>218.1999969482421875</ele>
        <time>2026-08-05T09:05:08.000Z</time>
        <extensions>
          <ns3:TrackPointExtension>
            <ns3:hr>110</ns3:hr>
            <ns3:cad>48</ns3:cad>
          </ns3:TrackPointExtension>
        </extensions>
      </trkpt>
      <trkpt lat="43.48106998018920421600341796875" lon="1.44076692871749401092529296875">
        <ele>218.399993896484375</ele>
        <time>2026-08-05T09:05:09.000Z</time>
        <extensions>
          <ns3:TrackPointExtension>
            <ns3:hr>110</ns3:hr>
            <ns3:cad>48</ns3:cad>
          </ns3:TrackPointExtension>
        </extensions>
      </trkpt>
      <trkpt lat="43.4810735844075679779052734375" lon="1.440754942595958709716796875">
        <ele>218.600006103515625</ele>
        <time>2026-08-05T09:05:10.000Z</time>
        <extensions>
          <ns3:TrackPointExtension>
            <ns3:hr>110</ns3:hr>
            <ns3:cad>47</ns3:cad>
          </ns3:TrackPointExtension>
        </extensions>
      </trkpt>
      <trkpt lat="43.4810776077210903167724609375" lon="1.44074387848377227783203125">
        <ele>218.8000030517578125</ele>
        <time>2026-08-05T09:05:11.000Z</time>
        <extensions>
          <ns3:TrackPointExtension>
            <ns3:hr>111</ns3:hr>
            <ns3:cad>47</ns3:cad>
          </ns3:TrackPointExtension>
        </extensions>
      </trkpt>
      <trkpt lat="43.48108154721558094024658203125" lon="1.44073180854320526123046875">
        <ele>218.8000030517578125</ele>
        <time>2026-08-05T09:05:12.000Z</time>
        <extensions>
          <ns3:TrackPointExtension>
            <ns3:hr>111</ns3:hr>
            <ns3:cad>48</ns3:cad>
          </ns3:TrackPointExtension>
        </extensions>
      </trkpt>
      <trkpt lat="43.4810843132436275482177734375" lon="1.44071529619395732879638671875">
        <ele>219</ele>
        <time>2026-08-05T09:05:13.000Z</time>
        <extensions>
          <ns3:TrackPointExtension>
            <ns3:hr>111</ns3:hr>
            <ns3:cad>48</ns3:cad>
          </ns3:TrackPointExtension>
        </extensions>
      </trkpt>
      <trkpt lat="43.48108674399554729461669921875" lon="1.44069551490247249603271484375">
        <ele>219</ele>
        <time>2026-08-05T09:05:14.000Z</time>
        <extensions>
          <ns3:TrackPointExtension>
            <ns3:hr>111</ns3:hr>
            <ns3:cad>49</ns3:cad>
          </ns3:TrackPointExtension>
        </extensions>
      </trkpt>
      <trkpt lat="43.48109093494713306427001953125" lon="1.44067774526774883270263671875">
        <ele>219</ele>
        <time>2026-08-05T09:05:15.000Z</time>
        <extensions>
          <ns3:TrackPointExtension>
            <ns3:hr>111</ns3:hr>
            <ns3:cad>49</ns3:cad>
          </ns3:TrackPointExtension>
        </extensions>
      </trkpt>
      <trkpt lat="43.48109713755548000335693359375" lon="1.44066148437559604644775390625">
        <ele>219.1999969482421875</ele>
        <time>2026-08-05T09:05:16.000Z</time>
        <extensions>
          <ns3:TrackPointExtension>
            <ns3:hr>111</ns3:hr>
            <ns3:cad>48</ns3:cad>
          </ns3:TrackPointExtension>
        </extensions>
      </trkpt>
      <trkpt lat="43.48110099323093891143798828125" lon="1.44064706750214099884033203125">
        <ele>219.1999969482421875</ele>
        <time>2026-08-05T09:05:17.000Z</time>
        <extensions>
          <ns3:TrackPointExtension>
            <ns3:hr>112</ns3:hr>
            <ns3:cad>48</ns3:cad>
          </ns3:TrackPointExtension>
        </extensions>
      </trkpt>
      <trkpt lat="43.48110384307801723480224609375" lon="1.44063348881900310516357421875">
        <ele>219.399993896484375</ele>
        <time>2026-08-05T09:05:18.000Z</time>
        <extensions>
          <ns3:TrackPointExtension>
            <ns3:hr>111</ns3:hr>
            <ns3:cad>48</ns3:cad>
          </ns3:TrackPointExtension>
        </extensions>
      </trkpt>
      <trkpt lat="43.48110669292509555816650390625" lon="1.440618149936199188232421875">
        <ele>219.600006103515625</ele>
        <time>2026-08-05T09:05:19.000Z</time>
        <extensions>
          <ns3:TrackPointExtension>
            <ns3:hr>111</ns3:hr>
            <ns3:cad>48</ns3:cad>
          </ns3:TrackPointExtension>
        </extensions>
      </trkpt>
      <trkpt lat="43.4811097942292690277099609375" lon="1.4406018890440464019775390625">
        <ele>219.8000030517578125</ele>
        <time>2026-08-05T09:05:20.000Z</time>
        <extensions>
          <ns3:TrackPointExtension>
            <ns3:hr>111</ns3:hr>
            <ns3:cad>49</ns3:cad>
          </ns3:TrackPointExtension>
        </extensions>
      </trkpt>
      <trkpt lat="43.481113649904727935791015625" lon="1.440589316189289093017578125">
        <ele>219.8000030517578125</ele>
        <time>2026-08-05T09:05:21.000Z</time>
        <extensions>
          <ns3:TrackPointExtension>
            <ns3:hr>112</ns3:hr>
            <ns3:cad>48</ns3:cad>
          </ns3:TrackPointExtension>
        </extensions>
      </trkpt>
      <trkpt lat="43.48111775703728199005126953125" lon="1.44057582132518291473388671875">
        <ele>220</ele>
        <time>2026-08-05T09:05:22.000Z</time>
        <extensions>
          <ns3:TrackPointExtension>
            <ns3:hr>111</ns3:hr>
            <ns3:cad>48</ns3:cad>
          </ns3:TrackPointExtension>
        </extensions>
      </trkpt>
      <trkpt lat="43.4811218641698360443115234375" lon="1.4405640028417110443115234375">
        <ele>220.1999969482421875</ele>
        <time>2026-08-05T09:05:23.000Z</time>
        <extensions>
          <ns3:TrackPointExtension>
            <ns3:hr>111</ns3:hr>
            <ns3:cad>48</ns3:cad>
          </ns3:TrackPointExtension>
        </extensions>
      </trkpt>
      <trkpt lat="43.48112546838819980621337890625" lon="1.44055084325373172760009765625">
        <ele>220.1999969482421875</ele>
        <time>2026-08-05T09:05:24.000Z</time>
        <extensions>
          <ns3:TrackPointExtension>
            <ns3:hr>112</ns3:hr>
            <ns3:cad>48</ns3:cad>
          </ns3:TrackPointExtension>
        </extensions>
      </trkpt>
      <trkpt lat="43.481128402054309844970703125" lon="1.4405380189418792724609375">
        <ele>220.399993896484375</ele>
        <time>2026-08-05T09:05:25.000Z</time>
        <extensions>
          <ns3:TrackPointExtension>
            <ns3:hr>112</ns3:hr>
            <ns3:cad>48</ns3:cad>
          </ns3:TrackPointExtension>
        </extensions>
      </trkpt>
      <trkpt lat="43.48113007843494415283203125" lon="1.44052536226809024810791015625">
        <ele>220.600006103515625</ele>
        <time>2026-08-05T09:05:26.000Z</time>
        <extensions>
          <ns3:TrackPointExtension>
            <ns3:hr>112</ns3:hr>
            <ns3:cad>48</ns3:cad>
          </ns3:TrackPointExtension>
        </extensions>
      </trkpt>
      <trkpt lat="43.481133766472339630126953125" lon="1.44051253795623779296875">
        <ele>220.8000030517578125</ele>
        <time>2026-08-05T09:05:27.000Z</time>
        <extensions>
          <ns3:TrackPointExtension>
            <ns3:hr>112</ns3:hr>
            <ns3:cad>48</ns3:cad>
          </ns3:TrackPointExtension>
        </extensions>
      </trkpt>
      <trkpt lat="43.481137119233608245849609375" lon="1.44049971364438533782958984375">
        <ele>220.8000030517578125</ele>
        <time>2026-08-05T09:05:28.000Z</time>
        <extensions>
          <ns3:TrackPointExtension>
            <ns3:hr>112</ns3:hr>
            <ns3:cad>49</ns3:cad>
          </ns3:TrackPointExtension>
        </extensions>
      </trkpt>
      <trkpt lat="43.4811392985284328460693359375" lon="1.44048378802835941314697265625">
        <ele>221</ele>
        <time>2026-08-05T09:05:29.000Z</time>
        <extensions>
          <ns3:TrackPointExtension>
            <ns3:hr>111</ns3:hr>
            <ns3:cad>49</ns3:cad>
          </ns3:TrackPointExtension>
        </extensions>
      </trkpt>
      <trkpt lat="43.4811416454613208770751953125" lon="1.4404661022126674652099609375">
        <ele>221.1999969482421875</ele>
        <time>2026-08-05T09:05:30.000Z</time>
        <extensions>
          <ns3:TrackPointExtension>
            <ns3:hr>112</ns3:hr>
            <ns3:cad>48</ns3:cad>
          </ns3:TrackPointExtension>
        </extensions>
      </trkpt>
      <trkpt lat="43.481145165860652923583984375" lon="1.44045059569180011749267578125">
        <ele>221.1999969482421875</ele>
        <time>2026-08-05T09:05:31.000Z</time>
        <extensions>
          <ns3:TrackPointExtension>
            <ns3:hr>112</ns3:hr>
            <ns3:cad>48</ns3:cad>
          </ns3:TrackPointExtension>
        </extensions>
      </trkpt>
      <trkpt lat="43.4811486862599849700927734375" lon="1.4404362626373767852783203125">
        <ele>221.399993896484375</ele>
        <time>2026-08-05T09:05:32.000Z</time>
        <extensions>
          <ns3:TrackPointExtension>
            <ns3:hr>112</ns3:hr>
            <ns3:cad>48</ns3:cad>
          </ns3:TrackPointExtension>
        </extensions>
      </trkpt>
      <trkpt lat="43.481151871383190155029296875" lon="1.440423019230365753173828125">
        <ele>221.399993896484375</ele>
        <time>2026-08-05T09:05:33.000Z</time>
        <extensions>
          <ns3:TrackPointExtension>
            <ns3:hr>112</ns3:hr>
            <ns3:cad>48</ns3:cad>
          </ns3:TrackPointExtension>
        </extensions>
      </trkpt>
      <trkpt lat="43.48115480504930019378662109375" lon="1.44040457904338836669921875">
        <ele>221.600006103515625</ele>
        <time>2026-08-05T09:05:34.000Z</time>
        <extensions>
          <ns3:TrackPointExtension>
            <ns3:hr>112</ns3:hr>
            <ns3:cad>48</ns3:cad>
          </ns3:TrackPointExtension>
        </extensions>
      </trkpt>
      <trkpt lat="43.4811575710773468017578125" lon="1.440385468304157257080078125">
        <ele>221.600006103515625</ele>
        <time>2026-08-05T09:05:35.000Z</time>
        <extensions>
          <ns3:TrackPointExtension>
            <ns3:hr>111</ns3:hr>
            <ns3:cad>48</ns3:cad>
          </ns3:TrackPointExtension>
        </extensions>
      </trkpt>
      <trkpt lat="43.48115966655313968658447265625" lon="1.44036929123103618621826171875">
        <ele>221.8000030517578125</ele>
        <time>2026-08-05T09:05:36.000Z</time>
        <extensions>
          <ns3:TrackPointExtension>
            <ns3:hr>111</ns3:hr>
            <ns3:cad>48</ns3:cad>
          </ns3:TrackPointExtension>
        </extensions>
      </trkpt>
      <trkpt lat="43.48116285167634487152099609375" lon="1.44035219214856624603271484375">
        <ele>221.8000030517578125</ele>
        <time>2026-08-05T09:05:37.000Z</time>
        <extensions>
          <ns3:TrackPointExtension>
            <ns3:hr>111</ns3:hr>
            <ns3:cad>48</ns3:cad>
          </ns3:TrackPointExtension>
        </extensions>
      </trkpt>
      <trkpt lat="43.4811651147902011871337890625" lon="1.44033676944673061370849609375">
        <ele>222</ele>
        <time>2026-08-05T09:05:38.000Z</time>
        <extensions>
          <ns3:TrackPointExtension>
            <ns3:hr>111</ns3:hr>
            <ns3:cad>48</ns3:cad>
          </ns3:TrackPointExtension>
        </extensions>
      </trkpt>
      <trkpt lat="43.48116670735180377960205078125" lon="1.44032386131584644317626953125">
        <ele>222.1999969482421875</ele>
        <time>2026-08-05T09:05:39.000Z</time>
        <extensions>
          <ns3:TrackPointExtension>
            <ns3:hr>111</ns3:hr>
            <ns3:cad>48</ns3:cad>
          </ns3:TrackPointExtension>
        </extensions>
      </trkpt>
      <trkpt lat="43.4811684675514698028564453125" lon="1.44030927680432796478271484375">
        <ele>222.1999969482421875</ele>
        <time>2026-08-05T09:05:40.000Z</time>
        <extensions>
          <ns3:TrackPointExtension>
            <ns3:hr>111</ns3:hr>
            <ns3:cad>48</ns3:cad>
          </ns3:TrackPointExtension>
        </extensions>
      </trkpt>
      <trkpt lat="43.4811688028275966644287109375" lon="1.440294273197650909423828125">
        <ele>222.399993896484375</ele>
        <time>2026-08-05T09:05:41.000Z</time>
        <extensions>
          <ns3:TrackPointExtension>
            <ns3:hr>112</ns3:hr>
            <ns3:cad>48</ns3:cad>
          </ns3:TrackPointExtension>
        </extensions>
      </trkpt>
      <trkpt lat="43.4811704792082309722900390625" lon="1.4402800239622592926025390625">
        <ele>222.600006103515625</ele>
        <time>2026-08-05T09:05:42.000Z</time>
        <extensions>
          <ns3:TrackPointExtension>
            <ns3:hr>111</ns3:hr>
            <ns3:cad>49</ns3:cad>
          </ns3:TrackPointExtension>
        </extensions>
      </trkpt>
      <trkpt lat="43.4811718203127384185791015625" lon="1.44026552326977252960205078125">
        <ele>222.600006103515625</ele>
        <time>2026-08-05T09:05:43.000Z</time>
        <extensions>
          <ns3:TrackPointExtension>
            <ns3:hr>111</ns3:hr>
            <ns3:cad>49</ns3:cad>
          </ns3:TrackPointExtension>
        </extensions>
      </trkpt>
      <trkpt lat="43.48117341287434101104736328125" lon="1.440252028405666351318359375">
        <ele>222.8000030517578125</ele>
        <time>2026-08-05T09:05:44.000Z</time>
        <extensions>
          <ns3:TrackPointExtension>
            <ns3:hr>111</ns3:hr>
            <ns3:cad>49</ns3:cad>
          </ns3:TrackPointExtension>
        </extensions>
      </trkpt>
      <trkpt lat="43.481173999607563018798828125" lon="1.4402347616851329803466796875">
        <ele>223</ele>
        <time>2026-08-05T09:05:45.000Z</time>
        <extensions>
          <ns3:TrackPointExtension>
            <ns3:hr>112</ns3:hr>
            <ns3:cad>49</ns3:cad>
          </ns3:TrackPointExtension>
        </extensions>
      </trkpt>
      <trkpt lat="43.48117575980722904205322265625" lon="1.4402156509459018707275390625">
        <ele>223</ele>
        <time>2026-08-05T09:05:46.000Z</time>
        <extensions>
          <ns3:TrackPointExtension>
            <ns3:hr>112</ns3:hr>
            <ns3:cad>49</ns3:cad>
          </ns3:TrackPointExtension>
        </extensions>
      </trkpt>
      <trkpt lat="43.4811768494546413421630859375" lon="1.44019880332052707672119140625">
        <ele>223</ele>
        <time>2026-08-05T09:05:47.000Z</time>
        <extensions>
          <ns3:TrackPointExtension>
            <ns3:hr>113</ns3:hr>
            <ns3:cad>48</ns3:cad>
          </ns3:TrackPointExtension>
        </extensions>
      </trkpt>
      <trkpt lat="43.48117911256849765777587890625" lon="1.44018463790416717529296875">
        <ele>223.1999969482421875</ele>
        <time>2026-08-05T09:05:48.000Z</time>
        <extensions>
          <ns3:TrackPointExtension>
            <ns3:hr>113</ns3:hr>
            <ns3:cad>48</ns3:cad>
          </ns3:TrackPointExtension>
        </extensions>
      </trkpt>
      <trkpt lat="43.4811828844249248504638671875" lon="1.44016812555491924285888671875">
        <ele>223.1999969482421875</ele>
        <time>2026-08-05T09:05:49.000Z</time>
        <extensions>
          <ns3:TrackPointExtension>
            <ns3:hr>114</ns3:hr>
            <ns3:cad>49</ns3:cad>
          </ns3:TrackPointExtension>
        </extensions>
      </trkpt>
      <trkpt lat="43.4811843931674957275390625" lon="1.440155804157257080078125">
        <ele>223.399993896484375</ele>
        <time>2026-08-05T09:05:50.000Z</time>
        <extensions>
          <ns3:TrackPointExtension>
            <ns3:hr>114</ns3:hr>
            <ns3:cad>49</ns3:cad>
          </ns3:TrackPointExtension>
        </extensions>
      </trkpt>
      <trkpt lat="43.48118497990071773529052734375" lon="1.44014314748346805572509765625">
        <ele>223.399993896484375</ele>
        <time>2026-08-05T09:05:51.000Z</time>
        <extensions>
          <ns3:TrackPointExtension>
            <ns3:hr>114</ns3:hr>
            <ns3:cad>50</ns3:cad>
          </ns3:TrackPointExtension>
        </extensions>
      </trkpt>
      <trkpt lat="43.48118715919554233551025390625" lon="1.4401241205632686614990234375">
        <ele>223.399993896484375</ele>
        <time>2026-08-05T09:05:52.000Z</time>
        <extensions>
          <ns3:TrackPointExtension>
            <ns3:hr>114</ns3:hr>
            <ns3:cad>50</ns3:cad>
          </ns3:TrackPointExtension>
        </extensions>
      </trkpt>
      <trkpt lat="43.48118665628135204315185546875" lon="1.44011179916560649871826171875">
        <ele>223.600006103515625</ele>
        <time>2026-08-05T09:05:53.000Z</time>
        <extensions>
          <ns3:TrackPointExtension>
            <ns3:hr>114</ns3:hr>
            <ns3:cad>49</ns3:cad>
          </ns3:TrackPointExtension>
        </extensions>
      </trkpt>
      <trkpt lat="43.48118766210973262786865234375" lon="1.4401009865105152130126953125">
        <ele>223.600006103515625</ele>
        <time>2026-08-05T09:05:54.000Z</time>
        <extensions>
          <ns3:TrackPointExtension>
            <ns3:hr>114</ns3:hr>
            <ns3:cad>49</ns3:cad>
          </ns3:TrackPointExtension>
        </extensions>
      </trkpt>
      <trkpt lat="43.481188751757144927978515625" lon="1.440088413655757904052734375">
        <ele>223.8000030517578125</ele>
        <time>2026-08-05T09:05:55.000Z</time>
        <extensions>
          <ns3:TrackPointExtension>
            <ns3:hr>114</ns3:hr>
            <ns3:cad>49</ns3:cad>
          </ns3:TrackPointExtension>
        </extensions>
      </trkpt>
      <trkpt lat="43.48118766210973262786865234375" lon="1.4400651119649410247802734375">
        <ele>224</ele>
        <time>2026-08-05T09:05:56.000Z</time>
        <extensions>
          <ns3:TrackPointExtension>
            <ns3:hr>114</ns3:hr>
            <ns3:cad>49</ns3:cad>
          </ns3:TrackPointExtension>
        </extensions>
      </trkpt>
      <trkpt lat="43.48118682391941547393798828125" lon="1.44004516303539276123046875">
        <ele>224.1999969482421875</ele>
        <time>2026-08-05T09:05:57.000Z</time>
        <extensions>
          <ns3:TrackPointExtension>
            <ns3:hr>114</ns3:hr>
            <ns3:cad>49</ns3:cad>
          </ns3:TrackPointExtension>
        </extensions>
      </trkpt>
      <trkpt lat="43.48118833266198635101318359375" lon="1.44002714194357395172119140625">
        <ele>224.1999969482421875</ele>
        <time>2026-08-05T09:05:58.000Z</time>
        <extensions>
          <ns3:TrackPointExtension>
            <ns3:hr>114</ns3:hr>
            <ns3:cad>48</ns3:cad>
          </ns3:TrackPointExtension>
        </extensions>
      </trkpt>
      <trkpt lat="43.48118933849036693572998046875" lon="1.44001565873622894287109375">
        <ele>224.399993896484375</ele>
        <time>2026-08-05T09:05:59.000Z</time>
        <extensions>
          <ns3:TrackPointExtension>
            <ns3:hr>114</ns3:hr>
            <ns3:cad>48</ns3:cad>
          </ns3:TrackPointExtension>
        </extensions>
      </trkpt>
      <trkpt lat="43.481190092861652374267578125" lon="1.4400040917098522186279296875">
        <ele>224.399993896484375</ele>
        <time>2026-08-05T09:06:00.000Z</time>
        <extensions>
          <ns3:TrackPointExtension>
            <ns3:hr>114</ns3:hr>
            <ns3:cad>48</ns3:cad>
          </ns3:TrackPointExtension>
        </extensions>
      </trkpt>
      <trkpt lat="43.48119151778519153594970703125" lon="1.43998590297996997833251953125">
        <ele>224.600006103515625</ele>
        <time>2026-08-05T09:06:01.000Z</time>
        <extensions>
          <ns3:TrackPointExtension>
            <ns3:hr>113</ns3:hr>
            <ns3:cad>48</ns3:cad>
          </ns3:TrackPointExtension>
        </extensions>
      </trkpt>
      <trkpt lat="43.48119101487100124359130859375" lon="1.43996729515492916107177734375">
        <ele>224.8000030517578125</ele>
        <time>2026-08-05T09:06:02.000Z</time>
        <extensions>
          <ns3:TrackPointExtension>
            <ns3:hr>113</ns3:hr>
            <ns3:cad>48</ns3:cad>
          </ns3:TrackPointExtension>
        </extensions>
      </trkpt>
      <trkpt lat="43.48119352944195270538330078125" lon="1.4399514533579349517822265625">
        <ele>225</ele>
        <time>2026-08-05T09:06:03.000Z</time>
        <extensions>
          <ns3:TrackPointExtension>
            <ns3:hr>112</ns3:hr>
            <ns3:cad>48</ns3:cad>
          </ns3:TrackPointExtension>
        </extensions>
      </trkpt>
      <trkpt lat="43.48119487054646015167236328125" lon="1.4399383775889873504638671875">
        <ele>225</ele>
        <time>2026-08-05T09:06:04.000Z</time>
        <extensions>
          <ns3:TrackPointExtension>
            <ns3:hr>111</ns3:hr>
            <ns3:cad>48</ns3:cad>
          </ns3:TrackPointExtension>
        </extensions>
      </trkpt>
      <trkpt lat="43.48119520582258701324462890625" lon="1.43993075005710124969482421875">
        <ele>225.1999969482421875</ele>
        <time>2026-08-05T09:06:05.000Z</time>
        <extensions>
          <ns3:TrackPointExtension>
            <ns3:hr>109</ns3:hr>
            <ns3:cad>48</ns3:cad>
          </ns3:TrackPointExtension>
        </extensions>
      </trkpt>
      <trkpt lat="43.48119487054646015167236328125" lon="1.439917087554931640625">
        <ele>225.1999969482421875</ele>
        <time>2026-08-05T09:06:06.000Z</time>
        <extensions>
          <ns3:TrackPointExtension>
            <ns3:hr>109</ns3:hr>
            <ns3:cad>48</ns3:cad>
          </ns3:TrackPointExtension>
        </extensions>
      </trkpt>
      <trkpt lat="43.4811959601938724517822265625" lon="1.43990191631019115447998046875">
        <ele>225.1999969482421875</ele>
        <time>2026-08-05T09:06:07.000Z</time>
        <extensions>
          <ns3:TrackPointExtension>
            <ns3:hr>109</ns3:hr>
            <ns3:cad>48</ns3:cad>
          </ns3:TrackPointExtension>
        </extensions>
      </trkpt>
      <trkpt lat="43.48119939677417278289794921875" lon="1.43988783471286296844482421875">
        <ele>225.399993896484375</ele>
        <time>2026-08-05T09:06:08.000Z</time>
        <extensions>
          <ns3:TrackPointExtension>
            <ns3:hr>109</ns3:hr>
            <ns3:cad>48</ns3:cad>
          </ns3:TrackPointExtension>
        </extensions>
      </trkpt>
      <trkpt lat="43.4812016598880290985107421875" lon="1.439871490001678466796875">
        <ele>225.399993896484375</ele>
        <time>2026-08-05T09:06:09.000Z</time>
        <extensions>
          <ns3:TrackPointExtension>
            <ns3:hr>110</ns3:hr>
            <ns3:cad>48</ns3:cad>
          </ns3:TrackPointExtension>
        </extensions>
      </trkpt>
      <trkpt lat="43.48120409063994884490966796875" lon="1.43985967151820659637451171875">
        <ele>225.399993896484375</ele>
        <time>2026-08-05T09:06:10.000Z</time>
        <extensions>
          <ns3:TrackPointExtension>
            <ns3:hr>111</ns3:hr>
            <ns3:cad>48</ns3:cad>
          </ns3:TrackPointExtension>
        </extensions>
      </trkpt>
      <trkpt lat="43.48120526410639286041259765625" lon="1.4398428238928318023681640625">
        <ele>225.600006103515625</ele>
        <time>2026-08-05T09:06:11.000Z</time>
        <extensions>
          <ns3:TrackPointExtension>
            <ns3:hr>111</ns3:hr>
            <ns3:cad>48</ns3:cad>
          </ns3:TrackPointExtension>
        </extensions>
      </trkpt>
      <trkpt lat="43.48120643757283687591552734375" lon="1.4398250542581081390380859375">
        <ele>225.8000030517578125</ele>
        <time>2026-08-05T09:06:12.000Z</time>
        <extensions>
          <ns3:TrackPointExtension>
            <ns3:hr>111</ns3:hr>
            <ns3:cad>48</ns3:cad>
          </ns3:TrackPointExtension>
        </extensions>
      </trkpt>
      <trkpt lat="43.48120878450572490692138671875" lon="1.43981222994625568389892578125">
        <ele>225.8000030517578125</ele>
        <time>2026-08-05T09:06:13.000Z</time>
        <extensions>
          <ns3:TrackPointExtension>
            <ns3:hr>111</ns3:hr>
            <ns3:cad>48</ns3:cad>
          </ns3:TrackPointExtension>
        </extensions>
      </trkpt>
      <trkpt lat="43.48120928741991519927978515625" lon="1.43980233930051326751708984375">
        <ele>226</ele>
        <time>2026-08-05T09:06:14.000Z</time>
        <extensions>
          <ns3:TrackPointExtension>
            <ns3:hr>110</ns3:hr>
            <ns3:cad>48</ns3:cad>
          </ns3:TrackPointExtension>
        </extensions>
      </trkpt>
      <trkpt lat="43.4812093712389469146728515625" lon="1.43979437649250030517578125">
        <ele>226.1999969482421875</ele>
        <time>2026-08-05T09:06:15.000Z</time>
        <extensions>
          <ns3:TrackPointExtension>
            <ns3:hr>110</ns3:hr>
            <ns3:cad>48</ns3:cad>
          </ns3:TrackPointExtension>
        </extensions>
      </trkpt>
      <trkpt lat="43.481208868324756622314453125" lon="1.43977903760969638824462890625">
        <ele>226.1999969482421875</ele>
        <time>2026-08-05T09:06:16.000Z</time>
        <extensions>
          <ns3:TrackPointExtension>
            <ns3:hr>110</ns3:hr>
            <ns3:cad>48</ns3:cad>
          </ns3:TrackPointExtension>
        </extensions>
      </trkpt>
      <trkpt lat="43.4812090359628200531005859375" lon="1.4397603459656238555908203125">
        <ele>226.399993896484375</ele>
        <time>2026-08-05T09:06:17.000Z</time>
        <extensions>
          <ns3:TrackPointExtension>
            <ns3:hr>109</ns3:hr>
            <ns3:cad>48</ns3:cad>
          </ns3:TrackPointExtension>
        </extensions>
      </trkpt>
      <trkpt lat="43.48120895214378833770751953125" lon="1.43974073231220245361328125">
        <ele>226.600006103515625</ele>
        <time>2026-08-05T09:06:18.000Z</time>
        <extensions>
          <ns3:TrackPointExtension>
            <ns3:hr>109</ns3:hr>
            <ns3:cad>48</ns3:cad>
          </ns3:TrackPointExtension>
        </extensions>
      </trkpt>
      <trkpt lat="43.48121188580989837646484375" lon="1.43972388468682765960693359375">
        <ele>226.600006103515625</ele>
        <time>2026-08-05T09:06:19.000Z</time>
        <extensions>
          <ns3:TrackPointExtension>
            <ns3:hr>109</ns3:hr>
            <ns3:cad>48</ns3:cad>
          </ns3:TrackPointExtension>
        </extensions>
      </trkpt>
      <trkpt lat="43.48121280781924724578857421875" lon="1.43971131183207035064697265625">
        <ele>226.600006103515625</ele>
        <time>2026-08-05T09:06:20.000Z</time>
        <extensions>
          <ns3:TrackPointExtension>
            <ns3:hr>110</ns3:hr>
            <ns3:cad>48</ns3:cad>
          </ns3:TrackPointExtension>
        </extensions>
      </trkpt>
      <trkpt lat="43.48121297545731067657470703125" lon="1.43970242701470851898193359375">
        <ele>226.8000030517578125</ele>
        <time>2026-08-05T09:06:21.000Z</time>
        <extensions>
          <ns3:TrackPointExtension>
            <ns3:hr>109</ns3:hr>
            <ns3:cad>49</ns3:cad>
          </ns3:TrackPointExtension>
        </extensions>
      </trkpt>
      <trkpt lat="43.4812137298285961151123046875" lon="1.43968683667480945587158203125">
        <ele>226.8000030517578125</ele>
        <time>2026-08-05T09:06:22.000Z</time>
        <extensions>
          <ns3:TrackPointExtension>
            <ns3:hr>109</ns3:hr>
            <ns3:cad>49</ns3:cad>
          </ns3:TrackPointExtension>
        </extensions>
      </trkpt>
      <trkpt lat="43.48121590912342071533203125" lon="1.4396637864410877227783203125">
        <ele>227</ele>
        <time>2026-08-05T09:06:23.000Z</time>
        <extensions>
          <ns3:TrackPointExtension>
            <ns3:hr>110</ns3:hr>
            <ns3:cad>49</ns3:cad>
          </ns3:TrackPointExtension>
        </extensions>
      </trkpt>
      <trkpt lat="43.48121549002826213836669921875" lon="1.43964551389217376708984375">
        <ele>227</ele>
        <time>2026-08-05T09:06:24.000Z</time>
        <extensions>
          <ns3:TrackPointExtension>
            <ns3:hr>110</ns3:hr>
            <ns3:cad>48</ns3:cad>
          </ns3:TrackPointExtension>
        </extensions>
      </trkpt>
      <trkpt lat="43.48121699877083301544189453125" lon="1.4396302588284015655517578125">
        <ele>227.1999969482421875</ele>
        <time>2026-08-05T09:06:25.000Z</time>
        <extensions>
          <ns3:TrackPointExtension>
            <ns3:hr>110</ns3:hr>
            <ns3:cad>48</ns3:cad>
          </ns3:TrackPointExtension>
        </extensions>
      </trkpt>
      <trkpt lat="43.4812190942466259002685546875" lon="1.43962112255394458770751953125">
        <ele>227.399993896484375</ele>
        <time>2026-08-05T09:06:26.000Z</time>
        <extensions>
          <ns3:TrackPointExtension>
            <ns3:hr>109</ns3:hr>
            <ns3:cad>49</ns3:cad>
          </ns3:TrackPointExtension>
        </extensions>
      </trkpt>
      <trkpt lat="43.48121666349470615386962890625" lon="1.43960469402372837066650390625">
        <ele>227.399993896484375</ele>
        <time>2026-08-05T09:06:27.000Z</time>
        <extensions>
          <ns3:TrackPointExtension>
            <ns3:hr>109</ns3:hr>
            <ns3:cad>49</ns3:cad>
          </ns3:TrackPointExtension>
        </extensions>
      </trkpt>
      <trkpt lat="43.48121867515146732330322265625" lon="1.4395829848945140838623046875">
        <ele>227.600006103515625</ele>
        <time>2026-08-05T09:06:28.000Z</time>
        <extensions>
          <ns3:TrackPointExtension>
            <ns3:hr>109</ns3:hr>
            <ns3:cad>49</ns3:cad>
          </ns3:TrackPointExtension>
        </extensions>
      </trkpt>
      <trkpt lat="43.48121884278953075408935546875" lon="1.43956370651721954345703125">
        <ele>227.600006103515625</ele>
        <time>2026-08-05T09:06:29.000Z</time>
        <extensions>
          <ns3:TrackPointExtension>
            <ns3:hr>108</ns3:hr>
            <ns3:cad>49</ns3:cad>
          </ns3:TrackPointExtension>
        </extensions>
      </trkpt>
      <trkpt lat="43.48121901042759418487548828125" lon="1.43954618833959102630615234375">
        <ele>227.8000030517578125</ele>
        <time>2026-08-05T09:06:30.000Z</time>
        <extensions>
          <ns3:TrackPointExtension>
            <ns3:hr>108</ns3:hr>
            <ns3:cad>49</ns3:cad>
          </ns3:TrackPointExtension>
        </extensions>
      </trkpt>
      <trkpt lat="43.48122118972241878509521484375" lon="1.43953110091388225555419921875">
        <ele>227.8000030517578125</ele>
        <time>2026-08-05T09:06:31.000Z</time>
        <extensions>
          <ns3:TrackPointExtension>
            <ns3:hr>107</ns3:hr>
            <ns3:cad>49</ns3:cad>
          </ns3:TrackPointExtension>
        </extensions>
      </trkpt>
      <trkpt lat="43.48122454248368740081787109375" lon="1.439518444240093231201171875">
        <ele>227.8000030517578125</ele>
        <time>2026-08-05T09:06:32.000Z</time>
        <extensions>
          <ns3:TrackPointExtension>
            <ns3:hr>108</ns3:hr>
            <ns3:cad>49</ns3:cad>
          </ns3:TrackPointExtension>
        </extensions>
      </trkpt>
      <trkpt lat="43.48122538067400455474853515625" lon="1.43950578756630420684814453125">
        <ele>228</ele>
        <time>2026-08-05T09:06:33.000Z</time>
        <extensions>
          <ns3:TrackPointExtension>
            <ns3:hr>108</ns3:hr>
            <ns3:cad>49</ns3:cad>
          </ns3:TrackPointExtension>
        </extensions>
      </trkpt>
      <trkpt lat="43.481224961578845977783203125" lon="1.43948785029351711273193359375">
        <ele>228</ele>
        <time>2026-08-05T09:06:34.000Z</time>
        <extensions>
          <ns3:TrackPointExtension>
            <ns3:hr>108</ns3:hr>
            <ns3:cad>50</ns3:cad>
          </ns3:TrackPointExtension>
        </extensions>
      </trkpt>
      <trkpt lat="43.48122152499854564666748046875" lon="1.43947376869618892669677734375">
        <ele>228.1999969482421875</ele>
        <time>2026-08-05T09:06:35.000Z</time>
        <extensions>
          <ns3:TrackPointExtension>
            <ns3:hr>108</ns3:hr>
            <ns3:cad>50</ns3:cad>
          </ns3:TrackPointExtension>
        </extensions>
      </trkpt>
      <trkpt lat="43.48122152499854564666748046875" lon="1.43946052528917789459228515625">
        <ele>228.399993896484375</ele>
        <time>2026-08-05T09:06:36.000Z</time>
        <extensions>
          <ns3:TrackPointExtension>
            <ns3:hr>108</ns3:hr>
            <ns3:cad>50</ns3:cad>
          </ns3:TrackPointExtension>
        </extensions>
      </trkpt>
      <trkpt lat="43.48122127354145050048828125" lon="1.43945231102406978607177734375">
        <ele>228.399993896484375</ele>
        <time>2026-08-05T09:06:37.000Z</time>
        <extensions>
          <ns3:TrackPointExtension>
            <ns3:hr>108</ns3:hr>
            <ns3:cad>49</ns3:cad>
          </ns3:TrackPointExtension>
        </extensions>
      </trkpt>
      <trkpt lat="43.4812237881124019622802734375" lon="1.43943889997899532318115234375">
        <ele>228.600006103515625</ele>
        <time>2026-08-05T09:06:38.000Z</time>
        <extensions>
          <ns3:TrackPointExtension>
            <ns3:hr>108</ns3:hr>
            <ns3:cad>48</ns3:cad>
          </ns3:TrackPointExtension>
        </extensions>
      </trkpt>
      <trkpt lat="43.4812257997691631317138671875" lon="1.4394176937639713287353515625">
        <ele>228.8000030517578125</ele>
        <time>2026-08-05T09:06:39.000Z</time>
        <extensions>
          <ns3:TrackPointExtension>
            <ns3:hr>108</ns3:hr>
            <ns3:cad>48</ns3:cad>
          </ns3:TrackPointExtension>
        </extensions>
      </trkpt>
      <trkpt lat="43.48122554831206798553466796875" lon="1.4393965713679790496826171875">
        <ele>228.8000030517578125</ele>
        <time>2026-08-05T09:06:40.000Z</time>
        <extensions>
          <ns3:TrackPointExtension>
            <ns3:hr>108</ns3:hr>
            <ns3:cad>49</ns3:cad>
          </ns3:TrackPointExtension>
        </extensions>
      </trkpt>
      <trkpt lat="43.48122789524495601654052734375" lon="1.43937922082841396331787109375">
        <ele>228.8000030517578125</ele>
        <time>2026-08-05T09:06:41.000Z</time>
        <extensions>
          <ns3:TrackPointExtension>
            <ns3:hr>108</ns3:hr>
            <ns3:cad>49</ns3:cad>
          </ns3:TrackPointExtension>
        </extensions>
      </trkpt>
      <trkpt lat="43.4812298230826854705810546875" lon="1.43936119973659515380859375">
        <ele>229</ele>
        <time>2026-08-05T09:06:42.000Z</time>
        <extensions>
          <ns3:TrackPointExtension>
            <ns3:hr>107</ns3:hr>
            <ns3:cad>49</ns3:cad>
          </ns3:TrackPointExtension>
        </extensions>
      </trkpt>
      <trkpt lat="43.48122932016849517822265625" lon="1.43934938125312328338623046875">
        <ele>229</ele>
        <time>2026-08-05T09:06:43.000Z</time>
        <extensions>
          <ns3:TrackPointExtension>
            <ns3:hr>107</ns3:hr>
            <ns3:cad>49</ns3:cad>
          </ns3:TrackPointExtension>
        </extensions>
      </trkpt>
      <trkpt lat="43.4812291525304317474365234375" lon="1.4393365569412708282470703125">
        <ele>229.1999969482421875</ele>
        <time>2026-08-05T09:06:44.000Z</time>
        <extensions>
          <ns3:TrackPointExtension>
            <ns3:hr>107</ns3:hr>
            <ns3:cad>49</ns3:cad>
          </ns3:TrackPointExtension>
        </extensions>
      </trkpt>
      <trkpt lat="43.4812301583588123321533203125" lon="1.4393171109259128570556640625">
        <ele>229.399993896484375</ele>
        <time>2026-08-05T09:06:45.000Z</time>
        <extensions>
          <ns3:TrackPointExtension>
            <ns3:hr>107</ns3:hr>
            <ns3:cad>48</ns3:cad>
          </ns3:TrackPointExtension>
        </extensions>
      </trkpt>
      <trkpt lat="43.481231667101383209228515625" lon="1.43930193968117237091064453125">
        <ele>229.600006103515625</ele>
        <time>2026-08-05T09:06:46.000Z</time>
        <extensions>
          <ns3:TrackPointExtension>
            <ns3:hr>107</ns3:hr>
            <ns3:cad>48</ns3:cad>
          </ns3:TrackPointExtension>
        </extensions>
      </trkpt>
      <trkpt lat="43.481233008205890655517578125" lon="1.43928769044578075408935546875">
        <ele>229.600006103515625</ele>
        <time>2026-08-05T09:06:47.000Z</time>
        <extensions>
          <ns3:TrackPointExtension>
            <ns3:hr>107</ns3:hr>
            <ns3:cad>48</ns3:cad>
          </ns3:TrackPointExtension>
        </extensions>
      </trkpt>
      <trkpt lat="43.48123325966298580169677734375" lon="1.4392772130668163299560546875">
        <ele>229.8000030517578125</ele>
        <time>2026-08-05T09:06:48.000Z</time>
        <extensions>
          <ns3:TrackPointExtension>
            <ns3:hr>107</ns3:hr>
            <ns3:cad>48</ns3:cad>
          </ns3:TrackPointExtension>
        </extensions>
      </trkpt>
      <trkpt lat="43.48123242147266864776611328125" lon="1.4392644725739955902099609375">
        <ele>229.8000030517578125</ele>
        <time>2026-08-05T09:06:49.000Z</time>
        <extensions>
          <ns3:TrackPointExtension>
            <ns3:hr>107</ns3:hr>
            <ns3:cad>49</ns3:cad>
          </ns3:TrackPointExtension>
        </extensions>
      </trkpt>
      <trkpt lat="43.48123334348201751708984375" lon="1.43924561329185962677001953125">
        <ele>230</ele>
        <time>2026-08-05T09:06:50.000Z</time>
        <extensions>
          <ns3:TrackPointExtension>
            <ns3:hr>108</ns3:hr>
            <ns3:cad>49</ns3:cad>
          </ns3:TrackPointExtension>
        </extensions>
      </trkpt>
      <trkpt lat="43.48123602569103240966796875" lon="1.43922331742942333221435546875">
        <ele>230</ele>
        <time>2026-08-05T09:06:51.000Z</time>
        <extensions>
          <ns3:TrackPointExtension>
            <ns3:hr>108</ns3:hr>
            <ns3:cad>49</ns3:cad>
          </ns3:TrackPointExtension>
        </extensions>
      </trkpt>
      <trkpt lat="43.481238372623920440673828125" lon="1.439206637442111968994140625">
        <ele>230.1999969482421875</ele>
        <time>2026-08-05T09:06:52.000Z</time>
        <extensions>
          <ns3:TrackPointExtension>
            <ns3:hr>109</ns3:hr>
            <ns3:cad>49</ns3:cad>
          </ns3:TrackPointExtension>
        </extensions>
      </trkpt>
      <trkpt lat="43.48124097101390361785888671875" lon="1.43919113092124462127685546875">
        <ele>230.1999969482421875</ele>
        <time>2026-08-05T09:06:53.000Z</time>
        <extensions>
          <ns3:TrackPointExtension>
            <ns3:hr>109</ns3:hr>
            <ns3:cad>49</ns3:cad>
          </ns3:TrackPointExtension>
        </extensions>
      </trkpt>
      <trkpt lat="43.4812412224709987640380859375" lon="1.4391786418855190277099609375">
        <ele>230.1999969482421875</ele>
        <time>2026-08-05T09:06:54.000Z</time>
        <extensions>
          <ns3:TrackPointExtension>
            <ns3:hr>109</ns3:hr>
            <ns3:cad>49</ns3:cad>
          </ns3:TrackPointExtension>
        </extensions>
      </trkpt>
      <trkpt lat="43.4812407195568084716796875" lon="1.439165063202381134033203125">
        <ele>230.399993896484375</ele>
        <time>2026-08-05T09:06:55.000Z</time>
        <extensions>
          <ns3:TrackPointExtension>
            <ns3:hr>109</ns3:hr>
            <ns3:cad>51</ns3:cad>
          </ns3:TrackPointExtension>
        </extensions>
      </trkpt>
      <trkpt lat="43.48124013282358646392822265625" lon="1.43914637155830860137939453125">
        <ele>230.399993896484375</ele>
        <time>2026-08-05T09:06:56.000Z</time>
        <extensions>
          <ns3:TrackPointExtension>
            <ns3:hr>110</ns3:hr>
            <ns3:cad>51</ns3:cad>
          </ns3:TrackPointExtension>
        </extensions>
      </trkpt>
      <trkpt lat="43.48124147392809391021728515625" lon="1.43912826664745807647705078125">
        <ele>230.600006103515625</ele>
        <time>2026-08-05T09:06:57.000Z</time>
        <extensions>
          <ns3:TrackPointExtension>
            <ns3:hr>110</ns3:hr>
            <ns3:cad>50</ns3:cad>
          </ns3:TrackPointExtension>
        </extensions>
      </trkpt>
      <trkpt lat="43.48124298267066478729248046875" lon="1.43911250866949558258056640625">
        <ele>230.8000030517578125</ele>
        <time>2026-08-05T09:06:58.000Z</time>
        <extensions>
          <ns3:TrackPointExtension>
            <ns3:hr>110</ns3:hr>
            <ns3:cad>50</ns3:cad>
          </ns3:TrackPointExtension>
        </extensions>
      </trkpt>
      <trkpt lat="43.48124407231807708740234375" lon="1.4391028694808483123779296875">
        <ele>230.8000030517578125</ele>
        <time>2026-08-05T09:06:59.000Z</time>
        <extensions>
          <ns3:TrackPointExtension>
            <ns3:hr>110</ns3:hr>
            <ns3:cad>49</ns3:cad>
          </ns3:TrackPointExtension>
        </extensions>
      </trkpt>
      <trkpt lat="43.48124734126031398773193359375" lon="1.43909540958702564239501953125">
        <ele>231</ele>
        <time>2026-08-05T09:07:00.000Z</time>
        <extensions>
          <ns3:TrackPointExtension>
            <ns3:hr>109</ns3:hr>
            <ns3:cad>49</ns3:cad>
          </ns3:TrackPointExtension>
        </extensions>
      </trkpt>
      <trkpt lat="43.481249772012233734130859375" lon="1.43908183090388774871826171875">
        <ele>231</ele>
        <time>2026-08-05T09:07:01.000Z</time>
        <extensions>
          <ns3:TrackPointExtension>
            <ns3:hr>110</ns3:hr>
            <ns3:cad>50</ns3:cad>
          </ns3:TrackPointExtension>
        </extensions>
      </trkpt>
      <trkpt lat="43.48125186748802661895751953125" lon="1.4390619657933712005615234375">
        <ele>231.1999969482421875</ele>
        <time>2026-08-05T09:07:02.000Z</time>
        <extensions>
          <ns3:TrackPointExtension>
            <ns3:hr>110</ns3:hr>
            <ns3:cad>50</ns3:cad>
          </ns3:TrackPointExtension>
        </extensions>
      </trkpt>
      <trkpt lat="43.4812526218593120574951171875" lon="1.4390441961586475372314453125">
        <ele>231.1999969482421875</ele>
        <time>2026-08-05T09:07:03.000Z</time>
        <extensions>
          <ns3:TrackPointExtension>
            <ns3:hr>110</ns3:hr>
            <ns3:cad>50</ns3:cad>
          </ns3:TrackPointExtension>
        </extensions>
      </trkpt>
      <trkpt lat="43.48125480115413665771484375" lon="1.43902919255197048187255859375">
        <ele>231.399993896484375</ele>
        <time>2026-08-05T09:07:04.000Z</time>
        <extensions>
          <ns3:TrackPointExtension>
            <ns3:hr>109</ns3:hr>
            <ns3:cad>49</ns3:cad>
          </ns3:TrackPointExtension>
        </extensions>
      </trkpt>
      <trkpt lat="43.48125723190605640411376953125" lon="1.43901410512626171112060546875">
        <ele>231.600006103515625</ele>
        <time>2026-08-05T09:07:05.000Z</time>
        <extensions>
          <ns3:TrackPointExtension>
            <ns3:hr>109</ns3:hr>
            <ns3:cad>49</ns3:cad>
          </ns3:TrackPointExtension>
        </extensions>
      </trkpt>
      <trkpt lat="43.48125890828669071197509765625" lon="1.439002454280853271484375">
        <ele>231.600006103515625</ele>
        <time>2026-08-05T09:07:06.000Z</time>
        <extensions>
          <ns3:TrackPointExtension>
            <ns3:hr>110</ns3:hr>
            <ns3:cad>49</ns3:cad>
          </ns3:TrackPointExtension>
        </extensions>
      </trkpt>
      <trkpt lat="43.4812579862773418426513671875" lon="1.43898577429354190826416015625">
        <ele>231.8000030517578125</ele>
        <time>2026-08-05T09:07:07.000Z</time>
        <extensions>
          <ns3:TrackPointExtension>
            <ns3:hr>110</ns3:hr>
            <ns3:cad>50</ns3:cad>
          </ns3:TrackPointExtension>
        </extensions>
      </trkpt>
      <trkpt lat="43.48126008175313472747802734375" lon="1.4389597065746784210205078125">
        <ele>231.8000030517578125</ele>
        <time>2026-08-05T09:07:08.000Z</time>
        <extensions>
          <ns3:TrackPointExtension>
            <ns3:hr>110</ns3:hr>
            <ns3:cad>50</ns3:cad>
          </ns3:TrackPointExtension>
        </extensions>
      </trkpt>
      <trkpt lat="43.48126125521957874298095703125" lon="1.4389359019696712493896484375">
        <ele>232</ele>
        <time>2026-08-05T09:07:09.000Z</time>
        <extensions>
          <ns3:TrackPointExtension>
            <ns3:hr>110</ns3:hr>
            <ns3:cad>50</ns3:cad>
          </ns3:TrackPointExtension>
        </extensions>
      </trkpt>
      <trkpt lat="43.48126150667667388916015625" lon="1.43892089836299419403076171875">
        <ele>232.1999969482421875</ele>
        <time>2026-08-05T09:07:10.000Z</time>
        <extensions>
          <ns3:TrackPointExtension>
            <ns3:hr>110</ns3:hr>
            <ns3:cad>50</ns3:cad>
          </ns3:TrackPointExtension>
        </extensions>
      </trkpt>
      <trkpt lat="43.48126209340989589691162109375" lon="1.43890379928052425384521484375">
        <ele>232.1999969482421875</ele>
        <time>2026-08-05T09:07:11.000Z</time>
        <extensions>
          <ns3:TrackPointExtension>
            <ns3:hr>109</ns3:hr>
            <ns3:cad>50</ns3:cad>
          </ns3:TrackPointExtension>
        </extensions>
      </trkpt>
      <trkpt lat="43.48126108758151531219482421875" lon="1.438891477882862091064453125">
        <ele>232.399993896484375</ele>
        <time>2026-08-05T09:07:12.000Z</time>
        <extensions>
          <ns3:TrackPointExtension>
            <ns3:hr>109</ns3:hr>
            <ns3:cad>50</ns3:cad>
          </ns3:TrackPointExtension>
        </extensions>
      </trkpt>
      <trkpt lat="43.48126393742859363555908203125" lon="1.4388782344758510589599609375">
        <ele>232.399993896484375</ele>
        <time>2026-08-05T09:07:13.000Z</time>
        <extensions>
          <ns3:TrackPointExtension>
            <ns3:hr>109</ns3:hr>
            <ns3:cad>50</ns3:cad>
          </ns3:TrackPointExtension>
        </extensions>
      </trkpt>
      <trkpt lat="43.48126544617116451263427734375" lon="1.4388551004230976104736328125">
        <ele>232.399993896484375</ele>
        <time>2026-08-05T09:07:14.000Z</time>
        <extensions>
          <ns3:TrackPointExtension>
            <ns3:hr>109</ns3:hr>
            <ns3:cad>50</ns3:cad>
          </ns3:TrackPointExtension>
        </extensions>
      </trkpt>
      <trkpt lat="43.48126695491373538970947265625" lon="1.4388323016464710235595703125">
        <ele>232.600006103515625</ele>
        <time>2026-08-05T09:07:15.000Z</time>
        <extensions>
          <ns3:TrackPointExtension>
            <ns3:hr>109</ns3:hr>
            <ns3:cad>50</ns3:cad>
          </ns3:TrackPointExtension>
        </extensions>
      </trkpt>
      <trkpt lat="43.48126829601824283599853515625" lon="1.438814364373683929443359375">
        <ele>232.600006103515625</ele>
        <time>2026-08-05T09:07:16.000Z</time>
        <extensions>
          <ns3:TrackPointExtension>
            <ns3:hr>109</ns3:hr>
            <ns3:cad>50</ns3:cad>
          </ns3:TrackPointExtension>
        </extensions>
      </trkpt>
      <trkpt lat="43.48126980476081371307373046875" lon="1.43880422227084636688232421875">
        <ele>232.8000030517578125</ele>
        <time>2026-08-05T09:07:17.000Z</time>
        <extensions>
          <ns3:TrackPointExtension>
            <ns3:hr>109</ns3:hr>
            <ns3:cad>50</ns3:cad>
          </ns3:TrackPointExtension>
        </extensions>
      </trkpt>
      <trkpt lat="43.48127097822725772857666015625" lon="1.4387972652912139892578125">
        <ele>233</ele>
        <time>2026-08-05T09:07:18.000Z</time>
        <extensions>
          <ns3:TrackPointExtension>
            <ns3:hr>109</ns3:hr>
            <ns3:cad>50</ns3:cad>
          </ns3:TrackPointExtension>
        </extensions>
      </trkpt>
      <trkpt lat="43.4812734089791774749755859375" lon="1.43878326751291751861572265625">
        <ele>233</ele>
        <time>2026-08-05T09:07:19.000Z</time>
        <extensions>
          <ns3:TrackPointExtension>
            <ns3:hr>109</ns3:hr>
            <ns3:cad>50</ns3:cad>
          </ns3:TrackPointExtension>
        </extensions>
      </trkpt>
      <trkpt lat="43.48127114586532115936279296875" lon="1.438762061297893524169921875">
        <ele>233.1999969482421875</ele>
        <time>2026-08-05T09:07:20.000Z</time>
        <extensions>
          <ns3:TrackPointExtension>
            <ns3:hr>110</ns3:hr>
            <ns3:cad>49</ns3:cad>
          </ns3:TrackPointExtension>
        </extensions>
      </trkpt>
      <trkpt lat="43.48127089440822601318359375" lon="1.43874051980674266815185546875">
        <ele>233.1999969482421875</ele>
        <time>2026-08-05T09:07:21.000Z</time>
        <extensions>
          <ns3:TrackPointExtension>
            <ns3:hr>110</ns3:hr>
            <ns3:cad>49</ns3:cad>
          </ns3:TrackPointExtension>
        </extensions>
      </trkpt>
      <trkpt lat="43.481271900236606597900390625" lon="1.438723839819431304931640625">
        <ele>233.399993896484375</ele>
        <time>2026-08-05T09:07:22.000Z</time>
        <extensions>
          <ns3:TrackPointExtension>
            <ns3:hr>109</ns3:hr>
            <ns3:cad>49</ns3:cad>
          </ns3:TrackPointExtension>
        </extensions>
      </trkpt>
      <trkpt lat="43.48127491772174835205078125" lon="1.438710428774356842041015625">
        <ele>233.399993896484375</ele>
        <time>2026-08-05T09:07:23.000Z</time>
        <extensions>
          <ns3:TrackPointExtension>
            <ns3:hr>109</ns3:hr>
            <ns3:cad>49</ns3:cad>
          </ns3:TrackPointExtension>
        </extensions>
      </trkpt>
      <trkpt lat="43.48127936013042926788330078125" lon="1.43869676627218723297119140625">
        <ele>233.399993896484375</ele>
        <time>2026-08-05T09:07:24.000Z</time>
        <extensions>
          <ns3:TrackPointExtension>
            <ns3:hr>109</ns3:hr>
            <ns3:cad>49</ns3:cad>
          </ns3:TrackPointExtension>
        </extensions>
      </trkpt>
      <trkpt lat="43.4812794439494609832763671875" lon="1.4386832714080810546875">
        <ele>233.600006103515625</ele>
        <time>2026-08-05T09:07:25.000Z</time>
        <extensions>
          <ns3:TrackPointExtension>
            <ns3:hr>109</ns3:hr>
            <ns3:cad>49</ns3:cad>
          </ns3:TrackPointExtension>
        </extensions>
      </trkpt>
      <trkpt lat="43.48127894103527069091796875" lon="1.43866256810724735260009765625">
        <ele>233.600006103515625</ele>
        <time>2026-08-05T09:07:26.000Z</time>
        <extensions>
          <ns3:TrackPointExtension>
            <ns3:hr>108</ns3:hr>
            <ns3:cad>50</ns3:cad>
          </ns3:TrackPointExtension>
        </extensions>
      </trkpt>
      <trkpt lat="43.48127818666398525238037109375" lon="1.43864295445382595062255859375">
        <ele>233.600006103515625</ele>
        <time>2026-08-05T09:07:27.000Z</time>
        <extensions>
          <ns3:TrackPointExtension>
            <ns3:hr>108</ns3:hr>
            <ns3:cad>50</ns3:cad>
          </ns3:TrackPointExtension>
        </extensions>
      </trkpt>
      <trkpt lat="43.48127600736916065216064453125" lon="1.43862786702811717987060546875">
        <ele>233.8000030517578125</ele>
        <time>2026-08-05T09:07:28.000Z</time>
        <extensions>
          <ns3:TrackPointExtension>
            <ns3:hr>108</ns3:hr>
            <ns3:cad>51</ns3:cad>
          </ns3:TrackPointExtension>
        </extensions>
      </trkpt>
      <trkpt lat="43.48127533681690692901611328125" lon="1.43861093558371067047119140625">
        <ele>233.8000030517578125</ele>
        <time>2026-08-05T09:07:29.000Z</time>
        <extensions>
          <ns3:TrackPointExtension>
            <ns3:hr>108</ns3:hr>
            <ns3:cad>51</ns3:cad>
          </ns3:TrackPointExtension>
        </extensions>
      </trkpt>
      <trkpt lat="43.48127357661724090576171875" lon="1.4386014640331268310546875">
        <ele>234</ele>
        <time>2026-08-05T09:07:30.000Z</time>
        <extensions>
          <ns3:TrackPointExtension>
            <ns3:hr>108</ns3:hr>
            <ns3:cad>51</ns3:cad>
          </ns3:TrackPointExtension>
        </extensions>
      </trkpt>
      <trkpt lat="43.48127491772174835205078125" lon="1.43858914263546466827392578125">
        <ele>234</ele>
        <time>2026-08-05T09:07:31.000Z</time>
        <extensions>
          <ns3:TrackPointExtension>
            <ns3:hr>108</ns3:hr>
            <ns3:cad>50</ns3:cad>
          </ns3:TrackPointExtension>
        </extensions>
      </trkpt>
      <trkpt lat="43.48127491772174835205078125" lon="1.438570283353328704833984375">
        <ele>234.1999969482421875</ele>
        <time>2026-08-05T09:07:32.000Z</time>
        <extensions>
          <ns3:TrackPointExtension>
            <ns3:hr>108</ns3:hr>
            <ns3:cad>50</ns3:cad>
          </ns3:TrackPointExtension>
        </extensions>
      </trkpt>
      <trkpt lat="43.4812737442553043365478515625" lon="1.4385489933192729949951171875">
        <ele>234.1999969482421875</ele>
        <time>2026-08-05T09:07:33.000Z</time>
        <extensions>
          <ns3:TrackPointExtension>
            <ns3:hr>108</ns3:hr>
            <ns3:cad>50</ns3:cad>
          </ns3:TrackPointExtension>
        </extensions>
      </trkpt>
      <trkpt lat="43.4812747500836849212646484375" lon="1.438530050218105316162109375">
        <ele>234.1999969482421875</ele>
        <time>2026-08-05T09:07:34.000Z</time>
        <extensions>
          <ns3:TrackPointExtension>
            <ns3:hr>108</ns3:hr>
            <ns3:cad>50</ns3:cad>
          </ns3:TrackPointExtension>
        </extensions>
      </trkpt>
      <trkpt lat="43.4812760911881923675537109375" lon="1.43851102329790592193603515625">
        <ele>234.399993896484375</ele>
        <time>2026-08-05T09:07:35.000Z</time>
        <extensions>
          <ns3:TrackPointExtension>
            <ns3:hr>108</ns3:hr>
            <ns3:cad>50</ns3:cad>
          </ns3:TrackPointExtension>
        </extensions>
      </trkpt>
      <trkpt lat="43.4812760911881923675537109375" lon="1.43849794752895832061767578125">
        <ele>234.399993896484375</ele>
        <time>2026-08-05T09:07:36.000Z</time>
        <extensions>
          <ns3:TrackPointExtension>
            <ns3:hr>108</ns3:hr>
            <ns3:cad>50</ns3:cad>
          </ns3:TrackPointExtension>
        </extensions>
      </trkpt>
      <trkpt lat="43.48127785138785839080810546875" lon="1.4384842850267887115478515625">
        <ele>234.600006103515625</ele>
        <time>2026-08-05T09:07:37.000Z</time>
        <extensions>
          <ns3:TrackPointExtension>
            <ns3:hr>108</ns3:hr>
            <ns3:cad>50</ns3:cad>
          </ns3:TrackPointExtension>
        </extensions>
      </trkpt>
      <trkpt lat="43.48127894103527069091796875" lon="1.4384691976010799407958984375">
        <ele>234.600006103515625</ele>
        <time>2026-08-05T09:07:38.000Z</time>
        <extensions>
          <ns3:TrackPointExtension>
            <ns3:hr>108</ns3:hr>
            <ns3:cad>51</ns3:cad>
          </ns3:TrackPointExtension>
        </extensions>
      </trkpt>
      <trkpt lat="43.48128120414912700653076171875" lon="1.43845050595700740814208984375">
        <ele>234.8000030517578125</ele>
        <time>2026-08-05T09:07:39.000Z</time>
        <extensions>
          <ns3:TrackPointExtension>
            <ns3:hr>108</ns3:hr>
            <ns3:cad>51</ns3:cad>
          </ns3:TrackPointExtension>
        </extensions>
      </trkpt>
      <trkpt lat="43.48128070123493671417236328125" lon="1.43842913210391998291015625">
        <ele>235</ele>
        <time>2026-08-05T09:07:40.000Z</time>
        <extensions>
          <ns3:TrackPointExtension>
            <ns3:hr>108</ns3:hr>
            <ns3:cad>51</ns3:cad>
          </ns3:TrackPointExtension>
        </extensions>
      </trkpt>
      <trkpt lat="43.4812796115875244140625" lon="1.43840708769857883453369140625">
        <ele>235</ele>
        <time>2026-08-05T09:07:41.000Z</time>
        <extensions>
          <ns3:TrackPointExtension>
            <ns3:hr>108</ns3:hr>
            <ns3:cad>51</ns3:cad>
          </ns3:TrackPointExtension>
        </extensions>
      </trkpt>
      <trkpt lat="43.48128153942525386810302734375" lon="1.4383920840919017791748046875">
        <ele>235.1999969482421875</ele>
        <time>2026-08-05T09:07:42.000Z</time>
        <extensions>
          <ns3:TrackPointExtension>
            <ns3:hr>108</ns3:hr>
            <ns3:cad>50</ns3:cad>
          </ns3:TrackPointExtension>
        </extensions>
      </trkpt>
      <trkpt lat="43.48128321580588817596435546875" lon="1.43837892450392246246337890625">
        <ele>235.1999969482421875</ele>
        <time>2026-08-05T09:07:43.000Z</time>
        <extensions>
          <ns3:TrackPointExtension>
            <ns3:hr>108</ns3:hr>
            <ns3:cad>50</ns3:cad>
          </ns3:TrackPointExtension>
        </extensions>
      </trkpt>
      <trkpt lat="43.48128371872007846832275390625" lon="1.438364088535308837890625">
        <ele>235.1999969482421875</ele>
        <time>2026-08-05T09:07:44.000Z</time>
        <extensions>
          <ns3:TrackPointExtension>
            <ns3:hr>108</ns3:hr>
            <ns3:cad>50</ns3:cad>
          </ns3:TrackPointExtension>
        </extensions>
      </trkpt>
      <trkpt lat="43.48128539510071277618408203125" lon="1.43834464251995086669921875">
        <ele>235.399993896484375</ele>
        <time>2026-08-05T09:07:45.000Z</time>
        <extensions>
          <ns3:TrackPointExtension>
            <ns3:hr>109</ns3:hr>
            <ns3:cad>50</ns3:cad>
          </ns3:TrackPointExtension>
        </extensions>
      </trkpt>
      <trkpt lat="43.4812851436436176300048828125" lon="1.43832393921911716461181640625">
        <ele>235.399993896484375</ele>
        <time>2026-08-05T09:07:46.000Z</time>
        <extensions>
          <ns3:TrackPointExtension>
            <ns3:hr>109</ns3:hr>
            <ns3:cad>50</ns3:cad>
          </ns3:TrackPointExtension>
        </extensions>
      </trkpt>
      <trkpt lat="43.48128640092909336090087890625" lon="1.438303403556346893310546875">
        <ele>235.600006103515625</ele>
        <time>2026-08-05T09:07:47.000Z</time>
        <extensions>
          <ns3:TrackPointExtension>
            <ns3:hr>109</ns3:hr>
            <ns3:cad>50</ns3:cad>
          </ns3:TrackPointExtension>
        </extensions>
      </trkpt>
      <trkpt lat="43.4812881611287593841552734375" lon="1.43828974105417728424072265625">
        <ele>235.8000030517578125</ele>
        <time>2026-08-05T09:07:48.000Z</time>
        <extensions>
          <ns3:TrackPointExtension>
            <ns3:hr>109</ns3:hr>
            <ns3:cad>50</ns3:cad>
          </ns3:TrackPointExtension>
        </extensions>
      </trkpt>
      <trkpt lat="43.4812901727855205535888671875" lon="1.43828119151294231414794921875">
        <ele>235.8000030517578125</ele>
        <time>2026-08-05T09:07:49.000Z</time>
        <extensions>
          <ns3:TrackPointExtension>
            <ns3:hr>109</ns3:hr>
            <ns3:cad>49</ns3:cad>
          </ns3:TrackPointExtension>
        </extensions>
      </trkpt>
      <trkpt lat="43.481293357908725738525390625" lon="1.43826954066753387451171875">
        <ele>236</ele>
        <time>2026-08-05T09:07:50.000Z</time>
        <extensions>
          <ns3:TrackPointExtension>
            <ns3:hr>110</ns3:hr>
            <ns3:cad>49</ns3:cad>
          </ns3:TrackPointExtension>
        </extensions>
      </trkpt>
      <trkpt lat="43.48129293881356716156005859375" lon="1.438249088823795318603515625">
        <ele>236</ele>
        <time>2026-08-05T09:07:51.000Z</time>
        <extensions>
          <ns3:TrackPointExtension>
            <ns3:hr>109</ns3:hr>
            <ns3:cad>50</ns3:cad>
          </ns3:TrackPointExtension>
        </extensions>
      </trkpt>
      <trkpt lat="43.4812925197184085845947265625" lon="1.43822687678039073944091796875">
        <ele>236</ele>
        <time>2026-08-05T09:07:52.000Z</time>
        <extensions>
          <ns3:TrackPointExtension>
            <ns3:hr>109</ns3:hr>
            <ns3:cad>50</ns3:cad>
          </ns3:TrackPointExtension>
        </extensions>
      </trkpt>
      <trkpt lat="43.48129360936582088470458984375" lon="1.43820776604115962982177734375">
        <ele>236.1999969482421875</ele>
        <time>2026-08-05T09:07:53.000Z</time>
        <extensions>
          <ns3:TrackPointExtension>
            <ns3:hr>109</ns3:hr>
            <ns3:cad>50</ns3:cad>
          </ns3:TrackPointExtension>
        </extensions>
      </trkpt>
      <trkpt lat="43.4812965430319309234619140625" lon="1.438192427158355712890625">
        <ele>236.1999969482421875</ele>
        <time>2026-08-05T09:07:54.000Z</time>
        <extensions>
          <ns3:TrackPointExtension>
            <ns3:hr>108</ns3:hr>
            <ns3:cad>50</ns3:cad>
          </ns3:TrackPointExtension>
        </extensions>
      </trkpt>
      <trkpt lat="43.4812992252409458160400390625" lon="1.4381805248558521270751953125">
        <ele>236.399993896484375</ele>
        <time>2026-08-05T09:07:55.000Z</time>
        <extensions>
          <ns3:TrackPointExtension>
            <ns3:hr>107</ns3:hr>
            <ns3:cad>50</ns3:cad>
          </ns3:TrackPointExtension>
        </extensions>
      </trkpt>
      <trkpt lat="43.48130182363092899322509765625" lon="1.4381697960197925567626953125">
        <ele>236.399993896484375</ele>
        <time>2026-08-05T09:07:56.000Z</time>
        <extensions>
          <ns3:TrackPointExtension>
            <ns3:hr>106</ns3:hr>
            <ns3:cad>49</ns3:cad>
          </ns3:TrackPointExtension>
        </extensions>
      </trkpt>
      <trkpt lat="43.4813035838305950164794921875" lon="1.438156552612781524658203125">
        <ele>236.600006103515625</ele>
        <time>2026-08-05T09:07:57.000Z</time>
        <extensions>
          <ns3:TrackPointExtension>
            <ns3:hr>106</ns3:hr>
            <ns3:cad>49</ns3:cad>
          </ns3:TrackPointExtension>
        </extensions>
      </trkpt>
      <trkpt lat="43.4813066013157367706298828125" lon="1.43813752569258213043212890625">
        <ele>236.600006103515625</ele>
        <time>2026-08-05T09:07:58.000Z</time>
        <extensions>
          <ns3:TrackPointExtension>
            <ns3:hr>105</ns3:hr>
            <ns3:cad>50</ns3:cad>
          </ns3:TrackPointExtension>
        </extensions>
      </trkpt>
      <trkpt lat="43.48130618222057819366455078125" lon="1.43811439163982868194580078125">
        <ele>236.8000030517578125</ele>
        <time>2026-08-05T09:07:59.000Z</time>
        <extensions>
          <ns3:TrackPointExtension>
            <ns3:hr>105</ns3:hr>
            <ns3:cad>50</ns3:cad>
          </ns3:TrackPointExtension>
        </extensions>
      </trkpt>
      <trkpt lat="43.481306768953800201416015625" lon="1.4380960352718830108642578125">
        <ele>236.8000030517578125</ele>
        <time>2026-08-05T09:08:00.000Z</time>
        <extensions>
          <ns3:TrackPointExtension>
            <ns3:hr>105</ns3:hr>
            <ns3:cad>52</ns3:cad>
          </ns3:TrackPointExtension>
        </extensions>
      </trkpt>
      <trkpt lat="43.48130618222057819366455078125" lon="1.438081450760364532470703125">
        <ele>236.8000030517578125</ele>
        <time>2026-08-05T09:08:01.000Z</time>
        <extensions>
          <ns3:TrackPointExtension>
            <ns3:hr>105</ns3:hr>
            <ns3:cad>52</ns3:cad>
          </ns3:TrackPointExtension>
        </extensions>
      </trkpt>
      <trkpt lat="43.481306098401546478271484375" lon="1.4380703866481781005859375">
        <ele>237</ele>
        <time>2026-08-05T09:08:02.000Z</time>
        <extensions>
          <ns3:TrackPointExtension>
            <ns3:hr>105</ns3:hr>
            <ns3:cad>51</ns3:cad>
          </ns3:TrackPointExtension>
        </extensions>
      </trkpt>
      <trkpt lat="43.48130752332508563995361328125" lon="1.4380574785172939300537109375">
        <ele>237</ele>
        <time>2026-08-05T09:08:03.000Z</time>
        <extensions>
          <ns3:TrackPointExtension>
            <ns3:hr>104</ns3:hr>
            <ns3:cad>50</ns3:cad>
          </ns3:TrackPointExtension>
        </extensions>
      </trkpt>
      <trkpt lat="43.4813072718679904937744140625" lon="1.438035853207111358642578125">
        <ele>237</ele>
        <time>2026-08-05T09:08:04.000Z</time>
        <extensions>
          <ns3:TrackPointExtension>
            <ns3:hr>105</ns3:hr>
            <ns3:cad>50</ns3:cad>
          </ns3:TrackPointExtension>
        </extensions>
      </trkpt>
      <trkpt lat="43.48130752332508563995361328125" lon="1.4380132220685482025146484375">
        <ele>237.1999969482421875</ele>
        <time>2026-08-05T09:08:05.000Z</time>
        <extensions>
          <ns3:TrackPointExtension>
            <ns3:hr>105</ns3:hr>
            <ns3:cad>50</ns3:cad>
          </ns3:TrackPointExtension>
        </extensions>
      </trkpt>
      <trkpt lat="43.4813077747821807861328125" lon="1.43799469806253910064697265625">
        <ele>237.1999969482421875</ele>
        <time>2026-08-05T09:08:06.000Z</time>
        <extensions>
          <ns3:TrackPointExtension>
            <ns3:hr>105</ns3:hr>
            <ns3:cad>50</ns3:cad>
          </ns3:TrackPointExtension>
        </extensions>
      </trkpt>
      <trkpt lat="43.4813082776963710784912109375" lon="1.4379790239036083221435546875">
        <ele>237.399993896484375</ele>
        <time>2026-08-05T09:08:07.000Z</time>
        <extensions>
          <ns3:TrackPointExtension>
            <ns3:hr>106</ns3:hr>
            <ns3:cad>50</ns3:cad>
          </ns3:TrackPointExtension>
        </extensions>
      </trkpt>
      <trkpt lat="43.4813096188008785247802734375" lon="1.437967121601104736328125">
        <ele>237.399993896484375</ele>
        <time>2026-08-05T09:08:08.000Z</time>
        <extensions>
          <ns3:TrackPointExtension>
            <ns3:hr>106</ns3:hr>
            <ns3:cad>50</ns3:cad>
          </ns3:TrackPointExtension>
        </extensions>
      </trkpt>
      <trkpt lat="43.48130978643894195556640625" lon="1.43795765005052089691162109375">
        <ele>237.600006103515625</ele>
        <time>2026-08-05T09:08:09.000Z</time>
        <extensions>
          <ns3:TrackPointExtension>
            <ns3:hr>106</ns3:hr>
            <ns3:cad>50</ns3:cad>
          </ns3:TrackPointExtension>
        </extensions>
      </trkpt>
      <trkpt lat="43.481310792267322540283203125" lon="1.43794088624417781829833984375">
        <ele>237.600006103515625</ele>
        <time>2026-08-05T09:08:10.000Z</time>
        <extensions>
          <ns3:TrackPointExtension>
            <ns3:hr>106</ns3:hr>
            <ns3:cad>50</ns3:cad>
          </ns3:TrackPointExtension>
        </extensions>
      </trkpt>
      <trkpt lat="43.481310792267322540283203125" lon="1.43792160786688327789306640625">
        <ele>237.8000030517578125</ele>
        <time>2026-08-05T09:08:11.000Z</time>
        <extensions>
          <ns3:TrackPointExtension>
            <ns3:hr>107</ns3:hr>
            <ns3:cad>50</ns3:cad>
          </ns3:TrackPointExtension>
        </extensions>
      </trkpt>
      <trkpt lat="43.48131272010505199432373046875" lon="1.4379066042602062225341796875">
        <ele>238</ele>
        <time>2026-08-05T09:08:12.000Z</time>
        <extensions>
          <ns3:TrackPointExtension>
            <ns3:hr>106</ns3:hr>
            <ns3:cad>50</ns3:cad>
          </ns3:TrackPointExtension>
        </extensions>
      </trkpt>
      <trkpt lat="43.48131339065730571746826171875" lon="1.437892355024814605712890625">
        <ele>238</ele>
        <time>2026-08-05T09:08:13.000Z</time>
        <extensions>
          <ns3:TrackPointExtension>
            <ns3:hr>106</ns3:hr>
            <ns3:cad>50</ns3:cad>
          </ns3:TrackPointExtension>
        </extensions>
      </trkpt>
      <trkpt lat="43.481311798095703125" lon="1.437882296741008758544921875">
        <ele>238.1999969482421875</ele>
        <time>2026-08-05T09:08:14.000Z</time>
        <extensions>
          <ns3:TrackPointExtension>
            <ns3:hr>106</ns3:hr>
            <ns3:cad>50</ns3:cad>
          </ns3:TrackPointExtension>
        </extensions>
      </trkpt>
      <trkpt lat="43.4813092835247516632080078125" lon="1.4378657005727291107177734375">
        <ele>238.1999969482421875</ele>
        <time>2026-08-05T09:08:15.000Z</time>
        <extensions>
          <ns3:TrackPointExtension>
            <ns3:hr>106</ns3:hr>
            <ns3:cad>50</ns3:cad>
          </ns3:TrackPointExtension>
        </extensions>
      </trkpt>
      <trkpt lat="43.48131104372441768646240234375" lon="1.437842734158039093017578125">
        <ele>238.399993896484375</ele>
        <time>2026-08-05T09:08:16.000Z</time>
        <extensions>
          <ns3:TrackPointExtension>
            <ns3:hr>105</ns3:hr>
            <ns3:cad>50</ns3:cad>
          </ns3:TrackPointExtension>
        </extensions>
      </trkpt>
      <trkpt lat="43.48131087608635425567626953125" lon="1.437820605933666229248046875">
        <ele>238.399993896484375</ele>
        <time>2026-08-05T09:08:17.000Z</time>
        <extensions>
          <ns3:TrackPointExtension>
            <ns3:hr>105</ns3:hr>
            <ns3:cad>48</ns3:cad>
          </ns3:TrackPointExtension>
        </extensions>
      </trkpt>
      <trkpt lat="43.481311798095703125" lon="1.437801159918308258056640625">
        <ele>238.600006103515625</ele>
        <time>2026-08-05T09:08:18.000Z</time>
        <extensions>
          <ns3:TrackPointExtension>
            <ns3:hr>105</ns3:hr>
            <ns3:cad>48</ns3:cad>
          </ns3:TrackPointExtension>
        </extensions>
      </trkpt>
      <trkpt lat="43.481314815580844879150390625" lon="1.4377882517874240875244140625">
        <ele>238.600006103515625</ele>
        <time>2026-08-05T09:08:19.000Z</time>
        <extensions>
          <ns3:TrackPointExtension>
            <ns3:hr>105</ns3:hr>
            <ns3:cad>48</ns3:cad>
          </ns3:TrackPointExtension>
        </extensions>
      </trkpt>
      <trkpt lat="43.48131506703794002532958984375" lon="1.43778330646455287933349609375">
        <ele>238.600006103515625</ele>
        <time>2026-08-05T09:08:20.000Z</time>
        <extensions>
          <ns3:TrackPointExtension>
            <ns3:hr>105</ns3:hr>
            <ns3:cad>49</ns3:cad>
          </ns3:TrackPointExtension>
        </extensions>
      </trkpt>
      <trkpt lat="43.4813156537711620330810546875" lon="1.43776436336338520050048828125">
        <ele>238.8000030517578125</ele>
        <time>2026-08-05T09:08:21.000Z</time>
        <extensions>
          <ns3:TrackPointExtension>
            <ns3:hr>105</ns3:hr>
            <ns3:cad>49</ns3:cad>
          </ns3:TrackPointExtension>
        </extensions>
      </trkpt>
      <trkpt lat="43.48131489939987659454345703125" lon="1.4377450011670589447021484375">
        <ele>239</ele>
        <time>2026-08-05T09:08:22.000Z</time>
        <extensions>
          <ns3:TrackPointExtension>
            <ns3:hr>104</ns3:hr>
            <ns3:cad>49</ns3:cad>
          </ns3:TrackPointExtension>
        </extensions>
      </trkpt>
      <trkpt lat="43.4813146479427814483642578125" lon="1.43772563897073268890380859375">
        <ele>239</ele>
        <time>2026-08-05T09:08:23.000Z</time>
        <extensions>
          <ns3:TrackPointExtension>
            <ns3:hr>104</ns3:hr>
            <ns3:cad>50</ns3:cad>
          </ns3:TrackPointExtension>
        </extensions>
      </trkpt>
      <trkpt lat="43.48131389357149600982666015625" lon="1.43770803697407245635986328125">
        <ele>239.1999969482421875</ele>
        <time>2026-08-05T09:08:24.000Z</time>
        <extensions>
          <ns3:TrackPointExtension>
            <ns3:hr>104</ns3:hr>
            <ns3:cad>49</ns3:cad>
          </ns3:TrackPointExtension>
        </extensions>
      </trkpt>
      <trkpt lat="43.48131758160889148712158203125" lon="1.43769278191030025482177734375">
        <ele>239.399993896484375</ele>
        <time>2026-08-05T09:08:25.000Z</time>
        <extensions>
          <ns3:TrackPointExtension>
            <ns3:hr>104</ns3:hr>
            <ns3:cad>49</ns3:cad>
          </ns3:TrackPointExtension>
        </extensions>
      </trkpt>
      <trkpt lat="43.48131716251373291015625" lon="1.4376823045313358306884765625">
        <ele>239.399993896484375</ele>
        <time>2026-08-05T09:08:26.000Z</time>
        <extensions>
          <ns3:TrackPointExtension>
            <ns3:hr>103</ns3:hr>
            <ns3:cad>49</ns3:cad>
          </ns3:TrackPointExtension>
        </extensions>
      </trkpt>
      <trkpt lat="43.48131875507533550262451171875" lon="1.4376678876578807830810546875">
        <ele>239.399993896484375</ele>
        <time>2026-08-05T09:08:27.000Z</time>
        <extensions>
          <ns3:TrackPointExtension>
            <ns3:hr>104</ns3:hr>
            <ns3:cad>50</ns3:cad>
          </ns3:TrackPointExtension>
        </extensions>
      </trkpt>
      <trkpt lat="43.48131917417049407958984375" lon="1.4376487769186496734619140625">
        <ele>239.600006103515625</ele>
        <time>2026-08-05T09:08:28.000Z</time>
        <extensions>
          <ns3:TrackPointExtension>
            <ns3:hr>104</ns3:hr>
            <ns3:cad>52</ns3:cad>
          </ns3:TrackPointExtension>
        </extensions>
      </trkpt>
      <trkpt lat="43.48132026381790637969970703125" lon="1.43763075582683086395263671875">
        <ele>239.8000030517578125</ele>
        <time>2026-08-05T09:08:29.000Z</time>
        <extensions>
          <ns3:TrackPointExtension>
            <ns3:hr>104</ns3:hr>
            <ns3:cad>52</ns3:cad>
          </ns3:TrackPointExtension>
        </extensions>
      </trkpt>
      <trkpt lat="43.4813237003982067108154296875" lon="1.4376172609627246856689453125">
        <ele>239.8000030517578125</ele>
        <time>2026-08-05T09:08:30.000Z</time>
        <extensions>
          <ns3:TrackPointExtension>
            <ns3:hr>105</ns3:hr>
            <ns3:cad>50</ns3:cad>
          </ns3:TrackPointExtension>
        </extensions>
      </trkpt>
      <trkpt lat="43.48132244311273097991943359375" lon="1.4376068674027919769287109375">
        <ele>240</ele>
        <time>2026-08-05T09:08:31.000Z</time>
        <extensions>
          <ns3:TrackPointExtension>
            <ns3:hr>105</ns3:hr>
            <ns3:cad>49</ns3:cad>
          </ns3:TrackPointExtension>
        </extensions>
      </trkpt>
      <trkpt lat="43.48132428713142871856689453125" lon="1.4375951327383518218994140625">
        <ele>240.1999969482421875</ele>
        <time>2026-08-05T09:08:32.000Z</time>
        <extensions>
          <ns3:TrackPointExtension>
            <ns3:hr>105</ns3:hr>
            <ns3:cad>49</ns3:cad>
          </ns3:TrackPointExtension>
        </extensions>
      </trkpt>
      <trkpt lat="43.4813253767788410186767578125" lon="1.43757359124720096588134765625">
        <ele>240.399993896484375</ele>
        <time>2026-08-05T09:08:33.000Z</time>
        <extensions>
          <ns3:TrackPointExtension>
            <ns3:hr>105</ns3:hr>
            <ns3:cad>49</ns3:cad>
          </ns3:TrackPointExtension>
        </extensions>
      </trkpt>
      <trkpt lat="43.48132512532174587249755859375" lon="1.43754945136606693267822265625">
        <ele>240.399993896484375</ele>
        <time>2026-08-05T09:08:34.000Z</time>
        <extensions>
          <ns3:TrackPointExtension>
            <ns3:hr>105</ns3:hr>
            <ns3:cad>49</ns3:cad>
          </ns3:TrackPointExtension>
        </extensions>
      </trkpt>
      <trkpt lat="43.48132763989269733428955078125" lon="1.43752782605588436126708984375">
        <ele>240.600006103515625</ele>
        <time>2026-08-05T09:08:35.000Z</time>
        <extensions>
          <ns3:TrackPointExtension>
            <ns3:hr>105</ns3:hr>
            <ns3:cad>49</ns3:cad>
          </ns3:TrackPointExtension>
        </extensions>
      </trkpt>
      <trkpt lat="43.48133099265396595001220703125" lon="1.43751340918242931365966796875">
        <ele>240.600006103515625</ele>
        <time>2026-08-05T09:08:36.000Z</time>
        <extensions>
          <ns3:TrackPointExtension>
            <ns3:hr>106</ns3:hr>
            <ns3:cad>49</ns3:cad>
          </ns3:TrackPointExtension>
        </extensions>
      </trkpt>
      <trkpt lat="43.481332920491695404052734375" lon="1.4375059492886066436767578125">
        <ele>240.600006103515625</ele>
        <time>2026-08-05T09:08:37.000Z</time>
        <extensions>
          <ns3:TrackPointExtension>
            <ns3:hr>106</ns3:hr>
            <ns3:cad>49</ns3:cad>
          </ns3:TrackPointExtension>
        </extensions>
      </trkpt>
      <trkpt lat="43.48133518360555171966552734375" lon="1.4374937117099761962890625">
        <ele>240.8000030517578125</ele>
        <time>2026-08-05T09:08:38.000Z</time>
        <extensions>
          <ns3:TrackPointExtension>
            <ns3:hr>106</ns3:hr>
            <ns3:cad>50</ns3:cad>
          </ns3:TrackPointExtension>
        </extensions>
      </trkpt>
      <trkpt lat="43.4813372790813446044921875" lon="1.4374754391610622406005859375">
        <ele>240.8000030517578125</ele>
        <time>2026-08-05T09:08:39.000Z</time>
        <extensions>
          <ns3:TrackPointExtension>
            <ns3:hr>107</ns3:hr>
            <ns3:cad>50</ns3:cad>
          </ns3:TrackPointExtension>
        </extensions>
      </trkpt>
      <trkpt lat="43.48133870400488376617431640625" lon="1.4374536462128162384033203125">
        <ele>240.8000030517578125</ele>
        <time>2026-08-05T09:08:40.000Z</time>
        <extensions>
          <ns3:TrackPointExtension>
            <ns3:hr>108</ns3:hr>
            <ns3:cad>50</ns3:cad>
          </ns3:TrackPointExtension>
        </extensions>
      </trkpt>
      <trkpt lat="43.48133836872875690460205078125" lon="1.43743403255939483642578125">
        <ele>241</ele>
        <time>2026-08-05T09:08:41.000Z</time>
        <extensions>
          <ns3:TrackPointExtension>
            <ns3:hr>108</ns3:hr>
            <ns3:cad>49</ns3:cad>
          </ns3:TrackPointExtension>
        </extensions>
      </trkpt>
      <trkpt lat="43.481341637670993804931640625" lon="1.43741617910563945770263671875">
        <ele>241</ele>
        <time>2026-08-05T09:08:42.000Z</time>
        <extensions>
          <ns3:TrackPointExtension>
            <ns3:hr>107</ns3:hr>
            <ns3:cad>49</ns3:cad>
          </ns3:TrackPointExtension>
        </extensions>
      </trkpt>
      <trkpt lat="43.48134473897516727447509765625" lon="1.437406204640865325927734375">
        <ele>241.1999969482421875</ele>
        <time>2026-08-05T09:08:43.000Z</time>
        <extensions>
          <ns3:TrackPointExtension>
            <ns3:hr>107</ns3:hr>
            <ns3:cad>50</ns3:cad>
          </ns3:TrackPointExtension>
        </extensions>
      </trkpt>
      <trkpt lat="43.48134658299386501312255859375" lon="1.4373998343944549560546875">
        <ele>241.399993896484375</ele>
        <time>2026-08-05T09:08:44.000Z</time>
        <extensions>
          <ns3:TrackPointExtension>
            <ns3:hr>107</ns3:hr>
            <ns3:cad>50</ns3:cad>
          </ns3:TrackPointExtension>
        </extensions>
      </trkpt>
      <trkpt lat="43.4813498519361019134521484375" lon="1.4373822323977947235107421875">
        <ele>241.399993896484375</ele>
        <time>2026-08-05T09:08:45.000Z</time>
        <extensions>
          <ns3:TrackPointExtension>
            <ns3:hr>108</ns3:hr>
            <ns3:cad>50</ns3:cad>
          </ns3:TrackPointExtension>
        </extensions>
      </trkpt>
      <trkpt lat="43.48135278560221195220947265625" lon="1.437359265983104705810546875">
        <ele>241.8000030517578125</ele>
        <time>2026-08-05T09:08:46.000Z</time>
        <extensions>
          <ns3:TrackPointExtension>
            <ns3:hr>108</ns3:hr>
            <ns3:cad>50</ns3:cad>
          </ns3:TrackPointExtension>
        </extensions>
      </trkpt>
      <trkpt lat="43.4813555516302585601806640625" lon="1.43733839504420757293701171875">
        <ele>241.8000030517578125</ele>
        <time>2026-08-05T09:08:47.000Z</time>
        <extensions>
          <ns3:TrackPointExtension>
            <ns3:hr>108</ns3:hr>
            <ns3:cad>50</ns3:cad>
          </ns3:TrackPointExtension>
        </extensions>
      </trkpt>
      <trkpt lat="43.481357395648956298828125" lon="1.43731961958110332489013671875">
        <ele>242</ele>
        <time>2026-08-05T09:08:48.000Z</time>
        <extensions>
          <ns3:TrackPointExtension>
            <ns3:hr>107</ns3:hr>
            <ns3:cad>50</ns3:cad>
          </ns3:TrackPointExtension>
        </extensions>
      </trkpt>
      <trkpt lat="43.4813614189624786376953125" lon="1.43730972893536090850830078125">
        <ele>242.1999969482421875</ele>
        <time>2026-08-05T09:08:49.000Z</time>
        <extensions>
          <ns3:TrackPointExtension>
            <ns3:hr>108</ns3:hr>
            <ns3:cad>50</ns3:cad>
          </ns3:TrackPointExtension>
        </extensions>
      </trkpt>
      <trkpt lat="43.4813635982573032379150390625" lon="1.437304280698299407958984375">
        <ele>242.399993896484375</ele>
        <time>2026-08-05T09:08:50.000Z</time>
        <extensions>
          <ns3:TrackPointExtension>
            <ns3:hr>108</ns3:hr>
            <ns3:cad>50</ns3:cad>
          </ns3:TrackPointExtension>
        </extensions>
      </trkpt>
      <trkpt lat="43.48136535845696926116943359375" lon="1.43729648552834987640380859375">
        <ele>242.399993896484375</ele>
        <time>2026-08-05T09:08:51.000Z</time>
        <extensions>
          <ns3:TrackPointExtension>
            <ns3:hr>108</ns3:hr>
            <ns3:cad>50</ns3:cad>
          </ns3:TrackPointExtension>
        </extensions>
      </trkpt>
      <trkpt lat="43.4813676215708255767822265625" lon="1.4372803084552288055419921875">
        <ele>242.600006103515625</ele>
        <time>2026-08-05T09:08:52.000Z</time>
        <extensions>
          <ns3:TrackPointExtension>
            <ns3:hr>108</ns3:hr>
            <ns3:cad>50</ns3:cad>
          </ns3:TrackPointExtension>
        </extensions>
      </trkpt>
      <trkpt lat="43.4813703037798404693603515625" lon="1.43725968897342681884765625">
        <ele>242.8000030517578125</ele>
        <time>2026-08-05T09:08:53.000Z</time>
        <extensions>
          <ns3:TrackPointExtension>
            <ns3:hr>109</ns3:hr>
            <ns3:cad>50</ns3:cad>
          </ns3:TrackPointExtension>
        </extensions>
      </trkpt>
      <trkpt lat="43.48137206397950649261474609375" lon="1.4372387342154979705810546875">
        <ele>242.8000030517578125</ele>
        <time>2026-08-05T09:08:54.000Z</time>
        <extensions>
          <ns3:TrackPointExtension>
            <ns3:hr>109</ns3:hr>
            <ns3:cad>50</ns3:cad>
          </ns3:TrackPointExtension>
        </extensions>
      </trkpt>
      <trkpt lat="43.481376506388187408447265625" lon="1.437219791114330291748046875">
        <ele>243</ele>
        <time>2026-08-05T09:08:55.000Z</time>
        <extensions>
          <ns3:TrackPointExtension>
            <ns3:hr>109</ns3:hr>
            <ns3:cad>50</ns3:cad>
          </ns3:TrackPointExtension>
        </extensions>
      </trkpt>
      <trkpt lat="43.4813813678920269012451171875" lon="1.43720562569797039031982421875">
        <ele>243.1999969482421875</ele>
        <time>2026-08-05T09:08:56.000Z</time>
        <extensions>
          <ns3:TrackPointExtension>
            <ns3:hr>109</ns3:hr>
            <ns3:cad>51</ns3:cad>
          </ns3:TrackPointExtension>
        </extensions>
      </trkpt>
      <trkpt lat="43.48138488829135894775390625" lon="1.4371964894235134124755859375">
        <ele>243.1999969482421875</ele>
        <time>2026-08-05T09:08:57.000Z</time>
        <extensions>
          <ns3:TrackPointExtension>
            <ns3:hr>109</ns3:hr>
            <ns3:cad>50</ns3:cad>
          </ns3:TrackPointExtension>
        </extensions>
      </trkpt>
      <trkpt lat="43.4813868999481201171875" lon="1.4371810667216777801513671875">
        <ele>243.399993896484375</ele>
        <time>2026-08-05T09:08:58.000Z</time>
        <extensions>
          <ns3:TrackPointExtension>
            <ns3:hr>109</ns3:hr>
            <ns3:cad>51</ns3:cad>
          </ns3:TrackPointExtension>
        </extensions>
      </trkpt>
      <trkpt lat="43.48138891160488128662109375" lon="1.4371599443256855010986328125">
        <ele>243.399993896484375</ele>
        <time>2026-08-05T09:08:59.000Z</time>
        <extensions>
          <ns3:TrackPointExtension>
            <ns3:hr>108</ns3:hr>
            <ns3:cad>51</ns3:cad>
          </ns3:TrackPointExtension>
        </extensions>
      </trkpt>
      <trkpt lat="43.48139016889035701751708984375" lon="1.437137983739376068115234375">
        <ele>243.600006103515625</ele>
        <time>2026-08-05T09:09:00.000Z</time>
        <extensions>
          <ns3:TrackPointExtension>
            <ns3:hr>109</ns3:hr>
            <ns3:cad>51</ns3:cad>
          </ns3:TrackPointExtension>
        </extensions>
      </trkpt>
      <trkpt lat="43.481394611299037933349609375" lon="1.43711811862885951995849609375">
        <ele>243.8000030517578125</ele>
        <time>2026-08-05T09:09:01.000Z</time>
        <extensions>
          <ns3:TrackPointExtension>
            <ns3:hr>109</ns3:hr>
            <ns3:cad>51</ns3:cad>
          </ns3:TrackPointExtension>
        </extensions>
      </trkpt>
      <trkpt lat="43.4813981316983699798583984375" lon="1.43710219301283359527587890625">
        <ele>243.8000030517578125</ele>
        <time>2026-08-05T09:09:02.000Z</time>
        <extensions>
          <ns3:TrackPointExtension>
            <ns3:hr>109</ns3:hr>
            <ns3:cad>51</ns3:cad>
          </ns3:TrackPointExtension>
        </extensions>
      </trkpt>
      <trkpt lat="43.48139771260321140289306640625" lon="1.43708811141550540924072265625">
        <ele>244</ele>
        <time>2026-08-05T09:09:03.000Z</time>
        <extensions>
          <ns3:TrackPointExtension>
            <ns3:hr>109</ns3:hr>
            <ns3:cad>51</ns3:cad>
          </ns3:TrackPointExtension>
        </extensions>
      </trkpt>
      <trkpt lat="43.48140039481222629547119140625" lon="1.4370744489133358001708984375">
        <ele>244.1999969482421875</ele>
        <time>2026-08-05T09:09:04.000Z</time>
        <extensions>
          <ns3:TrackPointExtension>
            <ns3:hr>110</ns3:hr>
            <ns3:cad>51</ns3:cad>
          </ns3:TrackPointExtension>
        </extensions>
      </trkpt>
      <trkpt lat="43.48140156827867031097412109375" lon="1.43705860711634159088134765625">
        <ele>244.1999969482421875</ele>
        <time>2026-08-05T09:09:05.000Z</time>
        <extensions>
          <ns3:TrackPointExtension>
            <ns3:hr>110</ns3:hr>
            <ns3:cad>51</ns3:cad>
          </ns3:TrackPointExtension>
        </extensions>
      </trkpt>
      <trkpt lat="43.48140307702124118804931640625" lon="1.4370379038155078887939453125">
        <ele>244.1999969482421875</ele>
        <time>2026-08-05T09:09:06.000Z</time>
        <extensions>
          <ns3:TrackPointExtension>
            <ns3:hr>111</ns3:hr>
            <ns3:cad>51</ns3:cad>
          </ns3:TrackPointExtension>
        </extensions>
      </trkpt>
      <trkpt lat="43.4814055077731609344482421875" lon="1.4370184578001499176025390625">
        <ele>244.399993896484375</ele>
        <time>2026-08-05T09:09:07.000Z</time>
        <extensions>
          <ns3:TrackPointExtension>
            <ns3:hr>111</ns3:hr>
            <ns3:cad>51</ns3:cad>
          </ns3:TrackPointExtension>
        </extensions>
      </trkpt>
      <trkpt lat="43.4814078547060489654541015625" lon="1.4370028674602508544921875">
        <ele>244.8000030517578125</ele>
        <time>2026-08-05T09:09:08.000Z</time>
        <extensions>
          <ns3:TrackPointExtension>
            <ns3:hr>111</ns3:hr>
            <ns3:cad>51</ns3:cad>
          </ns3:TrackPointExtension>
        </extensions>
      </trkpt>
      <trkpt lat="43.48141095601022243499755859375" lon="1.43699037842452526092529296875">
        <ele>245</ele>
        <time>2026-08-05T09:09:09.000Z</time>
        <extensions>
          <ns3:TrackPointExtension>
            <ns3:hr>112</ns3:hr>
            <ns3:cad>51</ns3:cad>
          </ns3:TrackPointExtension>
        </extensions>
      </trkpt>
      <trkpt lat="43.4814132191240787506103515625" lon="1.43698099069297313690185546875">
        <ele>245.1999969482421875</ele>
        <time>2026-08-05T09:09:10.000Z</time>
        <extensions>
          <ns3:TrackPointExtension>
            <ns3:hr>112</ns3:hr>
            <ns3:cad>51</ns3:cad>
          </ns3:TrackPointExtension>
        </extensions>
      </trkpt>
      <trkpt lat="43.4814152307808399200439453125" lon="1.43696623854339122772216796875">
        <ele>245.1999969482421875</ele>
        <time>2026-08-05T09:09:11.000Z</time>
        <extensions>
          <ns3:TrackPointExtension>
            <ns3:hr>112</ns3:hr>
            <ns3:cad>51</ns3:cad>
          </ns3:TrackPointExtension>
        </extensions>
      </trkpt>
      <trkpt lat="43.4814165718853473663330078125" lon="1.436942853033542633056640625">
        <ele>245.399993896484375</ele>
        <time>2026-08-05T09:09:12.000Z</time>
        <extensions>
          <ns3:TrackPointExtension>
            <ns3:hr>112</ns3:hr>
            <ns3:cad>50</ns3:cad>
          </ns3:TrackPointExtension>
        </extensions>
      </trkpt>
      <trkpt lat="43.4814169071614742279052734375" lon="1.43692214973270893096923828125">
        <ele>245.399993896484375</ele>
        <time>2026-08-05T09:09:13.000Z</time>
        <extensions>
          <ns3:TrackPointExtension>
            <ns3:hr>113</ns3:hr>
            <ns3:cad>50</ns3:cad>
          </ns3:TrackPointExtension>
        </extensions>
      </trkpt>
      <trkpt lat="43.48142034374177455902099609375" lon="1.43690354190766811370849609375">
        <ele>245.399993896484375</ele>
        <time>2026-08-05T09:09:14.000Z</time>
        <extensions>
          <ns3:TrackPointExtension>
            <ns3:hr>113</ns3:hr>
            <ns3:cad>50</ns3:cad>
          </ns3:TrackPointExtension>
        </extensions>
      </trkpt>
      <trkpt lat="43.4814236126840114593505859375" lon="1.43688644282519817352294921875">
        <ele>245.600006103515625</ele>
        <time>2026-08-05T09:09:15.000Z</time>
        <extensions>
          <ns3:TrackPointExtension>
            <ns3:hr>113</ns3:hr>
            <ns3:cad>50</ns3:cad>
          </ns3:TrackPointExtension>
        </extensions>
      </trkpt>
      <trkpt lat="43.48143073730170726776123046875" lon="1.4368741214275360107421875">
        <ele>245.8000030517578125</ele>
        <time>2026-08-05T09:09:16.000Z</time>
        <extensions>
          <ns3:TrackPointExtension>
            <ns3:hr>114</ns3:hr>
            <ns3:cad>50</ns3:cad>
          </ns3:TrackPointExtension>
        </extensions>
      </trkpt>
      <trkpt lat="43.4814340062439441680908203125" lon="1.43686163239181041717529296875">
        <ele>246</ele>
        <time>2026-08-05T09:09:17.000Z</time>
        <extensions>
          <ns3:TrackPointExtension>
            <ns3:hr>114</ns3:hr>
            <ns3:cad>50</ns3:cad>
          </ns3:TrackPointExtension>
        </extensions>
      </trkpt>
      <trkpt lat="43.4814363531768321990966796875" lon="1.43684319220483303070068359375">
        <ele>246</ele>
        <time>2026-08-05T09:09:18.000Z</time>
        <extensions>
          <ns3:TrackPointExtension>
            <ns3:hr>114</ns3:hr>
            <ns3:cad>50</ns3:cad>
          </ns3:TrackPointExtension>
        </extensions>
      </trkpt>
      <trkpt lat="43.481437861919403076171875" lon="1.4368239976465702056884765625">
        <ele>246.1999969482421875</ele>
        <time>2026-08-05T09:09:19.000Z</time>
        <extensions>
          <ns3:TrackPointExtension>
            <ns3:hr>114</ns3:hr>
            <ns3:cad>50</ns3:cad>
          </ns3:TrackPointExtension>
        </extensions>
      </trkpt>
      <trkpt lat="43.481438197195529937744140625" lon="1.4368065632879734039306640625">
        <ele>246.1999969482421875</ele>
        <time>2026-08-05T09:09:20.000Z</time>
        <extensions>
          <ns3:TrackPointExtension>
            <ns3:hr>113</ns3:hr>
            <ns3:cad>51</ns3:cad>
          </ns3:TrackPointExtension>
        </extensions>
      </trkpt>
      <trkpt lat="43.481441549956798553466796875" lon="1.4367891289293766021728515625">
        <ele>246.399993896484375</ele>
        <time>2026-08-05T09:09:21.000Z</time>
        <extensions>
          <ns3:TrackPointExtension>
            <ns3:hr>113</ns3:hr>
            <ns3:cad>51</ns3:cad>
          </ns3:TrackPointExtension>
        </extensions>
      </trkpt>
      <trkpt lat="43.48144414834678173065185546875" lon="1.43677420914173126220703125">
        <ele>246.399993896484375</ele>
        <time>2026-08-05T09:09:22.000Z</time>
        <extensions>
          <ns3:TrackPointExtension>
            <ns3:hr>113</ns3:hr>
            <ns3:cad>51</ns3:cad>
          </ns3:TrackPointExtension>
        </extensions>
      </trkpt>
      <trkpt lat="43.4814460761845111846923828125" lon="1.4367673359811305999755859375">
        <ele>246.600006103515625</ele>
        <time>2026-08-05T09:09:23.000Z</time>
        <extensions>
          <ns3:TrackPointExtension>
            <ns3:hr>113</ns3:hr>
            <ns3:cad>51</ns3:cad>
          </ns3:TrackPointExtension>
        </extensions>
      </trkpt>
      <trkpt lat="43.481448255479335784912109375" lon="1.43675250001251697540283203125">
        <ele>246.8000030517578125</ele>
        <time>2026-08-05T09:09:24.000Z</time>
        <extensions>
          <ns3:TrackPointExtension>
            <ns3:hr>113</ns3:hr>
            <ns3:cad>51</ns3:cad>
          </ns3:TrackPointExtension>
        </extensions>
      </trkpt>
      <trkpt lat="43.48144951276481151580810546875" lon="1.436732299625873565673828125">
        <ele>246.8000030517578125</ele>
        <time>2026-08-05T09:09:25.000Z</time>
        <extensions>
          <ns3:TrackPointExtension>
            <ns3:hr>112</ns3:hr>
            <ns3:cad>50</ns3:cad>
          </ns3:TrackPointExtension>
        </extensions>
      </trkpt>
      <trkpt lat="43.4814499318599700927734375" lon="1.43671109341084957122802734375">
        <ele>247</ele>
        <time>2026-08-05T09:09:26.000Z</time>
        <extensions>
          <ns3:TrackPointExtension>
            <ns3:hr>113</ns3:hr>
            <ns3:cad>50</ns3:cad>
          </ns3:TrackPointExtension>
        </extensions>
      </trkpt>
      <trkpt lat="43.4814507700502872467041015625" lon="1.43669307231903076171875">
        <ele>247</ele>
        <time>2026-08-05T09:09:27.000Z</time>
        <extensions>
          <ns3:TrackPointExtension>
            <ns3:hr>113</ns3:hr>
            <ns3:cad>49</ns3:cad>
          </ns3:TrackPointExtension>
        </extensions>
      </trkpt>
      <trkpt lat="43.48145353607833385467529296875" lon="1.4366771467030048370361328125">
        <ele>247.1999969482421875</ele>
        <time>2026-08-05T09:09:28.000Z</time>
        <extensions>
          <ns3:TrackPointExtension>
            <ns3:hr>112</ns3:hr>
            <ns3:cad>49</ns3:cad>
          </ns3:TrackPointExtension>
        </extensions>
      </trkpt>
      <trkpt lat="43.4814581461250782012939453125" lon="1.4366637356579303741455078125">
        <ele>247.1999969482421875</ele>
        <time>2026-08-05T09:09:29.000Z</time>
        <extensions>
          <ns3:TrackPointExtension>
            <ns3:hr>113</ns3:hr>
            <ns3:cad>49</ns3:cad>
          </ns3:TrackPointExtension>
        </extensions>
      </trkpt>
      <trkpt lat="43.481460995972156524658203125" lon="1.4366479776799678802490234375">
        <ele>247.399993896484375</ele>
        <time>2026-08-05T09:09:30.000Z</time>
        <extensions>
          <ns3:TrackPointExtension>
            <ns3:hr>113</ns3:hr>
            <ns3:cad>50</ns3:cad>
          </ns3:TrackPointExtension>
        </extensions>
      </trkpt>
      <trkpt lat="43.481461666524410247802734375" lon="1.4366281963884830474853515625">
        <ele>247.600006103515625</ele>
        <time>2026-08-05T09:09:31.000Z</time>
        <extensions>
          <ns3:TrackPointExtension>
            <ns3:hr>113</ns3:hr>
            <ns3:cad>50</ns3:cad>
          </ns3:TrackPointExtension>
        </extensions>
      </trkpt>
      <trkpt lat="43.48146175034344196319580078125" lon="1.43661118112504482269287109375">
        <ele>247.8000030517578125</ele>
        <time>2026-08-05T09:09:32.000Z</time>
        <extensions>
          <ns3:TrackPointExtension>
            <ns3:hr>113</ns3:hr>
            <ns3:cad>50</ns3:cad>
          </ns3:TrackPointExtension>
        </extensions>
      </trkpt>
      <trkpt lat="43.48146292380988597869873046875" lon="1.436594165861606597900390625">
        <ele>248</ele>
        <time>2026-08-05T09:09:33.000Z</time>
        <extensions>
          <ns3:TrackPointExtension>
            <ns3:hr>113</ns3:hr>
            <ns3:cad>50</ns3:cad>
          </ns3:TrackPointExtension>
        </extensions>
      </trkpt>
      <trkpt lat="43.48146460019052028656005859375" lon="1.4365799166262149810791015625">
        <ele>248.1999969482421875</ele>
        <time>2026-08-05T09:09:34.000Z</time>
        <extensions>
          <ns3:TrackPointExtension>
            <ns3:hr>113</ns3:hr>
            <ns3:cad>49</ns3:cad>
          </ns3:TrackPointExtension>
        </extensions>
      </trkpt>
      <trkpt lat="43.4814651869237422943115234375" lon="1.43657044507563114166259765625">
        <ele>248.399993896484375</ele>
        <time>2026-08-05T09:09:35.000Z</time>
        <extensions>
          <ns3:TrackPointExtension>
            <ns3:hr>113</ns3:hr>
            <ns3:cad>49</ns3:cad>
          </ns3:TrackPointExtension>
        </extensions>
      </trkpt>
      <trkpt lat="43.48146443255245685577392578125" lon="1.43655695021152496337890625">
        <ele>248.600006103515625</ele>
        <time>2026-08-05T09:09:36.000Z</time>
        <extensions>
          <ns3:TrackPointExtension>
            <ns3:hr>113</ns3:hr>
            <ns3:cad>49</ns3:cad>
          </ns3:TrackPointExtension>
        </extensions>
      </trkpt>
      <trkpt lat="43.4814628399908542633056640625" lon="1.436538510024547576904296875">
        <ele>248.8000030517578125</ele>
        <time>2026-08-05T09:09:37.000Z</time>
        <extensions>
          <ns3:TrackPointExtension>
            <ns3:hr>113</ns3:hr>
            <ns3:cad>50</ns3:cad>
          </ns3:TrackPointExtension>
        </extensions>
      </trkpt>
      <trkpt lat="43.481459654867649078369140625" lon="1.4365178905427455902099609375">
        <ele>249</ele>
        <time>2026-08-05T09:09:38.000Z</time>
        <extensions>
          <ns3:TrackPointExtension>
            <ns3:hr>114</ns3:hr>
            <ns3:cad>50</ns3:cad>
          </ns3:TrackPointExtension>
        </extensions>
      </trkpt>
      <trkpt lat="43.48145856522023677825927734375" lon="1.43650062382221221923828125">
        <ele>249</ele>
        <time>2026-08-05T09:09:39.000Z</time>
        <extensions>
          <ns3:TrackPointExtension>
            <ns3:hr>113</ns3:hr>
            <ns3:cad>50</ns3:cad>
          </ns3:TrackPointExtension>
        </extensions>
      </trkpt>
      <trkpt lat="43.4814584814012050628662109375" lon="1.43648612312972545623779296875">
        <ele>249.1999969482421875</ele>
        <time>2026-08-05T09:09:40.000Z</time>
        <extensions>
          <ns3:TrackPointExtension>
            <ns3:hr>113</ns3:hr>
            <ns3:cad>50</ns3:cad>
          </ns3:TrackPointExtension>
        </extensions>
      </trkpt>
      <trkpt lat="43.48146024160087108612060546875" lon="1.43647388555109500885009765625">
        <ele>249.1999969482421875</ele>
        <time>2026-08-05T09:09:41.000Z</time>
        <extensions>
          <ns3:TrackPointExtension>
            <ns3:hr>114</ns3:hr>
            <ns3:cad>51</ns3:cad>
          </ns3:TrackPointExtension>
        </extensions>
      </trkpt>
      <trkpt lat="43.48145789466798305511474609375" lon="1.43645770847797393798828125">
        <ele>249.399993896484375</ele>
        <time>2026-08-05T09:09:42.000Z</time>
        <extensions>
          <ns3:TrackPointExtension>
            <ns3:hr>113</ns3:hr>
            <ns3:cad>51</ns3:cad>
          </ns3:TrackPointExtension>
        </extensions>
      </trkpt>
      <trkpt lat="43.4814537875354290008544921875" lon="1.4364344067871570587158203125">
        <ele>249.399993896484375</ele>
        <time>2026-08-05T09:09:43.000Z</time>
        <extensions>
          <ns3:TrackPointExtension>
            <ns3:hr>114</ns3:hr>
            <ns3:cad>51</ns3:cad>
          </ns3:TrackPointExtension>
        </extensions>
      </trkpt>
      <trkpt lat="43.4814497642219066619873046875" lon="1.43642376177012920379638671875">
        <ele>249.600006103515625</ele>
        <time>2026-08-05T09:09:44.000Z</time>
        <extensions>
          <ns3:TrackPointExtension>
            <ns3:hr>114</ns3:hr>
            <ns3:cad>51</ns3:cad>
          </ns3:TrackPointExtension>
        </extensions>
      </trkpt>
      <trkpt lat="43.4814514406025409698486328125" lon="1.4364109374582767486572265625">
        <ele>249.8000030517578125</ele>
        <time>2026-08-05T09:09:45.000Z</time>
        <extensions>
          <ns3:TrackPointExtension>
            <ns3:hr>114</ns3:hr>
            <ns3:cad>50</ns3:cad>
          </ns3:TrackPointExtension>
        </extensions>
      </trkpt>
      <trkpt lat="43.48145202733576297760009765625" lon="1.43640448339283466339111328125">
        <ele>250</ele>
        <time>2026-08-05T09:09:46.000Z</time>
        <extensions>
          <ns3:TrackPointExtension>
            <ns3:hr>114</ns3:hr>
            <ns3:cad>50</ns3:cad>
          </ns3:TrackPointExtension>
        </extensions>
      </trkpt>
      <trkpt lat="43.48145035095512866973876953125" lon="1.43639995716512203216552734375">
        <ele>250</ele>
        <time>2026-08-05T09:09:47.000Z</time>
        <extensions>
          <ns3:TrackPointExtension>
            <ns3:hr>114</ns3:hr>
            <ns3:cad>50</ns3:cad>
          </ns3:TrackPointExtension>
        </extensions>
      </trkpt>
      <trkpt lat="43.48144926130771636962890625" lon="1.4363958500325679779052734375">
        <ele>250</ele>
        <time>2026-08-05T09:09:48.000Z</time>
        <extensions>
          <ns3:TrackPointExtension>
            <ns3:hr>114</ns3:hr>
            <ns3:cad>0</ns3:cad>
          </ns3:TrackPointExtension>
        </extensions>
      </trkpt>
      <trkpt lat="43.48144900985062122344970703125" lon="1.43639811314642429351806640625">
        <ele>250</ele>
        <time>2026-08-05T09:09:49.000Z</time>
        <extensions>
          <ns3:TrackPointExtension>
            <ns3:hr>114</ns3:hr>
            <ns3:cad>0</ns3:cad>
          </ns3:TrackPointExtension>
        </extensions>
      </trkpt>
      <trkpt lat="43.48144884221255779266357421875" lon="1.43640004098415374755859375">
        <ele>250</ele>
        <time>2026-08-05T09:09:50.000Z</time>
        <extensions>
          <ns3:TrackPointExtension>
            <ns3:hr>114</ns3:hr>
            <ns3:cad>0</ns3:cad>
          </ns3:TrackPointExtension>
        </extensions>
      </trkpt>
      <trkpt lat="43.48144850693643093109130859375" lon="1.43639744259417057037353515625">
        <ele>249.8000030517578125</ele>
        <time>2026-08-05T09:09:51.000Z</time>
        <extensions>
          <ns3:TrackPointExtension>
            <ns3:hr>114</ns3:hr>
            <ns3:cad>0</ns3:cad>
          </ns3:TrackPointExtension>
        </extensions>
      </trkpt>
      <trkpt lat="43.4814480878412723541259765625" lon="1.43639358691871166229248046875">
        <ele>249.8000030517578125</ele>
        <time>2026-08-05T09:09:52.000Z</time>
        <extensions>
          <ns3:TrackPointExtension>
            <ns3:hr>114</ns3:hr>
            <ns3:cad>0</ns3:cad>
          </ns3:TrackPointExtension>
        </extensions>
      </trkpt>
      <trkpt lat="43.4814477525651454925537109375" lon="1.43638973124325275421142578125">
        <ele>249.600006103515625</ele>
        <time>2026-08-05T09:09:53.000Z</time>
        <extensions>
          <ns3:TrackPointExtension>
            <ns3:hr>114</ns3:hr>
            <ns3:cad>0</ns3:cad>
          </ns3:TrackPointExtension>
        </extensions>
      </trkpt>
      <trkpt lat="43.4814470820128917694091796875" lon="1.4363878034055233001708984375">
        <ele>249.600006103515625</ele>
        <time>2026-08-05T09:09:54.000Z</time>
        <extensions>
          <ns3:TrackPointExtension>
            <ns3:hr>114</ns3:hr>
            <ns3:cad>0</ns3:cad>
          </ns3:TrackPointExtension>
        </extensions>
      </trkpt>
      <trkpt lat="43.48144699819386005401611328125" lon="1.43638805486261844635009765625">
        <ele>249.600006103515625</ele>
        <time>2026-08-05T09:09:55.000Z</time>
        <extensions>
          <ns3:TrackPointExtension>
            <ns3:hr>114</ns3:hr>
            <ns3:cad>0</ns3:cad>
          </ns3:TrackPointExtension>
        </extensions>
      </trkpt>
      <trkpt lat="43.48144666291773319244384765625" lon="1.43638839013874530792236328125">
        <ele>249.600006103515625</ele>
        <time>2026-08-05T09:09:56.000Z</time>
        <extensions>
          <ns3:TrackPointExtension>
            <ns3:hr>113</ns3:hr>
            <ns3:cad>0</ns3:cad>
          </ns3:TrackPointExtension>
        </extensions>
      </trkpt>
      <trkpt lat="43.48144657909870147705078125" lon="1.43638839013874530792236328125">
        <ele>249.600006103515625</ele>
        <time>2026-08-05T09:09:57.000Z</time>
        <extensions>
          <ns3:TrackPointExtension>
            <ns3:hr>112</ns3:hr>
            <ns3:cad>0</ns3:cad>
          </ns3:TrackPointExtension>
        </extensions>
      </trkpt>
      <trkpt lat="43.48144657909870147705078125" lon="1.43638839013874530792236328125">
        <ele>249.600006103515625</ele>
        <time>2026-08-05T09:09:58.000Z</time>
        <extensions>
          <ns3:TrackPointExtension>
            <ns3:hr>112</ns3:hr>
            <ns3:cad>0</ns3:cad>
          </ns3:TrackPointExtension>
        </extensions>
      </trkpt>
      <trkpt lat="43.48144657909870147705078125" lon="1.43638839013874530792236328125">
        <ele>249.600006103515625</ele>
        <time>2026-08-05T09:09:59.000Z</time>
        <extensions>
          <ns3:TrackPointExtension>
            <ns3:hr>111</ns3:hr>
            <ns3:cad>0</ns3:cad>
          </ns3:TrackPointExtension>
        </extensions>
      </trkpt>
      <trkpt lat="43.48144657909870147705078125" lon="1.43638839013874530792236328125">
        <ele>249.600006103515625</ele>
        <time>2026-08-05T09:10:00.000Z</time>
        <extensions>
          <ns3:TrackPointExtension>
            <ns3:hr>110</ns3:hr>
            <ns3:cad>0</ns3:cad>
          </ns3:TrackPointExtension>
        </extensions>
      </trkpt>
      <trkpt lat="43.48144657909870147705078125" lon="1.43638839013874530792236328125">
        <ele>249.600006103515625</ele>
        <time>2026-08-05T09:10:01.000Z</time>
        <extensions>
          <ns3:TrackPointExtension>
            <ns3:hr>108</ns3:hr>
            <ns3:cad>0</ns3:cad>
          </ns3:TrackPointExtension>
        </extensions>
      </trkpt>
      <trkpt lat="43.48144657909870147705078125" lon="1.43638839013874530792236328125">
        <ele>249.600006103515625</ele>
        <time>2026-08-05T09:10:02.000Z</time>
        <extensions>
          <ns3:TrackPointExtension>
            <ns3:hr>107</ns3:hr>
            <ns3:cad>0</ns3:cad>
          </ns3:TrackPointExtension>
        </extensions>
      </trkpt>
      <trkpt lat="43.48144657909870147705078125" lon="1.43638839013874530792236328125">
        <ele>249.600006103515625</ele>
        <time>2026-08-05T09:10:03.000Z</time>
        <extensions>
          <ns3:TrackPointExtension>
            <ns3:hr>103</ns3:hr>
            <ns3:cad>0</ns3:cad>
          </ns3:TrackPointExtension>
        </extensions>
      </trkpt>
      <trkpt lat="43.48144657909870147705078125" lon="1.43638839013874530792236328125">
        <ele>249.600006103515625</ele>
        <time>2026-08-05T09:10:04.000Z</time>
        <extensions>
          <ns3:TrackPointExtension>
            <ns3:hr>100</ns3:hr>
            <ns3:cad>0</ns3:cad>
          </ns3:TrackPointExtension>
        </extensions>
      </trkpt>
      <trkpt lat="43.48144657909870147705078125" lon="1.43638839013874530792236328125">
        <ele>249.8000030517578125</ele>
        <time>2026-08-05T09:10:05.000Z</time>
        <extensions>
          <ns3:TrackPointExtension>
            <ns3:hr>99</ns3:hr>
            <ns3:cad>0</ns3:cad>
          </ns3:TrackPointExtension>
        </extensions>
      </trkpt>
      <trkpt lat="43.48144657909870147705078125" lon="1.43638839013874530792236328125">
        <ele>249.8000030517578125</ele>
        <time>2026-08-05T09:10:06.000Z</time>
        <extensions>
          <ns3:TrackPointExtension>
            <ns3:hr>99</ns3:hr>
            <ns3:cad>0</ns3:cad>
          </ns3:TrackPointExtension>
        </extensions>
      </trkpt>
      <trkpt lat="43.48144657909870147705078125" lon="1.43638839013874530792236328125">
        <ele>249.8000030517578125</ele>
        <time>2026-08-05T09:10:07.000Z</time>
        <extensions>
          <ns3:TrackPointExtension>
            <ns3:hr>98</ns3:hr>
            <ns3:cad>0</ns3:cad>
          </ns3:TrackPointExtension>
        </extensions>
      </trkpt>
      <trkpt lat="43.48144657909870147705078125" lon="1.43638839013874530792236328125">
        <ele>249.8000030517578125</ele>
        <time>2026-08-05T09:10:08.000Z</time>
        <extensions>
          <ns3:TrackPointExtension>
            <ns3:hr>98</ns3:hr>
            <ns3:cad>0</ns3:cad>
          </ns3:TrackPointExtension>
        </extensions>
      </trkpt>
      <trkpt lat="43.48144657909870147705078125" lon="1.43638839013874530792236328125">
        <ele>250</ele>
        <time>2026-08-05T09:10:09.000Z</time>
        <extensions>
          <ns3:TrackPointExtension>
            <ns3:hr>97</ns3:hr>
            <ns3:cad>0</ns3:cad>
          </ns3:TrackPointExtension>
        </extensions>
      </trkpt>
      <trkpt lat="43.48144657909870147705078125" lon="1.43638839013874530792236328125">
        <ele>250</ele>
        <time>2026-08-05T09:10:10.000Z</time>
        <extensions>
          <ns3:TrackPointExtension>
            <ns3:hr>97</ns3:hr>
            <ns3:cad>0</ns3:cad>
          </ns3:TrackPointExtension>
        </extensions>
      </trkpt>
      <trkpt lat="43.48144657909870147705078125" lon="1.43638839013874530792236328125">
        <ele>250</ele>
        <time>2026-08-05T09:10:11.000Z</time>
        <extensions>
          <ns3:TrackPointExtension>
            <ns3:hr>97</ns3:hr>
            <ns3:cad>0</ns3:cad>
          </ns3:TrackPointExtension>
        </extensions>
      </trkpt>
      <trkpt lat="43.48144657909870147705078125" lon="1.43638839013874530792236328125">
        <ele>250</ele>
        <time>2026-08-05T09:10:12.000Z</time>
        <extensions>
          <ns3:TrackPointExtension>
            <ns3:hr>98</ns3:hr>
            <ns3:cad>0</ns3:cad>
          </ns3:TrackPointExtension>
        </extensions>
      </trkpt>
      <trkpt lat="43.48144657909870147705078125" lon="1.43638839013874530792236328125">
        <ele>250</ele>
        <time>2026-08-05T09:10:13.000Z</time>
        <extensions>
          <ns3:TrackPointExtension>
            <ns3:hr>98</ns3:hr>
            <ns3:cad>0</ns3:cad>
          </ns3:TrackPointExtension>
        </extensions>
      </trkpt>
      <trkpt lat="43.48144657909870147705078125" lon="1.43638839013874530792236328125">
        <ele>249.8000030517578125</ele>
        <time>2026-08-05T09:10:14.000Z</time>
        <extensions>
          <ns3:TrackPointExtension>
            <ns3:hr>98</ns3:hr>
            <ns3:cad>0</ns3:cad>
          </ns3:TrackPointExtension>
        </extensions>
      </trkpt>
      <trkpt lat="43.48144657909870147705078125" lon="1.43638839013874530792236328125">
        <ele>249.8000030517578125</ele>
        <time>2026-08-05T09:10:15.000Z</time>
        <extensions>
          <ns3:TrackPointExtension>
            <ns3:hr>98</ns3:hr>
            <ns3:cad>0</ns3:cad>
          </ns3:TrackPointExtension>
        </extensions>
      </trkpt>
      <trkpt lat="43.48144657909870147705078125" lon="1.43638839013874530792236328125">
        <ele>249.600006103515625</ele>
        <time>2026-08-05T09:10:16.000Z</time>
        <extensions>
          <ns3:TrackPointExtension>
            <ns3:hr>98</ns3:hr>
            <ns3:cad>0</ns3:cad>
          </ns3:TrackPointExtension>
        </extensions>
      </trkpt>
      <trkpt lat="43.48144657909870147705078125" lon="1.43638839013874530792236328125">
        <ele>249.600006103515625</ele>
        <time>2026-08-05T09:10:17.000Z</time>
        <extensions>
          <ns3:TrackPointExtension>
            <ns3:hr>99</ns3:hr>
            <ns3:cad>0</ns3:cad>
          </ns3:TrackPointExtension>
        </extensions>
      </trkpt>
      <trkpt lat="43.48144657909870147705078125" lon="1.43638839013874530792236328125">
        <ele>249.600006103515625</ele>
        <time>2026-08-05T09:10:18.000Z</time>
        <extensions>
          <ns3:TrackPointExtension>
            <ns3:hr>98</ns3:hr>
            <ns3:cad>0</ns3:cad>
          </ns3:TrackPointExtension>
        </extensions>
      </trkpt>
      <trkpt lat="43.48144657909870147705078125" lon="1.43638839013874530792236328125">
        <ele>249.600006103515625</ele>
        <time>2026-08-05T09:10:19.000Z</time>
        <extensions>
          <ns3:TrackPointExtension>
            <ns3:hr>98</ns3:hr>
            <ns3:cad>0</ns3:cad>
          </ns3:TrackPointExtension>
        </extensions>
      </trkpt>
      <trkpt lat="43.48144657909870147705078125" lon="1.43638839013874530792236328125">
        <ele>249.600006103515625</ele>
        <time>2026-08-05T09:10:20.000Z</time>
        <extensions>
          <ns3:TrackPointExtension>
            <ns3:hr>96</ns3:hr>
            <ns3:cad>0</ns3:cad>
          </ns3:TrackPointExtension>
        </extensions>
      </trkpt>
      <trkpt lat="43.48144657909870147705078125" lon="1.43638839013874530792236328125">
        <ele>249.600006103515625</ele>
        <time>2026-08-05T09:10:21.000Z</time>
        <extensions>
          <ns3:TrackPointExtension>
            <ns3:hr>93</ns3:hr>
            <ns3:cad>0</ns3:cad>
          </ns3:TrackPointExtension>
        </extensions>
      </trkpt>
      <trkpt lat="43.48144657909870147705078125" lon="1.43638839013874530792236328125">
        <ele>249.600006103515625</ele>
        <time>2026-08-05T09:10:22.000Z</time>
        <extensions>
          <ns3:TrackPointExtension>
            <ns3:hr>92</ns3:hr>
            <ns3:cad>0</ns3:cad>
          </ns3:TrackPointExtension>
        </extensions>
      </trkpt>
      <trkpt lat="43.48144657909870147705078125" lon="1.43638839013874530792236328125">
        <ele>249.600006103515625</ele>
        <time>2026-08-05T09:10:23.000Z</time>
        <extensions>
          <ns3:TrackPointExtension>
            <ns3:hr>90</ns3:hr>
            <ns3:cad>0</ns3:cad>
          </ns3:TrackPointExtension>
        </extensions>
      </trkpt>
      <trkpt lat="43.48144657909870147705078125" lon="1.43638839013874530792236328125">
        <ele>249.600006103515625</ele>
        <time>2026-08-05T09:10:24.000Z</time>
        <extensions>
          <ns3:TrackPointExtension>
            <ns3:hr>88</ns3:hr>
            <ns3:cad>0</ns3:cad>
          </ns3:TrackPointExtension>
        </extensions>
      </trkpt>
      <trkpt lat="43.48144657909870147705078125" lon="1.43638839013874530792236328125">
        <ele>249.600006103515625</ele>
        <time>2026-08-05T09:10:25.000Z</time>
        <extensions>
          <ns3:TrackPointExtension>
            <ns3:hr>87</ns3:hr>
            <ns3:cad>0</ns3:cad>
          </ns3:TrackPointExtension>
        </extensions>
      </trkpt>
      <trkpt lat="43.48144657909870147705078125" lon="1.43638839013874530792236328125">
        <ele>249.600006103515625</ele>
        <time>2026-08-05T09:10:26.000Z</time>
        <extensions>
          <ns3:TrackPointExtension>
            <ns3:hr>86</ns3:hr>
            <ns3:cad>0</ns3:cad>
          </ns3:TrackPointExtension>
        </extensions>
      </trkpt>
      <trkpt lat="43.48144657909870147705078125" lon="1.43638839013874530792236328125">
        <ele>249.600006103515625</ele>
        <time>2026-08-05T09:10:27.000Z</time>
        <extensions>
          <ns3:TrackPointExtension>
            <ns3:hr>85</ns3:hr>
            <ns3:cad>0</ns3:cad>
          </ns3:TrackPointExtension>
        </extensions>
      </trkpt>
      <trkpt lat="43.48144657909870147705078125" lon="1.43638839013874530792236328125">
        <ele>249.600006103515625</ele>
        <time>2026-08-05T09:10:28.000Z</time>
        <extensions>
          <ns3:TrackPointExtension>
            <ns3:hr>85</ns3:hr>
            <ns3:cad>0</ns3:cad>
          </ns3:TrackPointExtension>
        </extensions>
      </trkpt>
      <trkpt lat="43.48144657909870147705078125" lon="1.43638839013874530792236328125">
        <ele>249.600006103515625</ele>
        <time>2026-08-05T09:10:29.000Z</time>
        <extensions>
          <ns3:TrackPointExtension>
            <ns3:hr>85</ns3:hr>
            <ns3:cad>0</ns3:cad>
          </ns3:TrackPointExtension>
        </extensions>
      </trkpt>
      <trkpt lat="43.48144657909870147705078125" lon="1.43638839013874530792236328125">
        <ele>249.600006103515625</ele>
        <time>2026-08-05T09:10:30.000Z</time>
        <extensions>
          <ns3:TrackPointExtension>
            <ns3:hr>85</ns3:hr>
            <ns3:cad>0</ns3:cad>
          </ns3:TrackPointExtension>
        </extensions>
      </trkpt>
      <trkpt lat="43.48144657909870147705078125" lon="1.43638839013874530792236328125">
        <ele>249.600006103515625</ele>
        <time>2026-08-05T09:10:31.000Z</time>
        <extensions>
          <ns3:TrackPointExtension>
            <ns3:hr>84</ns3:hr>
            <ns3:cad>0</ns3:cad>
          </ns3:TrackPointExtension>
        </extensions>
      </trkpt>
      <trkpt lat="43.48144657909870147705078125" lon="1.43638839013874530792236328125">
        <ele>249.399993896484375</ele>
        <time>2026-08-05T09:10:32.000Z</time>
        <extensions>
          <ns3:TrackPointExtension>
            <ns3:hr>84</ns3:hr>
            <ns3:cad>0</ns3:cad>
          </ns3:TrackPointExtension>
        </extensions>
      </trkpt>
      <trkpt lat="43.48144657909870147705078125" lon="1.43638839013874530792236328125">
        <ele>249.399993896484375</ele>
        <time>2026-08-05T09:10:33.000Z</time>
        <extensions>
          <ns3:TrackPointExtension>
            <ns3:hr>84</ns3:hr>
            <ns3:cad>0</ns3:cad>
          </ns3:TrackPointExtension>
        </extensions>
      </trkpt>
      <trkpt lat="43.48144657909870147705078125" lon="1.43638839013874530792236328125">
        <ele>249.399993896484375</ele>
        <time>2026-08-05T09:10:34.000Z</time>
        <extensions>
          <ns3:TrackPointExtension>
            <ns3:hr>84</ns3:hr>
            <ns3:cad>0</ns3:cad>
          </ns3:TrackPointExtension>
        </extensions>
      </trkpt>
      <trkpt lat="43.48144657909870147705078125" lon="1.43638839013874530792236328125">
        <ele>249.1999969482421875</ele>
        <time>2026-08-05T09:10:35.000Z</time>
        <extensions>
          <ns3:TrackPointExtension>
            <ns3:hr>83</ns3:hr>
            <ns3:cad>0</ns3:cad>
          </ns3:TrackPointExtension>
        </extensions>
      </trkpt>
      <trkpt lat="43.48144657909870147705078125" lon="1.43638839013874530792236328125">
        <ele>249.1999969482421875</ele>
        <time>2026-08-05T09:10:36.000Z</time>
        <extensions>
          <ns3:TrackPointExtension>
            <ns3:hr>82</ns3:hr>
            <ns3:cad>0</ns3:cad>
          </ns3:TrackPointExtension>
        </extensions>
      </trkpt>
      <trkpt lat="43.48144657909870147705078125" lon="1.43638839013874530792236328125">
        <ele>249.1999969482421875</ele>
        <time>2026-08-05T09:10:37.000Z</time>
        <extensions>
          <ns3:TrackPointExtension>
            <ns3:hr>81</ns3:hr>
            <ns3:cad>0</ns3:cad>
          </ns3:TrackPointExtension>
        </extensions>
      </trkpt>
      <trkpt lat="43.48144657909870147705078125" lon="1.43638839013874530792236328125">
        <ele>249.1999969482421875</ele>
        <time>2026-08-05T09:10:38.000Z</time>
        <extensions>
          <ns3:TrackPointExtension>
            <ns3:hr>81</ns3:hr>
            <ns3:cad>0</ns3:cad>
          </ns3:TrackPointExtension>
        </extensions>
      </trkpt>
      <trkpt lat="43.48144657909870147705078125" lon="1.43638839013874530792236328125">
        <ele>249.399993896484375</ele>
        <time>2026-08-05T09:10:39.000Z</time>
        <extensions>
          <ns3:TrackPointExtension>
            <ns3:hr>81</ns3:hr>
            <ns3:cad>0</ns3:cad>
          </ns3:TrackPointExtension>
        </extensions>
      </trkpt>
      <trkpt lat="43.48144657909870147705078125" lon="1.43638839013874530792236328125">
        <ele>249.399993896484375</ele>
        <time>2026-08-05T09:10:40.000Z</time>
        <extensions>
          <ns3:TrackPointExtension>
            <ns3:hr>80</ns3:hr>
            <ns3:cad>0</ns3:cad>
          </ns3:TrackPointExtension>
        </extensions>
      </trkpt>
      <trkpt lat="43.48144657909870147705078125" lon="1.43638839013874530792236328125">
        <ele>249.399993896484375</ele>
        <time>2026-08-05T09:10:41.000Z</time>
        <extensions>
          <ns3:TrackPointExtension>
            <ns3:hr>80</ns3:hr>
            <ns3:cad>0</ns3:cad>
          </ns3:TrackPointExtension>
        </extensions>
      </trkpt>
      <trkpt lat="43.48144657909870147705078125" lon="1.43638839013874530792236328125">
        <ele>249.399993896484375</ele>
        <time>2026-08-05T09:10:42.000Z</time>
        <extensions>
          <ns3:TrackPointExtension>
            <ns3:hr>80</ns3:hr>
            <ns3:cad>0</ns3:cad>
          </ns3:TrackPointExtension>
        </extensions>
      </trkpt>
      <trkpt lat="43.48144657909870147705078125" lon="1.43638839013874530792236328125">
        <ele>249.399993896484375</ele>
        <time>2026-08-05T09:10:43.000Z</time>
        <extensions>
          <ns3:TrackPointExtension>
            <ns3:hr>80</ns3:hr>
            <ns3:cad>0</ns3:cad>
          </ns3:TrackPointExtension>
        </extensions>
      </trkpt>
      <trkpt lat="43.48144657909870147705078125" lon="1.43638839013874530792236328125">
        <ele>249.399993896484375</ele>
        <time>2026-08-05T09:10:44.000Z</time>
        <extensions>
          <ns3:TrackPointExtension>
            <ns3:hr>79</ns3:hr>
            <ns3:cad>0</ns3:cad>
          </ns3:TrackPointExtension>
        </extensions>
      </trkpt>
      <trkpt lat="43.48144657909870147705078125" lon="1.43638839013874530792236328125">
        <ele>249.399993896484375</ele>
        <time>2026-08-05T09:10:45.000Z</time>
        <extensions>
          <ns3:TrackPointExtension>
            <ns3:hr>79</ns3:hr>
            <ns3:cad>0</ns3:cad>
          </ns3:TrackPointExtension>
        </extensions>
      </trkpt>
      <trkpt lat="43.48144657909870147705078125" lon="1.43638839013874530792236328125">
        <ele>249.399993896484375</ele>
        <time>2026-08-05T09:10:46.000Z</time>
        <extensions>
          <ns3:TrackPointExtension>
            <ns3:hr>79</ns3:hr>
            <ns3:cad>0</ns3:cad>
          </ns3:TrackPointExtension>
        </extensions>
      </trkpt>
      <trkpt lat="43.48144657909870147705078125" lon="1.43638839013874530792236328125">
        <ele>249.399993896484375</ele>
        <time>2026-08-05T09:10:47.000Z</time>
        <extensions>
          <ns3:TrackPointExtension>
            <ns3:hr>80</ns3:hr>
            <ns3:cad>0</ns3:cad>
          </ns3:TrackPointExtension>
        </extensions>
      </trkpt>
      <trkpt lat="43.48144657909870147705078125" lon="1.43638839013874530792236328125">
        <ele>249.1999969482421875</ele>
        <time>2026-08-05T09:10:48.000Z</time>
        <extensions>
          <ns3:TrackPointExtension>
            <ns3:hr>82</ns3:hr>
            <ns3:cad>0</ns3:cad>
          </ns3:TrackPointExtension>
        </extensions>
      </trkpt>
      <trkpt lat="43.48144657909870147705078125" lon="1.43638839013874530792236328125">
        <ele>249.1999969482421875</ele>
        <time>2026-08-05T09:10:49.000Z</time>
        <extensions>
          <ns3:TrackPointExtension>
            <ns3:hr>82</ns3:hr>
            <ns3:cad>0</ns3:cad>
          </ns3:TrackPointExtension>
        </extensions>
      </trkpt>
      <trkpt lat="43.48144657909870147705078125" lon="1.43638839013874530792236328125">
        <ele>249.1999969482421875</ele>
        <time>2026-08-05T09:10:50.000Z</time>
        <extensions>
          <ns3:TrackPointExtension>
            <ns3:hr>81</ns3:hr>
            <ns3:cad>0</ns3:cad>
          </ns3:TrackPointExtension>
        </extensions>
      </trkpt>
      <trkpt lat="43.48145605064928531646728515625" lon="1.43639274872839450836181640625">
        <ele>249.1999969482421875</ele>
        <time>2026-08-05T09:10:51.000Z</time>
        <extensions>
          <ns3:TrackPointExtension>
            <ns3:hr>81</ns3:hr>
            <ns3:cad>0</ns3:cad>
          </ns3:TrackPointExtension>
        </extensions>
      </trkpt>
      <trkpt lat="43.48145688883960247039794921875" lon="1.43640079535543918609619140625">
        <ele>249.1999969482421875</ele>
        <time>2026-08-05T09:10:52.000Z</time>
        <extensions>
          <ns3:TrackPointExtension>
            <ns3:hr>81</ns3:hr>
            <ns3:cad>0</ns3:cad>
          </ns3:TrackPointExtension>
        </extensions>
      </trkpt>
      <trkpt lat="43.4814606606960296630859375" lon="1.4364018850028514862060546875">
        <ele>249</ele>
        <time>2026-08-05T09:10:53.000Z</time>
        <extensions>
          <ns3:TrackPointExtension>
            <ns3:hr>81</ns3:hr>
            <ns3:cad>0</ns3:cad>
          </ns3:TrackPointExtension>
        </extensions>
      </trkpt>
      <trkpt lat="43.481460995972156524658203125" lon="1.43640280701220035552978515625">
        <ele>248.8000030517578125</ele>
        <time>2026-08-05T09:10:54.000Z</time>
        <extensions>
          <ns3:TrackPointExtension>
            <ns3:hr>81</ns3:hr>
            <ns3:cad>0</ns3:cad>
          </ns3:TrackPointExtension>
        </extensions>
      </trkpt>
      <trkpt lat="43.48145973868668079376220703125" lon="1.43639777787029743194580078125">
        <ele>248.8000030517578125</ele>
        <time>2026-08-05T09:10:55.000Z</time>
        <extensions>
          <ns3:TrackPointExtension>
            <ns3:hr>81</ns3:hr>
            <ns3:cad>0</ns3:cad>
          </ns3:TrackPointExtension>
        </extensions>
      </trkpt>
      <trkpt lat="43.48145890049636363983154296875" lon="1.436395682394504547119140625">
        <ele>248.8000030517578125</ele>
        <time>2026-08-05T09:10:56.000Z</time>
        <extensions>
          <ns3:TrackPointExtension>
            <ns3:hr>80</ns3:hr>
            <ns3:cad>0</ns3:cad>
          </ns3:TrackPointExtension>
        </extensions>
      </trkpt>
      <trkpt lat="43.48144657909870147705078125" lon="1.43638839013874530792236328125">
        <ele>248.8000030517578125</ele>
        <time>2026-08-05T09:10:57.000Z</time>
        <extensions>
          <ns3:TrackPointExtension>
            <ns3:hr>80</ns3:hr>
            <ns3:cad>0</ns3:cad>
          </ns3:TrackPointExtension>
        </extensions>
      </trkpt>
      <trkpt lat="43.48144657909870147705078125" lon="1.43638839013874530792236328125">
        <ele>249</ele>
        <time>2026-08-05T09:10:58.000Z</time>
        <extensions>
          <ns3:TrackPointExtension>
            <ns3:hr>80</ns3:hr>
            <ns3:cad>0</ns3:cad>
          </ns3:TrackPointExtension>
        </extensions>
      </trkpt>
      <trkpt lat="43.48144657909870147705078125" lon="1.43638839013874530792236328125">
        <ele>249.1999969482421875</ele>
        <time>2026-08-05T09:10:59.000Z</time>
        <extensions>
          <ns3:TrackPointExtension>
            <ns3:hr>79</ns3:hr>
            <ns3:cad>0</ns3:cad>
          </ns3:TrackPointExtension>
        </extensions>
      </trkpt>
      <trkpt lat="43.48144657909870147705078125" lon="1.43638839013874530792236328125">
        <ele>249.1999969482421875</ele>
        <time>2026-08-05T09:11:00.000Z</time>
        <extensions>
          <ns3:TrackPointExtension>
            <ns3:hr>79</ns3:hr>
            <ns3:cad>0</ns3:cad>
          </ns3:TrackPointExtension>
        </extensions>
      </trkpt>
      <trkpt lat="43.48144657909870147705078125" lon="1.43638839013874530792236328125">
        <ele>249.1999969482421875</ele>
        <time>2026-08-05T09:11:01.000Z</time>
        <extensions>
          <ns3:TrackPointExtension>
            <ns3:hr>78</ns3:hr>
            <ns3:cad>0</ns3:cad>
          </ns3:TrackPointExtension>
        </extensions>
      </trkpt>
      <trkpt lat="43.48144657909870147705078125" lon="1.43638839013874530792236328125">
        <ele>249.1999969482421875</ele>
        <time>2026-08-05T09:11:02.000Z</time>
        <extensions>
          <ns3:TrackPointExtension>
            <ns3:hr>77</ns3:hr>
            <ns3:cad>0</ns3:cad>
          </ns3:TrackPointExtension>
        </extensions>
      </trkpt>
      <trkpt lat="43.48144657909870147705078125" lon="1.43638839013874530792236328125">
        <ele>249.1999969482421875</ele>
        <time>2026-08-05T09:11:03.000Z</time>
        <extensions>
          <ns3:TrackPointExtension>
            <ns3:hr>76</ns3:hr>
            <ns3:cad>0</ns3:cad>
          </ns3:TrackPointExtension>
        </extensions>
      </trkpt>
      <trkpt lat="43.48144657909870147705078125" lon="1.43638839013874530792236328125">
        <ele>249.1999969482421875</ele>
        <time>2026-08-05T09:11:04.000Z</time>
        <extensions>
          <ns3:TrackPointExtension>
            <ns3:hr>75</ns3:hr>
            <ns3:cad>0</ns3:cad>
          </ns3:TrackPointExtension>
        </extensions>
      </trkpt>
      <trkpt lat="43.48144657909870147705078125" lon="1.43638839013874530792236328125">
        <ele>249.1999969482421875</ele>
        <time>2026-08-05T09:11:05.000Z</time>
        <extensions>
          <ns3:TrackPointExtension>
            <ns3:hr>75</ns3:hr>
            <ns3:cad>0</ns3:cad>
          </ns3:TrackPointExtension>
        </extensions>
      </trkpt>
      <trkpt lat="43.48144657909870147705078125" lon="1.43638839013874530792236328125">
        <ele>249.399993896484375</ele>
        <time>2026-08-05T09:11:06.000Z</time>
        <extensions>
          <ns3:TrackPointExtension>
            <ns3:hr>75</ns3:hr>
            <ns3:cad>0</ns3:cad>
          </ns3:TrackPointExtension>
        </extensions>
      </trkpt>
      <trkpt lat="43.48144657909870147705078125" lon="1.43638839013874530792236328125">
        <ele>249.399993896484375</ele>
        <time>2026-08-05T09:11:07.000Z</time>
        <extensions>
          <ns3:TrackPointExtension>
            <ns3:hr>75</ns3:hr>
            <ns3:cad>0</ns3:cad>
          </ns3:TrackPointExtension>
        </extensions>
      </trkpt>
      <trkpt lat="43.48144657909870147705078125" lon="1.43638839013874530792236328125">
        <ele>249.600006103515625</ele>
        <time>2026-08-05T09:11:08.000Z</time>
        <extensions>
          <ns3:TrackPointExtension>
            <ns3:hr>75</ns3:hr>
            <ns3:cad>0</ns3:cad>
          </ns3:TrackPointExtension>
        </extensions>
      </trkpt>
      <trkpt lat="43.48144657909870147705078125" lon="1.43638839013874530792236328125">
        <ele>249.600006103515625</ele>
        <time>2026-08-05T09:11:09.000Z</time>
        <extensions>
          <ns3:TrackPointExtension>
            <ns3:hr>74</ns3:hr>
            <ns3:cad>0</ns3:cad>
          </ns3:TrackPointExtension>
        </extensions>
      </trkpt>
      <trkpt lat="43.48144657909870147705078125" lon="1.43638839013874530792236328125">
        <ele>249.399993896484375</ele>
        <time>2026-08-05T09:11:10.000Z</time>
        <extensions>
          <ns3:TrackPointExtension>
            <ns3:hr>74</ns3:hr>
            <ns3:cad>0</ns3:cad>
          </ns3:TrackPointExtension>
        </extensions>
      </trkpt>
      <trkpt lat="43.48144657909870147705078125" lon="1.43638839013874530792236328125">
        <ele>249.399993896484375</ele>
        <time>2026-08-05T09:11:11.000Z</time>
        <extensions>
          <ns3:TrackPointExtension>
            <ns3:hr>73</ns3:hr>
            <ns3:cad>0</ns3:cad>
          </ns3:TrackPointExtension>
        </extensions>
      </trkpt>
      <trkpt lat="43.48144657909870147705078125" lon="1.43638839013874530792236328125">
        <ele>249.399993896484375</ele>
        <time>2026-08-05T09:11:12.000Z</time>
        <extensions>
          <ns3:TrackPointExtension>
            <ns3:hr>73</ns3:hr>
            <ns3:cad>0</ns3:cad>
          </ns3:TrackPointExtension>
        </extensions>
      </trkpt>
      <trkpt lat="43.48144657909870147705078125" lon="1.43638839013874530792236328125">
        <ele>249.399993896484375</ele>
        <time>2026-08-05T09:11:13.000Z</time>
        <extensions>
          <ns3:TrackPointExtension>
            <ns3:hr>74</ns3:hr>
            <ns3:cad>0</ns3:cad>
          </ns3:TrackPointExtension>
        </extensions>
      </trkpt>
      <trkpt lat="43.48144657909870147705078125" lon="1.43638839013874530792236328125">
        <ele>249.399993896484375</ele>
        <time>2026-08-05T09:11:14.000Z</time>
        <extensions>
          <ns3:TrackPointExtension>
            <ns3:hr>76</ns3:hr>
            <ns3:cad>0</ns3:cad>
          </ns3:TrackPointExtension>
        </extensions>
      </trkpt>
      <trkpt lat="43.48144657909870147705078125" lon="1.43638839013874530792236328125">
        <ele>249.399993896484375</ele>
        <time>2026-08-05T09:11:15.000Z</time>
        <extensions>
          <ns3:TrackPointExtension>
            <ns3:hr>76</ns3:hr>
            <ns3:cad>0</ns3:cad>
          </ns3:TrackPointExtension>
        </extensions>
      </trkpt>
      <trkpt lat="43.48144657909870147705078125" lon="1.43638839013874530792236328125">
        <ele>249.399993896484375</ele>
        <time>2026-08-05T09:11:16.000Z</time>
        <extensions>
          <ns3:TrackPointExtension>
            <ns3:hr>75</ns3:hr>
            <ns3:cad>0</ns3:cad>
          </ns3:TrackPointExtension>
        </extensions>
      </trkpt>
      <trkpt lat="43.48144657909870147705078125" lon="1.43638839013874530792236328125">
        <ele>249.399993896484375</ele>
        <time>2026-08-05T09:11:17.000Z</time>
        <extensions>
          <ns3:TrackPointExtension>
            <ns3:hr>74</ns3:hr>
            <ns3:cad>0</ns3:cad>
          </ns3:TrackPointExtension>
        </extensions>
      </trkpt>
      <trkpt lat="43.48144657909870147705078125" lon="1.43638839013874530792236328125">
        <ele>249.399993896484375</ele>
        <time>2026-08-05T09:11:18.000Z</time>
        <extensions>
          <ns3:TrackPointExtension>
            <ns3:hr>74</ns3:hr>
            <ns3:cad>0</ns3:cad>
          </ns3:TrackPointExtension>
        </extensions>
      </trkpt>
      <trkpt lat="43.48144657909870147705078125" lon="1.43638839013874530792236328125">
        <ele>249.399993896484375</ele>
        <time>2026-08-05T09:11:19.000Z</time>
        <extensions>
          <ns3:TrackPointExtension>
            <ns3:hr>71</ns3:hr>
            <ns3:cad>0</ns3:cad>
          </ns3:TrackPointExtension>
        </extensions>
      </trkpt>
      <trkpt lat="43.48144657909870147705078125" lon="1.43638839013874530792236328125">
        <ele>249.399993896484375</ele>
        <time>2026-08-05T09:11:20.000Z</time>
        <extensions>
          <ns3:TrackPointExtension>
            <ns3:hr>71</ns3:hr>
            <ns3:cad>0</ns3:cad>
          </ns3:TrackPointExtension>
        </extensions>
      </trkpt>
      <trkpt lat="43.48144657909870147705078125" lon="1.43638839013874530792236328125">
        <ele>249.399993896484375</ele>
        <time>2026-08-05T09:11:21.000Z</time>
        <extensions>
          <ns3:TrackPointExtension>
            <ns3:hr>71</ns3:hr>
            <ns3:cad>0</ns3:cad>
          </ns3:TrackPointExtension>
        </extensions>
      </trkpt>
      <trkpt lat="43.48144657909870147705078125" lon="1.43638839013874530792236328125">
        <ele>249.399993896484375</ele>
        <time>2026-08-05T09:11:22.000Z</time>
        <extensions>
          <ns3:TrackPointExtension>
            <ns3:hr>70</ns3:hr>
            <ns3:cad>0</ns3:cad>
          </ns3:TrackPointExtension>
        </extensions>
      </trkpt>
      <trkpt lat="43.48144657909870147705078125" lon="1.43638839013874530792236328125">
        <ele>249.399993896484375</ele>
        <time>2026-08-05T09:11:23.000Z</time>
        <extensions>
          <ns3:TrackPointExtension>
            <ns3:hr>70</ns3:hr>
            <ns3:cad>0</ns3:cad>
          </ns3:TrackPointExtension>
        </extensions>
      </trkpt>
      <trkpt lat="43.48144657909870147705078125" lon="1.43638839013874530792236328125">
        <ele>249.399993896484375</ele>
        <time>2026-08-05T09:11:24.000Z</time>
        <extensions>
          <ns3:TrackPointExtension>
            <ns3:hr>70</ns3:hr>
            <ns3:cad>0</ns3:cad>
          </ns3:TrackPointExtension>
        </extensions>
      </trkpt>
      <trkpt lat="43.48144657909870147705078125" lon="1.43638839013874530792236328125">
        <ele>249.399993896484375</ele>
        <time>2026-08-05T09:11:25.000Z</time>
        <extensions>
          <ns3:TrackPointExtension>
            <ns3:hr>71</ns3:hr>
            <ns3:cad>0</ns3:cad>
          </ns3:TrackPointExtension>
        </extensions>
      </trkpt>
      <trkpt lat="43.48144657909870147705078125" lon="1.43638839013874530792236328125">
        <ele>249.399993896484375</ele>
        <time>2026-08-05T09:11:26.000Z</time>
        <extensions>
          <ns3:TrackPointExtension>
            <ns3:hr>71</ns3:hr>
            <ns3:cad>0</ns3:cad>
          </ns3:TrackPointExtension>
        </extensions>
      </trkpt>
      <trkpt lat="43.48144657909870147705078125" lon="1.43638839013874530792236328125">
        <ele>249.399993896484375</ele>
        <time>2026-08-05T09:11:27.000Z</time>
        <extensions>
          <ns3:TrackPointExtension>
            <ns3:hr>71</ns3:hr>
            <ns3:cad>0</ns3:cad>
          </ns3:TrackPointExtension>
        </extensions>
      </trkpt>
      <trkpt lat="43.48144657909870147705078125" lon="1.43638839013874530792236328125">
        <ele>249.1999969482421875</ele>
        <time>2026-08-05T09:11:28.000Z</time>
        <extensions>
          <ns3:TrackPointExtension>
            <ns3:hr>72</ns3:hr>
            <ns3:cad>0</ns3:cad>
          </ns3:TrackPointExtension>
        </extensions>
      </trkpt>
      <trkpt lat="43.48144657909870147705078125" lon="1.43638839013874530792236328125">
        <ele>249.1999969482421875</ele>
        <time>2026-08-05T09:11:29.000Z</time>
        <extensions>
          <ns3:TrackPointExtension>
            <ns3:hr>72</ns3:hr>
            <ns3:cad>0</ns3:cad>
          </ns3:TrackPointExtension>
        </extensions>
      </trkpt>
      <trkpt lat="43.48144657909870147705078125" lon="1.43638839013874530792236328125">
        <ele>249.399993896484375</ele>
        <time>2026-08-05T09:11:30.000Z</time>
        <extensions>
          <ns3:TrackPointExtension>
            <ns3:hr>72</ns3:hr>
            <ns3:cad>0</ns3:cad>
          </ns3:TrackPointExtension>
        </extensions>
      </trkpt>
      <trkpt lat="43.48144657909870147705078125" lon="1.43638839013874530792236328125">
        <ele>249.399993896484375</ele>
        <time>2026-08-05T09:11:31.000Z</time>
        <extensions>
          <ns3:TrackPointExtension>
            <ns3:hr>72</ns3:hr>
            <ns3:cad>0</ns3:cad>
          </ns3:TrackPointExtension>
        </extensions>
      </trkpt>
      <trkpt lat="43.48144657909870147705078125" lon="1.43638839013874530792236328125">
        <ele>249.399993896484375</ele>
        <time>2026-08-05T09:11:32.000Z</time>
        <extensions>
          <ns3:TrackPointExtension>
            <ns3:hr>72</ns3:hr>
            <ns3:cad>0</ns3:cad>
          </ns3:TrackPointExtension>
        </extensions>
      </trkpt>
      <trkpt lat="43.48144657909870147705078125" lon="1.43638839013874530792236328125">
        <ele>249.399993896484375</ele>
        <time>2026-08-05T09:11:33.000Z</time>
        <extensions>
          <ns3:TrackPointExtension>
            <ns3:hr>72</ns3:hr>
            <ns3:cad>0</ns3:cad>
          </ns3:TrackPointExtension>
        </extensions>
      </trkpt>
      <trkpt lat="43.48144657909870147705078125" lon="1.43638839013874530792236328125">
        <ele>249.1999969482421875</ele>
        <time>2026-08-05T09:11:34.000Z</time>
        <extensions>
          <ns3:TrackPointExtension>
            <ns3:hr>72</ns3:hr>
            <ns3:cad>0</ns3:cad>
          </ns3:TrackPointExtension>
        </extensions>
      </trkpt>
      <trkpt lat="43.48144657909870147705078125" lon="1.43638839013874530792236328125">
        <ele>249.1999969482421875</ele>
        <time>2026-08-05T09:11:35.000Z</time>
        <extensions>
          <ns3:TrackPointExtension>
            <ns3:hr>72</ns3:hr>
            <ns3:cad>0</ns3:cad>
          </ns3:TrackPointExtension>
        </extensions>
      </trkpt>
      <trkpt lat="43.48144657909870147705078125" lon="1.43638839013874530792236328125">
        <ele>249.1999969482421875</ele>
        <time>2026-08-05T09:11:36.000Z</time>
        <extensions>
          <ns3:TrackPointExtension>
            <ns3:hr>72</ns3:hr>
            <ns3:cad>0</ns3:cad>
          </ns3:TrackPointExtension>
        </extensions>
      </trkpt>
      <trkpt lat="43.48144657909870147705078125" lon="1.43638839013874530792236328125">
        <ele>249.1999969482421875</ele>
        <time>2026-08-05T09:11:37.000Z</time>
        <extensions>
          <ns3:TrackPointExtension>
            <ns3:hr>71</ns3:hr>
            <ns3:cad>0</ns3:cad>
          </ns3:TrackPointExtension>
        </extensions>
      </trkpt>
      <trkpt lat="43.48144657909870147705078125" lon="1.43638839013874530792236328125">
        <ele>249.1999969482421875</ele>
        <time>2026-08-05T09:11:38.000Z</time>
        <extensions>
          <ns3:TrackPointExtension>
            <ns3:hr>71</ns3:hr>
            <ns3:cad>0</ns3:cad>
          </ns3:TrackPointExtension>
        </extensions>
      </trkpt>
      <trkpt lat="43.48144657909870147705078125" lon="1.43638839013874530792236328125">
        <ele>249.399993896484375</ele>
        <time>2026-08-05T09:11:39.000Z</time>
        <extensions>
          <ns3:TrackPointExtension>
            <ns3:hr>71</ns3:hr>
            <ns3:cad>0</ns3:cad>
          </ns3:TrackPointExtension>
        </extensions>
      </trkpt>
      <trkpt lat="43.48144657909870147705078125" lon="1.43638839013874530792236328125">
        <ele>249.399993896484375</ele>
        <time>2026-08-05T09:11:40.000Z</time>
        <extensions>
          <ns3:TrackPointExtension>
            <ns3:hr>72</ns3:hr>
            <ns3:cad>0</ns3:cad>
          </ns3:TrackPointExtension>
        </extensions>
      </trkpt>
      <trkpt lat="43.48144657909870147705078125" lon="1.43638839013874530792236328125">
        <ele>249.399993896484375</ele>
        <time>2026-08-05T09:11:41.000Z</time>
        <extensions>
          <ns3:TrackPointExtension>
            <ns3:hr>72</ns3:hr>
            <ns3:cad>0</ns3:cad>
          </ns3:TrackPointExtension>
        </extensions>
      </trkpt>
      <trkpt lat="43.48144657909870147705078125" lon="1.43638839013874530792236328125">
        <ele>249.399993896484375</ele>
        <time>2026-08-05T09:11:42.000Z</time>
        <extensions>
          <ns3:TrackPointExtension>
            <ns3:hr>71</ns3:hr>
            <ns3:cad>0</ns3:cad>
          </ns3:TrackPointExtension>
        </extensions>
      </trkpt>
      <trkpt lat="43.48144657909870147705078125" lon="1.43638839013874530792236328125">
        <ele>249.399993896484375</ele>
        <time>2026-08-05T09:11:43.000Z</time>
        <extensions>
          <ns3:TrackPointExtension>
            <ns3:hr>67</ns3:hr>
            <ns3:cad>0</ns3:cad>
          </ns3:TrackPointExtension>
        </extensions>
      </trkpt>
      <trkpt lat="43.48144657909870147705078125" lon="1.43638839013874530792236328125">
        <ele>249.399993896484375</ele>
        <time>2026-08-05T09:11:44.000Z</time>
        <extensions>
          <ns3:TrackPointExtension>
            <ns3:hr>65</ns3:hr>
            <ns3:cad>0</ns3:cad>
          </ns3:TrackPointExtension>
        </extensions>
      </trkpt>
      <trkpt lat="43.4814557991921901702880859375" lon="1.4363985322415828704833984375">
        <ele>249.399993896484375</ele>
        <time>2026-08-05T09:11:45.000Z</time>
        <extensions>
          <ns3:TrackPointExtension>
            <ns3:hr>64</ns3:hr>
            <ns3:cad>0</ns3:cad>
          </ns3:TrackPointExtension>
        </extensions>
      </trkpt>
      <trkpt lat="43.4814551286399364471435546875" lon="1.4363992027938365936279296875">
        <ele>249.399993896484375</ele>
        <time>2026-08-05T09:11:46.000Z</time>
        <extensions>
          <ns3:TrackPointExtension>
            <ns3:hr>63</ns3:hr>
            <ns3:cad>0</ns3:cad>
          </ns3:TrackPointExtension>
        </extensions>
      </trkpt>
      <trkpt lat="43.4814554639160633087158203125" lon="1.43640230409801006317138671875">
        <ele>249.399993896484375</ele>
        <time>2026-08-05T09:11:47.000Z</time>
        <extensions>
          <ns3:TrackPointExtension>
            <ns3:hr>63</ns3:hr>
            <ns3:cad>0</ns3:cad>
          </ns3:TrackPointExtension>
        </extensions>
      </trkpt>
      <trkpt lat="43.48145504482090473175048828125" lon="1.43640230409801006317138671875">
        <ele>249.399993896484375</ele>
        <time>2026-08-05T09:11:48.000Z</time>
        <extensions>
          <ns3:TrackPointExtension>
            <ns3:hr>62</ns3:hr>
            <ns3:cad>0</ns3:cad>
          </ns3:TrackPointExtension>
        </extensions>
      </trkpt>
      <trkpt lat="43.48145504482090473175048828125" lon="1.43640230409801006317138671875">
        <ele>249.399993896484375</ele>
        <time>2026-08-05T09:11:49.000Z</time>
        <extensions>
          <ns3:TrackPointExtension>
            <ns3:hr>61</ns3:hr>
            <ns3:cad>0</ns3:cad>
          </ns3:TrackPointExtension>
        </extensions>
      </trkpt>
      <trkpt lat="43.48145504482090473175048828125" lon="1.43640230409801006317138671875">
        <ele>249.399993896484375</ele>
        <time>2026-08-05T09:11:50.000Z</time>
        <extensions>
          <ns3:TrackPointExtension>
            <ns3:hr>61</ns3:hr>
            <ns3:cad>0</ns3:cad>
          </ns3:TrackPointExtension>
        </extensions>
      </trkpt>
      <trkpt lat="43.48145504482090473175048828125" lon="1.43640230409801006317138671875">
        <ele>249.1999969482421875</ele>
        <time>2026-08-05T09:11:51.000Z</time>
        <extensions>
          <ns3:TrackPointExtension>
            <ns3:hr>61</ns3:hr>
            <ns3:cad>0</ns3:cad>
          </ns3:TrackPointExtension>
        </extensions>
      </trkpt>
      <trkpt lat="43.48145504482090473175048828125" lon="1.43640230409801006317138671875">
        <ele>249.1999969482421875</ele>
        <time>2026-08-05T09:11:52.000Z</time>
        <extensions>
          <ns3:TrackPointExtension>
            <ns3:hr>61</ns3:hr>
            <ns3:cad>0</ns3:cad>
          </ns3:TrackPointExtension>
        </extensions>
      </trkpt>
      <trkpt lat="43.48145504482090473175048828125" lon="1.43640230409801006317138671875">
        <ele>249.399993896484375</ele>
        <time>2026-08-05T09:11:53.000Z</time>
        <extensions>
          <ns3:TrackPointExtension>
            <ns3:hr>61</ns3:hr>
            <ns3:cad>0</ns3:cad>
          </ns3:TrackPointExtension>
        </extensions>
      </trkpt>
      <trkpt lat="43.48145504482090473175048828125" lon="1.43640230409801006317138671875">
        <ele>249.399993896484375</ele>
        <time>2026-08-05T09:11:54.000Z</time>
        <extensions>
          <ns3:TrackPointExtension>
            <ns3:hr>61</ns3:hr>
            <ns3:cad>0</ns3:cad>
          </ns3:TrackPointExtension>
        </extensions>
      </trkpt>
      <trkpt lat="43.48145504482090473175048828125" lon="1.43640230409801006317138671875">
        <ele>249.399993896484375</ele>
        <time>2026-08-05T09:11:55.000Z</time>
        <extensions>
          <ns3:TrackPointExtension>
            <ns3:hr>61</ns3:hr>
            <ns3:cad>0</ns3:cad>
          </ns3:TrackPointExtension>
        </extensions>
      </trkpt>
      <trkpt lat="43.48145504482090473175048828125" lon="1.43640230409801006317138671875">
        <ele>249.399993896484375</ele>
        <time>2026-08-05T09:11:56.000Z</time>
        <extensions>
          <ns3:TrackPointExtension>
            <ns3:hr>61</ns3:hr>
            <ns3:cad>0</ns3:cad>
          </ns3:TrackPointExtension>
        </extensions>
      </trkpt>
      <trkpt lat="43.4814552962779998779296875" lon="1.4364028908312320709228515625">
        <ele>249.399993896484375</ele>
        <time>2026-08-05T09:11:57.000Z</time>
        <extensions>
          <ns3:TrackPointExtension>
            <ns3:hr>60</ns3:hr>
            <ns3:cad>0</ns3:cad>
          </ns3:TrackPointExtension>
        </extensions>
      </trkpt>
      <trkpt lat="43.4814541228115558624267578125" lon="1.43640699796378612518310546875">
        <ele>249.399993896484375</ele>
        <time>2026-08-05T09:11:58.000Z</time>
        <extensions>
          <ns3:TrackPointExtension>
            <ns3:hr>61</ns3:hr>
            <ns3:cad>0</ns3:cad>
          </ns3:TrackPointExtension>
        </extensions>
      </trkpt>
      <trkpt lat="43.48145596683025360107421875" lon="1.4364100992679595947265625">
        <ele>249.399993896484375</ele>
        <time>2026-08-05T09:11:59.000Z</time>
        <extensions>
          <ns3:TrackPointExtension>
            <ns3:hr>62</ns3:hr>
            <ns3:cad>0</ns3:cad>
          </ns3:TrackPointExtension>
        </extensions>
      </trkpt>
      <trkpt lat="43.4814561344683170318603515625" lon="1.436409763991832733154296875">
        <ele>249.399993896484375</ele>
        <time>2026-08-05T09:12:00.000Z</time>
        <extensions>
          <ns3:TrackPointExtension>
            <ns3:hr>63</ns3:hr>
            <ns3:cad>0</ns3:cad>
          </ns3:TrackPointExtension>
        </extensions>
      </trkpt>
      <trkpt lat="43.48145420663058757781982421875" lon="1.4364106021821498870849609375">
        <ele>249.1999969482421875</ele>
        <time>2026-08-05T09:12:01.000Z</time>
        <extensions>
          <ns3:TrackPointExtension>
            <ns3:hr>65</ns3:hr>
            <ns3:cad>0</ns3:cad>
          </ns3:TrackPointExtension>
        </extensions>
      </trkpt>
      <trkpt lat="43.48145504482090473175048828125" lon="1.43640230409801006317138671875">
        <ele>249.1999969482421875</ele>
        <time>2026-08-05T09:12:02.000Z</time>
        <extensions>
          <ns3:TrackPointExtension>
            <ns3:hr>67</ns3:hr>
            <ns3:cad>0</ns3:cad>
          </ns3:TrackPointExtension>
        </extensions>
      </trkpt>
      <trkpt lat="43.48145504482090473175048828125" lon="1.43640230409801006317138671875">
        <ele>249.1999969482421875</ele>
        <time>2026-08-05T09:12:03.000Z</time>
        <extensions>
          <ns3:TrackPointExtension>
            <ns3:hr>67</ns3:hr>
            <ns3:cad>0</ns3:cad>
          </ns3:TrackPointExtension>
        </extensions>
      </trkpt>
      <trkpt lat="43.48145504482090473175048828125" lon="1.43640230409801006317138671875">
        <ele>249.1999969482421875</ele>
        <time>2026-08-05T09:12:04.000Z</time>
        <extensions>
          <ns3:TrackPointExtension>
            <ns3:hr>69</ns3:hr>
            <ns3:cad>0</ns3:cad>
          </ns3:TrackPointExtension>
        </extensions>
      </trkpt>
      <trkpt lat="43.48145504482090473175048828125" lon="1.43640230409801006317138671875">
        <ele>249.1999969482421875</ele>
        <time>2026-08-05T09:12:05.000Z</time>
        <extensions>
          <ns3:TrackPointExtension>
            <ns3:hr>70</ns3:hr>
            <ns3:cad>0</ns3:cad>
          </ns3:TrackPointExtension>
        </extensions>
      </trkpt>
      <trkpt lat="43.48145504482090473175048828125" lon="1.43640230409801006317138671875">
        <ele>249.1999969482421875</ele>
        <time>2026-08-05T09:12:06.000Z</time>
        <extensions>
          <ns3:TrackPointExtension>
            <ns3:hr>71</ns3:hr>
            <ns3:cad>0</ns3:cad>
          </ns3:TrackPointExtension>
        </extensions>
      </trkpt>
      <trkpt lat="43.48145504482090473175048828125" lon="1.43640230409801006317138671875">
        <ele>249.1999969482421875</ele>
        <time>2026-08-05T09:12:07.000Z</time>
        <extensions>
          <ns3:TrackPointExtension>
            <ns3:hr>71</ns3:hr>
            <ns3:cad>0</ns3:cad>
          </ns3:TrackPointExtension>
        </extensions>
      </trkpt>
      <trkpt lat="43.48145504482090473175048828125" lon="1.43640230409801006317138671875">
        <ele>249.1999969482421875</ele>
        <time>2026-08-05T09:12:08.000Z</time>
        <extensions>
          <ns3:TrackPointExtension>
            <ns3:hr>72</ns3:hr>
            <ns3:cad>0</ns3:cad>
          </ns3:TrackPointExtension>
        </extensions>
      </trkpt>
      <trkpt lat="43.48145504482090473175048828125" lon="1.43640230409801006317138671875">
        <ele>249.1999969482421875</ele>
        <time>2026-08-05T09:12:09.000Z</time>
        <extensions>
          <ns3:TrackPointExtension>
            <ns3:hr>72</ns3:hr>
            <ns3:cad>0</ns3:cad>
          </ns3:TrackPointExtension>
        </extensions>
      </trkpt>
      <trkpt lat="43.48145504482090473175048828125" lon="1.43640230409801006317138671875">
        <ele>249.1999969482421875</ele>
        <time>2026-08-05T09:12:10.000Z</time>
        <extensions>
          <ns3:TrackPointExtension>
            <ns3:hr>72</ns3:hr>
            <ns3:cad>0</ns3:cad>
          </ns3:TrackPointExtension>
        </extensions>
      </trkpt>
      <trkpt lat="43.48145504482090473175048828125" lon="1.43640230409801006317138671875">
        <ele>249.1999969482421875</ele>
        <time>2026-08-05T09:12:11.000Z</time>
        <extensions>
          <ns3:TrackPointExtension>
            <ns3:hr>72</ns3:hr>
            <ns3:cad>0</ns3:cad>
          </ns3:TrackPointExtension>
        </extensions>
      </trkpt>
      <trkpt lat="43.48145504482090473175048828125" lon="1.43640230409801006317138671875">
        <ele>249.1999969482421875</ele>
        <time>2026-08-05T09:12:12.000Z</time>
        <extensions>
          <ns3:TrackPointExtension>
            <ns3:hr>72</ns3:hr>
            <ns3:cad>0</ns3:cad>
          </ns3:TrackPointExtension>
        </extensions>
      </trkpt>
      <trkpt lat="43.48145504482090473175048828125" lon="1.43640230409801006317138671875">
        <ele>249.1999969482421875</ele>
        <time>2026-08-05T09:12:13.000Z</time>
        <extensions>
          <ns3:TrackPointExtension>
            <ns3:hr>72</ns3:hr>
            <ns3:cad>0</ns3:cad>
          </ns3:TrackPointExtension>
        </extensions>
      </trkpt>
      <trkpt lat="43.48145504482090473175048828125" lon="1.43640230409801006317138671875">
        <ele>249.1999969482421875</ele>
        <time>2026-08-05T09:12:14.000Z</time>
        <extensions>
          <ns3:TrackPointExtension>
            <ns3:hr>71</ns3:hr>
            <ns3:cad>0</ns3:cad>
          </ns3:TrackPointExtension>
        </extensions>
      </trkpt>
      <trkpt lat="43.48145504482090473175048828125" lon="1.43640230409801006317138671875">
        <ele>249</ele>
        <time>2026-08-05T09:12:15.000Z</time>
        <extensions>
          <ns3:TrackPointExtension>
            <ns3:hr>71</ns3:hr>
            <ns3:cad>0</ns3:cad>
          </ns3:TrackPointExtension>
        </extensions>
      </trkpt>
      <trkpt lat="43.48145504482090473175048828125" lon="1.43640230409801006317138671875">
        <ele>249</ele>
        <time>2026-08-05T09:12:16.000Z</time>
        <extensions>
          <ns3:TrackPointExtension>
            <ns3:hr>71</ns3:hr>
            <ns3:cad>0</ns3:cad>
          </ns3:TrackPointExtension>
        </extensions>
      </trkpt>
      <trkpt lat="43.48145504482090473175048828125" lon="1.43640230409801006317138671875">
        <ele>249</ele>
        <time>2026-08-05T09:12:17.000Z</time>
        <extensions>
          <ns3:TrackPointExtension>
            <ns3:hr>70</ns3:hr>
            <ns3:cad>0</ns3:cad>
          </ns3:TrackPointExtension>
        </extensions>
      </trkpt>
      <trkpt lat="43.48145504482090473175048828125" lon="1.43640230409801006317138671875">
        <ele>249</ele>
        <time>2026-08-05T09:12:18.000Z</time>
        <extensions>
          <ns3:TrackPointExtension>
            <ns3:hr>69</ns3:hr>
            <ns3:cad>0</ns3:cad>
          </ns3:TrackPointExtension>
        </extensions>
      </trkpt>
      <trkpt lat="43.48145504482090473175048828125" lon="1.43640230409801006317138671875">
        <ele>248.8000030517578125</ele>
        <time>2026-08-05T09:12:19.000Z</time>
        <extensions>
          <ns3:TrackPointExtension>
            <ns3:hr>68</ns3:hr>
            <ns3:cad>0</ns3:cad>
          </ns3:TrackPointExtension>
        </extensions>
      </trkpt>
      <trkpt lat="43.48145504482090473175048828125" lon="1.43640230409801006317138671875">
        <ele>248.8000030517578125</ele>
        <time>2026-08-05T09:12:20.000Z</time>
        <extensions>
          <ns3:TrackPointExtension>
            <ns3:hr>68</ns3:hr>
            <ns3:cad>0</ns3:cad>
          </ns3:TrackPointExtension>
        </extensions>
      </trkpt>
      <trkpt lat="43.48145504482090473175048828125" lon="1.43640230409801006317138671875">
        <ele>248.8000030517578125</ele>
        <time>2026-08-05T09:12:21.000Z</time>
        <extensions>
          <ns3:TrackPointExtension>
            <ns3:hr>68</ns3:hr>
            <ns3:cad>0</ns3:cad>
          </ns3:TrackPointExtension>
        </extensions>
      </trkpt>
      <trkpt lat="43.48145504482090473175048828125" lon="1.43640230409801006317138671875">
        <ele>248.8000030517578125</ele>
        <time>2026-08-05T09:12:22.000Z</time>
        <extensions>
          <ns3:TrackPointExtension>
            <ns3:hr>69</ns3:hr>
            <ns3:cad>0</ns3:cad>
          </ns3:TrackPointExtension>
        </extensions>
      </trkpt>
      <trkpt lat="43.48145504482090473175048828125" lon="1.43640230409801006317138671875">
        <ele>248.8000030517578125</ele>
        <time>2026-08-05T09:12:23.000Z</time>
        <extensions>
          <ns3:TrackPointExtension>
            <ns3:hr>72</ns3:hr>
            <ns3:cad>0</ns3:cad>
          </ns3:TrackPointExtension>
        </extensions>
      </trkpt>
      <trkpt lat="43.48145504482090473175048828125" lon="1.43640230409801006317138671875">
        <ele>248.8000030517578125</ele>
        <time>2026-08-05T09:12:24.000Z</time>
        <extensions>
          <ns3:TrackPointExtension>
            <ns3:hr>73</ns3:hr>
            <ns3:cad>0</ns3:cad>
          </ns3:TrackPointExtension>
        </extensions>
      </trkpt>
      <trkpt lat="43.48145504482090473175048828125" lon="1.43640230409801006317138671875">
        <ele>249</ele>
        <time>2026-08-05T09:12:25.000Z</time>
        <extensions>
          <ns3:TrackPointExtension>
            <ns3:hr>73</ns3:hr>
            <ns3:cad>0</ns3:cad>
          </ns3:TrackPointExtension>
        </extensions>
      </trkpt>
      <trkpt lat="43.48145504482090473175048828125" lon="1.43640230409801006317138671875">
        <ele>249</ele>
        <time>2026-08-05T09:12:26.000Z</time>
        <extensions>
          <ns3:TrackPointExtension>
            <ns3:hr>73</ns3:hr>
            <ns3:cad>0</ns3:cad>
          </ns3:TrackPointExtension>
        </extensions>
      </trkpt>
      <trkpt lat="43.48145504482090473175048828125" lon="1.43640230409801006317138671875">
        <ele>249</ele>
        <time>2026-08-05T09:12:27.000Z</time>
        <extensions>
          <ns3:TrackPointExtension>
            <ns3:hr>73</ns3:hr>
            <ns3:cad>0</ns3:cad>
          </ns3:TrackPointExtension>
        </extensions>
      </trkpt>
      <trkpt lat="43.48145504482090473175048828125" lon="1.43640230409801006317138671875">
        <ele>249</ele>
        <time>2026-08-05T09:12:28.000Z</time>
        <extensions>
          <ns3:TrackPointExtension>
            <ns3:hr>73</ns3:hr>
            <ns3:cad>0</ns3:cad>
          </ns3:TrackPointExtension>
        </extensions>
      </trkpt>
      <trkpt lat="43.48145722411572933197021484375" lon="1.4364122785627841949462890625">
        <ele>249</ele>
        <time>2026-08-05T09:12:29.000Z</time>
        <extensions>
          <ns3:TrackPointExtension>
            <ns3:hr>73</ns3:hr>
            <ns3:cad>0</ns3:cad>
          </ns3:TrackPointExtension>
        </extensions>
      </trkpt>
      <trkpt lat="43.4814635105431079864501953125" lon="1.4364109374582767486572265625">
        <ele>248.8000030517578125</ele>
        <time>2026-08-05T09:12:30.000Z</time>
        <extensions>
          <ns3:TrackPointExtension>
            <ns3:hr>73</ns3:hr>
            <ns3:cad>0</ns3:cad>
          </ns3:TrackPointExtension>
        </extensions>
      </trkpt>
      <trkpt lat="43.481465019285678863525390625" lon="1.4364092610776424407958984375">
        <ele>248.8000030517578125</ele>
        <time>2026-08-05T09:12:31.000Z</time>
        <extensions>
          <ns3:TrackPointExtension>
            <ns3:hr>72</ns3:hr>
            <ns3:cad>0</ns3:cad>
          </ns3:TrackPointExtension>
        </extensions>
      </trkpt>
      <trkpt lat="43.48146694712340831756591796875" lon="1.4364085905253887176513671875">
        <ele>248.600006103515625</ele>
        <time>2026-08-05T09:12:32.000Z</time>
        <extensions>
          <ns3:TrackPointExtension>
            <ns3:hr>72</ns3:hr>
            <ns3:cad>0</ns3:cad>
          </ns3:TrackPointExtension>
        </extensions>
      </trkpt>
      <trkpt lat="43.4814658574759960174560546875" lon="1.4364149607717990875244140625">
        <ele>248.600006103515625</ele>
        <time>2026-08-05T09:12:33.000Z</time>
        <extensions>
          <ns3:TrackPointExtension>
            <ns3:hr>72</ns3:hr>
            <ns3:cad>0</ns3:cad>
          </ns3:TrackPointExtension>
        </extensions>
      </trkpt>
      <trkpt lat="43.48146242089569568634033203125" lon="1.4364025555551052093505859375">
        <ele>248.8000030517578125</ele>
        <time>2026-08-05T09:12:34.000Z</time>
        <extensions>
          <ns3:TrackPointExtension>
            <ns3:hr>72</ns3:hr>
            <ns3:cad>0</ns3:cad>
          </ns3:TrackPointExtension>
        </extensions>
      </trkpt>
      <trkpt lat="43.481452278792858123779296875" lon="1.43638537265360355377197265625">
        <ele>249</ele>
        <time>2026-08-05T09:12:35.000Z</time>
        <extensions>
          <ns3:TrackPointExtension>
            <ns3:hr>73</ns3:hr>
            <ns3:cad>44</ns3:cad>
          </ns3:TrackPointExtension>
        </extensions>
      </trkpt>
      <trkpt lat="43.48143978975713253021240234375" lon="1.436368860304355621337890625">
        <ele>249.1999969482421875</ele>
        <time>2026-08-05T09:12:36.000Z</time>
        <extensions>
          <ns3:TrackPointExtension>
            <ns3:hr>73</ns3:hr>
            <ns3:cad>44</ns3:cad>
          </ns3:TrackPointExtension>
        </extensions>
      </trkpt>
      <trkpt lat="43.48143107257783412933349609375" lon="1.4363556168973445892333984375">
        <ele>249.399993896484375</ele>
        <time>2026-08-05T09:12:37.000Z</time>
        <extensions>
          <ns3:TrackPointExtension>
            <ns3:hr>73</ns3:hr>
            <ns3:cad>44</ns3:cad>
          </ns3:TrackPointExtension>
        </extensions>
      </trkpt>
      <trkpt lat="43.48142218776047229766845703125" lon="1.4363398589193820953369140625">
        <ele>249.600006103515625</ele>
        <time>2026-08-05T09:12:38.000Z</time>
        <extensions>
          <ns3:TrackPointExtension>
            <ns3:hr>73</ns3:hr>
            <ns3:cad>0</ns3:cad>
          </ns3:TrackPointExtension>
        </extensions>
      </trkpt>
      <trkpt lat="43.4814135544002056121826171875" lon="1.43632167018949985504150390625">
        <ele>249.600006103515625</ele>
        <time>2026-08-05T09:12:39.000Z</time>
        <extensions>
          <ns3:TrackPointExtension>
            <ns3:hr>73</ns3:hr>
            <ns3:cad>0</ns3:cad>
          </ns3:TrackPointExtension>
        </extensions>
      </trkpt>
      <trkpt lat="43.48140559159219264984130859375" lon="1.43630222417414188385009765625">
        <ele>249.8000030517578125</ele>
        <time>2026-08-05T09:12:40.000Z</time>
        <extensions>
          <ns3:TrackPointExtension>
            <ns3:hr>73</ns3:hr>
            <ns3:cad>53</ns3:cad>
          </ns3:TrackPointExtension>
        </extensions>
      </trkpt>
      <trkpt lat="43.481397964060306549072265625" lon="1.4362845383584499359130859375">
        <ele>249.8000030517578125</ele>
        <time>2026-08-05T09:12:41.000Z</time>
        <extensions>
          <ns3:TrackPointExtension>
            <ns3:hr>73</ns3:hr>
            <ns3:cad>53</ns3:cad>
          </ns3:TrackPointExtension>
        </extensions>
      </trkpt>
      <trkpt lat="43.48139100708067417144775390625" lon="1.43626668490469455718994140625">
        <ele>250</ele>
        <time>2026-08-05T09:12:42.000Z</time>
        <extensions>
          <ns3:TrackPointExtension>
            <ns3:hr>74</ns3:hr>
            <ns3:cad>53</ns3:cad>
          </ns3:TrackPointExtension>
        </extensions>
      </trkpt>
      <trkpt lat="43.4813843853771686553955078125" lon="1.43624723888933658599853515625">
        <ele>250</ele>
        <time>2026-08-05T09:12:43.000Z</time>
        <extensions>
          <ns3:TrackPointExtension>
            <ns3:hr>74</ns3:hr>
            <ns3:cad>53</ns3:cad>
          </ns3:TrackPointExtension>
        </extensions>
      </trkpt>
      <trkpt lat="43.48137726075947284698486328125" lon="1.43622837960720062255859375">
        <ele>250.1999969482421875</ele>
        <time>2026-08-05T09:12:44.000Z</time>
        <extensions>
          <ns3:TrackPointExtension>
            <ns3:hr>74</ns3:hr>
            <ns3:cad>55</ns3:cad>
          </ns3:TrackPointExtension>
        </extensions>
      </trkpt>
      <trkpt lat="43.4813703037798404693603515625" lon="1.43621203489601612091064453125">
        <ele>250.399993896484375</ele>
        <time>2026-08-05T09:12:45.000Z</time>
        <extensions>
          <ns3:TrackPointExtension>
            <ns3:hr>74</ns3:hr>
            <ns3:cad>55</ns3:cad>
          </ns3:TrackPointExtension>
        </extensions>
      </trkpt>
      <trkpt lat="43.4813619218766689300537109375" lon="1.436196528375148773193359375">
        <ele>250.600006103515625</ele>
        <time>2026-08-05T09:12:46.000Z</time>
        <extensions>
          <ns3:TrackPointExtension>
            <ns3:hr>74</ns3:hr>
            <ns3:cad>55</ns3:cad>
          </ns3:TrackPointExtension>
        </extensions>
      </trkpt>
      <trkpt lat="43.4813538752496242523193359375" lon="1.4361821115016937255859375">
        <ele>250.600006103515625</ele>
        <time>2026-08-05T09:12:47.000Z</time>
        <extensions>
          <ns3:TrackPointExtension>
            <ns3:hr>75</ns3:hr>
            <ns3:cad>55</ns3:cad>
          </ns3:TrackPointExtension>
        </extensions>
      </trkpt>
      <trkpt lat="43.481344990432262420654296875" lon="1.4361678622663021087646484375">
        <ele>250.8000030517578125</ele>
        <time>2026-08-05T09:12:48.000Z</time>
        <extensions>
          <ns3:TrackPointExtension>
            <ns3:hr>75</ns3:hr>
            <ns3:cad>55</ns3:cad>
          </ns3:TrackPointExtension>
        </extensions>
      </trkpt>
      <trkpt lat="43.48133618943393230438232421875" lon="1.43615302629768848419189453125">
        <ele>251</ele>
        <time>2026-08-05T09:12:49.000Z</time>
        <extensions>
          <ns3:TrackPointExtension>
            <ns3:hr>76</ns3:hr>
            <ns3:cad>55</ns3:cad>
          </ns3:TrackPointExtension>
        </extensions>
      </trkpt>
      <trkpt lat="43.48132395185530185699462890625" lon="1.43613718450069427490234375">
        <ele>251</ele>
        <time>2026-08-05T09:12:50.000Z</time>
        <extensions>
          <ns3:TrackPointExtension>
            <ns3:hr>76</ns3:hr>
            <ns3:cad>55</ns3:cad>
          </ns3:TrackPointExtension>
        </extensions>
      </trkpt>
      <trkpt lat="43.48131456412374973297119140625" lon="1.43612285144627094268798828125">
        <ele>251.1999969482421875</ele>
        <time>2026-08-05T09:12:51.000Z</time>
        <extensions>
          <ns3:TrackPointExtension>
            <ns3:hr>77</ns3:hr>
            <ns3:cad>55</ns3:cad>
          </ns3:TrackPointExtension>
        </extensions>
      </trkpt>
      <trkpt lat="43.4813050925731658935546875" lon="1.4361083507537841796875">
        <ele>251.399993896484375</ele>
        <time>2026-08-05T09:12:52.000Z</time>
        <extensions>
          <ns3:TrackPointExtension>
            <ns3:hr>78</ns3:hr>
            <ns3:cad>54</ns3:cad>
          </ns3:TrackPointExtension>
        </extensions>
      </trkpt>
      <trkpt lat="43.481298722326755523681640625" lon="1.43609787337481975555419921875">
        <ele>251.600006103515625</ele>
        <time>2026-08-05T09:12:53.000Z</time>
        <extensions>
          <ns3:TrackPointExtension>
            <ns3:hr>79</ns3:hr>
            <ns3:cad>54</ns3:cad>
          </ns3:TrackPointExtension>
        </extensions>
      </trkpt>
      <trkpt lat="43.48129863850772380828857421875" lon="1.43609669990837574005126953125">
        <ele>251.600006103515625</ele>
        <time>2026-08-05T09:12:54.000Z</time>
        <extensions>
          <ns3:TrackPointExtension>
            <ns3:hr>80</ns3:hr>
            <ns3:cad>54</ns3:cad>
          </ns3:TrackPointExtension>
        </extensions>
      </trkpt>
      <trkpt lat="43.481300063431262969970703125" lon="1.4360974542796611785888671875">
        <ele>251.8000030517578125</ele>
        <time>2026-08-05T09:12:55.000Z</time>
        <extensions>
          <ns3:TrackPointExtension>
            <ns3:hr>80</ns3:hr>
            <ns3:cad>0</ns3:cad>
          </ns3:TrackPointExtension>
        </extensions>
      </trkpt>
      <trkpt lat="43.48129981197416782379150390625" lon="1.436093933880329132080078125">
        <ele>251.8000030517578125</ele>
        <time>2026-08-05T09:12:56.000Z</time>
        <extensions>
          <ns3:TrackPointExtension>
            <ns3:hr>81</ns3:hr>
            <ns3:cad>0</ns3:cad>
          </ns3:TrackPointExtension>
        </extensions>
      </trkpt>
      <trkpt lat="43.481298387050628662109375" lon="1.436089910566806793212890625">
        <ele>251.600006103515625</ele>
        <time>2026-08-05T09:12:57.000Z</time>
        <extensions>
          <ns3:TrackPointExtension>
            <ns3:hr>82</ns3:hr>
            <ns3:cad>0</ns3:cad>
          </ns3:TrackPointExtension>
        </extensions>
      </trkpt>
      <trkpt lat="43.48129545338451862335205078125" lon="1.43608395941555500030517578125">
        <ele>251.600006103515625</ele>
        <time>2026-08-05T09:12:58.000Z</time>
        <extensions>
          <ns3:TrackPointExtension>
            <ns3:hr>83</ns3:hr>
            <ns3:cad>0</ns3:cad>
          </ns3:TrackPointExtension>
        </extensions>
      </trkpt>
      <trkpt lat="43.4812925197184085845947265625" lon="1.436078846454620361328125">
        <ele>251.600006103515625</ele>
        <time>2026-08-05T09:12:59.000Z</time>
        <extensions>
          <ns3:TrackPointExtension>
            <ns3:hr>84</ns3:hr>
            <ns3:cad>0</ns3:cad>
          </ns3:TrackPointExtension>
        </extensions>
      </trkpt>
      <trkpt lat="43.481288664042949676513671875" lon="1.43607675097882747650146484375">
        <ele>251.600006103515625</ele>
        <time>2026-08-05T09:13:00.000Z</time>
        <extensions>
          <ns3:TrackPointExtension>
            <ns3:hr>84</ns3:hr>
            <ns3:cad>0</ns3:cad>
          </ns3:TrackPointExtension>
        </extensions>
      </trkpt>
      <trkpt lat="43.48128455691039562225341796875" lon="1.4360729791224002838134765625">
        <ele>251.600006103515625</ele>
        <time>2026-08-05T09:13:01.000Z</time>
        <extensions>
          <ns3:TrackPointExtension>
            <ns3:hr>84</ns3:hr>
            <ns3:cad>0</ns3:cad>
          </ns3:TrackPointExtension>
        </extensions>
      </trkpt>
      <trkpt lat="43.48127952776849269866943359375" lon="1.43606887198984622955322265625">
        <ele>251.8000030517578125</ele>
        <time>2026-08-05T09:13:02.000Z</time>
        <extensions>
          <ns3:TrackPointExtension>
            <ns3:hr>86</ns3:hr>
            <ns3:cad>0</ns3:cad>
          </ns3:TrackPointExtension>
        </extensions>
      </trkpt>
      <trkpt lat="43.48126963712275028228759765625" lon="1.43605001270771026611328125">
        <ele>252</ele>
        <time>2026-08-05T09:13:03.000Z</time>
        <extensions>
          <ns3:TrackPointExtension>
            <ns3:hr>91</ns3:hr>
            <ns3:cad>0</ns3:cad>
          </ns3:TrackPointExtension>
        </extensions>
      </trkpt>
      <trkpt lat="43.48126150667667388916015625" lon="1.4360332489013671875">
        <ele>252.1999969482421875</ele>
        <time>2026-08-05T09:13:04.000Z</time>
        <extensions>
          <ns3:TrackPointExtension>
            <ns3:hr>96</ns3:hr>
            <ns3:cad>52</ns3:cad>
          </ns3:TrackPointExtension>
        </extensions>
      </trkpt>
      <trkpt lat="43.48125169984996318817138671875" lon="1.43601656891405582427978515625">
        <ele>252.399993896484375</ele>
        <time>2026-08-05T09:13:05.000Z</time>
        <extensions>
          <ns3:TrackPointExtension>
            <ns3:hr>99</ns3:hr>
            <ns3:cad>52</ns3:cad>
          </ns3:TrackPointExtension>
        </extensions>
      </trkpt>
      <trkpt lat="43.48124206066131591796875" lon="1.4360005594789981842041015625">
        <ele>252.399993896484375</ele>
        <time>2026-08-05T09:13:06.000Z</time>
        <extensions>
          <ns3:TrackPointExtension>
            <ns3:hr>99</ns3:hr>
            <ns3:cad>51</ns3:cad>
          </ns3:TrackPointExtension>
        </extensions>
      </trkpt>
      <trkpt lat="43.48123074509203433990478515625" lon="1.43598672933876514434814453125">
        <ele>252.600006103515625</ele>
        <time>2026-08-05T09:13:07.000Z</time>
        <extensions>
          <ns3:TrackPointExtension>
            <ns3:hr>99</ns3:hr>
            <ns3:cad>51</ns3:cad>
          </ns3:TrackPointExtension>
        </extensions>
      </trkpt>
      <trkpt lat="43.4812177531421184539794921875" lon="1.43597080372273921966552734375">
        <ele>252.8000030517578125</ele>
        <time>2026-08-05T09:13:08.000Z</time>
        <extensions>
          <ns3:TrackPointExtension>
            <ns3:hr>99</ns3:hr>
            <ns3:cad>51</ns3:cad>
          </ns3:TrackPointExtension>
        </extensions>
      </trkpt>
      <trkpt lat="43.48120794631540775299072265625" lon="1.4359552972018718719482421875">
        <ele>252.8000030517578125</ele>
        <time>2026-08-05T09:13:09.000Z</time>
        <extensions>
          <ns3:TrackPointExtension>
            <ns3:hr>100</ns3:hr>
            <ns3:cad>51</ns3:cad>
          </ns3:TrackPointExtension>
        </extensions>
      </trkpt>
      <trkpt lat="43.48119847476482391357421875" lon="1.43593995831906795501708984375">
        <ele>253</ele>
        <time>2026-08-05T09:13:10.000Z</time>
        <extensions>
          <ns3:TrackPointExtension>
            <ns3:hr>100</ns3:hr>
            <ns3:cad>55</ns3:cad>
          </ns3:TrackPointExtension>
        </extensions>
      </trkpt>
      <trkpt lat="43.48118841648101806640625" lon="1.43592420034110546112060546875">
        <ele>253</ele>
        <time>2026-08-05T09:13:11.000Z</time>
        <extensions>
          <ns3:TrackPointExtension>
            <ns3:hr>101</ns3:hr>
            <ns3:cad>55</ns3:cad>
          </ns3:TrackPointExtension>
        </extensions>
      </trkpt>
      <trkpt lat="43.48117995075881481170654296875" lon="1.435911543667316436767578125">
        <ele>253.1999969482421875</ele>
        <time>2026-08-05T09:13:12.000Z</time>
        <extensions>
          <ns3:TrackPointExtension>
            <ns3:hr>101</ns3:hr>
            <ns3:cad>55</ns3:cad>
          </ns3:TrackPointExtension>
        </extensions>
      </trkpt>
      <trkpt lat="43.4811728261411190032958984375" lon="1.43589846789836883544921875">
        <ele>253.1999969482421875</ele>
        <time>2026-08-05T09:13:13.000Z</time>
        <extensions>
          <ns3:TrackPointExtension>
            <ns3:hr>101</ns3:hr>
            <ns3:cad>55</ns3:cad>
          </ns3:TrackPointExtension>
        </extensions>
      </trkpt>
      <trkpt lat="43.48116494715213775634765625" lon="1.4358845539391040802001953125">
        <ele>253.399993896484375</ele>
        <time>2026-08-05T09:13:14.000Z</time>
        <extensions>
          <ns3:TrackPointExtension>
            <ns3:hr>101</ns3:hr>
            <ns3:cad>55</ns3:cad>
          </ns3:TrackPointExtension>
        </extensions>
      </trkpt>
      <trkpt lat="43.48115782253444194793701171875" lon="1.4358704723417758941650390625">
        <ele>253.399993896484375</ele>
        <time>2026-08-05T09:13:15.000Z</time>
        <extensions>
          <ns3:TrackPointExtension>
            <ns3:hr>102</ns3:hr>
            <ns3:cad>53</ns3:cad>
          </ns3:TrackPointExtension>
        </extensions>
      </trkpt>
      <trkpt lat="43.48115145228803157806396484375" lon="1.43585823476314544677734375">
        <ele>253.600006103515625</ele>
        <time>2026-08-05T09:13:16.000Z</time>
        <extensions>
          <ns3:TrackPointExtension>
            <ns3:hr>103</ns3:hr>
            <ns3:cad>53</ns3:cad>
          </ns3:TrackPointExtension>
        </extensions>
      </trkpt>
      <trkpt lat="43.48114726133644580841064453125" lon="1.4358496852219104766845703125">
        <ele>253.8000030517578125</ele>
        <time>2026-08-05T09:13:17.000Z</time>
        <extensions>
          <ns3:TrackPointExtension>
            <ns3:hr>103</ns3:hr>
            <ns3:cad>52</ns3:cad>
          </ns3:TrackPointExtension>
        </extensions>
      </trkpt>
      <trkpt lat="43.48114726133644580841064453125" lon="1.43584608100354671478271484375">
        <ele>254</ele>
        <time>2026-08-05T09:13:18.000Z</time>
        <extensions>
          <ns3:TrackPointExtension>
            <ns3:hr>104</ns3:hr>
            <ns3:cad>52</ns3:cad>
          </ns3:TrackPointExtension>
        </extensions>
      </trkpt>
      <trkpt lat="43.4811453334987163543701171875" lon="1.4358439855277538299560546875">
        <ele>254</ele>
        <time>2026-08-05T09:13:19.000Z</time>
        <extensions>
          <ns3:TrackPointExtension>
            <ns3:hr>105</ns3:hr>
            <ns3:cad>52</ns3:cad>
          </ns3:TrackPointExtension>
        </extensions>
      </trkpt>
      <trkpt lat="43.48114457912743091583251953125" lon="1.43584138713777065277099609375">
        <ele>254.1999969482421875</ele>
        <time>2026-08-05T09:13:20.000Z</time>
        <extensions>
          <ns3:TrackPointExtension>
            <ns3:hr>107</ns3:hr>
            <ns3:cad>0</ns3:cad>
          </ns3:TrackPointExtension>
        </extensions>
      </trkpt>
      <trkpt lat="43.481142818927764892578125" lon="1.43583836965262889862060546875">
        <ele>254.1999969482421875</ele>
        <time>2026-08-05T09:13:21.000Z</time>
        <extensions>
          <ns3:TrackPointExtension>
            <ns3:hr>109</ns3:hr>
            <ns3:cad>0</ns3:cad>
          </ns3:TrackPointExtension>
        </extensions>
      </trkpt>
      <trkpt lat="43.481142483651638031005859375" lon="1.43583820201456546783447265625">
        <ele>254.1999969482421875</ele>
        <time>2026-08-05T09:13:22.000Z</time>
        <extensions>
          <ns3:TrackPointExtension>
            <ns3:hr>110</ns3:hr>
            <ns3:cad>0</ns3:cad>
          </ns3:TrackPointExtension>
        </extensions>
      </trkpt>
      <trkpt lat="43.48114256747066974639892578125" lon="1.4358361065387725830078125">
        <ele>254.1999969482421875</ele>
        <time>2026-08-05T09:13:23.000Z</time>
        <extensions>
          <ns3:TrackPointExtension>
            <ns3:hr>110</ns3:hr>
            <ns3:cad>0</ns3:cad>
          </ns3:TrackPointExtension>
        </extensions>
      </trkpt>
      <trkpt lat="43.48114206455647945404052734375" lon="1.435833759605884552001953125">
        <ele>254.1999969482421875</ele>
        <time>2026-08-05T09:13:24.000Z</time>
        <extensions>
          <ns3:TrackPointExtension>
            <ns3:hr>111</ns3:hr>
            <ns3:cad>0</ns3:cad>
          </ns3:TrackPointExtension>
        </extensions>
      </trkpt>
      <trkpt lat="43.48114122636616230010986328125" lon="1.43583266995847225189208984375">
        <ele>254.1999969482421875</ele>
        <time>2026-08-05T09:13:25.000Z</time>
        <extensions>
          <ns3:TrackPointExtension>
            <ns3:hr>111</ns3:hr>
            <ns3:cad>0</ns3:cad>
          </ns3:TrackPointExtension>
        </extensions>
      </trkpt>
      <trkpt lat="43.48114055581390857696533203125" lon="1.43583283759653568267822265625">
        <ele>254.1999969482421875</ele>
        <time>2026-08-05T09:13:26.000Z</time>
        <extensions>
          <ns3:TrackPointExtension>
            <ns3:hr>109</ns3:hr>
            <ns3:cad>0</ns3:cad>
          </ns3:TrackPointExtension>
        </extensions>
      </trkpt>
      <trkpt lat="43.481139801442623138427734375" lon="1.435830406844615936279296875">
        <ele>254.1999969482421875</ele>
        <time>2026-08-05T09:13:27.000Z</time>
        <extensions>
          <ns3:TrackPointExtension>
            <ns3:hr>109</ns3:hr>
            <ns3:cad>0</ns3:cad>
          </ns3:TrackPointExtension>
        </extensions>
      </trkpt>
      <trkpt lat="43.4811356104910373687744140625" lon="1.4358144812285900115966796875">
        <ele>254.1999969482421875</ele>
        <time>2026-08-05T09:13:28.000Z</time>
        <extensions>
          <ns3:TrackPointExtension>
            <ns3:hr>108</ns3:hr>
            <ns3:cad>0</ns3:cad>
          </ns3:TrackPointExtension>
        </extensions>
      </trkpt>
      <trkpt lat="43.481130413711071014404296875" lon="1.4358027465641498565673828125">
        <ele>254.1999969482421875</ele>
        <time>2026-08-05T09:13:29.000Z</time>
        <extensions>
          <ns3:TrackPointExtension>
            <ns3:hr>107</ns3:hr>
            <ns3:cad>0</ns3:cad>
          </ns3:TrackPointExtension>
        </extensions>
      </trkpt>
      <trkpt lat="43.48112965933978557586669921875" lon="1.43578891642391681671142578125">
        <ele>254.600006103515625</ele>
        <time>2026-08-05T09:13:30.000Z</time>
        <extensions>
          <ns3:TrackPointExtension>
            <ns3:hr>105</ns3:hr>
            <ns3:cad>0</ns3:cad>
          </ns3:TrackPointExtension>
        </extensions>
      </trkpt>
      <trkpt lat="43.48112546838819980621337890625" lon="1.4357765950262546539306640625">
        <ele>254.8000030517578125</ele>
        <time>2026-08-05T09:13:31.000Z</time>
        <extensions>
          <ns3:TrackPointExtension>
            <ns3:hr>104</ns3:hr>
            <ns3:cad>0</ns3:cad>
          </ns3:TrackPointExtension>
        </extensions>
      </trkpt>
      <trkpt lat="43.48112060688436031341552734375" lon="1.4357638545334339141845703125">
        <ele>255.1999969482421875</ele>
        <time>2026-08-05T09:13:32.000Z</time>
        <extensions>
          <ns3:TrackPointExtension>
            <ns3:hr>103</ns3:hr>
            <ns3:cad>0</ns3:cad>
          </ns3:TrackPointExtension>
        </extensions>
      </trkpt>
      <trkpt lat="43.48111557774245738983154296875" lon="1.43574918620288372039794921875">
        <ele>255.399993896484375</ele>
        <time>2026-08-05T09:13:33.000Z</time>
        <extensions>
          <ns3:TrackPointExtension>
            <ns3:hr>103</ns3:hr>
            <ns3:cad>0</ns3:cad>
          </ns3:TrackPointExtension>
        </extensions>
      </trkpt>
      <trkpt lat="43.48110887221992015838623046875" lon="1.43573644571006298065185546875">
        <ele>255.399993896484375</ele>
        <time>2026-08-05T09:13:34.000Z</time>
        <extensions>
          <ns3:TrackPointExtension>
            <ns3:hr>103</ns3:hr>
            <ns3:cad>0</ns3:cad>
          </ns3:TrackPointExtension>
        </extensions>
      </trkpt>
      <trkpt lat="43.481101579964160919189453125" lon="1.43572571687400341033935546875">
        <ele>255.399993896484375</ele>
        <time>2026-08-05T09:13:35.000Z</time>
        <extensions>
          <ns3:TrackPointExtension>
            <ns3:hr>103</ns3:hr>
            <ns3:cad>50</ns3:cad>
          </ns3:TrackPointExtension>
        </extensions>
      </trkpt>
      <trkpt lat="43.481094874441623687744140625" lon="1.43571465276181697845458984375">
        <ele>255.399993896484375</ele>
        <time>2026-08-05T09:13:36.000Z</time>
        <extensions>
          <ns3:TrackPointExtension>
            <ns3:hr>103</ns3:hr>
            <ns3:cad>50</ns3:cad>
          </ns3:TrackPointExtension>
        </extensions>
      </trkpt>
      <trkpt lat="43.4810880012810230255126953125" lon="1.435701660811901092529296875">
        <ele>255.399993896484375</ele>
        <time>2026-08-05T09:13:37.000Z</time>
        <extensions>
          <ns3:TrackPointExtension>
            <ns3:hr>104</ns3:hr>
            <ns3:cad>50</ns3:cad>
          </ns3:TrackPointExtension>
        </extensions>
      </trkpt>
      <trkpt lat="43.48108112812042236328125" lon="1.43568514846265316009521484375">
        <ele>255.399993896484375</ele>
        <time>2026-08-05T09:13:38.000Z</time>
        <extensions>
          <ns3:TrackPointExtension>
            <ns3:hr>104</ns3:hr>
            <ns3:cad>50</ns3:cad>
          </ns3:TrackPointExtension>
        </extensions>
      </trkpt>
      <trkpt lat="43.48107517696917057037353515625" lon="1.43567173741757869720458984375">
        <ele>255.600006103515625</ele>
        <time>2026-08-05T09:13:39.000Z</time>
        <extensions>
          <ns3:TrackPointExtension>
            <ns3:hr>105</ns3:hr>
            <ns3:cad>50</ns3:cad>
          </ns3:TrackPointExtension>
        </extensions>
      </trkpt>
      <trkpt lat="43.481070064008235931396484375" lon="1.435662098228931427001953125">
        <ele>255.8000030517578125</ele>
        <time>2026-08-05T09:13:40.000Z</time>
        <extensions>
          <ns3:TrackPointExtension>
            <ns3:hr>106</ns3:hr>
            <ns3:cad>50</ns3:cad>
          </ns3:TrackPointExtension>
        </extensions>
      </trkpt>
      <trkpt lat="43.48106595687568187713623046875" lon="1.435650028288364410400390625">
        <ele>256</ele>
        <time>2026-08-05T09:13:41.000Z</time>
        <extensions>
          <ns3:TrackPointExtension>
            <ns3:hr>107</ns3:hr>
            <ns3:cad>50</ns3:cad>
          </ns3:TrackPointExtension>
        </extensions>
      </trkpt>
      <trkpt lat="43.48106034100055694580078125" lon="1.43563619814813137054443359375">
        <ele>256.20001220703125</ele>
        <time>2026-08-05T09:13:42.000Z</time>
        <extensions>
          <ns3:TrackPointExtension>
            <ns3:hr>107</ns3:hr>
            <ns3:cad>49</ns3:cad>
          </ns3:TrackPointExtension>
        </extensions>
      </trkpt>
      <trkpt lat="43.4810588322579860687255859375" lon="1.4356260560452938079833984375">
        <ele>256.20001220703125</ele>
        <time>2026-08-05T09:13:43.000Z</time>
        <extensions>
          <ns3:TrackPointExtension>
            <ns3:hr>107</ns3:hr>
            <ns3:cad>49</ns3:cad>
          </ns3:TrackPointExtension>
        </extensions>
      </trkpt>
      <trkpt lat="43.48105338402092456817626953125" lon="1.43561641685664653778076171875">
        <ele>256.399993896484375</ele>
        <time>2026-08-05T09:13:44.000Z</time>
        <extensions>
          <ns3:TrackPointExtension>
            <ns3:hr>107</ns3:hr>
            <ns3:cad>49</ns3:cad>
          </ns3:TrackPointExtension>
        </extensions>
      </trkpt>
      <trkpt lat="43.481053300201892852783203125" lon="1.435608454048633575439453125">
        <ele>256.399993896484375</ele>
        <time>2026-08-05T09:13:45.000Z</time>
        <extensions>
          <ns3:TrackPointExtension>
            <ns3:hr>107</ns3:hr>
            <ns3:cad>49</ns3:cad>
          </ns3:TrackPointExtension>
        </extensions>
      </trkpt>
      <trkpt lat="43.4810524620115756988525390625" lon="1.43560652621090412139892578125">
        <ele>256.399993896484375</ele>
        <time>2026-08-05T09:13:46.000Z</time>
        <extensions>
          <ns3:TrackPointExtension>
            <ns3:hr>107</ns3:hr>
            <ns3:cad>49</ns3:cad>
          </ns3:TrackPointExtension>
        </extensions>
      </trkpt>
      <trkpt lat="43.4810527972877025604248046875" lon="1.43560401163995265960693359375">
        <ele>256.399993896484375</ele>
        <time>2026-08-05T09:13:47.000Z</time>
        <extensions>
          <ns3:TrackPointExtension>
            <ns3:hr>107</ns3:hr>
            <ns3:cad>49</ns3:cad>
          </ns3:TrackPointExtension>
        </extensions>
      </trkpt>
      <trkpt lat="43.481050617992877960205078125" lon="1.43560334108769893646240234375">
        <ele>256.600006103515625</ele>
        <time>2026-08-05T09:13:48.000Z</time>
        <extensions>
          <ns3:TrackPointExtension>
            <ns3:hr>108</ns3:hr>
            <ns3:cad>0</ns3:cad>
          </ns3:TrackPointExtension>
        </extensions>
      </trkpt>
      <trkpt lat="43.4810507856309413909912109375" lon="1.43559864722192287445068359375">
        <ele>256.600006103515625</ele>
        <time>2026-08-05T09:13:49.000Z</time>
        <extensions>
          <ns3:TrackPointExtension>
            <ns3:hr>108</ns3:hr>
            <ns3:cad>0</ns3:cad>
          </ns3:TrackPointExtension>
        </extensions>
      </trkpt>
      <trkpt lat="43.48104835487902164459228515625" lon="1.435590684413909912109375">
        <ele>256.600006103515625</ele>
        <time>2026-08-05T09:13:50.000Z</time>
        <extensions>
          <ns3:TrackPointExtension>
            <ns3:hr>108</ns3:hr>
            <ns3:cad>0</ns3:cad>
          </ns3:TrackPointExtension>
        </extensions>
      </trkpt>
      <trkpt lat="43.48104785196483135223388671875" lon="1.43557668663561344146728515625">
        <ele>256.79998779296875</ele>
        <time>2026-08-05T09:13:51.000Z</time>
        <extensions>
          <ns3:TrackPointExtension>
            <ns3:hr>108</ns3:hr>
            <ns3:cad>0</ns3:cad>
          </ns3:TrackPointExtension>
        </extensions>
      </trkpt>
      <trkpt lat="43.4810450859367847442626953125" lon="1.43556260503828525543212890625">
        <ele>256.79998779296875</ele>
        <time>2026-08-05T09:13:52.000Z</time>
        <extensions>
          <ns3:TrackPointExtension>
            <ns3:hr>108</ns3:hr>
            <ns3:cad>0</ns3:cad>
          </ns3:TrackPointExtension>
        </extensions>
      </trkpt>
      <trkpt lat="43.4810440801084041595458984375" lon="1.4355492778122425079345703125">
        <ele>257</ele>
        <time>2026-08-05T09:13:53.000Z</time>
        <extensions>
          <ns3:TrackPointExtension>
            <ns3:hr>108</ns3:hr>
            <ns3:cad>0</ns3:cad>
          </ns3:TrackPointExtension>
        </extensions>
      </trkpt>
      <trkpt lat="43.4810430742800235748291015625" lon="1.43553310073912143707275390625">
        <ele>257</ele>
        <time>2026-08-05T09:13:54.000Z</time>
        <extensions>
          <ns3:TrackPointExtension>
            <ns3:hr>108</ns3:hr>
            <ns3:cad>0</ns3:cad>
          </ns3:TrackPointExtension>
        </extensions>
      </trkpt>
      <trkpt lat="43.48104567267000675201416015625" lon="1.43551851622760295867919921875">
        <ele>257.20001220703125</ele>
        <time>2026-08-05T09:13:55.000Z</time>
        <extensions>
          <ns3:TrackPointExtension>
            <ns3:hr>108</ns3:hr>
            <ns3:cad>0</ns3:cad>
          </ns3:TrackPointExtension>
        </extensions>
      </trkpt>
      <trkpt lat="43.48104215227067470550537109375" lon="1.43550259061157703399658203125">
        <ele>257.20001220703125</ele>
        <time>2026-08-05T09:13:56.000Z</time>
        <extensions>
          <ns3:TrackPointExtension>
            <ns3:hr>108</ns3:hr>
            <ns3:cad>47</ns3:cad>
          </ns3:TrackPointExtension>
        </extensions>
      </trkpt>
      <trkpt lat="43.48103762604296207427978515625" lon="1.43548750318586826324462890625">
        <ele>257.20001220703125</ele>
        <time>2026-08-05T09:13:57.000Z</time>
        <extensions>
          <ns3:TrackPointExtension>
            <ns3:hr>108</ns3:hr>
            <ns3:cad>47</ns3:cad>
          </ns3:TrackPointExtension>
        </extensions>
      </trkpt>
      <trkpt lat="43.48103393800556659698486328125" lon="1.43547157756984233856201171875">
        <ele>257.399993896484375</ele>
        <time>2026-08-05T09:13:58.000Z</time>
        <extensions>
          <ns3:TrackPointExtension>
            <ns3:hr>108</ns3:hr>
            <ns3:cad>47</ns3:cad>
          </ns3:TrackPointExtension>
        </extensions>
      </trkpt>
      <trkpt lat="43.48103083670139312744140625" lon="1.43545531667768955230712890625">
        <ele>257.399993896484375</ele>
        <time>2026-08-05T09:13:59.000Z</time>
        <extensions>
          <ns3:TrackPointExtension>
            <ns3:hr>108</ns3:hr>
            <ns3:cad>46</ns3:cad>
          </ns3:TrackPointExtension>
        </extensions>
      </trkpt>
      <trkpt lat="43.48102723248302936553955078125" lon="1.43543989397585391998291015625">
        <ele>257.600006103515625</ele>
        <time>2026-08-05T09:14:00.000Z</time>
        <extensions>
          <ns3:TrackPointExtension>
            <ns3:hr>108</ns3:hr>
            <ns3:cad>46</ns3:cad>
          </ns3:TrackPointExtension>
        </extensions>
      </trkpt>
      <trkpt lat="43.48102421499788761138916015625" lon="1.435422711074352264404296875">
        <ele>257.600006103515625</ele>
        <time>2026-08-05T09:14:01.000Z</time>
        <extensions>
          <ns3:TrackPointExtension>
            <ns3:hr>108</ns3:hr>
            <ns3:cad>47</ns3:cad>
          </ns3:TrackPointExtension>
        </extensions>
      </trkpt>
      <trkpt lat="43.4810202755033969879150390625" lon="1.4354074560105800628662109375">
        <ele>257.600006103515625</ele>
        <time>2026-08-05T09:14:02.000Z</time>
        <extensions>
          <ns3:TrackPointExtension>
            <ns3:hr>107</ns3:hr>
            <ns3:cad>47</ns3:cad>
          </ns3:TrackPointExtension>
        </extensions>
      </trkpt>
      <trkpt lat="43.48101985640823841094970703125" lon="1.43538884818553924560546875">
        <ele>257.79998779296875</ele>
        <time>2026-08-05T09:14:03.000Z</time>
        <extensions>
          <ns3:TrackPointExtension>
            <ns3:hr>107</ns3:hr>
            <ns3:cad>48</ns3:cad>
          </ns3:TrackPointExtension>
        </extensions>
      </trkpt>
      <trkpt lat="43.481021113693714141845703125" lon="1.43537568859755992889404296875">
        <ele>257.79998779296875</ele>
        <time>2026-08-05T09:14:04.000Z</time>
        <extensions>
          <ns3:TrackPointExtension>
            <ns3:hr>107</ns3:hr>
            <ns3:cad>48</ns3:cad>
          </ns3:TrackPointExtension>
        </extensions>
      </trkpt>
      <trkpt lat="43.48101734183728694915771484375" lon="1.435365714132785797119140625">
        <ele>257.79998779296875</ele>
        <time>2026-08-05T09:14:05.000Z</time>
        <extensions>
          <ns3:TrackPointExtension>
            <ns3:hr>107</ns3:hr>
            <ns3:cad>48</ns3:cad>
          </ns3:TrackPointExtension>
        </extensions>
      </trkpt>
      <trkpt lat="43.48101516254246234893798828125" lon="1.43535037524998188018798828125">
        <ele>258</ele>
        <time>2026-08-05T09:14:06.000Z</time>
        <extensions>
          <ns3:TrackPointExtension>
            <ns3:hr>107</ns3:hr>
            <ns3:cad>48</ns3:cad>
          </ns3:TrackPointExtension>
        </extensions>
      </trkpt>
      <trkpt lat="43.48101164214313030242919921875" lon="1.43533696420490741729736328125">
        <ele>258</ele>
        <time>2026-08-05T09:14:07.000Z</time>
        <extensions>
          <ns3:TrackPointExtension>
            <ns3:hr>107</ns3:hr>
            <ns3:cad>50</ns3:cad>
          </ns3:TrackPointExtension>
        </extensions>
      </trkpt>
      <trkpt lat="43.48100694827735424041748046875" lon="1.43531785346567630767822265625">
        <ele>258</ele>
        <time>2026-08-05T09:14:08.000Z</time>
        <extensions>
          <ns3:TrackPointExtension>
            <ns3:hr>107</ns3:hr>
            <ns3:cad>51</ns3:cad>
          </ns3:TrackPointExtension>
        </extensions>
      </trkpt>
      <trkpt lat="43.4810021705925464630126953125" lon="1.43530058674514293670654296875">
        <ele>258.20001220703125</ele>
        <time>2026-08-05T09:14:09.000Z</time>
        <extensions>
          <ns3:TrackPointExtension>
            <ns3:hr>107</ns3:hr>
            <ns3:cad>51</ns3:cad>
          </ns3:TrackPointExtension>
        </extensions>
      </trkpt>
      <trkpt lat="43.48099957220256328582763671875" lon="1.43528466112911701202392578125">
        <ele>258.20001220703125</ele>
        <time>2026-08-05T09:14:10.000Z</time>
        <extensions>
          <ns3:TrackPointExtension>
            <ns3:hr>107</ns3:hr>
            <ns3:cad>50</ns3:cad>
          </ns3:TrackPointExtension>
        </extensions>
      </trkpt>
      <trkpt lat="43.48099823109805583953857421875" lon="1.4352686516940593719482421875">
        <ele>258.20001220703125</ele>
        <time>2026-08-05T09:14:11.000Z</time>
        <extensions>
          <ns3:TrackPointExtension>
            <ns3:hr>107</ns3:hr>
            <ns3:cad>50</ns3:cad>
          </ns3:TrackPointExtension>
        </extensions>
      </trkpt>
      <trkpt lat="43.48100024275481700897216796875" lon="1.435250379145145416259765625">
        <ele>258.399993896484375</ele>
        <time>2026-08-05T09:14:12.000Z</time>
        <extensions>
          <ns3:TrackPointExtension>
            <ns3:hr>108</ns3:hr>
            <ns3:cad>50</ns3:cad>
          </ns3:TrackPointExtension>
        </extensions>
      </trkpt>
      <trkpt lat="43.4809981472790241241455078125" lon="1.4352327771484851837158203125">
        <ele>258.399993896484375</ele>
        <time>2026-08-05T09:14:13.000Z</time>
        <extensions>
          <ns3:TrackPointExtension>
            <ns3:hr>107</ns3:hr>
            <ns3:cad>50</ns3:cad>
          </ns3:TrackPointExtension>
        </extensions>
      </trkpt>
      <trkpt lat="43.480996303260326385498046875" lon="1.43521190620958805084228515625">
        <ele>258.600006103515625</ele>
        <time>2026-08-05T09:14:14.000Z</time>
        <extensions>
          <ns3:TrackPointExtension>
            <ns3:hr>107</ns3:hr>
            <ns3:cad>50</ns3:cad>
          </ns3:TrackPointExtension>
        </extensions>
      </trkpt>
      <trkpt lat="43.48099538125097751617431640625" lon="1.435192711651325225830078125">
        <ele>258.600006103515625</ele>
        <time>2026-08-05T09:14:15.000Z</time>
        <extensions>
          <ns3:TrackPointExtension>
            <ns3:hr>107</ns3:hr>
            <ns3:cad>50</ns3:cad>
          </ns3:TrackPointExtension>
        </extensions>
      </trkpt>
      <trkpt lat="43.4809951297938823699951171875" lon="1.43517200835049152374267578125">
        <ele>258.79998779296875</ele>
        <time>2026-08-05T09:14:16.000Z</time>
        <extensions>
          <ns3:TrackPointExtension>
            <ns3:hr>108</ns3:hr>
            <ns3:cad>48</ns3:cad>
          </ns3:TrackPointExtension>
        </extensions>
      </trkpt>
      <trkpt lat="43.480994962155818939208984375" lon="1.435153819620609283447265625">
        <ele>258.79998779296875</ele>
        <time>2026-08-05T09:14:17.000Z</time>
        <extensions>
          <ns3:TrackPointExtension>
            <ns3:hr>107</ns3:hr>
            <ns3:cad>48</ns3:cad>
          </ns3:TrackPointExtension>
        </extensions>
      </trkpt>
      <trkpt lat="43.480994291603565216064453125" lon="1.4351388998329639434814453125">
        <ele>259</ele>
        <time>2026-08-05T09:14:18.000Z</time>
        <extensions>
          <ns3:TrackPointExtension>
            <ns3:hr>107</ns3:hr>
            <ns3:cad>48</ns3:cad>
          </ns3:TrackPointExtension>
        </extensions>
      </trkpt>
      <trkpt lat="43.4809978120028972625732421875" lon="1.4351281709969043731689453125">
        <ele>259.20001220703125</ele>
        <time>2026-08-05T09:14:19.000Z</time>
        <extensions>
          <ns3:TrackPointExtension>
            <ns3:hr>107</ns3:hr>
            <ns3:cad>50</ns3:cad>
          </ns3:TrackPointExtension>
        </extensions>
      </trkpt>
      <trkpt lat="43.4809994883835315704345703125" lon="1.4351130835711956024169921875">
        <ele>259.20001220703125</ele>
        <time>2026-08-05T09:14:20.000Z</time>
        <extensions>
          <ns3:TrackPointExtension>
            <ns3:hr>106</ns3:hr>
            <ns3:cad>50</ns3:cad>
          </ns3:TrackPointExtension>
        </extensions>
      </trkpt>
      <trkpt lat="43.48100225441157817840576171875" lon="1.435094140470027923583984375">
        <ele>259.399993896484375</ele>
        <time>2026-08-05T09:14:21.000Z</time>
        <extensions>
          <ns3:TrackPointExtension>
            <ns3:hr>106</ns3:hr>
            <ns3:cad>50</ns3:cad>
          </ns3:TrackPointExtension>
        </extensions>
      </trkpt>
      <trkpt lat="43.481003679335117340087890625" lon="1.4350758679211139678955078125">
        <ele>259.600006103515625</ele>
        <time>2026-08-05T09:14:22.000Z</time>
        <extensions>
          <ns3:TrackPointExtension>
            <ns3:hr>106</ns3:hr>
            <ns3:cad>50</ns3:cad>
          </ns3:TrackPointExtension>
        </extensions>
      </trkpt>
      <trkpt lat="43.4810128994286060333251953125" lon="1.435067318379878997802734375">
        <ele>259.79998779296875</ele>
        <time>2026-08-05T09:14:23.000Z</time>
        <extensions>
          <ns3:TrackPointExtension>
            <ns3:hr>106</ns3:hr>
            <ns3:cad>50</ns3:cad>
          </ns3:TrackPointExtension>
        </extensions>
      </trkpt>
      <trkpt lat="43.4810162521898746490478515625" lon="1.435055918991565704345703125">
        <ele>259.79998779296875</ele>
        <time>2026-08-05T09:14:24.000Z</time>
        <extensions>
          <ns3:TrackPointExtension>
            <ns3:hr>106</ns3:hr>
            <ns3:cad>50</ns3:cad>
          </ns3:TrackPointExtension>
        </extensions>
      </trkpt>
      <trkpt lat="43.481019437313079833984375" lon="1.43504728563129901885986328125">
        <ele>260</ele>
        <time>2026-08-05T09:14:25.000Z</time>
        <extensions>
          <ns3:TrackPointExtension>
            <ns3:hr>106</ns3:hr>
            <ns3:cad>50</ns3:cad>
          </ns3:TrackPointExtension>
        </extensions>
      </trkpt>
      <trkpt lat="43.48102186806499958038330078125" lon="1.435029767453670501708984375">
        <ele>260.20001220703125</ele>
        <time>2026-08-05T09:14:26.000Z</time>
        <extensions>
          <ns3:TrackPointExtension>
            <ns3:hr>106</ns3:hr>
            <ns3:cad>50</ns3:cad>
          </ns3:TrackPointExtension>
        </extensions>
      </trkpt>
      <trkpt lat="43.481021784245967864990234375" lon="1.43501074053347110748291015625">
        <ele>260.20001220703125</ele>
        <time>2026-08-05T09:14:27.000Z</time>
        <extensions>
          <ns3:TrackPointExtension>
            <ns3:hr>106</ns3:hr>
            <ns3:cad>50</ns3:cad>
          </ns3:TrackPointExtension>
        </extensions>
      </trkpt>
      <trkpt lat="43.48102413117885589599609375" lon="1.43499481491744518280029296875">
        <ele>260.399993896484375</ele>
        <time>2026-08-05T09:14:28.000Z</time>
        <extensions>
          <ns3:TrackPointExtension>
            <ns3:hr>105</ns3:hr>
            <ns3:cad>50</ns3:cad>
          </ns3:TrackPointExtension>
        </extensions>
      </trkpt>
      <trkpt lat="43.48102589137852191925048828125" lon="1.43498140387237071990966796875">
        <ele>260.600006103515625</ele>
        <time>2026-08-05T09:14:29.000Z</time>
        <extensions>
          <ns3:TrackPointExtension>
            <ns3:hr>106</ns3:hr>
            <ns3:cad>49</ns3:cad>
          </ns3:TrackPointExtension>
        </extensions>
      </trkpt>
      <trkpt lat="43.481029160320758819580078125" lon="1.43497117795050144195556640625">
        <ele>260.79998779296875</ele>
        <time>2026-08-05T09:14:30.000Z</time>
        <extensions>
          <ns3:TrackPointExtension>
            <ns3:hr>106</ns3:hr>
            <ns3:cad>49</ns3:cad>
          </ns3:TrackPointExtension>
        </extensions>
      </trkpt>
      <trkpt lat="43.481032848358154296875" lon="1.43495374359190464019775390625">
        <ele>260.79998779296875</ele>
        <time>2026-08-05T09:14:31.000Z</time>
        <extensions>
          <ns3:TrackPointExtension>
            <ns3:hr>105</ns3:hr>
            <ns3:cad>49</ns3:cad>
          </ns3:TrackPointExtension>
        </extensions>
      </trkpt>
      <trkpt lat="43.48103444091975688934326171875" lon="1.4349360577762126922607421875">
        <ele>261</ele>
        <time>2026-08-05T09:14:32.000Z</time>
        <extensions>
          <ns3:TrackPointExtension>
            <ns3:hr>106</ns3:hr>
            <ns3:cad>48</ns3:cad>
          </ns3:TrackPointExtension>
        </extensions>
      </trkpt>
      <trkpt lat="43.48103494383394718170166015625" lon="1.43491677939891815185546875">
        <ele>261.20001220703125</ele>
        <time>2026-08-05T09:14:33.000Z</time>
        <extensions>
          <ns3:TrackPointExtension>
            <ns3:hr>106</ns3:hr>
            <ns3:cad>48</ns3:cad>
          </ns3:TrackPointExtension>
        </extensions>
      </trkpt>
      <trkpt lat="43.48103796131908893585205078125" lon="1.434901021420955657958984375">
        <ele>261.399993896484375</ele>
        <time>2026-08-05T09:14:34.000Z</time>
        <extensions>
          <ns3:TrackPointExtension>
            <ns3:hr>106</ns3:hr>
            <ns3:cad>48</ns3:cad>
          </ns3:TrackPointExtension>
        </extensions>
      </trkpt>
      <trkpt lat="43.48104114644229412078857421875" lon="1.43488987348973751068115234375">
        <ele>261.600006103515625</ele>
        <time>2026-08-05T09:14:35.000Z</time>
        <extensions>
          <ns3:TrackPointExtension>
            <ns3:hr>106</ns3:hr>
            <ns3:cad>48</ns3:cad>
          </ns3:TrackPointExtension>
        </extensions>
      </trkpt>
      <trkpt lat="43.481041230261325836181640625" lon="1.43487763591110706329345703125">
        <ele>261.79998779296875</ele>
        <time>2026-08-05T09:14:36.000Z</time>
        <extensions>
          <ns3:TrackPointExtension>
            <ns3:hr>106</ns3:hr>
            <ns3:cad>49</ns3:cad>
          </ns3:TrackPointExtension>
        </extensions>
      </trkpt>
      <trkpt lat="43.48103980533778667449951171875" lon="1.4348609559237957000732421875">
        <ele>262</ele>
        <time>2026-08-05T09:14:37.000Z</time>
        <extensions>
          <ns3:TrackPointExtension>
            <ns3:hr>107</ns3:hr>
            <ns3:cad>49</ns3:cad>
          </ns3:TrackPointExtension>
        </extensions>
      </trkpt>
      <trkpt lat="43.48104047589004039764404296875" lon="1.43483941443264484405517578125">
        <ele>262</ele>
        <time>2026-08-05T09:14:38.000Z</time>
        <extensions>
          <ns3:TrackPointExtension>
            <ns3:hr>107</ns3:hr>
            <ns3:cad>49</ns3:cad>
          </ns3:TrackPointExtension>
        </extensions>
      </trkpt>
      <trkpt lat="43.48104081116616725921630859375" lon="1.4348183758556842803955078125">
        <ele>262.20001220703125</ele>
        <time>2026-08-05T09:14:39.000Z</time>
        <extensions>
          <ns3:TrackPointExtension>
            <ns3:hr>107</ns3:hr>
            <ns3:cad>49</ns3:cad>
          </ns3:TrackPointExtension>
        </extensions>
      </trkpt>
      <trkpt lat="43.48104097880423069000244140625" lon="1.4347965829074382781982421875">
        <ele>262.20001220703125</ele>
        <time>2026-08-05T09:14:40.000Z</time>
        <extensions>
          <ns3:TrackPointExtension>
            <ns3:hr>108</ns3:hr>
            <ns3:cad>49</ns3:cad>
          </ns3:TrackPointExtension>
        </extensions>
      </trkpt>
      <trkpt lat="43.4810420684516429901123046875" lon="1.434780322015285491943359375">
        <ele>262.399993896484375</ele>
        <time>2026-08-05T09:14:41.000Z</time>
        <extensions>
          <ns3:TrackPointExtension>
            <ns3:hr>108</ns3:hr>
            <ns3:cad>50</ns3:cad>
          </ns3:TrackPointExtension>
        </extensions>
      </trkpt>
      <trkpt lat="43.48104265518486499786376953125" lon="1.43476598896086215972900390625">
        <ele>262.600006103515625</ele>
        <time>2026-08-05T09:14:42.000Z</time>
        <extensions>
          <ns3:TrackPointExtension>
            <ns3:hr>109</ns3:hr>
            <ns3:cad>50</ns3:cad>
          </ns3:TrackPointExtension>
        </extensions>
      </trkpt>
      <trkpt lat="43.4810437448322772979736328125" lon="1.43474570475518703460693359375">
        <ele>262.600006103515625</ele>
        <time>2026-08-05T09:14:43.000Z</time>
        <extensions>
          <ns3:TrackPointExtension>
            <ns3:hr>109</ns3:hr>
            <ns3:cad>50</ns3:cad>
          </ns3:TrackPointExtension>
        </extensions>
      </trkpt>
      <trkpt lat="43.48104584030807018280029296875" lon="1.4347318746149539947509765625">
        <ele>262.79998779296875</ele>
        <time>2026-08-05T09:14:44.000Z</time>
        <extensions>
          <ns3:TrackPointExtension>
            <ns3:hr>109</ns3:hr>
            <ns3:cad>50</ns3:cad>
          </ns3:TrackPointExtension>
        </extensions>
      </trkpt>
      <trkpt lat="43.4810460917651653289794921875" lon="1.43471770919859409332275390625">
        <ele>263</ele>
        <time>2026-08-05T09:14:45.000Z</time>
        <extensions>
          <ns3:TrackPointExtension>
            <ns3:hr>109</ns3:hr>
            <ns3:cad>50</ns3:cad>
          </ns3:TrackPointExtension>
        </extensions>
      </trkpt>
      <trkpt lat="43.4810437448322772979736328125" lon="1.43469750881195068359375">
        <ele>263.20001220703125</ele>
        <time>2026-08-05T09:14:46.000Z</time>
        <extensions>
          <ns3:TrackPointExtension>
            <ns3:hr>110</ns3:hr>
            <ns3:cad>51</ns3:cad>
          </ns3:TrackPointExtension>
        </extensions>
      </trkpt>
      <trkpt lat="43.4810422360897064208984375" lon="1.434679739177227020263671875">
        <ele>263.399993896484375</ele>
        <time>2026-08-05T09:14:47.000Z</time>
        <extensions>
          <ns3:TrackPointExtension>
            <ns3:hr>110</ns3:hr>
            <ns3:cad>51</ns3:cad>
          </ns3:TrackPointExtension>
        </extensions>
      </trkpt>
      <trkpt lat="43.48103930242359638214111328125" lon="1.4346664957702159881591796875">
        <ele>263.399993896484375</ele>
        <time>2026-08-05T09:14:48.000Z</time>
        <extensions>
          <ns3:TrackPointExtension>
            <ns3:hr>109</ns3:hr>
            <ns3:cad>51</ns3:cad>
          </ns3:TrackPointExtension>
        </extensions>
      </trkpt>
      <trkpt lat="43.481039889156818389892578125" lon="1.434653587639331817626953125">
        <ele>263.600006103515625</ele>
        <time>2026-08-05T09:14:49.000Z</time>
        <extensions>
          <ns3:TrackPointExtension>
            <ns3:hr>110</ns3:hr>
            <ns3:cad>51</ns3:cad>
          </ns3:TrackPointExtension>
        </extensions>
      </trkpt>
      <trkpt lat="43.4810363687574863433837890625" lon="1.43463791348040103912353515625">
        <ele>263.600006103515625</ele>
        <time>2026-08-05T09:14:50.000Z</time>
        <extensions>
          <ns3:TrackPointExtension>
            <ns3:hr>110</ns3:hr>
            <ns3:cad>51</ns3:cad>
          </ns3:TrackPointExtension>
        </extensions>
      </trkpt>
      <trkpt lat="43.48103175871074199676513671875" lon="1.43461234867572784423828125">
        <ele>263.79998779296875</ele>
        <time>2026-08-05T09:14:51.000Z</time>
        <extensions>
          <ns3:TrackPointExtension>
            <ns3:hr>110</ns3:hr>
            <ns3:cad>51</ns3:cad>
          </ns3:TrackPointExtension>
        </extensions>
      </trkpt>
      <trkpt lat="43.48102706484496593475341796875" lon="1.43458829261362552642822265625">
        <ele>263.79998779296875</ele>
        <time>2026-08-05T09:14:52.000Z</time>
        <extensions>
          <ns3:TrackPointExtension>
            <ns3:hr>110</ns3:hr>
            <ns3:cad>51</ns3:cad>
          </ns3:TrackPointExtension>
        </extensions>
      </trkpt>
      <trkpt lat="43.4810276515781879425048828125" lon="1.43456784076988697052001953125">
        <ele>263.79998779296875</ele>
        <time>2026-08-05T09:14:53.000Z</time>
        <extensions>
          <ns3:TrackPointExtension>
            <ns3:hr>110</ns3:hr>
            <ns3:cad>51</ns3:cad>
          </ns3:TrackPointExtension>
        </extensions>
      </trkpt>
      <trkpt lat="43.4810288250446319580078125" lon="1.43455308862030506134033203125">
        <ele>264</ele>
        <time>2026-08-05T09:14:54.000Z</time>
        <extensions>
          <ns3:TrackPointExtension>
            <ns3:hr>111</ns3:hr>
            <ns3:cad>50</ns3:cad>
          </ns3:TrackPointExtension>
        </extensions>
      </trkpt>
      <trkpt lat="43.48103075288236141204833984375" lon="1.4345404319465160369873046875">
        <ele>264.20001220703125</ele>
        <time>2026-08-05T09:14:55.000Z</time>
        <extensions>
          <ns3:TrackPointExtension>
            <ns3:hr>111</ns3:hr>
            <ns3:cad>50</ns3:cad>
          </ns3:TrackPointExtension>
        </extensions>
      </trkpt>
      <trkpt lat="43.48103008233010768890380859375" lon="1.43452517688274383544921875">
        <ele>264.20001220703125</ele>
        <time>2026-08-05T09:14:56.000Z</time>
        <extensions>
          <ns3:TrackPointExtension>
            <ns3:hr>111</ns3:hr>
            <ns3:cad>50</ns3:cad>
          </ns3:TrackPointExtension>
        </extensions>
      </trkpt>
      <trkpt lat="43.48102622665464878082275390625" lon="1.43450438976287841796875">
        <ele>264.399993896484375</ele>
        <time>2026-08-05T09:14:57.000Z</time>
        <extensions>
          <ns3:TrackPointExtension>
            <ns3:hr>111</ns3:hr>
            <ns3:cad>50</ns3:cad>
          </ns3:TrackPointExtension>
        </extensions>
      </trkpt>
      <trkpt lat="43.48102237097918987274169921875" lon="1.4344884641468524932861328125">
        <ele>264.600006103515625</ele>
        <time>2026-08-05T09:14:58.000Z</time>
        <extensions>
          <ns3:TrackPointExtension>
            <ns3:hr>111</ns3:hr>
            <ns3:cad>50</ns3:cad>
          </ns3:TrackPointExtension>
        </extensions>
      </trkpt>
      <trkpt lat="43.48101750947535037994384765625" lon="1.43446885049343109130859375">
        <ele>264.79998779296875</ele>
        <time>2026-08-05T09:14:59.000Z</time>
        <extensions>
          <ns3:TrackPointExtension>
            <ns3:hr>111</ns3:hr>
            <ns3:cad>51</ns3:cad>
          </ns3:TrackPointExtension>
        </extensions>
      </trkpt>
      <trkpt lat="43.4810162521898746490478515625" lon="1.43445409834384918212890625">
        <ele>264.79998779296875</ele>
        <time>2026-08-05T09:15:00.000Z</time>
        <extensions>
          <ns3:TrackPointExtension>
            <ns3:hr>110</ns3:hr>
            <ns3:cad>51</ns3:cad>
          </ns3:TrackPointExtension>
        </extensions>
      </trkpt>
      <trkpt lat="43.4810169227421283721923828125" lon="1.4344432018697261810302734375">
        <ele>265</ele>
        <time>2026-08-05T09:15:01.000Z</time>
        <extensions>
          <ns3:TrackPointExtension>
            <ns3:hr>110</ns3:hr>
            <ns3:cad>51</ns3:cad>
          </ns3:TrackPointExtension>
        </extensions>
      </trkpt>
      <trkpt lat="43.48101734183728694915771484375" lon="1.4344306290149688720703125">
        <ele>265</ele>
        <time>2026-08-05T09:15:02.000Z</time>
        <extensions>
          <ns3:TrackPointExtension>
            <ns3:hr>110</ns3:hr>
            <ns3:cad>51</ns3:cad>
          </ns3:TrackPointExtension>
        </extensions>
      </trkpt>
      <trkpt lat="43.48101734183728694915771484375" lon="1.43441076390445232391357421875">
        <ele>265.20001220703125</ele>
        <time>2026-08-05T09:15:03.000Z</time>
        <extensions>
          <ns3:TrackPointExtension>
            <ns3:hr>109</ns3:hr>
            <ns3:cad>50</ns3:cad>
          </ns3:TrackPointExtension>
        </extensions>
      </trkpt>
      <trkpt lat="43.481015749275684356689453125" lon="1.4343872107565402984619140625">
        <ele>265.20001220703125</ele>
        <time>2026-08-05T09:15:04.000Z</time>
        <extensions>
          <ns3:TrackPointExtension>
            <ns3:hr>109</ns3:hr>
            <ns3:cad>50</ns3:cad>
          </ns3:TrackPointExtension>
        </extensions>
      </trkpt>
      <trkpt lat="43.48101231269538402557373046875" lon="1.43436491489410400390625">
        <ele>265.399993896484375</ele>
        <time>2026-08-05T09:15:05.000Z</time>
        <extensions>
          <ns3:TrackPointExtension>
            <ns3:hr>110</ns3:hr>
            <ns3:cad>50</ns3:cad>
          </ns3:TrackPointExtension>
        </extensions>
      </trkpt>
      <trkpt lat="43.4810100495815277099609375" lon="1.4343459717929363250732421875">
        <ele>265.600006103515625</ele>
        <time>2026-08-05T09:15:06.000Z</time>
        <extensions>
          <ns3:TrackPointExtension>
            <ns3:hr>110</ns3:hr>
            <ns3:cad>50</ns3:cad>
          </ns3:TrackPointExtension>
        </extensions>
      </trkpt>
      <trkpt lat="43.48101465962827205657958984375" lon="1.43433180637657642364501953125">
        <ele>265.79998779296875</ele>
        <time>2026-08-05T09:15:07.000Z</time>
        <extensions>
          <ns3:TrackPointExtension>
            <ns3:hr>110</ns3:hr>
            <ns3:cad>50</ns3:cad>
          </ns3:TrackPointExtension>
        </extensions>
      </trkpt>
      <trkpt lat="43.4810189343988895416259765625" lon="1.434324346482753753662109375">
        <ele>265.79998779296875</ele>
        <time>2026-08-05T09:15:08.000Z</time>
        <extensions>
          <ns3:TrackPointExtension>
            <ns3:hr>109</ns3:hr>
            <ns3:cad>50</ns3:cad>
          </ns3:TrackPointExtension>
        </extensions>
      </trkpt>
      <trkpt lat="43.48101885057985782623291015625" lon="1.4343077503144741058349609375">
        <ele>266</ele>
        <time>2026-08-05T09:15:09.000Z</time>
        <extensions>
          <ns3:TrackPointExtension>
            <ns3:hr>110</ns3:hr>
            <ns3:cad>50</ns3:cad>
          </ns3:TrackPointExtension>
        </extensions>
      </trkpt>
      <trkpt lat="43.48101801238954067230224609375" lon="1.43428687937557697296142578125">
        <ele>266.20001220703125</ele>
        <time>2026-08-05T09:15:10.000Z</time>
        <extensions>
          <ns3:TrackPointExtension>
            <ns3:hr>110</ns3:hr>
            <ns3:cad>50</ns3:cad>
          </ns3:TrackPointExtension>
        </extensions>
      </trkpt>
      <trkpt lat="43.4810169227421283721923828125" lon="1.434268020093441009521484375">
        <ele>266.399993896484375</ele>
        <time>2026-08-05T09:15:11.000Z</time>
        <extensions>
          <ns3:TrackPointExtension>
            <ns3:hr>110</ns3:hr>
            <ns3:cad>50</ns3:cad>
          </ns3:TrackPointExtension>
        </extensions>
      </trkpt>
      <trkpt lat="43.4810142405331134796142578125" lon="1.43425117246806621551513671875">
        <ele>266.600006103515625</ele>
        <time>2026-08-05T09:15:12.000Z</time>
        <extensions>
          <ns3:TrackPointExtension>
            <ns3:hr>110</ns3:hr>
            <ns3:cad>50</ns3:cad>
          </ns3:TrackPointExtension>
        </extensions>
      </trkpt>
      <trkpt lat="43.48101818002760410308837890625" lon="1.43423608504235744476318359375">
        <ele>266.600006103515625</ele>
        <time>2026-08-05T09:15:13.000Z</time>
        <extensions>
          <ns3:TrackPointExtension>
            <ns3:hr>110</ns3:hr>
            <ns3:cad>50</ns3:cad>
          </ns3:TrackPointExtension>
        </extensions>
      </trkpt>
      <trkpt lat="43.48102387972176074981689453125" lon="1.434223763644695281982421875">
        <ele>266.79998779296875</ele>
        <time>2026-08-05T09:15:14.000Z</time>
        <extensions>
          <ns3:TrackPointExtension>
            <ns3:hr>110</ns3:hr>
            <ns3:cad>50</ns3:cad>
          </ns3:TrackPointExtension>
        </extensions>
      </trkpt>
      <trkpt lat="43.48102320916950702667236328125" lon="1.4342064969241619110107421875">
        <ele>266.79998779296875</ele>
        <time>2026-08-05T09:15:15.000Z</time>
        <extensions>
          <ns3:TrackPointExtension>
            <ns3:hr>110</ns3:hr>
            <ns3:cad>51</ns3:cad>
          </ns3:TrackPointExtension>
        </extensions>
      </trkpt>
      <trkpt lat="43.48102153278887271881103515625" lon="1.434186883270740509033203125">
        <ele>266.79998779296875</ele>
        <time>2026-08-05T09:15:16.000Z</time>
        <extensions>
          <ns3:TrackPointExtension>
            <ns3:hr>110</ns3:hr>
            <ns3:cad>51</ns3:cad>
          </ns3:TrackPointExtension>
        </extensions>
      </trkpt>
      <trkpt lat="43.48101650364696979522705078125" lon="1.43416567705571651458740234375">
        <ele>267</ele>
        <time>2026-08-05T09:15:17.000Z</time>
        <extensions>
          <ns3:TrackPointExtension>
            <ns3:hr>110</ns3:hr>
            <ns3:cad>51</ns3:cad>
          </ns3:TrackPointExtension>
        </extensions>
      </trkpt>
      <trkpt lat="43.48101465962827205657958984375" lon="1.4341449737548828125">
        <ele>267.20001220703125</ele>
        <time>2026-08-05T09:15:18.000Z</time>
        <extensions>
          <ns3:TrackPointExtension>
            <ns3:hr>110</ns3:hr>
            <ns3:cad>50</ns3:cad>
          </ns3:TrackPointExtension>
        </extensions>
      </trkpt>
      <trkpt lat="43.48101248033344745635986328125" lon="1.434131227433681488037109375">
        <ele>267.20001220703125</ele>
        <time>2026-08-05T09:15:19.000Z</time>
        <extensions>
          <ns3:TrackPointExtension>
            <ns3:hr>110</ns3:hr>
            <ns3:cad>49</ns3:cad>
          </ns3:TrackPointExtension>
        </extensions>
      </trkpt>
      <trkpt lat="43.48101130686700344085693359375" lon="1.43412158824503421783447265625">
        <ele>267.399993896484375</ele>
        <time>2026-08-05T09:15:20.000Z</time>
        <extensions>
          <ns3:TrackPointExtension>
            <ns3:hr>110</ns3:hr>
            <ns3:cad>49</ns3:cad>
          </ns3:TrackPointExtension>
        </extensions>
      </trkpt>
      <trkpt lat="43.4810115583240985870361328125" lon="1.4341106079518795013427734375">
        <ele>267.399993896484375</ele>
        <time>2026-08-05T09:15:21.000Z</time>
        <extensions>
          <ns3:TrackPointExtension>
            <ns3:hr>109</ns3:hr>
            <ns3:cad>49</ns3:cad>
          </ns3:TrackPointExtension>
        </extensions>
      </trkpt>
      <trkpt lat="43.4810105524957180023193359375" lon="1.43409158103168010711669921875">
        <ele>267.600006103515625</ele>
        <time>2026-08-05T09:15:22.000Z</time>
        <extensions>
          <ns3:TrackPointExtension>
            <ns3:hr>110</ns3:hr>
            <ns3:cad>50</ns3:cad>
          </ns3:TrackPointExtension>
        </extensions>
      </trkpt>
      <trkpt lat="43.48101130686700344085693359375" lon="1.43407096154987812042236328125">
        <ele>267.600006103515625</ele>
        <time>2026-08-05T09:15:23.000Z</time>
        <extensions>
          <ns3:TrackPointExtension>
            <ns3:hr>110</ns3:hr>
            <ns3:cad>50</ns3:cad>
          </ns3:TrackPointExtension>
        </extensions>
      </trkpt>
      <trkpt lat="43.48101281560957431793212890625" lon="1.4340515993535518646240234375">
        <ele>267.600006103515625</ele>
        <time>2026-08-05T09:15:24.000Z</time>
        <extensions>
          <ns3:TrackPointExtension>
            <ns3:hr>111</ns3:hr>
            <ns3:cad>50</ns3:cad>
          </ns3:TrackPointExtension>
        </extensions>
      </trkpt>
      <trkpt lat="43.481016419827938079833984375" lon="1.43403558991849422454833984375">
        <ele>267.79998779296875</ele>
        <time>2026-08-05T09:15:25.000Z</time>
        <extensions>
          <ns3:TrackPointExtension>
            <ns3:hr>111</ns3:hr>
            <ns3:cad>50</ns3:cad>
          </ns3:TrackPointExtension>
        </extensions>
      </trkpt>
      <trkpt lat="43.48101876676082611083984375" lon="1.4340207539498805999755859375">
        <ele>267.79998779296875</ele>
        <time>2026-08-05T09:15:26.000Z</time>
        <extensions>
          <ns3:TrackPointExtension>
            <ns3:hr>111</ns3:hr>
            <ns3:cad>50</ns3:cad>
          </ns3:TrackPointExtension>
        </extensions>
      </trkpt>
      <trkpt lat="43.48102413117885589599609375" lon="1.43400860019028186798095703125">
        <ele>267.79998779296875</ele>
        <time>2026-08-05T09:15:27.000Z</time>
        <extensions>
          <ns3:TrackPointExtension>
            <ns3:hr>111</ns3:hr>
            <ns3:cad>50</ns3:cad>
          </ns3:TrackPointExtension>
        </extensions>
      </trkpt>
      <trkpt lat="43.4810299985110759735107421875" lon="1.43399284221231937408447265625">
        <ele>267.79998779296875</ele>
        <time>2026-08-05T09:15:28.000Z</time>
        <extensions>
          <ns3:TrackPointExtension>
            <ns3:hr>110</ns3:hr>
            <ns3:cad>50</ns3:cad>
          </ns3:TrackPointExtension>
        </extensions>
      </trkpt>
      <trkpt lat="43.48103896714746952056884765625" lon="1.43397607840597629547119140625">
        <ele>267.79998779296875</ele>
        <time>2026-08-05T09:15:29.000Z</time>
        <extensions>
          <ns3:TrackPointExtension>
            <ns3:hr>110</ns3:hr>
            <ns3:cad>51</ns3:cad>
          </ns3:TrackPointExtension>
        </extensions>
      </trkpt>
      <trkpt lat="43.48104584030807018280029296875" lon="1.4339607395231723785400390625">
        <ele>267.79998779296875</ele>
        <time>2026-08-05T09:15:30.000Z</time>
        <extensions>
          <ns3:TrackPointExtension>
            <ns3:hr>110</ns3:hr>
            <ns3:cad>51</ns3:cad>
          </ns3:TrackPointExtension>
        </extensions>
      </trkpt>
      <trkpt lat="43.481050617992877960205078125" lon="1.43394020386040210723876953125">
        <ele>268</ele>
        <time>2026-08-05T09:15:31.000Z</time>
        <extensions>
          <ns3:TrackPointExtension>
            <ns3:hr>110</ns3:hr>
            <ns3:cad>51</ns3:cad>
          </ns3:TrackPointExtension>
        </extensions>
      </trkpt>
      <trkpt lat="43.48105824552476406097412109375" lon="1.4339282177388668060302734375">
        <ele>268</ele>
        <time>2026-08-05T09:15:32.000Z</time>
        <extensions>
          <ns3:TrackPointExtension>
            <ns3:hr>109</ns3:hr>
            <ns3:cad>51</ns3:cad>
          </ns3:TrackPointExtension>
        </extensions>
      </trkpt>
      <trkpt lat="43.481062352657318115234375" lon="1.43392846919596195220947265625">
        <ele>268</ele>
        <time>2026-08-05T09:15:33.000Z</time>
        <extensions>
          <ns3:TrackPointExtension>
            <ns3:hr>108</ns3:hr>
            <ns3:cad>51</ns3:cad>
          </ns3:TrackPointExtension>
        </extensions>
      </trkpt>
      <trkpt lat="43.481068052351474761962890625" lon="1.4339164830744266510009765625">
        <ele>268</ele>
        <time>2026-08-05T09:15:34.000Z</time>
        <extensions>
          <ns3:TrackPointExtension>
            <ns3:hr>108</ns3:hr>
            <ns3:cad>51</ns3:cad>
          </ns3:TrackPointExtension>
        </extensions>
      </trkpt>
      <trkpt lat="43.48107366822659969329833984375" lon="1.43389619886875152587890625">
        <ele>268.20001220703125</ele>
        <time>2026-08-05T09:15:35.000Z</time>
        <extensions>
          <ns3:TrackPointExtension>
            <ns3:hr>107</ns3:hr>
            <ns3:cad>51</ns3:cad>
          </ns3:TrackPointExtension>
        </extensions>
      </trkpt>
      <trkpt lat="43.4810776077210903167724609375" lon="1.433877758681774139404296875">
        <ele>268.20001220703125</ele>
        <time>2026-08-05T09:15:36.000Z</time>
        <extensions>
          <ns3:TrackPointExtension>
            <ns3:hr>107</ns3:hr>
            <ns3:cad>51</ns3:cad>
          </ns3:TrackPointExtension>
        </extensions>
      </trkpt>
      <trkpt lat="43.48108288832008838653564453125" lon="1.43385755829513072967529296875">
        <ele>268.20001220703125</ele>
        <time>2026-08-05T09:15:37.000Z</time>
        <extensions>
          <ns3:TrackPointExtension>
            <ns3:hr>107</ns3:hr>
            <ns3:cad>50</ns3:cad>
          </ns3:TrackPointExtension>
        </extensions>
      </trkpt>
      <trkpt lat="43.48108716309070587158203125" lon="1.43384615890681743621826171875">
        <ele>268.399993896484375</ele>
        <time>2026-08-05T09:15:38.000Z</time>
        <extensions>
          <ns3:TrackPointExtension>
            <ns3:hr>106</ns3:hr>
            <ns3:cad>50</ns3:cad>
          </ns3:TrackPointExtension>
        </extensions>
      </trkpt>
      <trkpt lat="43.48109479062259197235107421875" lon="1.4338336698710918426513671875">
        <ele>268.399993896484375</ele>
        <time>2026-08-05T09:15:39.000Z</time>
        <extensions>
          <ns3:TrackPointExtension>
            <ns3:hr>106</ns3:hr>
            <ns3:cad>50</ns3:cad>
          </ns3:TrackPointExtension>
        </extensions>
      </trkpt>
      <trkpt lat="43.48110082559287548065185546875" lon="1.43381648696959018707275390625">
        <ele>268.399993896484375</ele>
        <time>2026-08-05T09:15:40.000Z</time>
        <extensions>
          <ns3:TrackPointExtension>
            <ns3:hr>106</ns3:hr>
            <ns3:cad>50</ns3:cad>
          </ns3:TrackPointExtension>
        </extensions>
      </trkpt>
      <trkpt lat="43.4811020828783512115478515625" lon="1.43379804678261280059814453125">
        <ele>268.399993896484375</ele>
        <time>2026-08-05T09:15:41.000Z</time>
        <extensions>
          <ns3:TrackPointExtension>
            <ns3:hr>105</ns3:hr>
            <ns3:cad>50</ns3:cad>
          </ns3:TrackPointExtension>
        </extensions>
      </trkpt>
      <trkpt lat="43.4811020828783512115478515625" lon="1.4337761700153350830078125">
        <ele>268.399993896484375</ele>
        <time>2026-08-05T09:15:42.000Z</time>
        <extensions>
          <ns3:TrackPointExtension>
            <ns3:hr>105</ns3:hr>
            <ns3:cad>48</ns3:cad>
          </ns3:TrackPointExtension>
        </extensions>
      </trkpt>
      <trkpt lat="43.4811044298112392425537109375" lon="1.43375596962869167327880859375">
        <ele>268.399993896484375</ele>
        <time>2026-08-05T09:15:43.000Z</time>
        <extensions>
          <ns3:TrackPointExtension>
            <ns3:hr>104</ns3:hr>
            <ns3:cad>48</ns3:cad>
          </ns3:TrackPointExtension>
        </extensions>
      </trkpt>
      <trkpt lat="43.4811054356396198272705078125" lon="1.433737613260746002197265625">
        <ele>268.399993896484375</ele>
        <time>2026-08-05T09:15:44.000Z</time>
        <extensions>
          <ns3:TrackPointExtension>
            <ns3:hr>105</ns3:hr>
            <ns3:cad>51</ns3:cad>
          </ns3:TrackPointExtension>
        </extensions>
      </trkpt>
      <trkpt lat="43.48111172206699848175048828125" lon="1.43372680060565471649169921875">
        <ele>268.399993896484375</ele>
        <time>2026-08-05T09:15:45.000Z</time>
        <extensions>
          <ns3:TrackPointExtension>
            <ns3:hr>105</ns3:hr>
            <ns3:cad>51</ns3:cad>
          </ns3:TrackPointExtension>
        </extensions>
      </trkpt>
      <trkpt lat="43.48111758939921855926513671875" lon="1.43371774815022945404052734375">
        <ele>268.399993896484375</ele>
        <time>2026-08-05T09:15:46.000Z</time>
        <extensions>
          <ns3:TrackPointExtension>
            <ns3:hr>106</ns3:hr>
            <ns3:cad>53</ns3:cad>
          </ns3:TrackPointExtension>
        </extensions>
      </trkpt>
      <trkpt lat="43.48112178035080432891845703125" lon="1.433706097304821014404296875">
        <ele>268.399993896484375</ele>
        <time>2026-08-05T09:15:47.000Z</time>
        <extensions>
          <ns3:TrackPointExtension>
            <ns3:hr>106</ns3:hr>
            <ns3:cad>53</ns3:cad>
          </ns3:TrackPointExtension>
        </extensions>
      </trkpt>
      <trkpt lat="43.4811280667781829833984375" lon="1.43369159661233425140380859375">
        <ele>268.399993896484375</ele>
        <time>2026-08-05T09:15:48.000Z</time>
        <extensions>
          <ns3:TrackPointExtension>
            <ns3:hr>106</ns3:hr>
            <ns3:cad>53</ns3:cad>
          </ns3:TrackPointExtension>
        </extensions>
      </trkpt>
      <trkpt lat="43.48113477230072021484375" lon="1.433674581348896026611328125">
        <ele>268.399993896484375</ele>
        <time>2026-08-05T09:15:49.000Z</time>
        <extensions>
          <ns3:TrackPointExtension>
            <ns3:hr>106</ns3:hr>
            <ns3:cad>52</ns3:cad>
          </ns3:TrackPointExtension>
        </extensions>
      </trkpt>
      <trkpt lat="43.4811379574239253997802734375" lon="1.43365320749580860137939453125">
        <ele>268.399993896484375</ele>
        <time>2026-08-05T09:15:50.000Z</time>
        <extensions>
          <ns3:TrackPointExtension>
            <ns3:hr>105</ns3:hr>
            <ns3:cad>52</ns3:cad>
          </ns3:TrackPointExtension>
        </extensions>
      </trkpt>
      <trkpt lat="43.4811433218419551849365234375" lon="1.43363761715590953826904296875">
        <ele>268.399993896484375</ele>
        <time>2026-08-05T09:15:51.000Z</time>
        <extensions>
          <ns3:TrackPointExtension>
            <ns3:hr>105</ns3:hr>
            <ns3:cad>52</ns3:cad>
          </ns3:TrackPointExtension>
        </extensions>
      </trkpt>
      <trkpt lat="43.48114977590739727020263671875" lon="1.43362387083470821380615234375">
        <ele>268.399993896484375</ele>
        <time>2026-08-05T09:15:52.000Z</time>
        <extensions>
          <ns3:TrackPointExtension>
            <ns3:hr>104</ns3:hr>
            <ns3:cad>50</ns3:cad>
          </ns3:TrackPointExtension>
        </extensions>
      </trkpt>
      <trkpt lat="43.48115631379187107086181640625" lon="1.43361196853220462799072265625">
        <ele>268.399993896484375</ele>
        <time>2026-08-05T09:15:53.000Z</time>
        <extensions>
          <ns3:TrackPointExtension>
            <ns3:hr>102</ns3:hr>
            <ns3:cad>50</ns3:cad>
          </ns3:TrackPointExtension>
        </extensions>
      </trkpt>
      <trkpt lat="43.48116285167634487152099609375" lon="1.4335976354777812957763671875">
        <ele>268.399993896484375</ele>
        <time>2026-08-05T09:15:54.000Z</time>
        <extensions>
          <ns3:TrackPointExtension>
            <ns3:hr>100</ns3:hr>
            <ns3:cad>50</ns3:cad>
          </ns3:TrackPointExtension>
        </extensions>
      </trkpt>
      <trkpt lat="43.48117056302726268768310546875" lon="1.43358103930950164794921875">
        <ele>268.399993896484375</ele>
        <time>2026-08-05T09:15:55.000Z</time>
        <extensions>
          <ns3:TrackPointExtension>
            <ns3:hr>99</ns3:hr>
            <ns3:cad>50</ns3:cad>
          </ns3:TrackPointExtension>
        </extensions>
      </trkpt>
      <trkpt lat="43.48117743618786334991455078125" lon="1.43356368876993656158447265625">
        <ele>268.399993896484375</ele>
        <time>2026-08-05T09:15:56.000Z</time>
        <extensions>
          <ns3:TrackPointExtension>
            <ns3:hr>97</ns3:hr>
            <ns3:cad>50</ns3:cad>
          </ns3:TrackPointExtension>
        </extensions>
      </trkpt>
      <trkpt lat="43.48117835819721221923828125" lon="1.43354625441133975982666015625">
        <ele>268.399993896484375</ele>
        <time>2026-08-05T09:15:57.000Z</time>
        <extensions>
          <ns3:TrackPointExtension>
            <ns3:hr>97</ns3:hr>
            <ns3:cad>50</ns3:cad>
          </ns3:TrackPointExtension>
        </extensions>
      </trkpt>
      <trkpt lat="43.481184057891368865966796875" lon="1.433533765375614166259765625">
        <ele>268.600006103515625</ele>
        <time>2026-08-05T09:15:58.000Z</time>
        <extensions>
          <ns3:TrackPointExtension>
            <ns3:hr>96</ns3:hr>
            <ns3:cad>50</ns3:cad>
          </ns3:TrackPointExtension>
        </extensions>
      </trkpt>
      <trkpt lat="43.48119000904262065887451171875" lon="1.43352312035858631134033203125">
        <ele>268.600006103515625</ele>
        <time>2026-08-05T09:15:59.000Z</time>
        <extensions>
          <ns3:TrackPointExtension>
            <ns3:hr>96</ns3:hr>
            <ns3:cad>51</ns3:cad>
          </ns3:TrackPointExtension>
        </extensions>
      </trkpt>
      <trkpt lat="43.481194786727428436279296875" lon="1.43351088277995586395263671875">
        <ele>268.600006103515625</ele>
        <time>2026-08-05T09:16:00.000Z</time>
        <extensions>
          <ns3:TrackPointExtension>
            <ns3:hr>96</ns3:hr>
            <ns3:cad>51</ns3:cad>
          </ns3:TrackPointExtension>
        </extensions>
      </trkpt>
      <trkpt lat="43.48120090551674365997314453125" lon="1.43349763937294483184814453125">
        <ele>268.600006103515625</ele>
        <time>2026-08-05T09:16:01.000Z</time>
        <extensions>
          <ns3:TrackPointExtension>
            <ns3:hr>96</ns3:hr>
            <ns3:cad>51</ns3:cad>
          </ns3:TrackPointExtension>
        </extensions>
      </trkpt>
      <trkpt lat="43.48120526410639286041259765625" lon="1.4334843121469020843505859375">
        <ele>268.600006103515625</ele>
        <time>2026-08-05T09:16:02.000Z</time>
        <extensions>
          <ns3:TrackPointExtension>
            <ns3:hr>95</ns3:hr>
            <ns3:cad>50</ns3:cad>
          </ns3:TrackPointExtension>
        </extensions>
      </trkpt>
      <trkpt lat="43.48120995797216892242431640625" lon="1.4334662072360515594482421875">
        <ele>268.600006103515625</ele>
        <time>2026-08-05T09:16:03.000Z</time>
        <extensions>
          <ns3:TrackPointExtension>
            <ns3:hr>95</ns3:hr>
            <ns3:cad>50</ns3:cad>
          </ns3:TrackPointExtension>
        </extensions>
      </trkpt>
      <trkpt lat="43.48121800459921360015869140625" lon="1.43345229327678680419921875">
        <ele>268.79998779296875</ele>
        <time>2026-08-05T09:16:04.000Z</time>
        <extensions>
          <ns3:TrackPointExtension>
            <ns3:hr>95</ns3:hr>
            <ns3:cad>50</ns3:cad>
          </ns3:TrackPointExtension>
        </extensions>
      </trkpt>
      <trkpt lat="43.481223285198211669921875" lon="1.43344315700232982635498046875">
        <ele>268.79998779296875</ele>
        <time>2026-08-05T09:16:05.000Z</time>
        <extensions>
          <ns3:TrackPointExtension>
            <ns3:hr>94</ns3:hr>
            <ns3:cad>50</ns3:cad>
          </ns3:TrackPointExtension>
        </extensions>
      </trkpt>
      <trkpt lat="43.48123007453978061676025390625" lon="1.4334276504814624786376953125">
        <ele>268.79998779296875</ele>
        <time>2026-08-05T09:16:06.000Z</time>
        <extensions>
          <ns3:TrackPointExtension>
            <ns3:hr>94</ns3:hr>
            <ns3:cad>51</ns3:cad>
          </ns3:TrackPointExtension>
        </extensions>
      </trkpt>
      <trkpt lat="43.481231667101383209228515625" lon="1.433417089283466339111328125">
        <ele>268.79998779296875</ele>
        <time>2026-08-05T09:16:07.000Z</time>
        <extensions>
          <ns3:TrackPointExtension>
            <ns3:hr>95</ns3:hr>
            <ns3:cad>51</ns3:cad>
          </ns3:TrackPointExtension>
        </extensions>
      </trkpt>
      <trkpt lat="43.481226302683353424072265625" lon="1.43340359441936016082763671875">
        <ele>268.79998779296875</ele>
        <time>2026-08-05T09:16:08.000Z</time>
        <extensions>
          <ns3:TrackPointExtension>
            <ns3:hr>95</ns3:hr>
            <ns3:cad>51</ns3:cad>
          </ns3:TrackPointExtension>
        </extensions>
      </trkpt>
      <trkpt lat="43.4812291525304317474365234375" lon="1.43339487724006175994873046875">
        <ele>268.79998779296875</ele>
        <time>2026-08-05T09:16:09.000Z</time>
        <extensions>
          <ns3:TrackPointExtension>
            <ns3:hr>95</ns3:hr>
            <ns3:cad>51</ns3:cad>
          </ns3:TrackPointExtension>
        </extensions>
      </trkpt>
      <trkpt lat="43.48122538067400455474853515625" lon="1.43337828107178211212158203125">
        <ele>268.79998779296875</ele>
        <time>2026-08-05T09:16:10.000Z</time>
        <extensions>
          <ns3:TrackPointExtension>
            <ns3:hr>95</ns3:hr>
            <ns3:cad>51</ns3:cad>
          </ns3:TrackPointExtension>
        </extensions>
      </trkpt>
      <trkpt lat="43.4812165796756744384765625" lon="1.43336218781769275665283203125">
        <ele>268.79998779296875</ele>
        <time>2026-08-05T09:16:11.000Z</time>
        <extensions>
          <ns3:TrackPointExtension>
            <ns3:hr>96</ns3:hr>
            <ns3:cad>51</ns3:cad>
          </ns3:TrackPointExtension>
        </extensions>
      </trkpt>
      <trkpt lat="43.4812090359628200531005859375" lon="1.43334659747779369354248046875">
        <ele>268.79998779296875</ele>
        <time>2026-08-05T09:16:12.000Z</time>
        <extensions>
          <ns3:TrackPointExtension>
            <ns3:hr>96</ns3:hr>
            <ns3:cad>48</ns3:cad>
          </ns3:TrackPointExtension>
        </extensions>
      </trkpt>
      <trkpt lat="43.4812036715447902679443359375" lon="1.43333452753722667694091796875">
        <ele>269</ele>
        <time>2026-08-05T09:16:13.000Z</time>
        <extensions>
          <ns3:TrackPointExtension>
            <ns3:hr>96</ns3:hr>
            <ns3:cad>47</ns3:cad>
          </ns3:TrackPointExtension>
        </extensions>
      </trkpt>
      <trkpt lat="43.481198810040950775146484375" lon="1.4333237148821353912353515625">
        <ele>269</ele>
        <time>2026-08-05T09:16:14.000Z</time>
        <extensions>
          <ns3:TrackPointExtension>
            <ns3:hr>96</ns3:hr>
            <ns3:cad>47</ns3:cad>
          </ns3:TrackPointExtension>
        </extensions>
      </trkpt>
      <trkpt lat="43.48118866793811321258544921875" lon="1.43330887891352176666259765625">
        <ele>269</ele>
        <time>2026-08-05T09:16:15.000Z</time>
        <extensions>
          <ns3:TrackPointExtension>
            <ns3:hr>95</ns3:hr>
            <ns3:cad>48</ns3:cad>
          </ns3:TrackPointExtension>
        </extensions>
      </trkpt>
      <trkpt lat="43.48117542453110218048095703125" lon="1.43329538404941558837890625">
        <ele>269</ele>
        <time>2026-08-05T09:16:16.000Z</time>
        <extensions>
          <ns3:TrackPointExtension>
            <ns3:hr>95</ns3:hr>
            <ns3:cad>48</ns3:cad>
          </ns3:TrackPointExtension>
        </extensions>
      </trkpt>
      <trkpt lat="43.4811677969992160797119140625" lon="1.43328507430851459503173828125">
        <ele>269</ele>
        <time>2026-08-05T09:16:17.000Z</time>
        <extensions>
          <ns3:TrackPointExtension>
            <ns3:hr>95</ns3:hr>
            <ns3:cad>45</ns3:cad>
          </ns3:TrackPointExtension>
        </extensions>
      </trkpt>
      <trkpt lat="43.48116251640021800994873046875" lon="1.43328255973756313323974609375">
        <ele>269</ele>
        <time>2026-08-05T09:16:18.000Z</time>
        <extensions>
          <ns3:TrackPointExtension>
            <ns3:hr>95</ns3:hr>
            <ns3:cad>45</ns3:cad>
          </ns3:TrackPointExtension>
        </extensions>
      </trkpt>
      <trkpt lat="43.4811530448496341705322265625" lon="1.4332687295973300933837890625">
        <ele>269</ele>
        <time>2026-08-05T09:16:19.000Z</time>
        <extensions>
          <ns3:TrackPointExtension>
            <ns3:hr>96</ns3:hr>
            <ns3:cad>49</ns3:cad>
          </ns3:TrackPointExtension>
        </extensions>
      </trkpt>
      <trkpt lat="43.481141813099384307861328125" lon="1.43325875513255596160888671875">
        <ele>269</ele>
        <time>2026-08-05T09:16:20.000Z</time>
        <extensions>
          <ns3:TrackPointExtension>
            <ns3:hr>95</ns3:hr>
            <ns3:cad>49</ns3:cad>
          </ns3:TrackPointExtension>
        </extensions>
      </trkpt>
      <trkpt lat="43.48113452084362506866455078125" lon="1.4332506246864795684814453125">
        <ele>269.20001220703125</ele>
        <time>2026-08-05T09:16:21.000Z</time>
        <extensions>
          <ns3:TrackPointExtension>
            <ns3:hr>95</ns3:hr>
            <ns3:cad>47</ns3:cad>
          </ns3:TrackPointExtension>
        </extensions>
      </trkpt>
      <trkpt lat="43.48112865351140499114990234375" lon="1.43324601463973522186279296875">
        <ele>269.399993896484375</ele>
        <time>2026-08-05T09:16:22.000Z</time>
        <extensions>
          <ns3:TrackPointExtension>
            <ns3:hr>95</ns3:hr>
            <ns3:cad>47</ns3:cad>
          </ns3:TrackPointExtension>
        </extensions>
      </trkpt>
      <trkpt lat="43.48111691884696483612060546875" lon="1.43323905766010284423828125">
        <ele>269.399993896484375</ele>
        <time>2026-08-05T09:16:23.000Z</time>
        <extensions>
          <ns3:TrackPointExtension>
            <ns3:hr>94</ns3:hr>
            <ns3:cad>46</ns3:cad>
          </ns3:TrackPointExtension>
        </extensions>
      </trkpt>
      <trkpt lat="43.4811087884008884429931640625" lon="1.4332311786711215972900390625">
        <ele>269.600006103515625</ele>
        <time>2026-08-05T09:16:24.000Z</time>
        <extensions>
          <ns3:TrackPointExtension>
            <ns3:hr>94</ns3:hr>
            <ns3:cad>44</ns3:cad>
          </ns3:TrackPointExtension>
        </extensions>
      </trkpt>
      <trkpt lat="43.48110116086900234222412109375" lon="1.433226652443408966064453125">
        <ele>269.600006103515625</ele>
        <time>2026-08-05T09:16:25.000Z</time>
        <extensions>
          <ns3:TrackPointExtension>
            <ns3:hr>93</ns3:hr>
            <ns3:cad>44</ns3:cad>
          </ns3:TrackPointExtension>
        </extensions>
      </trkpt>
      <trkpt lat="43.4810900129377841949462890625" lon="1.43322338350117206573486328125">
        <ele>269.600006103515625</ele>
        <time>2026-08-05T09:16:26.000Z</time>
        <extensions>
          <ns3:TrackPointExtension>
            <ns3:hr>93</ns3:hr>
            <ns3:cad>44</ns3:cad>
          </ns3:TrackPointExtension>
        </extensions>
      </trkpt>
      <trkpt lat="43.48108121193945407867431640625" lon="1.4332234673202037811279296875">
        <ele>269.600006103515625</ele>
        <time>2026-08-05T09:16:27.000Z</time>
        <extensions>
          <ns3:TrackPointExtension>
            <ns3:hr>93</ns3:hr>
            <ns3:cad>43</ns3:cad>
          </ns3:TrackPointExtension>
        </extensions>
      </trkpt>
      <trkpt lat="43.4810742549598217010498046875" lon="1.43322053365409374237060546875">
        <ele>269.600006103515625</ele>
        <time>2026-08-05T09:16:28.000Z</time>
        <extensions>
          <ns3:TrackPointExtension>
            <ns3:hr>93</ns3:hr>
            <ns3:cad>43</ns3:cad>
          </ns3:TrackPointExtension>
        </extensions>
      </trkpt>
      <trkpt lat="43.48106495104730129241943359375" lon="1.4332209527492523193359375">
        <ele>269.600006103515625</ele>
        <time>2026-08-05T09:16:29.000Z</time>
        <extensions>
          <ns3:TrackPointExtension>
            <ns3:hr>93</ns3:hr>
            <ns3:cad>43</ns3:cad>
          </ns3:TrackPointExtension>
        </extensions>
      </trkpt>
      <trkpt lat="43.481056652963161468505859375" lon="1.4332217909395694732666015625">
        <ele>269.600006103515625</ele>
        <time>2026-08-05T09:16:30.000Z</time>
        <extensions>
          <ns3:TrackPointExtension>
            <ns3:hr>93</ns3:hr>
            <ns3:cad>41</ns3:cad>
          </ns3:TrackPointExtension>
        </extensions>
      </trkpt>
      <trkpt lat="43.48104768432676792144775390625" lon="1.433217935264110565185546875">
        <ele>269.600006103515625</ele>
        <time>2026-08-05T09:16:31.000Z</time>
        <extensions>
          <ns3:TrackPointExtension>
            <ns3:hr>92</ns3:hr>
            <ns3:cad>41</ns3:cad>
          </ns3:TrackPointExtension>
        </extensions>
      </trkpt>
      <trkpt lat="43.48104181699454784393310546875" lon="1.43321433104574680328369140625">
        <ele>269.600006103515625</ele>
        <time>2026-08-05T09:16:32.000Z</time>
        <extensions>
          <ns3:TrackPointExtension>
            <ns3:hr>92</ns3:hr>
            <ns3:cad>41</ns3:cad>
          </ns3:TrackPointExtension>
        </extensions>
      </trkpt>
      <trkpt lat="43.4810373745858669281005859375" lon="1.43321332521736621856689453125">
        <ele>269.600006103515625</ele>
        <time>2026-08-05T09:16:33.000Z</time>
        <extensions>
          <ns3:TrackPointExtension>
            <ns3:hr>92</ns3:hr>
            <ns3:cad>41</ns3:cad>
          </ns3:TrackPointExtension>
        </extensions>
      </trkpt>
      <trkpt lat="43.4810363687574863433837890625" lon="1.43320997245609760284423828125">
        <ele>269.399993896484375</ele>
        <time>2026-08-05T09:16:34.000Z</time>
        <extensions>
          <ns3:TrackPointExtension>
            <ns3:hr>91</ns3:hr>
            <ns3:cad>41</ns3:cad>
          </ns3:TrackPointExtension>
        </extensions>
      </trkpt>
      <trkpt lat="43.48103209398686885833740234375" lon="1.43320812843739986419677734375">
        <ele>269.399993896484375</ele>
        <time>2026-08-05T09:16:35.000Z</time>
        <extensions>
          <ns3:TrackPointExtension>
            <ns3:hr>91</ns3:hr>
            <ns3:cad>0</ns3:cad>
          </ns3:TrackPointExtension>
        </extensions>
      </trkpt>
      <trkpt lat="43.48102689720690250396728515625" lon="1.43320259638130664825439453125">
        <ele>269.399993896484375</ele>
        <time>2026-08-05T09:16:36.000Z</time>
        <extensions>
          <ns3:TrackPointExtension>
            <ns3:hr>91</ns3:hr>
            <ns3:cad>0</ns3:cad>
          </ns3:TrackPointExtension>
        </extensions>
      </trkpt>
      <trkpt lat="43.48102220334112644195556640625" lon="1.43319672904908657073974609375">
        <ele>269.399993896484375</ele>
        <time>2026-08-05T09:16:37.000Z</time>
        <extensions>
          <ns3:TrackPointExtension>
            <ns3:hr>91</ns3:hr>
            <ns3:cad>0</ns3:cad>
          </ns3:TrackPointExtension>
        </extensions>
      </trkpt>
      <trkpt lat="43.48102136515080928802490234375" lon="1.43319253809750080108642578125">
        <ele>269.399993896484375</ele>
        <time>2026-08-05T09:16:38.000Z</time>
        <extensions>
          <ns3:TrackPointExtension>
            <ns3:hr>91</ns3:hr>
            <ns3:cad>0</ns3:cad>
          </ns3:TrackPointExtension>
        </extensions>
      </trkpt>
      <trkpt lat="43.4810162521898746490478515625" lon="1.4331892691552639007568359375">
        <ele>269.399993896484375</ele>
        <time>2026-08-05T09:16:39.000Z</time>
        <extensions>
          <ns3:TrackPointExtension>
            <ns3:hr>90</ns3:hr>
            <ns3:cad>0</ns3:cad>
          </ns3:TrackPointExtension>
        </extensions>
      </trkpt>
      <trkpt lat="43.48101432435214519500732421875" lon="1.43318600021302700042724609375">
        <ele>269.399993896484375</ele>
        <time>2026-08-05T09:16:40.000Z</time>
        <extensions>
          <ns3:TrackPointExtension>
            <ns3:hr>90</ns3:hr>
            <ns3:cad>0</ns3:cad>
          </ns3:TrackPointExtension>
        </extensions>
      </trkpt>
      <trkpt lat="43.48101533018052577972412109375" lon="1.4331845752894878387451171875">
        <ele>269.399993896484375</ele>
        <time>2026-08-05T09:16:41.000Z</time>
        <extensions>
          <ns3:TrackPointExtension>
            <ns3:hr>90</ns3:hr>
            <ns3:cad>0</ns3:cad>
          </ns3:TrackPointExtension>
        </extensions>
      </trkpt>
      <trkpt lat="43.481013737618923187255859375" lon="1.43318130634725093841552734375">
        <ele>269.399993896484375</ele>
        <time>2026-08-05T09:16:42.000Z</time>
        <extensions>
          <ns3:TrackPointExtension>
            <ns3:hr>90</ns3:hr>
            <ns3:cad>0</ns3:cad>
          </ns3:TrackPointExtension>
        </extensions>
      </trkpt>
      <trkpt lat="43.48101600073277950286865234375" lon="1.43317401409149169921875">
        <ele>269.399993896484375</ele>
        <time>2026-08-05T09:16:43.000Z</time>
        <extensions>
          <ns3:TrackPointExtension>
            <ns3:hr>89</ns3:hr>
            <ns3:cad>0</ns3:cad>
          </ns3:TrackPointExtension>
        </extensions>
      </trkpt>
      <trkpt lat="43.4810185991227626800537109375" lon="1.43316487781703472137451171875">
        <ele>269.399993896484375</ele>
        <time>2026-08-05T09:16:44.000Z</time>
        <extensions>
          <ns3:TrackPointExtension>
            <ns3:hr>89</ns3:hr>
            <ns3:cad>0</ns3:cad>
          </ns3:TrackPointExtension>
        </extensions>
      </trkpt>
      <trkpt lat="43.48101901821792125701904296875" lon="1.4331547357141971588134765625">
        <ele>269.399993896484375</ele>
        <time>2026-08-05T09:16:45.000Z</time>
        <extensions>
          <ns3:TrackPointExtension>
            <ns3:hr>89</ns3:hr>
            <ns3:cad>0</ns3:cad>
          </ns3:TrackPointExtension>
        </extensions>
      </trkpt>
      <trkpt lat="43.48101616837084293365478515625" lon="1.43314610235393047332763671875">
        <ele>269.399993896484375</ele>
        <time>2026-08-05T09:16:46.000Z</time>
        <extensions>
          <ns3:TrackPointExtension>
            <ns3:hr>88</ns3:hr>
            <ns3:cad>0</ns3:cad>
          </ns3:TrackPointExtension>
        </extensions>
      </trkpt>
      <trkpt lat="43.48101180978119373321533203125" lon="1.433138810098171234130859375">
        <ele>269.399993896484375</ele>
        <time>2026-08-05T09:16:47.000Z</time>
        <extensions>
          <ns3:TrackPointExtension>
            <ns3:hr>88</ns3:hr>
            <ns3:cad>0</ns3:cad>
          </ns3:TrackPointExtension>
        </extensions>
      </trkpt>
      <trkpt lat="43.48100803792476654052734375" lon="1.4331366308033466339111328125">
        <ele>269.399993896484375</ele>
        <time>2026-08-05T09:16:48.000Z</time>
        <extensions>
          <ns3:TrackPointExtension>
            <ns3:hr>87</ns3:hr>
            <ns3:cad>0</ns3:cad>
          </ns3:TrackPointExtension>
        </extensions>
      </trkpt>
      <trkpt lat="43.48100359551608562469482421875" lon="1.4331329427659511566162109375">
        <ele>269.399993896484375</ele>
        <time>2026-08-05T09:16:49.000Z</time>
        <extensions>
          <ns3:TrackPointExtension>
            <ns3:hr>85</ns3:hr>
            <ns3:cad>64</ns3:cad>
          </ns3:TrackPointExtension>
        </extensions>
      </trkpt>
      <trkpt lat="43.4810018353164196014404296875" lon="1.43313168548047542572021484375">
        <ele>269.399993896484375</ele>
        <time>2026-08-05T09:16:50.000Z</time>
        <extensions>
          <ns3:TrackPointExtension>
            <ns3:hr>86</ns3:hr>
            <ns3:cad>64</ns3:cad>
          </ns3:TrackPointExtension>
        </extensions>
      </trkpt>
      <trkpt lat="43.4809984825551509857177734375" lon="1.43312950618565082550048828125">
        <ele>269.399993896484375</ele>
        <time>2026-08-05T09:16:51.000Z</time>
        <extensions>
          <ns3:TrackPointExtension>
            <ns3:hr>87</ns3:hr>
            <ns3:cad>0</ns3:cad>
          </ns3:TrackPointExtension>
        </extensions>
      </trkpt>
      <trkpt lat="43.48099538125097751617431640625" lon="1.4331295900046825408935546875">
        <ele>269.399993896484375</ele>
        <time>2026-08-05T09:16:52.000Z</time>
        <extensions>
          <ns3:TrackPointExtension>
            <ns3:hr>86</ns3:hr>
            <ns3:cad>0</ns3:cad>
          </ns3:TrackPointExtension>
        </extensions>
      </trkpt>
      <trkpt lat="43.4809941239655017852783203125" lon="1.43313688226044178009033203125">
        <ele>269.399993896484375</ele>
        <time>2026-08-05T09:16:53.000Z</time>
        <extensions>
          <ns3:TrackPointExtension>
            <ns3:hr>84</ns3:hr>
            <ns3:cad>0</ns3:cad>
          </ns3:TrackPointExtension>
        </extensions>
      </trkpt>
      <trkpt lat="43.4809947945177555084228515625" lon="1.4331431686878204345703125">
        <ele>269.20001220703125</ele>
        <time>2026-08-05T09:16:54.000Z</time>
        <extensions>
          <ns3:TrackPointExtension>
            <ns3:hr>83</ns3:hr>
            <ns3:cad>0</ns3:cad>
          </ns3:TrackPointExtension>
        </extensions>
      </trkpt>
      <trkpt lat="43.48099454306066036224365234375" lon="1.43314660526812076568603515625">
        <ele>269.20001220703125</ele>
        <time>2026-08-05T09:16:55.000Z</time>
        <extensions>
          <ns3:TrackPointExtension>
            <ns3:hr>83</ns3:hr>
            <ns3:cad>0</ns3:cad>
          </ns3:TrackPointExtension>
        </extensions>
      </trkpt>
      <trkpt lat="43.48099387250840663909912109375" lon="1.433147527277469635009765625">
        <ele>269.20001220703125</ele>
        <time>2026-08-05T09:16:56.000Z</time>
        <extensions>
          <ns3:TrackPointExtension>
            <ns3:hr>82</ns3:hr>
            <ns3:cad>0</ns3:cad>
          </ns3:TrackPointExtension>
        </extensions>
      </trkpt>
      <trkpt lat="43.480993621051311492919921875" lon="1.43315012566745281219482421875">
        <ele>269.20001220703125</ele>
        <time>2026-08-05T09:16:57.000Z</time>
        <extensions>
          <ns3:TrackPointExtension>
            <ns3:hr>82</ns3:hr>
            <ns3:cad>0</ns3:cad>
          </ns3:TrackPointExtension>
        </extensions>
      </trkpt>
      <trkpt lat="43.4809911064803600311279296875" lon="1.43315498717129230499267578125">
        <ele>269.20001220703125</ele>
        <time>2026-08-05T09:16:58.000Z</time>
        <extensions>
          <ns3:TrackPointExtension>
            <ns3:hr>81</ns3:hr>
            <ns3:cad>0</ns3:cad>
          </ns3:TrackPointExtension>
        </extensions>
      </trkpt>
      <trkpt lat="43.48098129965364933013916015625" lon="1.4331577531993389129638671875">
        <ele>269.20001220703125</ele>
        <time>2026-08-05T09:16:59.000Z</time>
        <extensions>
          <ns3:TrackPointExtension>
            <ns3:hr>81</ns3:hr>
            <ns3:cad>0</ns3:cad>
          </ns3:TrackPointExtension>
        </extensions>
      </trkpt>
      <trkpt lat="43.4809743426740169525146484375" lon="1.43315725028514862060546875">
        <ele>269.20001220703125</ele>
        <time>2026-08-05T09:17:00.000Z</time>
        <extensions>
          <ns3:TrackPointExtension>
            <ns3:hr>81</ns3:hr>
            <ns3:cad>0</ns3:cad>
          </ns3:TrackPointExtension>
        </extensions>
      </trkpt>
      <trkpt lat="43.4809649549424648284912109375" lon="1.43315247260034084320068359375">
        <ele>269.20001220703125</ele>
        <time>2026-08-05T09:17:01.000Z</time>
        <extensions>
          <ns3:TrackPointExtension>
            <ns3:hr>80</ns3:hr>
            <ns3:cad>0</ns3:cad>
          </ns3:TrackPointExtension>
        </extensions>
      </trkpt>
      <trkpt lat="43.48095648922026157379150390625" lon="1.43314626999199390411376953125">
        <ele>269.20001220703125</ele>
        <time>2026-08-05T09:17:02.000Z</time>
        <extensions>
          <ns3:TrackPointExtension>
            <ns3:hr>80</ns3:hr>
            <ns3:cad>0</ns3:cad>
          </ns3:TrackPointExtension>
        </extensions>
      </trkpt>
      <trkpt lat="43.48095095716416835784912109375" lon="1.4331409893929958343505859375">
        <ele>269</ele>
        <time>2026-08-05T09:17:03.000Z</time>
        <extensions>
          <ns3:TrackPointExtension>
            <ns3:hr>80</ns3:hr>
            <ns3:cad>0</ns3:cad>
          </ns3:TrackPointExtension>
        </extensions>
      </trkpt>
      <trkpt lat="43.48094441927969455718994140625" lon="1.43313352949917316436767578125">
        <ele>269</ele>
        <time>2026-08-05T09:17:04.000Z</time>
        <extensions>
          <ns3:TrackPointExtension>
            <ns3:hr>79</ns3:hr>
            <ns3:cad>0</ns3:cad>
          </ns3:TrackPointExtension>
        </extensions>
      </trkpt>
      <trkpt lat="43.4809334389865398406982421875" lon="1.43313604407012462615966796875">
        <ele>269</ele>
        <time>2026-08-05T09:17:05.000Z</time>
        <extensions>
          <ns3:TrackPointExtension>
            <ns3:hr>79</ns3:hr>
            <ns3:cad>0</ns3:cad>
          </ns3:TrackPointExtension>
        </extensions>
      </trkpt>
      <trkpt lat="43.48092581145465373992919921875" lon="1.43313470296561717987060546875">
        <ele>269.20001220703125</ele>
        <time>2026-08-05T09:17:06.000Z</time>
        <extensions>
          <ns3:TrackPointExtension>
            <ns3:hr>78</ns3:hr>
            <ns3:cad>0</ns3:cad>
          </ns3:TrackPointExtension>
        </extensions>
      </trkpt>
      <trkpt lat="43.4809173457324504852294921875" lon="1.43313671462237834930419921875">
        <ele>269.20001220703125</ele>
        <time>2026-08-05T09:17:07.000Z</time>
        <extensions>
          <ns3:TrackPointExtension>
            <ns3:hr>77</ns3:hr>
            <ns3:cad>41</ns3:cad>
          </ns3:TrackPointExtension>
        </extensions>
      </trkpt>
      <trkpt lat="43.48091038875281810760498046875" lon="1.43314652144908905029296875">
        <ele>269</ele>
        <time>2026-08-05T09:17:08.000Z</time>
        <extensions>
          <ns3:TrackPointExtension>
            <ns3:hr>76</ns3:hr>
            <ns3:cad>42</ns3:cad>
          </ns3:TrackPointExtension>
        </extensions>
      </trkpt>
      <trkpt lat="43.48090301267802715301513671875" lon="1.4331554062664508819580078125">
        <ele>269</ele>
        <time>2026-08-05T09:17:09.000Z</time>
        <extensions>
          <ns3:TrackPointExtension>
            <ns3:hr>74</ns3:hr>
            <ns3:cad>42</ns3:cad>
          </ns3:TrackPointExtension>
        </extensions>
      </trkpt>
      <trkpt lat="43.4808982349932193756103515625" lon="1.43316085450351238250732421875">
        <ele>269</ele>
        <time>2026-08-05T09:17:10.000Z</time>
        <extensions>
          <ns3:TrackPointExtension>
            <ns3:hr>74</ns3:hr>
            <ns3:cad>42</ns3:cad>
          </ns3:TrackPointExtension>
        </extensions>
      </trkpt>
      <trkpt lat="43.48089345730841159820556640625" lon="1.4331673085689544677734375">
        <ele>268.79998779296875</ele>
        <time>2026-08-05T09:17:11.000Z</time>
        <extensions>
          <ns3:TrackPointExtension>
            <ns3:hr>74</ns3:hr>
            <ns3:cad>0</ns3:cad>
          </ns3:TrackPointExtension>
        </extensions>
      </trkpt>
      <trkpt lat="43.48088725470006465911865234375" lon="1.43317393027245998382568359375">
        <ele>268.79998779296875</ele>
        <time>2026-08-05T09:17:12.000Z</time>
        <extensions>
          <ns3:TrackPointExtension>
            <ns3:hr>74</ns3:hr>
            <ns3:cad>0</ns3:cad>
          </ns3:TrackPointExtension>
        </extensions>
      </trkpt>
      <trkpt lat="43.4808839857578277587890625" lon="1.4331778697669506072998046875">
        <ele>268.79998779296875</ele>
        <time>2026-08-05T09:17:13.000Z</time>
        <extensions>
          <ns3:TrackPointExtension>
            <ns3:hr>74</ns3:hr>
            <ns3:cad>0</ns3:cad>
          </ns3:TrackPointExtension>
        </extensions>
      </trkpt>
      <trkpt lat="43.48088197410106658935546875" lon="1.4331792108714580535888671875">
        <ele>268.79998779296875</ele>
        <time>2026-08-05T09:17:14.000Z</time>
        <extensions>
          <ns3:TrackPointExtension>
            <ns3:hr>74</ns3:hr>
            <ns3:cad>0</ns3:cad>
          </ns3:TrackPointExtension>
        </extensions>
      </trkpt>
      <trkpt lat="43.48088054917752742767333984375" lon="1.43318013288080692291259765625">
        <ele>268.600006103515625</ele>
        <time>2026-08-05T09:17:15.000Z</time>
        <extensions>
          <ns3:TrackPointExtension>
            <ns3:hr>74</ns3:hr>
            <ns3:cad>0</ns3:cad>
          </ns3:TrackPointExtension>
        </extensions>
      </trkpt>
      <trkpt lat="43.480879627168178558349609375" lon="1.43318063579499721527099609375">
        <ele>268.600006103515625</ele>
        <time>2026-08-05T09:17:16.000Z</time>
        <extensions>
          <ns3:TrackPointExtension>
            <ns3:hr>74</ns3:hr>
            <ns3:cad>0</ns3:cad>
          </ns3:TrackPointExtension>
        </extensions>
      </trkpt>
      <trkpt lat="43.4808791242539882659912109375" lon="1.4331802166998386383056640625">
        <ele>268.600006103515625</ele>
        <time>2026-08-05T09:17:17.000Z</time>
        <extensions>
          <ns3:TrackPointExtension>
            <ns3:hr>74</ns3:hr>
            <ns3:cad>0</ns3:cad>
          </ns3:TrackPointExtension>
        </extensions>
      </trkpt>
      <trkpt lat="43.48087937571108341217041015625" lon="1.43317661248147487640380859375">
        <ele>268.600006103515625</ele>
        <time>2026-08-05T09:17:18.000Z</time>
        <extensions>
          <ns3:TrackPointExtension>
            <ns3:hr>74</ns3:hr>
            <ns3:cad>0</ns3:cad>
          </ns3:TrackPointExtension>
        </extensions>
      </trkpt>
      <trkpt lat="43.48087904043495655059814453125" lon="1.4331755228340625762939453125">
        <ele>268.600006103515625</ele>
        <time>2026-08-05T09:17:19.000Z</time>
        <extensions>
          <ns3:TrackPointExtension>
            <ns3:hr>74</ns3:hr>
            <ns3:cad>0</ns3:cad>
          </ns3:TrackPointExtension>
        </extensions>
      </trkpt>
      <trkpt lat="43.48088054917752742767333984375" lon="1.43317409791052341461181640625">
        <ele>268.600006103515625</ele>
        <time>2026-08-05T09:17:20.000Z</time>
        <extensions>
          <ns3:TrackPointExtension>
            <ns3:hr>74</ns3:hr>
            <ns3:cad>0</ns3:cad>
          </ns3:TrackPointExtension>
        </extensions>
      </trkpt>
      <trkpt lat="43.48087853752076625823974609375" lon="1.43317510373890399932861328125">
        <ele>268.600006103515625</ele>
        <time>2026-08-05T09:17:21.000Z</time>
        <extensions>
          <ns3:TrackPointExtension>
            <ns3:hr>73</ns3:hr>
            <ns3:cad>0</ns3:cad>
          </ns3:TrackPointExtension>
        </extensions>
      </trkpt>
      <trkpt lat="43.4808801300823688507080078125" lon="1.43317325972020626068115234375">
        <ele>268.79998779296875</ele>
        <time>2026-08-05T09:17:22.000Z</time>
        <extensions>
          <ns3:TrackPointExtension>
            <ns3:hr>73</ns3:hr>
            <ns3:cad>0</ns3:cad>
          </ns3:TrackPointExtension>
        </extensions>
      </trkpt>
      <trkpt lat="43.4808811359107494354248046875" lon="1.43317141570150852203369140625">
        <ele>268.79998779296875</ele>
        <time>2026-08-05T09:17:23.000Z</time>
        <extensions>
          <ns3:TrackPointExtension>
            <ns3:hr>73</ns3:hr>
            <ns3:cad>0</ns3:cad>
          </ns3:TrackPointExtension>
        </extensions>
      </trkpt>
      <trkpt lat="43.480881638824939727783203125" lon="1.43317141570150852203369140625">
        <ele>268.600006103515625</ele>
        <time>2026-08-05T09:17:24.000Z</time>
        <extensions>
          <ns3:TrackPointExtension>
            <ns3:hr>73</ns3:hr>
            <ns3:cad>0</ns3:cad>
          </ns3:TrackPointExtension>
        </extensions>
      </trkpt>
      <trkpt lat="43.480881638824939727783203125" lon="1.43317141570150852203369140625">
        <ele>268.600006103515625</ele>
        <time>2026-08-05T09:17:25.000Z</time>
        <extensions>
          <ns3:TrackPointExtension>
            <ns3:hr>72</ns3:hr>
            <ns3:cad>0</ns3:cad>
          </ns3:TrackPointExtension>
        </extensions>
      </trkpt>
      <trkpt lat="43.48088205792009830474853515625" lon="1.43317141570150852203369140625">
        <ele>268.79998779296875</ele>
        <time>2026-08-05T09:17:26.000Z</time>
        <extensions>
          <ns3:TrackPointExtension>
            <ns3:hr>71</ns3:hr>
            <ns3:cad>0</ns3:cad>
          </ns3:TrackPointExtension>
        </extensions>
      </trkpt>
      <trkpt lat="43.48088189028203487396240234375" lon="1.43317594192922115325927734375">
        <ele>268.79998779296875</ele>
        <time>2026-08-05T09:17:27.000Z</time>
        <extensions>
          <ns3:TrackPointExtension>
            <ns3:hr>71</ns3:hr>
            <ns3:cad>0</ns3:cad>
          </ns3:TrackPointExtension>
        </extensions>
      </trkpt>
      <trkpt lat="43.480881638824939727783203125" lon="1.43317141570150852203369140625">
        <ele>268.79998779296875</ele>
        <time>2026-08-05T09:17:28.000Z</time>
        <extensions>
          <ns3:TrackPointExtension>
            <ns3:hr>71</ns3:hr>
            <ns3:cad>0</ns3:cad>
          </ns3:TrackPointExtension>
        </extensions>
      </trkpt>
      <trkpt lat="43.480881638824939727783203125" lon="1.43317141570150852203369140625">
        <ele>268.79998779296875</ele>
        <time>2026-08-05T09:17:29.000Z</time>
        <extensions>
          <ns3:TrackPointExtension>
            <ns3:hr>70</ns3:hr>
            <ns3:cad>0</ns3:cad>
          </ns3:TrackPointExtension>
        </extensions>
      </trkpt>
      <trkpt lat="43.480881638824939727783203125" lon="1.43317141570150852203369140625">
        <ele>268.79998779296875</ele>
        <time>2026-08-05T09:17:30.000Z</time>
        <extensions>
          <ns3:TrackPointExtension>
            <ns3:hr>70</ns3:hr>
            <ns3:cad>0</ns3:cad>
          </ns3:TrackPointExtension>
        </extensions>
      </trkpt>
      <trkpt lat="43.480881638824939727783203125" lon="1.43317141570150852203369140625">
        <ele>268.79998779296875</ele>
        <time>2026-08-05T09:17:31.000Z</time>
        <extensions>
          <ns3:TrackPointExtension>
            <ns3:hr>70</ns3:hr>
            <ns3:cad>0</ns3:cad>
          </ns3:TrackPointExtension>
        </extensions>
      </trkpt>
      <trkpt lat="43.480881638824939727783203125" lon="1.43317141570150852203369140625">
        <ele>268.600006103515625</ele>
        <time>2026-08-05T09:17:32.000Z</time>
        <extensions>
          <ns3:TrackPointExtension>
            <ns3:hr>70</ns3:hr>
            <ns3:cad>0</ns3:cad>
          </ns3:TrackPointExtension>
        </extensions>
      </trkpt>
      <trkpt lat="43.480881638824939727783203125" lon="1.43317141570150852203369140625">
        <ele>268.600006103515625</ele>
        <time>2026-08-05T09:17:33.000Z</time>
        <extensions>
          <ns3:TrackPointExtension>
            <ns3:hr>70</ns3:hr>
            <ns3:cad>0</ns3:cad>
          </ns3:TrackPointExtension>
        </extensions>
      </trkpt>
      <trkpt lat="43.480881638824939727783203125" lon="1.43317141570150852203369140625">
        <ele>268.600006103515625</ele>
        <time>2026-08-05T09:17:34.000Z</time>
        <extensions>
          <ns3:TrackPointExtension>
            <ns3:hr>71</ns3:hr>
            <ns3:cad>0</ns3:cad>
          </ns3:TrackPointExtension>
        </extensions>
      </trkpt>
      <trkpt lat="43.480881638824939727783203125" lon="1.43317141570150852203369140625">
        <ele>268.600006103515625</ele>
        <time>2026-08-05T09:17:35.000Z</time>
        <extensions>
          <ns3:TrackPointExtension>
            <ns3:hr>70</ns3:hr>
            <ns3:cad>0</ns3:cad>
          </ns3:TrackPointExtension>
        </extensions>
      </trkpt>
      <trkpt lat="43.480881638824939727783203125" lon="1.43317141570150852203369140625">
        <ele>268.600006103515625</ele>
        <time>2026-08-05T09:17:36.000Z</time>
        <extensions>
          <ns3:TrackPointExtension>
            <ns3:hr>70</ns3:hr>
            <ns3:cad>0</ns3:cad>
          </ns3:TrackPointExtension>
        </extensions>
      </trkpt>
      <trkpt lat="43.480881638824939727783203125" lon="1.43317141570150852203369140625">
        <ele>268.600006103515625</ele>
        <time>2026-08-05T09:17:37.000Z</time>
        <extensions>
          <ns3:TrackPointExtension>
            <ns3:hr>70</ns3:hr>
            <ns3:cad>0</ns3:cad>
          </ns3:TrackPointExtension>
        </extensions>
      </trkpt>
      <trkpt lat="43.480881638824939727783203125" lon="1.43317141570150852203369140625">
        <ele>268.600006103515625</ele>
        <time>2026-08-05T09:17:38.000Z</time>
        <extensions>
          <ns3:TrackPointExtension>
            <ns3:hr>70</ns3:hr>
            <ns3:cad>0</ns3:cad>
          </ns3:TrackPointExtension>
        </extensions>
      </trkpt>
      <trkpt lat="43.480881638824939727783203125" lon="1.43317141570150852203369140625">
        <ele>268.79998779296875</ele>
        <time>2026-08-05T09:17:39.000Z</time>
        <extensions>
          <ns3:TrackPointExtension>
            <ns3:hr>70</ns3:hr>
            <ns3:cad>0</ns3:cad>
          </ns3:TrackPointExtension>
        </extensions>
      </trkpt>
      <trkpt lat="43.480881638824939727783203125" lon="1.43317141570150852203369140625">
        <ele>268.79998779296875</ele>
        <time>2026-08-05T09:17:40.000Z</time>
        <extensions>
          <ns3:TrackPointExtension>
            <ns3:hr>70</ns3:hr>
            <ns3:cad>0</ns3:cad>
          </ns3:TrackPointExtension>
        </extensions>
      </trkpt>
      <trkpt lat="43.480881638824939727783203125" lon="1.43317141570150852203369140625">
        <ele>268.79998779296875</ele>
        <time>2026-08-05T09:17:41.000Z</time>
        <extensions>
          <ns3:TrackPointExtension>
            <ns3:hr>71</ns3:hr>
            <ns3:cad>0</ns3:cad>
          </ns3:TrackPointExtension>
        </extensions>
      </trkpt>
      <trkpt lat="43.480881638824939727783203125" lon="1.43317141570150852203369140625">
        <ele>268.79998779296875</ele>
        <time>2026-08-05T09:17:42.000Z</time>
        <extensions>
          <ns3:TrackPointExtension>
            <ns3:hr>72</ns3:hr>
            <ns3:cad>0</ns3:cad>
          </ns3:TrackPointExtension>
        </extensions>
      </trkpt>
      <trkpt lat="43.480881638824939727783203125" lon="1.43317141570150852203369140625">
        <ele>268.79998779296875</ele>
        <time>2026-08-05T09:17:43.000Z</time>
        <extensions>
          <ns3:TrackPointExtension>
            <ns3:hr>74</ns3:hr>
            <ns3:cad>0</ns3:cad>
          </ns3:TrackPointExtension>
        </extensions>
      </trkpt>
      <trkpt lat="43.480881638824939727783203125" lon="1.43317141570150852203369140625">
        <ele>268.79998779296875</ele>
        <time>2026-08-05T09:17:44.000Z</time>
        <extensions>
          <ns3:TrackPointExtension>
            <ns3:hr>80</ns3:hr>
            <ns3:cad>0</ns3:cad>
          </ns3:TrackPointExtension>
        </extensions>
      </trkpt>
      <trkpt lat="43.480881638824939727783203125" lon="1.43317141570150852203369140625">
        <ele>268.79998779296875</ele>
        <time>2026-08-05T09:17:45.000Z</time>
        <extensions>
          <ns3:TrackPointExtension>
            <ns3:hr>84</ns3:hr>
            <ns3:cad>0</ns3:cad>
          </ns3:TrackPointExtension>
        </extensions>
      </trkpt>
      <trkpt lat="43.480881638824939727783203125" lon="1.43317141570150852203369140625">
        <ele>268.79998779296875</ele>
        <time>2026-08-05T09:17:46.000Z</time>
        <extensions>
          <ns3:TrackPointExtension>
            <ns3:hr>84</ns3:hr>
            <ns3:cad>0</ns3:cad>
          </ns3:TrackPointExtension>
        </extensions>
      </trkpt>
      <trkpt lat="43.480881638824939727783203125" lon="1.43317141570150852203369140625">
        <ele>269</ele>
        <time>2026-08-05T09:17:47.000Z</time>
        <extensions>
          <ns3:TrackPointExtension>
            <ns3:hr>84</ns3:hr>
            <ns3:cad>0</ns3:cad>
          </ns3:TrackPointExtension>
        </extensions>
      </trkpt>
      <trkpt lat="43.480881638824939727783203125" lon="1.43317141570150852203369140625">
        <ele>269</ele>
        <time>2026-08-05T09:17:48.000Z</time>
        <extensions>
          <ns3:TrackPointExtension>
            <ns3:hr>84</ns3:hr>
            <ns3:cad>0</ns3:cad>
          </ns3:TrackPointExtension>
        </extensions>
      </trkpt>
      <trkpt lat="43.480881638824939727783203125" lon="1.43317141570150852203369140625">
        <ele>269</ele>
        <time>2026-08-05T09:17:49.000Z</time>
        <extensions>
          <ns3:TrackPointExtension>
            <ns3:hr>83</ns3:hr>
            <ns3:cad>0</ns3:cad>
          </ns3:TrackPointExtension>
        </extensions>
      </trkpt>
      <trkpt lat="43.480881638824939727783203125" lon="1.43317141570150852203369140625">
        <ele>269</ele>
        <time>2026-08-05T09:17:50.000Z</time>
        <extensions>
          <ns3:TrackPointExtension>
            <ns3:hr>83</ns3:hr>
            <ns3:cad>0</ns3:cad>
          </ns3:TrackPointExtension>
        </extensions>
      </trkpt>
      <trkpt lat="43.480881638824939727783203125" lon="1.43317141570150852203369140625">
        <ele>269</ele>
        <time>2026-08-05T09:17:51.000Z</time>
        <extensions>
          <ns3:TrackPointExtension>
            <ns3:hr>83</ns3:hr>
            <ns3:cad>0</ns3:cad>
          </ns3:TrackPointExtension>
        </extensions>
      </trkpt>
      <trkpt lat="43.480881638824939727783203125" lon="1.43317141570150852203369140625">
        <ele>269</ele>
        <time>2026-08-05T09:17:52.000Z</time>
        <extensions>
          <ns3:TrackPointExtension>
            <ns3:hr>84</ns3:hr>
            <ns3:cad>0</ns3:cad>
          </ns3:TrackPointExtension>
        </extensions>
      </trkpt>
      <trkpt lat="43.480881638824939727783203125" lon="1.43317141570150852203369140625">
        <ele>269</ele>
        <time>2026-08-05T09:17:53.000Z</time>
        <extensions>
          <ns3:TrackPointExtension>
            <ns3:hr>83</ns3:hr>
            <ns3:cad>0</ns3:cad>
          </ns3:TrackPointExtension>
        </extensions>
      </trkpt>
      <trkpt lat="43.480881638824939727783203125" lon="1.43317141570150852203369140625">
        <ele>269</ele>
        <time>2026-08-05T09:17:54.000Z</time>
        <extensions>
          <ns3:TrackPointExtension>
            <ns3:hr>83</ns3:hr>
            <ns3:cad>0</ns3:cad>
          </ns3:TrackPointExtension>
        </extensions>
      </trkpt>
      <trkpt lat="43.480881638824939727783203125" lon="1.43317141570150852203369140625">
        <ele>269</ele>
        <time>2026-08-05T09:17:55.000Z</time>
        <extensions>
          <ns3:TrackPointExtension>
            <ns3:hr>83</ns3:hr>
            <ns3:cad>0</ns3:cad>
          </ns3:TrackPointExtension>
        </extensions>
      </trkpt>
      <trkpt lat="43.480881638824939727783203125" lon="1.43317141570150852203369140625">
        <ele>269</ele>
        <time>2026-08-05T09:17:56.000Z</time>
        <extensions>
          <ns3:TrackPointExtension>
            <ns3:hr>82</ns3:hr>
            <ns3:cad>0</ns3:cad>
          </ns3:TrackPointExtension>
        </extensions>
      </trkpt>
      <trkpt lat="43.480881638824939727783203125" lon="1.43317141570150852203369140625">
        <ele>269</ele>
        <time>2026-08-05T09:17:57.000Z</time>
        <extensions>
          <ns3:TrackPointExtension>
            <ns3:hr>82</ns3:hr>
            <ns3:cad>0</ns3:cad>
          </ns3:TrackPointExtension>
        </extensions>
      </trkpt>
      <trkpt lat="43.480881638824939727783203125" lon="1.43317141570150852203369140625">
        <ele>269</ele>
        <time>2026-08-05T09:17:58.000Z</time>
        <extensions>
          <ns3:TrackPointExtension>
            <ns3:hr>81</ns3:hr>
            <ns3:cad>0</ns3:cad>
          </ns3:TrackPointExtension>
        </extensions>
      </trkpt>
      <trkpt lat="43.480881638824939727783203125" lon="1.43317141570150852203369140625">
        <ele>268.79998779296875</ele>
        <time>2026-08-05T09:17:59.000Z</time>
        <extensions>
          <ns3:TrackPointExtension>
            <ns3:hr>80</ns3:hr>
            <ns3:cad>0</ns3:cad>
          </ns3:TrackPointExtension>
        </extensions>
      </trkpt>
      <trkpt lat="43.480881638824939727783203125" lon="1.43317141570150852203369140625">
        <ele>268.79998779296875</ele>
        <time>2026-08-05T09:18:00.000Z</time>
        <extensions>
          <ns3:TrackPointExtension>
            <ns3:hr>77</ns3:hr>
            <ns3:cad>0</ns3:cad>
          </ns3:TrackPointExtension>
        </extensions>
      </trkpt>
      <trkpt lat="43.480881638824939727783203125" lon="1.43317141570150852203369140625">
        <ele>268.79998779296875</ele>
        <time>2026-08-05T09:18:01.000Z</time>
        <extensions>
          <ns3:TrackPointExtension>
            <ns3:hr>76</ns3:hr>
            <ns3:cad>0</ns3:cad>
          </ns3:TrackPointExtension>
        </extensions>
      </trkpt>
      <trkpt lat="43.480881638824939727783203125" lon="1.43317141570150852203369140625">
        <ele>268.79998779296875</ele>
        <time>2026-08-05T09:18:02.000Z</time>
        <extensions>
          <ns3:TrackPointExtension>
            <ns3:hr>74</ns3:hr>
            <ns3:cad>0</ns3:cad>
          </ns3:TrackPointExtension>
        </extensions>
      </trkpt>
      <trkpt lat="43.480881638824939727783203125" lon="1.43317141570150852203369140625">
        <ele>268.79998779296875</ele>
        <time>2026-08-05T09:18:03.000Z</time>
        <extensions>
          <ns3:TrackPointExtension>
            <ns3:hr>73</ns3:hr>
            <ns3:cad>0</ns3:cad>
          </ns3:TrackPointExtension>
        </extensions>
      </trkpt>
      <trkpt lat="43.480881638824939727783203125" lon="1.43317141570150852203369140625">
        <ele>268.79998779296875</ele>
        <time>2026-08-05T09:18:04.000Z</time>
        <extensions>
          <ns3:TrackPointExtension>
            <ns3:hr>71</ns3:hr>
            <ns3:cad>0</ns3:cad>
          </ns3:TrackPointExtension>
        </extensions>
      </trkpt>
      <trkpt lat="43.480881638824939727783203125" lon="1.43317141570150852203369140625">
        <ele>268.79998779296875</ele>
        <time>2026-08-05T09:18:05.000Z</time>
        <extensions>
          <ns3:TrackPointExtension>
            <ns3:hr>69</ns3:hr>
            <ns3:cad>0</ns3:cad>
          </ns3:TrackPointExtension>
        </extensions>
      </trkpt>
      <trkpt lat="43.480881638824939727783203125" lon="1.43317141570150852203369140625">
        <ele>268.79998779296875</ele>
        <time>2026-08-05T09:18:06.000Z</time>
        <extensions>
          <ns3:TrackPointExtension>
            <ns3:hr>68</ns3:hr>
            <ns3:cad>0</ns3:cad>
          </ns3:TrackPointExtension>
        </extensions>
      </trkpt>
      <trkpt lat="43.480881638824939727783203125" lon="1.43317141570150852203369140625">
        <ele>268.600006103515625</ele>
        <time>2026-08-05T09:18:07.000Z</time>
        <extensions>
          <ns3:TrackPointExtension>
            <ns3:hr>64</ns3:hr>
            <ns3:cad>0</ns3:cad>
          </ns3:TrackPointExtension>
        </extensions>
      </trkpt>
      <trkpt lat="43.480881638824939727783203125" lon="1.43317141570150852203369140625">
        <ele>268.600006103515625</ele>
        <time>2026-08-05T09:18:08.000Z</time>
        <extensions>
          <ns3:TrackPointExtension>
            <ns3:hr>62</ns3:hr>
            <ns3:cad>0</ns3:cad>
          </ns3:TrackPointExtension>
        </extensions>
      </trkpt>
      <trkpt lat="43.480881638824939727783203125" lon="1.43317141570150852203369140625">
        <ele>268.600006103515625</ele>
        <time>2026-08-05T09:18:09.000Z</time>
        <extensions>
          <ns3:TrackPointExtension>
            <ns3:hr>61</ns3:hr>
            <ns3:cad>0</ns3:cad>
          </ns3:TrackPointExtension>
        </extensions>
      </trkpt>
      <trkpt lat="43.480881638824939727783203125" lon="1.43317141570150852203369140625">
        <ele>268.600006103515625</ele>
        <time>2026-08-05T09:18:10.000Z</time>
        <extensions>
          <ns3:TrackPointExtension>
            <ns3:hr>61</ns3:hr>
            <ns3:cad>0</ns3:cad>
          </ns3:TrackPointExtension>
        </extensions>
      </trkpt>
      <trkpt lat="43.480881638824939727783203125" lon="1.43317141570150852203369140625">
        <ele>268.600006103515625</ele>
        <time>2026-08-05T09:18:11.000Z</time>
        <extensions>
          <ns3:TrackPointExtension>
            <ns3:hr>61</ns3:hr>
            <ns3:cad>0</ns3:cad>
          </ns3:TrackPointExtension>
        </extensions>
      </trkpt>
      <trkpt lat="43.480881638824939727783203125" lon="1.43317141570150852203369140625">
        <ele>268.600006103515625</ele>
        <time>2026-08-05T09:18:12.000Z</time>
        <extensions>
          <ns3:TrackPointExtension>
            <ns3:hr>61</ns3:hr>
            <ns3:cad>0</ns3:cad>
          </ns3:TrackPointExtension>
        </extensions>
      </trkpt>
      <trkpt lat="43.480881638824939727783203125" lon="1.43317141570150852203369140625">
        <ele>268.600006103515625</ele>
        <time>2026-08-05T09:18:13.000Z</time>
        <extensions>
          <ns3:TrackPointExtension>
            <ns3:hr>61</ns3:hr>
            <ns3:cad>0</ns3:cad>
          </ns3:TrackPointExtension>
        </extensions>
      </trkpt>
      <trkpt lat="43.480881638824939727783203125" lon="1.43317141570150852203369140625">
        <ele>268.600006103515625</ele>
        <time>2026-08-05T09:18:14.000Z</time>
        <extensions>
          <ns3:TrackPointExtension>
            <ns3:hr>61</ns3:hr>
            <ns3:cad>0</ns3:cad>
          </ns3:TrackPointExtension>
        </extensions>
      </trkpt>
      <trkpt lat="43.480881638824939727783203125" lon="1.43317141570150852203369140625">
        <ele>268.600006103515625</ele>
        <time>2026-08-05T09:18:15.000Z</time>
        <extensions>
          <ns3:TrackPointExtension>
            <ns3:hr>60</ns3:hr>
            <ns3:cad>0</ns3:cad>
          </ns3:TrackPointExtension>
        </extensions>
      </trkpt>
      <trkpt lat="43.480881638824939727783203125" lon="1.43317141570150852203369140625">
        <ele>268.600006103515625</ele>
        <time>2026-08-05T09:18:16.000Z</time>
        <extensions>
          <ns3:TrackPointExtension>
            <ns3:hr>61</ns3:hr>
            <ns3:cad>0</ns3:cad>
          </ns3:TrackPointExtension>
        </extensions>
      </trkpt>
      <trkpt lat="43.480881638824939727783203125" lon="1.43317141570150852203369140625">
        <ele>268.600006103515625</ele>
        <time>2026-08-05T09:18:17.000Z</time>
        <extensions>
          <ns3:TrackPointExtension>
            <ns3:hr>61</ns3:hr>
            <ns3:cad>0</ns3:cad>
          </ns3:TrackPointExtension>
        </extensions>
      </trkpt>
      <trkpt lat="43.480881638824939727783203125" lon="1.43317141570150852203369140625">
        <ele>268.600006103515625</ele>
        <time>2026-08-05T09:18:18.000Z</time>
        <extensions>
          <ns3:TrackPointExtension>
            <ns3:hr>62</ns3:hr>
            <ns3:cad>0</ns3:cad>
          </ns3:TrackPointExtension>
        </extensions>
      </trkpt>
      <trkpt lat="43.480881638824939727783203125" lon="1.43317141570150852203369140625">
        <ele>268.600006103515625</ele>
        <time>2026-08-05T09:18:19.000Z</time>
        <extensions>
          <ns3:TrackPointExtension>
            <ns3:hr>63</ns3:hr>
            <ns3:cad>0</ns3:cad>
          </ns3:TrackPointExtension>
        </extensions>
      </trkpt>
      <trkpt lat="43.480881638824939727783203125" lon="1.43317141570150852203369140625">
        <ele>268.600006103515625</ele>
        <time>2026-08-05T09:18:20.000Z</time>
        <extensions>
          <ns3:TrackPointExtension>
            <ns3:hr>64</ns3:hr>
            <ns3:cad>0</ns3:cad>
          </ns3:TrackPointExtension>
        </extensions>
      </trkpt>
      <trkpt lat="43.480881638824939727783203125" lon="1.43317141570150852203369140625">
        <ele>268.399993896484375</ele>
        <time>2026-08-05T09:18:21.000Z</time>
        <extensions>
          <ns3:TrackPointExtension>
            <ns3:hr>65</ns3:hr>
            <ns3:cad>0</ns3:cad>
          </ns3:TrackPointExtension>
        </extensions>
      </trkpt>
      <trkpt lat="43.480881638824939727783203125" lon="1.43317141570150852203369140625">
        <ele>268.399993896484375</ele>
        <time>2026-08-05T09:18:22.000Z</time>
        <extensions>
          <ns3:TrackPointExtension>
            <ns3:hr>67</ns3:hr>
            <ns3:cad>0</ns3:cad>
          </ns3:TrackPointExtension>
        </extensions>
      </trkpt>
      <trkpt lat="43.480881638824939727783203125" lon="1.43317141570150852203369140625">
        <ele>268.399993896484375</ele>
        <time>2026-08-05T09:18:23.000Z</time>
        <extensions>
          <ns3:TrackPointExtension>
            <ns3:hr>67</ns3:hr>
            <ns3:cad>0</ns3:cad>
          </ns3:TrackPointExtension>
        </extensions>
      </trkpt>
      <trkpt lat="43.480881638824939727783203125" lon="1.43317141570150852203369140625">
        <ele>268.399993896484375</ele>
        <time>2026-08-05T09:18:24.000Z</time>
        <extensions>
          <ns3:TrackPointExtension>
            <ns3:hr>67</ns3:hr>
            <ns3:cad>0</ns3:cad>
          </ns3:TrackPointExtension>
        </extensions>
      </trkpt>
      <trkpt lat="43.480881638824939727783203125" lon="1.43317141570150852203369140625">
        <ele>268.399993896484375</ele>
        <time>2026-08-05T09:18:25.000Z</time>
        <extensions>
          <ns3:TrackPointExtension>
            <ns3:hr>67</ns3:hr>
            <ns3:cad>0</ns3:cad>
          </ns3:TrackPointExtension>
        </extensions>
      </trkpt>
      <trkpt lat="43.480881638824939727783203125" lon="1.43317141570150852203369140625">
        <ele>268.399993896484375</ele>
        <time>2026-08-05T09:18:26.000Z</time>
        <extensions>
          <ns3:TrackPointExtension>
            <ns3:hr>68</ns3:hr>
            <ns3:cad>0</ns3:cad>
          </ns3:TrackPointExtension>
        </extensions>
      </trkpt>
      <trkpt lat="43.480881638824939727783203125" lon="1.43317141570150852203369140625">
        <ele>268.399993896484375</ele>
        <time>2026-08-05T09:18:27.000Z</time>
        <extensions>
          <ns3:TrackPointExtension>
            <ns3:hr>68</ns3:hr>
            <ns3:cad>0</ns3:cad>
          </ns3:TrackPointExtension>
        </extensions>
      </trkpt>
      <trkpt lat="43.480881638824939727783203125" lon="1.43317141570150852203369140625">
        <ele>268.399993896484375</ele>
        <time>2026-08-05T09:18:28.000Z</time>
        <extensions>
          <ns3:TrackPointExtension>
            <ns3:hr>68</ns3:hr>
            <ns3:cad>0</ns3:cad>
          </ns3:TrackPointExtension>
        </extensions>
      </trkpt>
      <trkpt lat="43.480881638824939727783203125" lon="1.43317141570150852203369140625">
        <ele>268.399993896484375</ele>
        <time>2026-08-05T09:18:29.000Z</time>
        <extensions>
          <ns3:TrackPointExtension>
            <ns3:hr>69</ns3:hr>
            <ns3:cad>0</ns3:cad>
          </ns3:TrackPointExtension>
        </extensions>
      </trkpt>
      <trkpt lat="43.480881638824939727783203125" lon="1.43317141570150852203369140625">
        <ele>268.399993896484375</ele>
        <time>2026-08-05T09:18:30.000Z</time>
        <extensions>
          <ns3:TrackPointExtension>
            <ns3:hr>69</ns3:hr>
            <ns3:cad>0</ns3:cad>
          </ns3:TrackPointExtension>
        </extensions>
      </trkpt>
      <trkpt lat="43.480881638824939727783203125" lon="1.43317141570150852203369140625">
        <ele>268.399993896484375</ele>
        <time>2026-08-05T09:18:31.000Z</time>
        <extensions>
          <ns3:TrackPointExtension>
            <ns3:hr>69</ns3:hr>
            <ns3:cad>0</ns3:cad>
          </ns3:TrackPointExtension>
        </extensions>
      </trkpt>
      <trkpt lat="43.48088733851909637451171875" lon="1.433170326054096221923828125">
        <ele>268.399993896484375</ele>
        <time>2026-08-05T09:18:32.000Z</time>
        <extensions>
          <ns3:TrackPointExtension>
            <ns3:hr>69</ns3:hr>
            <ns3:cad>0</ns3:cad>
          </ns3:TrackPointExtension>
        </extensions>
      </trkpt>
      <trkpt lat="43.4808881767094135284423828125" lon="1.4331686496734619140625">
        <ele>268.399993896484375</ele>
        <time>2026-08-05T09:18:33.000Z</time>
        <extensions>
          <ns3:TrackPointExtension>
            <ns3:hr>69</ns3:hr>
            <ns3:cad>0</ns3:cad>
          </ns3:TrackPointExtension>
        </extensions>
      </trkpt>
      <trkpt lat="43.48088976927101612091064453125" lon="1.4331647939980030059814453125">
        <ele>268.399993896484375</ele>
        <time>2026-08-05T09:18:34.000Z</time>
        <extensions>
          <ns3:TrackPointExtension>
            <ns3:hr>68</ns3:hr>
            <ns3:cad>0</ns3:cad>
          </ns3:TrackPointExtension>
        </extensions>
      </trkpt>
      <trkpt lat="43.48088490776717662811279296875" lon="1.433160603046417236328125">
        <ele>268.399993896484375</ele>
        <time>2026-08-05T09:18:35.000Z</time>
        <extensions>
          <ns3:TrackPointExtension>
            <ns3:hr>68</ns3:hr>
            <ns3:cad>0</ns3:cad>
          </ns3:TrackPointExtension>
        </extensions>
      </trkpt>
      <trkpt lat="43.480879962444305419921875" lon="1.43315867520868778228759765625">
        <ele>268.399993896484375</ele>
        <time>2026-08-05T09:18:36.000Z</time>
        <extensions>
          <ns3:TrackPointExtension>
            <ns3:hr>68</ns3:hr>
            <ns3:cad>0</ns3:cad>
          </ns3:TrackPointExtension>
        </extensions>
      </trkpt>
      <trkpt lat="43.4808787889778614044189453125" lon="1.43315859138965606689453125">
        <ele>268.399993896484375</ele>
        <time>2026-08-05T09:18:37.000Z</time>
        <extensions>
          <ns3:TrackPointExtension>
            <ns3:hr>68</ns3:hr>
            <ns3:cad>0</ns3:cad>
          </ns3:TrackPointExtension>
        </extensions>
      </trkpt>
      <trkpt lat="43.48088155500590801239013671875" lon="1.43314694054424762725830078125">
        <ele>268.399993896484375</ele>
        <time>2026-08-05T09:18:38.000Z</time>
        <extensions>
          <ns3:TrackPointExtension>
            <ns3:hr>68</ns3:hr>
            <ns3:cad>0</ns3:cad>
          </ns3:TrackPointExtension>
        </extensions>
      </trkpt>
      <trkpt lat="43.48088356666266918182373046875" lon="1.433139480650424957275390625">
        <ele>268.20001220703125</ele>
        <time>2026-08-05T09:18:39.000Z</time>
        <extensions>
          <ns3:TrackPointExtension>
            <ns3:hr>68</ns3:hr>
            <ns3:cad>0</ns3:cad>
          </ns3:TrackPointExtension>
        </extensions>
      </trkpt>
      <trkpt lat="43.480885662138462066650390625" lon="1.433136463165283203125">
        <ele>268.20001220703125</ele>
        <time>2026-08-05T09:18:40.000Z</time>
        <extensions>
          <ns3:TrackPointExtension>
            <ns3:hr>68</ns3:hr>
            <ns3:cad>0</ns3:cad>
          </ns3:TrackPointExtension>
        </extensions>
      </trkpt>
      <trkpt lat="43.480885662138462066650390625" lon="1.4331297576427459716796875">
        <ele>268.20001220703125</ele>
        <time>2026-08-05T09:18:41.000Z</time>
        <extensions>
          <ns3:TrackPointExtension>
            <ns3:hr>68</ns3:hr>
            <ns3:cad>0</ns3:cad>
          </ns3:TrackPointExtension>
        </extensions>
      </trkpt>
      <trkpt lat="43.480885326862335205078125" lon="1.43312648870050907135009765625">
        <ele>268.399993896484375</ele>
        <time>2026-08-05T09:18:42.000Z</time>
        <extensions>
          <ns3:TrackPointExtension>
            <ns3:hr>68</ns3:hr>
            <ns3:cad>0</ns3:cad>
          </ns3:TrackPointExtension>
        </extensions>
      </trkpt>
      <trkpt lat="43.48088708706200122833251953125" lon="1.43312900327146053314208984375">
        <ele>268.399993896484375</ele>
        <time>2026-08-05T09:18:43.000Z</time>
        <extensions>
          <ns3:TrackPointExtension>
            <ns3:hr>69</ns3:hr>
            <ns3:cad>0</ns3:cad>
          </ns3:TrackPointExtension>
        </extensions>
      </trkpt>
      <trkpt lat="43.48088708706200122833251953125" lon="1.43312900327146053314208984375">
        <ele>268.600006103515625</ele>
        <time>2026-08-05T09:18:44.000Z</time>
        <extensions>
          <ns3:TrackPointExtension>
            <ns3:hr>69</ns3:hr>
            <ns3:cad>0</ns3:cad>
          </ns3:TrackPointExtension>
        </extensions>
      </trkpt>
      <trkpt lat="43.48088708706200122833251953125" lon="1.43312900327146053314208984375">
        <ele>268.600006103515625</ele>
        <time>2026-08-05T09:18:45.000Z</time>
        <extensions>
          <ns3:TrackPointExtension>
            <ns3:hr>70</ns3:hr>
            <ns3:cad>0</ns3:cad>
          </ns3:TrackPointExtension>
        </extensions>
      </trkpt>
      <trkpt lat="43.48088708706200122833251953125" lon="1.43312900327146053314208984375">
        <ele>268.600006103515625</ele>
        <time>2026-08-05T09:18:46.000Z</time>
        <extensions>
          <ns3:TrackPointExtension>
            <ns3:hr>70</ns3:hr>
            <ns3:cad>0</ns3:cad>
          </ns3:TrackPointExtension>
        </extensions>
      </trkpt>
      <trkpt lat="43.48088708706200122833251953125" lon="1.43312900327146053314208984375">
        <ele>268.600006103515625</ele>
        <time>2026-08-05T09:18:47.000Z</time>
        <extensions>
          <ns3:TrackPointExtension>
            <ns3:hr>71</ns3:hr>
            <ns3:cad>0</ns3:cad>
          </ns3:TrackPointExtension>
        </extensions>
      </trkpt>
      <trkpt lat="43.48088708706200122833251953125" lon="1.43312900327146053314208984375">
        <ele>268.600006103515625</ele>
        <time>2026-08-05T09:18:48.000Z</time>
        <extensions>
          <ns3:TrackPointExtension>
            <ns3:hr>71</ns3:hr>
            <ns3:cad>0</ns3:cad>
          </ns3:TrackPointExtension>
        </extensions>
      </trkpt>
      <trkpt lat="43.48088708706200122833251953125" lon="1.43312900327146053314208984375">
        <ele>268.600006103515625</ele>
        <time>2026-08-05T09:18:49.000Z</time>
        <extensions>
          <ns3:TrackPointExtension>
            <ns3:hr>71</ns3:hr>
            <ns3:cad>0</ns3:cad>
          </ns3:TrackPointExtension>
        </extensions>
      </trkpt>
      <trkpt lat="43.48088708706200122833251953125" lon="1.43312900327146053314208984375">
        <ele>268.600006103515625</ele>
        <time>2026-08-05T09:18:50.000Z</time>
        <extensions>
          <ns3:TrackPointExtension>
            <ns3:hr>72</ns3:hr>
            <ns3:cad>0</ns3:cad>
          </ns3:TrackPointExtension>
        </extensions>
      </trkpt>
      <trkpt lat="43.48088708706200122833251953125" lon="1.43312900327146053314208984375">
        <ele>268.600006103515625</ele>
        <time>2026-08-05T09:18:51.000Z</time>
        <extensions>
          <ns3:TrackPointExtension>
            <ns3:hr>72</ns3:hr>
            <ns3:cad>0</ns3:cad>
          </ns3:TrackPointExtension>
        </extensions>
      </trkpt>
      <trkpt lat="43.48088708706200122833251953125" lon="1.43312900327146053314208984375">
        <ele>268.600006103515625</ele>
        <time>2026-08-05T09:18:52.000Z</time>
        <extensions>
          <ns3:TrackPointExtension>
            <ns3:hr>71</ns3:hr>
            <ns3:cad>0</ns3:cad>
          </ns3:TrackPointExtension>
        </extensions>
      </trkpt>
      <trkpt lat="43.48088708706200122833251953125" lon="1.43312900327146053314208984375">
        <ele>268.600006103515625</ele>
        <time>2026-08-05T09:18:53.000Z</time>
        <extensions>
          <ns3:TrackPointExtension>
            <ns3:hr>71</ns3:hr>
            <ns3:cad>0</ns3:cad>
          </ns3:TrackPointExtension>
        </extensions>
      </trkpt>
      <trkpt lat="43.48088708706200122833251953125" lon="1.43312900327146053314208984375">
        <ele>268.600006103515625</ele>
        <time>2026-08-05T09:18:54.000Z</time>
        <extensions>
          <ns3:TrackPointExtension>
            <ns3:hr>70</ns3:hr>
            <ns3:cad>0</ns3:cad>
          </ns3:TrackPointExtension>
        </extensions>
      </trkpt>
      <trkpt lat="43.48088708706200122833251953125" lon="1.43312900327146053314208984375">
        <ele>268.600006103515625</ele>
        <time>2026-08-05T09:18:55.000Z</time>
        <extensions>
          <ns3:TrackPointExtension>
            <ns3:hr>69</ns3:hr>
            <ns3:cad>0</ns3:cad>
          </ns3:TrackPointExtension>
        </extensions>
      </trkpt>
      <trkpt lat="43.48088708706200122833251953125" lon="1.43312900327146053314208984375">
        <ele>268.399993896484375</ele>
        <time>2026-08-05T09:18:56.000Z</time>
        <extensions>
          <ns3:TrackPointExtension>
            <ns3:hr>69</ns3:hr>
            <ns3:cad>0</ns3:cad>
          </ns3:TrackPointExtension>
        </extensions>
      </trkpt>
      <trkpt lat="43.48088708706200122833251953125" lon="1.43312900327146053314208984375">
        <ele>268.399993896484375</ele>
        <time>2026-08-05T09:18:57.000Z</time>
        <extensions>
          <ns3:TrackPointExtension>
            <ns3:hr>68</ns3:hr>
            <ns3:cad>0</ns3:cad>
          </ns3:TrackPointExtension>
        </extensions>
      </trkpt>
      <trkpt lat="43.48088708706200122833251953125" lon="1.43312900327146053314208984375">
        <ele>268.399993896484375</ele>
        <time>2026-08-05T09:18:58.000Z</time>
        <extensions>
          <ns3:TrackPointExtension>
            <ns3:hr>68</ns3:hr>
            <ns3:cad>0</ns3:cad>
          </ns3:TrackPointExtension>
        </extensions>
      </trkpt>
      <trkpt lat="43.48088708706200122833251953125" lon="1.43312900327146053314208984375">
        <ele>268.399993896484375</ele>
        <time>2026-08-05T09:18:59.000Z</time>
        <extensions>
          <ns3:TrackPointExtension>
            <ns3:hr>67</ns3:hr>
            <ns3:cad>0</ns3:cad>
          </ns3:TrackPointExtension>
        </extensions>
      </trkpt>
      <trkpt lat="43.48088708706200122833251953125" lon="1.43312900327146053314208984375">
        <ele>268.399993896484375</ele>
        <time>2026-08-05T09:19:00.000Z</time>
        <extensions>
          <ns3:TrackPointExtension>
            <ns3:hr>67</ns3:hr>
            <ns3:cad>0</ns3:cad>
          </ns3:TrackPointExtension>
        </extensions>
      </trkpt>
      <trkpt lat="43.48088708706200122833251953125" lon="1.43312900327146053314208984375">
        <ele>268.399993896484375</ele>
        <time>2026-08-05T09:19:01.000Z</time>
        <extensions>
          <ns3:TrackPointExtension>
            <ns3:hr>67</ns3:hr>
            <ns3:cad>0</ns3:cad>
          </ns3:TrackPointExtension>
        </extensions>
      </trkpt>
      <trkpt lat="43.48088708706200122833251953125" lon="1.43312900327146053314208984375">
        <ele>268.399993896484375</ele>
        <time>2026-08-05T09:19:02.000Z</time>
        <extensions>
          <ns3:TrackPointExtension>
            <ns3:hr>67</ns3:hr>
            <ns3:cad>0</ns3:cad>
          </ns3:TrackPointExtension>
        </extensions>
      </trkpt>
      <trkpt lat="43.48088708706200122833251953125" lon="1.43312900327146053314208984375">
        <ele>268.399993896484375</ele>
        <time>2026-08-05T09:19:03.000Z</time>
        <extensions>
          <ns3:TrackPointExtension>
            <ns3:hr>67</ns3:hr>
            <ns3:cad>0</ns3:cad>
          </ns3:TrackPointExtension>
        </extensions>
      </trkpt>
      <trkpt lat="43.48088708706200122833251953125" lon="1.43312900327146053314208984375">
        <ele>268.20001220703125</ele>
        <time>2026-08-05T09:19:04.000Z</time>
        <extensions>
          <ns3:TrackPointExtension>
            <ns3:hr>68</ns3:hr>
            <ns3:cad>0</ns3:cad>
          </ns3:TrackPointExtension>
        </extensions>
      </trkpt>
      <trkpt lat="43.48088708706200122833251953125" lon="1.43312900327146053314208984375">
        <ele>268.20001220703125</ele>
        <time>2026-08-05T09:19:05.000Z</time>
        <extensions>
          <ns3:TrackPointExtension>
            <ns3:hr>67</ns3:hr>
            <ns3:cad>0</ns3:cad>
          </ns3:TrackPointExtension>
        </extensions>
      </trkpt>
      <trkpt lat="43.48088708706200122833251953125" lon="1.43312900327146053314208984375">
        <ele>268.20001220703125</ele>
        <time>2026-08-05T09:19:06.000Z</time>
        <extensions>
          <ns3:TrackPointExtension>
            <ns3:hr>67</ns3:hr>
            <ns3:cad>0</ns3:cad>
          </ns3:TrackPointExtension>
        </extensions>
      </trkpt>
      <trkpt lat="43.48088708706200122833251953125" lon="1.43312900327146053314208984375">
        <ele>268.20001220703125</ele>
        <time>2026-08-05T09:19:07.000Z</time>
        <extensions>
          <ns3:TrackPointExtension>
            <ns3:hr>68</ns3:hr>
            <ns3:cad>0</ns3:cad>
          </ns3:TrackPointExtension>
        </extensions>
      </trkpt>
      <trkpt lat="43.48088708706200122833251953125" lon="1.43312900327146053314208984375">
        <ele>268.20001220703125</ele>
        <time>2026-08-05T09:19:08.000Z</time>
        <extensions>
          <ns3:TrackPointExtension>
            <ns3:hr>69</ns3:hr>
            <ns3:cad>0</ns3:cad>
          </ns3:TrackPointExtension>
        </extensions>
      </trkpt>
      <trkpt lat="43.48088708706200122833251953125" lon="1.43312900327146053314208984375">
        <ele>268.20001220703125</ele>
        <time>2026-08-05T09:19:09.000Z</time>
        <extensions>
          <ns3:TrackPointExtension>
            <ns3:hr>69</ns3:hr>
            <ns3:cad>0</ns3:cad>
          </ns3:TrackPointExtension>
        </extensions>
      </trkpt>
      <trkpt lat="43.48088708706200122833251953125" lon="1.43312900327146053314208984375">
        <ele>268.20001220703125</ele>
        <time>2026-08-05T09:19:10.000Z</time>
        <extensions>
          <ns3:TrackPointExtension>
            <ns3:hr>70</ns3:hr>
            <ns3:cad>0</ns3:cad>
          </ns3:TrackPointExtension>
        </extensions>
      </trkpt>
      <trkpt lat="43.48088708706200122833251953125" lon="1.43312900327146053314208984375">
        <ele>268.399993896484375</ele>
        <time>2026-08-05T09:19:11.000Z</time>
        <extensions>
          <ns3:TrackPointExtension>
            <ns3:hr>70</ns3:hr>
            <ns3:cad>0</ns3:cad>
          </ns3:TrackPointExtension>
        </extensions>
      </trkpt>
      <trkpt lat="43.48088708706200122833251953125" lon="1.43312900327146053314208984375">
        <ele>268.399993896484375</ele>
        <time>2026-08-05T09:19:12.000Z</time>
        <extensions>
          <ns3:TrackPointExtension>
            <ns3:hr>71</ns3:hr>
            <ns3:cad>0</ns3:cad>
          </ns3:TrackPointExtension>
        </extensions>
      </trkpt>
      <trkpt lat="43.48088708706200122833251953125" lon="1.43312900327146053314208984375">
        <ele>268.600006103515625</ele>
        <time>2026-08-05T09:19:13.000Z</time>
        <extensions>
          <ns3:TrackPointExtension>
            <ns3:hr>71</ns3:hr>
            <ns3:cad>0</ns3:cad>
          </ns3:TrackPointExtension>
        </extensions>
      </trkpt>
      <trkpt lat="43.48088708706200122833251953125" lon="1.43312900327146053314208984375">
        <ele>268.600006103515625</ele>
        <time>2026-08-05T09:19:14.000Z</time>
        <extensions>
          <ns3:TrackPointExtension>
            <ns3:hr>72</ns3:hr>
            <ns3:cad>0</ns3:cad>
          </ns3:TrackPointExtension>
        </extensions>
      </trkpt>
      <trkpt lat="43.48088708706200122833251953125" lon="1.43312900327146053314208984375">
        <ele>268.600006103515625</ele>
        <time>2026-08-05T09:19:15.000Z</time>
        <extensions>
          <ns3:TrackPointExtension>
            <ns3:hr>73</ns3:hr>
            <ns3:cad>0</ns3:cad>
          </ns3:TrackPointExtension>
        </extensions>
      </trkpt>
      <trkpt lat="43.48088708706200122833251953125" lon="1.43312900327146053314208984375">
        <ele>268.600006103515625</ele>
        <time>2026-08-05T09:19:16.000Z</time>
        <extensions>
          <ns3:TrackPointExtension>
            <ns3:hr>73</ns3:hr>
            <ns3:cad>0</ns3:cad>
          </ns3:TrackPointExtension>
        </extensions>
      </trkpt>
      <trkpt lat="43.48088708706200122833251953125" lon="1.43312900327146053314208984375">
        <ele>268.399993896484375</ele>
        <time>2026-08-05T09:19:17.000Z</time>
        <extensions>
          <ns3:TrackPointExtension>
            <ns3:hr>73</ns3:hr>
            <ns3:cad>0</ns3:cad>
          </ns3:TrackPointExtension>
        </extensions>
      </trkpt>
      <trkpt lat="43.48088708706200122833251953125" lon="1.43312900327146053314208984375">
        <ele>268.399993896484375</ele>
        <time>2026-08-05T09:19:18.000Z</time>
        <extensions>
          <ns3:TrackPointExtension>
            <ns3:hr>74</ns3:hr>
            <ns3:cad>0</ns3:cad>
          </ns3:TrackPointExtension>
        </extensions>
      </trkpt>
      <trkpt lat="43.48088708706200122833251953125" lon="1.43312900327146053314208984375">
        <ele>268.399993896484375</ele>
        <time>2026-08-05T09:19:19.000Z</time>
        <extensions>
          <ns3:TrackPointExtension>
            <ns3:hr>74</ns3:hr>
            <ns3:cad>0</ns3:cad>
          </ns3:TrackPointExtension>
        </extensions>
      </trkpt>
      <trkpt lat="43.48088708706200122833251953125" lon="1.43312900327146053314208984375">
        <ele>268.399993896484375</ele>
        <time>2026-08-05T09:19:20.000Z</time>
        <extensions>
          <ns3:TrackPointExtension>
            <ns3:hr>74</ns3:hr>
            <ns3:cad>0</ns3:cad>
          </ns3:TrackPointExtension>
        </extensions>
      </trkpt>
      <trkpt lat="43.48088708706200122833251953125" lon="1.43312900327146053314208984375">
        <ele>268.399993896484375</ele>
        <time>2026-08-05T09:19:21.000Z</time>
        <extensions>
          <ns3:TrackPointExtension>
            <ns3:hr>74</ns3:hr>
            <ns3:cad>0</ns3:cad>
          </ns3:TrackPointExtension>
        </extensions>
      </trkpt>
      <trkpt lat="43.48088708706200122833251953125" lon="1.43312900327146053314208984375">
        <ele>268.399993896484375</ele>
        <time>2026-08-05T09:19:22.000Z</time>
        <extensions>
          <ns3:TrackPointExtension>
            <ns3:hr>73</ns3:hr>
            <ns3:cad>0</ns3:cad>
          </ns3:TrackPointExtension>
        </extensions>
      </trkpt>
      <trkpt lat="43.48088708706200122833251953125" lon="1.43312900327146053314208984375">
        <ele>268.399993896484375</ele>
        <time>2026-08-05T09:19:23.000Z</time>
        <extensions>
          <ns3:TrackPointExtension>
            <ns3:hr>74</ns3:hr>
            <ns3:cad>0</ns3:cad>
          </ns3:TrackPointExtension>
        </extensions>
      </trkpt>
      <trkpt lat="43.48088708706200122833251953125" lon="1.43312900327146053314208984375">
        <ele>268.399993896484375</ele>
        <time>2026-08-05T09:19:24.000Z</time>
        <extensions>
          <ns3:TrackPointExtension>
            <ns3:hr>74</ns3:hr>
            <ns3:cad>0</ns3:cad>
          </ns3:TrackPointExtension>
        </extensions>
      </trkpt>
      <trkpt lat="43.48088708706200122833251953125" lon="1.43312900327146053314208984375">
        <ele>268.399993896484375</ele>
        <time>2026-08-05T09:19:25.000Z</time>
        <extensions>
          <ns3:TrackPointExtension>
            <ns3:hr>75</ns3:hr>
            <ns3:cad>0</ns3:cad>
          </ns3:TrackPointExtension>
        </extensions>
      </trkpt>
      <trkpt lat="43.48088708706200122833251953125" lon="1.43312900327146053314208984375">
        <ele>268.399993896484375</ele>
        <time>2026-08-05T09:19:26.000Z</time>
        <extensions>
          <ns3:TrackPointExtension>
            <ns3:hr>75</ns3:hr>
            <ns3:cad>0</ns3:cad>
          </ns3:TrackPointExtension>
        </extensions>
      </trkpt>
      <trkpt lat="43.48088708706200122833251953125" lon="1.43312900327146053314208984375">
        <ele>268.399993896484375</ele>
        <time>2026-08-05T09:19:27.000Z</time>
        <extensions>
          <ns3:TrackPointExtension>
            <ns3:hr>75</ns3:hr>
            <ns3:cad>0</ns3:cad>
          </ns3:TrackPointExtension>
        </extensions>
      </trkpt>
      <trkpt lat="43.48088708706200122833251953125" lon="1.43312900327146053314208984375">
        <ele>268.399993896484375</ele>
        <time>2026-08-05T09:19:28.000Z</time>
        <extensions>
          <ns3:TrackPointExtension>
            <ns3:hr>75</ns3:hr>
            <ns3:cad>0</ns3:cad>
          </ns3:TrackPointExtension>
        </extensions>
      </trkpt>
      <trkpt lat="43.48088708706200122833251953125" lon="1.43312900327146053314208984375">
        <ele>268.399993896484375</ele>
        <time>2026-08-05T09:19:29.000Z</time>
        <extensions>
          <ns3:TrackPointExtension>
            <ns3:hr>75</ns3:hr>
            <ns3:cad>0</ns3:cad>
          </ns3:TrackPointExtension>
        </extensions>
      </trkpt>
      <trkpt lat="43.48088708706200122833251953125" lon="1.43312900327146053314208984375">
        <ele>268.399993896484375</ele>
        <time>2026-08-05T09:19:30.000Z</time>
        <extensions>
          <ns3:TrackPointExtension>
            <ns3:hr>74</ns3:hr>
            <ns3:cad>0</ns3:cad>
          </ns3:TrackPointExtension>
        </extensions>
      </trkpt>
      <trkpt lat="43.48088708706200122833251953125" lon="1.43312900327146053314208984375">
        <ele>268.399993896484375</ele>
        <time>2026-08-05T09:19:31.000Z</time>
        <extensions>
          <ns3:TrackPointExtension>
            <ns3:hr>73</ns3:hr>
            <ns3:cad>0</ns3:cad>
          </ns3:TrackPointExtension>
        </extensions>
      </trkpt>
      <trkpt lat="43.48088708706200122833251953125" lon="1.43312900327146053314208984375">
        <ele>268.399993896484375</ele>
        <time>2026-08-05T09:19:32.000Z</time>
        <extensions>
          <ns3:TrackPointExtension>
            <ns3:hr>73</ns3:hr>
            <ns3:cad>0</ns3:cad>
          </ns3:TrackPointExtension>
        </extensions>
      </trkpt>
      <trkpt lat="43.48088708706200122833251953125" lon="1.43312900327146053314208984375">
        <ele>268.399993896484375</ele>
        <time>2026-08-05T09:19:33.000Z</time>
        <extensions>
          <ns3:TrackPointExtension>
            <ns3:hr>73</ns3:hr>
            <ns3:cad>0</ns3:cad>
          </ns3:TrackPointExtension>
        </extensions>
      </trkpt>
      <trkpt lat="43.48088708706200122833251953125" lon="1.43312900327146053314208984375">
        <ele>268.20001220703125</ele>
        <time>2026-08-05T09:19:34.000Z</time>
        <extensions>
          <ns3:TrackPointExtension>
            <ns3:hr>73</ns3:hr>
            <ns3:cad>0</ns3:cad>
          </ns3:TrackPointExtension>
        </extensions>
      </trkpt>
      <trkpt lat="43.48088708706200122833251953125" lon="1.43312900327146053314208984375">
        <ele>268.20001220703125</ele>
        <time>2026-08-05T09:19:35.000Z</time>
        <extensions>
          <ns3:TrackPointExtension>
            <ns3:hr>73</ns3:hr>
            <ns3:cad>0</ns3:cad>
          </ns3:TrackPointExtension>
        </extensions>
      </trkpt>
      <trkpt lat="43.48088708706200122833251953125" lon="1.43312900327146053314208984375">
        <ele>268.20001220703125</ele>
        <time>2026-08-05T09:19:36.000Z</time>
        <extensions>
          <ns3:TrackPointExtension>
            <ns3:hr>73</ns3:hr>
            <ns3:cad>0</ns3:cad>
          </ns3:TrackPointExtension>
        </extensions>
      </trkpt>
      <trkpt lat="43.48088708706200122833251953125" lon="1.43312900327146053314208984375">
        <ele>268.20001220703125</ele>
        <time>2026-08-05T09:19:37.000Z</time>
        <extensions>
          <ns3:TrackPointExtension>
            <ns3:hr>74</ns3:hr>
            <ns3:cad>0</ns3:cad>
          </ns3:TrackPointExtension>
        </extensions>
      </trkpt>
      <trkpt lat="43.48088708706200122833251953125" lon="1.43312900327146053314208984375">
        <ele>268.20001220703125</ele>
        <time>2026-08-05T09:19:38.000Z</time>
        <extensions>
          <ns3:TrackPointExtension>
            <ns3:hr>73</ns3:hr>
            <ns3:cad>0</ns3:cad>
          </ns3:TrackPointExtension>
        </extensions>
      </trkpt>
      <trkpt lat="43.48088708706200122833251953125" lon="1.43312900327146053314208984375">
        <ele>268.20001220703125</ele>
        <time>2026-08-05T09:19:39.000Z</time>
        <extensions>
          <ns3:TrackPointExtension>
            <ns3:hr>73</ns3:hr>
            <ns3:cad>0</ns3:cad>
          </ns3:TrackPointExtension>
        </extensions>
      </trkpt>
      <trkpt lat="43.48088708706200122833251953125" lon="1.43312900327146053314208984375">
        <ele>268.20001220703125</ele>
        <time>2026-08-05T09:19:40.000Z</time>
        <extensions>
          <ns3:TrackPointExtension>
            <ns3:hr>73</ns3:hr>
            <ns3:cad>0</ns3:cad>
          </ns3:TrackPointExtension>
        </extensions>
      </trkpt>
      <trkpt lat="43.48088708706200122833251953125" lon="1.43312900327146053314208984375">
        <ele>268.20001220703125</ele>
        <time>2026-08-05T09:19:41.000Z</time>
        <extensions>
          <ns3:TrackPointExtension>
            <ns3:hr>73</ns3:hr>
            <ns3:cad>0</ns3:cad>
          </ns3:TrackPointExtension>
        </extensions>
      </trkpt>
      <trkpt lat="43.48088708706200122833251953125" lon="1.43312900327146053314208984375">
        <ele>268.20001220703125</ele>
        <time>2026-08-05T09:19:42.000Z</time>
        <extensions>
          <ns3:TrackPointExtension>
            <ns3:hr>74</ns3:hr>
            <ns3:cad>0</ns3:cad>
          </ns3:TrackPointExtension>
        </extensions>
      </trkpt>
      <trkpt lat="43.48088708706200122833251953125" lon="1.43312900327146053314208984375">
        <ele>268.20001220703125</ele>
        <time>2026-08-05T09:19:43.000Z</time>
        <extensions>
          <ns3:TrackPointExtension>
            <ns3:hr>75</ns3:hr>
            <ns3:cad>0</ns3:cad>
          </ns3:TrackPointExtension>
        </extensions>
      </trkpt>
      <trkpt lat="43.48088708706200122833251953125" lon="1.43312900327146053314208984375">
        <ele>268.20001220703125</ele>
        <time>2026-08-05T09:19:44.000Z</time>
        <extensions>
          <ns3:TrackPointExtension>
            <ns3:hr>75</ns3:hr>
            <ns3:cad>0</ns3:cad>
          </ns3:TrackPointExtension>
        </extensions>
      </trkpt>
      <trkpt lat="43.48088708706200122833251953125" lon="1.43312900327146053314208984375">
        <ele>268.20001220703125</ele>
        <time>2026-08-05T09:19:45.000Z</time>
        <extensions>
          <ns3:TrackPointExtension>
            <ns3:hr>75</ns3:hr>
            <ns3:cad>0</ns3:cad>
          </ns3:TrackPointExtension>
        </extensions>
      </trkpt>
      <trkpt lat="43.48088708706200122833251953125" lon="1.43312900327146053314208984375">
        <ele>268.20001220703125</ele>
        <time>2026-08-05T09:19:46.000Z</time>
        <extensions>
          <ns3:TrackPointExtension>
            <ns3:hr>75</ns3:hr>
            <ns3:cad>0</ns3:cad>
          </ns3:TrackPointExtension>
        </extensions>
      </trkpt>
      <trkpt lat="43.48088708706200122833251953125" lon="1.43312900327146053314208984375">
        <ele>268.20001220703125</ele>
        <time>2026-08-05T09:19:47.000Z</time>
        <extensions>
          <ns3:TrackPointExtension>
            <ns3:hr>76</ns3:hr>
            <ns3:cad>0</ns3:cad>
          </ns3:TrackPointExtension>
        </extensions>
      </trkpt>
      <trkpt lat="43.48088708706200122833251953125" lon="1.43312900327146053314208984375">
        <ele>268.20001220703125</ele>
        <time>2026-08-05T09:19:48.000Z</time>
        <extensions>
          <ns3:TrackPointExtension>
            <ns3:hr>75</ns3:hr>
            <ns3:cad>0</ns3:cad>
          </ns3:TrackPointExtension>
        </extensions>
      </trkpt>
      <trkpt lat="43.48088708706200122833251953125" lon="1.43312900327146053314208984375">
        <ele>268.20001220703125</ele>
        <time>2026-08-05T09:19:49.000Z</time>
        <extensions>
          <ns3:TrackPointExtension>
            <ns3:hr>75</ns3:hr>
            <ns3:cad>0</ns3:cad>
          </ns3:TrackPointExtension>
        </extensions>
      </trkpt>
      <trkpt lat="43.48088708706200122833251953125" lon="1.43312900327146053314208984375">
        <ele>268.20001220703125</ele>
        <time>2026-08-05T09:19:50.000Z</time>
        <extensions>
          <ns3:TrackPointExtension>
            <ns3:hr>75</ns3:hr>
            <ns3:cad>0</ns3:cad>
          </ns3:TrackPointExtension>
        </extensions>
      </trkpt>
      <trkpt lat="43.48088708706200122833251953125" lon="1.43312900327146053314208984375">
        <ele>268.20001220703125</ele>
        <time>2026-08-05T09:19:51.000Z</time>
        <extensions>
          <ns3:TrackPointExtension>
            <ns3:hr>75</ns3:hr>
            <ns3:cad>0</ns3:cad>
          </ns3:TrackPointExtension>
        </extensions>
      </trkpt>
      <trkpt lat="43.48088708706200122833251953125" lon="1.43312900327146053314208984375">
        <ele>268.20001220703125</ele>
        <time>2026-08-05T09:19:52.000Z</time>
        <extensions>
          <ns3:TrackPointExtension>
            <ns3:hr>75</ns3:hr>
            <ns3:cad>0</ns3:cad>
          </ns3:TrackPointExtension>
        </extensions>
      </trkpt>
      <trkpt lat="43.48088708706200122833251953125" lon="1.43312900327146053314208984375">
        <ele>268.20001220703125</ele>
        <time>2026-08-05T09:19:53.000Z</time>
        <extensions>
          <ns3:TrackPointExtension>
            <ns3:hr>73</ns3:hr>
            <ns3:cad>0</ns3:cad>
          </ns3:TrackPointExtension>
        </extensions>
      </trkpt>
      <trkpt lat="43.48088708706200122833251953125" lon="1.43312900327146053314208984375">
        <ele>268.20001220703125</ele>
        <time>2026-08-05T09:19:54.000Z</time>
        <extensions>
          <ns3:TrackPointExtension>
            <ns3:hr>71</ns3:hr>
            <ns3:cad>0</ns3:cad>
          </ns3:TrackPointExtension>
        </extensions>
      </trkpt>
      <trkpt lat="43.48088708706200122833251953125" lon="1.43312900327146053314208984375">
        <ele>268.20001220703125</ele>
        <time>2026-08-05T09:19:55.000Z</time>
        <extensions>
          <ns3:TrackPointExtension>
            <ns3:hr>70</ns3:hr>
            <ns3:cad>0</ns3:cad>
          </ns3:TrackPointExtension>
        </extensions>
      </trkpt>
      <trkpt lat="43.48088708706200122833251953125" lon="1.43312900327146053314208984375">
        <ele>268.20001220703125</ele>
        <time>2026-08-05T09:19:56.000Z</time>
        <extensions>
          <ns3:TrackPointExtension>
            <ns3:hr>67</ns3:hr>
            <ns3:cad>0</ns3:cad>
          </ns3:TrackPointExtension>
        </extensions>
      </trkpt>
      <trkpt lat="43.48088708706200122833251953125" lon="1.43312900327146053314208984375">
        <ele>268.399993896484375</ele>
        <time>2026-08-05T09:19:57.000Z</time>
        <extensions>
          <ns3:TrackPointExtension>
            <ns3:hr>62</ns3:hr>
            <ns3:cad>0</ns3:cad>
          </ns3:TrackPointExtension>
        </extensions>
      </trkpt>
      <trkpt lat="43.48088708706200122833251953125" lon="1.43312900327146053314208984375">
        <ele>268.399993896484375</ele>
        <time>2026-08-05T09:19:58.000Z</time>
        <extensions>
          <ns3:TrackPointExtension>
            <ns3:hr>61</ns3:hr>
            <ns3:cad>0</ns3:cad>
          </ns3:TrackPointExtension>
        </extensions>
      </trkpt>
      <trkpt lat="43.48088708706200122833251953125" lon="1.43312900327146053314208984375">
        <ele>268.20001220703125</ele>
        <time>2026-08-05T09:19:59.000Z</time>
        <extensions>
          <ns3:TrackPointExtension>
            <ns3:hr>60</ns3:hr>
            <ns3:cad>0</ns3:cad>
          </ns3:TrackPointExtension>
        </extensions>
      </trkpt>
      <trkpt lat="43.48088708706200122833251953125" lon="1.43312900327146053314208984375">
        <ele>268.20001220703125</ele>
        <time>2026-08-05T09:20:00.000Z</time>
        <extensions>
          <ns3:TrackPointExtension>
            <ns3:hr>61</ns3:hr>
            <ns3:cad>0</ns3:cad>
          </ns3:TrackPointExtension>
        </extensions>
      </trkpt>
      <trkpt lat="43.48088708706200122833251953125" lon="1.43312900327146053314208984375">
        <ele>268.20001220703125</ele>
        <time>2026-08-05T09:20:01.000Z</time>
        <extensions>
          <ns3:TrackPointExtension>
            <ns3:hr>61</ns3:hr>
            <ns3:cad>0</ns3:cad>
          </ns3:TrackPointExtension>
        </extensions>
      </trkpt>
      <trkpt lat="43.48088708706200122833251953125" lon="1.43312900327146053314208984375">
        <ele>268.20001220703125</ele>
        <time>2026-08-05T09:20:02.000Z</time>
        <extensions>
          <ns3:TrackPointExtension>
            <ns3:hr>61</ns3:hr>
            <ns3:cad>0</ns3:cad>
          </ns3:TrackPointExtension>
        </extensions>
      </trkpt>
      <trkpt lat="43.48088708706200122833251953125" lon="1.43312900327146053314208984375">
        <ele>268.20001220703125</ele>
        <time>2026-08-05T09:20:03.000Z</time>
        <extensions>
          <ns3:TrackPointExtension>
            <ns3:hr>61</ns3:hr>
            <ns3:cad>0</ns3:cad>
          </ns3:TrackPointExtension>
        </extensions>
      </trkpt>
      <trkpt lat="43.48088708706200122833251953125" lon="1.43312900327146053314208984375">
        <ele>268.20001220703125</ele>
        <time>2026-08-05T09:20:04.000Z</time>
        <extensions>
          <ns3:TrackPointExtension>
            <ns3:hr>62</ns3:hr>
            <ns3:cad>0</ns3:cad>
          </ns3:TrackPointExtension>
        </extensions>
      </trkpt>
      <trkpt lat="43.48088708706200122833251953125" lon="1.43312900327146053314208984375">
        <ele>268.20001220703125</ele>
        <time>2026-08-05T09:20:05.000Z</time>
        <extensions>
          <ns3:TrackPointExtension>
            <ns3:hr>63</ns3:hr>
            <ns3:cad>0</ns3:cad>
          </ns3:TrackPointExtension>
        </extensions>
      </trkpt>
      <trkpt lat="43.48088708706200122833251953125" lon="1.43312900327146053314208984375">
        <ele>268.20001220703125</ele>
        <time>2026-08-05T09:20:06.000Z</time>
        <extensions>
          <ns3:TrackPointExtension>
            <ns3:hr>64</ns3:hr>
            <ns3:cad>0</ns3:cad>
          </ns3:TrackPointExtension>
        </extensions>
      </trkpt>
      <trkpt lat="43.48088708706200122833251953125" lon="1.43312900327146053314208984375">
        <ele>268.20001220703125</ele>
        <time>2026-08-05T09:20:07.000Z</time>
        <extensions>
          <ns3:TrackPointExtension>
            <ns3:hr>65</ns3:hr>
            <ns3:cad>0</ns3:cad>
          </ns3:TrackPointExtension>
        </extensions>
      </trkpt>
      <trkpt lat="43.48088708706200122833251953125" lon="1.43312900327146053314208984375">
        <ele>268.20001220703125</ele>
        <time>2026-08-05T09:20:08.000Z</time>
        <extensions>
          <ns3:TrackPointExtension>
            <ns3:hr>66</ns3:hr>
            <ns3:cad>0</ns3:cad>
          </ns3:TrackPointExtension>
        </extensions>
      </trkpt>
      <trkpt lat="43.48088708706200122833251953125" lon="1.43312900327146053314208984375">
        <ele>268.20001220703125</ele>
        <time>2026-08-05T09:20:09.000Z</time>
        <extensions>
          <ns3:TrackPointExtension>
            <ns3:hr>66</ns3:hr>
            <ns3:cad>0</ns3:cad>
          </ns3:TrackPointExtension>
        </extensions>
      </trkpt>
      <trkpt lat="43.48088708706200122833251953125" lon="1.43312900327146053314208984375">
        <ele>268.20001220703125</ele>
        <time>2026-08-05T09:20:10.000Z</time>
        <extensions>
          <ns3:TrackPointExtension>
            <ns3:hr>65</ns3:hr>
            <ns3:cad>0</ns3:cad>
          </ns3:TrackPointExtension>
        </extensions>
      </trkpt>
      <trkpt lat="43.48088708706200122833251953125" lon="1.43312900327146053314208984375">
        <ele>268.20001220703125</ele>
        <time>2026-08-05T09:20:11.000Z</time>
        <extensions>
          <ns3:TrackPointExtension>
            <ns3:hr>62</ns3:hr>
            <ns3:cad>0</ns3:cad>
          </ns3:TrackPointExtension>
        </extensions>
      </trkpt>
      <trkpt lat="43.48088708706200122833251953125" lon="1.43312900327146053314208984375">
        <ele>268.20001220703125</ele>
        <time>2026-08-05T09:20:12.000Z</time>
        <extensions>
          <ns3:TrackPointExtension>
            <ns3:hr>60</ns3:hr>
            <ns3:cad>0</ns3:cad>
          </ns3:TrackPointExtension>
        </extensions>
      </trkpt>
      <trkpt lat="43.48088708706200122833251953125" lon="1.43312900327146053314208984375">
        <ele>268.20001220703125</ele>
        <time>2026-08-05T09:20:13.000Z</time>
        <extensions>
          <ns3:TrackPointExtension>
            <ns3:hr>59</ns3:hr>
            <ns3:cad>0</ns3:cad>
          </ns3:TrackPointExtension>
        </extensions>
      </trkpt>
      <trkpt lat="43.48088708706200122833251953125" lon="1.43312900327146053314208984375">
        <ele>268.20001220703125</ele>
        <time>2026-08-05T09:20:14.000Z</time>
        <extensions>
          <ns3:TrackPointExtension>
            <ns3:hr>57</ns3:hr>
            <ns3:cad>0</ns3:cad>
          </ns3:TrackPointExtension>
        </extensions>
      </trkpt>
      <trkpt lat="43.48088976927101612091064453125" lon="1.433128416538238525390625">
        <ele>268.20001220703125</ele>
        <time>2026-08-05T09:20:15.000Z</time>
        <extensions>
          <ns3:TrackPointExtension>
            <ns3:hr>57</ns3:hr>
            <ns3:cad>0</ns3:cad>
          </ns3:TrackPointExtension>
        </extensions>
      </trkpt>
      <trkpt lat="43.4808973968029022216796875" lon="1.4331255666911602020263671875">
        <ele>268</ele>
        <time>2026-08-05T09:20:16.000Z</time>
        <extensions>
          <ns3:TrackPointExtension>
            <ns3:hr>56</ns3:hr>
            <ns3:cad>0</ns3:cad>
          </ns3:TrackPointExtension>
        </extensions>
      </trkpt>
      <trkpt lat="43.48090552724897861480712890625" lon="1.43312280066311359405517578125">
        <ele>268</ele>
        <time>2026-08-05T09:20:17.000Z</time>
        <extensions>
          <ns3:TrackPointExtension>
            <ns3:hr>56</ns3:hr>
            <ns3:cad>0</ns3:cad>
          </ns3:TrackPointExtension>
        </extensions>
      </trkpt>
      <trkpt lat="43.48091550171375274658203125" lon="1.4331255666911602020263671875">
        <ele>268</ele>
        <time>2026-08-05T09:20:18.000Z</time>
        <extensions>
          <ns3:TrackPointExtension>
            <ns3:hr>56</ns3:hr>
            <ns3:cad>0</ns3:cad>
          </ns3:TrackPointExtension>
        </extensions>
      </trkpt>
      <trkpt lat="43.480927906930446624755859375" lon="1.43312816508114337921142578125">
        <ele>267.79998779296875</ele>
        <time>2026-08-05T09:20:19.000Z</time>
        <extensions>
          <ns3:TrackPointExtension>
            <ns3:hr>56</ns3:hr>
            <ns3:cad>0</ns3:cad>
          </ns3:TrackPointExtension>
        </extensions>
      </trkpt>
      <trkpt lat="43.48093293607234954833984375" lon="1.43313252367079257965087890625">
        <ele>267.79998779296875</ele>
        <time>2026-08-05T09:20:20.000Z</time>
        <extensions>
          <ns3:TrackPointExtension>
            <ns3:hr>56</ns3:hr>
            <ns3:cad>0</ns3:cad>
          </ns3:TrackPointExtension>
        </extensions>
      </trkpt>
      <trkpt lat="43.4809364564716815948486328125" lon="1.43313319422304630279541015625">
        <ele>267.79998779296875</ele>
        <time>2026-08-05T09:20:21.000Z</time>
        <extensions>
          <ns3:TrackPointExtension>
            <ns3:hr>57</ns3:hr>
            <ns3:cad>0</ns3:cad>
          </ns3:TrackPointExtension>
        </extensions>
      </trkpt>
      <trkpt lat="43.4809401445090770721435546875" lon="1.43313503824174404144287109375">
        <ele>267.79998779296875</ele>
        <time>2026-08-05T09:20:22.000Z</time>
        <extensions>
          <ns3:TrackPointExtension>
            <ns3:hr>56</ns3:hr>
            <ns3:cad>0</ns3:cad>
          </ns3:TrackPointExtension>
        </extensions>
      </trkpt>
      <trkpt lat="43.4809429943561553955078125" lon="1.43313587643206119537353515625">
        <ele>267.79998779296875</ele>
        <time>2026-08-05T09:20:23.000Z</time>
        <extensions>
          <ns3:TrackPointExtension>
            <ns3:hr>56</ns3:hr>
            <ns3:cad>0</ns3:cad>
          </ns3:TrackPointExtension>
        </extensions>
      </trkpt>
      <trkpt lat="43.4809428267180919647216796875" lon="1.43313319422304630279541015625">
        <ele>268</ele>
        <time>2026-08-05T09:20:24.000Z</time>
        <extensions>
          <ns3:TrackPointExtension>
            <ns3:hr>57</ns3:hr>
            <ns3:cad>0</ns3:cad>
          </ns3:TrackPointExtension>
        </extensions>
      </trkpt>
      <trkpt lat="43.48094291053712368011474609375" lon="1.43313319422304630279541015625">
        <ele>268</ele>
        <time>2026-08-05T09:20:25.000Z</time>
        <extensions>
          <ns3:TrackPointExtension>
            <ns3:hr>59</ns3:hr>
            <ns3:cad>0</ns3:cad>
          </ns3:TrackPointExtension>
        </extensions>
      </trkpt>
      <trkpt lat="43.48094291053712368011474609375" lon="1.43313319422304630279541015625">
        <ele>268</ele>
        <time>2026-08-05T09:20:26.000Z</time>
        <extensions>
          <ns3:TrackPointExtension>
            <ns3:hr>59</ns3:hr>
            <ns3:cad>0</ns3:cad>
          </ns3:TrackPointExtension>
        </extensions>
      </trkpt>
      <trkpt lat="43.48094291053712368011474609375" lon="1.43313319422304630279541015625">
        <ele>268</ele>
        <time>2026-08-05T09:20:27.000Z</time>
        <extensions>
          <ns3:TrackPointExtension>
            <ns3:hr>60</ns3:hr>
            <ns3:cad>0</ns3:cad>
          </ns3:TrackPointExtension>
        </extensions>
      </trkpt>
      <trkpt lat="43.48094307817518711090087890625" lon="1.4331326074898242950439453125">
        <ele>268</ele>
        <time>2026-08-05T09:20:28.000Z</time>
        <extensions>
          <ns3:TrackPointExtension>
            <ns3:hr>60</ns3:hr>
            <ns3:cad>0</ns3:cad>
          </ns3:TrackPointExtension>
        </extensions>
      </trkpt>
      <trkpt lat="43.48095171153545379638671875" lon="1.43313403241336345672607421875">
        <ele>268</ele>
        <time>2026-08-05T09:20:29.000Z</time>
        <extensions>
          <ns3:TrackPointExtension>
            <ns3:hr>60</ns3:hr>
            <ns3:cad>0</ns3:cad>
          </ns3:TrackPointExtension>
        </extensions>
      </trkpt>
      <trkpt lat="43.48095900379121303558349609375" lon="1.43313436768949031829833984375">
        <ele>268</ele>
        <time>2026-08-05T09:20:30.000Z</time>
        <extensions>
          <ns3:TrackPointExtension>
            <ns3:hr>60</ns3:hr>
            <ns3:cad>0</ns3:cad>
          </ns3:TrackPointExtension>
        </extensions>
      </trkpt>
      <trkpt lat="43.48096872679889202117919921875" lon="1.43313168548047542572021484375">
        <ele>268</ele>
        <time>2026-08-05T09:20:31.000Z</time>
        <extensions>
          <ns3:TrackPointExtension>
            <ns3:hr>60</ns3:hr>
            <ns3:cad>0</ns3:cad>
          </ns3:TrackPointExtension>
        </extensions>
      </trkpt>
      <trkpt lat="43.48097593523561954498291015625" lon="1.43312908709049224853515625">
        <ele>268</ele>
        <time>2026-08-05T09:20:32.000Z</time>
        <extensions>
          <ns3:TrackPointExtension>
            <ns3:hr>60</ns3:hr>
            <ns3:cad>0</ns3:cad>
          </ns3:TrackPointExtension>
        </extensions>
      </trkpt>
      <trkpt lat="43.48098297603428363800048828125" lon="1.43312615342438220977783203125">
        <ele>268</ele>
        <time>2026-08-05T09:20:33.000Z</time>
        <extensions>
          <ns3:TrackPointExtension>
            <ns3:hr>60</ns3:hr>
            <ns3:cad>0</ns3:cad>
          </ns3:TrackPointExtension>
        </extensions>
      </trkpt>
      <trkpt lat="43.480989933013916015625" lon="1.4331242255866527557373046875">
        <ele>268.20001220703125</ele>
        <time>2026-08-05T09:20:34.000Z</time>
        <extensions>
          <ns3:TrackPointExtension>
            <ns3:hr>60</ns3:hr>
            <ns3:cad>0</ns3:cad>
          </ns3:TrackPointExtension>
        </extensions>
      </trkpt>
      <trkpt lat="43.48099370487034320831298828125" lon="1.43312782980501651763916015625">
        <ele>268</ele>
        <time>2026-08-05T09:20:35.000Z</time>
        <extensions>
          <ns3:TrackPointExtension>
            <ns3:hr>60</ns3:hr>
            <ns3:cad>0</ns3:cad>
          </ns3:TrackPointExtension>
        </extensions>
      </trkpt>
      <trkpt lat="43.480992615222930908203125" lon="1.43312715925276279449462890625">
        <ele>268</ele>
        <time>2026-08-05T09:20:36.000Z</time>
        <extensions>
          <ns3:TrackPointExtension>
            <ns3:hr>61</ns3:hr>
            <ns3:cad>0</ns3:cad>
          </ns3:TrackPointExtension>
        </extensions>
      </trkpt>
      <trkpt lat="43.4809924475848674774169921875" lon="1.4331272430717945098876953125">
        <ele>268</ele>
        <time>2026-08-05T09:20:37.000Z</time>
        <extensions>
          <ns3:TrackPointExtension>
            <ns3:hr>62</ns3:hr>
            <ns3:cad>0</ns3:cad>
          </ns3:TrackPointExtension>
        </extensions>
      </trkpt>
      <trkpt lat="43.48099253140389919281005859375" lon="1.43312699161469936370849609375">
        <ele>268.20001220703125</ele>
        <time>2026-08-05T09:20:38.000Z</time>
        <extensions>
          <ns3:TrackPointExtension>
            <ns3:hr>64</ns3:hr>
            <ns3:cad>0</ns3:cad>
          </ns3:TrackPointExtension>
        </extensions>
      </trkpt>
      <trkpt lat="43.48099253140389919281005859375" lon="1.43312699161469936370849609375">
        <ele>268.20001220703125</ele>
        <time>2026-08-05T09:20:39.000Z</time>
        <extensions>
          <ns3:TrackPointExtension>
            <ns3:hr>66</ns3:hr>
            <ns3:cad>0</ns3:cad>
          </ns3:TrackPointExtension>
        </extensions>
      </trkpt>
      <trkpt lat="43.48099253140389919281005859375" lon="1.4331269077956676483154296875">
        <ele>268.20001220703125</ele>
        <time>2026-08-05T09:20:40.000Z</time>
        <extensions>
          <ns3:TrackPointExtension>
            <ns3:hr>70</ns3:hr>
            <ns3:cad>75</ns3:cad>
          </ns3:TrackPointExtension>
        </extensions>
      </trkpt>
      <trkpt lat="43.4809927828609943389892578125" lon="1.4331257343292236328125">
        <ele>268.20001220703125</ele>
        <time>2026-08-05T09:20:41.000Z</time>
        <extensions>
          <ns3:TrackPointExtension>
            <ns3:hr>70</ns3:hr>
            <ns3:cad>75</ns3:cad>
          </ns3:TrackPointExtension>
        </extensions>
      </trkpt>
      <trkpt lat="43.4809951297938823699951171875" lon="1.43312464468181133270263671875">
        <ele>268.20001220703125</ele>
        <time>2026-08-05T09:20:42.000Z</time>
        <extensions>
          <ns3:TrackPointExtension>
            <ns3:hr>71</ns3:hr>
            <ns3:cad>0</ns3:cad>
          </ns3:TrackPointExtension>
        </extensions>
      </trkpt>
      <trkpt lat="43.4809941239655017852783203125" lon="1.433124057948589324951171875">
        <ele>268.20001220703125</ele>
        <time>2026-08-05T09:20:43.000Z</time>
        <extensions>
          <ns3:TrackPointExtension>
            <ns3:hr>71</ns3:hr>
            <ns3:cad>0</ns3:cad>
          </ns3:TrackPointExtension>
        </extensions>
      </trkpt>
      <trkpt lat="43.480993621051311492919921875" lon="1.43312632106244564056396484375">
        <ele>268</ele>
        <time>2026-08-05T09:20:44.000Z</time>
        <extensions>
          <ns3:TrackPointExtension>
            <ns3:hr>71</ns3:hr>
            <ns3:cad>0</ns3:cad>
          </ns3:TrackPointExtension>
        </extensions>
      </trkpt>
      <trkpt lat="43.48099336959421634674072265625" lon="1.433127410709857940673828125">
        <ele>268</ele>
        <time>2026-08-05T09:20:45.000Z</time>
        <extensions>
          <ns3:TrackPointExtension>
            <ns3:hr>72</ns3:hr>
            <ns3:cad>0</ns3:cad>
          </ns3:TrackPointExtension>
        </extensions>
      </trkpt>
      <trkpt lat="43.4809961356222629547119140625" lon="1.4331257343292236328125">
        <ele>268</ele>
        <time>2026-08-05T09:20:46.000Z</time>
        <extensions>
          <ns3:TrackPointExtension>
            <ns3:hr>72</ns3:hr>
            <ns3:cad>0</ns3:cad>
          </ns3:TrackPointExtension>
        </extensions>
      </trkpt>
      <trkpt lat="43.48099655471742153167724609375" lon="1.43312464468181133270263671875">
        <ele>268</ele>
        <time>2026-08-05T09:20:47.000Z</time>
        <extensions>
          <ns3:TrackPointExtension>
            <ns3:hr>72</ns3:hr>
            <ns3:cad>0</ns3:cad>
          </ns3:TrackPointExtension>
        </extensions>
      </trkpt>
      <trkpt lat="43.48100007511675357818603515625" lon="1.43312497995793819427490234375">
        <ele>268</ele>
        <time>2026-08-05T09:20:48.000Z</time>
        <extensions>
          <ns3:TrackPointExtension>
            <ns3:hr>73</ns3:hr>
            <ns3:cad>0</ns3:cad>
          </ns3:TrackPointExtension>
        </extensions>
      </trkpt>
      <trkpt lat="43.48100460134446620941162109375" lon="1.43312699161469936370849609375">
        <ele>268</ele>
        <time>2026-08-05T09:20:49.000Z</time>
        <extensions>
          <ns3:TrackPointExtension>
            <ns3:hr>73</ns3:hr>
            <ns3:cad>0</ns3:cad>
          </ns3:TrackPointExtension>
        </extensions>
      </trkpt>
      <trkpt lat="43.480999656021595001220703125" lon="1.43313788808882236480712890625">
        <ele>268</ele>
        <time>2026-08-05T09:20:50.000Z</time>
        <extensions>
          <ns3:TrackPointExtension>
            <ns3:hr>73</ns3:hr>
            <ns3:cad>0</ns3:cad>
          </ns3:TrackPointExtension>
        </extensions>
      </trkpt>
      <trkpt lat="43.48100007511675357818603515625" lon="1.43313973210752010345458984375">
        <ele>268</ele>
        <time>2026-08-05T09:20:51.000Z</time>
        <extensions>
          <ns3:TrackPointExtension>
            <ns3:hr>73</ns3:hr>
            <ns3:cad>0</ns3:cad>
          </ns3:TrackPointExtension>
        </extensions>
      </trkpt>
      <trkpt lat="43.48099940456449985504150390625" lon="1.4331379719078540802001953125">
        <ele>268</ele>
        <time>2026-08-05T09:20:52.000Z</time>
        <extensions>
          <ns3:TrackPointExtension>
            <ns3:hr>74</ns3:hr>
            <ns3:cad>0</ns3:cad>
          </ns3:TrackPointExtension>
        </extensions>
      </trkpt>
      <trkpt lat="43.4809981472790241241455078125" lon="1.4331403188407421112060546875">
        <ele>267.79998779296875</ele>
        <time>2026-08-05T09:20:53.000Z</time>
        <extensions>
          <ns3:TrackPointExtension>
            <ns3:hr>75</ns3:hr>
            <ns3:cad>0</ns3:cad>
          </ns3:TrackPointExtension>
        </extensions>
      </trkpt>
      <trkpt lat="43.48099890165030956268310546875" lon="1.43313939683139324188232421875">
        <ele>267.79998779296875</ele>
        <time>2026-08-05T09:20:54.000Z</time>
        <extensions>
          <ns3:TrackPointExtension>
            <ns3:hr>76</ns3:hr>
            <ns3:cad>0</ns3:cad>
          </ns3:TrackPointExtension>
        </extensions>
      </trkpt>
      <trkpt lat="43.48100091330707073211669921875" lon="1.43313721753656864166259765625">
        <ele>267.79998779296875</ele>
        <time>2026-08-05T09:20:55.000Z</time>
        <extensions>
          <ns3:TrackPointExtension>
            <ns3:hr>76</ns3:hr>
            <ns3:cad>0</ns3:cad>
          </ns3:TrackPointExtension>
        </extensions>
      </trkpt>
      <trkpt lat="43.48100091330707073211669921875" lon="1.433136798441410064697265625">
        <ele>268</ele>
        <time>2026-08-05T09:20:56.000Z</time>
        <extensions>
          <ns3:TrackPointExtension>
            <ns3:hr>77</ns3:hr>
            <ns3:cad>0</ns3:cad>
          </ns3:TrackPointExtension>
        </extensions>
      </trkpt>
      <trkpt lat="43.4810031764209270477294921875" lon="1.43313621170818805694580078125">
        <ele>268</ele>
        <time>2026-08-05T09:20:57.000Z</time>
        <extensions>
          <ns3:TrackPointExtension>
            <ns3:hr>77</ns3:hr>
            <ns3:cad>0</ns3:cad>
          </ns3:TrackPointExtension>
        </extensions>
      </trkpt>
      <trkpt lat="43.48100611008703708648681640625" lon="1.43313688226044178009033203125">
        <ele>268</ele>
        <time>2026-08-05T09:20:58.000Z</time>
        <extensions>
          <ns3:TrackPointExtension>
            <ns3:hr>77</ns3:hr>
            <ns3:cad>0</ns3:cad>
          </ns3:TrackPointExtension>
        </extensions>
      </trkpt>
      <trkpt lat="43.4810075350105762481689453125" lon="1.4331431686878204345703125">
        <ele>268</ele>
        <time>2026-08-05T09:20:59.000Z</time>
        <extensions>
          <ns3:TrackPointExtension>
            <ns3:hr>77</ns3:hr>
            <ns3:cad>0</ns3:cad>
          </ns3:TrackPointExtension>
        </extensions>
      </trkpt>
      <trkpt lat="43.4810073673725128173828125" lon="1.4331510476768016815185546875">
        <ele>268</ele>
        <time>2026-08-05T09:21:00.000Z</time>
        <extensions>
          <ns3:TrackPointExtension>
            <ns3:hr>77</ns3:hr>
            <ns3:cad>0</ns3:cad>
          </ns3:TrackPointExtension>
        </extensions>
      </trkpt>
      <trkpt lat="43.4810061939060688018798828125" lon="1.43315859138965606689453125">
        <ele>268</ele>
        <time>2026-08-05T09:21:01.000Z</time>
        <extensions>
          <ns3:TrackPointExtension>
            <ns3:hr>78</ns3:hr>
            <ns3:cad>0</ns3:cad>
          </ns3:TrackPointExtension>
        </extensions>
      </trkpt>
      <trkpt lat="43.48100476898252964019775390625" lon="1.4331607706844806671142578125">
        <ele>268</ele>
        <time>2026-08-05T09:21:02.000Z</time>
        <extensions>
          <ns3:TrackPointExtension>
            <ns3:hr>79</ns3:hr>
            <ns3:cad>0</ns3:cad>
          </ns3:TrackPointExtension>
        </extensions>
      </trkpt>
      <trkpt lat="43.4810048528015613555908203125" lon="1.43316085450351238250732421875">
        <ele>268</ele>
        <time>2026-08-05T09:21:03.000Z</time>
        <extensions>
          <ns3:TrackPointExtension>
            <ns3:hr>79</ns3:hr>
            <ns3:cad>0</ns3:cad>
          </ns3:TrackPointExtension>
        </extensions>
      </trkpt>
      <trkpt lat="43.4810048528015613555908203125" lon="1.43316085450351238250732421875">
        <ele>268</ele>
        <time>2026-08-05T09:21:04.000Z</time>
        <extensions>
          <ns3:TrackPointExtension>
            <ns3:hr>79</ns3:hr>
            <ns3:cad>0</ns3:cad>
          </ns3:TrackPointExtension>
        </extensions>
      </trkpt>
      <trkpt lat="43.48100493662059307098388671875" lon="1.433160938322544097900390625">
        <ele>268</ele>
        <time>2026-08-05T09:21:05.000Z</time>
        <extensions>
          <ns3:TrackPointExtension>
            <ns3:hr>79</ns3:hr>
            <ns3:cad>0</ns3:cad>
          </ns3:TrackPointExtension>
        </extensions>
      </trkpt>
      <trkpt lat="43.48100694827735424041748046875" lon="1.4331617765128612518310546875">
        <ele>268</ele>
        <time>2026-08-05T09:21:06.000Z</time>
        <extensions>
          <ns3:TrackPointExtension>
            <ns3:hr>80</ns3:hr>
            <ns3:cad>0</ns3:cad>
          </ns3:TrackPointExtension>
        </extensions>
      </trkpt>
      <trkpt lat="43.4810118936002254486083984375" lon="1.4331577531993389129638671875">
        <ele>267.79998779296875</ele>
        <time>2026-08-05T09:21:07.000Z</time>
        <extensions>
          <ns3:TrackPointExtension>
            <ns3:hr>80</ns3:hr>
            <ns3:cad>0</ns3:cad>
          </ns3:TrackPointExtension>
        </extensions>
      </trkpt>
      <trkpt lat="43.48101633600890636444091796875" lon="1.4331637881696224212646484375">
        <ele>267.79998779296875</ele>
        <time>2026-08-05T09:21:08.000Z</time>
        <extensions>
          <ns3:TrackPointExtension>
            <ns3:hr>79</ns3:hr>
            <ns3:cad>0</ns3:cad>
          </ns3:TrackPointExtension>
        </extensions>
      </trkpt>
      <trkpt lat="43.4810172580182552337646484375" lon="1.43316663801670074462890625">
        <ele>267.79998779296875</ele>
        <time>2026-08-05T09:21:09.000Z</time>
        <extensions>
          <ns3:TrackPointExtension>
            <ns3:hr>79</ns3:hr>
            <ns3:cad>0</ns3:cad>
          </ns3:TrackPointExtension>
        </extensions>
      </trkpt>
      <trkpt lat="43.48101985640823841094970703125" lon="1.433169655501842498779296875">
        <ele>267.79998779296875</ele>
        <time>2026-08-05T09:21:10.000Z</time>
        <extensions>
          <ns3:TrackPointExtension>
            <ns3:hr>79</ns3:hr>
            <ns3:cad>0</ns3:cad>
          </ns3:TrackPointExtension>
        </extensions>
      </trkpt>
      <trkpt lat="43.4810221195220947265625" lon="1.433170326054096221923828125">
        <ele>267.79998779296875</ele>
        <time>2026-08-05T09:21:11.000Z</time>
        <extensions>
          <ns3:TrackPointExtension>
            <ns3:hr>79</ns3:hr>
            <ns3:cad>0</ns3:cad>
          </ns3:TrackPointExtension>
        </extensions>
      </trkpt>
      <trkpt lat="43.48102404735982418060302734375" lon="1.43317191861569881439208984375">
        <ele>268</ele>
        <time>2026-08-05T09:21:12.000Z</time>
        <extensions>
          <ns3:TrackPointExtension>
            <ns3:hr>80</ns3:hr>
            <ns3:cad>0</ns3:cad>
          </ns3:TrackPointExtension>
        </extensions>
      </trkpt>
      <trkpt lat="43.4810239635407924652099609375" lon="1.43317200243473052978515625">
        <ele>268</ele>
        <time>2026-08-05T09:21:13.000Z</time>
        <extensions>
          <ns3:TrackPointExtension>
            <ns3:hr>79</ns3:hr>
            <ns3:cad>0</ns3:cad>
          </ns3:TrackPointExtension>
        </extensions>
      </trkpt>
      <trkpt lat="43.48102413117885589599609375" lon="1.43317208625376224517822265625">
        <ele>268</ele>
        <time>2026-08-05T09:21:14.000Z</time>
        <extensions>
          <ns3:TrackPointExtension>
            <ns3:hr>79</ns3:hr>
            <ns3:cad>0</ns3:cad>
          </ns3:TrackPointExtension>
        </extensions>
      </trkpt>
      <trkpt lat="43.481030501425266265869140625" lon="1.4331792108714580535888671875">
        <ele>268.20001220703125</ele>
        <time>2026-08-05T09:21:15.000Z</time>
        <extensions>
          <ns3:TrackPointExtension>
            <ns3:hr>78</ns3:hr>
            <ns3:cad>0</ns3:cad>
          </ns3:TrackPointExtension>
        </extensions>
      </trkpt>
      <trkpt lat="43.48103494383394718170166015625" lon="1.43318474292755126953125">
        <ele>268.20001220703125</ele>
        <time>2026-08-05T09:21:16.000Z</time>
        <extensions>
          <ns3:TrackPointExtension>
            <ns3:hr>77</ns3:hr>
            <ns3:cad>0</ns3:cad>
          </ns3:TrackPointExtension>
        </extensions>
      </trkpt>
      <trkpt lat="43.48104215227067470550537109375" lon="1.4331902749836444854736328125">
        <ele>268.20001220703125</ele>
        <time>2026-08-05T09:21:17.000Z</time>
        <extensions>
          <ns3:TrackPointExtension>
            <ns3:hr>76</ns3:hr>
            <ns3:cad>0</ns3:cad>
          </ns3:TrackPointExtension>
        </extensions>
      </trkpt>
      <trkpt lat="43.48104500211775302886962890625" lon="1.43319706432521343231201171875">
        <ele>268.20001220703125</ele>
        <time>2026-08-05T09:21:18.000Z</time>
        <extensions>
          <ns3:TrackPointExtension>
            <ns3:hr>75</ns3:hr>
            <ns3:cad>0</ns3:cad>
          </ns3:TrackPointExtension>
        </extensions>
      </trkpt>
      <trkpt lat="43.48105187527835369110107421875" lon="1.43320477567613124847412109375">
        <ele>268</ele>
        <time>2026-08-05T09:21:19.000Z</time>
        <extensions>
          <ns3:TrackPointExtension>
            <ns3:hr>74</ns3:hr>
            <ns3:cad>0</ns3:cad>
          </ns3:TrackPointExtension>
        </extensions>
      </trkpt>
      <trkpt lat="43.4810538031160831451416015625" lon="1.4332110621035099029541015625">
        <ele>268</ele>
        <time>2026-08-05T09:21:20.000Z</time>
        <extensions>
          <ns3:TrackPointExtension>
            <ns3:hr>73</ns3:hr>
            <ns3:cad>0</ns3:cad>
          </ns3:TrackPointExtension>
        </extensions>
      </trkpt>
      <trkpt lat="43.4810591675341129302978515625" lon="1.4332197792828083038330078125">
        <ele>268</ele>
        <time>2026-08-05T09:21:21.000Z</time>
        <extensions>
          <ns3:TrackPointExtension>
            <ns3:hr>72</ns3:hr>
            <ns3:cad>0</ns3:cad>
          </ns3:TrackPointExtension>
        </extensions>
      </trkpt>
      <trkpt lat="43.48106570541858673095703125" lon="1.433225981891155242919921875">
        <ele>268</ele>
        <time>2026-08-05T09:21:22.000Z</time>
        <extensions>
          <ns3:TrackPointExtension>
            <ns3:hr>70</ns3:hr>
            <ns3:cad>0</ns3:cad>
          </ns3:TrackPointExtension>
        </extensions>
      </trkpt>
      <trkpt lat="43.48107039928436279296875" lon="1.4332330226898193359375">
        <ele>268</ele>
        <time>2026-08-05T09:21:23.000Z</time>
        <extensions>
          <ns3:TrackPointExtension>
            <ns3:hr>69</ns3:hr>
            <ns3:cad>0</ns3:cad>
          </ns3:TrackPointExtension>
        </extensions>
      </trkpt>
      <trkpt lat="43.48107819445431232452392578125" lon="1.4332382194697856903076171875">
        <ele>268</ele>
        <time>2026-08-05T09:21:24.000Z</time>
        <extensions>
          <ns3:TrackPointExtension>
            <ns3:hr>68</ns3:hr>
            <ns3:cad>70</ns3:cad>
          </ns3:TrackPointExtension>
        </extensions>
      </trkpt>
      <trkpt lat="43.481083810329437255859375" lon="1.43324199132621288299560546875">
        <ele>268</ele>
        <time>2026-08-05T09:21:25.000Z</time>
        <extensions>
          <ns3:TrackPointExtension>
            <ns3:hr>68</ns3:hr>
            <ns3:cad>70</ns3:cad>
          </ns3:TrackPointExtension>
        </extensions>
      </trkpt>
      <trkpt lat="43.4810869954526424407958984375" lon="1.43324316479265689849853515625">
        <ele>268</ele>
        <time>2026-08-05T09:21:26.000Z</time>
        <extensions>
          <ns3:TrackPointExtension>
            <ns3:hr>68</ns3:hr>
            <ns3:cad>0</ns3:cad>
          </ns3:TrackPointExtension>
        </extensions>
      </trkpt>
      <trkpt lat="43.48108976148068904876708984375" lon="1.43324484117329120635986328125">
        <ele>268</ele>
        <time>2026-08-05T09:21:27.000Z</time>
        <extensions>
          <ns3:TrackPointExtension>
            <ns3:hr>67</ns3:hr>
            <ns3:cad>0</ns3:cad>
          </ns3:TrackPointExtension>
        </extensions>
      </trkpt>
      <trkpt lat="43.481090851128101348876953125" lon="1.433246098458766937255859375">
        <ele>268</ele>
        <time>2026-08-05T09:21:28.000Z</time>
        <extensions>
          <ns3:TrackPointExtension>
            <ns3:hr>67</ns3:hr>
            <ns3:cad>0</ns3:cad>
          </ns3:TrackPointExtension>
        </extensions>
      </trkpt>
      <trkpt lat="43.48109110258519649505615234375" lon="1.433247439563274383544921875">
        <ele>268</ele>
        <time>2026-08-05T09:21:29.000Z</time>
        <extensions>
          <ns3:TrackPointExtension>
            <ns3:hr>67</ns3:hr>
            <ns3:cad>0</ns3:cad>
          </ns3:TrackPointExtension>
        </extensions>
      </trkpt>
      <trkpt lat="43.4810896776616573333740234375" lon="1.43324785865843296051025390625">
        <ele>268</ele>
        <time>2026-08-05T09:21:30.000Z</time>
        <extensions>
          <ns3:TrackPointExtension>
            <ns3:hr>66</ns3:hr>
            <ns3:cad>0</ns3:cad>
          </ns3:TrackPointExtension>
        </extensions>
      </trkpt>
      <trkpt lat="43.48108858801424503326416015625" lon="1.4332486130297183990478515625">
        <ele>268</ele>
        <time>2026-08-05T09:21:31.000Z</time>
        <extensions>
          <ns3:TrackPointExtension>
            <ns3:hr>66</ns3:hr>
            <ns3:cad>0</ns3:cad>
          </ns3:TrackPointExtension>
        </extensions>
      </trkpt>
      <trkpt lat="43.48108992911875247955322265625" lon="1.4332482777535915374755859375">
        <ele>268</ele>
        <time>2026-08-05T09:21:32.000Z</time>
        <extensions>
          <ns3:TrackPointExtension>
            <ns3:hr>65</ns3:hr>
            <ns3:cad>0</ns3:cad>
          </ns3:TrackPointExtension>
        </extensions>
      </trkpt>
      <trkpt lat="43.48109093494713306427001953125" lon="1.43324601463973522186279296875">
        <ele>268</ele>
        <time>2026-08-05T09:21:33.000Z</time>
        <extensions>
          <ns3:TrackPointExtension>
            <ns3:hr>63</ns3:hr>
            <ns3:cad>0</ns3:cad>
          </ns3:TrackPointExtension>
        </extensions>
      </trkpt>
      <trkpt lat="43.48109931685030460357666015625" lon="1.43324911594390869140625">
        <ele>268.20001220703125</ele>
        <time>2026-08-05T09:21:34.000Z</time>
        <extensions>
          <ns3:TrackPointExtension>
            <ns3:hr>62</ns3:hr>
            <ns3:cad>0</ns3:cad>
          </ns3:TrackPointExtension>
        </extensions>
      </trkpt>
      <trkpt lat="43.481105268001556396484375" lon="1.4332544803619384765625">
        <ele>268.20001220703125</ele>
        <time>2026-08-05T09:21:35.000Z</time>
        <extensions>
          <ns3:TrackPointExtension>
            <ns3:hr>61</ns3:hr>
            <ns3:cad>0</ns3:cad>
          </ns3:TrackPointExtension>
        </extensions>
      </trkpt>
      <trkpt lat="43.48111138679087162017822265625" lon="1.433259509503841400146484375">
        <ele>268.20001220703125</ele>
        <time>2026-08-05T09:21:36.000Z</time>
        <extensions>
          <ns3:TrackPointExtension>
            <ns3:hr>60</ns3:hr>
            <ns3:cad>0</ns3:cad>
          </ns3:TrackPointExtension>
        </extensions>
      </trkpt>
      <trkpt lat="43.48111800849437713623046875" lon="1.43326579593122005462646484375">
        <ele>268.20001220703125</ele>
        <time>2026-08-05T09:21:37.000Z</time>
        <extensions>
          <ns3:TrackPointExtension>
            <ns3:hr>59</ns3:hr>
            <ns3:cad>0</ns3:cad>
          </ns3:TrackPointExtension>
        </extensions>
      </trkpt>
      <trkpt lat="43.4811275638639926910400390625" lon="1.433270238339900970458984375">
        <ele>268</ele>
        <time>2026-08-05T09:21:38.000Z</time>
        <extensions>
          <ns3:TrackPointExtension>
            <ns3:hr>59</ns3:hr>
            <ns3:cad>0</ns3:cad>
          </ns3:TrackPointExtension>
        </extensions>
      </trkpt>
      <trkpt lat="43.48113368265330791473388671875" lon="1.43327652476727962493896484375">
        <ele>267.79998779296875</ele>
        <time>2026-08-05T09:21:39.000Z</time>
        <extensions>
          <ns3:TrackPointExtension>
            <ns3:hr>59</ns3:hr>
            <ns3:cad>0</ns3:cad>
          </ns3:TrackPointExtension>
        </extensions>
      </trkpt>
      <trkpt lat="43.481140471994876861572265625" lon="1.433287672698497772216796875">
        <ele>267.79998779296875</ele>
        <time>2026-08-05T09:21:40.000Z</time>
        <extensions>
          <ns3:TrackPointExtension>
            <ns3:hr>59</ns3:hr>
            <ns3:cad>0</ns3:cad>
          </ns3:TrackPointExtension>
        </extensions>
      </trkpt>
      <trkpt lat="43.4811480157077312469482421875" lon="1.4332915283739566802978515625">
        <ele>267.79998779296875</ele>
        <time>2026-08-05T09:21:41.000Z</time>
        <extensions>
          <ns3:TrackPointExtension>
            <ns3:hr>59</ns3:hr>
            <ns3:cad>0</ns3:cad>
          </ns3:TrackPointExtension>
        </extensions>
      </trkpt>
      <trkpt lat="43.48116050474345684051513671875" lon="1.43329429440200328826904296875">
        <ele>267.600006103515625</ele>
        <time>2026-08-05T09:21:42.000Z</time>
        <extensions>
          <ns3:TrackPointExtension>
            <ns3:hr>58</ns3:hr>
            <ns3:cad>42</ns3:cad>
          </ns3:TrackPointExtension>
        </extensions>
      </trkpt>
      <trkpt lat="43.48116771318018436431884765625" lon="1.4333002455532550811767578125">
        <ele>267.600006103515625</ele>
        <time>2026-08-05T09:21:43.000Z</time>
        <extensions>
          <ns3:TrackPointExtension>
            <ns3:hr>58</ns3:hr>
            <ns3:cad>42</ns3:cad>
          </ns3:TrackPointExtension>
        </extensions>
      </trkpt>
      <trkpt lat="43.48117710091173648834228515625" lon="1.43330669961869716644287109375">
        <ele>267.600006103515625</ele>
        <time>2026-08-05T09:21:44.000Z</time>
        <extensions>
          <ns3:TrackPointExtension>
            <ns3:hr>58</ns3:hr>
            <ns3:cad>42</ns3:cad>
          </ns3:TrackPointExtension>
        </extensions>
      </trkpt>
      <trkpt lat="43.4811862371861934661865234375" lon="1.43331742845475673675537109375">
        <ele>267.399993896484375</ele>
        <time>2026-08-05T09:21:45.000Z</time>
        <extensions>
          <ns3:TrackPointExtension>
            <ns3:hr>59</ns3:hr>
            <ns3:cad>43</ns3:cad>
          </ns3:TrackPointExtension>
        </extensions>
      </trkpt>
      <trkpt lat="43.48118933849036693572998046875" lon="1.43332916311919689178466796875">
        <ele>267.399993896484375</ele>
        <time>2026-08-05T09:21:46.000Z</time>
        <extensions>
          <ns3:TrackPointExtension>
            <ns3:hr>58</ns3:hr>
            <ns3:cad>44</ns3:cad>
          </ns3:TrackPointExtension>
        </extensions>
      </trkpt>
      <trkpt lat="43.4811870753765106201171875" lon="1.4333414845168590545654296875">
        <ele>267.399993896484375</ele>
        <time>2026-08-05T09:21:47.000Z</time>
        <extensions>
          <ns3:TrackPointExtension>
            <ns3:hr>59</ns3:hr>
            <ns3:cad>46</ns3:cad>
          </ns3:TrackPointExtension>
        </extensions>
      </trkpt>
      <trkpt lat="43.48118648864328861236572265625" lon="1.43334978260099887847900390625">
        <ele>267.399993896484375</ele>
        <time>2026-08-05T09:21:48.000Z</time>
        <extensions>
          <ns3:TrackPointExtension>
            <ns3:hr>60</ns3:hr>
            <ns3:cad>46</ns3:cad>
          </ns3:TrackPointExtension>
        </extensions>
      </trkpt>
      <trkpt lat="43.48118196241557598114013671875" lon="1.433362103998661041259765625">
        <ele>267.399993896484375</ele>
        <time>2026-08-05T09:21:49.000Z</time>
        <extensions>
          <ns3:TrackPointExtension>
            <ns3:hr>61</ns3:hr>
            <ns3:cad>44</ns3:cad>
          </ns3:TrackPointExtension>
        </extensions>
      </trkpt>
      <trkpt lat="43.48117793910205364227294921875" lon="1.43337090499699115753173828125">
        <ele>267.399993896484375</ele>
        <time>2026-08-05T09:21:50.000Z</time>
        <extensions>
          <ns3:TrackPointExtension>
            <ns3:hr>61</ns3:hr>
            <ns3:cad>44</ns3:cad>
          </ns3:TrackPointExtension>
        </extensions>
      </trkpt>
      <trkpt lat="43.4811734966933727264404296875" lon="1.43337811343371868133544921875">
        <ele>267.399993896484375</ele>
        <time>2026-08-05T09:21:51.000Z</time>
        <extensions>
          <ns3:TrackPointExtension>
            <ns3:hr>61</ns3:hr>
            <ns3:cad>43</ns3:cad>
          </ns3:TrackPointExtension>
        </extensions>
      </trkpt>
      <trkpt lat="43.481169976294040679931640625" lon="1.43338632769882678985595703125">
        <ele>267.20001220703125</ele>
        <time>2026-08-05T09:21:52.000Z</time>
        <extensions>
          <ns3:TrackPointExtension>
            <ns3:hr>63</ns3:hr>
            <ns3:cad>43</ns3:cad>
          </ns3:TrackPointExtension>
        </extensions>
      </trkpt>
      <trkpt lat="43.4811681322753429412841796875" lon="1.43339588306844234466552734375">
        <ele>267.20001220703125</ele>
        <time>2026-08-05T09:21:53.000Z</time>
        <extensions>
          <ns3:TrackPointExtension>
            <ns3:hr>64</ns3:hr>
            <ns3:cad>42</ns3:cad>
          </ns3:TrackPointExtension>
        </extensions>
      </trkpt>
      <trkpt lat="43.48116419278085231781005859375" lon="1.43340560607612133026123046875">
        <ele>267.20001220703125</ele>
        <time>2026-08-05T09:21:54.000Z</time>
        <extensions>
          <ns3:TrackPointExtension>
            <ns3:hr>63</ns3:hr>
            <ns3:cad>42</ns3:cad>
          </ns3:TrackPointExtension>
        </extensions>
      </trkpt>
      <trkpt lat="43.48116067238152027130126953125" lon="1.43341717310249805450439453125">
        <ele>267.20001220703125</ele>
        <time>2026-08-05T09:21:55.000Z</time>
        <extensions>
          <ns3:TrackPointExtension>
            <ns3:hr>64</ns3:hr>
            <ns3:cad>42</ns3:cad>
          </ns3:TrackPointExtension>
        </extensions>
      </trkpt>
      <trkpt lat="43.48115765489637851715087890625" lon="1.43343158997595310211181640625">
        <ele>267.20001220703125</ele>
        <time>2026-08-05T09:21:56.000Z</time>
        <extensions>
          <ns3:TrackPointExtension>
            <ns3:hr>64</ns3:hr>
            <ns3:cad>43</ns3:cad>
          </ns3:TrackPointExtension>
        </extensions>
      </trkpt>
      <trkpt lat="43.4811557270586490631103515625" lon="1.43344097770750522613525390625">
        <ele>267.20001220703125</ele>
        <time>2026-08-05T09:21:57.000Z</time>
        <extensions>
          <ns3:TrackPointExtension>
            <ns3:hr>64</ns3:hr>
            <ns3:cad>42</ns3:cad>
          </ns3:TrackPointExtension>
        </extensions>
      </trkpt>
      <trkpt lat="43.48115153610706329345703125" lon="1.4334484376013278961181640625">
        <ele>267.20001220703125</ele>
        <time>2026-08-05T09:21:58.000Z</time>
        <extensions>
          <ns3:TrackPointExtension>
            <ns3:hr>64</ns3:hr>
            <ns3:cad>42</ns3:cad>
          </ns3:TrackPointExtension>
        </extensions>
      </trkpt>
      <trkpt lat="43.4811496920883655548095703125" lon="1.43345958553254604339599609375">
        <ele>267.20001220703125</ele>
        <time>2026-08-05T09:21:59.000Z</time>
        <extensions>
          <ns3:TrackPointExtension>
            <ns3:hr>63</ns3:hr>
            <ns3:cad>41</ns3:cad>
          </ns3:TrackPointExtension>
        </extensions>
      </trkpt>
      <trkpt lat="43.48114826716482639312744140625" lon="1.43346838653087615966796875">
        <ele>267.20001220703125</ele>
        <time>2026-08-05T09:22:00.000Z</time>
        <extensions>
          <ns3:TrackPointExtension>
            <ns3:hr>63</ns3:hr>
            <ns3:cad>42</ns3:cad>
          </ns3:TrackPointExtension>
        </extensions>
      </trkpt>
      <trkpt lat="43.4811449982225894927978515625" lon="1.43347551114857196807861328125">
        <ele>267.20001220703125</ele>
        <time>2026-08-05T09:22:01.000Z</time>
        <extensions>
          <ns3:TrackPointExtension>
            <ns3:hr>63</ns3:hr>
            <ns3:cad>42</ns3:cad>
          </ns3:TrackPointExtension>
        </extensions>
      </trkpt>
      <trkpt lat="43.48114089109003543853759765625" lon="1.4334890060126781463623046875">
        <ele>267.20001220703125</ele>
        <time>2026-08-05T09:22:02.000Z</time>
        <extensions>
          <ns3:TrackPointExtension>
            <ns3:hr>63</ns3:hr>
            <ns3:cad>42</ns3:cad>
          </ns3:TrackPointExtension>
        </extensions>
      </trkpt>
      <trkpt lat="43.4811369515955448150634765625" lon="1.43349981866776943206787109375">
        <ele>267.20001220703125</ele>
        <time>2026-08-05T09:22:03.000Z</time>
        <extensions>
          <ns3:TrackPointExtension>
            <ns3:hr>62</ns3:hr>
            <ns3:cad>42</ns3:cad>
          </ns3:TrackPointExtension>
        </extensions>
      </trkpt>
      <trkpt lat="43.48113410174846649169921875" lon="1.43350903876125812530517578125">
        <ele>267.20001220703125</ele>
        <time>2026-08-05T09:22:04.000Z</time>
        <extensions>
          <ns3:TrackPointExtension>
            <ns3:hr>61</ns3:hr>
            <ns3:cad>42</ns3:cad>
          </ns3:TrackPointExtension>
        </extensions>
      </trkpt>
      <trkpt lat="43.4811302460730075836181640625" lon="1.433517001569271087646484375">
        <ele>267.20001220703125</ele>
        <time>2026-08-05T09:22:05.000Z</time>
        <extensions>
          <ns3:TrackPointExtension>
            <ns3:hr>60</ns3:hr>
            <ns3:cad>42</ns3:cad>
          </ns3:TrackPointExtension>
        </extensions>
      </trkpt>
      <trkpt lat="43.4811262227594852447509765625" lon="1.43353016115725040435791015625">
        <ele>267</ele>
        <time>2026-08-05T09:22:06.000Z</time>
        <extensions>
          <ns3:TrackPointExtension>
            <ns3:hr>60</ns3:hr>
            <ns3:cad>41</ns3:cad>
          </ns3:TrackPointExtension>
        </extensions>
      </trkpt>
      <trkpt lat="43.48112110979855060577392578125" lon="1.4335374534130096435546875">
        <ele>267</ele>
        <time>2026-08-05T09:22:07.000Z</time>
        <extensions>
          <ns3:TrackPointExtension>
            <ns3:hr>59</ns3:hr>
            <ns3:cad>42</ns3:cad>
          </ns3:TrackPointExtension>
        </extensions>
      </trkpt>
      <trkpt lat="43.48111574538052082061767578125" lon="1.4335480146110057830810546875">
        <ele>267</ele>
        <time>2026-08-05T09:22:08.000Z</time>
        <extensions>
          <ns3:TrackPointExtension>
            <ns3:hr>59</ns3:hr>
            <ns3:cad>42</ns3:cad>
          </ns3:TrackPointExtension>
        </extensions>
      </trkpt>
      <trkpt lat="43.48111205734312534332275390625" lon="1.4335644431412220001220703125">
        <ele>267</ele>
        <time>2026-08-05T09:22:09.000Z</time>
        <extensions>
          <ns3:TrackPointExtension>
            <ns3:hr>59</ns3:hr>
            <ns3:cad>42</ns3:cad>
          </ns3:TrackPointExtension>
        </extensions>
      </trkpt>
      <trkpt lat="43.4811079502105712890625" lon="1.43357575871050357818603515625">
        <ele>267</ele>
        <time>2026-08-05T09:22:10.000Z</time>
        <extensions>
          <ns3:TrackPointExtension>
            <ns3:hr>58</ns3:hr>
            <ns3:cad>42</ns3:cad>
          </ns3:TrackPointExtension>
        </extensions>
      </trkpt>
      <trkpt lat="43.48110401071608066558837890625" lon="1.433584056794643402099609375">
        <ele>267</ele>
        <time>2026-08-05T09:22:11.000Z</time>
        <extensions>
          <ns3:TrackPointExtension>
            <ns3:hr>58</ns3:hr>
            <ns3:cad>41</ns3:cad>
          </ns3:TrackPointExtension>
        </extensions>
      </trkpt>
      <trkpt lat="43.4811000712215900421142578125" lon="1.4335946179926395416259765625">
        <ele>266.79998779296875</ele>
        <time>2026-08-05T09:22:12.000Z</time>
        <extensions>
          <ns3:TrackPointExtension>
            <ns3:hr>58</ns3:hr>
            <ns3:cad>41</ns3:cad>
          </ns3:TrackPointExtension>
        </extensions>
      </trkpt>
      <trkpt lat="43.4810960479080677032470703125" lon="1.43360593356192111968994140625">
        <ele>266.79998779296875</ele>
        <time>2026-08-05T09:22:13.000Z</time>
        <extensions>
          <ns3:TrackPointExtension>
            <ns3:hr>58</ns3:hr>
            <ns3:cad>42</ns3:cad>
          </ns3:TrackPointExtension>
        </extensions>
      </trkpt>
      <trkpt lat="43.48109378479421138763427734375" lon="1.4336137287318706512451171875">
        <ele>266.79998779296875</ele>
        <time>2026-08-05T09:22:14.000Z</time>
        <extensions>
          <ns3:TrackPointExtension>
            <ns3:hr>57</ns3:hr>
            <ns3:cad>41</ns3:cad>
          </ns3:TrackPointExtension>
        </extensions>
      </trkpt>
      <trkpt lat="43.4810923598706722259521484375" lon="1.433622948825359344482421875">
        <ele>266.79998779296875</ele>
        <time>2026-08-05T09:22:15.000Z</time>
        <extensions>
          <ns3:TrackPointExtension>
            <ns3:hr>57</ns3:hr>
            <ns3:cad>41</ns3:cad>
          </ns3:TrackPointExtension>
        </extensions>
      </trkpt>
      <trkpt lat="43.4810866601765155792236328125" lon="1.4336385391652584075927734375">
        <ele>266.79998779296875</ele>
        <time>2026-08-05T09:22:16.000Z</time>
        <extensions>
          <ns3:TrackPointExtension>
            <ns3:hr>56</ns3:hr>
            <ns3:cad>41</ns3:cad>
          </ns3:TrackPointExtension>
        </extensions>
      </trkpt>
      <trkpt lat="43.48108054138720035552978515625" lon="1.43364801071584224700927734375">
        <ele>266.79998779296875</ele>
        <time>2026-08-05T09:22:17.000Z</time>
        <extensions>
          <ns3:TrackPointExtension>
            <ns3:hr>56</ns3:hr>
            <ns3:cad>41</ns3:cad>
          </ns3:TrackPointExtension>
        </extensions>
      </trkpt>
      <trkpt lat="43.48107635043561458587646484375" lon="1.4336549676954746246337890625">
        <ele>266.79998779296875</ele>
        <time>2026-08-05T09:22:18.000Z</time>
        <extensions>
          <ns3:TrackPointExtension>
            <ns3:hr>57</ns3:hr>
            <ns3:cad>0</ns3:cad>
          </ns3:TrackPointExtension>
        </extensions>
      </trkpt>
      <trkpt lat="43.481073416769504547119140625" lon="1.4336663670837879180908203125">
        <ele>266.600006103515625</ele>
        <time>2026-08-05T09:22:19.000Z</time>
        <extensions>
          <ns3:TrackPointExtension>
            <ns3:hr>57</ns3:hr>
            <ns3:cad>0</ns3:cad>
          </ns3:TrackPointExtension>
        </extensions>
      </trkpt>
      <trkpt lat="43.481070734560489654541015625" lon="1.4336764253675937652587890625">
        <ele>266.600006103515625</ele>
        <time>2026-08-05T09:22:20.000Z</time>
        <extensions>
          <ns3:TrackPointExtension>
            <ns3:hr>57</ns3:hr>
            <ns3:cad>0</ns3:cad>
          </ns3:TrackPointExtension>
        </extensions>
      </trkpt>
      <trkpt lat="43.4810709021985530853271484375" lon="1.433685980737209320068359375">
        <ele>266.600006103515625</ele>
        <time>2026-08-05T09:22:21.000Z</time>
        <extensions>
          <ns3:TrackPointExtension>
            <ns3:hr>58</ns3:hr>
            <ns3:cad>0</ns3:cad>
          </ns3:TrackPointExtension>
        </extensions>
      </trkpt>
      <trkpt lat="43.48106763325631618499755859375" lon="1.43369679339230060577392578125">
        <ele>266.399993896484375</ele>
        <time>2026-08-05T09:22:22.000Z</time>
        <extensions>
          <ns3:TrackPointExtension>
            <ns3:hr>58</ns3:hr>
            <ns3:cad>41</ns3:cad>
          </ns3:TrackPointExtension>
        </extensions>
      </trkpt>
      <trkpt lat="43.48106344230473041534423828125" lon="1.43370819278061389923095703125">
        <ele>266.399993896484375</ele>
        <time>2026-08-05T09:22:23.000Z</time>
        <extensions>
          <ns3:TrackPointExtension>
            <ns3:hr>59</ns3:hr>
            <ns3:cad>41</ns3:cad>
          </ns3:TrackPointExtension>
        </extensions>
      </trkpt>
      <trkpt lat="43.4810605086386203765869140625" lon="1.43371556885540485382080078125">
        <ele>266.399993896484375</ele>
        <time>2026-08-05T09:22:24.000Z</time>
        <extensions>
          <ns3:TrackPointExtension>
            <ns3:hr>59</ns3:hr>
            <ns3:cad>41</ns3:cad>
          </ns3:TrackPointExtension>
        </extensions>
      </trkpt>
      <trkpt lat="43.481057323515415191650390625" lon="1.43372311256825923919677734375">
        <ele>266.399993896484375</ele>
        <time>2026-08-05T09:22:25.000Z</time>
        <extensions>
          <ns3:TrackPointExtension>
            <ns3:hr>60</ns3:hr>
            <ns3:cad>44</ns3:cad>
          </ns3:TrackPointExtension>
        </extensions>
      </trkpt>
      <trkpt lat="43.48105556331574916839599609375" lon="1.43373417668044567108154296875">
        <ele>266.399993896484375</ele>
        <time>2026-08-05T09:22:26.000Z</time>
        <extensions>
          <ns3:TrackPointExtension>
            <ns3:hr>61</ns3:hr>
            <ns3:cad>44</ns3:cad>
          </ns3:TrackPointExtension>
        </extensions>
      </trkpt>
      <trkpt lat="43.48105321638286113739013671875" lon="1.4337485097348690032958984375">
        <ele>266.399993896484375</ele>
        <time>2026-08-05T09:22:27.000Z</time>
        <extensions>
          <ns3:TrackPointExtension>
            <ns3:hr>61</ns3:hr>
            <ns3:cad>44</ns3:cad>
          </ns3:TrackPointExtension>
        </extensions>
      </trkpt>
      <trkpt lat="43.48105103708803653717041015625" lon="1.4337612502276897430419921875">
        <ele>266.600006103515625</ele>
        <time>2026-08-05T09:22:28.000Z</time>
        <extensions>
          <ns3:TrackPointExtension>
            <ns3:hr>61</ns3:hr>
            <ns3:cad>44</ns3:cad>
          </ns3:TrackPointExtension>
        </extensions>
      </trkpt>
      <trkpt lat="43.48104785196483135223388671875" lon="1.43377005122601985931396484375">
        <ele>266.600006103515625</ele>
        <time>2026-08-05T09:22:29.000Z</time>
        <extensions>
          <ns3:TrackPointExtension>
            <ns3:hr>61</ns3:hr>
            <ns3:cad>44</ns3:cad>
          </ns3:TrackPointExtension>
        </extensions>
      </trkpt>
      <trkpt lat="43.4810440801084041595458984375" lon="1.433779858052730560302734375">
        <ele>266.399993896484375</ele>
        <time>2026-08-05T09:22:30.000Z</time>
        <extensions>
          <ns3:TrackPointExtension>
            <ns3:hr>62</ns3:hr>
            <ns3:cad>44</ns3:cad>
          </ns3:TrackPointExtension>
        </extensions>
      </trkpt>
      <trkpt lat="43.481043912470340728759765625" lon="1.43379368819296360015869140625">
        <ele>266.399993896484375</ele>
        <time>2026-08-05T09:22:31.000Z</time>
        <extensions>
          <ns3:TrackPointExtension>
            <ns3:hr>62</ns3:hr>
            <ns3:cad>44</ns3:cad>
          </ns3:TrackPointExtension>
        </extensions>
      </trkpt>
      <trkpt lat="43.4810400567948818206787109375" lon="1.4338018186390399932861328125">
        <ele>266.399993896484375</ele>
        <time>2026-08-05T09:22:32.000Z</time>
        <extensions>
          <ns3:TrackPointExtension>
            <ns3:hr>62</ns3:hr>
            <ns3:cad>43</ns3:cad>
          </ns3:TrackPointExtension>
        </extensions>
      </trkpt>
      <trkpt lat="43.48103628493845462799072265625" lon="1.433809362351894378662109375">
        <ele>266.399993896484375</ele>
        <time>2026-08-05T09:22:33.000Z</time>
        <extensions>
          <ns3:TrackPointExtension>
            <ns3:hr>62</ns3:hr>
            <ns3:cad>43</ns3:cad>
          </ns3:TrackPointExtension>
        </extensions>
      </trkpt>
      <trkpt lat="43.48103276453912258148193359375" lon="1.4338222704827785491943359375">
        <ele>266.399993896484375</ele>
        <time>2026-08-05T09:22:34.000Z</time>
        <extensions>
          <ns3:TrackPointExtension>
            <ns3:hr>62</ns3:hr>
            <ns3:cad>43</ns3:cad>
          </ns3:TrackPointExtension>
        </extensions>
      </trkpt>
      <trkpt lat="43.481028489768505096435546875" lon="1.433830149471759796142578125">
        <ele>266.399993896484375</ele>
        <time>2026-08-05T09:22:35.000Z</time>
        <extensions>
          <ns3:TrackPointExtension>
            <ns3:hr>62</ns3:hr>
            <ns3:cad>0</ns3:cad>
          </ns3:TrackPointExtension>
        </extensions>
      </trkpt>
      <trkpt lat="43.48102455027401447296142578125" lon="1.43383920192718505859375">
        <ele>266.399993896484375</ele>
        <time>2026-08-05T09:22:36.000Z</time>
        <extensions>
          <ns3:TrackPointExtension>
            <ns3:hr>61</ns3:hr>
            <ns3:cad>0</ns3:cad>
          </ns3:TrackPointExtension>
        </extensions>
      </trkpt>
      <trkpt lat="43.4810196049511432647705078125" lon="1.4338552951812744140625">
        <ele>266.399993896484375</ele>
        <time>2026-08-05T09:22:37.000Z</time>
        <extensions>
          <ns3:TrackPointExtension>
            <ns3:hr>61</ns3:hr>
            <ns3:cad>43</ns3:cad>
          </ns3:TrackPointExtension>
        </extensions>
      </trkpt>
      <trkpt lat="43.481015078723430633544921875" lon="1.4338682033121585845947265625">
        <ele>266.399993896484375</ele>
        <time>2026-08-05T09:22:38.000Z</time>
        <extensions>
          <ns3:TrackPointExtension>
            <ns3:hr>61</ns3:hr>
            <ns3:cad>43</ns3:cad>
          </ns3:TrackPointExtension>
        </extensions>
      </trkpt>
      <trkpt lat="43.481012396514415740966796875" lon="1.43387549556791782379150390625">
        <ele>266.399993896484375</ele>
        <time>2026-08-05T09:22:39.000Z</time>
        <extensions>
          <ns3:TrackPointExtension>
            <ns3:hr>61</ns3:hr>
            <ns3:cad>42</ns3:cad>
          </ns3:TrackPointExtension>
        </extensions>
      </trkpt>
      <trkpt lat="43.4810098819434642791748046875" lon="1.43388572148978710174560546875">
        <ele>266.399993896484375</ele>
        <time>2026-08-05T09:22:40.000Z</time>
        <extensions>
          <ns3:TrackPointExtension>
            <ns3:hr>61</ns3:hr>
            <ns3:cad>42</ns3:cad>
          </ns3:TrackPointExtension>
        </extensions>
      </trkpt>
      <trkpt lat="43.48100577481091022491455078125" lon="1.43389963544905185699462890625">
        <ele>266.20001220703125</ele>
        <time>2026-08-05T09:22:41.000Z</time>
        <extensions>
          <ns3:TrackPointExtension>
            <ns3:hr>61</ns3:hr>
            <ns3:cad>41</ns3:cad>
          </ns3:TrackPointExtension>
        </extensions>
      </trkpt>
      <trkpt lat="43.48100208677351474761962890625" lon="1.4339070953428745269775390625">
        <ele>266.20001220703125</ele>
        <time>2026-08-05T09:22:42.000Z</time>
        <extensions>
          <ns3:TrackPointExtension>
            <ns3:hr>62</ns3:hr>
            <ns3:cad>0</ns3:cad>
          </ns3:TrackPointExtension>
        </extensions>
      </trkpt>
      <trkpt lat="43.48099923692643642425537109375" lon="1.43391489051282405853271484375">
        <ele>266.20001220703125</ele>
        <time>2026-08-05T09:22:43.000Z</time>
        <extensions>
          <ns3:TrackPointExtension>
            <ns3:hr>61</ns3:hr>
            <ns3:cad>0</ns3:cad>
          </ns3:TrackPointExtension>
        </extensions>
      </trkpt>
      <trkpt lat="43.4809954650700092315673828125" lon="1.43392612226307392120361328125">
        <ele>266.20001220703125</ele>
        <time>2026-08-05T09:22:44.000Z</time>
        <extensions>
          <ns3:TrackPointExtension>
            <ns3:hr>61</ns3:hr>
            <ns3:cad>0</ns3:cad>
          </ns3:TrackPointExtension>
        </extensions>
      </trkpt>
      <trkpt lat="43.48099286668002605438232421875" lon="1.43393835984170436859130859375">
        <ele>266.20001220703125</ele>
        <time>2026-08-05T09:22:45.000Z</time>
        <extensions>
          <ns3:TrackPointExtension>
            <ns3:hr>61</ns3:hr>
            <ns3:cad>42</ns3:cad>
          </ns3:TrackPointExtension>
        </extensions>
      </trkpt>
      <trkpt lat="43.48099068738520145416259765625" lon="1.43394389189779758453369140625">
        <ele>266.20001220703125</ele>
        <time>2026-08-05T09:22:46.000Z</time>
        <extensions>
          <ns3:TrackPointExtension>
            <ns3:hr>62</ns3:hr>
            <ns3:cad>42</ns3:cad>
          </ns3:TrackPointExtension>
        </extensions>
      </trkpt>
      <trkpt lat="43.48098666407167911529541015625" lon="1.43395277671515941619873046875">
        <ele>266.20001220703125</ele>
        <time>2026-08-05T09:22:47.000Z</time>
        <extensions>
          <ns3:TrackPointExtension>
            <ns3:hr>61</ns3:hr>
            <ns3:cad>42</ns3:cad>
          </ns3:TrackPointExtension>
        </extensions>
      </trkpt>
      <trkpt lat="43.48098255693912506103515625" lon="1.43396568484604358673095703125">
        <ele>266.20001220703125</ele>
        <time>2026-08-05T09:22:48.000Z</time>
        <extensions>
          <ns3:TrackPointExtension>
            <ns3:hr>62</ns3:hr>
            <ns3:cad>42</ns3:cad>
          </ns3:TrackPointExtension>
        </extensions>
      </trkpt>
      <trkpt lat="43.48097878508269786834716796875" lon="1.4339808560907840728759765625">
        <ele>266.20001220703125</ele>
        <time>2026-08-05T09:22:49.000Z</time>
        <extensions>
          <ns3:TrackPointExtension>
            <ns3:hr>62</ns3:hr>
            <ns3:cad>44</ns3:cad>
          </ns3:TrackPointExtension>
        </extensions>
      </trkpt>
      <trkpt lat="43.480974175035953521728515625" lon="1.4339905790984630584716796875">
        <ele>266.20001220703125</ele>
        <time>2026-08-05T09:22:50.000Z</time>
        <extensions>
          <ns3:TrackPointExtension>
            <ns3:hr>62</ns3:hr>
            <ns3:cad>44</ns3:cad>
          </ns3:TrackPointExtension>
        </extensions>
      </trkpt>
      <trkpt lat="43.4809693135321140289306640625" lon="1.43400021828711032867431640625">
        <ele>266</ele>
        <time>2026-08-05T09:22:51.000Z</time>
        <extensions>
          <ns3:TrackPointExtension>
            <ns3:hr>62</ns3:hr>
            <ns3:cad>45</ns3:cad>
          </ns3:TrackPointExtension>
        </extensions>
      </trkpt>
      <trkpt lat="43.4809644520282745361328125" lon="1.434011869132518768310546875">
        <ele>266</ele>
        <time>2026-08-05T09:22:52.000Z</time>
        <extensions>
          <ns3:TrackPointExtension>
            <ns3:hr>61</ns3:hr>
            <ns3:cad>46</ns3:cad>
          </ns3:TrackPointExtension>
        </extensions>
      </trkpt>
      <trkpt lat="43.48095975816249847412109375" lon="1.43402620218694210052490234375">
        <ele>266</ele>
        <time>2026-08-05T09:22:53.000Z</time>
        <extensions>
          <ns3:TrackPointExtension>
            <ns3:hr>61</ns3:hr>
            <ns3:cad>46</ns3:cad>
          </ns3:TrackPointExtension>
        </extensions>
      </trkpt>
      <trkpt lat="43.48095447756350040435791015625" lon="1.43403860740363597869873046875">
        <ele>266</ele>
        <time>2026-08-05T09:22:54.000Z</time>
        <extensions>
          <ns3:TrackPointExtension>
            <ns3:hr>61</ns3:hr>
            <ns3:cad>46</ns3:cad>
          </ns3:TrackPointExtension>
        </extensions>
      </trkpt>
      <trkpt lat="43.4809505380690097808837890625" lon="1.4340502582490444183349609375">
        <ele>266</ele>
        <time>2026-08-05T09:22:55.000Z</time>
        <extensions>
          <ns3:TrackPointExtension>
            <ns3:hr>61</ns3:hr>
            <ns3:cad>46</ns3:cad>
          </ns3:TrackPointExtension>
        </extensions>
      </trkpt>
      <trkpt lat="43.4809455089271068572998046875" lon="1.4340626634657382965087890625">
        <ele>266</ele>
        <time>2026-08-05T09:22:56.000Z</time>
        <extensions>
          <ns3:TrackPointExtension>
            <ns3:hr>62</ns3:hr>
            <ns3:cad>46</ns3:cad>
          </ns3:TrackPointExtension>
        </extensions>
      </trkpt>
      <trkpt lat="43.48094073124229907989501953125" lon="1.43407498486340045928955078125">
        <ele>266</ele>
        <time>2026-08-05T09:22:57.000Z</time>
        <extensions>
          <ns3:TrackPointExtension>
            <ns3:hr>63</ns3:hr>
            <ns3:cad>45</ns3:cad>
          </ns3:TrackPointExtension>
        </extensions>
      </trkpt>
      <trkpt lat="43.48093427717685699462890625" lon="1.43408353440463542938232421875">
        <ele>266</ele>
        <time>2026-08-05T09:22:58.000Z</time>
        <extensions>
          <ns3:TrackPointExtension>
            <ns3:hr>63</ns3:hr>
            <ns3:cad>44</ns3:cad>
          </ns3:TrackPointExtension>
        </extensions>
      </trkpt>
      <trkpt lat="43.48092832602560520172119140625" lon="1.43409258686006069183349609375">
        <ele>266</ele>
        <time>2026-08-05T09:22:59.000Z</time>
        <extensions>
          <ns3:TrackPointExtension>
            <ns3:hr>63</ns3:hr>
            <ns3:cad>44</ns3:cad>
          </ns3:TrackPointExtension>
        </extensions>
      </trkpt>
      <trkpt lat="43.48092346452176570892333984375" lon="1.43410599790513515472412109375">
        <ele>266</ele>
        <time>2026-08-05T09:23:00.000Z</time>
        <extensions>
          <ns3:TrackPointExtension>
            <ns3:hr>63</ns3:hr>
            <ns3:cad>0</ns3:cad>
          </ns3:TrackPointExtension>
        </extensions>
      </trkpt>
      <trkpt lat="43.4809163399040699005126953125" lon="1.4341194927692413330078125">
        <ele>266</ele>
        <time>2026-08-05T09:23:01.000Z</time>
        <extensions>
          <ns3:TrackPointExtension>
            <ns3:hr>63</ns3:hr>
            <ns3:cad>44</ns3:cad>
          </ns3:TrackPointExtension>
        </extensions>
      </trkpt>
      <trkpt lat="43.48091105930507183074951171875" lon="1.43412795849144458770751953125">
        <ele>266</ele>
        <time>2026-08-05T09:23:02.000Z</time>
        <extensions>
          <ns3:TrackPointExtension>
            <ns3:hr>63</ns3:hr>
            <ns3:cad>44</ns3:cad>
          </ns3:TrackPointExtension>
        </extensions>
      </trkpt>
      <trkpt lat="43.480904102325439453125" lon="1.43413902260363101959228515625">
        <ele>266</ele>
        <time>2026-08-05T09:23:03.000Z</time>
        <extensions>
          <ns3:TrackPointExtension>
            <ns3:hr>63</ns3:hr>
            <ns3:cad>44</ns3:cad>
          </ns3:TrackPointExtension>
        </extensions>
      </trkpt>
      <trkpt lat="43.480897732079029083251953125" lon="1.43415075726807117462158203125">
        <ele>266</ele>
        <time>2026-08-05T09:23:04.000Z</time>
        <extensions>
          <ns3:TrackPointExtension>
            <ns3:hr>63</ns3:hr>
            <ns3:cad>44</ns3:cad>
          </ns3:TrackPointExtension>
        </extensions>
      </trkpt>
      <trkpt lat="43.48089161328971385955810546875" lon="1.43416584469377994537353515625">
        <ele>266</ele>
        <time>2026-08-05T09:23:05.000Z</time>
        <extensions>
          <ns3:TrackPointExtension>
            <ns3:hr>63</ns3:hr>
            <ns3:cad>44</ns3:cad>
          </ns3:TrackPointExtension>
        </extensions>
      </trkpt>
      <trkpt lat="43.4808878414332866668701171875" lon="1.43417523242533206939697265625">
        <ele>266</ele>
        <time>2026-08-05T09:23:06.000Z</time>
        <extensions>
          <ns3:TrackPointExtension>
            <ns3:hr>63</ns3:hr>
            <ns3:cad>44</ns3:cad>
          </ns3:TrackPointExtension>
        </extensions>
      </trkpt>
      <trkpt lat="43.480882309377193450927734375" lon="1.434186883270740509033203125">
        <ele>266</ele>
        <time>2026-08-05T09:23:07.000Z</time>
        <extensions>
          <ns3:TrackPointExtension>
            <ns3:hr>63</ns3:hr>
            <ns3:cad>44</ns3:cad>
          </ns3:TrackPointExtension>
        </extensions>
      </trkpt>
      <trkpt lat="43.48087535239756107330322265625" lon="1.43420138396322727203369140625">
        <ele>266</ele>
        <time>2026-08-05T09:23:08.000Z</time>
        <extensions>
          <ns3:TrackPointExtension>
            <ns3:hr>63</ns3:hr>
            <ns3:cad>44</ns3:cad>
          </ns3:TrackPointExtension>
        </extensions>
      </trkpt>
      <trkpt lat="43.48087032325565814971923828125" lon="1.43421060405671596527099609375">
        <ele>266</ele>
        <time>2026-08-05T09:23:09.000Z</time>
        <extensions>
          <ns3:TrackPointExtension>
            <ns3:hr>63</ns3:hr>
            <ns3:cad>44</ns3:cad>
          </ns3:TrackPointExtension>
        </extensions>
      </trkpt>
      <trkpt lat="43.4808680601418018341064453125" lon="1.43421881832182407379150390625">
        <ele>266</ele>
        <time>2026-08-05T09:23:10.000Z</time>
        <extensions>
          <ns3:TrackPointExtension>
            <ns3:hr>64</ns3:hr>
            <ns3:cad>44</ns3:cad>
          </ns3:TrackPointExtension>
        </extensions>
      </trkpt>
      <trkpt lat="43.48086562938988208770751953125" lon="1.43422569148242473602294921875">
        <ele>266</ele>
        <time>2026-08-05T09:23:11.000Z</time>
        <extensions>
          <ns3:TrackPointExtension>
            <ns3:hr>64</ns3:hr>
            <ns3:cad>45</ns3:cad>
          </ns3:TrackPointExtension>
        </extensions>
      </trkpt>
      <trkpt lat="43.4808623604476451873779296875" lon="1.43423742614686489105224609375">
        <ele>266</ele>
        <time>2026-08-05T09:23:12.000Z</time>
        <extensions>
          <ns3:TrackPointExtension>
            <ns3:hr>64</ns3:hr>
            <ns3:cad>45</ns3:cad>
          </ns3:TrackPointExtension>
        </extensions>
      </trkpt>
      <trkpt lat="43.48085707984864711761474609375" lon="1.43424949608743190765380859375">
        <ele>266</ele>
        <time>2026-08-05T09:23:13.000Z</time>
        <extensions>
          <ns3:TrackPointExtension>
            <ns3:hr>65</ns3:hr>
            <ns3:cad>45</ns3:cad>
          </ns3:TrackPointExtension>
        </extensions>
      </trkpt>
      <trkpt lat="43.4808533079922199249267578125" lon="1.434257291257381439208984375">
        <ele>265.79998779296875</ele>
        <time>2026-08-05T09:23:14.000Z</time>
        <extensions>
          <ns3:TrackPointExtension>
            <ns3:hr>65</ns3:hr>
            <ns3:cad>45</ns3:cad>
          </ns3:TrackPointExtension>
        </extensions>
      </trkpt>
      <trkpt lat="43.480848781764507293701171875" lon="1.43426642753183841705322265625">
        <ele>265.79998779296875</ele>
        <time>2026-08-05T09:23:15.000Z</time>
        <extensions>
          <ns3:TrackPointExtension>
            <ns3:hr>64</ns3:hr>
            <ns3:cad>45</ns3:cad>
          </ns3:TrackPointExtension>
        </extensions>
      </trkpt>
      <trkpt lat="43.4808429144322872161865234375" lon="1.4342785812914371490478515625">
        <ele>265.79998779296875</ele>
        <time>2026-08-05T09:23:16.000Z</time>
        <extensions>
          <ns3:TrackPointExtension>
            <ns3:hr>64</ns3:hr>
            <ns3:cad>45</ns3:cad>
          </ns3:TrackPointExtension>
        </extensions>
      </trkpt>
      <trkpt lat="43.48083830438554286956787109375" lon="1.43429056741297245025634765625">
        <ele>265.79998779296875</ele>
        <time>2026-08-05T09:23:17.000Z</time>
        <extensions>
          <ns3:TrackPointExtension>
            <ns3:hr>64</ns3:hr>
            <ns3:cad>0</ns3:cad>
          </ns3:TrackPointExtension>
        </extensions>
      </trkpt>
      <trkpt lat="43.48082958720624446868896484375" lon="1.43430029042065143585205078125">
        <ele>265.79998779296875</ele>
        <time>2026-08-05T09:23:18.000Z</time>
        <extensions>
          <ns3:TrackPointExtension>
            <ns3:hr>64</ns3:hr>
            <ns3:cad>0</ns3:cad>
          </ns3:TrackPointExtension>
        </extensions>
      </trkpt>
      <trkpt lat="43.48082774318754673004150390625" lon="1.43430314026772975921630859375">
        <ele>265.79998779296875</ele>
        <time>2026-08-05T09:23:19.000Z</time>
        <extensions>
          <ns3:TrackPointExtension>
            <ns3:hr>66</ns3:hr>
            <ns3:cad>0</ns3:cad>
          </ns3:TrackPointExtension>
        </extensions>
      </trkpt>
      <trkpt lat="43.48082807846367359161376953125" lon="1.43430364318192005157470703125">
        <ele>265.79998779296875</ele>
        <time>2026-08-05T09:23:20.000Z</time>
        <extensions>
          <ns3:TrackPointExtension>
            <ns3:hr>67</ns3:hr>
            <ns3:cad>0</ns3:cad>
          </ns3:TrackPointExtension>
        </extensions>
      </trkpt>
      <trkpt lat="43.480826318264007568359375" lon="1.43430967815220355987548828125">
        <ele>265.79998779296875</ele>
        <time>2026-08-05T09:23:21.000Z</time>
        <extensions>
          <ns3:TrackPointExtension>
            <ns3:hr>67</ns3:hr>
            <ns3:cad>0</ns3:cad>
          </ns3:TrackPointExtension>
        </extensions>
      </trkpt>
      <trkpt lat="43.480821959674358367919921875" lon="1.4343188144266605377197265625">
        <ele>265.79998779296875</ele>
        <time>2026-08-05T09:23:22.000Z</time>
        <extensions>
          <ns3:TrackPointExtension>
            <ns3:hr>68</ns3:hr>
            <ns3:cad>43</ns3:cad>
          </ns3:TrackPointExtension>
        </extensions>
      </trkpt>
      <trkpt lat="43.48081634379923343658447265625" lon="1.43432744778692722320556640625">
        <ele>265.79998779296875</ele>
        <time>2026-08-05T09:23:23.000Z</time>
        <extensions>
          <ns3:TrackPointExtension>
            <ns3:hr>68</ns3:hr>
            <ns3:cad>43</ns3:cad>
          </ns3:TrackPointExtension>
        </extensions>
      </trkpt>
      <trkpt lat="43.48081064410507678985595703125" lon="1.4343312196433544158935546875">
        <ele>265.79998779296875</ele>
        <time>2026-08-05T09:23:24.000Z</time>
        <extensions>
          <ns3:TrackPointExtension>
            <ns3:hr>68</ns3:hr>
            <ns3:cad>43</ns3:cad>
          </ns3:TrackPointExtension>
        </extensions>
      </trkpt>
      <trkpt lat="43.48080419003963470458984375" lon="1.4343369193375110626220703125">
        <ele>265.79998779296875</ele>
        <time>2026-08-05T09:23:25.000Z</time>
        <extensions>
          <ns3:TrackPointExtension>
            <ns3:hr>68</ns3:hr>
            <ns3:cad>44</ns3:cad>
          </ns3:TrackPointExtension>
        </extensions>
      </trkpt>
      <trkpt lat="43.480797819793224334716796875" lon="1.43434278666973114013671875">
        <ele>265.600006103515625</ele>
        <time>2026-08-05T09:23:26.000Z</time>
        <extensions>
          <ns3:TrackPointExtension>
            <ns3:hr>68</ns3:hr>
            <ns3:cad>44</ns3:cad>
          </ns3:TrackPointExtension>
        </extensions>
      </trkpt>
      <trkpt lat="43.48078918643295764923095703125" lon="1.434347815811634063720703125">
        <ele>265.600006103515625</ele>
        <time>2026-08-05T09:23:27.000Z</time>
        <extensions>
          <ns3:TrackPointExtension>
            <ns3:hr>67</ns3:hr>
            <ns3:cad>0</ns3:cad>
          </ns3:TrackPointExtension>
        </extensions>
      </trkpt>
      <trkpt lat="43.4807788766920566558837890625" lon="1.434351168572902679443359375">
        <ele>265.600006103515625</ele>
        <time>2026-08-05T09:23:28.000Z</time>
        <extensions>
          <ns3:TrackPointExtension>
            <ns3:hr>68</ns3:hr>
            <ns3:cad>0</ns3:cad>
          </ns3:TrackPointExtension>
        </extensions>
      </trkpt>
      <trkpt lat="43.48076906986534595489501953125" lon="1.4343533478677272796630859375">
        <ele>265.399993896484375</ele>
        <time>2026-08-05T09:23:29.000Z</time>
        <extensions>
          <ns3:TrackPointExtension>
            <ns3:hr>68</ns3:hr>
            <ns3:cad>46</ns3:cad>
          </ns3:TrackPointExtension>
        </extensions>
      </trkpt>
      <trkpt lat="43.4807621128857135772705078125" lon="1.43434555269777774810791015625">
        <ele>265.20001220703125</ele>
        <time>2026-08-05T09:23:30.000Z</time>
        <extensions>
          <ns3:TrackPointExtension>
            <ns3:hr>68</ns3:hr>
            <ns3:cad>46</ns3:cad>
          </ns3:TrackPointExtension>
        </extensions>
      </trkpt>
      <trkpt lat="43.4807604365050792694091796875" lon="1.43434119410812854766845703125">
        <ele>265.20001220703125</ele>
        <time>2026-08-05T09:23:31.000Z</time>
        <extensions>
          <ns3:TrackPointExtension>
            <ns3:hr>68</ns3:hr>
            <ns3:cad>48</ns3:cad>
          </ns3:TrackPointExtension>
        </extensions>
      </trkpt>
      <trkpt lat="43.48075951449573040008544921875" lon="1.43433817662298679351806640625">
        <ele>265</ele>
        <time>2026-08-05T09:23:32.000Z</time>
        <extensions>
          <ns3:TrackPointExtension>
            <ns3:hr>69</ns3:hr>
            <ns3:cad>49</ns3:cad>
          </ns3:TrackPointExtension>
        </extensions>
      </trkpt>
      <trkpt lat="43.4807587601244449615478515625" lon="1.43433750607073307037353515625">
        <ele>265</ele>
        <time>2026-08-05T09:23:33.000Z</time>
        <extensions>
          <ns3:TrackPointExtension>
            <ns3:hr>69</ns3:hr>
            <ns3:cad>49</ns3:cad>
          </ns3:TrackPointExtension>
        </extensions>
      </trkpt>
      <trkpt lat="43.4807567484676837921142578125" lon="1.4343369193375110626220703125">
        <ele>264.79998779296875</ele>
        <time>2026-08-05T09:23:34.000Z</time>
        <extensions>
          <ns3:TrackPointExtension>
            <ns3:hr>69</ns3:hr>
            <ns3:cad>0</ns3:cad>
          </ns3:TrackPointExtension>
        </extensions>
      </trkpt>
      <trkpt lat="43.480754233896732330322265625" lon="1.4343355782330036163330078125">
        <ele>264.79998779296875</ele>
        <time>2026-08-05T09:23:35.000Z</time>
        <extensions>
          <ns3:TrackPointExtension>
            <ns3:hr>70</ns3:hr>
            <ns3:cad>0</ns3:cad>
          </ns3:TrackPointExtension>
        </extensions>
      </trkpt>
      <trkpt lat="43.4807487018406391143798828125" lon="1.4343315549194812774658203125">
        <ele>264.79998779296875</ele>
        <time>2026-08-05T09:23:36.000Z</time>
        <extensions>
          <ns3:TrackPointExtension>
            <ns3:hr>71</ns3:hr>
            <ns3:cad>0</ns3:cad>
          </ns3:TrackPointExtension>
        </extensions>
      </trkpt>
      <trkpt lat="43.48074124194681644439697265625" lon="1.4343245141208171844482421875">
        <ele>264.600006103515625</ele>
        <time>2026-08-05T09:23:37.000Z</time>
        <extensions>
          <ns3:TrackPointExtension>
            <ns3:hr>72</ns3:hr>
            <ns3:cad>0</ns3:cad>
          </ns3:TrackPointExtension>
        </extensions>
      </trkpt>
      <trkpt lat="43.4807310998439788818359375" lon="1.434316970407962799072265625">
        <ele>264.600006103515625</ele>
        <time>2026-08-05T09:23:38.000Z</time>
        <extensions>
          <ns3:TrackPointExtension>
            <ns3:hr>73</ns3:hr>
            <ns3:cad>0</ns3:cad>
          </ns3:TrackPointExtension>
        </extensions>
      </trkpt>
      <trkpt lat="43.480723388493061065673828125" lon="1.434309594333171844482421875">
        <ele>264.600006103515625</ele>
        <time>2026-08-05T09:23:39.000Z</time>
        <extensions>
          <ns3:TrackPointExtension>
            <ns3:hr>73</ns3:hr>
            <ns3:cad>0</ns3:cad>
          </ns3:TrackPointExtension>
        </extensions>
      </trkpt>
      <trkpt lat="43.4807185269892215728759765625" lon="1.43430515192449092864990234375">
        <ele>264.399993896484375</ele>
        <time>2026-08-05T09:23:40.000Z</time>
        <extensions>
          <ns3:TrackPointExtension>
            <ns3:hr>73</ns3:hr>
            <ns3:cad>0</ns3:cad>
          </ns3:TrackPointExtension>
        </extensions>
      </trkpt>
      <trkpt lat="43.480718024075031280517578125" lon="1.43428981304168701171875">
        <ele>264.20001220703125</ele>
        <time>2026-08-05T09:23:41.000Z</time>
        <extensions>
          <ns3:TrackPointExtension>
            <ns3:hr>72</ns3:hr>
            <ns3:cad>0</ns3:cad>
          </ns3:TrackPointExtension>
        </extensions>
      </trkpt>
      <trkpt lat="43.4807096421718597412109375" lon="1.43428972922265529632568359375">
        <ele>264</ele>
        <time>2026-08-05T09:23:42.000Z</time>
        <extensions>
          <ns3:TrackPointExtension>
            <ns3:hr>72</ns3:hr>
            <ns3:cad>0</ns3:cad>
          </ns3:TrackPointExtension>
        </extensions>
      </trkpt>
      <trkpt lat="43.48069966770708560943603515625" lon="1.43428268842399120330810546875">
        <ele>263.79998779296875</ele>
        <time>2026-08-05T09:23:43.000Z</time>
        <extensions>
          <ns3:TrackPointExtension>
            <ns3:hr>72</ns3:hr>
            <ns3:cad>49</ns3:cad>
          </ns3:TrackPointExtension>
        </extensions>
      </trkpt>
      <trkpt lat="43.48069128580391407012939453125" lon="1.4342769049108028411865234375">
        <ele>263.79998779296875</ele>
        <time>2026-08-05T09:23:44.000Z</time>
        <extensions>
          <ns3:TrackPointExtension>
            <ns3:hr>72</ns3:hr>
            <ns3:cad>49</ns3:cad>
          </ns3:TrackPointExtension>
        </extensions>
      </trkpt>
      <trkpt lat="43.4806833229959011077880859375" lon="1.434269361197948455810546875">
        <ele>263.600006103515625</ele>
        <time>2026-08-05T09:23:45.000Z</time>
        <extensions>
          <ns3:TrackPointExtension>
            <ns3:hr>71</ns3:hr>
            <ns3:cad>49</ns3:cad>
          </ns3:TrackPointExtension>
        </extensions>
      </trkpt>
      <trkpt lat="43.48067821003496646881103515625" lon="1.434263326227664947509765625">
        <ele>263.399993896484375</ele>
        <time>2026-08-05T09:23:46.000Z</time>
        <extensions>
          <ns3:TrackPointExtension>
            <ns3:hr>70</ns3:hr>
            <ns3:cad>50</ns3:cad>
          </ns3:TrackPointExtension>
        </extensions>
      </trkpt>
      <trkpt lat="43.480673097074031829833984375" lon="1.43425586633384227752685546875">
        <ele>263.20001220703125</ele>
        <time>2026-08-05T09:23:47.000Z</time>
        <extensions>
          <ns3:TrackPointExtension>
            <ns3:hr>70</ns3:hr>
            <ns3:cad>50</ns3:cad>
          </ns3:TrackPointExtension>
        </extensions>
      </trkpt>
      <trkpt lat="43.4806702472269535064697265625" lon="1.4342497475445270538330078125">
        <ele>263</ele>
        <time>2026-08-05T09:23:48.000Z</time>
        <extensions>
          <ns3:TrackPointExtension>
            <ns3:hr>70</ns3:hr>
            <ns3:cad>50</ns3:cad>
          </ns3:TrackPointExtension>
        </extensions>
      </trkpt>
      <trkpt lat="43.48066630773246288299560546875" lon="1.43424488604068756103515625">
        <ele>262.79998779296875</ele>
        <time>2026-08-05T09:23:49.000Z</time>
        <extensions>
          <ns3:TrackPointExtension>
            <ns3:hr>70</ns3:hr>
            <ns3:cad>50</ns3:cad>
          </ns3:TrackPointExtension>
        </extensions>
      </trkpt>
      <trkpt lat="43.48066161386668682098388671875" lon="1.43423709087073802947998046875">
        <ele>262.79998779296875</ele>
        <time>2026-08-05T09:23:50.000Z</time>
        <extensions>
          <ns3:TrackPointExtension>
            <ns3:hr>71</ns3:hr>
            <ns3:cad>49</ns3:cad>
          </ns3:TrackPointExtension>
        </extensions>
      </trkpt>
      <trkpt lat="43.48065474070608615875244140625" lon="1.434222422540187835693359375">
        <ele>262.600006103515625</ele>
        <time>2026-08-05T09:23:51.000Z</time>
        <extensions>
          <ns3:TrackPointExtension>
            <ns3:hr>71</ns3:hr>
            <ns3:cad>49</ns3:cad>
          </ns3:TrackPointExtension>
        </extensions>
      </trkpt>
      <trkpt lat="43.4806554950773715972900390625" lon="1.43421513028442859649658203125">
        <ele>262.399993896484375</ele>
        <time>2026-08-05T09:23:52.000Z</time>
        <extensions>
          <ns3:TrackPointExtension>
            <ns3:hr>71</ns3:hr>
            <ns3:cad>51</ns3:cad>
          </ns3:TrackPointExtension>
        </extensions>
      </trkpt>
      <trkpt lat="43.4806561656296253204345703125" lon="1.4342075027525424957275390625">
        <ele>262.20001220703125</ele>
        <time>2026-08-05T09:23:53.000Z</time>
        <extensions>
          <ns3:TrackPointExtension>
            <ns3:hr>70</ns3:hr>
            <ns3:cad>51</ns3:cad>
          </ns3:TrackPointExtension>
        </extensions>
      </trkpt>
      <trkpt lat="43.4806508012115955352783203125" lon="1.434200964868068695068359375">
        <ele>262</ele>
        <time>2026-08-05T09:23:54.000Z</time>
        <extensions>
          <ns3:TrackPointExtension>
            <ns3:hr>70</ns3:hr>
            <ns3:cad>51</ns3:cad>
          </ns3:TrackPointExtension>
        </extensions>
      </trkpt>
      <trkpt lat="43.48064459860324859619140625" lon="1.4341977797448635101318359375">
        <ele>262</ele>
        <time>2026-08-05T09:23:55.000Z</time>
        <extensions>
          <ns3:TrackPointExtension>
            <ns3:hr>70</ns3:hr>
            <ns3:cad>51</ns3:cad>
          </ns3:TrackPointExtension>
        </extensions>
      </trkpt>
      <trkpt lat="43.48063118755817413330078125" lon="1.4341974444687366485595703125">
        <ele>261.79998779296875</ele>
        <time>2026-08-05T09:23:56.000Z</time>
        <extensions>
          <ns3:TrackPointExtension>
            <ns3:hr>69</ns3:hr>
            <ns3:cad>50</ns3:cad>
          </ns3:TrackPointExtension>
        </extensions>
      </trkpt>
      <trkpt lat="43.480621464550495147705078125" lon="1.4341914094984531402587890625">
        <ele>261.600006103515625</ele>
        <time>2026-08-05T09:23:57.000Z</time>
        <extensions>
          <ns3:TrackPointExtension>
            <ns3:hr>69</ns3:hr>
            <ns3:cad>49</ns3:cad>
          </ns3:TrackPointExtension>
        </extensions>
      </trkpt>
      <trkpt lat="43.4806115739047527313232421875" lon="1.434183530509471893310546875">
        <ele>261.399993896484375</ele>
        <time>2026-08-05T09:23:58.000Z</time>
        <extensions>
          <ns3:TrackPointExtension>
            <ns3:hr>69</ns3:hr>
            <ns3:cad>49</ns3:cad>
          </ns3:TrackPointExtension>
        </extensions>
      </trkpt>
      <trkpt lat="43.4806058742105960845947265625" lon="1.43417590297758579254150390625">
        <ele>261.20001220703125</ele>
        <time>2026-08-05T09:23:59.000Z</time>
        <extensions>
          <ns3:TrackPointExtension>
            <ns3:hr>69</ns3:hr>
            <ns3:cad>48</ns3:cad>
          </ns3:TrackPointExtension>
        </extensions>
      </trkpt>
      <trkpt lat="43.48060226999223232269287109375" lon="1.43416919745504856109619140625">
        <ele>261</ele>
        <time>2026-08-05T09:24:00.000Z</time>
        <extensions>
          <ns3:TrackPointExtension>
            <ns3:hr>69</ns3:hr>
            <ns3:cad>48</ns3:cad>
          </ns3:TrackPointExtension>
        </extensions>
      </trkpt>
      <trkpt lat="43.48059657029807567596435546875" lon="1.4341595582664012908935546875">
        <ele>260.79998779296875</ele>
        <time>2026-08-05T09:24:01.000Z</time>
        <extensions>
          <ns3:TrackPointExtension>
            <ns3:hr>69</ns3:hr>
            <ns3:cad>50</ns3:cad>
          </ns3:TrackPointExtension>
        </extensions>
      </trkpt>
      <trkpt lat="43.480587266385555267333984375" lon="1.43415377475321292877197265625">
        <ele>260.600006103515625</ele>
        <time>2026-08-05T09:24:02.000Z</time>
        <extensions>
          <ns3:TrackPointExtension>
            <ns3:hr>70</ns3:hr>
            <ns3:cad>50</ns3:cad>
          </ns3:TrackPointExtension>
        </extensions>
      </trkpt>
      <trkpt lat="43.48057796247303485870361328125" lon="1.43414296209812164306640625">
        <ele>260.399993896484375</ele>
        <time>2026-08-05T09:24:03.000Z</time>
        <extensions>
          <ns3:TrackPointExtension>
            <ns3:hr>69</ns3:hr>
            <ns3:cad>52</ns3:cad>
          </ns3:TrackPointExtension>
        </extensions>
      </trkpt>
      <trkpt lat="43.4805679880082607269287109375" lon="1.43413265235722064971923828125">
        <ele>260.20001220703125</ele>
        <time>2026-08-05T09:24:04.000Z</time>
        <extensions>
          <ns3:TrackPointExtension>
            <ns3:hr>69</ns3:hr>
            <ns3:cad>52</ns3:cad>
          </ns3:TrackPointExtension>
        </extensions>
      </trkpt>
      <trkpt lat="43.4805579297244548797607421875" lon="1.434125192463397979736328125">
        <ele>260</ele>
        <time>2026-08-05T09:24:05.000Z</time>
        <extensions>
          <ns3:TrackPointExtension>
            <ns3:hr>69</ns3:hr>
            <ns3:cad>52</ns3:cad>
          </ns3:TrackPointExtension>
        </extensions>
      </trkpt>
      <trkpt lat="43.48055030219256877899169921875" lon="1.434115804731845855712890625">
        <ele>259.79998779296875</ele>
        <time>2026-08-05T09:24:06.000Z</time>
        <extensions>
          <ns3:TrackPointExtension>
            <ns3:hr>69</ns3:hr>
            <ns3:cad>52</ns3:cad>
          </ns3:TrackPointExtension>
        </extensions>
      </trkpt>
      <trkpt lat="43.48054259084165096282958984375" lon="1.43411069177091121673583984375">
        <ele>259.600006103515625</ele>
        <time>2026-08-05T09:24:07.000Z</time>
        <extensions>
          <ns3:TrackPointExtension>
            <ns3:hr>69</ns3:hr>
            <ns3:cad>53</ns3:cad>
          </ns3:TrackPointExtension>
        </extensions>
      </trkpt>
      <trkpt lat="43.48053739406168460845947265625" lon="1.43410415388643741607666015625">
        <ele>259.399993896484375</ele>
        <time>2026-08-05T09:24:08.000Z</time>
        <extensions>
          <ns3:TrackPointExtension>
            <ns3:hr>69</ns3:hr>
            <ns3:cad>53</ns3:cad>
          </ns3:TrackPointExtension>
        </extensions>
      </trkpt>
      <trkpt lat="43.48053186200559139251708984375" lon="1.43409996293485164642333984375">
        <ele>259.20001220703125</ele>
        <time>2026-08-05T09:24:09.000Z</time>
        <extensions>
          <ns3:TrackPointExtension>
            <ns3:hr>69</ns3:hr>
            <ns3:cad>53</ns3:cad>
          </ns3:TrackPointExtension>
        </extensions>
      </trkpt>
      <trkpt lat="43.480524905025959014892578125" lon="1.434094011783599853515625">
        <ele>259</ele>
        <time>2026-08-05T09:24:10.000Z</time>
        <extensions>
          <ns3:TrackPointExtension>
            <ns3:hr>69</ns3:hr>
            <ns3:cad>53</ns3:cad>
          </ns3:TrackPointExtension>
        </extensions>
      </trkpt>
      <trkpt lat="43.48051811568439006805419921875" lon="1.43408537842333316802978515625">
        <ele>258.79998779296875</ele>
        <time>2026-08-05T09:24:11.000Z</time>
        <extensions>
          <ns3:TrackPointExtension>
            <ns3:hr>69</ns3:hr>
            <ns3:cad>53</ns3:cad>
          </ns3:TrackPointExtension>
        </extensions>
      </trkpt>
      <trkpt lat="43.48051342181861400604248046875" lon="1.434077583253383636474609375">
        <ele>258.600006103515625</ele>
        <time>2026-08-05T09:24:12.000Z</time>
        <extensions>
          <ns3:TrackPointExtension>
            <ns3:hr>69</ns3:hr>
            <ns3:cad>53</ns3:cad>
          </ns3:TrackPointExtension>
        </extensions>
      </trkpt>
      <trkpt lat="43.4805096499621868133544921875" lon="1.43407263793051242828369140625">
        <ele>258.399993896484375</ele>
        <time>2026-08-05T09:24:13.000Z</time>
        <extensions>
          <ns3:TrackPointExtension>
            <ns3:hr>69</ns3:hr>
            <ns3:cad>53</ns3:cad>
          </ns3:TrackPointExtension>
        </extensions>
      </trkpt>
      <trkpt lat="43.48050403408706188201904296875" lon="1.43406425602734088897705078125">
        <ele>258.20001220703125</ele>
        <time>2026-08-05T09:24:14.000Z</time>
        <extensions>
          <ns3:TrackPointExtension>
            <ns3:hr>69</ns3:hr>
            <ns3:cad>52</ns3:cad>
          </ns3:TrackPointExtension>
        </extensions>
      </trkpt>
      <trkpt lat="43.4804999269545078277587890625" lon="1.4340606518089771270751953125">
        <ele>258.20001220703125</ele>
        <time>2026-08-05T09:24:15.000Z</time>
        <extensions>
          <ns3:TrackPointExtension>
            <ns3:hr>69</ns3:hr>
            <ns3:cad>51</ns3:cad>
          </ns3:TrackPointExtension>
        </extensions>
      </trkpt>
      <trkpt lat="43.48049531690776348114013671875" lon="1.4340559579432010650634765625">
        <ele>258</ele>
        <time>2026-08-05T09:24:16.000Z</time>
        <extensions>
          <ns3:TrackPointExtension>
            <ns3:hr>69</ns3:hr>
            <ns3:cad>51</ns3:cad>
          </ns3:TrackPointExtension>
        </extensions>
      </trkpt>
      <trkpt lat="43.480489365756511688232421875" lon="1.43405067734420299530029296875">
        <ele>257.79998779296875</ele>
        <time>2026-08-05T09:24:17.000Z</time>
        <extensions>
          <ns3:TrackPointExtension>
            <ns3:hr>69</ns3:hr>
            <ns3:cad>51</ns3:cad>
          </ns3:TrackPointExtension>
        </extensions>
      </trkpt>
      <trkpt lat="43.48048391751945018768310546875" lon="1.4340448938310146331787109375">
        <ele>257.600006103515625</ele>
        <time>2026-08-05T09:24:18.000Z</time>
        <extensions>
          <ns3:TrackPointExtension>
            <ns3:hr>69</ns3:hr>
            <ns3:cad>51</ns3:cad>
          </ns3:TrackPointExtension>
        </extensions>
      </trkpt>
      <trkpt lat="43.48047603853046894073486328125" lon="1.43403743393719196319580078125">
        <ele>257.399993896484375</ele>
        <time>2026-08-05T09:24:19.000Z</time>
        <extensions>
          <ns3:TrackPointExtension>
            <ns3:hr>69</ns3:hr>
            <ns3:cad>51</ns3:cad>
          </ns3:TrackPointExtension>
        </extensions>
      </trkpt>
      <trkpt lat="43.4804690815508365631103515625" lon="1.43402854911983013153076171875">
        <ele>257.20001220703125</ele>
        <time>2026-08-05T09:24:20.000Z</time>
        <extensions>
          <ns3:TrackPointExtension>
            <ns3:hr>69</ns3:hr>
            <ns3:cad>51</ns3:cad>
          </ns3:TrackPointExtension>
        </extensions>
      </trkpt>
      <trkpt lat="43.48046313039958477020263671875" lon="1.43402117304503917694091796875">
        <ele>257</ele>
        <time>2026-08-05T09:24:21.000Z</time>
        <extensions>
          <ns3:TrackPointExtension>
            <ns3:hr>69</ns3:hr>
            <ns3:cad>51</ns3:cad>
          </ns3:TrackPointExtension>
        </extensions>
      </trkpt>
      <trkpt lat="43.480456508696079254150390625" lon="1.434013545513153076171875">
        <ele>256.79998779296875</ele>
        <time>2026-08-05T09:24:22.000Z</time>
        <extensions>
          <ns3:TrackPointExtension>
            <ns3:hr>68</ns3:hr>
            <ns3:cad>51</ns3:cad>
          </ns3:TrackPointExtension>
        </extensions>
      </trkpt>
      <trkpt lat="43.4804523177444934844970703125" lon="1.4340066723525524139404296875">
        <ele>256.600006103515625</ele>
        <time>2026-08-05T09:24:23.000Z</time>
        <extensions>
          <ns3:TrackPointExtension>
            <ns3:hr>68</ns3:hr>
            <ns3:cad>51</ns3:cad>
          </ns3:TrackPointExtension>
        </extensions>
      </trkpt>
      <trkpt lat="43.48044804297387599945068359375" lon="1.43399946391582489013671875">
        <ele>256.399993896484375</ele>
        <time>2026-08-05T09:24:24.000Z</time>
        <extensions>
          <ns3:TrackPointExtension>
            <ns3:hr>68</ns3:hr>
            <ns3:cad>53</ns3:cad>
          </ns3:TrackPointExtension>
        </extensions>
      </trkpt>
      <trkpt lat="43.48044343292713165283203125" lon="1.4339912496507167816162109375">
        <ele>256.399993896484375</ele>
        <time>2026-08-05T09:24:25.000Z</time>
        <extensions>
          <ns3:TrackPointExtension>
            <ns3:hr>68</ns3:hr>
            <ns3:cad>53</ns3:cad>
          </ns3:TrackPointExtension>
        </extensions>
      </trkpt>
      <trkpt lat="43.48043664358556270599365234375" lon="1.4339828677475452423095703125">
        <ele>256.20001220703125</ele>
        <time>2026-08-05T09:24:26.000Z</time>
        <extensions>
          <ns3:TrackPointExtension>
            <ns3:hr>68</ns3:hr>
            <ns3:cad>51</ns3:cad>
          </ns3:TrackPointExtension>
        </extensions>
      </trkpt>
      <trkpt lat="43.4804318659007549285888671875" lon="1.43397473730146884918212890625">
        <ele>256</ele>
        <time>2026-08-05T09:24:27.000Z</time>
        <extensions>
          <ns3:TrackPointExtension>
            <ns3:hr>68</ns3:hr>
            <ns3:cad>51</ns3:cad>
          </ns3:TrackPointExtension>
        </extensions>
      </trkpt>
      <trkpt lat="43.4804251603782176971435546875" lon="1.43396635539829730987548828125">
        <ele>255.8000030517578125</ele>
        <time>2026-08-05T09:24:28.000Z</time>
        <extensions>
          <ns3:TrackPointExtension>
            <ns3:hr>68</ns3:hr>
            <ns3:cad>51</ns3:cad>
          </ns3:TrackPointExtension>
        </extensions>
      </trkpt>
      <trkpt lat="43.48042021505534648895263671875" lon="1.43396132625639438629150390625">
        <ele>255.600006103515625</ele>
        <time>2026-08-05T09:24:29.000Z</time>
        <extensions>
          <ns3:TrackPointExtension>
            <ns3:hr>68</ns3:hr>
            <ns3:cad>51</ns3:cad>
          </ns3:TrackPointExtension>
        </extensions>
      </trkpt>
      <trkpt lat="43.48041518591344356536865234375" lon="1.43395344726741313934326171875">
        <ele>255.399993896484375</ele>
        <time>2026-08-05T09:24:30.000Z</time>
        <extensions>
          <ns3:TrackPointExtension>
            <ns3:hr>68</ns3:hr>
            <ns3:cad>52</ns3:cad>
          </ns3:TrackPointExtension>
        </extensions>
      </trkpt>
      <trkpt lat="43.48040915094316005706787109375" lon="1.43394875340163707733154296875">
        <ele>255.1999969482421875</ele>
        <time>2026-08-05T09:24:31.000Z</time>
        <extensions>
          <ns3:TrackPointExtension>
            <ns3:hr>68</ns3:hr>
            <ns3:cad>52</ns3:cad>
          </ns3:TrackPointExtension>
        </extensions>
      </trkpt>
      <trkpt lat="43.48040143959224224090576171875" lon="1.43394523300230503082275390625">
        <ele>255</ele>
        <time>2026-08-05T09:24:32.000Z</time>
        <extensions>
          <ns3:TrackPointExtension>
            <ns3:hr>68</ns3:hr>
            <ns3:cad>52</ns3:cad>
          </ns3:TrackPointExtension>
        </extensions>
      </trkpt>
      <trkpt lat="43.48039238713681697845458984375" lon="1.433940790593624114990234375">
        <ele>254.8000030517578125</ele>
        <time>2026-08-05T09:24:33.000Z</time>
        <extensions>
          <ns3:TrackPointExtension>
            <ns3:hr>68</ns3:hr>
            <ns3:cad>51</ns3:cad>
          </ns3:TrackPointExtension>
        </extensions>
      </trkpt>
      <trkpt lat="43.4803832508623600006103515625" lon="1.43393517471849918365478515625">
        <ele>254.600006103515625</ele>
        <time>2026-08-05T09:24:34.000Z</time>
        <extensions>
          <ns3:TrackPointExtension>
            <ns3:hr>68</ns3:hr>
            <ns3:cad>51</ns3:cad>
          </ns3:TrackPointExtension>
        </extensions>
      </trkpt>
      <trkpt lat="43.48037646152079105377197265625" lon="1.43392846919596195220947265625">
        <ele>254.399993896484375</ele>
        <time>2026-08-05T09:24:35.000Z</time>
        <extensions>
          <ns3:TrackPointExtension>
            <ns3:hr>67</ns3:hr>
            <ns3:cad>51</ns3:cad>
          </ns3:TrackPointExtension>
        </extensions>
      </trkpt>
      <trkpt lat="43.48037109710276126861572265625" lon="1.43392293713986873626708984375">
        <ele>254.1999969482421875</ele>
        <time>2026-08-05T09:24:36.000Z</time>
        <extensions>
          <ns3:TrackPointExtension>
            <ns3:hr>67</ns3:hr>
            <ns3:cad>50</ns3:cad>
          </ns3:TrackPointExtension>
        </extensions>
      </trkpt>
      <trkpt lat="43.4803654812276363372802734375" lon="1.43391673453152179718017578125">
        <ele>254</ele>
        <time>2026-08-05T09:24:37.000Z</time>
        <extensions>
          <ns3:TrackPointExtension>
            <ns3:hr>67</ns3:hr>
            <ns3:cad>50</ns3:cad>
          </ns3:TrackPointExtension>
        </extensions>
      </trkpt>
      <trkpt lat="43.4803601168096065521240234375" lon="1.4339164830744266510009765625">
        <ele>253.8000030517578125</ele>
        <time>2026-08-05T09:24:38.000Z</time>
        <extensions>
          <ns3:TrackPointExtension>
            <ns3:hr>66</ns3:hr>
            <ns3:cad>50</ns3:cad>
          </ns3:TrackPointExtension>
        </extensions>
      </trkpt>
      <trkpt lat="43.4803529083728790283203125" lon="1.4339138008654117584228515625">
        <ele>253.8000030517578125</ele>
        <time>2026-08-05T09:24:39.000Z</time>
        <extensions>
          <ns3:TrackPointExtension>
            <ns3:hr>66</ns3:hr>
            <ns3:cad>51</ns3:cad>
          </ns3:TrackPointExtension>
        </extensions>
      </trkpt>
      <trkpt lat="43.4803423471748828887939453125" lon="1.4339097775518894195556640625">
        <ele>253.600006103515625</ele>
        <time>2026-08-05T09:24:40.000Z</time>
        <extensions>
          <ns3:TrackPointExtension>
            <ns3:hr>65</ns3:hr>
            <ns3:cad>52</ns3:cad>
          </ns3:TrackPointExtension>
        </extensions>
      </trkpt>
      <trkpt lat="43.48033203743398189544677734375" lon="1.4339030720293521881103515625">
        <ele>253.399993896484375</ele>
        <time>2026-08-05T09:24:41.000Z</time>
        <extensions>
          <ns3:TrackPointExtension>
            <ns3:hr>65</ns3:hr>
            <ns3:cad>52</ns3:cad>
          </ns3:TrackPointExtension>
        </extensions>
      </trkpt>
      <trkpt lat="43.4803239069879055023193359375" lon="1.43390030600130558013916015625">
        <ele>253.1999969482421875</ele>
        <time>2026-08-05T09:24:42.000Z</time>
        <extensions>
          <ns3:TrackPointExtension>
            <ns3:hr>65</ns3:hr>
            <ns3:cad>52</ns3:cad>
          </ns3:TrackPointExtension>
        </extensions>
      </trkpt>
      <trkpt lat="43.48031829111278057098388671875" lon="1.43389577977359294891357421875">
        <ele>253</ele>
        <time>2026-08-05T09:24:43.000Z</time>
        <extensions>
          <ns3:TrackPointExtension>
            <ns3:hr>65</ns3:hr>
            <ns3:cad>51</ns3:cad>
          </ns3:TrackPointExtension>
        </extensions>
      </trkpt>
      <trkpt lat="43.48031259141862392425537109375" lon="1.433891169726848602294921875">
        <ele>252.8000030517578125</ele>
        <time>2026-08-05T09:24:44.000Z</time>
        <extensions>
          <ns3:TrackPointExtension>
            <ns3:hr>66</ns3:hr>
            <ns3:cad>50</ns3:cad>
          </ns3:TrackPointExtension>
        </extensions>
      </trkpt>
      <trkpt lat="43.48030538298189640045166015625" lon="1.43388488329946994781494140625">
        <ele>252.8000030517578125</ele>
        <time>2026-08-05T09:24:45.000Z</time>
        <extensions>
          <ns3:TrackPointExtension>
            <ns3:hr>66</ns3:hr>
            <ns3:cad>50</ns3:cad>
          </ns3:TrackPointExtension>
        </extensions>
      </trkpt>
      <trkpt lat="43.48029817454516887664794921875" lon="1.43387876451015472412109375">
        <ele>252.600006103515625</ele>
        <time>2026-08-05T09:24:46.000Z</time>
        <extensions>
          <ns3:TrackPointExtension>
            <ns3:hr>68</ns3:hr>
            <ns3:cad>50</ns3:cad>
          </ns3:TrackPointExtension>
        </extensions>
      </trkpt>
      <trkpt lat="43.480289876461029052734375" lon="1.43387163989245891571044921875">
        <ele>252.399993896484375</ele>
        <time>2026-08-05T09:24:47.000Z</time>
        <extensions>
          <ns3:TrackPointExtension>
            <ns3:hr>75</ns3:hr>
            <ns3:cad>53</ns3:cad>
          </ns3:TrackPointExtension>
        </extensions>
      </trkpt>
      <trkpt lat="43.48028124310076236724853515625" lon="1.43387130461633205413818359375">
        <ele>252.1999969482421875</ele>
        <time>2026-08-05T09:24:48.000Z</time>
        <extensions>
          <ns3:TrackPointExtension>
            <ns3:hr>78</ns3:hr>
            <ns3:cad>53</ns3:cad>
          </ns3:TrackPointExtension>
        </extensions>
      </trkpt>
      <trkpt lat="43.480274118483066558837890625" lon="1.4338685385882854461669921875">
        <ele>252</ele>
        <time>2026-08-05T09:24:49.000Z</time>
        <extensions>
          <ns3:TrackPointExtension>
            <ns3:hr>79</ns3:hr>
            <ns3:cad>53</ns3:cad>
          </ns3:TrackPointExtension>
        </extensions>
      </trkpt>
      <trkpt lat="43.48026682622730731964111328125" lon="1.4338648505508899688720703125">
        <ele>251.8000030517578125</ele>
        <time>2026-08-05T09:24:50.000Z</time>
        <extensions>
          <ns3:TrackPointExtension>
            <ns3:hr>81</ns3:hr>
            <ns3:cad>53</ns3:cad>
          </ns3:TrackPointExtension>
        </extensions>
      </trkpt>
      <trkpt lat="43.48026012070477008819580078125" lon="1.43386065959930419921875">
        <ele>251.600006103515625</ele>
        <time>2026-08-05T09:24:51.000Z</time>
        <extensions>
          <ns3:TrackPointExtension>
            <ns3:hr>81</ns3:hr>
            <ns3:cad>53</ns3:cad>
          </ns3:TrackPointExtension>
        </extensions>
      </trkpt>
      <trkpt lat="43.48025475628674030303955078125" lon="1.43385772593319416046142578125">
        <ele>251.600006103515625</ele>
        <time>2026-08-05T09:24:52.000Z</time>
        <extensions>
          <ns3:TrackPointExtension>
            <ns3:hr>82</ns3:hr>
            <ns3:cad>51</ns3:cad>
          </ns3:TrackPointExtension>
        </extensions>
      </trkpt>
      <trkpt lat="43.48024872131645679473876953125" lon="1.4338534511625766754150390625">
        <ele>251.399993896484375</ele>
        <time>2026-08-05T09:24:53.000Z</time>
        <extensions>
          <ns3:TrackPointExtension>
            <ns3:hr>82</ns3:hr>
            <ns3:cad>50</ns3:cad>
          </ns3:TrackPointExtension>
        </extensions>
      </trkpt>
      <trkpt lat="43.48023866303265094757080078125" lon="1.43384993076324462890625">
        <ele>251.1999969482421875</ele>
        <time>2026-08-05T09:24:54.000Z</time>
        <extensions>
          <ns3:TrackPointExtension>
            <ns3:hr>82</ns3:hr>
            <ns3:cad>48</ns3:cad>
          </ns3:TrackPointExtension>
        </extensions>
      </trkpt>
      <trkpt lat="43.4802307002246379852294921875" lon="1.43384481780230998992919921875">
        <ele>251.1999969482421875</ele>
        <time>2026-08-05T09:24:55.000Z</time>
        <extensions>
          <ns3:TrackPointExtension>
            <ns3:hr>82</ns3:hr>
            <ns3:cad>48</ns3:cad>
          </ns3:TrackPointExtension>
        </extensions>
      </trkpt>
      <trkpt lat="43.4802243299782276153564453125" lon="1.43383945338428020477294921875">
        <ele>251</ele>
        <time>2026-08-05T09:24:56.000Z</time>
        <extensions>
          <ns3:TrackPointExtension>
            <ns3:hr>82</ns3:hr>
            <ns3:cad>48</ns3:cad>
          </ns3:TrackPointExtension>
        </extensions>
      </trkpt>
      <trkpt lat="43.4802159480750560760498046875" lon="1.43383492715656757354736328125">
        <ele>250.8000030517578125</ele>
        <time>2026-08-05T09:24:57.000Z</time>
        <extensions>
          <ns3:TrackPointExtension>
            <ns3:hr>82</ns3:hr>
            <ns3:cad>48</ns3:cad>
          </ns3:TrackPointExtension>
        </extensions>
      </trkpt>
      <trkpt lat="43.48020764999091625213623046875" lon="1.4338326640427112579345703125">
        <ele>250.600006103515625</ele>
        <time>2026-08-05T09:24:58.000Z</time>
        <extensions>
          <ns3:TrackPointExtension>
            <ns3:hr>82</ns3:hr>
            <ns3:cad>49</ns3:cad>
          </ns3:TrackPointExtension>
        </extensions>
      </trkpt>
      <trkpt lat="43.480198681354522705078125" lon="1.43382855691015720367431640625">
        <ele>250.399993896484375</ele>
        <time>2026-08-05T09:24:59.000Z</time>
        <extensions>
          <ns3:TrackPointExtension>
            <ns3:hr>82</ns3:hr>
            <ns3:cad>50</ns3:cad>
          </ns3:TrackPointExtension>
        </extensions>
      </trkpt>
      <trkpt lat="43.480188958346843719482421875" lon="1.43382512032985687255859375">
        <ele>250.399993896484375</ele>
        <time>2026-08-05T09:25:00.000Z</time>
        <extensions>
          <ns3:TrackPointExtension>
            <ns3:hr>81</ns3:hr>
            <ns3:cad>50</ns3:cad>
          </ns3:TrackPointExtension>
        </extensions>
      </trkpt>
      <trkpt lat="43.48018032498657703399658203125" lon="1.43381975591182708740234375">
        <ele>250.1999969482421875</ele>
        <time>2026-08-05T09:25:01.000Z</time>
        <extensions>
          <ns3:TrackPointExtension>
            <ns3:hr>81</ns3:hr>
            <ns3:cad>50</ns3:cad>
          </ns3:TrackPointExtension>
        </extensions>
      </trkpt>
      <trkpt lat="43.48017093725502490997314453125" lon="1.4338132180273532867431640625">
        <ele>250</ele>
        <time>2026-08-05T09:25:02.000Z</time>
        <extensions>
          <ns3:TrackPointExtension>
            <ns3:hr>80</ns3:hr>
            <ns3:cad>50</ns3:cad>
          </ns3:TrackPointExtension>
        </extensions>
      </trkpt>
      <trkpt lat="43.48016356118023395538330078125" lon="1.43381011672317981719970703125">
        <ele>249.8000030517578125</ele>
        <time>2026-08-05T09:25:03.000Z</time>
        <extensions>
          <ns3:TrackPointExtension>
            <ns3:hr>80</ns3:hr>
            <ns3:cad>50</ns3:cad>
          </ns3:TrackPointExtension>
        </extensions>
      </trkpt>
      <trkpt lat="43.48015685565769672393798828125" lon="1.43380659632384777069091796875">
        <ele>249.600006103515625</ele>
        <time>2026-08-05T09:25:04.000Z</time>
        <extensions>
          <ns3:TrackPointExtension>
            <ns3:hr>80</ns3:hr>
            <ns3:cad>50</ns3:cad>
          </ns3:TrackPointExtension>
        </extensions>
      </trkpt>
      <trkpt lat="43.48015048541128635406494140625" lon="1.4338014833629131317138671875">
        <ele>249.399993896484375</ele>
        <time>2026-08-05T09:25:05.000Z</time>
        <extensions>
          <ns3:TrackPointExtension>
            <ns3:hr>80</ns3:hr>
            <ns3:cad>50</ns3:cad>
          </ns3:TrackPointExtension>
        </extensions>
      </trkpt>
      <trkpt lat="43.48014310933649539947509765625" lon="1.43379737623035907745361328125">
        <ele>249.399993896484375</ele>
        <time>2026-08-05T09:25:06.000Z</time>
        <extensions>
          <ns3:TrackPointExtension>
            <ns3:hr>80</ns3:hr>
            <ns3:cad>50</ns3:cad>
          </ns3:TrackPointExtension>
        </extensions>
      </trkpt>
      <trkpt lat="43.4801351465284824371337890625" lon="1.433795280754566192626953125">
        <ele>249.1999969482421875</ele>
        <time>2026-08-05T09:25:07.000Z</time>
        <extensions>
          <ns3:TrackPointExtension>
            <ns3:hr>80</ns3:hr>
            <ns3:cad>51</ns3:cad>
          </ns3:TrackPointExtension>
        </extensions>
      </trkpt>
      <trkpt lat="43.48013053648173809051513671875" lon="1.43379301764070987701416015625">
        <ele>249</ele>
        <time>2026-08-05T09:25:08.000Z</time>
        <extensions>
          <ns3:TrackPointExtension>
            <ns3:hr>81</ns3:hr>
            <ns3:cad>52</ns3:cad>
          </ns3:TrackPointExtension>
        </extensions>
      </trkpt>
      <trkpt lat="43.48012466914951801300048828125" lon="1.43378832377493381500244140625">
        <ele>248.8000030517578125</ele>
        <time>2026-08-05T09:25:09.000Z</time>
        <extensions>
          <ns3:TrackPointExtension>
            <ns3:hr>80</ns3:hr>
            <ns3:cad>52</ns3:cad>
          </ns3:TrackPointExtension>
        </extensions>
      </trkpt>
      <trkpt lat="43.48011863417923450469970703125" lon="1.43378430046141147613525390625">
        <ele>248.600006103515625</ele>
        <time>2026-08-05T09:25:10.000Z</time>
        <extensions>
          <ns3:TrackPointExtension>
            <ns3:hr>80</ns3:hr>
            <ns3:cad>52</ns3:cad>
          </ns3:TrackPointExtension>
        </extensions>
      </trkpt>
      <trkpt lat="43.48011058755218982696533203125" lon="1.4337793551385402679443359375">
        <ele>248.399993896484375</ele>
        <time>2026-08-05T09:25:11.000Z</time>
        <extensions>
          <ns3:TrackPointExtension>
            <ns3:hr>80</ns3:hr>
            <ns3:cad>51</ns3:cad>
          </ns3:TrackPointExtension>
        </extensions>
      </trkpt>
      <trkpt lat="43.48010304383933544158935546875" lon="1.43377684056758880615234375">
        <ele>248.1999969482421875</ele>
        <time>2026-08-05T09:25:12.000Z</time>
        <extensions>
          <ns3:TrackPointExtension>
            <ns3:hr>80</ns3:hr>
            <ns3:cad>50</ns3:cad>
          </ns3:TrackPointExtension>
        </extensions>
      </trkpt>
      <trkpt lat="43.48009751178324222564697265625" lon="1.43377424217760562896728515625">
        <ele>248.1999969482421875</ele>
        <time>2026-08-05T09:25:13.000Z</time>
        <extensions>
          <ns3:TrackPointExtension>
            <ns3:hr>79</ns3:hr>
            <ns3:cad>50</ns3:cad>
          </ns3:TrackPointExtension>
        </extensions>
      </trkpt>
      <trkpt lat="43.48009214736521244049072265625" lon="1.4337672851979732513427734375">
        <ele>248</ele>
        <time>2026-08-05T09:25:14.000Z</time>
        <extensions>
          <ns3:TrackPointExtension>
            <ns3:hr>79</ns3:hr>
            <ns3:cad>50</ns3:cad>
          </ns3:TrackPointExtension>
        </extensions>
      </trkpt>
      <trkpt lat="43.48008493892848491668701171875" lon="1.4337629266083240509033203125">
        <ele>247.8000030517578125</ele>
        <time>2026-08-05T09:25:15.000Z</time>
        <extensions>
          <ns3:TrackPointExtension>
            <ns3:hr>79</ns3:hr>
            <ns3:cad>50</ns3:cad>
          </ns3:TrackPointExtension>
        </extensions>
      </trkpt>
      <trkpt lat="43.48007731139659881591796875" lon="1.4337592385709285736083984375">
        <ele>247.600006103515625</ele>
        <time>2026-08-05T09:25:16.000Z</time>
        <extensions>
          <ns3:TrackPointExtension>
            <ns3:hr>78</ns3:hr>
            <ns3:cad>50</ns3:cad>
          </ns3:TrackPointExtension>
        </extensions>
      </trkpt>
      <trkpt lat="43.48006951622664928436279296875" lon="1.43375781364738941192626953125">
        <ele>247.399993896484375</ele>
        <time>2026-08-05T09:25:17.000Z</time>
        <extensions>
          <ns3:TrackPointExtension>
            <ns3:hr>78</ns3:hr>
            <ns3:cad>49</ns3:cad>
          </ns3:TrackPointExtension>
        </extensions>
      </trkpt>
      <trkpt lat="43.48006214015185832977294921875" lon="1.4337558858096599578857421875">
        <ele>247.1999969482421875</ele>
        <time>2026-08-05T09:25:18.000Z</time>
        <extensions>
          <ns3:TrackPointExtension>
            <ns3:hr>78</ns3:hr>
            <ns3:cad>47</ns3:cad>
          </ns3:TrackPointExtension>
        </extensions>
      </trkpt>
      <trkpt lat="43.480054177343845367431640625" lon="1.43375161103904247283935546875">
        <ele>247.1999969482421875</ele>
        <time>2026-08-05T09:25:19.000Z</time>
        <extensions>
          <ns3:TrackPointExtension>
            <ns3:hr>79</ns3:hr>
            <ns3:cad>47</ns3:cad>
          </ns3:TrackPointExtension>
        </extensions>
      </trkpt>
      <trkpt lat="43.48004789091646671295166015625" lon="1.4337478391826152801513671875">
        <ele>247</ele>
        <time>2026-08-05T09:25:20.000Z</time>
        <extensions>
          <ns3:TrackPointExtension>
            <ns3:hr>78</ns3:hr>
            <ns3:cad>47</ns3:cad>
          </ns3:TrackPointExtension>
        </extensions>
      </trkpt>
      <trkpt lat="43.48004001192748546600341796875" lon="1.4337448216974735260009765625">
        <ele>246.8000030517578125</ele>
        <time>2026-08-05T09:25:21.000Z</time>
        <extensions>
          <ns3:TrackPointExtension>
            <ns3:hr>78</ns3:hr>
            <ns3:cad>48</ns3:cad>
          </ns3:TrackPointExtension>
        </extensions>
      </trkpt>
      <trkpt lat="43.48003171384334564208984375" lon="1.43374088220298290252685546875">
        <ele>246.600006103515625</ele>
        <time>2026-08-05T09:25:22.000Z</time>
        <extensions>
          <ns3:TrackPointExtension>
            <ns3:hr>78</ns3:hr>
            <ns3:cad>49</ns3:cad>
          </ns3:TrackPointExtension>
        </extensions>
      </trkpt>
      <trkpt lat="43.4800243377685546875" lon="1.433739960193634033203125">
        <ele>246.399993896484375</ele>
        <time>2026-08-05T09:25:23.000Z</time>
        <extensions>
          <ns3:TrackPointExtension>
            <ns3:hr>78</ns3:hr>
            <ns3:cad>49</ns3:cad>
          </ns3:TrackPointExtension>
        </extensions>
      </trkpt>
      <trkpt lat="43.4800171293318271636962890625" lon="1.4337391220033168792724609375">
        <ele>246.1999969482421875</ele>
        <time>2026-08-05T09:25:24.000Z</time>
        <extensions>
          <ns3:TrackPointExtension>
            <ns3:hr>78</ns3:hr>
            <ns3:cad>48</ns3:cad>
          </ns3:TrackPointExtension>
        </extensions>
      </trkpt>
      <trkpt lat="43.48001067526638507843017578125" lon="1.43373551778495311737060546875">
        <ele>246</ele>
        <time>2026-08-05T09:25:25.000Z</time>
        <extensions>
          <ns3:TrackPointExtension>
            <ns3:hr>77</ns3:hr>
            <ns3:cad>48</ns3:cad>
          </ns3:TrackPointExtension>
        </extensions>
      </trkpt>
      <trkpt lat="43.4800027124583721160888671875" lon="1.433733589947223663330078125">
        <ele>245.8000030517578125</ele>
        <time>2026-08-05T09:25:26.000Z</time>
        <extensions>
          <ns3:TrackPointExtension>
            <ns3:hr>77</ns3:hr>
            <ns3:cad>50</ns3:cad>
          </ns3:TrackPointExtension>
        </extensions>
      </trkpt>
      <trkpt lat="43.47999391146004199981689453125" lon="1.4337327517569065093994140625">
        <ele>245.8000030517578125</ele>
        <time>2026-08-05T09:25:27.000Z</time>
        <extensions>
          <ns3:TrackPointExtension>
            <ns3:hr>76</ns3:hr>
            <ns3:cad>50</ns3:cad>
          </ns3:TrackPointExtension>
        </extensions>
      </trkpt>
      <trkpt lat="43.47998586483299732208251953125" lon="1.43373258411884307861328125">
        <ele>245.600006103515625</ele>
        <time>2026-08-05T09:25:28.000Z</time>
        <extensions>
          <ns3:TrackPointExtension>
            <ns3:hr>75</ns3:hr>
            <ns3:cad>50</ns3:cad>
          </ns3:TrackPointExtension>
        </extensions>
      </trkpt>
      <trkpt lat="43.47997630946338176727294921875" lon="1.4337314106523990631103515625">
        <ele>245.399993896484375</ele>
        <time>2026-08-05T09:25:29.000Z</time>
        <extensions>
          <ns3:TrackPointExtension>
            <ns3:hr>73</ns3:hr>
            <ns3:cad>48</ns3:cad>
          </ns3:TrackPointExtension>
        </extensions>
      </trkpt>
      <trkpt lat="43.47996910102665424346923828125" lon="1.43372814171016216278076171875">
        <ele>245.1999969482421875</ele>
        <time>2026-08-05T09:25:30.000Z</time>
        <extensions>
          <ns3:TrackPointExtension>
            <ns3:hr>72</ns3:hr>
            <ns3:cad>48</ns3:cad>
          </ns3:TrackPointExtension>
        </extensions>
      </trkpt>
      <trkpt lat="43.47996071912348270416259765625" lon="1.4337260462343692779541015625">
        <ele>245.1999969482421875</ele>
        <time>2026-08-05T09:25:31.000Z</time>
        <extensions>
          <ns3:TrackPointExtension>
            <ns3:hr>72</ns3:hr>
            <ns3:cad>46</ns3:cad>
          </ns3:TrackPointExtension>
        </extensions>
      </trkpt>
      <trkpt lat="43.479952923953533172607421875" lon="1.4337230287492275238037109375">
        <ele>245</ele>
        <time>2026-08-05T09:25:32.000Z</time>
        <extensions>
          <ns3:TrackPointExtension>
            <ns3:hr>72</ns3:hr>
            <ns3:cad>46</ns3:cad>
          </ns3:TrackPointExtension>
        </extensions>
      </trkpt>
      <trkpt lat="43.47994429059326648712158203125" lon="1.43372328020632266998291015625">
        <ele>244.8000030517578125</ele>
        <time>2026-08-05T09:25:33.000Z</time>
        <extensions>
          <ns3:TrackPointExtension>
            <ns3:hr>71</ns3:hr>
            <ns3:cad>47</ns3:cad>
          </ns3:TrackPointExtension>
        </extensions>
      </trkpt>
      <trkpt lat="43.47993574105203151702880859375" lon="1.43372143618762493133544921875">
        <ele>244.600006103515625</ele>
        <time>2026-08-05T09:25:34.000Z</time>
        <extensions>
          <ns3:TrackPointExtension>
            <ns3:hr>71</ns3:hr>
            <ns3:cad>47</ns3:cad>
          </ns3:TrackPointExtension>
        </extensions>
      </trkpt>
      <trkpt lat="43.479930125176906585693359375" lon="1.4337193407118320465087890625">
        <ele>244.600006103515625</ele>
        <time>2026-08-05T09:25:35.000Z</time>
        <extensions>
          <ns3:TrackPointExtension>
            <ns3:hr>69</ns3:hr>
            <ns3:cad>48</ns3:cad>
          </ns3:TrackPointExtension>
        </extensions>
      </trkpt>
      <trkpt lat="43.47992249764502048492431640625" lon="1.43371808342635631561279296875">
        <ele>244.399993896484375</ele>
        <time>2026-08-05T09:25:36.000Z</time>
        <extensions>
          <ns3:TrackPointExtension>
            <ns3:hr>69</ns3:hr>
            <ns3:cad>49</ns3:cad>
          </ns3:TrackPointExtension>
        </extensions>
      </trkpt>
      <trkpt lat="43.47991637885570526123046875" lon="1.43371523357927799224853515625">
        <ele>244.1999969482421875</ele>
        <time>2026-08-05T09:25:37.000Z</time>
        <extensions>
          <ns3:TrackPointExtension>
            <ns3:hr>69</ns3:hr>
            <ns3:cad>49</ns3:cad>
          </ns3:TrackPointExtension>
        </extensions>
      </trkpt>
      <trkpt lat="43.47990891896188259124755859375" lon="1.4337143115699291229248046875">
        <ele>244</ele>
        <time>2026-08-05T09:25:38.000Z</time>
        <extensions>
          <ns3:TrackPointExtension>
            <ns3:hr>69</ns3:hr>
            <ns3:cad>49</ns3:cad>
          </ns3:TrackPointExtension>
        </extensions>
      </trkpt>
      <trkpt lat="43.47990254871547222137451171875" lon="1.43371338956058025360107421875">
        <ele>243.8000030517578125</ele>
        <time>2026-08-05T09:25:39.000Z</time>
        <extensions>
          <ns3:TrackPointExtension>
            <ns3:hr>70</ns3:hr>
            <ns3:cad>47</ns3:cad>
          </ns3:TrackPointExtension>
        </extensions>
      </trkpt>
      <trkpt lat="43.47989567555487155914306640625" lon="1.43371112644672393798828125">
        <ele>243.8000030517578125</ele>
        <time>2026-08-05T09:25:40.000Z</time>
        <extensions>
          <ns3:TrackPointExtension>
            <ns3:hr>69</ns3:hr>
            <ns3:cad>47</ns3:cad>
          </ns3:TrackPointExtension>
        </extensions>
      </trkpt>
      <trkpt lat="43.47989047877490520477294921875" lon="1.4337096177041530609130859375">
        <ele>243.600006103515625</ele>
        <time>2026-08-05T09:25:41.000Z</time>
        <extensions>
          <ns3:TrackPointExtension>
            <ns3:hr>69</ns3:hr>
            <ns3:cad>47</ns3:cad>
          </ns3:TrackPointExtension>
        </extensions>
      </trkpt>
      <trkpt lat="43.47988092340528964996337890625" lon="1.4337079413235187530517578125">
        <ele>243.399993896484375</ele>
        <time>2026-08-05T09:25:42.000Z</time>
        <extensions>
          <ns3:TrackPointExtension>
            <ns3:hr>68</ns3:hr>
            <ns3:cad>48</ns3:cad>
          </ns3:TrackPointExtension>
        </extensions>
      </trkpt>
      <trkpt lat="43.47987337969243526458740234375" lon="1.433708108961582183837890625">
        <ele>243.1999969482421875</ele>
        <time>2026-08-05T09:25:43.000Z</time>
        <extensions>
          <ns3:TrackPointExtension>
            <ns3:hr>67</ns3:hr>
            <ns3:cad>50</ns3:cad>
          </ns3:TrackPointExtension>
        </extensions>
      </trkpt>
      <trkpt lat="43.47986583597958087921142578125" lon="1.4337091147899627685546875">
        <ele>243.1999969482421875</ele>
        <time>2026-08-05T09:25:44.000Z</time>
        <extensions>
          <ns3:TrackPointExtension>
            <ns3:hr>67</ns3:hr>
            <ns3:cad>50</ns3:cad>
          </ns3:TrackPointExtension>
        </extensions>
      </trkpt>
      <trkpt lat="43.47986005246639251708984375" lon="1.4337059296667575836181640625">
        <ele>243</ele>
        <time>2026-08-05T09:25:45.000Z</time>
        <extensions>
          <ns3:TrackPointExtension>
            <ns3:hr>66</ns3:hr>
            <ns3:cad>50</ns3:cad>
          </ns3:TrackPointExtension>
        </extensions>
      </trkpt>
      <trkpt lat="43.4798504970967769622802734375" lon="1.4337037503719329833984375">
        <ele>242.8000030517578125</ele>
        <time>2026-08-05T09:25:46.000Z</time>
        <extensions>
          <ns3:TrackPointExtension>
            <ns3:hr>66</ns3:hr>
            <ns3:cad>48</ns3:cad>
          </ns3:TrackPointExtension>
        </extensions>
      </trkpt>
      <trkpt lat="43.4798419475555419921875" lon="1.4337032474577426910400390625">
        <ele>242.600006103515625</ele>
        <time>2026-08-05T09:25:47.000Z</time>
        <extensions>
          <ns3:TrackPointExtension>
            <ns3:hr>66</ns3:hr>
            <ns3:cad>46</ns3:cad>
          </ns3:TrackPointExtension>
        </extensions>
      </trkpt>
      <trkpt lat="43.47982912324368953704833984375" lon="1.4337005652487277984619140625">
        <ele>242.600006103515625</ele>
        <time>2026-08-05T09:25:48.000Z</time>
        <extensions>
          <ns3:TrackPointExtension>
            <ns3:hr>66</ns3:hr>
            <ns3:cad>46</ns3:cad>
          </ns3:TrackPointExtension>
        </extensions>
      </trkpt>
      <trkpt lat="43.479819484055042266845703125" lon="1.4336988888680934906005859375">
        <ele>242.399993896484375</ele>
        <time>2026-08-05T09:25:49.000Z</time>
        <extensions>
          <ns3:TrackPointExtension>
            <ns3:hr>66</ns3:hr>
            <ns3:cad>47</ns3:cad>
          </ns3:TrackPointExtension>
        </extensions>
      </trkpt>
      <trkpt lat="43.4798126108944416046142578125" lon="1.4336975477635860443115234375">
        <ele>242.1999969482421875</ele>
        <time>2026-08-05T09:25:50.000Z</time>
        <extensions>
          <ns3:TrackPointExtension>
            <ns3:hr>66</ns3:hr>
            <ns3:cad>48</ns3:cad>
          </ns3:TrackPointExtension>
        </extensions>
      </trkpt>
      <trkpt lat="43.479808755218982696533203125" lon="1.4337009005248546600341796875">
        <ele>242</ele>
        <time>2026-08-05T09:25:51.000Z</time>
        <extensions>
          <ns3:TrackPointExtension>
            <ns3:hr>66</ns3:hr>
            <ns3:cad>48</ns3:cad>
          </ns3:TrackPointExtension>
        </extensions>
      </trkpt>
      <trkpt lat="43.4797988645732402801513671875" lon="1.4336985535919666290283203125">
        <ele>241.8000030517578125</ele>
        <time>2026-08-05T09:25:52.000Z</time>
        <extensions>
          <ns3:TrackPointExtension>
            <ns3:hr>66</ns3:hr>
            <ns3:cad>49</ns3:cad>
          </ns3:TrackPointExtension>
        </extensions>
      </trkpt>
      <trkpt lat="43.4797891415655612945556640625" lon="1.43369595520198345184326171875">
        <ele>241.8000030517578125</ele>
        <time>2026-08-05T09:25:53.000Z</time>
        <extensions>
          <ns3:TrackPointExtension>
            <ns3:hr>66</ns3:hr>
            <ns3:cad>49</ns3:cad>
          </ns3:TrackPointExtension>
        </extensions>
      </trkpt>
      <trkpt lat="43.47978201694786548614501953125" lon="1.43369545228779315948486328125">
        <ele>241.600006103515625</ele>
        <time>2026-08-05T09:25:54.000Z</time>
        <extensions>
          <ns3:TrackPointExtension>
            <ns3:hr>66</ns3:hr>
            <ns3:cad>50</ns3:cad>
          </ns3:TrackPointExtension>
        </extensions>
      </trkpt>
      <trkpt lat="43.47977380268275737762451171875" lon="1.43369461409747600555419921875">
        <ele>241.600006103515625</ele>
        <time>2026-08-05T09:25:55.000Z</time>
        <extensions>
          <ns3:TrackPointExtension>
            <ns3:hr>67</ns3:hr>
            <ns3:cad>50</ns3:cad>
          </ns3:TrackPointExtension>
        </extensions>
      </trkpt>
      <trkpt lat="43.47977028228342533111572265625" lon="1.43369411118328571319580078125">
        <ele>241.399993896484375</ele>
        <time>2026-08-05T09:25:56.000Z</time>
        <extensions>
          <ns3:TrackPointExtension>
            <ns3:hr>67</ns3:hr>
            <ns3:cad>50</ns3:cad>
          </ns3:TrackPointExtension>
        </extensions>
      </trkpt>
      <trkpt lat="43.47975754179060459136962890625" lon="1.4336876571178436279296875">
        <ele>241.1999969482421875</ele>
        <time>2026-08-05T09:25:57.000Z</time>
        <extensions>
          <ns3:TrackPointExtension>
            <ns3:hr>67</ns3:hr>
            <ns3:cad>50</ns3:cad>
          </ns3:TrackPointExtension>
        </extensions>
      </trkpt>
      <trkpt lat="43.47974547185003757476806640625" lon="1.43368204124271869659423828125">
        <ele>241</ele>
        <time>2026-08-05T09:25:58.000Z</time>
        <extensions>
          <ns3:TrackPointExtension>
            <ns3:hr>66</ns3:hr>
            <ns3:cad>50</ns3:cad>
          </ns3:TrackPointExtension>
        </extensions>
      </trkpt>
      <trkpt lat="43.47973541356623172760009765625" lon="1.43367751501500606536865234375">
        <ele>240.8000030517578125</ele>
        <time>2026-08-05T09:25:59.000Z</time>
        <extensions>
          <ns3:TrackPointExtension>
            <ns3:hr>67</ns3:hr>
            <ns3:cad>48</ns3:cad>
          </ns3:TrackPointExtension>
        </extensions>
      </trkpt>
      <trkpt lat="43.47973088733851909637451171875" lon="1.433670222759246826171875">
        <ele>240.8000030517578125</ele>
        <time>2026-08-05T09:26:00.000Z</time>
        <extensions>
          <ns3:TrackPointExtension>
            <ns3:hr>67</ns3:hr>
            <ns3:cad>48</ns3:cad>
          </ns3:TrackPointExtension>
        </extensions>
      </trkpt>
      <trkpt lat="43.479724265635013580322265625" lon="1.4336621761322021484375">
        <ele>240.600006103515625</ele>
        <time>2026-08-05T09:26:01.000Z</time>
        <extensions>
          <ns3:TrackPointExtension>
            <ns3:hr>67</ns3:hr>
            <ns3:cad>48</ns3:cad>
          </ns3:TrackPointExtension>
        </extensions>
      </trkpt>
      <trkpt lat="43.47971311770379543304443359375" lon="1.43366075120866298675537109375">
        <ele>240.399993896484375</ele>
        <time>2026-08-05T09:26:02.000Z</time>
        <extensions>
          <ns3:TrackPointExtension>
            <ns3:hr>68</ns3:hr>
            <ns3:cad>48</ns3:cad>
          </ns3:TrackPointExtension>
        </extensions>
      </trkpt>
      <trkpt lat="43.4797012992203235626220703125" lon="1.43365681171417236328125">
        <ele>240.399993896484375</ele>
        <time>2026-08-05T09:26:03.000Z</time>
        <extensions>
          <ns3:TrackPointExtension>
            <ns3:hr>68</ns3:hr>
            <ns3:cad>48</ns3:cad>
          </ns3:TrackPointExtension>
        </extensions>
      </trkpt>
      <trkpt lat="43.47969350405037403106689453125" lon="1.43365320749580860137939453125">
        <ele>240.1999969482421875</ele>
        <time>2026-08-05T09:26:04.000Z</time>
        <extensions>
          <ns3:TrackPointExtension>
            <ns3:hr>68</ns3:hr>
            <ns3:cad>49</ns3:cad>
          </ns3:TrackPointExtension>
        </extensions>
      </trkpt>
      <trkpt lat="43.4796868823468685150146484375" lon="1.4336489327251911163330078125">
        <ele>240</ele>
        <time>2026-08-05T09:26:05.000Z</time>
        <extensions>
          <ns3:TrackPointExtension>
            <ns3:hr>68</ns3:hr>
            <ns3:cad>49</ns3:cad>
          </ns3:TrackPointExtension>
        </extensions>
      </trkpt>
      <trkpt lat="43.47968009300529956817626953125" lon="1.43364096991717815399169921875">
        <ele>240</ele>
        <time>2026-08-05T09:26:06.000Z</time>
        <extensions>
          <ns3:TrackPointExtension>
            <ns3:hr>68</ns3:hr>
            <ns3:cad>49</ns3:cad>
          </ns3:TrackPointExtension>
        </extensions>
      </trkpt>
      <trkpt lat="43.479670621454715728759765625" lon="1.43363694660365581512451171875">
        <ele>239.8000030517578125</ele>
        <time>2026-08-05T09:26:07.000Z</time>
        <extensions>
          <ns3:TrackPointExtension>
            <ns3:hr>68</ns3:hr>
            <ns3:cad>49</ns3:cad>
          </ns3:TrackPointExtension>
        </extensions>
      </trkpt>
      <trkpt lat="43.47966022789478302001953125" lon="1.43363577313721179962158203125">
        <ele>239.8000030517578125</ele>
        <time>2026-08-05T09:26:08.000Z</time>
        <extensions>
          <ns3:TrackPointExtension>
            <ns3:hr>68</ns3:hr>
            <ns3:cad>49</ns3:cad>
          </ns3:TrackPointExtension>
        </extensions>
      </trkpt>
      <trkpt lat="43.47965125925838947296142578125" lon="1.43363242037594318389892578125">
        <ele>239.600006103515625</ele>
        <time>2026-08-05T09:26:09.000Z</time>
        <extensions>
          <ns3:TrackPointExtension>
            <ns3:hr>68</ns3:hr>
            <ns3:cad>48</ns3:cad>
          </ns3:TrackPointExtension>
        </extensions>
      </trkpt>
      <trkpt lat="43.47964438609778881072998046875" lon="1.4336291514337062835693359375">
        <ele>239.600006103515625</ele>
        <time>2026-08-05T09:26:10.000Z</time>
        <extensions>
          <ns3:TrackPointExtension>
            <ns3:hr>69</ns3:hr>
            <ns3:cad>48</ns3:cad>
          </ns3:TrackPointExtension>
        </extensions>
      </trkpt>
      <trkpt lat="43.4796355850994586944580078125" lon="1.433626301586627960205078125">
        <ele>239.399993896484375</ele>
        <time>2026-08-05T09:26:11.000Z</time>
        <extensions>
          <ns3:TrackPointExtension>
            <ns3:hr>68</ns3:hr>
            <ns3:cad>48</ns3:cad>
          </ns3:TrackPointExtension>
        </extensions>
      </trkpt>
      <trkpt lat="43.4796255268156528472900390625" lon="1.4336232841014862060546875">
        <ele>239.399993896484375</ele>
        <time>2026-08-05T09:26:12.000Z</time>
        <extensions>
          <ns3:TrackPointExtension>
            <ns3:hr>68</ns3:hr>
            <ns3:cad>48</ns3:cad>
          </ns3:TrackPointExtension>
        </extensions>
      </trkpt>
      <trkpt lat="43.4796171449124813079833984375" lon="1.43362554721534252166748046875">
        <ele>239.1999969482421875</ele>
        <time>2026-08-05T09:26:13.000Z</time>
        <extensions>
          <ns3:TrackPointExtension>
            <ns3:hr>68</ns3:hr>
            <ns3:cad>48</ns3:cad>
          </ns3:TrackPointExtension>
        </extensions>
      </trkpt>
      <trkpt lat="43.47960666753351688385009765625" lon="1.4336207695305347442626953125">
        <ele>239.1999969482421875</ele>
        <time>2026-08-05T09:26:14.000Z</time>
        <extensions>
          <ns3:TrackPointExtension>
            <ns3:hr>68</ns3:hr>
            <ns3:cad>48</ns3:cad>
          </ns3:TrackPointExtension>
        </extensions>
      </trkpt>
      <trkpt lat="43.4795953519642353057861328125" lon="1.4336231164634227752685546875">
        <ele>239</ele>
        <time>2026-08-05T09:26:15.000Z</time>
        <extensions>
          <ns3:TrackPointExtension>
            <ns3:hr>69</ns3:hr>
            <ns3:cad>50</ns3:cad>
          </ns3:TrackPointExtension>
        </extensions>
      </trkpt>
      <trkpt lat="43.4795852936804294586181640625" lon="1.43362303264439105987548828125">
        <ele>238.8000030517578125</ele>
        <time>2026-08-05T09:26:16.000Z</time>
        <extensions>
          <ns3:TrackPointExtension>
            <ns3:hr>69</ns3:hr>
            <ns3:cad>52</ns3:cad>
          </ns3:TrackPointExtension>
        </extensions>
      </trkpt>
      <trkpt lat="43.47958068363368511199951171875" lon="1.43362102098762989044189453125">
        <ele>238.600006103515625</ele>
        <time>2026-08-05T09:26:17.000Z</time>
        <extensions>
          <ns3:TrackPointExtension>
            <ns3:hr>69</ns3:hr>
            <ns3:cad>52</ns3:cad>
          </ns3:TrackPointExtension>
        </extensions>
      </trkpt>
      <trkpt lat="43.47957749851047992706298828125" lon="1.43361699767410755157470703125">
        <ele>238.399993896484375</ele>
        <time>2026-08-05T09:26:18.000Z</time>
        <extensions>
          <ns3:TrackPointExtension>
            <ns3:hr>68</ns3:hr>
            <ns3:cad>51</ns3:cad>
          </ns3:TrackPointExtension>
        </extensions>
      </trkpt>
      <trkpt lat="43.47956928424537181854248046875" lon="1.43361322581768035888671875">
        <ele>238.1999969482421875</ele>
        <time>2026-08-05T09:26:19.000Z</time>
        <extensions>
          <ns3:TrackPointExtension>
            <ns3:hr>69</ns3:hr>
            <ns3:cad>51</ns3:cad>
          </ns3:TrackPointExtension>
        </extensions>
      </trkpt>
      <trkpt lat="43.479554615914821624755859375" lon="1.43361381255090236663818359375">
        <ele>238.1999969482421875</ele>
        <time>2026-08-05T09:26:20.000Z</time>
        <extensions>
          <ns3:TrackPointExtension>
            <ns3:hr>69</ns3:hr>
            <ns3:cad>51</ns3:cad>
          </ns3:TrackPointExtension>
        </extensions>
      </trkpt>
      <trkpt lat="43.479539863765239715576171875" lon="1.43361431546509265899658203125">
        <ele>238</ele>
        <time>2026-08-05T09:26:21.000Z</time>
        <extensions>
          <ns3:TrackPointExtension>
            <ns3:hr>69</ns3:hr>
            <ns3:cad>51</ns3:cad>
          </ns3:TrackPointExtension>
        </extensions>
      </trkpt>
      <trkpt lat="43.47953072749078273773193359375" lon="1.4336127229034900665283203125">
        <ele>237.8000030517578125</ele>
        <time>2026-08-05T09:26:22.000Z</time>
        <extensions>
          <ns3:TrackPointExtension>
            <ns3:hr>69</ns3:hr>
            <ns3:cad>51</ns3:cad>
          </ns3:TrackPointExtension>
        </extensions>
      </trkpt>
      <trkpt lat="43.47952477633953094482421875" lon="1.433613561093807220458984375">
        <ele>237.600006103515625</ele>
        <time>2026-08-05T09:26:23.000Z</time>
        <extensions>
          <ns3:TrackPointExtension>
            <ns3:hr>68</ns3:hr>
            <ns3:cad>50</ns3:cad>
          </ns3:TrackPointExtension>
        </extensions>
      </trkpt>
      <trkpt lat="43.47951413132250308990478515625" lon="1.43361096270382404327392578125">
        <ele>237.600006103515625</ele>
        <time>2026-08-05T09:26:24.000Z</time>
        <extensions>
          <ns3:TrackPointExtension>
            <ns3:hr>69</ns3:hr>
            <ns3:cad>48</ns3:cad>
          </ns3:TrackPointExtension>
        </extensions>
      </trkpt>
      <trkpt lat="43.47950507886707782745361328125" lon="1.43360660411417484283447265625">
        <ele>237.399993896484375</ele>
        <time>2026-08-05T09:26:25.000Z</time>
        <extensions>
          <ns3:TrackPointExtension>
            <ns3:hr>69</ns3:hr>
            <ns3:cad>48</ns3:cad>
          </ns3:TrackPointExtension>
        </extensions>
      </trkpt>
      <trkpt lat="43.47949468530714511871337890625" lon="1.4336043410003185272216796875">
        <ele>237.399993896484375</ele>
        <time>2026-08-05T09:26:26.000Z</time>
        <extensions>
          <ns3:TrackPointExtension>
            <ns3:hr>69</ns3:hr>
            <ns3:cad>48</ns3:cad>
          </ns3:TrackPointExtension>
        </extensions>
      </trkpt>
      <trkpt lat="43.47948647104203701019287109375" lon="1.4336076937615871429443359375">
        <ele>237.1999969482421875</ele>
        <time>2026-08-05T09:26:27.000Z</time>
        <extensions>
          <ns3:TrackPointExtension>
            <ns3:hr>70</ns3:hr>
            <ns3:cad>48</ns3:cad>
          </ns3:TrackPointExtension>
        </extensions>
      </trkpt>
      <trkpt lat="43.479480855166912078857421875" lon="1.4336066879332065582275390625">
        <ele>237.1999969482421875</ele>
        <time>2026-08-05T09:26:28.000Z</time>
        <extensions>
          <ns3:TrackPointExtension>
            <ns3:hr>70</ns3:hr>
            <ns3:cad>49</ns3:cad>
          </ns3:TrackPointExtension>
        </extensions>
      </trkpt>
      <trkpt lat="43.47947440110146999359130859375" lon="1.43360316753387451171875">
        <ele>237.1999969482421875</ele>
        <time>2026-08-05T09:26:29.000Z</time>
        <extensions>
          <ns3:TrackPointExtension>
            <ns3:hr>70</ns3:hr>
            <ns3:cad>50</ns3:cad>
          </ns3:TrackPointExtension>
        </extensions>
      </trkpt>
      <trkpt lat="43.4794662706553936004638671875" lon="1.43360123969614505767822265625">
        <ele>237</ele>
        <time>2026-08-05T09:26:30.000Z</time>
        <extensions>
          <ns3:TrackPointExtension>
            <ns3:hr>71</ns3:hr>
            <ns3:cad>50</ns3:cad>
          </ns3:TrackPointExtension>
        </extensions>
      </trkpt>
      <trkpt lat="43.47945763729512691497802734375" lon="1.4336006529629230499267578125">
        <ele>237</ele>
        <time>2026-08-05T09:26:31.000Z</time>
        <extensions>
          <ns3:TrackPointExtension>
            <ns3:hr>71</ns3:hr>
            <ns3:cad>50</ns3:cad>
          </ns3:TrackPointExtension>
        </extensions>
      </trkpt>
      <trkpt lat="43.4794531948864459991455078125" lon="1.433598138391971588134765625">
        <ele>236.8000030517578125</ele>
        <time>2026-08-05T09:26:32.000Z</time>
        <extensions>
          <ns3:TrackPointExtension>
            <ns3:hr>71</ns3:hr>
            <ns3:cad>47</ns3:cad>
          </ns3:TrackPointExtension>
        </extensions>
      </trkpt>
      <trkpt lat="43.47944573499262332916259765625" lon="1.433594115078449249267578125">
        <ele>236.600006103515625</ele>
        <time>2026-08-05T09:26:33.000Z</time>
        <extensions>
          <ns3:TrackPointExtension>
            <ns3:hr>72</ns3:hr>
            <ns3:cad>47</ns3:cad>
          </ns3:TrackPointExtension>
        </extensions>
      </trkpt>
      <trkpt lat="43.4794411249458789825439453125" lon="1.43358749337494373321533203125">
        <ele>236.600006103515625</ele>
        <time>2026-08-05T09:26:34.000Z</time>
        <extensions>
          <ns3:TrackPointExtension>
            <ns3:hr>71</ns3:hr>
            <ns3:cad>45</ns3:cad>
          </ns3:TrackPointExtension>
        </extensions>
      </trkpt>
      <trkpt lat="43.479442298412322998046875" lon="1.43358296714723110198974609375">
        <ele>236.399993896484375</ele>
        <time>2026-08-05T09:26:35.000Z</time>
        <extensions>
          <ns3:TrackPointExtension>
            <ns3:hr>71</ns3:hr>
            <ns3:cad>44</ns3:cad>
          </ns3:TrackPointExtension>
        </extensions>
      </trkpt>
      <trkpt lat="43.4794434718787670135498046875" lon="1.43358078785240650177001953125">
        <ele>236.399993896484375</ele>
        <time>2026-08-05T09:26:36.000Z</time>
        <extensions>
          <ns3:TrackPointExtension>
            <ns3:hr>72</ns3:hr>
            <ns3:cad>0</ns3:cad>
          </ns3:TrackPointExtension>
        </extensions>
      </trkpt>
      <trkpt lat="43.479442298412322998046875" lon="1.4335771836340427398681640625">
        <ele>236.399993896484375</ele>
        <time>2026-08-05T09:26:37.000Z</time>
        <extensions>
          <ns3:TrackPointExtension>
            <ns3:hr>71</ns3:hr>
            <ns3:cad>0</ns3:cad>
          </ns3:TrackPointExtension>
        </extensions>
      </trkpt>
      <trkpt lat="43.47944020293653011322021484375" lon="1.43357374705374240875244140625">
        <ele>236.399993896484375</ele>
        <time>2026-08-05T09:26:38.000Z</time>
        <extensions>
          <ns3:TrackPointExtension>
            <ns3:hr>71</ns3:hr>
            <ns3:cad>0</ns3:cad>
          </ns3:TrackPointExtension>
        </extensions>
      </trkpt>
      <trkpt lat="43.4794382750988006591796875" lon="1.43356871791183948516845703125">
        <ele>236.399993896484375</ele>
        <time>2026-08-05T09:26:39.000Z</time>
        <extensions>
          <ns3:TrackPointExtension>
            <ns3:hr>71</ns3:hr>
            <ns3:cad>0</ns3:cad>
          </ns3:TrackPointExtension>
        </extensions>
      </trkpt>
      <trkpt lat="43.47943886183202266693115234375" lon="1.4335701428353786468505859375">
        <ele>236.399993896484375</ele>
        <time>2026-08-05T09:26:40.000Z</time>
        <extensions>
          <ns3:TrackPointExtension>
            <ns3:hr>71</ns3:hr>
            <ns3:cad>0</ns3:cad>
          </ns3:TrackPointExtension>
        </extensions>
      </trkpt>
      <trkpt lat="43.4794382750988006591796875" lon="1.43357106484472751617431640625">
        <ele>236.399993896484375</ele>
        <time>2026-08-05T09:26:41.000Z</time>
        <extensions>
          <ns3:TrackPointExtension>
            <ns3:hr>71</ns3:hr>
            <ns3:cad>0</ns3:cad>
          </ns3:TrackPointExtension>
        </extensions>
      </trkpt>
      <trkpt lat="43.47943483851850032806396484375" lon="1.43356754444539546966552734375">
        <ele>236.399993896484375</ele>
        <time>2026-08-05T09:26:42.000Z</time>
        <extensions>
          <ns3:TrackPointExtension>
            <ns3:hr>71</ns3:hr>
            <ns3:cad>0</ns3:cad>
          </ns3:TrackPointExtension>
        </extensions>
      </trkpt>
      <trkpt lat="43.4794337488710880279541015625" lon="1.43356771208345890045166015625">
        <ele>236.399993896484375</ele>
        <time>2026-08-05T09:26:43.000Z</time>
        <extensions>
          <ns3:TrackPointExtension>
            <ns3:hr>71</ns3:hr>
            <ns3:cad>0</ns3:cad>
          </ns3:TrackPointExtension>
        </extensions>
      </trkpt>
      <trkpt lat="43.4794320724904537200927734375" lon="1.43356922082602977752685546875">
        <ele>236.399993896484375</ele>
        <time>2026-08-05T09:26:44.000Z</time>
        <extensions>
          <ns3:TrackPointExtension>
            <ns3:hr>71</ns3:hr>
            <ns3:cad>0</ns3:cad>
          </ns3:TrackPointExtension>
        </extensions>
      </trkpt>
      <trkpt lat="43.4794330783188343048095703125" lon="1.43357056193053722381591796875">
        <ele>236.399993896484375</ele>
        <time>2026-08-05T09:26:45.000Z</time>
        <extensions>
          <ns3:TrackPointExtension>
            <ns3:hr>70</ns3:hr>
            <ns3:cad>0</ns3:cad>
          </ns3:TrackPointExtension>
        </extensions>
      </trkpt>
      <trkpt lat="43.4794350899755954742431640625" lon="1.433572657406330108642578125">
        <ele>236.399993896484375</ele>
        <time>2026-08-05T09:26:46.000Z</time>
        <extensions>
          <ns3:TrackPointExtension>
            <ns3:hr>69</ns3:hr>
            <ns3:cad>0</ns3:cad>
          </ns3:TrackPointExtension>
        </extensions>
      </trkpt>
      <trkpt lat="43.4794364310801029205322265625" lon="1.43357290886342525482177734375">
        <ele>236.399993896484375</ele>
        <time>2026-08-05T09:26:47.000Z</time>
        <extensions>
          <ns3:TrackPointExtension>
            <ns3:hr>68</ns3:hr>
            <ns3:cad>0</ns3:cad>
          </ns3:TrackPointExtension>
        </extensions>
      </trkpt>
      <trkpt lat="43.479431904852390289306640625" lon="1.4335781894624233245849609375">
        <ele>236.399993896484375</ele>
        <time>2026-08-05T09:26:48.000Z</time>
        <extensions>
          <ns3:TrackPointExtension>
            <ns3:hr>68</ns3:hr>
            <ns3:cad>0</ns3:cad>
          </ns3:TrackPointExtension>
        </extensions>
      </trkpt>
      <trkpt lat="43.4794257022440433502197265625" lon="1.43357894383370876312255859375">
        <ele>236.399993896484375</ele>
        <time>2026-08-05T09:26:49.000Z</time>
        <extensions>
          <ns3:TrackPointExtension>
            <ns3:hr>68</ns3:hr>
            <ns3:cad>0</ns3:cad>
          </ns3:TrackPointExtension>
        </extensions>
      </trkpt>
      <trkpt lat="43.47942243330180644989013671875" lon="1.43357492052018642425537109375">
        <ele>236.399993896484375</ele>
        <time>2026-08-05T09:26:50.000Z</time>
        <extensions>
          <ns3:TrackPointExtension>
            <ns3:hr>68</ns3:hr>
            <ns3:cad>0</ns3:cad>
          </ns3:TrackPointExtension>
        </extensions>
      </trkpt>
      <trkpt lat="43.479415811598300933837890625" lon="1.43357190303504467010498046875">
        <ele>236.399993896484375</ele>
        <time>2026-08-05T09:26:51.000Z</time>
        <extensions>
          <ns3:TrackPointExtension>
            <ns3:hr>69</ns3:hr>
            <ns3:cad>0</ns3:cad>
          </ns3:TrackPointExtension>
        </extensions>
      </trkpt>
      <trkpt lat="43.47940650768578052520751953125" lon="1.433570645749568939208984375">
        <ele>236.1999969482421875</ele>
        <time>2026-08-05T09:26:52.000Z</time>
        <extensions>
          <ns3:TrackPointExtension>
            <ns3:hr>68</ns3:hr>
            <ns3:cad>0</ns3:cad>
          </ns3:TrackPointExtension>
        </extensions>
      </trkpt>
      <trkpt lat="43.479401059448719024658203125" lon="1.43356603570282459259033203125">
        <ele>236.1999969482421875</ele>
        <time>2026-08-05T09:26:53.000Z</time>
        <extensions>
          <ns3:TrackPointExtension>
            <ns3:hr>68</ns3:hr>
            <ns3:cad>0</ns3:cad>
          </ns3:TrackPointExtension>
        </extensions>
      </trkpt>
      <trkpt lat="43.479398377239704132080078125" lon="1.43356150947511196136474609375">
        <ele>236.1999969482421875</ele>
        <time>2026-08-05T09:26:54.000Z</time>
        <extensions>
          <ns3:TrackPointExtension>
            <ns3:hr>68</ns3:hr>
            <ns3:cad>0</ns3:cad>
          </ns3:TrackPointExtension>
        </extensions>
      </trkpt>
      <trkpt lat="43.47939393483102321624755859375" lon="1.43355865962803363800048828125">
        <ele>236</ele>
        <time>2026-08-05T09:26:55.000Z</time>
        <extensions>
          <ns3:TrackPointExtension>
            <ns3:hr>69</ns3:hr>
            <ns3:cad>0</ns3:cad>
          </ns3:TrackPointExtension>
        </extensions>
      </trkpt>
      <trkpt lat="43.4793846309185028076171875" lon="1.4335560612380504608154296875">
        <ele>236</ele>
        <time>2026-08-05T09:26:56.000Z</time>
        <extensions>
          <ns3:TrackPointExtension>
            <ns3:hr>68</ns3:hr>
            <ns3:cad>46</ns3:cad>
          </ns3:TrackPointExtension>
        </extensions>
      </trkpt>
      <trkpt lat="43.4793774224817752838134765625" lon="1.433551870286464691162109375">
        <ele>236</ele>
        <time>2026-08-05T09:26:57.000Z</time>
        <extensions>
          <ns3:TrackPointExtension>
            <ns3:hr>69</ns3:hr>
            <ns3:cad>46</ns3:cad>
          </ns3:TrackPointExtension>
        </extensions>
      </trkpt>
      <trkpt lat="43.47937054932117462158203125" lon="1.43354776315391063690185546875">
        <ele>235.8000030517578125</ele>
        <time>2026-08-05T09:26:58.000Z</time>
        <extensions>
          <ns3:TrackPointExtension>
            <ns3:hr>69</ns3:hr>
            <ns3:cad>46</ns3:cad>
          </ns3:TrackPointExtension>
        </extensions>
      </trkpt>
      <trkpt lat="43.47936510108411312103271484375" lon="1.43354491330683231353759765625">
        <ele>235.8000030517578125</ele>
        <time>2026-08-05T09:26:59.000Z</time>
        <extensions>
          <ns3:TrackPointExtension>
            <ns3:hr>68</ns3:hr>
            <ns3:cad>46</ns3:cad>
          </ns3:TrackPointExtension>
        </extensions>
      </trkpt>
      <trkpt lat="43.47935956902801990509033203125" lon="1.4335426501929759979248046875">
        <ele>235.600006103515625</ele>
        <time>2026-08-05T09:27:00.000Z</time>
        <extensions>
          <ns3:TrackPointExtension>
            <ns3:hr>68</ns3:hr>
            <ns3:cad>44</ns3:cad>
          </ns3:TrackPointExtension>
        </extensions>
      </trkpt>
      <trkpt lat="43.4793506003916263580322265625" lon="1.43353401683270931243896484375">
        <ele>235.600006103515625</ele>
        <time>2026-08-05T09:27:01.000Z</time>
        <extensions>
          <ns3:TrackPointExtension>
            <ns3:hr>68</ns3:hr>
            <ns3:cad>44</ns3:cad>
          </ns3:TrackPointExtension>
        </extensions>
      </trkpt>
      <trkpt lat="43.4793438948690891265869140625" lon="1.43352848477661609649658203125">
        <ele>235.399993896484375</ele>
        <time>2026-08-05T09:27:02.000Z</time>
        <extensions>
          <ns3:TrackPointExtension>
            <ns3:hr>68</ns3:hr>
            <ns3:cad>43</ns3:cad>
          </ns3:TrackPointExtension>
        </extensions>
      </trkpt>
      <trkpt lat="43.47933593206107616424560546875" lon="1.43352395854890346527099609375">
        <ele>235.399993896484375</ele>
        <time>2026-08-05T09:27:03.000Z</time>
        <extensions>
          <ns3:TrackPointExtension>
            <ns3:hr>68</ns3:hr>
            <ns3:cad>43</ns3:cad>
          </ns3:TrackPointExtension>
        </extensions>
      </trkpt>
      <trkpt lat="43.4793264605104923248291015625" lon="1.43352337181568145751953125">
        <ele>235.1999969482421875</ele>
        <time>2026-08-05T09:27:04.000Z</time>
        <extensions>
          <ns3:TrackPointExtension>
            <ns3:hr>68</ns3:hr>
            <ns3:cad>44</ns3:cad>
          </ns3:TrackPointExtension>
        </extensions>
      </trkpt>
      <trkpt lat="43.479317910969257354736328125" lon="1.43352203071117401123046875">
        <ele>235.1999969482421875</ele>
        <time>2026-08-05T09:27:05.000Z</time>
        <extensions>
          <ns3:TrackPointExtension>
            <ns3:hr>68</ns3:hr>
            <ns3:cad>44</ns3:cad>
          </ns3:TrackPointExtension>
        </extensions>
      </trkpt>
      <trkpt lat="43.47931128926575183868408203125" lon="1.43352060578763484954833984375">
        <ele>235</ele>
        <time>2026-08-05T09:27:06.000Z</time>
        <extensions>
          <ns3:TrackPointExtension>
            <ns3:hr>69</ns3:hr>
            <ns3:cad>45</ns3:cad>
          </ns3:TrackPointExtension>
        </extensions>
      </trkpt>
      <trkpt lat="43.47930626012384891510009765625" lon="1.4335168339312076568603515625">
        <ele>235</ele>
        <time>2026-08-05T09:27:07.000Z</time>
        <extensions>
          <ns3:TrackPointExtension>
            <ns3:hr>69</ns3:hr>
            <ns3:cad>46</ns3:cad>
          </ns3:TrackPointExtension>
        </extensions>
      </trkpt>
      <trkpt lat="43.479301147162914276123046875" lon="1.43351507373154163360595703125">
        <ele>234.8000030517578125</ele>
        <time>2026-08-05T09:27:08.000Z</time>
        <extensions>
          <ns3:TrackPointExtension>
            <ns3:hr>69</ns3:hr>
            <ns3:cad>46</ns3:cad>
          </ns3:TrackPointExtension>
        </extensions>
      </trkpt>
      <trkpt lat="43.47929603420197963714599609375" lon="1.433514989912509918212890625">
        <ele>234.8000030517578125</ele>
        <time>2026-08-05T09:27:09.000Z</time>
        <extensions>
          <ns3:TrackPointExtension>
            <ns3:hr>68</ns3:hr>
            <ns3:cad>46</ns3:cad>
          </ns3:TrackPointExtension>
        </extensions>
      </trkpt>
      <trkpt lat="43.47929150797426700592041015625" lon="1.43351322971284389495849609375">
        <ele>234.600006103515625</ele>
        <time>2026-08-05T09:27:10.000Z</time>
        <extensions>
          <ns3:TrackPointExtension>
            <ns3:hr>69</ns3:hr>
            <ns3:cad>45</ns3:cad>
          </ns3:TrackPointExtension>
        </extensions>
      </trkpt>
      <trkpt lat="43.4792868979275226593017578125" lon="1.43351272679865360260009765625">
        <ele>234.600006103515625</ele>
        <time>2026-08-05T09:27:11.000Z</time>
        <extensions>
          <ns3:TrackPointExtension>
            <ns3:hr>70</ns3:hr>
            <ns3:cad>45</ns3:cad>
          </ns3:TrackPointExtension>
        </extensions>
      </trkpt>
      <trkpt lat="43.4792791865766048431396484375" lon="1.433512307703495025634765625">
        <ele>234.399993896484375</ele>
        <time>2026-08-05T09:27:12.000Z</time>
        <extensions>
          <ns3:TrackPointExtension>
            <ns3:hr>71</ns3:hr>
            <ns3:cad>46</ns3:cad>
          </ns3:TrackPointExtension>
        </extensions>
      </trkpt>
      <trkpt lat="43.47927222959697246551513671875" lon="1.43351138569414615631103515625">
        <ele>234.399993896484375</ele>
        <time>2026-08-05T09:27:13.000Z</time>
        <extensions>
          <ns3:TrackPointExtension>
            <ns3:hr>71</ns3:hr>
            <ns3:cad>46</ns3:cad>
          </ns3:TrackPointExtension>
        </extensions>
      </trkpt>
      <trkpt lat="43.47926384769380092620849609375" lon="1.43350820057094097137451171875">
        <ele>234.399993896484375</ele>
        <time>2026-08-05T09:27:14.000Z</time>
        <extensions>
          <ns3:TrackPointExtension>
            <ns3:hr>71</ns3:hr>
            <ns3:cad>46</ns3:cad>
          </ns3:TrackPointExtension>
        </extensions>
      </trkpt>
      <trkpt lat="43.47925663925707340240478515625" lon="1.43350468017160892486572265625">
        <ele>234.1999969482421875</ele>
        <time>2026-08-05T09:27:15.000Z</time>
        <extensions>
          <ns3:TrackPointExtension>
            <ns3:hr>71</ns3:hr>
            <ns3:cad>46</ns3:cad>
          </ns3:TrackPointExtension>
        </extensions>
      </trkpt>
      <trkpt lat="43.4792478382587432861328125" lon="1.4335014112293720245361328125">
        <ele>234</ele>
        <time>2026-08-05T09:27:16.000Z</time>
        <extensions>
          <ns3:TrackPointExtension>
            <ns3:hr>71</ns3:hr>
            <ns3:cad>46</ns3:cad>
          </ns3:TrackPointExtension>
        </extensions>
      </trkpt>
      <trkpt lat="43.47924180328845977783203125" lon="1.4334987290203571319580078125">
        <ele>234</ele>
        <time>2026-08-05T09:27:17.000Z</time>
        <extensions>
          <ns3:TrackPointExtension>
            <ns3:hr>70</ns3:hr>
            <ns3:cad>46</ns3:cad>
          </ns3:TrackPointExtension>
        </extensions>
      </trkpt>
      <trkpt lat="43.479235433042049407958984375" lon="1.43349596299231052398681640625">
        <ele>233.8000030517578125</ele>
        <time>2026-08-05T09:27:18.000Z</time>
        <extensions>
          <ns3:TrackPointExtension>
            <ns3:hr>70</ns3:hr>
            <ns3:cad>46</ns3:cad>
          </ns3:TrackPointExtension>
        </extensions>
      </trkpt>
      <trkpt lat="43.4792295657098293304443359375" lon="1.43349596299231052398681640625">
        <ele>233.600006103515625</ele>
        <time>2026-08-05T09:27:19.000Z</time>
        <extensions>
          <ns3:TrackPointExtension>
            <ns3:hr>70</ns3:hr>
            <ns3:cad>48</ns3:cad>
          </ns3:TrackPointExtension>
        </extensions>
      </trkpt>
      <trkpt lat="43.4792225249111652374267578125" lon="1.43349478952586650848388671875">
        <ele>233.600006103515625</ele>
        <time>2026-08-05T09:27:20.000Z</time>
        <extensions>
          <ns3:TrackPointExtension>
            <ns3:hr>70</ns3:hr>
            <ns3:cad>48</ns3:cad>
          </ns3:TrackPointExtension>
        </extensions>
      </trkpt>
      <trkpt lat="43.47922042943537235260009765625" lon="1.43349177204072475433349609375">
        <ele>233.399993896484375</ele>
        <time>2026-08-05T09:27:21.000Z</time>
        <extensions>
          <ns3:TrackPointExtension>
            <ns3:hr>69</ns3:hr>
            <ns3:cad>47</ns3:cad>
          </ns3:TrackPointExtension>
        </extensions>
      </trkpt>
      <trkpt lat="43.47921757958829402923583984375" lon="1.433492861688137054443359375">
        <ele>233.399993896484375</ele>
        <time>2026-08-05T09:27:22.000Z</time>
        <extensions>
          <ns3:TrackPointExtension>
            <ns3:hr>69</ns3:hr>
            <ns3:cad>47</ns3:cad>
          </ns3:TrackPointExtension>
        </extensions>
      </trkpt>
      <trkpt lat="43.47921154461801052093505859375" lon="1.43349009566009044647216796875">
        <ele>233.399993896484375</ele>
        <time>2026-08-05T09:27:23.000Z</time>
        <extensions>
          <ns3:TrackPointExtension>
            <ns3:hr>69</ns3:hr>
            <ns3:cad>0</ns3:cad>
          </ns3:TrackPointExtension>
        </extensions>
      </trkpt>
      <trkpt lat="43.47920517437160015106201171875" lon="1.43348875455558300018310546875">
        <ele>233.1999969482421875</ele>
        <time>2026-08-05T09:27:24.000Z</time>
        <extensions>
          <ns3:TrackPointExtension>
            <ns3:hr>68</ns3:hr>
            <ns3:cad>0</ns3:cad>
          </ns3:TrackPointExtension>
        </extensions>
      </trkpt>
      <trkpt lat="43.47919746302068233489990234375" lon="1.43348808400332927703857421875">
        <ele>233.1999969482421875</ele>
        <time>2026-08-05T09:27:25.000Z</time>
        <extensions>
          <ns3:TrackPointExtension>
            <ns3:hr>68</ns3:hr>
            <ns3:cad>51</ns3:cad>
          </ns3:TrackPointExtension>
        </extensions>
      </trkpt>
      <trkpt lat="43.47918706946074962615966796875" lon="1.4334883354604244232177734375">
        <ele>233</ele>
        <time>2026-08-05T09:27:26.000Z</time>
        <extensions>
          <ns3:TrackPointExtension>
            <ns3:hr>68</ns3:hr>
            <ns3:cad>51</ns3:cad>
          </ns3:TrackPointExtension>
        </extensions>
      </trkpt>
      <trkpt lat="43.47917751409113407135009765625" lon="1.4334863238036632537841796875">
        <ele>233</ele>
        <time>2026-08-05T09:27:27.000Z</time>
        <extensions>
          <ns3:TrackPointExtension>
            <ns3:hr>68</ns3:hr>
            <ns3:cad>51</ns3:cad>
          </ns3:TrackPointExtension>
        </extensions>
      </trkpt>
      <trkpt lat="43.4791682101786136627197265625" lon="1.4334849826991558074951171875">
        <ele>232.8000030517578125</ele>
        <time>2026-08-05T09:27:28.000Z</time>
        <extensions>
          <ns3:TrackPointExtension>
            <ns3:hr>68</ns3:hr>
            <ns3:cad>51</ns3:cad>
          </ns3:TrackPointExtension>
        </extensions>
      </trkpt>
      <trkpt lat="43.47916066646575927734375" lon="1.43348339013755321502685546875">
        <ele>232.600006103515625</ele>
        <time>2026-08-05T09:27:29.000Z</time>
        <extensions>
          <ns3:TrackPointExtension>
            <ns3:hr>68</ns3:hr>
            <ns3:cad>51</ns3:cad>
          </ns3:TrackPointExtension>
        </extensions>
      </trkpt>
      <trkpt lat="43.479152284562587738037109375" lon="1.4334812946617603302001953125">
        <ele>232.600006103515625</ele>
        <time>2026-08-05T09:27:30.000Z</time>
        <extensions>
          <ns3:TrackPointExtension>
            <ns3:hr>68</ns3:hr>
            <ns3:cad>50</ns3:cad>
          </ns3:TrackPointExtension>
        </extensions>
      </trkpt>
      <trkpt lat="43.47914616577327251434326171875" lon="1.43347869627177715301513671875">
        <ele>232.399993896484375</ele>
        <time>2026-08-05T09:27:31.000Z</time>
        <extensions>
          <ns3:TrackPointExtension>
            <ns3:hr>67</ns3:hr>
            <ns3:cad>49</ns3:cad>
          </ns3:TrackPointExtension>
        </extensions>
      </trkpt>
      <trkpt lat="43.47913962788879871368408203125" lon="1.43347735516726970672607421875">
        <ele>232.399993896484375</ele>
        <time>2026-08-05T09:27:32.000Z</time>
        <extensions>
          <ns3:TrackPointExtension>
            <ns3:hr>68</ns3:hr>
            <ns3:cad>48</ns3:cad>
          </ns3:TrackPointExtension>
        </extensions>
      </trkpt>
      <trkpt lat="43.4791323356330394744873046875" lon="1.433476768434047698974609375">
        <ele>232.1999969482421875</ele>
        <time>2026-08-05T09:27:33.000Z</time>
        <extensions>
          <ns3:TrackPointExtension>
            <ns3:hr>68</ns3:hr>
            <ns3:cad>48</ns3:cad>
          </ns3:TrackPointExtension>
        </extensions>
      </trkpt>
      <trkpt lat="43.47912470810115337371826171875" lon="1.4334755949676036834716796875">
        <ele>232.1999969482421875</ele>
        <time>2026-08-05T09:27:34.000Z</time>
        <extensions>
          <ns3:TrackPointExtension>
            <ns3:hr>68</ns3:hr>
            <ns3:cad>47</ns3:cad>
          </ns3:TrackPointExtension>
        </extensions>
      </trkpt>
      <trkpt lat="43.47911976277828216552734375" lon="1.433471739292144775390625">
        <ele>232</ele>
        <time>2026-08-05T09:27:35.000Z</time>
        <extensions>
          <ns3:TrackPointExtension>
            <ns3:hr>68</ns3:hr>
            <ns3:cad>44</ns3:cad>
          </ns3:TrackPointExtension>
        </extensions>
      </trkpt>
      <trkpt lat="43.47911682911217212677001953125" lon="1.43346662633121013641357421875">
        <ele>231.8000030517578125</ele>
        <time>2026-08-05T09:27:36.000Z</time>
        <extensions>
          <ns3:TrackPointExtension>
            <ns3:hr>68</ns3:hr>
            <ns3:cad>44</ns3:cad>
          </ns3:TrackPointExtension>
        </extensions>
      </trkpt>
      <trkpt lat="43.47911112941801548004150390625" lon="1.43346570432186126708984375">
        <ele>231.8000030517578125</ele>
        <time>2026-08-05T09:27:37.000Z</time>
        <extensions>
          <ns3:TrackPointExtension>
            <ns3:hr>68</ns3:hr>
            <ns3:cad>44</ns3:cad>
          </ns3:TrackPointExtension>
        </extensions>
      </trkpt>
      <trkpt lat="43.4791021607816219329833984375" lon="1.4334668777883052825927734375">
        <ele>231.8000030517578125</ele>
        <time>2026-08-05T09:27:38.000Z</time>
        <extensions>
          <ns3:TrackPointExtension>
            <ns3:hr>68</ns3:hr>
            <ns3:cad>46</ns3:cad>
          </ns3:TrackPointExtension>
        </extensions>
      </trkpt>
      <trkpt lat="43.47909855656325817108154296875" lon="1.4334645308554172515869140625">
        <ele>231.600006103515625</ele>
        <time>2026-08-05T09:27:39.000Z</time>
        <extensions>
          <ns3:TrackPointExtension>
            <ns3:hr>68</ns3:hr>
            <ns3:cad>46</ns3:cad>
          </ns3:TrackPointExtension>
        </extensions>
      </trkpt>
      <trkpt lat="43.47909403033554553985595703125" lon="1.433460675179958343505859375">
        <ele>231.600006103515625</ele>
        <time>2026-08-05T09:27:40.000Z</time>
        <extensions>
          <ns3:TrackPointExtension>
            <ns3:hr>67</ns3:hr>
            <ns3:cad>46</ns3:cad>
          </ns3:TrackPointExtension>
        </extensions>
      </trkpt>
      <trkpt lat="43.47908698953688144683837890625" lon="1.433457992970943450927734375">
        <ele>231.399993896484375</ele>
        <time>2026-08-05T09:27:41.000Z</time>
        <extensions>
          <ns3:TrackPointExtension>
            <ns3:hr>68</ns3:hr>
            <ns3:cad>45</ns3:cad>
          </ns3:TrackPointExtension>
        </extensions>
      </trkpt>
      <trkpt lat="43.47907944582402706146240234375" lon="1.433457992970943450927734375">
        <ele>231.399993896484375</ele>
        <time>2026-08-05T09:27:42.000Z</time>
        <extensions>
          <ns3:TrackPointExtension>
            <ns3:hr>67</ns3:hr>
            <ns3:cad>44</ns3:cad>
          </ns3:TrackPointExtension>
        </extensions>
      </trkpt>
      <trkpt lat="43.4790696389973163604736328125" lon="1.4334601722657680511474609375">
        <ele>231.1999969482421875</ele>
        <time>2026-08-05T09:27:43.000Z</time>
        <extensions>
          <ns3:TrackPointExtension>
            <ns3:hr>67</ns3:hr>
            <ns3:cad>44</ns3:cad>
          </ns3:TrackPointExtension>
        </extensions>
      </trkpt>
      <trkpt lat="43.4790619276463985443115234375" lon="1.4334595017135143280029296875">
        <ele>231</ele>
        <time>2026-08-05T09:27:44.000Z</time>
        <extensions>
          <ns3:TrackPointExtension>
            <ns3:hr>68</ns3:hr>
            <ns3:cad>0</ns3:cad>
          </ns3:TrackPointExtension>
        </extensions>
      </trkpt>
      <trkpt lat="43.47905463539063930511474609375" lon="1.4334581606090068817138671875">
        <ele>231</ele>
        <time>2026-08-05T09:27:45.000Z</time>
        <extensions>
          <ns3:TrackPointExtension>
            <ns3:hr>68</ns3:hr>
            <ns3:cad>0</ns3:cad>
          </ns3:TrackPointExtension>
        </extensions>
      </trkpt>
      <trkpt lat="43.4790501929819583892822265625" lon="1.43345631659030914306640625">
        <ele>230.8000030517578125</ele>
        <time>2026-08-05T09:27:46.000Z</time>
        <extensions>
          <ns3:TrackPointExtension>
            <ns3:hr>68</ns3:hr>
            <ns3:cad>0</ns3:cad>
          </ns3:TrackPointExtension>
        </extensions>
      </trkpt>
      <trkpt lat="43.47904440946877002716064453125" lon="1.4334538020193576812744140625">
        <ele>230.600006103515625</ele>
        <time>2026-08-05T09:27:47.000Z</time>
        <extensions>
          <ns3:TrackPointExtension>
            <ns3:hr>69</ns3:hr>
            <ns3:cad>47</ns3:cad>
          </ns3:TrackPointExtension>
        </extensions>
      </trkpt>
      <trkpt lat="43.4790377877652645111083984375" lon="1.4334481023252010345458984375">
        <ele>230.600006103515625</ele>
        <time>2026-08-05T09:27:48.000Z</time>
        <extensions>
          <ns3:TrackPointExtension>
            <ns3:hr>70</ns3:hr>
            <ns3:cad>47</ns3:cad>
          </ns3:TrackPointExtension>
        </extensions>
      </trkpt>
      <trkpt lat="43.47903016023337841033935546875" lon="1.4334450848400592803955078125">
        <ele>230.399993896484375</ele>
        <time>2026-08-05T09:27:49.000Z</time>
        <extensions>
          <ns3:TrackPointExtension>
            <ns3:hr>72</ns3:hr>
            <ns3:cad>48</ns3:cad>
          </ns3:TrackPointExtension>
        </extensions>
      </trkpt>
      <trkpt lat="43.4790225327014923095703125" lon="1.43343980424106121063232421875">
        <ele>230.1999969482421875</ele>
        <time>2026-08-05T09:27:50.000Z</time>
        <extensions>
          <ns3:TrackPointExtension>
            <ns3:hr>72</ns3:hr>
            <ns3:cad>48</ns3:cad>
          </ns3:TrackPointExtension>
        </extensions>
      </trkpt>
      <trkpt lat="43.4790153242647647857666015625" lon="1.433433853089809417724609375">
        <ele>230</ele>
        <time>2026-08-05T09:27:51.000Z</time>
        <extensions>
          <ns3:TrackPointExtension>
            <ns3:hr>72</ns3:hr>
            <ns3:cad>48</ns3:cad>
          </ns3:TrackPointExtension>
        </extensions>
      </trkpt>
      <trkpt lat="43.47900870256125926971435546875" lon="1.43342974595725536346435546875">
        <ele>229.8000030517578125</ele>
        <time>2026-08-05T09:27:52.000Z</time>
        <extensions>
          <ns3:TrackPointExtension>
            <ns3:hr>72</ns3:hr>
            <ns3:cad>48</ns3:cad>
          </ns3:TrackPointExtension>
        </extensions>
      </trkpt>
      <trkpt lat="43.47900082357227802276611328125" lon="1.43342538736760616302490234375">
        <ele>229.8000030517578125</ele>
        <time>2026-08-05T09:27:53.000Z</time>
        <extensions>
          <ns3:TrackPointExtension>
            <ns3:hr>71</ns3:hr>
            <ns3:cad>0</ns3:cad>
          </ns3:TrackPointExtension>
        </extensions>
      </trkpt>
      <trkpt lat="43.478995375335216522216796875" lon="1.433421783149242401123046875">
        <ele>229.600006103515625</ele>
        <time>2026-08-05T09:27:54.000Z</time>
        <extensions>
          <ns3:TrackPointExtension>
            <ns3:hr>71</ns3:hr>
            <ns3:cad>0</ns3:cad>
          </ns3:TrackPointExtension>
        </extensions>
      </trkpt>
      <trkpt lat="43.47898908890783786773681640625" lon="1.433417759835720062255859375">
        <ele>229.399993896484375</ele>
        <time>2026-08-05T09:27:55.000Z</time>
        <extensions>
          <ns3:TrackPointExtension>
            <ns3:hr>71</ns3:hr>
            <ns3:cad>0</ns3:cad>
          </ns3:TrackPointExtension>
        </extensions>
      </trkpt>
      <trkpt lat="43.47898238338530063629150390625" lon="1.43341449089348316192626953125">
        <ele>229.399993896484375</ele>
        <time>2026-08-05T09:27:56.000Z</time>
        <extensions>
          <ns3:TrackPointExtension>
            <ns3:hr>71</ns3:hr>
            <ns3:cad>0</ns3:cad>
          </ns3:TrackPointExtension>
        </extensions>
      </trkpt>
      <trkpt lat="43.47897567786276340484619140625" lon="1.4334087073802947998046875">
        <ele>229.1999969482421875</ele>
        <time>2026-08-05T09:27:57.000Z</time>
        <extensions>
          <ns3:TrackPointExtension>
            <ns3:hr>71</ns3:hr>
            <ns3:cad>0</ns3:cad>
          </ns3:TrackPointExtension>
        </extensions>
      </trkpt>
      <trkpt lat="43.478970564901828765869140625" lon="1.433406360447406768798828125">
        <ele>229</ele>
        <time>2026-08-05T09:27:58.000Z</time>
        <extensions>
          <ns3:TrackPointExtension>
            <ns3:hr>72</ns3:hr>
            <ns3:cad>0</ns3:cad>
          </ns3:TrackPointExtension>
        </extensions>
      </trkpt>
      <trkpt lat="43.4789650328457355499267578125" lon="1.43340342678129673004150390625">
        <ele>229</ele>
        <time>2026-08-05T09:27:59.000Z</time>
        <extensions>
          <ns3:TrackPointExtension>
            <ns3:hr>71</ns3:hr>
            <ns3:cad>0</ns3:cad>
          </ns3:TrackPointExtension>
        </extensions>
      </trkpt>
      <trkpt lat="43.47896008752286434173583984375" lon="1.433401666581630706787109375">
        <ele>228.8000030517578125</ele>
        <time>2026-08-05T09:28:00.000Z</time>
        <extensions>
          <ns3:TrackPointExtension>
            <ns3:hr>71</ns3:hr>
            <ns3:cad>0</ns3:cad>
          </ns3:TrackPointExtension>
        </extensions>
      </trkpt>
      <trkpt lat="43.4789539687335491180419921875" lon="1.433402001857757568359375">
        <ele>228.600006103515625</ele>
        <time>2026-08-05T09:28:01.000Z</time>
        <extensions>
          <ns3:TrackPointExtension>
            <ns3:hr>71</ns3:hr>
            <ns3:cad>0</ns3:cad>
          </ns3:TrackPointExtension>
        </extensions>
      </trkpt>
      <trkpt lat="43.478949107229709625244140625" lon="1.43340745009481906890869140625">
        <ele>228.600006103515625</ele>
        <time>2026-08-05T09:28:02.000Z</time>
        <extensions>
          <ns3:TrackPointExtension>
            <ns3:hr>70</ns3:hr>
            <ns3:cad>0</ns3:cad>
          </ns3:TrackPointExtension>
        </extensions>
      </trkpt>
      <trkpt lat="43.4789435751736164093017578125" lon="1.433406360447406768798828125">
        <ele>228.399993896484375</ele>
        <time>2026-08-05T09:28:03.000Z</time>
        <extensions>
          <ns3:TrackPointExtension>
            <ns3:hr>70</ns3:hr>
            <ns3:cad>0</ns3:cad>
          </ns3:TrackPointExtension>
        </extensions>
      </trkpt>
      <trkpt lat="43.4789365343749523162841796875" lon="1.43340426497161388397216796875">
        <ele>228.1999969482421875</ele>
        <time>2026-08-05T09:28:04.000Z</time>
        <extensions>
          <ns3:TrackPointExtension>
            <ns3:hr>70</ns3:hr>
            <ns3:cad>0</ns3:cad>
          </ns3:TrackPointExtension>
        </extensions>
      </trkpt>
      <trkpt lat="43.47892689518630504608154296875" lon="1.4334048517048358917236328125">
        <ele>228</ele>
        <time>2026-08-05T09:28:05.000Z</time>
        <extensions>
          <ns3:TrackPointExtension>
            <ns3:hr>70</ns3:hr>
            <ns3:cad>0</ns3:cad>
          </ns3:TrackPointExtension>
        </extensions>
      </trkpt>
      <trkpt lat="43.478915579617023468017578125" lon="1.43340493552386760711669921875">
        <ele>227.8000030517578125</ele>
        <time>2026-08-05T09:28:06.000Z</time>
        <extensions>
          <ns3:TrackPointExtension>
            <ns3:hr>70</ns3:hr>
            <ns3:cad>0</ns3:cad>
          </ns3:TrackPointExtension>
        </extensions>
      </trkpt>
      <trkpt lat="43.4789036773145198822021484375" lon="1.4334006607532501220703125">
        <ele>227.600006103515625</ele>
        <time>2026-08-05T09:28:07.000Z</time>
        <extensions>
          <ns3:TrackPointExtension>
            <ns3:hr>70</ns3:hr>
            <ns3:cad>0</ns3:cad>
          </ns3:TrackPointExtension>
        </extensions>
      </trkpt>
      <trkpt lat="43.47889672033488750457763671875" lon="1.43339688889682292938232421875">
        <ele>227.600006103515625</ele>
        <time>2026-08-05T09:28:08.000Z</time>
        <extensions>
          <ns3:TrackPointExtension>
            <ns3:hr>70</ns3:hr>
            <ns3:cad>0</ns3:cad>
          </ns3:TrackPointExtension>
        </extensions>
      </trkpt>
      <trkpt lat="43.4788892604410648345947265625" lon="1.43339487724006175994873046875">
        <ele>227.399993896484375</ele>
        <time>2026-08-05T09:28:09.000Z</time>
        <extensions>
          <ns3:TrackPointExtension>
            <ns3:hr>70</ns3:hr>
            <ns3:cad>0</ns3:cad>
          </ns3:TrackPointExtension>
        </extensions>
      </trkpt>
      <trkpt lat="43.47888347692787647247314453125" lon="1.43339303322136402130126953125">
        <ele>227.1999969482421875</ele>
        <time>2026-08-05T09:28:10.000Z</time>
        <extensions>
          <ns3:TrackPointExtension>
            <ns3:hr>70</ns3:hr>
            <ns3:cad>0</ns3:cad>
          </ns3:TrackPointExtension>
        </extensions>
      </trkpt>
      <trkpt lat="43.47887744195759296417236328125" lon="1.433392278850078582763671875">
        <ele>227</ele>
        <time>2026-08-05T09:28:11.000Z</time>
        <extensions>
          <ns3:TrackPointExtension>
            <ns3:hr>71</ns3:hr>
            <ns3:cad>0</ns3:cad>
          </ns3:TrackPointExtension>
        </extensions>
      </trkpt>
      <trkpt lat="43.47887190990149974822998046875" lon="1.43338900990784168243408203125">
        <ele>226.8000030517578125</ele>
        <time>2026-08-05T09:28:12.000Z</time>
        <extensions>
          <ns3:TrackPointExtension>
            <ns3:hr>71</ns3:hr>
            <ns3:cad>0</ns3:cad>
          </ns3:TrackPointExtension>
        </extensions>
      </trkpt>
      <trkpt lat="43.47886570729315280914306640625" lon="1.433387584984302520751953125">
        <ele>226.8000030517578125</ele>
        <time>2026-08-05T09:28:13.000Z</time>
        <extensions>
          <ns3:TrackPointExtension>
            <ns3:hr>71</ns3:hr>
            <ns3:cad>16</ns3:cad>
          </ns3:TrackPointExtension>
        </extensions>
      </trkpt>
      <trkpt lat="43.478860594332218170166015625" lon="1.4333877526223659515380859375">
        <ele>226.600006103515625</ele>
        <time>2026-08-05T09:28:14.000Z</time>
        <extensions>
          <ns3:TrackPointExtension>
            <ns3:hr>70</ns3:hr>
            <ns3:cad>16</ns3:cad>
          </ns3:TrackPointExtension>
        </extensions>
      </trkpt>
      <trkpt lat="43.47885690629482269287109375" lon="1.43338431604206562042236328125">
        <ele>226.399993896484375</ele>
        <time>2026-08-05T09:28:15.000Z</time>
        <extensions>
          <ns3:TrackPointExtension>
            <ns3:hr>70</ns3:hr>
            <ns3:cad>0</ns3:cad>
          </ns3:TrackPointExtension>
        </extensions>
      </trkpt>
      <trkpt lat="43.4788535535335540771484375" lon="1.43338129855692386627197265625">
        <ele>226.399993896484375</ele>
        <time>2026-08-05T09:28:16.000Z</time>
        <extensions>
          <ns3:TrackPointExtension>
            <ns3:hr>70</ns3:hr>
            <ns3:cad>0</ns3:cad>
          </ns3:TrackPointExtension>
        </extensions>
      </trkpt>
      <trkpt lat="43.47885330207645893096923828125" lon="1.43337878398597240447998046875">
        <ele>226.1999969482421875</ele>
        <time>2026-08-05T09:28:17.000Z</time>
        <extensions>
          <ns3:TrackPointExtension>
            <ns3:hr>70</ns3:hr>
            <ns3:cad>0</ns3:cad>
          </ns3:TrackPointExtension>
        </extensions>
      </trkpt>
      <trkpt lat="43.47885330207645893096923828125" lon="1.4333770237863063812255859375">
        <ele>226.1999969482421875</ele>
        <time>2026-08-05T09:28:18.000Z</time>
        <extensions>
          <ns3:TrackPointExtension>
            <ns3:hr>70</ns3:hr>
            <ns3:cad>0</ns3:cad>
          </ns3:TrackPointExtension>
        </extensions>
      </trkpt>
      <trkpt lat="43.4788486920297145843505859375" lon="1.43337710760533809661865234375">
        <ele>226.1999969482421875</ele>
        <time>2026-08-05T09:28:19.000Z</time>
        <extensions>
          <ns3:TrackPointExtension>
            <ns3:hr>71</ns3:hr>
            <ns3:cad>0</ns3:cad>
          </ns3:TrackPointExtension>
        </extensions>
      </trkpt>
      <trkpt lat="43.47884559072554111480712890625" lon="1.43337626941502094268798828125">
        <ele>226.1999969482421875</ele>
        <time>2026-08-05T09:28:20.000Z</time>
        <extensions>
          <ns3:TrackPointExtension>
            <ns3:hr>71</ns3:hr>
            <ns3:cad>0</ns3:cad>
          </ns3:TrackPointExtension>
        </extensions>
      </trkpt>
      <trkpt lat="43.47883754409849643707275390625" lon="1.433370821177959442138671875">
        <ele>226.1999969482421875</ele>
        <time>2026-08-05T09:28:21.000Z</time>
        <extensions>
          <ns3:TrackPointExtension>
            <ns3:hr>71</ns3:hr>
            <ns3:cad>0</ns3:cad>
          </ns3:TrackPointExtension>
        </extensions>
      </trkpt>
      <trkpt lat="43.47883008420467376708984375" lon="1.4333706535398960113525390625">
        <ele>226.1999969482421875</ele>
        <time>2026-08-05T09:28:22.000Z</time>
        <extensions>
          <ns3:TrackPointExtension>
            <ns3:hr>71</ns3:hr>
            <ns3:cad>0</ns3:cad>
          </ns3:TrackPointExtension>
        </extensions>
      </trkpt>
      <trkpt lat="43.478824384510517120361328125" lon="1.43336855806410312652587890625">
        <ele>226.1999969482421875</ele>
        <time>2026-08-05T09:28:23.000Z</time>
        <extensions>
          <ns3:TrackPointExtension>
            <ns3:hr>72</ns3:hr>
            <ns3:cad>0</ns3:cad>
          </ns3:TrackPointExtension>
        </extensions>
      </trkpt>
      <trkpt lat="43.47882010973989963531494140625" lon="1.43336671404540538787841796875">
        <ele>226.1999969482421875</ele>
        <time>2026-08-05T09:28:24.000Z</time>
        <extensions>
          <ns3:TrackPointExtension>
            <ns3:hr>72</ns3:hr>
            <ns3:cad>0</ns3:cad>
          </ns3:TrackPointExtension>
        </extensions>
      </trkpt>
      <trkpt lat="43.47881826572120189666748046875" lon="1.43336017616093158721923828125">
        <ele>226</ele>
        <time>2026-08-05T09:28:25.000Z</time>
        <extensions>
          <ns3:TrackPointExtension>
            <ns3:hr>72</ns3:hr>
            <ns3:cad>0</ns3:cad>
          </ns3:TrackPointExtension>
        </extensions>
      </trkpt>
      <trkpt lat="43.4788138233125209808349609375" lon="1.43335749395191669464111328125">
        <ele>226</ele>
        <time>2026-08-05T09:28:26.000Z</time>
        <extensions>
          <ns3:TrackPointExtension>
            <ns3:hr>72</ns3:hr>
            <ns3:cad>0</ns3:cad>
          </ns3:TrackPointExtension>
        </extensions>
      </trkpt>
      <trkpt lat="43.47880820743739604949951171875" lon="1.4333577454090118408203125">
        <ele>225.8000030517578125</ele>
        <time>2026-08-05T09:28:27.000Z</time>
        <extensions>
          <ns3:TrackPointExtension>
            <ns3:hr>71</ns3:hr>
            <ns3:cad>0</ns3:cad>
          </ns3:TrackPointExtension>
        </extensions>
      </trkpt>
      <trkpt lat="43.4788017533719539642333984375" lon="1.43335682339966297149658203125">
        <ele>225.8000030517578125</ele>
        <time>2026-08-05T09:28:28.000Z</time>
        <extensions>
          <ns3:TrackPointExtension>
            <ns3:hr>71</ns3:hr>
            <ns3:cad>0</ns3:cad>
          </ns3:TrackPointExtension>
        </extensions>
      </trkpt>
      <trkpt lat="43.4787947125732898712158203125" lon="1.433351375162601470947265625">
        <ele>225.600006103515625</ele>
        <time>2026-08-05T09:28:29.000Z</time>
        <extensions>
          <ns3:TrackPointExtension>
            <ns3:hr>71</ns3:hr>
            <ns3:cad>0</ns3:cad>
          </ns3:TrackPointExtension>
        </extensions>
      </trkpt>
      <trkpt lat="43.4787863306701183319091796875" lon="1.4333445020020008087158203125">
        <ele>225.600006103515625</ele>
        <time>2026-08-05T09:28:30.000Z</time>
        <extensions>
          <ns3:TrackPointExtension>
            <ns3:hr>71</ns3:hr>
            <ns3:cad>0</ns3:cad>
          </ns3:TrackPointExtension>
        </extensions>
      </trkpt>
      <trkpt lat="43.47877887077629566192626953125" lon="1.43334492109715938568115234375">
        <ele>225.399993896484375</ele>
        <time>2026-08-05T09:28:31.000Z</time>
        <extensions>
          <ns3:TrackPointExtension>
            <ns3:hr>71</ns3:hr>
            <ns3:cad>45</ns3:cad>
          </ns3:TrackPointExtension>
        </extensions>
      </trkpt>
      <trkpt lat="43.47877048887312412261962890625" lon="1.433343999087810516357421875">
        <ele>225.399993896484375</ele>
        <time>2026-08-05T09:28:32.000Z</time>
        <extensions>
          <ns3:TrackPointExtension>
            <ns3:hr>71</ns3:hr>
            <ns3:cad>45</ns3:cad>
          </ns3:TrackPointExtension>
        </extensions>
      </trkpt>
      <trkpt lat="43.478764705359935760498046875" lon="1.4333428256213665008544921875">
        <ele>225.1999969482421875</ele>
        <time>2026-08-05T09:28:33.000Z</time>
        <extensions>
          <ns3:TrackPointExtension>
            <ns3:hr>71</ns3:hr>
            <ns3:cad>0</ns3:cad>
          </ns3:TrackPointExtension>
        </extensions>
      </trkpt>
      <trkpt lat="43.4787581674754619598388671875" lon="1.43333989195525646209716796875">
        <ele>225</ele>
        <time>2026-08-05T09:28:34.000Z</time>
        <extensions>
          <ns3:TrackPointExtension>
            <ns3:hr>71</ns3:hr>
            <ns3:cad>0</ns3:cad>
          </ns3:TrackPointExtension>
        </extensions>
      </trkpt>
      <trkpt lat="43.4787504561245441436767578125" lon="1.43333637155592441558837890625">
        <ele>225</ele>
        <time>2026-08-05T09:28:35.000Z</time>
        <extensions>
          <ns3:TrackPointExtension>
            <ns3:hr>70</ns3:hr>
            <ns3:cad>51</ns3:cad>
          </ns3:TrackPointExtension>
        </extensions>
      </trkpt>
      <trkpt lat="43.47874182276427745819091796875" lon="1.43333503045141696929931640625">
        <ele>224.8000030517578125</ele>
        <time>2026-08-05T09:28:36.000Z</time>
        <extensions>
          <ns3:TrackPointExtension>
            <ns3:hr>70</ns3:hr>
            <ns3:cad>51</ns3:cad>
          </ns3:TrackPointExtension>
        </extensions>
      </trkpt>
      <trkpt lat="43.47872950136661529541015625" lon="1.43333268351852893829345703125">
        <ele>224.8000030517578125</ele>
        <time>2026-08-05T09:28:37.000Z</time>
        <extensions>
          <ns3:TrackPointExtension>
            <ns3:hr>69</ns3:hr>
            <ns3:cad>0</ns3:cad>
          </ns3:TrackPointExtension>
        </extensions>
      </trkpt>
      <trkpt lat="43.4787194430828094482421875" lon="1.43332782201468944549560546875">
        <ele>224.600006103515625</ele>
        <time>2026-08-05T09:28:38.000Z</time>
        <extensions>
          <ns3:TrackPointExtension>
            <ns3:hr>69</ns3:hr>
            <ns3:cad>0</ns3:cad>
          </ns3:TrackPointExtension>
        </extensions>
      </trkpt>
      <trkpt lat="43.4787132404744625091552734375" lon="1.43332312814891338348388671875">
        <ele>224.399993896484375</ele>
        <time>2026-08-05T09:28:39.000Z</time>
        <extensions>
          <ns3:TrackPointExtension>
            <ns3:hr>68</ns3:hr>
            <ns3:cad>0</ns3:cad>
          </ns3:TrackPointExtension>
        </extensions>
      </trkpt>
      <trkpt lat="43.47870536148548126220703125" lon="1.43331927247345447540283203125">
        <ele>224.399993896484375</ele>
        <time>2026-08-05T09:28:40.000Z</time>
        <extensions>
          <ns3:TrackPointExtension>
            <ns3:hr>68</ns3:hr>
            <ns3:cad>0</ns3:cad>
          </ns3:TrackPointExtension>
        </extensions>
      </trkpt>
      <trkpt lat="43.478698320686817169189453125" lon="1.43331575207412242889404296875">
        <ele>224.1999969482421875</ele>
        <time>2026-08-05T09:28:41.000Z</time>
        <extensions>
          <ns3:TrackPointExtension>
            <ns3:hr>67</ns3:hr>
            <ns3:cad>0</ns3:cad>
          </ns3:TrackPointExtension>
        </extensions>
      </trkpt>
      <trkpt lat="43.4786884300410747528076171875" lon="1.43331089057028293609619140625">
        <ele>224</ele>
        <time>2026-08-05T09:28:42.000Z</time>
        <extensions>
          <ns3:TrackPointExtension>
            <ns3:hr>66</ns3:hr>
            <ns3:cad>0</ns3:cad>
          </ns3:TrackPointExtension>
        </extensions>
      </trkpt>
      <trkpt lat="43.4786780364811420440673828125" lon="1.43330586142838001251220703125">
        <ele>223.8000030517578125</ele>
        <time>2026-08-05T09:28:43.000Z</time>
        <extensions>
          <ns3:TrackPointExtension>
            <ns3:hr>65</ns3:hr>
            <ns3:cad>0</ns3:cad>
          </ns3:TrackPointExtension>
        </extensions>
      </trkpt>
      <trkpt lat="43.478668816387653350830078125" lon="1.433301754295825958251953125">
        <ele>223.8000030517578125</ele>
        <time>2026-08-05T09:28:44.000Z</time>
        <extensions>
          <ns3:TrackPointExtension>
            <ns3:hr>65</ns3:hr>
            <ns3:cad>0</ns3:cad>
          </ns3:TrackPointExtension>
        </extensions>
      </trkpt>
      <trkpt lat="43.4786609373986721038818359375" lon="1.43329965882003307342529296875">
        <ele>223.600006103515625</ele>
        <time>2026-08-05T09:28:45.000Z</time>
        <extensions>
          <ns3:TrackPointExtension>
            <ns3:hr>64</ns3:hr>
            <ns3:cad>0</ns3:cad>
          </ns3:TrackPointExtension>
        </extensions>
      </trkpt>
      <trkpt lat="43.47865305840969085693359375" lon="1.43329513259232044219970703125">
        <ele>223.399993896484375</ele>
        <time>2026-08-05T09:28:46.000Z</time>
        <extensions>
          <ns3:TrackPointExtension>
            <ns3:hr>64</ns3:hr>
            <ns3:cad>0</ns3:cad>
          </ns3:TrackPointExtension>
        </extensions>
      </trkpt>
      <trkpt lat="43.47864425741136074066162109375" lon="1.4332905225455760955810546875">
        <ele>223.399993896484375</ele>
        <time>2026-08-05T09:28:47.000Z</time>
        <extensions>
          <ns3:TrackPointExtension>
            <ns3:hr>64</ns3:hr>
            <ns3:cad>0</ns3:cad>
          </ns3:TrackPointExtension>
        </extensions>
      </trkpt>
      <trkpt lat="43.4786371327936649322509765625" lon="1.4332871697843074798583984375">
        <ele>223.1999969482421875</ele>
        <time>2026-08-05T09:28:48.000Z</time>
        <extensions>
          <ns3:TrackPointExtension>
            <ns3:hr>64</ns3:hr>
            <ns3:cad>0</ns3:cad>
          </ns3:TrackPointExtension>
        </extensions>
      </trkpt>
      <trkpt lat="43.47862749360501766204833984375" lon="1.43328993581235408782958984375">
        <ele>223</ele>
        <time>2026-08-05T09:28:49.000Z</time>
        <extensions>
          <ns3:TrackPointExtension>
            <ns3:hr>64</ns3:hr>
            <ns3:cad>0</ns3:cad>
          </ns3:TrackPointExtension>
        </extensions>
      </trkpt>
      <trkpt lat="43.47861642949283123016357421875" lon="1.433291696012020111083984375">
        <ele>223</ele>
        <time>2026-08-05T09:28:50.000Z</time>
        <extensions>
          <ns3:TrackPointExtension>
            <ns3:hr>64</ns3:hr>
            <ns3:cad>0</ns3:cad>
          </ns3:TrackPointExtension>
        </extensions>
      </trkpt>
      <trkpt lat="43.4786069579422473907470703125" lon="1.4332866668701171875">
        <ele>222.8000030517578125</ele>
        <time>2026-08-05T09:28:51.000Z</time>
        <extensions>
          <ns3:TrackPointExtension>
            <ns3:hr>64</ns3:hr>
            <ns3:cad>0</ns3:cad>
          </ns3:TrackPointExtension>
        </extensions>
      </trkpt>
      <trkpt lat="43.47859916277229785919189453125" lon="1.43328473903238773345947265625">
        <ele>222.600006103515625</ele>
        <time>2026-08-05T09:28:52.000Z</time>
        <extensions>
          <ns3:TrackPointExtension>
            <ns3:hr>64</ns3:hr>
            <ns3:cad>0</ns3:cad>
          </ns3:TrackPointExtension>
        </extensions>
      </trkpt>
      <trkpt lat="43.4785922057926654815673828125" lon="1.43327702768146991729736328125">
        <ele>222.600006103515625</ele>
        <time>2026-08-05T09:28:53.000Z</time>
        <extensions>
          <ns3:TrackPointExtension>
            <ns3:hr>64</ns3:hr>
            <ns3:cad>0</ns3:cad>
          </ns3:TrackPointExtension>
        </extensions>
      </trkpt>
      <trkpt lat="43.47858441062271595001220703125" lon="1.4332734234631061553955078125">
        <ele>222.399993896484375</ele>
        <time>2026-08-05T09:28:54.000Z</time>
        <extensions>
          <ns3:TrackPointExtension>
            <ns3:hr>65</ns3:hr>
            <ns3:cad>0</ns3:cad>
          </ns3:TrackPointExtension>
        </extensions>
      </trkpt>
      <trkpt lat="43.478576280176639556884765625" lon="1.4332761056721210479736328125">
        <ele>222.1999969482421875</ele>
        <time>2026-08-05T09:28:55.000Z</time>
        <extensions>
          <ns3:TrackPointExtension>
            <ns3:hr>64</ns3:hr>
            <ns3:cad>0</ns3:cad>
          </ns3:TrackPointExtension>
        </extensions>
      </trkpt>
      <trkpt lat="43.47856664098799228668212890625" lon="1.43327258527278900146484375">
        <ele>222.1999969482421875</ele>
        <time>2026-08-05T09:28:56.000Z</time>
        <extensions>
          <ns3:TrackPointExtension>
            <ns3:hr>64</ns3:hr>
            <ns3:cad>47</ns3:cad>
          </ns3:TrackPointExtension>
        </extensions>
      </trkpt>
      <trkpt lat="43.47855758853256702423095703125" lon="1.4332670532166957855224609375">
        <ele>222</ele>
        <time>2026-08-05T09:28:57.000Z</time>
        <extensions>
          <ns3:TrackPointExtension>
            <ns3:hr>64</ns3:hr>
            <ns3:cad>47</ns3:cad>
          </ns3:TrackPointExtension>
        </extensions>
      </trkpt>
      <trkpt lat="43.478548116981983184814453125" lon="1.433262526988983154296875">
        <ele>222</ele>
        <time>2026-08-05T09:28:58.000Z</time>
        <extensions>
          <ns3:TrackPointExtension>
            <ns3:hr>65</ns3:hr>
            <ns3:cad>47</ns3:cad>
          </ns3:TrackPointExtension>
        </extensions>
      </trkpt>
      <trkpt lat="43.47853839397430419921875" lon="1.4332583360373973846435546875">
        <ele>221.8000030517578125</ele>
        <time>2026-08-05T09:28:59.000Z</time>
        <extensions>
          <ns3:TrackPointExtension>
            <ns3:hr>64</ns3:hr>
            <ns3:cad>47</ns3:cad>
          </ns3:TrackPointExtension>
        </extensions>
      </trkpt>
      <trkpt lat="43.478530012071132659912109375" lon="1.43325355835258960723876953125">
        <ele>221.600006103515625</ele>
        <time>2026-08-05T09:29:00.000Z</time>
        <extensions>
          <ns3:TrackPointExtension>
            <ns3:hr>65</ns3:hr>
            <ns3:cad>47</ns3:cad>
          </ns3:TrackPointExtension>
        </extensions>
      </trkpt>
      <trkpt lat="43.47852054052054882049560546875" lon="1.43325070850551128387451171875">
        <ele>221.399993896484375</ele>
        <time>2026-08-05T09:29:01.000Z</time>
        <extensions>
          <ns3:TrackPointExtension>
            <ns3:hr>65</ns3:hr>
            <ns3:cad>49</ns3:cad>
          </ns3:TrackPointExtension>
        </extensions>
      </trkpt>
      <trkpt lat="43.47851316444575786590576171875" lon="1.43324987031519412994384765625">
        <ele>221.1999969482421875</ele>
        <time>2026-08-05T09:29:02.000Z</time>
        <extensions>
          <ns3:TrackPointExtension>
            <ns3:hr>64</ns3:hr>
            <ns3:cad>50</ns3:cad>
          </ns3:TrackPointExtension>
        </extensions>
      </trkpt>
      <trkpt lat="43.4785030223429203033447265625" lon="1.433246433734893798828125">
        <ele>221</ele>
        <time>2026-08-05T09:29:03.000Z</time>
        <extensions>
          <ns3:TrackPointExtension>
            <ns3:hr>64</ns3:hr>
            <ns3:cad>50</ns3:cad>
          </ns3:TrackPointExtension>
        </extensions>
      </trkpt>
      <trkpt lat="43.478495143353939056396484375" lon="1.4332398958504199981689453125">
        <ele>220.8000030517578125</ele>
        <time>2026-08-05T09:29:04.000Z</time>
        <extensions>
          <ns3:TrackPointExtension>
            <ns3:hr>64</ns3:hr>
            <ns3:cad>53</ns3:cad>
          </ns3:TrackPointExtension>
        </extensions>
      </trkpt>
      <trkpt lat="43.47848718054592609405517578125" lon="1.4332375489175319671630859375">
        <ele>220.600006103515625</ele>
        <time>2026-08-05T09:29:05.000Z</time>
        <extensions>
          <ns3:TrackPointExtension>
            <ns3:hr>64</ns3:hr>
            <ns3:cad>51</ns3:cad>
          </ns3:TrackPointExtension>
        </extensions>
      </trkpt>
      <trkpt lat="43.4784778766334056854248046875" lon="1.43323369324207305908203125">
        <ele>220.600006103515625</ele>
        <time>2026-08-05T09:29:06.000Z</time>
        <extensions>
          <ns3:TrackPointExtension>
            <ns3:hr>64</ns3:hr>
            <ns3:cad>51</ns3:cad>
          </ns3:TrackPointExtension>
        </extensions>
      </trkpt>
      <trkpt lat="43.478469662368297576904296875" lon="1.4332328550517559051513671875">
        <ele>220.399993896484375</ele>
        <time>2026-08-05T09:29:07.000Z</time>
        <extensions>
          <ns3:TrackPointExtension>
            <ns3:hr>63</ns3:hr>
            <ns3:cad>51</ns3:cad>
          </ns3:TrackPointExtension>
        </extensions>
      </trkpt>
      <trkpt lat="43.47846052609384059906005859375" lon="1.433231346309185028076171875">
        <ele>220.1999969482421875</ele>
        <time>2026-08-05T09:29:08.000Z</time>
        <extensions>
          <ns3:TrackPointExtension>
            <ns3:hr>64</ns3:hr>
            <ns3:cad>51</ns3:cad>
          </ns3:TrackPointExtension>
        </extensions>
      </trkpt>
      <trkpt lat="43.4784520603716373443603515625" lon="1.4332289993762969970703125">
        <ele>220</ele>
        <time>2026-08-05T09:29:09.000Z</time>
        <extensions>
          <ns3:TrackPointExtension>
            <ns3:hr>64</ns3:hr>
            <ns3:cad>50</ns3:cad>
          </ns3:TrackPointExtension>
        </extensions>
      </trkpt>
      <trkpt lat="43.4784403257071971893310546875" lon="1.4332271553575992584228515625">
        <ele>219.8000030517578125</ele>
        <time>2026-08-05T09:29:10.000Z</time>
        <extensions>
          <ns3:TrackPointExtension>
            <ns3:hr>64</ns3:hr>
            <ns3:cad>50</ns3:cad>
          </ns3:TrackPointExtension>
        </extensions>
      </trkpt>
      <trkpt lat="43.4784322790801525115966796875" lon="1.4332231320440769195556640625">
        <ele>219.600006103515625</ele>
        <time>2026-08-05T09:29:11.000Z</time>
        <extensions>
          <ns3:TrackPointExtension>
            <ns3:hr>63</ns3:hr>
            <ns3:cad>50</ns3:cad>
          </ns3:TrackPointExtension>
        </extensions>
      </trkpt>
      <trkpt lat="43.4784249030053615570068359375" lon="1.4332191087305545806884765625">
        <ele>219.600006103515625</ele>
        <time>2026-08-05T09:29:12.000Z</time>
        <extensions>
          <ns3:TrackPointExtension>
            <ns3:hr>63</ns3:hr>
            <ns3:cad>50</ns3:cad>
          </ns3:TrackPointExtension>
        </extensions>
      </trkpt>
      <trkpt lat="43.478420041501522064208984375" lon="1.4332157559692859649658203125">
        <ele>219.399993896484375</ele>
        <time>2026-08-05T09:29:13.000Z</time>
        <extensions>
          <ns3:TrackPointExtension>
            <ns3:hr>63</ns3:hr>
            <ns3:cad>50</ns3:cad>
          </ns3:TrackPointExtension>
        </extensions>
      </trkpt>
      <trkpt lat="43.47841543145477771759033203125" lon="1.43321718089282512664794921875">
        <ele>219.1999969482421875</ele>
        <time>2026-08-05T09:29:14.000Z</time>
        <extensions>
          <ns3:TrackPointExtension>
            <ns3:hr>64</ns3:hr>
            <ns3:cad>50</ns3:cad>
          </ns3:TrackPointExtension>
        </extensions>
      </trkpt>
      <trkpt lat="43.47840939648449420928955078125" lon="1.43321148119866847991943359375">
        <ele>219.1999969482421875</ele>
        <time>2026-08-05T09:29:15.000Z</time>
        <extensions>
          <ns3:TrackPointExtension>
            <ns3:hr>64</ns3:hr>
            <ns3:cad>50</ns3:cad>
          </ns3:TrackPointExtension>
        </extensions>
      </trkpt>
      <trkpt lat="43.4784114919602870941162109375" lon="1.4332075417041778564453125">
        <ele>219</ele>
        <time>2026-08-05T09:29:16.000Z</time>
        <extensions>
          <ns3:TrackPointExtension>
            <ns3:hr>64</ns3:hr>
            <ns3:cad>49</ns3:cad>
          </ns3:TrackPointExtension>
        </extensions>
      </trkpt>
      <trkpt lat="43.47841031849384307861328125" lon="1.43320695497095584869384765625">
        <ele>219</ele>
        <time>2026-08-05T09:29:17.000Z</time>
        <extensions>
          <ns3:TrackPointExtension>
            <ns3:hr>64</ns3:hr>
            <ns3:cad>49</ns3:cad>
          </ns3:TrackPointExtension>
        </extensions>
      </trkpt>
      <trkpt lat="43.4784034453332424163818359375" lon="1.43321148119866847991943359375">
        <ele>218.8000030517578125</ele>
        <time>2026-08-05T09:29:18.000Z</time>
        <extensions>
          <ns3:TrackPointExtension>
            <ns3:hr>64</ns3:hr>
            <ns3:cad>49</ns3:cad>
          </ns3:TrackPointExtension>
        </extensions>
      </trkpt>
      <trkpt lat="43.47839749418199062347412109375" lon="1.43321097828447818756103515625">
        <ele>218.8000030517578125</ele>
        <time>2026-08-05T09:29:19.000Z</time>
        <extensions>
          <ns3:TrackPointExtension>
            <ns3:hr>65</ns3:hr>
            <ns3:cad>0</ns3:cad>
          </ns3:TrackPointExtension>
        </extensions>
      </trkpt>
      <trkpt lat="43.47839112393558025360107421875" lon="1.43321047537028789520263671875">
        <ele>218.8000030517578125</ele>
        <time>2026-08-05T09:29:20.000Z</time>
        <extensions>
          <ns3:TrackPointExtension>
            <ns3:hr>65</ns3:hr>
            <ns3:cad>0</ns3:cad>
          </ns3:TrackPointExtension>
        </extensions>
      </trkpt>
      <trkpt lat="43.47838508896529674530029296875" lon="1.43320863135159015655517578125">
        <ele>218.600006103515625</ele>
        <time>2026-08-05T09:29:21.000Z</time>
        <extensions>
          <ns3:TrackPointExtension>
            <ns3:hr>66</ns3:hr>
            <ns3:cad>0</ns3:cad>
          </ns3:TrackPointExtension>
        </extensions>
      </trkpt>
      <trkpt lat="43.4783729352056980133056640625" lon="1.433205194771289825439453125">
        <ele>218.600006103515625</ele>
        <time>2026-08-05T09:29:22.000Z</time>
        <extensions>
          <ns3:TrackPointExtension>
            <ns3:hr>66</ns3:hr>
            <ns3:cad>0</ns3:cad>
          </ns3:TrackPointExtension>
        </extensions>
      </trkpt>
      <trkpt lat="43.47836514003574848175048828125" lon="1.43320259638130664825439453125">
        <ele>218.399993896484375</ele>
        <time>2026-08-05T09:29:23.000Z</time>
        <extensions>
          <ns3:TrackPointExtension>
            <ns3:hr>67</ns3:hr>
            <ns3:cad>0</ns3:cad>
          </ns3:TrackPointExtension>
        </extensions>
      </trkpt>
      <trkpt lat="43.47835659049451351165771484375" lon="1.43320008181035518646240234375">
        <ele>218.1999969482421875</ele>
        <time>2026-08-05T09:29:24.000Z</time>
        <extensions>
          <ns3:TrackPointExtension>
            <ns3:hr>68</ns3:hr>
            <ns3:cad>0</ns3:cad>
          </ns3:TrackPointExtension>
        </extensions>
      </trkpt>
      <trkpt lat="43.47835005261003971099853515625" lon="1.4331976510584354400634765625">
        <ele>218</ele>
        <time>2026-08-05T09:29:25.000Z</time>
        <extensions>
          <ns3:TrackPointExtension>
            <ns3:hr>69</ns3:hr>
            <ns3:cad>51</ns3:cad>
          </ns3:TrackPointExtension>
        </extensions>
      </trkpt>
      <trkpt lat="43.47834468819200992584228515625" lon="1.433195807039737701416015625">
        <ele>217.8000030517578125</ele>
        <time>2026-08-05T09:29:26.000Z</time>
        <extensions>
          <ns3:TrackPointExtension>
            <ns3:hr>70</ns3:hr>
            <ns3:cad>49</ns3:cad>
          </ns3:TrackPointExtension>
        </extensions>
      </trkpt>
      <trkpt lat="43.47833949141204357147216796875" lon="1.43319421447813510894775390625">
        <ele>217.8000030517578125</ele>
        <time>2026-08-05T09:29:27.000Z</time>
        <extensions>
          <ns3:TrackPointExtension>
            <ns3:hr>69</ns3:hr>
            <ns3:cad>49</ns3:cad>
          </ns3:TrackPointExtension>
        </extensions>
      </trkpt>
      <trkpt lat="43.47833211533725261688232421875" lon="1.43319346010684967041015625">
        <ele>217.600006103515625</ele>
        <time>2026-08-05T09:29:28.000Z</time>
        <extensions>
          <ns3:TrackPointExtension>
            <ns3:hr>70</ns3:hr>
            <ns3:cad>49</ns3:cad>
          </ns3:TrackPointExtension>
        </extensions>
      </trkpt>
      <trkpt lat="43.47832893021404743194580078125" lon="1.43319354392588138580322265625">
        <ele>217.399993896484375</ele>
        <time>2026-08-05T09:29:29.000Z</time>
        <extensions>
          <ns3:TrackPointExtension>
            <ns3:hr>69</ns3:hr>
            <ns3:cad>49</ns3:cad>
          </ns3:TrackPointExtension>
        </extensions>
      </trkpt>
      <trkpt lat="43.47832138650119304656982421875" lon="1.433191113173961639404296875">
        <ele>217.1999969482421875</ele>
        <time>2026-08-05T09:29:30.000Z</time>
        <extensions>
          <ns3:TrackPointExtension>
            <ns3:hr>69</ns3:hr>
            <ns3:cad>48</ns3:cad>
          </ns3:TrackPointExtension>
        </extensions>
      </trkpt>
      <trkpt lat="43.47831199876964092254638671875" lon="1.43318675458431243896484375">
        <ele>217</ele>
        <time>2026-08-05T09:29:31.000Z</time>
        <extensions>
          <ns3:TrackPointExtension>
            <ns3:hr>69</ns3:hr>
            <ns3:cad>46</ns3:cad>
          </ns3:TrackPointExtension>
        </extensions>
      </trkpt>
      <trkpt lat="43.4782991744577884674072265625" lon="1.43318415619432926177978515625">
        <ele>216.8000030517578125</ele>
        <time>2026-08-05T09:29:32.000Z</time>
        <extensions>
          <ns3:TrackPointExtension>
            <ns3:hr>70</ns3:hr>
            <ns3:cad>46</ns3:cad>
          </ns3:TrackPointExtension>
        </extensions>
      </trkpt>
      <trkpt lat="43.4782897867262363433837890625" lon="1.4331802166998386383056640625">
        <ele>216.8000030517578125</ele>
        <time>2026-08-05T09:29:33.000Z</time>
        <extensions>
          <ns3:TrackPointExtension>
            <ns3:hr>69</ns3:hr>
            <ns3:cad>57</ns3:cad>
          </ns3:TrackPointExtension>
        </extensions>
      </trkpt>
      <trkpt lat="43.47828291356563568115234375" lon="1.4331780374050140380859375">
        <ele>216.600006103515625</ele>
        <time>2026-08-05T09:29:34.000Z</time>
        <extensions>
          <ns3:TrackPointExtension>
            <ns3:hr>69</ns3:hr>
            <ns3:cad>57</ns3:cad>
          </ns3:TrackPointExtension>
        </extensions>
      </trkpt>
      <trkpt lat="43.478277213871479034423828125" lon="1.43317342735826969146728515625">
        <ele>216.399993896484375</ele>
        <time>2026-08-05T09:29:35.000Z</time>
        <extensions>
          <ns3:TrackPointExtension>
            <ns3:hr>69</ns3:hr>
            <ns3:cad>57</ns3:cad>
          </ns3:TrackPointExtension>
        </extensions>
      </trkpt>
      <trkpt lat="43.47827017307281494140625" lon="1.4331711642444133758544921875">
        <ele>216.1999969482421875</ele>
        <time>2026-08-05T09:29:36.000Z</time>
        <extensions>
          <ns3:TrackPointExtension>
            <ns3:hr>69</ns3:hr>
            <ns3:cad>57</ns3:cad>
          </ns3:TrackPointExtension>
        </extensions>
      </trkpt>
      <trkpt lat="43.478263132274150848388671875" lon="1.43316823057830333709716796875">
        <ele>216</ele>
        <time>2026-08-05T09:29:37.000Z</time>
        <extensions>
          <ns3:TrackPointExtension>
            <ns3:hr>70</ns3:hr>
            <ns3:cad>53</ns3:cad>
          </ns3:TrackPointExtension>
        </extensions>
      </trkpt>
      <trkpt lat="43.4782545827329158782958984375" lon="1.43316663801670074462890625">
        <ele>215.8000030517578125</ele>
        <time>2026-08-05T09:29:38.000Z</time>
        <extensions>
          <ns3:TrackPointExtension>
            <ns3:hr>70</ns3:hr>
            <ns3:cad>53</ns3:cad>
          </ns3:TrackPointExtension>
        </extensions>
      </trkpt>
      <trkpt lat="43.47824913449585437774658203125" lon="1.43316554836928844451904296875">
        <ele>215.8000030517578125</ele>
        <time>2026-08-05T09:29:39.000Z</time>
        <extensions>
          <ns3:TrackPointExtension>
            <ns3:hr>70</ns3:hr>
            <ns3:cad>53</ns3:cad>
          </ns3:TrackPointExtension>
        </extensions>
      </trkpt>
      <trkpt lat="43.4782405011355876922607421875" lon="1.43316353671252727508544921875">
        <ele>215.600006103515625</ele>
        <time>2026-08-05T09:29:40.000Z</time>
        <extensions>
          <ns3:TrackPointExtension>
            <ns3:hr>70</ns3:hr>
            <ns3:cad>52</ns3:cad>
          </ns3:TrackPointExtension>
        </extensions>
      </trkpt>
      <trkpt lat="43.47823270596563816070556640625" lon="1.43316286616027355194091796875">
        <ele>215.399993896484375</ele>
        <time>2026-08-05T09:29:41.000Z</time>
        <extensions>
          <ns3:TrackPointExtension>
            <ns3:hr>70</ns3:hr>
            <ns3:cad>52</ns3:cad>
          </ns3:TrackPointExtension>
        </extensions>
      </trkpt>
      <trkpt lat="43.47822600044310092926025390625" lon="1.43316261470317840576171875">
        <ele>215.1999969482421875</ele>
        <time>2026-08-05T09:29:42.000Z</time>
        <extensions>
          <ns3:TrackPointExtension>
            <ns3:hr>70</ns3:hr>
            <ns3:cad>52</ns3:cad>
          </ns3:TrackPointExtension>
        </extensions>
      </trkpt>
      <trkpt lat="43.478219211101531982421875" lon="1.433160938322544097900390625">
        <ele>215.1999969482421875</ele>
        <time>2026-08-05T09:29:43.000Z</time>
        <extensions>
          <ns3:TrackPointExtension>
            <ns3:hr>70</ns3:hr>
            <ns3:cad>50</ns3:cad>
          </ns3:TrackPointExtension>
        </extensions>
      </trkpt>
      <trkpt lat="43.47821309231221675872802734375" lon="1.43315817229449748992919921875">
        <ele>215</ele>
        <time>2026-08-05T09:29:44.000Z</time>
        <extensions>
          <ns3:TrackPointExtension>
            <ns3:hr>70</ns3:hr>
            <ns3:cad>50</ns3:cad>
          </ns3:TrackPointExtension>
        </extensions>
      </trkpt>
      <trkpt lat="43.47820580005645751953125" lon="1.43315549008548259735107421875">
        <ele>214.8000030517578125</ele>
        <time>2026-08-05T09:29:45.000Z</time>
        <extensions>
          <ns3:TrackPointExtension>
            <ns3:hr>70</ns3:hr>
            <ns3:cad>51</ns3:cad>
          </ns3:TrackPointExtension>
        </extensions>
      </trkpt>
      <trkpt lat="43.478199429810047149658203125" lon="1.4331547357141971588134765625">
        <ele>214.600006103515625</ele>
        <time>2026-08-05T09:29:46.000Z</time>
        <extensions>
          <ns3:TrackPointExtension>
            <ns3:hr>70</ns3:hr>
            <ns3:cad>51</ns3:cad>
          </ns3:TrackPointExtension>
        </extensions>
      </trkpt>
      <trkpt lat="43.47819129936397075653076171875" lon="1.43315331079065799713134765625">
        <ele>214.399993896484375</ele>
        <time>2026-08-05T09:29:47.000Z</time>
        <extensions>
          <ns3:TrackPointExtension>
            <ns3:hr>70</ns3:hr>
            <ns3:cad>49</ns3:cad>
          </ns3:TrackPointExtension>
        </extensions>
      </trkpt>
      <trkpt lat="43.47818979062139987945556640625" lon="1.433148868381977081298828125">
        <ele>214.399993896484375</ele>
        <time>2026-08-05T09:29:48.000Z</time>
        <extensions>
          <ns3:TrackPointExtension>
            <ns3:hr>69</ns3:hr>
            <ns3:cad>49</ns3:cad>
          </ns3:TrackPointExtension>
        </extensions>
      </trkpt>
      <trkpt lat="43.47818660549819469451904296875" lon="1.43315322697162628173828125">
        <ele>214.1999969482421875</ele>
        <time>2026-08-05T09:29:49.000Z</time>
        <extensions>
          <ns3:TrackPointExtension>
            <ns3:hr>69</ns3:hr>
            <ns3:cad>49</ns3:cad>
          </ns3:TrackPointExtension>
        </extensions>
      </trkpt>
      <trkpt lat="43.478181995451450347900390625" lon="1.43315322697162628173828125">
        <ele>214.1999969482421875</ele>
        <time>2026-08-05T09:29:50.000Z</time>
        <extensions>
          <ns3:TrackPointExtension>
            <ns3:hr>68</ns3:hr>
            <ns3:cad>49</ns3:cad>
          </ns3:TrackPointExtension>
        </extensions>
      </trkpt>
      <trkpt lat="43.47817671485245227813720703125" lon="1.43315255641937255859375">
        <ele>214</ele>
        <time>2026-08-05T09:29:51.000Z</time>
        <extensions>
          <ns3:TrackPointExtension>
            <ns3:hr>67</ns3:hr>
            <ns3:cad>46</ns3:cad>
          </ns3:TrackPointExtension>
        </extensions>
      </trkpt>
      <trkpt lat="43.47817051224410533905029296875" lon="1.43315079621970653533935546875">
        <ele>214</ele>
        <time>2026-08-05T09:29:52.000Z</time>
        <extensions>
          <ns3:TrackPointExtension>
            <ns3:hr>67</ns3:hr>
            <ns3:cad>46</ns3:cad>
          </ns3:TrackPointExtension>
        </extensions>
      </trkpt>
      <trkpt lat="43.478164561092853546142578125" lon="1.43314844928681850433349609375">
        <ele>213.8000030517578125</ele>
        <time>2026-08-05T09:29:53.000Z</time>
        <extensions>
          <ns3:TrackPointExtension>
            <ns3:hr>67</ns3:hr>
            <ns3:cad>46</ns3:cad>
          </ns3:TrackPointExtension>
        </extensions>
      </trkpt>
      <trkpt lat="43.47815760411322116851806640625" lon="1.4331480301916599273681640625">
        <ele>213.8000030517578125</ele>
        <time>2026-08-05T09:29:54.000Z</time>
        <extensions>
          <ns3:TrackPointExtension>
            <ns3:hr>67</ns3:hr>
            <ns3:cad>0</ns3:cad>
          </ns3:TrackPointExtension>
        </extensions>
      </trkpt>
      <trkpt lat="43.4781533293426036834716796875" lon="1.43314383924007415771484375">
        <ele>213.8000030517578125</ele>
        <time>2026-08-05T09:29:55.000Z</time>
        <extensions>
          <ns3:TrackPointExtension>
            <ns3:hr>67</ns3:hr>
            <ns3:cad>0</ns3:cad>
          </ns3:TrackPointExtension>
        </extensions>
      </trkpt>
      <trkpt lat="43.4781472943723201751708984375" lon="1.4331399835646152496337890625">
        <ele>213.600006103515625</ele>
        <time>2026-08-05T09:29:56.000Z</time>
        <extensions>
          <ns3:TrackPointExtension>
            <ns3:hr>66</ns3:hr>
            <ns3:cad>0</ns3:cad>
          </ns3:TrackPointExtension>
        </extensions>
      </trkpt>
      <trkpt lat="43.4781400859355926513671875" lon="1.43313772045075893402099609375">
        <ele>213.399993896484375</ele>
        <time>2026-08-05T09:29:57.000Z</time>
        <extensions>
          <ns3:TrackPointExtension>
            <ns3:hr>67</ns3:hr>
            <ns3:cad>0</ns3:cad>
          </ns3:TrackPointExtension>
        </extensions>
      </trkpt>
      <trkpt lat="43.478133380413055419921875" lon="1.43313487060368061065673828125">
        <ele>213.1999969482421875</ele>
        <time>2026-08-05T09:29:58.000Z</time>
        <extensions>
          <ns3:TrackPointExtension>
            <ns3:hr>67</ns3:hr>
            <ns3:cad>0</ns3:cad>
          </ns3:TrackPointExtension>
        </extensions>
      </trkpt>
      <trkpt lat="43.4781239926815032958984375" lon="1.43313319422304630279541015625">
        <ele>213.1999969482421875</ele>
        <time>2026-08-05T09:29:59.000Z</time>
        <extensions>
          <ns3:TrackPointExtension>
            <ns3:hr>66</ns3:hr>
            <ns3:cad>0</ns3:cad>
          </ns3:TrackPointExtension>
        </extensions>
      </trkpt>
      <trkpt lat="43.47811527550220489501953125" lon="1.43313109874725341796875">
        <ele>213</ele>
        <time>2026-08-05T09:30:00.000Z</time>
        <extensions>
          <ns3:TrackPointExtension>
            <ns3:hr>67</ns3:hr>
            <ns3:cad>0</ns3:cad>
          </ns3:TrackPointExtension>
        </extensions>
      </trkpt>
      <trkpt lat="43.47810580395162105560302734375" lon="1.4331282489001750946044921875">
        <ele>212.8000030517578125</ele>
        <time>2026-08-05T09:30:01.000Z</time>
        <extensions>
          <ns3:TrackPointExtension>
            <ns3:hr>66</ns3:hr>
            <ns3:cad>0</ns3:cad>
          </ns3:TrackPointExtension>
        </extensions>
      </trkpt>
      <trkpt lat="43.4780949912965297698974609375" lon="1.433126069605350494384765625">
        <ele>212.8000030517578125</ele>
        <time>2026-08-05T09:30:02.000Z</time>
        <extensions>
          <ns3:TrackPointExtension>
            <ns3:hr>66</ns3:hr>
            <ns3:cad>0</ns3:cad>
          </ns3:TrackPointExtension>
        </extensions>
      </trkpt>
      <trkpt lat="43.47808786667883396148681640625" lon="1.4331238903105258941650390625">
        <ele>212.600006103515625</ele>
        <time>2026-08-05T09:30:03.000Z</time>
        <extensions>
          <ns3:TrackPointExtension>
            <ns3:hr>66</ns3:hr>
            <ns3:cad>0</ns3:cad>
          </ns3:TrackPointExtension>
        </extensions>
      </trkpt>
      <trkpt lat="43.478082083165645599365234375" lon="1.43312347121536731719970703125">
        <ele>212.600006103515625</ele>
        <time>2026-08-05T09:30:04.000Z</time>
        <extensions>
          <ns3:TrackPointExtension>
            <ns3:hr>67</ns3:hr>
            <ns3:cad>0</ns3:cad>
          </ns3:TrackPointExtension>
        </extensions>
      </trkpt>
      <trkpt lat="43.4780752100050449371337890625" lon="1.43312179483473300933837890625">
        <ele>212.399993896484375</ele>
        <time>2026-08-05T09:30:05.000Z</time>
        <extensions>
          <ns3:TrackPointExtension>
            <ns3:hr>67</ns3:hr>
            <ns3:cad>64</ns3:cad>
          </ns3:TrackPointExtension>
        </extensions>
      </trkpt>
      <trkpt lat="43.4780678339302539825439453125" lon="1.433122716844081878662109375">
        <ele>212.399993896484375</ele>
        <time>2026-08-05T09:30:06.000Z</time>
        <extensions>
          <ns3:TrackPointExtension>
            <ns3:hr>66</ns3:hr>
            <ns3:cad>64</ns3:cad>
          </ns3:TrackPointExtension>
        </extensions>
      </trkpt>
      <trkpt lat="43.47806154750287532806396484375" lon="1.43312380649149417877197265625">
        <ele>212.1999969482421875</ele>
        <time>2026-08-05T09:30:07.000Z</time>
        <extensions>
          <ns3:TrackPointExtension>
            <ns3:hr>66</ns3:hr>
            <ns3:cad>64</ns3:cad>
          </ns3:TrackPointExtension>
        </extensions>
      </trkpt>
      <trkpt lat="43.47805953584611415863037109375" lon="1.43312280066311359405517578125">
        <ele>212</ele>
        <time>2026-08-05T09:30:08.000Z</time>
        <extensions>
          <ns3:TrackPointExtension>
            <ns3:hr>66</ns3:hr>
            <ns3:cad>64</ns3:cad>
          </ns3:TrackPointExtension>
        </extensions>
      </trkpt>
      <trkpt lat="43.4780569374561309814453125" lon="1.433123052120208740234375">
        <ele>212</ele>
        <time>2026-08-05T09:30:09.000Z</time>
        <extensions>
          <ns3:TrackPointExtension>
            <ns3:hr>67</ns3:hr>
            <ns3:cad>0</ns3:cad>
          </ns3:TrackPointExtension>
        </extensions>
      </trkpt>
      <trkpt lat="43.4780554287135601043701171875" lon="1.4331215433776378631591796875">
        <ele>211.8000030517578125</ele>
        <time>2026-08-05T09:30:10.000Z</time>
        <extensions>
          <ns3:TrackPointExtension>
            <ns3:hr>66</ns3:hr>
            <ns3:cad>0</ns3:cad>
          </ns3:TrackPointExtension>
        </extensions>
      </trkpt>
      <trkpt lat="43.47805023193359375" lon="1.43311978317797183990478515625">
        <ele>211.8000030517578125</ele>
        <time>2026-08-05T09:30:11.000Z</time>
        <extensions>
          <ns3:TrackPointExtension>
            <ns3:hr>66</ns3:hr>
            <ns3:cad>0</ns3:cad>
          </ns3:TrackPointExtension>
        </extensions>
      </trkpt>
      <trkpt lat="43.4780450351536273956298828125" lon="1.433118693530559539794921875">
        <ele>211.8000030517578125</ele>
        <time>2026-08-05T09:30:12.000Z</time>
        <extensions>
          <ns3:TrackPointExtension>
            <ns3:hr>66</ns3:hr>
            <ns3:cad>0</ns3:cad>
          </ns3:TrackPointExtension>
        </extensions>
      </trkpt>
      <trkpt lat="43.47803958691656589508056640625" lon="1.43311559222638607025146484375">
        <ele>211.8000030517578125</ele>
        <time>2026-08-05T09:30:13.000Z</time>
        <extensions>
          <ns3:TrackPointExtension>
            <ns3:hr>66</ns3:hr>
            <ns3:cad>0</ns3:cad>
          </ns3:TrackPointExtension>
        </extensions>
      </trkpt>
      <trkpt lat="43.47803422249853610992431640625" lon="1.43311374820768833160400390625">
        <ele>211.8000030517578125</ele>
        <time>2026-08-05T09:30:14.000Z</time>
        <extensions>
          <ns3:TrackPointExtension>
            <ns3:hr>66</ns3:hr>
            <ns3:cad>0</ns3:cad>
          </ns3:TrackPointExtension>
        </extensions>
      </trkpt>
      <trkpt lat="43.47802852280437946319580078125" lon="1.43311173655092716217041015625">
        <ele>211.600006103515625</ele>
        <time>2026-08-05T09:30:15.000Z</time>
        <extensions>
          <ns3:TrackPointExtension>
            <ns3:hr>65</ns3:hr>
            <ns3:cad>0</ns3:cad>
          </ns3:TrackPointExtension>
        </extensions>
      </trkpt>
      <trkpt lat="43.478021733462810516357421875" lon="1.43310888670384883880615234375">
        <ele>211.600006103515625</ele>
        <time>2026-08-05T09:30:16.000Z</time>
        <extensions>
          <ns3:TrackPointExtension>
            <ns3:hr>65</ns3:hr>
            <ns3:cad>0</ns3:cad>
          </ns3:TrackPointExtension>
        </extensions>
      </trkpt>
      <trkpt lat="43.47801662050187587738037109375" lon="1.43310436047613620758056640625">
        <ele>211.399993896484375</ele>
        <time>2026-08-05T09:30:17.000Z</time>
        <extensions>
          <ns3:TrackPointExtension>
            <ns3:hr>64</ns3:hr>
            <ns3:cad>0</ns3:cad>
          </ns3:TrackPointExtension>
        </extensions>
      </trkpt>
      <trkpt lat="43.47800756804645061492919921875" lon="1.4331004209816455841064453125">
        <ele>211.399993896484375</ele>
        <time>2026-08-05T09:30:18.000Z</time>
        <extensions>
          <ns3:TrackPointExtension>
            <ns3:hr>64</ns3:hr>
            <ns3:cad>0</ns3:cad>
          </ns3:TrackPointExtension>
        </extensions>
      </trkpt>
      <trkpt lat="43.4779974259436130523681640625" lon="1.4330957271158695220947265625">
        <ele>211.1999969482421875</ele>
        <time>2026-08-05T09:30:19.000Z</time>
        <extensions>
          <ns3:TrackPointExtension>
            <ns3:hr>64</ns3:hr>
            <ns3:cad>0</ns3:cad>
          </ns3:TrackPointExtension>
        </extensions>
      </trkpt>
      <trkpt lat="43.47799046896398067474365234375" lon="1.433090865612030029296875">
        <ele>211.1999969482421875</ele>
        <time>2026-08-05T09:30:20.000Z</time>
        <extensions>
          <ns3:TrackPointExtension>
            <ns3:hr>65</ns3:hr>
            <ns3:cad>0</ns3:cad>
          </ns3:TrackPointExtension>
        </extensions>
      </trkpt>
      <trkpt lat="43.47798191942274570465087890625" lon="1.43309212289750576019287109375">
        <ele>211</ele>
        <time>2026-08-05T09:30:21.000Z</time>
        <extensions>
          <ns3:TrackPointExtension>
            <ns3:hr>65</ns3:hr>
            <ns3:cad>0</ns3:cad>
          </ns3:TrackPointExtension>
        </extensions>
      </trkpt>
      <trkpt lat="43.47797487862408161163330078125" lon="1.43309212289750576019287109375">
        <ele>211</ele>
        <time>2026-08-05T09:30:22.000Z</time>
        <extensions>
          <ns3:TrackPointExtension>
            <ns3:hr>65</ns3:hr>
            <ns3:cad>0</ns3:cad>
          </ns3:TrackPointExtension>
        </extensions>
      </trkpt>
      <trkpt lat="43.47796800546348094940185546875" lon="1.43308793194591999053955078125">
        <ele>211</ele>
        <time>2026-08-05T09:30:23.000Z</time>
        <extensions>
          <ns3:TrackPointExtension>
            <ns3:hr>65</ns3:hr>
            <ns3:cad>0</ns3:cad>
          </ns3:TrackPointExtension>
        </extensions>
      </trkpt>
      <trkpt lat="43.47795836627483367919921875" lon="1.43308508209884166717529296875">
        <ele>210.8000030517578125</ele>
        <time>2026-08-05T09:30:24.000Z</time>
        <extensions>
          <ns3:TrackPointExtension>
            <ns3:hr>65</ns3:hr>
            <ns3:cad>0</ns3:cad>
          </ns3:TrackPointExtension>
        </extensions>
      </trkpt>
      <trkpt lat="43.4779494814574718475341796875" lon="1.43308441154658794403076171875">
        <ele>210.8000030517578125</ele>
        <time>2026-08-05T09:30:25.000Z</time>
        <extensions>
          <ns3:TrackPointExtension>
            <ns3:hr>65</ns3:hr>
            <ns3:cad>48</ns3:cad>
          </ns3:TrackPointExtension>
        </extensions>
      </trkpt>
      <trkpt lat="43.4779431112110614776611328125" lon="1.4330782927572727203369140625">
        <ele>210.600006103515625</ele>
        <time>2026-08-05T09:30:26.000Z</time>
        <extensions>
          <ns3:TrackPointExtension>
            <ns3:hr>64</ns3:hr>
            <ns3:cad>48</ns3:cad>
          </ns3:TrackPointExtension>
        </extensions>
      </trkpt>
      <trkpt lat="43.4779362380504608154296875" lon="1.43307351507246494293212890625">
        <ele>210.600006103515625</ele>
        <time>2026-08-05T09:30:27.000Z</time>
        <extensions>
          <ns3:TrackPointExtension>
            <ns3:hr>65</ns3:hr>
            <ns3:cad>48</ns3:cad>
          </ns3:TrackPointExtension>
        </extensions>
      </trkpt>
      <trkpt lat="43.47793078981339931488037109375" lon="1.43306999467313289642333984375">
        <ele>210.399993896484375</ele>
        <time>2026-08-05T09:30:28.000Z</time>
        <extensions>
          <ns3:TrackPointExtension>
            <ns3:hr>65</ns3:hr>
            <ns3:cad>48</ns3:cad>
          </ns3:TrackPointExtension>
        </extensions>
      </trkpt>
      <trkpt lat="43.4779255092144012451171875" lon="1.433065049350261688232421875">
        <ele>210.1999969482421875</ele>
        <time>2026-08-05T09:30:29.000Z</time>
        <extensions>
          <ns3:TrackPointExtension>
            <ns3:hr>65</ns3:hr>
            <ns3:cad>48</ns3:cad>
          </ns3:TrackPointExtension>
        </extensions>
      </trkpt>
      <trkpt lat="43.47792089916765689849853515625" lon="1.43305993638932704925537109375">
        <ele>210.1999969482421875</ele>
        <time>2026-08-05T09:30:30.000Z</time>
        <extensions>
          <ns3:TrackPointExtension>
            <ns3:hr>66</ns3:hr>
            <ns3:cad>48</ns3:cad>
          </ns3:TrackPointExtension>
        </extensions>
      </trkpt>
      <trkpt lat="43.4779147803783416748046875" lon="1.4330518059432506561279296875">
        <ele>210.1999969482421875</ele>
        <time>2026-08-05T09:30:31.000Z</time>
        <extensions>
          <ns3:TrackPointExtension>
            <ns3:hr>67</ns3:hr>
            <ns3:cad>0</ns3:cad>
          </ns3:TrackPointExtension>
        </extensions>
      </trkpt>
      <trkpt lat="43.477907739579677581787109375" lon="1.43304518423974514007568359375">
        <ele>210</ele>
        <time>2026-08-05T09:30:32.000Z</time>
        <extensions>
          <ns3:TrackPointExtension>
            <ns3:hr>67</ns3:hr>
            <ns3:cad>0</ns3:cad>
          </ns3:TrackPointExtension>
        </extensions>
      </trkpt>
      <trkpt lat="43.47790011204779148101806640625" lon="1.4330387301743030548095703125">
        <ele>210</ele>
        <time>2026-08-05T09:30:33.000Z</time>
        <extensions>
          <ns3:TrackPointExtension>
            <ns3:hr>68</ns3:hr>
            <ns3:cad>0</ns3:cad>
          </ns3:TrackPointExtension>
        </extensions>
      </trkpt>
      <trkpt lat="43.477891981601715087890625" lon="1.43303277902305126190185546875">
        <ele>210</ele>
        <time>2026-08-05T09:30:34.000Z</time>
        <extensions>
          <ns3:TrackPointExtension>
            <ns3:hr>69</ns3:hr>
            <ns3:cad>0</ns3:cad>
          </ns3:TrackPointExtension>
        </extensions>
      </trkpt>
      <trkpt lat="43.4778844378888607025146484375" lon="1.43302422948181629180908203125">
        <ele>209.8000030517578125</ele>
        <time>2026-08-05T09:30:35.000Z</time>
        <extensions>
          <ns3:TrackPointExtension>
            <ns3:hr>69</ns3:hr>
            <ns3:cad>44</ns3:cad>
          </ns3:TrackPointExtension>
        </extensions>
      </trkpt>
      <trkpt lat="43.47787764854729175567626953125" lon="1.43301668576896190643310546875">
        <ele>209.8000030517578125</ele>
        <time>2026-08-05T09:30:36.000Z</time>
        <extensions>
          <ns3:TrackPointExtension>
            <ns3:hr>69</ns3:hr>
            <ns3:cad>44</ns3:cad>
          </ns3:TrackPointExtension>
        </extensions>
      </trkpt>
      <trkpt lat="43.477871529757976531982421875" lon="1.43300972878932952880859375">
        <ele>209.600006103515625</ele>
        <time>2026-08-05T09:30:37.000Z</time>
        <extensions>
          <ns3:TrackPointExtension>
            <ns3:hr>70</ns3:hr>
            <ns3:cad>44</ns3:cad>
          </ns3:TrackPointExtension>
        </extensions>
      </trkpt>
      <trkpt lat="43.4778636507689952850341796875" lon="1.433006711304187774658203125">
        <ele>209.399993896484375</ele>
        <time>2026-08-05T09:30:38.000Z</time>
        <extensions>
          <ns3:TrackPointExtension>
            <ns3:hr>70</ns3:hr>
            <ns3:cad>44</ns3:cad>
          </ns3:TrackPointExtension>
        </extensions>
      </trkpt>
      <trkpt lat="43.47785568796098232269287109375" lon="1.4330031909048557281494140625">
        <ele>209.399993896484375</ele>
        <time>2026-08-05T09:30:39.000Z</time>
        <extensions>
          <ns3:TrackPointExtension>
            <ns3:hr>70</ns3:hr>
            <ns3:cad>44</ns3:cad>
          </ns3:TrackPointExtension>
        </extensions>
      </trkpt>
      <trkpt lat="43.47784797661006450653076171875" lon="1.4330008439719676971435546875">
        <ele>209.1999969482421875</ele>
        <time>2026-08-05T09:30:40.000Z</time>
        <extensions>
          <ns3:TrackPointExtension>
            <ns3:hr>70</ns3:hr>
            <ns3:cad>47</ns3:cad>
          </ns3:TrackPointExtension>
        </extensions>
      </trkpt>
      <trkpt lat="43.47783925943076610565185546875" lon="1.43299623392522335052490234375">
        <ele>209</ele>
        <time>2026-08-05T09:30:41.000Z</time>
        <extensions>
          <ns3:TrackPointExtension>
            <ns3:hr>69</ns3:hr>
            <ns3:cad>47</ns3:cad>
          </ns3:TrackPointExtension>
        </extensions>
      </trkpt>
      <trkpt lat="43.477831296622753143310546875" lon="1.43299095332622528076171875">
        <ele>209</ele>
        <time>2026-08-05T09:30:42.000Z</time>
        <extensions>
          <ns3:TrackPointExtension>
            <ns3:hr>69</ns3:hr>
            <ns3:cad>47</ns3:cad>
          </ns3:TrackPointExtension>
        </extensions>
      </trkpt>
      <trkpt lat="43.4778230823576450347900390625" lon="1.43298701383173465728759765625">
        <ele>208.8000030517578125</ele>
        <time>2026-08-05T09:30:43.000Z</time>
        <extensions>
          <ns3:TrackPointExtension>
            <ns3:hr>69</ns3:hr>
            <ns3:cad>47</ns3:cad>
          </ns3:TrackPointExtension>
        </extensions>
      </trkpt>
      <trkpt lat="43.4778153710067272186279296875" lon="1.43298315815627574920654296875">
        <ele>208.8000030517578125</ele>
        <time>2026-08-05T09:30:44.000Z</time>
        <extensions>
          <ns3:TrackPointExtension>
            <ns3:hr>69</ns3:hr>
            <ns3:cad>48</ns3:cad>
          </ns3:TrackPointExtension>
        </extensions>
      </trkpt>
      <trkpt lat="43.47780682146549224853515625" lon="1.43297896720468997955322265625">
        <ele>208.8000030517578125</ele>
        <time>2026-08-05T09:30:45.000Z</time>
        <extensions>
          <ns3:TrackPointExtension>
            <ns3:hr>69</ns3:hr>
            <ns3:cad>48</ns3:cad>
          </ns3:TrackPointExtension>
        </extensions>
      </trkpt>
      <trkpt lat="43.4777994453907012939453125" lon="1.432974524796009063720703125">
        <ele>208.600006103515625</ele>
        <time>2026-08-05T09:30:46.000Z</time>
        <extensions>
          <ns3:TrackPointExtension>
            <ns3:hr>69</ns3:hr>
            <ns3:cad>48</ns3:cad>
          </ns3:TrackPointExtension>
        </extensions>
      </trkpt>
      <trkpt lat="43.4777915664017200469970703125" lon="1.4329688251018524169921875">
        <ele>208.600006103515625</ele>
        <time>2026-08-05T09:30:47.000Z</time>
        <extensions>
          <ns3:TrackPointExtension>
            <ns3:hr>68</ns3:hr>
            <ns3:cad>0</ns3:cad>
          </ns3:TrackPointExtension>
        </extensions>
      </trkpt>
      <trkpt lat="43.4777858667075634002685546875" lon="1.43296639434993267059326171875">
        <ele>208.600006103515625</ele>
        <time>2026-08-05T09:30:48.000Z</time>
        <extensions>
          <ns3:TrackPointExtension>
            <ns3:hr>67</ns3:hr>
            <ns3:cad>0</ns3:cad>
          </ns3:TrackPointExtension>
        </extensions>
      </trkpt>
      <trkpt lat="43.47777807153761386871337890625" lon="1.432964466512203216552734375">
        <ele>208.399993896484375</ele>
        <time>2026-08-05T09:30:49.000Z</time>
        <extensions>
          <ns3:TrackPointExtension>
            <ns3:hr>67</ns3:hr>
            <ns3:cad>0</ns3:cad>
          </ns3:TrackPointExtension>
        </extensions>
      </trkpt>
      <trkpt lat="43.47776784561574459075927734375" lon="1.43296186812222003936767578125">
        <ele>208.399993896484375</ele>
        <time>2026-08-05T09:30:50.000Z</time>
        <extensions>
          <ns3:TrackPointExtension>
            <ns3:hr>67</ns3:hr>
            <ns3:cad>0</ns3:cad>
          </ns3:TrackPointExtension>
        </extensions>
      </trkpt>
      <trkpt lat="43.477758206427097320556640625" lon="1.432958431541919708251953125">
        <ele>208.1999969482421875</ele>
        <time>2026-08-05T09:30:51.000Z</time>
        <extensions>
          <ns3:TrackPointExtension>
            <ns3:hr>68</ns3:hr>
            <ns3:cad>0</ns3:cad>
          </ns3:TrackPointExtension>
        </extensions>
      </trkpt>
      <trkpt lat="43.47775057889521121978759765625" lon="1.43295608460903167724609375">
        <ele>208.1999969482421875</ele>
        <time>2026-08-05T09:30:52.000Z</time>
        <extensions>
          <ns3:TrackPointExtension>
            <ns3:hr>68</ns3:hr>
            <ns3:cad>46</ns3:cad>
          </ns3:TrackPointExtension>
        </extensions>
      </trkpt>
      <trkpt lat="43.47774001769721508026123046875" lon="1.43295633606612682342529296875">
        <ele>208</ele>
        <time>2026-08-05T09:30:53.000Z</time>
        <extensions>
          <ns3:TrackPointExtension>
            <ns3:hr>69</ns3:hr>
            <ns3:cad>46</ns3:cad>
          </ns3:TrackPointExtension>
        </extensions>
      </trkpt>
      <trkpt lat="43.477731384336948394775390625" lon="1.4329525642096996307373046875">
        <ele>208</ele>
        <time>2026-08-05T09:30:54.000Z</time>
        <extensions>
          <ns3:TrackPointExtension>
            <ns3:hr>70</ns3:hr>
            <ns3:cad>0</ns3:cad>
          </ns3:TrackPointExtension>
        </extensions>
      </trkpt>
      <trkpt lat="43.47772409208118915557861328125" lon="1.4329498820006847381591796875">
        <ele>208</ele>
        <time>2026-08-05T09:30:55.000Z</time>
        <extensions>
          <ns3:TrackPointExtension>
            <ns3:hr>70</ns3:hr>
            <ns3:cad>0</ns3:cad>
          </ns3:TrackPointExtension>
        </extensions>
      </trkpt>
      <trkpt lat="43.47771562635898590087890625" lon="1.43295097164809703826904296875">
        <ele>208</ele>
        <time>2026-08-05T09:30:56.000Z</time>
        <extensions>
          <ns3:TrackPointExtension>
            <ns3:hr>70</ns3:hr>
            <ns3:cad>0</ns3:cad>
          </ns3:TrackPointExtension>
        </extensions>
      </trkpt>
      <trkpt lat="43.47770866937935352325439453125" lon="1.4329471997916698455810546875">
        <ele>208</ele>
        <time>2026-08-05T09:30:57.000Z</time>
        <extensions>
          <ns3:TrackPointExtension>
            <ns3:hr>69</ns3:hr>
            <ns3:cad>0</ns3:cad>
          </ns3:TrackPointExtension>
        </extensions>
      </trkpt>
      <trkpt lat="43.4777002036571502685546875" lon="1.43294258974492549896240234375">
        <ele>208</ele>
        <time>2026-08-05T09:30:58.000Z</time>
        <extensions>
          <ns3:TrackPointExtension>
            <ns3:hr>69</ns3:hr>
            <ns3:cad>0</ns3:cad>
          </ns3:TrackPointExtension>
        </extensions>
      </trkpt>
      <trkpt lat="43.477691151201725006103515625" lon="1.43293856643140316009521484375">
        <ele>207.8000030517578125</ele>
        <time>2026-08-05T09:30:59.000Z</time>
        <extensions>
          <ns3:TrackPointExtension>
            <ns3:hr>68</ns3:hr>
            <ns3:cad>0</ns3:cad>
          </ns3:TrackPointExtension>
        </extensions>
      </trkpt>
      <trkpt lat="43.47768167965114116668701171875" lon="1.43293957225978374481201171875">
        <ele>207.8000030517578125</ele>
        <time>2026-08-05T09:31:00.000Z</time>
        <extensions>
          <ns3:TrackPointExtension>
            <ns3:hr>68</ns3:hr>
            <ns3:cad>0</ns3:cad>
          </ns3:TrackPointExtension>
        </extensions>
      </trkpt>
      <trkpt lat="43.4776747226715087890625" lon="1.43293722532689571380615234375">
        <ele>207.8000030517578125</ele>
        <time>2026-08-05T09:31:01.000Z</time>
        <extensions>
          <ns3:TrackPointExtension>
            <ns3:hr>68</ns3:hr>
            <ns3:cad>0</ns3:cad>
          </ns3:TrackPointExtension>
        </extensions>
      </trkpt>
      <trkpt lat="43.47766659222543239593505859375" lon="1.43293538130819797515869140625">
        <ele>207.600006103515625</ele>
        <time>2026-08-05T09:31:02.000Z</time>
        <extensions>
          <ns3:TrackPointExtension>
            <ns3:hr>67</ns3:hr>
            <ns3:cad>0</ns3:cad>
          </ns3:TrackPointExtension>
        </extensions>
      </trkpt>
      <trkpt lat="43.4776561148464679718017578125" lon="1.43293336965143680572509765625">
        <ele>207.600006103515625</ele>
        <time>2026-08-05T09:31:03.000Z</time>
        <extensions>
          <ns3:TrackPointExtension>
            <ns3:hr>67</ns3:hr>
            <ns3:cad>44</ns3:cad>
          </ns3:TrackPointExtension>
        </extensions>
      </trkpt>
      <trkpt lat="43.4776467271149158477783203125" lon="1.43293387256562709808349609375">
        <ele>207.399993896484375</ele>
        <time>2026-08-05T09:31:04.000Z</time>
        <extensions>
          <ns3:TrackPointExtension>
            <ns3:hr>68</ns3:hr>
            <ns3:cad>44</ns3:cad>
          </ns3:TrackPointExtension>
        </extensions>
      </trkpt>
      <trkpt lat="43.47763784229755401611328125" lon="1.432931609451770782470703125">
        <ele>207.399993896484375</ele>
        <time>2026-08-05T09:31:05.000Z</time>
        <extensions>
          <ns3:TrackPointExtension>
            <ns3:hr>69</ns3:hr>
            <ns3:cad>47</ns3:cad>
          </ns3:TrackPointExtension>
        </extensions>
      </trkpt>
      <trkpt lat="43.47763004712760448455810546875" lon="1.4329297654330730438232421875">
        <ele>207.1999969482421875</ele>
        <time>2026-08-05T09:31:06.000Z</time>
        <extensions>
          <ns3:TrackPointExtension>
            <ns3:hr>70</ns3:hr>
            <ns3:cad>47</ns3:cad>
          </ns3:TrackPointExtension>
        </extensions>
      </trkpt>
      <trkpt lat="43.4776235930621623992919921875" lon="1.43292800523340702056884765625">
        <ele>207.1999969482421875</ele>
        <time>2026-08-05T09:31:07.000Z</time>
        <extensions>
          <ns3:TrackPointExtension>
            <ns3:hr>71</ns3:hr>
            <ns3:cad>47</ns3:cad>
          </ns3:TrackPointExtension>
        </extensions>
      </trkpt>
      <trkpt lat="43.47761596553027629852294921875" lon="1.43292683176696300506591796875">
        <ele>207.1999969482421875</ele>
        <time>2026-08-05T09:31:08.000Z</time>
        <extensions>
          <ns3:TrackPointExtension>
            <ns3:hr>71</ns3:hr>
            <ns3:cad>46</ns3:cad>
          </ns3:TrackPointExtension>
        </extensions>
      </trkpt>
      <trkpt lat="43.47761026583611965179443359375" lon="1.43292616121470928192138671875">
        <ele>207</ele>
        <time>2026-08-05T09:31:09.000Z</time>
        <extensions>
          <ns3:TrackPointExtension>
            <ns3:hr>71</ns3:hr>
            <ns3:cad>46</ns3:cad>
          </ns3:TrackPointExtension>
        </extensions>
      </trkpt>
      <trkpt lat="43.4776031412184238433837890625" lon="1.43292264081537723541259765625">
        <ele>207</ele>
        <time>2026-08-05T09:31:10.000Z</time>
        <extensions>
          <ns3:TrackPointExtension>
            <ns3:hr>71</ns3:hr>
            <ns3:cad>46</ns3:cad>
          </ns3:TrackPointExtension>
        </extensions>
      </trkpt>
      <trkpt lat="43.47759517841041088104248046875" lon="1.43291777931153774261474609375">
        <ele>207</ele>
        <time>2026-08-05T09:31:11.000Z</time>
        <extensions>
          <ns3:TrackPointExtension>
            <ns3:hr>71</ns3:hr>
            <ns3:cad>46</ns3:cad>
          </ns3:TrackPointExtension>
        </extensions>
      </trkpt>
      <trkpt lat="43.47758746705949306488037109375" lon="1.4329180307686328887939453125">
        <ele>207</ele>
        <time>2026-08-05T09:31:12.000Z</time>
        <extensions>
          <ns3:TrackPointExtension>
            <ns3:hr>72</ns3:hr>
            <ns3:cad>46</ns3:cad>
          </ns3:TrackPointExtension>
        </extensions>
      </trkpt>
      <trkpt lat="43.4775756485760211944580078125" lon="1.43292062915861606597900390625">
        <ele>206.8000030517578125</ele>
        <time>2026-08-05T09:31:13.000Z</time>
        <extensions>
          <ns3:TrackPointExtension>
            <ns3:hr>73</ns3:hr>
            <ns3:cad>46</ns3:cad>
          </ns3:TrackPointExtension>
        </extensions>
      </trkpt>
      <trkpt lat="43.47756718285381793975830078125" lon="1.4329180307686328887939453125">
        <ele>206.8000030517578125</ele>
        <time>2026-08-05T09:31:14.000Z</time>
        <extensions>
          <ns3:TrackPointExtension>
            <ns3:hr>73</ns3:hr>
            <ns3:cad>46</ns3:cad>
          </ns3:TrackPointExtension>
        </extensions>
      </trkpt>
      <trkpt lat="43.47756098024547100067138671875" lon="1.432913504540920257568359375">
        <ele>206.8000030517578125</ele>
        <time>2026-08-05T09:31:15.000Z</time>
        <extensions>
          <ns3:TrackPointExtension>
            <ns3:hr>72</ns3:hr>
            <ns3:cad>46</ns3:cad>
          </ns3:TrackPointExtension>
        </extensions>
      </trkpt>
      <trkpt lat="43.47754756920039653778076171875" lon="1.432908810675144195556640625">
        <ele>206.8000030517578125</ele>
        <time>2026-08-05T09:31:16.000Z</time>
        <extensions>
          <ns3:TrackPointExtension>
            <ns3:hr>70</ns3:hr>
            <ns3:cad>47</ns3:cad>
          </ns3:TrackPointExtension>
        </extensions>
      </trkpt>
      <trkpt lat="43.47753935493528842926025390625" lon="1.432903110980987548828125">
        <ele>206.8000030517578125</ele>
        <time>2026-08-05T09:31:17.000Z</time>
        <extensions>
          <ns3:TrackPointExtension>
            <ns3:hr>68</ns3:hr>
            <ns3:cad>47</ns3:cad>
          </ns3:TrackPointExtension>
        </extensions>
      </trkpt>
      <trkpt lat="43.477532230317592620849609375" lon="1.43289632163941860198974609375">
        <ele>206.600006103515625</ele>
        <time>2026-08-05T09:31:18.000Z</time>
        <extensions>
          <ns3:TrackPointExtension>
            <ns3:hr>67</ns3:hr>
            <ns3:cad>47</ns3:cad>
          </ns3:TrackPointExtension>
        </extensions>
      </trkpt>
      <trkpt lat="43.47752242349088191986083984375" lon="1.43289481289684772491455078125">
        <ele>206.600006103515625</ele>
        <time>2026-08-05T09:31:19.000Z</time>
        <extensions>
          <ns3:TrackPointExtension>
            <ns3:hr>67</ns3:hr>
            <ns3:cad>46</ns3:cad>
          </ns3:TrackPointExtension>
        </extensions>
      </trkpt>
      <trkpt lat="43.47751052118837833404541015625" lon="1.43289439380168914794921875">
        <ele>206.600006103515625</ele>
        <time>2026-08-05T09:31:20.000Z</time>
        <extensions>
          <ns3:TrackPointExtension>
            <ns3:hr>67</ns3:hr>
            <ns3:cad>46</ns3:cad>
          </ns3:TrackPointExtension>
        </extensions>
      </trkpt>
      <trkpt lat="43.477503396570682525634765625" lon="1.43289682455360889434814453125">
        <ele>206.600006103515625</ele>
        <time>2026-08-05T09:31:21.000Z</time>
        <extensions>
          <ns3:TrackPointExtension>
            <ns3:hr>68</ns3:hr>
            <ns3:cad>43</ns3:cad>
          </ns3:TrackPointExtension>
        </extensions>
      </trkpt>
      <trkpt lat="43.477494008839130401611328125" lon="1.4328965730965137481689453125">
        <ele>206.600006103515625</ele>
        <time>2026-08-05T09:31:22.000Z</time>
        <extensions>
          <ns3:TrackPointExtension>
            <ns3:hr>69</ns3:hr>
            <ns3:cad>42</ns3:cad>
          </ns3:TrackPointExtension>
        </extensions>
      </trkpt>
      <trkpt lat="43.4774911589920520782470703125" lon="1.432891376316547393798828125">
        <ele>206.600006103515625</ele>
        <time>2026-08-05T09:31:23.000Z</time>
        <extensions>
          <ns3:TrackPointExtension>
            <ns3:hr>70</ns3:hr>
            <ns3:cad>42</ns3:cad>
          </ns3:TrackPointExtension>
        </extensions>
      </trkpt>
      <trkpt lat="43.47748738713562488555908203125" lon="1.43289330415427684783935546875">
        <ele>206.600006103515625</ele>
        <time>2026-08-05T09:31:24.000Z</time>
        <extensions>
          <ns3:TrackPointExtension>
            <ns3:hr>70</ns3:hr>
            <ns3:cad>0</ns3:cad>
          </ns3:TrackPointExtension>
        </extensions>
      </trkpt>
      <trkpt lat="43.47748487256467342376708984375" lon="1.43289447762072086334228515625">
        <ele>206.600006103515625</ele>
        <time>2026-08-05T09:31:25.000Z</time>
        <extensions>
          <ns3:TrackPointExtension>
            <ns3:hr>70</ns3:hr>
            <ns3:cad>0</ns3:cad>
          </ns3:TrackPointExtension>
        </extensions>
      </trkpt>
      <trkpt lat="43.47748185507953166961669921875" lon="1.43289296887814998626708984375">
        <ele>206.600006103515625</ele>
        <time>2026-08-05T09:31:26.000Z</time>
        <extensions>
          <ns3:TrackPointExtension>
            <ns3:hr>70</ns3:hr>
            <ns3:cad>0</ns3:cad>
          </ns3:TrackPointExtension>
        </extensions>
      </trkpt>
      <trkpt lat="43.47747649066150188446044921875" lon="1.432889364659786224365234375">
        <ele>206.600006103515625</ele>
        <time>2026-08-05T09:31:27.000Z</time>
        <extensions>
          <ns3:TrackPointExtension>
            <ns3:hr>70</ns3:hr>
            <ns3:cad>0</ns3:cad>
          </ns3:TrackPointExtension>
        </extensions>
      </trkpt>
      <trkpt lat="43.47746525891125202178955078125" lon="1.4328861795365810394287109375">
        <ele>206.600006103515625</ele>
        <time>2026-08-05T09:31:28.000Z</time>
        <extensions>
          <ns3:TrackPointExtension>
            <ns3:hr>69</ns3:hr>
            <ns3:cad>45</ns3:cad>
          </ns3:TrackPointExtension>
        </extensions>
      </trkpt>
      <trkpt lat="43.47745721228420734405517578125" lon="1.43288341350853443145751953125">
        <ele>206.600006103515625</ele>
        <time>2026-08-05T09:31:29.000Z</time>
        <extensions>
          <ns3:TrackPointExtension>
            <ns3:hr>69</ns3:hr>
            <ns3:cad>45</ns3:cad>
          </ns3:TrackPointExtension>
        </extensions>
      </trkpt>
      <trkpt lat="43.4774515964090824127197265625" lon="1.43287955783307552337646484375">
        <ele>206.399993896484375</ele>
        <time>2026-08-05T09:31:30.000Z</time>
        <extensions>
          <ns3:TrackPointExtension>
            <ns3:hr>68</ns3:hr>
            <ns3:cad>0</ns3:cad>
          </ns3:TrackPointExtension>
        </extensions>
      </trkpt>
      <trkpt lat="43.47744732163846492767333984375" lon="1.4328757859766483306884765625">
        <ele>206.399993896484375</ele>
        <time>2026-08-05T09:31:31.000Z</time>
        <extensions>
          <ns3:TrackPointExtension>
            <ns3:hr>68</ns3:hr>
            <ns3:cad>0</ns3:cad>
          </ns3:TrackPointExtension>
        </extensions>
      </trkpt>
      <trkpt lat="43.47744061611592769622802734375" lon="1.4328722655773162841796875">
        <ele>206.399993896484375</ele>
        <time>2026-08-05T09:31:32.000Z</time>
        <extensions>
          <ns3:TrackPointExtension>
            <ns3:hr>68</ns3:hr>
            <ns3:cad>43</ns3:cad>
          </ns3:TrackPointExtension>
        </extensions>
      </trkpt>
      <trkpt lat="43.47743541933596134185791015625" lon="1.432868577539920806884765625">
        <ele>206.399993896484375</ele>
        <time>2026-08-05T09:31:33.000Z</time>
        <extensions>
          <ns3:TrackPointExtension>
            <ns3:hr>68</ns3:hr>
            <ns3:cad>43</ns3:cad>
          </ns3:TrackPointExtension>
        </extensions>
      </trkpt>
      <trkpt lat="43.477430306375026702880859375" lon="1.43286623060703277587890625">
        <ele>206.399993896484375</ele>
        <time>2026-08-05T09:31:34.000Z</time>
        <extensions>
          <ns3:TrackPointExtension>
            <ns3:hr>67</ns3:hr>
            <ns3:cad>43</ns3:cad>
          </ns3:TrackPointExtension>
        </extensions>
      </trkpt>
      <trkpt lat="43.4774180687963962554931640625" lon="1.43286757171154022216796875">
        <ele>206.399993896484375</ele>
        <time>2026-08-05T09:31:35.000Z</time>
        <extensions>
          <ns3:TrackPointExtension>
            <ns3:hr>68</ns3:hr>
            <ns3:cad>43</ns3:cad>
          </ns3:TrackPointExtension>
        </extensions>
      </trkpt>
      <trkpt lat="43.47740608267486095428466796875" lon="1.43287025392055511474609375">
        <ele>206.399993896484375</ele>
        <time>2026-08-05T09:31:36.000Z</time>
        <extensions>
          <ns3:TrackPointExtension>
            <ns3:hr>69</ns3:hr>
            <ns3:cad>43</ns3:cad>
          </ns3:TrackPointExtension>
        </extensions>
      </trkpt>
      <trkpt lat="43.47739954479038715362548828125" lon="1.43287134356796741485595703125">
        <ele>206.1999969482421875</ele>
        <time>2026-08-05T09:31:37.000Z</time>
        <extensions>
          <ns3:TrackPointExtension>
            <ns3:hr>69</ns3:hr>
            <ns3:cad>41</ns3:cad>
          </ns3:TrackPointExtension>
        </extensions>
      </trkpt>
      <trkpt lat="43.47739242017269134521484375" lon="1.432867906987667083740234375">
        <ele>206.1999969482421875</ele>
        <time>2026-08-05T09:31:38.000Z</time>
        <extensions>
          <ns3:TrackPointExtension>
            <ns3:hr>69</ns3:hr>
            <ns3:cad>41</ns3:cad>
          </ns3:TrackPointExtension>
        </extensions>
      </trkpt>
      <trkpt lat="43.47738395445048809051513671875" lon="1.43286614678800106048583984375">
        <ele>206.1999969482421875</ele>
        <time>2026-08-05T09:31:39.000Z</time>
        <extensions>
          <ns3:TrackPointExtension>
            <ns3:hr>70</ns3:hr>
            <ns3:cad>43</ns3:cad>
          </ns3:TrackPointExtension>
        </extensions>
      </trkpt>
      <trkpt lat="43.4773721359670162200927734375" lon="1.43286279402673244476318359375">
        <ele>206.1999969482421875</ele>
        <time>2026-08-05T09:31:40.000Z</time>
        <extensions>
          <ns3:TrackPointExtension>
            <ns3:hr>70</ns3:hr>
            <ns3:cad>45</ns3:cad>
          </ns3:TrackPointExtension>
        </extensions>
      </trkpt>
      <trkpt lat="43.477363251149654388427734375" lon="1.43286229111254215240478515625">
        <ele>206.1999969482421875</ele>
        <time>2026-08-05T09:31:41.000Z</time>
        <extensions>
          <ns3:TrackPointExtension>
            <ns3:hr>70</ns3:hr>
            <ns3:cad>45</ns3:cad>
          </ns3:TrackPointExtension>
        </extensions>
      </trkpt>
      <trkpt lat="43.4773568809032440185546875" lon="1.43286061473190784454345703125">
        <ele>206</ele>
        <time>2026-08-05T09:31:42.000Z</time>
        <extensions>
          <ns3:TrackPointExtension>
            <ns3:hr>71</ns3:hr>
            <ns3:cad>45</ns3:cad>
          </ns3:TrackPointExtension>
        </extensions>
      </trkpt>
      <trkpt lat="43.4773449786007404327392578125" lon="1.43285818397998809814453125">
        <ele>206</ele>
        <time>2026-08-05T09:31:43.000Z</time>
        <extensions>
          <ns3:TrackPointExtension>
            <ns3:hr>70</ns3:hr>
            <ns3:cad>45</ns3:cad>
          </ns3:TrackPointExtension>
        </extensions>
      </trkpt>
      <trkpt lat="43.4773315675556659698486328125" lon="1.43285877071321010589599609375">
        <ele>206.1999969482421875</ele>
        <time>2026-08-05T09:31:44.000Z</time>
        <extensions>
          <ns3:TrackPointExtension>
            <ns3:hr>71</ns3:hr>
            <ns3:cad>44</ns3:cad>
          </ns3:TrackPointExtension>
        </extensions>
      </trkpt>
      <trkpt lat="43.47732192836701869964599609375" lon="1.4328573457896709442138671875">
        <ele>206.1999969482421875</ele>
        <time>2026-08-05T09:31:45.000Z</time>
        <extensions>
          <ns3:TrackPointExtension>
            <ns3:hr>71</ns3:hr>
            <ns3:cad>44</ns3:cad>
          </ns3:TrackPointExtension>
        </extensions>
      </trkpt>
      <trkpt lat="43.4773139655590057373046875" lon="1.43285558559000492095947265625">
        <ele>206.1999969482421875</ele>
        <time>2026-08-05T09:31:46.000Z</time>
        <extensions>
          <ns3:TrackPointExtension>
            <ns3:hr>71</ns3:hr>
            <ns3:cad>44</ns3:cad>
          </ns3:TrackPointExtension>
        </extensions>
      </trkpt>
      <trkpt lat="43.47730164416134357452392578125" lon="1.43285684287548065185546875">
        <ele>206.1999969482421875</ele>
        <time>2026-08-05T09:31:47.000Z</time>
        <extensions>
          <ns3:TrackPointExtension>
            <ns3:hr>71</ns3:hr>
            <ns3:cad>44</ns3:cad>
          </ns3:TrackPointExtension>
        </extensions>
      </trkpt>
      <trkpt lat="43.477290160953998565673828125" lon="1.4328583516180515289306640625">
        <ele>206.1999969482421875</ele>
        <time>2026-08-05T09:31:48.000Z</time>
        <extensions>
          <ns3:TrackPointExtension>
            <ns3:hr>71</ns3:hr>
            <ns3:cad>44</ns3:cad>
          </ns3:TrackPointExtension>
        </extensions>
      </trkpt>
      <trkpt lat="43.47728102467954158782958984375" lon="1.4328583516180515289306640625">
        <ele>206.1999969482421875</ele>
        <time>2026-08-05T09:31:49.000Z</time>
        <extensions>
          <ns3:TrackPointExtension>
            <ns3:hr>71</ns3:hr>
            <ns3:cad>44</ns3:cad>
          </ns3:TrackPointExtension>
        </extensions>
      </trkpt>
      <trkpt lat="43.47727012820541858673095703125" lon="1.432857848703861236572265625">
        <ele>206.1999969482421875</ele>
        <time>2026-08-05T09:31:50.000Z</time>
        <extensions>
          <ns3:TrackPointExtension>
            <ns3:hr>72</ns3:hr>
            <ns3:cad>44</ns3:cad>
          </ns3:TrackPointExtension>
        </extensions>
      </trkpt>
      <trkpt lat="43.47726107574999332427978515625" lon="1.4328560046851634979248046875">
        <ele>206.1999969482421875</ele>
        <time>2026-08-05T09:31:51.000Z</time>
        <extensions>
          <ns3:TrackPointExtension>
            <ns3:hr>71</ns3:hr>
            <ns3:cad>42</ns3:cad>
          </ns3:TrackPointExtension>
        </extensions>
      </trkpt>
      <trkpt lat="43.4772527776658535003662109375" lon="1.432855837047100067138671875">
        <ele>206.1999969482421875</ele>
        <time>2026-08-05T09:31:52.000Z</time>
        <extensions>
          <ns3:TrackPointExtension>
            <ns3:hr>71</ns3:hr>
            <ns3:cad>42</ns3:cad>
          </ns3:TrackPointExtension>
        </extensions>
      </trkpt>
      <trkpt lat="43.47724297083914279937744140625" lon="1.43285793252289295196533203125">
        <ele>206.1999969482421875</ele>
        <time>2026-08-05T09:31:53.000Z</time>
        <extensions>
          <ns3:TrackPointExtension>
            <ns3:hr>71</ns3:hr>
            <ns3:cad>41</ns3:cad>
          </ns3:TrackPointExtension>
        </extensions>
      </trkpt>
      <trkpt lat="43.47723442129790782928466796875" lon="1.4328620396554470062255859375">
        <ele>206.1999969482421875</ele>
        <time>2026-08-05T09:31:54.000Z</time>
        <extensions>
          <ns3:TrackPointExtension>
            <ns3:hr>71</ns3:hr>
            <ns3:cad>41</ns3:cad>
          </ns3:TrackPointExtension>
        </extensions>
      </trkpt>
      <trkpt lat="43.47723056562244892120361328125" lon="1.432865224778652191162109375">
        <ele>206.1999969482421875</ele>
        <time>2026-08-05T09:31:55.000Z</time>
        <extensions>
          <ns3:TrackPointExtension>
            <ns3:hr>71</ns3:hr>
            <ns3:cad>40</ns3:cad>
          </ns3:TrackPointExtension>
        </extensions>
      </trkpt>
      <trkpt lat="43.47722075879573822021484375" lon="1.43286866135895252227783203125">
        <ele>206.1999969482421875</ele>
        <time>2026-08-05T09:31:56.000Z</time>
        <extensions>
          <ns3:TrackPointExtension>
            <ns3:hr>71</ns3:hr>
            <ns3:cad>40</ns3:cad>
          </ns3:TrackPointExtension>
        </extensions>
      </trkpt>
      <trkpt lat="43.4772155620157718658447265625" lon="1.4328663982450962066650390625">
        <ele>206.399993896484375</ele>
        <time>2026-08-05T09:31:57.000Z</time>
        <extensions>
          <ns3:TrackPointExtension>
            <ns3:hr>71</ns3:hr>
            <ns3:cad>40</ns3:cad>
          </ns3:TrackPointExtension>
        </extensions>
      </trkpt>
      <trkpt lat="43.477210700511932373046875" lon="1.43286430276930332183837890625">
        <ele>206.399993896484375</ele>
        <time>2026-08-05T09:31:58.000Z</time>
        <extensions>
          <ns3:TrackPointExtension>
            <ns3:hr>71</ns3:hr>
            <ns3:cad>40</ns3:cad>
          </ns3:TrackPointExtension>
        </extensions>
      </trkpt>
      <trkpt lat="43.47720139659941196441650390625" lon="1.4328670687973499298095703125">
        <ele>206.600006103515625</ele>
        <time>2026-08-05T09:31:59.000Z</time>
        <extensions>
          <ns3:TrackPointExtension>
            <ns3:hr>71</ns3:hr>
            <ns3:cad>40</ns3:cad>
          </ns3:TrackPointExtension>
        </extensions>
      </trkpt>
      <trkpt lat="43.47719267942011356353759765625" lon="1.43287285231053829193115234375">
        <ele>206.600006103515625</ele>
        <time>2026-08-05T09:32:00.000Z</time>
        <extensions>
          <ns3:TrackPointExtension>
            <ns3:hr>71</ns3:hr>
            <ns3:cad>41</ns3:cad>
          </ns3:TrackPointExtension>
        </extensions>
      </trkpt>
      <trkpt lat="43.477186895906925201416015625" lon="1.4328767918050289154052734375">
        <ele>206.8000030517578125</ele>
        <time>2026-08-05T09:32:01.000Z</time>
        <extensions>
          <ns3:TrackPointExtension>
            <ns3:hr>72</ns3:hr>
            <ns3:cad>41</ns3:cad>
          </ns3:TrackPointExtension>
        </extensions>
      </trkpt>
      <trkpt lat="43.4771843813359737396240234375" lon="1.43287771381437778472900390625">
        <ele>206.8000030517578125</ele>
        <time>2026-08-05T09:32:02.000Z</time>
        <extensions>
          <ns3:TrackPointExtension>
            <ns3:hr>71</ns3:hr>
            <ns3:cad>41</ns3:cad>
          </ns3:TrackPointExtension>
        </extensions>
      </trkpt>
      <trkpt lat="43.47717725671827793121337890625" lon="1.4328804798424243927001953125">
        <ele>206.8000030517578125</ele>
        <time>2026-08-05T09:32:03.000Z</time>
        <extensions>
          <ns3:TrackPointExtension>
            <ns3:hr>71</ns3:hr>
            <ns3:cad>41</ns3:cad>
          </ns3:TrackPointExtension>
        </extensions>
      </trkpt>
      <trkpt lat="43.47717273049056529998779296875" lon="1.43287972547113895416259765625">
        <ele>206.8000030517578125</ele>
        <time>2026-08-05T09:32:04.000Z</time>
        <extensions>
          <ns3:TrackPointExtension>
            <ns3:hr>72</ns3:hr>
            <ns3:cad>41</ns3:cad>
          </ns3:TrackPointExtension>
        </extensions>
      </trkpt>
      <trkpt lat="43.47716510295867919921875" lon="1.43287754617631435394287109375">
        <ele>206.8000030517578125</ele>
        <time>2026-08-05T09:32:05.000Z</time>
        <extensions>
          <ns3:TrackPointExtension>
            <ns3:hr>72</ns3:hr>
            <ns3:cad>41</ns3:cad>
          </ns3:TrackPointExtension>
        </extensions>
      </trkpt>
      <trkpt lat="43.47716267220675945281982421875" lon="1.432879306375980377197265625">
        <ele>206.8000030517578125</ele>
        <time>2026-08-05T09:32:06.000Z</time>
        <extensions>
          <ns3:TrackPointExtension>
            <ns3:hr>72</ns3:hr>
            <ns3:cad>41</ns3:cad>
          </ns3:TrackPointExtension>
        </extensions>
      </trkpt>
      <trkpt lat="43.4771582297980785369873046875" lon="1.43288341350853443145751953125">
        <ele>207</ele>
        <time>2026-08-05T09:32:07.000Z</time>
        <extensions>
          <ns3:TrackPointExtension>
            <ns3:hr>72</ns3:hr>
            <ns3:cad>77</ns3:cad>
          </ns3:TrackPointExtension>
        </extensions>
      </trkpt>
      <trkpt lat="43.47714892588555812835693359375" lon="1.43288232386112213134765625">
        <ele>207.1999969482421875</ele>
        <time>2026-08-05T09:32:08.000Z</time>
        <extensions>
          <ns3:TrackPointExtension>
            <ns3:hr>73</ns3:hr>
            <ns3:cad>78</ns3:cad>
          </ns3:TrackPointExtension>
        </extensions>
      </trkpt>
      <trkpt lat="43.4771391190588474273681640625" lon="1.4328821562230587005615234375">
        <ele>207.1999969482421875</ele>
        <time>2026-08-05T09:32:09.000Z</time>
        <extensions>
          <ns3:TrackPointExtension>
            <ns3:hr>73</ns3:hr>
            <ns3:cad>77</ns3:cad>
          </ns3:TrackPointExtension>
        </extensions>
      </trkpt>
      <trkpt lat="43.47712914459407329559326171875" lon="1.432881653308868408203125">
        <ele>207.399993896484375</ele>
        <time>2026-08-05T09:32:10.000Z</time>
        <extensions>
          <ns3:TrackPointExtension>
            <ns3:hr>73</ns3:hr>
            <ns3:cad>40</ns3:cad>
          </ns3:TrackPointExtension>
        </extensions>
      </trkpt>
      <trkpt lat="43.47712528891861438751220703125" lon="1.43288232386112213134765625">
        <ele>207.399993896484375</ele>
        <time>2026-08-05T09:32:11.000Z</time>
        <extensions>
          <ns3:TrackPointExtension>
            <ns3:hr>74</ns3:hr>
            <ns3:cad>40</ns3:cad>
          </ns3:TrackPointExtension>
        </extensions>
      </trkpt>
      <trkpt lat="43.47712009213864803314208984375" lon="1.43288039602339267730712890625">
        <ele>207.399993896484375</ele>
        <time>2026-08-05T09:32:12.000Z</time>
        <extensions>
          <ns3:TrackPointExtension>
            <ns3:hr>74</ns3:hr>
            <ns3:cad>41</ns3:cad>
          </ns3:TrackPointExtension>
        </extensions>
      </trkpt>
      <trkpt lat="43.47710986621677875518798828125" lon="1.43288089893758296966552734375">
        <ele>207.600006103515625</ele>
        <time>2026-08-05T09:32:13.000Z</time>
        <extensions>
          <ns3:TrackPointExtension>
            <ns3:hr>75</ns3:hr>
            <ns3:cad>41</ns3:cad>
          </ns3:TrackPointExtension>
        </extensions>
      </trkpt>
      <trkpt lat="43.47710408270359039306640625" lon="1.43288341350853443145751953125">
        <ele>207.8000030517578125</ele>
        <time>2026-08-05T09:32:14.000Z</time>
        <extensions>
          <ns3:TrackPointExtension>
            <ns3:hr>75</ns3:hr>
            <ns3:cad>42</ns3:cad>
          </ns3:TrackPointExtension>
        </extensions>
      </trkpt>
      <trkpt lat="43.477093689143657684326171875" lon="1.432888023555278778076171875">
        <ele>208</ele>
        <time>2026-08-05T09:32:15.000Z</time>
        <extensions>
          <ns3:TrackPointExtension>
            <ns3:hr>76</ns3:hr>
            <ns3:cad>42</ns3:cad>
          </ns3:TrackPointExtension>
        </extensions>
      </trkpt>
      <trkpt lat="43.47708656452596187591552734375" lon="1.432889364659786224365234375">
        <ele>208.1999969482421875</ele>
        <time>2026-08-05T09:32:16.000Z</time>
        <extensions>
          <ns3:TrackPointExtension>
            <ns3:hr>77</ns3:hr>
            <ns3:cad>42</ns3:cad>
          </ns3:TrackPointExtension>
        </extensions>
      </trkpt>
      <trkpt lat="43.4770794399082660675048828125" lon="1.43289280124008655548095703125">
        <ele>208.399993896484375</ele>
        <time>2026-08-05T09:32:17.000Z</time>
        <extensions>
          <ns3:TrackPointExtension>
            <ns3:hr>77</ns3:hr>
            <ns3:cad>42</ns3:cad>
          </ns3:TrackPointExtension>
        </extensions>
      </trkpt>
      <trkpt lat="43.47707399167120456695556640625" lon="1.4328969083726406097412109375">
        <ele>208.600006103515625</ele>
        <time>2026-08-05T09:32:18.000Z</time>
        <extensions>
          <ns3:TrackPointExtension>
            <ns3:hr>77</ns3:hr>
            <ns3:cad>41</ns3:cad>
          </ns3:TrackPointExtension>
        </extensions>
      </trkpt>
      <trkpt lat="43.4770673699676990509033203125" lon="1.43289581872522830963134765625">
        <ele>208.8000030517578125</ele>
        <time>2026-08-05T09:32:19.000Z</time>
        <extensions>
          <ns3:TrackPointExtension>
            <ns3:hr>78</ns3:hr>
            <ns3:cad>41</ns3:cad>
          </ns3:TrackPointExtension>
        </extensions>
      </trkpt>
      <trkpt lat="43.477058820426464080810546875" lon="1.43289816565811634063720703125">
        <ele>209</ele>
        <time>2026-08-05T09:32:20.000Z</time>
        <extensions>
          <ns3:TrackPointExtension>
            <ns3:hr>78</ns3:hr>
            <ns3:cad>41</ns3:cad>
          </ns3:TrackPointExtension>
        </extensions>
      </trkpt>
      <trkpt lat="43.4770496003329753875732421875" lon="1.4329017698764801025390625">
        <ele>209.1999969482421875</ele>
        <time>2026-08-05T09:32:21.000Z</time>
        <extensions>
          <ns3:TrackPointExtension>
            <ns3:hr>79</ns3:hr>
            <ns3:cad>41</ns3:cad>
          </ns3:TrackPointExtension>
        </extensions>
      </trkpt>
      <trkpt lat="43.4770462475717067718505859375" lon="1.43289816565811634063720703125">
        <ele>209.1999969482421875</ele>
        <time>2026-08-05T09:32:22.000Z</time>
        <extensions>
          <ns3:TrackPointExtension>
            <ns3:hr>80</ns3:hr>
            <ns3:cad>40</ns3:cad>
          </ns3:TrackPointExtension>
        </extensions>
      </trkpt>
      <trkpt lat="43.47703979350626468658447265625" lon="1.4329026080667972564697265625">
        <ele>209.399993896484375</ele>
        <time>2026-08-05T09:32:23.000Z</time>
        <extensions>
          <ns3:TrackPointExtension>
            <ns3:hr>80</ns3:hr>
            <ns3:cad>40</ns3:cad>
          </ns3:TrackPointExtension>
        </extensions>
      </trkpt>
      <trkpt lat="43.47703543491661548614501953125" lon="1.43290420062839984893798828125">
        <ele>209.600006103515625</ele>
        <time>2026-08-05T09:32:24.000Z</time>
        <extensions>
          <ns3:TrackPointExtension>
            <ns3:hr>81</ns3:hr>
            <ns3:cad>40</ns3:cad>
          </ns3:TrackPointExtension>
        </extensions>
      </trkpt>
      <trkpt lat="43.47702939994633197784423828125" lon="1.43290503881871700286865234375">
        <ele>209.600006103515625</ele>
        <time>2026-08-05T09:32:25.000Z</time>
        <extensions>
          <ns3:TrackPointExtension>
            <ns3:hr>82</ns3:hr>
            <ns3:cad>74</ns3:cad>
          </ns3:TrackPointExtension>
        </extensions>
      </trkpt>
      <trkpt lat="43.4770231135189533233642578125" lon="1.43290604464709758758544921875">
        <ele>209.8000030517578125</ele>
        <time>2026-08-05T09:32:26.000Z</time>
        <extensions>
          <ns3:TrackPointExtension>
            <ns3:hr>83</ns3:hr>
            <ns3:cad>77</ns3:cad>
          </ns3:TrackPointExtension>
        </extensions>
      </trkpt>
      <trkpt lat="43.47701665945351123809814453125" lon="1.4329079724848270416259765625">
        <ele>210</ele>
        <time>2026-08-05T09:32:27.000Z</time>
        <extensions>
          <ns3:TrackPointExtension>
            <ns3:hr>83</ns3:hr>
            <ns3:cad>77</ns3:cad>
          </ns3:TrackPointExtension>
        </extensions>
      </trkpt>
      <trkpt lat="43.4770110435783863067626953125" lon="1.4329073019325733184814453125">
        <ele>210.1999969482421875</ele>
        <time>2026-08-05T09:32:28.000Z</time>
        <extensions>
          <ns3:TrackPointExtension>
            <ns3:hr>84</ns3:hr>
            <ns3:cad>77</ns3:cad>
          </ns3:TrackPointExtension>
        </extensions>
      </trkpt>
      <trkpt lat="43.47700576297938823699951171875" lon="1.43290780484676361083984375">
        <ele>210.1999969482421875</ele>
        <time>2026-08-05T09:32:29.000Z</time>
        <extensions>
          <ns3:TrackPointExtension>
            <ns3:hr>84</ns3:hr>
            <ns3:cad>77</ns3:cad>
          </ns3:TrackPointExtension>
        </extensions>
      </trkpt>
      <trkpt lat="43.47699947655200958251953125" lon="1.4329083077609539031982421875">
        <ele>210.399993896484375</ele>
        <time>2026-08-05T09:32:30.000Z</time>
        <extensions>
          <ns3:TrackPointExtension>
            <ns3:hr>84</ns3:hr>
            <ns3:cad>77</ns3:cad>
          </ns3:TrackPointExtension>
        </extensions>
      </trkpt>
      <trkpt lat="43.47699201665818691253662109375" lon="1.4329071342945098876953125">
        <ele>210.600006103515625</ele>
        <time>2026-08-05T09:32:31.000Z</time>
        <extensions>
          <ns3:TrackPointExtension>
            <ns3:hr>84</ns3:hr>
            <ns3:cad>0</ns3:cad>
          </ns3:TrackPointExtension>
        </extensions>
      </trkpt>
      <trkpt lat="43.4769872389733791351318359375" lon="1.432913839817047119140625">
        <ele>210.8000030517578125</ele>
        <time>2026-08-05T09:32:32.000Z</time>
        <extensions>
          <ns3:TrackPointExtension>
            <ns3:hr>85</ns3:hr>
            <ns3:cad>0</ns3:cad>
          </ns3:TrackPointExtension>
        </extensions>
      </trkpt>
      <trkpt lat="43.47698044963181018829345703125" lon="1.43291945569217205047607421875">
        <ele>211</ele>
        <time>2026-08-05T09:32:33.000Z</time>
        <extensions>
          <ns3:TrackPointExtension>
            <ns3:hr>86</ns3:hr>
            <ns3:cad>0</ns3:cad>
          </ns3:TrackPointExtension>
        </extensions>
      </trkpt>
      <trkpt lat="43.47697265446186065673828125" lon="1.43291761167347431182861328125">
        <ele>211.1999969482421875</ele>
        <time>2026-08-05T09:32:34.000Z</time>
        <extensions>
          <ns3:TrackPointExtension>
            <ns3:hr>87</ns3:hr>
            <ns3:cad>0</ns3:cad>
          </ns3:TrackPointExtension>
        </extensions>
      </trkpt>
      <trkpt lat="43.47696502692997455596923828125" lon="1.4329163543879985809326171875">
        <ele>211.1999969482421875</ele>
        <time>2026-08-05T09:32:35.000Z</time>
        <extensions>
          <ns3:TrackPointExtension>
            <ns3:hr>87</ns3:hr>
            <ns3:cad>0</ns3:cad>
          </ns3:TrackPointExtension>
        </extensions>
      </trkpt>
      <trkpt lat="43.47695765085518360137939453125" lon="1.43291442655026912689208984375">
        <ele>211.399993896484375</ele>
        <time>2026-08-05T09:32:36.000Z</time>
        <extensions>
          <ns3:TrackPointExtension>
            <ns3:hr>87</ns3:hr>
            <ns3:cad>0</ns3:cad>
          </ns3:TrackPointExtension>
        </extensions>
      </trkpt>
      <trkpt lat="43.476949520409107208251953125" lon="1.4329140074551105499267578125">
        <ele>211.600006103515625</ele>
        <time>2026-08-05T09:32:37.000Z</time>
        <extensions>
          <ns3:TrackPointExtension>
            <ns3:hr>88</ns3:hr>
            <ns3:cad>0</ns3:cad>
          </ns3:TrackPointExtension>
        </extensions>
      </trkpt>
      <trkpt lat="43.47694457508623600006103515625" lon="1.43291392363607883453369140625">
        <ele>211.8000030517578125</ele>
        <time>2026-08-05T09:32:38.000Z</time>
        <extensions>
          <ns3:TrackPointExtension>
            <ns3:hr>89</ns3:hr>
            <ns3:cad>0</ns3:cad>
          </ns3:TrackPointExtension>
        </extensions>
      </trkpt>
      <trkpt lat="43.47693401388823986053466796875" lon="1.432916857302188873291015625">
        <ele>212</ele>
        <time>2026-08-05T09:32:39.000Z</time>
        <extensions>
          <ns3:TrackPointExtension>
            <ns3:hr>89</ns3:hr>
            <ns3:cad>0</ns3:cad>
          </ns3:TrackPointExtension>
        </extensions>
      </trkpt>
      <trkpt lat="43.4769262187182903289794921875" lon="1.4329180307686328887939453125">
        <ele>212.1999969482421875</ele>
        <time>2026-08-05T09:32:40.000Z</time>
        <extensions>
          <ns3:TrackPointExtension>
            <ns3:hr>89</ns3:hr>
            <ns3:cad>77</ns3:cad>
          </ns3:TrackPointExtension>
        </extensions>
      </trkpt>
      <trkpt lat="43.47692144103348255157470703125" lon="1.43291895277798175811767578125">
        <ele>212.399993896484375</ele>
        <time>2026-08-05T09:32:41.000Z</time>
        <extensions>
          <ns3:TrackPointExtension>
            <ns3:hr>90</ns3:hr>
            <ns3:cad>77</ns3:cad>
          </ns3:TrackPointExtension>
        </extensions>
      </trkpt>
      <trkpt lat="43.4769158251583576202392578125" lon="1.432919539511203765869140625">
        <ele>212.399993896484375</ele>
        <time>2026-08-05T09:32:42.000Z</time>
        <extensions>
          <ns3:TrackPointExtension>
            <ns3:hr>91</ns3:hr>
            <ns3:cad>77</ns3:cad>
          </ns3:TrackPointExtension>
        </extensions>
      </trkpt>
      <trkpt lat="43.47691121511161327362060546875" lon="1.432919204235076904296875">
        <ele>212.600006103515625</ele>
        <time>2026-08-05T09:32:43.000Z</time>
        <extensions>
          <ns3:TrackPointExtension>
            <ns3:hr>91</ns3:hr>
            <ns3:cad>75</ns3:cad>
          </ns3:TrackPointExtension>
        </extensions>
      </trkpt>
      <trkpt lat="43.4769022464752197265625" lon="1.43291828222572803497314453125">
        <ele>212.8000030517578125</ele>
        <time>2026-08-05T09:32:44.000Z</time>
        <extensions>
          <ns3:TrackPointExtension>
            <ns3:hr>92</ns3:hr>
            <ns3:cad>74</ns3:cad>
          </ns3:TrackPointExtension>
        </extensions>
      </trkpt>
      <trkpt lat="43.47689780406653881072998046875" lon="1.43291878513991832733154296875">
        <ele>213</ele>
        <time>2026-08-05T09:32:45.000Z</time>
        <extensions>
          <ns3:TrackPointExtension>
            <ns3:hr>92</ns3:hr>
            <ns3:cad>74</ns3:cad>
          </ns3:TrackPointExtension>
        </extensions>
      </trkpt>
      <trkpt lat="43.4768916852772235870361328125" lon="1.43292113207280635833740234375">
        <ele>213</ele>
        <time>2026-08-05T09:32:46.000Z</time>
        <extensions>
          <ns3:TrackPointExtension>
            <ns3:hr>92</ns3:hr>
            <ns3:cad>74</ns3:cad>
          </ns3:TrackPointExtension>
        </extensions>
      </trkpt>
      <trkpt lat="43.47688791342079639434814453125" lon="1.43292163498699665069580078125">
        <ele>213.1999969482421875</ele>
        <time>2026-08-05T09:32:47.000Z</time>
        <extensions>
          <ns3:TrackPointExtension>
            <ns3:hr>93</ns3:hr>
            <ns3:cad>74</ns3:cad>
          </ns3:TrackPointExtension>
        </extensions>
      </trkpt>
      <trkpt lat="43.4768789447844028472900390625" lon="1.43292699940502643585205078125">
        <ele>213.1999969482421875</ele>
        <time>2026-08-05T09:32:48.000Z</time>
        <extensions>
          <ns3:TrackPointExtension>
            <ns3:hr>93</ns3:hr>
            <ns3:cad>72</ns3:cad>
          </ns3:TrackPointExtension>
        </extensions>
      </trkpt>
      <trkpt lat="43.47687399946153163909912109375" lon="1.43292884342372417449951171875">
        <ele>213.399993896484375</ele>
        <time>2026-08-05T09:32:49.000Z</time>
        <extensions>
          <ns3:TrackPointExtension>
            <ns3:hr>94</ns3:hr>
            <ns3:cad>72</ns3:cad>
          </ns3:TrackPointExtension>
        </extensions>
      </trkpt>
      <trkpt lat="43.47686595283448696136474609375" lon="1.43292901106178760528564453125">
        <ele>213.600006103515625</ele>
        <time>2026-08-05T09:32:50.000Z</time>
        <extensions>
          <ns3:TrackPointExtension>
            <ns3:hr>95</ns3:hr>
            <ns3:cad>79</ns3:cad>
          </ns3:TrackPointExtension>
        </extensions>
      </trkpt>
      <trkpt lat="43.47685807384550571441650390625" lon="1.43293219618499279022216796875">
        <ele>213.600006103515625</ele>
        <time>2026-08-05T09:32:51.000Z</time>
        <extensions>
          <ns3:TrackPointExtension>
            <ns3:hr>96</ns3:hr>
            <ns3:cad>79</ns3:cad>
          </ns3:TrackPointExtension>
        </extensions>
      </trkpt>
      <trkpt lat="43.4768497757613658905029296875" lon="1.432934291660785675048828125">
        <ele>213.8000030517578125</ele>
        <time>2026-08-05T09:32:52.000Z</time>
        <extensions>
          <ns3:TrackPointExtension>
            <ns3:hr>97</ns3:hr>
            <ns3:cad>75</ns3:cad>
          </ns3:TrackPointExtension>
        </extensions>
      </trkpt>
      <trkpt lat="43.4768392145633697509765625" lon="1.43293672241270542144775390625">
        <ele>214</ele>
        <time>2026-08-05T09:32:53.000Z</time>
        <extensions>
          <ns3:TrackPointExtension>
            <ns3:hr>98</ns3:hr>
            <ns3:cad>75</ns3:cad>
          </ns3:TrackPointExtension>
        </extensions>
      </trkpt>
      <trkpt lat="43.47683359868824481964111328125" lon="1.43293856643140316009521484375">
        <ele>214</ele>
        <time>2026-08-05T09:32:54.000Z</time>
        <extensions>
          <ns3:TrackPointExtension>
            <ns3:hr>98</ns3:hr>
            <ns3:cad>75</ns3:cad>
          </ns3:TrackPointExtension>
        </extensions>
      </trkpt>
      <trkpt lat="43.4768259711563587188720703125" lon="1.432939656078815460205078125">
        <ele>214.1999969482421875</ele>
        <time>2026-08-05T09:32:55.000Z</time>
        <extensions>
          <ns3:TrackPointExtension>
            <ns3:hr>99</ns3:hr>
            <ns3:cad>75</ns3:cad>
          </ns3:TrackPointExtension>
        </extensions>
      </trkpt>
      <trkpt lat="43.47682110965251922607421875" lon="1.4329401589930057525634765625">
        <ele>214.399993896484375</ele>
        <time>2026-08-05T09:32:56.000Z</time>
        <extensions>
          <ns3:TrackPointExtension>
            <ns3:hr>100</ns3:hr>
            <ns3:cad>75</ns3:cad>
          </ns3:TrackPointExtension>
        </extensions>
      </trkpt>
      <trkpt lat="43.4768177568912506103515625" lon="1.43294057808816432952880859375">
        <ele>214.600006103515625</ele>
        <time>2026-08-05T09:32:57.000Z</time>
        <extensions>
          <ns3:TrackPointExtension>
            <ns3:hr>100</ns3:hr>
            <ns3:cad>0</ns3:cad>
          </ns3:TrackPointExtension>
        </extensions>
      </trkpt>
      <trkpt lat="43.4768123924732208251953125" lon="1.432943008840084075927734375">
        <ele>214.8000030517578125</ele>
        <time>2026-08-05T09:32:58.000Z</time>
        <extensions>
          <ns3:TrackPointExtension>
            <ns3:hr>101</ns3:hr>
            <ns3:cad>0</ns3:cad>
          </ns3:TrackPointExtension>
        </extensions>
      </trkpt>
      <trkpt lat="43.4768075309693813323974609375" lon="1.43294175155460834503173828125">
        <ele>215</ele>
        <time>2026-08-05T09:32:59.000Z</time>
        <extensions>
          <ns3:TrackPointExtension>
            <ns3:hr>102</ns3:hr>
            <ns3:cad>0</ns3:cad>
          </ns3:TrackPointExtension>
        </extensions>
      </trkpt>
      <trkpt lat="43.47680032253265380859375" lon="1.43294208683073520660400390625">
        <ele>215.1999969482421875</ele>
        <time>2026-08-05T09:33:00.000Z</time>
        <extensions>
          <ns3:TrackPointExtension>
            <ns3:hr>102</ns3:hr>
            <ns3:cad>0</ns3:cad>
          </ns3:TrackPointExtension>
        </extensions>
      </trkpt>
      <trkpt lat="43.4767944552004337310791015625" lon="1.43294242210686206817626953125">
        <ele>215.399993896484375</ele>
        <time>2026-08-05T09:33:01.000Z</time>
        <extensions>
          <ns3:TrackPointExtension>
            <ns3:hr>103</ns3:hr>
            <ns3:cad>0</ns3:cad>
          </ns3:TrackPointExtension>
        </extensions>
      </trkpt>
      <trkpt lat="43.47678867168724536895751953125" lon="1.43294510431587696075439453125">
        <ele>215.600006103515625</ele>
        <time>2026-08-05T09:33:02.000Z</time>
        <extensions>
          <ns3:TrackPointExtension>
            <ns3:hr>105</ns3:hr>
            <ns3:cad>0</ns3:cad>
          </ns3:TrackPointExtension>
        </extensions>
      </trkpt>
      <trkpt lat="43.47678548656404018402099609375" lon="1.43294778652489185333251953125">
        <ele>215.8000030517578125</ele>
        <time>2026-08-05T09:33:03.000Z</time>
        <extensions>
          <ns3:TrackPointExtension>
            <ns3:hr>106</ns3:hr>
            <ns3:cad>0</ns3:cad>
          </ns3:TrackPointExtension>
        </extensions>
      </trkpt>
      <trkpt lat="43.476781547069549560546875" lon="1.43294761888682842254638671875">
        <ele>216</ele>
        <time>2026-08-05T09:33:04.000Z</time>
        <extensions>
          <ns3:TrackPointExtension>
            <ns3:hr>107</ns3:hr>
            <ns3:cad>0</ns3:cad>
          </ns3:TrackPointExtension>
        </extensions>
      </trkpt>
      <trkpt lat="43.47677274607121944427490234375" lon="1.43295113928616046905517578125">
        <ele>216.1999969482421875</ele>
        <time>2026-08-05T09:33:05.000Z</time>
        <extensions>
          <ns3:TrackPointExtension>
            <ns3:hr>107</ns3:hr>
            <ns3:cad>0</ns3:cad>
          </ns3:TrackPointExtension>
        </extensions>
      </trkpt>
      <trkpt lat="43.47676738165318965911865234375" lon="1.43295248039066791534423828125">
        <ele>216.399993896484375</ele>
        <time>2026-08-05T09:33:06.000Z</time>
        <extensions>
          <ns3:TrackPointExtension>
            <ns3:hr>108</ns3:hr>
            <ns3:cad>0</ns3:cad>
          </ns3:TrackPointExtension>
        </extensions>
      </trkpt>
      <trkpt lat="43.47676084376871585845947265625" lon="1.43295583315193653106689453125">
        <ele>216.399993896484375</ele>
        <time>2026-08-05T09:33:07.000Z</time>
        <extensions>
          <ns3:TrackPointExtension>
            <ns3:hr>109</ns3:hr>
            <ns3:cad>0</ns3:cad>
          </ns3:TrackPointExtension>
        </extensions>
      </trkpt>
      <trkpt lat="43.4767545573413372039794921875" lon="1.43296052701771259307861328125">
        <ele>216.600006103515625</ele>
        <time>2026-08-05T09:33:08.000Z</time>
        <extensions>
          <ns3:TrackPointExtension>
            <ns3:hr>109</ns3:hr>
            <ns3:cad>0</ns3:cad>
          </ns3:TrackPointExtension>
        </extensions>
      </trkpt>
      <trkpt lat="43.47675028257071971893310546875" lon="1.43296253867447376251220703125">
        <ele>216.8000030517578125</ele>
        <time>2026-08-05T09:33:09.000Z</time>
        <extensions>
          <ns3:TrackPointExtension>
            <ns3:hr>109</ns3:hr>
            <ns3:cad>0</ns3:cad>
          </ns3:TrackPointExtension>
        </extensions>
      </trkpt>
      <trkpt lat="43.47674064338207244873046875" lon="1.4329713396728038787841796875">
        <ele>217</ele>
        <time>2026-08-05T09:33:10.000Z</time>
        <extensions>
          <ns3:TrackPointExtension>
            <ns3:hr>110</ns3:hr>
            <ns3:cad>0</ns3:cad>
          </ns3:TrackPointExtension>
        </extensions>
      </trkpt>
      <trkpt lat="43.47673234529793262481689453125" lon="1.4329777099192142486572265625">
        <ele>217</ele>
        <time>2026-08-05T09:33:11.000Z</time>
        <extensions>
          <ns3:TrackPointExtension>
            <ns3:hr>110</ns3:hr>
            <ns3:cad>0</ns3:cad>
          </ns3:TrackPointExtension>
        </extensions>
      </trkpt>
      <trkpt lat="43.47672496922314167022705078125" lon="1.43298315815627574920654296875">
        <ele>217.1999969482421875</ele>
        <time>2026-08-05T09:33:12.000Z</time>
        <extensions>
          <ns3:TrackPointExtension>
            <ns3:hr>110</ns3:hr>
            <ns3:cad>0</ns3:cad>
          </ns3:TrackPointExtension>
        </extensions>
      </trkpt>
      <trkpt lat="43.47672044299542903900146484375" lon="1.43298751674592494964599609375">
        <ele>217.1999969482421875</ele>
        <time>2026-08-05T09:33:13.000Z</time>
        <extensions>
          <ns3:TrackPointExtension>
            <ns3:hr>111</ns3:hr>
            <ns3:cad>0</ns3:cad>
          </ns3:TrackPointExtension>
        </extensions>
      </trkpt>
      <trkpt lat="43.4767186827957630157470703125" lon="1.43299506045877933502197265625">
        <ele>217.399993896484375</ele>
        <time>2026-08-05T09:33:14.000Z</time>
        <extensions>
          <ns3:TrackPointExtension>
            <ns3:hr>111</ns3:hr>
            <ns3:cad>0</ns3:cad>
          </ns3:TrackPointExtension>
        </extensions>
      </trkpt>
      <trkpt lat="43.476714827120304107666015625" lon="1.4330010116100311279296875">
        <ele>217.600006103515625</ele>
        <time>2026-08-05T09:33:15.000Z</time>
        <extensions>
          <ns3:TrackPointExtension>
            <ns3:hr>111</ns3:hr>
            <ns3:cad>0</ns3:cad>
          </ns3:TrackPointExtension>
        </extensions>
      </trkpt>
      <trkpt lat="43.4767099656164646148681640625" lon="1.43299992196261882781982421875">
        <ele>217.8000030517578125</ele>
        <time>2026-08-05T09:33:16.000Z</time>
        <extensions>
          <ns3:TrackPointExtension>
            <ns3:hr>111</ns3:hr>
            <ns3:cad>0</ns3:cad>
          </ns3:TrackPointExtension>
        </extensions>
      </trkpt>
      <trkpt lat="43.47670845687389373779296875" lon="1.4330015145242214202880859375">
        <ele>217.8000030517578125</ele>
        <time>2026-08-05T09:33:17.000Z</time>
        <extensions>
          <ns3:TrackPointExtension>
            <ns3:hr>111</ns3:hr>
            <ns3:cad>0</ns3:cad>
          </ns3:TrackPointExtension>
        </extensions>
      </trkpt>
      <trkpt lat="43.4767052717506885528564453125" lon="1.4330055378377437591552734375">
        <ele>217.8000030517578125</ele>
        <time>2026-08-05T09:33:18.000Z</time>
        <extensions>
          <ns3:TrackPointExtension>
            <ns3:hr>112</ns3:hr>
            <ns3:cad>0</ns3:cad>
          </ns3:TrackPointExtension>
        </extensions>
      </trkpt>
      <trkpt lat="43.47670175135135650634765625" lon="1.43300947733223438262939453125">
        <ele>217.8000030517578125</ele>
        <time>2026-08-05T09:33:19.000Z</time>
        <extensions>
          <ns3:TrackPointExtension>
            <ns3:hr>111</ns3:hr>
            <ns3:cad>0</ns3:cad>
          </ns3:TrackPointExtension>
        </extensions>
      </trkpt>
      <trkpt lat="43.4767009131610393524169921875" lon="1.43300972878932952880859375">
        <ele>217.8000030517578125</ele>
        <time>2026-08-05T09:33:20.000Z</time>
        <extensions>
          <ns3:TrackPointExtension>
            <ns3:hr>110</ns3:hr>
            <ns3:cad>0</ns3:cad>
          </ns3:TrackPointExtension>
        </extensions>
      </trkpt>
      <trkpt lat="43.4767009131610393524169921875" lon="1.43300972878932952880859375">
        <ele>217.8000030517578125</ele>
        <time>2026-08-05T09:33:21.000Z</time>
        <extensions>
          <ns3:TrackPointExtension>
            <ns3:hr>111</ns3:hr>
            <ns3:cad>0</ns3:cad>
          </ns3:TrackPointExtension>
        </extensions>
      </trkpt>
      <trkpt lat="43.4767009131610393524169921875" lon="1.43300972878932952880859375">
        <ele>217.8000030517578125</ele>
        <time>2026-08-05T09:33:22.000Z</time>
        <extensions>
          <ns3:TrackPointExtension>
            <ns3:hr>111</ns3:hr>
            <ns3:cad>0</ns3:cad>
          </ns3:TrackPointExtension>
        </extensions>
      </trkpt>
      <trkpt lat="43.4767009131610393524169921875" lon="1.43300972878932952880859375">
        <ele>217.600006103515625</ele>
        <time>2026-08-05T09:33:23.000Z</time>
        <extensions>
          <ns3:TrackPointExtension>
            <ns3:hr>111</ns3:hr>
            <ns3:cad>0</ns3:cad>
          </ns3:TrackPointExtension>
        </extensions>
      </trkpt>
      <trkpt lat="43.4767009131610393524169921875" lon="1.43300972878932952880859375">
        <ele>217.600006103515625</ele>
        <time>2026-08-05T09:33:24.000Z</time>
        <extensions>
          <ns3:TrackPointExtension>
            <ns3:hr>110</ns3:hr>
            <ns3:cad>0</ns3:cad>
          </ns3:TrackPointExtension>
        </extensions>
      </trkpt>
      <trkpt lat="43.4767009131610393524169921875" lon="1.43300972878932952880859375">
        <ele>217.8000030517578125</ele>
        <time>2026-08-05T09:33:25.000Z</time>
        <extensions>
          <ns3:TrackPointExtension>
            <ns3:hr>110</ns3:hr>
            <ns3:cad>0</ns3:cad>
          </ns3:TrackPointExtension>
        </extensions>
      </trkpt>
      <trkpt lat="43.4767009131610393524169921875" lon="1.43300972878932952880859375">
        <ele>217.8000030517578125</ele>
        <time>2026-08-05T09:33:26.000Z</time>
        <extensions>
          <ns3:TrackPointExtension>
            <ns3:hr>110</ns3:hr>
            <ns3:cad>0</ns3:cad>
          </ns3:TrackPointExtension>
        </extensions>
      </trkpt>
      <trkpt lat="43.4767009131610393524169921875" lon="1.43300972878932952880859375">
        <ele>217.8000030517578125</ele>
        <time>2026-08-05T09:33:27.000Z</time>
        <extensions>
          <ns3:TrackPointExtension>
            <ns3:hr>110</ns3:hr>
            <ns3:cad>0</ns3:cad>
          </ns3:TrackPointExtension>
        </extensions>
      </trkpt>
      <trkpt lat="43.4767009131610393524169921875" lon="1.43300972878932952880859375">
        <ele>217.8000030517578125</ele>
        <time>2026-08-05T09:33:28.000Z</time>
        <extensions>
          <ns3:TrackPointExtension>
            <ns3:hr>111</ns3:hr>
            <ns3:cad>0</ns3:cad>
          </ns3:TrackPointExtension>
        </extensions>
      </trkpt>
      <trkpt lat="43.4767009131610393524169921875" lon="1.43300972878932952880859375">
        <ele>217.8000030517578125</ele>
        <time>2026-08-05T09:33:29.000Z</time>
        <extensions>
          <ns3:TrackPointExtension>
            <ns3:hr>110</ns3:hr>
            <ns3:cad>0</ns3:cad>
          </ns3:TrackPointExtension>
        </extensions>
      </trkpt>
      <trkpt lat="43.4767009131610393524169921875" lon="1.43300972878932952880859375">
        <ele>217.8000030517578125</ele>
        <time>2026-08-05T09:33:30.000Z</time>
        <extensions>
          <ns3:TrackPointExtension>
            <ns3:hr>110</ns3:hr>
            <ns3:cad>0</ns3:cad>
          </ns3:TrackPointExtension>
        </extensions>
      </trkpt>
      <trkpt lat="43.4767009131610393524169921875" lon="1.43300972878932952880859375">
        <ele>217.600006103515625</ele>
        <time>2026-08-05T09:33:31.000Z</time>
        <extensions>
          <ns3:TrackPointExtension>
            <ns3:hr>110</ns3:hr>
            <ns3:cad>0</ns3:cad>
          </ns3:TrackPointExtension>
        </extensions>
      </trkpt>
      <trkpt lat="43.4767009131610393524169921875" lon="1.43300972878932952880859375">
        <ele>217.600006103515625</ele>
        <time>2026-08-05T09:33:32.000Z</time>
        <extensions>
          <ns3:TrackPointExtension>
            <ns3:hr>109</ns3:hr>
            <ns3:cad>0</ns3:cad>
          </ns3:TrackPointExtension>
        </extensions>
      </trkpt>
      <trkpt lat="43.4767009131610393524169921875" lon="1.43300972878932952880859375">
        <ele>217.600006103515625</ele>
        <time>2026-08-05T09:33:33.000Z</time>
        <extensions>
          <ns3:TrackPointExtension>
            <ns3:hr>109</ns3:hr>
            <ns3:cad>0</ns3:cad>
          </ns3:TrackPointExtension>
        </extensions>
      </trkpt>
      <trkpt lat="43.4767009131610393524169921875" lon="1.43300972878932952880859375">
        <ele>217.600006103515625</ele>
        <time>2026-08-05T09:33:34.000Z</time>
        <extensions>
          <ns3:TrackPointExtension>
            <ns3:hr>108</ns3:hr>
            <ns3:cad>0</ns3:cad>
          </ns3:TrackPointExtension>
        </extensions>
      </trkpt>
      <trkpt lat="43.4767009131610393524169921875" lon="1.43300972878932952880859375">
        <ele>217.600006103515625</ele>
        <time>2026-08-05T09:33:35.000Z</time>
        <extensions>
          <ns3:TrackPointExtension>
            <ns3:hr>107</ns3:hr>
            <ns3:cad>0</ns3:cad>
          </ns3:TrackPointExtension>
        </extensions>
      </trkpt>
      <trkpt lat="43.4767009131610393524169921875" lon="1.43300972878932952880859375">
        <ele>217.600006103515625</ele>
        <time>2026-08-05T09:33:36.000Z</time>
        <extensions>
          <ns3:TrackPointExtension>
            <ns3:hr>106</ns3:hr>
            <ns3:cad>0</ns3:cad>
          </ns3:TrackPointExtension>
        </extensions>
      </trkpt>
      <trkpt lat="43.476706780493259429931640625" lon="1.433016769587993621826171875">
        <ele>217.600006103515625</ele>
        <time>2026-08-05T09:33:37.000Z</time>
        <extensions>
          <ns3:TrackPointExtension>
            <ns3:hr>105</ns3:hr>
            <ns3:cad>0</ns3:cad>
          </ns3:TrackPointExtension>
        </extensions>
      </trkpt>
      <trkpt lat="43.47670443356037139892578125" lon="1.43303194083273410797119140625">
        <ele>217.600006103515625</ele>
        <time>2026-08-05T09:33:38.000Z</time>
        <extensions>
          <ns3:TrackPointExtension>
            <ns3:hr>104</ns3:hr>
            <ns3:cad>0</ns3:cad>
          </ns3:TrackPointExtension>
        </extensions>
      </trkpt>
      <trkpt lat="43.4766997396945953369140625" lon="1.43303764052689075469970703125">
        <ele>217.8000030517578125</ele>
        <time>2026-08-05T09:33:39.000Z</time>
        <extensions>
          <ns3:TrackPointExtension>
            <ns3:hr>103</ns3:hr>
            <ns3:cad>0</ns3:cad>
          </ns3:TrackPointExtension>
        </extensions>
      </trkpt>
      <trkpt lat="43.47670015878975391387939453125" lon="1.43304887227714061737060546875">
        <ele>217.8000030517578125</ele>
        <time>2026-08-05T09:33:40.000Z</time>
        <extensions>
          <ns3:TrackPointExtension>
            <ns3:hr>102</ns3:hr>
            <ns3:cad>60</ns3:cad>
          </ns3:TrackPointExtension>
        </extensions>
      </trkpt>
      <trkpt lat="43.47669848240911960601806640625" lon="1.43305800855159759521484375">
        <ele>217.8000030517578125</ele>
        <time>2026-08-05T09:33:41.000Z</time>
        <extensions>
          <ns3:TrackPointExtension>
            <ns3:hr>101</ns3:hr>
            <ns3:cad>60</ns3:cad>
          </ns3:TrackPointExtension>
        </extensions>
      </trkpt>
      <trkpt lat="43.47669663839042186737060546875" lon="1.43306714482605457305908203125">
        <ele>218</ele>
        <time>2026-08-05T09:33:42.000Z</time>
        <extensions>
          <ns3:TrackPointExtension>
            <ns3:hr>101</ns3:hr>
            <ns3:cad>0</ns3:cad>
          </ns3:TrackPointExtension>
        </extensions>
      </trkpt>
      <trkpt lat="43.47669412381947040557861328125" lon="1.4330739341676235198974609375">
        <ele>218</ele>
        <time>2026-08-05T09:33:43.000Z</time>
        <extensions>
          <ns3:TrackPointExtension>
            <ns3:hr>101</ns3:hr>
            <ns3:cad>0</ns3:cad>
          </ns3:TrackPointExtension>
        </extensions>
      </trkpt>
      <trkpt lat="43.4766925312578678131103515625" lon="1.433080136775970458984375">
        <ele>218</ele>
        <time>2026-08-05T09:33:44.000Z</time>
        <extensions>
          <ns3:TrackPointExtension>
            <ns3:hr>101</ns3:hr>
            <ns3:cad>0</ns3:cad>
          </ns3:TrackPointExtension>
        </extensions>
      </trkpt>
      <trkpt lat="43.4766895137727260589599609375" lon="1.43308675847947597503662109375">
        <ele>218.1999969482421875</ele>
        <time>2026-08-05T09:33:45.000Z</time>
        <extensions>
          <ns3:TrackPointExtension>
            <ns3:hr>102</ns3:hr>
            <ns3:cad>0</ns3:cad>
          </ns3:TrackPointExtension>
        </extensions>
      </trkpt>
      <trkpt lat="43.47668255679309368133544921875" lon="1.43309664912521839141845703125">
        <ele>218.1999969482421875</ele>
        <time>2026-08-05T09:33:46.000Z</time>
        <extensions>
          <ns3:TrackPointExtension>
            <ns3:hr>103</ns3:hr>
            <ns3:cad>17</ns3:cad>
          </ns3:TrackPointExtension>
        </extensions>
      </trkpt>
      <trkpt lat="43.4766730852425098419189453125" lon="1.43311140127480030059814453125">
        <ele>218.399993896484375</ele>
        <time>2026-08-05T09:33:47.000Z</time>
        <extensions>
          <ns3:TrackPointExtension>
            <ns3:hr>105</ns3:hr>
            <ns3:cad>17</ns3:cad>
          </ns3:TrackPointExtension>
        </extensions>
      </trkpt>
      <trkpt lat="43.47666663117706775665283203125" lon="1.4331205375492572784423828125">
        <ele>218.399993896484375</ele>
        <time>2026-08-05T09:33:48.000Z</time>
        <extensions>
          <ns3:TrackPointExtension>
            <ns3:hr>105</ns3:hr>
            <ns3:cad>17</ns3:cad>
          </ns3:TrackPointExtension>
        </extensions>
      </trkpt>
      <trkpt lat="43.4766603447496891021728515625" lon="1.43312766216695308685302734375">
        <ele>218.399993896484375</ele>
        <time>2026-08-05T09:33:49.000Z</time>
        <extensions>
          <ns3:TrackPointExtension>
            <ns3:hr>104</ns3:hr>
            <ns3:cad>0</ns3:cad>
          </ns3:TrackPointExtension>
        </extensions>
      </trkpt>
      <trkpt lat="43.4766553156077861785888671875" lon="1.43313352949917316436767578125">
        <ele>218.600006103515625</ele>
        <time>2026-08-05T09:33:50.000Z</time>
        <extensions>
          <ns3:TrackPointExtension>
            <ns3:hr>104</ns3:hr>
            <ns3:cad>0</ns3:cad>
          </ns3:TrackPointExtension>
        </extensions>
      </trkpt>
      <trkpt lat="43.476644419133663177490234375" lon="1.43313311040401458740234375">
        <ele>218.600006103515625</ele>
        <time>2026-08-05T09:33:51.000Z</time>
        <extensions>
          <ns3:TrackPointExtension>
            <ns3:hr>104</ns3:hr>
            <ns3:cad>0</ns3:cad>
          </ns3:TrackPointExtension>
        </extensions>
      </trkpt>
      <trkpt lat="43.47663964144885540008544921875" lon="1.43314291723072528839111328125">
        <ele>218.8000030517578125</ele>
        <time>2026-08-05T09:33:52.000Z</time>
        <extensions>
          <ns3:TrackPointExtension>
            <ns3:hr>104</ns3:hr>
            <ns3:cad>0</ns3:cad>
          </ns3:TrackPointExtension>
        </extensions>
      </trkpt>
      <trkpt lat="43.47663511522114276885986328125" lon="1.43314492888748645782470703125">
        <ele>218.8000030517578125</ele>
        <time>2026-08-05T09:33:53.000Z</time>
        <extensions>
          <ns3:TrackPointExtension>
            <ns3:hr>103</ns3:hr>
            <ns3:cad>0</ns3:cad>
          </ns3:TrackPointExtension>
        </extensions>
      </trkpt>
      <trkpt lat="43.4766258113086223602294921875" lon="1.43314979039132595062255859375">
        <ele>219</ele>
        <time>2026-08-05T09:33:54.000Z</time>
        <extensions>
          <ns3:TrackPointExtension>
            <ns3:hr>103</ns3:hr>
            <ns3:cad>0</ns3:cad>
          </ns3:TrackPointExtension>
        </extensions>
      </trkpt>
      <trkpt lat="43.47661935724318027496337890625" lon="1.43315582536160945892333984375">
        <ele>219</ele>
        <time>2026-08-05T09:33:55.000Z</time>
        <extensions>
          <ns3:TrackPointExtension>
            <ns3:hr>102</ns3:hr>
            <ns3:cad>0</ns3:cad>
          </ns3:TrackPointExtension>
        </extensions>
      </trkpt>
      <trkpt lat="43.47661164589226245880126953125" lon="1.43316169269382953643798828125">
        <ele>219.1999969482421875</ele>
        <time>2026-08-05T09:33:56.000Z</time>
        <extensions>
          <ns3:TrackPointExtension>
            <ns3:hr>102</ns3:hr>
            <ns3:cad>69</ns3:cad>
          </ns3:TrackPointExtension>
        </extensions>
      </trkpt>
      <trkpt lat="43.47660779021680355072021484375" lon="1.43316471017897129058837890625">
        <ele>219.399993896484375</ele>
        <time>2026-08-05T09:33:57.000Z</time>
        <extensions>
          <ns3:TrackPointExtension>
            <ns3:hr>102</ns3:hr>
            <ns3:cad>69</ns3:cad>
          </ns3:TrackPointExtension>
        </extensions>
      </trkpt>
      <trkpt lat="43.4766056947410106658935546875" lon="1.43316471017897129058837890625">
        <ele>219.399993896484375</ele>
        <time>2026-08-05T09:33:58.000Z</time>
        <extensions>
          <ns3:TrackPointExtension>
            <ns3:hr>102</ns3:hr>
            <ns3:cad>0</ns3:cad>
          </ns3:TrackPointExtension>
        </extensions>
      </trkpt>
      <trkpt lat="43.47660158760845661163330078125" lon="1.43316856585443019866943359375">
        <ele>219.399993896484375</ele>
        <time>2026-08-05T09:33:59.000Z</time>
        <extensions>
          <ns3:TrackPointExtension>
            <ns3:hr>103</ns3:hr>
            <ns3:cad>0</ns3:cad>
          </ns3:TrackPointExtension>
        </extensions>
      </trkpt>
      <trkpt lat="43.476598151028156280517578125" lon="1.43317108042538166046142578125">
        <ele>219.600006103515625</ele>
        <time>2026-08-05T09:34:00.000Z</time>
        <extensions>
          <ns3:TrackPointExtension>
            <ns3:hr>103</ns3:hr>
            <ns3:cad>0</ns3:cad>
          </ns3:TrackPointExtension>
        </extensions>
      </trkpt>
      <trkpt lat="43.4765951335430145263671875" lon="1.4331726729869842529296875">
        <ele>219.600006103515625</ele>
        <time>2026-08-05T09:34:01.000Z</time>
        <extensions>
          <ns3:TrackPointExtension>
            <ns3:hr>103</ns3:hr>
            <ns3:cad>0</ns3:cad>
          </ns3:TrackPointExtension>
        </extensions>
      </trkpt>
      <trkpt lat="43.47659102641046047210693359375" lon="1.4331755228340625762939453125">
        <ele>219.600006103515625</ele>
        <time>2026-08-05T09:34:02.000Z</time>
        <extensions>
          <ns3:TrackPointExtension>
            <ns3:hr>103</ns3:hr>
            <ns3:cad>0</ns3:cad>
          </ns3:TrackPointExtension>
        </extensions>
      </trkpt>
      <trkpt lat="43.476585410535335540771484375" lon="1.43318046815693378448486328125">
        <ele>219.600006103515625</ele>
        <time>2026-08-05T09:34:03.000Z</time>
        <extensions>
          <ns3:TrackPointExtension>
            <ns3:hr>102</ns3:hr>
            <ns3:cad>0</ns3:cad>
          </ns3:TrackPointExtension>
        </extensions>
      </trkpt>
      <trkpt lat="43.47657912410795688629150390625" lon="1.43318407237529754638671875">
        <ele>219.8000030517578125</ele>
        <time>2026-08-05T09:34:04.000Z</time>
        <extensions>
          <ns3:TrackPointExtension>
            <ns3:hr>102</ns3:hr>
            <ns3:cad>0</ns3:cad>
          </ns3:TrackPointExtension>
        </extensions>
      </trkpt>
      <trkpt lat="43.47657141275703907012939453125" lon="1.43318717367947101593017578125">
        <ele>219.8000030517578125</ele>
        <time>2026-08-05T09:34:05.000Z</time>
        <extensions>
          <ns3:TrackPointExtension>
            <ns3:hr>102</ns3:hr>
            <ns3:cad>77</ns3:cad>
          </ns3:TrackPointExtension>
        </extensions>
      </trkpt>
      <trkpt lat="43.4765617735683917999267578125" lon="1.4331926219165325164794921875">
        <ele>220</ele>
        <time>2026-08-05T09:34:06.000Z</time>
        <extensions>
          <ns3:TrackPointExtension>
            <ns3:hr>101</ns3:hr>
            <ns3:cad>77</ns3:cad>
          </ns3:TrackPointExtension>
        </extensions>
      </trkpt>
      <trkpt lat="43.4765517152845859527587890625" lon="1.4331976510584354400634765625">
        <ele>220</ele>
        <time>2026-08-05T09:34:07.000Z</time>
        <extensions>
          <ns3:TrackPointExtension>
            <ns3:hr>100</ns3:hr>
            <ns3:cad>77</ns3:cad>
          </ns3:TrackPointExtension>
        </extensions>
      </trkpt>
      <trkpt lat="43.476543836295604705810546875" lon="1.43320284783840179443359375">
        <ele>220.1999969482421875</ele>
        <time>2026-08-05T09:34:08.000Z</time>
        <extensions>
          <ns3:TrackPointExtension>
            <ns3:hr>100</ns3:hr>
            <ns3:cad>77</ns3:cad>
          </ns3:TrackPointExtension>
        </extensions>
      </trkpt>
      <trkpt lat="43.47653352655470371246337890625" lon="1.43321131356060504913330078125">
        <ele>220.1999969482421875</ele>
        <time>2026-08-05T09:34:09.000Z</time>
        <extensions>
          <ns3:TrackPointExtension>
            <ns3:hr>99</ns3:hr>
            <ns3:cad>40</ns3:cad>
          </ns3:TrackPointExtension>
        </extensions>
      </trkpt>
      <trkpt lat="43.47652480937540531158447265625" lon="1.4332137443125247955322265625">
        <ele>220.1999969482421875</ele>
        <time>2026-08-05T09:34:10.000Z</time>
        <extensions>
          <ns3:TrackPointExtension>
            <ns3:hr>97</ns3:hr>
            <ns3:cad>40</ns3:cad>
          </ns3:TrackPointExtension>
        </extensions>
      </trkpt>
      <trkpt lat="43.47651827149093151092529296875" lon="1.43321600742638111114501953125">
        <ele>220.399993896484375</ele>
        <time>2026-08-05T09:34:11.000Z</time>
        <extensions>
          <ns3:TrackPointExtension>
            <ns3:hr>97</ns3:hr>
            <ns3:cad>40</ns3:cad>
          </ns3:TrackPointExtension>
        </extensions>
      </trkpt>
      <trkpt lat="43.476511649787425994873046875" lon="1.4332182705402374267578125">
        <ele>220.399993896484375</ele>
        <time>2026-08-05T09:34:12.000Z</time>
        <extensions>
          <ns3:TrackPointExtension>
            <ns3:hr>97</ns3:hr>
            <ns3:cad>40</ns3:cad>
          </ns3:TrackPointExtension>
        </extensions>
      </trkpt>
      <trkpt lat="43.47650234587490558624267578125" lon="1.4332209527492523193359375">
        <ele>220.600006103515625</ele>
        <time>2026-08-05T09:34:13.000Z</time>
        <extensions>
          <ns3:TrackPointExtension>
            <ns3:hr>98</ns3:hr>
            <ns3:cad>77</ns3:cad>
          </ns3:TrackPointExtension>
        </extensions>
      </trkpt>
      <trkpt lat="43.47649564035236835479736328125" lon="1.4332221262156963348388671875">
        <ele>220.8000030517578125</ele>
        <time>2026-08-05T09:34:14.000Z</time>
        <extensions>
          <ns3:TrackPointExtension>
            <ns3:hr>98</ns3:hr>
            <ns3:cad>77</ns3:cad>
          </ns3:TrackPointExtension>
        </extensions>
      </trkpt>
      <trkpt lat="43.476491868495941162109375" lon="1.43322405405342578887939453125">
        <ele>221</ele>
        <time>2026-08-05T09:34:15.000Z</time>
        <extensions>
          <ns3:TrackPointExtension>
            <ns3:hr>98</ns3:hr>
            <ns3:cad>77</ns3:cad>
          </ns3:TrackPointExtension>
        </extensions>
      </trkpt>
      <trkpt lat="43.47648574970662593841552734375" lon="1.43322975374758243560791015625">
        <ele>221</ele>
        <time>2026-08-05T09:34:16.000Z</time>
        <extensions>
          <ns3:TrackPointExtension>
            <ns3:hr>98</ns3:hr>
            <ns3:cad>77</ns3:cad>
          </ns3:TrackPointExtension>
        </extensions>
      </trkpt>
      <trkpt lat="43.4764806367456912994384765625" lon="1.433236040174961090087890625">
        <ele>221.1999969482421875</ele>
        <time>2026-08-05T09:34:17.000Z</time>
        <extensions>
          <ns3:TrackPointExtension>
            <ns3:hr>98</ns3:hr>
            <ns3:cad>0</ns3:cad>
          </ns3:TrackPointExtension>
        </extensions>
      </trkpt>
      <trkpt lat="43.4764675609767436981201171875" lon="1.433236710727214813232421875">
        <ele>221.399993896484375</ele>
        <time>2026-08-05T09:34:18.000Z</time>
        <extensions>
          <ns3:TrackPointExtension>
            <ns3:hr>98</ns3:hr>
            <ns3:cad>0</ns3:cad>
          </ns3:TrackPointExtension>
        </extensions>
      </trkpt>
      <trkpt lat="43.476462028920650482177734375" lon="1.43324232660233974456787109375">
        <ele>221.399993896484375</ele>
        <time>2026-08-05T09:34:19.000Z</time>
        <extensions>
          <ns3:TrackPointExtension>
            <ns3:hr>98</ns3:hr>
            <ns3:cad>0</ns3:cad>
          </ns3:TrackPointExtension>
        </extensions>
      </trkpt>
      <trkpt lat="43.476454317569732666015625" lon="1.43324249424040317535400390625">
        <ele>221.600006103515625</ele>
        <time>2026-08-05T09:34:20.000Z</time>
        <extensions>
          <ns3:TrackPointExtension>
            <ns3:hr>99</ns3:hr>
            <ns3:cad>0</ns3:cad>
          </ns3:TrackPointExtension>
        </extensions>
      </trkpt>
      <trkpt lat="43.47644853405654430389404296875" lon="1.43324517644941806793212890625">
        <ele>221.600006103515625</ele>
        <time>2026-08-05T09:34:21.000Z</time>
        <extensions>
          <ns3:TrackPointExtension>
            <ns3:hr>99</ns3:hr>
            <ns3:cad>0</ns3:cad>
          </ns3:TrackPointExtension>
        </extensions>
      </trkpt>
      <trkpt lat="43.47644501365721225738525390625" lon="1.43324601463973522186279296875">
        <ele>221.8000030517578125</ele>
        <time>2026-08-05T09:34:22.000Z</time>
        <extensions>
          <ns3:TrackPointExtension>
            <ns3:hr>99</ns3:hr>
            <ns3:cad>0</ns3:cad>
          </ns3:TrackPointExtension>
        </extensions>
      </trkpt>
      <trkpt lat="43.47644216381013393402099609375" lon="1.4332445897161960601806640625">
        <ele>222</ele>
        <time>2026-08-05T09:34:23.000Z</time>
        <extensions>
          <ns3:TrackPointExtension>
            <ns3:hr>99</ns3:hr>
            <ns3:cad>0</ns3:cad>
          </ns3:TrackPointExtension>
        </extensions>
      </trkpt>
      <trkpt lat="43.4764424152672290802001953125" lon="1.43324266187846660614013671875">
        <ele>222</ele>
        <time>2026-08-05T09:34:24.000Z</time>
        <extensions>
          <ns3:TrackPointExtension>
            <ns3:hr>100</ns3:hr>
            <ns3:cad>0</ns3:cad>
          </ns3:TrackPointExtension>
        </extensions>
      </trkpt>
      <trkpt lat="43.47644099034368991851806640625" lon="1.43324182368814945220947265625">
        <ele>222</ele>
        <time>2026-08-05T09:34:25.000Z</time>
        <extensions>
          <ns3:TrackPointExtension>
            <ns3:hr>100</ns3:hr>
            <ns3:cad>0</ns3:cad>
          </ns3:TrackPointExtension>
        </extensions>
      </trkpt>
      <trkpt lat="43.47644115798175334930419921875" lon="1.43324366770684719085693359375">
        <ele>222</ele>
        <time>2026-08-05T09:34:26.000Z</time>
        <extensions>
          <ns3:TrackPointExtension>
            <ns3:hr>101</ns3:hr>
            <ns3:cad>0</ns3:cad>
          </ns3:TrackPointExtension>
        </extensions>
      </trkpt>
      <trkpt lat="43.47644115798175334930419921875" lon="1.43324350006878376007080078125">
        <ele>222</ele>
        <time>2026-08-05T09:34:27.000Z</time>
        <extensions>
          <ns3:TrackPointExtension>
            <ns3:hr>101</ns3:hr>
            <ns3:cad>0</ns3:cad>
          </ns3:TrackPointExtension>
        </extensions>
      </trkpt>
      <trkpt lat="43.47644115798175334930419921875" lon="1.43324350006878376007080078125">
        <ele>222</ele>
        <time>2026-08-05T09:34:28.000Z</time>
        <extensions>
          <ns3:TrackPointExtension>
            <ns3:hr>102</ns3:hr>
            <ns3:cad>0</ns3:cad>
          </ns3:TrackPointExtension>
        </extensions>
      </trkpt>
      <trkpt lat="43.47644115798175334930419921875" lon="1.43324350006878376007080078125">
        <ele>222</ele>
        <time>2026-08-05T09:34:29.000Z</time>
        <extensions>
          <ns3:TrackPointExtension>
            <ns3:hr>102</ns3:hr>
            <ns3:cad>0</ns3:cad>
          </ns3:TrackPointExtension>
        </extensions>
      </trkpt>
      <trkpt lat="43.47644115798175334930419921875" lon="1.43324350006878376007080078125">
        <ele>221.8000030517578125</ele>
        <time>2026-08-05T09:34:30.000Z</time>
        <extensions>
          <ns3:TrackPointExtension>
            <ns3:hr>102</ns3:hr>
            <ns3:cad>0</ns3:cad>
          </ns3:TrackPointExtension>
        </extensions>
      </trkpt>
      <trkpt lat="43.47644115798175334930419921875" lon="1.43324350006878376007080078125">
        <ele>221.8000030517578125</ele>
        <time>2026-08-05T09:34:31.000Z</time>
        <extensions>
          <ns3:TrackPointExtension>
            <ns3:hr>102</ns3:hr>
            <ns3:cad>0</ns3:cad>
          </ns3:TrackPointExtension>
        </extensions>
      </trkpt>
      <trkpt lat="43.47644115798175334930419921875" lon="1.43324350006878376007080078125">
        <ele>221.8000030517578125</ele>
        <time>2026-08-05T09:34:32.000Z</time>
        <extensions>
          <ns3:TrackPointExtension>
            <ns3:hr>101</ns3:hr>
            <ns3:cad>0</ns3:cad>
          </ns3:TrackPointExtension>
        </extensions>
      </trkpt>
      <trkpt lat="43.47644115798175334930419921875" lon="1.43324350006878376007080078125">
        <ele>221.8000030517578125</ele>
        <time>2026-08-05T09:34:33.000Z</time>
        <extensions>
          <ns3:TrackPointExtension>
            <ns3:hr>100</ns3:hr>
            <ns3:cad>0</ns3:cad>
          </ns3:TrackPointExtension>
        </extensions>
      </trkpt>
      <trkpt lat="43.47644115798175334930419921875" lon="1.43324350006878376007080078125">
        <ele>222</ele>
        <time>2026-08-05T09:34:34.000Z</time>
        <extensions>
          <ns3:TrackPointExtension>
            <ns3:hr>97</ns3:hr>
            <ns3:cad>0</ns3:cad>
          </ns3:TrackPointExtension>
        </extensions>
      </trkpt>
      <trkpt lat="43.47644115798175334930419921875" lon="1.43324350006878376007080078125">
        <ele>222</ele>
        <time>2026-08-05T09:34:35.000Z</time>
        <extensions>
          <ns3:TrackPointExtension>
            <ns3:hr>93</ns3:hr>
            <ns3:cad>0</ns3:cad>
          </ns3:TrackPointExtension>
        </extensions>
      </trkpt>
      <trkpt lat="43.47644115798175334930419921875" lon="1.43324350006878376007080078125">
        <ele>222</ele>
        <time>2026-08-05T09:34:36.000Z</time>
        <extensions>
          <ns3:TrackPointExtension>
            <ns3:hr>90</ns3:hr>
            <ns3:cad>0</ns3:cad>
          </ns3:TrackPointExtension>
        </extensions>
      </trkpt>
      <trkpt lat="43.47644115798175334930419921875" lon="1.43324350006878376007080078125">
        <ele>222</ele>
        <time>2026-08-05T09:34:37.000Z</time>
        <extensions>
          <ns3:TrackPointExtension>
            <ns3:hr>88</ns3:hr>
            <ns3:cad>0</ns3:cad>
          </ns3:TrackPointExtension>
        </extensions>
      </trkpt>
      <trkpt lat="43.47644115798175334930419921875" lon="1.43324350006878376007080078125">
        <ele>222</ele>
        <time>2026-08-05T09:34:38.000Z</time>
        <extensions>
          <ns3:TrackPointExtension>
            <ns3:hr>86</ns3:hr>
            <ns3:cad>0</ns3:cad>
          </ns3:TrackPointExtension>
        </extensions>
      </trkpt>
      <trkpt lat="43.47644115798175334930419921875" lon="1.43324350006878376007080078125">
        <ele>222</ele>
        <time>2026-08-05T09:34:39.000Z</time>
        <extensions>
          <ns3:TrackPointExtension>
            <ns3:hr>86</ns3:hr>
            <ns3:cad>0</ns3:cad>
          </ns3:TrackPointExtension>
        </extensions>
      </trkpt>
      <trkpt lat="43.47644115798175334930419921875" lon="1.43324350006878376007080078125">
        <ele>222</ele>
        <time>2026-08-05T09:34:40.000Z</time>
        <extensions>
          <ns3:TrackPointExtension>
            <ns3:hr>85</ns3:hr>
            <ns3:cad>0</ns3:cad>
          </ns3:TrackPointExtension>
        </extensions>
      </trkpt>
      <trkpt lat="43.47644115798175334930419921875" lon="1.43324350006878376007080078125">
        <ele>222</ele>
        <time>2026-08-05T09:34:41.000Z</time>
        <extensions>
          <ns3:TrackPointExtension>
            <ns3:hr>85</ns3:hr>
            <ns3:cad>0</ns3:cad>
          </ns3:TrackPointExtension>
        </extensions>
      </trkpt>
      <trkpt lat="43.47644115798175334930419921875" lon="1.43324350006878376007080078125">
        <ele>222</ele>
        <time>2026-08-05T09:34:42.000Z</time>
        <extensions>
          <ns3:TrackPointExtension>
            <ns3:hr>84</ns3:hr>
            <ns3:cad>0</ns3:cad>
          </ns3:TrackPointExtension>
        </extensions>
      </trkpt>
      <trkpt lat="43.47644115798175334930419921875" lon="1.43324350006878376007080078125">
        <ele>222</ele>
        <time>2026-08-05T09:34:43.000Z</time>
        <extensions>
          <ns3:TrackPointExtension>
            <ns3:hr>84</ns3:hr>
            <ns3:cad>0</ns3:cad>
          </ns3:TrackPointExtension>
        </extensions>
      </trkpt>
      <trkpt lat="43.47644115798175334930419921875" lon="1.43324350006878376007080078125">
        <ele>222</ele>
        <time>2026-08-05T09:34:44.000Z</time>
        <extensions>
          <ns3:TrackPointExtension>
            <ns3:hr>84</ns3:hr>
            <ns3:cad>0</ns3:cad>
          </ns3:TrackPointExtension>
        </extensions>
      </trkpt>
      <trkpt lat="43.47644115798175334930419921875" lon="1.43324350006878376007080078125">
        <ele>222</ele>
        <time>2026-08-05T09:34:45.000Z</time>
        <extensions>
          <ns3:TrackPointExtension>
            <ns3:hr>83</ns3:hr>
            <ns3:cad>0</ns3:cad>
          </ns3:TrackPointExtension>
        </extensions>
      </trkpt>
      <trkpt lat="43.47644115798175334930419921875" lon="1.43324350006878376007080078125">
        <ele>222</ele>
        <time>2026-08-05T09:34:46.000Z</time>
        <extensions>
          <ns3:TrackPointExtension>
            <ns3:hr>82</ns3:hr>
            <ns3:cad>0</ns3:cad>
          </ns3:TrackPointExtension>
        </extensions>
      </trkpt>
      <trkpt lat="43.47644115798175334930419921875" lon="1.43324350006878376007080078125">
        <ele>222</ele>
        <time>2026-08-05T09:34:47.000Z</time>
        <extensions>
          <ns3:TrackPointExtension>
            <ns3:hr>81</ns3:hr>
            <ns3:cad>0</ns3:cad>
          </ns3:TrackPointExtension>
        </extensions>
      </trkpt>
      <trkpt lat="43.47644115798175334930419921875" lon="1.43324350006878376007080078125">
        <ele>222</ele>
        <time>2026-08-05T09:34:48.000Z</time>
        <extensions>
          <ns3:TrackPointExtension>
            <ns3:hr>80</ns3:hr>
            <ns3:cad>0</ns3:cad>
          </ns3:TrackPointExtension>
        </extensions>
      </trkpt>
      <trkpt lat="43.47644115798175334930419921875" lon="1.43324350006878376007080078125">
        <ele>222</ele>
        <time>2026-08-05T09:34:49.000Z</time>
        <extensions>
          <ns3:TrackPointExtension>
            <ns3:hr>80</ns3:hr>
            <ns3:cad>0</ns3:cad>
          </ns3:TrackPointExtension>
        </extensions>
      </trkpt>
      <trkpt lat="43.47644115798175334930419921875" lon="1.43324350006878376007080078125">
        <ele>222.1999969482421875</ele>
        <time>2026-08-05T09:34:50.000Z</time>
        <extensions>
          <ns3:TrackPointExtension>
            <ns3:hr>79</ns3:hr>
            <ns3:cad>0</ns3:cad>
          </ns3:TrackPointExtension>
        </extensions>
      </trkpt>
      <trkpt lat="43.47644115798175334930419921875" lon="1.43324350006878376007080078125">
        <ele>222.1999969482421875</ele>
        <time>2026-08-05T09:34:51.000Z</time>
        <extensions>
          <ns3:TrackPointExtension>
            <ns3:hr>79</ns3:hr>
            <ns3:cad>0</ns3:cad>
          </ns3:TrackPointExtension>
        </extensions>
      </trkpt>
      <trkpt lat="43.47644115798175334930419921875" lon="1.43324350006878376007080078125">
        <ele>222.1999969482421875</ele>
        <time>2026-08-05T09:34:52.000Z</time>
        <extensions>
          <ns3:TrackPointExtension>
            <ns3:hr>79</ns3:hr>
            <ns3:cad>0</ns3:cad>
          </ns3:TrackPointExtension>
        </extensions>
      </trkpt>
      <trkpt lat="43.47644115798175334930419921875" lon="1.43324350006878376007080078125">
        <ele>222.1999969482421875</ele>
        <time>2026-08-05T09:34:53.000Z</time>
        <extensions>
          <ns3:TrackPointExtension>
            <ns3:hr>79</ns3:hr>
            <ns3:cad>0</ns3:cad>
          </ns3:TrackPointExtension>
        </extensions>
      </trkpt>
      <trkpt lat="43.47644115798175334930419921875" lon="1.43324350006878376007080078125">
        <ele>222.1999969482421875</ele>
        <time>2026-08-05T09:34:54.000Z</time>
        <extensions>
          <ns3:TrackPointExtension>
            <ns3:hr>80</ns3:hr>
            <ns3:cad>0</ns3:cad>
          </ns3:TrackPointExtension>
        </extensions>
      </trkpt>
      <trkpt lat="43.47644115798175334930419921875" lon="1.43324350006878376007080078125">
        <ele>222.1999969482421875</ele>
        <time>2026-08-05T09:34:55.000Z</time>
        <extensions>
          <ns3:TrackPointExtension>
            <ns3:hr>80</ns3:hr>
            <ns3:cad>0</ns3:cad>
          </ns3:TrackPointExtension>
        </extensions>
      </trkpt>
      <trkpt lat="43.47644115798175334930419921875" lon="1.43324350006878376007080078125">
        <ele>222.1999969482421875</ele>
        <time>2026-08-05T09:34:56.000Z</time>
        <extensions>
          <ns3:TrackPointExtension>
            <ns3:hr>80</ns3:hr>
            <ns3:cad>0</ns3:cad>
          </ns3:TrackPointExtension>
        </extensions>
      </trkpt>
      <trkpt lat="43.47644115798175334930419921875" lon="1.43324350006878376007080078125">
        <ele>222.1999969482421875</ele>
        <time>2026-08-05T09:34:57.000Z</time>
        <extensions>
          <ns3:TrackPointExtension>
            <ns3:hr>79</ns3:hr>
            <ns3:cad>0</ns3:cad>
          </ns3:TrackPointExtension>
        </extensions>
      </trkpt>
      <trkpt lat="43.47644115798175334930419921875" lon="1.43324350006878376007080078125">
        <ele>222.1999969482421875</ele>
        <time>2026-08-05T09:34:58.000Z</time>
        <extensions>
          <ns3:TrackPointExtension>
            <ns3:hr>78</ns3:hr>
            <ns3:cad>0</ns3:cad>
          </ns3:TrackPointExtension>
        </extensions>
      </trkpt>
      <trkpt lat="43.47644115798175334930419921875" lon="1.43324350006878376007080078125">
        <ele>222.1999969482421875</ele>
        <time>2026-08-05T09:34:59.000Z</time>
        <extensions>
          <ns3:TrackPointExtension>
            <ns3:hr>77</ns3:hr>
            <ns3:cad>0</ns3:cad>
          </ns3:TrackPointExtension>
        </extensions>
      </trkpt>
      <trkpt lat="43.47644115798175334930419921875" lon="1.43324350006878376007080078125">
        <ele>222.1999969482421875</ele>
        <time>2026-08-05T09:35:00.000Z</time>
        <extensions>
          <ns3:TrackPointExtension>
            <ns3:hr>77</ns3:hr>
            <ns3:cad>0</ns3:cad>
          </ns3:TrackPointExtension>
        </extensions>
      </trkpt>
      <trkpt lat="43.4764390625059604644775390625" lon="1.43324433825910091400146484375">
        <ele>222.1999969482421875</ele>
        <time>2026-08-05T09:35:01.000Z</time>
        <extensions>
          <ns3:TrackPointExtension>
            <ns3:hr>75</ns3:hr>
            <ns3:cad>0</ns3:cad>
          </ns3:TrackPointExtension>
        </extensions>
      </trkpt>
      <trkpt lat="43.47644115798175334930419921875" lon="1.43324350006878376007080078125">
        <ele>222.1999969482421875</ele>
        <time>2026-08-05T09:35:02.000Z</time>
        <extensions>
          <ns3:TrackPointExtension>
            <ns3:hr>74</ns3:hr>
            <ns3:cad>0</ns3:cad>
          </ns3:TrackPointExtension>
        </extensions>
      </trkpt>
      <trkpt lat="43.47644115798175334930419921875" lon="1.43324350006878376007080078125">
        <ele>222.1999969482421875</ele>
        <time>2026-08-05T09:35:03.000Z</time>
        <extensions>
          <ns3:TrackPointExtension>
            <ns3:hr>74</ns3:hr>
            <ns3:cad>0</ns3:cad>
          </ns3:TrackPointExtension>
        </extensions>
      </trkpt>
      <trkpt lat="43.47644115798175334930419921875" lon="1.43324350006878376007080078125">
        <ele>222.1999969482421875</ele>
        <time>2026-08-05T09:35:04.000Z</time>
        <extensions>
          <ns3:TrackPointExtension>
            <ns3:hr>74</ns3:hr>
            <ns3:cad>0</ns3:cad>
          </ns3:TrackPointExtension>
        </extensions>
      </trkpt>
      <trkpt lat="43.47643629647791385650634765625" lon="1.43324668519198894500732421875">
        <ele>222.1999969482421875</ele>
        <time>2026-08-05T09:35:05.000Z</time>
        <extensions>
          <ns3:TrackPointExtension>
            <ns3:hr>73</ns3:hr>
            <ns3:cad>0</ns3:cad>
          </ns3:TrackPointExtension>
        </extensions>
      </trkpt>
      <trkpt lat="43.4764323569834232330322265625" lon="1.43325204961001873016357421875">
        <ele>222.399993896484375</ele>
        <time>2026-08-05T09:35:06.000Z</time>
        <extensions>
          <ns3:TrackPointExtension>
            <ns3:hr>73</ns3:hr>
            <ns3:cad>0</ns3:cad>
          </ns3:TrackPointExtension>
        </extensions>
      </trkpt>
      <trkpt lat="43.4764279983937740325927734375" lon="1.43325339071452617645263671875">
        <ele>222.399993896484375</ele>
        <time>2026-08-05T09:35:07.000Z</time>
        <extensions>
          <ns3:TrackPointExtension>
            <ns3:hr>73</ns3:hr>
            <ns3:cad>0</ns3:cad>
          </ns3:TrackPointExtension>
        </extensions>
      </trkpt>
      <trkpt lat="43.4764192812144756317138671875" lon="1.4332583360373973846435546875">
        <ele>222.600006103515625</ele>
        <time>2026-08-05T09:35:08.000Z</time>
        <extensions>
          <ns3:TrackPointExtension>
            <ns3:hr>74</ns3:hr>
            <ns3:cad>0</ns3:cad>
          </ns3:TrackPointExtension>
        </extensions>
      </trkpt>
      <trkpt lat="43.47641182132065296173095703125" lon="1.43326210789382457733154296875">
        <ele>222.600006103515625</ele>
        <time>2026-08-05T09:35:09.000Z</time>
        <extensions>
          <ns3:TrackPointExtension>
            <ns3:hr>73</ns3:hr>
            <ns3:cad>0</ns3:cad>
          </ns3:TrackPointExtension>
        </extensions>
      </trkpt>
      <trkpt lat="43.476406373083591461181640625" lon="1.43326110206544399261474609375">
        <ele>222.8000030517578125</ele>
        <time>2026-08-05T09:35:10.000Z</time>
        <extensions>
          <ns3:TrackPointExtension>
            <ns3:hr>73</ns3:hr>
            <ns3:cad>0</ns3:cad>
          </ns3:TrackPointExtension>
        </extensions>
      </trkpt>
      <trkpt lat="43.47640729509294033050537109375" lon="1.4332613535225391387939453125">
        <ele>223</ele>
        <time>2026-08-05T09:35:11.000Z</time>
        <extensions>
          <ns3:TrackPointExtension>
            <ns3:hr>73</ns3:hr>
            <ns3:cad>0</ns3:cad>
          </ns3:TrackPointExtension>
        </extensions>
      </trkpt>
      <trkpt lat="43.47640712745487689971923828125" lon="1.4332613535225391387939453125">
        <ele>223</ele>
        <time>2026-08-05T09:35:12.000Z</time>
        <extensions>
          <ns3:TrackPointExtension>
            <ns3:hr>73</ns3:hr>
            <ns3:cad>0</ns3:cad>
          </ns3:TrackPointExtension>
        </extensions>
      </trkpt>
      <trkpt lat="43.4764020144939422607421875" lon="1.43326043151319026947021484375">
        <ele>223.1999969482421875</ele>
        <time>2026-08-05T09:35:13.000Z</time>
        <extensions>
          <ns3:TrackPointExtension>
            <ns3:hr>73</ns3:hr>
            <ns3:cad>0</ns3:cad>
          </ns3:TrackPointExtension>
        </extensions>
      </trkpt>
      <trkpt lat="43.476396314799785614013671875" lon="1.43326277844607830047607421875">
        <ele>223.1999969482421875</ele>
        <time>2026-08-05T09:35:14.000Z</time>
        <extensions>
          <ns3:TrackPointExtension>
            <ns3:hr>74</ns3:hr>
            <ns3:cad>0</ns3:cad>
          </ns3:TrackPointExtension>
        </extensions>
      </trkpt>
      <trkpt lat="43.47639103420078754425048828125" lon="1.43326411955058574676513671875">
        <ele>223.399993896484375</ele>
        <time>2026-08-05T09:35:15.000Z</time>
        <extensions>
          <ns3:TrackPointExtension>
            <ns3:hr>74</ns3:hr>
            <ns3:cad>0</ns3:cad>
          </ns3:TrackPointExtension>
        </extensions>
      </trkpt>
      <trkpt lat="43.476386927068233489990234375" lon="1.433265209197998046875">
        <ele>223.399993896484375</ele>
        <time>2026-08-05T09:35:16.000Z</time>
        <extensions>
          <ns3:TrackPointExtension>
            <ns3:hr>75</ns3:hr>
            <ns3:cad>0</ns3:cad>
          </ns3:TrackPointExtension>
        </extensions>
      </trkpt>
      <trkpt lat="43.47638097591698169708251953125" lon="1.4332643710076808929443359375">
        <ele>223.399993896484375</ele>
        <time>2026-08-05T09:35:17.000Z</time>
        <extensions>
          <ns3:TrackPointExtension>
            <ns3:hr>76</ns3:hr>
            <ns3:cad>0</ns3:cad>
          </ns3:TrackPointExtension>
        </extensions>
      </trkpt>
      <trkpt lat="43.4763733483850955963134765625" lon="1.43326445482671260833740234375">
        <ele>223.600006103515625</ele>
        <time>2026-08-05T09:35:18.000Z</time>
        <extensions>
          <ns3:TrackPointExtension>
            <ns3:hr>78</ns3:hr>
            <ns3:cad>0</ns3:cad>
          </ns3:TrackPointExtension>
        </extensions>
      </trkpt>
      <trkpt lat="43.4763658046722412109375" lon="1.43326663412153720855712890625">
        <ele>223.600006103515625</ele>
        <time>2026-08-05T09:35:19.000Z</time>
        <extensions>
          <ns3:TrackPointExtension>
            <ns3:hr>78</ns3:hr>
            <ns3:cad>0</ns3:cad>
          </ns3:TrackPointExtension>
        </extensions>
      </trkpt>
      <trkpt lat="43.4763585962355136871337890625" lon="1.43326856195926666259765625">
        <ele>223.8000030517578125</ele>
        <time>2026-08-05T09:35:20.000Z</time>
        <extensions>
          <ns3:TrackPointExtension>
            <ns3:hr>78</ns3:hr>
            <ns3:cad>0</ns3:cad>
          </ns3:TrackPointExtension>
        </extensions>
      </trkpt>
      <trkpt lat="43.47635113634169101715087890625" lon="1.43327124416828155517578125">
        <ele>223.8000030517578125</ele>
        <time>2026-08-05T09:35:21.000Z</time>
        <extensions>
          <ns3:TrackPointExtension>
            <ns3:hr>78</ns3:hr>
            <ns3:cad>0</ns3:cad>
          </ns3:TrackPointExtension>
        </extensions>
      </trkpt>
      <trkpt lat="43.47634593956172466278076171875" lon="1.43327216617763042449951171875">
        <ele>224</ele>
        <time>2026-08-05T09:35:22.000Z</time>
        <extensions>
          <ns3:TrackPointExtension>
            <ns3:hr>77</ns3:hr>
            <ns3:cad>0</ns3:cad>
          </ns3:TrackPointExtension>
        </extensions>
      </trkpt>
      <trkpt lat="43.47633923403918743133544921875" lon="1.4332761056721210479736328125">
        <ele>224</ele>
        <time>2026-08-05T09:35:23.000Z</time>
        <extensions>
          <ns3:TrackPointExtension>
            <ns3:hr>77</ns3:hr>
            <ns3:cad>67</ns3:cad>
          </ns3:TrackPointExtension>
        </extensions>
      </trkpt>
      <trkpt lat="43.4763322770595550537109375" lon="1.43327903933823108673095703125">
        <ele>224.1999969482421875</ele>
        <time>2026-08-05T09:35:24.000Z</time>
        <extensions>
          <ns3:TrackPointExtension>
            <ns3:hr>77</ns3:hr>
            <ns3:cad>67</ns3:cad>
          </ns3:TrackPointExtension>
        </extensions>
      </trkpt>
      <trkpt lat="43.4763213805854320526123046875" lon="1.43328323028981685638427734375">
        <ele>224.1999969482421875</ele>
        <time>2026-08-05T09:35:25.000Z</time>
        <extensions>
          <ns3:TrackPointExtension>
            <ns3:hr>77</ns3:hr>
            <ns3:cad>67</ns3:cad>
          </ns3:TrackPointExtension>
        </extensions>
      </trkpt>
      <trkpt lat="43.4763161838054656982421875" lon="1.4332875050604343414306640625">
        <ele>224.399993896484375</ele>
        <time>2026-08-05T09:35:26.000Z</time>
        <extensions>
          <ns3:TrackPointExtension>
            <ns3:hr>77</ns3:hr>
            <ns3:cad>67</ns3:cad>
          </ns3:TrackPointExtension>
        </extensions>
      </trkpt>
      <trkpt lat="43.47631190903484821319580078125" lon="1.433285661041736602783203125">
        <ele>224.399993896484375</ele>
        <time>2026-08-05T09:35:27.000Z</time>
        <extensions>
          <ns3:TrackPointExtension>
            <ns3:hr>76</ns3:hr>
            <ns3:cad>68</ns3:cad>
          </ns3:TrackPointExtension>
        </extensions>
      </trkpt>
      <trkpt lat="43.47630637697875499725341796875" lon="1.4332875050604343414306640625">
        <ele>224.600006103515625</ele>
        <time>2026-08-05T09:35:28.000Z</time>
        <extensions>
          <ns3:TrackPointExtension>
            <ns3:hr>76</ns3:hr>
            <ns3:cad>68</ns3:cad>
          </ns3:TrackPointExtension>
        </extensions>
      </trkpt>
      <trkpt lat="43.47629849798977375030517578125" lon="1.43328675068914890289306640625">
        <ele>224.600006103515625</ele>
        <time>2026-08-05T09:35:29.000Z</time>
        <extensions>
          <ns3:TrackPointExtension>
            <ns3:hr>76</ns3:hr>
            <ns3:cad>68</ns3:cad>
          </ns3:TrackPointExtension>
        </extensions>
      </trkpt>
      <trkpt lat="43.4762928821146488189697265625" lon="1.4332866668701171875">
        <ele>224.8000030517578125</ele>
        <time>2026-08-05T09:35:30.000Z</time>
        <extensions>
          <ns3:TrackPointExtension>
            <ns3:hr>77</ns3:hr>
            <ns3:cad>68</ns3:cad>
          </ns3:TrackPointExtension>
        </extensions>
      </trkpt>
      <trkpt lat="43.4762865118682384490966796875" lon="1.43328792415559291839599609375">
        <ele>224.8000030517578125</ele>
        <time>2026-08-05T09:35:31.000Z</time>
        <extensions>
          <ns3:TrackPointExtension>
            <ns3:hr>76</ns3:hr>
            <ns3:cad>68</ns3:cad>
          </ns3:TrackPointExtension>
        </extensions>
      </trkpt>
      <trkpt lat="43.47628064453601837158203125" lon="1.43328859470784664154052734375">
        <ele>225</ele>
        <time>2026-08-05T09:35:32.000Z</time>
        <extensions>
          <ns3:TrackPointExtension>
            <ns3:hr>77</ns3:hr>
            <ns3:cad>68</ns3:cad>
          </ns3:TrackPointExtension>
        </extensions>
      </trkpt>
      <trkpt lat="43.47627385519444942474365234375" lon="1.4332901872694492340087890625">
        <ele>225.1999969482421875</ele>
        <time>2026-08-05T09:35:33.000Z</time>
        <extensions>
          <ns3:TrackPointExtension>
            <ns3:hr>77</ns3:hr>
            <ns3:cad>68</ns3:cad>
          </ns3:TrackPointExtension>
        </extensions>
      </trkpt>
      <trkpt lat="43.47626513801515102386474609375" lon="1.4332905225455760955810546875">
        <ele>225.1999969482421875</ele>
        <time>2026-08-05T09:35:34.000Z</time>
        <extensions>
          <ns3:TrackPointExtension>
            <ns3:hr>78</ns3:hr>
            <ns3:cad>68</ns3:cad>
          </ns3:TrackPointExtension>
        </extensions>
      </trkpt>
      <trkpt lat="43.47625977359712123870849609375" lon="1.4332905225455760955810546875">
        <ele>225.399993896484375</ele>
        <time>2026-08-05T09:35:35.000Z</time>
        <extensions>
          <ns3:TrackPointExtension>
            <ns3:hr>79</ns3:hr>
            <ns3:cad>68</ns3:cad>
          </ns3:TrackPointExtension>
        </extensions>
      </trkpt>
      <trkpt lat="43.47625172697007656097412109375" lon="1.4332901872694492340087890625">
        <ele>225.399993896484375</ele>
        <time>2026-08-05T09:35:36.000Z</time>
        <extensions>
          <ns3:TrackPointExtension>
            <ns3:hr>79</ns3:hr>
            <ns3:cad>69</ns3:cad>
          </ns3:TrackPointExtension>
        </extensions>
      </trkpt>
      <trkpt lat="43.4762410819530487060546875" lon="1.43329245038330554962158203125">
        <ele>225.600006103515625</ele>
        <time>2026-08-05T09:35:37.000Z</time>
        <extensions>
          <ns3:TrackPointExtension>
            <ns3:hr>80</ns3:hr>
            <ns3:cad>69</ns3:cad>
          </ns3:TrackPointExtension>
        </extensions>
      </trkpt>
      <trkpt lat="43.4762321971356868743896484375" lon="1.4332938753068447113037109375">
        <ele>225.600006103515625</ele>
        <time>2026-08-05T09:35:38.000Z</time>
        <extensions>
          <ns3:TrackPointExtension>
            <ns3:hr>81</ns3:hr>
            <ns3:cad>0</ns3:cad>
          </ns3:TrackPointExtension>
        </extensions>
      </trkpt>
      <trkpt lat="43.4762258268892765045166015625" lon="1.43329312093555927276611328125">
        <ele>225.8000030517578125</ele>
        <time>2026-08-05T09:35:39.000Z</time>
        <extensions>
          <ns3:TrackPointExtension>
            <ns3:hr>82</ns3:hr>
            <ns3:cad>0</ns3:cad>
          </ns3:TrackPointExtension>
        </extensions>
      </trkpt>
      <trkpt lat="43.476219289004802703857421875" lon="1.43329362384974956512451171875">
        <ele>225.8000030517578125</ele>
        <time>2026-08-05T09:35:40.000Z</time>
        <extensions>
          <ns3:TrackPointExtension>
            <ns3:hr>84</ns3:hr>
            <ns3:cad>68</ns3:cad>
          </ns3:TrackPointExtension>
        </extensions>
      </trkpt>
      <trkpt lat="43.476211912930011749267578125" lon="1.43329404294490814208984375">
        <ele>226</ele>
        <time>2026-08-05T09:35:41.000Z</time>
        <extensions>
          <ns3:TrackPointExtension>
            <ns3:hr>85</ns3:hr>
            <ns3:cad>68</ns3:cad>
          </ns3:TrackPointExtension>
        </extensions>
      </trkpt>
      <trkpt lat="43.47620545886456966400146484375" lon="1.43329530023038387298583984375">
        <ele>226</ele>
        <time>2026-08-05T09:35:42.000Z</time>
        <extensions>
          <ns3:TrackPointExtension>
            <ns3:hr>86</ns3:hr>
            <ns3:cad>68</ns3:cad>
          </ns3:TrackPointExtension>
        </extensions>
      </trkpt>
      <trkpt lat="43.4761979989707469940185546875" lon="1.43329597078263759613037109375">
        <ele>226.1999969482421875</ele>
        <time>2026-08-05T09:35:43.000Z</time>
        <extensions>
          <ns3:TrackPointExtension>
            <ns3:hr>86</ns3:hr>
            <ns3:cad>68</ns3:cad>
          </ns3:TrackPointExtension>
        </extensions>
      </trkpt>
      <trkpt lat="43.47619120962917804718017578125" lon="1.4332982338964939117431640625">
        <ele>226.1999969482421875</ele>
        <time>2026-08-05T09:35:44.000Z</time>
        <extensions>
          <ns3:TrackPointExtension>
            <ns3:hr>87</ns3:hr>
            <ns3:cad>68</ns3:cad>
          </ns3:TrackPointExtension>
        </extensions>
      </trkpt>
      <trkpt lat="43.47618316300213336944580078125" lon="1.4332987368106842041015625">
        <ele>226.399993896484375</ele>
        <time>2026-08-05T09:35:45.000Z</time>
        <extensions>
          <ns3:TrackPointExtension>
            <ns3:hr>88</ns3:hr>
            <ns3:cad>69</ns3:cad>
          </ns3:TrackPointExtension>
        </extensions>
      </trkpt>
      <trkpt lat="43.47617545165121555328369140625" lon="1.43329982645809650421142578125">
        <ele>226.399993896484375</ele>
        <time>2026-08-05T09:35:46.000Z</time>
        <extensions>
          <ns3:TrackPointExtension>
            <ns3:hr>88</ns3:hr>
            <ns3:cad>69</ns3:cad>
          </ns3:TrackPointExtension>
        </extensions>
      </trkpt>
      <trkpt lat="43.47616556100547313690185546875" lon="1.43330116756260395050048828125">
        <ele>226.600006103515625</ele>
        <time>2026-08-05T09:35:47.000Z</time>
        <extensions>
          <ns3:TrackPointExtension>
            <ns3:hr>88</ns3:hr>
            <ns3:cad>69</ns3:cad>
          </ns3:TrackPointExtension>
        </extensions>
      </trkpt>
      <trkpt lat="43.47615801729261875152587890625" lon="1.43329965882003307342529296875">
        <ele>226.8000030517578125</ele>
        <time>2026-08-05T09:35:48.000Z</time>
        <extensions>
          <ns3:TrackPointExtension>
            <ns3:hr>88</ns3:hr>
            <ns3:cad>75</ns3:cad>
          </ns3:TrackPointExtension>
        </extensions>
      </trkpt>
      <trkpt lat="43.4761537425220012664794921875" lon="1.4333002455532550811767578125">
        <ele>226.8000030517578125</ele>
        <time>2026-08-05T09:35:49.000Z</time>
        <extensions>
          <ns3:TrackPointExtension>
            <ns3:hr>89</ns3:hr>
            <ns3:cad>75</ns3:cad>
          </ns3:TrackPointExtension>
        </extensions>
      </trkpt>
      <trkpt lat="43.476147539913654327392578125" lon="1.433300077915191650390625">
        <ele>227</ele>
        <time>2026-08-05T09:35:50.000Z</time>
        <extensions>
          <ns3:TrackPointExtension>
            <ns3:hr>89</ns3:hr>
            <ns3:cad>75</ns3:cad>
          </ns3:TrackPointExtension>
        </extensions>
      </trkpt>
      <trkpt lat="43.47613848745822906494140625" lon="1.43330083228647708892822265625">
        <ele>227.1999969482421875</ele>
        <time>2026-08-05T09:35:51.000Z</time>
        <extensions>
          <ns3:TrackPointExtension>
            <ns3:hr>89</ns3:hr>
            <ns3:cad>75</ns3:cad>
          </ns3:TrackPointExtension>
        </extensions>
      </trkpt>
      <trkpt lat="43.4761285968124866485595703125" lon="1.4333015866577625274658203125">
        <ele>227.1999969482421875</ele>
        <time>2026-08-05T09:35:52.000Z</time>
        <extensions>
          <ns3:TrackPointExtension>
            <ns3:hr>89</ns3:hr>
            <ns3:cad>75</ns3:cad>
          </ns3:TrackPointExtension>
        </extensions>
      </trkpt>
      <trkpt lat="43.47611971199512481689453125" lon="1.43330317921936511993408203125">
        <ele>227.399993896484375</ele>
        <time>2026-08-05T09:35:53.000Z</time>
        <extensions>
          <ns3:TrackPointExtension>
            <ns3:hr>89</ns3:hr>
            <ns3:cad>75</ns3:cad>
          </ns3:TrackPointExtension>
        </extensions>
      </trkpt>
      <trkpt lat="43.47611166536808013916015625" lon="1.4333052746951580047607421875">
        <ele>227.399993896484375</ele>
        <time>2026-08-05T09:35:54.000Z</time>
        <extensions>
          <ns3:TrackPointExtension>
            <ns3:hr>90</ns3:hr>
            <ns3:cad>75</ns3:cad>
          </ns3:TrackPointExtension>
        </extensions>
      </trkpt>
      <trkpt lat="43.47610286436975002288818359375" lon="1.43330854363739490509033203125">
        <ele>227.600006103515625</ele>
        <time>2026-08-05T09:35:55.000Z</time>
        <extensions>
          <ns3:TrackPointExtension>
            <ns3:hr>90</ns3:hr>
            <ns3:cad>71</ns3:cad>
          </ns3:TrackPointExtension>
        </extensions>
      </trkpt>
      <trkpt lat="43.47609682939946651458740234375" lon="1.43330988474190235137939453125">
        <ele>227.600006103515625</ele>
        <time>2026-08-05T09:35:56.000Z</time>
        <extensions>
          <ns3:TrackPointExtension>
            <ns3:hr>90</ns3:hr>
            <ns3:cad>71</ns3:cad>
          </ns3:TrackPointExtension>
        </extensions>
      </trkpt>
      <trkpt lat="43.47609716467559337615966796875" lon="1.4333079569041728973388671875">
        <ele>227.8000030517578125</ele>
        <time>2026-08-05T09:35:57.000Z</time>
        <extensions>
          <ns3:TrackPointExtension>
            <ns3:hr>91</ns3:hr>
            <ns3:cad>71</ns3:cad>
          </ns3:TrackPointExtension>
        </extensions>
      </trkpt>
      <trkpt lat="43.47609347663819789886474609375" lon="1.43330904655158519744873046875">
        <ele>228</ele>
        <time>2026-08-05T09:35:58.000Z</time>
        <extensions>
          <ns3:TrackPointExtension>
            <ns3:hr>91</ns3:hr>
            <ns3:cad>0</ns3:cad>
          </ns3:TrackPointExtension>
        </extensions>
      </trkpt>
      <trkpt lat="43.4760883636772632598876953125" lon="1.4333092980086803436279296875">
        <ele>228</ele>
        <time>2026-08-05T09:35:59.000Z</time>
        <extensions>
          <ns3:TrackPointExtension>
            <ns3:hr>91</ns3:hr>
            <ns3:cad>0</ns3:cad>
          </ns3:TrackPointExtension>
        </extensions>
      </trkpt>
      <trkpt lat="43.4760813228785991668701171875" lon="1.433311812579631805419921875">
        <ele>228.1999969482421875</ele>
        <time>2026-08-05T09:36:00.000Z</time>
        <extensions>
          <ns3:TrackPointExtension>
            <ns3:hr>92</ns3:hr>
            <ns3:cad>0</ns3:cad>
          </ns3:TrackPointExtension>
        </extensions>
      </trkpt>
      <trkpt lat="43.4760756231844425201416015625" lon="1.4333109743893146514892578125">
        <ele>228.1999969482421875</ele>
        <time>2026-08-05T09:36:01.000Z</time>
        <extensions>
          <ns3:TrackPointExtension>
            <ns3:hr>92</ns3:hr>
            <ns3:cad>0</ns3:cad>
          </ns3:TrackPointExtension>
        </extensions>
      </trkpt>
      <trkpt lat="43.47606682218611240386962890625" lon="1.43331089057028293609619140625">
        <ele>228.1999969482421875</ele>
        <time>2026-08-05T09:36:02.000Z</time>
        <extensions>
          <ns3:TrackPointExtension>
            <ns3:hr>92</ns3:hr>
            <ns3:cad>0</ns3:cad>
          </ns3:TrackPointExtension>
        </extensions>
      </trkpt>
      <trkpt lat="43.47605936229228973388671875" lon="1.4333116449415683746337890625">
        <ele>228.399993896484375</ele>
        <time>2026-08-05T09:36:03.000Z</time>
        <extensions>
          <ns3:TrackPointExtension>
            <ns3:hr>93</ns3:hr>
            <ns3:cad>0</ns3:cad>
          </ns3:TrackPointExtension>
        </extensions>
      </trkpt>
      <trkpt lat="43.4760521538555622100830078125" lon="1.43331239931285381317138671875">
        <ele>228.399993896484375</ele>
        <time>2026-08-05T09:36:04.000Z</time>
        <extensions>
          <ns3:TrackPointExtension>
            <ns3:hr>93</ns3:hr>
            <ns3:cad>0</ns3:cad>
          </ns3:TrackPointExtension>
        </extensions>
      </trkpt>
      <trkpt lat="43.47604519687592983245849609375" lon="1.433311812579631805419921875">
        <ele>228.600006103515625</ele>
        <time>2026-08-05T09:36:05.000Z</time>
        <extensions>
          <ns3:TrackPointExtension>
            <ns3:hr>94</ns3:hr>
            <ns3:cad>0</ns3:cad>
          </ns3:TrackPointExtension>
        </extensions>
      </trkpt>
      <trkpt lat="43.4760367311537265777587890625" lon="1.4333160035312175750732421875">
        <ele>228.600006103515625</ele>
        <time>2026-08-05T09:36:06.000Z</time>
        <extensions>
          <ns3:TrackPointExtension>
            <ns3:hr>95</ns3:hr>
            <ns3:cad>0</ns3:cad>
          </ns3:TrackPointExtension>
        </extensions>
      </trkpt>
      <trkpt lat="43.47602860070765018463134765625" lon="1.43331726081669330596923828125">
        <ele>228.8000030517578125</ele>
        <time>2026-08-05T09:36:07.000Z</time>
        <extensions>
          <ns3:TrackPointExtension>
            <ns3:hr>97</ns3:hr>
            <ns3:cad>0</ns3:cad>
          </ns3:TrackPointExtension>
        </extensions>
      </trkpt>
      <trkpt lat="43.47602155990898609161376953125" lon="1.43331524915993213653564453125">
        <ele>228.8000030517578125</ele>
        <time>2026-08-05T09:36:08.000Z</time>
        <extensions>
          <ns3:TrackPointExtension>
            <ns3:hr>98</ns3:hr>
            <ns3:cad>0</ns3:cad>
          </ns3:TrackPointExtension>
        </extensions>
      </trkpt>
      <trkpt lat="43.47601267509162425994873046875" lon="1.4333148300647735595703125">
        <ele>229</ele>
        <time>2026-08-05T09:36:09.000Z</time>
        <extensions>
          <ns3:TrackPointExtension>
            <ns3:hr>98</ns3:hr>
            <ns3:cad>0</ns3:cad>
          </ns3:TrackPointExtension>
        </extensions>
      </trkpt>
      <trkpt lat="43.4760050475597381591796875" lon="1.4333170093595981597900390625">
        <ele>229</ele>
        <time>2026-08-05T09:36:10.000Z</time>
        <extensions>
          <ns3:TrackPointExtension>
            <ns3:hr>98</ns3:hr>
            <ns3:cad>0</ns3:cad>
          </ns3:TrackPointExtension>
        </extensions>
      </trkpt>
      <trkpt lat="43.47599792294204235076904296875" lon="1.43332363106310367584228515625">
        <ele>229.1999969482421875</ele>
        <time>2026-08-05T09:36:11.000Z</time>
        <extensions>
          <ns3:TrackPointExtension>
            <ns3:hr>98</ns3:hr>
            <ns3:cad>71</ns3:cad>
          </ns3:TrackPointExtension>
        </extensions>
      </trkpt>
      <trkpt lat="43.4759877808392047882080078125" lon="1.4333277381956577301025390625">
        <ele>229.1999969482421875</ele>
        <time>2026-08-05T09:36:12.000Z</time>
        <extensions>
          <ns3:TrackPointExtension>
            <ns3:hr>98</ns3:hr>
            <ns3:cad>71</ns3:cad>
          </ns3:TrackPointExtension>
        </extensions>
      </trkpt>
      <trkpt lat="43.47598099149763584136962890625" lon="1.4333324320614337921142578125">
        <ele>229.1999969482421875</ele>
        <time>2026-08-05T09:36:13.000Z</time>
        <extensions>
          <ns3:TrackPointExtension>
            <ns3:hr>97</ns3:hr>
            <ns3:cad>71</ns3:cad>
          </ns3:TrackPointExtension>
        </extensions>
      </trkpt>
      <trkpt lat="43.475973196327686309814453125" lon="1.433333270251750946044921875">
        <ele>229.399993896484375</ele>
        <time>2026-08-05T09:36:14.000Z</time>
        <extensions>
          <ns3:TrackPointExtension>
            <ns3:hr>97</ns3:hr>
            <ns3:cad>71</ns3:cad>
          </ns3:TrackPointExtension>
        </extensions>
      </trkpt>
      <trkpt lat="43.47596548497676849365234375" lon="1.4333361200988292694091796875">
        <ele>229.399993896484375</ele>
        <time>2026-08-05T09:36:15.000Z</time>
        <extensions>
          <ns3:TrackPointExtension>
            <ns3:hr>98</ns3:hr>
            <ns3:cad>71</ns3:cad>
          </ns3:TrackPointExtension>
        </extensions>
      </trkpt>
      <trkpt lat="43.475959785282611846923828125" lon="1.4333403110504150390625">
        <ele>229.600006103515625</ele>
        <time>2026-08-05T09:36:16.000Z</time>
        <extensions>
          <ns3:TrackPointExtension>
            <ns3:hr>98</ns3:hr>
            <ns3:cad>0</ns3:cad>
          </ns3:TrackPointExtension>
        </extensions>
      </trkpt>
      <trkpt lat="43.47595517523586750030517578125" lon="1.4333443343639373779296875">
        <ele>229.600006103515625</ele>
        <time>2026-08-05T09:36:17.000Z</time>
        <extensions>
          <ns3:TrackPointExtension>
            <ns3:hr>99</ns3:hr>
            <ns3:cad>0</ns3:cad>
          </ns3:TrackPointExtension>
        </extensions>
      </trkpt>
      <trkpt lat="43.47594930790364742279052734375" lon="1.4333502016961574554443359375">
        <ele>229.8000030517578125</ele>
        <time>2026-08-05T09:36:18.000Z</time>
        <extensions>
          <ns3:TrackPointExtension>
            <ns3:hr>98</ns3:hr>
            <ns3:cad>0</ns3:cad>
          </ns3:TrackPointExtension>
        </extensions>
      </trkpt>
      <trkpt lat="43.47594444639980792999267578125" lon="1.43335380591452121734619140625">
        <ele>230</ele>
        <time>2026-08-05T09:36:19.000Z</time>
        <extensions>
          <ns3:TrackPointExtension>
            <ns3:hr>98</ns3:hr>
            <ns3:cad>0</ns3:cad>
          </ns3:TrackPointExtension>
        </extensions>
      </trkpt>
      <trkpt lat="43.4759421832859516143798828125" lon="1.4333552308380603790283203125">
        <ele>230</ele>
        <time>2026-08-05T09:36:20.000Z</time>
        <extensions>
          <ns3:TrackPointExtension>
            <ns3:hr>97</ns3:hr>
            <ns3:cad>0</ns3:cad>
          </ns3:TrackPointExtension>
        </extensions>
      </trkpt>
      <trkpt lat="43.47594000399112701416015625" lon="1.43335481174290180206298828125">
        <ele>230.1999969482421875</ele>
        <time>2026-08-05T09:36:21.000Z</time>
        <extensions>
          <ns3:TrackPointExtension>
            <ns3:hr>97</ns3:hr>
            <ns3:cad>0</ns3:cad>
          </ns3:TrackPointExtension>
        </extensions>
      </trkpt>
      <trkpt lat="43.47594059072434902191162109375" lon="1.43335430882871150970458984375">
        <ele>230.1999969482421875</ele>
        <time>2026-08-05T09:36:22.000Z</time>
        <extensions>
          <ns3:TrackPointExtension>
            <ns3:hr>97</ns3:hr>
            <ns3:cad>0</ns3:cad>
          </ns3:TrackPointExtension>
        </extensions>
      </trkpt>
      <trkpt lat="43.47594000399112701416015625" lon="1.43335439264774322509765625">
        <ele>230.1999969482421875</ele>
        <time>2026-08-05T09:36:23.000Z</time>
        <extensions>
          <ns3:TrackPointExtension>
            <ns3:hr>97</ns3:hr>
            <ns3:cad>0</ns3:cad>
          </ns3:TrackPointExtension>
        </extensions>
      </trkpt>
      <trkpt lat="43.4759371541440486907958984375" lon="1.4333552308380603790283203125">
        <ele>230.1999969482421875</ele>
        <time>2026-08-05T09:36:24.000Z</time>
        <extensions>
          <ns3:TrackPointExtension>
            <ns3:hr>98</ns3:hr>
            <ns3:cad>0</ns3:cad>
          </ns3:TrackPointExtension>
        </extensions>
      </trkpt>
      <trkpt lat="43.4759374894201755523681640625" lon="1.43335347063839435577392578125">
        <ele>230.1999969482421875</ele>
        <time>2026-08-05T09:36:25.000Z</time>
        <extensions>
          <ns3:TrackPointExtension>
            <ns3:hr>97</ns3:hr>
            <ns3:cad>0</ns3:cad>
          </ns3:TrackPointExtension>
        </extensions>
      </trkpt>
      <trkpt lat="43.47593623213469982147216796875" lon="1.43335078842937946319580078125">
        <ele>230.1999969482421875</ele>
        <time>2026-08-05T09:36:26.000Z</time>
        <extensions>
          <ns3:TrackPointExtension>
            <ns3:hr>97</ns3:hr>
            <ns3:cad>0</ns3:cad>
          </ns3:TrackPointExtension>
        </extensions>
      </trkpt>
      <trkpt lat="43.4759344719350337982177734375" lon="1.43334827385842800140380859375">
        <ele>230.1999969482421875</ele>
        <time>2026-08-05T09:36:27.000Z</time>
        <extensions>
          <ns3:TrackPointExtension>
            <ns3:hr>97</ns3:hr>
            <ns3:cad>0</ns3:cad>
          </ns3:TrackPointExtension>
        </extensions>
      </trkpt>
      <trkpt lat="43.4759344719350337982177734375" lon="1.4333468489348888397216796875">
        <ele>230.1999969482421875</ele>
        <time>2026-08-05T09:36:28.000Z</time>
        <extensions>
          <ns3:TrackPointExtension>
            <ns3:hr>97</ns3:hr>
            <ns3:cad>0</ns3:cad>
          </ns3:TrackPointExtension>
        </extensions>
      </trkpt>
      <trkpt lat="43.4759326279163360595703125" lon="1.43334726803004741668701171875">
        <ele>230.1999969482421875</ele>
        <time>2026-08-05T09:36:29.000Z</time>
        <extensions>
          <ns3:TrackPointExtension>
            <ns3:hr>96</ns3:hr>
            <ns3:cad>0</ns3:cad>
          </ns3:TrackPointExtension>
        </extensions>
      </trkpt>
      <trkpt lat="43.4759326279163360595703125" lon="1.43334726803004741668701171875">
        <ele>230.1999969482421875</ele>
        <time>2026-08-05T09:36:30.000Z</time>
        <extensions>
          <ns3:TrackPointExtension>
            <ns3:hr>96</ns3:hr>
            <ns3:cad>0</ns3:cad>
          </ns3:TrackPointExtension>
        </extensions>
      </trkpt>
      <trkpt lat="43.4759326279163360595703125" lon="1.43334726803004741668701171875">
        <ele>230.1999969482421875</ele>
        <time>2026-08-05T09:36:31.000Z</time>
        <extensions>
          <ns3:TrackPointExtension>
            <ns3:hr>96</ns3:hr>
            <ns3:cad>0</ns3:cad>
          </ns3:TrackPointExtension>
        </extensions>
      </trkpt>
      <trkpt lat="43.4759326279163360595703125" lon="1.43334726803004741668701171875">
        <ele>230.1999969482421875</ele>
        <time>2026-08-05T09:36:32.000Z</time>
        <extensions>
          <ns3:TrackPointExtension>
            <ns3:hr>96</ns3:hr>
            <ns3:cad>0</ns3:cad>
          </ns3:TrackPointExtension>
        </extensions>
      </trkpt>
      <trkpt lat="43.4759326279163360595703125" lon="1.43334726803004741668701171875">
        <ele>230.1999969482421875</ele>
        <time>2026-08-05T09:36:33.000Z</time>
        <extensions>
          <ns3:TrackPointExtension>
            <ns3:hr>96</ns3:hr>
            <ns3:cad>0</ns3:cad>
          </ns3:TrackPointExtension>
        </extensions>
      </trkpt>
      <trkpt lat="43.47593287937343120574951171875" lon="1.43334844149649143218994140625">
        <ele>230.1999969482421875</ele>
        <time>2026-08-05T09:36:34.000Z</time>
        <extensions>
          <ns3:TrackPointExtension>
            <ns3:hr>96</ns3:hr>
            <ns3:cad>0</ns3:cad>
          </ns3:TrackPointExtension>
        </extensions>
      </trkpt>
      <trkpt lat="43.4759284369647502899169921875" lon="1.4333542250096797943115234375">
        <ele>230.1999969482421875</ele>
        <time>2026-08-05T09:36:35.000Z</time>
        <extensions>
          <ns3:TrackPointExtension>
            <ns3:hr>95</ns3:hr>
            <ns3:cad>0</ns3:cad>
          </ns3:TrackPointExtension>
        </extensions>
      </trkpt>
      <trkpt lat="43.47592298872768878936767578125" lon="1.43336285836994647979736328125">
        <ele>230.1999969482421875</ele>
        <time>2026-08-05T09:36:36.000Z</time>
        <extensions>
          <ns3:TrackPointExtension>
            <ns3:hr>95</ns3:hr>
            <ns3:cad>0</ns3:cad>
          </ns3:TrackPointExtension>
        </extensions>
      </trkpt>
      <trkpt lat="43.475919552147388458251953125" lon="1.43337316811084747314453125">
        <ele>230.1999969482421875</ele>
        <time>2026-08-05T09:36:37.000Z</time>
        <extensions>
          <ns3:TrackPointExtension>
            <ns3:hr>95</ns3:hr>
            <ns3:cad>0</ns3:cad>
          </ns3:TrackPointExtension>
        </extensions>
      </trkpt>
      <trkpt lat="43.47591410391032695770263671875" lon="1.43338297493755817413330078125">
        <ele>230.1999969482421875</ele>
        <time>2026-08-05T09:36:38.000Z</time>
        <extensions>
          <ns3:TrackPointExtension>
            <ns3:hr>95</ns3:hr>
            <ns3:cad>0</ns3:cad>
          </ns3:TrackPointExtension>
        </extensions>
      </trkpt>
      <trkpt lat="43.47591008059680461883544921875" lon="1.4333937875926494598388671875">
        <ele>230.399993896484375</ele>
        <time>2026-08-05T09:36:39.000Z</time>
        <extensions>
          <ns3:TrackPointExtension>
            <ns3:hr>94</ns3:hr>
            <ns3:cad>0</ns3:cad>
          </ns3:TrackPointExtension>
        </extensions>
      </trkpt>
      <trkpt lat="43.4759079851210117340087890625" lon="1.43340175040066242218017578125">
        <ele>230.600006103515625</ele>
        <time>2026-08-05T09:36:40.000Z</time>
        <extensions>
          <ns3:TrackPointExtension>
            <ns3:hr>94</ns3:hr>
            <ns3:cad>0</ns3:cad>
          </ns3:TrackPointExtension>
        </extensions>
      </trkpt>
      <trkpt lat="43.4759042970836162567138671875" lon="1.43341382034122943878173828125">
        <ele>230.600006103515625</ele>
        <time>2026-08-05T09:36:41.000Z</time>
        <extensions>
          <ns3:TrackPointExtension>
            <ns3:hr>94</ns3:hr>
            <ns3:cad>0</ns3:cad>
          </ns3:TrackPointExtension>
        </extensions>
      </trkpt>
      <trkpt lat="43.475902788341045379638671875" lon="1.43342186696827411651611328125">
        <ele>230.8000030517578125</ele>
        <time>2026-08-05T09:36:42.000Z</time>
        <extensions>
          <ns3:TrackPointExtension>
            <ns3:hr>95</ns3:hr>
            <ns3:cad>0</ns3:cad>
          </ns3:TrackPointExtension>
        </extensions>
      </trkpt>
      <trkpt lat="43.47590018995106220245361328125" lon="1.433430500328540802001953125">
        <ele>230.8000030517578125</ele>
        <time>2026-08-05T09:36:43.000Z</time>
        <extensions>
          <ns3:TrackPointExtension>
            <ns3:hr>95</ns3:hr>
            <ns3:cad>0</ns3:cad>
          </ns3:TrackPointExtension>
        </extensions>
      </trkpt>
      <trkpt lat="43.47589348442852497100830078125" lon="1.433434523642063140869140625">
        <ele>231</ele>
        <time>2026-08-05T09:36:44.000Z</time>
        <extensions>
          <ns3:TrackPointExtension>
            <ns3:hr>96</ns3:hr>
            <ns3:cad>0</ns3:cad>
          </ns3:TrackPointExtension>
        </extensions>
      </trkpt>
      <trkpt lat="43.47589331679046154022216796875" lon="1.4334346912801265716552734375">
        <ele>231</ele>
        <time>2026-08-05T09:36:45.000Z</time>
        <extensions>
          <ns3:TrackPointExtension>
            <ns3:hr>96</ns3:hr>
            <ns3:cad>0</ns3:cad>
          </ns3:TrackPointExtension>
        </extensions>
      </trkpt>
      <trkpt lat="43.47589038312435150146484375" lon="1.4334380440413951873779296875">
        <ele>231.1999969482421875</ele>
        <time>2026-08-05T09:36:46.000Z</time>
        <extensions>
          <ns3:TrackPointExtension>
            <ns3:hr>96</ns3:hr>
            <ns3:cad>0</ns3:cad>
          </ns3:TrackPointExtension>
        </extensions>
      </trkpt>
      <trkpt lat="43.475892730057239532470703125" lon="1.4334424026310443878173828125">
        <ele>231.1999969482421875</ele>
        <time>2026-08-05T09:36:47.000Z</time>
        <extensions>
          <ns3:TrackPointExtension>
            <ns3:hr>96</ns3:hr>
            <ns3:cad>0</ns3:cad>
          </ns3:TrackPointExtension>
        </extensions>
      </trkpt>
      <trkpt lat="43.4758923947811126708984375" lon="1.43344131298363208770751953125">
        <ele>231.1999969482421875</ele>
        <time>2026-08-05T09:36:48.000Z</time>
        <extensions>
          <ns3:TrackPointExtension>
            <ns3:hr>96</ns3:hr>
            <ns3:cad>0</ns3:cad>
          </ns3:TrackPointExtension>
        </extensions>
      </trkpt>
      <trkpt lat="43.47589264623820781707763671875" lon="1.4334420673549175262451171875">
        <ele>231.1999969482421875</ele>
        <time>2026-08-05T09:36:49.000Z</time>
        <extensions>
          <ns3:TrackPointExtension>
            <ns3:hr>96</ns3:hr>
            <ns3:cad>0</ns3:cad>
          </ns3:TrackPointExtension>
        </extensions>
      </trkpt>
      <trkpt lat="43.4758915565907955169677734375" lon="1.43344349227845668792724609375">
        <ele>231.1999969482421875</ele>
        <time>2026-08-05T09:36:50.000Z</time>
        <extensions>
          <ns3:TrackPointExtension>
            <ns3:hr>96</ns3:hr>
            <ns3:cad>0</ns3:cad>
          </ns3:TrackPointExtension>
        </extensions>
      </trkpt>
      <trkpt lat="43.4758915565907955169677734375" lon="1.43344349227845668792724609375">
        <ele>231.1999969482421875</ele>
        <time>2026-08-05T09:36:51.000Z</time>
        <extensions>
          <ns3:TrackPointExtension>
            <ns3:hr>95</ns3:hr>
            <ns3:cad>0</ns3:cad>
          </ns3:TrackPointExtension>
        </extensions>
      </trkpt>
      <trkpt lat="43.4758915565907955169677734375" lon="1.43344349227845668792724609375">
        <ele>231.1999969482421875</ele>
        <time>2026-08-05T09:36:52.000Z</time>
        <extensions>
          <ns3:TrackPointExtension>
            <ns3:hr>95</ns3:hr>
            <ns3:cad>0</ns3:cad>
          </ns3:TrackPointExtension>
        </extensions>
      </trkpt>
      <trkpt lat="43.4758915565907955169677734375" lon="1.43344349227845668792724609375">
        <ele>231.1999969482421875</ele>
        <time>2026-08-05T09:36:53.000Z</time>
        <extensions>
          <ns3:TrackPointExtension>
            <ns3:hr>95</ns3:hr>
            <ns3:cad>0</ns3:cad>
          </ns3:TrackPointExtension>
        </extensions>
      </trkpt>
      <trkpt lat="43.4758915565907955169677734375" lon="1.43344349227845668792724609375">
        <ele>231.1999969482421875</ele>
        <time>2026-08-05T09:36:54.000Z</time>
        <extensions>
          <ns3:TrackPointExtension>
            <ns3:hr>95</ns3:hr>
            <ns3:cad>0</ns3:cad>
          </ns3:TrackPointExtension>
        </extensions>
      </trkpt>
      <trkpt lat="43.4758915565907955169677734375" lon="1.43344349227845668792724609375">
        <ele>231.1999969482421875</ele>
        <time>2026-08-05T09:36:55.000Z</time>
        <extensions>
          <ns3:TrackPointExtension>
            <ns3:hr>94</ns3:hr>
            <ns3:cad>0</ns3:cad>
          </ns3:TrackPointExtension>
        </extensions>
      </trkpt>
      <trkpt lat="43.4758915565907955169677734375" lon="1.43344349227845668792724609375">
        <ele>231.399993896484375</ele>
        <time>2026-08-05T09:36:56.000Z</time>
        <extensions>
          <ns3:TrackPointExtension>
            <ns3:hr>94</ns3:hr>
            <ns3:cad>0</ns3:cad>
          </ns3:TrackPointExtension>
        </extensions>
      </trkpt>
      <trkpt lat="43.4758915565907955169677734375" lon="1.43344349227845668792724609375">
        <ele>231.399993896484375</ele>
        <time>2026-08-05T09:36:57.000Z</time>
        <extensions>
          <ns3:TrackPointExtension>
            <ns3:hr>94</ns3:hr>
            <ns3:cad>0</ns3:cad>
          </ns3:TrackPointExtension>
        </extensions>
      </trkpt>
      <trkpt lat="43.4758915565907955169677734375" lon="1.43344349227845668792724609375">
        <ele>231.399993896484375</ele>
        <time>2026-08-05T09:36:58.000Z</time>
        <extensions>
          <ns3:TrackPointExtension>
            <ns3:hr>94</ns3:hr>
            <ns3:cad>0</ns3:cad>
          </ns3:TrackPointExtension>
        </extensions>
      </trkpt>
      <trkpt lat="43.4758915565907955169677734375" lon="1.43344349227845668792724609375">
        <ele>231.399993896484375</ele>
        <time>2026-08-05T09:36:59.000Z</time>
        <extensions>
          <ns3:TrackPointExtension>
            <ns3:hr>94</ns3:hr>
            <ns3:cad>0</ns3:cad>
          </ns3:TrackPointExtension>
        </extensions>
      </trkpt>
      <trkpt lat="43.4758915565907955169677734375" lon="1.43344349227845668792724609375">
        <ele>231.399993896484375</ele>
        <time>2026-08-05T09:37:00.000Z</time>
        <extensions>
          <ns3:TrackPointExtension>
            <ns3:hr>94</ns3:hr>
            <ns3:cad>0</ns3:cad>
          </ns3:TrackPointExtension>
        </extensions>
      </trkpt>
      <trkpt lat="43.4758915565907955169677734375" lon="1.43344349227845668792724609375">
        <ele>231.399993896484375</ele>
        <time>2026-08-05T09:37:01.000Z</time>
        <extensions>
          <ns3:TrackPointExtension>
            <ns3:hr>94</ns3:hr>
            <ns3:cad>0</ns3:cad>
          </ns3:TrackPointExtension>
        </extensions>
      </trkpt>
      <trkpt lat="43.4758915565907955169677734375" lon="1.43344349227845668792724609375">
        <ele>231.399993896484375</ele>
        <time>2026-08-05T09:37:02.000Z</time>
        <extensions>
          <ns3:TrackPointExtension>
            <ns3:hr>93</ns3:hr>
            <ns3:cad>0</ns3:cad>
          </ns3:TrackPointExtension>
        </extensions>
      </trkpt>
      <trkpt lat="43.4758915565907955169677734375" lon="1.43344349227845668792724609375">
        <ele>231.1999969482421875</ele>
        <time>2026-08-05T09:37:03.000Z</time>
        <extensions>
          <ns3:TrackPointExtension>
            <ns3:hr>93</ns3:hr>
            <ns3:cad>0</ns3:cad>
          </ns3:TrackPointExtension>
        </extensions>
      </trkpt>
      <trkpt lat="43.4758915565907955169677734375" lon="1.43344349227845668792724609375">
        <ele>231.1999969482421875</ele>
        <time>2026-08-05T09:37:04.000Z</time>
        <extensions>
          <ns3:TrackPointExtension>
            <ns3:hr>93</ns3:hr>
            <ns3:cad>0</ns3:cad>
          </ns3:TrackPointExtension>
        </extensions>
      </trkpt>
      <trkpt lat="43.4758915565907955169677734375" lon="1.43344349227845668792724609375">
        <ele>231.1999969482421875</ele>
        <time>2026-08-05T09:37:05.000Z</time>
        <extensions>
          <ns3:TrackPointExtension>
            <ns3:hr>92</ns3:hr>
            <ns3:cad>0</ns3:cad>
          </ns3:TrackPointExtension>
        </extensions>
      </trkpt>
      <trkpt lat="43.4758915565907955169677734375" lon="1.43344349227845668792724609375">
        <ele>231.1999969482421875</ele>
        <time>2026-08-05T09:37:06.000Z</time>
        <extensions>
          <ns3:TrackPointExtension>
            <ns3:hr>89</ns3:hr>
            <ns3:cad>0</ns3:cad>
          </ns3:TrackPointExtension>
        </extensions>
      </trkpt>
      <trkpt lat="43.4758915565907955169677734375" lon="1.43344349227845668792724609375">
        <ele>231.1999969482421875</ele>
        <time>2026-08-05T09:37:07.000Z</time>
        <extensions>
          <ns3:TrackPointExtension>
            <ns3:hr>86</ns3:hr>
            <ns3:cad>0</ns3:cad>
          </ns3:TrackPointExtension>
        </extensions>
      </trkpt>
      <trkpt lat="43.4758915565907955169677734375" lon="1.43344349227845668792724609375">
        <ele>231.1999969482421875</ele>
        <time>2026-08-05T09:37:08.000Z</time>
        <extensions>
          <ns3:TrackPointExtension>
            <ns3:hr>82</ns3:hr>
            <ns3:cad>0</ns3:cad>
          </ns3:TrackPointExtension>
        </extensions>
      </trkpt>
      <trkpt lat="43.4758915565907955169677734375" lon="1.43344349227845668792724609375">
        <ele>231.1999969482421875</ele>
        <time>2026-08-05T09:37:09.000Z</time>
        <extensions>
          <ns3:TrackPointExtension>
            <ns3:hr>81</ns3:hr>
            <ns3:cad>0</ns3:cad>
          </ns3:TrackPointExtension>
        </extensions>
      </trkpt>
      <trkpt lat="43.4758888743817806243896484375" lon="1.43344231881201267242431640625">
        <ele>231.399993896484375</ele>
        <time>2026-08-05T09:37:10.000Z</time>
        <extensions>
          <ns3:TrackPointExtension>
            <ns3:hr>81</ns3:hr>
            <ns3:cad>0</ns3:cad>
          </ns3:TrackPointExtension>
        </extensions>
      </trkpt>
      <trkpt lat="43.4758870303630828857421875" lon="1.4334504492580890655517578125">
        <ele>231.399993896484375</ele>
        <time>2026-08-05T09:37:11.000Z</time>
        <extensions>
          <ns3:TrackPointExtension>
            <ns3:hr>81</ns3:hr>
            <ns3:cad>0</ns3:cad>
          </ns3:TrackPointExtension>
        </extensions>
      </trkpt>
      <trkpt lat="43.47588325850665569305419921875" lon="1.43345631659030914306640625">
        <ele>231.399993896484375</ele>
        <time>2026-08-05T09:37:12.000Z</time>
        <extensions>
          <ns3:TrackPointExtension>
            <ns3:hr>81</ns3:hr>
            <ns3:cad>0</ns3:cad>
          </ns3:TrackPointExtension>
        </extensions>
      </trkpt>
      <trkpt lat="43.47588007338345050811767578125" lon="1.43346947617828845977783203125">
        <ele>231.600006103515625</ele>
        <time>2026-08-05T09:37:13.000Z</time>
        <extensions>
          <ns3:TrackPointExtension>
            <ns3:hr>82</ns3:hr>
            <ns3:cad>0</ns3:cad>
          </ns3:TrackPointExtension>
        </extensions>
      </trkpt>
      <trkpt lat="43.4758771397173404693603515625" lon="1.4334769360721111297607421875">
        <ele>231.600006103515625</ele>
        <time>2026-08-05T09:37:14.000Z</time>
        <extensions>
          <ns3:TrackPointExtension>
            <ns3:hr>85</ns3:hr>
            <ns3:cad>0</ns3:cad>
          </ns3:TrackPointExtension>
        </extensions>
      </trkpt>
      <trkpt lat="43.47587303258478641510009765625" lon="1.4334880001842975616455078125">
        <ele>231.8000030517578125</ele>
        <time>2026-08-05T09:37:15.000Z</time>
        <extensions>
          <ns3:TrackPointExtension>
            <ns3:hr>86</ns3:hr>
            <ns3:cad>0</ns3:cad>
          </ns3:TrackPointExtension>
        </extensions>
      </trkpt>
      <trkpt lat="43.47586934454739093780517578125" lon="1.43349898047745227813720703125">
        <ele>232</ele>
        <time>2026-08-05T09:37:16.000Z</time>
        <extensions>
          <ns3:TrackPointExtension>
            <ns3:hr>85</ns3:hr>
            <ns3:cad>0</ns3:cad>
          </ns3:TrackPointExtension>
        </extensions>
      </trkpt>
      <trkpt lat="43.4758627228438854217529296875" lon="1.433512307703495025634765625">
        <ele>232</ele>
        <time>2026-08-05T09:37:17.000Z</time>
        <extensions>
          <ns3:TrackPointExtension>
            <ns3:hr>84</ns3:hr>
            <ns3:cad>0</ns3:cad>
          </ns3:TrackPointExtension>
        </extensions>
      </trkpt>
      <trkpt lat="43.47585945390164852142333984375" lon="1.4335195161402225494384765625">
        <ele>232.1999969482421875</ele>
        <time>2026-08-05T09:37:18.000Z</time>
        <extensions>
          <ns3:TrackPointExtension>
            <ns3:hr>83</ns3:hr>
            <ns3:cad>0</ns3:cad>
          </ns3:TrackPointExtension>
        </extensions>
      </trkpt>
      <trkpt lat="43.47585291601717472076416015625" lon="1.43353032879531383514404296875">
        <ele>232.1999969482421875</ele>
        <time>2026-08-05T09:37:19.000Z</time>
        <extensions>
          <ns3:TrackPointExtension>
            <ns3:hr>83</ns3:hr>
            <ns3:cad>0</ns3:cad>
          </ns3:TrackPointExtension>
        </extensions>
      </trkpt>
      <trkpt lat="43.475847803056240081787109375" lon="1.4335409738123416900634765625">
        <ele>232.1999969482421875</ele>
        <time>2026-08-05T09:37:20.000Z</time>
        <extensions>
          <ns3:TrackPointExtension>
            <ns3:hr>83</ns3:hr>
            <ns3:cad>0</ns3:cad>
          </ns3:TrackPointExtension>
        </extensions>
      </trkpt>
      <trkpt lat="43.4758432768285274505615234375" lon="1.433549858629703521728515625">
        <ele>232.399993896484375</ele>
        <time>2026-08-05T09:37:21.000Z</time>
        <extensions>
          <ns3:TrackPointExtension>
            <ns3:hr>82</ns3:hr>
            <ns3:cad>0</ns3:cad>
          </ns3:TrackPointExtension>
        </extensions>
      </trkpt>
      <trkpt lat="43.47583673894405364990234375" lon="1.43355899490416049957275390625">
        <ele>232.399993896484375</ele>
        <time>2026-08-05T09:37:22.000Z</time>
        <extensions>
          <ns3:TrackPointExtension>
            <ns3:hr>82</ns3:hr>
            <ns3:cad>0</ns3:cad>
          </ns3:TrackPointExtension>
        </extensions>
      </trkpt>
      <trkpt lat="43.4758312068879604339599609375" lon="1.43356435932219028472900390625">
        <ele>232.600006103515625</ele>
        <time>2026-08-05T09:37:23.000Z</time>
        <extensions>
          <ns3:TrackPointExtension>
            <ns3:hr>82</ns3:hr>
            <ns3:cad>0</ns3:cad>
          </ns3:TrackPointExtension>
        </extensions>
      </trkpt>
      <trkpt lat="43.475827015936374664306640625" lon="1.4335714839398860931396484375">
        <ele>232.600006103515625</ele>
        <time>2026-08-05T09:37:24.000Z</time>
        <extensions>
          <ns3:TrackPointExtension>
            <ns3:hr>83</ns3:hr>
            <ns3:cad>76</ns3:cad>
          </ns3:TrackPointExtension>
        </extensions>
      </trkpt>
      <trkpt lat="43.47581989131867885589599609375" lon="1.43358045257627964019775390625">
        <ele>232.8000030517578125</ele>
        <time>2026-08-05T09:37:25.000Z</time>
        <extensions>
          <ns3:TrackPointExtension>
            <ns3:hr>83</ns3:hr>
            <ns3:cad>77</ns3:cad>
          </ns3:TrackPointExtension>
        </extensions>
      </trkpt>
      <trkpt lat="43.47581419162452220916748046875" lon="1.43358682282269001007080078125">
        <ele>232.8000030517578125</ele>
        <time>2026-08-05T09:37:26.000Z</time>
        <extensions>
          <ns3:TrackPointExtension>
            <ns3:hr>84</ns3:hr>
            <ns3:cad>77</ns3:cad>
          </ns3:TrackPointExtension>
        </extensions>
      </trkpt>
      <trkpt lat="43.47581150941550731658935546875" lon="1.43358581699430942535400390625">
        <ele>233</ele>
        <time>2026-08-05T09:37:27.000Z</time>
        <extensions>
          <ns3:TrackPointExtension>
            <ns3:hr>84</ns3:hr>
            <ns3:cad>77</ns3:cad>
          </ns3:TrackPointExtension>
        </extensions>
      </trkpt>
      <trkpt lat="43.475802205502986907958984375" lon="1.43359134905040264129638671875">
        <ele>233</ele>
        <time>2026-08-05T09:37:28.000Z</time>
        <extensions>
          <ns3:TrackPointExtension>
            <ns3:hr>84</ns3:hr>
            <ns3:cad>77</ns3:cad>
          </ns3:TrackPointExtension>
        </extensions>
      </trkpt>
      <trkpt lat="43.4757939912378787994384765625" lon="1.4335962943732738494873046875">
        <ele>233.1999969482421875</ele>
        <time>2026-08-05T09:37:29.000Z</time>
        <extensions>
          <ns3:TrackPointExtension>
            <ns3:hr>84</ns3:hr>
            <ns3:cad>77</ns3:cad>
          </ns3:TrackPointExtension>
        </extensions>
      </trkpt>
      <trkpt lat="43.4757889620959758758544921875" lon="1.433596126735210418701171875">
        <ele>233.399993896484375</ele>
        <time>2026-08-05T09:37:30.000Z</time>
        <extensions>
          <ns3:TrackPointExtension>
            <ns3:hr>85</ns3:hr>
            <ns3:cad>41</ns3:cad>
          </ns3:TrackPointExtension>
        </extensions>
      </trkpt>
      <trkpt lat="43.47578175365924835205078125" lon="1.43360023386776447296142578125">
        <ele>233.399993896484375</ele>
        <time>2026-08-05T09:37:31.000Z</time>
        <extensions>
          <ns3:TrackPointExtension>
            <ns3:hr>85</ns3:hr>
            <ns3:cad>0</ns3:cad>
          </ns3:TrackPointExtension>
        </extensions>
      </trkpt>
      <trkpt lat="43.47577597014605998992919921875" lon="1.4336029998958110809326171875">
        <ele>233.600006103515625</ele>
        <time>2026-08-05T09:37:32.000Z</time>
        <extensions>
          <ns3:TrackPointExtension>
            <ns3:hr>86</ns3:hr>
            <ns3:cad>0</ns3:cad>
          </ns3:TrackPointExtension>
        </extensions>
      </trkpt>
      <trkpt lat="43.47576700150966644287109375" lon="1.4336056821048259735107421875">
        <ele>233.600006103515625</ele>
        <time>2026-08-05T09:37:33.000Z</time>
        <extensions>
          <ns3:TrackPointExtension>
            <ns3:hr>86</ns3:hr>
            <ns3:cad>0</ns3:cad>
          </ns3:TrackPointExtension>
        </extensions>
      </trkpt>
      <trkpt lat="43.47575920633971691131591796875" lon="1.43360920250415802001953125">
        <ele>233.8000030517578125</ele>
        <time>2026-08-05T09:37:34.000Z</time>
        <extensions>
          <ns3:TrackPointExtension>
            <ns3:hr>87</ns3:hr>
            <ns3:cad>0</ns3:cad>
          </ns3:TrackPointExtension>
        </extensions>
      </trkpt>
      <trkpt lat="43.47575099207460880279541015625" lon="1.43361247144639492034912109375">
        <ele>233.8000030517578125</ele>
        <time>2026-08-05T09:37:35.000Z</time>
        <extensions>
          <ns3:TrackPointExtension>
            <ns3:hr>88</ns3:hr>
            <ns3:cad>0</ns3:cad>
          </ns3:TrackPointExtension>
        </extensions>
      </trkpt>
      <trkpt lat="43.47574294544756412506103515625" lon="1.4336150698363780975341796875">
        <ele>234</ele>
        <time>2026-08-05T09:37:36.000Z</time>
        <extensions>
          <ns3:TrackPointExtension>
            <ns3:hr>88</ns3:hr>
            <ns3:cad>0</ns3:cad>
          </ns3:TrackPointExtension>
        </extensions>
      </trkpt>
      <trkpt lat="43.47573573701083660125732421875" lon="1.43361649475991725921630859375">
        <ele>234</ele>
        <time>2026-08-05T09:37:37.000Z</time>
        <extensions>
          <ns3:TrackPointExtension>
            <ns3:hr>88</ns3:hr>
            <ns3:cad>0</ns3:cad>
          </ns3:TrackPointExtension>
        </extensions>
      </trkpt>
      <trkpt lat="43.47572769038379192352294921875" lon="1.43361867405474185943603515625">
        <ele>234.1999969482421875</ele>
        <time>2026-08-05T09:37:38.000Z</time>
        <extensions>
          <ns3:TrackPointExtension>
            <ns3:hr>89</ns3:hr>
            <ns3:cad>0</ns3:cad>
          </ns3:TrackPointExtension>
        </extensions>
      </trkpt>
      <trkpt lat="43.47572081722319126129150390625" lon="1.43361951224505901336669921875">
        <ele>234.1999969482421875</ele>
        <time>2026-08-05T09:37:39.000Z</time>
        <extensions>
          <ns3:TrackPointExtension>
            <ns3:hr>88</ns3:hr>
            <ns3:cad>0</ns3:cad>
          </ns3:TrackPointExtension>
        </extensions>
      </trkpt>
      <trkpt lat="43.47571344114840030670166015625" lon="1.43361632712185382843017578125">
        <ele>234.399993896484375</ele>
        <time>2026-08-05T09:37:40.000Z</time>
        <extensions>
          <ns3:TrackPointExtension>
            <ns3:hr>89</ns3:hr>
            <ns3:cad>0</ns3:cad>
          </ns3:TrackPointExtension>
        </extensions>
      </trkpt>
      <trkpt lat="43.47571176476776599884033203125" lon="1.4336167462170124053955078125">
        <ele>234.399993896484375</ele>
        <time>2026-08-05T09:37:41.000Z</time>
        <extensions>
          <ns3:TrackPointExtension>
            <ns3:hr>88</ns3:hr>
            <ns3:cad>0</ns3:cad>
          </ns3:TrackPointExtension>
        </extensions>
      </trkpt>
      <trkpt lat="43.47570438869297504425048828125" lon="1.43361800350248813629150390625">
        <ele>234.600006103515625</ele>
        <time>2026-08-05T09:37:42.000Z</time>
        <extensions>
          <ns3:TrackPointExtension>
            <ns3:hr>88</ns3:hr>
            <ns3:cad>0</ns3:cad>
          </ns3:TrackPointExtension>
        </extensions>
      </trkpt>
      <trkpt lat="43.47569868899881839752197265625" lon="1.4336207695305347442626953125">
        <ele>234.600006103515625</ele>
        <time>2026-08-05T09:37:43.000Z</time>
        <extensions>
          <ns3:TrackPointExtension>
            <ns3:hr>88</ns3:hr>
            <ns3:cad>0</ns3:cad>
          </ns3:TrackPointExtension>
        </extensions>
      </trkpt>
      <trkpt lat="43.4756937436759471893310546875" lon="1.433620937168598175048828125">
        <ele>234.8000030517578125</ele>
        <time>2026-08-05T09:37:44.000Z</time>
        <extensions>
          <ns3:TrackPointExtension>
            <ns3:hr>88</ns3:hr>
            <ns3:cad>0</ns3:cad>
          </ns3:TrackPointExtension>
        </extensions>
      </trkpt>
      <trkpt lat="43.47568519413471221923828125" lon="1.43361984752118587493896484375">
        <ele>234.8000030517578125</ele>
        <time>2026-08-05T09:37:45.000Z</time>
        <extensions>
          <ns3:TrackPointExtension>
            <ns3:hr>87</ns3:hr>
            <ns3:cad>0</ns3:cad>
          </ns3:TrackPointExtension>
        </extensions>
      </trkpt>
      <trkpt lat="43.47567656077444553375244140625" lon="1.43362001515924930572509765625">
        <ele>234.8000030517578125</ele>
        <time>2026-08-05T09:37:46.000Z</time>
        <extensions>
          <ns3:TrackPointExtension>
            <ns3:hr>87</ns3:hr>
            <ns3:cad>0</ns3:cad>
          </ns3:TrackPointExtension>
        </extensions>
      </trkpt>
      <trkpt lat="43.47566700540482997894287109375" lon="1.43362152390182018280029296875">
        <ele>235</ele>
        <time>2026-08-05T09:37:47.000Z</time>
        <extensions>
          <ns3:TrackPointExtension>
            <ns3:hr>87</ns3:hr>
            <ns3:cad>0</ns3:cad>
          </ns3:TrackPointExtension>
        </extensions>
      </trkpt>
      <trkpt lat="43.4756575338542461395263671875" lon="1.43362169153988361358642578125">
        <ele>235.1999969482421875</ele>
        <time>2026-08-05T09:37:48.000Z</time>
        <extensions>
          <ns3:TrackPointExtension>
            <ns3:hr>87</ns3:hr>
            <ns3:cad>0</ns3:cad>
          </ns3:TrackPointExtension>
        </extensions>
      </trkpt>
      <trkpt lat="43.4756521694362163543701171875" lon="1.43361967988312244415283203125">
        <ele>235.1999969482421875</ele>
        <time>2026-08-05T09:37:49.000Z</time>
        <extensions>
          <ns3:TrackPointExtension>
            <ns3:hr>88</ns3:hr>
            <ns3:cad>69</ns3:cad>
          </ns3:TrackPointExtension>
        </extensions>
      </trkpt>
      <trkpt lat="43.47564303316175937652587890625" lon="1.43361817114055156707763671875">
        <ele>235.399993896484375</ele>
        <time>2026-08-05T09:37:50.000Z</time>
        <extensions>
          <ns3:TrackPointExtension>
            <ns3:hr>87</ns3:hr>
            <ns3:cad>69</ns3:cad>
          </ns3:TrackPointExtension>
        </extensions>
      </trkpt>
      <trkpt lat="43.4756370820105075836181640625" lon="1.433616243302822113037109375">
        <ele>235.399993896484375</ele>
        <time>2026-08-05T09:37:51.000Z</time>
        <extensions>
          <ns3:TrackPointExtension>
            <ns3:hr>87</ns3:hr>
            <ns3:cad>69</ns3:cad>
          </ns3:TrackPointExtension>
        </extensions>
      </trkpt>
      <trkpt lat="43.475629203021526336669921875" lon="1.4336197637021541595458984375">
        <ele>235.600006103515625</ele>
        <time>2026-08-05T09:37:52.000Z</time>
        <extensions>
          <ns3:TrackPointExtension>
            <ns3:hr>88</ns3:hr>
            <ns3:cad>69</ns3:cad>
          </ns3:TrackPointExtension>
        </extensions>
      </trkpt>
      <trkpt lat="43.475619815289974212646484375" lon="1.4336217753589153289794921875">
        <ele>235.600006103515625</ele>
        <time>2026-08-05T09:37:53.000Z</time>
        <extensions>
          <ns3:TrackPointExtension>
            <ns3:hr>88</ns3:hr>
            <ns3:cad>69</ns3:cad>
          </ns3:TrackPointExtension>
        </extensions>
      </trkpt>
      <trkpt lat="43.4756132774055004119873046875" lon="1.43362387083470821380615234375">
        <ele>235.600006103515625</ele>
        <time>2026-08-05T09:37:54.000Z</time>
        <extensions>
          <ns3:TrackPointExtension>
            <ns3:hr>88</ns3:hr>
            <ns3:cad>69</ns3:cad>
          </ns3:TrackPointExtension>
        </extensions>
      </trkpt>
      <trkpt lat="43.475602380931377410888671875" lon="1.43362529575824737548828125">
        <ele>235.8000030517578125</ele>
        <time>2026-08-05T09:37:55.000Z</time>
        <extensions>
          <ns3:TrackPointExtension>
            <ns3:hr>89</ns3:hr>
            <ns3:cad>0</ns3:cad>
          </ns3:TrackPointExtension>
        </extensions>
      </trkpt>
      <trkpt lat="43.4755941666662693023681640625" lon="1.433624960482120513916015625">
        <ele>235.8000030517578125</ele>
        <time>2026-08-05T09:37:56.000Z</time>
        <extensions>
          <ns3:TrackPointExtension>
            <ns3:hr>90</ns3:hr>
            <ns3:cad>0</ns3:cad>
          </ns3:TrackPointExtension>
        </extensions>
      </trkpt>
      <trkpt lat="43.4755864553153514862060546875" lon="1.43363024108111858367919921875">
        <ele>236</ele>
        <time>2026-08-05T09:37:57.000Z</time>
        <extensions>
          <ns3:TrackPointExtension>
            <ns3:hr>91</ns3:hr>
            <ns3:cad>0</ns3:cad>
          </ns3:TrackPointExtension>
        </extensions>
      </trkpt>
      <trkpt lat="43.4755774028599262237548828125" lon="1.43363208509981632232666015625">
        <ele>236</ele>
        <time>2026-08-05T09:37:58.000Z</time>
        <extensions>
          <ns3:TrackPointExtension>
            <ns3:hr>92</ns3:hr>
            <ns3:cad>0</ns3:cad>
          </ns3:TrackPointExtension>
        </extensions>
      </trkpt>
      <trkpt lat="43.4755673445761203765869140625" lon="1.43363392911851406097412109375">
        <ele>236.1999969482421875</ele>
        <time>2026-08-05T09:37:59.000Z</time>
        <extensions>
          <ns3:TrackPointExtension>
            <ns3:hr>93</ns3:hr>
            <ns3:cad>0</ns3:cad>
          </ns3:TrackPointExtension>
        </extensions>
      </trkpt>
      <trkpt lat="43.4755592979490756988525390625" lon="1.43363543786108493804931640625">
        <ele>236.1999969482421875</ele>
        <time>2026-08-05T09:38:00.000Z</time>
        <extensions>
          <ns3:TrackPointExtension>
            <ns3:hr>93</ns3:hr>
            <ns3:cad>0</ns3:cad>
          </ns3:TrackPointExtension>
        </extensions>
      </trkpt>
      <trkpt lat="43.47555418498814105987548828125" lon="1.43363510258495807647705078125">
        <ele>236.399993896484375</ele>
        <time>2026-08-05T09:38:01.000Z</time>
        <extensions>
          <ns3:TrackPointExtension>
            <ns3:hr>94</ns3:hr>
            <ns3:cad>0</ns3:cad>
          </ns3:TrackPointExtension>
        </extensions>
      </trkpt>
      <trkpt lat="43.47554731182754039764404296875" lon="1.43363661132752895355224609375">
        <ele>236.399993896484375</ele>
        <time>2026-08-05T09:38:02.000Z</time>
        <extensions>
          <ns3:TrackPointExtension>
            <ns3:hr>95</ns3:hr>
            <ns3:cad>0</ns3:cad>
          </ns3:TrackPointExtension>
        </extensions>
      </trkpt>
      <trkpt lat="43.47554429434239864349365234375" lon="1.43364029936492443084716796875">
        <ele>236.600006103515625</ele>
        <time>2026-08-05T09:38:03.000Z</time>
        <extensions>
          <ns3:TrackPointExtension>
            <ns3:hr>95</ns3:hr>
            <ns3:cad>0</ns3:cad>
          </ns3:TrackPointExtension>
        </extensions>
      </trkpt>
      <trkpt lat="43.47553775645792484283447265625" lon="1.43364264629781246185302734375">
        <ele>236.600006103515625</ele>
        <time>2026-08-05T09:38:04.000Z</time>
        <extensions>
          <ns3:TrackPointExtension>
            <ns3:hr>96</ns3:hr>
            <ns3:cad>0</ns3:cad>
          </ns3:TrackPointExtension>
        </extensions>
      </trkpt>
      <trkpt lat="43.47552887164056301116943359375" lon="1.43364147283136844635009765625">
        <ele>236.600006103515625</ele>
        <time>2026-08-05T09:38:05.000Z</time>
        <extensions>
          <ns3:TrackPointExtension>
            <ns3:hr>96</ns3:hr>
            <ns3:cad>0</ns3:cad>
          </ns3:TrackPointExtension>
        </extensions>
      </trkpt>
      <trkpt lat="43.4755224175751209259033203125" lon="1.4336382038891315460205078125">
        <ele>236.8000030517578125</ele>
        <time>2026-08-05T09:38:06.000Z</time>
        <extensions>
          <ns3:TrackPointExtension>
            <ns3:hr>96</ns3:hr>
            <ns3:cad>0</ns3:cad>
          </ns3:TrackPointExtension>
        </extensions>
      </trkpt>
      <trkpt lat="43.47551596350967884063720703125" lon="1.433637700974941253662109375">
        <ele>236.8000030517578125</ele>
        <time>2026-08-05T09:38:07.000Z</time>
        <extensions>
          <ns3:TrackPointExtension>
            <ns3:hr>96</ns3:hr>
            <ns3:cad>0</ns3:cad>
          </ns3:TrackPointExtension>
        </extensions>
      </trkpt>
      <trkpt lat="43.4755103476345539093017578125" lon="1.433636359870433807373046875">
        <ele>237</ele>
        <time>2026-08-05T09:38:08.000Z</time>
        <extensions>
          <ns3:TrackPointExtension>
            <ns3:hr>96</ns3:hr>
            <ns3:cad>0</ns3:cad>
          </ns3:TrackPointExtension>
        </extensions>
      </trkpt>
      <trkpt lat="43.475504480302333831787109375" lon="1.4336331747472286224365234375">
        <ele>237</ele>
        <time>2026-08-05T09:38:09.000Z</time>
        <extensions>
          <ns3:TrackPointExtension>
            <ns3:hr>95</ns3:hr>
            <ns3:cad>0</ns3:cad>
          </ns3:TrackPointExtension>
        </extensions>
      </trkpt>
      <trkpt lat="43.47549651749432086944580078125" lon="1.4336368627846240997314453125">
        <ele>237</ele>
        <time>2026-08-05T09:38:10.000Z</time>
        <extensions>
          <ns3:TrackPointExtension>
            <ns3:hr>96</ns3:hr>
            <ns3:cad>70</ns3:cad>
          </ns3:TrackPointExtension>
        </extensions>
      </trkpt>
      <trkpt lat="43.47548914141952991485595703125" lon="1.433637030422687530517578125">
        <ele>237.1999969482421875</ele>
        <time>2026-08-05T09:38:11.000Z</time>
        <extensions>
          <ns3:TrackPointExtension>
            <ns3:hr>96</ns3:hr>
            <ns3:cad>70</ns3:cad>
          </ns3:TrackPointExtension>
        </extensions>
      </trkpt>
      <trkpt lat="43.475481010973453521728515625" lon="1.4336371980607509613037109375">
        <ele>237.399993896484375</ele>
        <time>2026-08-05T09:38:12.000Z</time>
        <extensions>
          <ns3:TrackPointExtension>
            <ns3:hr>96</ns3:hr>
            <ns3:cad>74</ns3:cad>
          </ns3:TrackPointExtension>
        </extensions>
      </trkpt>
      <trkpt lat="43.47547522746026515960693359375" lon="1.4336385391652584075927734375">
        <ele>237.399993896484375</ele>
        <time>2026-08-05T09:38:13.000Z</time>
        <extensions>
          <ns3:TrackPointExtension>
            <ns3:hr>96</ns3:hr>
            <ns3:cad>77</ns3:cad>
          </ns3:TrackPointExtension>
        </extensions>
      </trkpt>
      <trkpt lat="43.47547019831836223602294921875" lon="1.4336392097175121307373046875">
        <ele>237.600006103515625</ele>
        <time>2026-08-05T09:38:14.000Z</time>
        <extensions>
          <ns3:TrackPointExtension>
            <ns3:hr>96</ns3:hr>
            <ns3:cad>77</ns3:cad>
          </ns3:TrackPointExtension>
        </extensions>
      </trkpt>
      <trkpt lat="43.475465588271617889404296875" lon="1.433638371527194976806640625">
        <ele>237.600006103515625</ele>
        <time>2026-08-05T09:38:15.000Z</time>
        <extensions>
          <ns3:TrackPointExtension>
            <ns3:hr>97</ns3:hr>
            <ns3:cad>71</ns3:cad>
          </ns3:TrackPointExtension>
        </extensions>
      </trkpt>
      <trkpt lat="43.47545661963522434234619140625" lon="1.43363929353654384613037109375">
        <ele>237.8000030517578125</ele>
        <time>2026-08-05T09:38:16.000Z</time>
        <extensions>
          <ns3:TrackPointExtension>
            <ns3:hr>97</ns3:hr>
            <ns3:cad>69</ns3:cad>
          </ns3:TrackPointExtension>
        </extensions>
      </trkpt>
      <trkpt lat="43.4754471480846405029296875" lon="1.433641053736209869384765625">
        <ele>237.8000030517578125</ele>
        <time>2026-08-05T09:38:17.000Z</time>
        <extensions>
          <ns3:TrackPointExtension>
            <ns3:hr>98</ns3:hr>
            <ns3:cad>69</ns3:cad>
          </ns3:TrackPointExtension>
        </extensions>
      </trkpt>
      <trkpt lat="43.47543784417212009429931640625" lon="1.43363862298429012298583984375">
        <ele>238</ele>
        <time>2026-08-05T09:38:18.000Z</time>
        <extensions>
          <ns3:TrackPointExtension>
            <ns3:hr>98</ns3:hr>
            <ns3:cad>69</ns3:cad>
          </ns3:TrackPointExtension>
        </extensions>
      </trkpt>
      <trkpt lat="43.475426696240901947021484375" lon="1.43363610841333866119384765625">
        <ele>238</ele>
        <time>2026-08-05T09:38:19.000Z</time>
        <extensions>
          <ns3:TrackPointExtension>
            <ns3:hr>98</ns3:hr>
            <ns3:cad>0</ns3:cad>
          </ns3:TrackPointExtension>
        </extensions>
      </trkpt>
      <trkpt lat="43.47542074508965015411376953125" lon="1.4336341805756092071533203125">
        <ele>238.1999969482421875</ele>
        <time>2026-08-05T09:38:20.000Z</time>
        <extensions>
          <ns3:TrackPointExtension>
            <ns3:hr>97</ns3:hr>
            <ns3:cad>0</ns3:cad>
          </ns3:TrackPointExtension>
        </extensions>
      </trkpt>
      <trkpt lat="43.475417308509349822998046875" lon="1.4336314983665943145751953125">
        <ele>238.1999969482421875</ele>
        <time>2026-08-05T09:38:21.000Z</time>
        <extensions>
          <ns3:TrackPointExtension>
            <ns3:hr>98</ns3:hr>
            <ns3:cad>0</ns3:cad>
          </ns3:TrackPointExtension>
        </extensions>
      </trkpt>
      <trkpt lat="43.475412614643573760986328125" lon="1.4336301572620868682861328125">
        <ele>238.399993896484375</ele>
        <time>2026-08-05T09:38:22.000Z</time>
        <extensions>
          <ns3:TrackPointExtension>
            <ns3:hr>98</ns3:hr>
            <ns3:cad>0</ns3:cad>
          </ns3:TrackPointExtension>
        </extensions>
      </trkpt>
      <trkpt lat="43.475409932434558868408203125" lon="1.43362889997661113739013671875">
        <ele>238.399993896484375</ele>
        <time>2026-08-05T09:38:23.000Z</time>
        <extensions>
          <ns3:TrackPointExtension>
            <ns3:hr>98</ns3:hr>
            <ns3:cad>0</ns3:cad>
          </ns3:TrackPointExtension>
        </extensions>
      </trkpt>
      <trkpt lat="43.47540624439716339111328125" lon="1.4336291514337062835693359375">
        <ele>238.600006103515625</ele>
        <time>2026-08-05T09:38:24.000Z</time>
        <extensions>
          <ns3:TrackPointExtension>
            <ns3:hr>97</ns3:hr>
            <ns3:cad>0</ns3:cad>
          </ns3:TrackPointExtension>
        </extensions>
      </trkpt>
      <trkpt lat="43.47539995796978473663330078125" lon="1.4336281456053256988525390625">
        <ele>238.600006103515625</ele>
        <time>2026-08-05T09:38:25.000Z</time>
        <extensions>
          <ns3:TrackPointExtension>
            <ns3:hr>98</ns3:hr>
            <ns3:cad>0</ns3:cad>
          </ns3:TrackPointExtension>
        </extensions>
      </trkpt>
      <trkpt lat="43.47539492882788181304931640625" lon="1.433627642691135406494140625">
        <ele>238.600006103515625</ele>
        <time>2026-08-05T09:38:26.000Z</time>
        <extensions>
          <ns3:TrackPointExtension>
            <ns3:hr>98</ns3:hr>
            <ns3:cad>0</ns3:cad>
          </ns3:TrackPointExtension>
        </extensions>
      </trkpt>
      <trkpt lat="43.475391827523708343505859375" lon="1.43362286500632762908935546875">
        <ele>238.8000030517578125</ele>
        <time>2026-08-05T09:38:27.000Z</time>
        <extensions>
          <ns3:TrackPointExtension>
            <ns3:hr>98</ns3:hr>
            <ns3:cad>0</ns3:cad>
          </ns3:TrackPointExtension>
        </extensions>
      </trkpt>
      <trkpt lat="43.47538319416344165802001953125" lon="1.43362202681601047515869140625">
        <ele>238.8000030517578125</ele>
        <time>2026-08-05T09:38:28.000Z</time>
        <extensions>
          <ns3:TrackPointExtension>
            <ns3:hr>98</ns3:hr>
            <ns3:cad>0</ns3:cad>
          </ns3:TrackPointExtension>
        </extensions>
      </trkpt>
      <trkpt lat="43.47537464462220668792724609375" lon="1.43363091163337230682373046875">
        <ele>238.8000030517578125</ele>
        <time>2026-08-05T09:38:29.000Z</time>
        <extensions>
          <ns3:TrackPointExtension>
            <ns3:hr>97</ns3:hr>
            <ns3:cad>64</ns3:cad>
          </ns3:TrackPointExtension>
        </extensions>
      </trkpt>
      <trkpt lat="43.4753681905567646026611328125" lon="1.43363242037594318389892578125">
        <ele>238.8000030517578125</ele>
        <time>2026-08-05T09:38:30.000Z</time>
        <extensions>
          <ns3:TrackPointExtension>
            <ns3:hr>96</ns3:hr>
            <ns3:cad>67</ns3:cad>
          </ns3:TrackPointExtension>
        </extensions>
      </trkpt>
      <trkpt lat="43.475359976291656494140625" lon="1.4336328394711017608642578125">
        <ele>239</ele>
        <time>2026-08-05T09:38:31.000Z</time>
        <extensions>
          <ns3:TrackPointExtension>
            <ns3:hr>96</ns3:hr>
            <ns3:cad>67</ns3:cad>
          </ns3:TrackPointExtension>
        </extensions>
      </trkpt>
      <trkpt lat="43.47535167820751667022705078125" lon="1.4336321689188480377197265625">
        <ele>239</ele>
        <time>2026-08-05T09:38:32.000Z</time>
        <extensions>
          <ns3:TrackPointExtension>
            <ns3:hr>96</ns3:hr>
            <ns3:cad>67</ns3:cad>
          </ns3:TrackPointExtension>
        </extensions>
      </trkpt>
      <trkpt lat="43.4753450565040111541748046875" lon="1.43363191746175289154052734375">
        <ele>239.1999969482421875</ele>
        <time>2026-08-05T09:38:33.000Z</time>
        <extensions>
          <ns3:TrackPointExtension>
            <ns3:hr>95</ns3:hr>
            <ns3:cad>67</ns3:cad>
          </ns3:TrackPointExtension>
        </extensions>
      </trkpt>
      <trkpt lat="43.4753403626382350921630859375" lon="1.43362806178629398345947265625">
        <ele>239.399993896484375</ele>
        <time>2026-08-05T09:38:34.000Z</time>
        <extensions>
          <ns3:TrackPointExtension>
            <ns3:hr>95</ns3:hr>
            <ns3:cad>67</ns3:cad>
          </ns3:TrackPointExtension>
        </extensions>
      </trkpt>
      <trkpt lat="43.47533256746828556060791015625" lon="1.43362529575824737548828125">
        <ele>239.399993896484375</ele>
        <time>2026-08-05T09:38:35.000Z</time>
        <extensions>
          <ns3:TrackPointExtension>
            <ns3:hr>95</ns3:hr>
            <ns3:cad>67</ns3:cad>
          </ns3:TrackPointExtension>
        </extensions>
      </trkpt>
      <trkpt lat="43.4753256104886531829833984375" lon="1.4336254633963108062744140625">
        <ele>239.600006103515625</ele>
        <time>2026-08-05T09:38:36.000Z</time>
        <extensions>
          <ns3:TrackPointExtension>
            <ns3:hr>94</ns3:hr>
            <ns3:cad>17</ns3:cad>
          </ns3:TrackPointExtension>
        </extensions>
      </trkpt>
      <trkpt lat="43.475316055119037628173828125" lon="1.43362789414823055267333984375">
        <ele>239.600006103515625</ele>
        <time>2026-08-05T09:38:37.000Z</time>
        <extensions>
          <ns3:TrackPointExtension>
            <ns3:hr>94</ns3:hr>
            <ns3:cad>0</ns3:cad>
          </ns3:TrackPointExtension>
        </extensions>
      </trkpt>
      <trkpt lat="43.47530926577746868133544921875" lon="1.4336284808814525604248046875">
        <ele>239.8000030517578125</ele>
        <time>2026-08-05T09:38:38.000Z</time>
        <extensions>
          <ns3:TrackPointExtension>
            <ns3:hr>93</ns3:hr>
            <ns3:cad>0</ns3:cad>
          </ns3:TrackPointExtension>
        </extensions>
      </trkpt>
      <trkpt lat="43.4753008000552654266357421875" lon="1.4336274750530719757080078125">
        <ele>240</ele>
        <time>2026-08-05T09:38:39.000Z</time>
        <extensions>
          <ns3:TrackPointExtension>
            <ns3:hr>93</ns3:hr>
            <ns3:cad>0</ns3:cad>
          </ns3:TrackPointExtension>
        </extensions>
      </trkpt>
      <trkpt lat="43.47529451362788677215576171875" lon="1.4336281456053256988525390625">
        <ele>240</ele>
        <time>2026-08-05T09:38:40.000Z</time>
        <extensions>
          <ns3:TrackPointExtension>
            <ns3:hr>93</ns3:hr>
            <ns3:cad>0</ns3:cad>
          </ns3:TrackPointExtension>
        </extensions>
      </trkpt>
      <trkpt lat="43.47528998740017414093017578125" lon="1.4336257986724376678466796875">
        <ele>240.1999969482421875</ele>
        <time>2026-08-05T09:38:41.000Z</time>
        <extensions>
          <ns3:TrackPointExtension>
            <ns3:hr>93</ns3:hr>
            <ns3:cad>0</ns3:cad>
          </ns3:TrackPointExtension>
        </extensions>
      </trkpt>
      <trkpt lat="43.47528495825827121734619140625" lon="1.43362462520599365234375">
        <ele>240.399993896484375</ele>
        <time>2026-08-05T09:38:42.000Z</time>
        <extensions>
          <ns3:TrackPointExtension>
            <ns3:hr>93</ns3:hr>
            <ns3:cad>0</ns3:cad>
          </ns3:TrackPointExtension>
        </extensions>
      </trkpt>
      <trkpt lat="43.4752806834876537322998046875" lon="1.43362269736826419830322265625">
        <ele>240.399993896484375</ele>
        <time>2026-08-05T09:38:43.000Z</time>
        <extensions>
          <ns3:TrackPointExtension>
            <ns3:hr>93</ns3:hr>
            <ns3:cad>0</ns3:cad>
          </ns3:TrackPointExtension>
        </extensions>
      </trkpt>
      <trkpt lat="43.4752729721367359161376953125" lon="1.433621942996978759765625">
        <ele>240.600006103515625</ele>
        <time>2026-08-05T09:38:44.000Z</time>
        <extensions>
          <ns3:TrackPointExtension>
            <ns3:hr>94</ns3:hr>
            <ns3:cad>74</ns3:cad>
          </ns3:TrackPointExtension>
        </extensions>
      </trkpt>
      <trkpt lat="43.4752655960619449615478515625" lon="1.43362118862569332122802734375">
        <ele>240.8000030517578125</ele>
        <time>2026-08-05T09:38:45.000Z</time>
        <extensions>
          <ns3:TrackPointExtension>
            <ns3:hr>94</ns3:hr>
            <ns3:cad>74</ns3:cad>
          </ns3:TrackPointExtension>
        </extensions>
      </trkpt>
      <trkpt lat="43.4752585552632808685302734375" lon="1.43361967988312244415283203125">
        <ele>241</ele>
        <time>2026-08-05T09:38:46.000Z</time>
        <extensions>
          <ns3:TrackPointExtension>
            <ns3:hr>94</ns3:hr>
            <ns3:cad>74</ns3:cad>
          </ns3:TrackPointExtension>
        </extensions>
      </trkpt>
      <trkpt lat="43.4752525202929973602294921875" lon="1.43361884169280529022216796875">
        <ele>241</ele>
        <time>2026-08-05T09:38:47.000Z</time>
        <extensions>
          <ns3:TrackPointExtension>
            <ns3:hr>94</ns3:hr>
            <ns3:cad>74</ns3:cad>
          </ns3:TrackPointExtension>
        </extensions>
      </trkpt>
      <trkpt lat="43.47524539567530155181884765625" lon="1.43361850641667842864990234375">
        <ele>241.1999969482421875</ele>
        <time>2026-08-05T09:38:48.000Z</time>
        <extensions>
          <ns3:TrackPointExtension>
            <ns3:hr>94</ns3:hr>
            <ns3:cad>74</ns3:cad>
          </ns3:TrackPointExtension>
        </extensions>
      </trkpt>
      <trkpt lat="43.475236929953098297119140625" lon="1.433616578578948974609375">
        <ele>241.399993896484375</ele>
        <time>2026-08-05T09:38:49.000Z</time>
        <extensions>
          <ns3:TrackPointExtension>
            <ns3:hr>95</ns3:hr>
            <ns3:cad>64</ns3:cad>
          </ns3:TrackPointExtension>
        </extensions>
      </trkpt>
      <trkpt lat="43.47522762604057788848876953125" lon="1.433615572750568389892578125">
        <ele>241.399993896484375</ele>
        <time>2026-08-05T09:38:50.000Z</time>
        <extensions>
          <ns3:TrackPointExtension>
            <ns3:hr>95</ns3:hr>
            <ns3:cad>64</ns3:cad>
          </ns3:TrackPointExtension>
        </extensions>
      </trkpt>
      <trkpt lat="43.47522008232772350311279296875" lon="1.4336140640079975128173828125">
        <ele>241.600006103515625</ele>
        <time>2026-08-05T09:38:51.000Z</time>
        <extensions>
          <ns3:TrackPointExtension>
            <ns3:hr>96</ns3:hr>
            <ns3:cad>64</ns3:cad>
          </ns3:TrackPointExtension>
        </extensions>
      </trkpt>
      <trkpt lat="43.47521086223423480987548828125" lon="1.433620937168598175048828125">
        <ele>241.8000030517578125</ele>
        <time>2026-08-05T09:38:52.000Z</time>
        <extensions>
          <ns3:TrackPointExtension>
            <ns3:hr>97</ns3:hr>
            <ns3:cad>0</ns3:cad>
          </ns3:TrackPointExtension>
        </extensions>
      </trkpt>
      <trkpt lat="43.47520533017814159393310546875" lon="1.43362336792051792144775390625">
        <ele>241.8000030517578125</ele>
        <time>2026-08-05T09:38:53.000Z</time>
        <extensions>
          <ns3:TrackPointExtension>
            <ns3:hr>99</ns3:hr>
            <ns3:cad>0</ns3:cad>
          </ns3:TrackPointExtension>
        </extensions>
      </trkpt>
      <trkpt lat="43.47519828937947750091552734375" lon="1.4336232841014862060546875">
        <ele>242</ele>
        <time>2026-08-05T09:38:54.000Z</time>
        <extensions>
          <ns3:TrackPointExtension>
            <ns3:hr>100</ns3:hr>
            <ns3:cad>0</ns3:cad>
          </ns3:TrackPointExtension>
        </extensions>
      </trkpt>
      <trkpt lat="43.475189991295337677001953125" lon="1.4336247928440570831298828125">
        <ele>242.1999969482421875</ele>
        <time>2026-08-05T09:38:55.000Z</time>
        <extensions>
          <ns3:TrackPointExtension>
            <ns3:hr>101</ns3:hr>
            <ns3:cad>0</ns3:cad>
          </ns3:TrackPointExtension>
        </extensions>
      </trkpt>
      <trkpt lat="43.47518186084926128387451171875" lon="1.4336257986724376678466796875">
        <ele>242.399993896484375</ele>
        <time>2026-08-05T09:38:56.000Z</time>
        <extensions>
          <ns3:TrackPointExtension>
            <ns3:hr>102</ns3:hr>
            <ns3:cad>0</ns3:cad>
          </ns3:TrackPointExtension>
        </extensions>
      </trkpt>
      <trkpt lat="43.4751730598509311676025390625" lon="1.43362605012953281402587890625">
        <ele>242.399993896484375</ele>
        <time>2026-08-05T09:38:57.000Z</time>
        <extensions>
          <ns3:TrackPointExtension>
            <ns3:hr>102</ns3:hr>
            <ns3:cad>0</ns3:cad>
          </ns3:TrackPointExtension>
        </extensions>
      </trkpt>
      <trkpt lat="43.475166521966457366943359375" lon="1.43362688831984996795654296875">
        <ele>242.600006103515625</ele>
        <time>2026-08-05T09:38:58.000Z</time>
        <extensions>
          <ns3:TrackPointExtension>
            <ns3:hr>102</ns3:hr>
            <ns3:cad>0</ns3:cad>
          </ns3:TrackPointExtension>
        </extensions>
      </trkpt>
      <trkpt lat="43.475157804787158966064453125" lon="1.43362889997661113739013671875">
        <ele>242.8000030517578125</ele>
        <time>2026-08-05T09:38:59.000Z</time>
        <extensions>
          <ns3:TrackPointExtension>
            <ns3:hr>102</ns3:hr>
            <ns3:cad>0</ns3:cad>
          </ns3:TrackPointExtension>
        </extensions>
      </trkpt>
      <trkpt lat="43.47514900378882884979248046875" lon="1.43362940289080142974853515625">
        <ele>242.8000030517578125</ele>
        <time>2026-08-05T09:39:00.000Z</time>
        <extensions>
          <ns3:TrackPointExtension>
            <ns3:hr>102</ns3:hr>
            <ns3:cad>0</ns3:cad>
          </ns3:TrackPointExtension>
        </extensions>
      </trkpt>
      <trkpt lat="43.4751440584659576416015625" lon="1.4336259663105010986328125">
        <ele>243</ele>
        <time>2026-08-05T09:39:01.000Z</time>
        <extensions>
          <ns3:TrackPointExtension>
            <ns3:hr>103</ns3:hr>
            <ns3:cad>0</ns3:cad>
          </ns3:TrackPointExtension>
        </extensions>
      </trkpt>
      <trkpt lat="43.4751378558576107025146484375" lon="1.433627307415008544921875">
        <ele>243.1999969482421875</ele>
        <time>2026-08-05T09:39:02.000Z</time>
        <extensions>
          <ns3:TrackPointExtension>
            <ns3:hr>103</ns3:hr>
            <ns3:cad>0</ns3:cad>
          </ns3:TrackPointExtension>
        </extensions>
      </trkpt>
      <trkpt lat="43.4751288034021854400634765625" lon="1.43362973816692829132080078125">
        <ele>243.1999969482421875</ele>
        <time>2026-08-05T09:39:03.000Z</time>
        <extensions>
          <ns3:TrackPointExtension>
            <ns3:hr>104</ns3:hr>
            <ns3:cad>0</ns3:cad>
          </ns3:TrackPointExtension>
        </extensions>
      </trkpt>
      <trkpt lat="43.47512301988899707794189453125" lon="1.43363795243203639984130859375">
        <ele>243.399993896484375</ele>
        <time>2026-08-05T09:39:04.000Z</time>
        <extensions>
          <ns3:TrackPointExtension>
            <ns3:hr>104</ns3:hr>
            <ns3:cad>0</ns3:cad>
          </ns3:TrackPointExtension>
        </extensions>
      </trkpt>
      <trkpt lat="43.47511514090001583099365234375" lon="1.433637700974941253662109375">
        <ele>243.399993896484375</ele>
        <time>2026-08-05T09:39:05.000Z</time>
        <extensions>
          <ns3:TrackPointExtension>
            <ns3:hr>104</ns3:hr>
            <ns3:cad>0</ns3:cad>
          </ns3:TrackPointExtension>
        </extensions>
      </trkpt>
      <trkpt lat="43.47511011175811290740966796875" lon="1.43363845534622669219970703125">
        <ele>243.399993896484375</ele>
        <time>2026-08-05T09:39:06.000Z</time>
        <extensions>
          <ns3:TrackPointExtension>
            <ns3:hr>103</ns3:hr>
            <ns3:cad>0</ns3:cad>
          </ns3:TrackPointExtension>
        </extensions>
      </trkpt>
      <trkpt lat="43.4751056693494319915771484375" lon="1.43363728187978267669677734375">
        <ele>243.600006103515625</ele>
        <time>2026-08-05T09:39:07.000Z</time>
        <extensions>
          <ns3:TrackPointExtension>
            <ns3:hr>103</ns3:hr>
            <ns3:cad>0</ns3:cad>
          </ns3:TrackPointExtension>
        </extensions>
      </trkpt>
      <trkpt lat="43.4751026518642902374267578125" lon="1.4336395449936389923095703125">
        <ele>243.8000030517578125</ele>
        <time>2026-08-05T09:39:08.000Z</time>
        <extensions>
          <ns3:TrackPointExtension>
            <ns3:hr>103</ns3:hr>
            <ns3:cad>0</ns3:cad>
          </ns3:TrackPointExtension>
        </extensions>
      </trkpt>
      <trkpt lat="43.47509888000786304473876953125" lon="1.433638036251068115234375">
        <ele>243.8000030517578125</ele>
        <time>2026-08-05T09:39:09.000Z</time>
        <extensions>
          <ns3:TrackPointExtension>
            <ns3:hr>103</ns3:hr>
            <ns3:cad>0</ns3:cad>
          </ns3:TrackPointExtension>
        </extensions>
      </trkpt>
      <trkpt lat="43.47509535960853099822998046875" lon="1.43363543786108493804931640625">
        <ele>244</ele>
        <time>2026-08-05T09:39:10.000Z</time>
        <extensions>
          <ns3:TrackPointExtension>
            <ns3:hr>103</ns3:hr>
            <ns3:cad>0</ns3:cad>
          </ns3:TrackPointExtension>
        </extensions>
      </trkpt>
      <trkpt lat="43.4750912524759769439697265625" lon="1.4336366951465606689453125">
        <ele>244.1999969482421875</ele>
        <time>2026-08-05T09:39:11.000Z</time>
        <extensions>
          <ns3:TrackPointExtension>
            <ns3:hr>103</ns3:hr>
            <ns3:cad>0</ns3:cad>
          </ns3:TrackPointExtension>
        </extensions>
      </trkpt>
      <trkpt lat="43.47508396022021770477294921875" lon="1.4336348511278629302978515625">
        <ele>244.1999969482421875</ele>
        <time>2026-08-05T09:39:12.000Z</time>
        <extensions>
          <ns3:TrackPointExtension>
            <ns3:hr>103</ns3:hr>
            <ns3:cad>0</ns3:cad>
          </ns3:TrackPointExtension>
        </extensions>
      </trkpt>
      <trkpt lat="43.47507993690669536590576171875" lon="1.4336318336427211761474609375">
        <ele>244.399993896484375</ele>
        <time>2026-08-05T09:39:13.000Z</time>
        <extensions>
          <ns3:TrackPointExtension>
            <ns3:hr>102</ns3:hr>
            <ns3:cad>0</ns3:cad>
          </ns3:TrackPointExtension>
        </extensions>
      </trkpt>
      <trkpt lat="43.47507675178349018096923828125" lon="1.43362940289080142974853515625">
        <ele>244.600006103515625</ele>
        <time>2026-08-05T09:39:14.000Z</time>
        <extensions>
          <ns3:TrackPointExtension>
            <ns3:hr>102</ns3:hr>
            <ns3:cad>0</ns3:cad>
          </ns3:TrackPointExtension>
        </extensions>
      </trkpt>
      <trkpt lat="43.47507457248866558074951171875" lon="1.43362923525273799896240234375">
        <ele>244.8000030517578125</ele>
        <time>2026-08-05T09:39:15.000Z</time>
        <extensions>
          <ns3:TrackPointExtension>
            <ns3:hr>102</ns3:hr>
            <ns3:cad>0</ns3:cad>
          </ns3:TrackPointExtension>
        </extensions>
      </trkpt>
      <trkpt lat="43.47506836988031864166259765625" lon="1.43363392911851406097412109375">
        <ele>244.8000030517578125</ele>
        <time>2026-08-05T09:39:16.000Z</time>
        <extensions>
          <ns3:TrackPointExtension>
            <ns3:hr>102</ns3:hr>
            <ns3:cad>0</ns3:cad>
          </ns3:TrackPointExtension>
        </extensions>
      </trkpt>
      <trkpt lat="43.4750627540051937103271484375" lon="1.4336368627846240997314453125">
        <ele>245</ele>
        <time>2026-08-05T09:39:17.000Z</time>
        <extensions>
          <ns3:TrackPointExtension>
            <ns3:hr>102</ns3:hr>
            <ns3:cad>0</ns3:cad>
          </ns3:TrackPointExtension>
        </extensions>
      </trkpt>
      <trkpt lat="43.475058563053607940673828125" lon="1.43363677896559238433837890625">
        <ele>245</ele>
        <time>2026-08-05T09:39:18.000Z</time>
        <extensions>
          <ns3:TrackPointExtension>
            <ns3:hr>102</ns3:hr>
            <ns3:cad>0</ns3:cad>
          </ns3:TrackPointExtension>
        </extensions>
      </trkpt>
      <trkpt lat="43.47504959441721439361572265625" lon="1.4336415566504001617431640625">
        <ele>245.1999969482421875</ele>
        <time>2026-08-05T09:39:19.000Z</time>
        <extensions>
          <ns3:TrackPointExtension>
            <ns3:hr>104</ns3:hr>
            <ns3:cad>0</ns3:cad>
          </ns3:TrackPointExtension>
        </extensions>
      </trkpt>
      <trkpt lat="43.47504657693207263946533203125" lon="1.4336408860981464385986328125">
        <ele>245.1999969482421875</ele>
        <time>2026-08-05T09:39:20.000Z</time>
        <extensions>
          <ns3:TrackPointExtension>
            <ns3:hr>104</ns3:hr>
            <ns3:cad>0</ns3:cad>
          </ns3:TrackPointExtension>
        </extensions>
      </trkpt>
      <trkpt lat="43.47504037432372570037841796875" lon="1.43364214338362216949462890625">
        <ele>245.399993896484375</ele>
        <time>2026-08-05T09:39:21.000Z</time>
        <extensions>
          <ns3:TrackPointExtension>
            <ns3:hr>104</ns3:hr>
            <ns3:cad>0</ns3:cad>
          </ns3:TrackPointExtension>
        </extensions>
      </trkpt>
      <trkpt lat="43.4750332497060298919677734375" lon="1.43364499323070049285888671875">
        <ele>245.600006103515625</ele>
        <time>2026-08-05T09:39:22.000Z</time>
        <extensions>
          <ns3:TrackPointExtension>
            <ns3:hr>103</ns3:hr>
            <ns3:cad>0</ns3:cad>
          </ns3:TrackPointExtension>
        </extensions>
      </trkpt>
      <trkpt lat="43.4750238619744777679443359375" lon="1.43364851363003253936767578125">
        <ele>245.600006103515625</ele>
        <time>2026-08-05T09:39:23.000Z</time>
        <extensions>
          <ns3:TrackPointExtension>
            <ns3:hr>102</ns3:hr>
            <ns3:cad>0</ns3:cad>
          </ns3:TrackPointExtension>
        </extensions>
      </trkpt>
      <trkpt lat="43.4750178270041942596435546875" lon="1.4336462505161762237548828125">
        <ele>245.8000030517578125</ele>
        <time>2026-08-05T09:39:24.000Z</time>
        <extensions>
          <ns3:TrackPointExtension>
            <ns3:hr>103</ns3:hr>
            <ns3:cad>0</ns3:cad>
          </ns3:TrackPointExtension>
        </extensions>
      </trkpt>
      <trkpt lat="43.47501019947230815887451171875" lon="1.43364683724939823150634765625">
        <ele>246</ele>
        <time>2026-08-05T09:39:25.000Z</time>
        <extensions>
          <ns3:TrackPointExtension>
            <ns3:hr>103</ns3:hr>
            <ns3:cad>0</ns3:cad>
          </ns3:TrackPointExtension>
        </extensions>
      </trkpt>
      <trkpt lat="43.47500617615878582000732421875" lon="1.43364331685006618499755859375">
        <ele>246</ele>
        <time>2026-08-05T09:39:26.000Z</time>
        <extensions>
          <ns3:TrackPointExtension>
            <ns3:hr>104</ns3:hr>
            <ns3:cad>0</ns3:cad>
          </ns3:TrackPointExtension>
        </extensions>
      </trkpt>
      <trkpt lat="43.47500047646462917327880859375" lon="1.4336439035832881927490234375">
        <ele>246.1999969482421875</ele>
        <time>2026-08-05T09:39:27.000Z</time>
        <extensions>
          <ns3:TrackPointExtension>
            <ns3:hr>103</ns3:hr>
            <ns3:cad>0</ns3:cad>
          </ns3:TrackPointExtension>
        </extensions>
      </trkpt>
      <trkpt lat="43.4749956987798213958740234375" lon="1.4336422272026538848876953125">
        <ele>246.1999969482421875</ele>
        <time>2026-08-05T09:39:28.000Z</time>
        <extensions>
          <ns3:TrackPointExtension>
            <ns3:hr>103</ns3:hr>
            <ns3:cad>0</ns3:cad>
          </ns3:TrackPointExtension>
        </extensions>
      </trkpt>
      <trkpt lat="43.474987484514713287353515625" lon="1.433641053736209869384765625">
        <ele>246.399993896484375</ele>
        <time>2026-08-05T09:39:29.000Z</time>
        <extensions>
          <ns3:TrackPointExtension>
            <ns3:hr>103</ns3:hr>
            <ns3:cad>0</ns3:cad>
          </ns3:TrackPointExtension>
        </extensions>
      </trkpt>
      <trkpt lat="43.474980108439922332763671875" lon="1.43364197574555873870849609375">
        <ele>246.399993896484375</ele>
        <time>2026-08-05T09:39:30.000Z</time>
        <extensions>
          <ns3:TrackPointExtension>
            <ns3:hr>103</ns3:hr>
            <ns3:cad>0</ns3:cad>
          </ns3:TrackPointExtension>
        </extensions>
      </trkpt>
      <trkpt lat="43.474970720708370208740234375" lon="1.433641724288463592529296875">
        <ele>246.600006103515625</ele>
        <time>2026-08-05T09:39:31.000Z</time>
        <extensions>
          <ns3:TrackPointExtension>
            <ns3:hr>103</ns3:hr>
            <ns3:cad>0</ns3:cad>
          </ns3:TrackPointExtension>
        </extensions>
      </trkpt>
      <trkpt lat="43.474960662424564361572265625" lon="1.4336375333368778228759765625">
        <ele>246.600006103515625</ele>
        <time>2026-08-05T09:39:32.000Z</time>
        <extensions>
          <ns3:TrackPointExtension>
            <ns3:hr>104</ns3:hr>
            <ns3:cad>0</ns3:cad>
          </ns3:TrackPointExtension>
        </extensions>
      </trkpt>
      <trkpt lat="43.474957309663295745849609375" lon="1.43364281393587589263916015625">
        <ele>246.8000030517578125</ele>
        <time>2026-08-05T09:39:33.000Z</time>
        <extensions>
          <ns3:TrackPointExtension>
            <ns3:hr>103</ns3:hr>
            <ns3:cad>0</ns3:cad>
          </ns3:TrackPointExtension>
        </extensions>
      </trkpt>
      <trkpt lat="43.4749564714729785919189453125" lon="1.43364046700298786163330078125">
        <ele>246.8000030517578125</ele>
        <time>2026-08-05T09:39:34.000Z</time>
        <extensions>
          <ns3:TrackPointExtension>
            <ns3:hr>103</ns3:hr>
            <ns3:cad>0</ns3:cad>
          </ns3:TrackPointExtension>
        </extensions>
      </trkpt>
      <trkpt lat="43.47495622001588344573974609375" lon="1.43364138901233673095703125">
        <ele>246.8000030517578125</ele>
        <time>2026-08-05T09:39:35.000Z</time>
        <extensions>
          <ns3:TrackPointExtension>
            <ns3:hr>103</ns3:hr>
            <ns3:cad>0</ns3:cad>
          </ns3:TrackPointExtension>
        </extensions>
      </trkpt>
      <trkpt lat="43.47495622001588344573974609375" lon="1.43364138901233673095703125">
        <ele>246.8000030517578125</ele>
        <time>2026-08-05T09:39:36.000Z</time>
        <extensions>
          <ns3:TrackPointExtension>
            <ns3:hr>104</ns3:hr>
            <ns3:cad>0</ns3:cad>
          </ns3:TrackPointExtension>
        </extensions>
      </trkpt>
      <trkpt lat="43.4749563038349151611328125" lon="1.43364138901233673095703125">
        <ele>246.8000030517578125</ele>
        <time>2026-08-05T09:39:37.000Z</time>
        <extensions>
          <ns3:TrackPointExtension>
            <ns3:hr>104</ns3:hr>
            <ns3:cad>0</ns3:cad>
          </ns3:TrackPointExtension>
        </extensions>
      </trkpt>
      <trkpt lat="43.47495554946362972259521484375" lon="1.433638036251068115234375">
        <ele>247</ele>
        <time>2026-08-05T09:39:38.000Z</time>
        <extensions>
          <ns3:TrackPointExtension>
            <ns3:hr>103</ns3:hr>
            <ns3:cad>0</ns3:cad>
          </ns3:TrackPointExtension>
        </extensions>
      </trkpt>
      <trkpt lat="43.4749464131891727447509765625" lon="1.4336398802697658538818359375">
        <ele>247</ele>
        <time>2026-08-05T09:39:39.000Z</time>
        <extensions>
          <ns3:TrackPointExtension>
            <ns3:hr>103</ns3:hr>
            <ns3:cad>0</ns3:cad>
          </ns3:TrackPointExtension>
        </extensions>
      </trkpt>
      <trkpt lat="43.47494130022823810577392578125" lon="1.4336366951465606689453125">
        <ele>247</ele>
        <time>2026-08-05T09:39:40.000Z</time>
        <extensions>
          <ns3:TrackPointExtension>
            <ns3:hr>103</ns3:hr>
            <ns3:cad>0</ns3:cad>
          </ns3:TrackPointExtension>
        </extensions>
      </trkpt>
      <trkpt lat="43.47493593581020832061767578125" lon="1.433636359870433807373046875">
        <ele>247</ele>
        <time>2026-08-05T09:39:41.000Z</time>
        <extensions>
          <ns3:TrackPointExtension>
            <ns3:hr>103</ns3:hr>
            <ns3:cad>0</ns3:cad>
          </ns3:TrackPointExtension>
        </extensions>
      </trkpt>
      <trkpt lat="43.47493073903024196624755859375" lon="1.43363711424171924591064453125">
        <ele>247.1999969482421875</ele>
        <time>2026-08-05T09:39:42.000Z</time>
        <extensions>
          <ns3:TrackPointExtension>
            <ns3:hr>102</ns3:hr>
            <ns3:cad>0</ns3:cad>
          </ns3:TrackPointExtension>
        </extensions>
      </trkpt>
      <trkpt lat="43.47492453642189502716064453125" lon="1.43363694660365581512451171875">
        <ele>247.1999969482421875</ele>
        <time>2026-08-05T09:39:43.000Z</time>
        <extensions>
          <ns3:TrackPointExtension>
            <ns3:hr>102</ns3:hr>
            <ns3:cad>0</ns3:cad>
          </ns3:TrackPointExtension>
        </extensions>
      </trkpt>
      <trkpt lat="43.47491447813808917999267578125" lon="1.43363694660365581512451171875">
        <ele>247.399993896484375</ele>
        <time>2026-08-05T09:39:44.000Z</time>
        <extensions>
          <ns3:TrackPointExtension>
            <ns3:hr>102</ns3:hr>
            <ns3:cad>0</ns3:cad>
          </ns3:TrackPointExtension>
        </extensions>
      </trkpt>
      <trkpt lat="43.47490760497748851776123046875" lon="1.43363761715590953826904296875">
        <ele>247.399993896484375</ele>
        <time>2026-08-05T09:39:45.000Z</time>
        <extensions>
          <ns3:TrackPointExtension>
            <ns3:hr>102</ns3:hr>
            <ns3:cad>0</ns3:cad>
          </ns3:TrackPointExtension>
        </extensions>
      </trkpt>
      <trkpt lat="43.47489972598850727081298828125" lon="1.43363744951784610748291015625">
        <ele>247.399993896484375</ele>
        <time>2026-08-05T09:39:46.000Z</time>
        <extensions>
          <ns3:TrackPointExtension>
            <ns3:hr>102</ns3:hr>
            <ns3:cad>0</ns3:cad>
          </ns3:TrackPointExtension>
        </extensions>
      </trkpt>
      <trkpt lat="43.4748907573521137237548828125" lon="1.433636359870433807373046875">
        <ele>247.399993896484375</ele>
        <time>2026-08-05T09:39:47.000Z</time>
        <extensions>
          <ns3:TrackPointExtension>
            <ns3:hr>102</ns3:hr>
            <ns3:cad>0</ns3:cad>
          </ns3:TrackPointExtension>
        </extensions>
      </trkpt>
      <trkpt lat="43.47488145343959331512451171875" lon="1.4336382038891315460205078125">
        <ele>247.600006103515625</ele>
        <time>2026-08-05T09:39:48.000Z</time>
        <extensions>
          <ns3:TrackPointExtension>
            <ns3:hr>102</ns3:hr>
            <ns3:cad>0</ns3:cad>
          </ns3:TrackPointExtension>
        </extensions>
      </trkpt>
      <trkpt lat="43.474866785109043121337890625" lon="1.4336378686130046844482421875">
        <ele>247.600006103515625</ele>
        <time>2026-08-05T09:39:49.000Z</time>
        <extensions>
          <ns3:TrackPointExtension>
            <ns3:hr>103</ns3:hr>
            <ns3:cad>0</ns3:cad>
          </ns3:TrackPointExtension>
        </extensions>
      </trkpt>
      <trkpt lat="43.4748602472245693206787109375" lon="1.43363543786108493804931640625">
        <ele>247.8000030517578125</ele>
        <time>2026-08-05T09:39:50.000Z</time>
        <extensions>
          <ns3:TrackPointExtension>
            <ns3:hr>102</ns3:hr>
            <ns3:cad>0</ns3:cad>
          </ns3:TrackPointExtension>
        </extensions>
      </trkpt>
      <trkpt lat="43.474852032959461212158203125" lon="1.43363443203270435333251953125">
        <ele>247.8000030517578125</ele>
        <time>2026-08-05T09:39:51.000Z</time>
        <extensions>
          <ns3:TrackPointExtension>
            <ns3:hr>102</ns3:hr>
            <ns3:cad>0</ns3:cad>
          </ns3:TrackPointExtension>
        </extensions>
      </trkpt>
      <trkpt lat="43.474844992160797119140625" lon="1.43363040871918201446533203125">
        <ele>247.8000030517578125</ele>
        <time>2026-08-05T09:39:52.000Z</time>
        <extensions>
          <ns3:TrackPointExtension>
            <ns3:hr>102</ns3:hr>
            <ns3:cad>0</ns3:cad>
          </ns3:TrackPointExtension>
        </extensions>
      </trkpt>
      <trkpt lat="43.474838621914386749267578125" lon="1.43362923525273799896240234375">
        <ele>248</ele>
        <time>2026-08-05T09:39:53.000Z</time>
        <extensions>
          <ns3:TrackPointExtension>
            <ns3:hr>101</ns3:hr>
            <ns3:cad>0</ns3:cad>
          </ns3:TrackPointExtension>
        </extensions>
      </trkpt>
      <trkpt lat="43.47482956945896148681640625" lon="1.43362688831984996795654296875">
        <ele>248</ele>
        <time>2026-08-05T09:39:54.000Z</time>
        <extensions>
          <ns3:TrackPointExtension>
            <ns3:hr>101</ns3:hr>
            <ns3:cad>0</ns3:cad>
          </ns3:TrackPointExtension>
        </extensions>
      </trkpt>
      <trkpt lat="43.47482780925929546356201171875" lon="1.43362638540565967559814453125">
        <ele>248</ele>
        <time>2026-08-05T09:39:55.000Z</time>
        <extensions>
          <ns3:TrackPointExtension>
            <ns3:hr>101</ns3:hr>
            <ns3:cad>0</ns3:cad>
          </ns3:TrackPointExtension>
        </extensions>
      </trkpt>
      <trkpt lat="43.47482764162123203277587890625" lon="1.43362672068178653717041015625">
        <ele>248</ele>
        <time>2026-08-05T09:39:56.000Z</time>
        <extensions>
          <ns3:TrackPointExtension>
            <ns3:hr>100</ns3:hr>
            <ns3:cad>0</ns3:cad>
          </ns3:TrackPointExtension>
        </extensions>
      </trkpt>
      <trkpt lat="43.47482747398316860198974609375" lon="1.43362705595791339874267578125">
        <ele>248</ele>
        <time>2026-08-05T09:39:57.000Z</time>
        <extensions>
          <ns3:TrackPointExtension>
            <ns3:hr>100</ns3:hr>
            <ns3:cad>0</ns3:cad>
          </ns3:TrackPointExtension>
        </extensions>
      </trkpt>
      <trkpt lat="43.4748230315744876861572265625" lon="1.43362554721534252166748046875">
        <ele>248.1999969482421875</ele>
        <time>2026-08-05T09:39:58.000Z</time>
        <extensions>
          <ns3:TrackPointExtension>
            <ns3:hr>101</ns3:hr>
            <ns3:cad>0</ns3:cad>
          </ns3:TrackPointExtension>
        </extensions>
      </trkpt>
      <trkpt lat="43.47481523640453815460205078125" lon="1.43363225273787975311279296875">
        <ele>248.1999969482421875</ele>
        <time>2026-08-05T09:39:59.000Z</time>
        <extensions>
          <ns3:TrackPointExtension>
            <ns3:hr>100</ns3:hr>
            <ns3:cad>0</ns3:cad>
          </ns3:TrackPointExtension>
        </extensions>
      </trkpt>
      <trkpt lat="43.4748076088726520538330078125" lon="1.43363334238529205322265625">
        <ele>248.399993896484375</ele>
        <time>2026-08-05T09:40:00.000Z</time>
        <extensions>
          <ns3:TrackPointExtension>
            <ns3:hr>99</ns3:hr>
            <ns3:cad>71</ns3:cad>
          </ns3:TrackPointExtension>
        </extensions>
      </trkpt>
      <trkpt lat="43.47479914315044879913330078125" lon="1.433635018765926361083984375">
        <ele>248.399993896484375</ele>
        <time>2026-08-05T09:40:01.000Z</time>
        <extensions>
          <ns3:TrackPointExtension>
            <ns3:hr>99</ns3:hr>
            <ns3:cad>71</ns3:cad>
          </ns3:TrackPointExtension>
        </extensions>
      </trkpt>
      <trkpt lat="43.47479226998984813690185546875" lon="1.4336371980607509613037109375">
        <ele>248.600006103515625</ele>
        <time>2026-08-05T09:40:02.000Z</time>
        <extensions>
          <ns3:TrackPointExtension>
            <ns3:hr>98</ns3:hr>
            <ns3:cad>0</ns3:cad>
          </ns3:TrackPointExtension>
        </extensions>
      </trkpt>
      <trkpt lat="43.47478774376213550567626953125" lon="1.433637030422687530517578125">
        <ele>248.600006103515625</ele>
        <time>2026-08-05T09:40:03.000Z</time>
        <extensions>
          <ns3:TrackPointExtension>
            <ns3:hr>98</ns3:hr>
            <ns3:cad>0</ns3:cad>
          </ns3:TrackPointExtension>
        </extensions>
      </trkpt>
      <trkpt lat="43.47478170879185199737548828125" lon="1.43363627605140209197998046875">
        <ele>248.600006103515625</ele>
        <time>2026-08-05T09:40:04.000Z</time>
        <extensions>
          <ns3:TrackPointExtension>
            <ns3:hr>98</ns3:hr>
            <ns3:cad>0</ns3:cad>
          </ns3:TrackPointExtension>
        </extensions>
      </trkpt>
      <trkpt lat="43.4747740812599658966064453125" lon="1.43363946117460727691650390625">
        <ele>248.8000030517578125</ele>
        <time>2026-08-05T09:40:05.000Z</time>
        <extensions>
          <ns3:TrackPointExtension>
            <ns3:hr>98</ns3:hr>
            <ns3:cad>0</ns3:cad>
          </ns3:TrackPointExtension>
        </extensions>
      </trkpt>
      <trkpt lat="43.4747660346329212188720703125" lon="1.43363962881267070770263671875">
        <ele>248.8000030517578125</ele>
        <time>2026-08-05T09:40:06.000Z</time>
        <extensions>
          <ns3:TrackPointExtension>
            <ns3:hr>97</ns3:hr>
            <ns3:cad>0</ns3:cad>
          </ns3:TrackPointExtension>
        </extensions>
      </trkpt>
      <trkpt lat="43.4747593291103839874267578125" lon="1.43363895826041698455810546875">
        <ele>248.8000030517578125</ele>
        <time>2026-08-05T09:40:07.000Z</time>
        <extensions>
          <ns3:TrackPointExtension>
            <ns3:hr>97</ns3:hr>
            <ns3:cad>79</ns3:cad>
          </ns3:TrackPointExtension>
        </extensions>
      </trkpt>
      <trkpt lat="43.474752120673656463623046875" lon="1.4336398802697658538818359375">
        <ele>249</ele>
        <time>2026-08-05T09:40:08.000Z</time>
        <extensions>
          <ns3:TrackPointExtension>
            <ns3:hr>97</ns3:hr>
            <ns3:cad>79</ns3:cad>
          </ns3:TrackPointExtension>
        </extensions>
      </trkpt>
      <trkpt lat="43.4747429005801677703857421875" lon="1.43364432267844676971435546875">
        <ele>249</ele>
        <time>2026-08-05T09:40:09.000Z</time>
        <extensions>
          <ns3:TrackPointExtension>
            <ns3:hr>97</ns3:hr>
            <ns3:cad>79</ns3:cad>
          </ns3:TrackPointExtension>
        </extensions>
      </trkpt>
      <trkpt lat="43.4747348539531230926513671875" lon="1.4336452446877956390380859375">
        <ele>249.1999969482421875</ele>
        <time>2026-08-05T09:40:10.000Z</time>
        <extensions>
          <ns3:TrackPointExtension>
            <ns3:hr>97</ns3:hr>
            <ns3:cad>0</ns3:cad>
          </ns3:TrackPointExtension>
        </extensions>
      </trkpt>
      <trkpt lat="43.47472739405930042266845703125" lon="1.4336447417736053466796875">
        <ele>249.1999969482421875</ele>
        <time>2026-08-05T09:40:11.000Z</time>
        <extensions>
          <ns3:TrackPointExtension>
            <ns3:hr>97</ns3:hr>
            <ns3:cad>0</ns3:cad>
          </ns3:TrackPointExtension>
        </extensions>
      </trkpt>
      <trkpt lat="43.47471934743225574493408203125" lon="1.4336459152400493621826171875">
        <ele>249.399993896484375</ele>
        <time>2026-08-05T09:40:12.000Z</time>
        <extensions>
          <ns3:TrackPointExtension>
            <ns3:hr>97</ns3:hr>
            <ns3:cad>0</ns3:cad>
          </ns3:TrackPointExtension>
        </extensions>
      </trkpt>
      <trkpt lat="43.474710546433925628662109375" lon="1.4336462505161762237548828125">
        <ele>249.399993896484375</ele>
        <time>2026-08-05T09:40:13.000Z</time>
        <extensions>
          <ns3:TrackPointExtension>
            <ns3:hr>96</ns3:hr>
            <ns3:cad>0</ns3:cad>
          </ns3:TrackPointExtension>
        </extensions>
      </trkpt>
      <trkpt lat="43.47470258362591266632080078125" lon="1.4336435683071613311767578125">
        <ele>249.600006103515625</ele>
        <time>2026-08-05T09:40:14.000Z</time>
        <extensions>
          <ns3:TrackPointExtension>
            <ns3:hr>96</ns3:hr>
            <ns3:cad>0</ns3:cad>
          </ns3:TrackPointExtension>
        </extensions>
      </trkpt>
      <trkpt lat="43.474701158702373504638671875" lon="1.4336418919265270233154296875">
        <ele>249.600006103515625</ele>
        <time>2026-08-05T09:40:15.000Z</time>
        <extensions>
          <ns3:TrackPointExtension>
            <ns3:hr>96</ns3:hr>
            <ns3:cad>0</ns3:cad>
          </ns3:TrackPointExtension>
        </extensions>
      </trkpt>
      <trkpt lat="43.47469822503626346588134765625" lon="1.43364004790782928466796875">
        <ele>249.600006103515625</ele>
        <time>2026-08-05T09:40:16.000Z</time>
        <extensions>
          <ns3:TrackPointExtension>
            <ns3:hr>97</ns3:hr>
            <ns3:cad>0</ns3:cad>
          </ns3:TrackPointExtension>
        </extensions>
      </trkpt>
      <trkpt lat="43.47469654865562915802001953125" lon="1.43364348448812961578369140625">
        <ele>249.8000030517578125</ele>
        <time>2026-08-05T09:40:17.000Z</time>
        <extensions>
          <ns3:TrackPointExtension>
            <ns3:hr>97</ns3:hr>
            <ns3:cad>0</ns3:cad>
          </ns3:TrackPointExtension>
        </extensions>
      </trkpt>
      <trkpt lat="43.47469688393175601959228515625" lon="1.4336447417736053466796875">
        <ele>249.8000030517578125</ele>
        <time>2026-08-05T09:40:18.000Z</time>
        <extensions>
          <ns3:TrackPointExtension>
            <ns3:hr>97</ns3:hr>
            <ns3:cad>0</ns3:cad>
          </ns3:TrackPointExtension>
        </extensions>
      </trkpt>
      <trkpt lat="43.47469235770404338836669921875" lon="1.43364398740231990814208984375">
        <ele>249.8000030517578125</ele>
        <time>2026-08-05T09:40:19.000Z</time>
        <extensions>
          <ns3:TrackPointExtension>
            <ns3:hr>97</ns3:hr>
            <ns3:cad>0</ns3:cad>
          </ns3:TrackPointExtension>
        </extensions>
      </trkpt>
      <trkpt lat="43.4746879152953624725341796875" lon="1.43364650197327136993408203125">
        <ele>249.8000030517578125</ele>
        <time>2026-08-05T09:40:20.000Z</time>
        <extensions>
          <ns3:TrackPointExtension>
            <ns3:hr>97</ns3:hr>
            <ns3:cad>0</ns3:cad>
          </ns3:TrackPointExtension>
        </extensions>
      </trkpt>
      <trkpt lat="43.4746832214295864105224609375" lon="1.43365069292485713958740234375">
        <ele>249.8000030517578125</ele>
        <time>2026-08-05T09:40:21.000Z</time>
        <extensions>
          <ns3:TrackPointExtension>
            <ns3:hr>97</ns3:hr>
            <ns3:cad>0</ns3:cad>
          </ns3:TrackPointExtension>
        </extensions>
      </trkpt>
      <trkpt lat="43.4746768511831760406494140625" lon="1.4336546324193477630615234375">
        <ele>249.8000030517578125</ele>
        <time>2026-08-05T09:40:22.000Z</time>
        <extensions>
          <ns3:TrackPointExtension>
            <ns3:hr>97</ns3:hr>
            <ns3:cad>0</ns3:cad>
          </ns3:TrackPointExtension>
        </extensions>
      </trkpt>
      <trkpt lat="43.47466997802257537841796875" lon="1.4336576499044895172119140625">
        <ele>250</ele>
        <time>2026-08-05T09:40:23.000Z</time>
        <extensions>
          <ns3:TrackPointExtension>
            <ns3:hr>98</ns3:hr>
            <ns3:cad>0</ns3:cad>
          </ns3:TrackPointExtension>
        </extensions>
      </trkpt>
      <trkpt lat="43.47466184757649898529052734375" lon="1.433661170303821563720703125">
        <ele>250</ele>
        <time>2026-08-05T09:40:24.000Z</time>
        <extensions>
          <ns3:TrackPointExtension>
            <ns3:hr>99</ns3:hr>
            <ns3:cad>0</ns3:cad>
          </ns3:TrackPointExtension>
        </extensions>
      </trkpt>
      <trkpt lat="43.47465698607265949249267578125" lon="1.4336653612554073333740234375">
        <ele>250</ele>
        <time>2026-08-05T09:40:25.000Z</time>
        <extensions>
          <ns3:TrackPointExtension>
            <ns3:hr>99</ns3:hr>
            <ns3:cad>0</ns3:cad>
          </ns3:TrackPointExtension>
        </extensions>
      </trkpt>
      <trkpt lat="43.47465028055012226104736328125" lon="1.43367215059697628021240234375">
        <ele>250</ele>
        <time>2026-08-05T09:40:26.000Z</time>
        <extensions>
          <ns3:TrackPointExtension>
            <ns3:hr>99</ns3:hr>
            <ns3:cad>79</ns3:cad>
          </ns3:TrackPointExtension>
        </extensions>
      </trkpt>
      <trkpt lat="43.4746436588466167449951171875" lon="1.43367751501500606536865234375">
        <ele>250</ele>
        <time>2026-08-05T09:40:27.000Z</time>
        <extensions>
          <ns3:TrackPointExtension>
            <ns3:hr>100</ns3:hr>
            <ns3:cad>79</ns3:cad>
          </ns3:TrackPointExtension>
        </extensions>
      </trkpt>
      <trkpt lat="43.47463603131473064422607421875" lon="1.4336851425468921661376953125">
        <ele>250</ele>
        <time>2026-08-05T09:40:28.000Z</time>
        <extensions>
          <ns3:TrackPointExtension>
            <ns3:hr>100</ns3:hr>
            <ns3:cad>79</ns3:cad>
          </ns3:TrackPointExtension>
        </extensions>
      </trkpt>
      <trkpt lat="43.47462848760187625885009765625" lon="1.43368966877460479736328125">
        <ele>250</ele>
        <time>2026-08-05T09:40:29.000Z</time>
        <extensions>
          <ns3:TrackPointExtension>
            <ns3:hr>100</ns3:hr>
            <ns3:cad>0</ns3:cad>
          </ns3:TrackPointExtension>
        </extensions>
      </trkpt>
      <trkpt lat="43.47462094388902187347412109375" lon="1.4336941950023174285888671875">
        <ele>249.8000030517578125</ele>
        <time>2026-08-05T09:40:30.000Z</time>
        <extensions>
          <ns3:TrackPointExtension>
            <ns3:hr>100</ns3:hr>
            <ns3:cad>0</ns3:cad>
          </ns3:TrackPointExtension>
        </extensions>
      </trkpt>
      <trkpt lat="43.47461524419486522674560546875" lon="1.43369914032518863677978515625">
        <ele>249.8000030517578125</ele>
        <time>2026-08-05T09:40:31.000Z</time>
        <extensions>
          <ns3:TrackPointExtension>
            <ns3:hr>101</ns3:hr>
            <ns3:cad>0</ns3:cad>
          </ns3:TrackPointExtension>
        </extensions>
      </trkpt>
      <trkpt lat="43.4746094606816768646240234375" lon="1.43370282836258411407470703125">
        <ele>249.8000030517578125</ele>
        <time>2026-08-05T09:40:32.000Z</time>
        <extensions>
          <ns3:TrackPointExtension>
            <ns3:hr>101</ns3:hr>
            <ns3:cad>0</ns3:cad>
          </ns3:TrackPointExtension>
        </extensions>
      </trkpt>
      <trkpt lat="43.47460485063493251800537109375" lon="1.43370500765740871429443359375">
        <ele>249.600006103515625</ele>
        <time>2026-08-05T09:40:33.000Z</time>
        <extensions>
          <ns3:TrackPointExtension>
            <ns3:hr>101</ns3:hr>
            <ns3:cad>0</ns3:cad>
          </ns3:TrackPointExtension>
        </extensions>
      </trkpt>
      <trkpt lat="43.47459663636982440948486328125" lon="1.4337052591145038604736328125">
        <ele>249.600006103515625</ele>
        <time>2026-08-05T09:40:34.000Z</time>
        <extensions>
          <ns3:TrackPointExtension>
            <ns3:hr>102</ns3:hr>
            <ns3:cad>0</ns3:cad>
          </ns3:TrackPointExtension>
        </extensions>
      </trkpt>
      <trkpt lat="43.474587164819240570068359375" lon="1.43370584584772586822509765625">
        <ele>249.600006103515625</ele>
        <time>2026-08-05T09:40:35.000Z</time>
        <extensions>
          <ns3:TrackPointExtension>
            <ns3:hr>101</ns3:hr>
            <ns3:cad>0</ns3:cad>
          </ns3:TrackPointExtension>
        </extensions>
      </trkpt>
      <trkpt lat="43.4745786152780055999755859375" lon="1.433706767857074737548828125">
        <ele>249.600006103515625</ele>
        <time>2026-08-05T09:40:36.000Z</time>
        <extensions>
          <ns3:TrackPointExtension>
            <ns3:hr>101</ns3:hr>
            <ns3:cad>71</ns3:cad>
          </ns3:TrackPointExtension>
        </extensions>
      </trkpt>
      <trkpt lat="43.47456872463226318359375" lon="1.43370903097093105316162109375">
        <ele>249.399993896484375</ele>
        <time>2026-08-05T09:40:37.000Z</time>
        <extensions>
          <ns3:TrackPointExtension>
            <ns3:hr>102</ns3:hr>
            <ns3:cad>71</ns3:cad>
          </ns3:TrackPointExtension>
        </extensions>
      </trkpt>
      <trkpt lat="43.47456059418618679046630859375" lon="1.43371456302702426910400390625">
        <ele>249.399993896484375</ele>
        <time>2026-08-05T09:40:38.000Z</time>
        <extensions>
          <ns3:TrackPointExtension>
            <ns3:hr>101</ns3:hr>
            <ns3:cad>0</ns3:cad>
          </ns3:TrackPointExtension>
        </extensions>
      </trkpt>
      <trkpt lat="43.47455539740622043609619140625" lon="1.4337210170924663543701171875">
        <ele>249.399993896484375</ele>
        <time>2026-08-05T09:40:39.000Z</time>
        <extensions>
          <ns3:TrackPointExtension>
            <ns3:hr>101</ns3:hr>
            <ns3:cad>0</ns3:cad>
          </ns3:TrackPointExtension>
        </extensions>
      </trkpt>
      <trkpt lat="43.4745484404265880584716796875" lon="1.43372529186308383941650390625">
        <ele>249.1999969482421875</ele>
        <time>2026-08-05T09:40:40.000Z</time>
        <extensions>
          <ns3:TrackPointExtension>
            <ns3:hr>104</ns3:hr>
            <ns3:cad>0</ns3:cad>
          </ns3:TrackPointExtension>
        </extensions>
      </trkpt>
      <trkpt lat="43.47454198636114597320556640625" lon="1.43372881226241588592529296875">
        <ele>249.1999969482421875</ele>
        <time>2026-08-05T09:40:41.000Z</time>
        <extensions>
          <ns3:TrackPointExtension>
            <ns3:hr>104</ns3:hr>
            <ns3:cad>0</ns3:cad>
          </ns3:TrackPointExtension>
        </extensions>
      </trkpt>
      <trkpt lat="43.47453452646732330322265625" lon="1.43373115919530391693115234375">
        <ele>249.1999969482421875</ele>
        <time>2026-08-05T09:40:42.000Z</time>
        <extensions>
          <ns3:TrackPointExtension>
            <ns3:hr>104</ns3:hr>
            <ns3:cad>0</ns3:cad>
          </ns3:TrackPointExtension>
        </extensions>
      </trkpt>
      <trkpt lat="43.47452656365931034088134765625" lon="1.43373535014688968658447265625">
        <ele>249</ele>
        <time>2026-08-05T09:40:43.000Z</time>
        <extensions>
          <ns3:TrackPointExtension>
            <ns3:hr>104</ns3:hr>
            <ns3:cad>43</ns3:cad>
          </ns3:TrackPointExtension>
        </extensions>
      </trkpt>
      <trkpt lat="43.47451901994645595550537109375" lon="1.433738283812999725341796875">
        <ele>249</ele>
        <time>2026-08-05T09:40:44.000Z</time>
        <extensions>
          <ns3:TrackPointExtension>
            <ns3:hr>104</ns3:hr>
            <ns3:cad>43</ns3:cad>
          </ns3:TrackPointExtension>
        </extensions>
      </trkpt>
      <trkpt lat="43.47451248206198215484619140625" lon="1.43373920582234859466552734375">
        <ele>248.8000030517578125</ele>
        <time>2026-08-05T09:40:45.000Z</time>
        <extensions>
          <ns3:TrackPointExtension>
            <ns3:hr>104</ns3:hr>
            <ns3:cad>43</ns3:cad>
          </ns3:TrackPointExtension>
        </extensions>
      </trkpt>
      <trkpt lat="43.47450544126331806182861328125" lon="1.43373652361333370208740234375">
        <ele>248.8000030517578125</ele>
        <time>2026-08-05T09:40:46.000Z</time>
        <extensions>
          <ns3:TrackPointExtension>
            <ns3:hr>103</ns3:hr>
            <ns3:cad>43</ns3:cad>
          </ns3:TrackPointExtension>
        </extensions>
      </trkpt>
      <trkpt lat="43.4745015017688274383544921875" lon="1.43373618833720684051513671875">
        <ele>248.8000030517578125</ele>
        <time>2026-08-05T09:40:47.000Z</time>
        <extensions>
          <ns3:TrackPointExtension>
            <ns3:hr>103</ns3:hr>
            <ns3:cad>43</ns3:cad>
          </ns3:TrackPointExtension>
        </extensions>
      </trkpt>
      <trkpt lat="43.474495299160480499267578125" lon="1.4337364397943019866943359375">
        <ele>248.600006103515625</ele>
        <time>2026-08-05T09:40:48.000Z</time>
        <extensions>
          <ns3:TrackPointExtension>
            <ns3:hr>103</ns3:hr>
            <ns3:cad>44</ns3:cad>
          </ns3:TrackPointExtension>
        </extensions>
      </trkpt>
      <trkpt lat="43.47448700107634067535400390625" lon="1.43374037928879261016845703125">
        <ele>248.600006103515625</ele>
        <time>2026-08-05T09:40:49.000Z</time>
        <extensions>
          <ns3:TrackPointExtension>
            <ns3:hr>102</ns3:hr>
            <ns3:cad>44</ns3:cad>
          </ns3:TrackPointExtension>
        </extensions>
      </trkpt>
      <trkpt lat="43.4744780324399471282958984375" lon="1.43374574370682239532470703125">
        <ele>248.399993896484375</ele>
        <time>2026-08-05T09:40:50.000Z</time>
        <extensions>
          <ns3:TrackPointExtension>
            <ns3:hr>101</ns3:hr>
            <ns3:cad>44</ns3:cad>
          </ns3:TrackPointExtension>
        </extensions>
      </trkpt>
      <trkpt lat="43.47446881234645843505859375" lon="1.4337485097348690032958984375">
        <ele>248.399993896484375</ele>
        <time>2026-08-05T09:40:51.000Z</time>
        <extensions>
          <ns3:TrackPointExtension>
            <ns3:hr>101</ns3:hr>
            <ns3:cad>44</ns3:cad>
          </ns3:TrackPointExtension>
        </extensions>
      </trkpt>
      <trkpt lat="43.47446152009069919586181640625" lon="1.43374926410615444183349609375">
        <ele>248.1999969482421875</ele>
        <time>2026-08-05T09:40:52.000Z</time>
        <extensions>
          <ns3:TrackPointExtension>
            <ns3:hr>101</ns3:hr>
            <ns3:cad>45</ns3:cad>
          </ns3:TrackPointExtension>
        </extensions>
      </trkpt>
      <trkpt lat="43.474451042711734771728515625" lon="1.43374809063971042633056640625">
        <ele>248</ele>
        <time>2026-08-05T09:40:53.000Z</time>
        <extensions>
          <ns3:TrackPointExtension>
            <ns3:hr>101</ns3:hr>
            <ns3:cad>47</ns3:cad>
          </ns3:TrackPointExtension>
        </extensions>
      </trkpt>
      <trkpt lat="43.47444307990372180938720703125" lon="1.433750353753566741943359375">
        <ele>248</ele>
        <time>2026-08-05T09:40:54.000Z</time>
        <extensions>
          <ns3:TrackPointExtension>
            <ns3:hr>101</ns3:hr>
            <ns3:cad>47</ns3:cad>
          </ns3:TrackPointExtension>
        </extensions>
      </trkpt>
      <trkpt lat="43.4744359552860260009765625" lon="1.43375404179096221923828125">
        <ele>247.8000030517578125</ele>
        <time>2026-08-05T09:40:55.000Z</time>
        <extensions>
          <ns3:TrackPointExtension>
            <ns3:hr>100</ns3:hr>
            <ns3:cad>47</ns3:cad>
          </ns3:TrackPointExtension>
        </extensions>
      </trkpt>
      <trkpt lat="43.47442899830639362335205078125" lon="1.43375781364738941192626953125">
        <ele>247.8000030517578125</ele>
        <time>2026-08-05T09:40:56.000Z</time>
        <extensions>
          <ns3:TrackPointExtension>
            <ns3:hr>100</ns3:hr>
            <ns3:cad>47</ns3:cad>
          </ns3:TrackPointExtension>
        </extensions>
      </trkpt>
      <trkpt lat="43.47442195750772953033447265625" lon="1.43375932238996028900146484375">
        <ele>247.8000030517578125</ele>
        <time>2026-08-05T09:40:57.000Z</time>
        <extensions>
          <ns3:TrackPointExtension>
            <ns3:hr>100</ns3:hr>
            <ns3:cad>47</ns3:cad>
          </ns3:TrackPointExtension>
        </extensions>
      </trkpt>
      <trkpt lat="43.47441374324262142181396484375" lon="1.433757729828357696533203125">
        <ele>247.8000030517578125</ele>
        <time>2026-08-05T09:40:58.000Z</time>
        <extensions>
          <ns3:TrackPointExtension>
            <ns3:hr>99</ns3:hr>
            <ns3:cad>47</ns3:cad>
          </ns3:TrackPointExtension>
        </extensions>
      </trkpt>
      <trkpt lat="43.47440569661557674407958984375" lon="1.43375664018094539642333984375">
        <ele>247.600006103515625</ele>
        <time>2026-08-05T09:40:59.000Z</time>
        <extensions>
          <ns3:TrackPointExtension>
            <ns3:hr>99</ns3:hr>
            <ns3:cad>47</ns3:cad>
          </ns3:TrackPointExtension>
        </extensions>
      </trkpt>
      <trkpt lat="43.47439731471240520477294921875" lon="1.4337558858096599578857421875">
        <ele>247.600006103515625</ele>
        <time>2026-08-05T09:41:00.000Z</time>
        <extensions>
          <ns3:TrackPointExtension>
            <ns3:hr>99</ns3:hr>
            <ns3:cad>47</ns3:cad>
          </ns3:TrackPointExtension>
        </extensions>
      </trkpt>
      <trkpt lat="43.47438490949571132659912109375" lon="1.433756053447723388671875">
        <ele>247.600006103515625</ele>
        <time>2026-08-05T09:41:01.000Z</time>
        <extensions>
          <ns3:TrackPointExtension>
            <ns3:hr>98</ns3:hr>
            <ns3:cad>46</ns3:cad>
          </ns3:TrackPointExtension>
        </extensions>
      </trkpt>
      <trkpt lat="43.47437300719320774078369140625" lon="1.4337572269141674041748046875">
        <ele>247.600006103515625</ele>
        <time>2026-08-05T09:41:02.000Z</time>
        <extensions>
          <ns3:TrackPointExtension>
            <ns3:hr>97</ns3:hr>
            <ns3:cad>46</ns3:cad>
          </ns3:TrackPointExtension>
        </extensions>
      </trkpt>
      <trkpt lat="43.4743689000606536865234375" lon="1.43376116640865802764892578125">
        <ele>247.399993896484375</ele>
        <time>2026-08-05T09:41:03.000Z</time>
        <extensions>
          <ns3:TrackPointExtension>
            <ns3:hr>97</ns3:hr>
            <ns3:cad>46</ns3:cad>
          </ns3:TrackPointExtension>
        </extensions>
      </trkpt>
      <trkpt lat="43.47436848096549510955810546875" lon="1.4337627589702606201171875">
        <ele>247.399993896484375</ele>
        <time>2026-08-05T09:41:04.000Z</time>
        <extensions>
          <ns3:TrackPointExtension>
            <ns3:hr>96</ns3:hr>
            <ns3:cad>46</ns3:cad>
          </ns3:TrackPointExtension>
        </extensions>
      </trkpt>
      <trkpt lat="43.47436630167067050933837890625" lon="1.4337625913321971893310546875">
        <ele>247.399993896484375</ele>
        <time>2026-08-05T09:41:05.000Z</time>
        <extensions>
          <ns3:TrackPointExtension>
            <ns3:hr>95</ns3:hr>
            <ns3:cad>0</ns3:cad>
          </ns3:TrackPointExtension>
        </extensions>
      </trkpt>
      <trkpt lat="43.47436613403260707855224609375" lon="1.43376284278929233551025390625">
        <ele>247.399993896484375</ele>
        <time>2026-08-05T09:41:06.000Z</time>
        <extensions>
          <ns3:TrackPointExtension>
            <ns3:hr>94</ns3:hr>
            <ns3:cad>0</ns3:cad>
          </ns3:TrackPointExtension>
        </extensions>
      </trkpt>
      <trkpt lat="43.47435657866299152374267578125" lon="1.4337632618844509124755859375">
        <ele>247.399993896484375</ele>
        <time>2026-08-05T09:41:07.000Z</time>
        <extensions>
          <ns3:TrackPointExtension>
            <ns3:hr>92</ns3:hr>
            <ns3:cad>0</ns3:cad>
          </ns3:TrackPointExtension>
        </extensions>
      </trkpt>
      <trkpt lat="43.4743455983698368072509765625" lon="1.4337627589702606201171875">
        <ele>247.399993896484375</ele>
        <time>2026-08-05T09:41:08.000Z</time>
        <extensions>
          <ns3:TrackPointExtension>
            <ns3:hr>92</ns3:hr>
            <ns3:cad>0</ns3:cad>
          </ns3:TrackPointExtension>
        </extensions>
      </trkpt>
      <trkpt lat="43.4743382222950458526611328125" lon="1.43376250751316547393798828125">
        <ele>247.1999969482421875</ele>
        <time>2026-08-05T09:41:09.000Z</time>
        <extensions>
          <ns3:TrackPointExtension>
            <ns3:hr>90</ns3:hr>
            <ns3:cad>0</ns3:cad>
          </ns3:TrackPointExtension>
        </extensions>
      </trkpt>
      <trkpt lat="43.47433143295347690582275390625" lon="1.43376477062702178955078125">
        <ele>247.1999969482421875</ele>
        <time>2026-08-05T09:41:10.000Z</time>
        <extensions>
          <ns3:TrackPointExtension>
            <ns3:hr>88</ns3:hr>
            <ns3:cad>0</ns3:cad>
          </ns3:TrackPointExtension>
        </extensions>
      </trkpt>
      <trkpt lat="43.47432455979287624359130859375" lon="1.43376535736024379730224609375">
        <ele>247</ele>
        <time>2026-08-05T09:41:11.000Z</time>
        <extensions>
          <ns3:TrackPointExtension>
            <ns3:hr>84</ns3:hr>
            <ns3:cad>0</ns3:cad>
          </ns3:TrackPointExtension>
        </extensions>
      </trkpt>
      <trkpt lat="43.4743177704513072967529296875" lon="1.4337679557502269744873046875">
        <ele>247</ele>
        <time>2026-08-05T09:41:12.000Z</time>
        <extensions>
          <ns3:TrackPointExtension>
            <ns3:hr>78</ns3:hr>
            <ns3:cad>0</ns3:cad>
          </ns3:TrackPointExtension>
        </extensions>
      </trkpt>
      <trkpt lat="43.47431014291942119598388671875" lon="1.4337734878063201904296875">
        <ele>247</ele>
        <time>2026-08-05T09:41:13.000Z</time>
        <extensions>
          <ns3:TrackPointExtension>
            <ns3:hr>76</ns3:hr>
            <ns3:cad>46</ns3:cad>
          </ns3:TrackPointExtension>
        </extensions>
      </trkpt>
      <trkpt lat="43.47430075518786907196044921875" lon="1.43377793021500110626220703125">
        <ele>247</ele>
        <time>2026-08-05T09:41:14.000Z</time>
        <extensions>
          <ns3:TrackPointExtension>
            <ns3:hr>76</ns3:hr>
            <ns3:cad>46</ns3:cad>
          </ns3:TrackPointExtension>
        </extensions>
      </trkpt>
      <trkpt lat="43.47429237328469753265380859375" lon="1.43377977423369884490966796875">
        <ele>246.8000030517578125</ele>
        <time>2026-08-05T09:41:15.000Z</time>
        <extensions>
          <ns3:TrackPointExtension>
            <ns3:hr>75</ns3:hr>
            <ns3:cad>46</ns3:cad>
          </ns3:TrackPointExtension>
        </extensions>
      </trkpt>
      <trkpt lat="43.47428382374346256256103515625" lon="1.43378094770014286041259765625">
        <ele>246.8000030517578125</ele>
        <time>2026-08-05T09:41:16.000Z</time>
        <extensions>
          <ns3:TrackPointExtension>
            <ns3:hr>75</ns3:hr>
            <ns3:cad>46</ns3:cad>
          </ns3:TrackPointExtension>
        </extensions>
      </trkpt>
      <trkpt lat="43.47427628003060817718505859375" lon="1.43378362990915775299072265625">
        <ele>246.8000030517578125</ele>
        <time>2026-08-05T09:41:17.000Z</time>
        <extensions>
          <ns3:TrackPointExtension>
            <ns3:hr>75</ns3:hr>
            <ns3:cad>45</ns3:cad>
          </ns3:TrackPointExtension>
        </extensions>
      </trkpt>
      <trkpt lat="43.4742684848606586456298828125" lon="1.4337863959372043609619140625">
        <ele>246.600006103515625</ele>
        <time>2026-08-05T09:41:18.000Z</time>
        <extensions>
          <ns3:TrackPointExtension>
            <ns3:hr>75</ns3:hr>
            <ns3:cad>45</ns3:cad>
          </ns3:TrackPointExtension>
        </extensions>
      </trkpt>
      <trkpt lat="43.47426018677651882171630859375" lon="1.43378715030848979949951171875">
        <ele>246.600006103515625</ele>
        <time>2026-08-05T09:41:19.000Z</time>
        <extensions>
          <ns3:TrackPointExtension>
            <ns3:hr>75</ns3:hr>
            <ns3:cad>45</ns3:cad>
          </ns3:TrackPointExtension>
        </extensions>
      </trkpt>
      <trkpt lat="43.4742523916065692901611328125" lon="1.4337870664894580841064453125">
        <ele>246.399993896484375</ele>
        <time>2026-08-05T09:41:20.000Z</time>
        <extensions>
          <ns3:TrackPointExtension>
            <ns3:hr>75</ns3:hr>
            <ns3:cad>46</ns3:cad>
          </ns3:TrackPointExtension>
        </extensions>
      </trkpt>
      <trkpt lat="43.47424392588436603546142578125" lon="1.4337904192507266998291015625">
        <ele>246.399993896484375</ele>
        <time>2026-08-05T09:41:21.000Z</time>
        <extensions>
          <ns3:TrackPointExtension>
            <ns3:hr>76</ns3:hr>
            <ns3:cad>46</ns3:cad>
          </ns3:TrackPointExtension>
        </extensions>
      </trkpt>
      <trkpt lat="43.47423453815281391143798828125" lon="1.43379352055490016937255859375">
        <ele>246.399993896484375</ele>
        <time>2026-08-05T09:41:22.000Z</time>
        <extensions>
          <ns3:TrackPointExtension>
            <ns3:hr>76</ns3:hr>
            <ns3:cad>45</ns3:cad>
          </ns3:TrackPointExtension>
        </extensions>
      </trkpt>
      <trkpt lat="43.4742259047925472259521484375" lon="1.433795280754566192626953125">
        <ele>246.399993896484375</ele>
        <time>2026-08-05T09:41:23.000Z</time>
        <extensions>
          <ns3:TrackPointExtension>
            <ns3:hr>76</ns3:hr>
            <ns3:cad>44</ns3:cad>
          </ns3:TrackPointExtension>
        </extensions>
      </trkpt>
      <trkpt lat="43.47421576268970966339111328125" lon="1.43379586748778820037841796875">
        <ele>246.399993896484375</ele>
        <time>2026-08-05T09:41:24.000Z</time>
        <extensions>
          <ns3:TrackPointExtension>
            <ns3:hr>77</ns3:hr>
            <ns3:cad>45</ns3:cad>
          </ns3:TrackPointExtension>
        </extensions>
      </trkpt>
      <trkpt lat="43.47420855425298213958740234375" lon="1.433795280754566192626953125">
        <ele>246.399993896484375</ele>
        <time>2026-08-05T09:41:25.000Z</time>
        <extensions>
          <ns3:TrackPointExtension>
            <ns3:hr>76</ns3:hr>
            <ns3:cad>45</ns3:cad>
          </ns3:TrackPointExtension>
        </extensions>
      </trkpt>
      <trkpt lat="43.4742026031017303466796875" lon="1.43379821442067623138427734375">
        <ele>246.1999969482421875</ele>
        <time>2026-08-05T09:41:26.000Z</time>
        <extensions>
          <ns3:TrackPointExtension>
            <ns3:hr>77</ns3:hr>
            <ns3:cad>45</ns3:cad>
          </ns3:TrackPointExtension>
        </extensions>
      </trkpt>
      <trkpt lat="43.47419279627501964569091796875" lon="1.43380173482000827789306640625">
        <ele>246.1999969482421875</ele>
        <time>2026-08-05T09:41:27.000Z</time>
        <extensions>
          <ns3:TrackPointExtension>
            <ns3:hr>77</ns3:hr>
            <ns3:cad>45</ns3:cad>
          </ns3:TrackPointExtension>
        </extensions>
      </trkpt>
      <trkpt lat="43.4741838276386260986328125" lon="1.43380408175289630889892578125">
        <ele>246.1999969482421875</ele>
        <time>2026-08-05T09:41:28.000Z</time>
        <extensions>
          <ns3:TrackPointExtension>
            <ns3:hr>77</ns3:hr>
            <ns3:cad>45</ns3:cad>
          </ns3:TrackPointExtension>
        </extensions>
      </trkpt>
      <trkpt lat="43.47417385317385196685791015625" lon="1.433808691799640655517578125">
        <ele>246.1999969482421875</ele>
        <time>2026-08-05T09:41:29.000Z</time>
        <extensions>
          <ns3:TrackPointExtension>
            <ns3:hr>76</ns3:hr>
            <ns3:cad>45</ns3:cad>
          </ns3:TrackPointExtension>
        </extensions>
      </trkpt>
      <trkpt lat="43.47416698001325130462646484375" lon="1.43381330184638500213623046875">
        <ele>246.1999969482421875</ele>
        <time>2026-08-05T09:41:30.000Z</time>
        <extensions>
          <ns3:TrackPointExtension>
            <ns3:hr>76</ns3:hr>
            <ns3:cad>45</ns3:cad>
          </ns3:TrackPointExtension>
        </extensions>
      </trkpt>
      <trkpt lat="43.47415893338620662689208984375" lon="1.4338172413408756256103515625">
        <ele>246</ele>
        <time>2026-08-05T09:41:31.000Z</time>
        <extensions>
          <ns3:TrackPointExtension>
            <ns3:hr>76</ns3:hr>
            <ns3:cad>45</ns3:cad>
          </ns3:TrackPointExtension>
        </extensions>
      </trkpt>
      <trkpt lat="43.4741521440446376800537109375" lon="1.43381581641733646392822265625">
        <ele>246</ele>
        <time>2026-08-05T09:41:32.000Z</time>
        <extensions>
          <ns3:TrackPointExtension>
            <ns3:hr>76</ns3:hr>
            <ns3:cad>45</ns3:cad>
          </ns3:TrackPointExtension>
        </extensions>
      </trkpt>
      <trkpt lat="43.47414024174213409423828125" lon="1.43381866626441478729248046875">
        <ele>246</ele>
        <time>2026-08-05T09:41:33.000Z</time>
        <extensions>
          <ns3:TrackPointExtension>
            <ns3:hr>76</ns3:hr>
            <ns3:cad>45</ns3:cad>
          </ns3:TrackPointExtension>
        </extensions>
      </trkpt>
      <trkpt lat="43.4741306863725185394287109375" lon="1.43382118083536624908447265625">
        <ele>246</ele>
        <time>2026-08-05T09:41:34.000Z</time>
        <extensions>
          <ns3:TrackPointExtension>
            <ns3:hr>76</ns3:hr>
            <ns3:cad>45</ns3:cad>
          </ns3:TrackPointExtension>
        </extensions>
      </trkpt>
      <trkpt lat="43.47412255592644214630126953125" lon="1.43382369540631771087646484375">
        <ele>246</ele>
        <time>2026-08-05T09:41:35.000Z</time>
        <extensions>
          <ns3:TrackPointExtension>
            <ns3:hr>76</ns3:hr>
            <ns3:cad>45</ns3:cad>
          </ns3:TrackPointExtension>
        </extensions>
      </trkpt>
      <trkpt lat="43.4741169400513172149658203125" lon="1.43382336013019084930419921875">
        <ele>246</ele>
        <time>2026-08-05T09:41:36.000Z</time>
        <extensions>
          <ns3:TrackPointExtension>
            <ns3:hr>76</ns3:hr>
            <ns3:cad>44</ns3:cad>
          </ns3:TrackPointExtension>
        </extensions>
      </trkpt>
      <trkpt lat="43.47410847432911396026611328125" lon="1.43382537178695201873779296875">
        <ele>245.8000030517578125</ele>
        <time>2026-08-05T09:41:37.000Z</time>
        <extensions>
          <ns3:TrackPointExtension>
            <ns3:hr>75</ns3:hr>
            <ns3:cad>44</ns3:cad>
          </ns3:TrackPointExtension>
        </extensions>
      </trkpt>
      <trkpt lat="43.47410000860691070556640625" lon="1.43382788635790348052978515625">
        <ele>245.8000030517578125</ele>
        <time>2026-08-05T09:41:38.000Z</time>
        <extensions>
          <ns3:TrackPointExtension>
            <ns3:hr>76</ns3:hr>
            <ns3:cad>44</ns3:cad>
          </ns3:TrackPointExtension>
        </extensions>
      </trkpt>
      <trkpt lat="43.47409103997051715850830078125" lon="1.433830820024013519287109375">
        <ele>245.8000030517578125</ele>
        <time>2026-08-05T09:41:39.000Z</time>
        <extensions>
          <ns3:TrackPointExtension>
            <ns3:hr>75</ns3:hr>
            <ns3:cad>44</ns3:cad>
          </ns3:TrackPointExtension>
        </extensions>
      </trkpt>
      <trkpt lat="43.47408282570540904998779296875" lon="1.4338313229382038116455078125">
        <ele>245.600006103515625</ele>
        <time>2026-08-05T09:41:40.000Z</time>
        <extensions>
          <ns3:TrackPointExtension>
            <ns3:hr>75</ns3:hr>
            <ns3:cad>47</ns3:cad>
          </ns3:TrackPointExtension>
        </extensions>
      </trkpt>
      <trkpt lat="43.4740757010877132415771484375" lon="1.4338316582143306732177734375">
        <ele>245.600006103515625</ele>
        <time>2026-08-05T09:41:41.000Z</time>
        <extensions>
          <ns3:TrackPointExtension>
            <ns3:hr>75</ns3:hr>
            <ns3:cad>47</ns3:cad>
          </ns3:TrackPointExtension>
        </extensions>
      </trkpt>
      <trkpt lat="43.4740631282329559326171875" lon="1.43383677117526531219482421875">
        <ele>245.600006103515625</ele>
        <time>2026-08-05T09:41:42.000Z</time>
        <extensions>
          <ns3:TrackPointExtension>
            <ns3:hr>75</ns3:hr>
            <ns3:cad>47</ns3:cad>
          </ns3:TrackPointExtension>
        </extensions>
      </trkpt>
      <trkpt lat="43.4740515612065792083740234375" lon="1.4338420517742633819580078125">
        <ele>245.399993896484375</ele>
        <time>2026-08-05T09:41:43.000Z</time>
        <extensions>
          <ns3:TrackPointExtension>
            <ns3:hr>75</ns3:hr>
            <ns3:cad>47</ns3:cad>
          </ns3:TrackPointExtension>
        </extensions>
      </trkpt>
      <trkpt lat="43.47404443658888339996337890625" lon="1.43384389579296112060546875">
        <ele>245.399993896484375</ele>
        <time>2026-08-05T09:41:44.000Z</time>
        <extensions>
          <ns3:TrackPointExtension>
            <ns3:hr>75</ns3:hr>
            <ns3:cad>47</ns3:cad>
          </ns3:TrackPointExtension>
        </extensions>
      </trkpt>
      <trkpt lat="43.474037982523441314697265625" lon="1.4338467456400394439697265625">
        <ele>245.399993896484375</ele>
        <time>2026-08-05T09:41:45.000Z</time>
        <extensions>
          <ns3:TrackPointExtension>
            <ns3:hr>75</ns3:hr>
            <ns3:cad>47</ns3:cad>
          </ns3:TrackPointExtension>
        </extensions>
      </trkpt>
      <trkpt lat="43.47402901388704776763916015625" lon="1.43385085277259349822998046875">
        <ele>245.1999969482421875</ele>
        <time>2026-08-05T09:41:46.000Z</time>
        <extensions>
          <ns3:TrackPointExtension>
            <ns3:hr>75</ns3:hr>
            <ns3:cad>47</ns3:cad>
          </ns3:TrackPointExtension>
        </extensions>
      </trkpt>
      <trkpt lat="43.4740202128887176513671875" lon="1.43385252915322780609130859375">
        <ele>245.1999969482421875</ele>
        <time>2026-08-05T09:41:47.000Z</time>
        <extensions>
          <ns3:TrackPointExtension>
            <ns3:hr>76</ns3:hr>
            <ns3:cad>47</ns3:cad>
          </ns3:TrackPointExtension>
        </extensions>
      </trkpt>
      <trkpt lat="43.474014513194561004638671875" lon="1.433853618800640106201171875">
        <ele>245.1999969482421875</ele>
        <time>2026-08-05T09:41:48.000Z</time>
        <extensions>
          <ns3:TrackPointExtension>
            <ns3:hr>77</ns3:hr>
            <ns3:cad>47</ns3:cad>
          </ns3:TrackPointExtension>
        </extensions>
      </trkpt>
      <trkpt lat="43.47400772385299205780029296875" lon="1.43385169096291065216064453125">
        <ele>245</ele>
        <time>2026-08-05T09:41:49.000Z</time>
        <extensions>
          <ns3:TrackPointExtension>
            <ns3:hr>78</ns3:hr>
            <ns3:cad>47</ns3:cad>
          </ns3:TrackPointExtension>
        </extensions>
      </trkpt>
      <trkpt lat="43.47399900667369365692138671875" lon="1.43385319970548152923583984375">
        <ele>245</ele>
        <time>2026-08-05T09:41:50.000Z</time>
        <extensions>
          <ns3:TrackPointExtension>
            <ns3:hr>79</ns3:hr>
            <ns3:cad>43</ns3:cad>
          </ns3:TrackPointExtension>
        </extensions>
      </trkpt>
      <trkpt lat="43.47399213351309299468994140625" lon="1.4338527806103229522705078125">
        <ele>245</ele>
        <time>2026-08-05T09:41:51.000Z</time>
        <extensions>
          <ns3:TrackPointExtension>
            <ns3:hr>78</ns3:hr>
            <ns3:cad>43</ns3:cad>
          </ns3:TrackPointExtension>
        </extensions>
      </trkpt>
      <trkpt lat="43.473984338343143463134765625" lon="1.433854959905147552490234375">
        <ele>245</ele>
        <time>2026-08-05T09:41:52.000Z</time>
        <extensions>
          <ns3:TrackPointExtension>
            <ns3:hr>78</ns3:hr>
            <ns3:cad>43</ns3:cad>
          </ns3:TrackPointExtension>
        </extensions>
      </trkpt>
      <trkpt lat="43.47397369332611560821533203125" lon="1.43385722301900386810302734375">
        <ele>245</ele>
        <time>2026-08-05T09:41:53.000Z</time>
        <extensions>
          <ns3:TrackPointExtension>
            <ns3:hr>78</ns3:hr>
            <ns3:cad>43</ns3:cad>
          </ns3:TrackPointExtension>
        </extensions>
      </trkpt>
      <trkpt lat="43.4739640541374683380126953125" lon="1.4338645152747631072998046875">
        <ele>245</ele>
        <time>2026-08-05T09:41:54.000Z</time>
        <extensions>
          <ns3:TrackPointExtension>
            <ns3:hr>78</ns3:hr>
            <ns3:cad>43</ns3:cad>
          </ns3:TrackPointExtension>
        </extensions>
      </trkpt>
      <trkpt lat="43.4739560075104236602783203125" lon="1.4338661916553974151611328125">
        <ele>245</ele>
        <time>2026-08-05T09:41:55.000Z</time>
        <extensions>
          <ns3:TrackPointExtension>
            <ns3:hr>78</ns3:hr>
            <ns3:cad>43</ns3:cad>
          </ns3:TrackPointExtension>
        </extensions>
      </trkpt>
      <trkpt lat="43.473947457969188690185546875" lon="1.43386744894087314605712890625">
        <ele>244.8000030517578125</ele>
        <time>2026-08-05T09:41:56.000Z</time>
        <extensions>
          <ns3:TrackPointExtension>
            <ns3:hr>78</ns3:hr>
            <ns3:cad>44</ns3:cad>
          </ns3:TrackPointExtension>
        </extensions>
      </trkpt>
      <trkpt lat="43.4739365614950656890869140625" lon="1.4338671974837779998779296875">
        <ele>244.8000030517578125</ele>
        <time>2026-08-05T09:41:57.000Z</time>
        <extensions>
          <ns3:TrackPointExtension>
            <ns3:hr>78</ns3:hr>
            <ns3:cad>44</ns3:cad>
          </ns3:TrackPointExtension>
        </extensions>
      </trkpt>
      <trkpt lat="43.47392893396317958831787109375" lon="1.4338732324540615081787109375">
        <ele>244.8000030517578125</ele>
        <time>2026-08-05T09:41:58.000Z</time>
        <extensions>
          <ns3:TrackPointExtension>
            <ns3:hr>77</ns3:hr>
            <ns3:cad>44</ns3:cad>
          </ns3:TrackPointExtension>
        </extensions>
      </trkpt>
      <trkpt lat="43.47392424009740352630615234375" lon="1.4338759146630764007568359375">
        <ele>245</ele>
        <time>2026-08-05T09:41:59.000Z</time>
        <extensions>
          <ns3:TrackPointExtension>
            <ns3:hr>77</ns3:hr>
            <ns3:cad>44</ns3:cad>
          </ns3:TrackPointExtension>
        </extensions>
      </trkpt>
      <trkpt lat="43.47391937859356403350830078125" lon="1.43387750722467899322509765625">
        <ele>244.8000030517578125</ele>
        <time>2026-08-05T09:42:00.000Z</time>
        <extensions>
          <ns3:TrackPointExtension>
            <ns3:hr>77</ns3:hr>
            <ns3:cad>44</ns3:cad>
          </ns3:TrackPointExtension>
        </extensions>
      </trkpt>
      <trkpt lat="43.47391351126134395599365234375" lon="1.4338782615959644317626953125">
        <ele>244.8000030517578125</ele>
        <time>2026-08-05T09:42:01.000Z</time>
        <extensions>
          <ns3:TrackPointExtension>
            <ns3:hr>76</ns3:hr>
            <ns3:cad>44</ns3:cad>
          </ns3:TrackPointExtension>
        </extensions>
      </trkpt>
      <trkpt lat="43.4739077277481555938720703125" lon="1.43387868069112300872802734375">
        <ele>244.8000030517578125</ele>
        <time>2026-08-05T09:42:02.000Z</time>
        <extensions>
          <ns3:TrackPointExtension>
            <ns3:hr>76</ns3:hr>
            <ns3:cad>44</ns3:cad>
          </ns3:TrackPointExtension>
        </extensions>
      </trkpt>
      <trkpt lat="43.47389993257820606231689453125" lon="1.4338782615959644317626953125">
        <ele>244.8000030517578125</ele>
        <time>2026-08-05T09:42:03.000Z</time>
        <extensions>
          <ns3:TrackPointExtension>
            <ns3:hr>76</ns3:hr>
            <ns3:cad>44</ns3:cad>
          </ns3:TrackPointExtension>
        </extensions>
      </trkpt>
      <trkpt lat="43.47389188595116138458251953125" lon="1.4338822849094867706298828125">
        <ele>244.8000030517578125</ele>
        <time>2026-08-05T09:42:04.000Z</time>
        <extensions>
          <ns3:TrackPointExtension>
            <ns3:hr>76</ns3:hr>
            <ns3:cad>42</ns3:cad>
          </ns3:TrackPointExtension>
        </extensions>
      </trkpt>
      <trkpt lat="43.47388300113379955291748046875" lon="1.43388723023235797882080078125">
        <ele>244.8000030517578125</ele>
        <time>2026-08-05T09:42:05.000Z</time>
        <extensions>
          <ns3:TrackPointExtension>
            <ns3:hr>75</ns3:hr>
            <ns3:cad>41</ns3:cad>
          </ns3:TrackPointExtension>
        </extensions>
      </trkpt>
      <trkpt lat="43.4738745354115962982177734375" lon="1.4338861405849456787109375">
        <ele>244.8000030517578125</ele>
        <time>2026-08-05T09:42:06.000Z</time>
        <extensions>
          <ns3:TrackPointExtension>
            <ns3:hr>75</ns3:hr>
            <ns3:cad>41</ns3:cad>
          </ns3:TrackPointExtension>
        </extensions>
      </trkpt>
      <trkpt lat="43.47386623732745647430419921875" lon="1.43388555385172367095947265625">
        <ele>244.8000030517578125</ele>
        <time>2026-08-05T09:42:07.000Z</time>
        <extensions>
          <ns3:TrackPointExtension>
            <ns3:hr>75</ns3:hr>
            <ns3:cad>44</ns3:cad>
          </ns3:TrackPointExtension>
        </extensions>
      </trkpt>
      <trkpt lat="43.47385768778622150421142578125" lon="1.433888487517833709716796875">
        <ele>244.8000030517578125</ele>
        <time>2026-08-05T09:42:08.000Z</time>
        <extensions>
          <ns3:TrackPointExtension>
            <ns3:hr>75</ns3:hr>
            <ns3:cad>44</ns3:cad>
          </ns3:TrackPointExtension>
        </extensions>
      </trkpt>
      <trkpt lat="43.473847210407257080078125" lon="1.4338936842978000640869140625">
        <ele>244.8000030517578125</ele>
        <time>2026-08-05T09:42:09.000Z</time>
        <extensions>
          <ns3:TrackPointExtension>
            <ns3:hr>75</ns3:hr>
            <ns3:cad>44</ns3:cad>
          </ns3:TrackPointExtension>
        </extensions>
      </trkpt>
      <trkpt lat="43.47383824177086353302001953125" lon="1.43389728851616382598876953125">
        <ele>244.8000030517578125</ele>
        <time>2026-08-05T09:42:10.000Z</time>
        <extensions>
          <ns3:TrackPointExtension>
            <ns3:hr>74</ns3:hr>
            <ns3:cad>44</ns3:cad>
          </ns3:TrackPointExtension>
        </extensions>
      </trkpt>
      <trkpt lat="43.4738319553434848785400390625" lon="1.4338990487158298492431640625">
        <ele>244.8000030517578125</ele>
        <time>2026-08-05T09:42:11.000Z</time>
        <extensions>
          <ns3:TrackPointExtension>
            <ns3:hr>74</ns3:hr>
            <ns3:cad>45</ns3:cad>
          </ns3:TrackPointExtension>
        </extensions>
      </trkpt>
      <trkpt lat="43.47382449544966220855712890625" lon="1.43389963544905185699462890625">
        <ele>244.600006103515625</ele>
        <time>2026-08-05T09:42:12.000Z</time>
        <extensions>
          <ns3:TrackPointExtension>
            <ns3:hr>75</ns3:hr>
            <ns3:cad>45</ns3:cad>
          </ns3:TrackPointExtension>
        </extensions>
      </trkpt>
      <trkpt lat="43.473816029727458953857421875" lon="1.4339007250964641571044921875">
        <ele>244.600006103515625</ele>
        <time>2026-08-05T09:42:13.000Z</time>
        <extensions>
          <ns3:TrackPointExtension>
            <ns3:hr>75</ns3:hr>
            <ns3:cad>45</ns3:cad>
          </ns3:TrackPointExtension>
        </extensions>
      </trkpt>
      <trkpt lat="43.47380924038589000701904296875" lon="1.4339017309248447418212890625">
        <ele>244.600006103515625</ele>
        <time>2026-08-05T09:42:14.000Z</time>
        <extensions>
          <ns3:TrackPointExtension>
            <ns3:hr>75</ns3:hr>
            <ns3:cad>44</ns3:cad>
          </ns3:TrackPointExtension>
        </extensions>
      </trkpt>
      <trkpt lat="43.47380161285400390625" lon="1.43390097655355930328369140625">
        <ele>244.399993896484375</ele>
        <time>2026-08-05T09:42:15.000Z</time>
        <extensions>
          <ns3:TrackPointExtension>
            <ns3:hr>76</ns3:hr>
            <ns3:cad>44</ns3:cad>
          </ns3:TrackPointExtension>
        </extensions>
      </trkpt>
      <trkpt lat="43.4737947396934032440185546875" lon="1.433900557458400726318359375">
        <ele>244.399993896484375</ele>
        <time>2026-08-05T09:42:16.000Z</time>
        <extensions>
          <ns3:TrackPointExtension>
            <ns3:hr>75</ns3:hr>
            <ns3:cad>43</ns3:cad>
          </ns3:TrackPointExtension>
        </extensions>
      </trkpt>
      <trkpt lat="43.47378694452345371246337890625" lon="1.43390533514320850372314453125">
        <ele>244.399993896484375</ele>
        <time>2026-08-05T09:42:17.000Z</time>
        <extensions>
          <ns3:TrackPointExtension>
            <ns3:hr>75</ns3:hr>
            <ns3:cad>43</ns3:cad>
          </ns3:TrackPointExtension>
        </extensions>
      </trkpt>
      <trkpt lat="43.473780490458011627197265625" lon="1.43390667624771595001220703125">
        <ele>244.399993896484375</ele>
        <time>2026-08-05T09:42:18.000Z</time>
        <extensions>
          <ns3:TrackPointExtension>
            <ns3:hr>75</ns3:hr>
            <ns3:cad>45</ns3:cad>
          </ns3:TrackPointExtension>
        </extensions>
      </trkpt>
      <trkpt lat="43.4737734496593475341796875" lon="1.43390617333352565765380859375">
        <ele>244.399993896484375</ele>
        <time>2026-08-05T09:42:19.000Z</time>
        <extensions>
          <ns3:TrackPointExtension>
            <ns3:hr>75</ns3:hr>
            <ns3:cad>45</ns3:cad>
          </ns3:TrackPointExtension>
        </extensions>
      </trkpt>
      <trkpt lat="43.4737654030323028564453125" lon="1.4339081011712551116943359375">
        <ele>244.399993896484375</ele>
        <time>2026-08-05T09:42:20.000Z</time>
        <extensions>
          <ns3:TrackPointExtension>
            <ns3:hr>74</ns3:hr>
            <ns3:cad>45</ns3:cad>
          </ns3:TrackPointExtension>
        </extensions>
      </trkpt>
      <trkpt lat="43.4737555123865604400634765625" lon="1.4339102804660797119140625">
        <ele>244.399993896484375</ele>
        <time>2026-08-05T09:42:21.000Z</time>
        <extensions>
          <ns3:TrackPointExtension>
            <ns3:hr>74</ns3:hr>
            <ns3:cad>45</ns3:cad>
          </ns3:TrackPointExtension>
        </extensions>
      </trkpt>
      <trkpt lat="43.47374671138823032379150390625" lon="1.43391069956123828887939453125">
        <ele>244.399993896484375</ele>
        <time>2026-08-05T09:42:22.000Z</time>
        <extensions>
          <ns3:TrackPointExtension>
            <ns3:hr>74</ns3:hr>
            <ns3:cad>47</ns3:cad>
          </ns3:TrackPointExtension>
        </extensions>
      </trkpt>
      <trkpt lat="43.4737380780279636383056640625" lon="1.43391103483736515045166015625">
        <ele>244.399993896484375</ele>
        <time>2026-08-05T09:42:23.000Z</time>
        <extensions>
          <ns3:TrackPointExtension>
            <ns3:hr>74</ns3:hr>
            <ns3:cad>47</ns3:cad>
          </ns3:TrackPointExtension>
        </extensions>
      </trkpt>
      <trkpt lat="43.4737265110015869140625" lon="1.43391271121799945831298828125">
        <ele>244.399993896484375</ele>
        <time>2026-08-05T09:42:24.000Z</time>
        <extensions>
          <ns3:TrackPointExtension>
            <ns3:hr>73</ns3:hr>
            <ns3:cad>47</ns3:cad>
          </ns3:TrackPointExtension>
        </extensions>
      </trkpt>
      <trkpt lat="43.4737172909080982208251953125" lon="1.433920674026012420654296875">
        <ele>244.399993896484375</ele>
        <time>2026-08-05T09:42:25.000Z</time>
        <extensions>
          <ns3:TrackPointExtension>
            <ns3:hr>73</ns3:hr>
            <ns3:cad>44</ns3:cad>
          </ns3:TrackPointExtension>
        </extensions>
      </trkpt>
      <trkpt lat="43.47370731644332408905029296875" lon="1.433926038444042205810546875">
        <ele>244.399993896484375</ele>
        <time>2026-08-05T09:42:26.000Z</time>
        <extensions>
          <ns3:TrackPointExtension>
            <ns3:hr>72</ns3:hr>
            <ns3:cad>44</ns3:cad>
          </ns3:TrackPointExtension>
        </extensions>
      </trkpt>
      <trkpt lat="43.47369943745434284210205078125" lon="1.433930732309818267822265625">
        <ele>244.399993896484375</ele>
        <time>2026-08-05T09:42:27.000Z</time>
        <extensions>
          <ns3:TrackPointExtension>
            <ns3:hr>72</ns3:hr>
            <ns3:cad>44</ns3:cad>
          </ns3:TrackPointExtension>
        </extensions>
      </trkpt>
      <trkpt lat="43.4736877866089344024658203125" lon="1.43393366597592830657958984375">
        <ele>244.399993896484375</ele>
        <time>2026-08-05T09:42:28.000Z</time>
        <extensions>
          <ns3:TrackPointExtension>
            <ns3:hr>74</ns3:hr>
            <ns3:cad>44</ns3:cad>
          </ns3:TrackPointExtension>
        </extensions>
      </trkpt>
      <trkpt lat="43.4736790694296360015869140625" lon="1.433935426175594329833984375">
        <ele>244.1999969482421875</ele>
        <time>2026-08-05T09:42:29.000Z</time>
        <extensions>
          <ns3:TrackPointExtension>
            <ns3:hr>74</ns3:hr>
            <ns3:cad>43</ns3:cad>
          </ns3:TrackPointExtension>
        </extensions>
      </trkpt>
      <trkpt lat="43.47366909496486186981201171875" lon="1.4339382760226726531982421875">
        <ele>244.1999969482421875</ele>
        <time>2026-08-05T09:42:30.000Z</time>
        <extensions>
          <ns3:TrackPointExtension>
            <ns3:hr>74</ns3:hr>
            <ns3:cad>43</ns3:cad>
          </ns3:TrackPointExtension>
        </extensions>
      </trkpt>
      <trkpt lat="43.473658449947834014892578125" lon="1.43394104205071926116943359375">
        <ele>244.1999969482421875</ele>
        <time>2026-08-05T09:42:31.000Z</time>
        <extensions>
          <ns3:TrackPointExtension>
            <ns3:hr>75</ns3:hr>
            <ns3:cad>43</ns3:cad>
          </ns3:TrackPointExtension>
        </extensions>
      </trkpt>
      <trkpt lat="43.47364730201661586761474609375" lon="1.4339426346123218536376953125">
        <ele>244.1999969482421875</ele>
        <time>2026-08-05T09:42:32.000Z</time>
        <extensions>
          <ns3:TrackPointExtension>
            <ns3:hr>75</ns3:hr>
            <ns3:cad>44</ns3:cad>
          </ns3:TrackPointExtension>
        </extensions>
      </trkpt>
      <trkpt lat="43.47363858483731746673583984375" lon="1.43394506536424160003662109375">
        <ele>244.1999969482421875</ele>
        <time>2026-08-05T09:42:33.000Z</time>
        <extensions>
          <ns3:TrackPointExtension>
            <ns3:hr>75</ns3:hr>
            <ns3:cad>44</ns3:cad>
          </ns3:TrackPointExtension>
        </extensions>
      </trkpt>
      <trkpt lat="43.47363204695284366607666015625" lon="1.43394506536424160003662109375">
        <ele>244.1999969482421875</ele>
        <time>2026-08-05T09:42:34.000Z</time>
        <extensions>
          <ns3:TrackPointExtension>
            <ns3:hr>74</ns3:hr>
            <ns3:cad>44</ns3:cad>
          </ns3:TrackPointExtension>
        </extensions>
      </trkpt>
      <trkpt lat="43.47362366504967212677001953125" lon="1.43394757993519306182861328125">
        <ele>244.1999969482421875</ele>
        <time>2026-08-05T09:42:35.000Z</time>
        <extensions>
          <ns3:TrackPointExtension>
            <ns3:hr>74</ns3:hr>
            <ns3:cad>45</ns3:cad>
          </ns3:TrackPointExtension>
        </extensions>
      </trkpt>
      <trkpt lat="43.473613522946834564208984375" lon="1.433950178325176239013671875">
        <ele>244.1999969482421875</ele>
        <time>2026-08-05T09:42:36.000Z</time>
        <extensions>
          <ns3:TrackPointExtension>
            <ns3:hr>74</ns3:hr>
            <ns3:cad>45</ns3:cad>
          </ns3:TrackPointExtension>
        </extensions>
      </trkpt>
      <trkpt lat="43.4736053086817264556884765625" lon="1.433951854705810546875">
        <ele>244.1999969482421875</ele>
        <time>2026-08-05T09:42:37.000Z</time>
        <extensions>
          <ns3:TrackPointExtension>
            <ns3:hr>74</ns3:hr>
            <ns3:cad>45</ns3:cad>
          </ns3:TrackPointExtension>
        </extensions>
      </trkpt>
      <trkpt lat="43.47359516657888889312744140625" lon="1.4339543692767620086669921875">
        <ele>244.1999969482421875</ele>
        <time>2026-08-05T09:42:38.000Z</time>
        <extensions>
          <ns3:TrackPointExtension>
            <ns3:hr>74</ns3:hr>
            <ns3:cad>44</ns3:cad>
          </ns3:TrackPointExtension>
        </extensions>
      </trkpt>
      <trkpt lat="43.4735875390470027923583984375" lon="1.43395814113318920135498046875">
        <ele>244.1999969482421875</ele>
        <time>2026-08-05T09:42:39.000Z</time>
        <extensions>
          <ns3:TrackPointExtension>
            <ns3:hr>74</ns3:hr>
            <ns3:cad>43</ns3:cad>
          </ns3:TrackPointExtension>
        </extensions>
      </trkpt>
      <trkpt lat="43.473579995334148406982421875" lon="1.43396048806607723236083984375">
        <ele>244.1999969482421875</ele>
        <time>2026-08-05T09:42:40.000Z</time>
        <extensions>
          <ns3:TrackPointExtension>
            <ns3:hr>74</ns3:hr>
            <ns3:cad>43</ns3:cad>
          </ns3:TrackPointExtension>
        </extensions>
      </trkpt>
      <trkpt lat="43.47357102669775485992431640625" lon="1.43396099098026752471923828125">
        <ele>244.1999969482421875</ele>
        <time>2026-08-05T09:42:41.000Z</time>
        <extensions>
          <ns3:TrackPointExtension>
            <ns3:hr>75</ns3:hr>
            <ns3:cad>43</ns3:cad>
          </ns3:TrackPointExtension>
        </extensions>
      </trkpt>
      <trkpt lat="43.47356013022363185882568359375" lon="1.43396199680864810943603515625">
        <ele>244.1999969482421875</ele>
        <time>2026-08-05T09:42:42.000Z</time>
        <extensions>
          <ns3:TrackPointExtension>
            <ns3:hr>75</ns3:hr>
            <ns3:cad>43</ns3:cad>
          </ns3:TrackPointExtension>
        </extensions>
      </trkpt>
      <trkpt lat="43.47354973666369915008544921875" lon="1.433965601027011871337890625">
        <ele>244.1999969482421875</ele>
        <time>2026-08-05T09:42:43.000Z</time>
        <extensions>
          <ns3:TrackPointExtension>
            <ns3:hr>75</ns3:hr>
            <ns3:cad>43</ns3:cad>
          </ns3:TrackPointExtension>
        </extensions>
      </trkpt>
      <trkpt lat="43.473539762198925018310546875" lon="1.4339687861502170562744140625">
        <ele>244.1999969482421875</ele>
        <time>2026-08-05T09:42:44.000Z</time>
        <extensions>
          <ns3:TrackPointExtension>
            <ns3:hr>75</ns3:hr>
            <ns3:cad>44</ns3:cad>
          </ns3:TrackPointExtension>
        </extensions>
      </trkpt>
      <trkpt lat="43.47353096120059490203857421875" lon="1.43397130072116851806640625">
        <ele>244.1999969482421875</ele>
        <time>2026-08-05T09:42:45.000Z</time>
        <extensions>
          <ns3:TrackPointExtension>
            <ns3:hr>75</ns3:hr>
            <ns3:cad>44</ns3:cad>
          </ns3:TrackPointExtension>
        </extensions>
      </trkpt>
      <trkpt lat="43.473519645631313323974609375" lon="1.43397121690213680267333984375">
        <ele>244.1999969482421875</ele>
        <time>2026-08-05T09:42:46.000Z</time>
        <extensions>
          <ns3:TrackPointExtension>
            <ns3:hr>75</ns3:hr>
            <ns3:cad>44</ns3:cad>
          </ns3:TrackPointExtension>
        </extensions>
      </trkpt>
      <trkpt lat="43.4735094197094440460205078125" lon="1.4339741505682468414306640625">
        <ele>244</ele>
        <time>2026-08-05T09:42:47.000Z</time>
        <extensions>
          <ns3:TrackPointExtension>
            <ns3:hr>75</ns3:hr>
            <ns3:cad>44</ns3:cad>
          </ns3:TrackPointExtension>
        </extensions>
      </trkpt>
      <trkpt lat="43.4734996967017650604248046875" lon="1.433977000415325164794921875">
        <ele>244</ele>
        <time>2026-08-05T09:42:48.000Z</time>
        <extensions>
          <ns3:TrackPointExtension>
            <ns3:hr>76</ns3:hr>
            <ns3:cad>44</ns3:cad>
          </ns3:TrackPointExtension>
        </extensions>
      </trkpt>
      <trkpt lat="43.4734903089702129364013671875" lon="1.4339788444340229034423828125">
        <ele>244</ele>
        <time>2026-08-05T09:42:49.000Z</time>
        <extensions>
          <ns3:TrackPointExtension>
            <ns3:hr>75</ns3:hr>
            <ns3:cad>44</ns3:cad>
          </ns3:TrackPointExtension>
        </extensions>
      </trkpt>
      <trkpt lat="43.473483435809612274169921875" lon="1.43398068845272064208984375">
        <ele>244</ele>
        <time>2026-08-05T09:42:50.000Z</time>
        <extensions>
          <ns3:TrackPointExtension>
            <ns3:hr>75</ns3:hr>
            <ns3:cad>44</ns3:cad>
          </ns3:TrackPointExtension>
        </extensions>
      </trkpt>
      <trkpt lat="43.47347480244934558868408203125" lon="1.433984376490116119384765625">
        <ele>244</ele>
        <time>2026-08-05T09:42:51.000Z</time>
        <extensions>
          <ns3:TrackPointExtension>
            <ns3:hr>75</ns3:hr>
            <ns3:cad>44</ns3:cad>
          </ns3:TrackPointExtension>
        </extensions>
      </trkpt>
      <trkpt lat="43.47346642054617404937744140625" lon="1.43398814834654331207275390625">
        <ele>244</ele>
        <time>2026-08-05T09:42:52.000Z</time>
        <extensions>
          <ns3:TrackPointExtension>
            <ns3:hr>75</ns3:hr>
            <ns3:cad>45</ns3:cad>
          </ns3:TrackPointExtension>
        </extensions>
      </trkpt>
      <trkpt lat="43.47345870919525623321533203125" lon="1.4339934289455413818359375">
        <ele>244</ele>
        <time>2026-08-05T09:42:53.000Z</time>
        <extensions>
          <ns3:TrackPointExtension>
            <ns3:hr>75</ns3:hr>
            <ns3:cad>45</ns3:cad>
          </ns3:TrackPointExtension>
        </extensions>
      </trkpt>
      <trkpt lat="43.4734500758349895477294921875" lon="1.4339966140687465667724609375">
        <ele>244</ele>
        <time>2026-08-05T09:42:54.000Z</time>
        <extensions>
          <ns3:TrackPointExtension>
            <ns3:hr>75</ns3:hr>
            <ns3:cad>45</ns3:cad>
          </ns3:TrackPointExtension>
        </extensions>
      </trkpt>
      <trkpt lat="43.47344127483665943145751953125" lon="1.434002481400966644287109375">
        <ele>244</ele>
        <time>2026-08-05T09:42:55.000Z</time>
        <extensions>
          <ns3:TrackPointExtension>
            <ns3:hr>76</ns3:hr>
            <ns3:cad>44</ns3:cad>
          </ns3:TrackPointExtension>
        </extensions>
      </trkpt>
      <trkpt lat="43.47343322820961475372314453125" lon="1.43400541506707668304443359375">
        <ele>244</ele>
        <time>2026-08-05T09:42:56.000Z</time>
        <extensions>
          <ns3:TrackPointExtension>
            <ns3:hr>75</ns3:hr>
            <ns3:cad>44</ns3:cad>
          </ns3:TrackPointExtension>
        </extensions>
      </trkpt>
      <trkpt lat="43.47342316992580890655517578125" lon="1.43400792963802814483642578125">
        <ele>244</ele>
        <time>2026-08-05T09:42:57.000Z</time>
        <extensions>
          <ns3:TrackPointExtension>
            <ns3:hr>75</ns3:hr>
            <ns3:cad>44</ns3:cad>
          </ns3:TrackPointExtension>
        </extensions>
      </trkpt>
      <trkpt lat="43.47341478802263736724853515625" lon="1.43400885164737701416015625">
        <ele>244</ele>
        <time>2026-08-05T09:42:58.000Z</time>
        <extensions>
          <ns3:TrackPointExtension>
            <ns3:hr>75</ns3:hr>
            <ns3:cad>44</ns3:cad>
          </ns3:TrackPointExtension>
        </extensions>
      </trkpt>
      <trkpt lat="43.473406992852687835693359375" lon="1.434012539684772491455078125">
        <ele>244</ele>
        <time>2026-08-05T09:42:59.000Z</time>
        <extensions>
          <ns3:TrackPointExtension>
            <ns3:hr>75</ns3:hr>
            <ns3:cad>43</ns3:cad>
          </ns3:TrackPointExtension>
        </extensions>
      </trkpt>
      <trkpt lat="43.47339986823499202728271484375" lon="1.43401429988443851470947265625">
        <ele>244</ele>
        <time>2026-08-05T09:43:00.000Z</time>
        <extensions>
          <ns3:TrackPointExtension>
            <ns3:hr>74</ns3:hr>
            <ns3:cad>43</ns3:cad>
          </ns3:TrackPointExtension>
        </extensions>
      </trkpt>
      <trkpt lat="43.4733914025127887725830078125" lon="1.434015221893787384033203125">
        <ele>244</ele>
        <time>2026-08-05T09:43:01.000Z</time>
        <extensions>
          <ns3:TrackPointExtension>
            <ns3:hr>74</ns3:hr>
            <ns3:cad>43</ns3:cad>
          </ns3:TrackPointExtension>
        </extensions>
      </trkpt>
      <trkpt lat="43.4733880497515201568603515625" lon="1.434013545513153076171875">
        <ele>244</ele>
        <time>2026-08-05T09:43:02.000Z</time>
        <extensions>
          <ns3:TrackPointExtension>
            <ns3:hr>74</ns3:hr>
            <ns3:cad>43</ns3:cad>
          </ns3:TrackPointExtension>
        </extensions>
      </trkpt>
      <trkpt lat="43.47338251769542694091796875" lon="1.43401429988443851470947265625">
        <ele>244.1999969482421875</ele>
        <time>2026-08-05T09:43:03.000Z</time>
        <extensions>
          <ns3:TrackPointExtension>
            <ns3:hr>74</ns3:hr>
            <ns3:cad>44</ns3:cad>
          </ns3:TrackPointExtension>
        </extensions>
      </trkpt>
      <trkpt lat="43.47337824292480945587158203125" lon="1.43401899375021457672119140625">
        <ele>244.1999969482421875</ele>
        <time>2026-08-05T09:43:04.000Z</time>
        <extensions>
          <ns3:TrackPointExtension>
            <ns3:hr>74</ns3:hr>
            <ns3:cad>0</ns3:cad>
          </ns3:TrackPointExtension>
        </extensions>
      </trkpt>
      <trkpt lat="43.473368100821971893310546875" lon="1.43402268178761005401611328125">
        <ele>244.1999969482421875</ele>
        <time>2026-08-05T09:43:05.000Z</time>
        <extensions>
          <ns3:TrackPointExtension>
            <ns3:hr>74</ns3:hr>
            <ns3:cad>42</ns3:cad>
          </ns3:TrackPointExtension>
        </extensions>
      </trkpt>
      <trkpt lat="43.47335896454751491546630859375" lon="1.4340256154537200927734375">
        <ele>244.1999969482421875</ele>
        <time>2026-08-05T09:43:06.000Z</time>
        <extensions>
          <ns3:TrackPointExtension>
            <ns3:hr>75</ns3:hr>
            <ns3:cad>42</ns3:cad>
          </ns3:TrackPointExtension>
        </extensions>
      </trkpt>
      <trkpt lat="43.47335091792047023773193359375" lon="1.43402653746306896209716796875">
        <ele>244.399993896484375</ele>
        <time>2026-08-05T09:43:07.000Z</time>
        <extensions>
          <ns3:TrackPointExtension>
            <ns3:hr>74</ns3:hr>
            <ns3:cad>42</ns3:cad>
          </ns3:TrackPointExtension>
        </extensions>
      </trkpt>
      <trkpt lat="43.4733384288847446441650390625" lon="1.4340282976627349853515625">
        <ele>244.399993896484375</ele>
        <time>2026-08-05T09:43:08.000Z</time>
        <extensions>
          <ns3:TrackPointExtension>
            <ns3:hr>74</ns3:hr>
            <ns3:cad>78</ns3:cad>
          </ns3:TrackPointExtension>
        </extensions>
      </trkpt>
      <trkpt lat="43.473330549895763397216796875" lon="1.43402905203402042388916015625">
        <ele>244.399993896484375</ele>
        <time>2026-08-05T09:43:09.000Z</time>
        <extensions>
          <ns3:TrackPointExtension>
            <ns3:hr>74</ns3:hr>
            <ns3:cad>79</ns3:cad>
          </ns3:TrackPointExtension>
        </extensions>
      </trkpt>
      <trkpt lat="43.4733240120112895965576171875" lon="1.43403139896690845489501953125">
        <ele>244.399993896484375</ele>
        <time>2026-08-05T09:43:10.000Z</time>
        <extensions>
          <ns3:TrackPointExtension>
            <ns3:hr>73</ns3:hr>
            <ns3:cad>78</ns3:cad>
          </ns3:TrackPointExtension>
        </extensions>
      </trkpt>
      <trkpt lat="43.47331688739359378814697265625" lon="1.43403458409011363983154296875">
        <ele>244.1999969482421875</ele>
        <time>2026-08-05T09:43:11.000Z</time>
        <extensions>
          <ns3:TrackPointExtension>
            <ns3:hr>73</ns3:hr>
            <ns3:cad>41</ns3:cad>
          </ns3:TrackPointExtension>
        </extensions>
      </trkpt>
      <trkpt lat="43.47330397926270961761474609375" lon="1.4340378530323505401611328125">
        <ele>244.1999969482421875</ele>
        <time>2026-08-05T09:43:12.000Z</time>
        <extensions>
          <ns3:TrackPointExtension>
            <ns3:hr>73</ns3:hr>
            <ns3:cad>41</ns3:cad>
          </ns3:TrackPointExtension>
        </extensions>
      </trkpt>
      <trkpt lat="43.4732968546450138092041015625" lon="1.434040032327175140380859375">
        <ele>244.1999969482421875</ele>
        <time>2026-08-05T09:43:13.000Z</time>
        <extensions>
          <ns3:TrackPointExtension>
            <ns3:hr>72</ns3:hr>
            <ns3:cad>41</ns3:cad>
          </ns3:TrackPointExtension>
        </extensions>
      </trkpt>
      <trkpt lat="43.473288975656032562255859375" lon="1.43403835594654083251953125">
        <ele>244.1999969482421875</ele>
        <time>2026-08-05T09:43:14.000Z</time>
        <extensions>
          <ns3:TrackPointExtension>
            <ns3:hr>72</ns3:hr>
            <ns3:cad>41</ns3:cad>
          </ns3:TrackPointExtension>
        </extensions>
      </trkpt>
      <trkpt lat="43.4732797555625438690185546875" lon="1.43404128961265087127685546875">
        <ele>244.1999969482421875</ele>
        <time>2026-08-05T09:43:15.000Z</time>
        <extensions>
          <ns3:TrackPointExtension>
            <ns3:hr>72</ns3:hr>
            <ns3:cad>40</ns3:cad>
          </ns3:TrackPointExtension>
        </extensions>
      </trkpt>
      <trkpt lat="43.47326994873583316802978515625" lon="1.43404447473585605621337890625">
        <ele>244.1999969482421875</ele>
        <time>2026-08-05T09:43:16.000Z</time>
        <extensions>
          <ns3:TrackPointExtension>
            <ns3:hr>72</ns3:hr>
            <ns3:cad>0</ns3:cad>
          </ns3:TrackPointExtension>
        </extensions>
      </trkpt>
      <trkpt lat="43.47326525487005710601806640625" lon="1.43404372036457061767578125">
        <ele>244.1999969482421875</ele>
        <time>2026-08-05T09:43:17.000Z</time>
        <extensions>
          <ns3:TrackPointExtension>
            <ns3:hr>72</ns3:hr>
            <ns3:cad>0</ns3:cad>
          </ns3:TrackPointExtension>
        </extensions>
      </trkpt>
      <trkpt lat="43.473253436386585235595703125" lon="1.43404916860163211822509765625">
        <ele>244.1999969482421875</ele>
        <time>2026-08-05T09:43:18.000Z</time>
        <extensions>
          <ns3:TrackPointExtension>
            <ns3:hr>72</ns3:hr>
            <ns3:cad>43</ns3:cad>
          </ns3:TrackPointExtension>
        </extensions>
      </trkpt>
      <trkpt lat="43.4732432104647159576416015625" lon="1.43405235372483730316162109375">
        <ele>244.1999969482421875</ele>
        <time>2026-08-05T09:43:19.000Z</time>
        <extensions>
          <ns3:TrackPointExtension>
            <ns3:hr>72</ns3:hr>
            <ns3:cad>44</ns3:cad>
          </ns3:TrackPointExtension>
        </extensions>
      </trkpt>
      <trkpt lat="43.473235331475734710693359375" lon="1.4340559579432010650634765625">
        <ele>244.399993896484375</ele>
        <time>2026-08-05T09:43:20.000Z</time>
        <extensions>
          <ns3:TrackPointExtension>
            <ns3:hr>71</ns3:hr>
            <ns3:cad>44</ns3:cad>
          </ns3:TrackPointExtension>
        </extensions>
      </trkpt>
      <trkpt lat="43.47322518937289714813232421875" lon="1.43405377864837646484375">
        <ele>244.399993896484375</ele>
        <time>2026-08-05T09:43:21.000Z</time>
        <extensions>
          <ns3:TrackPointExtension>
            <ns3:hr>71</ns3:hr>
            <ns3:cad>44</ns3:cad>
          </ns3:TrackPointExtension>
        </extensions>
      </trkpt>
      <trkpt lat="43.4732120297849178314208984375" lon="1.4340512640774250030517578125">
        <ele>244.399993896484375</ele>
        <time>2026-08-05T09:43:22.000Z</time>
        <extensions>
          <ns3:TrackPointExtension>
            <ns3:hr>70</ns3:hr>
            <ns3:cad>44</ns3:cad>
          </ns3:TrackPointExtension>
        </extensions>
      </trkpt>
      <trkpt lat="43.473203815519809722900390625" lon="1.43405310809612274169921875">
        <ele>244.399993896484375</ele>
        <time>2026-08-05T09:43:23.000Z</time>
        <extensions>
          <ns3:TrackPointExtension>
            <ns3:hr>70</ns3:hr>
            <ns3:cad>43</ns3:cad>
          </ns3:TrackPointExtension>
        </extensions>
      </trkpt>
      <trkpt lat="43.4731967747211456298828125" lon="1.43405403010547161102294921875">
        <ele>244.600006103515625</ele>
        <time>2026-08-05T09:43:24.000Z</time>
        <extensions>
          <ns3:TrackPointExtension>
            <ns3:hr>70</ns3:hr>
            <ns3:cad>43</ns3:cad>
          </ns3:TrackPointExtension>
        </extensions>
      </trkpt>
      <trkpt lat="43.47318914718925952911376953125" lon="1.43405319191515445709228515625">
        <ele>244.600006103515625</ele>
        <time>2026-08-05T09:43:25.000Z</time>
        <extensions>
          <ns3:TrackPointExtension>
            <ns3:hr>70</ns3:hr>
            <ns3:cad>44</ns3:cad>
          </ns3:TrackPointExtension>
        </extensions>
      </trkpt>
      <trkpt lat="43.4731791727244853973388671875" lon="1.4340579695999622344970703125">
        <ele>244.600006103515625</ele>
        <time>2026-08-05T09:43:26.000Z</time>
        <extensions>
          <ns3:TrackPointExtension>
            <ns3:hr>70</ns3:hr>
            <ns3:cad>45</ns3:cad>
          </ns3:TrackPointExtension>
        </extensions>
      </trkpt>
      <trkpt lat="43.473166264593601226806640625" lon="1.43406140618026256561279296875">
        <ele>244.600006103515625</ele>
        <time>2026-08-05T09:43:27.000Z</time>
        <extensions>
          <ns3:TrackPointExtension>
            <ns3:hr>71</ns3:hr>
            <ns3:cad>45</ns3:cad>
          </ns3:TrackPointExtension>
        </extensions>
      </trkpt>
      <trkpt lat="43.4731573797762393951416015625" lon="1.4340636692941188812255859375">
        <ele>244.600006103515625</ele>
        <time>2026-08-05T09:43:28.000Z</time>
        <extensions>
          <ns3:TrackPointExtension>
            <ns3:hr>70</ns3:hr>
            <ns3:cad>46</ns3:cad>
          </ns3:TrackPointExtension>
        </extensions>
      </trkpt>
      <trkpt lat="43.4731476567685604095458984375" lon="1.4340633340179920196533203125">
        <ele>244.600006103515625</ele>
        <time>2026-08-05T09:43:29.000Z</time>
        <extensions>
          <ns3:TrackPointExtension>
            <ns3:hr>69</ns3:hr>
            <ns3:cad>46</ns3:cad>
          </ns3:TrackPointExtension>
        </extensions>
      </trkpt>
      <trkpt lat="43.47313709557056427001953125" lon="1.43406392075121402740478515625">
        <ele>244.600006103515625</ele>
        <time>2026-08-05T09:43:30.000Z</time>
        <extensions>
          <ns3:TrackPointExtension>
            <ns3:hr>69</ns3:hr>
            <ns3:cad>46</ns3:cad>
          </ns3:TrackPointExtension>
        </extensions>
      </trkpt>
      <trkpt lat="43.47312561236321926116943359375" lon="1.43406526185572147369384765625">
        <ele>244.600006103515625</ele>
        <time>2026-08-05T09:43:31.000Z</time>
        <extensions>
          <ns3:TrackPointExtension>
            <ns3:hr>69</ns3:hr>
            <ns3:cad>46</ns3:cad>
          </ns3:TrackPointExtension>
        </extensions>
      </trkpt>
      <trkpt lat="43.47311538644134998321533203125" lon="1.4340686984360218048095703125">
        <ele>244.600006103515625</ele>
        <time>2026-08-05T09:43:32.000Z</time>
        <extensions>
          <ns3:TrackPointExtension>
            <ns3:hr>69</ns3:hr>
            <ns3:cad>46</ns3:cad>
          </ns3:TrackPointExtension>
        </extensions>
      </trkpt>
      <trkpt lat="43.473107926547527313232421875" lon="1.434068866074085235595703125">
        <ele>244.600006103515625</ele>
        <time>2026-08-05T09:43:33.000Z</time>
        <extensions>
          <ns3:TrackPointExtension>
            <ns3:hr>69</ns3:hr>
            <ns3:cad>46</ns3:cad>
          </ns3:TrackPointExtension>
        </extensions>
      </trkpt>
      <trkpt lat="43.47309744916856288909912109375" lon="1.434071548283100128173828125">
        <ele>244.600006103515625</ele>
        <time>2026-08-05T09:43:34.000Z</time>
        <extensions>
          <ns3:TrackPointExtension>
            <ns3:hr>69</ns3:hr>
            <ns3:cad>46</ns3:cad>
          </ns3:TrackPointExtension>
        </extensions>
      </trkpt>
      <trkpt lat="43.473085798323154449462890625" lon="1.43407599069178104400634765625">
        <ele>244.600006103515625</ele>
        <time>2026-08-05T09:43:35.000Z</time>
        <extensions>
          <ns3:TrackPointExtension>
            <ns3:hr>68</ns3:hr>
            <ns3:cad>46</ns3:cad>
          </ns3:TrackPointExtension>
        </extensions>
      </trkpt>
      <trkpt lat="43.47307699732482433319091796875" lon="1.43408051691949367523193359375">
        <ele>244.600006103515625</ele>
        <time>2026-08-05T09:43:36.000Z</time>
        <extensions>
          <ns3:TrackPointExtension>
            <ns3:hr>69</ns3:hr>
            <ns3:cad>46</ns3:cad>
          </ns3:TrackPointExtension>
        </extensions>
      </trkpt>
      <trkpt lat="43.47307029180228710174560546875" lon="1.4340841211378574371337890625">
        <ele>244.600006103515625</ele>
        <time>2026-08-05T09:43:37.000Z</time>
        <extensions>
          <ns3:TrackPointExtension>
            <ns3:hr>68</ns3:hr>
            <ns3:cad>45</ns3:cad>
          </ns3:TrackPointExtension>
        </extensions>
      </trkpt>
      <trkpt lat="43.47306308336555957794189453125" lon="1.4340894855558872222900390625">
        <ele>244.600006103515625</ele>
        <time>2026-08-05T09:43:38.000Z</time>
        <extensions>
          <ns3:TrackPointExtension>
            <ns3:hr>67</ns3:hr>
            <ns3:cad>45</ns3:cad>
          </ns3:TrackPointExtension>
        </extensions>
      </trkpt>
      <trkpt lat="43.47305067814886569976806640625" lon="1.4340961910784244537353515625">
        <ele>244.8000030517578125</ele>
        <time>2026-08-05T09:43:39.000Z</time>
        <extensions>
          <ns3:TrackPointExtension>
            <ns3:hr>67</ns3:hr>
            <ns3:cad>45</ns3:cad>
          </ns3:TrackPointExtension>
        </extensions>
      </trkpt>
      <trkpt lat="43.47304053604602813720703125" lon="1.43410365097224712371826171875">
        <ele>244.8000030517578125</ele>
        <time>2026-08-05T09:43:40.000Z</time>
        <extensions>
          <ns3:TrackPointExtension>
            <ns3:hr>67</ns3:hr>
            <ns3:cad>45</ns3:cad>
          </ns3:TrackPointExtension>
        </extensions>
      </trkpt>
      <trkpt lat="43.47303207032382488250732421875" lon="1.4341062493622303009033203125">
        <ele>244.8000030517578125</ele>
        <time>2026-08-05T09:43:41.000Z</time>
        <extensions>
          <ns3:TrackPointExtension>
            <ns3:hr>67</ns3:hr>
            <ns3:cad>45</ns3:cad>
          </ns3:TrackPointExtension>
        </extensions>
      </trkpt>
      <trkpt lat="43.47302377223968505859375" lon="1.43410834483802318572998046875">
        <ele>244.8000030517578125</ele>
        <time>2026-08-05T09:43:42.000Z</time>
        <extensions>
          <ns3:TrackPointExtension>
            <ns3:hr>67</ns3:hr>
            <ns3:cad>45</ns3:cad>
          </ns3:TrackPointExtension>
        </extensions>
      </trkpt>
      <trkpt lat="43.47301379777491092681884765625" lon="1.43411069177091121673583984375">
        <ele>245</ele>
        <time>2026-08-05T09:43:43.000Z</time>
        <extensions>
          <ns3:TrackPointExtension>
            <ns3:hr>68</ns3:hr>
            <ns3:cad>45</ns3:cad>
          </ns3:TrackPointExtension>
        </extensions>
      </trkpt>
      <trkpt lat="43.473005332052707672119140625" lon="1.43411345779895782470703125">
        <ele>245</ele>
        <time>2026-08-05T09:43:44.000Z</time>
        <extensions>
          <ns3:TrackPointExtension>
            <ns3:hr>68</ns3:hr>
            <ns3:cad>46</ns3:cad>
          </ns3:TrackPointExtension>
        </extensions>
      </trkpt>
      <trkpt lat="43.47300038672983646392822265625" lon="1.4341166429221630096435546875">
        <ele>245</ele>
        <time>2026-08-05T09:43:45.000Z</time>
        <extensions>
          <ns3:TrackPointExtension>
            <ns3:hr>68</ns3:hr>
            <ns3:cad>46</ns3:cad>
          </ns3:TrackPointExtension>
        </extensions>
      </trkpt>
      <trkpt lat="43.47298982553184032440185546875" lon="1.4341199956834316253662109375">
        <ele>245</ele>
        <time>2026-08-05T09:43:46.000Z</time>
        <extensions>
          <ns3:TrackPointExtension>
            <ns3:hr>68</ns3:hr>
            <ns3:cad>46</ns3:cad>
          </ns3:TrackPointExtension>
        </extensions>
      </trkpt>
      <trkpt lat="43.47298027016222476959228515625" lon="1.43412292934954166412353515625">
        <ele>245</ele>
        <time>2026-08-05T09:43:47.000Z</time>
        <extensions>
          <ns3:TrackPointExtension>
            <ns3:hr>69</ns3:hr>
            <ns3:cad>46</ns3:cad>
          </ns3:TrackPointExtension>
        </extensions>
      </trkpt>
      <trkpt lat="43.47297373227775096893310546875" lon="1.43412552773952484130859375">
        <ele>245</ele>
        <time>2026-08-05T09:43:48.000Z</time>
        <extensions>
          <ns3:TrackPointExtension>
            <ns3:hr>69</ns3:hr>
            <ns3:cad>44</ns3:cad>
          </ns3:TrackPointExtension>
        </extensions>
      </trkpt>
      <trkpt lat="43.47296635620296001434326171875" lon="1.4341280423104763031005859375">
        <ele>245.1999969482421875</ele>
        <time>2026-08-05T09:43:49.000Z</time>
        <extensions>
          <ns3:TrackPointExtension>
            <ns3:hr>69</ns3:hr>
            <ns3:cad>42</ns3:cad>
          </ns3:TrackPointExtension>
        </extensions>
      </trkpt>
      <trkpt lat="43.4729542024433612823486328125" lon="1.43412963487207889556884765625">
        <ele>245.1999969482421875</ele>
        <time>2026-08-05T09:43:50.000Z</time>
        <extensions>
          <ns3:TrackPointExtension>
            <ns3:hr>69</ns3:hr>
            <ns3:cad>42</ns3:cad>
          </ns3:TrackPointExtension>
        </extensions>
      </trkpt>
      <trkpt lat="43.47294657491147518157958984375" lon="1.43413315527141094207763671875">
        <ele>245.1999969482421875</ele>
        <time>2026-08-05T09:43:51.000Z</time>
        <extensions>
          <ns3:TrackPointExtension>
            <ns3:hr>69</ns3:hr>
            <ns3:cad>42</ns3:cad>
          </ns3:TrackPointExtension>
        </extensions>
      </trkpt>
      <trkpt lat="43.47293836064636707305908203125" lon="1.43413701094686985015869140625">
        <ele>245.399993896484375</ele>
        <time>2026-08-05T09:43:52.000Z</time>
        <extensions>
          <ns3:TrackPointExtension>
            <ns3:hr>69</ns3:hr>
            <ns3:cad>41</ns3:cad>
          </ns3:TrackPointExtension>
        </extensions>
      </trkpt>
      <trkpt lat="43.47292729653418064117431640625" lon="1.43414120189845561981201171875">
        <ele>245.399993896484375</ele>
        <time>2026-08-05T09:43:53.000Z</time>
        <extensions>
          <ns3:TrackPointExtension>
            <ns3:hr>69</ns3:hr>
            <ns3:cad>42</ns3:cad>
          </ns3:TrackPointExtension>
        </extensions>
      </trkpt>
      <trkpt lat="43.47292042337357997894287109375" lon="1.43414405174553394317626953125">
        <ele>245.399993896484375</ele>
        <time>2026-08-05T09:43:54.000Z</time>
        <extensions>
          <ns3:TrackPointExtension>
            <ns3:hr>69</ns3:hr>
            <ns3:cad>42</ns3:cad>
          </ns3:TrackPointExtension>
        </extensions>
      </trkpt>
      <trkpt lat="43.47291070036590099334716796875" lon="1.43415008671581745147705078125">
        <ele>245.399993896484375</ele>
        <time>2026-08-05T09:43:55.000Z</time>
        <extensions>
          <ns3:TrackPointExtension>
            <ns3:hr>68</ns3:hr>
            <ns3:cad>42</ns3:cad>
          </ns3:TrackPointExtension>
        </extensions>
      </trkpt>
      <trkpt lat="43.472900725901126861572265625" lon="1.43415369093418121337890625">
        <ele>245.600006103515625</ele>
        <time>2026-08-05T09:43:56.000Z</time>
        <extensions>
          <ns3:TrackPointExtension>
            <ns3:hr>68</ns3:hr>
            <ns3:cad>42</ns3:cad>
          </ns3:TrackPointExtension>
        </extensions>
      </trkpt>
      <trkpt lat="43.47289242781698703765869140625" lon="1.434156037867069244384765625">
        <ele>245.600006103515625</ele>
        <time>2026-08-05T09:43:57.000Z</time>
        <extensions>
          <ns3:TrackPointExtension>
            <ns3:hr>68</ns3:hr>
            <ns3:cad>42</ns3:cad>
          </ns3:TrackPointExtension>
        </extensions>
      </trkpt>
      <trkpt lat="43.47288505174219608306884765625" lon="1.43415612168610095977783203125">
        <ele>245.600006103515625</ele>
        <time>2026-08-05T09:43:58.000Z</time>
        <extensions>
          <ns3:TrackPointExtension>
            <ns3:hr>68</ns3:hr>
            <ns3:cad>41</ns3:cad>
          </ns3:TrackPointExtension>
        </extensions>
      </trkpt>
      <trkpt lat="43.4728794358670711517333984375" lon="1.4341568760573863983154296875">
        <ele>245.8000030517578125</ele>
        <time>2026-08-05T09:43:59.000Z</time>
        <extensions>
          <ns3:TrackPointExtension>
            <ns3:hr>68</ns3:hr>
            <ns3:cad>41</ns3:cad>
          </ns3:TrackPointExtension>
        </extensions>
      </trkpt>
      <trkpt lat="43.4728774242103099822998046875" lon="1.4341598935425281524658203125">
        <ele>245.8000030517578125</ele>
        <time>2026-08-05T09:44:00.000Z</time>
        <extensions>
          <ns3:TrackPointExtension>
            <ns3:hr>68</ns3:hr>
            <ns3:cad>78</ns3:cad>
          </ns3:TrackPointExtension>
        </extensions>
      </trkpt>
      <trkpt lat="43.47286392934620380401611328125" lon="1.43416366539895534515380859375">
        <ele>246</ele>
        <time>2026-08-05T09:44:01.000Z</time>
        <extensions>
          <ns3:TrackPointExtension>
            <ns3:hr>68</ns3:hr>
            <ns3:cad>78</ns3:cad>
          </ns3:TrackPointExtension>
        </extensions>
      </trkpt>
      <trkpt lat="43.47285722382366657257080078125" lon="1.4341602288186550140380859375">
        <ele>246</ele>
        <time>2026-08-05T09:44:02.000Z</time>
        <extensions>
          <ns3:TrackPointExtension>
            <ns3:hr>69</ns3:hr>
            <ns3:cad>77</ns3:cad>
          </ns3:TrackPointExtension>
        </extensions>
      </trkpt>
      <trkpt lat="43.47284968011081218719482421875" lon="1.43416048027575016021728515625">
        <ele>246</ele>
        <time>2026-08-05T09:44:03.000Z</time>
        <extensions>
          <ns3:TrackPointExtension>
            <ns3:hr>69</ns3:hr>
            <ns3:cad>77</ns3:cad>
          </ns3:TrackPointExtension>
        </extensions>
      </trkpt>
      <trkpt lat="43.47284012474119663238525390625" lon="1.4341612346470355987548828125">
        <ele>246</ele>
        <time>2026-08-05T09:44:04.000Z</time>
        <extensions>
          <ns3:TrackPointExtension>
            <ns3:hr>70</ns3:hr>
            <ns3:cad>79</ns3:cad>
          </ns3:TrackPointExtension>
        </extensions>
      </trkpt>
      <trkpt lat="43.47283492796123027801513671875" lon="1.43416232429444789886474609375">
        <ele>246.1999969482421875</ele>
        <time>2026-08-05T09:44:05.000Z</time>
        <extensions>
          <ns3:TrackPointExtension>
            <ns3:hr>70</ns3:hr>
            <ns3:cad>79</ns3:cad>
          </ns3:TrackPointExtension>
        </extensions>
      </trkpt>
      <trkpt lat="43.47282302565872669219970703125" lon="1.43415997736155986785888671875">
        <ele>246.1999969482421875</ele>
        <time>2026-08-05T09:44:06.000Z</time>
        <extensions>
          <ns3:TrackPointExtension>
            <ns3:hr>70</ns3:hr>
            <ns3:cad>79</ns3:cad>
          </ns3:TrackPointExtension>
        </extensions>
      </trkpt>
      <trkpt lat="43.47281254827976226806640625" lon="1.4341622404754161834716796875">
        <ele>246.399993896484375</ele>
        <time>2026-08-05T09:44:07.000Z</time>
        <extensions>
          <ns3:TrackPointExtension>
            <ns3:hr>71</ns3:hr>
            <ns3:cad>79</ns3:cad>
          </ns3:TrackPointExtension>
        </extensions>
      </trkpt>
      <trkpt lat="43.47280592657625675201416015625" lon="1.43416299484670162200927734375">
        <ele>246.399993896484375</ele>
        <time>2026-08-05T09:44:08.000Z</time>
        <extensions>
          <ns3:TrackPointExtension>
            <ns3:hr>70</ns3:hr>
            <ns3:cad>79</ns3:cad>
          </ns3:TrackPointExtension>
        </extensions>
      </trkpt>
      <trkpt lat="43.472796790301799774169921875" lon="1.4341619051992893218994140625">
        <ele>246.600006103515625</ele>
        <time>2026-08-05T09:44:09.000Z</time>
        <extensions>
          <ns3:TrackPointExtension>
            <ns3:hr>70</ns3:hr>
            <ns3:cad>79</ns3:cad>
          </ns3:TrackPointExtension>
        </extensions>
      </trkpt>
      <trkpt lat="43.47278798930346965789794921875" lon="1.4341639168560504913330078125">
        <ele>246.600006103515625</ele>
        <time>2026-08-05T09:44:10.000Z</time>
        <extensions>
          <ns3:TrackPointExtension>
            <ns3:hr>70</ns3:hr>
            <ns3:cad>40</ns3:cad>
          </ns3:TrackPointExtension>
        </extensions>
      </trkpt>
      <trkpt lat="43.472784049808979034423828125" lon="1.4341598935425281524658203125">
        <ele>246.600006103515625</ele>
        <time>2026-08-05T09:44:11.000Z</time>
        <extensions>
          <ns3:TrackPointExtension>
            <ns3:hr>71</ns3:hr>
            <ns3:cad>40</ns3:cad>
          </ns3:TrackPointExtension>
        </extensions>
      </trkpt>
      <trkpt lat="43.4727756679058074951171875" lon="1.434162743389606475830078125">
        <ele>246.600006103515625</ele>
        <time>2026-08-05T09:44:12.000Z</time>
        <extensions>
          <ns3:TrackPointExtension>
            <ns3:hr>71</ns3:hr>
            <ns3:cad>40</ns3:cad>
          </ns3:TrackPointExtension>
        </extensions>
      </trkpt>
      <trkpt lat="43.472767956554889678955078125" lon="1.43416752107441425323486328125">
        <ele>246.600006103515625</ele>
        <time>2026-08-05T09:44:13.000Z</time>
        <extensions>
          <ns3:TrackPointExtension>
            <ns3:hr>71</ns3:hr>
            <ns3:cad>0</ns3:cad>
          </ns3:TrackPointExtension>
        </extensions>
      </trkpt>
      <trkpt lat="43.47276317887008190155029296875" lon="1.4341655932366847991943359375">
        <ele>246.8000030517578125</ele>
        <time>2026-08-05T09:44:14.000Z</time>
        <extensions>
          <ns3:TrackPointExtension>
            <ns3:hr>71</ns3:hr>
            <ns3:cad>0</ns3:cad>
          </ns3:TrackPointExtension>
        </extensions>
      </trkpt>
      <trkpt lat="43.4727527014911174774169921875" lon="1.4341689459979534149169921875">
        <ele>246.8000030517578125</ele>
        <time>2026-08-05T09:44:15.000Z</time>
        <extensions>
          <ns3:TrackPointExtension>
            <ns3:hr>71</ns3:hr>
            <ns3:cad>0</ns3:cad>
          </ns3:TrackPointExtension>
        </extensions>
      </trkpt>
      <trkpt lat="43.47274222411215305328369140625" lon="1.43417246639728546142578125">
        <ele>247</ele>
        <time>2026-08-05T09:44:16.000Z</time>
        <extensions>
          <ns3:TrackPointExtension>
            <ns3:hr>72</ns3:hr>
            <ns3:cad>0</ns3:cad>
          </ns3:TrackPointExtension>
        </extensions>
      </trkpt>
      <trkpt lat="43.47273568622767925262451171875" lon="1.434171460568904876708984375">
        <ele>247</ele>
        <time>2026-08-05T09:44:17.000Z</time>
        <extensions>
          <ns3:TrackPointExtension>
            <ns3:hr>72</ns3:hr>
            <ns3:cad>40</ns3:cad>
          </ns3:TrackPointExtension>
        </extensions>
      </trkpt>
      <trkpt lat="43.4727273881435394287109375" lon="1.43417791463434696197509765625">
        <ele>247.1999969482421875</ele>
        <time>2026-08-05T09:44:18.000Z</time>
        <extensions>
          <ns3:TrackPointExtension>
            <ns3:hr>72</ns3:hr>
            <ns3:cad>40</ns3:cad>
          </ns3:TrackPointExtension>
        </extensions>
      </trkpt>
      <trkpt lat="43.47271758131682872772216796875" lon="1.43418864347040653228759765625">
        <ele>247.1999969482421875</ele>
        <time>2026-08-05T09:44:19.000Z</time>
        <extensions>
          <ns3:TrackPointExtension>
            <ns3:hr>72</ns3:hr>
            <ns3:cad>40</ns3:cad>
          </ns3:TrackPointExtension>
        </extensions>
      </trkpt>
      <trkpt lat="43.47271062433719635009765625" lon="1.434190906584262847900390625">
        <ele>247.1999969482421875</ele>
        <time>2026-08-05T09:44:20.000Z</time>
        <extensions>
          <ns3:TrackPointExtension>
            <ns3:hr>73</ns3:hr>
            <ns3:cad>42</ns3:cad>
          </ns3:TrackPointExtension>
        </extensions>
      </trkpt>
      <trkpt lat="43.47270215861499309539794921875" lon="1.43419467844069004058837890625">
        <ele>247.399993896484375</ele>
        <time>2026-08-05T09:44:21.000Z</time>
        <extensions>
          <ns3:TrackPointExtension>
            <ns3:hr>73</ns3:hr>
            <ns3:cad>42</ns3:cad>
          </ns3:TrackPointExtension>
        </extensions>
      </trkpt>
      <trkpt lat="43.47269184887409210205078125" lon="1.43420389853417873382568359375">
        <ele>247.399993896484375</ele>
        <time>2026-08-05T09:44:22.000Z</time>
        <extensions>
          <ns3:TrackPointExtension>
            <ns3:hr>74</ns3:hr>
            <ns3:cad>42</ns3:cad>
          </ns3:TrackPointExtension>
        </extensions>
      </trkpt>
      <trkpt lat="43.47268153913319110870361328125" lon="1.43420775420963764190673828125">
        <ele>247.399993896484375</ele>
        <time>2026-08-05T09:44:23.000Z</time>
        <extensions>
          <ns3:TrackPointExtension>
            <ns3:hr>74</ns3:hr>
            <ns3:cad>42</ns3:cad>
          </ns3:TrackPointExtension>
        </extensions>
      </trkpt>
      <trkpt lat="43.4726752527058124542236328125" lon="1.4342105202376842498779296875">
        <ele>247.600006103515625</ele>
        <time>2026-08-05T09:44:24.000Z</time>
        <extensions>
          <ns3:TrackPointExtension>
            <ns3:hr>75</ns3:hr>
            <ns3:cad>41</ns3:cad>
          </ns3:TrackPointExtension>
        </extensions>
      </trkpt>
      <trkpt lat="43.47266125492751598358154296875" lon="1.43420876003801822662353515625">
        <ele>247.600006103515625</ele>
        <time>2026-08-05T09:44:25.000Z</time>
        <extensions>
          <ns3:TrackPointExtension>
            <ns3:hr>76</ns3:hr>
            <ns3:cad>41</ns3:cad>
          </ns3:TrackPointExtension>
        </extensions>
      </trkpt>
      <trkpt lat="43.47265237011015415191650390625" lon="1.43421261571347713470458984375">
        <ele>247.600006103515625</ele>
        <time>2026-08-05T09:44:26.000Z</time>
        <extensions>
          <ns3:TrackPointExtension>
            <ns3:hr>77</ns3:hr>
            <ns3:cad>41</ns3:cad>
          </ns3:TrackPointExtension>
        </extensions>
      </trkpt>
      <trkpt lat="43.4726434014737606048583984375" lon="1.43421127460896968841552734375">
        <ele>247.600006103515625</ele>
        <time>2026-08-05T09:44:27.000Z</time>
        <extensions>
          <ns3:TrackPointExtension>
            <ns3:hr>78</ns3:hr>
            <ns3:cad>41</ns3:cad>
          </ns3:TrackPointExtension>
        </extensions>
      </trkpt>
      <trkpt lat="43.4726333431899547576904296875" lon="1.434215046465396881103515625">
        <ele>247.8000030517578125</ele>
        <time>2026-08-05T09:44:28.000Z</time>
        <extensions>
          <ns3:TrackPointExtension>
            <ns3:hr>79</ns3:hr>
            <ns3:cad>41</ns3:cad>
          </ns3:TrackPointExtension>
        </extensions>
      </trkpt>
      <trkpt lat="43.4726242907345294952392578125" lon="1.4342195726931095123291015625">
        <ele>247.8000030517578125</ele>
        <time>2026-08-05T09:44:29.000Z</time>
        <extensions>
          <ns3:TrackPointExtension>
            <ns3:hr>80</ns3:hr>
            <ns3:cad>42</ns3:cad>
          </ns3:TrackPointExtension>
        </extensions>
      </trkpt>
      <trkpt lat="43.47261465154588222503662109375" lon="1.4342202432453632354736328125">
        <ele>247.8000030517578125</ele>
        <time>2026-08-05T09:44:30.000Z</time>
        <extensions>
          <ns3:TrackPointExtension>
            <ns3:hr>81</ns3:hr>
            <ns3:cad>42</ns3:cad>
          </ns3:TrackPointExtension>
        </extensions>
      </trkpt>
      <trkpt lat="43.47260962240397930145263671875" lon="1.4342200756072998046875">
        <ele>247.8000030517578125</ele>
        <time>2026-08-05T09:44:31.000Z</time>
        <extensions>
          <ns3:TrackPointExtension>
            <ns3:hr>82</ns3:hr>
            <ns3:cad>42</ns3:cad>
          </ns3:TrackPointExtension>
        </extensions>
      </trkpt>
      <trkpt lat="43.47259671427309513092041015625" lon="1.434220410883426666259765625">
        <ele>247.8000030517578125</ele>
        <time>2026-08-05T09:44:32.000Z</time>
        <extensions>
          <ns3:TrackPointExtension>
            <ns3:hr>83</ns3:hr>
            <ns3:cad>40</ns3:cad>
          </ns3:TrackPointExtension>
        </extensions>
      </trkpt>
      <trkpt lat="43.47258850000798702239990234375" lon="1.434221751987934112548828125">
        <ele>247.8000030517578125</ele>
        <time>2026-08-05T09:44:33.000Z</time>
        <extensions>
          <ns3:TrackPointExtension>
            <ns3:hr>83</ns3:hr>
            <ns3:cad>40</ns3:cad>
          </ns3:TrackPointExtension>
        </extensions>
      </trkpt>
      <trkpt lat="43.4725793637335300445556640625" lon="1.43422367982566356658935546875">
        <ele>248</ele>
        <time>2026-08-05T09:44:34.000Z</time>
        <extensions>
          <ns3:TrackPointExtension>
            <ns3:hr>84</ns3:hr>
            <ns3:cad>42</ns3:cad>
          </ns3:TrackPointExtension>
        </extensions>
      </trkpt>
      <trkpt lat="43.4725691378116607666015625" lon="1.4342249371111392974853515625">
        <ele>248</ele>
        <time>2026-08-05T09:44:35.000Z</time>
        <extensions>
          <ns3:TrackPointExtension>
            <ns3:hr>85</ns3:hr>
            <ns3:cad>42</ns3:cad>
          </ns3:TrackPointExtension>
        </extensions>
      </trkpt>
      <trkpt lat="43.4725610911846160888671875" lon="1.43422284163534641265869140625">
        <ele>248</ele>
        <time>2026-08-05T09:44:36.000Z</time>
        <extensions>
          <ns3:TrackPointExtension>
            <ns3:hr>85</ns3:hr>
            <ns3:cad>43</ns3:cad>
          </ns3:TrackPointExtension>
        </extensions>
      </trkpt>
      <trkpt lat="43.47255581058561801910400390625" lon="1.43422317691147327423095703125">
        <ele>248</ele>
        <time>2026-08-05T09:44:37.000Z</time>
        <extensions>
          <ns3:TrackPointExtension>
            <ns3:hr>85</ns3:hr>
            <ns3:cad>43</ns3:cad>
          </ns3:TrackPointExtension>
        </extensions>
      </trkpt>
      <trkpt lat="43.47254826687276363372802734375" lon="1.4342205785214900970458984375">
        <ele>248</ele>
        <time>2026-08-05T09:44:38.000Z</time>
        <extensions>
          <ns3:TrackPointExtension>
            <ns3:hr>86</ns3:hr>
            <ns3:cad>43</ns3:cad>
          </ns3:TrackPointExtension>
        </extensions>
      </trkpt>
      <trkpt lat="43.4725423157215118408203125" lon="1.434222757816314697265625">
        <ele>248.1999969482421875</ele>
        <time>2026-08-05T09:44:39.000Z</time>
        <extensions>
          <ns3:TrackPointExtension>
            <ns3:hr>86</ns3:hr>
            <ns3:cad>42</ns3:cad>
          </ns3:TrackPointExtension>
        </extensions>
      </trkpt>
      <trkpt lat="43.4725361131131649017333984375" lon="1.4342225901782512664794921875">
        <ele>248.1999969482421875</ele>
        <time>2026-08-05T09:44:40.000Z</time>
        <extensions>
          <ns3:TrackPointExtension>
            <ns3:hr>86</ns3:hr>
            <ns3:cad>42</ns3:cad>
          </ns3:TrackPointExtension>
        </extensions>
      </trkpt>
      <trkpt lat="43.4725260548293590545654296875" lon="1.43422284163534641265869140625">
        <ele>248.1999969482421875</ele>
        <time>2026-08-05T09:44:41.000Z</time>
        <extensions>
          <ns3:TrackPointExtension>
            <ns3:hr>86</ns3:hr>
            <ns3:cad>43</ns3:cad>
          </ns3:TrackPointExtension>
        </extensions>
      </trkpt>
      <trkpt lat="43.47251658327877521514892578125" lon="1.434221081435680389404296875">
        <ele>248.1999969482421875</ele>
        <time>2026-08-05T09:44:42.000Z</time>
        <extensions>
          <ns3:TrackPointExtension>
            <ns3:hr>86</ns3:hr>
            <ns3:cad>43</ns3:cad>
          </ns3:TrackPointExtension>
        </extensions>
      </trkpt>
      <trkpt lat="43.47250769846141338348388671875" lon="1.4342225901782512664794921875">
        <ele>248.1999969482421875</ele>
        <time>2026-08-05T09:44:43.000Z</time>
        <extensions>
          <ns3:TrackPointExtension>
            <ns3:hr>86</ns3:hr>
            <ns3:cad>43</ns3:cad>
          </ns3:TrackPointExtension>
        </extensions>
      </trkpt>
      <trkpt lat="43.4724982269108295440673828125" lon="1.4342205785214900970458984375">
        <ele>248.1999969482421875</ele>
        <time>2026-08-05T09:44:44.000Z</time>
        <extensions>
          <ns3:TrackPointExtension>
            <ns3:hr>86</ns3:hr>
            <ns3:cad>77</ns3:cad>
          </ns3:TrackPointExtension>
        </extensions>
      </trkpt>
      <trkpt lat="43.47248724661767482757568359375" lon="1.43422200344502925872802734375">
        <ele>248.399993896484375</ele>
        <time>2026-08-05T09:44:45.000Z</time>
        <extensions>
          <ns3:TrackPointExtension>
            <ns3:hr>85</ns3:hr>
            <ns3:cad>78</ns3:cad>
          </ns3:TrackPointExtension>
        </extensions>
      </trkpt>
      <trkpt lat="43.47247735597193241119384765625" lon="1.43422150053083896636962890625">
        <ele>248.399993896484375</ele>
        <time>2026-08-05T09:44:46.000Z</time>
        <extensions>
          <ns3:TrackPointExtension>
            <ns3:hr>85</ns3:hr>
            <ns3:cad>79</ns3:cad>
          </ns3:TrackPointExtension>
        </extensions>
      </trkpt>
      <trkpt lat="43.47246780060231685638427734375" lon="1.43422116525471210479736328125">
        <ele>248.399993896484375</ele>
        <time>2026-08-05T09:44:47.000Z</time>
        <extensions>
          <ns3:TrackPointExtension>
            <ns3:hr>85</ns3:hr>
            <ns3:cad>79</ns3:cad>
          </ns3:TrackPointExtension>
        </extensions>
      </trkpt>
      <trkpt lat="43.47245723940432071685791015625" lon="1.43422082997858524322509765625">
        <ele>248.399993896484375</ele>
        <time>2026-08-05T09:44:48.000Z</time>
        <extensions>
          <ns3:TrackPointExtension>
            <ns3:hr>85</ns3:hr>
            <ns3:cad>41</ns3:cad>
          </ns3:TrackPointExtension>
        </extensions>
      </trkpt>
      <trkpt lat="43.47244868986308574676513671875" lon="1.4342199079692363739013671875">
        <ele>248.399993896484375</ele>
        <time>2026-08-05T09:44:49.000Z</time>
        <extensions>
          <ns3:TrackPointExtension>
            <ns3:hr>85</ns3:hr>
            <ns3:cad>41</ns3:cad>
          </ns3:TrackPointExtension>
        </extensions>
      </trkpt>
      <trkpt lat="43.4724392183125019073486328125" lon="1.43421915359795093536376953125">
        <ele>248.399993896484375</ele>
        <time>2026-08-05T09:44:50.000Z</time>
        <extensions>
          <ns3:TrackPointExtension>
            <ns3:hr>85</ns3:hr>
            <ns3:cad>42</ns3:cad>
          </ns3:TrackPointExtension>
        </extensions>
      </trkpt>
      <trkpt lat="43.47242907620966434478759765625" lon="1.4342199079692363739013671875">
        <ele>248.600006103515625</ele>
        <time>2026-08-05T09:44:51.000Z</time>
        <extensions>
          <ns3:TrackPointExtension>
            <ns3:hr>86</ns3:hr>
            <ns3:cad>42</ns3:cad>
          </ns3:TrackPointExtension>
        </extensions>
      </trkpt>
      <trkpt lat="43.47241667099297046661376953125" lon="1.4342225901782512664794921875">
        <ele>248.600006103515625</ele>
        <time>2026-08-05T09:44:52.000Z</time>
        <extensions>
          <ns3:TrackPointExtension>
            <ns3:hr>86</ns3:hr>
            <ns3:cad>42</ns3:cad>
          </ns3:TrackPointExtension>
        </extensions>
      </trkpt>
      <trkpt lat="43.4724055230617523193359375" lon="1.4342229254543781280517578125">
        <ele>248.600006103515625</ele>
        <time>2026-08-05T09:44:53.000Z</time>
        <extensions>
          <ns3:TrackPointExtension>
            <ns3:hr>85</ns3:hr>
            <ns3:cad>42</ns3:cad>
          </ns3:TrackPointExtension>
        </extensions>
      </trkpt>
      <trkpt lat="43.47239437513053417205810546875" lon="1.43422300927340984344482421875">
        <ele>248.600006103515625</ele>
        <time>2026-08-05T09:44:54.000Z</time>
        <extensions>
          <ns3:TrackPointExtension>
            <ns3:hr>84</ns3:hr>
            <ns3:cad>44</ns3:cad>
          </ns3:TrackPointExtension>
        </extensions>
      </trkpt>
      <trkpt lat="43.4723838977515697479248046875" lon="1.4342235960066318511962890625">
        <ele>248.8000030517578125</ele>
        <time>2026-08-05T09:44:55.000Z</time>
        <extensions>
          <ns3:TrackPointExtension>
            <ns3:hr>83</ns3:hr>
            <ns3:cad>44</ns3:cad>
          </ns3:TrackPointExtension>
        </extensions>
      </trkpt>
      <trkpt lat="43.47237526439130306243896484375" lon="1.43422476947307586669921875">
        <ele>248.8000030517578125</ele>
        <time>2026-08-05T09:44:56.000Z</time>
        <extensions>
          <ns3:TrackPointExtension>
            <ns3:hr>82</ns3:hr>
            <ns3:cad>44</ns3:cad>
          </ns3:TrackPointExtension>
        </extensions>
      </trkpt>
      <trkpt lat="43.47237057052552700042724609375" lon="1.43422535620629787445068359375">
        <ele>248.8000030517578125</ele>
        <time>2026-08-05T09:44:57.000Z</time>
        <extensions>
          <ns3:TrackPointExtension>
            <ns3:hr>81</ns3:hr>
            <ns3:cad>44</ns3:cad>
          </ns3:TrackPointExtension>
        </extensions>
      </trkpt>
      <trkpt lat="43.4723610989749431610107421875" lon="1.43422468565404415130615234375">
        <ele>248.8000030517578125</ele>
        <time>2026-08-05T09:44:58.000Z</time>
        <extensions>
          <ns3:TrackPointExtension>
            <ns3:hr>81</ns3:hr>
            <ns3:cad>44</ns3:cad>
          </ns3:TrackPointExtension>
        </extensions>
      </trkpt>
      <trkpt lat="43.47234928049147129058837890625" lon="1.4342272840440273284912109375">
        <ele>248.8000030517578125</ele>
        <time>2026-08-05T09:44:59.000Z</time>
        <extensions>
          <ns3:TrackPointExtension>
            <ns3:hr>81</ns3:hr>
            <ns3:cad>45</ns3:cad>
          </ns3:TrackPointExtension>
        </extensions>
      </trkpt>
      <trkpt lat="43.47234039567410945892333984375" lon="1.434226445853710174560546875">
        <ele>248.8000030517578125</ele>
        <time>2026-08-05T09:45:00.000Z</time>
        <extensions>
          <ns3:TrackPointExtension>
            <ns3:hr>81</ns3:hr>
            <ns3:cad>45</ns3:cad>
          </ns3:TrackPointExtension>
        </extensions>
      </trkpt>
      <trkpt lat="43.4723305888473987579345703125" lon="1.43422544002532958984375">
        <ele>248.8000030517578125</ele>
        <time>2026-08-05T09:45:01.000Z</time>
        <extensions>
          <ns3:TrackPointExtension>
            <ns3:hr>81</ns3:hr>
            <ns3:cad>44</ns3:cad>
          </ns3:TrackPointExtension>
        </extensions>
      </trkpt>
      <trkpt lat="43.47231893800199031829833984375" lon="1.43422342836856842041015625">
        <ele>248.8000030517578125</ele>
        <time>2026-08-05T09:45:02.000Z</time>
        <extensions>
          <ns3:TrackPointExtension>
            <ns3:hr>82</ns3:hr>
            <ns3:cad>44</ns3:cad>
          </ns3:TrackPointExtension>
        </extensions>
      </trkpt>
      <trkpt lat="43.47230753861367702484130859375" lon="1.43422300927340984344482421875">
        <ele>248.8000030517578125</ele>
        <time>2026-08-05T09:45:03.000Z</time>
        <extensions>
          <ns3:TrackPointExtension>
            <ns3:hr>81</ns3:hr>
            <ns3:cad>44</ns3:cad>
          </ns3:TrackPointExtension>
        </extensions>
      </trkpt>
      <trkpt lat="43.47229949198663234710693359375" lon="1.43422317691147327423095703125">
        <ele>248.8000030517578125</ele>
        <time>2026-08-05T09:45:04.000Z</time>
        <extensions>
          <ns3:TrackPointExtension>
            <ns3:hr>81</ns3:hr>
            <ns3:cad>44</ns3:cad>
          </ns3:TrackPointExtension>
        </extensions>
      </trkpt>
      <trkpt lat="43.472285158932209014892578125" lon="1.43421806395053863525390625">
        <ele>248.8000030517578125</ele>
        <time>2026-08-05T09:45:05.000Z</time>
        <extensions>
          <ns3:TrackPointExtension>
            <ns3:hr>81</ns3:hr>
            <ns3:cad>44</ns3:cad>
          </ns3:TrackPointExtension>
        </extensions>
      </trkpt>
      <trkpt lat="43.4722776152193546295166015625" lon="1.43421831540763378143310546875">
        <ele>248.8000030517578125</ele>
        <time>2026-08-05T09:45:06.000Z</time>
        <extensions>
          <ns3:TrackPointExtension>
            <ns3:hr>81</ns3:hr>
            <ns3:cad>43</ns3:cad>
          </ns3:TrackPointExtension>
        </extensions>
      </trkpt>
      <trkpt lat="43.47226764075458049774169921875" lon="1.434217728674411773681640625">
        <ele>249</ele>
        <time>2026-08-05T09:45:07.000Z</time>
        <extensions>
          <ns3:TrackPointExtension>
            <ns3:hr>81</ns3:hr>
            <ns3:cad>43</ns3:cad>
          </ns3:TrackPointExtension>
        </extensions>
      </trkpt>
      <trkpt lat="43.47225875593721866607666015625" lon="1.43421546556055545806884765625">
        <ele>249</ele>
        <time>2026-08-05T09:45:08.000Z</time>
        <extensions>
          <ns3:TrackPointExtension>
            <ns3:hr>80</ns3:hr>
            <ns3:cad>44</ns3:cad>
          </ns3:TrackPointExtension>
        </extensions>
      </trkpt>
      <trkpt lat="43.472250290215015411376953125" lon="1.4342118613421916961669921875">
        <ele>249</ele>
        <time>2026-08-05T09:45:09.000Z</time>
        <extensions>
          <ns3:TrackPointExtension>
            <ns3:hr>80</ns3:hr>
            <ns3:cad>44</ns3:cad>
          </ns3:TrackPointExtension>
        </extensions>
      </trkpt>
      <trkpt lat="43.4722434170544147491455078125" lon="1.4342118613421916961669921875">
        <ele>249.1999969482421875</ele>
        <time>2026-08-05T09:45:10.000Z</time>
        <extensions>
          <ns3:TrackPointExtension>
            <ns3:hr>80</ns3:hr>
            <ns3:cad>44</ns3:cad>
          </ns3:TrackPointExtension>
        </extensions>
      </trkpt>
      <trkpt lat="43.4722350351512432098388671875" lon="1.434214375913143157958984375">
        <ele>249.1999969482421875</ele>
        <time>2026-08-05T09:45:11.000Z</time>
        <extensions>
          <ns3:TrackPointExtension>
            <ns3:hr>81</ns3:hr>
            <ns3:cad>0</ns3:cad>
          </ns3:TrackPointExtension>
        </extensions>
      </trkpt>
      <trkpt lat="43.4722284972667694091796875" lon="1.43421940505504608154296875">
        <ele>249.1999969482421875</ele>
        <time>2026-08-05T09:45:12.000Z</time>
        <extensions>
          <ns3:TrackPointExtension>
            <ns3:hr>81</ns3:hr>
            <ns3:cad>0</ns3:cad>
          </ns3:TrackPointExtension>
        </extensions>
      </trkpt>
      <trkpt lat="43.4722206182777881622314453125" lon="1.43421404063701629638671875">
        <ele>249.1999969482421875</ele>
        <time>2026-08-05T09:45:13.000Z</time>
        <extensions>
          <ns3:TrackPointExtension>
            <ns3:hr>81</ns3:hr>
            <ns3:cad>0</ns3:cad>
          </ns3:TrackPointExtension>
        </extensions>
      </trkpt>
      <trkpt lat="43.47221265546977519989013671875" lon="1.43421311862766742706298828125">
        <ele>249.1999969482421875</ele>
        <time>2026-08-05T09:45:14.000Z</time>
        <extensions>
          <ns3:TrackPointExtension>
            <ns3:hr>82</ns3:hr>
            <ns3:cad>44</ns3:cad>
          </ns3:TrackPointExtension>
        </extensions>
      </trkpt>
      <trkpt lat="43.47220343537628650665283203125" lon="1.4342133700847625732421875">
        <ele>249</ele>
        <time>2026-08-05T09:45:15.000Z</time>
        <extensions>
          <ns3:TrackPointExtension>
            <ns3:hr>82</ns3:hr>
            <ns3:cad>44</ns3:cad>
          </ns3:TrackPointExtension>
        </extensions>
      </trkpt>
      <trkpt lat="43.47219706512987613677978515625" lon="1.43421362154185771942138671875">
        <ele>249</ele>
        <time>2026-08-05T09:45:16.000Z</time>
        <extensions>
          <ns3:TrackPointExtension>
            <ns3:hr>82</ns3:hr>
            <ns3:cad>44</ns3:cad>
          </ns3:TrackPointExtension>
        </extensions>
      </trkpt>
      <trkpt lat="43.47219002433121204376220703125" lon="1.43421496264636516571044921875">
        <ele>249</ele>
        <time>2026-08-05T09:45:17.000Z</time>
        <extensions>
          <ns3:TrackPointExtension>
            <ns3:hr>82</ns3:hr>
            <ns3:cad>44</ns3:cad>
          </ns3:TrackPointExtension>
        </extensions>
      </trkpt>
      <trkpt lat="43.47218298353254795074462890625" lon="1.4342178963124752044677734375">
        <ele>249</ele>
        <time>2026-08-05T09:45:18.000Z</time>
        <extensions>
          <ns3:TrackPointExtension>
            <ns3:hr>82</ns3:hr>
            <ns3:cad>44</ns3:cad>
          </ns3:TrackPointExtension>
        </extensions>
      </trkpt>
      <trkpt lat="43.4721770323812961578369140625" lon="1.434217058122158050537109375">
        <ele>248.8000030517578125</ele>
        <time>2026-08-05T09:45:19.000Z</time>
        <extensions>
          <ns3:TrackPointExtension>
            <ns3:hr>82</ns3:hr>
            <ns3:cad>44</ns3:cad>
          </ns3:TrackPointExtension>
        </extensions>
      </trkpt>
      <trkpt lat="43.47216806374490261077880859375" lon="1.43421798013150691986083984375">
        <ele>248.8000030517578125</ele>
        <time>2026-08-05T09:45:20.000Z</time>
        <extensions>
          <ns3:TrackPointExtension>
            <ns3:hr>82</ns3:hr>
            <ns3:cad>44</ns3:cad>
          </ns3:TrackPointExtension>
        </extensions>
      </trkpt>
      <trkpt lat="43.4721602685749530792236328125" lon="1.4342189021408557891845703125">
        <ele>248.8000030517578125</ele>
        <time>2026-08-05T09:45:21.000Z</time>
        <extensions>
          <ns3:TrackPointExtension>
            <ns3:hr>82</ns3:hr>
            <ns3:cad>42</ns3:cad>
          </ns3:TrackPointExtension>
        </extensions>
      </trkpt>
      <trkpt lat="43.4721532277762889862060546875" lon="1.43421831540763378143310546875">
        <ele>248.8000030517578125</ele>
        <time>2026-08-05T09:45:22.000Z</time>
        <extensions>
          <ns3:TrackPointExtension>
            <ns3:hr>82</ns3:hr>
            <ns3:cad>42</ns3:cad>
          </ns3:TrackPointExtension>
        </extensions>
      </trkpt>
      <trkpt lat="43.47215029411017894744873046875" lon="1.43421479500830173492431640625">
        <ele>248.600006103515625</ele>
        <time>2026-08-05T09:45:23.000Z</time>
        <extensions>
          <ns3:TrackPointExtension>
            <ns3:hr>82</ns3:hr>
            <ns3:cad>41</ns3:cad>
          </ns3:TrackPointExtension>
        </extensions>
      </trkpt>
      <trkpt lat="43.47214643843472003936767578125" lon="1.4342118613421916961669921875">
        <ele>248.600006103515625</ele>
        <time>2026-08-05T09:45:24.000Z</time>
        <extensions>
          <ns3:TrackPointExtension>
            <ns3:hr>82</ns3:hr>
            <ns3:cad>41</ns3:cad>
          </ns3:TrackPointExtension>
        </extensions>
      </trkpt>
      <trkpt lat="43.4721465222537517547607421875" lon="1.4342068322002887725830078125">
        <ele>248.600006103515625</ele>
        <time>2026-08-05T09:45:25.000Z</time>
        <extensions>
          <ns3:TrackPointExtension>
            <ns3:hr>82</ns3:hr>
            <ns3:cad>0</ns3:cad>
          </ns3:TrackPointExtension>
        </extensions>
      </trkpt>
      <trkpt lat="43.4721438400447368621826171875" lon="1.4342121966183185577392578125">
        <ele>248.399993896484375</ele>
        <time>2026-08-05T09:45:26.000Z</time>
        <extensions>
          <ns3:TrackPointExtension>
            <ns3:hr>81</ns3:hr>
            <ns3:cad>0</ns3:cad>
          </ns3:TrackPointExtension>
        </extensions>
      </trkpt>
      <trkpt lat="43.47213638015091419219970703125" lon="1.43421546556055545806884765625">
        <ele>248.399993896484375</ele>
        <time>2026-08-05T09:45:27.000Z</time>
        <extensions>
          <ns3:TrackPointExtension>
            <ns3:hr>82</ns3:hr>
            <ns3:cad>0</ns3:cad>
          </ns3:TrackPointExtension>
        </extensions>
      </trkpt>
      <trkpt lat="43.4721297584474086761474609375" lon="1.4342111907899379730224609375">
        <ele>248.399993896484375</ele>
        <time>2026-08-05T09:45:28.000Z</time>
        <extensions>
          <ns3:TrackPointExtension>
            <ns3:hr>82</ns3:hr>
            <ns3:cad>0</ns3:cad>
          </ns3:TrackPointExtension>
        </extensions>
      </trkpt>
      <trkpt lat="43.472123555839061737060546875" lon="1.43420540727674961090087890625">
        <ele>248.399993896484375</ele>
        <time>2026-08-05T09:45:29.000Z</time>
        <extensions>
          <ns3:TrackPointExtension>
            <ns3:hr>81</ns3:hr>
            <ns3:cad>0</ns3:cad>
          </ns3:TrackPointExtension>
        </extensions>
      </trkpt>
      <trkpt lat="43.47211643122136592864990234375" lon="1.434200294315814971923828125">
        <ele>248.399993896484375</ele>
        <time>2026-08-05T09:45:30.000Z</time>
        <extensions>
          <ns3:TrackPointExtension>
            <ns3:hr>81</ns3:hr>
            <ns3:cad>0</ns3:cad>
          </ns3:TrackPointExtension>
        </extensions>
      </trkpt>
      <trkpt lat="43.4721099771559238433837890625" lon="1.43419836647808551788330078125">
        <ele>248.399993896484375</ele>
        <time>2026-08-05T09:45:31.000Z</time>
        <extensions>
          <ns3:TrackPointExtension>
            <ns3:hr>81</ns3:hr>
            <ns3:cad>0</ns3:cad>
          </ns3:TrackPointExtension>
        </extensions>
      </trkpt>
      <trkpt lat="43.472100086510181427001953125" lon="1.43419635482132434844970703125">
        <ele>248.399993896484375</ele>
        <time>2026-08-05T09:45:32.000Z</time>
        <extensions>
          <ns3:TrackPointExtension>
            <ns3:hr>81</ns3:hr>
            <ns3:cad>0</ns3:cad>
          </ns3:TrackPointExtension>
        </extensions>
      </trkpt>
      <trkpt lat="43.47209296189248561859130859375" lon="1.434194929897785186767578125">
        <ele>248.1999969482421875</ele>
        <time>2026-08-05T09:45:33.000Z</time>
        <extensions>
          <ns3:TrackPointExtension>
            <ns3:hr>82</ns3:hr>
            <ns3:cad>0</ns3:cad>
          </ns3:TrackPointExtension>
        </extensions>
      </trkpt>
      <trkpt lat="43.4720841608941555023193359375" lon="1.434195935726165771484375">
        <ele>248.1999969482421875</ele>
        <time>2026-08-05T09:45:34.000Z</time>
        <extensions>
          <ns3:TrackPointExtension>
            <ns3:hr>81</ns3:hr>
            <ns3:cad>0</ns3:cad>
          </ns3:TrackPointExtension>
        </extensions>
      </trkpt>
      <trkpt lat="43.47207502461969852447509765625" lon="1.434195600450038909912109375">
        <ele>248</ele>
        <time>2026-08-05T09:45:35.000Z</time>
        <extensions>
          <ns3:TrackPointExtension>
            <ns3:hr>78</ns3:hr>
            <ns3:cad>0</ns3:cad>
          </ns3:TrackPointExtension>
        </extensions>
      </trkpt>
      <trkpt lat="43.47206982783973217010498046875" lon="1.43418855965137481689453125">
        <ele>248</ele>
        <time>2026-08-05T09:45:36.000Z</time>
        <extensions>
          <ns3:TrackPointExtension>
            <ns3:hr>71</ns3:hr>
            <ns3:cad>0</ns3:cad>
          </ns3:TrackPointExtension>
        </extensions>
      </trkpt>
      <trkpt lat="43.47206379286944866180419921875" lon="1.4341860450804233551025390625">
        <ele>248</ele>
        <time>2026-08-05T09:45:37.000Z</time>
        <extensions>
          <ns3:TrackPointExtension>
            <ns3:hr>67</ns3:hr>
            <ns3:cad>44</ns3:cad>
          </ns3:TrackPointExtension>
        </extensions>
      </trkpt>
      <trkpt lat="43.47205759026110172271728515625" lon="1.434185542166233062744140625">
        <ele>248</ele>
        <time>2026-08-05T09:45:38.000Z</time>
        <extensions>
          <ns3:TrackPointExtension>
            <ns3:hr>65</ns3:hr>
            <ns3:cad>44</ns3:cad>
          </ns3:TrackPointExtension>
        </extensions>
      </trkpt>
      <trkpt lat="43.47205256111919879913330078125" lon="1.43418260850012302398681640625">
        <ele>248</ele>
        <time>2026-08-05T09:45:39.000Z</time>
        <extensions>
          <ns3:TrackPointExtension>
            <ns3:hr>65</ns3:hr>
            <ns3:cad>44</ns3:cad>
          </ns3:TrackPointExtension>
        </extensions>
      </trkpt>
      <trkpt lat="43.4720496274530887603759765625" lon="1.43418143503367900848388671875">
        <ele>248</ele>
        <time>2026-08-05T09:45:40.000Z</time>
        <extensions>
          <ns3:TrackPointExtension>
            <ns3:hr>65</ns3:hr>
            <ns3:cad>0</ns3:cad>
          </ns3:TrackPointExtension>
        </extensions>
      </trkpt>
      <trkpt lat="43.472046442329883575439453125" lon="1.43418311141431331634521484375">
        <ele>247.8000030517578125</ele>
        <time>2026-08-05T09:45:41.000Z</time>
        <extensions>
          <ns3:TrackPointExtension>
            <ns3:hr>65</ns3:hr>
            <ns3:cad>0</ns3:cad>
          </ns3:TrackPointExtension>
        </extensions>
      </trkpt>
      <trkpt lat="43.47204552032053470611572265625" lon="1.43418814055621623992919921875">
        <ele>247.8000030517578125</ele>
        <time>2026-08-05T09:45:42.000Z</time>
        <extensions>
          <ns3:TrackPointExtension>
            <ns3:hr>65</ns3:hr>
            <ns3:cad>0</ns3:cad>
          </ns3:TrackPointExtension>
        </extensions>
      </trkpt>
      <trkpt lat="43.47204166464507579803466796875" lon="1.434191577136516571044921875">
        <ele>247.8000030517578125</ele>
        <time>2026-08-05T09:45:43.000Z</time>
        <extensions>
          <ns3:TrackPointExtension>
            <ns3:hr>64</ns3:hr>
            <ns3:cad>0</ns3:cad>
          </ns3:TrackPointExtension>
        </extensions>
      </trkpt>
      <trkpt lat="43.47203663550317287445068359375" lon="1.4341981150209903717041015625">
        <ele>248</ele>
        <time>2026-08-05T09:45:44.000Z</time>
        <extensions>
          <ns3:TrackPointExtension>
            <ns3:hr>64</ns3:hr>
            <ns3:cad>0</ns3:cad>
          </ns3:TrackPointExtension>
        </extensions>
      </trkpt>
      <trkpt lat="43.4720318578183650970458984375" lon="1.43420088104903697967529296875">
        <ele>248</ele>
        <time>2026-08-05T09:45:45.000Z</time>
        <extensions>
          <ns3:TrackPointExtension>
            <ns3:hr>64</ns3:hr>
            <ns3:cad>0</ns3:cad>
          </ns3:TrackPointExtension>
        </extensions>
      </trkpt>
      <trkpt lat="43.4720281697809696197509765625" lon="1.43420398235321044921875">
        <ele>248.1999969482421875</ele>
        <time>2026-08-05T09:45:46.000Z</time>
        <extensions>
          <ns3:TrackPointExtension>
            <ns3:hr>64</ns3:hr>
            <ns3:cad>0</ns3:cad>
          </ns3:TrackPointExtension>
        </extensions>
      </trkpt>
      <trkpt lat="43.47202372737228870391845703125" lon="1.4342038147151470184326171875">
        <ele>248.1999969482421875</ele>
        <time>2026-08-05T09:45:47.000Z</time>
        <extensions>
          <ns3:TrackPointExtension>
            <ns3:hr>64</ns3:hr>
            <ns3:cad>0</ns3:cad>
          </ns3:TrackPointExtension>
        </extensions>
      </trkpt>
      <trkpt lat="43.47201861441135406494140625" lon="1.43419928848743438720703125">
        <ele>248</ele>
        <time>2026-08-05T09:45:48.000Z</time>
        <extensions>
          <ns3:TrackPointExtension>
            <ns3:hr>64</ns3:hr>
            <ns3:cad>0</ns3:cad>
          </ns3:TrackPointExtension>
        </extensions>
      </trkpt>
      <trkpt lat="43.47201232798397541046142578125" lon="1.434195935726165771484375">
        <ele>248</ele>
        <time>2026-08-05T09:45:49.000Z</time>
        <extensions>
          <ns3:TrackPointExtension>
            <ns3:hr>63</ns3:hr>
            <ns3:cad>0</ns3:cad>
          </ns3:TrackPointExtension>
        </extensions>
      </trkpt>
      <trkpt lat="43.47200453281402587890625" lon="1.43420155160129070281982421875">
        <ele>247.8000030517578125</ele>
        <time>2026-08-05T09:45:50.000Z</time>
        <extensions>
          <ns3:TrackPointExtension>
            <ns3:hr>63</ns3:hr>
            <ns3:cad>0</ns3:cad>
          </ns3:TrackPointExtension>
        </extensions>
      </trkpt>
      <trkpt lat="43.47199908457696437835693359375" lon="1.434209346771240234375">
        <ele>247.8000030517578125</ele>
        <time>2026-08-05T09:45:51.000Z</time>
        <extensions>
          <ns3:TrackPointExtension>
            <ns3:hr>64</ns3:hr>
            <ns3:cad>0</ns3:cad>
          </ns3:TrackPointExtension>
        </extensions>
      </trkpt>
      <trkpt lat="43.47199581563472747802734375" lon="1.4342175610363483428955078125">
        <ele>247.8000030517578125</ele>
        <time>2026-08-05T09:45:52.000Z</time>
        <extensions>
          <ns3:TrackPointExtension>
            <ns3:hr>63</ns3:hr>
            <ns3:cad>0</ns3:cad>
          </ns3:TrackPointExtension>
        </extensions>
      </trkpt>
      <trkpt lat="43.47199304960668087005615234375" lon="1.43422837369143962860107421875">
        <ele>247.8000030517578125</ele>
        <time>2026-08-05T09:45:53.000Z</time>
        <extensions>
          <ns3:TrackPointExtension>
            <ns3:hr>63</ns3:hr>
            <ns3:cad>0</ns3:cad>
          </ns3:TrackPointExtension>
        </extensions>
      </trkpt>
      <trkpt lat="43.47198768518865108489990234375" lon="1.4342348277568817138671875">
        <ele>247.600006103515625</ele>
        <time>2026-08-05T09:45:54.000Z</time>
        <extensions>
          <ns3:TrackPointExtension>
            <ns3:hr>64</ns3:hr>
            <ns3:cad>0</ns3:cad>
          </ns3:TrackPointExtension>
        </extensions>
      </trkpt>
      <trkpt lat="43.4719772078096866607666015625" lon="1.43423818051815032958984375">
        <ele>247.600006103515625</ele>
        <time>2026-08-05T09:45:55.000Z</time>
        <extensions>
          <ns3:TrackPointExtension>
            <ns3:hr>64</ns3:hr>
            <ns3:cad>0</ns3:cad>
          </ns3:TrackPointExtension>
        </extensions>
      </trkpt>
      <trkpt lat="43.4719694964587688446044921875" lon="1.4342428743839263916015625">
        <ele>247.600006103515625</ele>
        <time>2026-08-05T09:45:56.000Z</time>
        <extensions>
          <ns3:TrackPointExtension>
            <ns3:hr>65</ns3:hr>
            <ns3:cad>0</ns3:cad>
          </ns3:TrackPointExtension>
        </extensions>
      </trkpt>
      <trkpt lat="43.4719631262123584747314453125" lon="1.43424195237457752227783203125">
        <ele>247.399993896484375</ele>
        <time>2026-08-05T09:45:57.000Z</time>
        <extensions>
          <ns3:TrackPointExtension>
            <ns3:hr>65</ns3:hr>
            <ns3:cad>0</ns3:cad>
          </ns3:TrackPointExtension>
        </extensions>
      </trkpt>
      <trkpt lat="43.4719577617943286895751953125" lon="1.4342520944774150848388671875">
        <ele>247.399993896484375</ele>
        <time>2026-08-05T09:45:58.000Z</time>
        <extensions>
          <ns3:TrackPointExtension>
            <ns3:hr>65</ns3:hr>
            <ns3:cad>0</ns3:cad>
          </ns3:TrackPointExtension>
        </extensions>
      </trkpt>
      <trkpt lat="43.47195466049015522003173828125" lon="1.43426366150379180908203125">
        <ele>247.399993896484375</ele>
        <time>2026-08-05T09:45:59.000Z</time>
        <extensions>
          <ns3:TrackPointExtension>
            <ns3:hr>64</ns3:hr>
            <ns3:cad>0</ns3:cad>
          </ns3:TrackPointExtension>
        </extensions>
      </trkpt>
      <trkpt lat="43.47195114009082317352294921875" lon="1.4342695288360118865966796875">
        <ele>247.600006103515625</ele>
        <time>2026-08-05T09:46:00.000Z</time>
        <extensions>
          <ns3:TrackPointExtension>
            <ns3:hr>64</ns3:hr>
            <ns3:cad>0</ns3:cad>
          </ns3:TrackPointExtension>
        </extensions>
      </trkpt>
      <trkpt lat="43.4719473682343959808349609375" lon="1.43427212722599506378173828125">
        <ele>247.399993896484375</ele>
        <time>2026-08-05T09:46:01.000Z</time>
        <extensions>
          <ns3:TrackPointExtension>
            <ns3:hr>64</ns3:hr>
            <ns3:cad>0</ns3:cad>
          </ns3:TrackPointExtension>
        </extensions>
      </trkpt>
      <trkpt lat="43.4719483740627765655517578125" lon="1.43427279777824878692626953125">
        <ele>247.399993896484375</ele>
        <time>2026-08-05T09:46:02.000Z</time>
        <extensions>
          <ns3:TrackPointExtension>
            <ns3:hr>64</ns3:hr>
            <ns3:cad>0</ns3:cad>
          </ns3:TrackPointExtension>
        </extensions>
      </trkpt>
      <trkpt lat="43.47194829024374485015869140625" lon="1.4342728815972805023193359375">
        <ele>247.1999969482421875</ele>
        <time>2026-08-05T09:46:03.000Z</time>
        <extensions>
          <ns3:TrackPointExtension>
            <ns3:hr>63</ns3:hr>
            <ns3:cad>0</ns3:cad>
          </ns3:TrackPointExtension>
        </extensions>
      </trkpt>
      <trkpt lat="43.47194829024374485015869140625" lon="1.4342728815972805023193359375">
        <ele>247.1999969482421875</ele>
        <time>2026-08-05T09:46:04.000Z</time>
        <extensions>
          <ns3:TrackPointExtension>
            <ns3:hr>62</ns3:hr>
            <ns3:cad>0</ns3:cad>
          </ns3:TrackPointExtension>
        </extensions>
      </trkpt>
      <trkpt lat="43.47194829024374485015869140625" lon="1.43427296541631221771240234375">
        <ele>247</ele>
        <time>2026-08-05T09:46:05.000Z</time>
        <extensions>
          <ns3:TrackPointExtension>
            <ns3:hr>62</ns3:hr>
            <ns3:cad>0</ns3:cad>
          </ns3:TrackPointExtension>
        </extensions>
      </trkpt>
      <trkpt lat="43.471940495073795318603515625" lon="1.434256620705127716064453125">
        <ele>247</ele>
        <time>2026-08-05T09:46:06.000Z</time>
        <extensions>
          <ns3:TrackPointExtension>
            <ns3:hr>62</ns3:hr>
            <ns3:cad>0</ns3:cad>
          </ns3:TrackPointExtension>
        </extensions>
      </trkpt>
      <trkpt lat="43.47194829024374485015869140625" lon="1.4342728815972805023193359375">
        <ele>247</ele>
        <time>2026-08-05T09:46:07.000Z</time>
        <extensions>
          <ns3:TrackPointExtension>
            <ns3:hr>63</ns3:hr>
            <ns3:cad>0</ns3:cad>
          </ns3:TrackPointExtension>
        </extensions>
      </trkpt>
      <trkpt lat="43.47194829024374485015869140625" lon="1.4342728815972805023193359375">
        <ele>247</ele>
        <time>2026-08-05T09:46:08.000Z</time>
        <extensions>
          <ns3:TrackPointExtension>
            <ns3:hr>63</ns3:hr>
            <ns3:cad>0</ns3:cad>
          </ns3:TrackPointExtension>
        </extensions>
      </trkpt>
      <trkpt lat="43.47193948924541473388671875" lon="1.4342616498470306396484375">
        <ele>247</ele>
        <time>2026-08-05T09:46:09.000Z</time>
        <extensions>
          <ns3:TrackPointExtension>
            <ns3:hr>64</ns3:hr>
            <ns3:cad>0</ns3:cad>
          </ns3:TrackPointExtension>
        </extensions>
      </trkpt>
      <trkpt lat="43.4719389863312244415283203125" lon="1.43426500260829925537109375">
        <ele>247</ele>
        <time>2026-08-05T09:46:10.000Z</time>
        <extensions>
          <ns3:TrackPointExtension>
            <ns3:hr>64</ns3:hr>
            <ns3:cad>0</ns3:cad>
          </ns3:TrackPointExtension>
        </extensions>
      </trkpt>
      <trkpt lat="43.4719306044280529022216796875" lon="1.43426089547574520111083984375">
        <ele>247</ele>
        <time>2026-08-05T09:46:11.000Z</time>
        <extensions>
          <ns3:TrackPointExtension>
            <ns3:hr>64</ns3:hr>
            <ns3:cad>0</ns3:cad>
          </ns3:TrackPointExtension>
        </extensions>
      </trkpt>
      <trkpt lat="43.4719255752861499786376953125" lon="1.4342484064400196075439453125">
        <ele>247</ele>
        <time>2026-08-05T09:46:12.000Z</time>
        <extensions>
          <ns3:TrackPointExtension>
            <ns3:hr>65</ns3:hr>
            <ns3:cad>0</ns3:cad>
          </ns3:TrackPointExtension>
        </extensions>
      </trkpt>
      <trkpt lat="43.47192347981035709381103515625" lon="1.43423549830913543701171875">
        <ele>247</ele>
        <time>2026-08-05T09:46:13.000Z</time>
        <extensions>
          <ns3:TrackPointExtension>
            <ns3:hr>67</ns3:hr>
            <ns3:cad>0</ns3:cad>
          </ns3:TrackPointExtension>
        </extensions>
      </trkpt>
      <trkpt lat="43.47192264162003993988037109375" lon="1.4342195726931095123291015625">
        <ele>247</ele>
        <time>2026-08-05T09:46:14.000Z</time>
        <extensions>
          <ns3:TrackPointExtension>
            <ns3:hr>69</ns3:hr>
            <ns3:cad>0</ns3:cad>
          </ns3:TrackPointExtension>
        </extensions>
      </trkpt>
      <trkpt lat="43.47191669046878814697265625" lon="1.43420741893351078033447265625">
        <ele>247</ele>
        <time>2026-08-05T09:46:15.000Z</time>
        <extensions>
          <ns3:TrackPointExtension>
            <ns3:hr>69</ns3:hr>
            <ns3:cad>48</ns3:cad>
          </ns3:TrackPointExtension>
        </extensions>
      </trkpt>
      <trkpt lat="43.471912331879138946533203125" lon="1.43419987522065639495849609375">
        <ele>247</ele>
        <time>2026-08-05T09:46:16.000Z</time>
        <extensions>
          <ns3:TrackPointExtension>
            <ns3:hr>69</ns3:hr>
            <ns3:cad>48</ns3:cad>
          </ns3:TrackPointExtension>
        </extensions>
      </trkpt>
      <trkpt lat="43.47190839238464832305908203125" lon="1.434188894927501678466796875">
        <ele>247</ele>
        <time>2026-08-05T09:46:17.000Z</time>
        <extensions>
          <ns3:TrackPointExtension>
            <ns3:hr>69</ns3:hr>
            <ns3:cad>48</ns3:cad>
          </ns3:TrackPointExtension>
        </extensions>
      </trkpt>
      <trkpt lat="43.47190487198531627655029296875" lon="1.4341729693114757537841796875">
        <ele>247</ele>
        <time>2026-08-05T09:46:18.000Z</time>
        <extensions>
          <ns3:TrackPointExtension>
            <ns3:hr>70</ns3:hr>
            <ns3:cad>48</ns3:cad>
          </ns3:TrackPointExtension>
        </extensions>
      </trkpt>
      <trkpt lat="43.4719027765095233917236328125" lon="1.4341624081134796142578125">
        <ele>247</ele>
        <time>2026-08-05T09:46:19.000Z</time>
        <extensions>
          <ns3:TrackPointExtension>
            <ns3:hr>70</ns3:hr>
            <ns3:cad>48</ns3:cad>
          </ns3:TrackPointExtension>
        </extensions>
      </trkpt>
      <trkpt lat="43.47190151922404766082763671875" lon="1.434148661792278289794921875">
        <ele>247</ele>
        <time>2026-08-05T09:46:20.000Z</time>
        <extensions>
          <ns3:TrackPointExtension>
            <ns3:hr>71</ns3:hr>
            <ns3:cad>47</ns3:cad>
          </ns3:TrackPointExtension>
        </extensions>
      </trkpt>
      <trkpt lat="43.4718997590243816375732421875" lon="1.43413214944303035736083984375">
        <ele>247</ele>
        <time>2026-08-05T09:46:21.000Z</time>
        <extensions>
          <ns3:TrackPointExtension>
            <ns3:hr>71</ns3:hr>
            <ns3:cad>46</ns3:cad>
          </ns3:TrackPointExtension>
        </extensions>
      </trkpt>
      <trkpt lat="43.47189749591052532196044921875" lon="1.4341163076460361480712890625">
        <ele>247</ele>
        <time>2026-08-05T09:46:22.000Z</time>
        <extensions>
          <ns3:TrackPointExtension>
            <ns3:hr>71</ns3:hr>
            <ns3:cad>45</ns3:cad>
          </ns3:TrackPointExtension>
        </extensions>
      </trkpt>
      <trkpt lat="43.47189984284341335296630859375" lon="1.43410515971481800079345703125">
        <ele>247</ele>
        <time>2026-08-05T09:46:23.000Z</time>
        <extensions>
          <ns3:TrackPointExtension>
            <ns3:hr>72</ns3:hr>
            <ns3:cad>45</ns3:cad>
          </ns3:TrackPointExtension>
        </extensions>
      </trkpt>
      <trkpt lat="43.471900932490825653076171875" lon="1.434095688164234161376953125">
        <ele>247</ele>
        <time>2026-08-05T09:46:24.000Z</time>
        <extensions>
          <ns3:TrackPointExtension>
            <ns3:hr>73</ns3:hr>
            <ns3:cad>45</ns3:cad>
          </ns3:TrackPointExtension>
        </extensions>
      </trkpt>
      <trkpt lat="43.47189900465309619903564453125" lon="1.43408529460430145263671875">
        <ele>247.1999969482421875</ele>
        <time>2026-08-05T09:46:25.000Z</time>
        <extensions>
          <ns3:TrackPointExtension>
            <ns3:hr>73</ns3:hr>
            <ns3:cad>43</ns3:cad>
          </ns3:TrackPointExtension>
        </extensions>
      </trkpt>
      <trkpt lat="43.47189900465309619903564453125" lon="1.4340770803391933441162109375">
        <ele>247.1999969482421875</ele>
        <time>2026-08-05T09:46:26.000Z</time>
        <extensions>
          <ns3:TrackPointExtension>
            <ns3:hr>74</ns3:hr>
            <ns3:cad>43</ns3:cad>
          </ns3:TrackPointExtension>
        </extensions>
      </trkpt>
      <trkpt lat="43.47190017811954021453857421875" lon="1.4340676926076412200927734375">
        <ele>247</ele>
        <time>2026-08-05T09:46:27.000Z</time>
        <extensions>
          <ns3:TrackPointExtension>
            <ns3:hr>73</ns3:hr>
            <ns3:cad>43</ns3:cad>
          </ns3:TrackPointExtension>
        </extensions>
      </trkpt>
      <trkpt lat="43.4718985855579376220703125" lon="1.43404908478260040283203125">
        <ele>247</ele>
        <time>2026-08-05T09:46:28.000Z</time>
        <extensions>
          <ns3:TrackPointExtension>
            <ns3:hr>72</ns3:hr>
            <ns3:cad>40</ns3:cad>
          </ns3:TrackPointExtension>
        </extensions>
      </trkpt>
      <trkpt lat="43.47189917229115962982177734375" lon="1.4340417087078094482421875">
        <ele>247</ele>
        <time>2026-08-05T09:46:29.000Z</time>
        <extensions>
          <ns3:TrackPointExtension>
            <ns3:hr>71</ns3:hr>
            <ns3:cad>40</ns3:cad>
          </ns3:TrackPointExtension>
        </extensions>
      </trkpt>
      <trkpt lat="43.47189699299633502960205078125" lon="1.43403969705104827880859375">
        <ele>246.8000030517578125</ele>
        <time>2026-08-05T09:46:30.000Z</time>
        <extensions>
          <ns3:TrackPointExtension>
            <ns3:hr>71</ns3:hr>
            <ns3:cad>40</ns3:cad>
          </ns3:TrackPointExtension>
        </extensions>
      </trkpt>
      <trkpt lat="43.4718970768153667449951171875" lon="1.43403257243335247039794921875">
        <ele>246.600006103515625</ele>
        <time>2026-08-05T09:46:31.000Z</time>
        <extensions>
          <ns3:TrackPointExtension>
            <ns3:hr>73</ns3:hr>
            <ns3:cad>40</ns3:cad>
          </ns3:TrackPointExtension>
        </extensions>
      </trkpt>
      <trkpt lat="43.47189866937696933746337890625" lon="1.4340237714350223541259765625">
        <ele>246.600006103515625</ele>
        <time>2026-08-05T09:46:32.000Z</time>
        <extensions>
          <ns3:TrackPointExtension>
            <ns3:hr>74</ns3:hr>
            <ns3:cad>0</ns3:cad>
          </ns3:TrackPointExtension>
        </extensions>
      </trkpt>
      <trkpt lat="43.47189749591052532196044921875" lon="1.43401480279862880706787109375">
        <ele>246.600006103515625</ele>
        <time>2026-08-05T09:46:33.000Z</time>
        <extensions>
          <ns3:TrackPointExtension>
            <ns3:hr>75</ns3:hr>
            <ns3:cad>0</ns3:cad>
          </ns3:TrackPointExtension>
        </extensions>
      </trkpt>
      <trkpt lat="43.471898920834064483642578125" lon="1.4340016432106494903564453125">
        <ele>246.600006103515625</ele>
        <time>2026-08-05T09:46:34.000Z</time>
        <extensions>
          <ns3:TrackPointExtension>
            <ns3:hr>75</ns3:hr>
            <ns3:cad>0</ns3:cad>
          </ns3:TrackPointExtension>
        </extensions>
      </trkpt>
      <trkpt lat="43.47189724445343017578125" lon="1.433995775878429412841796875">
        <ele>246.600006103515625</ele>
        <time>2026-08-05T09:46:35.000Z</time>
        <extensions>
          <ns3:TrackPointExtension>
            <ns3:hr>75</ns3:hr>
            <ns3:cad>0</ns3:cad>
          </ns3:TrackPointExtension>
        </extensions>
      </trkpt>
      <trkpt lat="43.4718910418450832366943359375" lon="1.43397926352918148040771484375">
        <ele>246.8000030517578125</ele>
        <time>2026-08-05T09:46:36.000Z</time>
        <extensions>
          <ns3:TrackPointExtension>
            <ns3:hr>75</ns3:hr>
            <ns3:cad>0</ns3:cad>
          </ns3:TrackPointExtension>
        </extensions>
      </trkpt>
      <trkpt lat="43.471887521445751190185546875" lon="1.43397021107375621795654296875">
        <ele>246.8000030517578125</ele>
        <time>2026-08-05T09:46:37.000Z</time>
        <extensions>
          <ns3:TrackPointExtension>
            <ns3:hr>75</ns3:hr>
            <ns3:cad>0</ns3:cad>
          </ns3:TrackPointExtension>
        </extensions>
      </trkpt>
      <trkpt lat="43.47188182175159454345703125" lon="1.4339583925902843475341796875">
        <ele>246.8000030517578125</ele>
        <time>2026-08-05T09:46:38.000Z</time>
        <extensions>
          <ns3:TrackPointExtension>
            <ns3:hr>73</ns3:hr>
            <ns3:cad>0</ns3:cad>
          </ns3:TrackPointExtension>
        </extensions>
      </trkpt>
      <trkpt lat="43.47188978455960750579833984375" lon="1.4339505136013031005859375">
        <ele>247</ele>
        <time>2026-08-05T09:46:39.000Z</time>
        <extensions>
          <ns3:TrackPointExtension>
            <ns3:hr>72</ns3:hr>
            <ns3:cad>0</ns3:cad>
          </ns3:TrackPointExtension>
        </extensions>
      </trkpt>
      <trkpt lat="43.47188743762671947479248046875" lon="1.4339344203472137451171875">
        <ele>247</ele>
        <time>2026-08-05T09:46:40.000Z</time>
        <extensions>
          <ns3:TrackPointExtension>
            <ns3:hr>71</ns3:hr>
            <ns3:cad>0</ns3:cad>
          </ns3:TrackPointExtension>
        </extensions>
      </trkpt>
      <trkpt lat="43.4718873538076877593994140625" lon="1.43392360769212245941162109375">
        <ele>247</ele>
        <time>2026-08-05T09:46:41.000Z</time>
        <extensions>
          <ns3:TrackPointExtension>
            <ns3:hr>70</ns3:hr>
            <ns3:cad>0</ns3:cad>
          </ns3:TrackPointExtension>
        </extensions>
      </trkpt>
      <trkpt lat="43.47188559360802173614501953125" lon="1.433911956846714019775390625">
        <ele>247</ele>
        <time>2026-08-05T09:46:42.000Z</time>
        <extensions>
          <ns3:TrackPointExtension>
            <ns3:hr>70</ns3:hr>
            <ns3:cad>44</ns3:cad>
          </ns3:TrackPointExtension>
        </extensions>
      </trkpt>
      <trkpt lat="43.471878133714199066162109375" lon="1.433893851935863494873046875">
        <ele>247</ele>
        <time>2026-08-05T09:46:43.000Z</time>
        <extensions>
          <ns3:TrackPointExtension>
            <ns3:hr>70</ns3:hr>
            <ns3:cad>44</ns3:cad>
          </ns3:TrackPointExtension>
        </extensions>
      </trkpt>
      <trkpt lat="43.47187503241002559661865234375" lon="1.43388303928077220916748046875">
        <ele>247</ele>
        <time>2026-08-05T09:46:44.000Z</time>
        <extensions>
          <ns3:TrackPointExtension>
            <ns3:hr>69</ns3:hr>
            <ns3:cad>44</ns3:cad>
          </ns3:TrackPointExtension>
        </extensions>
      </trkpt>
      <trkpt lat="43.47187251783907413482666015625" lon="1.43387968651950359344482421875">
        <ele>247</ele>
        <time>2026-08-05T09:46:45.000Z</time>
        <extensions>
          <ns3:TrackPointExtension>
            <ns3:hr>69</ns3:hr>
            <ns3:cad>43</ns3:cad>
          </ns3:TrackPointExtension>
        </extensions>
      </trkpt>
      <trkpt lat="43.47187302075326442718505859375" lon="1.43387868069112300872802734375">
        <ele>247</ele>
        <time>2026-08-05T09:46:46.000Z</time>
        <extensions>
          <ns3:TrackPointExtension>
            <ns3:hr>69</ns3:hr>
            <ns3:cad>43</ns3:cad>
          </ns3:TrackPointExtension>
        </extensions>
      </trkpt>
      <trkpt lat="43.47187134437263011932373046875" lon="1.43387583084404468536376953125">
        <ele>247</ele>
        <time>2026-08-05T09:46:47.000Z</time>
        <extensions>
          <ns3:TrackPointExtension>
            <ns3:hr>69</ns3:hr>
            <ns3:cad>42</ns3:cad>
          </ns3:TrackPointExtension>
        </extensions>
      </trkpt>
      <trkpt lat="43.47187084145843982696533203125" lon="1.4338752441108226776123046875">
        <ele>247</ele>
        <time>2026-08-05T09:46:48.000Z</time>
        <extensions>
          <ns3:TrackPointExtension>
            <ns3:hr>69</ns3:hr>
            <ns3:cad>0</ns3:cad>
          </ns3:TrackPointExtension>
        </extensions>
      </trkpt>
      <trkpt lat="43.47186514176428318023681640625" lon="1.43386401236057281494140625">
        <ele>247</ele>
        <time>2026-08-05T09:46:49.000Z</time>
        <extensions>
          <ns3:TrackPointExtension>
            <ns3:hr>69</ns3:hr>
            <ns3:cad>0</ns3:cad>
          </ns3:TrackPointExtension>
        </extensions>
      </trkpt>
      <trkpt lat="43.4718588553369045257568359375" lon="1.433851607143878936767578125">
        <ele>247</ele>
        <time>2026-08-05T09:46:50.000Z</time>
        <extensions>
          <ns3:TrackPointExtension>
            <ns3:hr>69</ns3:hr>
            <ns3:cad>0</ns3:cad>
          </ns3:TrackPointExtension>
        </extensions>
      </trkpt>
      <trkpt lat="43.4718595258891582489013671875" lon="1.43383576534688472747802734375">
        <ele>247</ele>
        <time>2026-08-05T09:46:51.000Z</time>
        <extensions>
          <ns3:TrackPointExtension>
            <ns3:hr>68</ns3:hr>
            <ns3:cad>0</ns3:cad>
          </ns3:TrackPointExtension>
        </extensions>
      </trkpt>
      <trkpt lat="43.47185458056628704071044921875" lon="1.43382084555923938751220703125">
        <ele>247</ele>
        <time>2026-08-05T09:46:52.000Z</time>
        <extensions>
          <ns3:TrackPointExtension>
            <ns3:hr>68</ns3:hr>
            <ns3:cad>0</ns3:cad>
          </ns3:TrackPointExtension>
        </extensions>
      </trkpt>
      <trkpt lat="43.471850641071796417236328125" lon="1.43380307592451572418212890625">
        <ele>247</ele>
        <time>2026-08-05T09:46:53.000Z</time>
        <extensions>
          <ns3:TrackPointExtension>
            <ns3:hr>67</ns3:hr>
            <ns3:cad>0</ns3:cad>
          </ns3:TrackPointExtension>
        </extensions>
      </trkpt>
      <trkpt lat="43.4718467853963375091552734375" lon="1.43379117362201213836669921875">
        <ele>247.1999969482421875</ele>
        <time>2026-08-05T09:46:54.000Z</time>
        <extensions>
          <ns3:TrackPointExtension>
            <ns3:hr>67</ns3:hr>
            <ns3:cad>18</ns3:cad>
          </ns3:TrackPointExtension>
        </extensions>
      </trkpt>
      <trkpt lat="43.47184485755860805511474609375" lon="1.43378178589046001434326171875">
        <ele>247.1999969482421875</ele>
        <time>2026-08-05T09:46:55.000Z</time>
        <extensions>
          <ns3:TrackPointExtension>
            <ns3:hr>68</ns3:hr>
            <ns3:cad>43</ns3:cad>
          </ns3:TrackPointExtension>
        </extensions>
      </trkpt>
      <trkpt lat="43.47184292972087860107421875" lon="1.43376602791249752044677734375">
        <ele>247.1999969482421875</ele>
        <time>2026-08-05T09:46:56.000Z</time>
        <extensions>
          <ns3:TrackPointExtension>
            <ns3:hr>68</ns3:hr>
            <ns3:cad>43</ns3:cad>
          </ns3:TrackPointExtension>
        </extensions>
      </trkpt>
      <trkpt lat="43.47183932550251483917236328125" lon="1.4337493479251861572265625">
        <ele>247.1999969482421875</ele>
        <time>2026-08-05T09:46:57.000Z</time>
        <extensions>
          <ns3:TrackPointExtension>
            <ns3:hr>69</ns3:hr>
            <ns3:cad>43</ns3:cad>
          </ns3:TrackPointExtension>
        </extensions>
      </trkpt>
      <trkpt lat="43.47183815203607082366943359375" lon="1.4337357692420482635498046875">
        <ele>247.399993896484375</ele>
        <time>2026-08-05T09:46:58.000Z</time>
        <extensions>
          <ns3:TrackPointExtension>
            <ns3:hr>69</ns3:hr>
            <ns3:cad>44</ns3:cad>
          </ns3:TrackPointExtension>
        </extensions>
      </trkpt>
      <trkpt lat="43.47183630801737308502197265625" lon="1.43372495658695697784423828125">
        <ele>247.399993896484375</ele>
        <time>2026-08-05T09:46:59.000Z</time>
        <extensions>
          <ns3:TrackPointExtension>
            <ns3:hr>70</ns3:hr>
            <ns3:cad>44</ns3:cad>
          </ns3:TrackPointExtension>
        </extensions>
      </trkpt>
      <trkpt lat="43.4718310274183750152587890625" lon="1.43371020443737506866455078125">
        <ele>247.399993896484375</ele>
        <time>2026-08-05T09:47:00.000Z</time>
        <extensions>
          <ns3:TrackPointExtension>
            <ns3:hr>70</ns3:hr>
            <ns3:cad>43</ns3:cad>
          </ns3:TrackPointExtension>
        </extensions>
      </trkpt>
      <trkpt lat="43.47182557918131351470947265625" lon="1.43369846977293491363525390625">
        <ele>247.600006103515625</ele>
        <time>2026-08-05T09:47:01.000Z</time>
        <extensions>
          <ns3:TrackPointExtension>
            <ns3:hr>71</ns3:hr>
            <ns3:cad>43</ns3:cad>
          </ns3:TrackPointExtension>
        </extensions>
      </trkpt>
      <trkpt lat="43.47182474099099636077880859375" lon="1.43368564546108245849609375">
        <ele>247.600006103515625</ele>
        <time>2026-08-05T09:47:02.000Z</time>
        <extensions>
          <ns3:TrackPointExtension>
            <ns3:hr>71</ns3:hr>
            <ns3:cad>44</ns3:cad>
          </ns3:TrackPointExtension>
        </extensions>
      </trkpt>
      <trkpt lat="43.4718234837055206298828125" lon="1.43367491662502288818359375">
        <ele>247.600006103515625</ele>
        <time>2026-08-05T09:47:03.000Z</time>
        <extensions>
          <ns3:TrackPointExtension>
            <ns3:hr>72</ns3:hr>
            <ns3:cad>44</ns3:cad>
          </ns3:TrackPointExtension>
        </extensions>
      </trkpt>
      <trkpt lat="43.47181987948715686798095703125" lon="1.4336633495986461639404296875">
        <ele>247.600006103515625</ele>
        <time>2026-08-05T09:47:04.000Z</time>
        <extensions>
          <ns3:TrackPointExtension>
            <ns3:hr>73</ns3:hr>
            <ns3:cad>44</ns3:cad>
          </ns3:TrackPointExtension>
        </extensions>
      </trkpt>
      <trkpt lat="43.4718132577836513519287109375" lon="1.43365605734288692474365234375">
        <ele>247.600006103515625</ele>
        <time>2026-08-05T09:47:05.000Z</time>
        <extensions>
          <ns3:TrackPointExtension>
            <ns3:hr>74</ns3:hr>
            <ns3:cad>44</ns3:cad>
          </ns3:TrackPointExtension>
        </extensions>
      </trkpt>
      <trkpt lat="43.47181501798331737518310546875" lon="1.43364734016358852386474609375">
        <ele>247.600006103515625</ele>
        <time>2026-08-05T09:47:06.000Z</time>
        <extensions>
          <ns3:TrackPointExtension>
            <ns3:hr>74</ns3:hr>
            <ns3:cad>44</ns3:cad>
          </ns3:TrackPointExtension>
        </extensions>
      </trkpt>
      <trkpt lat="43.4718149341642856597900390625" lon="1.43363493494689464569091796875">
        <ele>247.8000030517578125</ele>
        <time>2026-08-05T09:47:07.000Z</time>
        <extensions>
          <ns3:TrackPointExtension>
            <ns3:hr>75</ns3:hr>
            <ns3:cad>44</ns3:cad>
          </ns3:TrackPointExtension>
        </extensions>
      </trkpt>
      <trkpt lat="43.4718112461268901824951171875" lon="1.433623619377613067626953125">
        <ele>247.8000030517578125</ele>
        <time>2026-08-05T09:47:08.000Z</time>
        <extensions>
          <ns3:TrackPointExtension>
            <ns3:hr>76</ns3:hr>
            <ns3:cad>44</ns3:cad>
          </ns3:TrackPointExtension>
        </extensions>
      </trkpt>
      <trkpt lat="43.47181049175560474395751953125" lon="1.43360878340899944305419921875">
        <ele>247.8000030517578125</ele>
        <time>2026-08-05T09:47:09.000Z</time>
        <extensions>
          <ns3:TrackPointExtension>
            <ns3:hr>77</ns3:hr>
            <ns3:cad>44</ns3:cad>
          </ns3:TrackPointExtension>
        </extensions>
      </trkpt>
      <trkpt lat="43.47181132994592189788818359375" lon="1.43359445035457611083984375">
        <ele>248</ele>
        <time>2026-08-05T09:47:10.000Z</time>
        <extensions>
          <ns3:TrackPointExtension>
            <ns3:hr>78</ns3:hr>
            <ns3:cad>44</ns3:cad>
          </ns3:TrackPointExtension>
        </extensions>
      </trkpt>
      <trkpt lat="43.47180797718465328216552734375" lon="1.43358145840466022491455078125">
        <ele>248.1999969482421875</ele>
        <time>2026-08-05T09:47:11.000Z</time>
        <extensions>
          <ns3:TrackPointExtension>
            <ns3:hr>78</ns3:hr>
            <ns3:cad>43</ns3:cad>
          </ns3:TrackPointExtension>
        </extensions>
      </trkpt>
      <trkpt lat="43.47180747427046298980712890625" lon="1.433569304645061492919921875">
        <ele>248.1999969482421875</ele>
        <time>2026-08-05T09:47:12.000Z</time>
        <extensions>
          <ns3:TrackPointExtension>
            <ns3:hr>79</ns3:hr>
            <ns3:cad>41</ns3:cad>
          </ns3:TrackPointExtension>
        </extensions>
      </trkpt>
      <trkpt lat="43.4718042053282260894775390625" lon="1.43355798907577991485595703125">
        <ele>248.399993896484375</ele>
        <time>2026-08-05T09:47:13.000Z</time>
        <extensions>
          <ns3:TrackPointExtension>
            <ns3:hr>79</ns3:hr>
            <ns3:cad>41</ns3:cad>
          </ns3:TrackPointExtension>
        </extensions>
      </trkpt>
      <trkpt lat="43.471802361309528350830078125" lon="1.43354658968746662139892578125">
        <ele>248.399993896484375</ele>
        <time>2026-08-05T09:47:14.000Z</time>
        <extensions>
          <ns3:TrackPointExtension>
            <ns3:hr>79</ns3:hr>
            <ns3:cad>76</ns3:cad>
          </ns3:TrackPointExtension>
        </extensions>
      </trkpt>
      <trkpt lat="43.47180227749049663543701171875" lon="1.43353418447077274322509765625">
        <ele>248.399993896484375</ele>
        <time>2026-08-05T09:47:15.000Z</time>
        <extensions>
          <ns3:TrackPointExtension>
            <ns3:hr>80</ns3:hr>
            <ns3:cad>76</ns3:cad>
          </ns3:TrackPointExtension>
        </extensions>
      </trkpt>
      <trkpt lat="43.4718011878430843353271484375" lon="1.433521695435047149658203125">
        <ele>248.399993896484375</ele>
        <time>2026-08-05T09:47:16.000Z</time>
        <extensions>
          <ns3:TrackPointExtension>
            <ns3:hr>80</ns3:hr>
            <ns3:cad>76</ns3:cad>
          </ns3:TrackPointExtension>
        </extensions>
      </trkpt>
      <trkpt lat="43.47179993055760860443115234375" lon="1.4335091225802898406982421875">
        <ele>248.399993896484375</ele>
        <time>2026-08-05T09:47:17.000Z</time>
        <extensions>
          <ns3:TrackPointExtension>
            <ns3:hr>80</ns3:hr>
            <ns3:cad>40</ns3:cad>
          </ns3:TrackPointExtension>
        </extensions>
      </trkpt>
      <trkpt lat="43.47179942764341831207275390625" lon="1.4334970526397228240966796875">
        <ele>248.399993896484375</ele>
        <time>2026-08-05T09:47:18.000Z</time>
        <extensions>
          <ns3:TrackPointExtension>
            <ns3:hr>81</ns3:hr>
            <ns3:cad>40</ns3:cad>
          </ns3:TrackPointExtension>
        </extensions>
      </trkpt>
      <trkpt lat="43.4717981703579425811767578125" lon="1.43348489888012409210205078125">
        <ele>248.399993896484375</ele>
        <time>2026-08-05T09:47:19.000Z</time>
        <extensions>
          <ns3:TrackPointExtension>
            <ns3:hr>81</ns3:hr>
            <ns3:cad>40</ns3:cad>
          </ns3:TrackPointExtension>
        </extensions>
      </trkpt>
      <trkpt lat="43.47179758362472057342529296875" lon="1.43347366712987422943115234375">
        <ele>248.399993896484375</ele>
        <time>2026-08-05T09:47:20.000Z</time>
        <extensions>
          <ns3:TrackPointExtension>
            <ns3:hr>81</ns3:hr>
            <ns3:cad>40</ns3:cad>
          </ns3:TrackPointExtension>
        </extensions>
      </trkpt>
      <trkpt lat="43.471798337996006011962890625" lon="1.43346360884606838226318359375">
        <ele>248.600006103515625</ele>
        <time>2026-08-05T09:47:21.000Z</time>
        <extensions>
          <ns3:TrackPointExtension>
            <ns3:hr>81</ns3:hr>
            <ns3:cad>79</ns3:cad>
          </ns3:TrackPointExtension>
        </extensions>
      </trkpt>
      <trkpt lat="43.4717966616153717041015625" lon="1.43345438875257968902587890625">
        <ele>248.600006103515625</ele>
        <time>2026-08-05T09:47:22.000Z</time>
        <extensions>
          <ns3:TrackPointExtension>
            <ns3:hr>81</ns3:hr>
            <ns3:cad>79</ns3:cad>
          </ns3:TrackPointExtension>
        </extensions>
      </trkpt>
      <trkpt lat="43.4717951528728008270263671875" lon="1.43344365991652011871337890625">
        <ele>248.8000030517578125</ele>
        <time>2026-08-05T09:47:23.000Z</time>
        <extensions>
          <ns3:TrackPointExtension>
            <ns3:hr>82</ns3:hr>
            <ns3:cad>79</ns3:cad>
          </ns3:TrackPointExtension>
        </extensions>
      </trkpt>
      <trkpt lat="43.471794314682483673095703125" lon="1.4334328472614288330078125">
        <ele>248.8000030517578125</ele>
        <time>2026-08-05T09:47:24.000Z</time>
        <extensions>
          <ns3:TrackPointExtension>
            <ns3:hr>82</ns3:hr>
            <ns3:cad>79</ns3:cad>
          </ns3:TrackPointExtension>
        </extensions>
      </trkpt>
      <trkpt lat="43.4717928059399127960205078125" lon="1.43342203460633754730224609375">
        <ele>248.8000030517578125</ele>
        <time>2026-08-05T09:47:25.000Z</time>
        <extensions>
          <ns3:TrackPointExtension>
            <ns3:hr>82</ns3:hr>
            <ns3:cad>79</ns3:cad>
          </ns3:TrackPointExtension>
        </extensions>
      </trkpt>
      <trkpt lat="43.47179020754992961883544921875" lon="1.43340728245675563812255859375">
        <ele>248.8000030517578125</ele>
        <time>2026-08-05T09:47:26.000Z</time>
        <extensions>
          <ns3:TrackPointExtension>
            <ns3:hr>81</ns3:hr>
            <ns3:cad>79</ns3:cad>
          </ns3:TrackPointExtension>
        </extensions>
      </trkpt>
      <trkpt lat="43.4717897884547710418701171875" lon="1.43339420668780803680419921875">
        <ele>248.8000030517578125</ele>
        <time>2026-08-05T09:47:27.000Z</time>
        <extensions>
          <ns3:TrackPointExtension>
            <ns3:hr>82</ns3:hr>
            <ns3:cad>79</ns3:cad>
          </ns3:TrackPointExtension>
        </extensions>
      </trkpt>
      <trkpt lat="43.471790291368961334228515625" lon="1.43338012509047985076904296875">
        <ele>248.8000030517578125</ele>
        <time>2026-08-05T09:47:28.000Z</time>
        <extensions>
          <ns3:TrackPointExtension>
            <ns3:hr>82</ns3:hr>
            <ns3:cad>79</ns3:cad>
          </ns3:TrackPointExtension>
        </extensions>
      </trkpt>
      <trkpt lat="43.47178928554058074951171875" lon="1.43336671404540538787841796875">
        <ele>248.8000030517578125</ele>
        <time>2026-08-05T09:47:29.000Z</time>
        <extensions>
          <ns3:TrackPointExtension>
            <ns3:hr>81</ns3:hr>
            <ns3:cad>79</ns3:cad>
          </ns3:TrackPointExtension>
        </extensions>
      </trkpt>
      <trkpt lat="43.47178819589316844940185546875" lon="1.433353722095489501953125">
        <ele>248.8000030517578125</ele>
        <time>2026-08-05T09:47:30.000Z</time>
        <extensions>
          <ns3:TrackPointExtension>
            <ns3:hr>74</ns3:hr>
            <ns3:cad>79</ns3:cad>
          </ns3:TrackPointExtension>
        </extensions>
      </trkpt>
      <trkpt lat="43.47178819589316844940185546875" lon="1.43334232270717620849609375">
        <ele>248.8000030517578125</ele>
        <time>2026-08-05T09:47:31.000Z</time>
        <extensions>
          <ns3:TrackPointExtension>
            <ns3:hr>67</ns3:hr>
            <ns3:cad>79</ns3:cad>
          </ns3:TrackPointExtension>
        </extensions>
      </trkpt>
      <trkpt lat="43.4717867709696292877197265625" lon="1.4333310909569263458251953125">
        <ele>249</ele>
        <time>2026-08-05T09:47:32.000Z</time>
        <extensions>
          <ns3:TrackPointExtension>
            <ns3:hr>67</ns3:hr>
            <ns3:cad>79</ns3:cad>
          </ns3:TrackPointExtension>
        </extensions>
      </trkpt>
      <trkpt lat="43.47178660333156585693359375" lon="1.433319859206676483154296875">
        <ele>249</ele>
        <time>2026-08-05T09:47:33.000Z</time>
        <extensions>
          <ns3:TrackPointExtension>
            <ns3:hr>67</ns3:hr>
            <ns3:cad>41</ns3:cad>
          </ns3:TrackPointExtension>
        </extensions>
      </trkpt>
      <trkpt lat="43.47178635187447071075439453125" lon="1.4333067834377288818359375">
        <ele>249</ele>
        <time>2026-08-05T09:47:34.000Z</time>
        <extensions>
          <ns3:TrackPointExtension>
            <ns3:hr>66</ns3:hr>
            <ns3:cad>40</ns3:cad>
          </ns3:TrackPointExtension>
        </extensions>
      </trkpt>
      <trkpt lat="43.47178467549383640289306640625" lon="1.43329211510717868804931640625">
        <ele>249</ele>
        <time>2026-08-05T09:47:35.000Z</time>
        <extensions>
          <ns3:TrackPointExtension>
            <ns3:hr>67</ns3:hr>
            <ns3:cad>40</ns3:cad>
          </ns3:TrackPointExtension>
        </extensions>
      </trkpt>
      <trkpt lat="43.4717854298651218414306640625" lon="1.43328323028981685638427734375">
        <ele>249</ele>
        <time>2026-08-05T09:47:36.000Z</time>
        <extensions>
          <ns3:TrackPointExtension>
            <ns3:hr>67</ns3:hr>
            <ns3:cad>40</ns3:cad>
          </ns3:TrackPointExtension>
        </extensions>
      </trkpt>
      <trkpt lat="43.4717854298651218414306640625" lon="1.4332730881869792938232421875">
        <ele>249</ele>
        <time>2026-08-05T09:47:37.000Z</time>
        <extensions>
          <ns3:TrackPointExtension>
            <ns3:hr>67</ns3:hr>
            <ns3:cad>40</ns3:cad>
          </ns3:TrackPointExtension>
        </extensions>
      </trkpt>
      <trkpt lat="43.471784256398677825927734375" lon="1.43325841985642910003662109375">
        <ele>249</ele>
        <time>2026-08-05T09:47:38.000Z</time>
        <extensions>
          <ns3:TrackPointExtension>
            <ns3:hr>67</ns3:hr>
            <ns3:cad>40</ns3:cad>
          </ns3:TrackPointExtension>
        </extensions>
      </trkpt>
      <trkpt lat="43.4717847593128681182861328125" lon="1.433246098458766937255859375">
        <ele>249</ele>
        <time>2026-08-05T09:47:39.000Z</time>
        <extensions>
          <ns3:TrackPointExtension>
            <ns3:hr>67</ns3:hr>
            <ns3:cad>41</ns3:cad>
          </ns3:TrackPointExtension>
        </extensions>
      </trkpt>
      <trkpt lat="43.47178484313189983367919921875" lon="1.43323092721402645111083984375">
        <ele>249</ele>
        <time>2026-08-05T09:47:40.000Z</time>
        <extensions>
          <ns3:TrackPointExtension>
            <ns3:hr>66</ns3:hr>
            <ns3:cad>41</ns3:cad>
          </ns3:TrackPointExtension>
        </extensions>
      </trkpt>
      <trkpt lat="43.4717837534844875335693359375" lon="1.43321667797863483428955078125">
        <ele>249.1999969482421875</ele>
        <time>2026-08-05T09:47:41.000Z</time>
        <extensions>
          <ns3:TrackPointExtension>
            <ns3:hr>66</ns3:hr>
            <ns3:cad>41</ns3:cad>
          </ns3:TrackPointExtension>
        </extensions>
      </trkpt>
      <trkpt lat="43.4717797301709651947021484375" lon="1.4332010038197040557861328125">
        <ele>249.1999969482421875</ele>
        <time>2026-08-05T09:47:42.000Z</time>
        <extensions>
          <ns3:TrackPointExtension>
            <ns3:hr>65</ns3:hr>
            <ns3:cad>41</ns3:cad>
          </ns3:TrackPointExtension>
        </extensions>
      </trkpt>
      <trkpt lat="43.47177981398999691009521484375" lon="1.433187425136566162109375">
        <ele>249.1999969482421875</ele>
        <time>2026-08-05T09:47:43.000Z</time>
        <extensions>
          <ns3:TrackPointExtension>
            <ns3:hr>65</ns3:hr>
            <ns3:cad>41</ns3:cad>
          </ns3:TrackPointExtension>
        </extensions>
      </trkpt>
      <trkpt lat="43.47177981398999691009521484375" lon="1.43317493610084056854248046875">
        <ele>249.399993896484375</ele>
        <time>2026-08-05T09:47:44.000Z</time>
        <extensions>
          <ns3:TrackPointExtension>
            <ns3:hr>65</ns3:hr>
            <ns3:cad>40</ns3:cad>
          </ns3:TrackPointExtension>
        </extensions>
      </trkpt>
      <trkpt lat="43.47177897579967975616455078125" lon="1.43315968103706836700439453125">
        <ele>249.399993896484375</ele>
        <time>2026-08-05T09:47:45.000Z</time>
        <extensions>
          <ns3:TrackPointExtension>
            <ns3:hr>64</ns3:hr>
            <ns3:cad>40</ns3:cad>
          </ns3:TrackPointExtension>
        </extensions>
      </trkpt>
      <trkpt lat="43.4717790596187114715576171875" lon="1.4331471920013427734375">
        <ele>249.399993896484375</ele>
        <time>2026-08-05T09:47:46.000Z</time>
        <extensions>
          <ns3:TrackPointExtension>
            <ns3:hr>64</ns3:hr>
            <ns3:cad>40</ns3:cad>
          </ns3:TrackPointExtension>
        </extensions>
      </trkpt>
      <trkpt lat="43.47177830524742603302001953125" lon="1.43313738517463207244873046875">
        <ele>249.399993896484375</ele>
        <time>2026-08-05T09:47:47.000Z</time>
        <extensions>
          <ns3:TrackPointExtension>
            <ns3:hr>64</ns3:hr>
            <ns3:cad>43</ns3:cad>
          </ns3:TrackPointExtension>
        </extensions>
      </trkpt>
      <trkpt lat="43.47177880816161632537841796875" lon="1.4331218786537647247314453125">
        <ele>249.399993896484375</ele>
        <time>2026-08-05T09:47:48.000Z</time>
        <extensions>
          <ns3:TrackPointExtension>
            <ns3:hr>64</ns3:hr>
            <ns3:cad>43</ns3:cad>
          </ns3:TrackPointExtension>
        </extensions>
      </trkpt>
      <trkpt lat="43.4717783890664577484130859375" lon="1.43310704268515110015869140625">
        <ele>249.399993896484375</ele>
        <time>2026-08-05T09:47:49.000Z</time>
        <extensions>
          <ns3:TrackPointExtension>
            <ns3:hr>64</ns3:hr>
            <ns3:cad>41</ns3:cad>
          </ns3:TrackPointExtension>
        </extensions>
      </trkpt>
      <trkpt lat="43.471780233085155487060546875" lon="1.43309287726879119873046875">
        <ele>249.600006103515625</ele>
        <time>2026-08-05T09:47:50.000Z</time>
        <extensions>
          <ns3:TrackPointExtension>
            <ns3:hr>64</ns3:hr>
            <ns3:cad>41</ns3:cad>
          </ns3:TrackPointExtension>
        </extensions>
      </trkpt>
      <trkpt lat="43.4717804007232189178466796875" lon="1.4330761134624481201171875">
        <ele>249.600006103515625</ele>
        <time>2026-08-05T09:47:51.000Z</time>
        <extensions>
          <ns3:TrackPointExtension>
            <ns3:hr>63</ns3:hr>
            <ns3:cad>41</ns3:cad>
          </ns3:TrackPointExtension>
        </extensions>
      </trkpt>
      <trkpt lat="43.471778891980648040771484375" lon="1.43305800855159759521484375">
        <ele>249.600006103515625</ele>
        <time>2026-08-05T09:47:52.000Z</time>
        <extensions>
          <ns3:TrackPointExtension>
            <ns3:hr>64</ns3:hr>
            <ns3:cad>41</ns3:cad>
          </ns3:TrackPointExtension>
        </extensions>
      </trkpt>
      <trkpt lat="43.471778891980648040771484375" lon="1.433046273887157440185546875">
        <ele>249.8000030517578125</ele>
        <time>2026-08-05T09:47:53.000Z</time>
        <extensions>
          <ns3:TrackPointExtension>
            <ns3:hr>64</ns3:hr>
            <ns3:cad>41</ns3:cad>
          </ns3:TrackPointExtension>
        </extensions>
      </trkpt>
      <trkpt lat="43.47177780233323574066162109375" lon="1.43303311429917812347412109375">
        <ele>249.8000030517578125</ele>
        <time>2026-08-05T09:47:54.000Z</time>
        <extensions>
          <ns3:TrackPointExtension>
            <ns3:hr>64</ns3:hr>
            <ns3:cad>41</ns3:cad>
          </ns3:TrackPointExtension>
        </extensions>
      </trkpt>
      <trkpt lat="43.47177662886679172515869140625" lon="1.43302003853023052215576171875">
        <ele>250</ele>
        <time>2026-08-05T09:47:55.000Z</time>
        <extensions>
          <ns3:TrackPointExtension>
            <ns3:hr>64</ns3:hr>
            <ns3:cad>42</ns3:cad>
          </ns3:TrackPointExtension>
        </extensions>
      </trkpt>
      <trkpt lat="43.47177629359066486358642578125" lon="1.43300612457096576690673828125">
        <ele>250.1999969482421875</ele>
        <time>2026-08-05T09:47:56.000Z</time>
        <extensions>
          <ns3:TrackPointExtension>
            <ns3:hr>64</ns3:hr>
            <ns3:cad>42</ns3:cad>
          </ns3:TrackPointExtension>
        </extensions>
      </trkpt>
      <trkpt lat="43.47177478484809398651123046875" lon="1.43299606628715991973876953125">
        <ele>250.1999969482421875</ele>
        <time>2026-08-05T09:47:57.000Z</time>
        <extensions>
          <ns3:TrackPointExtension>
            <ns3:hr>64</ns3:hr>
            <ns3:cad>42</ns3:cad>
          </ns3:TrackPointExtension>
        </extensions>
      </trkpt>
      <trkpt lat="43.47177512012422084808349609375" lon="1.43297863192856311798095703125">
        <ele>250.399993896484375</ele>
        <time>2026-08-05T09:47:58.000Z</time>
        <extensions>
          <ns3:TrackPointExtension>
            <ns3:hr>65</ns3:hr>
            <ns3:cad>43</ns3:cad>
          </ns3:TrackPointExtension>
        </extensions>
      </trkpt>
      <trkpt lat="43.47177528776228427886962890625" lon="1.43296874128282070159912109375">
        <ele>250.399993896484375</ele>
        <time>2026-08-05T09:47:59.000Z</time>
        <extensions>
          <ns3:TrackPointExtension>
            <ns3:hr>64</ns3:hr>
            <ns3:cad>45</ns3:cad>
          </ns3:TrackPointExtension>
        </extensions>
      </trkpt>
      <trkpt lat="43.47177646122872829437255859375" lon="1.432958431541919708251953125">
        <ele>250.399993896484375</ele>
        <time>2026-08-05T09:48:00.000Z</time>
        <extensions>
          <ns3:TrackPointExtension>
            <ns3:hr>65</ns3:hr>
            <ns3:cad>45</ns3:cad>
          </ns3:TrackPointExtension>
        </extensions>
      </trkpt>
      <trkpt lat="43.47177629359066486358642578125" lon="1.4329455234110355377197265625">
        <ele>250.399993896484375</ele>
        <time>2026-08-05T09:48:01.000Z</time>
        <extensions>
          <ns3:TrackPointExtension>
            <ns3:hr>65</ns3:hr>
            <ns3:cad>46</ns3:cad>
          </ns3:TrackPointExtension>
        </extensions>
      </trkpt>
      <trkpt lat="43.47177696414291858673095703125" lon="1.43293286673724651336669921875">
        <ele>250.399993896484375</ele>
        <time>2026-08-05T09:48:02.000Z</time>
        <extensions>
          <ns3:TrackPointExtension>
            <ns3:hr>65</ns3:hr>
            <ns3:cad>46</ns3:cad>
          </ns3:TrackPointExtension>
        </extensions>
      </trkpt>
      <trkpt lat="43.47177579067647457122802734375" lon="1.43292197026312351226806640625">
        <ele>250.399993896484375</ele>
        <time>2026-08-05T09:48:03.000Z</time>
        <extensions>
          <ns3:TrackPointExtension>
            <ns3:hr>66</ns3:hr>
            <ns3:cad>46</ns3:cad>
          </ns3:TrackPointExtension>
        </extensions>
      </trkpt>
      <trkpt lat="43.4717773832380771636962890625" lon="1.4329109899699687957763671875">
        <ele>250.399993896484375</ele>
        <time>2026-08-05T09:48:04.000Z</time>
        <extensions>
          <ns3:TrackPointExtension>
            <ns3:hr>66</ns3:hr>
            <ns3:cad>46</ns3:cad>
          </ns3:TrackPointExtension>
        </extensions>
      </trkpt>
      <trkpt lat="43.47177562303841114044189453125" lon="1.4328992553055286407470703125">
        <ele>250.399993896484375</ele>
        <time>2026-08-05T09:48:05.000Z</time>
        <extensions>
          <ns3:TrackPointExtension>
            <ns3:hr>66</ns3:hr>
            <ns3:cad>46</ns3:cad>
          </ns3:TrackPointExtension>
        </extensions>
      </trkpt>
      <trkpt lat="43.47177662886679172515869140625" lon="1.43288726918399333953857421875">
        <ele>250.399993896484375</ele>
        <time>2026-08-05T09:48:06.000Z</time>
        <extensions>
          <ns3:TrackPointExtension>
            <ns3:hr>67</ns3:hr>
            <ns3:cad>46</ns3:cad>
          </ns3:TrackPointExtension>
        </extensions>
      </trkpt>
      <trkpt lat="43.471776880323886871337890625" lon="1.432873941957950592041015625">
        <ele>250.399993896484375</ele>
        <time>2026-08-05T09:48:07.000Z</time>
        <extensions>
          <ns3:TrackPointExtension>
            <ns3:hr>67</ns3:hr>
            <ns3:cad>46</ns3:cad>
          </ns3:TrackPointExtension>
        </extensions>
      </trkpt>
      <trkpt lat="43.47177721560001373291015625" lon="1.43286220729351043701171875">
        <ele>250.600006103515625</ele>
        <time>2026-08-05T09:48:08.000Z</time>
        <extensions>
          <ns3:TrackPointExtension>
            <ns3:hr>66</ns3:hr>
            <ns3:cad>69</ns3:cad>
          </ns3:TrackPointExtension>
        </extensions>
      </trkpt>
      <trkpt lat="43.47177981398999691009521484375" lon="1.43285072408616542816162109375">
        <ele>250.8000030517578125</ele>
        <time>2026-08-05T09:48:09.000Z</time>
        <extensions>
          <ns3:TrackPointExtension>
            <ns3:hr>65</ns3:hr>
            <ns3:cad>42</ns3:cad>
          </ns3:TrackPointExtension>
        </extensions>
      </trkpt>
      <trkpt lat="43.4717807359993457794189453125" lon="1.43283664248883724212646484375">
        <ele>251</ele>
        <time>2026-08-05T09:48:10.000Z</time>
        <extensions>
          <ns3:TrackPointExtension>
            <ns3:hr>65</ns3:hr>
            <ns3:cad>42</ns3:cad>
          </ns3:TrackPointExtension>
        </extensions>
      </trkpt>
      <trkpt lat="43.47178517840802669525146484375" lon="1.43282239325344562530517578125">
        <ele>251.1999969482421875</ele>
        <time>2026-08-05T09:48:11.000Z</time>
        <extensions>
          <ns3:TrackPointExtension>
            <ns3:hr>65</ns3:hr>
            <ns3:cad>42</ns3:cad>
          </ns3:TrackPointExtension>
        </extensions>
      </trkpt>
      <trkpt lat="43.4717847593128681182861328125" lon="1.4328038692474365234375">
        <ele>251.399993896484375</ele>
        <time>2026-08-05T09:48:12.000Z</time>
        <extensions>
          <ns3:TrackPointExtension>
            <ns3:hr>64</ns3:hr>
            <ns3:cad>42</ns3:cad>
          </ns3:TrackPointExtension>
        </extensions>
      </trkpt>
      <trkpt lat="43.47178467549383640289306640625" lon="1.43279138021171092987060546875">
        <ele>251.399993896484375</ele>
        <time>2026-08-05T09:48:13.000Z</time>
        <extensions>
          <ns3:TrackPointExtension>
            <ns3:hr>64</ns3:hr>
            <ns3:cad>42</ns3:cad>
          </ns3:TrackPointExtension>
        </extensions>
      </trkpt>
      <trkpt lat="43.47178417257964611053466796875" lon="1.43277478404343128204345703125">
        <ele>251.600006103515625</ele>
        <time>2026-08-05T09:48:14.000Z</time>
        <extensions>
          <ns3:TrackPointExtension>
            <ns3:hr>65</ns3:hr>
            <ns3:cad>43</ns3:cad>
          </ns3:TrackPointExtension>
        </extensions>
      </trkpt>
      <trkpt lat="43.4717847593128681182861328125" lon="1.4327577687799930572509765625">
        <ele>251.600006103515625</ele>
        <time>2026-08-05T09:48:15.000Z</time>
        <extensions>
          <ns3:TrackPointExtension>
            <ns3:hr>65</ns3:hr>
            <ns3:cad>43</ns3:cad>
          </ns3:TrackPointExtension>
        </extensions>
      </trkpt>
      <trkpt lat="43.4717867709696292877197265625" lon="1.43274242989718914031982421875">
        <ele>251.8000030517578125</ele>
        <time>2026-08-05T09:48:16.000Z</time>
        <extensions>
          <ns3:TrackPointExtension>
            <ns3:hr>65</ns3:hr>
            <ns3:cad>42</ns3:cad>
          </ns3:TrackPointExtension>
        </extensions>
      </trkpt>
      <trkpt lat="43.47178819589316844940185546875" lon="1.43272868357598781585693359375">
        <ele>252</ele>
        <time>2026-08-05T09:48:17.000Z</time>
        <extensions>
          <ns3:TrackPointExtension>
            <ns3:hr>66</ns3:hr>
            <ns3:cad>42</ns3:cad>
          </ns3:TrackPointExtension>
        </extensions>
      </trkpt>
      <trkpt lat="43.471790291368961334228515625" lon="1.43271611072123050689697265625">
        <ele>252</ele>
        <time>2026-08-05T09:48:18.000Z</time>
        <extensions>
          <ns3:TrackPointExtension>
            <ns3:hr>66</ns3:hr>
            <ns3:cad>42</ns3:cad>
          </ns3:TrackPointExtension>
        </extensions>
      </trkpt>
      <trkpt lat="43.47179238684475421905517578125" lon="1.432702951133251190185546875">
        <ele>252.1999969482421875</ele>
        <time>2026-08-05T09:48:19.000Z</time>
        <extensions>
          <ns3:TrackPointExtension>
            <ns3:hr>67</ns3:hr>
            <ns3:cad>42</ns3:cad>
          </ns3:TrackPointExtension>
        </extensions>
      </trkpt>
      <trkpt lat="43.47179439850151538848876953125" lon="1.43269280903041362762451171875">
        <ele>252.1999969482421875</ele>
        <time>2026-08-05T09:48:20.000Z</time>
        <extensions>
          <ns3:TrackPointExtension>
            <ns3:hr>67</ns3:hr>
            <ns3:cad>44</ns3:cad>
          </ns3:TrackPointExtension>
        </extensions>
      </trkpt>
      <trkpt lat="43.47179724834859371185302734375" lon="1.43268115818500518798828125">
        <ele>252</ele>
        <time>2026-08-05T09:48:21.000Z</time>
        <extensions>
          <ns3:TrackPointExtension>
            <ns3:hr>67</ns3:hr>
            <ns3:cad>44</ns3:cad>
          </ns3:TrackPointExtension>
        </extensions>
      </trkpt>
      <trkpt lat="43.4718005172908306121826171875" lon="1.4326729439198970794677734375">
        <ele>252</ele>
        <time>2026-08-05T09:48:22.000Z</time>
        <extensions>
          <ns3:TrackPointExtension>
            <ns3:hr>67</ns3:hr>
            <ns3:cad>41</ns3:cad>
          </ns3:TrackPointExtension>
        </extensions>
      </trkpt>
      <trkpt lat="43.47180294804275035858154296875" lon="1.43266581930220127105712890625">
        <ele>251.8000030517578125</ele>
        <time>2026-08-05T09:48:23.000Z</time>
        <extensions>
          <ns3:TrackPointExtension>
            <ns3:hr>68</ns3:hr>
            <ns3:cad>41</ns3:cad>
          </ns3:TrackPointExtension>
        </extensions>
      </trkpt>
      <trkpt lat="43.4718035347759723663330078125" lon="1.432656683027744293212890625">
        <ele>251.8000030517578125</ele>
        <time>2026-08-05T09:48:24.000Z</time>
        <extensions>
          <ns3:TrackPointExtension>
            <ns3:hr>68</ns3:hr>
            <ns3:cad>41</ns3:cad>
          </ns3:TrackPointExtension>
        </extensions>
      </trkpt>
      <trkpt lat="43.47180210985243320465087890625" lon="1.4326511509716510772705078125">
        <ele>252</ele>
        <time>2026-08-05T09:48:25.000Z</time>
        <extensions>
          <ns3:TrackPointExtension>
            <ns3:hr>68</ns3:hr>
            <ns3:cad>41</ns3:cad>
          </ns3:TrackPointExtension>
        </extensions>
      </trkpt>
      <trkpt lat="43.4717995114624500274658203125" lon="1.43264402635395526885986328125">
        <ele>252</ele>
        <time>2026-08-05T09:48:26.000Z</time>
        <extensions>
          <ns3:TrackPointExtension>
            <ns3:hr>67</ns3:hr>
            <ns3:cad>74</ns3:cad>
          </ns3:TrackPointExtension>
        </extensions>
      </trkpt>
      <trkpt lat="43.47179892472922801971435546875" lon="1.43263229168951511383056640625">
        <ele>252.1999969482421875</ele>
        <time>2026-08-05T09:48:27.000Z</time>
        <extensions>
          <ns3:TrackPointExtension>
            <ns3:hr>68</ns3:hr>
            <ns3:cad>74</ns3:cad>
          </ns3:TrackPointExtension>
        </extensions>
      </trkpt>
      <trkpt lat="43.4718008525669574737548828125" lon="1.43262642435729503631591796875">
        <ele>252.1999969482421875</ele>
        <time>2026-08-05T09:48:28.000Z</time>
        <extensions>
          <ns3:TrackPointExtension>
            <ns3:hr>68</ns3:hr>
            <ns3:cad>0</ns3:cad>
          </ns3:TrackPointExtension>
        </extensions>
      </trkpt>
      <trkpt lat="43.47179909236729145050048828125" lon="1.4326233230531215667724609375">
        <ele>252</ele>
        <time>2026-08-05T09:48:29.000Z</time>
        <extensions>
          <ns3:TrackPointExtension>
            <ns3:hr>69</ns3:hr>
            <ns3:cad>0</ns3:cad>
          </ns3:TrackPointExtension>
        </extensions>
      </trkpt>
      <trkpt lat="43.471799008548259735107421875" lon="1.43262340687215328216552734375">
        <ele>252</ele>
        <time>2026-08-05T09:48:30.000Z</time>
        <extensions>
          <ns3:TrackPointExtension>
            <ns3:hr>69</ns3:hr>
            <ns3:cad>0</ns3:cad>
          </ns3:TrackPointExtension>
        </extensions>
      </trkpt>
      <trkpt lat="43.471799008548259735107421875" lon="1.43262340687215328216552734375">
        <ele>252</ele>
        <time>2026-08-05T09:48:31.000Z</time>
        <extensions>
          <ns3:TrackPointExtension>
            <ns3:hr>69</ns3:hr>
            <ns3:cad>0</ns3:cad>
          </ns3:TrackPointExtension>
        </extensions>
      </trkpt>
      <trkpt lat="43.471799008548259735107421875" lon="1.43262340687215328216552734375">
        <ele>251.8000030517578125</ele>
        <time>2026-08-05T09:48:32.000Z</time>
        <extensions>
          <ns3:TrackPointExtension>
            <ns3:hr>69</ns3:hr>
            <ns3:cad>0</ns3:cad>
          </ns3:TrackPointExtension>
        </extensions>
      </trkpt>
      <trkpt lat="43.471799008548259735107421875" lon="1.43262340687215328216552734375">
        <ele>252</ele>
        <time>2026-08-05T09:48:33.000Z</time>
        <extensions>
          <ns3:TrackPointExtension>
            <ns3:hr>69</ns3:hr>
            <ns3:cad>0</ns3:cad>
          </ns3:TrackPointExtension>
        </extensions>
      </trkpt>
      <trkpt lat="43.471799008548259735107421875" lon="1.43262340687215328216552734375">
        <ele>252</ele>
        <time>2026-08-05T09:48:34.000Z</time>
        <extensions>
          <ns3:TrackPointExtension>
            <ns3:hr>69</ns3:hr>
            <ns3:cad>0</ns3:cad>
          </ns3:TrackPointExtension>
        </extensions>
      </trkpt>
      <trkpt lat="43.471799008548259735107421875" lon="1.43262340687215328216552734375">
        <ele>252</ele>
        <time>2026-08-05T09:48:35.000Z</time>
        <extensions>
          <ns3:TrackPointExtension>
            <ns3:hr>68</ns3:hr>
            <ns3:cad>0</ns3:cad>
          </ns3:TrackPointExtension>
        </extensions>
      </trkpt>
      <trkpt lat="43.471799008548259735107421875" lon="1.43262340687215328216552734375">
        <ele>252</ele>
        <time>2026-08-05T09:48:36.000Z</time>
        <extensions>
          <ns3:TrackPointExtension>
            <ns3:hr>68</ns3:hr>
            <ns3:cad>0</ns3:cad>
          </ns3:TrackPointExtension>
        </extensions>
      </trkpt>
      <trkpt lat="43.471799008548259735107421875" lon="1.43262340687215328216552734375">
        <ele>252.1999969482421875</ele>
        <time>2026-08-05T09:48:37.000Z</time>
        <extensions>
          <ns3:TrackPointExtension>
            <ns3:hr>68</ns3:hr>
            <ns3:cad>0</ns3:cad>
          </ns3:TrackPointExtension>
        </extensions>
      </trkpt>
      <trkpt lat="43.471799008548259735107421875" lon="1.43262340687215328216552734375">
        <ele>252</ele>
        <time>2026-08-05T09:48:38.000Z</time>
        <extensions>
          <ns3:TrackPointExtension>
            <ns3:hr>68</ns3:hr>
            <ns3:cad>0</ns3:cad>
          </ns3:TrackPointExtension>
        </extensions>
      </trkpt>
      <trkpt lat="43.471799008548259735107421875" lon="1.43262340687215328216552734375">
        <ele>252</ele>
        <time>2026-08-05T09:48:39.000Z</time>
        <extensions>
          <ns3:TrackPointExtension>
            <ns3:hr>67</ns3:hr>
            <ns3:cad>0</ns3:cad>
          </ns3:TrackPointExtension>
        </extensions>
      </trkpt>
      <trkpt lat="43.471799008548259735107421875" lon="1.43262340687215328216552734375">
        <ele>252</ele>
        <time>2026-08-05T09:48:40.000Z</time>
        <extensions>
          <ns3:TrackPointExtension>
            <ns3:hr>67</ns3:hr>
            <ns3:cad>0</ns3:cad>
          </ns3:TrackPointExtension>
        </extensions>
      </trkpt>
      <trkpt lat="43.471799008548259735107421875" lon="1.43262340687215328216552734375">
        <ele>252</ele>
        <time>2026-08-05T09:48:41.000Z</time>
        <extensions>
          <ns3:TrackPointExtension>
            <ns3:hr>67</ns3:hr>
            <ns3:cad>0</ns3:cad>
          </ns3:TrackPointExtension>
        </extensions>
      </trkpt>
      <trkpt lat="43.471799008548259735107421875" lon="1.43262340687215328216552734375">
        <ele>252</ele>
        <time>2026-08-05T09:48:42.000Z</time>
        <extensions>
          <ns3:TrackPointExtension>
            <ns3:hr>67</ns3:hr>
            <ns3:cad>0</ns3:cad>
          </ns3:TrackPointExtension>
        </extensions>
      </trkpt>
      <trkpt lat="43.471799008548259735107421875" lon="1.43262340687215328216552734375">
        <ele>252</ele>
        <time>2026-08-05T09:48:43.000Z</time>
        <extensions>
          <ns3:TrackPointExtension>
            <ns3:hr>67</ns3:hr>
            <ns3:cad>0</ns3:cad>
          </ns3:TrackPointExtension>
        </extensions>
      </trkpt>
      <trkpt lat="43.471799008548259735107421875" lon="1.43262340687215328216552734375">
        <ele>252</ele>
        <time>2026-08-05T09:48:44.000Z</time>
        <extensions>
          <ns3:TrackPointExtension>
            <ns3:hr>68</ns3:hr>
            <ns3:cad>0</ns3:cad>
          </ns3:TrackPointExtension>
        </extensions>
      </trkpt>
      <trkpt lat="43.471799008548259735107421875" lon="1.43262340687215328216552734375">
        <ele>252</ele>
        <time>2026-08-05T09:48:45.000Z</time>
        <extensions>
          <ns3:TrackPointExtension>
            <ns3:hr>72</ns3:hr>
            <ns3:cad>0</ns3:cad>
          </ns3:TrackPointExtension>
        </extensions>
      </trkpt>
      <trkpt lat="43.471799008548259735107421875" lon="1.43262340687215328216552734375">
        <ele>252</ele>
        <time>2026-08-05T09:48:46.000Z</time>
        <extensions>
          <ns3:TrackPointExtension>
            <ns3:hr>78</ns3:hr>
            <ns3:cad>0</ns3:cad>
          </ns3:TrackPointExtension>
        </extensions>
      </trkpt>
      <trkpt lat="43.471799008548259735107421875" lon="1.43262340687215328216552734375">
        <ele>252</ele>
        <time>2026-08-05T09:48:47.000Z</time>
        <extensions>
          <ns3:TrackPointExtension>
            <ns3:hr>78</ns3:hr>
            <ns3:cad>0</ns3:cad>
          </ns3:TrackPointExtension>
        </extensions>
      </trkpt>
      <trkpt lat="43.4718031994998455047607421875" lon="1.43262558616697788238525390625">
        <ele>252.1999969482421875</ele>
        <time>2026-08-05T09:48:48.000Z</time>
        <extensions>
          <ns3:TrackPointExtension>
            <ns3:hr>78</ns3:hr>
            <ns3:cad>0</ns3:cad>
          </ns3:TrackPointExtension>
        </extensions>
      </trkpt>
      <trkpt lat="43.47180537879467010498046875" lon="1.4326203055679798126220703125">
        <ele>252.1999969482421875</ele>
        <time>2026-08-05T09:48:49.000Z</time>
        <extensions>
          <ns3:TrackPointExtension>
            <ns3:hr>78</ns3:hr>
            <ns3:cad>0</ns3:cad>
          </ns3:TrackPointExtension>
        </extensions>
      </trkpt>
      <trkpt lat="43.4718085639178752899169921875" lon="1.4326072297990322113037109375">
        <ele>252</ele>
        <time>2026-08-05T09:48:50.000Z</time>
        <extensions>
          <ns3:TrackPointExtension>
            <ns3:hr>78</ns3:hr>
            <ns3:cad>0</ns3:cad>
          </ns3:TrackPointExtension>
        </extensions>
      </trkpt>
      <trkpt lat="43.47180948592722415924072265625" lon="1.43259876407682895660400390625">
        <ele>252</ele>
        <time>2026-08-05T09:48:51.000Z</time>
        <extensions>
          <ns3:TrackPointExtension>
            <ns3:hr>78</ns3:hr>
            <ns3:cad>0</ns3:cad>
          </ns3:TrackPointExtension>
        </extensions>
      </trkpt>
      <trkpt lat="43.4718127548694610595703125" lon="1.4325918070971965789794921875">
        <ele>251.8000030517578125</ele>
        <time>2026-08-05T09:48:52.000Z</time>
        <extensions>
          <ns3:TrackPointExtension>
            <ns3:hr>78</ns3:hr>
            <ns3:cad>0</ns3:cad>
          </ns3:TrackPointExtension>
        </extensions>
      </trkpt>
      <trkpt lat="43.47181602381169795989990234375" lon="1.43258459866046905517578125">
        <ele>251.8000030517578125</ele>
        <time>2026-08-05T09:48:53.000Z</time>
        <extensions>
          <ns3:TrackPointExtension>
            <ns3:hr>78</ns3:hr>
            <ns3:cad>0</ns3:cad>
          </ns3:TrackPointExtension>
        </extensions>
      </trkpt>
      <trkpt lat="43.47181753255426883697509765625" lon="1.43256490118801593780517578125">
        <ele>251.8000030517578125</ele>
        <time>2026-08-05T09:48:54.000Z</time>
        <extensions>
          <ns3:TrackPointExtension>
            <ns3:hr>78</ns3:hr>
            <ns3:cad>0</ns3:cad>
          </ns3:TrackPointExtension>
        </extensions>
      </trkpt>
      <trkpt lat="43.47182373516261577606201171875" lon="1.43254662863910198211669921875">
        <ele>251.600006103515625</ele>
        <time>2026-08-05T09:48:55.000Z</time>
        <extensions>
          <ns3:TrackPointExtension>
            <ns3:hr>79</ns3:hr>
            <ns3:cad>0</ns3:cad>
          </ns3:TrackPointExtension>
        </extensions>
      </trkpt>
      <trkpt lat="43.4718276746571063995361328125" lon="1.43253497779369354248046875">
        <ele>251.600006103515625</ele>
        <time>2026-08-05T09:48:56.000Z</time>
        <extensions>
          <ns3:TrackPointExtension>
            <ns3:hr>79</ns3:hr>
            <ns3:cad>50</ns3:cad>
          </ns3:TrackPointExtension>
        </extensions>
      </trkpt>
      <trkpt lat="43.4718293510377407073974609375" lon="1.43252936191856861114501953125">
        <ele>251.8000030517578125</ele>
        <time>2026-08-05T09:48:57.000Z</time>
        <extensions>
          <ns3:TrackPointExtension>
            <ns3:hr>79</ns3:hr>
            <ns3:cad>50</ns3:cad>
          </ns3:TrackPointExtension>
        </extensions>
      </trkpt>
      <trkpt lat="43.47182993777096271514892578125" lon="1.43252483569085597991943359375">
        <ele>251.8000030517578125</ele>
        <time>2026-08-05T09:48:58.000Z</time>
        <extensions>
          <ns3:TrackPointExtension>
            <ns3:hr>81</ns3:hr>
            <ns3:cad>50</ns3:cad>
          </ns3:TrackPointExtension>
        </extensions>
      </trkpt>
      <trkpt lat="43.47182608209550380706787109375" lon="1.4325197227299213409423828125">
        <ele>252</ele>
        <time>2026-08-05T09:48:59.000Z</time>
        <extensions>
          <ns3:TrackPointExtension>
            <ns3:hr>82</ns3:hr>
            <ns3:cad>0</ns3:cad>
          </ns3:TrackPointExtension>
        </extensions>
      </trkpt>
      <trkpt lat="43.47182415425777435302734375" lon="1.43251427449285984039306640625">
        <ele>252.1999969482421875</ele>
        <time>2026-08-05T09:49:00.000Z</time>
        <extensions>
          <ns3:TrackPointExtension>
            <ns3:hr>82</ns3:hr>
            <ns3:cad>0</ns3:cad>
          </ns3:TrackPointExtension>
        </extensions>
      </trkpt>
      <trkpt lat="43.47182407043874263763427734375" lon="1.4325032941997051239013671875">
        <ele>252.399993896484375</ele>
        <time>2026-08-05T09:49:01.000Z</time>
        <extensions>
          <ns3:TrackPointExtension>
            <ns3:hr>82</ns3:hr>
            <ns3:cad>0</ns3:cad>
          </ns3:TrackPointExtension>
        </extensions>
      </trkpt>
      <trkpt lat="43.4718223102390766143798828125" lon="1.43248778767883777618408203125">
        <ele>252.399993896484375</ele>
        <time>2026-08-05T09:49:02.000Z</time>
        <extensions>
          <ns3:TrackPointExtension>
            <ns3:hr>82</ns3:hr>
            <ns3:cad>0</ns3:cad>
          </ns3:TrackPointExtension>
        </extensions>
      </trkpt>
      <trkpt lat="43.4718219749629497528076171875" lon="1.43246565945446491241455078125">
        <ele>252.399993896484375</ele>
        <time>2026-08-05T09:49:03.000Z</time>
        <extensions>
          <ns3:TrackPointExtension>
            <ns3:hr>82</ns3:hr>
            <ns3:cad>0</ns3:cad>
          </ns3:TrackPointExtension>
        </extensions>
      </trkpt>
      <trkpt lat="43.47182214260101318359375" lon="1.43244420178234577178955078125">
        <ele>252.399993896484375</ele>
        <time>2026-08-05T09:49:04.000Z</time>
        <extensions>
          <ns3:TrackPointExtension>
            <ns3:hr>82</ns3:hr>
            <ns3:cad>0</ns3:cad>
          </ns3:TrackPointExtension>
        </extensions>
      </trkpt>
      <trkpt lat="43.47182407043874263763427734375" lon="1.4324285276234149932861328125">
        <ele>252.399993896484375</ele>
        <time>2026-08-05T09:49:05.000Z</time>
        <extensions>
          <ns3:TrackPointExtension>
            <ns3:hr>82</ns3:hr>
            <ns3:cad>0</ns3:cad>
          </ns3:TrackPointExtension>
        </extensions>
      </trkpt>
      <trkpt lat="43.4718276746571063995361328125" lon="1.43241704441606998443603515625">
        <ele>252.399993896484375</ele>
        <time>2026-08-05T09:49:06.000Z</time>
        <extensions>
          <ns3:TrackPointExtension>
            <ns3:hr>83</ns3:hr>
            <ns3:cad>48</ns3:cad>
          </ns3:TrackPointExtension>
        </extensions>
      </trkpt>
      <trkpt lat="43.4718303568661212921142578125" lon="1.43240162171423435211181640625">
        <ele>252.399993896484375</ele>
        <time>2026-08-05T09:49:07.000Z</time>
        <extensions>
          <ns3:TrackPointExtension>
            <ns3:hr>83</ns3:hr>
            <ns3:cad>48</ns3:cad>
          </ns3:TrackPointExtension>
        </extensions>
      </trkpt>
      <trkpt lat="43.47183278761804103851318359375" lon="1.43238619901239871978759765625">
        <ele>252.399993896484375</ele>
        <time>2026-08-05T09:49:08.000Z</time>
        <extensions>
          <ns3:TrackPointExtension>
            <ns3:hr>83</ns3:hr>
            <ns3:cad>48</ns3:cad>
          </ns3:TrackPointExtension>
        </extensions>
      </trkpt>
      <trkpt lat="43.4718333743512630462646484375" lon="1.4323644898831844329833984375">
        <ele>252.600006103515625</ele>
        <time>2026-08-05T09:49:09.000Z</time>
        <extensions>
          <ns3:TrackPointExtension>
            <ns3:hr>83</ns3:hr>
            <ns3:cad>48</ns3:cad>
          </ns3:TrackPointExtension>
        </extensions>
      </trkpt>
      <trkpt lat="43.47183278761804103851318359375" lon="1.43233808688819408416748046875">
        <ele>252.8000030517578125</ele>
        <time>2026-08-05T09:49:10.000Z</time>
        <extensions>
          <ns3:TrackPointExtension>
            <ns3:hr>83</ns3:hr>
            <ns3:cad>48</ns3:cad>
          </ns3:TrackPointExtension>
        </extensions>
      </trkpt>
      <trkpt lat="43.47183111123740673065185546875" lon="1.43231679685413837432861328125">
        <ele>252.8000030517578125</ele>
        <time>2026-08-05T09:49:11.000Z</time>
        <extensions>
          <ns3:TrackPointExtension>
            <ns3:hr>83</ns3:hr>
            <ns3:cad>50</ns3:cad>
          </ns3:TrackPointExtension>
        </extensions>
      </trkpt>
      <trkpt lat="43.4718303568661212921142578125" lon="1.4322940818965435028076171875">
        <ele>253</ele>
        <time>2026-08-05T09:49:12.000Z</time>
        <extensions>
          <ns3:TrackPointExtension>
            <ns3:hr>84</ns3:hr>
            <ns3:cad>51</ns3:cad>
          </ns3:TrackPointExtension>
        </extensions>
      </trkpt>
      <trkpt lat="43.47183161415159702301025390625" lon="1.43227606080472469329833984375">
        <ele>253</ele>
        <time>2026-08-05T09:49:13.000Z</time>
        <extensions>
          <ns3:TrackPointExtension>
            <ns3:hr>84</ns3:hr>
            <ns3:cad>52</ns3:cad>
          </ns3:TrackPointExtension>
        </extensions>
      </trkpt>
      <trkpt lat="43.4718384034931659698486328125" lon="1.43226734362542629241943359375">
        <ele>252.8000030517578125</ele>
        <time>2026-08-05T09:49:14.000Z</time>
        <extensions>
          <ns3:TrackPointExtension>
            <ns3:hr>84</ns3:hr>
            <ns3:cad>52</ns3:cad>
          </ns3:TrackPointExtension>
        </extensions>
      </trkpt>
      <trkpt lat="43.47184184007346630096435546875" lon="1.4322553575038909912109375">
        <ele>252.8000030517578125</ele>
        <time>2026-08-05T09:49:15.000Z</time>
        <extensions>
          <ns3:TrackPointExtension>
            <ns3:hr>84</ns3:hr>
            <ns3:cad>53</ns3:cad>
          </ns3:TrackPointExtension>
        </extensions>
      </trkpt>
      <trkpt lat="43.47184552811086177825927734375" lon="1.43223867751657962799072265625">
        <ele>253</ele>
        <time>2026-08-05T09:49:16.000Z</time>
        <extensions>
          <ns3:TrackPointExtension>
            <ns3:hr>85</ns3:hr>
            <ns3:cad>53</ns3:cad>
          </ns3:TrackPointExtension>
        </extensions>
      </trkpt>
      <trkpt lat="43.47184552811086177825927734375" lon="1.432222165167331695556640625">
        <ele>253</ele>
        <time>2026-08-05T09:49:17.000Z</time>
        <extensions>
          <ns3:TrackPointExtension>
            <ns3:hr>85</ns3:hr>
            <ns3:cad>53</ns3:cad>
          </ns3:TrackPointExtension>
        </extensions>
      </trkpt>
      <trkpt lat="43.47184720449149608612060546875" lon="1.4322062395513057708740234375">
        <ele>253.1999969482421875</ele>
        <time>2026-08-05T09:49:18.000Z</time>
        <extensions>
          <ns3:TrackPointExtension>
            <ns3:hr>85</ns3:hr>
            <ns3:cad>52</ns3:cad>
          </ns3:TrackPointExtension>
        </extensions>
      </trkpt>
      <trkpt lat="43.47184955142438411712646484375" lon="1.4321908168494701385498046875">
        <ele>253.399993896484375</ele>
        <time>2026-08-05T09:49:19.000Z</time>
        <extensions>
          <ns3:TrackPointExtension>
            <ns3:hr>85</ns3:hr>
            <ns3:cad>52</ns3:cad>
          </ns3:TrackPointExtension>
        </extensions>
      </trkpt>
      <trkpt lat="43.47185240127146244049072265625" lon="1.43217547796666622161865234375">
        <ele>253.399993896484375</ele>
        <time>2026-08-05T09:49:20.000Z</time>
        <extensions>
          <ns3:TrackPointExtension>
            <ns3:hr>86</ns3:hr>
            <ns3:cad>50</ns3:cad>
          </ns3:TrackPointExtension>
        </extensions>
      </trkpt>
      <trkpt lat="43.47185508348047733306884765625" lon="1.43215804360806941986083984375">
        <ele>253.600006103515625</ele>
        <time>2026-08-05T09:49:21.000Z</time>
        <extensions>
          <ns3:TrackPointExtension>
            <ns3:hr>86</ns3:hr>
            <ns3:cad>50</ns3:cad>
          </ns3:TrackPointExtension>
        </extensions>
      </trkpt>
      <trkpt lat="43.47185759805142879486083984375" lon="1.4321391843259334564208984375">
        <ele>253.600006103515625</ele>
        <time>2026-08-05T09:49:22.000Z</time>
        <extensions>
          <ns3:TrackPointExtension>
            <ns3:hr>86</ns3:hr>
            <ns3:cad>47</ns3:cad>
          </ns3:TrackPointExtension>
        </extensions>
      </trkpt>
      <trkpt lat="43.47185491584241390228271484375" lon="1.43212066031992435455322265625">
        <ele>253.8000030517578125</ele>
        <time>2026-08-05T09:49:23.000Z</time>
        <extensions>
          <ns3:TrackPointExtension>
            <ns3:hr>87</ns3:hr>
            <ns3:cad>47</ns3:cad>
          </ns3:TrackPointExtension>
        </extensions>
      </trkpt>
      <trkpt lat="43.47185692749917507171630859375" lon="1.4321093447506427764892578125">
        <ele>253.8000030517578125</ele>
        <time>2026-08-05T09:49:24.000Z</time>
        <extensions>
          <ns3:TrackPointExtension>
            <ns3:hr>87</ns3:hr>
            <ns3:cad>47</ns3:cad>
          </ns3:TrackPointExtension>
        </extensions>
      </trkpt>
      <trkpt lat="43.47185642458498477935791015625" lon="1.43209484405815601348876953125">
        <ele>253.8000030517578125</ele>
        <time>2026-08-05T09:49:25.000Z</time>
        <extensions>
          <ns3:TrackPointExtension>
            <ns3:hr>86</ns3:hr>
            <ns3:cad>47</ns3:cad>
          </ns3:TrackPointExtension>
        </extensions>
      </trkpt>
      <trkpt lat="43.47185877151787281036376953125" lon="1.43208813853561878204345703125">
        <ele>253.8000030517578125</ele>
        <time>2026-08-05T09:49:26.000Z</time>
        <extensions>
          <ns3:TrackPointExtension>
            <ns3:hr>85</ns3:hr>
            <ns3:cad>47</ns3:cad>
          </ns3:TrackPointExtension>
        </extensions>
      </trkpt>
      <trkpt lat="43.47186313010752201080322265625" lon="1.432092078030109405517578125">
        <ele>253.8000030517578125</ele>
        <time>2026-08-05T09:49:27.000Z</time>
        <extensions>
          <ns3:TrackPointExtension>
            <ns3:hr>83</ns3:hr>
            <ns3:cad>47</ns3:cad>
          </ns3:TrackPointExtension>
        </extensions>
      </trkpt>
      <trkpt lat="43.47185726277530193328857421875" lon="1.43208093009889125823974609375">
        <ele>254</ele>
        <time>2026-08-05T09:49:28.000Z</time>
        <extensions>
          <ns3:TrackPointExtension>
            <ns3:hr>84</ns3:hr>
            <ns3:cad>0</ns3:cad>
          </ns3:TrackPointExtension>
        </extensions>
      </trkpt>
      <trkpt lat="43.4718608669936656951904296875" lon="1.43208579160273075103759765625">
        <ele>254.1999969482421875</ele>
        <time>2026-08-05T09:49:29.000Z</time>
        <extensions>
          <ns3:TrackPointExtension>
            <ns3:hr>84</ns3:hr>
            <ns3:cad>0</ns3:cad>
          </ns3:TrackPointExtension>
        </extensions>
      </trkpt>
      <trkpt lat="43.47186061553657054901123046875" lon="1.43208679743111133575439453125">
        <ele>254.1999969482421875</ele>
        <time>2026-08-05T09:49:30.000Z</time>
        <extensions>
          <ns3:TrackPointExtension>
            <ns3:hr>85</ns3:hr>
            <ns3:cad>0</ns3:cad>
          </ns3:TrackPointExtension>
        </extensions>
      </trkpt>
      <trkpt lat="43.471860699355602264404296875" lon="1.4320878870785236358642578125">
        <ele>254.1999969482421875</ele>
        <time>2026-08-05T09:49:31.000Z</time>
        <extensions>
          <ns3:TrackPointExtension>
            <ns3:hr>86</ns3:hr>
            <ns3:cad>0</ns3:cad>
          </ns3:TrackPointExtension>
        </extensions>
      </trkpt>
      <trkpt lat="43.47186111845076084136962890625" lon="1.432088054716587066650390625">
        <ele>254.1999969482421875</ele>
        <time>2026-08-05T09:49:32.000Z</time>
        <extensions>
          <ns3:TrackPointExtension>
            <ns3:hr>86</ns3:hr>
            <ns3:cad>0</ns3:cad>
          </ns3:TrackPointExtension>
        </extensions>
      </trkpt>
      <trkpt lat="43.4718605317175388336181640625" lon="1.43208730034530162811279296875">
        <ele>254.1999969482421875</ele>
        <time>2026-08-05T09:49:33.000Z</time>
        <extensions>
          <ns3:TrackPointExtension>
            <ns3:hr>86</ns3:hr>
            <ns3:cad>0</ns3:cad>
          </ns3:TrackPointExtension>
        </extensions>
      </trkpt>
      <trkpt lat="43.4718575142323970794677734375" lon="1.4320831932127475738525390625">
        <ele>254.1999969482421875</ele>
        <time>2026-08-05T09:49:34.000Z</time>
        <extensions>
          <ns3:TrackPointExtension>
            <ns3:hr>86</ns3:hr>
            <ns3:cad>0</ns3:cad>
          </ns3:TrackPointExtension>
        </extensions>
      </trkpt>
      <trkpt lat="43.47185525111854076385498046875" lon="1.43208512105047702789306640625">
        <ele>254</ele>
        <time>2026-08-05T09:49:35.000Z</time>
        <extensions>
          <ns3:TrackPointExtension>
            <ns3:hr>86</ns3:hr>
            <ns3:cad>0</ns3:cad>
          </ns3:TrackPointExtension>
        </extensions>
      </trkpt>
      <trkpt lat="43.471851646900177001953125" lon="1.43208168447017669677734375">
        <ele>254</ele>
        <time>2026-08-05T09:49:36.000Z</time>
        <extensions>
          <ns3:TrackPointExtension>
            <ns3:hr>85</ns3:hr>
            <ns3:cad>0</ns3:cad>
          </ns3:TrackPointExtension>
        </extensions>
      </trkpt>
      <trkpt lat="43.47185139544308185577392578125" lon="1.43208126537501811981201171875">
        <ele>254</ele>
        <time>2026-08-05T09:49:37.000Z</time>
        <extensions>
          <ns3:TrackPointExtension>
            <ns3:hr>85</ns3:hr>
            <ns3:cad>0</ns3:cad>
          </ns3:TrackPointExtension>
        </extensions>
      </trkpt>
      <trkpt lat="43.471845947206020355224609375" lon="1.43207321874797344207763671875">
        <ele>254.1999969482421875</ele>
        <time>2026-08-05T09:49:38.000Z</time>
        <extensions>
          <ns3:TrackPointExtension>
            <ns3:hr>85</ns3:hr>
            <ns3:cad>0</ns3:cad>
          </ns3:TrackPointExtension>
        </extensions>
      </trkpt>
      <trkpt lat="43.4718437679111957550048828125" lon="1.43207070417702198028564453125">
        <ele>254.1999969482421875</ele>
        <time>2026-08-05T09:49:39.000Z</time>
        <extensions>
          <ns3:TrackPointExtension>
            <ns3:hr>85</ns3:hr>
            <ns3:cad>0</ns3:cad>
          </ns3:TrackPointExtension>
        </extensions>
      </trkpt>
      <trkpt lat="43.4718437679111957550048828125" lon="1.43207070417702198028564453125">
        <ele>254.1999969482421875</ele>
        <time>2026-08-05T09:49:40.000Z</time>
        <extensions>
          <ns3:TrackPointExtension>
            <ns3:hr>85</ns3:hr>
            <ns3:cad>0</ns3:cad>
          </ns3:TrackPointExtension>
        </extensions>
      </trkpt>
      <trkpt lat="43.47184368409216403961181640625" lon="1.43207103945314884185791015625">
        <ele>254.399993896484375</ele>
        <time>2026-08-05T09:49:41.000Z</time>
        <extensions>
          <ns3:TrackPointExtension>
            <ns3:hr>85</ns3:hr>
            <ns3:cad>0</ns3:cad>
          </ns3:TrackPointExtension>
        </extensions>
      </trkpt>
      <trkpt lat="43.4718464501202106475830078125" lon="1.43207321874797344207763671875">
        <ele>254.399993896484375</ele>
        <time>2026-08-05T09:49:42.000Z</time>
        <extensions>
          <ns3:TrackPointExtension>
            <ns3:hr>85</ns3:hr>
            <ns3:cad>0</ns3:cad>
          </ns3:TrackPointExtension>
        </extensions>
      </trkpt>
      <trkpt lat="43.47184368409216403961181640625" lon="1.43207573331892490386962890625">
        <ele>254.399993896484375</ele>
        <time>2026-08-05T09:49:43.000Z</time>
        <extensions>
          <ns3:TrackPointExtension>
            <ns3:hr>85</ns3:hr>
            <ns3:cad>0</ns3:cad>
          </ns3:TrackPointExtension>
        </extensions>
      </trkpt>
      <trkpt lat="43.47184066660702228546142578125" lon="1.43207455985248088836669921875">
        <ele>254.1999969482421875</ele>
        <time>2026-08-05T09:49:44.000Z</time>
        <extensions>
          <ns3:TrackPointExtension>
            <ns3:hr>85</ns3:hr>
            <ns3:cad>0</ns3:cad>
          </ns3:TrackPointExtension>
        </extensions>
      </trkpt>
      <trkpt lat="43.47184427082538604736328125" lon="1.432066597044467926025390625">
        <ele>254.1999969482421875</ele>
        <time>2026-08-05T09:49:45.000Z</time>
        <extensions>
          <ns3:TrackPointExtension>
            <ns3:hr>84</ns3:hr>
            <ns3:cad>0</ns3:cad>
          </ns3:TrackPointExtension>
        </extensions>
      </trkpt>
      <trkpt lat="43.47184670157730579376220703125" lon="1.4320630766451358795166015625">
        <ele>254.1999969482421875</ele>
        <time>2026-08-05T09:49:46.000Z</time>
        <extensions>
          <ns3:TrackPointExtension>
            <ns3:hr>85</ns3:hr>
            <ns3:cad>0</ns3:cad>
          </ns3:TrackPointExtension>
        </extensions>
      </trkpt>
      <trkpt lat="43.47184670157730579376220703125" lon="1.43206466920673847198486328125">
        <ele>254.1999969482421875</ele>
        <time>2026-08-05T09:49:47.000Z</time>
        <extensions>
          <ns3:TrackPointExtension>
            <ns3:hr>85</ns3:hr>
            <ns3:cad>0</ns3:cad>
          </ns3:TrackPointExtension>
        </extensions>
      </trkpt>
      <trkpt lat="43.4718437679111957550048828125" lon="1.43207070417702198028564453125">
        <ele>254.1999969482421875</ele>
        <time>2026-08-05T09:49:48.000Z</time>
        <extensions>
          <ns3:TrackPointExtension>
            <ns3:hr>84</ns3:hr>
            <ns3:cad>0</ns3:cad>
          </ns3:TrackPointExtension>
        </extensions>
      </trkpt>
      <trkpt lat="43.4718437679111957550048828125" lon="1.43207070417702198028564453125">
        <ele>254.1999969482421875</ele>
        <time>2026-08-05T09:49:49.000Z</time>
        <extensions>
          <ns3:TrackPointExtension>
            <ns3:hr>85</ns3:hr>
            <ns3:cad>0</ns3:cad>
          </ns3:TrackPointExtension>
        </extensions>
      </trkpt>
      <trkpt lat="43.4718437679111957550048828125" lon="1.43207070417702198028564453125">
        <ele>254.1999969482421875</ele>
        <time>2026-08-05T09:49:50.000Z</time>
        <extensions>
          <ns3:TrackPointExtension>
            <ns3:hr>85</ns3:hr>
            <ns3:cad>0</ns3:cad>
          </ns3:TrackPointExtension>
        </extensions>
      </trkpt>
      <trkpt lat="43.4718437679111957550048828125" lon="1.43207070417702198028564453125">
        <ele>254.399993896484375</ele>
        <time>2026-08-05T09:49:51.000Z</time>
        <extensions>
          <ns3:TrackPointExtension>
            <ns3:hr>84</ns3:hr>
            <ns3:cad>0</ns3:cad>
          </ns3:TrackPointExtension>
        </extensions>
      </trkpt>
      <trkpt lat="43.4718437679111957550048828125" lon="1.43207070417702198028564453125">
        <ele>254.399993896484375</ele>
        <time>2026-08-05T09:49:52.000Z</time>
        <extensions>
          <ns3:TrackPointExtension>
            <ns3:hr>84</ns3:hr>
            <ns3:cad>0</ns3:cad>
          </ns3:TrackPointExtension>
        </extensions>
      </trkpt>
      <trkpt lat="43.4718437679111957550048828125" lon="1.43207070417702198028564453125">
        <ele>254.399993896484375</ele>
        <time>2026-08-05T09:49:53.000Z</time>
        <extensions>
          <ns3:TrackPointExtension>
            <ns3:hr>84</ns3:hr>
            <ns3:cad>0</ns3:cad>
          </ns3:TrackPointExtension>
        </extensions>
      </trkpt>
      <trkpt lat="43.4718437679111957550048828125" lon="1.43207070417702198028564453125">
        <ele>254.399993896484375</ele>
        <time>2026-08-05T09:49:54.000Z</time>
        <extensions>
          <ns3:TrackPointExtension>
            <ns3:hr>84</ns3:hr>
            <ns3:cad>0</ns3:cad>
          </ns3:TrackPointExtension>
        </extensions>
      </trkpt>
      <trkpt lat="43.4718437679111957550048828125" lon="1.43207070417702198028564453125">
        <ele>254.399993896484375</ele>
        <time>2026-08-05T09:49:55.000Z</time>
        <extensions>
          <ns3:TrackPointExtension>
            <ns3:hr>84</ns3:hr>
            <ns3:cad>0</ns3:cad>
          </ns3:TrackPointExtension>
        </extensions>
      </trkpt>
      <trkpt lat="43.4718437679111957550048828125" lon="1.43207070417702198028564453125">
        <ele>254.399993896484375</ele>
        <time>2026-08-05T09:49:56.000Z</time>
        <extensions>
          <ns3:TrackPointExtension>
            <ns3:hr>83</ns3:hr>
            <ns3:cad>0</ns3:cad>
          </ns3:TrackPointExtension>
        </extensions>
      </trkpt>
      <trkpt lat="43.4718437679111957550048828125" lon="1.43207070417702198028564453125">
        <ele>254.1999969482421875</ele>
        <time>2026-08-05T09:49:57.000Z</time>
        <extensions>
          <ns3:TrackPointExtension>
            <ns3:hr>82</ns3:hr>
            <ns3:cad>0</ns3:cad>
          </ns3:TrackPointExtension>
        </extensions>
      </trkpt>
      <trkpt lat="43.4718437679111957550048828125" lon="1.43207070417702198028564453125">
        <ele>254.1999969482421875</ele>
        <time>2026-08-05T09:49:58.000Z</time>
        <extensions>
          <ns3:TrackPointExtension>
            <ns3:hr>81</ns3:hr>
            <ns3:cad>0</ns3:cad>
          </ns3:TrackPointExtension>
        </extensions>
      </trkpt>
      <trkpt lat="43.4718437679111957550048828125" lon="1.43207070417702198028564453125">
        <ele>254.1999969482421875</ele>
        <time>2026-08-05T09:49:59.000Z</time>
        <extensions>
          <ns3:TrackPointExtension>
            <ns3:hr>81</ns3:hr>
            <ns3:cad>0</ns3:cad>
          </ns3:TrackPointExtension>
        </extensions>
      </trkpt>
      <trkpt lat="43.47185038961470127105712890625" lon="1.43206156790256500244140625">
        <ele>254.1999969482421875</ele>
        <time>2026-08-05T09:50:00.000Z</time>
        <extensions>
          <ns3:TrackPointExtension>
            <ns3:hr>80</ns3:hr>
            <ns3:cad>0</ns3:cad>
          </ns3:TrackPointExtension>
        </extensions>
      </trkpt>
      <trkpt lat="43.47185525111854076385498046875" lon="1.4320630766451358795166015625">
        <ele>254.1999969482421875</ele>
        <time>2026-08-05T09:50:01.000Z</time>
        <extensions>
          <ns3:TrackPointExtension>
            <ns3:hr>80</ns3:hr>
            <ns3:cad>0</ns3:cad>
          </ns3:TrackPointExtension>
        </extensions>
      </trkpt>
      <trkpt lat="43.47185432910919189453125" lon="1.43206668086349964141845703125">
        <ele>254.1999969482421875</ele>
        <time>2026-08-05T09:50:02.000Z</time>
        <extensions>
          <ns3:TrackPointExtension>
            <ns3:hr>80</ns3:hr>
            <ns3:cad>0</ns3:cad>
          </ns3:TrackPointExtension>
        </extensions>
      </trkpt>
      <trkpt lat="43.47185726277530193328857421875" lon="1.4320694468915462493896484375">
        <ele>254</ele>
        <time>2026-08-05T09:50:03.000Z</time>
        <extensions>
          <ns3:TrackPointExtension>
            <ns3:hr>78</ns3:hr>
            <ns3:cad>0</ns3:cad>
          </ns3:TrackPointExtension>
        </extensions>
      </trkpt>
      <trkpt lat="43.47185793332755565643310546875" lon="1.43207590095698833465576171875">
        <ele>253.8000030517578125</ele>
        <time>2026-08-05T09:50:04.000Z</time>
        <extensions>
          <ns3:TrackPointExtension>
            <ns3:hr>77</ns3:hr>
            <ns3:cad>0</ns3:cad>
          </ns3:TrackPointExtension>
        </extensions>
      </trkpt>
      <trkpt lat="43.4718591906130313873291015625" lon="1.4320788346230983734130859375">
        <ele>253.8000030517578125</ele>
        <time>2026-08-05T09:50:05.000Z</time>
        <extensions>
          <ns3:TrackPointExtension>
            <ns3:hr>77</ns3:hr>
            <ns3:cad>0</ns3:cad>
          </ns3:TrackPointExtension>
        </extensions>
      </trkpt>
      <trkpt lat="43.47185634076595306396484375" lon="1.43207942135632038116455078125">
        <ele>253.8000030517578125</ele>
        <time>2026-08-05T09:50:06.000Z</time>
        <extensions>
          <ns3:TrackPointExtension>
            <ns3:hr>77</ns3:hr>
            <ns3:cad>0</ns3:cad>
          </ns3:TrackPointExtension>
        </extensions>
      </trkpt>
      <trkpt lat="43.47185608930885791778564453125" lon="1.43207942135632038116455078125">
        <ele>253.8000030517578125</ele>
        <time>2026-08-05T09:50:07.000Z</time>
        <extensions>
          <ns3:TrackPointExtension>
            <ns3:hr>78</ns3:hr>
            <ns3:cad>0</ns3:cad>
          </ns3:TrackPointExtension>
        </extensions>
      </trkpt>
      <trkpt lat="43.471856005489826202392578125" lon="1.4320795051753520965576171875">
        <ele>253.8000030517578125</ele>
        <time>2026-08-05T09:50:08.000Z</time>
        <extensions>
          <ns3:TrackPointExtension>
            <ns3:hr>79</ns3:hr>
            <ns3:cad>0</ns3:cad>
          </ns3:TrackPointExtension>
        </extensions>
      </trkpt>
      <trkpt lat="43.471853323280811309814453125" lon="1.4320778287947177886962890625">
        <ele>253.8000030517578125</ele>
        <time>2026-08-05T09:50:09.000Z</time>
        <extensions>
          <ns3:TrackPointExtension>
            <ns3:hr>80</ns3:hr>
            <ns3:cad>0</ns3:cad>
          </ns3:TrackPointExtension>
        </extensions>
      </trkpt>
      <trkpt lat="43.471851646900177001953125" lon="1.4320717938244342803955078125">
        <ele>253.8000030517578125</ele>
        <time>2026-08-05T09:50:10.000Z</time>
        <extensions>
          <ns3:TrackPointExtension>
            <ns3:hr>80</ns3:hr>
            <ns3:cad>0</ns3:cad>
          </ns3:TrackPointExtension>
        </extensions>
      </trkpt>
      <trkpt lat="43.4718504734337329864501953125" lon="1.43206835724413394927978515625">
        <ele>253.8000030517578125</ele>
        <time>2026-08-05T09:50:11.000Z</time>
        <extensions>
          <ns3:TrackPointExtension>
            <ns3:hr>80</ns3:hr>
            <ns3:cad>0</ns3:cad>
          </ns3:TrackPointExtension>
        </extensions>
      </trkpt>
      <trkpt lat="43.47184871323406696319580078125" lon="1.432065255939960479736328125">
        <ele>253.600006103515625</ele>
        <time>2026-08-05T09:50:12.000Z</time>
        <extensions>
          <ns3:TrackPointExtension>
            <ns3:hr>80</ns3:hr>
            <ns3:cad>0</ns3:cad>
          </ns3:TrackPointExtension>
        </extensions>
      </trkpt>
      <trkpt lat="43.4718461148440837860107421875" lon="1.43205896951258182525634765625">
        <ele>253.600006103515625</ele>
        <time>2026-08-05T09:50:13.000Z</time>
        <extensions>
          <ns3:TrackPointExtension>
            <ns3:hr>80</ns3:hr>
            <ns3:cad>0</ns3:cad>
          </ns3:TrackPointExtension>
        </extensions>
      </trkpt>
      <trkpt lat="43.47184569574892520904541015625" lon="1.43205930478870868682861328125">
        <ele>253.600006103515625</ele>
        <time>2026-08-05T09:50:14.000Z</time>
        <extensions>
          <ns3:TrackPointExtension>
            <ns3:hr>78</ns3:hr>
            <ns3:cad>0</ns3:cad>
          </ns3:TrackPointExtension>
        </extensions>
      </trkpt>
      <trkpt lat="43.4718447737395763397216796875" lon="1.43206047825515270233154296875">
        <ele>253.8000030517578125</ele>
        <time>2026-08-05T09:50:15.000Z</time>
        <extensions>
          <ns3:TrackPointExtension>
            <ns3:hr>78</ns3:hr>
            <ns3:cad>0</ns3:cad>
          </ns3:TrackPointExtension>
        </extensions>
      </trkpt>
      <trkpt lat="43.471843935549259185791015625" lon="1.4320583827793598175048828125">
        <ele>253.8000030517578125</ele>
        <time>2026-08-05T09:50:16.000Z</time>
        <extensions>
          <ns3:TrackPointExtension>
            <ns3:hr>77</ns3:hr>
            <ns3:cad>0</ns3:cad>
          </ns3:TrackPointExtension>
        </extensions>
      </trkpt>
      <trkpt lat="43.471843935549259185791015625" lon="1.4320583827793598175048828125">
        <ele>253.8000030517578125</ele>
        <time>2026-08-05T09:50:17.000Z</time>
        <extensions>
          <ns3:TrackPointExtension>
            <ns3:hr>77</ns3:hr>
            <ns3:cad>0</ns3:cad>
          </ns3:TrackPointExtension>
        </extensions>
      </trkpt>
      <trkpt lat="43.471843935549259185791015625" lon="1.4320583827793598175048828125">
        <ele>253.8000030517578125</ele>
        <time>2026-08-05T09:50:18.000Z</time>
        <extensions>
          <ns3:TrackPointExtension>
            <ns3:hr>77</ns3:hr>
            <ns3:cad>0</ns3:cad>
          </ns3:TrackPointExtension>
        </extensions>
      </trkpt>
      <trkpt lat="43.471843935549259185791015625" lon="1.4320583827793598175048828125">
        <ele>253.8000030517578125</ele>
        <time>2026-08-05T09:50:19.000Z</time>
        <extensions>
          <ns3:TrackPointExtension>
            <ns3:hr>77</ns3:hr>
            <ns3:cad>0</ns3:cad>
          </ns3:TrackPointExtension>
        </extensions>
      </trkpt>
      <trkpt lat="43.471843935549259185791015625" lon="1.4320583827793598175048828125">
        <ele>253.8000030517578125</ele>
        <time>2026-08-05T09:50:20.000Z</time>
        <extensions>
          <ns3:TrackPointExtension>
            <ns3:hr>77</ns3:hr>
            <ns3:cad>0</ns3:cad>
          </ns3:TrackPointExtension>
        </extensions>
      </trkpt>
      <trkpt lat="43.471843935549259185791015625" lon="1.4320583827793598175048828125">
        <ele>253.8000030517578125</ele>
        <time>2026-08-05T09:50:21.000Z</time>
        <extensions>
          <ns3:TrackPointExtension>
            <ns3:hr>77</ns3:hr>
            <ns3:cad>0</ns3:cad>
          </ns3:TrackPointExtension>
        </extensions>
      </trkpt>
      <trkpt lat="43.471843935549259185791015625" lon="1.4320583827793598175048828125">
        <ele>253.8000030517578125</ele>
        <time>2026-08-05T09:50:22.000Z</time>
        <extensions>
          <ns3:TrackPointExtension>
            <ns3:hr>77</ns3:hr>
            <ns3:cad>0</ns3:cad>
          </ns3:TrackPointExtension>
        </extensions>
      </trkpt>
      <trkpt lat="43.471843935549259185791015625" lon="1.4320583827793598175048828125">
        <ele>253.600006103515625</ele>
        <time>2026-08-05T09:50:23.000Z</time>
        <extensions>
          <ns3:TrackPointExtension>
            <ns3:hr>77</ns3:hr>
            <ns3:cad>0</ns3:cad>
          </ns3:TrackPointExtension>
        </extensions>
      </trkpt>
      <trkpt lat="43.4718434326350688934326171875" lon="1.4320580475032329559326171875">
        <ele>253.600006103515625</ele>
        <time>2026-08-05T09:50:24.000Z</time>
        <extensions>
          <ns3:TrackPointExtension>
            <ns3:hr>77</ns3:hr>
            <ns3:cad>0</ns3:cad>
          </ns3:TrackPointExtension>
        </extensions>
      </trkpt>
      <trkpt lat="43.47184351645410060882568359375" lon="1.4320553652942180633544921875">
        <ele>253.600006103515625</ele>
        <time>2026-08-05T09:50:25.000Z</time>
        <extensions>
          <ns3:TrackPointExtension>
            <ns3:hr>76</ns3:hr>
            <ns3:cad>0</ns3:cad>
          </ns3:TrackPointExtension>
        </extensions>
      </trkpt>
      <trkpt lat="43.471843935549259185791015625" lon="1.4320583827793598175048828125">
        <ele>253.600006103515625</ele>
        <time>2026-08-05T09:50:26.000Z</time>
        <extensions>
          <ns3:TrackPointExtension>
            <ns3:hr>77</ns3:hr>
            <ns3:cad>0</ns3:cad>
          </ns3:TrackPointExtension>
        </extensions>
      </trkpt>
      <trkpt lat="43.471843935549259185791015625" lon="1.4320583827793598175048828125">
        <ele>253.8000030517578125</ele>
        <time>2026-08-05T09:50:27.000Z</time>
        <extensions>
          <ns3:TrackPointExtension>
            <ns3:hr>77</ns3:hr>
            <ns3:cad>0</ns3:cad>
          </ns3:TrackPointExtension>
        </extensions>
      </trkpt>
      <trkpt lat="43.471843935549259185791015625" lon="1.4320583827793598175048828125">
        <ele>253.8000030517578125</ele>
        <time>2026-08-05T09:50:28.000Z</time>
        <extensions>
          <ns3:TrackPointExtension>
            <ns3:hr>77</ns3:hr>
            <ns3:cad>0</ns3:cad>
          </ns3:TrackPointExtension>
        </extensions>
      </trkpt>
      <trkpt lat="43.471843935549259185791015625" lon="1.4320583827793598175048828125">
        <ele>253.8000030517578125</ele>
        <time>2026-08-05T09:50:29.000Z</time>
        <extensions>
          <ns3:TrackPointExtension>
            <ns3:hr>76</ns3:hr>
            <ns3:cad>0</ns3:cad>
          </ns3:TrackPointExtension>
        </extensions>
      </trkpt>
      <trkpt lat="43.471843935549259185791015625" lon="1.4320583827793598175048828125">
        <ele>253.600006103515625</ele>
        <time>2026-08-05T09:50:30.000Z</time>
        <extensions>
          <ns3:TrackPointExtension>
            <ns3:hr>77</ns3:hr>
            <ns3:cad>0</ns3:cad>
          </ns3:TrackPointExtension>
        </extensions>
      </trkpt>
      <trkpt lat="43.471843935549259185791015625" lon="1.4320583827793598175048828125">
        <ele>253.399993896484375</ele>
        <time>2026-08-05T09:50:31.000Z</time>
        <extensions>
          <ns3:TrackPointExtension>
            <ns3:hr>77</ns3:hr>
            <ns3:cad>0</ns3:cad>
          </ns3:TrackPointExtension>
        </extensions>
      </trkpt>
      <trkpt lat="43.471843935549259185791015625" lon="1.4320583827793598175048828125">
        <ele>253.1999969482421875</ele>
        <time>2026-08-05T09:50:32.000Z</time>
        <extensions>
          <ns3:TrackPointExtension>
            <ns3:hr>77</ns3:hr>
            <ns3:cad>0</ns3:cad>
          </ns3:TrackPointExtension>
        </extensions>
      </trkpt>
      <trkpt lat="43.471843935549259185791015625" lon="1.4320583827793598175048828125">
        <ele>253</ele>
        <time>2026-08-05T09:50:33.000Z</time>
        <extensions>
          <ns3:TrackPointExtension>
            <ns3:hr>76</ns3:hr>
            <ns3:cad>0</ns3:cad>
          </ns3:TrackPointExtension>
        </extensions>
      </trkpt>
      <trkpt lat="43.471843935549259185791015625" lon="1.4320583827793598175048828125">
        <ele>252.8000030517578125</ele>
        <time>2026-08-05T09:50:34.000Z</time>
        <extensions>
          <ns3:TrackPointExtension>
            <ns3:hr>76</ns3:hr>
            <ns3:cad>0</ns3:cad>
          </ns3:TrackPointExtension>
        </extensions>
      </trkpt>
      <trkpt lat="43.471843935549259185791015625" lon="1.4320583827793598175048828125">
        <ele>252.600006103515625</ele>
        <time>2026-08-05T09:50:35.000Z</time>
        <extensions>
          <ns3:TrackPointExtension>
            <ns3:hr>75</ns3:hr>
            <ns3:cad>0</ns3:cad>
          </ns3:TrackPointExtension>
        </extensions>
      </trkpt>
      <trkpt lat="43.471843935549259185791015625" lon="1.4320583827793598175048828125">
        <ele>252.600006103515625</ele>
        <time>2026-08-05T09:50:36.000Z</time>
        <extensions>
          <ns3:TrackPointExtension>
            <ns3:hr>75</ns3:hr>
            <ns3:cad>0</ns3:cad>
          </ns3:TrackPointExtension>
        </extensions>
      </trkpt>
      <trkpt lat="43.471843935549259185791015625" lon="1.4320583827793598175048828125">
        <ele>252.600006103515625</ele>
        <time>2026-08-05T09:50:37.000Z</time>
        <extensions>
          <ns3:TrackPointExtension>
            <ns3:hr>75</ns3:hr>
            <ns3:cad>0</ns3:cad>
          </ns3:TrackPointExtension>
        </extensions>
      </trkpt>
      <trkpt lat="43.471843935549259185791015625" lon="1.4320583827793598175048828125">
        <ele>252.600006103515625</ele>
        <time>2026-08-05T09:50:38.000Z</time>
        <extensions>
          <ns3:TrackPointExtension>
            <ns3:hr>74</ns3:hr>
            <ns3:cad>0</ns3:cad>
          </ns3:TrackPointExtension>
        </extensions>
      </trkpt>
      <trkpt lat="43.471843935549259185791015625" lon="1.4320583827793598175048828125">
        <ele>252.600006103515625</ele>
        <time>2026-08-05T09:50:39.000Z</time>
        <extensions>
          <ns3:TrackPointExtension>
            <ns3:hr>74</ns3:hr>
            <ns3:cad>0</ns3:cad>
          </ns3:TrackPointExtension>
        </extensions>
      </trkpt>
      <trkpt lat="43.471843935549259185791015625" lon="1.4320583827793598175048828125">
        <ele>252.8000030517578125</ele>
        <time>2026-08-05T09:50:40.000Z</time>
        <extensions>
          <ns3:TrackPointExtension>
            <ns3:hr>73</ns3:hr>
            <ns3:cad>0</ns3:cad>
          </ns3:TrackPointExtension>
        </extensions>
      </trkpt>
      <trkpt lat="43.471843935549259185791015625" lon="1.4320583827793598175048828125">
        <ele>252.8000030517578125</ele>
        <time>2026-08-05T09:50:41.000Z</time>
        <extensions>
          <ns3:TrackPointExtension>
            <ns3:hr>72</ns3:hr>
            <ns3:cad>0</ns3:cad>
          </ns3:TrackPointExtension>
        </extensions>
      </trkpt>
      <trkpt lat="43.471843935549259185791015625" lon="1.4320583827793598175048828125">
        <ele>252.8000030517578125</ele>
        <time>2026-08-05T09:50:42.000Z</time>
        <extensions>
          <ns3:TrackPointExtension>
            <ns3:hr>72</ns3:hr>
            <ns3:cad>0</ns3:cad>
          </ns3:TrackPointExtension>
        </extensions>
      </trkpt>
      <trkpt lat="43.471843935549259185791015625" lon="1.4320583827793598175048828125">
        <ele>252.8000030517578125</ele>
        <time>2026-08-05T09:50:43.000Z</time>
        <extensions>
          <ns3:TrackPointExtension>
            <ns3:hr>70</ns3:hr>
            <ns3:cad>0</ns3:cad>
          </ns3:TrackPointExtension>
        </extensions>
      </trkpt>
      <trkpt lat="43.471843935549259185791015625" lon="1.4320583827793598175048828125">
        <ele>252.8000030517578125</ele>
        <time>2026-08-05T09:50:44.000Z</time>
        <extensions>
          <ns3:TrackPointExtension>
            <ns3:hr>67</ns3:hr>
            <ns3:cad>0</ns3:cad>
          </ns3:TrackPointExtension>
        </extensions>
      </trkpt>
      <trkpt lat="43.471843935549259185791015625" lon="1.4320583827793598175048828125">
        <ele>253</ele>
        <time>2026-08-05T09:50:45.000Z</time>
        <extensions>
          <ns3:TrackPointExtension>
            <ns3:hr>66</ns3:hr>
            <ns3:cad>0</ns3:cad>
          </ns3:TrackPointExtension>
        </extensions>
      </trkpt>
      <trkpt lat="43.471843935549259185791015625" lon="1.4320583827793598175048828125">
        <ele>253</ele>
        <time>2026-08-05T09:50:46.000Z</time>
        <extensions>
          <ns3:TrackPointExtension>
            <ns3:hr>66</ns3:hr>
            <ns3:cad>0</ns3:cad>
          </ns3:TrackPointExtension>
        </extensions>
      </trkpt>
      <trkpt lat="43.471843935549259185791015625" lon="1.4320583827793598175048828125">
        <ele>253</ele>
        <time>2026-08-05T09:50:47.000Z</time>
        <extensions>
          <ns3:TrackPointExtension>
            <ns3:hr>65</ns3:hr>
            <ns3:cad>0</ns3:cad>
          </ns3:TrackPointExtension>
        </extensions>
      </trkpt>
      <trkpt lat="43.471843935549259185791015625" lon="1.4320583827793598175048828125">
        <ele>253</ele>
        <time>2026-08-05T09:50:48.000Z</time>
        <extensions>
          <ns3:TrackPointExtension>
            <ns3:hr>65</ns3:hr>
            <ns3:cad>0</ns3:cad>
          </ns3:TrackPointExtension>
        </extensions>
      </trkpt>
      <trkpt lat="43.471843935549259185791015625" lon="1.4320583827793598175048828125">
        <ele>253</ele>
        <time>2026-08-05T09:50:49.000Z</time>
        <extensions>
          <ns3:TrackPointExtension>
            <ns3:hr>65</ns3:hr>
            <ns3:cad>0</ns3:cad>
          </ns3:TrackPointExtension>
        </extensions>
      </trkpt>
      <trkpt lat="43.471843935549259185791015625" lon="1.4320583827793598175048828125">
        <ele>253.1999969482421875</ele>
        <time>2026-08-05T09:50:50.000Z</time>
        <extensions>
          <ns3:TrackPointExtension>
            <ns3:hr>66</ns3:hr>
            <ns3:cad>0</ns3:cad>
          </ns3:TrackPointExtension>
        </extensions>
      </trkpt>
      <trkpt lat="43.471843935549259185791015625" lon="1.4320583827793598175048828125">
        <ele>253.1999969482421875</ele>
        <time>2026-08-05T09:50:51.000Z</time>
        <extensions>
          <ns3:TrackPointExtension>
            <ns3:hr>66</ns3:hr>
            <ns3:cad>0</ns3:cad>
          </ns3:TrackPointExtension>
        </extensions>
      </trkpt>
      <trkpt lat="43.471843935549259185791015625" lon="1.4320583827793598175048828125">
        <ele>253.1999969482421875</ele>
        <time>2026-08-05T09:50:52.000Z</time>
        <extensions>
          <ns3:TrackPointExtension>
            <ns3:hr>66</ns3:hr>
            <ns3:cad>0</ns3:cad>
          </ns3:TrackPointExtension>
        </extensions>
      </trkpt>
      <trkpt lat="43.471843935549259185791015625" lon="1.4320583827793598175048828125">
        <ele>253.399993896484375</ele>
        <time>2026-08-05T09:50:53.000Z</time>
        <extensions>
          <ns3:TrackPointExtension>
            <ns3:hr>66</ns3:hr>
            <ns3:cad>0</ns3:cad>
          </ns3:TrackPointExtension>
        </extensions>
      </trkpt>
      <trkpt lat="43.471843935549259185791015625" lon="1.4320583827793598175048828125">
        <ele>253.399993896484375</ele>
        <time>2026-08-05T09:50:54.000Z</time>
        <extensions>
          <ns3:TrackPointExtension>
            <ns3:hr>66</ns3:hr>
            <ns3:cad>0</ns3:cad>
          </ns3:TrackPointExtension>
        </extensions>
      </trkpt>
      <trkpt lat="43.471843935549259185791015625" lon="1.4320583827793598175048828125">
        <ele>253.399993896484375</ele>
        <time>2026-08-05T09:50:55.000Z</time>
        <extensions>
          <ns3:TrackPointExtension>
            <ns3:hr>66</ns3:hr>
            <ns3:cad>0</ns3:cad>
          </ns3:TrackPointExtension>
        </extensions>
      </trkpt>
      <trkpt lat="43.471843935549259185791015625" lon="1.4320583827793598175048828125">
        <ele>253.399993896484375</ele>
        <time>2026-08-05T09:50:56.000Z</time>
        <extensions>
          <ns3:TrackPointExtension>
            <ns3:hr>66</ns3:hr>
            <ns3:cad>0</ns3:cad>
          </ns3:TrackPointExtension>
        </extensions>
      </trkpt>
      <trkpt lat="43.471843935549259185791015625" lon="1.4320583827793598175048828125">
        <ele>253.600006103515625</ele>
        <time>2026-08-05T09:50:57.000Z</time>
        <extensions>
          <ns3:TrackPointExtension>
            <ns3:hr>66</ns3:hr>
            <ns3:cad>0</ns3:cad>
          </ns3:TrackPointExtension>
        </extensions>
      </trkpt>
      <trkpt lat="43.471843935549259185791015625" lon="1.4320583827793598175048828125">
        <ele>253.600006103515625</ele>
        <time>2026-08-05T09:50:58.000Z</time>
        <extensions>
          <ns3:TrackPointExtension>
            <ns3:hr>66</ns3:hr>
            <ns3:cad>0</ns3:cad>
          </ns3:TrackPointExtension>
        </extensions>
      </trkpt>
      <trkpt lat="43.471843935549259185791015625" lon="1.4320583827793598175048828125">
        <ele>253.600006103515625</ele>
        <time>2026-08-05T09:50:59.000Z</time>
        <extensions>
          <ns3:TrackPointExtension>
            <ns3:hr>66</ns3:hr>
            <ns3:cad>0</ns3:cad>
          </ns3:TrackPointExtension>
        </extensions>
      </trkpt>
      <trkpt lat="43.471843935549259185791015625" lon="1.4320583827793598175048828125">
        <ele>253.600006103515625</ele>
        <time>2026-08-05T09:51:00.000Z</time>
        <extensions>
          <ns3:TrackPointExtension>
            <ns3:hr>65</ns3:hr>
            <ns3:cad>0</ns3:cad>
          </ns3:TrackPointExtension>
        </extensions>
      </trkpt>
      <trkpt lat="43.471843935549259185791015625" lon="1.4320583827793598175048828125">
        <ele>253.600006103515625</ele>
        <time>2026-08-05T09:51:01.000Z</time>
        <extensions>
          <ns3:TrackPointExtension>
            <ns3:hr>66</ns3:hr>
            <ns3:cad>0</ns3:cad>
          </ns3:TrackPointExtension>
        </extensions>
      </trkpt>
      <trkpt lat="43.471843935549259185791015625" lon="1.4320583827793598175048828125">
        <ele>253.600006103515625</ele>
        <time>2026-08-05T09:51:02.000Z</time>
        <extensions>
          <ns3:TrackPointExtension>
            <ns3:hr>65</ns3:hr>
            <ns3:cad>0</ns3:cad>
          </ns3:TrackPointExtension>
        </extensions>
      </trkpt>
      <trkpt lat="43.471843935549259185791015625" lon="1.4320583827793598175048828125">
        <ele>253.600006103515625</ele>
        <time>2026-08-05T09:51:03.000Z</time>
        <extensions>
          <ns3:TrackPointExtension>
            <ns3:hr>63</ns3:hr>
            <ns3:cad>0</ns3:cad>
          </ns3:TrackPointExtension>
        </extensions>
      </trkpt>
      <trkpt lat="43.471843935549259185791015625" lon="1.4320583827793598175048828125">
        <ele>253.600006103515625</ele>
        <time>2026-08-05T09:51:04.000Z</time>
        <extensions>
          <ns3:TrackPointExtension>
            <ns3:hr>63</ns3:hr>
            <ns3:cad>0</ns3:cad>
          </ns3:TrackPointExtension>
        </extensions>
      </trkpt>
      <trkpt lat="43.471843935549259185791015625" lon="1.4320583827793598175048828125">
        <ele>253.600006103515625</ele>
        <time>2026-08-05T09:51:05.000Z</time>
        <extensions>
          <ns3:TrackPointExtension>
            <ns3:hr>62</ns3:hr>
            <ns3:cad>0</ns3:cad>
          </ns3:TrackPointExtension>
        </extensions>
      </trkpt>
      <trkpt lat="43.471843935549259185791015625" lon="1.4320583827793598175048828125">
        <ele>253.600006103515625</ele>
        <time>2026-08-05T09:51:06.000Z</time>
        <extensions>
          <ns3:TrackPointExtension>
            <ns3:hr>61</ns3:hr>
            <ns3:cad>0</ns3:cad>
          </ns3:TrackPointExtension>
        </extensions>
      </trkpt>
      <trkpt lat="43.471843935549259185791015625" lon="1.4320583827793598175048828125">
        <ele>253.600006103515625</ele>
        <time>2026-08-05T09:51:07.000Z</time>
        <extensions>
          <ns3:TrackPointExtension>
            <ns3:hr>60</ns3:hr>
            <ns3:cad>0</ns3:cad>
          </ns3:TrackPointExtension>
        </extensions>
      </trkpt>
      <trkpt lat="43.471843935549259185791015625" lon="1.4320583827793598175048828125">
        <ele>253.600006103515625</ele>
        <time>2026-08-05T09:51:08.000Z</time>
        <extensions>
          <ns3:TrackPointExtension>
            <ns3:hr>58</ns3:hr>
            <ns3:cad>0</ns3:cad>
          </ns3:TrackPointExtension>
        </extensions>
      </trkpt>
      <trkpt lat="43.471843935549259185791015625" lon="1.4320583827793598175048828125">
        <ele>253.8000030517578125</ele>
        <time>2026-08-05T09:51:09.000Z</time>
        <extensions>
          <ns3:TrackPointExtension>
            <ns3:hr>57</ns3:hr>
            <ns3:cad>0</ns3:cad>
          </ns3:TrackPointExtension>
        </extensions>
      </trkpt>
      <trkpt lat="43.471843935549259185791015625" lon="1.4320583827793598175048828125">
        <ele>253.8000030517578125</ele>
        <time>2026-08-05T09:51:10.000Z</time>
        <extensions>
          <ns3:TrackPointExtension>
            <ns3:hr>57</ns3:hr>
            <ns3:cad>0</ns3:cad>
          </ns3:TrackPointExtension>
        </extensions>
      </trkpt>
      <trkpt lat="43.471843935549259185791015625" lon="1.4320583827793598175048828125">
        <ele>253.8000030517578125</ele>
        <time>2026-08-05T09:51:11.000Z</time>
        <extensions>
          <ns3:TrackPointExtension>
            <ns3:hr>57</ns3:hr>
            <ns3:cad>0</ns3:cad>
          </ns3:TrackPointExtension>
        </extensions>
      </trkpt>
      <trkpt lat="43.471843935549259185791015625" lon="1.4320583827793598175048828125">
        <ele>253.8000030517578125</ele>
        <time>2026-08-05T09:51:12.000Z</time>
        <extensions>
          <ns3:TrackPointExtension>
            <ns3:hr>58</ns3:hr>
            <ns3:cad>0</ns3:cad>
          </ns3:TrackPointExtension>
        </extensions>
      </trkpt>
      <trkpt lat="43.471843935549259185791015625" lon="1.4320583827793598175048828125">
        <ele>253.8000030517578125</ele>
        <time>2026-08-05T09:51:13.000Z</time>
        <extensions>
          <ns3:TrackPointExtension>
            <ns3:hr>59</ns3:hr>
            <ns3:cad>0</ns3:cad>
          </ns3:TrackPointExtension>
        </extensions>
      </trkpt>
      <trkpt lat="43.471843935549259185791015625" lon="1.4320583827793598175048828125">
        <ele>253.8000030517578125</ele>
        <time>2026-08-05T09:51:14.000Z</time>
        <extensions>
          <ns3:TrackPointExtension>
            <ns3:hr>59</ns3:hr>
            <ns3:cad>0</ns3:cad>
          </ns3:TrackPointExtension>
        </extensions>
      </trkpt>
      <trkpt lat="43.471843935549259185791015625" lon="1.4320583827793598175048828125">
        <ele>253.600006103515625</ele>
        <time>2026-08-05T09:51:15.000Z</time>
        <extensions>
          <ns3:TrackPointExtension>
            <ns3:hr>60</ns3:hr>
            <ns3:cad>0</ns3:cad>
          </ns3:TrackPointExtension>
        </extensions>
      </trkpt>
      <trkpt lat="43.471843935549259185791015625" lon="1.4320583827793598175048828125">
        <ele>253.8000030517578125</ele>
        <time>2026-08-05T09:51:16.000Z</time>
        <extensions>
          <ns3:TrackPointExtension>
            <ns3:hr>61</ns3:hr>
            <ns3:cad>0</ns3:cad>
          </ns3:TrackPointExtension>
        </extensions>
      </trkpt>
      <trkpt lat="43.471843935549259185791015625" lon="1.4320583827793598175048828125">
        <ele>253.8000030517578125</ele>
        <time>2026-08-05T09:51:17.000Z</time>
        <extensions>
          <ns3:TrackPointExtension>
            <ns3:hr>62</ns3:hr>
            <ns3:cad>0</ns3:cad>
          </ns3:TrackPointExtension>
        </extensions>
      </trkpt>
      <trkpt lat="43.471843935549259185791015625" lon="1.4320583827793598175048828125">
        <ele>253.8000030517578125</ele>
        <time>2026-08-05T09:51:18.000Z</time>
        <extensions>
          <ns3:TrackPointExtension>
            <ns3:hr>63</ns3:hr>
            <ns3:cad>0</ns3:cad>
          </ns3:TrackPointExtension>
        </extensions>
      </trkpt>
      <trkpt lat="43.471843935549259185791015625" lon="1.4320583827793598175048828125">
        <ele>253.8000030517578125</ele>
        <time>2026-08-05T09:51:19.000Z</time>
        <extensions>
          <ns3:TrackPointExtension>
            <ns3:hr>64</ns3:hr>
            <ns3:cad>0</ns3:cad>
          </ns3:TrackPointExtension>
        </extensions>
      </trkpt>
      <trkpt lat="43.471843935549259185791015625" lon="1.4320583827793598175048828125">
        <ele>253.8000030517578125</ele>
        <time>2026-08-05T09:51:20.000Z</time>
        <extensions>
          <ns3:TrackPointExtension>
            <ns3:hr>64</ns3:hr>
            <ns3:cad>0</ns3:cad>
          </ns3:TrackPointExtension>
        </extensions>
      </trkpt>
      <trkpt lat="43.471843935549259185791015625" lon="1.4320583827793598175048828125">
        <ele>253.8000030517578125</ele>
        <time>2026-08-05T09:51:21.000Z</time>
        <extensions>
          <ns3:TrackPointExtension>
            <ns3:hr>65</ns3:hr>
            <ns3:cad>0</ns3:cad>
          </ns3:TrackPointExtension>
        </extensions>
      </trkpt>
      <trkpt lat="43.471843935549259185791015625" lon="1.4320583827793598175048828125">
        <ele>253.600006103515625</ele>
        <time>2026-08-05T09:51:22.000Z</time>
        <extensions>
          <ns3:TrackPointExtension>
            <ns3:hr>65</ns3:hr>
            <ns3:cad>0</ns3:cad>
          </ns3:TrackPointExtension>
        </extensions>
      </trkpt>
      <trkpt lat="43.471843935549259185791015625" lon="1.4320583827793598175048828125">
        <ele>253.600006103515625</ele>
        <time>2026-08-05T09:51:23.000Z</time>
        <extensions>
          <ns3:TrackPointExtension>
            <ns3:hr>65</ns3:hr>
            <ns3:cad>0</ns3:cad>
          </ns3:TrackPointExtension>
        </extensions>
      </trkpt>
      <trkpt lat="43.471843935549259185791015625" lon="1.4320583827793598175048828125">
        <ele>253.600006103515625</ele>
        <time>2026-08-05T09:51:24.000Z</time>
        <extensions>
          <ns3:TrackPointExtension>
            <ns3:hr>65</ns3:hr>
            <ns3:cad>0</ns3:cad>
          </ns3:TrackPointExtension>
        </extensions>
      </trkpt>
      <trkpt lat="43.471843935549259185791015625" lon="1.4320583827793598175048828125">
        <ele>253.600006103515625</ele>
        <time>2026-08-05T09:51:25.000Z</time>
        <extensions>
          <ns3:TrackPointExtension>
            <ns3:hr>64</ns3:hr>
            <ns3:cad>0</ns3:cad>
          </ns3:TrackPointExtension>
        </extensions>
      </trkpt>
      <trkpt lat="43.471843935549259185791015625" lon="1.4320583827793598175048828125">
        <ele>253.600006103515625</ele>
        <time>2026-08-05T09:51:26.000Z</time>
        <extensions>
          <ns3:TrackPointExtension>
            <ns3:hr>64</ns3:hr>
            <ns3:cad>0</ns3:cad>
          </ns3:TrackPointExtension>
        </extensions>
      </trkpt>
      <trkpt lat="43.471843935549259185791015625" lon="1.4320583827793598175048828125">
        <ele>253.600006103515625</ele>
        <time>2026-08-05T09:51:27.000Z</time>
        <extensions>
          <ns3:TrackPointExtension>
            <ns3:hr>62</ns3:hr>
            <ns3:cad>0</ns3:cad>
          </ns3:TrackPointExtension>
        </extensions>
      </trkpt>
      <trkpt lat="43.471843935549259185791015625" lon="1.4320583827793598175048828125">
        <ele>253.600006103515625</ele>
        <time>2026-08-05T09:51:28.000Z</time>
        <extensions>
          <ns3:TrackPointExtension>
            <ns3:hr>63</ns3:hr>
            <ns3:cad>0</ns3:cad>
          </ns3:TrackPointExtension>
        </extensions>
      </trkpt>
      <trkpt lat="43.471843935549259185791015625" lon="1.4320583827793598175048828125">
        <ele>253.600006103515625</ele>
        <time>2026-08-05T09:51:29.000Z</time>
        <extensions>
          <ns3:TrackPointExtension>
            <ns3:hr>63</ns3:hr>
            <ns3:cad>0</ns3:cad>
          </ns3:TrackPointExtension>
        </extensions>
      </trkpt>
      <trkpt lat="43.471843935549259185791015625" lon="1.4320583827793598175048828125">
        <ele>253.600006103515625</ele>
        <time>2026-08-05T09:51:30.000Z</time>
        <extensions>
          <ns3:TrackPointExtension>
            <ns3:hr>64</ns3:hr>
            <ns3:cad>0</ns3:cad>
          </ns3:TrackPointExtension>
        </extensions>
      </trkpt>
      <trkpt lat="43.471843935549259185791015625" lon="1.4320583827793598175048828125">
        <ele>253.8000030517578125</ele>
        <time>2026-08-05T09:51:31.000Z</time>
        <extensions>
          <ns3:TrackPointExtension>
            <ns3:hr>65</ns3:hr>
            <ns3:cad>0</ns3:cad>
          </ns3:TrackPointExtension>
        </extensions>
      </trkpt>
      <trkpt lat="43.471843935549259185791015625" lon="1.4320583827793598175048828125">
        <ele>253.8000030517578125</ele>
        <time>2026-08-05T09:51:32.000Z</time>
        <extensions>
          <ns3:TrackPointExtension>
            <ns3:hr>65</ns3:hr>
            <ns3:cad>0</ns3:cad>
          </ns3:TrackPointExtension>
        </extensions>
      </trkpt>
      <trkpt lat="43.471843935549259185791015625" lon="1.4320583827793598175048828125">
        <ele>253.8000030517578125</ele>
        <time>2026-08-05T09:51:33.000Z</time>
        <extensions>
          <ns3:TrackPointExtension>
            <ns3:hr>65</ns3:hr>
            <ns3:cad>0</ns3:cad>
          </ns3:TrackPointExtension>
        </extensions>
      </trkpt>
      <trkpt lat="43.471843935549259185791015625" lon="1.4320583827793598175048828125">
        <ele>253.8000030517578125</ele>
        <time>2026-08-05T09:51:34.000Z</time>
        <extensions>
          <ns3:TrackPointExtension>
            <ns3:hr>64</ns3:hr>
            <ns3:cad>0</ns3:cad>
          </ns3:TrackPointExtension>
        </extensions>
      </trkpt>
      <trkpt lat="43.471843935549259185791015625" lon="1.4320583827793598175048828125">
        <ele>253.8000030517578125</ele>
        <time>2026-08-05T09:51:35.000Z</time>
        <extensions>
          <ns3:TrackPointExtension>
            <ns3:hr>64</ns3:hr>
            <ns3:cad>0</ns3:cad>
          </ns3:TrackPointExtension>
        </extensions>
      </trkpt>
      <trkpt lat="43.471843935549259185791015625" lon="1.4320583827793598175048828125">
        <ele>253.8000030517578125</ele>
        <time>2026-08-05T09:51:36.000Z</time>
        <extensions>
          <ns3:TrackPointExtension>
            <ns3:hr>64</ns3:hr>
            <ns3:cad>0</ns3:cad>
          </ns3:TrackPointExtension>
        </extensions>
      </trkpt>
      <trkpt lat="43.471843935549259185791015625" lon="1.4320583827793598175048828125">
        <ele>253.600006103515625</ele>
        <time>2026-08-05T09:51:37.000Z</time>
        <extensions>
          <ns3:TrackPointExtension>
            <ns3:hr>63</ns3:hr>
            <ns3:cad>0</ns3:cad>
          </ns3:TrackPointExtension>
        </extensions>
      </trkpt>
      <trkpt lat="43.471843935549259185791015625" lon="1.4320583827793598175048828125">
        <ele>253.600006103515625</ele>
        <time>2026-08-05T09:51:38.000Z</time>
        <extensions>
          <ns3:TrackPointExtension>
            <ns3:hr>62</ns3:hr>
            <ns3:cad>0</ns3:cad>
          </ns3:TrackPointExtension>
        </extensions>
      </trkpt>
      <trkpt lat="43.471843935549259185791015625" lon="1.4320583827793598175048828125">
        <ele>253.600006103515625</ele>
        <time>2026-08-05T09:51:39.000Z</time>
        <extensions>
          <ns3:TrackPointExtension>
            <ns3:hr>63</ns3:hr>
            <ns3:cad>0</ns3:cad>
          </ns3:TrackPointExtension>
        </extensions>
      </trkpt>
      <trkpt lat="43.471843935549259185791015625" lon="1.4320583827793598175048828125">
        <ele>253.600006103515625</ele>
        <time>2026-08-05T09:51:40.000Z</time>
        <extensions>
          <ns3:TrackPointExtension>
            <ns3:hr>63</ns3:hr>
            <ns3:cad>0</ns3:cad>
          </ns3:TrackPointExtension>
        </extensions>
      </trkpt>
      <trkpt lat="43.471843935549259185791015625" lon="1.4320583827793598175048828125">
        <ele>253.600006103515625</ele>
        <time>2026-08-05T09:51:41.000Z</time>
        <extensions>
          <ns3:TrackPointExtension>
            <ns3:hr>64</ns3:hr>
            <ns3:cad>0</ns3:cad>
          </ns3:TrackPointExtension>
        </extensions>
      </trkpt>
      <trkpt lat="43.471843935549259185791015625" lon="1.4320583827793598175048828125">
        <ele>253.600006103515625</ele>
        <time>2026-08-05T09:51:42.000Z</time>
        <extensions>
          <ns3:TrackPointExtension>
            <ns3:hr>64</ns3:hr>
            <ns3:cad>0</ns3:cad>
          </ns3:TrackPointExtension>
        </extensions>
      </trkpt>
      <trkpt lat="43.471843935549259185791015625" lon="1.4320583827793598175048828125">
        <ele>253.600006103515625</ele>
        <time>2026-08-05T09:51:43.000Z</time>
        <extensions>
          <ns3:TrackPointExtension>
            <ns3:hr>64</ns3:hr>
            <ns3:cad>0</ns3:cad>
          </ns3:TrackPointExtension>
        </extensions>
      </trkpt>
      <trkpt lat="43.471843935549259185791015625" lon="1.4320583827793598175048828125">
        <ele>253.600006103515625</ele>
        <time>2026-08-05T09:51:44.000Z</time>
        <extensions>
          <ns3:TrackPointExtension>
            <ns3:hr>64</ns3:hr>
            <ns3:cad>0</ns3:cad>
          </ns3:TrackPointExtension>
        </extensions>
      </trkpt>
      <trkpt lat="43.471843935549259185791015625" lon="1.4320583827793598175048828125">
        <ele>253.600006103515625</ele>
        <time>2026-08-05T09:51:45.000Z</time>
        <extensions>
          <ns3:TrackPointExtension>
            <ns3:hr>64</ns3:hr>
            <ns3:cad>0</ns3:cad>
          </ns3:TrackPointExtension>
        </extensions>
      </trkpt>
      <trkpt lat="43.471843935549259185791015625" lon="1.4320583827793598175048828125">
        <ele>253.600006103515625</ele>
        <time>2026-08-05T09:51:46.000Z</time>
        <extensions>
          <ns3:TrackPointExtension>
            <ns3:hr>63</ns3:hr>
            <ns3:cad>0</ns3:cad>
          </ns3:TrackPointExtension>
        </extensions>
      </trkpt>
      <trkpt lat="43.471843935549259185791015625" lon="1.4320583827793598175048828125">
        <ele>253.600006103515625</ele>
        <time>2026-08-05T09:51:47.000Z</time>
        <extensions>
          <ns3:TrackPointExtension>
            <ns3:hr>63</ns3:hr>
            <ns3:cad>0</ns3:cad>
          </ns3:TrackPointExtension>
        </extensions>
      </trkpt>
      <trkpt lat="43.471843935549259185791015625" lon="1.4320583827793598175048828125">
        <ele>253.600006103515625</ele>
        <time>2026-08-05T09:51:48.000Z</time>
        <extensions>
          <ns3:TrackPointExtension>
            <ns3:hr>63</ns3:hr>
            <ns3:cad>0</ns3:cad>
          </ns3:TrackPointExtension>
        </extensions>
      </trkpt>
      <trkpt lat="43.471843935549259185791015625" lon="1.4320583827793598175048828125">
        <ele>253.600006103515625</ele>
        <time>2026-08-05T09:51:49.000Z</time>
        <extensions>
          <ns3:TrackPointExtension>
            <ns3:hr>65</ns3:hr>
            <ns3:cad>0</ns3:cad>
          </ns3:TrackPointExtension>
        </extensions>
      </trkpt>
      <trkpt lat="43.471843935549259185791015625" lon="1.4320583827793598175048828125">
        <ele>253.600006103515625</ele>
        <time>2026-08-05T09:51:50.000Z</time>
        <extensions>
          <ns3:TrackPointExtension>
            <ns3:hr>68</ns3:hr>
            <ns3:cad>0</ns3:cad>
          </ns3:TrackPointExtension>
        </extensions>
      </trkpt>
      <trkpt lat="43.471843935549259185791015625" lon="1.4320583827793598175048828125">
        <ele>253.600006103515625</ele>
        <time>2026-08-05T09:51:51.000Z</time>
        <extensions>
          <ns3:TrackPointExtension>
            <ns3:hr>69</ns3:hr>
            <ns3:cad>0</ns3:cad>
          </ns3:TrackPointExtension>
        </extensions>
      </trkpt>
      <trkpt lat="43.471843935549259185791015625" lon="1.4320583827793598175048828125">
        <ele>253.399993896484375</ele>
        <time>2026-08-05T09:51:52.000Z</time>
        <extensions>
          <ns3:TrackPointExtension>
            <ns3:hr>68</ns3:hr>
            <ns3:cad>0</ns3:cad>
          </ns3:TrackPointExtension>
        </extensions>
      </trkpt>
      <trkpt lat="43.471843935549259185791015625" lon="1.4320583827793598175048828125">
        <ele>253.399993896484375</ele>
        <time>2026-08-05T09:51:53.000Z</time>
        <extensions>
          <ns3:TrackPointExtension>
            <ns3:hr>68</ns3:hr>
            <ns3:cad>0</ns3:cad>
          </ns3:TrackPointExtension>
        </extensions>
      </trkpt>
      <trkpt lat="43.471843935549259185791015625" lon="1.4320583827793598175048828125">
        <ele>253.399993896484375</ele>
        <time>2026-08-05T09:51:54.000Z</time>
        <extensions>
          <ns3:TrackPointExtension>
            <ns3:hr>68</ns3:hr>
            <ns3:cad>0</ns3:cad>
          </ns3:TrackPointExtension>
        </extensions>
      </trkpt>
      <trkpt lat="43.471843935549259185791015625" lon="1.4320583827793598175048828125">
        <ele>253.399993896484375</ele>
        <time>2026-08-05T09:51:55.000Z</time>
        <extensions>
          <ns3:TrackPointExtension>
            <ns3:hr>67</ns3:hr>
            <ns3:cad>0</ns3:cad>
          </ns3:TrackPointExtension>
        </extensions>
      </trkpt>
      <trkpt lat="43.471843935549259185791015625" lon="1.4320583827793598175048828125">
        <ele>253.1999969482421875</ele>
        <time>2026-08-05T09:51:56.000Z</time>
        <extensions>
          <ns3:TrackPointExtension>
            <ns3:hr>66</ns3:hr>
            <ns3:cad>0</ns3:cad>
          </ns3:TrackPointExtension>
        </extensions>
      </trkpt>
      <trkpt lat="43.471843935549259185791015625" lon="1.4320583827793598175048828125">
        <ele>253.1999969482421875</ele>
        <time>2026-08-05T09:51:57.000Z</time>
        <extensions>
          <ns3:TrackPointExtension>
            <ns3:hr>66</ns3:hr>
            <ns3:cad>0</ns3:cad>
          </ns3:TrackPointExtension>
        </extensions>
      </trkpt>
      <trkpt lat="43.471843935549259185791015625" lon="1.4320583827793598175048828125">
        <ele>253.1999969482421875</ele>
        <time>2026-08-05T09:51:58.000Z</time>
        <extensions>
          <ns3:TrackPointExtension>
            <ns3:hr>66</ns3:hr>
            <ns3:cad>0</ns3:cad>
          </ns3:TrackPointExtension>
        </extensions>
      </trkpt>
      <trkpt lat="43.471843935549259185791015625" lon="1.4320583827793598175048828125">
        <ele>253.1999969482421875</ele>
        <time>2026-08-05T09:51:59.000Z</time>
        <extensions>
          <ns3:TrackPointExtension>
            <ns3:hr>65</ns3:hr>
            <ns3:cad>0</ns3:cad>
          </ns3:TrackPointExtension>
        </extensions>
      </trkpt>
      <trkpt lat="43.471843935549259185791015625" lon="1.4320583827793598175048828125">
        <ele>253.1999969482421875</ele>
        <time>2026-08-05T09:52:00.000Z</time>
        <extensions>
          <ns3:TrackPointExtension>
            <ns3:hr>64</ns3:hr>
            <ns3:cad>0</ns3:cad>
          </ns3:TrackPointExtension>
        </extensions>
      </trkpt>
      <trkpt lat="43.471843935549259185791015625" lon="1.4320583827793598175048828125">
        <ele>253.399993896484375</ele>
        <time>2026-08-05T09:52:01.000Z</time>
        <extensions>
          <ns3:TrackPointExtension>
            <ns3:hr>63</ns3:hr>
            <ns3:cad>0</ns3:cad>
          </ns3:TrackPointExtension>
        </extensions>
      </trkpt>
      <trkpt lat="43.471843935549259185791015625" lon="1.4320583827793598175048828125">
        <ele>253.399993896484375</ele>
        <time>2026-08-05T09:52:02.000Z</time>
        <extensions>
          <ns3:TrackPointExtension>
            <ns3:hr>62</ns3:hr>
            <ns3:cad>0</ns3:cad>
          </ns3:TrackPointExtension>
        </extensions>
      </trkpt>
      <trkpt lat="43.471843935549259185791015625" lon="1.4320583827793598175048828125">
        <ele>253.399993896484375</ele>
        <time>2026-08-05T09:52:03.000Z</time>
        <extensions>
          <ns3:TrackPointExtension>
            <ns3:hr>62</ns3:hr>
            <ns3:cad>0</ns3:cad>
          </ns3:TrackPointExtension>
        </extensions>
      </trkpt>
      <trkpt lat="43.471843935549259185791015625" lon="1.4320583827793598175048828125">
        <ele>253.399993896484375</ele>
        <time>2026-08-05T09:52:04.000Z</time>
        <extensions>
          <ns3:TrackPointExtension>
            <ns3:hr>62</ns3:hr>
            <ns3:cad>0</ns3:cad>
          </ns3:TrackPointExtension>
        </extensions>
      </trkpt>
      <trkpt lat="43.471843935549259185791015625" lon="1.4320583827793598175048828125">
        <ele>253.399993896484375</ele>
        <time>2026-08-05T09:52:05.000Z</time>
        <extensions>
          <ns3:TrackPointExtension>
            <ns3:hr>63</ns3:hr>
            <ns3:cad>0</ns3:cad>
          </ns3:TrackPointExtension>
        </extensions>
      </trkpt>
      <trkpt lat="43.471843935549259185791015625" lon="1.4320583827793598175048828125">
        <ele>253.399993896484375</ele>
        <time>2026-08-05T09:52:06.000Z</time>
        <extensions>
          <ns3:TrackPointExtension>
            <ns3:hr>63</ns3:hr>
            <ns3:cad>0</ns3:cad>
          </ns3:TrackPointExtension>
        </extensions>
      </trkpt>
      <trkpt lat="43.471843935549259185791015625" lon="1.4320583827793598175048828125">
        <ele>253.600006103515625</ele>
        <time>2026-08-05T09:52:07.000Z</time>
        <extensions>
          <ns3:TrackPointExtension>
            <ns3:hr>63</ns3:hr>
            <ns3:cad>0</ns3:cad>
          </ns3:TrackPointExtension>
        </extensions>
      </trkpt>
      <trkpt lat="43.471843935549259185791015625" lon="1.4320583827793598175048828125">
        <ele>253.600006103515625</ele>
        <time>2026-08-05T09:52:08.000Z</time>
        <extensions>
          <ns3:TrackPointExtension>
            <ns3:hr>63</ns3:hr>
            <ns3:cad>0</ns3:cad>
          </ns3:TrackPointExtension>
        </extensions>
      </trkpt>
      <trkpt lat="43.471843935549259185791015625" lon="1.4320583827793598175048828125">
        <ele>253.600006103515625</ele>
        <time>2026-08-05T09:52:09.000Z</time>
        <extensions>
          <ns3:TrackPointExtension>
            <ns3:hr>63</ns3:hr>
            <ns3:cad>0</ns3:cad>
          </ns3:TrackPointExtension>
        </extensions>
      </trkpt>
      <trkpt lat="43.471843935549259185791015625" lon="1.4320583827793598175048828125">
        <ele>253.600006103515625</ele>
        <time>2026-08-05T09:52:10.000Z</time>
        <extensions>
          <ns3:TrackPointExtension>
            <ns3:hr>63</ns3:hr>
            <ns3:cad>0</ns3:cad>
          </ns3:TrackPointExtension>
        </extensions>
      </trkpt>
      <trkpt lat="43.471843935549259185791015625" lon="1.4320583827793598175048828125">
        <ele>253.600006103515625</ele>
        <time>2026-08-05T09:52:11.000Z</time>
        <extensions>
          <ns3:TrackPointExtension>
            <ns3:hr>64</ns3:hr>
            <ns3:cad>0</ns3:cad>
          </ns3:TrackPointExtension>
        </extensions>
      </trkpt>
      <trkpt lat="43.471843935549259185791015625" lon="1.4320583827793598175048828125">
        <ele>253.600006103515625</ele>
        <time>2026-08-05T09:52:12.000Z</time>
        <extensions>
          <ns3:TrackPointExtension>
            <ns3:hr>64</ns3:hr>
            <ns3:cad>0</ns3:cad>
          </ns3:TrackPointExtension>
        </extensions>
      </trkpt>
      <trkpt lat="43.471843935549259185791015625" lon="1.4320583827793598175048828125">
        <ele>253.600006103515625</ele>
        <time>2026-08-05T09:52:13.000Z</time>
        <extensions>
          <ns3:TrackPointExtension>
            <ns3:hr>66</ns3:hr>
            <ns3:cad>0</ns3:cad>
          </ns3:TrackPointExtension>
        </extensions>
      </trkpt>
      <trkpt lat="43.471843935549259185791015625" lon="1.4320583827793598175048828125">
        <ele>253.600006103515625</ele>
        <time>2026-08-05T09:52:14.000Z</time>
        <extensions>
          <ns3:TrackPointExtension>
            <ns3:hr>67</ns3:hr>
            <ns3:cad>0</ns3:cad>
          </ns3:TrackPointExtension>
        </extensions>
      </trkpt>
      <trkpt lat="43.471843935549259185791015625" lon="1.4320583827793598175048828125">
        <ele>253.8000030517578125</ele>
        <time>2026-08-05T09:52:15.000Z</time>
        <extensions>
          <ns3:TrackPointExtension>
            <ns3:hr>67</ns3:hr>
            <ns3:cad>0</ns3:cad>
          </ns3:TrackPointExtension>
        </extensions>
      </trkpt>
      <trkpt lat="43.471843935549259185791015625" lon="1.4320583827793598175048828125">
        <ele>253.8000030517578125</ele>
        <time>2026-08-05T09:52:16.000Z</time>
        <extensions>
          <ns3:TrackPointExtension>
            <ns3:hr>67</ns3:hr>
            <ns3:cad>0</ns3:cad>
          </ns3:TrackPointExtension>
        </extensions>
      </trkpt>
      <trkpt lat="43.471843935549259185791015625" lon="1.4320583827793598175048828125">
        <ele>253.8000030517578125</ele>
        <time>2026-08-05T09:52:17.000Z</time>
        <extensions>
          <ns3:TrackPointExtension>
            <ns3:hr>68</ns3:hr>
            <ns3:cad>0</ns3:cad>
          </ns3:TrackPointExtension>
        </extensions>
      </trkpt>
      <trkpt lat="43.471843935549259185791015625" lon="1.4320583827793598175048828125">
        <ele>254</ele>
        <time>2026-08-05T09:52:18.000Z</time>
        <extensions>
          <ns3:TrackPointExtension>
            <ns3:hr>67</ns3:hr>
            <ns3:cad>0</ns3:cad>
          </ns3:TrackPointExtension>
        </extensions>
      </trkpt>
      <trkpt lat="43.471843935549259185791015625" lon="1.4320583827793598175048828125">
        <ele>254</ele>
        <time>2026-08-05T09:52:19.000Z</time>
        <extensions>
          <ns3:TrackPointExtension>
            <ns3:hr>67</ns3:hr>
            <ns3:cad>0</ns3:cad>
          </ns3:TrackPointExtension>
        </extensions>
      </trkpt>
      <trkpt lat="43.471843935549259185791015625" lon="1.4320583827793598175048828125">
        <ele>254</ele>
        <time>2026-08-05T09:52:20.000Z</time>
        <extensions>
          <ns3:TrackPointExtension>
            <ns3:hr>66</ns3:hr>
            <ns3:cad>0</ns3:cad>
          </ns3:TrackPointExtension>
        </extensions>
      </trkpt>
      <trkpt lat="43.471843935549259185791015625" lon="1.4320583827793598175048828125">
        <ele>254.1999969482421875</ele>
        <time>2026-08-05T09:52:21.000Z</time>
        <extensions>
          <ns3:TrackPointExtension>
            <ns3:hr>66</ns3:hr>
            <ns3:cad>0</ns3:cad>
          </ns3:TrackPointExtension>
        </extensions>
      </trkpt>
      <trkpt lat="43.471843935549259185791015625" lon="1.4320583827793598175048828125">
        <ele>254.1999969482421875</ele>
        <time>2026-08-05T09:52:22.000Z</time>
        <extensions>
          <ns3:TrackPointExtension>
            <ns3:hr>65</ns3:hr>
            <ns3:cad>0</ns3:cad>
          </ns3:TrackPointExtension>
        </extensions>
      </trkpt>
      <trkpt lat="43.471843935549259185791015625" lon="1.4320583827793598175048828125">
        <ele>254.1999969482421875</ele>
        <time>2026-08-05T09:52:23.000Z</time>
        <extensions>
          <ns3:TrackPointExtension>
            <ns3:hr>66</ns3:hr>
            <ns3:cad>0</ns3:cad>
          </ns3:TrackPointExtension>
        </extensions>
      </trkpt>
      <trkpt lat="43.471843935549259185791015625" lon="1.4320583827793598175048828125">
        <ele>254.1999969482421875</ele>
        <time>2026-08-05T09:52:24.000Z</time>
        <extensions>
          <ns3:TrackPointExtension>
            <ns3:hr>65</ns3:hr>
            <ns3:cad>0</ns3:cad>
          </ns3:TrackPointExtension>
        </extensions>
      </trkpt>
      <trkpt lat="43.471843935549259185791015625" lon="1.4320583827793598175048828125">
        <ele>254.1999969482421875</ele>
        <time>2026-08-05T09:52:25.000Z</time>
        <extensions>
          <ns3:TrackPointExtension>
            <ns3:hr>65</ns3:hr>
            <ns3:cad>0</ns3:cad>
          </ns3:TrackPointExtension>
        </extensions>
      </trkpt>
      <trkpt lat="43.471843935549259185791015625" lon="1.4320583827793598175048828125">
        <ele>254.1999969482421875</ele>
        <time>2026-08-05T09:52:26.000Z</time>
        <extensions>
          <ns3:TrackPointExtension>
            <ns3:hr>64</ns3:hr>
            <ns3:cad>0</ns3:cad>
          </ns3:TrackPointExtension>
        </extensions>
      </trkpt>
      <trkpt lat="43.471843935549259185791015625" lon="1.4320583827793598175048828125">
        <ele>254.1999969482421875</ele>
        <time>2026-08-05T09:52:27.000Z</time>
        <extensions>
          <ns3:TrackPointExtension>
            <ns3:hr>64</ns3:hr>
            <ns3:cad>0</ns3:cad>
          </ns3:TrackPointExtension>
        </extensions>
      </trkpt>
      <trkpt lat="43.471843935549259185791015625" lon="1.4320583827793598175048828125">
        <ele>254.1999969482421875</ele>
        <time>2026-08-05T09:52:28.000Z</time>
        <extensions>
          <ns3:TrackPointExtension>
            <ns3:hr>64</ns3:hr>
            <ns3:cad>0</ns3:cad>
          </ns3:TrackPointExtension>
        </extensions>
      </trkpt>
      <trkpt lat="43.471843935549259185791015625" lon="1.4320583827793598175048828125">
        <ele>254.1999969482421875</ele>
        <time>2026-08-05T09:52:29.000Z</time>
        <extensions>
          <ns3:TrackPointExtension>
            <ns3:hr>65</ns3:hr>
            <ns3:cad>0</ns3:cad>
          </ns3:TrackPointExtension>
        </extensions>
      </trkpt>
      <trkpt lat="43.471843935549259185791015625" lon="1.4320583827793598175048828125">
        <ele>254.1999969482421875</ele>
        <time>2026-08-05T09:52:30.000Z</time>
        <extensions>
          <ns3:TrackPointExtension>
            <ns3:hr>64</ns3:hr>
            <ns3:cad>0</ns3:cad>
          </ns3:TrackPointExtension>
        </extensions>
      </trkpt>
      <trkpt lat="43.471843935549259185791015625" lon="1.4320583827793598175048828125">
        <ele>254.1999969482421875</ele>
        <time>2026-08-05T09:52:31.000Z</time>
        <extensions>
          <ns3:TrackPointExtension>
            <ns3:hr>65</ns3:hr>
            <ns3:cad>0</ns3:cad>
          </ns3:TrackPointExtension>
        </extensions>
      </trkpt>
      <trkpt lat="43.471843935549259185791015625" lon="1.4320583827793598175048828125">
        <ele>254.1999969482421875</ele>
        <time>2026-08-05T09:52:32.000Z</time>
        <extensions>
          <ns3:TrackPointExtension>
            <ns3:hr>65</ns3:hr>
            <ns3:cad>0</ns3:cad>
          </ns3:TrackPointExtension>
        </extensions>
      </trkpt>
      <trkpt lat="43.471843935549259185791015625" lon="1.4320583827793598175048828125">
        <ele>254.1999969482421875</ele>
        <time>2026-08-05T09:52:33.000Z</time>
        <extensions>
          <ns3:TrackPointExtension>
            <ns3:hr>66</ns3:hr>
            <ns3:cad>0</ns3:cad>
          </ns3:TrackPointExtension>
        </extensions>
      </trkpt>
      <trkpt lat="43.471843935549259185791015625" lon="1.4320583827793598175048828125">
        <ele>254.1999969482421875</ele>
        <time>2026-08-05T09:52:34.000Z</time>
        <extensions>
          <ns3:TrackPointExtension>
            <ns3:hr>66</ns3:hr>
            <ns3:cad>0</ns3:cad>
          </ns3:TrackPointExtension>
        </extensions>
      </trkpt>
      <trkpt lat="43.471843935549259185791015625" lon="1.4320583827793598175048828125">
        <ele>254.1999969482421875</ele>
        <time>2026-08-05T09:52:35.000Z</time>
        <extensions>
          <ns3:TrackPointExtension>
            <ns3:hr>66</ns3:hr>
            <ns3:cad>0</ns3:cad>
          </ns3:TrackPointExtension>
        </extensions>
      </trkpt>
      <trkpt lat="43.471843935549259185791015625" lon="1.4320583827793598175048828125">
        <ele>254.1999969482421875</ele>
        <time>2026-08-05T09:52:36.000Z</time>
        <extensions>
          <ns3:TrackPointExtension>
            <ns3:hr>66</ns3:hr>
            <ns3:cad>0</ns3:cad>
          </ns3:TrackPointExtension>
        </extensions>
      </trkpt>
      <trkpt lat="43.471843935549259185791015625" lon="1.4320583827793598175048828125">
        <ele>254.1999969482421875</ele>
        <time>2026-08-05T09:52:37.000Z</time>
        <extensions>
          <ns3:TrackPointExtension>
            <ns3:hr>66</ns3:hr>
            <ns3:cad>0</ns3:cad>
          </ns3:TrackPointExtension>
        </extensions>
      </trkpt>
      <trkpt lat="43.471843935549259185791015625" lon="1.4320583827793598175048828125">
        <ele>254.1999969482421875</ele>
        <time>2026-08-05T09:52:38.000Z</time>
        <extensions>
          <ns3:TrackPointExtension>
            <ns3:hr>66</ns3:hr>
            <ns3:cad>0</ns3:cad>
          </ns3:TrackPointExtension>
        </extensions>
      </trkpt>
      <trkpt lat="43.471843935549259185791015625" lon="1.4320583827793598175048828125">
        <ele>254.1999969482421875</ele>
        <time>2026-08-05T09:52:39.000Z</time>
        <extensions>
          <ns3:TrackPointExtension>
            <ns3:hr>66</ns3:hr>
            <ns3:cad>0</ns3:cad>
          </ns3:TrackPointExtension>
        </extensions>
      </trkpt>
      <trkpt lat="43.471843935549259185791015625" lon="1.4320583827793598175048828125">
        <ele>254.1999969482421875</ele>
        <time>2026-08-05T09:52:40.000Z</time>
        <extensions>
          <ns3:TrackPointExtension>
            <ns3:hr>66</ns3:hr>
            <ns3:cad>0</ns3:cad>
          </ns3:TrackPointExtension>
        </extensions>
      </trkpt>
      <trkpt lat="43.471843935549259185791015625" lon="1.4320583827793598175048828125">
        <ele>254.1999969482421875</ele>
        <time>2026-08-05T09:52:41.000Z</time>
        <extensions>
          <ns3:TrackPointExtension>
            <ns3:hr>66</ns3:hr>
            <ns3:cad>0</ns3:cad>
          </ns3:TrackPointExtension>
        </extensions>
      </trkpt>
      <trkpt lat="43.471843935549259185791015625" lon="1.4320583827793598175048828125">
        <ele>254.399993896484375</ele>
        <time>2026-08-05T09:52:42.000Z</time>
        <extensions>
          <ns3:TrackPointExtension>
            <ns3:hr>66</ns3:hr>
            <ns3:cad>0</ns3:cad>
          </ns3:TrackPointExtension>
        </extensions>
      </trkpt>
      <trkpt lat="43.471843935549259185791015625" lon="1.4320583827793598175048828125">
        <ele>254.399993896484375</ele>
        <time>2026-08-05T09:52:43.000Z</time>
        <extensions>
          <ns3:TrackPointExtension>
            <ns3:hr>66</ns3:hr>
            <ns3:cad>0</ns3:cad>
          </ns3:TrackPointExtension>
        </extensions>
      </trkpt>
      <trkpt lat="43.471843935549259185791015625" lon="1.4320583827793598175048828125">
        <ele>254.399993896484375</ele>
        <time>2026-08-05T09:52:44.000Z</time>
        <extensions>
          <ns3:TrackPointExtension>
            <ns3:hr>65</ns3:hr>
            <ns3:cad>0</ns3:cad>
          </ns3:TrackPointExtension>
        </extensions>
      </trkpt>
      <trkpt lat="43.471843935549259185791015625" lon="1.4320583827793598175048828125">
        <ele>254.399993896484375</ele>
        <time>2026-08-05T09:52:45.000Z</time>
        <extensions>
          <ns3:TrackPointExtension>
            <ns3:hr>65</ns3:hr>
            <ns3:cad>0</ns3:cad>
          </ns3:TrackPointExtension>
        </extensions>
      </trkpt>
      <trkpt lat="43.471843935549259185791015625" lon="1.4320583827793598175048828125">
        <ele>254.399993896484375</ele>
        <time>2026-08-05T09:52:46.000Z</time>
        <extensions>
          <ns3:TrackPointExtension>
            <ns3:hr>65</ns3:hr>
            <ns3:cad>0</ns3:cad>
          </ns3:TrackPointExtension>
        </extensions>
      </trkpt>
      <trkpt lat="43.471843935549259185791015625" lon="1.4320583827793598175048828125">
        <ele>254.1999969482421875</ele>
        <time>2026-08-05T09:52:47.000Z</time>
        <extensions>
          <ns3:TrackPointExtension>
            <ns3:hr>65</ns3:hr>
            <ns3:cad>0</ns3:cad>
          </ns3:TrackPointExtension>
        </extensions>
      </trkpt>
      <trkpt lat="43.471843935549259185791015625" lon="1.4320583827793598175048828125">
        <ele>254.1999969482421875</ele>
        <time>2026-08-05T09:52:48.000Z</time>
        <extensions>
          <ns3:TrackPointExtension>
            <ns3:hr>64</ns3:hr>
            <ns3:cad>0</ns3:cad>
          </ns3:TrackPointExtension>
        </extensions>
      </trkpt>
      <trkpt lat="43.471843935549259185791015625" lon="1.4320583827793598175048828125">
        <ele>254.1999969482421875</ele>
        <time>2026-08-05T09:52:49.000Z</time>
        <extensions>
          <ns3:TrackPointExtension>
            <ns3:hr>65</ns3:hr>
            <ns3:cad>0</ns3:cad>
          </ns3:TrackPointExtension>
        </extensions>
      </trkpt>
      <trkpt lat="43.471843935549259185791015625" lon="1.4320583827793598175048828125">
        <ele>254.1999969482421875</ele>
        <time>2026-08-05T09:52:50.000Z</time>
        <extensions>
          <ns3:TrackPointExtension>
            <ns3:hr>66</ns3:hr>
            <ns3:cad>0</ns3:cad>
          </ns3:TrackPointExtension>
        </extensions>
      </trkpt>
      <trkpt lat="43.471843935549259185791015625" lon="1.4320583827793598175048828125">
        <ele>254.1999969482421875</ele>
        <time>2026-08-05T09:52:51.000Z</time>
        <extensions>
          <ns3:TrackPointExtension>
            <ns3:hr>66</ns3:hr>
            <ns3:cad>0</ns3:cad>
          </ns3:TrackPointExtension>
        </extensions>
      </trkpt>
      <trkpt lat="43.471843935549259185791015625" lon="1.4320583827793598175048828125">
        <ele>254</ele>
        <time>2026-08-05T09:52:52.000Z</time>
        <extensions>
          <ns3:TrackPointExtension>
            <ns3:hr>66</ns3:hr>
            <ns3:cad>0</ns3:cad>
          </ns3:TrackPointExtension>
        </extensions>
      </trkpt>
      <trkpt lat="43.471843935549259185791015625" lon="1.4320583827793598175048828125">
        <ele>254.1999969482421875</ele>
        <time>2026-08-05T09:52:53.000Z</time>
        <extensions>
          <ns3:TrackPointExtension>
            <ns3:hr>66</ns3:hr>
            <ns3:cad>0</ns3:cad>
          </ns3:TrackPointExtension>
        </extensions>
      </trkpt>
      <trkpt lat="43.471843935549259185791015625" lon="1.4320583827793598175048828125">
        <ele>254.1999969482421875</ele>
        <time>2026-08-05T09:52:54.000Z</time>
        <extensions>
          <ns3:TrackPointExtension>
            <ns3:hr>66</ns3:hr>
            <ns3:cad>0</ns3:cad>
          </ns3:TrackPointExtension>
        </extensions>
      </trkpt>
      <trkpt lat="43.471843935549259185791015625" lon="1.4320583827793598175048828125">
        <ele>254.1999969482421875</ele>
        <time>2026-08-05T09:52:55.000Z</time>
        <extensions>
          <ns3:TrackPointExtension>
            <ns3:hr>66</ns3:hr>
            <ns3:cad>0</ns3:cad>
          </ns3:TrackPointExtension>
        </extensions>
      </trkpt>
      <trkpt lat="43.471843935549259185791015625" lon="1.4320583827793598175048828125">
        <ele>254.1999969482421875</ele>
        <time>2026-08-05T09:52:56.000Z</time>
        <extensions>
          <ns3:TrackPointExtension>
            <ns3:hr>66</ns3:hr>
            <ns3:cad>0</ns3:cad>
          </ns3:TrackPointExtension>
        </extensions>
      </trkpt>
      <trkpt lat="43.471843935549259185791015625" lon="1.4320583827793598175048828125">
        <ele>254.399993896484375</ele>
        <time>2026-08-05T09:52:57.000Z</time>
        <extensions>
          <ns3:TrackPointExtension>
            <ns3:hr>66</ns3:hr>
            <ns3:cad>0</ns3:cad>
          </ns3:TrackPointExtension>
        </extensions>
      </trkpt>
      <trkpt lat="43.471843935549259185791015625" lon="1.4320583827793598175048828125">
        <ele>254.1999969482421875</ele>
        <time>2026-08-05T09:52:58.000Z</time>
        <extensions>
          <ns3:TrackPointExtension>
            <ns3:hr>66</ns3:hr>
            <ns3:cad>0</ns3:cad>
          </ns3:TrackPointExtension>
        </extensions>
      </trkpt>
      <trkpt lat="43.471843935549259185791015625" lon="1.4320583827793598175048828125">
        <ele>254.1999969482421875</ele>
        <time>2026-08-05T09:52:59.000Z</time>
        <extensions>
          <ns3:TrackPointExtension>
            <ns3:hr>65</ns3:hr>
            <ns3:cad>0</ns3:cad>
          </ns3:TrackPointExtension>
        </extensions>
      </trkpt>
      <trkpt lat="43.471843935549259185791015625" lon="1.4320583827793598175048828125">
        <ele>254.1999969482421875</ele>
        <time>2026-08-05T09:53:00.000Z</time>
        <extensions>
          <ns3:TrackPointExtension>
            <ns3:hr>66</ns3:hr>
            <ns3:cad>0</ns3:cad>
          </ns3:TrackPointExtension>
        </extensions>
      </trkpt>
      <trkpt lat="43.471843935549259185791015625" lon="1.4320583827793598175048828125">
        <ele>254.1999969482421875</ele>
        <time>2026-08-05T09:53:01.000Z</time>
        <extensions>
          <ns3:TrackPointExtension>
            <ns3:hr>66</ns3:hr>
            <ns3:cad>0</ns3:cad>
          </ns3:TrackPointExtension>
        </extensions>
      </trkpt>
      <trkpt lat="43.471843935549259185791015625" lon="1.4320583827793598175048828125">
        <ele>254.1999969482421875</ele>
        <time>2026-08-05T09:53:02.000Z</time>
        <extensions>
          <ns3:TrackPointExtension>
            <ns3:hr>66</ns3:hr>
            <ns3:cad>0</ns3:cad>
          </ns3:TrackPointExtension>
        </extensions>
      </trkpt>
      <trkpt lat="43.471843935549259185791015625" lon="1.4320583827793598175048828125">
        <ele>254.1999969482421875</ele>
        <time>2026-08-05T09:53:03.000Z</time>
        <extensions>
          <ns3:TrackPointExtension>
            <ns3:hr>68</ns3:hr>
            <ns3:cad>0</ns3:cad>
          </ns3:TrackPointExtension>
        </extensions>
      </trkpt>
      <trkpt lat="43.471843935549259185791015625" lon="1.4320583827793598175048828125">
        <ele>254.1999969482421875</ele>
        <time>2026-08-05T09:53:04.000Z</time>
        <extensions>
          <ns3:TrackPointExtension>
            <ns3:hr>68</ns3:hr>
            <ns3:cad>0</ns3:cad>
          </ns3:TrackPointExtension>
        </extensions>
      </trkpt>
      <trkpt lat="43.471843935549259185791015625" lon="1.4320583827793598175048828125">
        <ele>254.1999969482421875</ele>
        <time>2026-08-05T09:53:05.000Z</time>
        <extensions>
          <ns3:TrackPointExtension>
            <ns3:hr>68</ns3:hr>
            <ns3:cad>0</ns3:cad>
          </ns3:TrackPointExtension>
        </extensions>
      </trkpt>
      <trkpt lat="43.471843935549259185791015625" lon="1.4320583827793598175048828125">
        <ele>254.1999969482421875</ele>
        <time>2026-08-05T09:53:06.000Z</time>
        <extensions>
          <ns3:TrackPointExtension>
            <ns3:hr>68</ns3:hr>
            <ns3:cad>0</ns3:cad>
          </ns3:TrackPointExtension>
        </extensions>
      </trkpt>
      <trkpt lat="43.471843935549259185791015625" lon="1.4320583827793598175048828125">
        <ele>254.1999969482421875</ele>
        <time>2026-08-05T09:53:07.000Z</time>
        <extensions>
          <ns3:TrackPointExtension>
            <ns3:hr>68</ns3:hr>
            <ns3:cad>0</ns3:cad>
          </ns3:TrackPointExtension>
        </extensions>
      </trkpt>
      <trkpt lat="43.471843935549259185791015625" lon="1.4320583827793598175048828125">
        <ele>254.399993896484375</ele>
        <time>2026-08-05T09:53:08.000Z</time>
        <extensions>
          <ns3:TrackPointExtension>
            <ns3:hr>68</ns3:hr>
            <ns3:cad>0</ns3:cad>
          </ns3:TrackPointExtension>
        </extensions>
      </trkpt>
      <trkpt lat="43.471843935549259185791015625" lon="1.4320583827793598175048828125">
        <ele>254.399993896484375</ele>
        <time>2026-08-05T09:53:09.000Z</time>
        <extensions>
          <ns3:TrackPointExtension>
            <ns3:hr>68</ns3:hr>
            <ns3:cad>0</ns3:cad>
          </ns3:TrackPointExtension>
        </extensions>
      </trkpt>
      <trkpt lat="43.471843935549259185791015625" lon="1.4320583827793598175048828125">
        <ele>254.1999969482421875</ele>
        <time>2026-08-05T09:53:10.000Z</time>
        <extensions>
          <ns3:TrackPointExtension>
            <ns3:hr>68</ns3:hr>
            <ns3:cad>0</ns3:cad>
          </ns3:TrackPointExtension>
        </extensions>
      </trkpt>
      <trkpt lat="43.471843935549259185791015625" lon="1.4320583827793598175048828125">
        <ele>254.1999969482421875</ele>
        <time>2026-08-05T09:53:11.000Z</time>
        <extensions>
          <ns3:TrackPointExtension>
            <ns3:hr>68</ns3:hr>
            <ns3:cad>0</ns3:cad>
          </ns3:TrackPointExtension>
        </extensions>
      </trkpt>
      <trkpt lat="43.471843935549259185791015625" lon="1.4320583827793598175048828125">
        <ele>254.1999969482421875</ele>
        <time>2026-08-05T09:53:12.000Z</time>
        <extensions>
          <ns3:TrackPointExtension>
            <ns3:hr>68</ns3:hr>
            <ns3:cad>0</ns3:cad>
          </ns3:TrackPointExtension>
        </extensions>
      </trkpt>
      <trkpt lat="43.471843935549259185791015625" lon="1.4320583827793598175048828125">
        <ele>254</ele>
        <time>2026-08-05T09:53:13.000Z</time>
        <extensions>
          <ns3:TrackPointExtension>
            <ns3:hr>68</ns3:hr>
            <ns3:cad>0</ns3:cad>
          </ns3:TrackPointExtension>
        </extensions>
      </trkpt>
      <trkpt lat="43.471843935549259185791015625" lon="1.4320583827793598175048828125">
        <ele>254</ele>
        <time>2026-08-05T09:53:14.000Z</time>
        <extensions>
          <ns3:TrackPointExtension>
            <ns3:hr>68</ns3:hr>
            <ns3:cad>0</ns3:cad>
          </ns3:TrackPointExtension>
        </extensions>
      </trkpt>
      <trkpt lat="43.471843935549259185791015625" lon="1.4320583827793598175048828125">
        <ele>254</ele>
        <time>2026-08-05T09:53:15.000Z</time>
        <extensions>
          <ns3:TrackPointExtension>
            <ns3:hr>68</ns3:hr>
            <ns3:cad>0</ns3:cad>
          </ns3:TrackPointExtension>
        </extensions>
      </trkpt>
      <trkpt lat="43.471843935549259185791015625" lon="1.4320583827793598175048828125">
        <ele>253.8000030517578125</ele>
        <time>2026-08-05T09:53:16.000Z</time>
        <extensions>
          <ns3:TrackPointExtension>
            <ns3:hr>68</ns3:hr>
            <ns3:cad>0</ns3:cad>
          </ns3:TrackPointExtension>
        </extensions>
      </trkpt>
      <trkpt lat="43.47184368409216403961181640625" lon="1.43205863423645496368408203125">
        <ele>253.8000030517578125</ele>
        <time>2026-08-05T09:53:17.000Z</time>
        <extensions>
          <ns3:TrackPointExtension>
            <ns3:hr>68</ns3:hr>
            <ns3:cad>0</ns3:cad>
          </ns3:TrackPointExtension>
        </extensions>
      </trkpt>
      <trkpt lat="43.4718474559485912322998046875" lon="1.43206584267318248748779296875">
        <ele>253.600006103515625</ele>
        <time>2026-08-05T09:53:18.000Z</time>
        <extensions>
          <ns3:TrackPointExtension>
            <ns3:hr>69</ns3:hr>
            <ns3:cad>0</ns3:cad>
          </ns3:TrackPointExtension>
        </extensions>
      </trkpt>
      <trkpt lat="43.4718427620828151702880859375" lon="1.43206265754997730255126953125">
        <ele>253.600006103515625</ele>
        <time>2026-08-05T09:53:19.000Z</time>
        <extensions>
          <ns3:TrackPointExtension>
            <ns3:hr>70</ns3:hr>
            <ns3:cad>0</ns3:cad>
          </ns3:TrackPointExtension>
        </extensions>
      </trkpt>
      <trkpt lat="43.4718491323292255401611328125" lon="1.43205645494163036346435546875">
        <ele>253.8000030517578125</ele>
        <time>2026-08-05T09:53:20.000Z</time>
        <extensions>
          <ns3:TrackPointExtension>
            <ns3:hr>70</ns3:hr>
            <ns3:cad>0</ns3:cad>
          </ns3:TrackPointExtension>
        </extensions>
      </trkpt>
      <trkpt lat="43.47185072489082813262939453125" lon="1.43204279243946075439453125">
        <ele>254</ele>
        <time>2026-08-05T09:53:21.000Z</time>
        <extensions>
          <ns3:TrackPointExtension>
            <ns3:hr>70</ns3:hr>
            <ns3:cad>0</ns3:cad>
          </ns3:TrackPointExtension>
        </extensions>
      </trkpt>
      <trkpt lat="43.47184988670051097869873046875" lon="1.4320292137563228607177734375">
        <ele>254.1999969482421875</ele>
        <time>2026-08-05T09:53:22.000Z</time>
        <extensions>
          <ns3:TrackPointExtension>
            <ns3:hr>70</ns3:hr>
            <ns3:cad>0</ns3:cad>
          </ns3:TrackPointExtension>
        </extensions>
      </trkpt>
      <trkpt lat="43.471851311624050140380859375" lon="1.43201722763478755950927734375">
        <ele>254.600006103515625</ele>
        <time>2026-08-05T09:53:23.000Z</time>
        <extensions>
          <ns3:TrackPointExtension>
            <ns3:hr>70</ns3:hr>
            <ns3:cad>0</ns3:cad>
          </ns3:TrackPointExtension>
        </extensions>
      </trkpt>
      <trkpt lat="43.4718575142323970794677734375" lon="1.43201119266450405120849609375">
        <ele>254.8000030517578125</ele>
        <time>2026-08-05T09:53:24.000Z</time>
        <extensions>
          <ns3:TrackPointExtension>
            <ns3:hr>69</ns3:hr>
            <ns3:cad>0</ns3:cad>
          </ns3:TrackPointExtension>
        </extensions>
      </trkpt>
      <trkpt lat="43.471860699355602264404296875" lon="1.43200457096099853515625">
        <ele>255</ele>
        <time>2026-08-05T09:53:25.000Z</time>
        <extensions>
          <ns3:TrackPointExtension>
            <ns3:hr>69</ns3:hr>
            <ns3:cad>0</ns3:cad>
          </ns3:TrackPointExtension>
        </extensions>
      </trkpt>
      <trkpt lat="43.4718632139265537261962890625" lon="1.43200146965682506561279296875">
        <ele>255</ele>
        <time>2026-08-05T09:53:26.000Z</time>
        <extensions>
          <ns3:TrackPointExtension>
            <ns3:hr>69</ns3:hr>
            <ns3:cad>0</ns3:cad>
          </ns3:TrackPointExtension>
        </extensions>
      </trkpt>
      <trkpt lat="43.47186313010752201080322265625" lon="1.43200146965682506561279296875">
        <ele>254.8000030517578125</ele>
        <time>2026-08-05T09:53:27.000Z</time>
        <extensions>
          <ns3:TrackPointExtension>
            <ns3:hr>69</ns3:hr>
            <ns3:cad>0</ns3:cad>
          </ns3:TrackPointExtension>
        </extensions>
      </trkpt>
      <trkpt lat="43.47186313010752201080322265625" lon="1.43200146965682506561279296875">
        <ele>254.8000030517578125</ele>
        <time>2026-08-05T09:53:28.000Z</time>
        <extensions>
          <ns3:TrackPointExtension>
            <ns3:hr>69</ns3:hr>
            <ns3:cad>0</ns3:cad>
          </ns3:TrackPointExtension>
        </extensions>
      </trkpt>
      <trkpt lat="43.47186313010752201080322265625" lon="1.43200146965682506561279296875">
        <ele>255</ele>
        <time>2026-08-05T09:53:29.000Z</time>
        <extensions>
          <ns3:TrackPointExtension>
            <ns3:hr>69</ns3:hr>
            <ns3:cad>0</ns3:cad>
          </ns3:TrackPointExtension>
        </extensions>
      </trkpt>
      <trkpt lat="43.47186313010752201080322265625" lon="1.43200146965682506561279296875">
        <ele>255</ele>
        <time>2026-08-05T09:53:30.000Z</time>
        <extensions>
          <ns3:TrackPointExtension>
            <ns3:hr>69</ns3:hr>
            <ns3:cad>0</ns3:cad>
          </ns3:TrackPointExtension>
        </extensions>
      </trkpt>
      <trkpt lat="43.47186313010752201080322265625" lon="1.43200146965682506561279296875">
        <ele>255.1999969482421875</ele>
        <time>2026-08-05T09:53:31.000Z</time>
        <extensions>
          <ns3:TrackPointExtension>
            <ns3:hr>69</ns3:hr>
            <ns3:cad>0</ns3:cad>
          </ns3:TrackPointExtension>
        </extensions>
      </trkpt>
      <trkpt lat="43.47186313010752201080322265625" lon="1.43200146965682506561279296875">
        <ele>255.1999969482421875</ele>
        <time>2026-08-05T09:53:32.000Z</time>
        <extensions>
          <ns3:TrackPointExtension>
            <ns3:hr>69</ns3:hr>
            <ns3:cad>0</ns3:cad>
          </ns3:TrackPointExtension>
        </extensions>
      </trkpt>
      <trkpt lat="43.47186313010752201080322265625" lon="1.43200146965682506561279296875">
        <ele>255.399993896484375</ele>
        <time>2026-08-05T09:53:33.000Z</time>
        <extensions>
          <ns3:TrackPointExtension>
            <ns3:hr>70</ns3:hr>
            <ns3:cad>0</ns3:cad>
          </ns3:TrackPointExtension>
        </extensions>
      </trkpt>
      <trkpt lat="43.47186313010752201080322265625" lon="1.43200146965682506561279296875">
        <ele>255.399993896484375</ele>
        <time>2026-08-05T09:53:34.000Z</time>
        <extensions>
          <ns3:TrackPointExtension>
            <ns3:hr>71</ns3:hr>
            <ns3:cad>0</ns3:cad>
          </ns3:TrackPointExtension>
        </extensions>
      </trkpt>
      <trkpt lat="43.47186313010752201080322265625" lon="1.43200146965682506561279296875">
        <ele>255.399993896484375</ele>
        <time>2026-08-05T09:53:35.000Z</time>
        <extensions>
          <ns3:TrackPointExtension>
            <ns3:hr>71</ns3:hr>
            <ns3:cad>0</ns3:cad>
          </ns3:TrackPointExtension>
        </extensions>
      </trkpt>
      <trkpt lat="43.47186313010752201080322265625" lon="1.43200146965682506561279296875">
        <ele>255.399993896484375</ele>
        <time>2026-08-05T09:53:36.000Z</time>
        <extensions>
          <ns3:TrackPointExtension>
            <ns3:hr>72</ns3:hr>
            <ns3:cad>0</ns3:cad>
          </ns3:TrackPointExtension>
        </extensions>
      </trkpt>
      <trkpt lat="43.47186313010752201080322265625" lon="1.43200146965682506561279296875">
        <ele>255.399993896484375</ele>
        <time>2026-08-05T09:53:37.000Z</time>
        <extensions>
          <ns3:TrackPointExtension>
            <ns3:hr>73</ns3:hr>
            <ns3:cad>0</ns3:cad>
          </ns3:TrackPointExtension>
        </extensions>
      </trkpt>
      <trkpt lat="43.47186313010752201080322265625" lon="1.43200146965682506561279296875">
        <ele>255.1999969482421875</ele>
        <time>2026-08-05T09:53:38.000Z</time>
        <extensions>
          <ns3:TrackPointExtension>
            <ns3:hr>73</ns3:hr>
            <ns3:cad>0</ns3:cad>
          </ns3:TrackPointExtension>
        </extensions>
      </trkpt>
      <trkpt lat="43.47186648286879062652587890625" lon="1.4320017211139202117919921875">
        <ele>255.1999969482421875</ele>
        <time>2026-08-05T09:53:39.000Z</time>
        <extensions>
          <ns3:TrackPointExtension>
            <ns3:hr>73</ns3:hr>
            <ns3:cad>0</ns3:cad>
          </ns3:TrackPointExtension>
        </extensions>
      </trkpt>
      <trkpt lat="43.47186313010752201080322265625" lon="1.43200146965682506561279296875">
        <ele>255.1999969482421875</ele>
        <time>2026-08-05T09:53:40.000Z</time>
        <extensions>
          <ns3:TrackPointExtension>
            <ns3:hr>72</ns3:hr>
            <ns3:cad>0</ns3:cad>
          </ns3:TrackPointExtension>
        </extensions>
      </trkpt>
      <trkpt lat="43.4718702547252178192138671875" lon="1.432005576789379119873046875">
        <ele>255</ele>
        <time>2026-08-05T09:53:41.000Z</time>
        <extensions>
          <ns3:TrackPointExtension>
            <ns3:hr>72</ns3:hr>
            <ns3:cad>0</ns3:cad>
          </ns3:TrackPointExtension>
        </extensions>
      </trkpt>
      <trkpt lat="43.471878804266452789306640625" lon="1.432013623416423797607421875">
        <ele>255</ele>
        <time>2026-08-05T09:53:42.000Z</time>
        <extensions>
          <ns3:TrackPointExtension>
            <ns3:hr>72</ns3:hr>
            <ns3:cad>0</ns3:cad>
          </ns3:TrackPointExtension>
        </extensions>
      </trkpt>
      <trkpt lat="43.47188458777964115142822265625" lon="1.4320225082337856292724609375">
        <ele>254.8000030517578125</ele>
        <time>2026-08-05T09:53:43.000Z</time>
        <extensions>
          <ns3:TrackPointExtension>
            <ns3:hr>72</ns3:hr>
            <ns3:cad>0</ns3:cad>
          </ns3:TrackPointExtension>
        </extensions>
      </trkpt>
      <trkpt lat="43.4718866832554340362548828125" lon="1.43203315325081348419189453125">
        <ele>254.600006103515625</ele>
        <time>2026-08-05T09:53:44.000Z</time>
        <extensions>
          <ns3:TrackPointExtension>
            <ns3:hr>72</ns3:hr>
            <ns3:cad>0</ns3:cad>
          </ns3:TrackPointExtension>
        </extensions>
      </trkpt>
      <trkpt lat="43.47188852727413177490234375" lon="1.432045139372348785400390625">
        <ele>254.600006103515625</ele>
        <time>2026-08-05T09:53:45.000Z</time>
        <extensions>
          <ns3:TrackPointExtension>
            <ns3:hr>72</ns3:hr>
            <ns3:cad>0</ns3:cad>
          </ns3:TrackPointExtension>
        </extensions>
      </trkpt>
      <trkpt lat="43.47189079038798809051513671875" lon="1.43205427564680576324462890625">
        <ele>254.8000030517578125</ele>
        <time>2026-08-05T09:53:46.000Z</time>
        <extensions>
          <ns3:TrackPointExtension>
            <ns3:hr>72</ns3:hr>
            <ns3:cad>0</ns3:cad>
          </ns3:TrackPointExtension>
        </extensions>
      </trkpt>
      <trkpt lat="43.4718905389308929443359375" lon="1.43206533975899219512939453125">
        <ele>255</ele>
        <time>2026-08-05T09:53:47.000Z</time>
        <extensions>
          <ns3:TrackPointExtension>
            <ns3:hr>72</ns3:hr>
            <ns3:cad>0</ns3:cad>
          </ns3:TrackPointExtension>
        </extensions>
      </trkpt>
      <trkpt lat="43.47188794054090976715087890625" lon="1.4320751465857028961181640625">
        <ele>255</ele>
        <time>2026-08-05T09:53:48.000Z</time>
        <extensions>
          <ns3:TrackPointExtension>
            <ns3:hr>73</ns3:hr>
            <ns3:cad>0</ns3:cad>
          </ns3:TrackPointExtension>
        </extensions>
      </trkpt>
      <trkpt lat="43.47188425250351428985595703125" lon="1.4320836961269378662109375">
        <ele>255</ele>
        <time>2026-08-05T09:53:49.000Z</time>
        <extensions>
          <ns3:TrackPointExtension>
            <ns3:hr>73</ns3:hr>
            <ns3:cad>0</ns3:cad>
          </ns3:TrackPointExtension>
        </extensions>
      </trkpt>
      <trkpt lat="43.471883833408355712890625" lon="1.43208579160273075103759765625">
        <ele>255</ele>
        <time>2026-08-05T09:53:50.000Z</time>
        <extensions>
          <ns3:TrackPointExtension>
            <ns3:hr>73</ns3:hr>
            <ns3:cad>0</ns3:cad>
          </ns3:TrackPointExtension>
        </extensions>
      </trkpt>
      <trkpt lat="43.471883498132228851318359375" lon="1.43208612687885761260986328125">
        <ele>255</ele>
        <time>2026-08-05T09:53:51.000Z</time>
        <extensions>
          <ns3:TrackPointExtension>
            <ns3:hr>73</ns3:hr>
            <ns3:cad>0</ns3:cad>
          </ns3:TrackPointExtension>
        </extensions>
      </trkpt>
      <trkpt lat="43.471883498132228851318359375" lon="1.43208612687885761260986328125">
        <ele>255.1999969482421875</ele>
        <time>2026-08-05T09:53:52.000Z</time>
        <extensions>
          <ns3:TrackPointExtension>
            <ns3:hr>74</ns3:hr>
            <ns3:cad>0</ns3:cad>
          </ns3:TrackPointExtension>
        </extensions>
      </trkpt>
      <trkpt lat="43.471883498132228851318359375" lon="1.43208612687885761260986328125">
        <ele>255.1999969482421875</ele>
        <time>2026-08-05T09:53:53.000Z</time>
        <extensions>
          <ns3:TrackPointExtension>
            <ns3:hr>75</ns3:hr>
            <ns3:cad>0</ns3:cad>
          </ns3:TrackPointExtension>
        </extensions>
      </trkpt>
      <trkpt lat="43.471883498132228851318359375" lon="1.43208612687885761260986328125">
        <ele>255.1999969482421875</ele>
        <time>2026-08-05T09:53:54.000Z</time>
        <extensions>
          <ns3:TrackPointExtension>
            <ns3:hr>75</ns3:hr>
            <ns3:cad>0</ns3:cad>
          </ns3:TrackPointExtension>
        </extensions>
      </trkpt>
      <trkpt lat="43.471883498132228851318359375" lon="1.43208612687885761260986328125">
        <ele>255.1999969482421875</ele>
        <time>2026-08-05T09:53:55.000Z</time>
        <extensions>
          <ns3:TrackPointExtension>
            <ns3:hr>75</ns3:hr>
            <ns3:cad>0</ns3:cad>
          </ns3:TrackPointExtension>
        </extensions>
      </trkpt>
      <trkpt lat="43.471883498132228851318359375" lon="1.43208612687885761260986328125">
        <ele>255.1999969482421875</ele>
        <time>2026-08-05T09:53:56.000Z</time>
        <extensions>
          <ns3:TrackPointExtension>
            <ns3:hr>75</ns3:hr>
            <ns3:cad>0</ns3:cad>
          </ns3:TrackPointExtension>
        </extensions>
      </trkpt>
      <trkpt lat="43.471883498132228851318359375" lon="1.43208612687885761260986328125">
        <ele>255.1999969482421875</ele>
        <time>2026-08-05T09:53:57.000Z</time>
        <extensions>
          <ns3:TrackPointExtension>
            <ns3:hr>73</ns3:hr>
            <ns3:cad>0</ns3:cad>
          </ns3:TrackPointExtension>
        </extensions>
      </trkpt>
      <trkpt lat="43.471883498132228851318359375" lon="1.43208612687885761260986328125">
        <ele>255.1999969482421875</ele>
        <time>2026-08-05T09:53:58.000Z</time>
        <extensions>
          <ns3:TrackPointExtension>
            <ns3:hr>72</ns3:hr>
            <ns3:cad>0</ns3:cad>
          </ns3:TrackPointExtension>
        </extensions>
      </trkpt>
      <trkpt lat="43.471883498132228851318359375" lon="1.43208612687885761260986328125">
        <ele>255.1999969482421875</ele>
        <time>2026-08-05T09:53:59.000Z</time>
        <extensions>
          <ns3:TrackPointExtension>
            <ns3:hr>72</ns3:hr>
            <ns3:cad>0</ns3:cad>
          </ns3:TrackPointExtension>
        </extensions>
      </trkpt>
      <trkpt lat="43.471882827579975128173828125" lon="1.43208612687885761260986328125">
        <ele>255.1999969482421875</ele>
        <time>2026-08-05T09:54:00.000Z</time>
        <extensions>
          <ns3:TrackPointExtension>
            <ns3:hr>71</ns3:hr>
            <ns3:cad>0</ns3:cad>
          </ns3:TrackPointExtension>
        </extensions>
      </trkpt>
      <trkpt lat="43.471876122057437896728515625" lon="1.4320815168321132659912109375">
        <ele>255</ele>
        <time>2026-08-05T09:54:01.000Z</time>
        <extensions>
          <ns3:TrackPointExtension>
            <ns3:hr>71</ns3:hr>
            <ns3:cad>0</ns3:cad>
          </ns3:TrackPointExtension>
        </extensions>
      </trkpt>
      <trkpt lat="43.47186882980167865753173828125" lon="1.4320810139179229736328125">
        <ele>255</ele>
        <time>2026-08-05T09:54:02.000Z</time>
        <extensions>
          <ns3:TrackPointExtension>
            <ns3:hr>71</ns3:hr>
            <ns3:cad>0</ns3:cad>
          </ns3:TrackPointExtension>
        </extensions>
      </trkpt>
      <trkpt lat="43.47186430357396602630615234375" lon="1.432084701955318450927734375">
        <ele>255</ele>
        <time>2026-08-05T09:54:03.000Z</time>
        <extensions>
          <ns3:TrackPointExtension>
            <ns3:hr>70</ns3:hr>
            <ns3:cad>0</ns3:cad>
          </ns3:TrackPointExtension>
        </extensions>
      </trkpt>
      <trkpt lat="43.471864052116870880126953125" lon="1.43208545632660388946533203125">
        <ele>254.8000030517578125</ele>
        <time>2026-08-05T09:54:04.000Z</time>
        <extensions>
          <ns3:TrackPointExtension>
            <ns3:hr>70</ns3:hr>
            <ns3:cad>0</ns3:cad>
          </ns3:TrackPointExtension>
        </extensions>
      </trkpt>
      <trkpt lat="43.4718612022697925567626953125" lon="1.432090066373348236083984375">
        <ele>254.8000030517578125</ele>
        <time>2026-08-05T09:54:05.000Z</time>
        <extensions>
          <ns3:TrackPointExtension>
            <ns3:hr>71</ns3:hr>
            <ns3:cad>0</ns3:cad>
          </ns3:TrackPointExtension>
        </extensions>
      </trkpt>
      <trkpt lat="43.47185843624174594879150390625" lon="1.4320982806384563446044921875">
        <ele>254.600006103515625</ele>
        <time>2026-08-05T09:54:06.000Z</time>
        <extensions>
          <ns3:TrackPointExtension>
            <ns3:hr>71</ns3:hr>
            <ns3:cad>0</ns3:cad>
          </ns3:TrackPointExtension>
        </extensions>
      </trkpt>
      <trkpt lat="43.47185743041336536407470703125" lon="1.43210305832326412200927734375">
        <ele>254.600006103515625</ele>
        <time>2026-08-05T09:54:07.000Z</time>
        <extensions>
          <ns3:TrackPointExtension>
            <ns3:hr>72</ns3:hr>
            <ns3:cad>0</ns3:cad>
          </ns3:TrackPointExtension>
        </extensions>
      </trkpt>
      <trkpt lat="43.4718575142323970794677734375" lon="1.432106494903564453125">
        <ele>254.600006103515625</ele>
        <time>2026-08-05T09:54:08.000Z</time>
        <extensions>
          <ns3:TrackPointExtension>
            <ns3:hr>72</ns3:hr>
            <ns3:cad>0</ns3:cad>
          </ns3:TrackPointExtension>
        </extensions>
      </trkpt>
      <trkpt lat="43.4718575142323970794677734375" lon="1.432106494903564453125">
        <ele>254.600006103515625</ele>
        <time>2026-08-05T09:54:09.000Z</time>
        <extensions>
          <ns3:TrackPointExtension>
            <ns3:hr>73</ns3:hr>
            <ns3:cad>0</ns3:cad>
          </ns3:TrackPointExtension>
        </extensions>
      </trkpt>
      <trkpt lat="43.4718575142323970794677734375" lon="1.432106494903564453125">
        <ele>254.600006103515625</ele>
        <time>2026-08-05T09:54:10.000Z</time>
        <extensions>
          <ns3:TrackPointExtension>
            <ns3:hr>73</ns3:hr>
            <ns3:cad>0</ns3:cad>
          </ns3:TrackPointExtension>
        </extensions>
      </trkpt>
      <trkpt lat="43.4718575142323970794677734375" lon="1.432106494903564453125">
        <ele>254.8000030517578125</ele>
        <time>2026-08-05T09:54:11.000Z</time>
        <extensions>
          <ns3:TrackPointExtension>
            <ns3:hr>73</ns3:hr>
            <ns3:cad>0</ns3:cad>
          </ns3:TrackPointExtension>
        </extensions>
      </trkpt>
      <trkpt lat="43.4718575142323970794677734375" lon="1.432106494903564453125">
        <ele>255</ele>
        <time>2026-08-05T09:54:12.000Z</time>
        <extensions>
          <ns3:TrackPointExtension>
            <ns3:hr>74</ns3:hr>
            <ns3:cad>0</ns3:cad>
          </ns3:TrackPointExtension>
        </extensions>
      </trkpt>
      <trkpt lat="43.4718575142323970794677734375" lon="1.432106494903564453125">
        <ele>255</ele>
        <time>2026-08-05T09:54:13.000Z</time>
        <extensions>
          <ns3:TrackPointExtension>
            <ns3:hr>73</ns3:hr>
            <ns3:cad>0</ns3:cad>
          </ns3:TrackPointExtension>
        </extensions>
      </trkpt>
      <trkpt lat="43.4718575142323970794677734375" lon="1.432106494903564453125">
        <ele>255</ele>
        <time>2026-08-05T09:54:14.000Z</time>
        <extensions>
          <ns3:TrackPointExtension>
            <ns3:hr>73</ns3:hr>
            <ns3:cad>0</ns3:cad>
          </ns3:TrackPointExtension>
        </extensions>
      </trkpt>
      <trkpt lat="43.4718575142323970794677734375" lon="1.432106494903564453125">
        <ele>255</ele>
        <time>2026-08-05T09:54:15.000Z</time>
        <extensions>
          <ns3:TrackPointExtension>
            <ns3:hr>74</ns3:hr>
            <ns3:cad>0</ns3:cad>
          </ns3:TrackPointExtension>
        </extensions>
      </trkpt>
      <trkpt lat="43.4718575142323970794677734375" lon="1.432106494903564453125">
        <ele>254.8000030517578125</ele>
        <time>2026-08-05T09:54:16.000Z</time>
        <extensions>
          <ns3:TrackPointExtension>
            <ns3:hr>74</ns3:hr>
            <ns3:cad>0</ns3:cad>
          </ns3:TrackPointExtension>
        </extensions>
      </trkpt>
      <trkpt lat="43.4718575142323970794677734375" lon="1.432106494903564453125">
        <ele>254.8000030517578125</ele>
        <time>2026-08-05T09:54:17.000Z</time>
        <extensions>
          <ns3:TrackPointExtension>
            <ns3:hr>74</ns3:hr>
            <ns3:cad>0</ns3:cad>
          </ns3:TrackPointExtension>
        </extensions>
      </trkpt>
      <trkpt lat="43.4718575142323970794677734375" lon="1.432106494903564453125">
        <ele>254.8000030517578125</ele>
        <time>2026-08-05T09:54:18.000Z</time>
        <extensions>
          <ns3:TrackPointExtension>
            <ns3:hr>74</ns3:hr>
            <ns3:cad>0</ns3:cad>
          </ns3:TrackPointExtension>
        </extensions>
      </trkpt>
      <trkpt lat="43.4718575142323970794677734375" lon="1.432106494903564453125">
        <ele>254.8000030517578125</ele>
        <time>2026-08-05T09:54:19.000Z</time>
        <extensions>
          <ns3:TrackPointExtension>
            <ns3:hr>75</ns3:hr>
            <ns3:cad>0</ns3:cad>
          </ns3:TrackPointExtension>
        </extensions>
      </trkpt>
      <trkpt lat="43.4718575142323970794677734375" lon="1.432106494903564453125">
        <ele>254.8000030517578125</ele>
        <time>2026-08-05T09:54:20.000Z</time>
        <extensions>
          <ns3:TrackPointExtension>
            <ns3:hr>75</ns3:hr>
            <ns3:cad>0</ns3:cad>
          </ns3:TrackPointExtension>
        </extensions>
      </trkpt>
      <trkpt lat="43.4718575142323970794677734375" lon="1.432106494903564453125">
        <ele>254.8000030517578125</ele>
        <time>2026-08-05T09:54:21.000Z</time>
        <extensions>
          <ns3:TrackPointExtension>
            <ns3:hr>76</ns3:hr>
            <ns3:cad>0</ns3:cad>
          </ns3:TrackPointExtension>
        </extensions>
      </trkpt>
      <trkpt lat="43.4718575142323970794677734375" lon="1.432106494903564453125">
        <ele>254.8000030517578125</ele>
        <time>2026-08-05T09:54:22.000Z</time>
        <extensions>
          <ns3:TrackPointExtension>
            <ns3:hr>76</ns3:hr>
            <ns3:cad>0</ns3:cad>
          </ns3:TrackPointExtension>
        </extensions>
      </trkpt>
      <trkpt lat="43.4718575142323970794677734375" lon="1.432106494903564453125">
        <ele>254.8000030517578125</ele>
        <time>2026-08-05T09:54:23.000Z</time>
        <extensions>
          <ns3:TrackPointExtension>
            <ns3:hr>76</ns3:hr>
            <ns3:cad>0</ns3:cad>
          </ns3:TrackPointExtension>
        </extensions>
      </trkpt>
      <trkpt lat="43.4718575142323970794677734375" lon="1.432106494903564453125">
        <ele>254.600006103515625</ele>
        <time>2026-08-05T09:54:24.000Z</time>
        <extensions>
          <ns3:TrackPointExtension>
            <ns3:hr>77</ns3:hr>
            <ns3:cad>0</ns3:cad>
          </ns3:TrackPointExtension>
        </extensions>
      </trkpt>
      <trkpt lat="43.4718575142323970794677734375" lon="1.432106494903564453125">
        <ele>254.600006103515625</ele>
        <time>2026-08-05T09:54:25.000Z</time>
        <extensions>
          <ns3:TrackPointExtension>
            <ns3:hr>76</ns3:hr>
            <ns3:cad>0</ns3:cad>
          </ns3:TrackPointExtension>
        </extensions>
      </trkpt>
      <trkpt lat="43.4718575142323970794677734375" lon="1.432106494903564453125">
        <ele>254.600006103515625</ele>
        <time>2026-08-05T09:54:26.000Z</time>
        <extensions>
          <ns3:TrackPointExtension>
            <ns3:hr>75</ns3:hr>
            <ns3:cad>0</ns3:cad>
          </ns3:TrackPointExtension>
        </extensions>
      </trkpt>
      <trkpt lat="43.4718615375459194183349609375" lon="1.432103812694549560546875">
        <ele>254.600006103515625</ele>
        <time>2026-08-05T09:54:27.000Z</time>
        <extensions>
          <ns3:TrackPointExtension>
            <ns3:hr>74</ns3:hr>
            <ns3:cad>0</ns3:cad>
          </ns3:TrackPointExtension>
        </extensions>
      </trkpt>
      <trkpt lat="43.4718652255833148956298828125" lon="1.43209501169621944427490234375">
        <ele>254.600006103515625</ele>
        <time>2026-08-05T09:54:28.000Z</time>
        <extensions>
          <ns3:TrackPointExtension>
            <ns3:hr>73</ns3:hr>
            <ns3:cad>0</ns3:cad>
          </ns3:TrackPointExtension>
        </extensions>
      </trkpt>
      <trkpt lat="43.47186799161136150360107421875" lon="1.43209266476333141326904296875">
        <ele>254.600006103515625</ele>
        <time>2026-08-05T09:54:29.000Z</time>
        <extensions>
          <ns3:TrackPointExtension>
            <ns3:hr>72</ns3:hr>
            <ns3:cad>0</ns3:cad>
          </ns3:TrackPointExtension>
        </extensions>
      </trkpt>
      <trkpt lat="43.47186748869717121124267578125" lon="1.4320909045636653900146484375">
        <ele>254.8000030517578125</ele>
        <time>2026-08-05T09:54:30.000Z</time>
        <extensions>
          <ns3:TrackPointExtension>
            <ns3:hr>72</ns3:hr>
            <ns3:cad>0</ns3:cad>
          </ns3:TrackPointExtension>
        </extensions>
      </trkpt>
      <trkpt lat="43.47186715342104434967041015625" lon="1.432090736925601959228515625">
        <ele>254.8000030517578125</ele>
        <time>2026-08-05T09:54:31.000Z</time>
        <extensions>
          <ns3:TrackPointExtension>
            <ns3:hr>72</ns3:hr>
            <ns3:cad>0</ns3:cad>
          </ns3:TrackPointExtension>
        </extensions>
      </trkpt>
      <trkpt lat="43.4718669019639492034912109375" lon="1.43209065310657024383544921875">
        <ele>254.8000030517578125</ele>
        <time>2026-08-05T09:54:32.000Z</time>
        <extensions>
          <ns3:TrackPointExtension>
            <ns3:hr>73</ns3:hr>
            <ns3:cad>0</ns3:cad>
          </ns3:TrackPointExtension>
        </extensions>
      </trkpt>
      <trkpt lat="43.4718652255833148956298828125" lon="1.43209702335298061370849609375">
        <ele>254.600006103515625</ele>
        <time>2026-08-05T09:54:33.000Z</time>
        <extensions>
          <ns3:TrackPointExtension>
            <ns3:hr>73</ns3:hr>
            <ns3:cad>0</ns3:cad>
          </ns3:TrackPointExtension>
        </extensions>
      </trkpt>
      <trkpt lat="43.4718608669936656951904296875" lon="1.432101465761661529541015625">
        <ele>254.600006103515625</ele>
        <time>2026-08-05T09:54:34.000Z</time>
        <extensions>
          <ns3:TrackPointExtension>
            <ns3:hr>74</ns3:hr>
            <ns3:cad>0</ns3:cad>
          </ns3:TrackPointExtension>
        </extensions>
      </trkpt>
      <trkpt lat="43.47186715342104434967041015625" lon="1.432090736925601959228515625">
        <ele>254.399993896484375</ele>
        <time>2026-08-05T09:54:35.000Z</time>
        <extensions>
          <ns3:TrackPointExtension>
            <ns3:hr>75</ns3:hr>
            <ns3:cad>0</ns3:cad>
          </ns3:TrackPointExtension>
        </extensions>
      </trkpt>
      <trkpt lat="43.47186715342104434967041015625" lon="1.432090736925601959228515625">
        <ele>254.600006103515625</ele>
        <time>2026-08-05T09:54:36.000Z</time>
        <extensions>
          <ns3:TrackPointExtension>
            <ns3:hr>75</ns3:hr>
            <ns3:cad>0</ns3:cad>
          </ns3:TrackPointExtension>
        </extensions>
      </trkpt>
      <trkpt lat="43.47186715342104434967041015625" lon="1.432090736925601959228515625">
        <ele>254.600006103515625</ele>
        <time>2026-08-05T09:54:37.000Z</time>
        <extensions>
          <ns3:TrackPointExtension>
            <ns3:hr>75</ns3:hr>
            <ns3:cad>0</ns3:cad>
          </ns3:TrackPointExtension>
        </extensions>
      </trkpt>
      <trkpt lat="43.47186715342104434967041015625" lon="1.432090736925601959228515625">
        <ele>254.600006103515625</ele>
        <time>2026-08-05T09:54:38.000Z</time>
        <extensions>
          <ns3:TrackPointExtension>
            <ns3:hr>75</ns3:hr>
            <ns3:cad>0</ns3:cad>
          </ns3:TrackPointExtension>
        </extensions>
      </trkpt>
      <trkpt lat="43.47186715342104434967041015625" lon="1.432090736925601959228515625">
        <ele>254.8000030517578125</ele>
        <time>2026-08-05T09:54:39.000Z</time>
        <extensions>
          <ns3:TrackPointExtension>
            <ns3:hr>75</ns3:hr>
            <ns3:cad>0</ns3:cad>
          </ns3:TrackPointExtension>
        </extensions>
      </trkpt>
      <trkpt lat="43.47186715342104434967041015625" lon="1.432090736925601959228515625">
        <ele>254.8000030517578125</ele>
        <time>2026-08-05T09:54:40.000Z</time>
        <extensions>
          <ns3:TrackPointExtension>
            <ns3:hr>74</ns3:hr>
            <ns3:cad>0</ns3:cad>
          </ns3:TrackPointExtension>
        </extensions>
      </trkpt>
      <trkpt lat="43.47185960970818996429443359375" lon="1.43210339359939098358154296875">
        <ele>254.8000030517578125</ele>
        <time>2026-08-05T09:54:41.000Z</time>
        <extensions>
          <ns3:TrackPointExtension>
            <ns3:hr>74</ns3:hr>
            <ns3:cad>0</ns3:cad>
          </ns3:TrackPointExtension>
        </extensions>
      </trkpt>
      <trkpt lat="43.47185910679399967193603515625" lon="1.43210842274129390716552734375">
        <ele>254.8000030517578125</ele>
        <time>2026-08-05T09:54:42.000Z</time>
        <extensions>
          <ns3:TrackPointExtension>
            <ns3:hr>73</ns3:hr>
            <ns3:cad>0</ns3:cad>
          </ns3:TrackPointExtension>
        </extensions>
      </trkpt>
      <trkpt lat="43.47185977734625339508056640625" lon="1.432103477418422698974609375">
        <ele>254.600006103515625</ele>
        <time>2026-08-05T09:54:43.000Z</time>
        <extensions>
          <ns3:TrackPointExtension>
            <ns3:hr>73</ns3:hr>
            <ns3:cad>0</ns3:cad>
          </ns3:TrackPointExtension>
        </extensions>
      </trkpt>
      <trkpt lat="43.47186296246945858001708984375" lon="1.43209450878202915191650390625">
        <ele>254.600006103515625</ele>
        <time>2026-08-05T09:54:44.000Z</time>
        <extensions>
          <ns3:TrackPointExtension>
            <ns3:hr>73</ns3:hr>
            <ns3:cad>0</ns3:cad>
          </ns3:TrackPointExtension>
        </extensions>
      </trkpt>
      <trkpt lat="43.47186698578298091888427734375" lon="1.43208763562142848968505859375">
        <ele>254.399993896484375</ele>
        <time>2026-08-05T09:54:45.000Z</time>
        <extensions>
          <ns3:TrackPointExtension>
            <ns3:hr>74</ns3:hr>
            <ns3:cad>0</ns3:cad>
          </ns3:TrackPointExtension>
        </extensions>
      </trkpt>
      <trkpt lat="43.47186715342104434967041015625" lon="1.432090736925601959228515625">
        <ele>254.600006103515625</ele>
        <time>2026-08-05T09:54:46.000Z</time>
        <extensions>
          <ns3:TrackPointExtension>
            <ns3:hr>73</ns3:hr>
            <ns3:cad>0</ns3:cad>
          </ns3:TrackPointExtension>
        </extensions>
      </trkpt>
      <trkpt lat="43.47186715342104434967041015625" lon="1.432090736925601959228515625">
        <ele>254.600006103515625</ele>
        <time>2026-08-05T09:54:47.000Z</time>
        <extensions>
          <ns3:TrackPointExtension>
            <ns3:hr>73</ns3:hr>
            <ns3:cad>0</ns3:cad>
          </ns3:TrackPointExtension>
        </extensions>
      </trkpt>
      <trkpt lat="43.47186715342104434967041015625" lon="1.432090736925601959228515625">
        <ele>254.8000030517578125</ele>
        <time>2026-08-05T09:54:48.000Z</time>
        <extensions>
          <ns3:TrackPointExtension>
            <ns3:hr>74</ns3:hr>
            <ns3:cad>0</ns3:cad>
          </ns3:TrackPointExtension>
        </extensions>
      </trkpt>
      <trkpt lat="43.47186715342104434967041015625" lon="1.432090736925601959228515625">
        <ele>255</ele>
        <time>2026-08-05T09:54:49.000Z</time>
        <extensions>
          <ns3:TrackPointExtension>
            <ns3:hr>73</ns3:hr>
            <ns3:cad>0</ns3:cad>
          </ns3:TrackPointExtension>
        </extensions>
      </trkpt>
      <trkpt lat="43.47186715342104434967041015625" lon="1.432090736925601959228515625">
        <ele>255</ele>
        <time>2026-08-05T09:54:50.000Z</time>
        <extensions>
          <ns3:TrackPointExtension>
            <ns3:hr>73</ns3:hr>
            <ns3:cad>0</ns3:cad>
          </ns3:TrackPointExtension>
        </extensions>
      </trkpt>
      <trkpt lat="43.47186715342104434967041015625" lon="1.432090736925601959228515625">
        <ele>255</ele>
        <time>2026-08-05T09:54:51.000Z</time>
        <extensions>
          <ns3:TrackPointExtension>
            <ns3:hr>74</ns3:hr>
            <ns3:cad>0</ns3:cad>
          </ns3:TrackPointExtension>
        </extensions>
      </trkpt>
      <trkpt lat="43.47186715342104434967041015625" lon="1.432090736925601959228515625">
        <ele>254.8000030517578125</ele>
        <time>2026-08-05T09:54:52.000Z</time>
        <extensions>
          <ns3:TrackPointExtension>
            <ns3:hr>73</ns3:hr>
            <ns3:cad>0</ns3:cad>
          </ns3:TrackPointExtension>
        </extensions>
      </trkpt>
      <trkpt lat="43.47186715342104434967041015625" lon="1.432090736925601959228515625">
        <ele>254.8000030517578125</ele>
        <time>2026-08-05T09:54:53.000Z</time>
        <extensions>
          <ns3:TrackPointExtension>
            <ns3:hr>73</ns3:hr>
            <ns3:cad>0</ns3:cad>
          </ns3:TrackPointExtension>
        </extensions>
      </trkpt>
      <trkpt lat="43.47186597995460033416748046875" lon="1.43208528868854045867919921875">
        <ele>254.8000030517578125</ele>
        <time>2026-08-05T09:54:54.000Z</time>
        <extensions>
          <ns3:TrackPointExtension>
            <ns3:hr>74</ns3:hr>
            <ns3:cad>0</ns3:cad>
          </ns3:TrackPointExtension>
        </extensions>
      </trkpt>
      <trkpt lat="43.47186380065977573394775390625" lon="1.432080678641796112060546875">
        <ele>254.600006103515625</ele>
        <time>2026-08-05T09:54:55.000Z</time>
        <extensions>
          <ns3:TrackPointExtension>
            <ns3:hr>73</ns3:hr>
            <ns3:cad>0</ns3:cad>
          </ns3:TrackPointExtension>
        </extensions>
      </trkpt>
      <trkpt lat="43.4718591906130313873291015625" lon="1.432069279253482818603515625">
        <ele>254.8000030517578125</ele>
        <time>2026-08-05T09:54:56.000Z</time>
        <extensions>
          <ns3:TrackPointExtension>
            <ns3:hr>73</ns3:hr>
            <ns3:cad>0</ns3:cad>
          </ns3:TrackPointExtension>
        </extensions>
      </trkpt>
      <trkpt lat="43.471858017146587371826171875" lon="1.43205930478870868682861328125">
        <ele>254.8000030517578125</ele>
        <time>2026-08-05T09:54:57.000Z</time>
        <extensions>
          <ns3:TrackPointExtension>
            <ns3:hr>74</ns3:hr>
            <ns3:cad>0</ns3:cad>
          </ns3:TrackPointExtension>
        </extensions>
      </trkpt>
      <trkpt lat="43.47186413593590259552001953125" lon="1.43204723484814167022705078125">
        <ele>255</ele>
        <time>2026-08-05T09:54:58.000Z</time>
        <extensions>
          <ns3:TrackPointExtension>
            <ns3:hr>72</ns3:hr>
            <ns3:cad>0</ns3:cad>
          </ns3:TrackPointExtension>
        </extensions>
      </trkpt>
      <trkpt lat="43.47185893915593624114990234375" lon="1.43203876912593841552734375">
        <ele>255</ele>
        <time>2026-08-05T09:54:59.000Z</time>
        <extensions>
          <ns3:TrackPointExtension>
            <ns3:hr>72</ns3:hr>
            <ns3:cad>0</ns3:cad>
          </ns3:TrackPointExtension>
        </extensions>
      </trkpt>
      <trkpt lat="43.4718610346317291259765625" lon="1.4320285432040691375732421875">
        <ele>255.1999969482421875</ele>
        <time>2026-08-05T09:55:00.000Z</time>
        <extensions>
          <ns3:TrackPointExtension>
            <ns3:hr>72</ns3:hr>
            <ns3:cad>0</ns3:cad>
          </ns3:TrackPointExtension>
        </extensions>
      </trkpt>
      <trkpt lat="43.4718595258891582489013671875" lon="1.432030387222766876220703125">
        <ele>255.1999969482421875</ele>
        <time>2026-08-05T09:55:01.000Z</time>
        <extensions>
          <ns3:TrackPointExtension>
            <ns3:hr>72</ns3:hr>
            <ns3:cad>0</ns3:cad>
          </ns3:TrackPointExtension>
        </extensions>
      </trkpt>
      <trkpt lat="43.4718596935272216796875" lon="1.432030387222766876220703125">
        <ele>255.1999969482421875</ele>
        <time>2026-08-05T09:55:02.000Z</time>
        <extensions>
          <ns3:TrackPointExtension>
            <ns3:hr>73</ns3:hr>
            <ns3:cad>0</ns3:cad>
          </ns3:TrackPointExtension>
        </extensions>
      </trkpt>
      <trkpt lat="43.4718596935272216796875" lon="1.43203030340373516082763671875">
        <ele>255.1999969482421875</ele>
        <time>2026-08-05T09:55:03.000Z</time>
        <extensions>
          <ns3:TrackPointExtension>
            <ns3:hr>73</ns3:hr>
            <ns3:cad>0</ns3:cad>
          </ns3:TrackPointExtension>
        </extensions>
      </trkpt>
      <trkpt lat="43.47186028026044368743896484375" lon="1.43203700892627239227294921875">
        <ele>255</ele>
        <time>2026-08-05T09:55:04.000Z</time>
        <extensions>
          <ns3:TrackPointExtension>
            <ns3:hr>73</ns3:hr>
            <ns3:cad>0</ns3:cad>
          </ns3:TrackPointExtension>
        </extensions>
      </trkpt>
      <trkpt lat="43.47185743041336536407470703125" lon="1.4320473186671733856201171875">
        <ele>254.8000030517578125</ele>
        <time>2026-08-05T09:55:05.000Z</time>
        <extensions>
          <ns3:TrackPointExtension>
            <ns3:hr>74</ns3:hr>
            <ns3:cad>0</ns3:cad>
          </ns3:TrackPointExtension>
        </extensions>
      </trkpt>
      <trkpt lat="43.47185122780501842498779296875" lon="1.4320540241897106170654296875">
        <ele>254.8000030517578125</ele>
        <time>2026-08-05T09:55:06.000Z</time>
        <extensions>
          <ns3:TrackPointExtension>
            <ns3:hr>74</ns3:hr>
            <ns3:cad>0</ns3:cad>
          </ns3:TrackPointExtension>
        </extensions>
      </trkpt>
      <trkpt lat="43.47184971906244754791259765625" lon="1.432058550417423248291015625">
        <ele>254.600006103515625</ele>
        <time>2026-08-05T09:55:07.000Z</time>
        <extensions>
          <ns3:TrackPointExtension>
            <ns3:hr>74</ns3:hr>
            <ns3:cad>0</ns3:cad>
          </ns3:TrackPointExtension>
        </extensions>
      </trkpt>
      <trkpt lat="43.47184921614825725555419921875" lon="1.4320622384548187255859375">
        <ele>254.600006103515625</ele>
        <time>2026-08-05T09:55:08.000Z</time>
        <extensions>
          <ns3:TrackPointExtension>
            <ns3:hr>74</ns3:hr>
            <ns3:cad>0</ns3:cad>
          </ns3:TrackPointExtension>
        </extensions>
      </trkpt>
      <trkpt lat="43.471849299967288970947265625" lon="1.43206550739705562591552734375">
        <ele>254.600006103515625</ele>
        <time>2026-08-05T09:55:09.000Z</time>
        <extensions>
          <ns3:TrackPointExtension>
            <ns3:hr>75</ns3:hr>
            <ns3:cad>0</ns3:cad>
          </ns3:TrackPointExtension>
        </extensions>
      </trkpt>
      <trkpt lat="43.4718477912247180938720703125" lon="1.43206827342510223388671875">
        <ele>254.600006103515625</ele>
        <time>2026-08-05T09:55:10.000Z</time>
        <extensions>
          <ns3:TrackPointExtension>
            <ns3:hr>75</ns3:hr>
            <ns3:cad>0</ns3:cad>
          </ns3:TrackPointExtension>
        </extensions>
      </trkpt>
      <trkpt lat="43.47184854559600353240966796875" lon="1.43207070417702198028564453125">
        <ele>254.600006103515625</ele>
        <time>2026-08-05T09:55:11.000Z</time>
        <extensions>
          <ns3:TrackPointExtension>
            <ns3:hr>75</ns3:hr>
            <ns3:cad>0</ns3:cad>
          </ns3:TrackPointExtension>
        </extensions>
      </trkpt>
      <trkpt lat="43.47185097634792327880859375" lon="1.43206466920673847198486328125">
        <ele>254.8000030517578125</ele>
        <time>2026-08-05T09:55:12.000Z</time>
        <extensions>
          <ns3:TrackPointExtension>
            <ns3:hr>76</ns3:hr>
            <ns3:cad>0</ns3:cad>
          </ns3:TrackPointExtension>
        </extensions>
      </trkpt>
      <trkpt lat="43.4718508087098598480224609375" lon="1.43206986598670482635498046875">
        <ele>254.8000030517578125</ele>
        <time>2026-08-05T09:55:13.000Z</time>
        <extensions>
          <ns3:TrackPointExtension>
            <ns3:hr>76</ns3:hr>
            <ns3:cad>0</ns3:cad>
          </ns3:TrackPointExtension>
        </extensions>
      </trkpt>
      <trkpt lat="43.47185055725276470184326171875" lon="1.4320702850818634033203125">
        <ele>254.8000030517578125</ele>
        <time>2026-08-05T09:55:14.000Z</time>
        <extensions>
          <ns3:TrackPointExtension>
            <ns3:hr>75</ns3:hr>
            <ns3:cad>0</ns3:cad>
          </ns3:TrackPointExtension>
        </extensions>
      </trkpt>
      <trkpt lat="43.47184368409216403961181640625" lon="1.432066261768341064453125">
        <ele>254.8000030517578125</ele>
        <time>2026-08-05T09:55:15.000Z</time>
        <extensions>
          <ns3:TrackPointExtension>
            <ns3:hr>75</ns3:hr>
            <ns3:cad>0</ns3:cad>
          </ns3:TrackPointExtension>
        </extensions>
      </trkpt>
      <trkpt lat="43.47184100188314914703369140625" lon="1.4320640824735164642333984375">
        <ele>255</ele>
        <time>2026-08-05T09:55:16.000Z</time>
        <extensions>
          <ns3:TrackPointExtension>
            <ns3:hr>75</ns3:hr>
            <ns3:cad>0</ns3:cad>
          </ns3:TrackPointExtension>
        </extensions>
      </trkpt>
      <trkpt lat="43.47184024751186370849609375" lon="1.43206383101642131805419921875">
        <ele>255</ele>
        <time>2026-08-05T09:55:17.000Z</time>
        <extensions>
          <ns3:TrackPointExtension>
            <ns3:hr>74</ns3:hr>
            <ns3:cad>0</ns3:cad>
          </ns3:TrackPointExtension>
        </extensions>
      </trkpt>
      <trkpt lat="43.47184024751186370849609375" lon="1.432060562074184417724609375">
        <ele>255</ele>
        <time>2026-08-05T09:55:18.000Z</time>
        <extensions>
          <ns3:TrackPointExtension>
            <ns3:hr>72</ns3:hr>
            <ns3:cad>0</ns3:cad>
          </ns3:TrackPointExtension>
        </extensions>
      </trkpt>
      <trkpt lat="43.47184016369283199310302734375" lon="1.4320587180554866790771484375">
        <ele>255</ele>
        <time>2026-08-05T09:55:19.000Z</time>
        <extensions>
          <ns3:TrackPointExtension>
            <ns3:hr>72</ns3:hr>
            <ns3:cad>0</ns3:cad>
          </ns3:TrackPointExtension>
        </extensions>
      </trkpt>
      <trkpt lat="43.47183848731219768524169921875" lon="1.43205746077001094818115234375">
        <ele>255</ele>
        <time>2026-08-05T09:55:20.000Z</time>
        <extensions>
          <ns3:TrackPointExtension>
            <ns3:hr>72</ns3:hr>
            <ns3:cad>0</ns3:cad>
          </ns3:TrackPointExtension>
        </extensions>
      </trkpt>
      <trkpt lat="43.47183848731219768524169921875" lon="1.43205746077001094818115234375">
        <ele>255</ele>
        <time>2026-08-05T09:55:21.000Z</time>
        <extensions>
          <ns3:TrackPointExtension>
            <ns3:hr>72</ns3:hr>
            <ns3:cad>0</ns3:cad>
          </ns3:TrackPointExtension>
        </extensions>
      </trkpt>
      <trkpt lat="43.47183848731219768524169921875" lon="1.43205746077001094818115234375">
        <ele>254.8000030517578125</ele>
        <time>2026-08-05T09:55:22.000Z</time>
        <extensions>
          <ns3:TrackPointExtension>
            <ns3:hr>72</ns3:hr>
            <ns3:cad>0</ns3:cad>
          </ns3:TrackPointExtension>
        </extensions>
      </trkpt>
      <trkpt lat="43.47183848731219768524169921875" lon="1.43205746077001094818115234375">
        <ele>254.8000030517578125</ele>
        <time>2026-08-05T09:55:23.000Z</time>
        <extensions>
          <ns3:TrackPointExtension>
            <ns3:hr>73</ns3:hr>
            <ns3:cad>0</ns3:cad>
          </ns3:TrackPointExtension>
        </extensions>
      </trkpt>
      <trkpt lat="43.47183848731219768524169921875" lon="1.43205746077001094818115234375">
        <ele>254.8000030517578125</ele>
        <time>2026-08-05T09:55:24.000Z</time>
        <extensions>
          <ns3:TrackPointExtension>
            <ns3:hr>73</ns3:hr>
            <ns3:cad>0</ns3:cad>
          </ns3:TrackPointExtension>
        </extensions>
      </trkpt>
      <trkpt lat="43.47183848731219768524169921875" lon="1.43205746077001094818115234375">
        <ele>254.600006103515625</ele>
        <time>2026-08-05T09:55:25.000Z</time>
        <extensions>
          <ns3:TrackPointExtension>
            <ns3:hr>73</ns3:hr>
            <ns3:cad>0</ns3:cad>
          </ns3:TrackPointExtension>
        </extensions>
      </trkpt>
      <trkpt lat="43.47183848731219768524169921875" lon="1.43205746077001094818115234375">
        <ele>254.600006103515625</ele>
        <time>2026-08-05T09:55:26.000Z</time>
        <extensions>
          <ns3:TrackPointExtension>
            <ns3:hr>72</ns3:hr>
            <ns3:cad>0</ns3:cad>
          </ns3:TrackPointExtension>
        </extensions>
      </trkpt>
      <trkpt lat="43.47183848731219768524169921875" lon="1.43205746077001094818115234375">
        <ele>254.600006103515625</ele>
        <time>2026-08-05T09:55:27.000Z</time>
        <extensions>
          <ns3:TrackPointExtension>
            <ns3:hr>70</ns3:hr>
            <ns3:cad>0</ns3:cad>
          </ns3:TrackPointExtension>
        </extensions>
      </trkpt>
      <trkpt lat="43.47183865495026111602783203125" lon="1.43205712549388408660888671875">
        <ele>254.8000030517578125</ele>
        <time>2026-08-05T09:55:28.000Z</time>
        <extensions>
          <ns3:TrackPointExtension>
            <ns3:hr>69</ns3:hr>
            <ns3:cad>0</ns3:cad>
          </ns3:TrackPointExtension>
        </extensions>
      </trkpt>
      <trkpt lat="43.4718387387692928314208984375" lon="1.4320587180554866790771484375">
        <ele>254.8000030517578125</ele>
        <time>2026-08-05T09:55:29.000Z</time>
        <extensions>
          <ns3:TrackPointExtension>
            <ns3:hr>69</ns3:hr>
            <ns3:cad>0</ns3:cad>
          </ns3:TrackPointExtension>
        </extensions>
      </trkpt>
      <trkpt lat="43.4718422591686248779296875" lon="1.43206014297902584075927734375">
        <ele>255</ele>
        <time>2026-08-05T09:55:30.000Z</time>
        <extensions>
          <ns3:TrackPointExtension>
            <ns3:hr>69</ns3:hr>
            <ns3:cad>0</ns3:cad>
          </ns3:TrackPointExtension>
        </extensions>
      </trkpt>
      <trkpt lat="43.47184821031987667083740234375" lon="1.4320687763392925262451171875">
        <ele>254.8000030517578125</ele>
        <time>2026-08-05T09:55:31.000Z</time>
        <extensions>
          <ns3:TrackPointExtension>
            <ns3:hr>69</ns3:hr>
            <ns3:cad>0</ns3:cad>
          </ns3:TrackPointExtension>
        </extensions>
      </trkpt>
      <trkpt lat="43.47184904851019382476806640625" lon="1.43208034336566925048828125">
        <ele>254.8000030517578125</ele>
        <time>2026-08-05T09:55:32.000Z</time>
        <extensions>
          <ns3:TrackPointExtension>
            <ns3:hr>69</ns3:hr>
            <ns3:cad>0</ns3:cad>
          </ns3:TrackPointExtension>
        </extensions>
      </trkpt>
      <trkpt lat="43.47185525111854076385498046875" lon="1.43208914436399936676025390625">
        <ele>254.8000030517578125</ele>
        <time>2026-08-05T09:55:33.000Z</time>
        <extensions>
          <ns3:TrackPointExtension>
            <ns3:hr>69</ns3:hr>
            <ns3:cad>0</ns3:cad>
          </ns3:TrackPointExtension>
        </extensions>
      </trkpt>
      <trkpt lat="43.47186128608882427215576171875" lon="1.432090736925601959228515625">
        <ele>254.600006103515625</ele>
        <time>2026-08-05T09:55:34.000Z</time>
        <extensions>
          <ns3:TrackPointExtension>
            <ns3:hr>69</ns3:hr>
            <ns3:cad>0</ns3:cad>
          </ns3:TrackPointExtension>
        </extensions>
      </trkpt>
      <trkpt lat="43.471868075430393218994140625" lon="1.4320939220488071441650390625">
        <ele>254.600006103515625</ele>
        <time>2026-08-05T09:55:35.000Z</time>
        <extensions>
          <ns3:TrackPointExtension>
            <ns3:hr>68</ns3:hr>
            <ns3:cad>0</ns3:cad>
          </ns3:TrackPointExtension>
        </extensions>
      </trkpt>
      <trkpt lat="43.47186782397329807281494140625" lon="1.43209911882877349853515625">
        <ele>254.600006103515625</ele>
        <time>2026-08-05T09:55:36.000Z</time>
        <extensions>
          <ns3:TrackPointExtension>
            <ns3:hr>68</ns3:hr>
            <ns3:cad>0</ns3:cad>
          </ns3:TrackPointExtension>
        </extensions>
      </trkpt>
      <trkpt lat="43.47186841070652008056640625" lon="1.432102136313915252685546875">
        <ele>254.600006103515625</ele>
        <time>2026-08-05T09:55:37.000Z</time>
        <extensions>
          <ns3:TrackPointExtension>
            <ns3:hr>67</ns3:hr>
            <ns3:cad>0</ns3:cad>
          </ns3:TrackPointExtension>
        </extensions>
      </trkpt>
      <trkpt lat="43.4718685783445835113525390625" lon="1.4321019686758518218994140625">
        <ele>254.8000030517578125</ele>
        <time>2026-08-05T09:55:38.000Z</time>
        <extensions>
          <ns3:TrackPointExtension>
            <ns3:hr>67</ns3:hr>
            <ns3:cad>0</ns3:cad>
          </ns3:TrackPointExtension>
        </extensions>
      </trkpt>
      <trkpt lat="43.4718685783445835113525390625" lon="1.4321019686758518218994140625">
        <ele>254.8000030517578125</ele>
        <time>2026-08-05T09:55:39.000Z</time>
        <extensions>
          <ns3:TrackPointExtension>
            <ns3:hr>67</ns3:hr>
            <ns3:cad>0</ns3:cad>
          </ns3:TrackPointExtension>
        </extensions>
      </trkpt>
      <trkpt lat="43.4718685783445835113525390625" lon="1.4321019686758518218994140625">
        <ele>254.8000030517578125</ele>
        <time>2026-08-05T09:55:40.000Z</time>
        <extensions>
          <ns3:TrackPointExtension>
            <ns3:hr>68</ns3:hr>
            <ns3:cad>0</ns3:cad>
          </ns3:TrackPointExtension>
        </extensions>
      </trkpt>
      <trkpt lat="43.4718685783445835113525390625" lon="1.4321019686758518218994140625">
        <ele>254.8000030517578125</ele>
        <time>2026-08-05T09:55:41.000Z</time>
        <extensions>
          <ns3:TrackPointExtension>
            <ns3:hr>67</ns3:hr>
            <ns3:cad>0</ns3:cad>
          </ns3:TrackPointExtension>
        </extensions>
      </trkpt>
      <trkpt lat="43.4718685783445835113525390625" lon="1.4321019686758518218994140625">
        <ele>254.8000030517578125</ele>
        <time>2026-08-05T09:55:42.000Z</time>
        <extensions>
          <ns3:TrackPointExtension>
            <ns3:hr>68</ns3:hr>
            <ns3:cad>0</ns3:cad>
          </ns3:TrackPointExtension>
        </extensions>
      </trkpt>
      <trkpt lat="43.4718685783445835113525390625" lon="1.4321019686758518218994140625">
        <ele>254.8000030517578125</ele>
        <time>2026-08-05T09:55:43.000Z</time>
        <extensions>
          <ns3:TrackPointExtension>
            <ns3:hr>69</ns3:hr>
            <ns3:cad>0</ns3:cad>
          </ns3:TrackPointExtension>
        </extensions>
      </trkpt>
      <trkpt lat="43.4718685783445835113525390625" lon="1.4321019686758518218994140625">
        <ele>254.8000030517578125</ele>
        <time>2026-08-05T09:55:44.000Z</time>
        <extensions>
          <ns3:TrackPointExtension>
            <ns3:hr>71</ns3:hr>
            <ns3:cad>0</ns3:cad>
          </ns3:TrackPointExtension>
        </extensions>
      </trkpt>
      <trkpt lat="43.4718685783445835113525390625" lon="1.4321019686758518218994140625">
        <ele>254.8000030517578125</ele>
        <time>2026-08-05T09:55:45.000Z</time>
        <extensions>
          <ns3:TrackPointExtension>
            <ns3:hr>75</ns3:hr>
            <ns3:cad>0</ns3:cad>
          </ns3:TrackPointExtension>
        </extensions>
      </trkpt>
      <trkpt lat="43.4718685783445835113525390625" lon="1.4321019686758518218994140625">
        <ele>254.8000030517578125</ele>
        <time>2026-08-05T09:55:46.000Z</time>
        <extensions>
          <ns3:TrackPointExtension>
            <ns3:hr>76</ns3:hr>
            <ns3:cad>0</ns3:cad>
          </ns3:TrackPointExtension>
        </extensions>
      </trkpt>
      <trkpt lat="43.4718685783445835113525390625" lon="1.4321019686758518218994140625">
        <ele>254.8000030517578125</ele>
        <time>2026-08-05T09:55:47.000Z</time>
        <extensions>
          <ns3:TrackPointExtension>
            <ns3:hr>76</ns3:hr>
            <ns3:cad>0</ns3:cad>
          </ns3:TrackPointExtension>
        </extensions>
      </trkpt>
      <trkpt lat="43.4718685783445835113525390625" lon="1.4321019686758518218994140625">
        <ele>254.8000030517578125</ele>
        <time>2026-08-05T09:55:48.000Z</time>
        <extensions>
          <ns3:TrackPointExtension>
            <ns3:hr>76</ns3:hr>
            <ns3:cad>0</ns3:cad>
          </ns3:TrackPointExtension>
        </extensions>
      </trkpt>
      <trkpt lat="43.4718685783445835113525390625" lon="1.4321019686758518218994140625">
        <ele>254.8000030517578125</ele>
        <time>2026-08-05T09:55:49.000Z</time>
        <extensions>
          <ns3:TrackPointExtension>
            <ns3:hr>77</ns3:hr>
            <ns3:cad>0</ns3:cad>
          </ns3:TrackPointExtension>
        </extensions>
      </trkpt>
      <trkpt lat="43.4718685783445835113525390625" lon="1.4321019686758518218994140625">
        <ele>254.8000030517578125</ele>
        <time>2026-08-05T09:55:50.000Z</time>
        <extensions>
          <ns3:TrackPointExtension>
            <ns3:hr>77</ns3:hr>
            <ns3:cad>0</ns3:cad>
          </ns3:TrackPointExtension>
        </extensions>
      </trkpt>
      <trkpt lat="43.4718685783445835113525390625" lon="1.4321019686758518218994140625">
        <ele>254.8000030517578125</ele>
        <time>2026-08-05T09:55:51.000Z</time>
        <extensions>
          <ns3:TrackPointExtension>
            <ns3:hr>77</ns3:hr>
            <ns3:cad>0</ns3:cad>
          </ns3:TrackPointExtension>
        </extensions>
      </trkpt>
      <trkpt lat="43.4718685783445835113525390625" lon="1.4321019686758518218994140625">
        <ele>254.600006103515625</ele>
        <time>2026-08-05T09:55:52.000Z</time>
        <extensions>
          <ns3:TrackPointExtension>
            <ns3:hr>76</ns3:hr>
            <ns3:cad>0</ns3:cad>
          </ns3:TrackPointExtension>
        </extensions>
      </trkpt>
      <trkpt lat="43.4718685783445835113525390625" lon="1.4321019686758518218994140625">
        <ele>254.600006103515625</ele>
        <time>2026-08-05T09:55:53.000Z</time>
        <extensions>
          <ns3:TrackPointExtension>
            <ns3:hr>76</ns3:hr>
            <ns3:cad>0</ns3:cad>
          </ns3:TrackPointExtension>
        </extensions>
      </trkpt>
      <trkpt lat="43.4718685783445835113525390625" lon="1.4321019686758518218994140625">
        <ele>254.399993896484375</ele>
        <time>2026-08-05T09:55:54.000Z</time>
        <extensions>
          <ns3:TrackPointExtension>
            <ns3:hr>75</ns3:hr>
            <ns3:cad>0</ns3:cad>
          </ns3:TrackPointExtension>
        </extensions>
      </trkpt>
      <trkpt lat="43.4718685783445835113525390625" lon="1.4321019686758518218994140625">
        <ele>254.1999969482421875</ele>
        <time>2026-08-05T09:55:55.000Z</time>
        <extensions>
          <ns3:TrackPointExtension>
            <ns3:hr>75</ns3:hr>
            <ns3:cad>0</ns3:cad>
          </ns3:TrackPointExtension>
        </extensions>
      </trkpt>
      <trkpt lat="43.4718685783445835113525390625" lon="1.4321019686758518218994140625">
        <ele>254.1999969482421875</ele>
        <time>2026-08-05T09:55:56.000Z</time>
        <extensions>
          <ns3:TrackPointExtension>
            <ns3:hr>75</ns3:hr>
            <ns3:cad>0</ns3:cad>
          </ns3:TrackPointExtension>
        </extensions>
      </trkpt>
      <trkpt lat="43.4718685783445835113525390625" lon="1.4321019686758518218994140625">
        <ele>254.1999969482421875</ele>
        <time>2026-08-05T09:55:57.000Z</time>
        <extensions>
          <ns3:TrackPointExtension>
            <ns3:hr>75</ns3:hr>
            <ns3:cad>0</ns3:cad>
          </ns3:TrackPointExtension>
        </extensions>
      </trkpt>
      <trkpt lat="43.4718685783445835113525390625" lon="1.4321019686758518218994140625">
        <ele>254.1999969482421875</ele>
        <time>2026-08-05T09:55:58.000Z</time>
        <extensions>
          <ns3:TrackPointExtension>
            <ns3:hr>75</ns3:hr>
            <ns3:cad>0</ns3:cad>
          </ns3:TrackPointExtension>
        </extensions>
      </trkpt>
      <trkpt lat="43.4718685783445835113525390625" lon="1.4321019686758518218994140625">
        <ele>254.1999969482421875</ele>
        <time>2026-08-05T09:55:59.000Z</time>
        <extensions>
          <ns3:TrackPointExtension>
            <ns3:hr>75</ns3:hr>
            <ns3:cad>0</ns3:cad>
          </ns3:TrackPointExtension>
        </extensions>
      </trkpt>
      <trkpt lat="43.4718685783445835113525390625" lon="1.4321019686758518218994140625">
        <ele>254.1999969482421875</ele>
        <time>2026-08-05T09:56:00.000Z</time>
        <extensions>
          <ns3:TrackPointExtension>
            <ns3:hr>76</ns3:hr>
            <ns3:cad>0</ns3:cad>
          </ns3:TrackPointExtension>
        </extensions>
      </trkpt>
      <trkpt lat="43.4718685783445835113525390625" lon="1.4321019686758518218994140625">
        <ele>254.1999969482421875</ele>
        <time>2026-08-05T09:56:01.000Z</time>
        <extensions>
          <ns3:TrackPointExtension>
            <ns3:hr>75</ns3:hr>
            <ns3:cad>0</ns3:cad>
          </ns3:TrackPointExtension>
        </extensions>
      </trkpt>
      <trkpt lat="43.4718685783445835113525390625" lon="1.4321019686758518218994140625">
        <ele>254.1999969482421875</ele>
        <time>2026-08-05T09:56:02.000Z</time>
        <extensions>
          <ns3:TrackPointExtension>
            <ns3:hr>75</ns3:hr>
            <ns3:cad>0</ns3:cad>
          </ns3:TrackPointExtension>
        </extensions>
      </trkpt>
      <trkpt lat="43.4718685783445835113525390625" lon="1.4321019686758518218994140625">
        <ele>254.1999969482421875</ele>
        <time>2026-08-05T09:56:03.000Z</time>
        <extensions>
          <ns3:TrackPointExtension>
            <ns3:hr>75</ns3:hr>
            <ns3:cad>0</ns3:cad>
          </ns3:TrackPointExtension>
        </extensions>
      </trkpt>
      <trkpt lat="43.4718685783445835113525390625" lon="1.4321019686758518218994140625">
        <ele>254.1999969482421875</ele>
        <time>2026-08-05T09:56:04.000Z</time>
        <extensions>
          <ns3:TrackPointExtension>
            <ns3:hr>75</ns3:hr>
            <ns3:cad>0</ns3:cad>
          </ns3:TrackPointExtension>
        </extensions>
      </trkpt>
      <trkpt lat="43.4718685783445835113525390625" lon="1.4321019686758518218994140625">
        <ele>254.1999969482421875</ele>
        <time>2026-08-05T09:56:05.000Z</time>
        <extensions>
          <ns3:TrackPointExtension>
            <ns3:hr>75</ns3:hr>
            <ns3:cad>0</ns3:cad>
          </ns3:TrackPointExtension>
        </extensions>
      </trkpt>
      <trkpt lat="43.4718685783445835113525390625" lon="1.4321019686758518218994140625">
        <ele>254.1999969482421875</ele>
        <time>2026-08-05T09:56:06.000Z</time>
        <extensions>
          <ns3:TrackPointExtension>
            <ns3:hr>74</ns3:hr>
            <ns3:cad>0</ns3:cad>
          </ns3:TrackPointExtension>
        </extensions>
      </trkpt>
      <trkpt lat="43.4718685783445835113525390625" lon="1.4321019686758518218994140625">
        <ele>254.1999969482421875</ele>
        <time>2026-08-05T09:56:07.000Z</time>
        <extensions>
          <ns3:TrackPointExtension>
            <ns3:hr>71</ns3:hr>
            <ns3:cad>0</ns3:cad>
          </ns3:TrackPointExtension>
        </extensions>
      </trkpt>
      <trkpt lat="43.4718685783445835113525390625" lon="1.4321019686758518218994140625">
        <ele>254.1999969482421875</ele>
        <time>2026-08-05T09:56:08.000Z</time>
        <extensions>
          <ns3:TrackPointExtension>
            <ns3:hr>70</ns3:hr>
            <ns3:cad>0</ns3:cad>
          </ns3:TrackPointExtension>
        </extensions>
      </trkpt>
      <trkpt lat="43.4718685783445835113525390625" lon="1.4321019686758518218994140625">
        <ele>254.1999969482421875</ele>
        <time>2026-08-05T09:56:09.000Z</time>
        <extensions>
          <ns3:TrackPointExtension>
            <ns3:hr>70</ns3:hr>
            <ns3:cad>0</ns3:cad>
          </ns3:TrackPointExtension>
        </extensions>
      </trkpt>
      <trkpt lat="43.4718685783445835113525390625" lon="1.4321019686758518218994140625">
        <ele>254.1999969482421875</ele>
        <time>2026-08-05T09:56:10.000Z</time>
        <extensions>
          <ns3:TrackPointExtension>
            <ns3:hr>69</ns3:hr>
            <ns3:cad>0</ns3:cad>
          </ns3:TrackPointExtension>
        </extensions>
      </trkpt>
      <trkpt lat="43.4718685783445835113525390625" lon="1.4321019686758518218994140625">
        <ele>254.1999969482421875</ele>
        <time>2026-08-05T09:56:11.000Z</time>
        <extensions>
          <ns3:TrackPointExtension>
            <ns3:hr>69</ns3:hr>
            <ns3:cad>0</ns3:cad>
          </ns3:TrackPointExtension>
        </extensions>
      </trkpt>
      <trkpt lat="43.4718685783445835113525390625" lon="1.4321019686758518218994140625">
        <ele>254.1999969482421875</ele>
        <time>2026-08-05T09:56:12.000Z</time>
        <extensions>
          <ns3:TrackPointExtension>
            <ns3:hr>69</ns3:hr>
            <ns3:cad>0</ns3:cad>
          </ns3:TrackPointExtension>
        </extensions>
      </trkpt>
      <trkpt lat="43.4718685783445835113525390625" lon="1.4321019686758518218994140625">
        <ele>254.1999969482421875</ele>
        <time>2026-08-05T09:56:13.000Z</time>
        <extensions>
          <ns3:TrackPointExtension>
            <ns3:hr>70</ns3:hr>
            <ns3:cad>0</ns3:cad>
          </ns3:TrackPointExtension>
        </extensions>
      </trkpt>
      <trkpt lat="43.4718685783445835113525390625" lon="1.4321019686758518218994140625">
        <ele>254.1999969482421875</ele>
        <time>2026-08-05T09:56:14.000Z</time>
        <extensions>
          <ns3:TrackPointExtension>
            <ns3:hr>69</ns3:hr>
            <ns3:cad>0</ns3:cad>
          </ns3:TrackPointExtension>
        </extensions>
      </trkpt>
      <trkpt lat="43.4718685783445835113525390625" lon="1.4321019686758518218994140625">
        <ele>254.1999969482421875</ele>
        <time>2026-08-05T09:56:15.000Z</time>
        <extensions>
          <ns3:TrackPointExtension>
            <ns3:hr>69</ns3:hr>
            <ns3:cad>0</ns3:cad>
          </ns3:TrackPointExtension>
        </extensions>
      </trkpt>
      <trkpt lat="43.4718685783445835113525390625" lon="1.4321019686758518218994140625">
        <ele>254.1999969482421875</ele>
        <time>2026-08-05T09:56:16.000Z</time>
        <extensions>
          <ns3:TrackPointExtension>
            <ns3:hr>70</ns3:hr>
            <ns3:cad>0</ns3:cad>
          </ns3:TrackPointExtension>
        </extensions>
      </trkpt>
      <trkpt lat="43.4718685783445835113525390625" lon="1.4321019686758518218994140625">
        <ele>254.1999969482421875</ele>
        <time>2026-08-05T09:56:17.000Z</time>
        <extensions>
          <ns3:TrackPointExtension>
            <ns3:hr>71</ns3:hr>
            <ns3:cad>0</ns3:cad>
          </ns3:TrackPointExtension>
        </extensions>
      </trkpt>
      <trkpt lat="43.4718685783445835113525390625" lon="1.4321019686758518218994140625">
        <ele>254.600006103515625</ele>
        <time>2026-08-05T09:56:18.000Z</time>
        <extensions>
          <ns3:TrackPointExtension>
            <ns3:hr>72</ns3:hr>
            <ns3:cad>0</ns3:cad>
          </ns3:TrackPointExtension>
        </extensions>
      </trkpt>
      <trkpt lat="43.4718685783445835113525390625" lon="1.4321019686758518218994140625">
        <ele>254.8000030517578125</ele>
        <time>2026-08-05T09:56:19.000Z</time>
        <extensions>
          <ns3:TrackPointExtension>
            <ns3:hr>72</ns3:hr>
            <ns3:cad>0</ns3:cad>
          </ns3:TrackPointExtension>
        </extensions>
      </trkpt>
      <trkpt lat="43.4718685783445835113525390625" lon="1.4321019686758518218994140625">
        <ele>254.8000030517578125</ele>
        <time>2026-08-05T09:56:20.000Z</time>
        <extensions>
          <ns3:TrackPointExtension>
            <ns3:hr>73</ns3:hr>
            <ns3:cad>0</ns3:cad>
          </ns3:TrackPointExtension>
        </extensions>
      </trkpt>
      <trkpt lat="43.4718685783445835113525390625" lon="1.4321019686758518218994140625">
        <ele>255</ele>
        <time>2026-08-05T09:56:21.000Z</time>
        <extensions>
          <ns3:TrackPointExtension>
            <ns3:hr>75</ns3:hr>
            <ns3:cad>0</ns3:cad>
          </ns3:TrackPointExtension>
        </extensions>
      </trkpt>
      <trkpt lat="43.4718685783445835113525390625" lon="1.4321019686758518218994140625">
        <ele>255</ele>
        <time>2026-08-05T09:56:22.000Z</time>
        <extensions>
          <ns3:TrackPointExtension>
            <ns3:hr>75</ns3:hr>
            <ns3:cad>0</ns3:cad>
          </ns3:TrackPointExtension>
        </extensions>
      </trkpt>
      <trkpt lat="43.4718685783445835113525390625" lon="1.4321019686758518218994140625">
        <ele>255.1999969482421875</ele>
        <time>2026-08-05T09:56:23.000Z</time>
        <extensions>
          <ns3:TrackPointExtension>
            <ns3:hr>74</ns3:hr>
            <ns3:cad>0</ns3:cad>
          </ns3:TrackPointExtension>
        </extensions>
      </trkpt>
      <trkpt lat="43.4718685783445835113525390625" lon="1.4321019686758518218994140625">
        <ele>255.1999969482421875</ele>
        <time>2026-08-05T09:56:24.000Z</time>
        <extensions>
          <ns3:TrackPointExtension>
            <ns3:hr>74</ns3:hr>
            <ns3:cad>0</ns3:cad>
          </ns3:TrackPointExtension>
        </extensions>
      </trkpt>
      <trkpt lat="43.4718685783445835113525390625" lon="1.4321019686758518218994140625">
        <ele>255.1999969482421875</ele>
        <time>2026-08-05T09:56:25.000Z</time>
        <extensions>
          <ns3:TrackPointExtension>
            <ns3:hr>74</ns3:hr>
            <ns3:cad>0</ns3:cad>
          </ns3:TrackPointExtension>
        </extensions>
      </trkpt>
      <trkpt lat="43.4718685783445835113525390625" lon="1.4321019686758518218994140625">
        <ele>255.399993896484375</ele>
        <time>2026-08-05T09:56:26.000Z</time>
        <extensions>
          <ns3:TrackPointExtension>
            <ns3:hr>74</ns3:hr>
            <ns3:cad>0</ns3:cad>
          </ns3:TrackPointExtension>
        </extensions>
      </trkpt>
      <trkpt lat="43.4718685783445835113525390625" lon="1.4321019686758518218994140625">
        <ele>255.399993896484375</ele>
        <time>2026-08-05T09:56:27.000Z</time>
        <extensions>
          <ns3:TrackPointExtension>
            <ns3:hr>74</ns3:hr>
            <ns3:cad>0</ns3:cad>
          </ns3:TrackPointExtension>
        </extensions>
      </trkpt>
      <trkpt lat="43.4718685783445835113525390625" lon="1.4321019686758518218994140625">
        <ele>255.399993896484375</ele>
        <time>2026-08-05T09:56:28.000Z</time>
        <extensions>
          <ns3:TrackPointExtension>
            <ns3:hr>74</ns3:hr>
            <ns3:cad>0</ns3:cad>
          </ns3:TrackPointExtension>
        </extensions>
      </trkpt>
      <trkpt lat="43.4718685783445835113525390625" lon="1.4321019686758518218994140625">
        <ele>255.1999969482421875</ele>
        <time>2026-08-05T09:56:29.000Z</time>
        <extensions>
          <ns3:TrackPointExtension>
            <ns3:hr>74</ns3:hr>
            <ns3:cad>0</ns3:cad>
          </ns3:TrackPointExtension>
        </extensions>
      </trkpt>
      <trkpt lat="43.4718685783445835113525390625" lon="1.4321019686758518218994140625">
        <ele>255.1999969482421875</ele>
        <time>2026-08-05T09:56:30.000Z</time>
        <extensions>
          <ns3:TrackPointExtension>
            <ns3:hr>74</ns3:hr>
            <ns3:cad>0</ns3:cad>
          </ns3:TrackPointExtension>
        </extensions>
      </trkpt>
      <trkpt lat="43.4718685783445835113525390625" lon="1.4321019686758518218994140625">
        <ele>255.1999969482421875</ele>
        <time>2026-08-05T09:56:31.000Z</time>
        <extensions>
          <ns3:TrackPointExtension>
            <ns3:hr>74</ns3:hr>
            <ns3:cad>0</ns3:cad>
          </ns3:TrackPointExtension>
        </extensions>
      </trkpt>
      <trkpt lat="43.4718685783445835113525390625" lon="1.4321019686758518218994140625">
        <ele>255.1999969482421875</ele>
        <time>2026-08-05T09:56:32.000Z</time>
        <extensions>
          <ns3:TrackPointExtension>
            <ns3:hr>73</ns3:hr>
            <ns3:cad>0</ns3:cad>
          </ns3:TrackPointExtension>
        </extensions>
      </trkpt>
      <trkpt lat="43.47186899743974208831787109375" lon="1.4321006275713443756103515625">
        <ele>255.1999969482421875</ele>
        <time>2026-08-05T09:56:33.000Z</time>
        <extensions>
          <ns3:TrackPointExtension>
            <ns3:hr>74</ns3:hr>
            <ns3:cad>0</ns3:cad>
          </ns3:TrackPointExtension>
        </extensions>
      </trkpt>
      <trkpt lat="43.471868075430393218994140625" lon="1.43209266476333141326904296875">
        <ele>255.1999969482421875</ele>
        <time>2026-08-05T09:56:34.000Z</time>
        <extensions>
          <ns3:TrackPointExtension>
            <ns3:hr>74</ns3:hr>
            <ns3:cad>0</ns3:cad>
          </ns3:TrackPointExtension>
        </extensions>
      </trkpt>
      <trkpt lat="43.4718637168407440185546875" lon="1.43208377994596958160400390625">
        <ele>255.1999969482421875</ele>
        <time>2026-08-05T09:56:35.000Z</time>
        <extensions>
          <ns3:TrackPointExtension>
            <ns3:hr>74</ns3:hr>
            <ns3:cad>0</ns3:cad>
          </ns3:TrackPointExtension>
        </extensions>
      </trkpt>
      <trkpt lat="43.47186178900301456451416015625" lon="1.43207363784313201904296875">
        <ele>255.1999969482421875</ele>
        <time>2026-08-05T09:56:36.000Z</time>
        <extensions>
          <ns3:TrackPointExtension>
            <ns3:hr>75</ns3:hr>
            <ns3:cad>0</ns3:cad>
          </ns3:TrackPointExtension>
        </extensions>
      </trkpt>
      <trkpt lat="43.47185927443206310272216796875" lon="1.43206332810223102569580078125">
        <ele>255.1999969482421875</ele>
        <time>2026-08-05T09:56:37.000Z</time>
        <extensions>
          <ns3:TrackPointExtension>
            <ns3:hr>79</ns3:hr>
            <ns3:cad>0</ns3:cad>
          </ns3:TrackPointExtension>
        </extensions>
      </trkpt>
      <trkpt lat="43.47185659222304821014404296875" lon="1.43205293454229831695556640625">
        <ele>255.1999969482421875</ele>
        <time>2026-08-05T09:56:38.000Z</time>
        <extensions>
          <ns3:TrackPointExtension>
            <ns3:hr>79</ns3:hr>
            <ns3:cad>0</ns3:cad>
          </ns3:TrackPointExtension>
        </extensions>
      </trkpt>
      <trkpt lat="43.47185374237596988677978515625" lon="1.4320573769509792327880859375">
        <ele>255</ele>
        <time>2026-08-05T09:56:39.000Z</time>
        <extensions>
          <ns3:TrackPointExtension>
            <ns3:hr>79</ns3:hr>
            <ns3:cad>0</ns3:cad>
          </ns3:TrackPointExtension>
        </extensions>
      </trkpt>
      <trkpt lat="43.47185391001403331756591796875" lon="1.43205754458904266357421875">
        <ele>254.8000030517578125</ele>
        <time>2026-08-05T09:56:40.000Z</time>
        <extensions>
          <ns3:TrackPointExtension>
            <ns3:hr>79</ns3:hr>
            <ns3:cad>0</ns3:cad>
          </ns3:TrackPointExtension>
        </extensions>
      </trkpt>
      <trkpt lat="43.47185391001403331756591796875" lon="1.43205754458904266357421875">
        <ele>254.8000030517578125</ele>
        <time>2026-08-05T09:56:41.000Z</time>
        <extensions>
          <ns3:TrackPointExtension>
            <ns3:hr>78</ns3:hr>
            <ns3:cad>0</ns3:cad>
          </ns3:TrackPointExtension>
        </extensions>
      </trkpt>
      <trkpt lat="43.47185391001403331756591796875" lon="1.43205754458904266357421875">
        <ele>254.600006103515625</ele>
        <time>2026-08-05T09:56:42.000Z</time>
        <extensions>
          <ns3:TrackPointExtension>
            <ns3:hr>77</ns3:hr>
            <ns3:cad>0</ns3:cad>
          </ns3:TrackPointExtension>
        </extensions>
      </trkpt>
      <trkpt lat="43.47185391001403331756591796875" lon="1.43205754458904266357421875">
        <ele>254.8000030517578125</ele>
        <time>2026-08-05T09:56:43.000Z</time>
        <extensions>
          <ns3:TrackPointExtension>
            <ns3:hr>76</ns3:hr>
            <ns3:cad>0</ns3:cad>
          </ns3:TrackPointExtension>
        </extensions>
      </trkpt>
      <trkpt lat="43.47185391001403331756591796875" lon="1.43205754458904266357421875">
        <ele>254.8000030517578125</ele>
        <time>2026-08-05T09:56:44.000Z</time>
        <extensions>
          <ns3:TrackPointExtension>
            <ns3:hr>77</ns3:hr>
            <ns3:cad>0</ns3:cad>
          </ns3:TrackPointExtension>
        </extensions>
      </trkpt>
      <trkpt lat="43.47185391001403331756591796875" lon="1.43205754458904266357421875">
        <ele>255</ele>
        <time>2026-08-05T09:56:45.000Z</time>
        <extensions>
          <ns3:TrackPointExtension>
            <ns3:hr>77</ns3:hr>
            <ns3:cad>0</ns3:cad>
          </ns3:TrackPointExtension>
        </extensions>
      </trkpt>
      <trkpt lat="43.47185391001403331756591796875" lon="1.43205754458904266357421875">
        <ele>255</ele>
        <time>2026-08-05T09:56:46.000Z</time>
        <extensions>
          <ns3:TrackPointExtension>
            <ns3:hr>78</ns3:hr>
            <ns3:cad>0</ns3:cad>
          </ns3:TrackPointExtension>
        </extensions>
      </trkpt>
      <trkpt lat="43.47185391001403331756591796875" lon="1.43205754458904266357421875">
        <ele>255</ele>
        <time>2026-08-05T09:56:47.000Z</time>
        <extensions>
          <ns3:TrackPointExtension>
            <ns3:hr>78</ns3:hr>
            <ns3:cad>0</ns3:cad>
          </ns3:TrackPointExtension>
        </extensions>
      </trkpt>
      <trkpt lat="43.47185391001403331756591796875" lon="1.43205754458904266357421875">
        <ele>254.8000030517578125</ele>
        <time>2026-08-05T09:56:48.000Z</time>
        <extensions>
          <ns3:TrackPointExtension>
            <ns3:hr>78</ns3:hr>
            <ns3:cad>0</ns3:cad>
          </ns3:TrackPointExtension>
        </extensions>
      </trkpt>
      <trkpt lat="43.47185391001403331756591796875" lon="1.43205754458904266357421875">
        <ele>254.8000030517578125</ele>
        <time>2026-08-05T09:56:49.000Z</time>
        <extensions>
          <ns3:TrackPointExtension>
            <ns3:hr>79</ns3:hr>
            <ns3:cad>0</ns3:cad>
          </ns3:TrackPointExtension>
        </extensions>
      </trkpt>
      <trkpt lat="43.47185391001403331756591796875" lon="1.43205754458904266357421875">
        <ele>254.8000030517578125</ele>
        <time>2026-08-05T09:56:50.000Z</time>
        <extensions>
          <ns3:TrackPointExtension>
            <ns3:hr>79</ns3:hr>
            <ns3:cad>0</ns3:cad>
          </ns3:TrackPointExtension>
        </extensions>
      </trkpt>
      <trkpt lat="43.47185391001403331756591796875" lon="1.43205754458904266357421875">
        <ele>254.8000030517578125</ele>
        <time>2026-08-05T09:56:51.000Z</time>
        <extensions>
          <ns3:TrackPointExtension>
            <ns3:hr>79</ns3:hr>
            <ns3:cad>0</ns3:cad>
          </ns3:TrackPointExtension>
        </extensions>
      </trkpt>
      <trkpt lat="43.47185391001403331756591796875" lon="1.43205754458904266357421875">
        <ele>254.8000030517578125</ele>
        <time>2026-08-05T09:56:52.000Z</time>
        <extensions>
          <ns3:TrackPointExtension>
            <ns3:hr>79</ns3:hr>
            <ns3:cad>0</ns3:cad>
          </ns3:TrackPointExtension>
        </extensions>
      </trkpt>
      <trkpt lat="43.47185391001403331756591796875" lon="1.43205754458904266357421875">
        <ele>254.8000030517578125</ele>
        <time>2026-08-05T09:56:53.000Z</time>
        <extensions>
          <ns3:TrackPointExtension>
            <ns3:hr>78</ns3:hr>
            <ns3:cad>0</ns3:cad>
          </ns3:TrackPointExtension>
        </extensions>
      </trkpt>
      <trkpt lat="43.47185391001403331756591796875" lon="1.43205754458904266357421875">
        <ele>254.600006103515625</ele>
        <time>2026-08-05T09:56:54.000Z</time>
        <extensions>
          <ns3:TrackPointExtension>
            <ns3:hr>78</ns3:hr>
            <ns3:cad>0</ns3:cad>
          </ns3:TrackPointExtension>
        </extensions>
      </trkpt>
      <trkpt lat="43.47185391001403331756591796875" lon="1.43205754458904266357421875">
        <ele>254.399993896484375</ele>
        <time>2026-08-05T09:56:55.000Z</time>
        <extensions>
          <ns3:TrackPointExtension>
            <ns3:hr>79</ns3:hr>
            <ns3:cad>0</ns3:cad>
          </ns3:TrackPointExtension>
        </extensions>
      </trkpt>
      <trkpt lat="43.47185323946177959442138671875" lon="1.43206098116934299468994140625">
        <ele>254.399993896484375</ele>
        <time>2026-08-05T09:56:56.000Z</time>
        <extensions>
          <ns3:TrackPointExtension>
            <ns3:hr>79</ns3:hr>
            <ns3:cad>0</ns3:cad>
          </ns3:TrackPointExtension>
        </extensions>
      </trkpt>
      <trkpt lat="43.47185391001403331756591796875" lon="1.43205754458904266357421875">
        <ele>254.399993896484375</ele>
        <time>2026-08-05T09:56:57.000Z</time>
        <extensions>
          <ns3:TrackPointExtension>
            <ns3:hr>79</ns3:hr>
            <ns3:cad>0</ns3:cad>
          </ns3:TrackPointExtension>
        </extensions>
      </trkpt>
      <trkpt lat="43.47185391001403331756591796875" lon="1.43205754458904266357421875">
        <ele>254.600006103515625</ele>
        <time>2026-08-05T09:56:58.000Z</time>
        <extensions>
          <ns3:TrackPointExtension>
            <ns3:hr>79</ns3:hr>
            <ns3:cad>0</ns3:cad>
          </ns3:TrackPointExtension>
        </extensions>
      </trkpt>
      <trkpt lat="43.47185391001403331756591796875" lon="1.43205754458904266357421875">
        <ele>254.8000030517578125</ele>
        <time>2026-08-05T09:56:59.000Z</time>
        <extensions>
          <ns3:TrackPointExtension>
            <ns3:hr>80</ns3:hr>
            <ns3:cad>0</ns3:cad>
          </ns3:TrackPointExtension>
        </extensions>
      </trkpt>
      <trkpt lat="43.4718529880046844482421875" lon="1.432066597044467926025390625">
        <ele>255</ele>
        <time>2026-08-05T09:57:00.000Z</time>
        <extensions>
          <ns3:TrackPointExtension>
            <ns3:hr>80</ns3:hr>
            <ns3:cad>0</ns3:cad>
          </ns3:TrackPointExtension>
        </extensions>
      </trkpt>
      <trkpt lat="43.47185558639466762542724609375" lon="1.43206684850156307220458984375">
        <ele>255.1999969482421875</ele>
        <time>2026-08-05T09:57:01.000Z</time>
        <extensions>
          <ns3:TrackPointExtension>
            <ns3:hr>80</ns3:hr>
            <ns3:cad>0</ns3:cad>
          </ns3:TrackPointExtension>
        </extensions>
      </trkpt>
      <trkpt lat="43.471852652728557586669921875" lon="1.4320630766451358795166015625">
        <ele>255.1999969482421875</ele>
        <time>2026-08-05T09:57:02.000Z</time>
        <extensions>
          <ns3:TrackPointExtension>
            <ns3:hr>80</ns3:hr>
            <ns3:cad>0</ns3:cad>
          </ns3:TrackPointExtension>
        </extensions>
      </trkpt>
      <trkpt lat="43.47185323946177959442138671875" lon="1.4320650883018970489501953125">
        <ele>255</ele>
        <time>2026-08-05T09:57:03.000Z</time>
        <extensions>
          <ns3:TrackPointExtension>
            <ns3:hr>81</ns3:hr>
            <ns3:cad>0</ns3:cad>
          </ns3:TrackPointExtension>
        </extensions>
      </trkpt>
      <trkpt lat="43.47185391001403331756591796875" lon="1.43205754458904266357421875">
        <ele>255</ele>
        <time>2026-08-05T09:57:04.000Z</time>
        <extensions>
          <ns3:TrackPointExtension>
            <ns3:hr>82</ns3:hr>
            <ns3:cad>0</ns3:cad>
          </ns3:TrackPointExtension>
        </extensions>
      </trkpt>
      <trkpt lat="43.47185391001403331756591796875" lon="1.43205754458904266357421875">
        <ele>254.8000030517578125</ele>
        <time>2026-08-05T09:57:05.000Z</time>
        <extensions>
          <ns3:TrackPointExtension>
            <ns3:hr>82</ns3:hr>
            <ns3:cad>0</ns3:cad>
          </ns3:TrackPointExtension>
        </extensions>
      </trkpt>
      <trkpt lat="43.47185391001403331756591796875" lon="1.43205754458904266357421875">
        <ele>254.8000030517578125</ele>
        <time>2026-08-05T09:57:06.000Z</time>
        <extensions>
          <ns3:TrackPointExtension>
            <ns3:hr>83</ns3:hr>
            <ns3:cad>0</ns3:cad>
          </ns3:TrackPointExtension>
        </extensions>
      </trkpt>
      <trkpt lat="43.47185391001403331756591796875" lon="1.43205754458904266357421875">
        <ele>254.8000030517578125</ele>
        <time>2026-08-05T09:57:07.000Z</time>
        <extensions>
          <ns3:TrackPointExtension>
            <ns3:hr>82</ns3:hr>
            <ns3:cad>0</ns3:cad>
          </ns3:TrackPointExtension>
        </extensions>
      </trkpt>
      <trkpt lat="43.47185391001403331756591796875" lon="1.43205754458904266357421875">
        <ele>255</ele>
        <time>2026-08-05T09:57:08.000Z</time>
        <extensions>
          <ns3:TrackPointExtension>
            <ns3:hr>82</ns3:hr>
            <ns3:cad>0</ns3:cad>
          </ns3:TrackPointExtension>
        </extensions>
      </trkpt>
      <trkpt lat="43.47185391001403331756591796875" lon="1.43205754458904266357421875">
        <ele>255</ele>
        <time>2026-08-05T09:57:09.000Z</time>
        <extensions>
          <ns3:TrackPointExtension>
            <ns3:hr>82</ns3:hr>
            <ns3:cad>0</ns3:cad>
          </ns3:TrackPointExtension>
        </extensions>
      </trkpt>
      <trkpt lat="43.47185391001403331756591796875" lon="1.43205754458904266357421875">
        <ele>255.1999969482421875</ele>
        <time>2026-08-05T09:57:10.000Z</time>
        <extensions>
          <ns3:TrackPointExtension>
            <ns3:hr>82</ns3:hr>
            <ns3:cad>0</ns3:cad>
          </ns3:TrackPointExtension>
        </extensions>
      </trkpt>
      <trkpt lat="43.47185391001403331756591796875" lon="1.43205754458904266357421875">
        <ele>255.1999969482421875</ele>
        <time>2026-08-05T09:57:11.000Z</time>
        <extensions>
          <ns3:TrackPointExtension>
            <ns3:hr>82</ns3:hr>
            <ns3:cad>0</ns3:cad>
          </ns3:TrackPointExtension>
        </extensions>
      </trkpt>
      <trkpt lat="43.47185391001403331756591796875" lon="1.43205754458904266357421875">
        <ele>255.1999969482421875</ele>
        <time>2026-08-05T09:57:12.000Z</time>
        <extensions>
          <ns3:TrackPointExtension>
            <ns3:hr>82</ns3:hr>
            <ns3:cad>0</ns3:cad>
          </ns3:TrackPointExtension>
        </extensions>
      </trkpt>
      <trkpt lat="43.47185391001403331756591796875" lon="1.43205754458904266357421875">
        <ele>255.1999969482421875</ele>
        <time>2026-08-05T09:57:13.000Z</time>
        <extensions>
          <ns3:TrackPointExtension>
            <ns3:hr>82</ns3:hr>
            <ns3:cad>0</ns3:cad>
          </ns3:TrackPointExtension>
        </extensions>
      </trkpt>
      <trkpt lat="43.47185391001403331756591796875" lon="1.43205754458904266357421875">
        <ele>255.399993896484375</ele>
        <time>2026-08-05T09:57:14.000Z</time>
        <extensions>
          <ns3:TrackPointExtension>
            <ns3:hr>83</ns3:hr>
            <ns3:cad>0</ns3:cad>
          </ns3:TrackPointExtension>
        </extensions>
      </trkpt>
      <trkpt lat="43.47185391001403331756591796875" lon="1.43205754458904266357421875">
        <ele>255.399993896484375</ele>
        <time>2026-08-05T09:57:15.000Z</time>
        <extensions>
          <ns3:TrackPointExtension>
            <ns3:hr>83</ns3:hr>
            <ns3:cad>0</ns3:cad>
          </ns3:TrackPointExtension>
        </extensions>
      </trkpt>
      <trkpt lat="43.47185391001403331756591796875" lon="1.43205754458904266357421875">
        <ele>255.399993896484375</ele>
        <time>2026-08-05T09:57:16.000Z</time>
        <extensions>
          <ns3:TrackPointExtension>
            <ns3:hr>83</ns3:hr>
            <ns3:cad>0</ns3:cad>
          </ns3:TrackPointExtension>
        </extensions>
      </trkpt>
      <trkpt lat="43.47185391001403331756591796875" lon="1.43205754458904266357421875">
        <ele>255.399993896484375</ele>
        <time>2026-08-05T09:57:17.000Z</time>
        <extensions>
          <ns3:TrackPointExtension>
            <ns3:hr>82</ns3:hr>
            <ns3:cad>0</ns3:cad>
          </ns3:TrackPointExtension>
        </extensions>
      </trkpt>
      <trkpt lat="43.47185391001403331756591796875" lon="1.43205754458904266357421875">
        <ele>255.399993896484375</ele>
        <time>2026-08-05T09:57:18.000Z</time>
        <extensions>
          <ns3:TrackPointExtension>
            <ns3:hr>81</ns3:hr>
            <ns3:cad>0</ns3:cad>
          </ns3:TrackPointExtension>
        </extensions>
      </trkpt>
      <trkpt lat="43.47185391001403331756591796875" lon="1.43205754458904266357421875">
        <ele>255.399993896484375</ele>
        <time>2026-08-05T09:57:19.000Z</time>
        <extensions>
          <ns3:TrackPointExtension>
            <ns3:hr>81</ns3:hr>
            <ns3:cad>0</ns3:cad>
          </ns3:TrackPointExtension>
        </extensions>
      </trkpt>
      <trkpt lat="43.47185391001403331756591796875" lon="1.43205754458904266357421875">
        <ele>255.600006103515625</ele>
        <time>2026-08-05T09:57:20.000Z</time>
        <extensions>
          <ns3:TrackPointExtension>
            <ns3:hr>79</ns3:hr>
            <ns3:cad>0</ns3:cad>
          </ns3:TrackPointExtension>
        </extensions>
      </trkpt>
      <trkpt lat="43.47185391001403331756591796875" lon="1.43205754458904266357421875">
        <ele>255.399993896484375</ele>
        <time>2026-08-05T09:57:21.000Z</time>
        <extensions>
          <ns3:TrackPointExtension>
            <ns3:hr>78</ns3:hr>
            <ns3:cad>0</ns3:cad>
          </ns3:TrackPointExtension>
        </extensions>
      </trkpt>
      <trkpt lat="43.47185391001403331756591796875" lon="1.43205754458904266357421875">
        <ele>255.399993896484375</ele>
        <time>2026-08-05T09:57:22.000Z</time>
        <extensions>
          <ns3:TrackPointExtension>
            <ns3:hr>77</ns3:hr>
            <ns3:cad>0</ns3:cad>
          </ns3:TrackPointExtension>
        </extensions>
      </trkpt>
      <trkpt lat="43.47185391001403331756591796875" lon="1.43205754458904266357421875">
        <ele>255.399993896484375</ele>
        <time>2026-08-05T09:57:23.000Z</time>
        <extensions>
          <ns3:TrackPointExtension>
            <ns3:hr>76</ns3:hr>
            <ns3:cad>0</ns3:cad>
          </ns3:TrackPointExtension>
        </extensions>
      </trkpt>
      <trkpt lat="43.47185391001403331756591796875" lon="1.43205754458904266357421875">
        <ele>255.399993896484375</ele>
        <time>2026-08-05T09:57:24.000Z</time>
        <extensions>
          <ns3:TrackPointExtension>
            <ns3:hr>75</ns3:hr>
            <ns3:cad>0</ns3:cad>
          </ns3:TrackPointExtension>
        </extensions>
      </trkpt>
      <trkpt lat="43.47185391001403331756591796875" lon="1.43205754458904266357421875">
        <ele>255.399993896484375</ele>
        <time>2026-08-05T09:57:25.000Z</time>
        <extensions>
          <ns3:TrackPointExtension>
            <ns3:hr>74</ns3:hr>
            <ns3:cad>0</ns3:cad>
          </ns3:TrackPointExtension>
        </extensions>
      </trkpt>
      <trkpt lat="43.47185391001403331756591796875" lon="1.43205754458904266357421875">
        <ele>255.399993896484375</ele>
        <time>2026-08-05T09:57:26.000Z</time>
        <extensions>
          <ns3:TrackPointExtension>
            <ns3:hr>74</ns3:hr>
            <ns3:cad>0</ns3:cad>
          </ns3:TrackPointExtension>
        </extensions>
      </trkpt>
      <trkpt lat="43.47185391001403331756591796875" lon="1.43205754458904266357421875">
        <ele>255.399993896484375</ele>
        <time>2026-08-05T09:57:27.000Z</time>
        <extensions>
          <ns3:TrackPointExtension>
            <ns3:hr>74</ns3:hr>
            <ns3:cad>0</ns3:cad>
          </ns3:TrackPointExtension>
        </extensions>
      </trkpt>
      <trkpt lat="43.47185055725276470184326171875" lon="1.43206827342510223388671875">
        <ele>255.1999969482421875</ele>
        <time>2026-08-05T09:57:28.000Z</time>
        <extensions>
          <ns3:TrackPointExtension>
            <ns3:hr>74</ns3:hr>
            <ns3:cad>0</ns3:cad>
          </ns3:TrackPointExtension>
        </extensions>
      </trkpt>
      <trkpt lat="43.47185038961470127105712890625" lon="1.43206852488219738006591796875">
        <ele>255.1999969482421875</ele>
        <time>2026-08-05T09:57:29.000Z</time>
        <extensions>
          <ns3:TrackPointExtension>
            <ns3:hr>74</ns3:hr>
            <ns3:cad>0</ns3:cad>
          </ns3:TrackPointExtension>
        </extensions>
      </trkpt>
      <trkpt lat="43.47185391001403331756591796875" lon="1.43205754458904266357421875">
        <ele>255</ele>
        <time>2026-08-05T09:57:30.000Z</time>
        <extensions>
          <ns3:TrackPointExtension>
            <ns3:hr>75</ns3:hr>
            <ns3:cad>0</ns3:cad>
          </ns3:TrackPointExtension>
        </extensions>
      </trkpt>
      <trkpt lat="43.47185391001403331756591796875" lon="1.43205754458904266357421875">
        <ele>255</ele>
        <time>2026-08-05T09:57:31.000Z</time>
        <extensions>
          <ns3:TrackPointExtension>
            <ns3:hr>75</ns3:hr>
            <ns3:cad>0</ns3:cad>
          </ns3:TrackPointExtension>
        </extensions>
      </trkpt>
      <trkpt lat="43.47185391001403331756591796875" lon="1.43205754458904266357421875">
        <ele>254.8000030517578125</ele>
        <time>2026-08-05T09:57:32.000Z</time>
        <extensions>
          <ns3:TrackPointExtension>
            <ns3:hr>76</ns3:hr>
            <ns3:cad>0</ns3:cad>
          </ns3:TrackPointExtension>
        </extensions>
      </trkpt>
      <trkpt lat="43.47185391001403331756591796875" lon="1.43205754458904266357421875">
        <ele>254.8000030517578125</ele>
        <time>2026-08-05T09:57:33.000Z</time>
        <extensions>
          <ns3:TrackPointExtension>
            <ns3:hr>77</ns3:hr>
            <ns3:cad>0</ns3:cad>
          </ns3:TrackPointExtension>
        </extensions>
      </trkpt>
      <trkpt lat="43.47185391001403331756591796875" lon="1.43205754458904266357421875">
        <ele>254.8000030517578125</ele>
        <time>2026-08-05T09:57:34.000Z</time>
        <extensions>
          <ns3:TrackPointExtension>
            <ns3:hr>78</ns3:hr>
            <ns3:cad>0</ns3:cad>
          </ns3:TrackPointExtension>
        </extensions>
      </trkpt>
      <trkpt lat="43.47185391001403331756591796875" lon="1.43205754458904266357421875">
        <ele>255</ele>
        <time>2026-08-05T09:57:35.000Z</time>
        <extensions>
          <ns3:TrackPointExtension>
            <ns3:hr>79</ns3:hr>
            <ns3:cad>0</ns3:cad>
          </ns3:TrackPointExtension>
        </extensions>
      </trkpt>
      <trkpt lat="43.47185391001403331756591796875" lon="1.43205754458904266357421875">
        <ele>255</ele>
        <time>2026-08-05T09:57:36.000Z</time>
        <extensions>
          <ns3:TrackPointExtension>
            <ns3:hr>80</ns3:hr>
            <ns3:cad>0</ns3:cad>
          </ns3:TrackPointExtension>
        </extensions>
      </trkpt>
      <trkpt lat="43.47185391001403331756591796875" lon="1.43205754458904266357421875">
        <ele>255</ele>
        <time>2026-08-05T09:57:37.000Z</time>
        <extensions>
          <ns3:TrackPointExtension>
            <ns3:hr>80</ns3:hr>
            <ns3:cad>0</ns3:cad>
          </ns3:TrackPointExtension>
        </extensions>
      </trkpt>
      <trkpt lat="43.47185391001403331756591796875" lon="1.43205754458904266357421875">
        <ele>255</ele>
        <time>2026-08-05T09:57:38.000Z</time>
        <extensions>
          <ns3:TrackPointExtension>
            <ns3:hr>80</ns3:hr>
            <ns3:cad>0</ns3:cad>
          </ns3:TrackPointExtension>
        </extensions>
      </trkpt>
      <trkpt lat="43.47185391001403331756591796875" lon="1.43205754458904266357421875">
        <ele>255</ele>
        <time>2026-08-05T09:57:39.000Z</time>
        <extensions>
          <ns3:TrackPointExtension>
            <ns3:hr>81</ns3:hr>
            <ns3:cad>0</ns3:cad>
          </ns3:TrackPointExtension>
        </extensions>
      </trkpt>
      <trkpt lat="43.47185391001403331756591796875" lon="1.43205754458904266357421875">
        <ele>255</ele>
        <time>2026-08-05T09:57:40.000Z</time>
        <extensions>
          <ns3:TrackPointExtension>
            <ns3:hr>80</ns3:hr>
            <ns3:cad>0</ns3:cad>
          </ns3:TrackPointExtension>
        </extensions>
      </trkpt>
      <trkpt lat="43.47185391001403331756591796875" lon="1.43205754458904266357421875">
        <ele>254.8000030517578125</ele>
        <time>2026-08-05T09:57:41.000Z</time>
        <extensions>
          <ns3:TrackPointExtension>
            <ns3:hr>80</ns3:hr>
            <ns3:cad>0</ns3:cad>
          </ns3:TrackPointExtension>
        </extensions>
      </trkpt>
      <trkpt lat="43.47185391001403331756591796875" lon="1.43205754458904266357421875">
        <ele>254.8000030517578125</ele>
        <time>2026-08-05T09:57:42.000Z</time>
        <extensions>
          <ns3:TrackPointExtension>
            <ns3:hr>80</ns3:hr>
            <ns3:cad>0</ns3:cad>
          </ns3:TrackPointExtension>
        </extensions>
      </trkpt>
      <trkpt lat="43.47185391001403331756591796875" lon="1.43205754458904266357421875">
        <ele>254.8000030517578125</ele>
        <time>2026-08-05T09:57:43.000Z</time>
        <extensions>
          <ns3:TrackPointExtension>
            <ns3:hr>80</ns3:hr>
            <ns3:cad>0</ns3:cad>
          </ns3:TrackPointExtension>
        </extensions>
      </trkpt>
      <trkpt lat="43.47185391001403331756591796875" lon="1.43205754458904266357421875">
        <ele>255</ele>
        <time>2026-08-05T09:57:44.000Z</time>
        <extensions>
          <ns3:TrackPointExtension>
            <ns3:hr>79</ns3:hr>
            <ns3:cad>0</ns3:cad>
          </ns3:TrackPointExtension>
        </extensions>
      </trkpt>
      <trkpt lat="43.47185391001403331756591796875" lon="1.43205754458904266357421875">
        <ele>255</ele>
        <time>2026-08-05T09:57:45.000Z</time>
        <extensions>
          <ns3:TrackPointExtension>
            <ns3:hr>76</ns3:hr>
            <ns3:cad>0</ns3:cad>
          </ns3:TrackPointExtension>
        </extensions>
      </trkpt>
      <trkpt lat="43.47185391001403331756591796875" lon="1.43205754458904266357421875">
        <ele>255</ele>
        <time>2026-08-05T09:57:46.000Z</time>
        <extensions>
          <ns3:TrackPointExtension>
            <ns3:hr>72</ns3:hr>
            <ns3:cad>0</ns3:cad>
          </ns3:TrackPointExtension>
        </extensions>
      </trkpt>
      <trkpt lat="43.47185391001403331756591796875" lon="1.43205754458904266357421875">
        <ele>255</ele>
        <time>2026-08-05T09:57:47.000Z</time>
        <extensions>
          <ns3:TrackPointExtension>
            <ns3:hr>69</ns3:hr>
            <ns3:cad>0</ns3:cad>
          </ns3:TrackPointExtension>
        </extensions>
      </trkpt>
      <trkpt lat="43.47185391001403331756591796875" lon="1.43205754458904266357421875">
        <ele>255</ele>
        <time>2026-08-05T09:57:48.000Z</time>
        <extensions>
          <ns3:TrackPointExtension>
            <ns3:hr>68</ns3:hr>
            <ns3:cad>0</ns3:cad>
          </ns3:TrackPointExtension>
        </extensions>
      </trkpt>
      <trkpt lat="43.47185391001403331756591796875" lon="1.43205754458904266357421875">
        <ele>255</ele>
        <time>2026-08-05T09:57:49.000Z</time>
        <extensions>
          <ns3:TrackPointExtension>
            <ns3:hr>68</ns3:hr>
            <ns3:cad>0</ns3:cad>
          </ns3:TrackPointExtension>
        </extensions>
      </trkpt>
      <trkpt lat="43.47185391001403331756591796875" lon="1.43205754458904266357421875">
        <ele>255</ele>
        <time>2026-08-05T09:57:50.000Z</time>
        <extensions>
          <ns3:TrackPointExtension>
            <ns3:hr>68</ns3:hr>
            <ns3:cad>0</ns3:cad>
          </ns3:TrackPointExtension>
        </extensions>
      </trkpt>
      <trkpt lat="43.47185391001403331756591796875" lon="1.43205754458904266357421875">
        <ele>255</ele>
        <time>2026-08-05T09:57:51.000Z</time>
        <extensions>
          <ns3:TrackPointExtension>
            <ns3:hr>67</ns3:hr>
            <ns3:cad>0</ns3:cad>
          </ns3:TrackPointExtension>
        </extensions>
      </trkpt>
      <trkpt lat="43.47185391001403331756591796875" lon="1.43205754458904266357421875">
        <ele>255</ele>
        <time>2026-08-05T09:57:52.000Z</time>
        <extensions>
          <ns3:TrackPointExtension>
            <ns3:hr>67</ns3:hr>
            <ns3:cad>0</ns3:cad>
          </ns3:TrackPointExtension>
        </extensions>
      </trkpt>
      <trkpt lat="43.47185391001403331756591796875" lon="1.43205754458904266357421875">
        <ele>255</ele>
        <time>2026-08-05T09:57:53.000Z</time>
        <extensions>
          <ns3:TrackPointExtension>
            <ns3:hr>66</ns3:hr>
            <ns3:cad>0</ns3:cad>
          </ns3:TrackPointExtension>
        </extensions>
      </trkpt>
      <trkpt lat="43.47185391001403331756591796875" lon="1.43205754458904266357421875">
        <ele>255</ele>
        <time>2026-08-05T09:57:54.000Z</time>
        <extensions>
          <ns3:TrackPointExtension>
            <ns3:hr>66</ns3:hr>
            <ns3:cad>0</ns3:cad>
          </ns3:TrackPointExtension>
        </extensions>
      </trkpt>
      <trkpt lat="43.47185391001403331756591796875" lon="1.43205754458904266357421875">
        <ele>255</ele>
        <time>2026-08-05T09:57:55.000Z</time>
        <extensions>
          <ns3:TrackPointExtension>
            <ns3:hr>66</ns3:hr>
            <ns3:cad>0</ns3:cad>
          </ns3:TrackPointExtension>
        </extensions>
      </trkpt>
      <trkpt lat="43.47185391001403331756591796875" lon="1.43205754458904266357421875">
        <ele>255</ele>
        <time>2026-08-05T09:57:56.000Z</time>
        <extensions>
          <ns3:TrackPointExtension>
            <ns3:hr>66</ns3:hr>
            <ns3:cad>0</ns3:cad>
          </ns3:TrackPointExtension>
        </extensions>
      </trkpt>
      <trkpt lat="43.47185391001403331756591796875" lon="1.43205754458904266357421875">
        <ele>255</ele>
        <time>2026-08-05T09:57:57.000Z</time>
        <extensions>
          <ns3:TrackPointExtension>
            <ns3:hr>67</ns3:hr>
            <ns3:cad>0</ns3:cad>
          </ns3:TrackPointExtension>
        </extensions>
      </trkpt>
      <trkpt lat="43.47185391001403331756591796875" lon="1.43205754458904266357421875">
        <ele>255</ele>
        <time>2026-08-05T09:57:58.000Z</time>
        <extensions>
          <ns3:TrackPointExtension>
            <ns3:hr>67</ns3:hr>
            <ns3:cad>0</ns3:cad>
          </ns3:TrackPointExtension>
        </extensions>
      </trkpt>
      <trkpt lat="43.47184988670051097869873046875" lon="1.43206483684480190277099609375">
        <ele>255</ele>
        <time>2026-08-05T09:57:59.000Z</time>
        <extensions>
          <ns3:TrackPointExtension>
            <ns3:hr>68</ns3:hr>
            <ns3:cad>0</ns3:cad>
          </ns3:TrackPointExtension>
        </extensions>
      </trkpt>
      <trkpt lat="43.47185005433857440948486328125" lon="1.43205578438937664031982421875">
        <ele>255.1999969482421875</ele>
        <time>2026-08-05T09:58:00.000Z</time>
        <extensions>
          <ns3:TrackPointExtension>
            <ns3:hr>68</ns3:hr>
            <ns3:cad>0</ns3:cad>
          </ns3:TrackPointExtension>
        </extensions>
      </trkpt>
      <trkpt lat="43.47185391001403331756591796875" lon="1.43205754458904266357421875">
        <ele>255.1999969482421875</ele>
        <time>2026-08-05T09:58:01.000Z</time>
        <extensions>
          <ns3:TrackPointExtension>
            <ns3:hr>68</ns3:hr>
            <ns3:cad>0</ns3:cad>
          </ns3:TrackPointExtension>
        </extensions>
      </trkpt>
      <trkpt lat="43.47185391001403331756591796875" lon="1.43205754458904266357421875">
        <ele>255.1999969482421875</ele>
        <time>2026-08-05T09:58:02.000Z</time>
        <extensions>
          <ns3:TrackPointExtension>
            <ns3:hr>67</ns3:hr>
            <ns3:cad>0</ns3:cad>
          </ns3:TrackPointExtension>
        </extensions>
      </trkpt>
      <trkpt lat="43.47185391001403331756591796875" lon="1.43205754458904266357421875">
        <ele>255.1999969482421875</ele>
        <time>2026-08-05T09:58:03.000Z</time>
        <extensions>
          <ns3:TrackPointExtension>
            <ns3:hr>67</ns3:hr>
            <ns3:cad>0</ns3:cad>
          </ns3:TrackPointExtension>
        </extensions>
      </trkpt>
      <trkpt lat="43.47185391001403331756591796875" lon="1.43205754458904266357421875">
        <ele>255.1999969482421875</ele>
        <time>2026-08-05T09:58:04.000Z</time>
        <extensions>
          <ns3:TrackPointExtension>
            <ns3:hr>67</ns3:hr>
            <ns3:cad>0</ns3:cad>
          </ns3:TrackPointExtension>
        </extensions>
      </trkpt>
      <trkpt lat="43.47185391001403331756591796875" lon="1.43205754458904266357421875">
        <ele>255.1999969482421875</ele>
        <time>2026-08-05T09:58:05.000Z</time>
        <extensions>
          <ns3:TrackPointExtension>
            <ns3:hr>68</ns3:hr>
            <ns3:cad>0</ns3:cad>
          </ns3:TrackPointExtension>
        </extensions>
      </trkpt>
      <trkpt lat="43.47185391001403331756591796875" lon="1.43205754458904266357421875">
        <ele>255.1999969482421875</ele>
        <time>2026-08-05T09:58:06.000Z</time>
        <extensions>
          <ns3:TrackPointExtension>
            <ns3:hr>68</ns3:hr>
            <ns3:cad>0</ns3:cad>
          </ns3:TrackPointExtension>
        </extensions>
      </trkpt>
      <trkpt lat="43.47185391001403331756591796875" lon="1.43205754458904266357421875">
        <ele>255.1999969482421875</ele>
        <time>2026-08-05T09:58:07.000Z</time>
        <extensions>
          <ns3:TrackPointExtension>
            <ns3:hr>69</ns3:hr>
            <ns3:cad>0</ns3:cad>
          </ns3:TrackPointExtension>
        </extensions>
      </trkpt>
      <trkpt lat="43.47185391001403331756591796875" lon="1.43205754458904266357421875">
        <ele>255.1999969482421875</ele>
        <time>2026-08-05T09:58:08.000Z</time>
        <extensions>
          <ns3:TrackPointExtension>
            <ns3:hr>69</ns3:hr>
            <ns3:cad>0</ns3:cad>
          </ns3:TrackPointExtension>
        </extensions>
      </trkpt>
      <trkpt lat="43.47185391001403331756591796875" lon="1.43205754458904266357421875">
        <ele>255.1999969482421875</ele>
        <time>2026-08-05T09:58:09.000Z</time>
        <extensions>
          <ns3:TrackPointExtension>
            <ns3:hr>69</ns3:hr>
            <ns3:cad>0</ns3:cad>
          </ns3:TrackPointExtension>
        </extensions>
      </trkpt>
      <trkpt lat="43.47185391001403331756591796875" lon="1.43205754458904266357421875">
        <ele>255.1999969482421875</ele>
        <time>2026-08-05T09:58:10.000Z</time>
        <extensions>
          <ns3:TrackPointExtension>
            <ns3:hr>68</ns3:hr>
            <ns3:cad>0</ns3:cad>
          </ns3:TrackPointExtension>
        </extensions>
      </trkpt>
      <trkpt lat="43.47185391001403331756591796875" lon="1.43205754458904266357421875">
        <ele>255.1999969482421875</ele>
        <time>2026-08-05T09:58:11.000Z</time>
        <extensions>
          <ns3:TrackPointExtension>
            <ns3:hr>68</ns3:hr>
            <ns3:cad>0</ns3:cad>
          </ns3:TrackPointExtension>
        </extensions>
      </trkpt>
      <trkpt lat="43.47185391001403331756591796875" lon="1.43205754458904266357421875">
        <ele>255.399993896484375</ele>
        <time>2026-08-05T09:58:12.000Z</time>
        <extensions>
          <ns3:TrackPointExtension>
            <ns3:hr>68</ns3:hr>
            <ns3:cad>0</ns3:cad>
          </ns3:TrackPointExtension>
        </extensions>
      </trkpt>
      <trkpt lat="43.47185391001403331756591796875" lon="1.43205754458904266357421875">
        <ele>255.399993896484375</ele>
        <time>2026-08-05T09:58:13.000Z</time>
        <extensions>
          <ns3:TrackPointExtension>
            <ns3:hr>67</ns3:hr>
            <ns3:cad>0</ns3:cad>
          </ns3:TrackPointExtension>
        </extensions>
      </trkpt>
      <trkpt lat="43.47185391001403331756591796875" lon="1.43205754458904266357421875">
        <ele>255.399993896484375</ele>
        <time>2026-08-05T09:58:14.000Z</time>
        <extensions>
          <ns3:TrackPointExtension>
            <ns3:hr>67</ns3:hr>
            <ns3:cad>0</ns3:cad>
          </ns3:TrackPointExtension>
        </extensions>
      </trkpt>
      <trkpt lat="43.47185072489082813262939453125" lon="1.43205561675131320953369140625">
        <ele>255.1999969482421875</ele>
        <time>2026-08-05T09:58:15.000Z</time>
        <extensions>
          <ns3:TrackPointExtension>
            <ns3:hr>68</ns3:hr>
            <ns3:cad>0</ns3:cad>
          </ns3:TrackPointExtension>
        </extensions>
      </trkpt>
      <trkpt lat="43.47185391001403331756591796875" lon="1.43205754458904266357421875">
        <ele>255.1999969482421875</ele>
        <time>2026-08-05T09:58:16.000Z</time>
        <extensions>
          <ns3:TrackPointExtension>
            <ns3:hr>68</ns3:hr>
            <ns3:cad>0</ns3:cad>
          </ns3:TrackPointExtension>
        </extensions>
      </trkpt>
      <trkpt lat="43.47185391001403331756591796875" lon="1.43205754458904266357421875">
        <ele>255.1999969482421875</ele>
        <time>2026-08-05T09:58:17.000Z</time>
        <extensions>
          <ns3:TrackPointExtension>
            <ns3:hr>68</ns3:hr>
            <ns3:cad>0</ns3:cad>
          </ns3:TrackPointExtension>
        </extensions>
      </trkpt>
      <trkpt lat="43.47185391001403331756591796875" lon="1.43205754458904266357421875">
        <ele>255</ele>
        <time>2026-08-05T09:58:18.000Z</time>
        <extensions>
          <ns3:TrackPointExtension>
            <ns3:hr>68</ns3:hr>
            <ns3:cad>0</ns3:cad>
          </ns3:TrackPointExtension>
        </extensions>
      </trkpt>
      <trkpt lat="43.47185391001403331756591796875" lon="1.43205754458904266357421875">
        <ele>255.1999969482421875</ele>
        <time>2026-08-05T09:58:19.000Z</time>
        <extensions>
          <ns3:TrackPointExtension>
            <ns3:hr>68</ns3:hr>
            <ns3:cad>0</ns3:cad>
          </ns3:TrackPointExtension>
        </extensions>
      </trkpt>
      <trkpt lat="43.47185391001403331756591796875" lon="1.43205754458904266357421875">
        <ele>255.1999969482421875</ele>
        <time>2026-08-05T09:58:20.000Z</time>
        <extensions>
          <ns3:TrackPointExtension>
            <ns3:hr>67</ns3:hr>
            <ns3:cad>0</ns3:cad>
          </ns3:TrackPointExtension>
        </extensions>
      </trkpt>
      <trkpt lat="43.47185391001403331756591796875" lon="1.43205754458904266357421875">
        <ele>255.1999969482421875</ele>
        <time>2026-08-05T09:58:21.000Z</time>
        <extensions>
          <ns3:TrackPointExtension>
            <ns3:hr>67</ns3:hr>
            <ns3:cad>0</ns3:cad>
          </ns3:TrackPointExtension>
        </extensions>
      </trkpt>
      <trkpt lat="43.47185391001403331756591796875" lon="1.43205754458904266357421875">
        <ele>255.1999969482421875</ele>
        <time>2026-08-05T09:58:22.000Z</time>
        <extensions>
          <ns3:TrackPointExtension>
            <ns3:hr>67</ns3:hr>
            <ns3:cad>0</ns3:cad>
          </ns3:TrackPointExtension>
        </extensions>
      </trkpt>
      <trkpt lat="43.47185391001403331756591796875" lon="1.43205754458904266357421875">
        <ele>255.1999969482421875</ele>
        <time>2026-08-05T09:58:23.000Z</time>
        <extensions>
          <ns3:TrackPointExtension>
            <ns3:hr>68</ns3:hr>
            <ns3:cad>0</ns3:cad>
          </ns3:TrackPointExtension>
        </extensions>
      </trkpt>
      <trkpt lat="43.47185391001403331756591796875" lon="1.43205754458904266357421875">
        <ele>255.1999969482421875</ele>
        <time>2026-08-05T09:58:24.000Z</time>
        <extensions>
          <ns3:TrackPointExtension>
            <ns3:hr>68</ns3:hr>
            <ns3:cad>0</ns3:cad>
          </ns3:TrackPointExtension>
        </extensions>
      </trkpt>
      <trkpt lat="43.47185391001403331756591796875" lon="1.43205754458904266357421875">
        <ele>255.1999969482421875</ele>
        <time>2026-08-05T09:58:25.000Z</time>
        <extensions>
          <ns3:TrackPointExtension>
            <ns3:hr>68</ns3:hr>
            <ns3:cad>0</ns3:cad>
          </ns3:TrackPointExtension>
        </extensions>
      </trkpt>
      <trkpt lat="43.47185391001403331756591796875" lon="1.43205754458904266357421875">
        <ele>255.1999969482421875</ele>
        <time>2026-08-05T09:58:26.000Z</time>
        <extensions>
          <ns3:TrackPointExtension>
            <ns3:hr>68</ns3:hr>
            <ns3:cad>0</ns3:cad>
          </ns3:TrackPointExtension>
        </extensions>
      </trkpt>
      <trkpt lat="43.47185391001403331756591796875" lon="1.43205754458904266357421875">
        <ele>255.1999969482421875</ele>
        <time>2026-08-05T09:58:27.000Z</time>
        <extensions>
          <ns3:TrackPointExtension>
            <ns3:hr>68</ns3:hr>
            <ns3:cad>0</ns3:cad>
          </ns3:TrackPointExtension>
        </extensions>
      </trkpt>
      <trkpt lat="43.47185391001403331756591796875" lon="1.43205754458904266357421875">
        <ele>255.1999969482421875</ele>
        <time>2026-08-05T09:58:28.000Z</time>
        <extensions>
          <ns3:TrackPointExtension>
            <ns3:hr>68</ns3:hr>
            <ns3:cad>0</ns3:cad>
          </ns3:TrackPointExtension>
        </extensions>
      </trkpt>
      <trkpt lat="43.47185391001403331756591796875" lon="1.43205754458904266357421875">
        <ele>255</ele>
        <time>2026-08-05T09:58:29.000Z</time>
        <extensions>
          <ns3:TrackPointExtension>
            <ns3:hr>69</ns3:hr>
            <ns3:cad>0</ns3:cad>
          </ns3:TrackPointExtension>
        </extensions>
      </trkpt>
      <trkpt lat="43.47185391001403331756591796875" lon="1.43205754458904266357421875">
        <ele>255</ele>
        <time>2026-08-05T09:58:30.000Z</time>
        <extensions>
          <ns3:TrackPointExtension>
            <ns3:hr>70</ns3:hr>
            <ns3:cad>0</ns3:cad>
          </ns3:TrackPointExtension>
        </extensions>
      </trkpt>
      <trkpt lat="43.47185391001403331756591796875" lon="1.43205754458904266357421875">
        <ele>255</ele>
        <time>2026-08-05T09:58:31.000Z</time>
        <extensions>
          <ns3:TrackPointExtension>
            <ns3:hr>70</ns3:hr>
            <ns3:cad>0</ns3:cad>
          </ns3:TrackPointExtension>
        </extensions>
      </trkpt>
      <trkpt lat="43.47185391001403331756591796875" lon="1.43205754458904266357421875">
        <ele>255</ele>
        <time>2026-08-05T09:58:32.000Z</time>
        <extensions>
          <ns3:TrackPointExtension>
            <ns3:hr>69</ns3:hr>
            <ns3:cad>0</ns3:cad>
          </ns3:TrackPointExtension>
        </extensions>
      </trkpt>
      <trkpt lat="43.47185391001403331756591796875" lon="1.43205754458904266357421875">
        <ele>255</ele>
        <time>2026-08-05T09:58:33.000Z</time>
        <extensions>
          <ns3:TrackPointExtension>
            <ns3:hr>69</ns3:hr>
            <ns3:cad>0</ns3:cad>
          </ns3:TrackPointExtension>
        </extensions>
      </trkpt>
      <trkpt lat="43.47185391001403331756591796875" lon="1.43205754458904266357421875">
        <ele>255</ele>
        <time>2026-08-05T09:58:34.000Z</time>
        <extensions>
          <ns3:TrackPointExtension>
            <ns3:hr>69</ns3:hr>
            <ns3:cad>0</ns3:cad>
          </ns3:TrackPointExtension>
        </extensions>
      </trkpt>
      <trkpt lat="43.47185391001403331756591796875" lon="1.43205754458904266357421875">
        <ele>255</ele>
        <time>2026-08-05T09:58:35.000Z</time>
        <extensions>
          <ns3:TrackPointExtension>
            <ns3:hr>68</ns3:hr>
            <ns3:cad>0</ns3:cad>
          </ns3:TrackPointExtension>
        </extensions>
      </trkpt>
      <trkpt lat="43.47185391001403331756591796875" lon="1.43205754458904266357421875">
        <ele>255</ele>
        <time>2026-08-05T09:58:36.000Z</time>
        <extensions>
          <ns3:TrackPointExtension>
            <ns3:hr>68</ns3:hr>
            <ns3:cad>0</ns3:cad>
          </ns3:TrackPointExtension>
        </extensions>
      </trkpt>
      <trkpt lat="43.47185391001403331756591796875" lon="1.43205754458904266357421875">
        <ele>255</ele>
        <time>2026-08-05T09:58:37.000Z</time>
        <extensions>
          <ns3:TrackPointExtension>
            <ns3:hr>68</ns3:hr>
            <ns3:cad>0</ns3:cad>
          </ns3:TrackPointExtension>
        </extensions>
      </trkpt>
      <trkpt lat="43.47185391001403331756591796875" lon="1.43205754458904266357421875">
        <ele>255</ele>
        <time>2026-08-05T09:58:38.000Z</time>
        <extensions>
          <ns3:TrackPointExtension>
            <ns3:hr>68</ns3:hr>
            <ns3:cad>0</ns3:cad>
          </ns3:TrackPointExtension>
        </extensions>
      </trkpt>
      <trkpt lat="43.47185391001403331756591796875" lon="1.43205754458904266357421875">
        <ele>255</ele>
        <time>2026-08-05T09:58:39.000Z</time>
        <extensions>
          <ns3:TrackPointExtension>
            <ns3:hr>68</ns3:hr>
            <ns3:cad>0</ns3:cad>
          </ns3:TrackPointExtension>
        </extensions>
      </trkpt>
      <trkpt lat="43.47185391001403331756591796875" lon="1.43205754458904266357421875">
        <ele>255</ele>
        <time>2026-08-05T09:58:40.000Z</time>
        <extensions>
          <ns3:TrackPointExtension>
            <ns3:hr>68</ns3:hr>
            <ns3:cad>0</ns3:cad>
          </ns3:TrackPointExtension>
        </extensions>
      </trkpt>
      <trkpt lat="43.47185391001403331756591796875" lon="1.43205754458904266357421875">
        <ele>255</ele>
        <time>2026-08-05T09:58:41.000Z</time>
        <extensions>
          <ns3:TrackPointExtension>
            <ns3:hr>69</ns3:hr>
            <ns3:cad>0</ns3:cad>
          </ns3:TrackPointExtension>
        </extensions>
      </trkpt>
      <trkpt lat="43.47185391001403331756591796875" lon="1.43205754458904266357421875">
        <ele>254.8000030517578125</ele>
        <time>2026-08-05T09:58:42.000Z</time>
        <extensions>
          <ns3:TrackPointExtension>
            <ns3:hr>70</ns3:hr>
            <ns3:cad>0</ns3:cad>
          </ns3:TrackPointExtension>
        </extensions>
      </trkpt>
      <trkpt lat="43.47184603102505207061767578125" lon="1.43205083906650543212890625">
        <ele>254.600006103515625</ele>
        <time>2026-08-05T09:58:43.000Z</time>
        <extensions>
          <ns3:TrackPointExtension>
            <ns3:hr>70</ns3:hr>
            <ns3:cad>0</ns3:cad>
          </ns3:TrackPointExtension>
        </extensions>
      </trkpt>
      <trkpt lat="43.47185391001403331756591796875" lon="1.43205754458904266357421875">
        <ele>254.399993896484375</ele>
        <time>2026-08-05T09:58:44.000Z</time>
        <extensions>
          <ns3:TrackPointExtension>
            <ns3:hr>70</ns3:hr>
            <ns3:cad>0</ns3:cad>
          </ns3:TrackPointExtension>
        </extensions>
      </trkpt>
      <trkpt lat="43.47185391001403331756591796875" lon="1.43205754458904266357421875">
        <ele>254.1999969482421875</ele>
        <time>2026-08-05T09:58:45.000Z</time>
        <extensions>
          <ns3:TrackPointExtension>
            <ns3:hr>69</ns3:hr>
            <ns3:cad>0</ns3:cad>
          </ns3:TrackPointExtension>
        </extensions>
      </trkpt>
      <trkpt lat="43.47185391001403331756591796875" lon="1.43205754458904266357421875">
        <ele>254</ele>
        <time>2026-08-05T09:58:46.000Z</time>
        <extensions>
          <ns3:TrackPointExtension>
            <ns3:hr>69</ns3:hr>
            <ns3:cad>0</ns3:cad>
          </ns3:TrackPointExtension>
        </extensions>
      </trkpt>
      <trkpt lat="43.4718441031873226165771484375" lon="1.4320496656000614166259765625">
        <ele>254</ele>
        <time>2026-08-05T09:58:47.000Z</time>
        <extensions>
          <ns3:TrackPointExtension>
            <ns3:hr>69</ns3:hr>
            <ns3:cad>0</ns3:cad>
          </ns3:TrackPointExtension>
        </extensions>
      </trkpt>
      <trkpt lat="43.47185391001403331756591796875" lon="1.43205754458904266357421875">
        <ele>254.1999969482421875</ele>
        <time>2026-08-05T09:58:48.000Z</time>
        <extensions>
          <ns3:TrackPointExtension>
            <ns3:hr>70</ns3:hr>
            <ns3:cad>0</ns3:cad>
          </ns3:TrackPointExtension>
        </extensions>
      </trkpt>
      <trkpt lat="43.47185391001403331756591796875" lon="1.43205754458904266357421875">
        <ele>254.1999969482421875</ele>
        <time>2026-08-05T09:58:49.000Z</time>
        <extensions>
          <ns3:TrackPointExtension>
            <ns3:hr>69</ns3:hr>
            <ns3:cad>0</ns3:cad>
          </ns3:TrackPointExtension>
        </extensions>
      </trkpt>
      <trkpt lat="43.47185391001403331756591796875" lon="1.43205754458904266357421875">
        <ele>254.1999969482421875</ele>
        <time>2026-08-05T09:58:50.000Z</time>
        <extensions>
          <ns3:TrackPointExtension>
            <ns3:hr>70</ns3:hr>
            <ns3:cad>0</ns3:cad>
          </ns3:TrackPointExtension>
        </extensions>
      </trkpt>
      <trkpt lat="43.47185391001403331756591796875" lon="1.43205754458904266357421875">
        <ele>254.399993896484375</ele>
        <time>2026-08-05T09:58:51.000Z</time>
        <extensions>
          <ns3:TrackPointExtension>
            <ns3:hr>70</ns3:hr>
            <ns3:cad>0</ns3:cad>
          </ns3:TrackPointExtension>
        </extensions>
      </trkpt>
      <trkpt lat="43.47185391001403331756591796875" lon="1.43205754458904266357421875">
        <ele>254.399993896484375</ele>
        <time>2026-08-05T09:58:52.000Z</time>
        <extensions>
          <ns3:TrackPointExtension>
            <ns3:hr>70</ns3:hr>
            <ns3:cad>0</ns3:cad>
          </ns3:TrackPointExtension>
        </extensions>
      </trkpt>
      <trkpt lat="43.47185391001403331756591796875" lon="1.43205754458904266357421875">
        <ele>254.1999969482421875</ele>
        <time>2026-08-05T09:58:53.000Z</time>
        <extensions>
          <ns3:TrackPointExtension>
            <ns3:hr>69</ns3:hr>
            <ns3:cad>0</ns3:cad>
          </ns3:TrackPointExtension>
        </extensions>
      </trkpt>
      <trkpt lat="43.47185391001403331756591796875" lon="1.43205754458904266357421875">
        <ele>254.1999969482421875</ele>
        <time>2026-08-05T09:58:54.000Z</time>
        <extensions>
          <ns3:TrackPointExtension>
            <ns3:hr>70</ns3:hr>
            <ns3:cad>0</ns3:cad>
          </ns3:TrackPointExtension>
        </extensions>
      </trkpt>
      <trkpt lat="43.47185391001403331756591796875" lon="1.43205754458904266357421875">
        <ele>254.1999969482421875</ele>
        <time>2026-08-05T09:58:55.000Z</time>
        <extensions>
          <ns3:TrackPointExtension>
            <ns3:hr>70</ns3:hr>
            <ns3:cad>0</ns3:cad>
          </ns3:TrackPointExtension>
        </extensions>
      </trkpt>
      <trkpt lat="43.47185391001403331756591796875" lon="1.43205754458904266357421875">
        <ele>254.1999969482421875</ele>
        <time>2026-08-05T09:58:56.000Z</time>
        <extensions>
          <ns3:TrackPointExtension>
            <ns3:hr>70</ns3:hr>
            <ns3:cad>0</ns3:cad>
          </ns3:TrackPointExtension>
        </extensions>
      </trkpt>
      <trkpt lat="43.47185391001403331756591796875" lon="1.43205754458904266357421875">
        <ele>254.399993896484375</ele>
        <time>2026-08-05T09:58:57.000Z</time>
        <extensions>
          <ns3:TrackPointExtension>
            <ns3:hr>69</ns3:hr>
            <ns3:cad>0</ns3:cad>
          </ns3:TrackPointExtension>
        </extensions>
      </trkpt>
      <trkpt lat="43.47185391001403331756591796875" lon="1.43205754458904266357421875">
        <ele>254.399993896484375</ele>
        <time>2026-08-05T09:58:58.000Z</time>
        <extensions>
          <ns3:TrackPointExtension>
            <ns3:hr>69</ns3:hr>
            <ns3:cad>0</ns3:cad>
          </ns3:TrackPointExtension>
        </extensions>
      </trkpt>
      <trkpt lat="43.47185391001403331756591796875" lon="1.43205754458904266357421875">
        <ele>254.399993896484375</ele>
        <time>2026-08-05T09:58:59.000Z</time>
        <extensions>
          <ns3:TrackPointExtension>
            <ns3:hr>68</ns3:hr>
            <ns3:cad>0</ns3:cad>
          </ns3:TrackPointExtension>
        </extensions>
      </trkpt>
      <trkpt lat="43.47185391001403331756591796875" lon="1.43205754458904266357421875">
        <ele>254.399993896484375</ele>
        <time>2026-08-05T09:59:00.000Z</time>
        <extensions>
          <ns3:TrackPointExtension>
            <ns3:hr>68</ns3:hr>
            <ns3:cad>0</ns3:cad>
          </ns3:TrackPointExtension>
        </extensions>
      </trkpt>
      <trkpt lat="43.47185391001403331756591796875" lon="1.43205754458904266357421875">
        <ele>254.399993896484375</ele>
        <time>2026-08-05T09:59:01.000Z</time>
        <extensions>
          <ns3:TrackPointExtension>
            <ns3:hr>68</ns3:hr>
            <ns3:cad>0</ns3:cad>
          </ns3:TrackPointExtension>
        </extensions>
      </trkpt>
      <trkpt lat="43.47185391001403331756591796875" lon="1.43205754458904266357421875">
        <ele>254.399993896484375</ele>
        <time>2026-08-05T09:59:02.000Z</time>
        <extensions>
          <ns3:TrackPointExtension>
            <ns3:hr>69</ns3:hr>
            <ns3:cad>0</ns3:cad>
          </ns3:TrackPointExtension>
        </extensions>
      </trkpt>
      <trkpt lat="43.47185391001403331756591796875" lon="1.43205754458904266357421875">
        <ele>254.399993896484375</ele>
        <time>2026-08-05T09:59:03.000Z</time>
        <extensions>
          <ns3:TrackPointExtension>
            <ns3:hr>69</ns3:hr>
            <ns3:cad>0</ns3:cad>
          </ns3:TrackPointExtension>
        </extensions>
      </trkpt>
      <trkpt lat="43.47185391001403331756591796875" lon="1.43205754458904266357421875">
        <ele>254.399993896484375</ele>
        <time>2026-08-05T09:59:04.000Z</time>
        <extensions>
          <ns3:TrackPointExtension>
            <ns3:hr>69</ns3:hr>
            <ns3:cad>0</ns3:cad>
          </ns3:TrackPointExtension>
        </extensions>
      </trkpt>
      <trkpt lat="43.4718417562544345855712890625" lon="1.432050503790378570556640625">
        <ele>254.399993896484375</ele>
        <time>2026-08-05T09:59:05.000Z</time>
        <extensions>
          <ns3:TrackPointExtension>
            <ns3:hr>69</ns3:hr>
            <ns3:cad>0</ns3:cad>
          </ns3:TrackPointExtension>
        </extensions>
      </trkpt>
      <trkpt lat="43.47185391001403331756591796875" lon="1.43205754458904266357421875">
        <ele>254.399993896484375</ele>
        <time>2026-08-05T09:59:06.000Z</time>
        <extensions>
          <ns3:TrackPointExtension>
            <ns3:hr>68</ns3:hr>
            <ns3:cad>0</ns3:cad>
          </ns3:TrackPointExtension>
        </extensions>
      </trkpt>
      <trkpt lat="43.47184301353991031646728515625" lon="1.432052515447139739990234375">
        <ele>254.399993896484375</ele>
        <time>2026-08-05T09:59:07.000Z</time>
        <extensions>
          <ns3:TrackPointExtension>
            <ns3:hr>69</ns3:hr>
            <ns3:cad>0</ns3:cad>
          </ns3:TrackPointExtension>
        </extensions>
      </trkpt>
      <trkpt lat="43.47185391001403331756591796875" lon="1.43205754458904266357421875">
        <ele>254.1999969482421875</ele>
        <time>2026-08-05T09:59:08.000Z</time>
        <extensions>
          <ns3:TrackPointExtension>
            <ns3:hr>69</ns3:hr>
            <ns3:cad>0</ns3:cad>
          </ns3:TrackPointExtension>
        </extensions>
      </trkpt>
      <trkpt lat="43.47185391001403331756591796875" lon="1.43205754458904266357421875">
        <ele>254.1999969482421875</ele>
        <time>2026-08-05T09:59:09.000Z</time>
        <extensions>
          <ns3:TrackPointExtension>
            <ns3:hr>69</ns3:hr>
            <ns3:cad>0</ns3:cad>
          </ns3:TrackPointExtension>
        </extensions>
      </trkpt>
      <trkpt lat="43.47185391001403331756591796875" lon="1.43205754458904266357421875">
        <ele>254.1999969482421875</ele>
        <time>2026-08-05T09:59:10.000Z</time>
        <extensions>
          <ns3:TrackPointExtension>
            <ns3:hr>68</ns3:hr>
            <ns3:cad>0</ns3:cad>
          </ns3:TrackPointExtension>
        </extensions>
      </trkpt>
      <trkpt lat="43.47185391001403331756591796875" lon="1.43205754458904266357421875">
        <ele>254.1999969482421875</ele>
        <time>2026-08-05T09:59:11.000Z</time>
        <extensions>
          <ns3:TrackPointExtension>
            <ns3:hr>69</ns3:hr>
            <ns3:cad>0</ns3:cad>
          </ns3:TrackPointExtension>
        </extensions>
      </trkpt>
      <trkpt lat="43.47185391001403331756591796875" lon="1.43205754458904266357421875">
        <ele>254.1999969482421875</ele>
        <time>2026-08-05T09:59:12.000Z</time>
        <extensions>
          <ns3:TrackPointExtension>
            <ns3:hr>69</ns3:hr>
            <ns3:cad>0</ns3:cad>
          </ns3:TrackPointExtension>
        </extensions>
      </trkpt>
      <trkpt lat="43.47185391001403331756591796875" lon="1.43205754458904266357421875">
        <ele>254.1999969482421875</ele>
        <time>2026-08-05T09:59:13.000Z</time>
        <extensions>
          <ns3:TrackPointExtension>
            <ns3:hr>68</ns3:hr>
            <ns3:cad>0</ns3:cad>
          </ns3:TrackPointExtension>
        </extensions>
      </trkpt>
      <trkpt lat="43.47185391001403331756591796875" lon="1.43205754458904266357421875">
        <ele>254.1999969482421875</ele>
        <time>2026-08-05T09:59:14.000Z</time>
        <extensions>
          <ns3:TrackPointExtension>
            <ns3:hr>68</ns3:hr>
            <ns3:cad>0</ns3:cad>
          </ns3:TrackPointExtension>
        </extensions>
      </trkpt>
      <trkpt lat="43.47185391001403331756591796875" lon="1.43205754458904266357421875">
        <ele>254.1999969482421875</ele>
        <time>2026-08-05T09:59:15.000Z</time>
        <extensions>
          <ns3:TrackPointExtension>
            <ns3:hr>68</ns3:hr>
            <ns3:cad>0</ns3:cad>
          </ns3:TrackPointExtension>
        </extensions>
      </trkpt>
      <trkpt lat="43.47185391001403331756591796875" lon="1.43205754458904266357421875">
        <ele>254.1999969482421875</ele>
        <time>2026-08-05T09:59:16.000Z</time>
        <extensions>
          <ns3:TrackPointExtension>
            <ns3:hr>69</ns3:hr>
            <ns3:cad>0</ns3:cad>
          </ns3:TrackPointExtension>
        </extensions>
      </trkpt>
      <trkpt lat="43.47185391001403331756591796875" lon="1.43205754458904266357421875">
        <ele>254.1999969482421875</ele>
        <time>2026-08-05T09:59:17.000Z</time>
        <extensions>
          <ns3:TrackPointExtension>
            <ns3:hr>68</ns3:hr>
            <ns3:cad>0</ns3:cad>
          </ns3:TrackPointExtension>
        </extensions>
      </trkpt>
      <trkpt lat="43.47185391001403331756591796875" lon="1.43205754458904266357421875">
        <ele>254.1999969482421875</ele>
        <time>2026-08-05T09:59:18.000Z</time>
        <extensions>
          <ns3:TrackPointExtension>
            <ns3:hr>69</ns3:hr>
            <ns3:cad>0</ns3:cad>
          </ns3:TrackPointExtension>
        </extensions>
      </trkpt>
      <trkpt lat="43.47185391001403331756591796875" lon="1.43205754458904266357421875">
        <ele>254.1999969482421875</ele>
        <time>2026-08-05T09:59:19.000Z</time>
        <extensions>
          <ns3:TrackPointExtension>
            <ns3:hr>69</ns3:hr>
            <ns3:cad>0</ns3:cad>
          </ns3:TrackPointExtension>
        </extensions>
      </trkpt>
      <trkpt lat="43.47185391001403331756591796875" lon="1.43205754458904266357421875">
        <ele>254.1999969482421875</ele>
        <time>2026-08-05T09:59:20.000Z</time>
        <extensions>
          <ns3:TrackPointExtension>
            <ns3:hr>69</ns3:hr>
            <ns3:cad>0</ns3:cad>
          </ns3:TrackPointExtension>
        </extensions>
      </trkpt>
      <trkpt lat="43.47185391001403331756591796875" lon="1.43205754458904266357421875">
        <ele>254</ele>
        <time>2026-08-05T09:59:21.000Z</time>
        <extensions>
          <ns3:TrackPointExtension>
            <ns3:hr>69</ns3:hr>
            <ns3:cad>0</ns3:cad>
          </ns3:TrackPointExtension>
        </extensions>
      </trkpt>
      <trkpt lat="43.47185391001403331756591796875" lon="1.43205754458904266357421875">
        <ele>254</ele>
        <time>2026-08-05T09:59:22.000Z</time>
        <extensions>
          <ns3:TrackPointExtension>
            <ns3:hr>68</ns3:hr>
            <ns3:cad>0</ns3:cad>
          </ns3:TrackPointExtension>
        </extensions>
      </trkpt>
      <trkpt lat="43.47185391001403331756591796875" lon="1.43205754458904266357421875">
        <ele>254</ele>
        <time>2026-08-05T09:59:23.000Z</time>
        <extensions>
          <ns3:TrackPointExtension>
            <ns3:hr>68</ns3:hr>
            <ns3:cad>0</ns3:cad>
          </ns3:TrackPointExtension>
        </extensions>
      </trkpt>
      <trkpt lat="43.47185391001403331756591796875" lon="1.43205754458904266357421875">
        <ele>254</ele>
        <time>2026-08-05T09:59:24.000Z</time>
        <extensions>
          <ns3:TrackPointExtension>
            <ns3:hr>68</ns3:hr>
            <ns3:cad>0</ns3:cad>
          </ns3:TrackPointExtension>
        </extensions>
      </trkpt>
      <trkpt lat="43.47185391001403331756591796875" lon="1.43205754458904266357421875">
        <ele>254</ele>
        <time>2026-08-05T09:59:25.000Z</time>
        <extensions>
          <ns3:TrackPointExtension>
            <ns3:hr>67</ns3:hr>
            <ns3:cad>0</ns3:cad>
          </ns3:TrackPointExtension>
        </extensions>
      </trkpt>
      <trkpt lat="43.47185391001403331756591796875" lon="1.43205754458904266357421875">
        <ele>254</ele>
        <time>2026-08-05T09:59:26.000Z</time>
        <extensions>
          <ns3:TrackPointExtension>
            <ns3:hr>66</ns3:hr>
            <ns3:cad>0</ns3:cad>
          </ns3:TrackPointExtension>
        </extensions>
      </trkpt>
      <trkpt lat="43.47185391001403331756591796875" lon="1.43205754458904266357421875">
        <ele>254</ele>
        <time>2026-08-05T09:59:27.000Z</time>
        <extensions>
          <ns3:TrackPointExtension>
            <ns3:hr>65</ns3:hr>
            <ns3:cad>0</ns3:cad>
          </ns3:TrackPointExtension>
        </extensions>
      </trkpt>
      <trkpt lat="43.47185391001403331756591796875" lon="1.43205754458904266357421875">
        <ele>254</ele>
        <time>2026-08-05T09:59:28.000Z</time>
        <extensions>
          <ns3:TrackPointExtension>
            <ns3:hr>64</ns3:hr>
            <ns3:cad>0</ns3:cad>
          </ns3:TrackPointExtension>
        </extensions>
      </trkpt>
      <trkpt lat="43.47185391001403331756591796875" lon="1.43205754458904266357421875">
        <ele>254</ele>
        <time>2026-08-05T09:59:29.000Z</time>
        <extensions>
          <ns3:TrackPointExtension>
            <ns3:hr>63</ns3:hr>
            <ns3:cad>0</ns3:cad>
          </ns3:TrackPointExtension>
        </extensions>
      </trkpt>
      <trkpt lat="43.47185391001403331756591796875" lon="1.43205754458904266357421875">
        <ele>254</ele>
        <time>2026-08-05T09:59:30.000Z</time>
        <extensions>
          <ns3:TrackPointExtension>
            <ns3:hr>59</ns3:hr>
            <ns3:cad>0</ns3:cad>
          </ns3:TrackPointExtension>
        </extensions>
      </trkpt>
      <trkpt lat="43.47185391001403331756591796875" lon="1.43205754458904266357421875">
        <ele>254</ele>
        <time>2026-08-05T09:59:31.000Z</time>
        <extensions>
          <ns3:TrackPointExtension>
            <ns3:hr>58</ns3:hr>
            <ns3:cad>0</ns3:cad>
          </ns3:TrackPointExtension>
        </extensions>
      </trkpt>
      <trkpt lat="43.47185391001403331756591796875" lon="1.43205754458904266357421875">
        <ele>254.1999969482421875</ele>
        <time>2026-08-05T09:59:32.000Z</time>
        <extensions>
          <ns3:TrackPointExtension>
            <ns3:hr>57</ns3:hr>
            <ns3:cad>0</ns3:cad>
          </ns3:TrackPointExtension>
        </extensions>
      </trkpt>
      <trkpt lat="43.47185391001403331756591796875" lon="1.43205754458904266357421875">
        <ele>254.1999969482421875</ele>
        <time>2026-08-05T09:59:33.000Z</time>
        <extensions>
          <ns3:TrackPointExtension>
            <ns3:hr>57</ns3:hr>
            <ns3:cad>0</ns3:cad>
          </ns3:TrackPointExtension>
        </extensions>
      </trkpt>
      <trkpt lat="43.47185391001403331756591796875" lon="1.43205754458904266357421875">
        <ele>254.1999969482421875</ele>
        <time>2026-08-05T09:59:34.000Z</time>
        <extensions>
          <ns3:TrackPointExtension>
            <ns3:hr>57</ns3:hr>
            <ns3:cad>0</ns3:cad>
          </ns3:TrackPointExtension>
        </extensions>
      </trkpt>
      <trkpt lat="43.47185391001403331756591796875" lon="1.43205754458904266357421875">
        <ele>254.1999969482421875</ele>
        <time>2026-08-05T09:59:35.000Z</time>
        <extensions>
          <ns3:TrackPointExtension>
            <ns3:hr>57</ns3:hr>
            <ns3:cad>0</ns3:cad>
          </ns3:TrackPointExtension>
        </extensions>
      </trkpt>
      <trkpt lat="43.47185391001403331756591796875" lon="1.43205754458904266357421875">
        <ele>254.1999969482421875</ele>
        <time>2026-08-05T09:59:36.000Z</time>
        <extensions>
          <ns3:TrackPointExtension>
            <ns3:hr>57</ns3:hr>
            <ns3:cad>0</ns3:cad>
          </ns3:TrackPointExtension>
        </extensions>
      </trkpt>
      <trkpt lat="43.471844606101512908935546875" lon="1.43205192871391773223876953125">
        <ele>254.1999969482421875</ele>
        <time>2026-08-05T09:59:37.000Z</time>
        <extensions>
          <ns3:TrackPointExtension>
            <ns3:hr>56</ns3:hr>
            <ns3:cad>50</ns3:cad>
          </ns3:TrackPointExtension>
        </extensions>
      </trkpt>
      <trkpt lat="43.4718476235866546630859375" lon="1.43205159343779087066650390625">
        <ele>254.1999969482421875</ele>
        <time>2026-08-05T09:59:38.000Z</time>
        <extensions>
          <ns3:TrackPointExtension>
            <ns3:hr>56</ns3:hr>
            <ns3:cad>50</ns3:cad>
          </ns3:TrackPointExtension>
        </extensions>
      </trkpt>
      <trkpt lat="43.47185391001403331756591796875" lon="1.43205754458904266357421875">
        <ele>254.1999969482421875</ele>
        <time>2026-08-05T09:59:39.000Z</time>
        <extensions>
          <ns3:TrackPointExtension>
            <ns3:hr>56</ns3:hr>
            <ns3:cad>0</ns3:cad>
          </ns3:TrackPointExtension>
        </extensions>
      </trkpt>
      <trkpt lat="43.47185391001403331756591796875" lon="1.43205754458904266357421875">
        <ele>254.1999969482421875</ele>
        <time>2026-08-05T09:59:40.000Z</time>
        <extensions>
          <ns3:TrackPointExtension>
            <ns3:hr>56</ns3:hr>
            <ns3:cad>0</ns3:cad>
          </ns3:TrackPointExtension>
        </extensions>
      </trkpt>
      <trkpt lat="43.47185391001403331756591796875" lon="1.43205754458904266357421875">
        <ele>254.1999969482421875</ele>
        <time>2026-08-05T09:59:41.000Z</time>
        <extensions>
          <ns3:TrackPointExtension>
            <ns3:hr>56</ns3:hr>
            <ns3:cad>0</ns3:cad>
          </ns3:TrackPointExtension>
        </extensions>
      </trkpt>
      <trkpt lat="43.47185391001403331756591796875" lon="1.43205754458904266357421875">
        <ele>254.1999969482421875</ele>
        <time>2026-08-05T09:59:42.000Z</time>
        <extensions>
          <ns3:TrackPointExtension>
            <ns3:hr>56</ns3:hr>
            <ns3:cad>0</ns3:cad>
          </ns3:TrackPointExtension>
        </extensions>
      </trkpt>
      <trkpt lat="43.47185391001403331756591796875" lon="1.43205754458904266357421875">
        <ele>254.1999969482421875</ele>
        <time>2026-08-05T09:59:43.000Z</time>
        <extensions>
          <ns3:TrackPointExtension>
            <ns3:hr>55</ns3:hr>
            <ns3:cad>0</ns3:cad>
          </ns3:TrackPointExtension>
        </extensions>
      </trkpt>
      <trkpt lat="43.47184603102505207061767578125" lon="1.43205276690423488616943359375">
        <ele>254.1999969482421875</ele>
        <time>2026-08-05T09:59:44.000Z</time>
        <extensions>
          <ns3:TrackPointExtension>
            <ns3:hr>56</ns3:hr>
            <ns3:cad>0</ns3:cad>
          </ns3:TrackPointExtension>
        </extensions>
      </trkpt>
      <trkpt lat="43.47184318117797374725341796875" lon="1.4320543594658374786376953125">
        <ele>254.1999969482421875</ele>
        <time>2026-08-05T09:59:45.000Z</time>
        <extensions>
          <ns3:TrackPointExtension>
            <ns3:hr>56</ns3:hr>
            <ns3:cad>66</ns3:cad>
          </ns3:TrackPointExtension>
        </extensions>
      </trkpt>
      <trkpt lat="43.47184167243540287017822265625" lon="1.4320563711225986480712890625">
        <ele>254</ele>
        <time>2026-08-05T09:59:46.000Z</time>
        <extensions>
          <ns3:TrackPointExtension>
            <ns3:hr>56</ns3:hr>
            <ns3:cad>66</ns3:cad>
          </ns3:TrackPointExtension>
        </extensions>
      </trkpt>
      <trkpt lat="43.47184116952121257781982421875" lon="1.43205695785582065582275390625">
        <ele>254</ele>
        <time>2026-08-05T09:59:47.000Z</time>
        <extensions>
          <ns3:TrackPointExtension>
            <ns3:hr>56</ns3:hr>
            <ns3:cad>66</ns3:cad>
          </ns3:TrackPointExtension>
        </extensions>
      </trkpt>
      <trkpt lat="43.4718397445976734161376953125" lon="1.4320573769509792327880859375">
        <ele>254</ele>
        <time>2026-08-05T09:59:48.000Z</time>
        <extensions>
          <ns3:TrackPointExtension>
            <ns3:hr>55</ns3:hr>
            <ns3:cad>0</ns3:cad>
          </ns3:TrackPointExtension>
        </extensions>
      </trkpt>
      <trkpt lat="43.47183982841670513153076171875" lon="1.432057209312915802001953125">
        <ele>253.8000030517578125</ele>
        <time>2026-08-05T09:59:49.000Z</time>
        <extensions>
          <ns3:TrackPointExtension>
            <ns3:hr>55</ns3:hr>
            <ns3:cad>0</ns3:cad>
          </ns3:TrackPointExtension>
        </extensions>
      </trkpt>
      <trkpt lat="43.47183982841670513153076171875" lon="1.432057209312915802001953125">
        <ele>253.8000030517578125</ele>
        <time>2026-08-05T09:59:50.000Z</time>
        <extensions>
          <ns3:TrackPointExtension>
            <ns3:hr>55</ns3:hr>
            <ns3:cad>0</ns3:cad>
          </ns3:TrackPointExtension>
        </extensions>
      </trkpt>
      <trkpt lat="43.47183982841670513153076171875" lon="1.432057209312915802001953125">
        <ele>253.8000030517578125</ele>
        <time>2026-08-05T09:59:51.000Z</time>
        <extensions>
          <ns3:TrackPointExtension>
            <ns3:hr>56</ns3:hr>
            <ns3:cad>0</ns3:cad>
          </ns3:TrackPointExtension>
        </extensions>
      </trkpt>
      <trkpt lat="43.47183982841670513153076171875" lon="1.4320573769509792327880859375">
        <ele>253.8000030517578125</ele>
        <time>2026-08-05T09:59:52.000Z</time>
        <extensions>
          <ns3:TrackPointExtension>
            <ns3:hr>56</ns3:hr>
            <ns3:cad>0</ns3:cad>
          </ns3:TrackPointExtension>
        </extensions>
      </trkpt>
      <trkpt lat="43.47183614037930965423583984375" lon="1.432055197656154632568359375">
        <ele>253.8000030517578125</ele>
        <time>2026-08-05T09:59:53.000Z</time>
        <extensions>
          <ns3:TrackPointExtension>
            <ns3:hr>58</ns3:hr>
            <ns3:cad>0</ns3:cad>
          </ns3:TrackPointExtension>
        </extensions>
      </trkpt>
      <trkpt lat="43.47183664329349994659423828125" lon="1.43205611966550350189208984375">
        <ele>253.8000030517578125</ele>
        <time>2026-08-05T09:59:54.000Z</time>
        <extensions>
          <ns3:TrackPointExtension>
            <ns3:hr>59</ns3:hr>
            <ns3:cad>0</ns3:cad>
          </ns3:TrackPointExtension>
        </extensions>
      </trkpt>
      <trkpt lat="43.47183982841670513153076171875" lon="1.432057209312915802001953125">
        <ele>254</ele>
        <time>2026-08-05T09:59:55.000Z</time>
        <extensions>
          <ns3:TrackPointExtension>
            <ns3:hr>59</ns3:hr>
            <ns3:cad>0</ns3:cad>
          </ns3:TrackPointExtension>
        </extensions>
      </trkpt>
      <trkpt lat="43.47183982841670513153076171875" lon="1.432057209312915802001953125">
        <ele>254</ele>
        <time>2026-08-05T09:59:56.000Z</time>
        <extensions>
          <ns3:TrackPointExtension>
            <ns3:hr>59</ns3:hr>
            <ns3:cad>0</ns3:cad>
          </ns3:TrackPointExtension>
        </extensions>
      </trkpt>
      <trkpt lat="43.47183982841670513153076171875" lon="1.432057209312915802001953125">
        <ele>254</ele>
        <time>2026-08-05T09:59:57.000Z</time>
        <extensions>
          <ns3:TrackPointExtension>
            <ns3:hr>58</ns3:hr>
            <ns3:cad>0</ns3:cad>
          </ns3:TrackPointExtension>
        </extensions>
      </trkpt>
      <trkpt lat="43.47183982841670513153076171875" lon="1.432057209312915802001953125">
        <ele>254.1999969482421875</ele>
        <time>2026-08-05T09:59:58.000Z</time>
        <extensions>
          <ns3:TrackPointExtension>
            <ns3:hr>57</ns3:hr>
            <ns3:cad>0</ns3:cad>
          </ns3:TrackPointExtension>
        </extensions>
      </trkpt>
      <trkpt lat="43.47183982841670513153076171875" lon="1.432057209312915802001953125">
        <ele>254.1999969482421875</ele>
        <time>2026-08-05T09:59:59.000Z</time>
        <extensions>
          <ns3:TrackPointExtension>
            <ns3:hr>57</ns3:hr>
            <ns3:cad>0</ns3:cad>
          </ns3:TrackPointExtension>
        </extensions>
      </trkpt>
      <trkpt lat="43.47183982841670513153076171875" lon="1.432057209312915802001953125">
        <ele>254.1999969482421875</ele>
        <time>2026-08-05T10:00:00.000Z</time>
        <extensions>
          <ns3:TrackPointExtension>
            <ns3:hr>57</ns3:hr>
            <ns3:cad>0</ns3:cad>
          </ns3:TrackPointExtension>
        </extensions>
      </trkpt>
      <trkpt lat="43.47183982841670513153076171875" lon="1.432057209312915802001953125">
        <ele>254.1999969482421875</ele>
        <time>2026-08-05T10:00:01.000Z</time>
        <extensions>
          <ns3:TrackPointExtension>
            <ns3:hr>58</ns3:hr>
            <ns3:cad>0</ns3:cad>
          </ns3:TrackPointExtension>
        </extensions>
      </trkpt>
      <trkpt lat="43.4718390740454196929931640625" lon="1.4320568740367889404296875">
        <ele>254.1999969482421875</ele>
        <time>2026-08-05T10:00:02.000Z</time>
        <extensions>
          <ns3:TrackPointExtension>
            <ns3:hr>58</ns3:hr>
            <ns3:cad>0</ns3:cad>
          </ns3:TrackPointExtension>
        </extensions>
      </trkpt>
      <trkpt lat="43.471837900578975677490234375" lon="1.43205796368420124053955078125">
        <ele>254.1999969482421875</ele>
        <time>2026-08-05T10:00:03.000Z</time>
        <extensions>
          <ns3:TrackPointExtension>
            <ns3:hr>58</ns3:hr>
            <ns3:cad>61</ns3:cad>
          </ns3:TrackPointExtension>
        </extensions>
      </trkpt>
      <trkpt lat="43.47183781675994396209716796875" lon="1.4320597238838672637939453125">
        <ele>254</ele>
        <time>2026-08-05T10:00:04.000Z</time>
        <extensions>
          <ns3:TrackPointExtension>
            <ns3:hr>58</ns3:hr>
            <ns3:cad>61</ns3:cad>
          </ns3:TrackPointExtension>
        </extensions>
      </trkpt>
      <trkpt lat="43.47183949314057826995849609375" lon="1.4320622384548187255859375">
        <ele>254</ele>
        <time>2026-08-05T10:00:05.000Z</time>
        <extensions>
          <ns3:TrackPointExtension>
            <ns3:hr>59</ns3:hr>
            <ns3:cad>0</ns3:cad>
          </ns3:TrackPointExtension>
        </extensions>
      </trkpt>
      <trkpt lat="43.47184083424508571624755859375" lon="1.43206483684480190277099609375">
        <ele>253.8000030517578125</ele>
        <time>2026-08-05T10:00:06.000Z</time>
        <extensions>
          <ns3:TrackPointExtension>
            <ns3:hr>59</ns3:hr>
            <ns3:cad>0</ns3:cad>
          </ns3:TrackPointExtension>
        </extensions>
      </trkpt>
      <trkpt lat="43.47184116952121257781982421875" lon="1.43206601031124591827392578125">
        <ele>253.8000030517578125</ele>
        <time>2026-08-05T10:00:07.000Z</time>
        <extensions>
          <ns3:TrackPointExtension>
            <ns3:hr>58</ns3:hr>
            <ns3:cad>0</ns3:cad>
          </ns3:TrackPointExtension>
        </extensions>
      </trkpt>
      <trkpt lat="43.4718422591686248779296875" lon="1.4320681057870388031005859375">
        <ele>253.600006103515625</ele>
        <time>2026-08-05T10:00:08.000Z</time>
        <extensions>
          <ns3:TrackPointExtension>
            <ns3:hr>58</ns3:hr>
            <ns3:cad>0</ns3:cad>
          </ns3:TrackPointExtension>
        </extensions>
      </trkpt>
      <trkpt lat="43.47184167243540287017822265625" lon="1.43206852488219738006591796875">
        <ele>253.600006103515625</ele>
        <time>2026-08-05T10:00:09.000Z</time>
        <extensions>
          <ns3:TrackPointExtension>
            <ns3:hr>58</ns3:hr>
            <ns3:cad>0</ns3:cad>
          </ns3:TrackPointExtension>
        </extensions>
      </trkpt>
      <trkpt lat="43.471840918064117431640625" lon="1.43206869252026081085205078125">
        <ele>253.399993896484375</ele>
        <time>2026-08-05T10:00:10.000Z</time>
        <extensions>
          <ns3:TrackPointExtension>
            <ns3:hr>58</ns3:hr>
            <ns3:cad>0</ns3:cad>
          </ns3:TrackPointExtension>
        </extensions>
      </trkpt>
      <trkpt lat="43.47183982841670513153076171875" lon="1.43206718377768993377685546875">
        <ele>253.399993896484375</ele>
        <time>2026-08-05T10:00:11.000Z</time>
        <extensions>
          <ns3:TrackPointExtension>
            <ns3:hr>59</ns3:hr>
            <ns3:cad>0</ns3:cad>
          </ns3:TrackPointExtension>
        </extensions>
      </trkpt>
      <trkpt lat="43.47183865495026111602783203125" lon="1.432065926492214202880859375">
        <ele>253.399993896484375</ele>
        <time>2026-08-05T10:00:12.000Z</time>
        <extensions>
          <ns3:TrackPointExtension>
            <ns3:hr>59</ns3:hr>
            <ns3:cad>0</ns3:cad>
          </ns3:TrackPointExtension>
        </extensions>
      </trkpt>
      <trkpt lat="43.4718420915305614471435546875" lon="1.4320664294064044952392578125">
        <ele>253.399993896484375</ele>
        <time>2026-08-05T10:00:13.000Z</time>
        <extensions>
          <ns3:TrackPointExtension>
            <ns3:hr>59</ns3:hr>
            <ns3:cad>0</ns3:cad>
          </ns3:TrackPointExtension>
        </extensions>
      </trkpt>
      <trkpt lat="43.47184569574892520904541015625" lon="1.432065255939960479736328125">
        <ele>253.399993896484375</ele>
        <time>2026-08-05T10:00:14.000Z</time>
        <extensions>
          <ns3:TrackPointExtension>
            <ns3:hr>59</ns3:hr>
            <ns3:cad>0</ns3:cad>
          </ns3:TrackPointExtension>
        </extensions>
      </trkpt>
      <trkpt lat="43.47183982841670513153076171875" lon="1.432057209312915802001953125">
        <ele>253.399993896484375</ele>
        <time>2026-08-05T10:00:15.000Z</time>
        <extensions>
          <ns3:TrackPointExtension>
            <ns3:hr>59</ns3:hr>
            <ns3:cad>0</ns3:cad>
          </ns3:TrackPointExtension>
        </extensions>
      </trkpt>
      <trkpt lat="43.47183982841670513153076171875" lon="1.432057209312915802001953125">
        <ele>253.399993896484375</ele>
        <time>2026-08-05T10:00:16.000Z</time>
        <extensions>
          <ns3:TrackPointExtension>
            <ns3:hr>60</ns3:hr>
            <ns3:cad>0</ns3:cad>
          </ns3:TrackPointExtension>
        </extensions>
      </trkpt>
      <trkpt lat="43.47183982841670513153076171875" lon="1.432057209312915802001953125">
        <ele>253.1999969482421875</ele>
        <time>2026-08-05T10:00:17.000Z</time>
        <extensions>
          <ns3:TrackPointExtension>
            <ns3:hr>61</ns3:hr>
            <ns3:cad>0</ns3:cad>
          </ns3:TrackPointExtension>
        </extensions>
      </trkpt>
      <trkpt lat="43.47183982841670513153076171875" lon="1.432057209312915802001953125">
        <ele>253.1999969482421875</ele>
        <time>2026-08-05T10:00:18.000Z</time>
        <extensions>
          <ns3:TrackPointExtension>
            <ns3:hr>62</ns3:hr>
            <ns3:cad>0</ns3:cad>
          </ns3:TrackPointExtension>
        </extensions>
      </trkpt>
      <trkpt lat="43.47183982841670513153076171875" lon="1.432057209312915802001953125">
        <ele>253.1999969482421875</ele>
        <time>2026-08-05T10:00:19.000Z</time>
        <extensions>
          <ns3:TrackPointExtension>
            <ns3:hr>63</ns3:hr>
            <ns3:cad>0</ns3:cad>
          </ns3:TrackPointExtension>
        </extensions>
      </trkpt>
      <trkpt lat="43.47183982841670513153076171875" lon="1.432057209312915802001953125">
        <ele>253.1999969482421875</ele>
        <time>2026-08-05T10:00:20.000Z</time>
        <extensions>
          <ns3:TrackPointExtension>
            <ns3:hr>65</ns3:hr>
            <ns3:cad>0</ns3:cad>
          </ns3:TrackPointExtension>
        </extensions>
      </trkpt>
      <trkpt lat="43.47183982841670513153076171875" lon="1.432057209312915802001953125">
        <ele>253.1999969482421875</ele>
        <time>2026-08-05T10:00:21.000Z</time>
        <extensions>
          <ns3:TrackPointExtension>
            <ns3:hr>66</ns3:hr>
            <ns3:cad>0</ns3:cad>
          </ns3:TrackPointExtension>
        </extensions>
      </trkpt>
      <trkpt lat="43.47183982841670513153076171875" lon="1.432057209312915802001953125">
        <ele>253.1999969482421875</ele>
        <time>2026-08-05T10:00:22.000Z</time>
        <extensions>
          <ns3:TrackPointExtension>
            <ns3:hr>67</ns3:hr>
            <ns3:cad>0</ns3:cad>
          </ns3:TrackPointExtension>
        </extensions>
      </trkpt>
      <trkpt lat="43.47183982841670513153076171875" lon="1.432057209312915802001953125">
        <ele>253.1999969482421875</ele>
        <time>2026-08-05T10:00:23.000Z</time>
        <extensions>
          <ns3:TrackPointExtension>
            <ns3:hr>67</ns3:hr>
            <ns3:cad>0</ns3:cad>
          </ns3:TrackPointExtension>
        </extensions>
      </trkpt>
      <trkpt lat="43.47183982841670513153076171875" lon="1.432057209312915802001953125">
        <ele>253</ele>
        <time>2026-08-05T10:00:24.000Z</time>
        <extensions>
          <ns3:TrackPointExtension>
            <ns3:hr>67</ns3:hr>
            <ns3:cad>0</ns3:cad>
          </ns3:TrackPointExtension>
        </extensions>
      </trkpt>
      <trkpt lat="43.47183982841670513153076171875" lon="1.432057209312915802001953125">
        <ele>253</ele>
        <time>2026-08-05T10:00:25.000Z</time>
        <extensions>
          <ns3:TrackPointExtension>
            <ns3:hr>68</ns3:hr>
            <ns3:cad>0</ns3:cad>
          </ns3:TrackPointExtension>
        </extensions>
      </trkpt>
      <trkpt lat="43.47183982841670513153076171875" lon="1.432057209312915802001953125">
        <ele>253</ele>
        <time>2026-08-05T10:00:26.000Z</time>
        <extensions>
          <ns3:TrackPointExtension>
            <ns3:hr>68</ns3:hr>
            <ns3:cad>0</ns3:cad>
          </ns3:TrackPointExtension>
        </extensions>
      </trkpt>
      <trkpt lat="43.47183982841670513153076171875" lon="1.432057209312915802001953125">
        <ele>253</ele>
        <time>2026-08-05T10:00:27.000Z</time>
        <extensions>
          <ns3:TrackPointExtension>
            <ns3:hr>69</ns3:hr>
            <ns3:cad>0</ns3:cad>
          </ns3:TrackPointExtension>
        </extensions>
      </trkpt>
      <trkpt lat="43.47183982841670513153076171875" lon="1.432057209312915802001953125">
        <ele>253</ele>
        <time>2026-08-05T10:00:28.000Z</time>
        <extensions>
          <ns3:TrackPointExtension>
            <ns3:hr>69</ns3:hr>
            <ns3:cad>0</ns3:cad>
          </ns3:TrackPointExtension>
        </extensions>
      </trkpt>
      <trkpt lat="43.47183982841670513153076171875" lon="1.432057209312915802001953125">
        <ele>253</ele>
        <time>2026-08-05T10:00:29.000Z</time>
        <extensions>
          <ns3:TrackPointExtension>
            <ns3:hr>71</ns3:hr>
            <ns3:cad>0</ns3:cad>
          </ns3:TrackPointExtension>
        </extensions>
      </trkpt>
      <trkpt lat="43.47183982841670513153076171875" lon="1.432057209312915802001953125">
        <ele>253.1999969482421875</ele>
        <time>2026-08-05T10:00:30.000Z</time>
        <extensions>
          <ns3:TrackPointExtension>
            <ns3:hr>71</ns3:hr>
            <ns3:cad>0</ns3:cad>
          </ns3:TrackPointExtension>
        </extensions>
      </trkpt>
      <trkpt lat="43.47183982841670513153076171875" lon="1.432057209312915802001953125">
        <ele>253.1999969482421875</ele>
        <time>2026-08-05T10:00:31.000Z</time>
        <extensions>
          <ns3:TrackPointExtension>
            <ns3:hr>70</ns3:hr>
            <ns3:cad>0</ns3:cad>
          </ns3:TrackPointExtension>
        </extensions>
      </trkpt>
      <trkpt lat="43.47183982841670513153076171875" lon="1.432057209312915802001953125">
        <ele>253.1999969482421875</ele>
        <time>2026-08-05T10:00:32.000Z</time>
        <extensions>
          <ns3:TrackPointExtension>
            <ns3:hr>70</ns3:hr>
            <ns3:cad>0</ns3:cad>
          </ns3:TrackPointExtension>
        </extensions>
      </trkpt>
      <trkpt lat="43.47183982841670513153076171875" lon="1.432057209312915802001953125">
        <ele>253.1999969482421875</ele>
        <time>2026-08-05T10:00:33.000Z</time>
        <extensions>
          <ns3:TrackPointExtension>
            <ns3:hr>70</ns3:hr>
            <ns3:cad>0</ns3:cad>
          </ns3:TrackPointExtension>
        </extensions>
      </trkpt>
      <trkpt lat="43.47183982841670513153076171875" lon="1.432057209312915802001953125">
        <ele>253.1999969482421875</ele>
        <time>2026-08-05T10:00:34.000Z</time>
        <extensions>
          <ns3:TrackPointExtension>
            <ns3:hr>71</ns3:hr>
            <ns3:cad>0</ns3:cad>
          </ns3:TrackPointExtension>
        </extensions>
      </trkpt>
      <trkpt lat="43.47183982841670513153076171875" lon="1.432057209312915802001953125">
        <ele>253.399993896484375</ele>
        <time>2026-08-05T10:00:35.000Z</time>
        <extensions>
          <ns3:TrackPointExtension>
            <ns3:hr>71</ns3:hr>
            <ns3:cad>0</ns3:cad>
          </ns3:TrackPointExtension>
        </extensions>
      </trkpt>
      <trkpt lat="43.47183982841670513153076171875" lon="1.432057209312915802001953125">
        <ele>253.600006103515625</ele>
        <time>2026-08-05T10:00:36.000Z</time>
        <extensions>
          <ns3:TrackPointExtension>
            <ns3:hr>70</ns3:hr>
            <ns3:cad>0</ns3:cad>
          </ns3:TrackPointExtension>
        </extensions>
      </trkpt>
      <trkpt lat="43.47183982841670513153076171875" lon="1.432057209312915802001953125">
        <ele>253.8000030517578125</ele>
        <time>2026-08-05T10:00:37.000Z</time>
        <extensions>
          <ns3:TrackPointExtension>
            <ns3:hr>70</ns3:hr>
            <ns3:cad>0</ns3:cad>
          </ns3:TrackPointExtension>
        </extensions>
      </trkpt>
      <trkpt lat="43.47183982841670513153076171875" lon="1.432057209312915802001953125">
        <ele>253.8000030517578125</ele>
        <time>2026-08-05T10:00:38.000Z</time>
        <extensions>
          <ns3:TrackPointExtension>
            <ns3:hr>70</ns3:hr>
            <ns3:cad>0</ns3:cad>
          </ns3:TrackPointExtension>
        </extensions>
      </trkpt>
      <trkpt lat="43.47183982841670513153076171875" lon="1.432057209312915802001953125">
        <ele>253.8000030517578125</ele>
        <time>2026-08-05T10:00:39.000Z</time>
        <extensions>
          <ns3:TrackPointExtension>
            <ns3:hr>70</ns3:hr>
            <ns3:cad>0</ns3:cad>
          </ns3:TrackPointExtension>
        </extensions>
      </trkpt>
      <trkpt lat="43.47183982841670513153076171875" lon="1.432057209312915802001953125">
        <ele>253.8000030517578125</ele>
        <time>2026-08-05T10:00:40.000Z</time>
        <extensions>
          <ns3:TrackPointExtension>
            <ns3:hr>69</ns3:hr>
            <ns3:cad>0</ns3:cad>
          </ns3:TrackPointExtension>
        </extensions>
      </trkpt>
      <trkpt lat="43.47183982841670513153076171875" lon="1.432057209312915802001953125">
        <ele>253.8000030517578125</ele>
        <time>2026-08-05T10:00:41.000Z</time>
        <extensions>
          <ns3:TrackPointExtension>
            <ns3:hr>69</ns3:hr>
            <ns3:cad>0</ns3:cad>
          </ns3:TrackPointExtension>
        </extensions>
      </trkpt>
      <trkpt lat="43.47183982841670513153076171875" lon="1.432057209312915802001953125">
        <ele>253.600006103515625</ele>
        <time>2026-08-05T10:00:42.000Z</time>
        <extensions>
          <ns3:TrackPointExtension>
            <ns3:hr>69</ns3:hr>
            <ns3:cad>0</ns3:cad>
          </ns3:TrackPointExtension>
        </extensions>
      </trkpt>
      <trkpt lat="43.47183982841670513153076171875" lon="1.432057209312915802001953125">
        <ele>253.600006103515625</ele>
        <time>2026-08-05T10:00:43.000Z</time>
        <extensions>
          <ns3:TrackPointExtension>
            <ns3:hr>68</ns3:hr>
            <ns3:cad>0</ns3:cad>
          </ns3:TrackPointExtension>
        </extensions>
      </trkpt>
      <trkpt lat="43.47183982841670513153076171875" lon="1.432057209312915802001953125">
        <ele>253.600006103515625</ele>
        <time>2026-08-05T10:00:44.000Z</time>
        <extensions>
          <ns3:TrackPointExtension>
            <ns3:hr>68</ns3:hr>
            <ns3:cad>0</ns3:cad>
          </ns3:TrackPointExtension>
        </extensions>
      </trkpt>
      <trkpt lat="43.47183982841670513153076171875" lon="1.432057209312915802001953125">
        <ele>253.600006103515625</ele>
        <time>2026-08-05T10:00:45.000Z</time>
        <extensions>
          <ns3:TrackPointExtension>
            <ns3:hr>69</ns3:hr>
            <ns3:cad>0</ns3:cad>
          </ns3:TrackPointExtension>
        </extensions>
      </trkpt>
      <trkpt lat="43.47183982841670513153076171875" lon="1.432057209312915802001953125">
        <ele>253.600006103515625</ele>
        <time>2026-08-05T10:00:46.000Z</time>
        <extensions>
          <ns3:TrackPointExtension>
            <ns3:hr>69</ns3:hr>
            <ns3:cad>0</ns3:cad>
          </ns3:TrackPointExtension>
        </extensions>
      </trkpt>
      <trkpt lat="43.47183982841670513153076171875" lon="1.432057209312915802001953125">
        <ele>253.600006103515625</ele>
        <time>2026-08-05T10:00:47.000Z</time>
        <extensions>
          <ns3:TrackPointExtension>
            <ns3:hr>71</ns3:hr>
            <ns3:cad>0</ns3:cad>
          </ns3:TrackPointExtension>
        </extensions>
      </trkpt>
      <trkpt lat="43.47183982841670513153076171875" lon="1.432057209312915802001953125">
        <ele>253.600006103515625</ele>
        <time>2026-08-05T10:00:48.000Z</time>
        <extensions>
          <ns3:TrackPointExtension>
            <ns3:hr>71</ns3:hr>
            <ns3:cad>0</ns3:cad>
          </ns3:TrackPointExtension>
        </extensions>
      </trkpt>
      <trkpt lat="43.47183982841670513153076171875" lon="1.432057209312915802001953125">
        <ele>253.600006103515625</ele>
        <time>2026-08-05T10:00:49.000Z</time>
        <extensions>
          <ns3:TrackPointExtension>
            <ns3:hr>70</ns3:hr>
            <ns3:cad>0</ns3:cad>
          </ns3:TrackPointExtension>
        </extensions>
      </trkpt>
      <trkpt lat="43.47183982841670513153076171875" lon="1.432057209312915802001953125">
        <ele>253.600006103515625</ele>
        <time>2026-08-05T10:00:50.000Z</time>
        <extensions>
          <ns3:TrackPointExtension>
            <ns3:hr>69</ns3:hr>
            <ns3:cad>0</ns3:cad>
          </ns3:TrackPointExtension>
        </extensions>
      </trkpt>
      <trkpt lat="43.47183982841670513153076171875" lon="1.432057209312915802001953125">
        <ele>253.600006103515625</ele>
        <time>2026-08-05T10:00:51.000Z</time>
        <extensions>
          <ns3:TrackPointExtension>
            <ns3:hr>68</ns3:hr>
            <ns3:cad>0</ns3:cad>
          </ns3:TrackPointExtension>
        </extensions>
      </trkpt>
      <trkpt lat="43.47183982841670513153076171875" lon="1.432057209312915802001953125">
        <ele>253.600006103515625</ele>
        <time>2026-08-05T10:00:52.000Z</time>
        <extensions>
          <ns3:TrackPointExtension>
            <ns3:hr>68</ns3:hr>
            <ns3:cad>0</ns3:cad>
          </ns3:TrackPointExtension>
        </extensions>
      </trkpt>
      <trkpt lat="43.47183982841670513153076171875" lon="1.432057209312915802001953125">
        <ele>253.399993896484375</ele>
        <time>2026-08-05T10:00:53.000Z</time>
        <extensions>
          <ns3:TrackPointExtension>
            <ns3:hr>68</ns3:hr>
            <ns3:cad>0</ns3:cad>
          </ns3:TrackPointExtension>
        </extensions>
      </trkpt>
      <trkpt lat="43.47183982841670513153076171875" lon="1.432057209312915802001953125">
        <ele>253.399993896484375</ele>
        <time>2026-08-05T10:00:54.000Z</time>
        <extensions>
          <ns3:TrackPointExtension>
            <ns3:hr>67</ns3:hr>
            <ns3:cad>0</ns3:cad>
          </ns3:TrackPointExtension>
        </extensions>
      </trkpt>
      <trkpt lat="43.47183982841670513153076171875" lon="1.432057209312915802001953125">
        <ele>253.399993896484375</ele>
        <time>2026-08-05T10:00:55.000Z</time>
        <extensions>
          <ns3:TrackPointExtension>
            <ns3:hr>67</ns3:hr>
            <ns3:cad>0</ns3:cad>
          </ns3:TrackPointExtension>
        </extensions>
      </trkpt>
      <trkpt lat="43.47183982841670513153076171875" lon="1.432057209312915802001953125">
        <ele>253.399993896484375</ele>
        <time>2026-08-05T10:00:56.000Z</time>
        <extensions>
          <ns3:TrackPointExtension>
            <ns3:hr>67</ns3:hr>
            <ns3:cad>0</ns3:cad>
          </ns3:TrackPointExtension>
        </extensions>
      </trkpt>
      <trkpt lat="43.47183982841670513153076171875" lon="1.432057209312915802001953125">
        <ele>253.399993896484375</ele>
        <time>2026-08-05T10:00:57.000Z</time>
        <extensions>
          <ns3:TrackPointExtension>
            <ns3:hr>67</ns3:hr>
            <ns3:cad>0</ns3:cad>
          </ns3:TrackPointExtension>
        </extensions>
      </trkpt>
      <trkpt lat="43.47183982841670513153076171875" lon="1.432057209312915802001953125">
        <ele>253.399993896484375</ele>
        <time>2026-08-05T10:00:58.000Z</time>
        <extensions>
          <ns3:TrackPointExtension>
            <ns3:hr>67</ns3:hr>
            <ns3:cad>0</ns3:cad>
          </ns3:TrackPointExtension>
        </extensions>
      </trkpt>
      <trkpt lat="43.47183982841670513153076171875" lon="1.432057209312915802001953125">
        <ele>253.399993896484375</ele>
        <time>2026-08-05T10:00:59.000Z</time>
        <extensions>
          <ns3:TrackPointExtension>
            <ns3:hr>67</ns3:hr>
            <ns3:cad>0</ns3:cad>
          </ns3:TrackPointExtension>
        </extensions>
      </trkpt>
      <trkpt lat="43.47183982841670513153076171875" lon="1.432057209312915802001953125">
        <ele>253.399993896484375</ele>
        <time>2026-08-05T10:01:00.000Z</time>
        <extensions>
          <ns3:TrackPointExtension>
            <ns3:hr>68</ns3:hr>
            <ns3:cad>0</ns3:cad>
          </ns3:TrackPointExtension>
        </extensions>
      </trkpt>
      <trkpt lat="43.47183982841670513153076171875" lon="1.432057209312915802001953125">
        <ele>253.600006103515625</ele>
        <time>2026-08-05T10:01:01.000Z</time>
        <extensions>
          <ns3:TrackPointExtension>
            <ns3:hr>67</ns3:hr>
            <ns3:cad>0</ns3:cad>
          </ns3:TrackPointExtension>
        </extensions>
      </trkpt>
      <trkpt lat="43.47183982841670513153076171875" lon="1.432057209312915802001953125">
        <ele>253.399993896484375</ele>
        <time>2026-08-05T10:01:02.000Z</time>
        <extensions>
          <ns3:TrackPointExtension>
            <ns3:hr>68</ns3:hr>
            <ns3:cad>0</ns3:cad>
          </ns3:TrackPointExtension>
        </extensions>
      </trkpt>
      <trkpt lat="43.47183982841670513153076171875" lon="1.432057209312915802001953125">
        <ele>253.399993896484375</ele>
        <time>2026-08-05T10:01:03.000Z</time>
        <extensions>
          <ns3:TrackPointExtension>
            <ns3:hr>68</ns3:hr>
            <ns3:cad>0</ns3:cad>
          </ns3:TrackPointExtension>
        </extensions>
      </trkpt>
      <trkpt lat="43.47183982841670513153076171875" lon="1.432057209312915802001953125">
        <ele>253.399993896484375</ele>
        <time>2026-08-05T10:01:04.000Z</time>
        <extensions>
          <ns3:TrackPointExtension>
            <ns3:hr>68</ns3:hr>
            <ns3:cad>0</ns3:cad>
          </ns3:TrackPointExtension>
        </extensions>
      </trkpt>
      <trkpt lat="43.47183982841670513153076171875" lon="1.432057209312915802001953125">
        <ele>253.600006103515625</ele>
        <time>2026-08-05T10:01:05.000Z</time>
        <extensions>
          <ns3:TrackPointExtension>
            <ns3:hr>67</ns3:hr>
            <ns3:cad>0</ns3:cad>
          </ns3:TrackPointExtension>
        </extensions>
      </trkpt>
      <trkpt lat="43.47183982841670513153076171875" lon="1.432057209312915802001953125">
        <ele>253.399993896484375</ele>
        <time>2026-08-05T10:01:06.000Z</time>
        <extensions>
          <ns3:TrackPointExtension>
            <ns3:hr>68</ns3:hr>
            <ns3:cad>0</ns3:cad>
          </ns3:TrackPointExtension>
        </extensions>
      </trkpt>
      <trkpt lat="43.47183982841670513153076171875" lon="1.432057209312915802001953125">
        <ele>253.399993896484375</ele>
        <time>2026-08-05T10:01:07.000Z</time>
        <extensions>
          <ns3:TrackPointExtension>
            <ns3:hr>67</ns3:hr>
            <ns3:cad>0</ns3:cad>
          </ns3:TrackPointExtension>
        </extensions>
      </trkpt>
      <trkpt lat="43.47183982841670513153076171875" lon="1.432057209312915802001953125">
        <ele>253.399993896484375</ele>
        <time>2026-08-05T10:01:08.000Z</time>
        <extensions>
          <ns3:TrackPointExtension>
            <ns3:hr>68</ns3:hr>
            <ns3:cad>0</ns3:cad>
          </ns3:TrackPointExtension>
        </extensions>
      </trkpt>
      <trkpt lat="43.47183982841670513153076171875" lon="1.432057209312915802001953125">
        <ele>253.399993896484375</ele>
        <time>2026-08-05T10:01:09.000Z</time>
        <extensions>
          <ns3:TrackPointExtension>
            <ns3:hr>68</ns3:hr>
            <ns3:cad>0</ns3:cad>
          </ns3:TrackPointExtension>
        </extensions>
      </trkpt>
      <trkpt lat="43.47183982841670513153076171875" lon="1.432057209312915802001953125">
        <ele>253.1999969482421875</ele>
        <time>2026-08-05T10:01:10.000Z</time>
        <extensions>
          <ns3:TrackPointExtension>
            <ns3:hr>67</ns3:hr>
            <ns3:cad>0</ns3:cad>
          </ns3:TrackPointExtension>
        </extensions>
      </trkpt>
      <trkpt lat="43.47183982841670513153076171875" lon="1.432057209312915802001953125">
        <ele>253.1999969482421875</ele>
        <time>2026-08-05T10:01:11.000Z</time>
        <extensions>
          <ns3:TrackPointExtension>
            <ns3:hr>67</ns3:hr>
            <ns3:cad>0</ns3:cad>
          </ns3:TrackPointExtension>
        </extensions>
      </trkpt>
      <trkpt lat="43.47183982841670513153076171875" lon="1.432057209312915802001953125">
        <ele>253.1999969482421875</ele>
        <time>2026-08-05T10:01:12.000Z</time>
        <extensions>
          <ns3:TrackPointExtension>
            <ns3:hr>68</ns3:hr>
            <ns3:cad>0</ns3:cad>
          </ns3:TrackPointExtension>
        </extensions>
      </trkpt>
      <trkpt lat="43.47183982841670513153076171875" lon="1.432057209312915802001953125">
        <ele>253.1999969482421875</ele>
        <time>2026-08-05T10:01:13.000Z</time>
        <extensions>
          <ns3:TrackPointExtension>
            <ns3:hr>67</ns3:hr>
            <ns3:cad>0</ns3:cad>
          </ns3:TrackPointExtension>
        </extensions>
      </trkpt>
      <trkpt lat="43.47183982841670513153076171875" lon="1.432057209312915802001953125">
        <ele>253.1999969482421875</ele>
        <time>2026-08-05T10:01:14.000Z</time>
        <extensions>
          <ns3:TrackPointExtension>
            <ns3:hr>67</ns3:hr>
            <ns3:cad>0</ns3:cad>
          </ns3:TrackPointExtension>
        </extensions>
      </trkpt>
      <trkpt lat="43.47183982841670513153076171875" lon="1.432057209312915802001953125">
        <ele>253</ele>
        <time>2026-08-05T10:01:15.000Z</time>
        <extensions>
          <ns3:TrackPointExtension>
            <ns3:hr>66</ns3:hr>
            <ns3:cad>0</ns3:cad>
          </ns3:TrackPointExtension>
        </extensions>
      </trkpt>
      <trkpt lat="43.47183982841670513153076171875" lon="1.432057209312915802001953125">
        <ele>253</ele>
        <time>2026-08-05T10:01:16.000Z</time>
        <extensions>
          <ns3:TrackPointExtension>
            <ns3:hr>66</ns3:hr>
            <ns3:cad>0</ns3:cad>
          </ns3:TrackPointExtension>
        </extensions>
      </trkpt>
      <trkpt lat="43.47183982841670513153076171875" lon="1.432057209312915802001953125">
        <ele>253</ele>
        <time>2026-08-05T10:01:17.000Z</time>
        <extensions>
          <ns3:TrackPointExtension>
            <ns3:hr>66</ns3:hr>
            <ns3:cad>0</ns3:cad>
          </ns3:TrackPointExtension>
        </extensions>
      </trkpt>
      <trkpt lat="43.47183982841670513153076171875" lon="1.432057209312915802001953125">
        <ele>253</ele>
        <time>2026-08-05T10:01:18.000Z</time>
        <extensions>
          <ns3:TrackPointExtension>
            <ns3:hr>65</ns3:hr>
            <ns3:cad>0</ns3:cad>
          </ns3:TrackPointExtension>
        </extensions>
      </trkpt>
      <trkpt lat="43.47183982841670513153076171875" lon="1.432057209312915802001953125">
        <ele>253.1999969482421875</ele>
        <time>2026-08-05T10:01:19.000Z</time>
        <extensions>
          <ns3:TrackPointExtension>
            <ns3:hr>65</ns3:hr>
            <ns3:cad>0</ns3:cad>
          </ns3:TrackPointExtension>
        </extensions>
      </trkpt>
      <trkpt lat="43.47183982841670513153076171875" lon="1.432057209312915802001953125">
        <ele>253.1999969482421875</ele>
        <time>2026-08-05T10:01:20.000Z</time>
        <extensions>
          <ns3:TrackPointExtension>
            <ns3:hr>65</ns3:hr>
            <ns3:cad>0</ns3:cad>
          </ns3:TrackPointExtension>
        </extensions>
      </trkpt>
      <trkpt lat="43.47183982841670513153076171875" lon="1.432057209312915802001953125">
        <ele>253.399993896484375</ele>
        <time>2026-08-05T10:01:21.000Z</time>
        <extensions>
          <ns3:TrackPointExtension>
            <ns3:hr>65</ns3:hr>
            <ns3:cad>0</ns3:cad>
          </ns3:TrackPointExtension>
        </extensions>
      </trkpt>
      <trkpt lat="43.47183982841670513153076171875" lon="1.432057209312915802001953125">
        <ele>253.399993896484375</ele>
        <time>2026-08-05T10:01:22.000Z</time>
        <extensions>
          <ns3:TrackPointExtension>
            <ns3:hr>65</ns3:hr>
            <ns3:cad>0</ns3:cad>
          </ns3:TrackPointExtension>
        </extensions>
      </trkpt>
      <trkpt lat="43.47183982841670513153076171875" lon="1.432057209312915802001953125">
        <ele>253.399993896484375</ele>
        <time>2026-08-05T10:01:23.000Z</time>
        <extensions>
          <ns3:TrackPointExtension>
            <ns3:hr>65</ns3:hr>
            <ns3:cad>0</ns3:cad>
          </ns3:TrackPointExtension>
        </extensions>
      </trkpt>
      <trkpt lat="43.47183982841670513153076171875" lon="1.432057209312915802001953125">
        <ele>253.600006103515625</ele>
        <time>2026-08-05T10:01:24.000Z</time>
        <extensions>
          <ns3:TrackPointExtension>
            <ns3:hr>65</ns3:hr>
            <ns3:cad>0</ns3:cad>
          </ns3:TrackPointExtension>
        </extensions>
      </trkpt>
      <trkpt lat="43.47183982841670513153076171875" lon="1.432057209312915802001953125">
        <ele>253.600006103515625</ele>
        <time>2026-08-05T10:01:25.000Z</time>
        <extensions>
          <ns3:TrackPointExtension>
            <ns3:hr>65</ns3:hr>
            <ns3:cad>0</ns3:cad>
          </ns3:TrackPointExtension>
        </extensions>
      </trkpt>
      <trkpt lat="43.47183982841670513153076171875" lon="1.432057209312915802001953125">
        <ele>253.600006103515625</ele>
        <time>2026-08-05T10:01:26.000Z</time>
        <extensions>
          <ns3:TrackPointExtension>
            <ns3:hr>65</ns3:hr>
            <ns3:cad>0</ns3:cad>
          </ns3:TrackPointExtension>
        </extensions>
      </trkpt>
      <trkpt lat="43.47183982841670513153076171875" lon="1.432057209312915802001953125">
        <ele>253.399993896484375</ele>
        <time>2026-08-05T10:01:27.000Z</time>
        <extensions>
          <ns3:TrackPointExtension>
            <ns3:hr>65</ns3:hr>
            <ns3:cad>0</ns3:cad>
          </ns3:TrackPointExtension>
        </extensions>
      </trkpt>
      <trkpt lat="43.47183982841670513153076171875" lon="1.432057209312915802001953125">
        <ele>253.399993896484375</ele>
        <time>2026-08-05T10:01:28.000Z</time>
        <extensions>
          <ns3:TrackPointExtension>
            <ns3:hr>64</ns3:hr>
            <ns3:cad>0</ns3:cad>
          </ns3:TrackPointExtension>
        </extensions>
      </trkpt>
      <trkpt lat="43.47183982841670513153076171875" lon="1.432057209312915802001953125">
        <ele>253.1999969482421875</ele>
        <time>2026-08-05T10:01:29.000Z</time>
        <extensions>
          <ns3:TrackPointExtension>
            <ns3:hr>64</ns3:hr>
            <ns3:cad>0</ns3:cad>
          </ns3:TrackPointExtension>
        </extensions>
      </trkpt>
      <trkpt lat="43.47183982841670513153076171875" lon="1.432057209312915802001953125">
        <ele>253.1999969482421875</ele>
        <time>2026-08-05T10:01:30.000Z</time>
        <extensions>
          <ns3:TrackPointExtension>
            <ns3:hr>64</ns3:hr>
            <ns3:cad>0</ns3:cad>
          </ns3:TrackPointExtension>
        </extensions>
      </trkpt>
      <trkpt lat="43.47183982841670513153076171875" lon="1.432057209312915802001953125">
        <ele>253.399993896484375</ele>
        <time>2026-08-05T10:01:31.000Z</time>
        <extensions>
          <ns3:TrackPointExtension>
            <ns3:hr>64</ns3:hr>
            <ns3:cad>0</ns3:cad>
          </ns3:TrackPointExtension>
        </extensions>
      </trkpt>
      <trkpt lat="43.47183982841670513153076171875" lon="1.432057209312915802001953125">
        <ele>253.399993896484375</ele>
        <time>2026-08-05T10:01:32.000Z</time>
        <extensions>
          <ns3:TrackPointExtension>
            <ns3:hr>65</ns3:hr>
            <ns3:cad>0</ns3:cad>
          </ns3:TrackPointExtension>
        </extensions>
      </trkpt>
      <trkpt lat="43.47183982841670513153076171875" lon="1.432057209312915802001953125">
        <ele>253.600006103515625</ele>
        <time>2026-08-05T10:01:33.000Z</time>
        <extensions>
          <ns3:TrackPointExtension>
            <ns3:hr>66</ns3:hr>
            <ns3:cad>0</ns3:cad>
          </ns3:TrackPointExtension>
        </extensions>
      </trkpt>
      <trkpt lat="43.47183982841670513153076171875" lon="1.432057209312915802001953125">
        <ele>253.600006103515625</ele>
        <time>2026-08-05T10:01:34.000Z</time>
        <extensions>
          <ns3:TrackPointExtension>
            <ns3:hr>66</ns3:hr>
            <ns3:cad>0</ns3:cad>
          </ns3:TrackPointExtension>
        </extensions>
      </trkpt>
      <trkpt lat="43.47183982841670513153076171875" lon="1.432057209312915802001953125">
        <ele>253.600006103515625</ele>
        <time>2026-08-05T10:01:35.000Z</time>
        <extensions>
          <ns3:TrackPointExtension>
            <ns3:hr>66</ns3:hr>
            <ns3:cad>0</ns3:cad>
          </ns3:TrackPointExtension>
        </extensions>
      </trkpt>
      <trkpt lat="43.47183982841670513153076171875" lon="1.432057209312915802001953125">
        <ele>253.600006103515625</ele>
        <time>2026-08-05T10:01:36.000Z</time>
        <extensions>
          <ns3:TrackPointExtension>
            <ns3:hr>65</ns3:hr>
            <ns3:cad>0</ns3:cad>
          </ns3:TrackPointExtension>
        </extensions>
      </trkpt>
      <trkpt lat="43.47183982841670513153076171875" lon="1.432057209312915802001953125">
        <ele>253.600006103515625</ele>
        <time>2026-08-05T10:01:37.000Z</time>
        <extensions>
          <ns3:TrackPointExtension>
            <ns3:hr>65</ns3:hr>
            <ns3:cad>0</ns3:cad>
          </ns3:TrackPointExtension>
        </extensions>
      </trkpt>
      <trkpt lat="43.47183982841670513153076171875" lon="1.432057209312915802001953125">
        <ele>253.600006103515625</ele>
        <time>2026-08-05T10:01:38.000Z</time>
        <extensions>
          <ns3:TrackPointExtension>
            <ns3:hr>65</ns3:hr>
            <ns3:cad>0</ns3:cad>
          </ns3:TrackPointExtension>
        </extensions>
      </trkpt>
      <trkpt lat="43.47183982841670513153076171875" lon="1.432057209312915802001953125">
        <ele>253.8000030517578125</ele>
        <time>2026-08-05T10:01:39.000Z</time>
        <extensions>
          <ns3:TrackPointExtension>
            <ns3:hr>65</ns3:hr>
            <ns3:cad>0</ns3:cad>
          </ns3:TrackPointExtension>
        </extensions>
      </trkpt>
      <trkpt lat="43.47183982841670513153076171875" lon="1.432057209312915802001953125">
        <ele>253.8000030517578125</ele>
        <time>2026-08-05T10:01:40.000Z</time>
        <extensions>
          <ns3:TrackPointExtension>
            <ns3:hr>65</ns3:hr>
            <ns3:cad>0</ns3:cad>
          </ns3:TrackPointExtension>
        </extensions>
      </trkpt>
      <trkpt lat="43.47183982841670513153076171875" lon="1.432057209312915802001953125">
        <ele>253.8000030517578125</ele>
        <time>2026-08-05T10:01:41.000Z</time>
        <extensions>
          <ns3:TrackPointExtension>
            <ns3:hr>65</ns3:hr>
            <ns3:cad>0</ns3:cad>
          </ns3:TrackPointExtension>
        </extensions>
      </trkpt>
      <trkpt lat="43.47183982841670513153076171875" lon="1.432057209312915802001953125">
        <ele>253.8000030517578125</ele>
        <time>2026-08-05T10:01:42.000Z</time>
        <extensions>
          <ns3:TrackPointExtension>
            <ns3:hr>65</ns3:hr>
            <ns3:cad>0</ns3:cad>
          </ns3:TrackPointExtension>
        </extensions>
      </trkpt>
      <trkpt lat="43.47183982841670513153076171875" lon="1.432057209312915802001953125">
        <ele>253.8000030517578125</ele>
        <time>2026-08-05T10:01:43.000Z</time>
        <extensions>
          <ns3:TrackPointExtension>
            <ns3:hr>65</ns3:hr>
            <ns3:cad>0</ns3:cad>
          </ns3:TrackPointExtension>
        </extensions>
      </trkpt>
      <trkpt lat="43.47183982841670513153076171875" lon="1.432057209312915802001953125">
        <ele>253.8000030517578125</ele>
        <time>2026-08-05T10:01:44.000Z</time>
        <extensions>
          <ns3:TrackPointExtension>
            <ns3:hr>66</ns3:hr>
            <ns3:cad>0</ns3:cad>
          </ns3:TrackPointExtension>
        </extensions>
      </trkpt>
      <trkpt lat="43.47183982841670513153076171875" lon="1.432057209312915802001953125">
        <ele>253.8000030517578125</ele>
        <time>2026-08-05T10:01:45.000Z</time>
        <extensions>
          <ns3:TrackPointExtension>
            <ns3:hr>66</ns3:hr>
            <ns3:cad>0</ns3:cad>
          </ns3:TrackPointExtension>
        </extensions>
      </trkpt>
      <trkpt lat="43.47183982841670513153076171875" lon="1.432057209312915802001953125">
        <ele>253.8000030517578125</ele>
        <time>2026-08-05T10:01:46.000Z</time>
        <extensions>
          <ns3:TrackPointExtension>
            <ns3:hr>66</ns3:hr>
            <ns3:cad>0</ns3:cad>
          </ns3:TrackPointExtension>
        </extensions>
      </trkpt>
      <trkpt lat="43.47183982841670513153076171875" lon="1.432057209312915802001953125">
        <ele>253.8000030517578125</ele>
        <time>2026-08-05T10:01:47.000Z</time>
        <extensions>
          <ns3:TrackPointExtension>
            <ns3:hr>66</ns3:hr>
            <ns3:cad>0</ns3:cad>
          </ns3:TrackPointExtension>
        </extensions>
      </trkpt>
      <trkpt lat="43.47183982841670513153076171875" lon="1.432057209312915802001953125">
        <ele>253.8000030517578125</ele>
        <time>2026-08-05T10:01:48.000Z</time>
        <extensions>
          <ns3:TrackPointExtension>
            <ns3:hr>66</ns3:hr>
            <ns3:cad>0</ns3:cad>
          </ns3:TrackPointExtension>
        </extensions>
      </trkpt>
      <trkpt lat="43.47183982841670513153076171875" lon="1.432057209312915802001953125">
        <ele>253.8000030517578125</ele>
        <time>2026-08-05T10:01:49.000Z</time>
        <extensions>
          <ns3:TrackPointExtension>
            <ns3:hr>66</ns3:hr>
            <ns3:cad>0</ns3:cad>
          </ns3:TrackPointExtension>
        </extensions>
      </trkpt>
      <trkpt lat="43.47183982841670513153076171875" lon="1.432057209312915802001953125">
        <ele>253.8000030517578125</ele>
        <time>2026-08-05T10:01:50.000Z</time>
        <extensions>
          <ns3:TrackPointExtension>
            <ns3:hr>65</ns3:hr>
            <ns3:cad>0</ns3:cad>
          </ns3:TrackPointExtension>
        </extensions>
      </trkpt>
      <trkpt lat="43.47183982841670513153076171875" lon="1.432057209312915802001953125">
        <ele>253.8000030517578125</ele>
        <time>2026-08-05T10:01:51.000Z</time>
        <extensions>
          <ns3:TrackPointExtension>
            <ns3:hr>65</ns3:hr>
            <ns3:cad>0</ns3:cad>
          </ns3:TrackPointExtension>
        </extensions>
      </trkpt>
      <trkpt lat="43.47183982841670513153076171875" lon="1.432057209312915802001953125">
        <ele>253.600006103515625</ele>
        <time>2026-08-05T10:01:52.000Z</time>
        <extensions>
          <ns3:TrackPointExtension>
            <ns3:hr>64</ns3:hr>
            <ns3:cad>0</ns3:cad>
          </ns3:TrackPointExtension>
        </extensions>
      </trkpt>
      <trkpt lat="43.47183982841670513153076171875" lon="1.432057209312915802001953125">
        <ele>253.600006103515625</ele>
        <time>2026-08-05T10:01:53.000Z</time>
        <extensions>
          <ns3:TrackPointExtension>
            <ns3:hr>60</ns3:hr>
            <ns3:cad>0</ns3:cad>
          </ns3:TrackPointExtension>
        </extensions>
      </trkpt>
      <trkpt lat="43.47183982841670513153076171875" lon="1.432057209312915802001953125">
        <ele>253.600006103515625</ele>
        <time>2026-08-05T10:01:54.000Z</time>
        <extensions>
          <ns3:TrackPointExtension>
            <ns3:hr>59</ns3:hr>
            <ns3:cad>0</ns3:cad>
          </ns3:TrackPointExtension>
        </extensions>
      </trkpt>
      <trkpt lat="43.47183982841670513153076171875" lon="1.432057209312915802001953125">
        <ele>253.600006103515625</ele>
        <time>2026-08-05T10:01:55.000Z</time>
        <extensions>
          <ns3:TrackPointExtension>
            <ns3:hr>59</ns3:hr>
            <ns3:cad>0</ns3:cad>
          </ns3:TrackPointExtension>
        </extensions>
      </trkpt>
      <trkpt lat="43.47183982841670513153076171875" lon="1.432057209312915802001953125">
        <ele>253.600006103515625</ele>
        <time>2026-08-05T10:01:56.000Z</time>
        <extensions>
          <ns3:TrackPointExtension>
            <ns3:hr>59</ns3:hr>
            <ns3:cad>0</ns3:cad>
          </ns3:TrackPointExtension>
        </extensions>
      </trkpt>
      <trkpt lat="43.47183982841670513153076171875" lon="1.432057209312915802001953125">
        <ele>253.600006103515625</ele>
        <time>2026-08-05T10:01:57.000Z</time>
        <extensions>
          <ns3:TrackPointExtension>
            <ns3:hr>59</ns3:hr>
            <ns3:cad>0</ns3:cad>
          </ns3:TrackPointExtension>
        </extensions>
      </trkpt>
      <trkpt lat="43.47183982841670513153076171875" lon="1.432057209312915802001953125">
        <ele>253.600006103515625</ele>
        <time>2026-08-05T10:01:58.000Z</time>
        <extensions>
          <ns3:TrackPointExtension>
            <ns3:hr>59</ns3:hr>
            <ns3:cad>0</ns3:cad>
          </ns3:TrackPointExtension>
        </extensions>
      </trkpt>
      <trkpt lat="43.47183982841670513153076171875" lon="1.432057209312915802001953125">
        <ele>253.600006103515625</ele>
        <time>2026-08-05T10:01:59.000Z</time>
        <extensions>
          <ns3:TrackPointExtension>
            <ns3:hr>59</ns3:hr>
            <ns3:cad>0</ns3:cad>
          </ns3:TrackPointExtension>
        </extensions>
      </trkpt>
      <trkpt lat="43.47183982841670513153076171875" lon="1.432057209312915802001953125">
        <ele>253.600006103515625</ele>
        <time>2026-08-05T10:02:00.000Z</time>
        <extensions>
          <ns3:TrackPointExtension>
            <ns3:hr>59</ns3:hr>
            <ns3:cad>0</ns3:cad>
          </ns3:TrackPointExtension>
        </extensions>
      </trkpt>
      <trkpt lat="43.47183982841670513153076171875" lon="1.432057209312915802001953125">
        <ele>253.8000030517578125</ele>
        <time>2026-08-05T10:02:01.000Z</time>
        <extensions>
          <ns3:TrackPointExtension>
            <ns3:hr>60</ns3:hr>
            <ns3:cad>0</ns3:cad>
          </ns3:TrackPointExtension>
        </extensions>
      </trkpt>
      <trkpt lat="43.47183982841670513153076171875" lon="1.432057209312915802001953125">
        <ele>253.600006103515625</ele>
        <time>2026-08-05T10:02:02.000Z</time>
        <extensions>
          <ns3:TrackPointExtension>
            <ns3:hr>62</ns3:hr>
            <ns3:cad>0</ns3:cad>
          </ns3:TrackPointExtension>
        </extensions>
      </trkpt>
      <trkpt lat="43.47183982841670513153076171875" lon="1.432057209312915802001953125">
        <ele>253.600006103515625</ele>
        <time>2026-08-05T10:02:03.000Z</time>
        <extensions>
          <ns3:TrackPointExtension>
            <ns3:hr>65</ns3:hr>
            <ns3:cad>0</ns3:cad>
          </ns3:TrackPointExtension>
        </extensions>
      </trkpt>
      <trkpt lat="43.47183982841670513153076171875" lon="1.432057209312915802001953125">
        <ele>253.8000030517578125</ele>
        <time>2026-08-05T10:02:04.000Z</time>
        <extensions>
          <ns3:TrackPointExtension>
            <ns3:hr>67</ns3:hr>
            <ns3:cad>0</ns3:cad>
          </ns3:TrackPointExtension>
        </extensions>
      </trkpt>
      <trkpt lat="43.47183982841670513153076171875" lon="1.432057209312915802001953125">
        <ele>253.8000030517578125</ele>
        <time>2026-08-05T10:02:05.000Z</time>
        <extensions>
          <ns3:TrackPointExtension>
            <ns3:hr>67</ns3:hr>
            <ns3:cad>0</ns3:cad>
          </ns3:TrackPointExtension>
        </extensions>
      </trkpt>
      <trkpt lat="43.47183982841670513153076171875" lon="1.432057209312915802001953125">
        <ele>253.8000030517578125</ele>
        <time>2026-08-05T10:02:06.000Z</time>
        <extensions>
          <ns3:TrackPointExtension>
            <ns3:hr>67</ns3:hr>
            <ns3:cad>0</ns3:cad>
          </ns3:TrackPointExtension>
        </extensions>
      </trkpt>
      <trkpt lat="43.47183982841670513153076171875" lon="1.432057209312915802001953125">
        <ele>253.600006103515625</ele>
        <time>2026-08-05T10:02:07.000Z</time>
        <extensions>
          <ns3:TrackPointExtension>
            <ns3:hr>68</ns3:hr>
            <ns3:cad>0</ns3:cad>
          </ns3:TrackPointExtension>
        </extensions>
      </trkpt>
      <trkpt lat="43.47183982841670513153076171875" lon="1.432057209312915802001953125">
        <ele>253.600006103515625</ele>
        <time>2026-08-05T10:02:08.000Z</time>
        <extensions>
          <ns3:TrackPointExtension>
            <ns3:hr>68</ns3:hr>
            <ns3:cad>0</ns3:cad>
          </ns3:TrackPointExtension>
        </extensions>
      </trkpt>
      <trkpt lat="43.47183982841670513153076171875" lon="1.432057209312915802001953125">
        <ele>253.600006103515625</ele>
        <time>2026-08-05T10:02:09.000Z</time>
        <extensions>
          <ns3:TrackPointExtension>
            <ns3:hr>69</ns3:hr>
            <ns3:cad>0</ns3:cad>
          </ns3:TrackPointExtension>
        </extensions>
      </trkpt>
      <trkpt lat="43.47183982841670513153076171875" lon="1.432057209312915802001953125">
        <ele>253.399993896484375</ele>
        <time>2026-08-05T10:02:10.000Z</time>
        <extensions>
          <ns3:TrackPointExtension>
            <ns3:hr>68</ns3:hr>
            <ns3:cad>0</ns3:cad>
          </ns3:TrackPointExtension>
        </extensions>
      </trkpt>
      <trkpt lat="43.47183982841670513153076171875" lon="1.432057209312915802001953125">
        <ele>253.399993896484375</ele>
        <time>2026-08-05T10:02:11.000Z</time>
        <extensions>
          <ns3:TrackPointExtension>
            <ns3:hr>68</ns3:hr>
            <ns3:cad>0</ns3:cad>
          </ns3:TrackPointExtension>
        </extensions>
      </trkpt>
      <trkpt lat="43.47183982841670513153076171875" lon="1.432057209312915802001953125">
        <ele>253.399993896484375</ele>
        <time>2026-08-05T10:02:12.000Z</time>
        <extensions>
          <ns3:TrackPointExtension>
            <ns3:hr>68</ns3:hr>
            <ns3:cad>0</ns3:cad>
          </ns3:TrackPointExtension>
        </extensions>
      </trkpt>
      <trkpt lat="43.47183982841670513153076171875" lon="1.432057209312915802001953125">
        <ele>253.399993896484375</ele>
        <time>2026-08-05T10:02:13.000Z</time>
        <extensions>
          <ns3:TrackPointExtension>
            <ns3:hr>69</ns3:hr>
            <ns3:cad>0</ns3:cad>
          </ns3:TrackPointExtension>
        </extensions>
      </trkpt>
      <trkpt lat="43.47183982841670513153076171875" lon="1.432057209312915802001953125">
        <ele>253.399993896484375</ele>
        <time>2026-08-05T10:02:14.000Z</time>
        <extensions>
          <ns3:TrackPointExtension>
            <ns3:hr>69</ns3:hr>
            <ns3:cad>0</ns3:cad>
          </ns3:TrackPointExtension>
        </extensions>
      </trkpt>
      <trkpt lat="43.47183982841670513153076171875" lon="1.432057209312915802001953125">
        <ele>253.399993896484375</ele>
        <time>2026-08-05T10:02:15.000Z</time>
        <extensions>
          <ns3:TrackPointExtension>
            <ns3:hr>69</ns3:hr>
            <ns3:cad>0</ns3:cad>
          </ns3:TrackPointExtension>
        </extensions>
      </trkpt>
      <trkpt lat="43.47183982841670513153076171875" lon="1.432057209312915802001953125">
        <ele>253.399993896484375</ele>
        <time>2026-08-05T10:02:16.000Z</time>
        <extensions>
          <ns3:TrackPointExtension>
            <ns3:hr>69</ns3:hr>
            <ns3:cad>0</ns3:cad>
          </ns3:TrackPointExtension>
        </extensions>
      </trkpt>
      <trkpt lat="43.47183982841670513153076171875" lon="1.432057209312915802001953125">
        <ele>253.399993896484375</ele>
        <time>2026-08-05T10:02:17.000Z</time>
        <extensions>
          <ns3:TrackPointExtension>
            <ns3:hr>69</ns3:hr>
            <ns3:cad>0</ns3:cad>
          </ns3:TrackPointExtension>
        </extensions>
      </trkpt>
      <trkpt lat="43.47183982841670513153076171875" lon="1.432057209312915802001953125">
        <ele>253.399993896484375</ele>
        <time>2026-08-05T10:02:18.000Z</time>
        <extensions>
          <ns3:TrackPointExtension>
            <ns3:hr>69</ns3:hr>
            <ns3:cad>0</ns3:cad>
          </ns3:TrackPointExtension>
        </extensions>
      </trkpt>
      <trkpt lat="43.47183982841670513153076171875" lon="1.432057209312915802001953125">
        <ele>253.399993896484375</ele>
        <time>2026-08-05T10:02:19.000Z</time>
        <extensions>
          <ns3:TrackPointExtension>
            <ns3:hr>69</ns3:hr>
            <ns3:cad>0</ns3:cad>
          </ns3:TrackPointExtension>
        </extensions>
      </trkpt>
      <trkpt lat="43.47183982841670513153076171875" lon="1.432057209312915802001953125">
        <ele>253.399993896484375</ele>
        <time>2026-08-05T10:02:20.000Z</time>
        <extensions>
          <ns3:TrackPointExtension>
            <ns3:hr>68</ns3:hr>
            <ns3:cad>0</ns3:cad>
          </ns3:TrackPointExtension>
        </extensions>
      </trkpt>
      <trkpt lat="43.47183982841670513153076171875" lon="1.432057209312915802001953125">
        <ele>253.399993896484375</ele>
        <time>2026-08-05T10:02:21.000Z</time>
        <extensions>
          <ns3:TrackPointExtension>
            <ns3:hr>67</ns3:hr>
            <ns3:cad>0</ns3:cad>
          </ns3:TrackPointExtension>
        </extensions>
      </trkpt>
      <trkpt lat="43.47183982841670513153076171875" lon="1.432057209312915802001953125">
        <ele>253.399993896484375</ele>
        <time>2026-08-05T10:02:22.000Z</time>
        <extensions>
          <ns3:TrackPointExtension>
            <ns3:hr>65</ns3:hr>
            <ns3:cad>0</ns3:cad>
          </ns3:TrackPointExtension>
        </extensions>
      </trkpt>
      <trkpt lat="43.47183982841670513153076171875" lon="1.432057209312915802001953125">
        <ele>253.399993896484375</ele>
        <time>2026-08-05T10:02:23.000Z</time>
        <extensions>
          <ns3:TrackPointExtension>
            <ns3:hr>62</ns3:hr>
            <ns3:cad>0</ns3:cad>
          </ns3:TrackPointExtension>
        </extensions>
      </trkpt>
      <trkpt lat="43.47183982841670513153076171875" lon="1.432057209312915802001953125">
        <ele>253.1999969482421875</ele>
        <time>2026-08-05T10:02:24.000Z</time>
        <extensions>
          <ns3:TrackPointExtension>
            <ns3:hr>62</ns3:hr>
            <ns3:cad>0</ns3:cad>
          </ns3:TrackPointExtension>
        </extensions>
      </trkpt>
      <trkpt lat="43.47183982841670513153076171875" lon="1.432057209312915802001953125">
        <ele>253.1999969482421875</ele>
        <time>2026-08-05T10:02:25.000Z</time>
        <extensions>
          <ns3:TrackPointExtension>
            <ns3:hr>61</ns3:hr>
            <ns3:cad>0</ns3:cad>
          </ns3:TrackPointExtension>
        </extensions>
      </trkpt>
      <trkpt lat="43.47183982841670513153076171875" lon="1.432057209312915802001953125">
        <ele>253.1999969482421875</ele>
        <time>2026-08-05T10:02:26.000Z</time>
        <extensions>
          <ns3:TrackPointExtension>
            <ns3:hr>61</ns3:hr>
            <ns3:cad>0</ns3:cad>
          </ns3:TrackPointExtension>
        </extensions>
      </trkpt>
      <trkpt lat="43.47183982841670513153076171875" lon="1.432057209312915802001953125">
        <ele>253.1999969482421875</ele>
        <time>2026-08-05T10:02:27.000Z</time>
        <extensions>
          <ns3:TrackPointExtension>
            <ns3:hr>61</ns3:hr>
            <ns3:cad>0</ns3:cad>
          </ns3:TrackPointExtension>
        </extensions>
      </trkpt>
      <trkpt lat="43.47183982841670513153076171875" lon="1.432057209312915802001953125">
        <ele>253.399993896484375</ele>
        <time>2026-08-05T10:02:28.000Z</time>
        <extensions>
          <ns3:TrackPointExtension>
            <ns3:hr>62</ns3:hr>
            <ns3:cad>0</ns3:cad>
          </ns3:TrackPointExtension>
        </extensions>
      </trkpt>
      <trkpt lat="43.47183982841670513153076171875" lon="1.432057209312915802001953125">
        <ele>253.399993896484375</ele>
        <time>2026-08-05T10:02:29.000Z</time>
        <extensions>
          <ns3:TrackPointExtension>
            <ns3:hr>62</ns3:hr>
            <ns3:cad>0</ns3:cad>
          </ns3:TrackPointExtension>
        </extensions>
      </trkpt>
      <trkpt lat="43.47183982841670513153076171875" lon="1.432057209312915802001953125">
        <ele>253.399993896484375</ele>
        <time>2026-08-05T10:02:30.000Z</time>
        <extensions>
          <ns3:TrackPointExtension>
            <ns3:hr>63</ns3:hr>
            <ns3:cad>0</ns3:cad>
          </ns3:TrackPointExtension>
        </extensions>
      </trkpt>
      <trkpt lat="43.47183982841670513153076171875" lon="1.432057209312915802001953125">
        <ele>253.399993896484375</ele>
        <time>2026-08-05T10:02:31.000Z</time>
        <extensions>
          <ns3:TrackPointExtension>
            <ns3:hr>64</ns3:hr>
            <ns3:cad>0</ns3:cad>
          </ns3:TrackPointExtension>
        </extensions>
      </trkpt>
      <trkpt lat="43.47183982841670513153076171875" lon="1.432057209312915802001953125">
        <ele>253.399993896484375</ele>
        <time>2026-08-05T10:02:32.000Z</time>
        <extensions>
          <ns3:TrackPointExtension>
            <ns3:hr>64</ns3:hr>
            <ns3:cad>0</ns3:cad>
          </ns3:TrackPointExtension>
        </extensions>
      </trkpt>
      <trkpt lat="43.47183982841670513153076171875" lon="1.432057209312915802001953125">
        <ele>253.399993896484375</ele>
        <time>2026-08-05T10:02:33.000Z</time>
        <extensions>
          <ns3:TrackPointExtension>
            <ns3:hr>65</ns3:hr>
            <ns3:cad>0</ns3:cad>
          </ns3:TrackPointExtension>
        </extensions>
      </trkpt>
      <trkpt lat="43.47183982841670513153076171875" lon="1.432057209312915802001953125">
        <ele>253.600006103515625</ele>
        <time>2026-08-05T10:02:34.000Z</time>
        <extensions>
          <ns3:TrackPointExtension>
            <ns3:hr>65</ns3:hr>
            <ns3:cad>0</ns3:cad>
          </ns3:TrackPointExtension>
        </extensions>
      </trkpt>
      <trkpt lat="43.47183982841670513153076171875" lon="1.432057209312915802001953125">
        <ele>253.600006103515625</ele>
        <time>2026-08-05T10:02:35.000Z</time>
        <extensions>
          <ns3:TrackPointExtension>
            <ns3:hr>65</ns3:hr>
            <ns3:cad>0</ns3:cad>
          </ns3:TrackPointExtension>
        </extensions>
      </trkpt>
      <trkpt lat="43.47183982841670513153076171875" lon="1.432057209312915802001953125">
        <ele>253.600006103515625</ele>
        <time>2026-08-05T10:02:36.000Z</time>
        <extensions>
          <ns3:TrackPointExtension>
            <ns3:hr>65</ns3:hr>
            <ns3:cad>0</ns3:cad>
          </ns3:TrackPointExtension>
        </extensions>
      </trkpt>
      <trkpt lat="43.47183982841670513153076171875" lon="1.432057209312915802001953125">
        <ele>253.600006103515625</ele>
        <time>2026-08-05T10:02:37.000Z</time>
        <extensions>
          <ns3:TrackPointExtension>
            <ns3:hr>65</ns3:hr>
            <ns3:cad>0</ns3:cad>
          </ns3:TrackPointExtension>
        </extensions>
      </trkpt>
      <trkpt lat="43.47183982841670513153076171875" lon="1.432057209312915802001953125">
        <ele>253.600006103515625</ele>
        <time>2026-08-05T10:02:38.000Z</time>
        <extensions>
          <ns3:TrackPointExtension>
            <ns3:hr>65</ns3:hr>
            <ns3:cad>0</ns3:cad>
          </ns3:TrackPointExtension>
        </extensions>
      </trkpt>
      <trkpt lat="43.47183982841670513153076171875" lon="1.432057209312915802001953125">
        <ele>253.600006103515625</ele>
        <time>2026-08-05T10:02:39.000Z</time>
        <extensions>
          <ns3:TrackPointExtension>
            <ns3:hr>65</ns3:hr>
            <ns3:cad>0</ns3:cad>
          </ns3:TrackPointExtension>
        </extensions>
      </trkpt>
      <trkpt lat="43.47183982841670513153076171875" lon="1.432057209312915802001953125">
        <ele>253.399993896484375</ele>
        <time>2026-08-05T10:02:40.000Z</time>
        <extensions>
          <ns3:TrackPointExtension>
            <ns3:hr>66</ns3:hr>
            <ns3:cad>0</ns3:cad>
          </ns3:TrackPointExtension>
        </extensions>
      </trkpt>
      <trkpt lat="43.47183982841670513153076171875" lon="1.432057209312915802001953125">
        <ele>253.399993896484375</ele>
        <time>2026-08-05T10:02:41.000Z</time>
        <extensions>
          <ns3:TrackPointExtension>
            <ns3:hr>67</ns3:hr>
            <ns3:cad>0</ns3:cad>
          </ns3:TrackPointExtension>
        </extensions>
      </trkpt>
      <trkpt lat="43.47183982841670513153076171875" lon="1.432057209312915802001953125">
        <ele>253.399993896484375</ele>
        <time>2026-08-05T10:02:42.000Z</time>
        <extensions>
          <ns3:TrackPointExtension>
            <ns3:hr>68</ns3:hr>
            <ns3:cad>0</ns3:cad>
          </ns3:TrackPointExtension>
        </extensions>
      </trkpt>
      <trkpt lat="43.47184033133089542388916015625" lon="1.43206215463578701019287109375">
        <ele>253.399993896484375</ele>
        <time>2026-08-05T10:02:43.000Z</time>
        <extensions>
          <ns3:TrackPointExtension>
            <ns3:hr>70</ns3:hr>
            <ns3:cad>0</ns3:cad>
          </ns3:TrackPointExtension>
        </extensions>
      </trkpt>
      <trkpt lat="43.4718363918364048004150390625" lon="1.43206081353127956390380859375">
        <ele>253.399993896484375</ele>
        <time>2026-08-05T10:02:44.000Z</time>
        <extensions>
          <ns3:TrackPointExtension>
            <ns3:hr>72</ns3:hr>
            <ns3:cad>0</ns3:cad>
          </ns3:TrackPointExtension>
        </extensions>
      </trkpt>
      <trkpt lat="43.47183915786445140838623046875" lon="1.43205896951258182525634765625">
        <ele>253.399993896484375</ele>
        <time>2026-08-05T10:02:45.000Z</time>
        <extensions>
          <ns3:TrackPointExtension>
            <ns3:hr>73</ns3:hr>
            <ns3:cad>0</ns3:cad>
          </ns3:TrackPointExtension>
        </extensions>
      </trkpt>
      <trkpt lat="43.47184033133089542388916015625" lon="1.432063244283199310302734375">
        <ele>253.600006103515625</ele>
        <time>2026-08-05T10:02:46.000Z</time>
        <extensions>
          <ns3:TrackPointExtension>
            <ns3:hr>74</ns3:hr>
            <ns3:cad>0</ns3:cad>
          </ns3:TrackPointExtension>
        </extensions>
      </trkpt>
      <trkpt lat="43.47183899022638797760009765625" lon="1.43206483684480190277099609375">
        <ele>253.600006103515625</ele>
        <time>2026-08-05T10:02:47.000Z</time>
        <extensions>
          <ns3:TrackPointExtension>
            <ns3:hr>74</ns3:hr>
            <ns3:cad>0</ns3:cad>
          </ns3:TrackPointExtension>
        </extensions>
      </trkpt>
      <trkpt lat="43.47184100188314914703369140625" lon="1.4320630766451358795166015625">
        <ele>253.600006103515625</ele>
        <time>2026-08-05T10:02:48.000Z</time>
        <extensions>
          <ns3:TrackPointExtension>
            <ns3:hr>74</ns3:hr>
            <ns3:cad>0</ns3:cad>
          </ns3:TrackPointExtension>
        </extensions>
      </trkpt>
      <trkpt lat="43.47184368409216403961181640625" lon="1.43206114880740642547607421875">
        <ele>253.600006103515625</ele>
        <time>2026-08-05T10:02:49.000Z</time>
        <extensions>
          <ns3:TrackPointExtension>
            <ns3:hr>74</ns3:hr>
            <ns3:cad>0</ns3:cad>
          </ns3:TrackPointExtension>
        </extensions>
      </trkpt>
      <trkpt lat="43.47184468992054462432861328125" lon="1.43206014297902584075927734375">
        <ele>253.600006103515625</ele>
        <time>2026-08-05T10:02:50.000Z</time>
        <extensions>
          <ns3:TrackPointExtension>
            <ns3:hr>74</ns3:hr>
            <ns3:cad>0</ns3:cad>
          </ns3:TrackPointExtension>
        </extensions>
      </trkpt>
      <trkpt lat="43.47184485755860805511474609375" lon="1.4320593886077404022216796875">
        <ele>253.600006103515625</ele>
        <time>2026-08-05T10:02:51.000Z</time>
        <extensions>
          <ns3:TrackPointExtension>
            <ns3:hr>73</ns3:hr>
            <ns3:cad>0</ns3:cad>
          </ns3:TrackPointExtension>
        </extensions>
      </trkpt>
      <trkpt lat="43.4718447737395763397216796875" lon="1.4320523478090763092041015625">
        <ele>253.600006103515625</ele>
        <time>2026-08-05T10:02:52.000Z</time>
        <extensions>
          <ns3:TrackPointExtension>
            <ns3:hr>72</ns3:hr>
            <ns3:cad>0</ns3:cad>
          </ns3:TrackPointExtension>
        </extensions>
      </trkpt>
      <trkpt lat="43.47183982841670513153076171875" lon="1.432057209312915802001953125">
        <ele>253.600006103515625</ele>
        <time>2026-08-05T10:02:53.000Z</time>
        <extensions>
          <ns3:TrackPointExtension>
            <ns3:hr>71</ns3:hr>
            <ns3:cad>0</ns3:cad>
          </ns3:TrackPointExtension>
        </extensions>
      </trkpt>
      <trkpt lat="43.47183982841670513153076171875" lon="1.432057209312915802001953125">
        <ele>253.8000030517578125</ele>
        <time>2026-08-05T10:02:54.000Z</time>
        <extensions>
          <ns3:TrackPointExtension>
            <ns3:hr>69</ns3:hr>
            <ns3:cad>0</ns3:cad>
          </ns3:TrackPointExtension>
        </extensions>
      </trkpt>
      <trkpt lat="43.47183982841670513153076171875" lon="1.432057209312915802001953125">
        <ele>253.8000030517578125</ele>
        <time>2026-08-05T10:02:55.000Z</time>
        <extensions>
          <ns3:TrackPointExtension>
            <ns3:hr>69</ns3:hr>
            <ns3:cad>0</ns3:cad>
          </ns3:TrackPointExtension>
        </extensions>
      </trkpt>
      <trkpt lat="43.47183982841670513153076171875" lon="1.432057209312915802001953125">
        <ele>253.8000030517578125</ele>
        <time>2026-08-05T10:02:56.000Z</time>
        <extensions>
          <ns3:TrackPointExtension>
            <ns3:hr>68</ns3:hr>
            <ns3:cad>0</ns3:cad>
          </ns3:TrackPointExtension>
        </extensions>
      </trkpt>
      <trkpt lat="43.47183982841670513153076171875" lon="1.432057209312915802001953125">
        <ele>253.600006103515625</ele>
        <time>2026-08-05T10:02:57.000Z</time>
        <extensions>
          <ns3:TrackPointExtension>
            <ns3:hr>68</ns3:hr>
            <ns3:cad>0</ns3:cad>
          </ns3:TrackPointExtension>
        </extensions>
      </trkpt>
      <trkpt lat="43.47183982841670513153076171875" lon="1.432057209312915802001953125">
        <ele>253.600006103515625</ele>
        <time>2026-08-05T10:02:58.000Z</time>
        <extensions>
          <ns3:TrackPointExtension>
            <ns3:hr>68</ns3:hr>
            <ns3:cad>0</ns3:cad>
          </ns3:TrackPointExtension>
        </extensions>
      </trkpt>
      <trkpt lat="43.47183982841670513153076171875" lon="1.432057209312915802001953125">
        <ele>253.399993896484375</ele>
        <time>2026-08-05T10:02:59.000Z</time>
        <extensions>
          <ns3:TrackPointExtension>
            <ns3:hr>68</ns3:hr>
            <ns3:cad>0</ns3:cad>
          </ns3:TrackPointExtension>
        </extensions>
      </trkpt>
      <trkpt lat="43.47183982841670513153076171875" lon="1.432057209312915802001953125">
        <ele>253.399993896484375</ele>
        <time>2026-08-05T10:03:00.000Z</time>
        <extensions>
          <ns3:TrackPointExtension>
            <ns3:hr>68</ns3:hr>
            <ns3:cad>0</ns3:cad>
          </ns3:TrackPointExtension>
        </extensions>
      </trkpt>
      <trkpt lat="43.47183982841670513153076171875" lon="1.432057209312915802001953125">
        <ele>253.399993896484375</ele>
        <time>2026-08-05T10:03:01.000Z</time>
        <extensions>
          <ns3:TrackPointExtension>
            <ns3:hr>68</ns3:hr>
            <ns3:cad>0</ns3:cad>
          </ns3:TrackPointExtension>
        </extensions>
      </trkpt>
      <trkpt lat="43.47183982841670513153076171875" lon="1.432057209312915802001953125">
        <ele>253.399993896484375</ele>
        <time>2026-08-05T10:03:02.000Z</time>
        <extensions>
          <ns3:TrackPointExtension>
            <ns3:hr>67</ns3:hr>
            <ns3:cad>0</ns3:cad>
          </ns3:TrackPointExtension>
        </extensions>
      </trkpt>
      <trkpt lat="43.47183982841670513153076171875" lon="1.432057209312915802001953125">
        <ele>253.399993896484375</ele>
        <time>2026-08-05T10:03:03.000Z</time>
        <extensions>
          <ns3:TrackPointExtension>
            <ns3:hr>67</ns3:hr>
            <ns3:cad>0</ns3:cad>
          </ns3:TrackPointExtension>
        </extensions>
      </trkpt>
      <trkpt lat="43.47183982841670513153076171875" lon="1.432057209312915802001953125">
        <ele>253.399993896484375</ele>
        <time>2026-08-05T10:03:04.000Z</time>
        <extensions>
          <ns3:TrackPointExtension>
            <ns3:hr>66</ns3:hr>
            <ns3:cad>0</ns3:cad>
          </ns3:TrackPointExtension>
        </extensions>
      </trkpt>
      <trkpt lat="43.47183982841670513153076171875" lon="1.432057209312915802001953125">
        <ele>253.399993896484375</ele>
        <time>2026-08-05T10:03:05.000Z</time>
        <extensions>
          <ns3:TrackPointExtension>
            <ns3:hr>66</ns3:hr>
            <ns3:cad>0</ns3:cad>
          </ns3:TrackPointExtension>
        </extensions>
      </trkpt>
      <trkpt lat="43.47183982841670513153076171875" lon="1.432057209312915802001953125">
        <ele>253.399993896484375</ele>
        <time>2026-08-05T10:03:06.000Z</time>
        <extensions>
          <ns3:TrackPointExtension>
            <ns3:hr>65</ns3:hr>
            <ns3:cad>0</ns3:cad>
          </ns3:TrackPointExtension>
        </extensions>
      </trkpt>
      <trkpt lat="43.47183982841670513153076171875" lon="1.432057209312915802001953125">
        <ele>253.600006103515625</ele>
        <time>2026-08-05T10:03:07.000Z</time>
        <extensions>
          <ns3:TrackPointExtension>
            <ns3:hr>66</ns3:hr>
            <ns3:cad>0</ns3:cad>
          </ns3:TrackPointExtension>
        </extensions>
      </trkpt>
      <trkpt lat="43.47183982841670513153076171875" lon="1.432057209312915802001953125">
        <ele>253.600006103515625</ele>
        <time>2026-08-05T10:03:08.000Z</time>
        <extensions>
          <ns3:TrackPointExtension>
            <ns3:hr>66</ns3:hr>
            <ns3:cad>0</ns3:cad>
          </ns3:TrackPointExtension>
        </extensions>
      </trkpt>
      <trkpt lat="43.47183982841670513153076171875" lon="1.432057209312915802001953125">
        <ele>253.600006103515625</ele>
        <time>2026-08-05T10:03:09.000Z</time>
        <extensions>
          <ns3:TrackPointExtension>
            <ns3:hr>66</ns3:hr>
            <ns3:cad>0</ns3:cad>
          </ns3:TrackPointExtension>
        </extensions>
      </trkpt>
      <trkpt lat="43.47183982841670513153076171875" lon="1.432057209312915802001953125">
        <ele>253.600006103515625</ele>
        <time>2026-08-05T10:03:10.000Z</time>
        <extensions>
          <ns3:TrackPointExtension>
            <ns3:hr>65</ns3:hr>
            <ns3:cad>0</ns3:cad>
          </ns3:TrackPointExtension>
        </extensions>
      </trkpt>
      <trkpt lat="43.47183982841670513153076171875" lon="1.432057209312915802001953125">
        <ele>253.600006103515625</ele>
        <time>2026-08-05T10:03:11.000Z</time>
        <extensions>
          <ns3:TrackPointExtension>
            <ns3:hr>65</ns3:hr>
            <ns3:cad>0</ns3:cad>
          </ns3:TrackPointExtension>
        </extensions>
      </trkpt>
      <trkpt lat="43.47183982841670513153076171875" lon="1.432057209312915802001953125">
        <ele>253.399993896484375</ele>
        <time>2026-08-05T10:03:12.000Z</time>
        <extensions>
          <ns3:TrackPointExtension>
            <ns3:hr>64</ns3:hr>
            <ns3:cad>0</ns3:cad>
          </ns3:TrackPointExtension>
        </extensions>
      </trkpt>
      <trkpt lat="43.47183982841670513153076171875" lon="1.432057209312915802001953125">
        <ele>253.399993896484375</ele>
        <time>2026-08-05T10:03:13.000Z</time>
        <extensions>
          <ns3:TrackPointExtension>
            <ns3:hr>63</ns3:hr>
            <ns3:cad>0</ns3:cad>
          </ns3:TrackPointExtension>
        </extensions>
      </trkpt>
      <trkpt lat="43.47183982841670513153076171875" lon="1.432057209312915802001953125">
        <ele>253.399993896484375</ele>
        <time>2026-08-05T10:03:14.000Z</time>
        <extensions>
          <ns3:TrackPointExtension>
            <ns3:hr>60</ns3:hr>
            <ns3:cad>0</ns3:cad>
          </ns3:TrackPointExtension>
        </extensions>
      </trkpt>
      <trkpt lat="43.47183982841670513153076171875" lon="1.432057209312915802001953125">
        <ele>253.399993896484375</ele>
        <time>2026-08-05T10:03:15.000Z</time>
        <extensions>
          <ns3:TrackPointExtension>
            <ns3:hr>59</ns3:hr>
            <ns3:cad>0</ns3:cad>
          </ns3:TrackPointExtension>
        </extensions>
      </trkpt>
      <trkpt lat="43.47183982841670513153076171875" lon="1.432057209312915802001953125">
        <ele>253.399993896484375</ele>
        <time>2026-08-05T10:03:16.000Z</time>
        <extensions>
          <ns3:TrackPointExtension>
            <ns3:hr>59</ns3:hr>
            <ns3:cad>0</ns3:cad>
          </ns3:TrackPointExtension>
        </extensions>
      </trkpt>
      <trkpt lat="43.47183982841670513153076171875" lon="1.432057209312915802001953125">
        <ele>253.399993896484375</ele>
        <time>2026-08-05T10:03:17.000Z</time>
        <extensions>
          <ns3:TrackPointExtension>
            <ns3:hr>60</ns3:hr>
            <ns3:cad>0</ns3:cad>
          </ns3:TrackPointExtension>
        </extensions>
      </trkpt>
      <trkpt lat="43.47183982841670513153076171875" lon="1.432057209312915802001953125">
        <ele>253.399993896484375</ele>
        <time>2026-08-05T10:03:18.000Z</time>
        <extensions>
          <ns3:TrackPointExtension>
            <ns3:hr>59</ns3:hr>
            <ns3:cad>0</ns3:cad>
          </ns3:TrackPointExtension>
        </extensions>
      </trkpt>
      <trkpt lat="43.47183982841670513153076171875" lon="1.432057209312915802001953125">
        <ele>253.399993896484375</ele>
        <time>2026-08-05T10:03:19.000Z</time>
        <extensions>
          <ns3:TrackPointExtension>
            <ns3:hr>59</ns3:hr>
            <ns3:cad>0</ns3:cad>
          </ns3:TrackPointExtension>
        </extensions>
      </trkpt>
      <trkpt lat="43.47183982841670513153076171875" lon="1.432057209312915802001953125">
        <ele>253.399993896484375</ele>
        <time>2026-08-05T10:03:20.000Z</time>
        <extensions>
          <ns3:TrackPointExtension>
            <ns3:hr>59</ns3:hr>
            <ns3:cad>0</ns3:cad>
          </ns3:TrackPointExtension>
        </extensions>
      </trkpt>
      <trkpt lat="43.47183982841670513153076171875" lon="1.432057209312915802001953125">
        <ele>253.399993896484375</ele>
        <time>2026-08-05T10:03:21.000Z</time>
        <extensions>
          <ns3:TrackPointExtension>
            <ns3:hr>59</ns3:hr>
            <ns3:cad>0</ns3:cad>
          </ns3:TrackPointExtension>
        </extensions>
      </trkpt>
      <trkpt lat="43.47183982841670513153076171875" lon="1.432057209312915802001953125">
        <ele>253.399993896484375</ele>
        <time>2026-08-05T10:03:22.000Z</time>
        <extensions>
          <ns3:TrackPointExtension>
            <ns3:hr>59</ns3:hr>
            <ns3:cad>0</ns3:cad>
          </ns3:TrackPointExtension>
        </extensions>
      </trkpt>
      <trkpt lat="43.47183982841670513153076171875" lon="1.432057209312915802001953125">
        <ele>253.399993896484375</ele>
        <time>2026-08-05T10:03:23.000Z</time>
        <extensions>
          <ns3:TrackPointExtension>
            <ns3:hr>60</ns3:hr>
            <ns3:cad>0</ns3:cad>
          </ns3:TrackPointExtension>
        </extensions>
      </trkpt>
      <trkpt lat="43.47183982841670513153076171875" lon="1.432057209312915802001953125">
        <ele>253.399993896484375</ele>
        <time>2026-08-05T10:03:24.000Z</time>
        <extensions>
          <ns3:TrackPointExtension>
            <ns3:hr>61</ns3:hr>
            <ns3:cad>0</ns3:cad>
          </ns3:TrackPointExtension>
        </extensions>
      </trkpt>
      <trkpt lat="43.47183982841670513153076171875" lon="1.432057209312915802001953125">
        <ele>253.600006103515625</ele>
        <time>2026-08-05T10:03:25.000Z</time>
        <extensions>
          <ns3:TrackPointExtension>
            <ns3:hr>61</ns3:hr>
            <ns3:cad>0</ns3:cad>
          </ns3:TrackPointExtension>
        </extensions>
      </trkpt>
      <trkpt lat="43.47183982841670513153076171875" lon="1.432057209312915802001953125">
        <ele>253.600006103515625</ele>
        <time>2026-08-05T10:03:26.000Z</time>
        <extensions>
          <ns3:TrackPointExtension>
            <ns3:hr>61</ns3:hr>
            <ns3:cad>0</ns3:cad>
          </ns3:TrackPointExtension>
        </extensions>
      </trkpt>
      <trkpt lat="43.47183982841670513153076171875" lon="1.432057209312915802001953125">
        <ele>253.600006103515625</ele>
        <time>2026-08-05T10:03:27.000Z</time>
        <extensions>
          <ns3:TrackPointExtension>
            <ns3:hr>60</ns3:hr>
            <ns3:cad>0</ns3:cad>
          </ns3:TrackPointExtension>
        </extensions>
      </trkpt>
      <trkpt lat="43.47183982841670513153076171875" lon="1.432057209312915802001953125">
        <ele>253.600006103515625</ele>
        <time>2026-08-05T10:03:28.000Z</time>
        <extensions>
          <ns3:TrackPointExtension>
            <ns3:hr>60</ns3:hr>
            <ns3:cad>0</ns3:cad>
          </ns3:TrackPointExtension>
        </extensions>
      </trkpt>
      <trkpt lat="43.47183982841670513153076171875" lon="1.432057209312915802001953125">
        <ele>253.600006103515625</ele>
        <time>2026-08-05T10:03:29.000Z</time>
        <extensions>
          <ns3:TrackPointExtension>
            <ns3:hr>59</ns3:hr>
            <ns3:cad>0</ns3:cad>
          </ns3:TrackPointExtension>
        </extensions>
      </trkpt>
      <trkpt lat="43.471840918064117431640625" lon="1.43205226399004459381103515625">
        <ele>253.600006103515625</ele>
        <time>2026-08-05T10:03:30.000Z</time>
        <extensions>
          <ns3:TrackPointExtension>
            <ns3:hr>59</ns3:hr>
            <ns3:cad>0</ns3:cad>
          </ns3:TrackPointExtension>
        </extensions>
      </trkpt>
      <trkpt lat="43.47184603102505207061767578125" lon="1.43205377273261547088623046875">
        <ele>253.600006103515625</ele>
        <time>2026-08-05T10:03:31.000Z</time>
        <extensions>
          <ns3:TrackPointExtension>
            <ns3:hr>59</ns3:hr>
            <ns3:cad>0</ns3:cad>
          </ns3:TrackPointExtension>
        </extensions>
      </trkpt>
      <trkpt lat="43.47184720449149608612060546875" lon="1.43205494619905948638916015625">
        <ele>253.600006103515625</ele>
        <time>2026-08-05T10:03:32.000Z</time>
        <extensions>
          <ns3:TrackPointExtension>
            <ns3:hr>60</ns3:hr>
            <ns3:cad>0</ns3:cad>
          </ns3:TrackPointExtension>
        </extensions>
      </trkpt>
      <trkpt lat="43.4718481265008449554443359375" lon="1.43205511383712291717529296875">
        <ele>253.399993896484375</ele>
        <time>2026-08-05T10:03:33.000Z</time>
        <extensions>
          <ns3:TrackPointExtension>
            <ns3:hr>60</ns3:hr>
            <ns3:cad>0</ns3:cad>
          </ns3:TrackPointExtension>
        </extensions>
      </trkpt>
      <trkpt lat="43.4718487970530986785888671875" lon="1.4320557005703449249267578125">
        <ele>253.399993896484375</ele>
        <time>2026-08-05T10:03:34.000Z</time>
        <extensions>
          <ns3:TrackPointExtension>
            <ns3:hr>62</ns3:hr>
            <ns3:cad>0</ns3:cad>
          </ns3:TrackPointExtension>
        </extensions>
      </trkpt>
      <trkpt lat="43.4718481265008449554443359375" lon="1.432053185999393463134765625">
        <ele>253.399993896484375</ele>
        <time>2026-08-05T10:03:35.000Z</time>
        <extensions>
          <ns3:TrackPointExtension>
            <ns3:hr>65</ns3:hr>
            <ns3:cad>0</ns3:cad>
          </ns3:TrackPointExtension>
        </extensions>
      </trkpt>
      <trkpt lat="43.47184720449149608612060546875" lon="1.43204991705715656280517578125">
        <ele>253.399993896484375</ele>
        <time>2026-08-05T10:03:36.000Z</time>
        <extensions>
          <ns3:TrackPointExtension>
            <ns3:hr>67</ns3:hr>
            <ns3:cad>0</ns3:cad>
          </ns3:TrackPointExtension>
        </extensions>
      </trkpt>
      <trkpt lat="43.47184561192989349365234375" lon="1.43204622901976108551025390625">
        <ele>253.399993896484375</ele>
        <time>2026-08-05T10:03:37.000Z</time>
        <extensions>
          <ns3:TrackPointExtension>
            <ns3:hr>67</ns3:hr>
            <ns3:cad>0</ns3:cad>
          </ns3:TrackPointExtension>
        </extensions>
      </trkpt>
      <trkpt lat="43.47184435464441776275634765625" lon="1.43204421736299991607666015625">
        <ele>253.600006103515625</ele>
        <time>2026-08-05T10:03:38.000Z</time>
        <extensions>
          <ns3:TrackPointExtension>
            <ns3:hr>68</ns3:hr>
            <ns3:cad>0</ns3:cad>
          </ns3:TrackPointExtension>
        </extensions>
      </trkpt>
      <trkpt lat="43.4718422591686248779296875" lon="1.4320409484207630157470703125">
        <ele>253.600006103515625</ele>
        <time>2026-08-05T10:03:39.000Z</time>
        <extensions>
          <ns3:TrackPointExtension>
            <ns3:hr>69</ns3:hr>
            <ns3:cad>0</ns3:cad>
          </ns3:TrackPointExtension>
        </extensions>
      </trkpt>
      <trkpt lat="43.47184033133089542388916015625" lon="1.43203751184046268463134765625">
        <ele>253.600006103515625</ele>
        <time>2026-08-05T10:03:40.000Z</time>
        <extensions>
          <ns3:TrackPointExtension>
            <ns3:hr>69</ns3:hr>
            <ns3:cad>0</ns3:cad>
          </ns3:TrackPointExtension>
        </extensions>
      </trkpt>
      <trkpt lat="43.4718377329409122467041015625" lon="1.432034410536289215087890625">
        <ele>253.600006103515625</ele>
        <time>2026-08-05T10:03:41.000Z</time>
        <extensions>
          <ns3:TrackPointExtension>
            <ns3:hr>69</ns3:hr>
            <ns3:cad>0</ns3:cad>
          </ns3:TrackPointExtension>
        </extensions>
      </trkpt>
      <trkpt lat="43.4718360565602779388427734375" lon="1.432034075260162353515625">
        <ele>253.600006103515625</ele>
        <time>2026-08-05T10:03:42.000Z</time>
        <extensions>
          <ns3:TrackPointExtension>
            <ns3:hr>69</ns3:hr>
            <ns3:cad>0</ns3:cad>
          </ns3:TrackPointExtension>
        </extensions>
      </trkpt>
      <trkpt lat="43.47183513455092906951904296875" lon="1.4320318959653377532958984375">
        <ele>253.600006103515625</ele>
        <time>2026-08-05T10:03:43.000Z</time>
        <extensions>
          <ns3:TrackPointExtension>
            <ns3:hr>69</ns3:hr>
            <ns3:cad>0</ns3:cad>
          </ns3:TrackPointExtension>
        </extensions>
      </trkpt>
      <trkpt lat="43.47183228470385074615478515625" lon="1.432026363909244537353515625">
        <ele>253.600006103515625</ele>
        <time>2026-08-05T10:03:44.000Z</time>
        <extensions>
          <ns3:TrackPointExtension>
            <ns3:hr>68</ns3:hr>
            <ns3:cad>0</ns3:cad>
          </ns3:TrackPointExtension>
        </extensions>
      </trkpt>
      <trkpt lat="43.4718313626945018768310546875" lon="1.43202074803411960601806640625">
        <ele>253.600006103515625</ele>
        <time>2026-08-05T10:03:45.000Z</time>
        <extensions>
          <ns3:TrackPointExtension>
            <ns3:hr>65</ns3:hr>
            <ns3:cad>0</ns3:cad>
          </ns3:TrackPointExtension>
        </extensions>
      </trkpt>
      <trkpt lat="43.47182960249483585357666015625" lon="1.4320168085396289825439453125">
        <ele>253.600006103515625</ele>
        <time>2026-08-05T10:03:46.000Z</time>
        <extensions>
          <ns3:TrackPointExtension>
            <ns3:hr>64</ns3:hr>
            <ns3:cad>0</ns3:cad>
          </ns3:TrackPointExtension>
        </extensions>
      </trkpt>
      <trkpt lat="43.4718276746571063995361328125" lon="1.4320139586925506591796875">
        <ele>253.399993896484375</ele>
        <time>2026-08-05T10:03:47.000Z</time>
        <extensions>
          <ns3:TrackPointExtension>
            <ns3:hr>64</ns3:hr>
            <ns3:cad>0</ns3:cad>
          </ns3:TrackPointExtension>
        </extensions>
      </trkpt>
      <trkpt lat="43.47182624973356723785400390625" lon="1.432014964520931243896484375">
        <ele>253.399993896484375</ele>
        <time>2026-08-05T10:03:48.000Z</time>
        <extensions>
          <ns3:TrackPointExtension>
            <ns3:hr>64</ns3:hr>
            <ns3:cad>0</ns3:cad>
          </ns3:TrackPointExtension>
        </extensions>
      </trkpt>
      <trkpt lat="43.4718249924480915069580078125" lon="1.43201555125415325164794921875">
        <ele>253.399993896484375</ele>
        <time>2026-08-05T10:03:49.000Z</time>
        <extensions>
          <ns3:TrackPointExtension>
            <ns3:hr>65</ns3:hr>
            <ns3:cad>0</ns3:cad>
          </ns3:TrackPointExtension>
        </extensions>
      </trkpt>
      <trkpt lat="43.47182390280067920684814453125" lon="1.43201529979705810546875">
        <ele>253.399993896484375</ele>
        <time>2026-08-05T10:03:50.000Z</time>
        <extensions>
          <ns3:TrackPointExtension>
            <ns3:hr>65</ns3:hr>
            <ns3:cad>0</ns3:cad>
          </ns3:TrackPointExtension>
        </extensions>
      </trkpt>
      <trkpt lat="43.4718234837055206298828125" lon="1.43201638944447040557861328125">
        <ele>253.399993896484375</ele>
        <time>2026-08-05T10:03:51.000Z</time>
        <extensions>
          <ns3:TrackPointExtension>
            <ns3:hr>65</ns3:hr>
            <ns3:cad>0</ns3:cad>
          </ns3:TrackPointExtension>
        </extensions>
      </trkpt>
      <trkpt lat="43.4718276746571063995361328125" lon="1.4320171438157558441162109375">
        <ele>253.399993896484375</ele>
        <time>2026-08-05T10:03:52.000Z</time>
        <extensions>
          <ns3:TrackPointExtension>
            <ns3:hr>65</ns3:hr>
            <ns3:cad>0</ns3:cad>
          </ns3:TrackPointExtension>
        </extensions>
      </trkpt>
      <trkpt lat="43.47183295525610446929931640625" lon="1.43203876912593841552734375">
        <ele>253.399993896484375</ele>
        <time>2026-08-05T10:03:53.000Z</time>
        <extensions>
          <ns3:TrackPointExtension>
            <ns3:hr>66</ns3:hr>
            <ns3:cad>0</ns3:cad>
          </ns3:TrackPointExtension>
        </extensions>
      </trkpt>
      <trkpt lat="43.47183446399867534637451171875" lon="1.4320432953536510467529296875">
        <ele>253.399993896484375</ele>
        <time>2026-08-05T10:03:54.000Z</time>
        <extensions>
          <ns3:TrackPointExtension>
            <ns3:hr>66</ns3:hr>
            <ns3:cad>0</ns3:cad>
          </ns3:TrackPointExtension>
        </extensions>
      </trkpt>
      <trkpt lat="43.471836559474468231201171875" lon="1.4320446364581584930419921875">
        <ele>253.600006103515625</ele>
        <time>2026-08-05T10:03:55.000Z</time>
        <extensions>
          <ns3:TrackPointExtension>
            <ns3:hr>66</ns3:hr>
            <ns3:cad>0</ns3:cad>
          </ns3:TrackPointExtension>
        </extensions>
      </trkpt>
      <trkpt lat="43.4718384034931659698486328125" lon="1.4320461452007293701171875">
        <ele>253.600006103515625</ele>
        <time>2026-08-05T10:03:56.000Z</time>
        <extensions>
          <ns3:TrackPointExtension>
            <ns3:hr>66</ns3:hr>
            <ns3:cad>0</ns3:cad>
          </ns3:TrackPointExtension>
        </extensions>
      </trkpt>
      <trkpt lat="43.47183664329349994659423828125" lon="1.43204681575298309326171875">
        <ele>253.399993896484375</ele>
        <time>2026-08-05T10:03:57.000Z</time>
        <extensions>
          <ns3:TrackPointExtension>
            <ns3:hr>66</ns3:hr>
            <ns3:cad>0</ns3:cad>
          </ns3:TrackPointExtension>
        </extensions>
      </trkpt>
      <trkpt lat="43.47183647565543651580810546875" lon="1.43204790540039539337158203125">
        <ele>253.399993896484375</ele>
        <time>2026-08-05T10:03:58.000Z</time>
        <extensions>
          <ns3:TrackPointExtension>
            <ns3:hr>68</ns3:hr>
            <ns3:cad>0</ns3:cad>
          </ns3:TrackPointExtension>
        </extensions>
      </trkpt>
      <trkpt lat="43.471835553646087646484375" lon="1.43204840831458568572998046875">
        <ele>253.399993896484375</ele>
        <time>2026-08-05T10:03:59.000Z</time>
        <extensions>
          <ns3:TrackPointExtension>
            <ns3:hr>69</ns3:hr>
            <ns3:cad>0</ns3:cad>
          </ns3:TrackPointExtension>
        </extensions>
      </trkpt>
      <trkpt lat="43.4718363918364048004150390625" lon="1.43205528147518634796142578125">
        <ele>253.399993896484375</ele>
        <time>2026-08-05T10:04:00.000Z</time>
        <extensions>
          <ns3:TrackPointExtension>
            <ns3:hr>69</ns3:hr>
            <ns3:cad>0</ns3:cad>
          </ns3:TrackPointExtension>
        </extensions>
      </trkpt>
      <trkpt lat="43.47183982841670513153076171875" lon="1.432057209312915802001953125">
        <ele>253.399993896484375</ele>
        <time>2026-08-05T10:04:01.000Z</time>
        <extensions>
          <ns3:TrackPointExtension>
            <ns3:hr>70</ns3:hr>
            <ns3:cad>0</ns3:cad>
          </ns3:TrackPointExtension>
        </extensions>
      </trkpt>
      <trkpt lat="43.47183982841670513153076171875" lon="1.432057209312915802001953125">
        <ele>253.399993896484375</ele>
        <time>2026-08-05T10:04:02.000Z</time>
        <extensions>
          <ns3:TrackPointExtension>
            <ns3:hr>70</ns3:hr>
            <ns3:cad>0</ns3:cad>
          </ns3:TrackPointExtension>
        </extensions>
      </trkpt>
      <trkpt lat="43.47183982841670513153076171875" lon="1.432057209312915802001953125">
        <ele>253.399993896484375</ele>
        <time>2026-08-05T10:04:03.000Z</time>
        <extensions>
          <ns3:TrackPointExtension>
            <ns3:hr>70</ns3:hr>
            <ns3:cad>0</ns3:cad>
          </ns3:TrackPointExtension>
        </extensions>
      </trkpt>
      <trkpt lat="43.47183982841670513153076171875" lon="1.432057209312915802001953125">
        <ele>253.399993896484375</ele>
        <time>2026-08-05T10:04:04.000Z</time>
        <extensions>
          <ns3:TrackPointExtension>
            <ns3:hr>71</ns3:hr>
            <ns3:cad>0</ns3:cad>
          </ns3:TrackPointExtension>
        </extensions>
      </trkpt>
      <trkpt lat="43.47183982841670513153076171875" lon="1.432057209312915802001953125">
        <ele>253.399993896484375</ele>
        <time>2026-08-05T10:04:05.000Z</time>
        <extensions>
          <ns3:TrackPointExtension>
            <ns3:hr>70</ns3:hr>
            <ns3:cad>0</ns3:cad>
          </ns3:TrackPointExtension>
        </extensions>
      </trkpt>
      <trkpt lat="43.47183982841670513153076171875" lon="1.432057209312915802001953125">
        <ele>253.399993896484375</ele>
        <time>2026-08-05T10:04:06.000Z</time>
        <extensions>
          <ns3:TrackPointExtension>
            <ns3:hr>69</ns3:hr>
            <ns3:cad>0</ns3:cad>
          </ns3:TrackPointExtension>
        </extensions>
      </trkpt>
      <trkpt lat="43.47183982841670513153076171875" lon="1.432057209312915802001953125">
        <ele>253.1999969482421875</ele>
        <time>2026-08-05T10:04:07.000Z</time>
        <extensions>
          <ns3:TrackPointExtension>
            <ns3:hr>69</ns3:hr>
            <ns3:cad>0</ns3:cad>
          </ns3:TrackPointExtension>
        </extensions>
      </trkpt>
      <trkpt lat="43.47183982841670513153076171875" lon="1.432057209312915802001953125">
        <ele>253.1999969482421875</ele>
        <time>2026-08-05T10:04:08.000Z</time>
        <extensions>
          <ns3:TrackPointExtension>
            <ns3:hr>65</ns3:hr>
            <ns3:cad>0</ns3:cad>
          </ns3:TrackPointExtension>
        </extensions>
      </trkpt>
      <trkpt lat="43.47183982841670513153076171875" lon="1.432057209312915802001953125">
        <ele>253.1999969482421875</ele>
        <time>2026-08-05T10:04:09.000Z</time>
        <extensions>
          <ns3:TrackPointExtension>
            <ns3:hr>65</ns3:hr>
            <ns3:cad>0</ns3:cad>
          </ns3:TrackPointExtension>
        </extensions>
      </trkpt>
      <trkpt lat="43.47183982841670513153076171875" lon="1.432057209312915802001953125">
        <ele>253.1999969482421875</ele>
        <time>2026-08-05T10:04:10.000Z</time>
        <extensions>
          <ns3:TrackPointExtension>
            <ns3:hr>65</ns3:hr>
            <ns3:cad>0</ns3:cad>
          </ns3:TrackPointExtension>
        </extensions>
      </trkpt>
      <trkpt lat="43.47183982841670513153076171875" lon="1.432057209312915802001953125">
        <ele>253.1999969482421875</ele>
        <time>2026-08-05T10:04:11.000Z</time>
        <extensions>
          <ns3:TrackPointExtension>
            <ns3:hr>66</ns3:hr>
            <ns3:cad>0</ns3:cad>
          </ns3:TrackPointExtension>
        </extensions>
      </trkpt>
      <trkpt lat="43.47183982841670513153076171875" lon="1.432057209312915802001953125">
        <ele>253.1999969482421875</ele>
        <time>2026-08-05T10:04:12.000Z</time>
        <extensions>
          <ns3:TrackPointExtension>
            <ns3:hr>66</ns3:hr>
            <ns3:cad>0</ns3:cad>
          </ns3:TrackPointExtension>
        </extensions>
      </trkpt>
      <trkpt lat="43.47183982841670513153076171875" lon="1.432057209312915802001953125">
        <ele>253.1999969482421875</ele>
        <time>2026-08-05T10:04:13.000Z</time>
        <extensions>
          <ns3:TrackPointExtension>
            <ns3:hr>66</ns3:hr>
            <ns3:cad>0</ns3:cad>
          </ns3:TrackPointExtension>
        </extensions>
      </trkpt>
      <trkpt lat="43.47183982841670513153076171875" lon="1.432057209312915802001953125">
        <ele>253.399993896484375</ele>
        <time>2026-08-05T10:04:14.000Z</time>
        <extensions>
          <ns3:TrackPointExtension>
            <ns3:hr>66</ns3:hr>
            <ns3:cad>0</ns3:cad>
          </ns3:TrackPointExtension>
        </extensions>
      </trkpt>
      <trkpt lat="43.47183982841670513153076171875" lon="1.432057209312915802001953125">
        <ele>253.399993896484375</ele>
        <time>2026-08-05T10:04:15.000Z</time>
        <extensions>
          <ns3:TrackPointExtension>
            <ns3:hr>66</ns3:hr>
            <ns3:cad>0</ns3:cad>
          </ns3:TrackPointExtension>
        </extensions>
      </trkpt>
      <trkpt lat="43.47183982841670513153076171875" lon="1.432057209312915802001953125">
        <ele>253.399993896484375</ele>
        <time>2026-08-05T10:04:16.000Z</time>
        <extensions>
          <ns3:TrackPointExtension>
            <ns3:hr>67</ns3:hr>
            <ns3:cad>0</ns3:cad>
          </ns3:TrackPointExtension>
        </extensions>
      </trkpt>
      <trkpt lat="43.47183982841670513153076171875" lon="1.432057209312915802001953125">
        <ele>253.1999969482421875</ele>
        <time>2026-08-05T10:04:17.000Z</time>
        <extensions>
          <ns3:TrackPointExtension>
            <ns3:hr>67</ns3:hr>
            <ns3:cad>0</ns3:cad>
          </ns3:TrackPointExtension>
        </extensions>
      </trkpt>
      <trkpt lat="43.47183982841670513153076171875" lon="1.432057209312915802001953125">
        <ele>253.1999969482421875</ele>
        <time>2026-08-05T10:04:18.000Z</time>
        <extensions>
          <ns3:TrackPointExtension>
            <ns3:hr>67</ns3:hr>
            <ns3:cad>0</ns3:cad>
          </ns3:TrackPointExtension>
        </extensions>
      </trkpt>
      <trkpt lat="43.47183982841670513153076171875" lon="1.432057209312915802001953125">
        <ele>253</ele>
        <time>2026-08-05T10:04:19.000Z</time>
        <extensions>
          <ns3:TrackPointExtension>
            <ns3:hr>68</ns3:hr>
            <ns3:cad>0</ns3:cad>
          </ns3:TrackPointExtension>
        </extensions>
      </trkpt>
      <trkpt lat="43.47183982841670513153076171875" lon="1.432057209312915802001953125">
        <ele>252.8000030517578125</ele>
        <time>2026-08-05T10:04:20.000Z</time>
        <extensions>
          <ns3:TrackPointExtension>
            <ns3:hr>68</ns3:hr>
            <ns3:cad>0</ns3:cad>
          </ns3:TrackPointExtension>
        </extensions>
      </trkpt>
      <trkpt lat="43.47183982841670513153076171875" lon="1.432057209312915802001953125">
        <ele>252.8000030517578125</ele>
        <time>2026-08-05T10:04:21.000Z</time>
        <extensions>
          <ns3:TrackPointExtension>
            <ns3:hr>68</ns3:hr>
            <ns3:cad>0</ns3:cad>
          </ns3:TrackPointExtension>
        </extensions>
      </trkpt>
      <trkpt lat="43.47183982841670513153076171875" lon="1.432057209312915802001953125">
        <ele>252.8000030517578125</ele>
        <time>2026-08-05T10:04:22.000Z</time>
        <extensions>
          <ns3:TrackPointExtension>
            <ns3:hr>68</ns3:hr>
            <ns3:cad>0</ns3:cad>
          </ns3:TrackPointExtension>
        </extensions>
      </trkpt>
      <trkpt lat="43.47183982841670513153076171875" lon="1.432057209312915802001953125">
        <ele>253</ele>
        <time>2026-08-05T10:04:23.000Z</time>
        <extensions>
          <ns3:TrackPointExtension>
            <ns3:hr>67</ns3:hr>
            <ns3:cad>0</ns3:cad>
          </ns3:TrackPointExtension>
        </extensions>
      </trkpt>
      <trkpt lat="43.47183982841670513153076171875" lon="1.432057209312915802001953125">
        <ele>253</ele>
        <time>2026-08-05T10:04:24.000Z</time>
        <extensions>
          <ns3:TrackPointExtension>
            <ns3:hr>66</ns3:hr>
            <ns3:cad>0</ns3:cad>
          </ns3:TrackPointExtension>
        </extensions>
      </trkpt>
      <trkpt lat="43.47183982841670513153076171875" lon="1.432057209312915802001953125">
        <ele>253</ele>
        <time>2026-08-05T10:04:25.000Z</time>
        <extensions>
          <ns3:TrackPointExtension>
            <ns3:hr>66</ns3:hr>
            <ns3:cad>0</ns3:cad>
          </ns3:TrackPointExtension>
        </extensions>
      </trkpt>
      <trkpt lat="43.47183982841670513153076171875" lon="1.432057209312915802001953125">
        <ele>253.1999969482421875</ele>
        <time>2026-08-05T10:04:26.000Z</time>
        <extensions>
          <ns3:TrackPointExtension>
            <ns3:hr>66</ns3:hr>
            <ns3:cad>0</ns3:cad>
          </ns3:TrackPointExtension>
        </extensions>
      </trkpt>
      <trkpt lat="43.47183982841670513153076171875" lon="1.432057209312915802001953125">
        <ele>253.1999969482421875</ele>
        <time>2026-08-05T10:04:27.000Z</time>
        <extensions>
          <ns3:TrackPointExtension>
            <ns3:hr>66</ns3:hr>
            <ns3:cad>0</ns3:cad>
          </ns3:TrackPointExtension>
        </extensions>
      </trkpt>
      <trkpt lat="43.47183982841670513153076171875" lon="1.432057209312915802001953125">
        <ele>253.1999969482421875</ele>
        <time>2026-08-05T10:04:28.000Z</time>
        <extensions>
          <ns3:TrackPointExtension>
            <ns3:hr>66</ns3:hr>
            <ns3:cad>0</ns3:cad>
          </ns3:TrackPointExtension>
        </extensions>
      </trkpt>
      <trkpt lat="43.47183982841670513153076171875" lon="1.432057209312915802001953125">
        <ele>253.1999969482421875</ele>
        <time>2026-08-05T10:04:29.000Z</time>
        <extensions>
          <ns3:TrackPointExtension>
            <ns3:hr>66</ns3:hr>
            <ns3:cad>0</ns3:cad>
          </ns3:TrackPointExtension>
        </extensions>
      </trkpt>
      <trkpt lat="43.47183982841670513153076171875" lon="1.432057209312915802001953125">
        <ele>253.1999969482421875</ele>
        <time>2026-08-05T10:04:30.000Z</time>
        <extensions>
          <ns3:TrackPointExtension>
            <ns3:hr>65</ns3:hr>
            <ns3:cad>0</ns3:cad>
          </ns3:TrackPointExtension>
        </extensions>
      </trkpt>
      <trkpt lat="43.47183982841670513153076171875" lon="1.432057209312915802001953125">
        <ele>253.1999969482421875</ele>
        <time>2026-08-05T10:04:31.000Z</time>
        <extensions>
          <ns3:TrackPointExtension>
            <ns3:hr>64</ns3:hr>
            <ns3:cad>0</ns3:cad>
          </ns3:TrackPointExtension>
        </extensions>
      </trkpt>
      <trkpt lat="43.47183982841670513153076171875" lon="1.432057209312915802001953125">
        <ele>253.1999969482421875</ele>
        <time>2026-08-05T10:04:32.000Z</time>
        <extensions>
          <ns3:TrackPointExtension>
            <ns3:hr>63</ns3:hr>
            <ns3:cad>0</ns3:cad>
          </ns3:TrackPointExtension>
        </extensions>
      </trkpt>
      <trkpt lat="43.47183982841670513153076171875" lon="1.432057209312915802001953125">
        <ele>253</ele>
        <time>2026-08-05T10:04:33.000Z</time>
        <extensions>
          <ns3:TrackPointExtension>
            <ns3:hr>63</ns3:hr>
            <ns3:cad>0</ns3:cad>
          </ns3:TrackPointExtension>
        </extensions>
      </trkpt>
      <trkpt lat="43.47183982841670513153076171875" lon="1.432057209312915802001953125">
        <ele>253</ele>
        <time>2026-08-05T10:04:34.000Z</time>
        <extensions>
          <ns3:TrackPointExtension>
            <ns3:hr>63</ns3:hr>
            <ns3:cad>0</ns3:cad>
          </ns3:TrackPointExtension>
        </extensions>
      </trkpt>
      <trkpt lat="43.47183982841670513153076171875" lon="1.432057209312915802001953125">
        <ele>253</ele>
        <time>2026-08-05T10:04:35.000Z</time>
        <extensions>
          <ns3:TrackPointExtension>
            <ns3:hr>63</ns3:hr>
            <ns3:cad>0</ns3:cad>
          </ns3:TrackPointExtension>
        </extensions>
      </trkpt>
      <trkpt lat="43.47183982841670513153076171875" lon="1.432057209312915802001953125">
        <ele>253.1999969482421875</ele>
        <time>2026-08-05T10:04:36.000Z</time>
        <extensions>
          <ns3:TrackPointExtension>
            <ns3:hr>64</ns3:hr>
            <ns3:cad>0</ns3:cad>
          </ns3:TrackPointExtension>
        </extensions>
      </trkpt>
      <trkpt lat="43.47183982841670513153076171875" lon="1.432057209312915802001953125">
        <ele>253.1999969482421875</ele>
        <time>2026-08-05T10:04:37.000Z</time>
        <extensions>
          <ns3:TrackPointExtension>
            <ns3:hr>64</ns3:hr>
            <ns3:cad>0</ns3:cad>
          </ns3:TrackPointExtension>
        </extensions>
      </trkpt>
      <trkpt lat="43.47183982841670513153076171875" lon="1.432057209312915802001953125">
        <ele>253.399993896484375</ele>
        <time>2026-08-05T10:04:38.000Z</time>
        <extensions>
          <ns3:TrackPointExtension>
            <ns3:hr>64</ns3:hr>
            <ns3:cad>0</ns3:cad>
          </ns3:TrackPointExtension>
        </extensions>
      </trkpt>
      <trkpt lat="43.47183982841670513153076171875" lon="1.432057209312915802001953125">
        <ele>253.600006103515625</ele>
        <time>2026-08-05T10:04:39.000Z</time>
        <extensions>
          <ns3:TrackPointExtension>
            <ns3:hr>66</ns3:hr>
            <ns3:cad>0</ns3:cad>
          </ns3:TrackPointExtension>
        </extensions>
      </trkpt>
      <trkpt lat="43.47183982841670513153076171875" lon="1.432057209312915802001953125">
        <ele>253.600006103515625</ele>
        <time>2026-08-05T10:04:40.000Z</time>
        <extensions>
          <ns3:TrackPointExtension>
            <ns3:hr>68</ns3:hr>
            <ns3:cad>0</ns3:cad>
          </ns3:TrackPointExtension>
        </extensions>
      </trkpt>
      <trkpt lat="43.47183982841670513153076171875" lon="1.432057209312915802001953125">
        <ele>253.600006103515625</ele>
        <time>2026-08-05T10:04:41.000Z</time>
        <extensions>
          <ns3:TrackPointExtension>
            <ns3:hr>69</ns3:hr>
            <ns3:cad>0</ns3:cad>
          </ns3:TrackPointExtension>
        </extensions>
      </trkpt>
      <trkpt lat="43.47183982841670513153076171875" lon="1.432057209312915802001953125">
        <ele>253.600006103515625</ele>
        <time>2026-08-05T10:04:42.000Z</time>
        <extensions>
          <ns3:TrackPointExtension>
            <ns3:hr>69</ns3:hr>
            <ns3:cad>0</ns3:cad>
          </ns3:TrackPointExtension>
        </extensions>
      </trkpt>
      <trkpt lat="43.47183982841670513153076171875" lon="1.432057209312915802001953125">
        <ele>253.600006103515625</ele>
        <time>2026-08-05T10:04:43.000Z</time>
        <extensions>
          <ns3:TrackPointExtension>
            <ns3:hr>69</ns3:hr>
            <ns3:cad>0</ns3:cad>
          </ns3:TrackPointExtension>
        </extensions>
      </trkpt>
      <trkpt lat="43.47183982841670513153076171875" lon="1.432057209312915802001953125">
        <ele>253.600006103515625</ele>
        <time>2026-08-05T10:04:44.000Z</time>
        <extensions>
          <ns3:TrackPointExtension>
            <ns3:hr>70</ns3:hr>
            <ns3:cad>0</ns3:cad>
          </ns3:TrackPointExtension>
        </extensions>
      </trkpt>
      <trkpt lat="43.47183982841670513153076171875" lon="1.432057209312915802001953125">
        <ele>253.600006103515625</ele>
        <time>2026-08-05T10:04:45.000Z</time>
        <extensions>
          <ns3:TrackPointExtension>
            <ns3:hr>69</ns3:hr>
            <ns3:cad>0</ns3:cad>
          </ns3:TrackPointExtension>
        </extensions>
      </trkpt>
      <trkpt lat="43.47183982841670513153076171875" lon="1.432057209312915802001953125">
        <ele>253.600006103515625</ele>
        <time>2026-08-05T10:04:46.000Z</time>
        <extensions>
          <ns3:TrackPointExtension>
            <ns3:hr>69</ns3:hr>
            <ns3:cad>0</ns3:cad>
          </ns3:TrackPointExtension>
        </extensions>
      </trkpt>
      <trkpt lat="43.47183982841670513153076171875" lon="1.432057209312915802001953125">
        <ele>253.600006103515625</ele>
        <time>2026-08-05T10:04:47.000Z</time>
        <extensions>
          <ns3:TrackPointExtension>
            <ns3:hr>70</ns3:hr>
            <ns3:cad>0</ns3:cad>
          </ns3:TrackPointExtension>
        </extensions>
      </trkpt>
      <trkpt lat="43.47183982841670513153076171875" lon="1.432057209312915802001953125">
        <ele>253.600006103515625</ele>
        <time>2026-08-05T10:04:48.000Z</time>
        <extensions>
          <ns3:TrackPointExtension>
            <ns3:hr>69</ns3:hr>
            <ns3:cad>0</ns3:cad>
          </ns3:TrackPointExtension>
        </extensions>
      </trkpt>
      <trkpt lat="43.47183982841670513153076171875" lon="1.432057209312915802001953125">
        <ele>253.600006103515625</ele>
        <time>2026-08-05T10:04:49.000Z</time>
        <extensions>
          <ns3:TrackPointExtension>
            <ns3:hr>69</ns3:hr>
            <ns3:cad>0</ns3:cad>
          </ns3:TrackPointExtension>
        </extensions>
      </trkpt>
      <trkpt lat="43.47183982841670513153076171875" lon="1.432057209312915802001953125">
        <ele>253.600006103515625</ele>
        <time>2026-08-05T10:04:50.000Z</time>
        <extensions>
          <ns3:TrackPointExtension>
            <ns3:hr>70</ns3:hr>
            <ns3:cad>0</ns3:cad>
          </ns3:TrackPointExtension>
        </extensions>
      </trkpt>
      <trkpt lat="43.47183982841670513153076171875" lon="1.432057209312915802001953125">
        <ele>253.600006103515625</ele>
        <time>2026-08-05T10:04:51.000Z</time>
        <extensions>
          <ns3:TrackPointExtension>
            <ns3:hr>69</ns3:hr>
            <ns3:cad>0</ns3:cad>
          </ns3:TrackPointExtension>
        </extensions>
      </trkpt>
      <trkpt lat="43.47183982841670513153076171875" lon="1.432057209312915802001953125">
        <ele>253.399993896484375</ele>
        <time>2026-08-05T10:04:52.000Z</time>
        <extensions>
          <ns3:TrackPointExtension>
            <ns3:hr>69</ns3:hr>
            <ns3:cad>0</ns3:cad>
          </ns3:TrackPointExtension>
        </extensions>
      </trkpt>
      <trkpt lat="43.47183982841670513153076171875" lon="1.432057209312915802001953125">
        <ele>253.399993896484375</ele>
        <time>2026-08-05T10:04:53.000Z</time>
        <extensions>
          <ns3:TrackPointExtension>
            <ns3:hr>69</ns3:hr>
            <ns3:cad>0</ns3:cad>
          </ns3:TrackPointExtension>
        </extensions>
      </trkpt>
      <trkpt lat="43.47183982841670513153076171875" lon="1.432057209312915802001953125">
        <ele>253.399993896484375</ele>
        <time>2026-08-05T10:04:54.000Z</time>
        <extensions>
          <ns3:TrackPointExtension>
            <ns3:hr>69</ns3:hr>
            <ns3:cad>0</ns3:cad>
          </ns3:TrackPointExtension>
        </extensions>
      </trkpt>
      <trkpt lat="43.47183982841670513153076171875" lon="1.432057209312915802001953125">
        <ele>253.399993896484375</ele>
        <time>2026-08-05T10:04:55.000Z</time>
        <extensions>
          <ns3:TrackPointExtension>
            <ns3:hr>68</ns3:hr>
            <ns3:cad>0</ns3:cad>
          </ns3:TrackPointExtension>
        </extensions>
      </trkpt>
      <trkpt lat="43.47183982841670513153076171875" lon="1.432057209312915802001953125">
        <ele>253.399993896484375</ele>
        <time>2026-08-05T10:04:56.000Z</time>
        <extensions>
          <ns3:TrackPointExtension>
            <ns3:hr>68</ns3:hr>
            <ns3:cad>0</ns3:cad>
          </ns3:TrackPointExtension>
        </extensions>
      </trkpt>
      <trkpt lat="43.47183982841670513153076171875" lon="1.432057209312915802001953125">
        <ele>253.600006103515625</ele>
        <time>2026-08-05T10:04:57.000Z</time>
        <extensions>
          <ns3:TrackPointExtension>
            <ns3:hr>66</ns3:hr>
            <ns3:cad>0</ns3:cad>
          </ns3:TrackPointExtension>
        </extensions>
      </trkpt>
      <trkpt lat="43.47183982841670513153076171875" lon="1.432057209312915802001953125">
        <ele>253.600006103515625</ele>
        <time>2026-08-05T10:04:58.000Z</time>
        <extensions>
          <ns3:TrackPointExtension>
            <ns3:hr>65</ns3:hr>
            <ns3:cad>0</ns3:cad>
          </ns3:TrackPointExtension>
        </extensions>
      </trkpt>
      <trkpt lat="43.47183982841670513153076171875" lon="1.432057209312915802001953125">
        <ele>253.600006103515625</ele>
        <time>2026-08-05T10:04:59.000Z</time>
        <extensions>
          <ns3:TrackPointExtension>
            <ns3:hr>65</ns3:hr>
            <ns3:cad>0</ns3:cad>
          </ns3:TrackPointExtension>
        </extensions>
      </trkpt>
      <trkpt lat="43.47183982841670513153076171875" lon="1.432057209312915802001953125">
        <ele>253.600006103515625</ele>
        <time>2026-08-05T10:05:00.000Z</time>
        <extensions>
          <ns3:TrackPointExtension>
            <ns3:hr>64</ns3:hr>
            <ns3:cad>0</ns3:cad>
          </ns3:TrackPointExtension>
        </extensions>
      </trkpt>
      <trkpt lat="43.47183982841670513153076171875" lon="1.432057209312915802001953125">
        <ele>253.399993896484375</ele>
        <time>2026-08-05T10:05:01.000Z</time>
        <extensions>
          <ns3:TrackPointExtension>
            <ns3:hr>63</ns3:hr>
            <ns3:cad>0</ns3:cad>
          </ns3:TrackPointExtension>
        </extensions>
      </trkpt>
      <trkpt lat="43.47183982841670513153076171875" lon="1.432057209312915802001953125">
        <ele>253.399993896484375</ele>
        <time>2026-08-05T10:05:02.000Z</time>
        <extensions>
          <ns3:TrackPointExtension>
            <ns3:hr>62</ns3:hr>
            <ns3:cad>0</ns3:cad>
          </ns3:TrackPointExtension>
        </extensions>
      </trkpt>
      <trkpt lat="43.47183982841670513153076171875" lon="1.432057209312915802001953125">
        <ele>253.1999969482421875</ele>
        <time>2026-08-05T10:05:03.000Z</time>
        <extensions>
          <ns3:TrackPointExtension>
            <ns3:hr>62</ns3:hr>
            <ns3:cad>0</ns3:cad>
          </ns3:TrackPointExtension>
        </extensions>
      </trkpt>
      <trkpt lat="43.47183982841670513153076171875" lon="1.432057209312915802001953125">
        <ele>253.1999969482421875</ele>
        <time>2026-08-05T10:05:04.000Z</time>
        <extensions>
          <ns3:TrackPointExtension>
            <ns3:hr>61</ns3:hr>
            <ns3:cad>0</ns3:cad>
          </ns3:TrackPointExtension>
        </extensions>
      </trkpt>
      <trkpt lat="43.47183982841670513153076171875" lon="1.432057209312915802001953125">
        <ele>253.1999969482421875</ele>
        <time>2026-08-05T10:05:05.000Z</time>
        <extensions>
          <ns3:TrackPointExtension>
            <ns3:hr>61</ns3:hr>
            <ns3:cad>0</ns3:cad>
          </ns3:TrackPointExtension>
        </extensions>
      </trkpt>
      <trkpt lat="43.47183982841670513153076171875" lon="1.432057209312915802001953125">
        <ele>253.399993896484375</ele>
        <time>2026-08-05T10:05:06.000Z</time>
        <extensions>
          <ns3:TrackPointExtension>
            <ns3:hr>62</ns3:hr>
            <ns3:cad>0</ns3:cad>
          </ns3:TrackPointExtension>
        </extensions>
      </trkpt>
      <trkpt lat="43.47183982841670513153076171875" lon="1.432057209312915802001953125">
        <ele>253.399993896484375</ele>
        <time>2026-08-05T10:05:07.000Z</time>
        <extensions>
          <ns3:TrackPointExtension>
            <ns3:hr>65</ns3:hr>
            <ns3:cad>0</ns3:cad>
          </ns3:TrackPointExtension>
        </extensions>
      </trkpt>
      <trkpt lat="43.47183982841670513153076171875" lon="1.432057209312915802001953125">
        <ele>253.600006103515625</ele>
        <time>2026-08-05T10:05:08.000Z</time>
        <extensions>
          <ns3:TrackPointExtension>
            <ns3:hr>65</ns3:hr>
            <ns3:cad>0</ns3:cad>
          </ns3:TrackPointExtension>
        </extensions>
      </trkpt>
      <trkpt lat="43.47183982841670513153076171875" lon="1.432057209312915802001953125">
        <ele>253.600006103515625</ele>
        <time>2026-08-05T10:05:09.000Z</time>
        <extensions>
          <ns3:TrackPointExtension>
            <ns3:hr>65</ns3:hr>
            <ns3:cad>0</ns3:cad>
          </ns3:TrackPointExtension>
        </extensions>
      </trkpt>
      <trkpt lat="43.47183982841670513153076171875" lon="1.432057209312915802001953125">
        <ele>253.600006103515625</ele>
        <time>2026-08-05T10:05:10.000Z</time>
        <extensions>
          <ns3:TrackPointExtension>
            <ns3:hr>66</ns3:hr>
            <ns3:cad>0</ns3:cad>
          </ns3:TrackPointExtension>
        </extensions>
      </trkpt>
      <trkpt lat="43.47183982841670513153076171875" lon="1.432057209312915802001953125">
        <ele>253.399993896484375</ele>
        <time>2026-08-05T10:05:11.000Z</time>
        <extensions>
          <ns3:TrackPointExtension>
            <ns3:hr>66</ns3:hr>
            <ns3:cad>0</ns3:cad>
          </ns3:TrackPointExtension>
        </extensions>
      </trkpt>
      <trkpt lat="43.47183982841670513153076171875" lon="1.432057209312915802001953125">
        <ele>253.399993896484375</ele>
        <time>2026-08-05T10:05:12.000Z</time>
        <extensions>
          <ns3:TrackPointExtension>
            <ns3:hr>66</ns3:hr>
            <ns3:cad>0</ns3:cad>
          </ns3:TrackPointExtension>
        </extensions>
      </trkpt>
      <trkpt lat="43.47183982841670513153076171875" lon="1.432057209312915802001953125">
        <ele>253.399993896484375</ele>
        <time>2026-08-05T10:05:13.000Z</time>
        <extensions>
          <ns3:TrackPointExtension>
            <ns3:hr>66</ns3:hr>
            <ns3:cad>0</ns3:cad>
          </ns3:TrackPointExtension>
        </extensions>
      </trkpt>
      <trkpt lat="43.47183982841670513153076171875" lon="1.432057209312915802001953125">
        <ele>253.1999969482421875</ele>
        <time>2026-08-05T10:05:14.000Z</time>
        <extensions>
          <ns3:TrackPointExtension>
            <ns3:hr>66</ns3:hr>
            <ns3:cad>0</ns3:cad>
          </ns3:TrackPointExtension>
        </extensions>
      </trkpt>
      <trkpt lat="43.47183982841670513153076171875" lon="1.432057209312915802001953125">
        <ele>253.399993896484375</ele>
        <time>2026-08-05T10:05:15.000Z</time>
        <extensions>
          <ns3:TrackPointExtension>
            <ns3:hr>66</ns3:hr>
            <ns3:cad>0</ns3:cad>
          </ns3:TrackPointExtension>
        </extensions>
      </trkpt>
      <trkpt lat="43.47183982841670513153076171875" lon="1.432057209312915802001953125">
        <ele>253.399993896484375</ele>
        <time>2026-08-05T10:05:16.000Z</time>
        <extensions>
          <ns3:TrackPointExtension>
            <ns3:hr>66</ns3:hr>
            <ns3:cad>0</ns3:cad>
          </ns3:TrackPointExtension>
        </extensions>
      </trkpt>
      <trkpt lat="43.47183982841670513153076171875" lon="1.432057209312915802001953125">
        <ele>253.399993896484375</ele>
        <time>2026-08-05T10:05:17.000Z</time>
        <extensions>
          <ns3:TrackPointExtension>
            <ns3:hr>66</ns3:hr>
            <ns3:cad>0</ns3:cad>
          </ns3:TrackPointExtension>
        </extensions>
      </trkpt>
      <trkpt lat="43.47183982841670513153076171875" lon="1.432057209312915802001953125">
        <ele>253.1999969482421875</ele>
        <time>2026-08-05T10:05:18.000Z</time>
        <extensions>
          <ns3:TrackPointExtension>
            <ns3:hr>66</ns3:hr>
            <ns3:cad>0</ns3:cad>
          </ns3:TrackPointExtension>
        </extensions>
      </trkpt>
      <trkpt lat="43.47183982841670513153076171875" lon="1.432057209312915802001953125">
        <ele>253.1999969482421875</ele>
        <time>2026-08-05T10:05:19.000Z</time>
        <extensions>
          <ns3:TrackPointExtension>
            <ns3:hr>67</ns3:hr>
            <ns3:cad>0</ns3:cad>
          </ns3:TrackPointExtension>
        </extensions>
      </trkpt>
      <trkpt lat="43.47183982841670513153076171875" lon="1.432057209312915802001953125">
        <ele>253.1999969482421875</ele>
        <time>2026-08-05T10:05:20.000Z</time>
        <extensions>
          <ns3:TrackPointExtension>
            <ns3:hr>67</ns3:hr>
            <ns3:cad>0</ns3:cad>
          </ns3:TrackPointExtension>
        </extensions>
      </trkpt>
      <trkpt lat="43.47183982841670513153076171875" lon="1.432057209312915802001953125">
        <ele>253.1999969482421875</ele>
        <time>2026-08-05T10:05:21.000Z</time>
        <extensions>
          <ns3:TrackPointExtension>
            <ns3:hr>67</ns3:hr>
            <ns3:cad>0</ns3:cad>
          </ns3:TrackPointExtension>
        </extensions>
      </trkpt>
      <trkpt lat="43.47183982841670513153076171875" lon="1.432057209312915802001953125">
        <ele>253.1999969482421875</ele>
        <time>2026-08-05T10:05:22.000Z</time>
        <extensions>
          <ns3:TrackPointExtension>
            <ns3:hr>67</ns3:hr>
            <ns3:cad>0</ns3:cad>
          </ns3:TrackPointExtension>
        </extensions>
      </trkpt>
      <trkpt lat="43.47183982841670513153076171875" lon="1.432057209312915802001953125">
        <ele>253.1999969482421875</ele>
        <time>2026-08-05T10:05:23.000Z</time>
        <extensions>
          <ns3:TrackPointExtension>
            <ns3:hr>67</ns3:hr>
            <ns3:cad>0</ns3:cad>
          </ns3:TrackPointExtension>
        </extensions>
      </trkpt>
      <trkpt lat="43.47183982841670513153076171875" lon="1.432057209312915802001953125">
        <ele>253.1999969482421875</ele>
        <time>2026-08-05T10:05:24.000Z</time>
        <extensions>
          <ns3:TrackPointExtension>
            <ns3:hr>68</ns3:hr>
            <ns3:cad>0</ns3:cad>
          </ns3:TrackPointExtension>
        </extensions>
      </trkpt>
      <trkpt lat="43.47183982841670513153076171875" lon="1.432057209312915802001953125">
        <ele>253.1999969482421875</ele>
        <time>2026-08-05T10:05:25.000Z</time>
        <extensions>
          <ns3:TrackPointExtension>
            <ns3:hr>67</ns3:hr>
            <ns3:cad>0</ns3:cad>
          </ns3:TrackPointExtension>
        </extensions>
      </trkpt>
      <trkpt lat="43.47183982841670513153076171875" lon="1.432057209312915802001953125">
        <ele>253.1999969482421875</ele>
        <time>2026-08-05T10:05:26.000Z</time>
        <extensions>
          <ns3:TrackPointExtension>
            <ns3:hr>67</ns3:hr>
            <ns3:cad>0</ns3:cad>
          </ns3:TrackPointExtension>
        </extensions>
      </trkpt>
      <trkpt lat="43.47183982841670513153076171875" lon="1.432057209312915802001953125">
        <ele>253.399993896484375</ele>
        <time>2026-08-05T10:05:27.000Z</time>
        <extensions>
          <ns3:TrackPointExtension>
            <ns3:hr>68</ns3:hr>
            <ns3:cad>0</ns3:cad>
          </ns3:TrackPointExtension>
        </extensions>
      </trkpt>
      <trkpt lat="43.47183982841670513153076171875" lon="1.432057209312915802001953125">
        <ele>253.399993896484375</ele>
        <time>2026-08-05T10:05:28.000Z</time>
        <extensions>
          <ns3:TrackPointExtension>
            <ns3:hr>67</ns3:hr>
            <ns3:cad>0</ns3:cad>
          </ns3:TrackPointExtension>
        </extensions>
      </trkpt>
      <trkpt lat="43.47183982841670513153076171875" lon="1.432057209312915802001953125">
        <ele>253.399993896484375</ele>
        <time>2026-08-05T10:05:29.000Z</time>
        <extensions>
          <ns3:TrackPointExtension>
            <ns3:hr>66</ns3:hr>
            <ns3:cad>0</ns3:cad>
          </ns3:TrackPointExtension>
        </extensions>
      </trkpt>
      <trkpt lat="43.47183982841670513153076171875" lon="1.432057209312915802001953125">
        <ele>253.600006103515625</ele>
        <time>2026-08-05T10:05:30.000Z</time>
        <extensions>
          <ns3:TrackPointExtension>
            <ns3:hr>66</ns3:hr>
            <ns3:cad>0</ns3:cad>
          </ns3:TrackPointExtension>
        </extensions>
      </trkpt>
      <trkpt lat="43.47183982841670513153076171875" lon="1.432057209312915802001953125">
        <ele>253.600006103515625</ele>
        <time>2026-08-05T10:05:31.000Z</time>
        <extensions>
          <ns3:TrackPointExtension>
            <ns3:hr>66</ns3:hr>
            <ns3:cad>0</ns3:cad>
          </ns3:TrackPointExtension>
        </extensions>
      </trkpt>
      <trkpt lat="43.47183982841670513153076171875" lon="1.432057209312915802001953125">
        <ele>253.600006103515625</ele>
        <time>2026-08-05T10:05:32.000Z</time>
        <extensions>
          <ns3:TrackPointExtension>
            <ns3:hr>66</ns3:hr>
            <ns3:cad>0</ns3:cad>
          </ns3:TrackPointExtension>
        </extensions>
      </trkpt>
      <trkpt lat="43.47183982841670513153076171875" lon="1.432057209312915802001953125">
        <ele>253.600006103515625</ele>
        <time>2026-08-05T10:05:33.000Z</time>
        <extensions>
          <ns3:TrackPointExtension>
            <ns3:hr>65</ns3:hr>
            <ns3:cad>0</ns3:cad>
          </ns3:TrackPointExtension>
        </extensions>
      </trkpt>
      <trkpt lat="43.47183982841670513153076171875" lon="1.432057209312915802001953125">
        <ele>253.399993896484375</ele>
        <time>2026-08-05T10:05:34.000Z</time>
        <extensions>
          <ns3:TrackPointExtension>
            <ns3:hr>65</ns3:hr>
            <ns3:cad>0</ns3:cad>
          </ns3:TrackPointExtension>
        </extensions>
      </trkpt>
      <trkpt lat="43.47183982841670513153076171875" lon="1.432057209312915802001953125">
        <ele>253.399993896484375</ele>
        <time>2026-08-05T10:05:35.000Z</time>
        <extensions>
          <ns3:TrackPointExtension>
            <ns3:hr>65</ns3:hr>
            <ns3:cad>0</ns3:cad>
          </ns3:TrackPointExtension>
        </extensions>
      </trkpt>
      <trkpt lat="43.47183982841670513153076171875" lon="1.432057209312915802001953125">
        <ele>253.399993896484375</ele>
        <time>2026-08-05T10:05:36.000Z</time>
        <extensions>
          <ns3:TrackPointExtension>
            <ns3:hr>65</ns3:hr>
            <ns3:cad>0</ns3:cad>
          </ns3:TrackPointExtension>
        </extensions>
      </trkpt>
      <trkpt lat="43.47183982841670513153076171875" lon="1.432057209312915802001953125">
        <ele>253.600006103515625</ele>
        <time>2026-08-05T10:05:37.000Z</time>
        <extensions>
          <ns3:TrackPointExtension>
            <ns3:hr>64</ns3:hr>
            <ns3:cad>0</ns3:cad>
          </ns3:TrackPointExtension>
        </extensions>
      </trkpt>
      <trkpt lat="43.47183982841670513153076171875" lon="1.432057209312915802001953125">
        <ele>253.600006103515625</ele>
        <time>2026-08-05T10:05:38.000Z</time>
        <extensions>
          <ns3:TrackPointExtension>
            <ns3:hr>65</ns3:hr>
            <ns3:cad>0</ns3:cad>
          </ns3:TrackPointExtension>
        </extensions>
      </trkpt>
      <trkpt lat="43.47183982841670513153076171875" lon="1.432057209312915802001953125">
        <ele>253.600006103515625</ele>
        <time>2026-08-05T10:05:39.000Z</time>
        <extensions>
          <ns3:TrackPointExtension>
            <ns3:hr>64</ns3:hr>
            <ns3:cad>0</ns3:cad>
          </ns3:TrackPointExtension>
        </extensions>
      </trkpt>
      <trkpt lat="43.47183982841670513153076171875" lon="1.432057209312915802001953125">
        <ele>253.600006103515625</ele>
        <time>2026-08-05T10:05:40.000Z</time>
        <extensions>
          <ns3:TrackPointExtension>
            <ns3:hr>64</ns3:hr>
            <ns3:cad>0</ns3:cad>
          </ns3:TrackPointExtension>
        </extensions>
      </trkpt>
      <trkpt lat="43.47183982841670513153076171875" lon="1.432057209312915802001953125">
        <ele>253.8000030517578125</ele>
        <time>2026-08-05T10:05:41.000Z</time>
        <extensions>
          <ns3:TrackPointExtension>
            <ns3:hr>64</ns3:hr>
            <ns3:cad>0</ns3:cad>
          </ns3:TrackPointExtension>
        </extensions>
      </trkpt>
      <trkpt lat="43.47183982841670513153076171875" lon="1.432057209312915802001953125">
        <ele>253.8000030517578125</ele>
        <time>2026-08-05T10:05:42.000Z</time>
        <extensions>
          <ns3:TrackPointExtension>
            <ns3:hr>64</ns3:hr>
            <ns3:cad>0</ns3:cad>
          </ns3:TrackPointExtension>
        </extensions>
      </trkpt>
      <trkpt lat="43.47183982841670513153076171875" lon="1.432057209312915802001953125">
        <ele>253.8000030517578125</ele>
        <time>2026-08-05T10:05:43.000Z</time>
        <extensions>
          <ns3:TrackPointExtension>
            <ns3:hr>64</ns3:hr>
            <ns3:cad>0</ns3:cad>
          </ns3:TrackPointExtension>
        </extensions>
      </trkpt>
      <trkpt lat="43.47183982841670513153076171875" lon="1.432057209312915802001953125">
        <ele>253.8000030517578125</ele>
        <time>2026-08-05T10:05:44.000Z</time>
        <extensions>
          <ns3:TrackPointExtension>
            <ns3:hr>65</ns3:hr>
            <ns3:cad>0</ns3:cad>
          </ns3:TrackPointExtension>
        </extensions>
      </trkpt>
      <trkpt lat="43.47183982841670513153076171875" lon="1.432057209312915802001953125">
        <ele>253.8000030517578125</ele>
        <time>2026-08-05T10:05:45.000Z</time>
        <extensions>
          <ns3:TrackPointExtension>
            <ns3:hr>66</ns3:hr>
            <ns3:cad>0</ns3:cad>
          </ns3:TrackPointExtension>
        </extensions>
      </trkpt>
      <trkpt lat="43.47183982841670513153076171875" lon="1.432057209312915802001953125">
        <ele>253.600006103515625</ele>
        <time>2026-08-05T10:05:46.000Z</time>
        <extensions>
          <ns3:TrackPointExtension>
            <ns3:hr>66</ns3:hr>
            <ns3:cad>0</ns3:cad>
          </ns3:TrackPointExtension>
        </extensions>
      </trkpt>
      <trkpt lat="43.47183982841670513153076171875" lon="1.432057209312915802001953125">
        <ele>253.600006103515625</ele>
        <time>2026-08-05T10:05:47.000Z</time>
        <extensions>
          <ns3:TrackPointExtension>
            <ns3:hr>66</ns3:hr>
            <ns3:cad>0</ns3:cad>
          </ns3:TrackPointExtension>
        </extensions>
      </trkpt>
      <trkpt lat="43.47183982841670513153076171875" lon="1.432057209312915802001953125">
        <ele>253.600006103515625</ele>
        <time>2026-08-05T10:05:48.000Z</time>
        <extensions>
          <ns3:TrackPointExtension>
            <ns3:hr>66</ns3:hr>
            <ns3:cad>0</ns3:cad>
          </ns3:TrackPointExtension>
        </extensions>
      </trkpt>
      <trkpt lat="43.47183982841670513153076171875" lon="1.432057209312915802001953125">
        <ele>253.399993896484375</ele>
        <time>2026-08-05T10:05:49.000Z</time>
        <extensions>
          <ns3:TrackPointExtension>
            <ns3:hr>66</ns3:hr>
            <ns3:cad>0</ns3:cad>
          </ns3:TrackPointExtension>
        </extensions>
      </trkpt>
      <trkpt lat="43.47183982841670513153076171875" lon="1.432057209312915802001953125">
        <ele>253.399993896484375</ele>
        <time>2026-08-05T10:05:50.000Z</time>
        <extensions>
          <ns3:TrackPointExtension>
            <ns3:hr>65</ns3:hr>
            <ns3:cad>0</ns3:cad>
          </ns3:TrackPointExtension>
        </extensions>
      </trkpt>
      <trkpt lat="43.47183982841670513153076171875" lon="1.432057209312915802001953125">
        <ele>253.399993896484375</ele>
        <time>2026-08-05T10:05:51.000Z</time>
        <extensions>
          <ns3:TrackPointExtension>
            <ns3:hr>64</ns3:hr>
            <ns3:cad>0</ns3:cad>
          </ns3:TrackPointExtension>
        </extensions>
      </trkpt>
      <trkpt lat="43.47183982841670513153076171875" lon="1.432057209312915802001953125">
        <ele>253.399993896484375</ele>
        <time>2026-08-05T10:05:52.000Z</time>
        <extensions>
          <ns3:TrackPointExtension>
            <ns3:hr>64</ns3:hr>
            <ns3:cad>0</ns3:cad>
          </ns3:TrackPointExtension>
        </extensions>
      </trkpt>
      <trkpt lat="43.47183982841670513153076171875" lon="1.432057209312915802001953125">
        <ele>253.1999969482421875</ele>
        <time>2026-08-05T10:05:53.000Z</time>
        <extensions>
          <ns3:TrackPointExtension>
            <ns3:hr>64</ns3:hr>
            <ns3:cad>0</ns3:cad>
          </ns3:TrackPointExtension>
        </extensions>
      </trkpt>
      <trkpt lat="43.47183982841670513153076171875" lon="1.432057209312915802001953125">
        <ele>253.1999969482421875</ele>
        <time>2026-08-05T10:05:54.000Z</time>
        <extensions>
          <ns3:TrackPointExtension>
            <ns3:hr>64</ns3:hr>
            <ns3:cad>0</ns3:cad>
          </ns3:TrackPointExtension>
        </extensions>
      </trkpt>
      <trkpt lat="43.47183982841670513153076171875" lon="1.432057209312915802001953125">
        <ele>253.399993896484375</ele>
        <time>2026-08-05T10:05:55.000Z</time>
        <extensions>
          <ns3:TrackPointExtension>
            <ns3:hr>64</ns3:hr>
            <ns3:cad>0</ns3:cad>
          </ns3:TrackPointExtension>
        </extensions>
      </trkpt>
      <trkpt lat="43.47183982841670513153076171875" lon="1.432057209312915802001953125">
        <ele>253.399993896484375</ele>
        <time>2026-08-05T10:05:56.000Z</time>
        <extensions>
          <ns3:TrackPointExtension>
            <ns3:hr>63</ns3:hr>
            <ns3:cad>0</ns3:cad>
          </ns3:TrackPointExtension>
        </extensions>
      </trkpt>
      <trkpt lat="43.47183982841670513153076171875" lon="1.432057209312915802001953125">
        <ele>253.399993896484375</ele>
        <time>2026-08-05T10:05:57.000Z</time>
        <extensions>
          <ns3:TrackPointExtension>
            <ns3:hr>64</ns3:hr>
            <ns3:cad>0</ns3:cad>
          </ns3:TrackPointExtension>
        </extensions>
      </trkpt>
      <trkpt lat="43.47183982841670513153076171875" lon="1.432057209312915802001953125">
        <ele>253.399993896484375</ele>
        <time>2026-08-05T10:05:58.000Z</time>
        <extensions>
          <ns3:TrackPointExtension>
            <ns3:hr>64</ns3:hr>
            <ns3:cad>0</ns3:cad>
          </ns3:TrackPointExtension>
        </extensions>
      </trkpt>
      <trkpt lat="43.47183982841670513153076171875" lon="1.432057209312915802001953125">
        <ele>253.399993896484375</ele>
        <time>2026-08-05T10:05:59.000Z</time>
        <extensions>
          <ns3:TrackPointExtension>
            <ns3:hr>64</ns3:hr>
            <ns3:cad>0</ns3:cad>
          </ns3:TrackPointExtension>
        </extensions>
      </trkpt>
      <trkpt lat="43.47183982841670513153076171875" lon="1.432057209312915802001953125">
        <ele>253.399993896484375</ele>
        <time>2026-08-05T10:06:00.000Z</time>
        <extensions>
          <ns3:TrackPointExtension>
            <ns3:hr>65</ns3:hr>
            <ns3:cad>0</ns3:cad>
          </ns3:TrackPointExtension>
        </extensions>
      </trkpt>
      <trkpt lat="43.47183982841670513153076171875" lon="1.432057209312915802001953125">
        <ele>253.399993896484375</ele>
        <time>2026-08-05T10:06:01.000Z</time>
        <extensions>
          <ns3:TrackPointExtension>
            <ns3:hr>65</ns3:hr>
            <ns3:cad>0</ns3:cad>
          </ns3:TrackPointExtension>
        </extensions>
      </trkpt>
      <trkpt lat="43.47183982841670513153076171875" lon="1.432057209312915802001953125">
        <ele>253.399993896484375</ele>
        <time>2026-08-05T10:06:02.000Z</time>
        <extensions>
          <ns3:TrackPointExtension>
            <ns3:hr>65</ns3:hr>
            <ns3:cad>0</ns3:cad>
          </ns3:TrackPointExtension>
        </extensions>
      </trkpt>
      <trkpt lat="43.47183982841670513153076171875" lon="1.432057209312915802001953125">
        <ele>253.399993896484375</ele>
        <time>2026-08-05T10:06:03.000Z</time>
        <extensions>
          <ns3:TrackPointExtension>
            <ns3:hr>64</ns3:hr>
            <ns3:cad>0</ns3:cad>
          </ns3:TrackPointExtension>
        </extensions>
      </trkpt>
      <trkpt lat="43.47183982841670513153076171875" lon="1.432057209312915802001953125">
        <ele>253.399993896484375</ele>
        <time>2026-08-05T10:06:04.000Z</time>
        <extensions>
          <ns3:TrackPointExtension>
            <ns3:hr>64</ns3:hr>
            <ns3:cad>0</ns3:cad>
          </ns3:TrackPointExtension>
        </extensions>
      </trkpt>
      <trkpt lat="43.47183982841670513153076171875" lon="1.432057209312915802001953125">
        <ele>253.399993896484375</ele>
        <time>2026-08-05T10:06:05.000Z</time>
        <extensions>
          <ns3:TrackPointExtension>
            <ns3:hr>64</ns3:hr>
            <ns3:cad>0</ns3:cad>
          </ns3:TrackPointExtension>
        </extensions>
      </trkpt>
      <trkpt lat="43.47183982841670513153076171875" lon="1.432057209312915802001953125">
        <ele>253.600006103515625</ele>
        <time>2026-08-05T10:06:06.000Z</time>
        <extensions>
          <ns3:TrackPointExtension>
            <ns3:hr>64</ns3:hr>
            <ns3:cad>0</ns3:cad>
          </ns3:TrackPointExtension>
        </extensions>
      </trkpt>
      <trkpt lat="43.47183982841670513153076171875" lon="1.432057209312915802001953125">
        <ele>253.600006103515625</ele>
        <time>2026-08-05T10:06:07.000Z</time>
        <extensions>
          <ns3:TrackPointExtension>
            <ns3:hr>64</ns3:hr>
            <ns3:cad>0</ns3:cad>
          </ns3:TrackPointExtension>
        </extensions>
      </trkpt>
      <trkpt lat="43.47183982841670513153076171875" lon="1.432057209312915802001953125">
        <ele>253.600006103515625</ele>
        <time>2026-08-05T10:06:08.000Z</time>
        <extensions>
          <ns3:TrackPointExtension>
            <ns3:hr>64</ns3:hr>
            <ns3:cad>0</ns3:cad>
          </ns3:TrackPointExtension>
        </extensions>
      </trkpt>
      <trkpt lat="43.47183982841670513153076171875" lon="1.432057209312915802001953125">
        <ele>253.600006103515625</ele>
        <time>2026-08-05T10:06:09.000Z</time>
        <extensions>
          <ns3:TrackPointExtension>
            <ns3:hr>64</ns3:hr>
            <ns3:cad>0</ns3:cad>
          </ns3:TrackPointExtension>
        </extensions>
      </trkpt>
      <trkpt lat="43.47183982841670513153076171875" lon="1.432057209312915802001953125">
        <ele>253.600006103515625</ele>
        <time>2026-08-05T10:06:10.000Z</time>
        <extensions>
          <ns3:TrackPointExtension>
            <ns3:hr>63</ns3:hr>
            <ns3:cad>0</ns3:cad>
          </ns3:TrackPointExtension>
        </extensions>
      </trkpt>
      <trkpt lat="43.47183982841670513153076171875" lon="1.432057209312915802001953125">
        <ele>253.600006103515625</ele>
        <time>2026-08-05T10:06:11.000Z</time>
        <extensions>
          <ns3:TrackPointExtension>
            <ns3:hr>65</ns3:hr>
            <ns3:cad>0</ns3:cad>
          </ns3:TrackPointExtension>
        </extensions>
      </trkpt>
      <trkpt lat="43.47183982841670513153076171875" lon="1.432057209312915802001953125">
        <ele>253.600006103515625</ele>
        <time>2026-08-05T10:06:12.000Z</time>
        <extensions>
          <ns3:TrackPointExtension>
            <ns3:hr>66</ns3:hr>
            <ns3:cad>0</ns3:cad>
          </ns3:TrackPointExtension>
        </extensions>
      </trkpt>
      <trkpt lat="43.47183982841670513153076171875" lon="1.432057209312915802001953125">
        <ele>253.600006103515625</ele>
        <time>2026-08-05T10:06:13.000Z</time>
        <extensions>
          <ns3:TrackPointExtension>
            <ns3:hr>67</ns3:hr>
            <ns3:cad>0</ns3:cad>
          </ns3:TrackPointExtension>
        </extensions>
      </trkpt>
      <trkpt lat="43.47183982841670513153076171875" lon="1.432057209312915802001953125">
        <ele>253.600006103515625</ele>
        <time>2026-08-05T10:06:14.000Z</time>
        <extensions>
          <ns3:TrackPointExtension>
            <ns3:hr>68</ns3:hr>
            <ns3:cad>0</ns3:cad>
          </ns3:TrackPointExtension>
        </extensions>
      </trkpt>
      <trkpt lat="43.47183982841670513153076171875" lon="1.432057209312915802001953125">
        <ele>253.399993896484375</ele>
        <time>2026-08-05T10:06:15.000Z</time>
        <extensions>
          <ns3:TrackPointExtension>
            <ns3:hr>67</ns3:hr>
            <ns3:cad>0</ns3:cad>
          </ns3:TrackPointExtension>
        </extensions>
      </trkpt>
      <trkpt lat="43.47183982841670513153076171875" lon="1.432057209312915802001953125">
        <ele>253.399993896484375</ele>
        <time>2026-08-05T10:06:16.000Z</time>
        <extensions>
          <ns3:TrackPointExtension>
            <ns3:hr>66</ns3:hr>
            <ns3:cad>0</ns3:cad>
          </ns3:TrackPointExtension>
        </extensions>
      </trkpt>
      <trkpt lat="43.47183982841670513153076171875" lon="1.432057209312915802001953125">
        <ele>253.399993896484375</ele>
        <time>2026-08-05T10:06:17.000Z</time>
        <extensions>
          <ns3:TrackPointExtension>
            <ns3:hr>64</ns3:hr>
            <ns3:cad>0</ns3:cad>
          </ns3:TrackPointExtension>
        </extensions>
      </trkpt>
      <trkpt lat="43.47183982841670513153076171875" lon="1.432057209312915802001953125">
        <ele>253.399993896484375</ele>
        <time>2026-08-05T10:06:18.000Z</time>
        <extensions>
          <ns3:TrackPointExtension>
            <ns3:hr>64</ns3:hr>
            <ns3:cad>0</ns3:cad>
          </ns3:TrackPointExtension>
        </extensions>
      </trkpt>
      <trkpt lat="43.47183982841670513153076171875" lon="1.432057209312915802001953125">
        <ele>253.399993896484375</ele>
        <time>2026-08-05T10:06:19.000Z</time>
        <extensions>
          <ns3:TrackPointExtension>
            <ns3:hr>65</ns3:hr>
            <ns3:cad>0</ns3:cad>
          </ns3:TrackPointExtension>
        </extensions>
      </trkpt>
      <trkpt lat="43.47183982841670513153076171875" lon="1.432057209312915802001953125">
        <ele>253.399993896484375</ele>
        <time>2026-08-05T10:06:20.000Z</time>
        <extensions>
          <ns3:TrackPointExtension>
            <ns3:hr>65</ns3:hr>
            <ns3:cad>0</ns3:cad>
          </ns3:TrackPointExtension>
        </extensions>
      </trkpt>
      <trkpt lat="43.47183982841670513153076171875" lon="1.432057209312915802001953125">
        <ele>253.399993896484375</ele>
        <time>2026-08-05T10:06:21.000Z</time>
        <extensions>
          <ns3:TrackPointExtension>
            <ns3:hr>65</ns3:hr>
            <ns3:cad>0</ns3:cad>
          </ns3:TrackPointExtension>
        </extensions>
      </trkpt>
      <trkpt lat="43.47183982841670513153076171875" lon="1.432057209312915802001953125">
        <ele>253.600006103515625</ele>
        <time>2026-08-05T10:06:22.000Z</time>
        <extensions>
          <ns3:TrackPointExtension>
            <ns3:hr>65</ns3:hr>
            <ns3:cad>0</ns3:cad>
          </ns3:TrackPointExtension>
        </extensions>
      </trkpt>
      <trkpt lat="43.47183865495026111602783203125" lon="1.4320557005703449249267578125">
        <ele>253.399993896484375</ele>
        <time>2026-08-05T10:06:23.000Z</time>
        <extensions>
          <ns3:TrackPointExtension>
            <ns3:hr>65</ns3:hr>
            <ns3:cad>0</ns3:cad>
          </ns3:TrackPointExtension>
        </extensions>
      </trkpt>
      <trkpt lat="43.47183999605476856231689453125" lon="1.43205930478870868682861328125">
        <ele>253.399993896484375</ele>
        <time>2026-08-05T10:06:24.000Z</time>
        <extensions>
          <ns3:TrackPointExtension>
            <ns3:hr>65</ns3:hr>
            <ns3:cad>0</ns3:cad>
          </ns3:TrackPointExtension>
        </extensions>
      </trkpt>
      <trkpt lat="43.47183982841670513153076171875" lon="1.432057209312915802001953125">
        <ele>253.600006103515625</ele>
        <time>2026-08-05T10:06:25.000Z</time>
        <extensions>
          <ns3:TrackPointExtension>
            <ns3:hr>64</ns3:hr>
            <ns3:cad>0</ns3:cad>
          </ns3:TrackPointExtension>
        </extensions>
      </trkpt>
      <trkpt lat="43.47183982841670513153076171875" lon="1.432057209312915802001953125">
        <ele>253.399993896484375</ele>
        <time>2026-08-05T10:06:26.000Z</time>
        <extensions>
          <ns3:TrackPointExtension>
            <ns3:hr>62</ns3:hr>
            <ns3:cad>0</ns3:cad>
          </ns3:TrackPointExtension>
        </extensions>
      </trkpt>
      <trkpt lat="43.47183982841670513153076171875" lon="1.432057209312915802001953125">
        <ele>253.399993896484375</ele>
        <time>2026-08-05T10:06:27.000Z</time>
        <extensions>
          <ns3:TrackPointExtension>
            <ns3:hr>61</ns3:hr>
            <ns3:cad>0</ns3:cad>
          </ns3:TrackPointExtension>
        </extensions>
      </trkpt>
      <trkpt lat="43.47183982841670513153076171875" lon="1.432057209312915802001953125">
        <ele>253.399993896484375</ele>
        <time>2026-08-05T10:06:28.000Z</time>
        <extensions>
          <ns3:TrackPointExtension>
            <ns3:hr>60</ns3:hr>
            <ns3:cad>0</ns3:cad>
          </ns3:TrackPointExtension>
        </extensions>
      </trkpt>
      <trkpt lat="43.47183982841670513153076171875" lon="1.432057209312915802001953125">
        <ele>253.399993896484375</ele>
        <time>2026-08-05T10:06:29.000Z</time>
        <extensions>
          <ns3:TrackPointExtension>
            <ns3:hr>59</ns3:hr>
            <ns3:cad>0</ns3:cad>
          </ns3:TrackPointExtension>
        </extensions>
      </trkpt>
      <trkpt lat="43.47183982841670513153076171875" lon="1.432057209312915802001953125">
        <ele>253.399993896484375</ele>
        <time>2026-08-05T10:06:30.000Z</time>
        <extensions>
          <ns3:TrackPointExtension>
            <ns3:hr>58</ns3:hr>
            <ns3:cad>0</ns3:cad>
          </ns3:TrackPointExtension>
        </extensions>
      </trkpt>
      <trkpt lat="43.47183982841670513153076171875" lon="1.432057209312915802001953125">
        <ele>253.399993896484375</ele>
        <time>2026-08-05T10:06:31.000Z</time>
        <extensions>
          <ns3:TrackPointExtension>
            <ns3:hr>58</ns3:hr>
            <ns3:cad>0</ns3:cad>
          </ns3:TrackPointExtension>
        </extensions>
      </trkpt>
      <trkpt lat="43.47183982841670513153076171875" lon="1.432057209312915802001953125">
        <ele>253.399993896484375</ele>
        <time>2026-08-05T10:06:32.000Z</time>
        <extensions>
          <ns3:TrackPointExtension>
            <ns3:hr>58</ns3:hr>
            <ns3:cad>0</ns3:cad>
          </ns3:TrackPointExtension>
        </extensions>
      </trkpt>
      <trkpt lat="43.47183982841670513153076171875" lon="1.432057209312915802001953125">
        <ele>253.399993896484375</ele>
        <time>2026-08-05T10:06:33.000Z</time>
        <extensions>
          <ns3:TrackPointExtension>
            <ns3:hr>59</ns3:hr>
            <ns3:cad>0</ns3:cad>
          </ns3:TrackPointExtension>
        </extensions>
      </trkpt>
      <trkpt lat="43.47183982841670513153076171875" lon="1.432057209312915802001953125">
        <ele>253.600006103515625</ele>
        <time>2026-08-05T10:06:34.000Z</time>
        <extensions>
          <ns3:TrackPointExtension>
            <ns3:hr>58</ns3:hr>
            <ns3:cad>0</ns3:cad>
          </ns3:TrackPointExtension>
        </extensions>
      </trkpt>
      <trkpt lat="43.47183982841670513153076171875" lon="1.432057209312915802001953125">
        <ele>253.600006103515625</ele>
        <time>2026-08-05T10:06:35.000Z</time>
        <extensions>
          <ns3:TrackPointExtension>
            <ns3:hr>58</ns3:hr>
            <ns3:cad>0</ns3:cad>
          </ns3:TrackPointExtension>
        </extensions>
      </trkpt>
      <trkpt lat="43.47183982841670513153076171875" lon="1.432057209312915802001953125">
        <ele>253.600006103515625</ele>
        <time>2026-08-05T10:06:36.000Z</time>
        <extensions>
          <ns3:TrackPointExtension>
            <ns3:hr>57</ns3:hr>
            <ns3:cad>0</ns3:cad>
          </ns3:TrackPointExtension>
        </extensions>
      </trkpt>
      <trkpt lat="43.47183982841670513153076171875" lon="1.432057209312915802001953125">
        <ele>253.600006103515625</ele>
        <time>2026-08-05T10:06:37.000Z</time>
        <extensions>
          <ns3:TrackPointExtension>
            <ns3:hr>57</ns3:hr>
            <ns3:cad>0</ns3:cad>
          </ns3:TrackPointExtension>
        </extensions>
      </trkpt>
      <trkpt lat="43.47183982841670513153076171875" lon="1.432057209312915802001953125">
        <ele>253.600006103515625</ele>
        <time>2026-08-05T10:06:38.000Z</time>
        <extensions>
          <ns3:TrackPointExtension>
            <ns3:hr>56</ns3:hr>
            <ns3:cad>0</ns3:cad>
          </ns3:TrackPointExtension>
        </extensions>
      </trkpt>
      <trkpt lat="43.47183982841670513153076171875" lon="1.432057209312915802001953125">
        <ele>253.600006103515625</ele>
        <time>2026-08-05T10:06:39.000Z</time>
        <extensions>
          <ns3:TrackPointExtension>
            <ns3:hr>56</ns3:hr>
            <ns3:cad>0</ns3:cad>
          </ns3:TrackPointExtension>
        </extensions>
      </trkpt>
      <trkpt lat="43.47183982841670513153076171875" lon="1.432057209312915802001953125">
        <ele>253.399993896484375</ele>
        <time>2026-08-05T10:06:40.000Z</time>
        <extensions>
          <ns3:TrackPointExtension>
            <ns3:hr>56</ns3:hr>
            <ns3:cad>0</ns3:cad>
          </ns3:TrackPointExtension>
        </extensions>
      </trkpt>
      <trkpt lat="43.47183982841670513153076171875" lon="1.432057209312915802001953125">
        <ele>253.399993896484375</ele>
        <time>2026-08-05T10:06:41.000Z</time>
        <extensions>
          <ns3:TrackPointExtension>
            <ns3:hr>57</ns3:hr>
            <ns3:cad>0</ns3:cad>
          </ns3:TrackPointExtension>
        </extensions>
      </trkpt>
      <trkpt lat="43.47183982841670513153076171875" lon="1.432057209312915802001953125">
        <ele>253.399993896484375</ele>
        <time>2026-08-05T10:06:42.000Z</time>
        <extensions>
          <ns3:TrackPointExtension>
            <ns3:hr>56</ns3:hr>
            <ns3:cad>0</ns3:cad>
          </ns3:TrackPointExtension>
        </extensions>
      </trkpt>
      <trkpt lat="43.47183982841670513153076171875" lon="1.432057209312915802001953125">
        <ele>253.399993896484375</ele>
        <time>2026-08-05T10:06:43.000Z</time>
        <extensions>
          <ns3:TrackPointExtension>
            <ns3:hr>56</ns3:hr>
            <ns3:cad>0</ns3:cad>
          </ns3:TrackPointExtension>
        </extensions>
      </trkpt>
      <trkpt lat="43.47183982841670513153076171875" lon="1.432057209312915802001953125">
        <ele>253.399993896484375</ele>
        <time>2026-08-05T10:06:44.000Z</time>
        <extensions>
          <ns3:TrackPointExtension>
            <ns3:hr>57</ns3:hr>
            <ns3:cad>0</ns3:cad>
          </ns3:TrackPointExtension>
        </extensions>
      </trkpt>
      <trkpt lat="43.47183982841670513153076171875" lon="1.432057209312915802001953125">
        <ele>253.399993896484375</ele>
        <time>2026-08-05T10:06:45.000Z</time>
        <extensions>
          <ns3:TrackPointExtension>
            <ns3:hr>57</ns3:hr>
            <ns3:cad>0</ns3:cad>
          </ns3:TrackPointExtension>
        </extensions>
      </trkpt>
      <trkpt lat="43.47183982841670513153076171875" lon="1.432057209312915802001953125">
        <ele>253.399993896484375</ele>
        <time>2026-08-05T10:06:46.000Z</time>
        <extensions>
          <ns3:TrackPointExtension>
            <ns3:hr>58</ns3:hr>
            <ns3:cad>0</ns3:cad>
          </ns3:TrackPointExtension>
        </extensions>
      </trkpt>
      <trkpt lat="43.47183982841670513153076171875" lon="1.432057209312915802001953125">
        <ele>253.399993896484375</ele>
        <time>2026-08-05T10:06:47.000Z</time>
        <extensions>
          <ns3:TrackPointExtension>
            <ns3:hr>58</ns3:hr>
            <ns3:cad>0</ns3:cad>
          </ns3:TrackPointExtension>
        </extensions>
      </trkpt>
      <trkpt lat="43.47183982841670513153076171875" lon="1.432057209312915802001953125">
        <ele>253.399993896484375</ele>
        <time>2026-08-05T10:06:48.000Z</time>
        <extensions>
          <ns3:TrackPointExtension>
            <ns3:hr>58</ns3:hr>
            <ns3:cad>0</ns3:cad>
          </ns3:TrackPointExtension>
        </extensions>
      </trkpt>
      <trkpt lat="43.47183982841670513153076171875" lon="1.432057209312915802001953125">
        <ele>253.399993896484375</ele>
        <time>2026-08-05T10:06:49.000Z</time>
        <extensions>
          <ns3:TrackPointExtension>
            <ns3:hr>60</ns3:hr>
            <ns3:cad>0</ns3:cad>
          </ns3:TrackPointExtension>
        </extensions>
      </trkpt>
      <trkpt lat="43.47183982841670513153076171875" lon="1.432057209312915802001953125">
        <ele>253.399993896484375</ele>
        <time>2026-08-05T10:06:50.000Z</time>
        <extensions>
          <ns3:TrackPointExtension>
            <ns3:hr>62</ns3:hr>
            <ns3:cad>0</ns3:cad>
          </ns3:TrackPointExtension>
        </extensions>
      </trkpt>
      <trkpt lat="43.47183982841670513153076171875" lon="1.432057209312915802001953125">
        <ele>253.600006103515625</ele>
        <time>2026-08-05T10:06:51.000Z</time>
        <extensions>
          <ns3:TrackPointExtension>
            <ns3:hr>63</ns3:hr>
            <ns3:cad>0</ns3:cad>
          </ns3:TrackPointExtension>
        </extensions>
      </trkpt>
      <trkpt lat="43.47183982841670513153076171875" lon="1.432057209312915802001953125">
        <ele>253.399993896484375</ele>
        <time>2026-08-05T10:06:52.000Z</time>
        <extensions>
          <ns3:TrackPointExtension>
            <ns3:hr>63</ns3:hr>
            <ns3:cad>0</ns3:cad>
          </ns3:TrackPointExtension>
        </extensions>
      </trkpt>
      <trkpt lat="43.47183982841670513153076171875" lon="1.432057209312915802001953125">
        <ele>253.399993896484375</ele>
        <time>2026-08-05T10:06:53.000Z</time>
        <extensions>
          <ns3:TrackPointExtension>
            <ns3:hr>63</ns3:hr>
            <ns3:cad>0</ns3:cad>
          </ns3:TrackPointExtension>
        </extensions>
      </trkpt>
      <trkpt lat="43.47183982841670513153076171875" lon="1.432057209312915802001953125">
        <ele>253.600006103515625</ele>
        <time>2026-08-05T10:06:54.000Z</time>
        <extensions>
          <ns3:TrackPointExtension>
            <ns3:hr>63</ns3:hr>
            <ns3:cad>0</ns3:cad>
          </ns3:TrackPointExtension>
        </extensions>
      </trkpt>
      <trkpt lat="43.47183982841670513153076171875" lon="1.432057209312915802001953125">
        <ele>253.600006103515625</ele>
        <time>2026-08-05T10:06:55.000Z</time>
        <extensions>
          <ns3:TrackPointExtension>
            <ns3:hr>63</ns3:hr>
            <ns3:cad>0</ns3:cad>
          </ns3:TrackPointExtension>
        </extensions>
      </trkpt>
      <trkpt lat="43.47183982841670513153076171875" lon="1.432057209312915802001953125">
        <ele>253.600006103515625</ele>
        <time>2026-08-05T10:06:56.000Z</time>
        <extensions>
          <ns3:TrackPointExtension>
            <ns3:hr>61</ns3:hr>
            <ns3:cad>0</ns3:cad>
          </ns3:TrackPointExtension>
        </extensions>
      </trkpt>
      <trkpt lat="43.47183982841670513153076171875" lon="1.432057209312915802001953125">
        <ele>253.600006103515625</ele>
        <time>2026-08-05T10:06:57.000Z</time>
        <extensions>
          <ns3:TrackPointExtension>
            <ns3:hr>58</ns3:hr>
            <ns3:cad>0</ns3:cad>
          </ns3:TrackPointExtension>
        </extensions>
      </trkpt>
      <trkpt lat="43.47183982841670513153076171875" lon="1.432057209312915802001953125">
        <ele>253.399993896484375</ele>
        <time>2026-08-05T10:06:58.000Z</time>
        <extensions>
          <ns3:TrackPointExtension>
            <ns3:hr>57</ns3:hr>
            <ns3:cad>0</ns3:cad>
          </ns3:TrackPointExtension>
        </extensions>
      </trkpt>
      <trkpt lat="43.47183982841670513153076171875" lon="1.432057209312915802001953125">
        <ele>253.399993896484375</ele>
        <time>2026-08-05T10:06:59.000Z</time>
        <extensions>
          <ns3:TrackPointExtension>
            <ns3:hr>57</ns3:hr>
            <ns3:cad>0</ns3:cad>
          </ns3:TrackPointExtension>
        </extensions>
      </trkpt>
      <trkpt lat="43.47183982841670513153076171875" lon="1.432057209312915802001953125">
        <ele>253.399993896484375</ele>
        <time>2026-08-05T10:07:00.000Z</time>
        <extensions>
          <ns3:TrackPointExtension>
            <ns3:hr>56</ns3:hr>
            <ns3:cad>0</ns3:cad>
          </ns3:TrackPointExtension>
        </extensions>
      </trkpt>
      <trkpt lat="43.47183982841670513153076171875" lon="1.432057209312915802001953125">
        <ele>253.399993896484375</ele>
        <time>2026-08-05T10:07:01.000Z</time>
        <extensions>
          <ns3:TrackPointExtension>
            <ns3:hr>56</ns3:hr>
            <ns3:cad>0</ns3:cad>
          </ns3:TrackPointExtension>
        </extensions>
      </trkpt>
      <trkpt lat="43.47183982841670513153076171875" lon="1.432057209312915802001953125">
        <ele>253.399993896484375</ele>
        <time>2026-08-05T10:07:02.000Z</time>
        <extensions>
          <ns3:TrackPointExtension>
            <ns3:hr>57</ns3:hr>
            <ns3:cad>0</ns3:cad>
          </ns3:TrackPointExtension>
        </extensions>
      </trkpt>
      <trkpt lat="43.47183982841670513153076171875" lon="1.432057209312915802001953125">
        <ele>253.399993896484375</ele>
        <time>2026-08-05T10:07:03.000Z</time>
        <extensions>
          <ns3:TrackPointExtension>
            <ns3:hr>57</ns3:hr>
            <ns3:cad>0</ns3:cad>
          </ns3:TrackPointExtension>
        </extensions>
      </trkpt>
      <trkpt lat="43.47183982841670513153076171875" lon="1.432057209312915802001953125">
        <ele>253.399993896484375</ele>
        <time>2026-08-05T10:07:04.000Z</time>
        <extensions>
          <ns3:TrackPointExtension>
            <ns3:hr>57</ns3:hr>
            <ns3:cad>0</ns3:cad>
          </ns3:TrackPointExtension>
        </extensions>
      </trkpt>
      <trkpt lat="43.47183982841670513153076171875" lon="1.432057209312915802001953125">
        <ele>253.600006103515625</ele>
        <time>2026-08-05T10:07:05.000Z</time>
        <extensions>
          <ns3:TrackPointExtension>
            <ns3:hr>57</ns3:hr>
            <ns3:cad>0</ns3:cad>
          </ns3:TrackPointExtension>
        </extensions>
      </trkpt>
      <trkpt lat="43.47183982841670513153076171875" lon="1.432057209312915802001953125">
        <ele>253.600006103515625</ele>
        <time>2026-08-05T10:07:06.000Z</time>
        <extensions>
          <ns3:TrackPointExtension>
            <ns3:hr>57</ns3:hr>
            <ns3:cad>0</ns3:cad>
          </ns3:TrackPointExtension>
        </extensions>
      </trkpt>
      <trkpt lat="43.47183982841670513153076171875" lon="1.432057209312915802001953125">
        <ele>253.399993896484375</ele>
        <time>2026-08-05T10:07:07.000Z</time>
        <extensions>
          <ns3:TrackPointExtension>
            <ns3:hr>58</ns3:hr>
            <ns3:cad>0</ns3:cad>
          </ns3:TrackPointExtension>
        </extensions>
      </trkpt>
      <trkpt lat="43.47183982841670513153076171875" lon="1.432057209312915802001953125">
        <ele>253.399993896484375</ele>
        <time>2026-08-05T10:07:08.000Z</time>
        <extensions>
          <ns3:TrackPointExtension>
            <ns3:hr>60</ns3:hr>
            <ns3:cad>0</ns3:cad>
          </ns3:TrackPointExtension>
        </extensions>
      </trkpt>
      <trkpt lat="43.47183982841670513153076171875" lon="1.432057209312915802001953125">
        <ele>253.399993896484375</ele>
        <time>2026-08-05T10:07:09.000Z</time>
        <extensions>
          <ns3:TrackPointExtension>
            <ns3:hr>61</ns3:hr>
            <ns3:cad>0</ns3:cad>
          </ns3:TrackPointExtension>
        </extensions>
      </trkpt>
      <trkpt lat="43.47183982841670513153076171875" lon="1.432057209312915802001953125">
        <ele>253.399993896484375</ele>
        <time>2026-08-05T10:07:10.000Z</time>
        <extensions>
          <ns3:TrackPointExtension>
            <ns3:hr>62</ns3:hr>
            <ns3:cad>0</ns3:cad>
          </ns3:TrackPointExtension>
        </extensions>
      </trkpt>
      <trkpt lat="43.47183982841670513153076171875" lon="1.432057209312915802001953125">
        <ele>253.399993896484375</ele>
        <time>2026-08-05T10:07:11.000Z</time>
        <extensions>
          <ns3:TrackPointExtension>
            <ns3:hr>63</ns3:hr>
            <ns3:cad>0</ns3:cad>
          </ns3:TrackPointExtension>
        </extensions>
      </trkpt>
      <trkpt lat="43.47183982841670513153076171875" lon="1.432057209312915802001953125">
        <ele>253.399993896484375</ele>
        <time>2026-08-05T10:07:12.000Z</time>
        <extensions>
          <ns3:TrackPointExtension>
            <ns3:hr>63</ns3:hr>
            <ns3:cad>0</ns3:cad>
          </ns3:TrackPointExtension>
        </extensions>
      </trkpt>
      <trkpt lat="43.47183982841670513153076171875" lon="1.432057209312915802001953125">
        <ele>253.399993896484375</ele>
        <time>2026-08-05T10:07:13.000Z</time>
        <extensions>
          <ns3:TrackPointExtension>
            <ns3:hr>63</ns3:hr>
            <ns3:cad>0</ns3:cad>
          </ns3:TrackPointExtension>
        </extensions>
      </trkpt>
      <trkpt lat="43.47183982841670513153076171875" lon="1.432057209312915802001953125">
        <ele>253.399993896484375</ele>
        <time>2026-08-05T10:07:14.000Z</time>
        <extensions>
          <ns3:TrackPointExtension>
            <ns3:hr>63</ns3:hr>
            <ns3:cad>0</ns3:cad>
          </ns3:TrackPointExtension>
        </extensions>
      </trkpt>
      <trkpt lat="43.47183982841670513153076171875" lon="1.432057209312915802001953125">
        <ele>253.399993896484375</ele>
        <time>2026-08-05T10:07:15.000Z</time>
        <extensions>
          <ns3:TrackPointExtension>
            <ns3:hr>63</ns3:hr>
            <ns3:cad>0</ns3:cad>
          </ns3:TrackPointExtension>
        </extensions>
      </trkpt>
      <trkpt lat="43.47183982841670513153076171875" lon="1.432057209312915802001953125">
        <ele>253.600006103515625</ele>
        <time>2026-08-05T10:07:16.000Z</time>
        <extensions>
          <ns3:TrackPointExtension>
            <ns3:hr>62</ns3:hr>
            <ns3:cad>0</ns3:cad>
          </ns3:TrackPointExtension>
        </extensions>
      </trkpt>
      <trkpt lat="43.47183982841670513153076171875" lon="1.432057209312915802001953125">
        <ele>253.600006103515625</ele>
        <time>2026-08-05T10:07:17.000Z</time>
        <extensions>
          <ns3:TrackPointExtension>
            <ns3:hr>62</ns3:hr>
            <ns3:cad>0</ns3:cad>
          </ns3:TrackPointExtension>
        </extensions>
      </trkpt>
      <trkpt lat="43.47183982841670513153076171875" lon="1.432057209312915802001953125">
        <ele>253.600006103515625</ele>
        <time>2026-08-05T10:07:18.000Z</time>
        <extensions>
          <ns3:TrackPointExtension>
            <ns3:hr>62</ns3:hr>
            <ns3:cad>0</ns3:cad>
          </ns3:TrackPointExtension>
        </extensions>
      </trkpt>
      <trkpt lat="43.47183982841670513153076171875" lon="1.432057209312915802001953125">
        <ele>253.600006103515625</ele>
        <time>2026-08-05T10:07:19.000Z</time>
        <extensions>
          <ns3:TrackPointExtension>
            <ns3:hr>60</ns3:hr>
            <ns3:cad>0</ns3:cad>
          </ns3:TrackPointExtension>
        </extensions>
      </trkpt>
      <trkpt lat="43.47183982841670513153076171875" lon="1.432057209312915802001953125">
        <ele>253.600006103515625</ele>
        <time>2026-08-05T10:07:20.000Z</time>
        <extensions>
          <ns3:TrackPointExtension>
            <ns3:hr>59</ns3:hr>
            <ns3:cad>0</ns3:cad>
          </ns3:TrackPointExtension>
        </extensions>
      </trkpt>
      <trkpt lat="43.47183982841670513153076171875" lon="1.432057209312915802001953125">
        <ele>253.600006103515625</ele>
        <time>2026-08-05T10:07:21.000Z</time>
        <extensions>
          <ns3:TrackPointExtension>
            <ns3:hr>60</ns3:hr>
            <ns3:cad>0</ns3:cad>
          </ns3:TrackPointExtension>
        </extensions>
      </trkpt>
      <trkpt lat="43.47183982841670513153076171875" lon="1.432057209312915802001953125">
        <ele>253.600006103515625</ele>
        <time>2026-08-05T10:07:22.000Z</time>
        <extensions>
          <ns3:TrackPointExtension>
            <ns3:hr>61</ns3:hr>
            <ns3:cad>0</ns3:cad>
          </ns3:TrackPointExtension>
        </extensions>
      </trkpt>
      <trkpt lat="43.47183982841670513153076171875" lon="1.432057209312915802001953125">
        <ele>253.600006103515625</ele>
        <time>2026-08-05T10:07:23.000Z</time>
        <extensions>
          <ns3:TrackPointExtension>
            <ns3:hr>61</ns3:hr>
            <ns3:cad>0</ns3:cad>
          </ns3:TrackPointExtension>
        </extensions>
      </trkpt>
      <trkpt lat="43.47183982841670513153076171875" lon="1.432057209312915802001953125">
        <ele>253.600006103515625</ele>
        <time>2026-08-05T10:07:24.000Z</time>
        <extensions>
          <ns3:TrackPointExtension>
            <ns3:hr>61</ns3:hr>
            <ns3:cad>0</ns3:cad>
          </ns3:TrackPointExtension>
        </extensions>
      </trkpt>
      <trkpt lat="43.47183982841670513153076171875" lon="1.432057209312915802001953125">
        <ele>253.600006103515625</ele>
        <time>2026-08-05T10:07:25.000Z</time>
        <extensions>
          <ns3:TrackPointExtension>
            <ns3:hr>61</ns3:hr>
            <ns3:cad>0</ns3:cad>
          </ns3:TrackPointExtension>
        </extensions>
      </trkpt>
      <trkpt lat="43.47183982841670513153076171875" lon="1.432057209312915802001953125">
        <ele>253.600006103515625</ele>
        <time>2026-08-05T10:07:26.000Z</time>
        <extensions>
          <ns3:TrackPointExtension>
            <ns3:hr>61</ns3:hr>
            <ns3:cad>0</ns3:cad>
          </ns3:TrackPointExtension>
        </extensions>
      </trkpt>
      <trkpt lat="43.47183982841670513153076171875" lon="1.432057209312915802001953125">
        <ele>253.600006103515625</ele>
        <time>2026-08-05T10:07:27.000Z</time>
        <extensions>
          <ns3:TrackPointExtension>
            <ns3:hr>61</ns3:hr>
            <ns3:cad>0</ns3:cad>
          </ns3:TrackPointExtension>
        </extensions>
      </trkpt>
      <trkpt lat="43.47183982841670513153076171875" lon="1.432057209312915802001953125">
        <ele>253.600006103515625</ele>
        <time>2026-08-05T10:07:28.000Z</time>
        <extensions>
          <ns3:TrackPointExtension>
            <ns3:hr>60</ns3:hr>
            <ns3:cad>0</ns3:cad>
          </ns3:TrackPointExtension>
        </extensions>
      </trkpt>
      <trkpt lat="43.47183982841670513153076171875" lon="1.432057209312915802001953125">
        <ele>253.600006103515625</ele>
        <time>2026-08-05T10:07:29.000Z</time>
        <extensions>
          <ns3:TrackPointExtension>
            <ns3:hr>61</ns3:hr>
            <ns3:cad>0</ns3:cad>
          </ns3:TrackPointExtension>
        </extensions>
      </trkpt>
      <trkpt lat="43.47183982841670513153076171875" lon="1.432057209312915802001953125">
        <ele>253.600006103515625</ele>
        <time>2026-08-05T10:07:30.000Z</time>
        <extensions>
          <ns3:TrackPointExtension>
            <ns3:hr>61</ns3:hr>
            <ns3:cad>0</ns3:cad>
          </ns3:TrackPointExtension>
        </extensions>
      </trkpt>
      <trkpt lat="43.47183982841670513153076171875" lon="1.432057209312915802001953125">
        <ele>253.600006103515625</ele>
        <time>2026-08-05T10:07:31.000Z</time>
        <extensions>
          <ns3:TrackPointExtension>
            <ns3:hr>60</ns3:hr>
            <ns3:cad>0</ns3:cad>
          </ns3:TrackPointExtension>
        </extensions>
      </trkpt>
      <trkpt lat="43.47183982841670513153076171875" lon="1.432057209312915802001953125">
        <ele>253.600006103515625</ele>
        <time>2026-08-05T10:07:32.000Z</time>
        <extensions>
          <ns3:TrackPointExtension>
            <ns3:hr>61</ns3:hr>
            <ns3:cad>0</ns3:cad>
          </ns3:TrackPointExtension>
        </extensions>
      </trkpt>
      <trkpt lat="43.47183982841670513153076171875" lon="1.432057209312915802001953125">
        <ele>253.600006103515625</ele>
        <time>2026-08-05T10:07:33.000Z</time>
        <extensions>
          <ns3:TrackPointExtension>
            <ns3:hr>61</ns3:hr>
            <ns3:cad>0</ns3:cad>
          </ns3:TrackPointExtension>
        </extensions>
      </trkpt>
      <trkpt lat="43.47183982841670513153076171875" lon="1.432057209312915802001953125">
        <ele>253.600006103515625</ele>
        <time>2026-08-05T10:07:34.000Z</time>
        <extensions>
          <ns3:TrackPointExtension>
            <ns3:hr>60</ns3:hr>
            <ns3:cad>0</ns3:cad>
          </ns3:TrackPointExtension>
        </extensions>
      </trkpt>
      <trkpt lat="43.47183982841670513153076171875" lon="1.432057209312915802001953125">
        <ele>253.600006103515625</ele>
        <time>2026-08-05T10:07:35.000Z</time>
        <extensions>
          <ns3:TrackPointExtension>
            <ns3:hr>61</ns3:hr>
            <ns3:cad>0</ns3:cad>
          </ns3:TrackPointExtension>
        </extensions>
      </trkpt>
      <trkpt lat="43.47183982841670513153076171875" lon="1.432057209312915802001953125">
        <ele>253.600006103515625</ele>
        <time>2026-08-05T10:07:36.000Z</time>
        <extensions>
          <ns3:TrackPointExtension>
            <ns3:hr>61</ns3:hr>
            <ns3:cad>0</ns3:cad>
          </ns3:TrackPointExtension>
        </extensions>
      </trkpt>
      <trkpt lat="43.47183982841670513153076171875" lon="1.432057209312915802001953125">
        <ele>253.600006103515625</ele>
        <time>2026-08-05T10:07:37.000Z</time>
        <extensions>
          <ns3:TrackPointExtension>
            <ns3:hr>60</ns3:hr>
            <ns3:cad>0</ns3:cad>
          </ns3:TrackPointExtension>
        </extensions>
      </trkpt>
      <trkpt lat="43.47183982841670513153076171875" lon="1.432057209312915802001953125">
        <ele>253.600006103515625</ele>
        <time>2026-08-05T10:07:38.000Z</time>
        <extensions>
          <ns3:TrackPointExtension>
            <ns3:hr>61</ns3:hr>
            <ns3:cad>0</ns3:cad>
          </ns3:TrackPointExtension>
        </extensions>
      </trkpt>
      <trkpt lat="43.47183982841670513153076171875" lon="1.432057209312915802001953125">
        <ele>253.600006103515625</ele>
        <time>2026-08-05T10:07:39.000Z</time>
        <extensions>
          <ns3:TrackPointExtension>
            <ns3:hr>60</ns3:hr>
            <ns3:cad>0</ns3:cad>
          </ns3:TrackPointExtension>
        </extensions>
      </trkpt>
      <trkpt lat="43.47183982841670513153076171875" lon="1.432057209312915802001953125">
        <ele>253.600006103515625</ele>
        <time>2026-08-05T10:07:40.000Z</time>
        <extensions>
          <ns3:TrackPointExtension>
            <ns3:hr>59</ns3:hr>
            <ns3:cad>0</ns3:cad>
          </ns3:TrackPointExtension>
        </extensions>
      </trkpt>
      <trkpt lat="43.47183982841670513153076171875" lon="1.432057209312915802001953125">
        <ele>253.600006103515625</ele>
        <time>2026-08-05T10:07:41.000Z</time>
        <extensions>
          <ns3:TrackPointExtension>
            <ns3:hr>59</ns3:hr>
            <ns3:cad>0</ns3:cad>
          </ns3:TrackPointExtension>
        </extensions>
      </trkpt>
      <trkpt lat="43.47183982841670513153076171875" lon="1.432057209312915802001953125">
        <ele>253.399993896484375</ele>
        <time>2026-08-05T10:07:42.000Z</time>
        <extensions>
          <ns3:TrackPointExtension>
            <ns3:hr>59</ns3:hr>
            <ns3:cad>0</ns3:cad>
          </ns3:TrackPointExtension>
        </extensions>
      </trkpt>
      <trkpt lat="43.47183982841670513153076171875" lon="1.432057209312915802001953125">
        <ele>253.399993896484375</ele>
        <time>2026-08-05T10:07:43.000Z</time>
        <extensions>
          <ns3:TrackPointExtension>
            <ns3:hr>58</ns3:hr>
            <ns3:cad>0</ns3:cad>
          </ns3:TrackPointExtension>
        </extensions>
      </trkpt>
      <trkpt lat="43.47183982841670513153076171875" lon="1.432057209312915802001953125">
        <ele>253.399993896484375</ele>
        <time>2026-08-05T10:07:44.000Z</time>
        <extensions>
          <ns3:TrackPointExtension>
            <ns3:hr>58</ns3:hr>
            <ns3:cad>0</ns3:cad>
          </ns3:TrackPointExtension>
        </extensions>
      </trkpt>
      <trkpt lat="43.47183982841670513153076171875" lon="1.432057209312915802001953125">
        <ele>253.399993896484375</ele>
        <time>2026-08-05T10:07:45.000Z</time>
        <extensions>
          <ns3:TrackPointExtension>
            <ns3:hr>58</ns3:hr>
            <ns3:cad>0</ns3:cad>
          </ns3:TrackPointExtension>
        </extensions>
      </trkpt>
      <trkpt lat="43.47183982841670513153076171875" lon="1.432057209312915802001953125">
        <ele>253.399993896484375</ele>
        <time>2026-08-05T10:07:46.000Z</time>
        <extensions>
          <ns3:TrackPointExtension>
            <ns3:hr>58</ns3:hr>
            <ns3:cad>0</ns3:cad>
          </ns3:TrackPointExtension>
        </extensions>
      </trkpt>
      <trkpt lat="43.47183982841670513153076171875" lon="1.432057209312915802001953125">
        <ele>253.399993896484375</ele>
        <time>2026-08-05T10:07:47.000Z</time>
        <extensions>
          <ns3:TrackPointExtension>
            <ns3:hr>57</ns3:hr>
            <ns3:cad>0</ns3:cad>
          </ns3:TrackPointExtension>
        </extensions>
      </trkpt>
      <trkpt lat="43.47183982841670513153076171875" lon="1.432057209312915802001953125">
        <ele>253.399993896484375</ele>
        <time>2026-08-05T10:07:48.000Z</time>
        <extensions>
          <ns3:TrackPointExtension>
            <ns3:hr>58</ns3:hr>
            <ns3:cad>0</ns3:cad>
          </ns3:TrackPointExtension>
        </extensions>
      </trkpt>
      <trkpt lat="43.47183982841670513153076171875" lon="1.432057209312915802001953125">
        <ele>253.600006103515625</ele>
        <time>2026-08-05T10:07:49.000Z</time>
        <extensions>
          <ns3:TrackPointExtension>
            <ns3:hr>57</ns3:hr>
            <ns3:cad>0</ns3:cad>
          </ns3:TrackPointExtension>
        </extensions>
      </trkpt>
      <trkpt lat="43.47183982841670513153076171875" lon="1.432057209312915802001953125">
        <ele>253.600006103515625</ele>
        <time>2026-08-05T10:07:50.000Z</time>
        <extensions>
          <ns3:TrackPointExtension>
            <ns3:hr>57</ns3:hr>
            <ns3:cad>0</ns3:cad>
          </ns3:TrackPointExtension>
        </extensions>
      </trkpt>
      <trkpt lat="43.47183982841670513153076171875" lon="1.432057209312915802001953125">
        <ele>253.600006103515625</ele>
        <time>2026-08-05T10:07:51.000Z</time>
        <extensions>
          <ns3:TrackPointExtension>
            <ns3:hr>57</ns3:hr>
            <ns3:cad>0</ns3:cad>
          </ns3:TrackPointExtension>
        </extensions>
      </trkpt>
      <trkpt lat="43.47183982841670513153076171875" lon="1.432057209312915802001953125">
        <ele>253.600006103515625</ele>
        <time>2026-08-05T10:07:52.000Z</time>
        <extensions>
          <ns3:TrackPointExtension>
            <ns3:hr>58</ns3:hr>
            <ns3:cad>0</ns3:cad>
          </ns3:TrackPointExtension>
        </extensions>
      </trkpt>
      <trkpt lat="43.47183982841670513153076171875" lon="1.432057209312915802001953125">
        <ele>253.600006103515625</ele>
        <time>2026-08-05T10:07:53.000Z</time>
        <extensions>
          <ns3:TrackPointExtension>
            <ns3:hr>57</ns3:hr>
            <ns3:cad>0</ns3:cad>
          </ns3:TrackPointExtension>
        </extensions>
      </trkpt>
      <trkpt lat="43.47183982841670513153076171875" lon="1.432057209312915802001953125">
        <ele>253.399993896484375</ele>
        <time>2026-08-05T10:07:54.000Z</time>
        <extensions>
          <ns3:TrackPointExtension>
            <ns3:hr>57</ns3:hr>
            <ns3:cad>0</ns3:cad>
          </ns3:TrackPointExtension>
        </extensions>
      </trkpt>
      <trkpt lat="43.47183982841670513153076171875" lon="1.432057209312915802001953125">
        <ele>253.399993896484375</ele>
        <time>2026-08-05T10:07:55.000Z</time>
        <extensions>
          <ns3:TrackPointExtension>
            <ns3:hr>57</ns3:hr>
            <ns3:cad>0</ns3:cad>
          </ns3:TrackPointExtension>
        </extensions>
      </trkpt>
      <trkpt lat="43.47183982841670513153076171875" lon="1.432057209312915802001953125">
        <ele>253.399993896484375</ele>
        <time>2026-08-05T10:07:56.000Z</time>
        <extensions>
          <ns3:TrackPointExtension>
            <ns3:hr>57</ns3:hr>
            <ns3:cad>0</ns3:cad>
          </ns3:TrackPointExtension>
        </extensions>
      </trkpt>
      <trkpt lat="43.47183982841670513153076171875" lon="1.432057209312915802001953125">
        <ele>253.399993896484375</ele>
        <time>2026-08-05T10:07:57.000Z</time>
        <extensions>
          <ns3:TrackPointExtension>
            <ns3:hr>57</ns3:hr>
            <ns3:cad>0</ns3:cad>
          </ns3:TrackPointExtension>
        </extensions>
      </trkpt>
      <trkpt lat="43.47183982841670513153076171875" lon="1.432057209312915802001953125">
        <ele>253.399993896484375</ele>
        <time>2026-08-05T10:07:58.000Z</time>
        <extensions>
          <ns3:TrackPointExtension>
            <ns3:hr>57</ns3:hr>
            <ns3:cad>0</ns3:cad>
          </ns3:TrackPointExtension>
        </extensions>
      </trkpt>
      <trkpt lat="43.47183982841670513153076171875" lon="1.432057209312915802001953125">
        <ele>253.399993896484375</ele>
        <time>2026-08-05T10:07:59.000Z</time>
        <extensions>
          <ns3:TrackPointExtension>
            <ns3:hr>58</ns3:hr>
            <ns3:cad>0</ns3:cad>
          </ns3:TrackPointExtension>
        </extensions>
      </trkpt>
      <trkpt lat="43.47183982841670513153076171875" lon="1.432057209312915802001953125">
        <ele>253.399993896484375</ele>
        <time>2026-08-05T10:08:00.000Z</time>
        <extensions>
          <ns3:TrackPointExtension>
            <ns3:hr>58</ns3:hr>
            <ns3:cad>0</ns3:cad>
          </ns3:TrackPointExtension>
        </extensions>
      </trkpt>
      <trkpt lat="43.47183982841670513153076171875" lon="1.432057209312915802001953125">
        <ele>253.399993896484375</ele>
        <time>2026-08-05T10:08:01.000Z</time>
        <extensions>
          <ns3:TrackPointExtension>
            <ns3:hr>58</ns3:hr>
            <ns3:cad>0</ns3:cad>
          </ns3:TrackPointExtension>
        </extensions>
      </trkpt>
      <trkpt lat="43.47183982841670513153076171875" lon="1.432057209312915802001953125">
        <ele>253.399993896484375</ele>
        <time>2026-08-05T10:08:02.000Z</time>
        <extensions>
          <ns3:TrackPointExtension>
            <ns3:hr>58</ns3:hr>
            <ns3:cad>0</ns3:cad>
          </ns3:TrackPointExtension>
        </extensions>
      </trkpt>
      <trkpt lat="43.47183982841670513153076171875" lon="1.432057209312915802001953125">
        <ele>253.399993896484375</ele>
        <time>2026-08-05T10:08:03.000Z</time>
        <extensions>
          <ns3:TrackPointExtension>
            <ns3:hr>58</ns3:hr>
            <ns3:cad>0</ns3:cad>
          </ns3:TrackPointExtension>
        </extensions>
      </trkpt>
      <trkpt lat="43.47183982841670513153076171875" lon="1.432057209312915802001953125">
        <ele>253.399993896484375</ele>
        <time>2026-08-05T10:08:04.000Z</time>
        <extensions>
          <ns3:TrackPointExtension>
            <ns3:hr>59</ns3:hr>
            <ns3:cad>0</ns3:cad>
          </ns3:TrackPointExtension>
        </extensions>
      </trkpt>
      <trkpt lat="43.47183982841670513153076171875" lon="1.432057209312915802001953125">
        <ele>253.600006103515625</ele>
        <time>2026-08-05T10:08:05.000Z</time>
        <extensions>
          <ns3:TrackPointExtension>
            <ns3:hr>59</ns3:hr>
            <ns3:cad>0</ns3:cad>
          </ns3:TrackPointExtension>
        </extensions>
      </trkpt>
      <trkpt lat="43.47183982841670513153076171875" lon="1.432057209312915802001953125">
        <ele>253.600006103515625</ele>
        <time>2026-08-05T10:08:06.000Z</time>
        <extensions>
          <ns3:TrackPointExtension>
            <ns3:hr>59</ns3:hr>
            <ns3:cad>0</ns3:cad>
          </ns3:TrackPointExtension>
        </extensions>
      </trkpt>
      <trkpt lat="43.47183982841670513153076171875" lon="1.432057209312915802001953125">
        <ele>253.600006103515625</ele>
        <time>2026-08-05T10:08:07.000Z</time>
        <extensions>
          <ns3:TrackPointExtension>
            <ns3:hr>59</ns3:hr>
            <ns3:cad>0</ns3:cad>
          </ns3:TrackPointExtension>
        </extensions>
      </trkpt>
      <trkpt lat="43.47183982841670513153076171875" lon="1.432057209312915802001953125">
        <ele>253.600006103515625</ele>
        <time>2026-08-05T10:08:08.000Z</time>
        <extensions>
          <ns3:TrackPointExtension>
            <ns3:hr>59</ns3:hr>
            <ns3:cad>0</ns3:cad>
          </ns3:TrackPointExtension>
        </extensions>
      </trkpt>
      <trkpt lat="43.47183982841670513153076171875" lon="1.432057209312915802001953125">
        <ele>253.600006103515625</ele>
        <time>2026-08-05T10:08:09.000Z</time>
        <extensions>
          <ns3:TrackPointExtension>
            <ns3:hr>59</ns3:hr>
            <ns3:cad>0</ns3:cad>
          </ns3:TrackPointExtension>
        </extensions>
      </trkpt>
      <trkpt lat="43.47183982841670513153076171875" lon="1.432057209312915802001953125">
        <ele>253.600006103515625</ele>
        <time>2026-08-05T10:08:10.000Z</time>
        <extensions>
          <ns3:TrackPointExtension>
            <ns3:hr>59</ns3:hr>
            <ns3:cad>0</ns3:cad>
          </ns3:TrackPointExtension>
        </extensions>
      </trkpt>
      <trkpt lat="43.47183982841670513153076171875" lon="1.432057209312915802001953125">
        <ele>253.600006103515625</ele>
        <time>2026-08-05T10:08:11.000Z</time>
        <extensions>
          <ns3:TrackPointExtension>
            <ns3:hr>59</ns3:hr>
            <ns3:cad>0</ns3:cad>
          </ns3:TrackPointExtension>
        </extensions>
      </trkpt>
      <trkpt lat="43.47183982841670513153076171875" lon="1.432057209312915802001953125">
        <ele>253.600006103515625</ele>
        <time>2026-08-05T10:08:12.000Z</time>
        <extensions>
          <ns3:TrackPointExtension>
            <ns3:hr>59</ns3:hr>
            <ns3:cad>0</ns3:cad>
          </ns3:TrackPointExtension>
        </extensions>
      </trkpt>
      <trkpt lat="43.47183982841670513153076171875" lon="1.432057209312915802001953125">
        <ele>253.600006103515625</ele>
        <time>2026-08-05T10:08:13.000Z</time>
        <extensions>
          <ns3:TrackPointExtension>
            <ns3:hr>59</ns3:hr>
            <ns3:cad>0</ns3:cad>
          </ns3:TrackPointExtension>
        </extensions>
      </trkpt>
      <trkpt lat="43.47183982841670513153076171875" lon="1.432057209312915802001953125">
        <ele>253.600006103515625</ele>
        <time>2026-08-05T10:08:14.000Z</time>
        <extensions>
          <ns3:TrackPointExtension>
            <ns3:hr>58</ns3:hr>
            <ns3:cad>0</ns3:cad>
          </ns3:TrackPointExtension>
        </extensions>
      </trkpt>
      <trkpt lat="43.47183982841670513153076171875" lon="1.432057209312915802001953125">
        <ele>253.600006103515625</ele>
        <time>2026-08-05T10:08:15.000Z</time>
        <extensions>
          <ns3:TrackPointExtension>
            <ns3:hr>59</ns3:hr>
            <ns3:cad>0</ns3:cad>
          </ns3:TrackPointExtension>
        </extensions>
      </trkpt>
      <trkpt lat="43.47183982841670513153076171875" lon="1.432057209312915802001953125">
        <ele>253.600006103515625</ele>
        <time>2026-08-05T10:08:16.000Z</time>
        <extensions>
          <ns3:TrackPointExtension>
            <ns3:hr>59</ns3:hr>
            <ns3:cad>0</ns3:cad>
          </ns3:TrackPointExtension>
        </extensions>
      </trkpt>
      <trkpt lat="43.47183982841670513153076171875" lon="1.432057209312915802001953125">
        <ele>253.600006103515625</ele>
        <time>2026-08-05T10:08:17.000Z</time>
        <extensions>
          <ns3:TrackPointExtension>
            <ns3:hr>59</ns3:hr>
            <ns3:cad>0</ns3:cad>
          </ns3:TrackPointExtension>
        </extensions>
      </trkpt>
      <trkpt lat="43.47183982841670513153076171875" lon="1.432057209312915802001953125">
        <ele>253.600006103515625</ele>
        <time>2026-08-05T10:08:18.000Z</time>
        <extensions>
          <ns3:TrackPointExtension>
            <ns3:hr>59</ns3:hr>
            <ns3:cad>0</ns3:cad>
          </ns3:TrackPointExtension>
        </extensions>
      </trkpt>
      <trkpt lat="43.47183982841670513153076171875" lon="1.432057209312915802001953125">
        <ele>253.600006103515625</ele>
        <time>2026-08-05T10:08:19.000Z</time>
        <extensions>
          <ns3:TrackPointExtension>
            <ns3:hr>60</ns3:hr>
            <ns3:cad>0</ns3:cad>
          </ns3:TrackPointExtension>
        </extensions>
      </trkpt>
      <trkpt lat="43.47183982841670513153076171875" lon="1.432057209312915802001953125">
        <ele>253.600006103515625</ele>
        <time>2026-08-05T10:08:20.000Z</time>
        <extensions>
          <ns3:TrackPointExtension>
            <ns3:hr>62</ns3:hr>
            <ns3:cad>0</ns3:cad>
          </ns3:TrackPointExtension>
        </extensions>
      </trkpt>
      <trkpt lat="43.47183982841670513153076171875" lon="1.432057209312915802001953125">
        <ele>253.600006103515625</ele>
        <time>2026-08-05T10:08:21.000Z</time>
        <extensions>
          <ns3:TrackPointExtension>
            <ns3:hr>64</ns3:hr>
            <ns3:cad>0</ns3:cad>
          </ns3:TrackPointExtension>
        </extensions>
      </trkpt>
      <trkpt lat="43.47183982841670513153076171875" lon="1.432057209312915802001953125">
        <ele>253.600006103515625</ele>
        <time>2026-08-05T10:08:22.000Z</time>
        <extensions>
          <ns3:TrackPointExtension>
            <ns3:hr>65</ns3:hr>
            <ns3:cad>0</ns3:cad>
          </ns3:TrackPointExtension>
        </extensions>
      </trkpt>
      <trkpt lat="43.47183982841670513153076171875" lon="1.432057209312915802001953125">
        <ele>253.600006103515625</ele>
        <time>2026-08-05T10:08:23.000Z</time>
        <extensions>
          <ns3:TrackPointExtension>
            <ns3:hr>66</ns3:hr>
            <ns3:cad>0</ns3:cad>
          </ns3:TrackPointExtension>
        </extensions>
      </trkpt>
      <trkpt lat="43.47183982841670513153076171875" lon="1.432057209312915802001953125">
        <ele>253.600006103515625</ele>
        <time>2026-08-05T10:08:24.000Z</time>
        <extensions>
          <ns3:TrackPointExtension>
            <ns3:hr>67</ns3:hr>
            <ns3:cad>0</ns3:cad>
          </ns3:TrackPointExtension>
        </extensions>
      </trkpt>
      <trkpt lat="43.47183982841670513153076171875" lon="1.432057209312915802001953125">
        <ele>253.600006103515625</ele>
        <time>2026-08-05T10:08:25.000Z</time>
        <extensions>
          <ns3:TrackPointExtension>
            <ns3:hr>67</ns3:hr>
            <ns3:cad>0</ns3:cad>
          </ns3:TrackPointExtension>
        </extensions>
      </trkpt>
      <trkpt lat="43.47183982841670513153076171875" lon="1.432057209312915802001953125">
        <ele>253.600006103515625</ele>
        <time>2026-08-05T10:08:26.000Z</time>
        <extensions>
          <ns3:TrackPointExtension>
            <ns3:hr>67</ns3:hr>
            <ns3:cad>0</ns3:cad>
          </ns3:TrackPointExtension>
        </extensions>
      </trkpt>
      <trkpt lat="43.47183982841670513153076171875" lon="1.432057209312915802001953125">
        <ele>253.600006103515625</ele>
        <time>2026-08-05T10:08:27.000Z</time>
        <extensions>
          <ns3:TrackPointExtension>
            <ns3:hr>67</ns3:hr>
            <ns3:cad>0</ns3:cad>
          </ns3:TrackPointExtension>
        </extensions>
      </trkpt>
      <trkpt lat="43.47183982841670513153076171875" lon="1.432057209312915802001953125">
        <ele>253.600006103515625</ele>
        <time>2026-08-05T10:08:28.000Z</time>
        <extensions>
          <ns3:TrackPointExtension>
            <ns3:hr>67</ns3:hr>
            <ns3:cad>0</ns3:cad>
          </ns3:TrackPointExtension>
        </extensions>
      </trkpt>
      <trkpt lat="43.47183982841670513153076171875" lon="1.432057209312915802001953125">
        <ele>253.399993896484375</ele>
        <time>2026-08-05T10:08:29.000Z</time>
        <extensions>
          <ns3:TrackPointExtension>
            <ns3:hr>66</ns3:hr>
            <ns3:cad>0</ns3:cad>
          </ns3:TrackPointExtension>
        </extensions>
      </trkpt>
      <trkpt lat="43.47183982841670513153076171875" lon="1.432057209312915802001953125">
        <ele>253.399993896484375</ele>
        <time>2026-08-05T10:08:30.000Z</time>
        <extensions>
          <ns3:TrackPointExtension>
            <ns3:hr>66</ns3:hr>
            <ns3:cad>0</ns3:cad>
          </ns3:TrackPointExtension>
        </extensions>
      </trkpt>
      <trkpt lat="43.47183982841670513153076171875" lon="1.432057209312915802001953125">
        <ele>253.600006103515625</ele>
        <time>2026-08-05T10:08:31.000Z</time>
        <extensions>
          <ns3:TrackPointExtension>
            <ns3:hr>66</ns3:hr>
            <ns3:cad>0</ns3:cad>
          </ns3:TrackPointExtension>
        </extensions>
      </trkpt>
      <trkpt lat="43.47183982841670513153076171875" lon="1.432057209312915802001953125">
        <ele>253.600006103515625</ele>
        <time>2026-08-05T10:08:32.000Z</time>
        <extensions>
          <ns3:TrackPointExtension>
            <ns3:hr>67</ns3:hr>
            <ns3:cad>0</ns3:cad>
          </ns3:TrackPointExtension>
        </extensions>
      </trkpt>
      <trkpt lat="43.47183982841670513153076171875" lon="1.432057209312915802001953125">
        <ele>253.600006103515625</ele>
        <time>2026-08-05T10:08:33.000Z</time>
        <extensions>
          <ns3:TrackPointExtension>
            <ns3:hr>67</ns3:hr>
            <ns3:cad>0</ns3:cad>
          </ns3:TrackPointExtension>
        </extensions>
      </trkpt>
      <trkpt lat="43.47183982841670513153076171875" lon="1.432057209312915802001953125">
        <ele>253.600006103515625</ele>
        <time>2026-08-05T10:08:34.000Z</time>
        <extensions>
          <ns3:TrackPointExtension>
            <ns3:hr>67</ns3:hr>
            <ns3:cad>0</ns3:cad>
          </ns3:TrackPointExtension>
        </extensions>
      </trkpt>
      <trkpt lat="43.47183982841670513153076171875" lon="1.432057209312915802001953125">
        <ele>253.600006103515625</ele>
        <time>2026-08-05T10:08:35.000Z</time>
        <extensions>
          <ns3:TrackPointExtension>
            <ns3:hr>67</ns3:hr>
            <ns3:cad>0</ns3:cad>
          </ns3:TrackPointExtension>
        </extensions>
      </trkpt>
      <trkpt lat="43.47183982841670513153076171875" lon="1.432057209312915802001953125">
        <ele>253.600006103515625</ele>
        <time>2026-08-05T10:08:36.000Z</time>
        <extensions>
          <ns3:TrackPointExtension>
            <ns3:hr>67</ns3:hr>
            <ns3:cad>0</ns3:cad>
          </ns3:TrackPointExtension>
        </extensions>
      </trkpt>
      <trkpt lat="43.47183982841670513153076171875" lon="1.432057209312915802001953125">
        <ele>253.600006103515625</ele>
        <time>2026-08-05T10:08:37.000Z</time>
        <extensions>
          <ns3:TrackPointExtension>
            <ns3:hr>67</ns3:hr>
            <ns3:cad>0</ns3:cad>
          </ns3:TrackPointExtension>
        </extensions>
      </trkpt>
      <trkpt lat="43.47183982841670513153076171875" lon="1.432057209312915802001953125">
        <ele>253.600006103515625</ele>
        <time>2026-08-05T10:08:38.000Z</time>
        <extensions>
          <ns3:TrackPointExtension>
            <ns3:hr>67</ns3:hr>
            <ns3:cad>0</ns3:cad>
          </ns3:TrackPointExtension>
        </extensions>
      </trkpt>
      <trkpt lat="43.47183982841670513153076171875" lon="1.432057209312915802001953125">
        <ele>253.600006103515625</ele>
        <time>2026-08-05T10:08:39.000Z</time>
        <extensions>
          <ns3:TrackPointExtension>
            <ns3:hr>67</ns3:hr>
            <ns3:cad>0</ns3:cad>
          </ns3:TrackPointExtension>
        </extensions>
      </trkpt>
      <trkpt lat="43.47183982841670513153076171875" lon="1.432057209312915802001953125">
        <ele>253.600006103515625</ele>
        <time>2026-08-05T10:08:40.000Z</time>
        <extensions>
          <ns3:TrackPointExtension>
            <ns3:hr>68</ns3:hr>
            <ns3:cad>0</ns3:cad>
          </ns3:TrackPointExtension>
        </extensions>
      </trkpt>
      <trkpt lat="43.47183982841670513153076171875" lon="1.432057209312915802001953125">
        <ele>253.600006103515625</ele>
        <time>2026-08-05T10:08:41.000Z</time>
        <extensions>
          <ns3:TrackPointExtension>
            <ns3:hr>67</ns3:hr>
            <ns3:cad>0</ns3:cad>
          </ns3:TrackPointExtension>
        </extensions>
      </trkpt>
      <trkpt lat="43.47183982841670513153076171875" lon="1.432057209312915802001953125">
        <ele>253.399993896484375</ele>
        <time>2026-08-05T10:08:42.000Z</time>
        <extensions>
          <ns3:TrackPointExtension>
            <ns3:hr>67</ns3:hr>
            <ns3:cad>0</ns3:cad>
          </ns3:TrackPointExtension>
        </extensions>
      </trkpt>
      <trkpt lat="43.47183982841670513153076171875" lon="1.432057209312915802001953125">
        <ele>253.399993896484375</ele>
        <time>2026-08-05T10:08:43.000Z</time>
        <extensions>
          <ns3:TrackPointExtension>
            <ns3:hr>68</ns3:hr>
            <ns3:cad>0</ns3:cad>
          </ns3:TrackPointExtension>
        </extensions>
      </trkpt>
      <trkpt lat="43.47183982841670513153076171875" lon="1.432057209312915802001953125">
        <ele>253.399993896484375</ele>
        <time>2026-08-05T10:08:44.000Z</time>
        <extensions>
          <ns3:TrackPointExtension>
            <ns3:hr>67</ns3:hr>
            <ns3:cad>0</ns3:cad>
          </ns3:TrackPointExtension>
        </extensions>
      </trkpt>
      <trkpt lat="43.47183982841670513153076171875" lon="1.432057209312915802001953125">
        <ele>253.399993896484375</ele>
        <time>2026-08-05T10:08:45.000Z</time>
        <extensions>
          <ns3:TrackPointExtension>
            <ns3:hr>67</ns3:hr>
            <ns3:cad>0</ns3:cad>
          </ns3:TrackPointExtension>
        </extensions>
      </trkpt>
      <trkpt lat="43.47183982841670513153076171875" lon="1.432057209312915802001953125">
        <ele>253.399993896484375</ele>
        <time>2026-08-05T10:08:46.000Z</time>
        <extensions>
          <ns3:TrackPointExtension>
            <ns3:hr>68</ns3:hr>
            <ns3:cad>0</ns3:cad>
          </ns3:TrackPointExtension>
        </extensions>
      </trkpt>
      <trkpt lat="43.47183982841670513153076171875" lon="1.432057209312915802001953125">
        <ele>253.399993896484375</ele>
        <time>2026-08-05T10:08:47.000Z</time>
        <extensions>
          <ns3:TrackPointExtension>
            <ns3:hr>67</ns3:hr>
            <ns3:cad>0</ns3:cad>
          </ns3:TrackPointExtension>
        </extensions>
      </trkpt>
      <trkpt lat="43.47183982841670513153076171875" lon="1.432057209312915802001953125">
        <ele>253.399993896484375</ele>
        <time>2026-08-05T10:08:48.000Z</time>
        <extensions>
          <ns3:TrackPointExtension>
            <ns3:hr>67</ns3:hr>
            <ns3:cad>0</ns3:cad>
          </ns3:TrackPointExtension>
        </extensions>
      </trkpt>
      <trkpt lat="43.47183982841670513153076171875" lon="1.432057209312915802001953125">
        <ele>253.399993896484375</ele>
        <time>2026-08-05T10:08:49.000Z</time>
        <extensions>
          <ns3:TrackPointExtension>
            <ns3:hr>68</ns3:hr>
            <ns3:cad>0</ns3:cad>
          </ns3:TrackPointExtension>
        </extensions>
      </trkpt>
      <trkpt lat="43.47183982841670513153076171875" lon="1.432057209312915802001953125">
        <ele>253.399993896484375</ele>
        <time>2026-08-05T10:08:50.000Z</time>
        <extensions>
          <ns3:TrackPointExtension>
            <ns3:hr>67</ns3:hr>
            <ns3:cad>0</ns3:cad>
          </ns3:TrackPointExtension>
        </extensions>
      </trkpt>
      <trkpt lat="43.47183982841670513153076171875" lon="1.432057209312915802001953125">
        <ele>253.399993896484375</ele>
        <time>2026-08-05T10:08:51.000Z</time>
        <extensions>
          <ns3:TrackPointExtension>
            <ns3:hr>67</ns3:hr>
            <ns3:cad>0</ns3:cad>
          </ns3:TrackPointExtension>
        </extensions>
      </trkpt>
      <trkpt lat="43.47183982841670513153076171875" lon="1.432057209312915802001953125">
        <ele>253.399993896484375</ele>
        <time>2026-08-05T10:08:52.000Z</time>
        <extensions>
          <ns3:TrackPointExtension>
            <ns3:hr>68</ns3:hr>
            <ns3:cad>0</ns3:cad>
          </ns3:TrackPointExtension>
        </extensions>
      </trkpt>
      <trkpt lat="43.47183982841670513153076171875" lon="1.432057209312915802001953125">
        <ele>253.600006103515625</ele>
        <time>2026-08-05T10:08:53.000Z</time>
        <extensions>
          <ns3:TrackPointExtension>
            <ns3:hr>67</ns3:hr>
            <ns3:cad>0</ns3:cad>
          </ns3:TrackPointExtension>
        </extensions>
      </trkpt>
      <trkpt lat="43.47183982841670513153076171875" lon="1.432057209312915802001953125">
        <ele>253.399993896484375</ele>
        <time>2026-08-05T10:08:54.000Z</time>
        <extensions>
          <ns3:TrackPointExtension>
            <ns3:hr>67</ns3:hr>
            <ns3:cad>0</ns3:cad>
          </ns3:TrackPointExtension>
        </extensions>
      </trkpt>
      <trkpt lat="43.47183982841670513153076171875" lon="1.432057209312915802001953125">
        <ele>253.399993896484375</ele>
        <time>2026-08-05T10:08:55.000Z</time>
        <extensions>
          <ns3:TrackPointExtension>
            <ns3:hr>67</ns3:hr>
            <ns3:cad>0</ns3:cad>
          </ns3:TrackPointExtension>
        </extensions>
      </trkpt>
      <trkpt lat="43.47183982841670513153076171875" lon="1.432057209312915802001953125">
        <ele>253.399993896484375</ele>
        <time>2026-08-05T10:08:56.000Z</time>
        <extensions>
          <ns3:TrackPointExtension>
            <ns3:hr>67</ns3:hr>
            <ns3:cad>0</ns3:cad>
          </ns3:TrackPointExtension>
        </extensions>
      </trkpt>
      <trkpt lat="43.47183982841670513153076171875" lon="1.432057209312915802001953125">
        <ele>253.399993896484375</ele>
        <time>2026-08-05T10:08:57.000Z</time>
        <extensions>
          <ns3:TrackPointExtension>
            <ns3:hr>66</ns3:hr>
            <ns3:cad>0</ns3:cad>
          </ns3:TrackPointExtension>
        </extensions>
      </trkpt>
      <trkpt lat="43.47183982841670513153076171875" lon="1.432057209312915802001953125">
        <ele>253.399993896484375</ele>
        <time>2026-08-05T10:08:58.000Z</time>
        <extensions>
          <ns3:TrackPointExtension>
            <ns3:hr>66</ns3:hr>
            <ns3:cad>0</ns3:cad>
          </ns3:TrackPointExtension>
        </extensions>
      </trkpt>
      <trkpt lat="43.47183982841670513153076171875" lon="1.432057209312915802001953125">
        <ele>253.399993896484375</ele>
        <time>2026-08-05T10:08:59.000Z</time>
        <extensions>
          <ns3:TrackPointExtension>
            <ns3:hr>66</ns3:hr>
            <ns3:cad>0</ns3:cad>
          </ns3:TrackPointExtension>
        </extensions>
      </trkpt>
      <trkpt lat="43.47183982841670513153076171875" lon="1.432057209312915802001953125">
        <ele>253.399993896484375</ele>
        <time>2026-08-05T10:09:00.000Z</time>
        <extensions>
          <ns3:TrackPointExtension>
            <ns3:hr>66</ns3:hr>
            <ns3:cad>0</ns3:cad>
          </ns3:TrackPointExtension>
        </extensions>
      </trkpt>
      <trkpt lat="43.47183982841670513153076171875" lon="1.432057209312915802001953125">
        <ele>253.399993896484375</ele>
        <time>2026-08-05T10:09:01.000Z</time>
        <extensions>
          <ns3:TrackPointExtension>
            <ns3:hr>66</ns3:hr>
            <ns3:cad>0</ns3:cad>
          </ns3:TrackPointExtension>
        </extensions>
      </trkpt>
      <trkpt lat="43.47183982841670513153076171875" lon="1.432057209312915802001953125">
        <ele>253.399993896484375</ele>
        <time>2026-08-05T10:09:02.000Z</time>
        <extensions>
          <ns3:TrackPointExtension>
            <ns3:hr>66</ns3:hr>
            <ns3:cad>0</ns3:cad>
          </ns3:TrackPointExtension>
        </extensions>
      </trkpt>
      <trkpt lat="43.47183982841670513153076171875" lon="1.432057209312915802001953125">
        <ele>253.399993896484375</ele>
        <time>2026-08-05T10:09:03.000Z</time>
        <extensions>
          <ns3:TrackPointExtension>
            <ns3:hr>66</ns3:hr>
            <ns3:cad>0</ns3:cad>
          </ns3:TrackPointExtension>
        </extensions>
      </trkpt>
      <trkpt lat="43.47183982841670513153076171875" lon="1.432057209312915802001953125">
        <ele>253.399993896484375</ele>
        <time>2026-08-05T10:09:04.000Z</time>
        <extensions>
          <ns3:TrackPointExtension>
            <ns3:hr>66</ns3:hr>
            <ns3:cad>0</ns3:cad>
          </ns3:TrackPointExtension>
        </extensions>
      </trkpt>
      <trkpt lat="43.47183982841670513153076171875" lon="1.432057209312915802001953125">
        <ele>253.399993896484375</ele>
        <time>2026-08-05T10:09:05.000Z</time>
        <extensions>
          <ns3:TrackPointExtension>
            <ns3:hr>66</ns3:hr>
            <ns3:cad>0</ns3:cad>
          </ns3:TrackPointExtension>
        </extensions>
      </trkpt>
      <trkpt lat="43.47183982841670513153076171875" lon="1.432057209312915802001953125">
        <ele>253.399993896484375</ele>
        <time>2026-08-05T10:09:06.000Z</time>
        <extensions>
          <ns3:TrackPointExtension>
            <ns3:hr>66</ns3:hr>
            <ns3:cad>0</ns3:cad>
          </ns3:TrackPointExtension>
        </extensions>
      </trkpt>
      <trkpt lat="43.47183982841670513153076171875" lon="1.432057209312915802001953125">
        <ele>253.399993896484375</ele>
        <time>2026-08-05T10:09:07.000Z</time>
        <extensions>
          <ns3:TrackPointExtension>
            <ns3:hr>66</ns3:hr>
            <ns3:cad>0</ns3:cad>
          </ns3:TrackPointExtension>
        </extensions>
      </trkpt>
      <trkpt lat="43.47183982841670513153076171875" lon="1.432057209312915802001953125">
        <ele>253.399993896484375</ele>
        <time>2026-08-05T10:09:08.000Z</time>
        <extensions>
          <ns3:TrackPointExtension>
            <ns3:hr>66</ns3:hr>
            <ns3:cad>0</ns3:cad>
          </ns3:TrackPointExtension>
        </extensions>
      </trkpt>
      <trkpt lat="43.47183982841670513153076171875" lon="1.432057209312915802001953125">
        <ele>253.399993896484375</ele>
        <time>2026-08-05T10:09:09.000Z</time>
        <extensions>
          <ns3:TrackPointExtension>
            <ns3:hr>66</ns3:hr>
            <ns3:cad>0</ns3:cad>
          </ns3:TrackPointExtension>
        </extensions>
      </trkpt>
      <trkpt lat="43.47183982841670513153076171875" lon="1.432057209312915802001953125">
        <ele>253.399993896484375</ele>
        <time>2026-08-05T10:09:10.000Z</time>
        <extensions>
          <ns3:TrackPointExtension>
            <ns3:hr>66</ns3:hr>
            <ns3:cad>0</ns3:cad>
          </ns3:TrackPointExtension>
        </extensions>
      </trkpt>
      <trkpt lat="43.47183982841670513153076171875" lon="1.432057209312915802001953125">
        <ele>253.399993896484375</ele>
        <time>2026-08-05T10:09:11.000Z</time>
        <extensions>
          <ns3:TrackPointExtension>
            <ns3:hr>66</ns3:hr>
            <ns3:cad>0</ns3:cad>
          </ns3:TrackPointExtension>
        </extensions>
      </trkpt>
      <trkpt lat="43.47183982841670513153076171875" lon="1.432057209312915802001953125">
        <ele>253.399993896484375</ele>
        <time>2026-08-05T10:09:12.000Z</time>
        <extensions>
          <ns3:TrackPointExtension>
            <ns3:hr>66</ns3:hr>
            <ns3:cad>0</ns3:cad>
          </ns3:TrackPointExtension>
        </extensions>
      </trkpt>
      <trkpt lat="43.47183982841670513153076171875" lon="1.432057209312915802001953125">
        <ele>253.399993896484375</ele>
        <time>2026-08-05T10:09:13.000Z</time>
        <extensions>
          <ns3:TrackPointExtension>
            <ns3:hr>66</ns3:hr>
            <ns3:cad>0</ns3:cad>
          </ns3:TrackPointExtension>
        </extensions>
      </trkpt>
      <trkpt lat="43.47183982841670513153076171875" lon="1.432057209312915802001953125">
        <ele>253.399993896484375</ele>
        <time>2026-08-05T10:09:14.000Z</time>
        <extensions>
          <ns3:TrackPointExtension>
            <ns3:hr>66</ns3:hr>
            <ns3:cad>0</ns3:cad>
          </ns3:TrackPointExtension>
        </extensions>
      </trkpt>
      <trkpt lat="43.47183982841670513153076171875" lon="1.432057209312915802001953125">
        <ele>253.1999969482421875</ele>
        <time>2026-08-05T10:09:15.000Z</time>
        <extensions>
          <ns3:TrackPointExtension>
            <ns3:hr>66</ns3:hr>
            <ns3:cad>0</ns3:cad>
          </ns3:TrackPointExtension>
        </extensions>
      </trkpt>
      <trkpt lat="43.47183982841670513153076171875" lon="1.432057209312915802001953125">
        <ele>253.1999969482421875</ele>
        <time>2026-08-05T10:09:16.000Z</time>
        <extensions>
          <ns3:TrackPointExtension>
            <ns3:hr>66</ns3:hr>
            <ns3:cad>0</ns3:cad>
          </ns3:TrackPointExtension>
        </extensions>
      </trkpt>
      <trkpt lat="43.47183982841670513153076171875" lon="1.432057209312915802001953125">
        <ele>253.1999969482421875</ele>
        <time>2026-08-05T10:09:17.000Z</time>
        <extensions>
          <ns3:TrackPointExtension>
            <ns3:hr>66</ns3:hr>
            <ns3:cad>0</ns3:cad>
          </ns3:TrackPointExtension>
        </extensions>
      </trkpt>
      <trkpt lat="43.47183982841670513153076171875" lon="1.432057209312915802001953125">
        <ele>253.1999969482421875</ele>
        <time>2026-08-05T10:09:18.000Z</time>
        <extensions>
          <ns3:TrackPointExtension>
            <ns3:hr>66</ns3:hr>
            <ns3:cad>0</ns3:cad>
          </ns3:TrackPointExtension>
        </extensions>
      </trkpt>
      <trkpt lat="43.47183982841670513153076171875" lon="1.432057209312915802001953125">
        <ele>253.1999969482421875</ele>
        <time>2026-08-05T10:09:19.000Z</time>
        <extensions>
          <ns3:TrackPointExtension>
            <ns3:hr>66</ns3:hr>
            <ns3:cad>0</ns3:cad>
          </ns3:TrackPointExtension>
        </extensions>
      </trkpt>
      <trkpt lat="43.47183982841670513153076171875" lon="1.432057209312915802001953125">
        <ele>253.1999969482421875</ele>
        <time>2026-08-05T10:09:20.000Z</time>
        <extensions>
          <ns3:TrackPointExtension>
            <ns3:hr>66</ns3:hr>
            <ns3:cad>0</ns3:cad>
          </ns3:TrackPointExtension>
        </extensions>
      </trkpt>
      <trkpt lat="43.47183982841670513153076171875" lon="1.432057209312915802001953125">
        <ele>253.1999969482421875</ele>
        <time>2026-08-05T10:09:21.000Z</time>
        <extensions>
          <ns3:TrackPointExtension>
            <ns3:hr>66</ns3:hr>
            <ns3:cad>0</ns3:cad>
          </ns3:TrackPointExtension>
        </extensions>
      </trkpt>
      <trkpt lat="43.47183982841670513153076171875" lon="1.432057209312915802001953125">
        <ele>253.1999969482421875</ele>
        <time>2026-08-05T10:09:22.000Z</time>
        <extensions>
          <ns3:TrackPointExtension>
            <ns3:hr>65</ns3:hr>
            <ns3:cad>0</ns3:cad>
          </ns3:TrackPointExtension>
        </extensions>
      </trkpt>
      <trkpt lat="43.47183982841670513153076171875" lon="1.432057209312915802001953125">
        <ele>253.1999969482421875</ele>
        <time>2026-08-05T10:09:23.000Z</time>
        <extensions>
          <ns3:TrackPointExtension>
            <ns3:hr>65</ns3:hr>
            <ns3:cad>0</ns3:cad>
          </ns3:TrackPointExtension>
        </extensions>
      </trkpt>
      <trkpt lat="43.47183982841670513153076171875" lon="1.432057209312915802001953125">
        <ele>253.1999969482421875</ele>
        <time>2026-08-05T10:09:24.000Z</time>
        <extensions>
          <ns3:TrackPointExtension>
            <ns3:hr>65</ns3:hr>
            <ns3:cad>0</ns3:cad>
          </ns3:TrackPointExtension>
        </extensions>
      </trkpt>
      <trkpt lat="43.47183982841670513153076171875" lon="1.432057209312915802001953125">
        <ele>253.1999969482421875</ele>
        <time>2026-08-05T10:09:25.000Z</time>
        <extensions>
          <ns3:TrackPointExtension>
            <ns3:hr>64</ns3:hr>
            <ns3:cad>0</ns3:cad>
          </ns3:TrackPointExtension>
        </extensions>
      </trkpt>
      <trkpt lat="43.47183982841670513153076171875" lon="1.432057209312915802001953125">
        <ele>253</ele>
        <time>2026-08-05T10:09:26.000Z</time>
        <extensions>
          <ns3:TrackPointExtension>
            <ns3:hr>63</ns3:hr>
            <ns3:cad>0</ns3:cad>
          </ns3:TrackPointExtension>
        </extensions>
      </trkpt>
      <trkpt lat="43.47183982841670513153076171875" lon="1.432057209312915802001953125">
        <ele>253</ele>
        <time>2026-08-05T10:09:27.000Z</time>
        <extensions>
          <ns3:TrackPointExtension>
            <ns3:hr>63</ns3:hr>
            <ns3:cad>0</ns3:cad>
          </ns3:TrackPointExtension>
        </extensions>
      </trkpt>
      <trkpt lat="43.47183982841670513153076171875" lon="1.432057209312915802001953125">
        <ele>253</ele>
        <time>2026-08-05T10:09:28.000Z</time>
        <extensions>
          <ns3:TrackPointExtension>
            <ns3:hr>62</ns3:hr>
            <ns3:cad>0</ns3:cad>
          </ns3:TrackPointExtension>
        </extensions>
      </trkpt>
      <trkpt lat="43.47183982841670513153076171875" lon="1.432057209312915802001953125">
        <ele>253</ele>
        <time>2026-08-05T10:09:29.000Z</time>
        <extensions>
          <ns3:TrackPointExtension>
            <ns3:hr>63</ns3:hr>
            <ns3:cad>0</ns3:cad>
          </ns3:TrackPointExtension>
        </extensions>
      </trkpt>
      <trkpt lat="43.47183982841670513153076171875" lon="1.432057209312915802001953125">
        <ele>253</ele>
        <time>2026-08-05T10:09:30.000Z</time>
        <extensions>
          <ns3:TrackPointExtension>
            <ns3:hr>63</ns3:hr>
            <ns3:cad>0</ns3:cad>
          </ns3:TrackPointExtension>
        </extensions>
      </trkpt>
      <trkpt lat="43.47183982841670513153076171875" lon="1.432057209312915802001953125">
        <ele>253</ele>
        <time>2026-08-05T10:09:31.000Z</time>
        <extensions>
          <ns3:TrackPointExtension>
            <ns3:hr>64</ns3:hr>
            <ns3:cad>0</ns3:cad>
          </ns3:TrackPointExtension>
        </extensions>
      </trkpt>
      <trkpt lat="43.47183982841670513153076171875" lon="1.432057209312915802001953125">
        <ele>253</ele>
        <time>2026-08-05T10:09:32.000Z</time>
        <extensions>
          <ns3:TrackPointExtension>
            <ns3:hr>64</ns3:hr>
            <ns3:cad>0</ns3:cad>
          </ns3:TrackPointExtension>
        </extensions>
      </trkpt>
      <trkpt lat="43.47183982841670513153076171875" lon="1.432057209312915802001953125">
        <ele>253</ele>
        <time>2026-08-05T10:09:33.000Z</time>
        <extensions>
          <ns3:TrackPointExtension>
            <ns3:hr>65</ns3:hr>
            <ns3:cad>0</ns3:cad>
          </ns3:TrackPointExtension>
        </extensions>
      </trkpt>
      <trkpt lat="43.47183982841670513153076171875" lon="1.432057209312915802001953125">
        <ele>253</ele>
        <time>2026-08-05T10:09:34.000Z</time>
        <extensions>
          <ns3:TrackPointExtension>
            <ns3:hr>65</ns3:hr>
            <ns3:cad>0</ns3:cad>
          </ns3:TrackPointExtension>
        </extensions>
      </trkpt>
      <trkpt lat="43.47183982841670513153076171875" lon="1.432057209312915802001953125">
        <ele>253</ele>
        <time>2026-08-05T10:09:35.000Z</time>
        <extensions>
          <ns3:TrackPointExtension>
            <ns3:hr>65</ns3:hr>
            <ns3:cad>0</ns3:cad>
          </ns3:TrackPointExtension>
        </extensions>
      </trkpt>
      <trkpt lat="43.47183982841670513153076171875" lon="1.432057209312915802001953125">
        <ele>253</ele>
        <time>2026-08-05T10:09:36.000Z</time>
        <extensions>
          <ns3:TrackPointExtension>
            <ns3:hr>66</ns3:hr>
            <ns3:cad>0</ns3:cad>
          </ns3:TrackPointExtension>
        </extensions>
      </trkpt>
      <trkpt lat="43.47183982841670513153076171875" lon="1.432057209312915802001953125">
        <ele>252.8000030517578125</ele>
        <time>2026-08-05T10:09:37.000Z</time>
        <extensions>
          <ns3:TrackPointExtension>
            <ns3:hr>66</ns3:hr>
            <ns3:cad>0</ns3:cad>
          </ns3:TrackPointExtension>
        </extensions>
      </trkpt>
      <trkpt lat="43.47183982841670513153076171875" lon="1.432057209312915802001953125">
        <ele>252.8000030517578125</ele>
        <time>2026-08-05T10:09:38.000Z</time>
        <extensions>
          <ns3:TrackPointExtension>
            <ns3:hr>65</ns3:hr>
            <ns3:cad>0</ns3:cad>
          </ns3:TrackPointExtension>
        </extensions>
      </trkpt>
      <trkpt lat="43.47183982841670513153076171875" lon="1.432057209312915802001953125">
        <ele>252.8000030517578125</ele>
        <time>2026-08-05T10:09:39.000Z</time>
        <extensions>
          <ns3:TrackPointExtension>
            <ns3:hr>65</ns3:hr>
            <ns3:cad>0</ns3:cad>
          </ns3:TrackPointExtension>
        </extensions>
      </trkpt>
      <trkpt lat="43.47183982841670513153076171875" lon="1.432057209312915802001953125">
        <ele>252.8000030517578125</ele>
        <time>2026-08-05T10:09:40.000Z</time>
        <extensions>
          <ns3:TrackPointExtension>
            <ns3:hr>65</ns3:hr>
            <ns3:cad>0</ns3:cad>
          </ns3:TrackPointExtension>
        </extensions>
      </trkpt>
      <trkpt lat="43.47183982841670513153076171875" lon="1.432057209312915802001953125">
        <ele>252.8000030517578125</ele>
        <time>2026-08-05T10:09:41.000Z</time>
        <extensions>
          <ns3:TrackPointExtension>
            <ns3:hr>64</ns3:hr>
            <ns3:cad>0</ns3:cad>
          </ns3:TrackPointExtension>
        </extensions>
      </trkpt>
      <trkpt lat="43.47183982841670513153076171875" lon="1.432057209312915802001953125">
        <ele>252.8000030517578125</ele>
        <time>2026-08-05T10:09:42.000Z</time>
        <extensions>
          <ns3:TrackPointExtension>
            <ns3:hr>64</ns3:hr>
            <ns3:cad>0</ns3:cad>
          </ns3:TrackPointExtension>
        </extensions>
      </trkpt>
      <trkpt lat="43.47183982841670513153076171875" lon="1.432057209312915802001953125">
        <ele>252.8000030517578125</ele>
        <time>2026-08-05T10:09:43.000Z</time>
        <extensions>
          <ns3:TrackPointExtension>
            <ns3:hr>64</ns3:hr>
            <ns3:cad>0</ns3:cad>
          </ns3:TrackPointExtension>
        </extensions>
      </trkpt>
      <trkpt lat="43.47183982841670513153076171875" lon="1.432057209312915802001953125">
        <ele>252.8000030517578125</ele>
        <time>2026-08-05T10:09:44.000Z</time>
        <extensions>
          <ns3:TrackPointExtension>
            <ns3:hr>64</ns3:hr>
            <ns3:cad>0</ns3:cad>
          </ns3:TrackPointExtension>
        </extensions>
      </trkpt>
      <trkpt lat="43.47183982841670513153076171875" lon="1.432057209312915802001953125">
        <ele>252.8000030517578125</ele>
        <time>2026-08-05T10:09:45.000Z</time>
        <extensions>
          <ns3:TrackPointExtension>
            <ns3:hr>64</ns3:hr>
            <ns3:cad>0</ns3:cad>
          </ns3:TrackPointExtension>
        </extensions>
      </trkpt>
      <trkpt lat="43.47183982841670513153076171875" lon="1.432057209312915802001953125">
        <ele>252.8000030517578125</ele>
        <time>2026-08-05T10:09:46.000Z</time>
        <extensions>
          <ns3:TrackPointExtension>
            <ns3:hr>65</ns3:hr>
            <ns3:cad>0</ns3:cad>
          </ns3:TrackPointExtension>
        </extensions>
      </trkpt>
      <trkpt lat="43.47183982841670513153076171875" lon="1.432057209312915802001953125">
        <ele>252.8000030517578125</ele>
        <time>2026-08-05T10:09:47.000Z</time>
        <extensions>
          <ns3:TrackPointExtension>
            <ns3:hr>65</ns3:hr>
            <ns3:cad>0</ns3:cad>
          </ns3:TrackPointExtension>
        </extensions>
      </trkpt>
      <trkpt lat="43.47183982841670513153076171875" lon="1.432057209312915802001953125">
        <ele>252.8000030517578125</ele>
        <time>2026-08-05T10:09:48.000Z</time>
        <extensions>
          <ns3:TrackPointExtension>
            <ns3:hr>65</ns3:hr>
            <ns3:cad>0</ns3:cad>
          </ns3:TrackPointExtension>
        </extensions>
      </trkpt>
      <trkpt lat="43.47183982841670513153076171875" lon="1.432057209312915802001953125">
        <ele>252.8000030517578125</ele>
        <time>2026-08-05T10:09:49.000Z</time>
        <extensions>
          <ns3:TrackPointExtension>
            <ns3:hr>65</ns3:hr>
            <ns3:cad>0</ns3:cad>
          </ns3:TrackPointExtension>
        </extensions>
      </trkpt>
      <trkpt lat="43.47183982841670513153076171875" lon="1.432057209312915802001953125">
        <ele>252.8000030517578125</ele>
        <time>2026-08-05T10:09:50.000Z</time>
        <extensions>
          <ns3:TrackPointExtension>
            <ns3:hr>65</ns3:hr>
            <ns3:cad>0</ns3:cad>
          </ns3:TrackPointExtension>
        </extensions>
      </trkpt>
      <trkpt lat="43.47183982841670513153076171875" lon="1.432057209312915802001953125">
        <ele>252.8000030517578125</ele>
        <time>2026-08-05T10:09:51.000Z</time>
        <extensions>
          <ns3:TrackPointExtension>
            <ns3:hr>65</ns3:hr>
            <ns3:cad>0</ns3:cad>
          </ns3:TrackPointExtension>
        </extensions>
      </trkpt>
      <trkpt lat="43.47183982841670513153076171875" lon="1.432057209312915802001953125">
        <ele>252.8000030517578125</ele>
        <time>2026-08-05T10:09:52.000Z</time>
        <extensions>
          <ns3:TrackPointExtension>
            <ns3:hr>64</ns3:hr>
            <ns3:cad>0</ns3:cad>
          </ns3:TrackPointExtension>
        </extensions>
      </trkpt>
      <trkpt lat="43.47183982841670513153076171875" lon="1.432057209312915802001953125">
        <ele>252.600006103515625</ele>
        <time>2026-08-05T10:09:53.000Z</time>
        <extensions>
          <ns3:TrackPointExtension>
            <ns3:hr>64</ns3:hr>
            <ns3:cad>0</ns3:cad>
          </ns3:TrackPointExtension>
        </extensions>
      </trkpt>
      <trkpt lat="43.47183982841670513153076171875" lon="1.432057209312915802001953125">
        <ele>252.600006103515625</ele>
        <time>2026-08-05T10:09:54.000Z</time>
        <extensions>
          <ns3:TrackPointExtension>
            <ns3:hr>64</ns3:hr>
            <ns3:cad>0</ns3:cad>
          </ns3:TrackPointExtension>
        </extensions>
      </trkpt>
      <trkpt lat="43.47183982841670513153076171875" lon="1.432057209312915802001953125">
        <ele>252.600006103515625</ele>
        <time>2026-08-05T10:09:55.000Z</time>
        <extensions>
          <ns3:TrackPointExtension>
            <ns3:hr>62</ns3:hr>
            <ns3:cad>0</ns3:cad>
          </ns3:TrackPointExtension>
        </extensions>
      </trkpt>
      <trkpt lat="43.47183982841670513153076171875" lon="1.432057209312915802001953125">
        <ele>252.600006103515625</ele>
        <time>2026-08-05T10:09:56.000Z</time>
        <extensions>
          <ns3:TrackPointExtension>
            <ns3:hr>61</ns3:hr>
            <ns3:cad>0</ns3:cad>
          </ns3:TrackPointExtension>
        </extensions>
      </trkpt>
      <trkpt lat="43.47183982841670513153076171875" lon="1.432057209312915802001953125">
        <ele>252.600006103515625</ele>
        <time>2026-08-05T10:09:57.000Z</time>
        <extensions>
          <ns3:TrackPointExtension>
            <ns3:hr>61</ns3:hr>
            <ns3:cad>0</ns3:cad>
          </ns3:TrackPointExtension>
        </extensions>
      </trkpt>
      <trkpt lat="43.47183982841670513153076171875" lon="1.432057209312915802001953125">
        <ele>252.600006103515625</ele>
        <time>2026-08-05T10:09:58.000Z</time>
        <extensions>
          <ns3:TrackPointExtension>
            <ns3:hr>61</ns3:hr>
            <ns3:cad>0</ns3:cad>
          </ns3:TrackPointExtension>
        </extensions>
      </trkpt>
      <trkpt lat="43.47183982841670513153076171875" lon="1.432057209312915802001953125">
        <ele>252.8000030517578125</ele>
        <time>2026-08-05T10:09:59.000Z</time>
        <extensions>
          <ns3:TrackPointExtension>
            <ns3:hr>62</ns3:hr>
            <ns3:cad>0</ns3:cad>
          </ns3:TrackPointExtension>
        </extensions>
      </trkpt>
      <trkpt lat="43.47183982841670513153076171875" lon="1.432057209312915802001953125">
        <ele>252.8000030517578125</ele>
        <time>2026-08-05T10:10:00.000Z</time>
        <extensions>
          <ns3:TrackPointExtension>
            <ns3:hr>63</ns3:hr>
            <ns3:cad>0</ns3:cad>
          </ns3:TrackPointExtension>
        </extensions>
      </trkpt>
      <trkpt lat="43.47183982841670513153076171875" lon="1.432057209312915802001953125">
        <ele>252.600006103515625</ele>
        <time>2026-08-05T10:10:01.000Z</time>
        <extensions>
          <ns3:TrackPointExtension>
            <ns3:hr>63</ns3:hr>
            <ns3:cad>0</ns3:cad>
          </ns3:TrackPointExtension>
        </extensions>
      </trkpt>
      <trkpt lat="43.47183982841670513153076171875" lon="1.432057209312915802001953125">
        <ele>252.600006103515625</ele>
        <time>2026-08-05T10:10:02.000Z</time>
        <extensions>
          <ns3:TrackPointExtension>
            <ns3:hr>64</ns3:hr>
            <ns3:cad>0</ns3:cad>
          </ns3:TrackPointExtension>
        </extensions>
      </trkpt>
      <trkpt lat="43.47183982841670513153076171875" lon="1.432057209312915802001953125">
        <ele>252.600006103515625</ele>
        <time>2026-08-05T10:10:03.000Z</time>
        <extensions>
          <ns3:TrackPointExtension>
            <ns3:hr>65</ns3:hr>
            <ns3:cad>0</ns3:cad>
          </ns3:TrackPointExtension>
        </extensions>
      </trkpt>
      <trkpt lat="43.47183982841670513153076171875" lon="1.432057209312915802001953125">
        <ele>252.600006103515625</ele>
        <time>2026-08-05T10:10:04.000Z</time>
        <extensions>
          <ns3:TrackPointExtension>
            <ns3:hr>65</ns3:hr>
            <ns3:cad>0</ns3:cad>
          </ns3:TrackPointExtension>
        </extensions>
      </trkpt>
      <trkpt lat="43.47183982841670513153076171875" lon="1.432057209312915802001953125">
        <ele>252.600006103515625</ele>
        <time>2026-08-05T10:10:05.000Z</time>
        <extensions>
          <ns3:TrackPointExtension>
            <ns3:hr>66</ns3:hr>
            <ns3:cad>0</ns3:cad>
          </ns3:TrackPointExtension>
        </extensions>
      </trkpt>
      <trkpt lat="43.47183982841670513153076171875" lon="1.432057209312915802001953125">
        <ele>252.600006103515625</ele>
        <time>2026-08-05T10:10:06.000Z</time>
        <extensions>
          <ns3:TrackPointExtension>
            <ns3:hr>65</ns3:hr>
            <ns3:cad>0</ns3:cad>
          </ns3:TrackPointExtension>
        </extensions>
      </trkpt>
      <trkpt lat="43.47183982841670513153076171875" lon="1.432057209312915802001953125">
        <ele>252.8000030517578125</ele>
        <time>2026-08-05T10:10:07.000Z</time>
        <extensions>
          <ns3:TrackPointExtension>
            <ns3:hr>65</ns3:hr>
            <ns3:cad>0</ns3:cad>
          </ns3:TrackPointExtension>
        </extensions>
      </trkpt>
      <trkpt lat="43.47183982841670513153076171875" lon="1.432057209312915802001953125">
        <ele>252.8000030517578125</ele>
        <time>2026-08-05T10:10:08.000Z</time>
        <extensions>
          <ns3:TrackPointExtension>
            <ns3:hr>65</ns3:hr>
            <ns3:cad>0</ns3:cad>
          </ns3:TrackPointExtension>
        </extensions>
      </trkpt>
      <trkpt lat="43.47183982841670513153076171875" lon="1.432057209312915802001953125">
        <ele>252.8000030517578125</ele>
        <time>2026-08-05T10:10:09.000Z</time>
        <extensions>
          <ns3:TrackPointExtension>
            <ns3:hr>64</ns3:hr>
            <ns3:cad>0</ns3:cad>
          </ns3:TrackPointExtension>
        </extensions>
      </trkpt>
      <trkpt lat="43.47183982841670513153076171875" lon="1.432057209312915802001953125">
        <ele>252.8000030517578125</ele>
        <time>2026-08-05T10:10:10.000Z</time>
        <extensions>
          <ns3:TrackPointExtension>
            <ns3:hr>64</ns3:hr>
            <ns3:cad>0</ns3:cad>
          </ns3:TrackPointExtension>
        </extensions>
      </trkpt>
      <trkpt lat="43.47183982841670513153076171875" lon="1.432057209312915802001953125">
        <ele>252.8000030517578125</ele>
        <time>2026-08-05T10:10:11.000Z</time>
        <extensions>
          <ns3:TrackPointExtension>
            <ns3:hr>64</ns3:hr>
            <ns3:cad>0</ns3:cad>
          </ns3:TrackPointExtension>
        </extensions>
      </trkpt>
      <trkpt lat="43.47183982841670513153076171875" lon="1.432057209312915802001953125">
        <ele>252.8000030517578125</ele>
        <time>2026-08-05T10:10:12.000Z</time>
        <extensions>
          <ns3:TrackPointExtension>
            <ns3:hr>64</ns3:hr>
            <ns3:cad>0</ns3:cad>
          </ns3:TrackPointExtension>
        </extensions>
      </trkpt>
      <trkpt lat="43.47183982841670513153076171875" lon="1.432057209312915802001953125">
        <ele>252.8000030517578125</ele>
        <time>2026-08-05T10:10:13.000Z</time>
        <extensions>
          <ns3:TrackPointExtension>
            <ns3:hr>63</ns3:hr>
            <ns3:cad>0</ns3:cad>
          </ns3:TrackPointExtension>
        </extensions>
      </trkpt>
      <trkpt lat="43.47183982841670513153076171875" lon="1.432057209312915802001953125">
        <ele>252.8000030517578125</ele>
        <time>2026-08-05T10:10:14.000Z</time>
        <extensions>
          <ns3:TrackPointExtension>
            <ns3:hr>62</ns3:hr>
            <ns3:cad>0</ns3:cad>
          </ns3:TrackPointExtension>
        </extensions>
      </trkpt>
      <trkpt lat="43.47183982841670513153076171875" lon="1.432057209312915802001953125">
        <ele>252.8000030517578125</ele>
        <time>2026-08-05T10:10:15.000Z</time>
        <extensions>
          <ns3:TrackPointExtension>
            <ns3:hr>61</ns3:hr>
            <ns3:cad>0</ns3:cad>
          </ns3:TrackPointExtension>
        </extensions>
      </trkpt>
      <trkpt lat="43.47183982841670513153076171875" lon="1.432057209312915802001953125">
        <ele>252.600006103515625</ele>
        <time>2026-08-05T10:10:16.000Z</time>
        <extensions>
          <ns3:TrackPointExtension>
            <ns3:hr>60</ns3:hr>
            <ns3:cad>0</ns3:cad>
          </ns3:TrackPointExtension>
        </extensions>
      </trkpt>
      <trkpt lat="43.47183982841670513153076171875" lon="1.432057209312915802001953125">
        <ele>252.600006103515625</ele>
        <time>2026-08-05T10:10:17.000Z</time>
        <extensions>
          <ns3:TrackPointExtension>
            <ns3:hr>60</ns3:hr>
            <ns3:cad>0</ns3:cad>
          </ns3:TrackPointExtension>
        </extensions>
      </trkpt>
      <trkpt lat="43.47183982841670513153076171875" lon="1.432057209312915802001953125">
        <ele>252.600006103515625</ele>
        <time>2026-08-05T10:10:18.000Z</time>
        <extensions>
          <ns3:TrackPointExtension>
            <ns3:hr>60</ns3:hr>
            <ns3:cad>0</ns3:cad>
          </ns3:TrackPointExtension>
        </extensions>
      </trkpt>
      <trkpt lat="43.47183982841670513153076171875" lon="1.432057209312915802001953125">
        <ele>252.399993896484375</ele>
        <time>2026-08-05T10:10:19.000Z</time>
        <extensions>
          <ns3:TrackPointExtension>
            <ns3:hr>60</ns3:hr>
            <ns3:cad>0</ns3:cad>
          </ns3:TrackPointExtension>
        </extensions>
      </trkpt>
      <trkpt lat="43.47183982841670513153076171875" lon="1.432057209312915802001953125">
        <ele>252.399993896484375</ele>
        <time>2026-08-05T10:10:20.000Z</time>
        <extensions>
          <ns3:TrackPointExtension>
            <ns3:hr>60</ns3:hr>
            <ns3:cad>0</ns3:cad>
          </ns3:TrackPointExtension>
        </extensions>
      </trkpt>
      <trkpt lat="43.47183982841670513153076171875" lon="1.432057209312915802001953125">
        <ele>252.399993896484375</ele>
        <time>2026-08-05T10:10:21.000Z</time>
        <extensions>
          <ns3:TrackPointExtension>
            <ns3:hr>61</ns3:hr>
            <ns3:cad>0</ns3:cad>
          </ns3:TrackPointExtension>
        </extensions>
      </trkpt>
      <trkpt lat="43.47183982841670513153076171875" lon="1.432057209312915802001953125">
        <ele>252.600006103515625</ele>
        <time>2026-08-05T10:10:22.000Z</time>
        <extensions>
          <ns3:TrackPointExtension>
            <ns3:hr>60</ns3:hr>
            <ns3:cad>0</ns3:cad>
          </ns3:TrackPointExtension>
        </extensions>
      </trkpt>
      <trkpt lat="43.47183982841670513153076171875" lon="1.432057209312915802001953125">
        <ele>252.600006103515625</ele>
        <time>2026-08-05T10:10:23.000Z</time>
        <extensions>
          <ns3:TrackPointExtension>
            <ns3:hr>59</ns3:hr>
            <ns3:cad>0</ns3:cad>
          </ns3:TrackPointExtension>
        </extensions>
      </trkpt>
      <trkpt lat="43.47183982841670513153076171875" lon="1.432057209312915802001953125">
        <ele>252.600006103515625</ele>
        <time>2026-08-05T10:10:24.000Z</time>
        <extensions>
          <ns3:TrackPointExtension>
            <ns3:hr>57</ns3:hr>
            <ns3:cad>0</ns3:cad>
          </ns3:TrackPointExtension>
        </extensions>
      </trkpt>
      <trkpt lat="43.47183982841670513153076171875" lon="1.432057209312915802001953125">
        <ele>252.600006103515625</ele>
        <time>2026-08-05T10:10:25.000Z</time>
        <extensions>
          <ns3:TrackPointExtension>
            <ns3:hr>56</ns3:hr>
            <ns3:cad>0</ns3:cad>
          </ns3:TrackPointExtension>
        </extensions>
      </trkpt>
      <trkpt lat="43.47183982841670513153076171875" lon="1.432057209312915802001953125">
        <ele>252.8000030517578125</ele>
        <time>2026-08-05T10:10:26.000Z</time>
        <extensions>
          <ns3:TrackPointExtension>
            <ns3:hr>56</ns3:hr>
            <ns3:cad>0</ns3:cad>
          </ns3:TrackPointExtension>
        </extensions>
      </trkpt>
      <trkpt lat="43.47183982841670513153076171875" lon="1.432057209312915802001953125">
        <ele>252.8000030517578125</ele>
        <time>2026-08-05T10:10:27.000Z</time>
        <extensions>
          <ns3:TrackPointExtension>
            <ns3:hr>56</ns3:hr>
            <ns3:cad>0</ns3:cad>
          </ns3:TrackPointExtension>
        </extensions>
      </trkpt>
      <trkpt lat="43.47183982841670513153076171875" lon="1.432057209312915802001953125">
        <ele>252.8000030517578125</ele>
        <time>2026-08-05T10:10:28.000Z</time>
        <extensions>
          <ns3:TrackPointExtension>
            <ns3:hr>56</ns3:hr>
            <ns3:cad>0</ns3:cad>
          </ns3:TrackPointExtension>
        </extensions>
      </trkpt>
      <trkpt lat="43.47183982841670513153076171875" lon="1.432057209312915802001953125">
        <ele>252.8000030517578125</ele>
        <time>2026-08-05T10:10:29.000Z</time>
        <extensions>
          <ns3:TrackPointExtension>
            <ns3:hr>57</ns3:hr>
            <ns3:cad>0</ns3:cad>
          </ns3:TrackPointExtension>
        </extensions>
      </trkpt>
      <trkpt lat="43.47183982841670513153076171875" lon="1.432057209312915802001953125">
        <ele>252.8000030517578125</ele>
        <time>2026-08-05T10:10:30.000Z</time>
        <extensions>
          <ns3:TrackPointExtension>
            <ns3:hr>57</ns3:hr>
            <ns3:cad>0</ns3:cad>
          </ns3:TrackPointExtension>
        </extensions>
      </trkpt>
      <trkpt lat="43.47183982841670513153076171875" lon="1.432057209312915802001953125">
        <ele>252.8000030517578125</ele>
        <time>2026-08-05T10:10:31.000Z</time>
        <extensions>
          <ns3:TrackPointExtension>
            <ns3:hr>57</ns3:hr>
            <ns3:cad>0</ns3:cad>
          </ns3:TrackPointExtension>
        </extensions>
      </trkpt>
      <trkpt lat="43.47183982841670513153076171875" lon="1.432057209312915802001953125">
        <ele>252.8000030517578125</ele>
        <time>2026-08-05T10:10:32.000Z</time>
        <extensions>
          <ns3:TrackPointExtension>
            <ns3:hr>57</ns3:hr>
            <ns3:cad>0</ns3:cad>
          </ns3:TrackPointExtension>
        </extensions>
      </trkpt>
      <trkpt lat="43.47183982841670513153076171875" lon="1.432057209312915802001953125">
        <ele>252.8000030517578125</ele>
        <time>2026-08-05T10:10:33.000Z</time>
        <extensions>
          <ns3:TrackPointExtension>
            <ns3:hr>57</ns3:hr>
            <ns3:cad>0</ns3:cad>
          </ns3:TrackPointExtension>
        </extensions>
      </trkpt>
      <trkpt lat="43.47183982841670513153076171875" lon="1.432057209312915802001953125">
        <ele>252.8000030517578125</ele>
        <time>2026-08-05T10:10:34.000Z</time>
        <extensions>
          <ns3:TrackPointExtension>
            <ns3:hr>58</ns3:hr>
            <ns3:cad>0</ns3:cad>
          </ns3:TrackPointExtension>
        </extensions>
      </trkpt>
      <trkpt lat="43.47183982841670513153076171875" lon="1.432057209312915802001953125">
        <ele>252.8000030517578125</ele>
        <time>2026-08-05T10:10:35.000Z</time>
        <extensions>
          <ns3:TrackPointExtension>
            <ns3:hr>58</ns3:hr>
            <ns3:cad>0</ns3:cad>
          </ns3:TrackPointExtension>
        </extensions>
      </trkpt>
      <trkpt lat="43.47183982841670513153076171875" lon="1.432057209312915802001953125">
        <ele>252.8000030517578125</ele>
        <time>2026-08-05T10:10:36.000Z</time>
        <extensions>
          <ns3:TrackPointExtension>
            <ns3:hr>57</ns3:hr>
            <ns3:cad>0</ns3:cad>
          </ns3:TrackPointExtension>
        </extensions>
      </trkpt>
      <trkpt lat="43.47183982841670513153076171875" lon="1.432057209312915802001953125">
        <ele>252.8000030517578125</ele>
        <time>2026-08-05T10:10:37.000Z</time>
        <extensions>
          <ns3:TrackPointExtension>
            <ns3:hr>57</ns3:hr>
            <ns3:cad>0</ns3:cad>
          </ns3:TrackPointExtension>
        </extensions>
      </trkpt>
      <trkpt lat="43.47183982841670513153076171875" lon="1.432057209312915802001953125">
        <ele>253</ele>
        <time>2026-08-05T10:10:38.000Z</time>
        <extensions>
          <ns3:TrackPointExtension>
            <ns3:hr>57</ns3:hr>
            <ns3:cad>0</ns3:cad>
          </ns3:TrackPointExtension>
        </extensions>
      </trkpt>
      <trkpt lat="43.47183982841670513153076171875" lon="1.432057209312915802001953125">
        <ele>253</ele>
        <time>2026-08-05T10:10:39.000Z</time>
        <extensions>
          <ns3:TrackPointExtension>
            <ns3:hr>56</ns3:hr>
            <ns3:cad>0</ns3:cad>
          </ns3:TrackPointExtension>
        </extensions>
      </trkpt>
      <trkpt lat="43.47183982841670513153076171875" lon="1.432057209312915802001953125">
        <ele>253</ele>
        <time>2026-08-05T10:10:40.000Z</time>
        <extensions>
          <ns3:TrackPointExtension>
            <ns3:hr>56</ns3:hr>
            <ns3:cad>0</ns3:cad>
          </ns3:TrackPointExtension>
        </extensions>
      </trkpt>
      <trkpt lat="43.47183982841670513153076171875" lon="1.432057209312915802001953125">
        <ele>252.8000030517578125</ele>
        <time>2026-08-05T10:10:41.000Z</time>
        <extensions>
          <ns3:TrackPointExtension>
            <ns3:hr>57</ns3:hr>
            <ns3:cad>0</ns3:cad>
          </ns3:TrackPointExtension>
        </extensions>
      </trkpt>
      <trkpt lat="43.47183982841670513153076171875" lon="1.432057209312915802001953125">
        <ele>252.8000030517578125</ele>
        <time>2026-08-05T10:10:42.000Z</time>
        <extensions>
          <ns3:TrackPointExtension>
            <ns3:hr>56</ns3:hr>
            <ns3:cad>0</ns3:cad>
          </ns3:TrackPointExtension>
        </extensions>
      </trkpt>
      <trkpt lat="43.47183982841670513153076171875" lon="1.432057209312915802001953125">
        <ele>252.8000030517578125</ele>
        <time>2026-08-05T10:10:43.000Z</time>
        <extensions>
          <ns3:TrackPointExtension>
            <ns3:hr>56</ns3:hr>
            <ns3:cad>0</ns3:cad>
          </ns3:TrackPointExtension>
        </extensions>
      </trkpt>
      <trkpt lat="43.47183982841670513153076171875" lon="1.432057209312915802001953125">
        <ele>252.8000030517578125</ele>
        <time>2026-08-05T10:10:44.000Z</time>
        <extensions>
          <ns3:TrackPointExtension>
            <ns3:hr>56</ns3:hr>
            <ns3:cad>0</ns3:cad>
          </ns3:TrackPointExtension>
        </extensions>
      </trkpt>
      <trkpt lat="43.47183982841670513153076171875" lon="1.432057209312915802001953125">
        <ele>252.8000030517578125</ele>
        <time>2026-08-05T10:10:45.000Z</time>
        <extensions>
          <ns3:TrackPointExtension>
            <ns3:hr>56</ns3:hr>
            <ns3:cad>0</ns3:cad>
          </ns3:TrackPointExtension>
        </extensions>
      </trkpt>
      <trkpt lat="43.47183982841670513153076171875" lon="1.432057209312915802001953125">
        <ele>252.8000030517578125</ele>
        <time>2026-08-05T10:10:46.000Z</time>
        <extensions>
          <ns3:TrackPointExtension>
            <ns3:hr>57</ns3:hr>
            <ns3:cad>0</ns3:cad>
          </ns3:TrackPointExtension>
        </extensions>
      </trkpt>
      <trkpt lat="43.47183982841670513153076171875" lon="1.432057209312915802001953125">
        <ele>252.600006103515625</ele>
        <time>2026-08-05T10:10:47.000Z</time>
        <extensions>
          <ns3:TrackPointExtension>
            <ns3:hr>57</ns3:hr>
            <ns3:cad>0</ns3:cad>
          </ns3:TrackPointExtension>
        </extensions>
      </trkpt>
      <trkpt lat="43.47183982841670513153076171875" lon="1.432057209312915802001953125">
        <ele>252.600006103515625</ele>
        <time>2026-08-05T10:10:48.000Z</time>
        <extensions>
          <ns3:TrackPointExtension>
            <ns3:hr>58</ns3:hr>
            <ns3:cad>0</ns3:cad>
          </ns3:TrackPointExtension>
        </extensions>
      </trkpt>
      <trkpt lat="43.47183982841670513153076171875" lon="1.432057209312915802001953125">
        <ele>252.8000030517578125</ele>
        <time>2026-08-05T10:10:49.000Z</time>
        <extensions>
          <ns3:TrackPointExtension>
            <ns3:hr>59</ns3:hr>
            <ns3:cad>0</ns3:cad>
          </ns3:TrackPointExtension>
        </extensions>
      </trkpt>
      <trkpt lat="43.47183982841670513153076171875" lon="1.432057209312915802001953125">
        <ele>252.8000030517578125</ele>
        <time>2026-08-05T10:10:50.000Z</time>
        <extensions>
          <ns3:TrackPointExtension>
            <ns3:hr>59</ns3:hr>
            <ns3:cad>0</ns3:cad>
          </ns3:TrackPointExtension>
        </extensions>
      </trkpt>
      <trkpt lat="43.47183982841670513153076171875" lon="1.432057209312915802001953125">
        <ele>252.600006103515625</ele>
        <time>2026-08-05T10:10:51.000Z</time>
        <extensions>
          <ns3:TrackPointExtension>
            <ns3:hr>59</ns3:hr>
            <ns3:cad>0</ns3:cad>
          </ns3:TrackPointExtension>
        </extensions>
      </trkpt>
      <trkpt lat="43.47183982841670513153076171875" lon="1.432057209312915802001953125">
        <ele>252.600006103515625</ele>
        <time>2026-08-05T10:10:52.000Z</time>
        <extensions>
          <ns3:TrackPointExtension>
            <ns3:hr>58</ns3:hr>
            <ns3:cad>0</ns3:cad>
          </ns3:TrackPointExtension>
        </extensions>
      </trkpt>
      <trkpt lat="43.47183982841670513153076171875" lon="1.432057209312915802001953125">
        <ele>252.600006103515625</ele>
        <time>2026-08-05T10:10:53.000Z</time>
        <extensions>
          <ns3:TrackPointExtension>
            <ns3:hr>59</ns3:hr>
            <ns3:cad>0</ns3:cad>
          </ns3:TrackPointExtension>
        </extensions>
      </trkpt>
      <trkpt lat="43.47183982841670513153076171875" lon="1.432057209312915802001953125">
        <ele>252.600006103515625</ele>
        <time>2026-08-05T10:10:54.000Z</time>
        <extensions>
          <ns3:TrackPointExtension>
            <ns3:hr>59</ns3:hr>
            <ns3:cad>0</ns3:cad>
          </ns3:TrackPointExtension>
        </extensions>
      </trkpt>
      <trkpt lat="43.47183982841670513153076171875" lon="1.432057209312915802001953125">
        <ele>252.8000030517578125</ele>
        <time>2026-08-05T10:10:55.000Z</time>
        <extensions>
          <ns3:TrackPointExtension>
            <ns3:hr>58</ns3:hr>
            <ns3:cad>0</ns3:cad>
          </ns3:TrackPointExtension>
        </extensions>
      </trkpt>
      <trkpt lat="43.47183982841670513153076171875" lon="1.432057209312915802001953125">
        <ele>252.8000030517578125</ele>
        <time>2026-08-05T10:10:56.000Z</time>
        <extensions>
          <ns3:TrackPointExtension>
            <ns3:hr>58</ns3:hr>
            <ns3:cad>0</ns3:cad>
          </ns3:TrackPointExtension>
        </extensions>
      </trkpt>
      <trkpt lat="43.47183982841670513153076171875" lon="1.432057209312915802001953125">
        <ele>252.8000030517578125</ele>
        <time>2026-08-05T10:10:57.000Z</time>
        <extensions>
          <ns3:TrackPointExtension>
            <ns3:hr>58</ns3:hr>
            <ns3:cad>0</ns3:cad>
          </ns3:TrackPointExtension>
        </extensions>
      </trkpt>
      <trkpt lat="43.47183982841670513153076171875" lon="1.432057209312915802001953125">
        <ele>252.8000030517578125</ele>
        <time>2026-08-05T10:10:58.000Z</time>
        <extensions>
          <ns3:TrackPointExtension>
            <ns3:hr>58</ns3:hr>
            <ns3:cad>0</ns3:cad>
          </ns3:TrackPointExtension>
        </extensions>
      </trkpt>
      <trkpt lat="43.47183982841670513153076171875" lon="1.432057209312915802001953125">
        <ele>252.8000030517578125</ele>
        <time>2026-08-05T10:10:59.000Z</time>
        <extensions>
          <ns3:TrackPointExtension>
            <ns3:hr>58</ns3:hr>
            <ns3:cad>0</ns3:cad>
          </ns3:TrackPointExtension>
        </extensions>
      </trkpt>
      <trkpt lat="43.47183982841670513153076171875" lon="1.432057209312915802001953125">
        <ele>252.8000030517578125</ele>
        <time>2026-08-05T10:11:00.000Z</time>
        <extensions>
          <ns3:TrackPointExtension>
            <ns3:hr>58</ns3:hr>
            <ns3:cad>0</ns3:cad>
          </ns3:TrackPointExtension>
        </extensions>
      </trkpt>
      <trkpt lat="43.47183982841670513153076171875" lon="1.432057209312915802001953125">
        <ele>252.8000030517578125</ele>
        <time>2026-08-05T10:11:01.000Z</time>
        <extensions>
          <ns3:TrackPointExtension>
            <ns3:hr>59</ns3:hr>
            <ns3:cad>0</ns3:cad>
          </ns3:TrackPointExtension>
        </extensions>
      </trkpt>
      <trkpt lat="43.47183982841670513153076171875" lon="1.432057209312915802001953125">
        <ele>252.8000030517578125</ele>
        <time>2026-08-05T10:11:02.000Z</time>
        <extensions>
          <ns3:TrackPointExtension>
            <ns3:hr>58</ns3:hr>
            <ns3:cad>0</ns3:cad>
          </ns3:TrackPointExtension>
        </extensions>
      </trkpt>
      <trkpt lat="43.47183546982705593109130859375" lon="1.43206047825515270233154296875">
        <ele>252.8000030517578125</ele>
        <time>2026-08-05T10:11:03.000Z</time>
        <extensions>
          <ns3:TrackPointExtension>
            <ns3:hr>58</ns3:hr>
            <ns3:cad>0</ns3:cad>
          </ns3:TrackPointExtension>
        </extensions>
      </trkpt>
      <trkpt lat="43.47183496691286563873291015625" lon="1.432060897350311279296875">
        <ele>252.8000030517578125</ele>
        <time>2026-08-05T10:11:04.000Z</time>
        <extensions>
          <ns3:TrackPointExtension>
            <ns3:hr>59</ns3:hr>
            <ns3:cad>0</ns3:cad>
          </ns3:TrackPointExtension>
        </extensions>
      </trkpt>
      <trkpt lat="43.47183982841670513153076171875" lon="1.432057209312915802001953125">
        <ele>252.8000030517578125</ele>
        <time>2026-08-05T10:11:05.000Z</time>
        <extensions>
          <ns3:TrackPointExtension>
            <ns3:hr>59</ns3:hr>
            <ns3:cad>0</ns3:cad>
          </ns3:TrackPointExtension>
        </extensions>
      </trkpt>
      <trkpt lat="43.47183982841670513153076171875" lon="1.432057209312915802001953125">
        <ele>252.8000030517578125</ele>
        <time>2026-08-05T10:11:06.000Z</time>
        <extensions>
          <ns3:TrackPointExtension>
            <ns3:hr>61</ns3:hr>
            <ns3:cad>0</ns3:cad>
          </ns3:TrackPointExtension>
        </extensions>
      </trkpt>
      <trkpt lat="43.47183982841670513153076171875" lon="1.432057209312915802001953125">
        <ele>252.8000030517578125</ele>
        <time>2026-08-05T10:11:07.000Z</time>
        <extensions>
          <ns3:TrackPointExtension>
            <ns3:hr>62</ns3:hr>
            <ns3:cad>0</ns3:cad>
          </ns3:TrackPointExtension>
        </extensions>
      </trkpt>
      <trkpt lat="43.47183982841670513153076171875" lon="1.432057209312915802001953125">
        <ele>252.8000030517578125</ele>
        <time>2026-08-05T10:11:08.000Z</time>
        <extensions>
          <ns3:TrackPointExtension>
            <ns3:hr>63</ns3:hr>
            <ns3:cad>0</ns3:cad>
          </ns3:TrackPointExtension>
        </extensions>
      </trkpt>
      <trkpt lat="43.47183982841670513153076171875" lon="1.432057209312915802001953125">
        <ele>252.8000030517578125</ele>
        <time>2026-08-05T10:11:09.000Z</time>
        <extensions>
          <ns3:TrackPointExtension>
            <ns3:hr>64</ns3:hr>
            <ns3:cad>0</ns3:cad>
          </ns3:TrackPointExtension>
        </extensions>
      </trkpt>
      <trkpt lat="43.47183982841670513153076171875" lon="1.432057209312915802001953125">
        <ele>252.8000030517578125</ele>
        <time>2026-08-05T10:11:10.000Z</time>
        <extensions>
          <ns3:TrackPointExtension>
            <ns3:hr>65</ns3:hr>
            <ns3:cad>0</ns3:cad>
          </ns3:TrackPointExtension>
        </extensions>
      </trkpt>
      <trkpt lat="43.47183982841670513153076171875" lon="1.432057209312915802001953125">
        <ele>253</ele>
        <time>2026-08-05T10:11:11.000Z</time>
        <extensions>
          <ns3:TrackPointExtension>
            <ns3:hr>65</ns3:hr>
            <ns3:cad>0</ns3:cad>
          </ns3:TrackPointExtension>
        </extensions>
      </trkpt>
      <trkpt lat="43.47183982841670513153076171875" lon="1.432057209312915802001953125">
        <ele>253</ele>
        <time>2026-08-05T10:11:12.000Z</time>
        <extensions>
          <ns3:TrackPointExtension>
            <ns3:hr>65</ns3:hr>
            <ns3:cad>0</ns3:cad>
          </ns3:TrackPointExtension>
        </extensions>
      </trkpt>
      <trkpt lat="43.47183982841670513153076171875" lon="1.432057209312915802001953125">
        <ele>252.8000030517578125</ele>
        <time>2026-08-05T10:11:13.000Z</time>
        <extensions>
          <ns3:TrackPointExtension>
            <ns3:hr>65</ns3:hr>
            <ns3:cad>0</ns3:cad>
          </ns3:TrackPointExtension>
        </extensions>
      </trkpt>
      <trkpt lat="43.47183982841670513153076171875" lon="1.432057209312915802001953125">
        <ele>252.8000030517578125</ele>
        <time>2026-08-05T10:11:14.000Z</time>
        <extensions>
          <ns3:TrackPointExtension>
            <ns3:hr>65</ns3:hr>
            <ns3:cad>0</ns3:cad>
          </ns3:TrackPointExtension>
        </extensions>
      </trkpt>
      <trkpt lat="43.47183982841670513153076171875" lon="1.432057209312915802001953125">
        <ele>252.8000030517578125</ele>
        <time>2026-08-05T10:11:15.000Z</time>
        <extensions>
          <ns3:TrackPointExtension>
            <ns3:hr>65</ns3:hr>
            <ns3:cad>0</ns3:cad>
          </ns3:TrackPointExtension>
        </extensions>
      </trkpt>
      <trkpt lat="43.47183496691286563873291015625" lon="1.43206047825515270233154296875">
        <ele>252.8000030517578125</ele>
        <time>2026-08-05T10:11:16.000Z</time>
        <extensions>
          <ns3:TrackPointExtension>
            <ns3:hr>64</ns3:hr>
            <ns3:cad>88</ns3:cad>
          </ns3:TrackPointExtension>
        </extensions>
      </trkpt>
      <trkpt lat="43.4718367271125316619873046875" lon="1.43205754458904266357421875">
        <ele>252.8000030517578125</ele>
        <time>2026-08-05T10:11:17.000Z</time>
        <extensions>
          <ns3:TrackPointExtension>
            <ns3:hr>64</ns3:hr>
            <ns3:cad>88</ns3:cad>
          </ns3:TrackPointExtension>
        </extensions>
      </trkpt>
      <trkpt lat="43.471837900578975677490234375" lon="1.43205461092293262481689453125">
        <ele>252.8000030517578125</ele>
        <time>2026-08-05T10:11:18.000Z</time>
        <extensions>
          <ns3:TrackPointExtension>
            <ns3:hr>63</ns3:hr>
            <ns3:cad>88</ns3:cad>
          </ns3:TrackPointExtension>
        </extensions>
      </trkpt>
      <trkpt lat="43.47183731384575366973876953125" lon="1.43205259926617145538330078125">
        <ele>252.8000030517578125</ele>
        <time>2026-08-05T10:11:19.000Z</time>
        <extensions>
          <ns3:TrackPointExtension>
            <ns3:hr>63</ns3:hr>
            <ns3:cad>0</ns3:cad>
          </ns3:TrackPointExtension>
        </extensions>
      </trkpt>
      <trkpt lat="43.47183597274124622344970703125" lon="1.43205410800874233245849609375">
        <ele>252.8000030517578125</ele>
        <time>2026-08-05T10:11:20.000Z</time>
        <extensions>
          <ns3:TrackPointExtension>
            <ns3:hr>64</ns3:hr>
            <ns3:cad>0</ns3:cad>
          </ns3:TrackPointExtension>
        </extensions>
      </trkpt>
      <trkpt lat="43.471835553646087646484375" lon="1.43205544911324977874755859375">
        <ele>252.8000030517578125</ele>
        <time>2026-08-05T10:11:21.000Z</time>
        <extensions>
          <ns3:TrackPointExtension>
            <ns3:hr>64</ns3:hr>
            <ns3:cad>0</ns3:cad>
          </ns3:TrackPointExtension>
        </extensions>
      </trkpt>
      <trkpt lat="43.47183681093156337738037109375" lon="1.43205528147518634796142578125">
        <ele>252.8000030517578125</ele>
        <time>2026-08-05T10:11:22.000Z</time>
        <extensions>
          <ns3:TrackPointExtension>
            <ns3:hr>64</ns3:hr>
            <ns3:cad>0</ns3:cad>
          </ns3:TrackPointExtension>
        </extensions>
      </trkpt>
      <trkpt lat="43.4718395769596099853515625" lon="1.43205427564680576324462890625">
        <ele>253</ele>
        <time>2026-08-05T10:11:23.000Z</time>
        <extensions>
          <ns3:TrackPointExtension>
            <ns3:hr>64</ns3:hr>
            <ns3:cad>0</ns3:cad>
          </ns3:TrackPointExtension>
        </extensions>
      </trkpt>
      <trkpt lat="43.47184217534959316253662109375" lon="1.43205243162810802459716796875">
        <ele>253</ele>
        <time>2026-08-05T10:11:24.000Z</time>
        <extensions>
          <ns3:TrackPointExtension>
            <ns3:hr>64</ns3:hr>
            <ns3:cad>0</ns3:cad>
          </ns3:TrackPointExtension>
        </extensions>
      </trkpt>
      <trkpt lat="43.47184368409216403961181640625" lon="1.43205125816166400909423828125">
        <ele>253</ele>
        <time>2026-08-05T10:11:25.000Z</time>
        <extensions>
          <ns3:TrackPointExtension>
            <ns3:hr>65</ns3:hr>
            <ns3:cad>0</ns3:cad>
          </ns3:TrackPointExtension>
        </extensions>
      </trkpt>
      <trkpt lat="43.4718449413776397705078125" lon="1.4320506714284420013427734375">
        <ele>253</ele>
        <time>2026-08-05T10:11:26.000Z</time>
        <extensions>
          <ns3:TrackPointExtension>
            <ns3:hr>65</ns3:hr>
            <ns3:cad>0</ns3:cad>
          </ns3:TrackPointExtension>
        </extensions>
      </trkpt>
      <trkpt lat="43.47183982841670513153076171875" lon="1.432057209312915802001953125">
        <ele>253</ele>
        <time>2026-08-05T10:11:27.000Z</time>
        <extensions>
          <ns3:TrackPointExtension>
            <ns3:hr>65</ns3:hr>
            <ns3:cad>0</ns3:cad>
          </ns3:TrackPointExtension>
        </extensions>
      </trkpt>
      <trkpt lat="43.47183982841670513153076171875" lon="1.432057209312915802001953125">
        <ele>253</ele>
        <time>2026-08-05T10:11:28.000Z</time>
        <extensions>
          <ns3:TrackPointExtension>
            <ns3:hr>65</ns3:hr>
            <ns3:cad>0</ns3:cad>
          </ns3:TrackPointExtension>
        </extensions>
      </trkpt>
      <trkpt lat="43.47183982841670513153076171875" lon="1.432057209312915802001953125">
        <ele>253</ele>
        <time>2026-08-05T10:11:29.000Z</time>
        <extensions>
          <ns3:TrackPointExtension>
            <ns3:hr>65</ns3:hr>
            <ns3:cad>0</ns3:cad>
          </ns3:TrackPointExtension>
        </extensions>
      </trkpt>
      <trkpt lat="43.47183982841670513153076171875" lon="1.432057209312915802001953125">
        <ele>253</ele>
        <time>2026-08-05T10:11:30.000Z</time>
        <extensions>
          <ns3:TrackPointExtension>
            <ns3:hr>65</ns3:hr>
            <ns3:cad>0</ns3:cad>
          </ns3:TrackPointExtension>
        </extensions>
      </trkpt>
      <trkpt lat="43.47183982841670513153076171875" lon="1.432057209312915802001953125">
        <ele>253</ele>
        <time>2026-08-05T10:11:31.000Z</time>
        <extensions>
          <ns3:TrackPointExtension>
            <ns3:hr>65</ns3:hr>
            <ns3:cad>0</ns3:cad>
          </ns3:TrackPointExtension>
        </extensions>
      </trkpt>
      <trkpt lat="43.47183982841670513153076171875" lon="1.432057209312915802001953125">
        <ele>253</ele>
        <time>2026-08-05T10:11:32.000Z</time>
        <extensions>
          <ns3:TrackPointExtension>
            <ns3:hr>64</ns3:hr>
            <ns3:cad>0</ns3:cad>
          </ns3:TrackPointExtension>
        </extensions>
      </trkpt>
      <trkpt lat="43.47183982841670513153076171875" lon="1.432057209312915802001953125">
        <ele>253</ele>
        <time>2026-08-05T10:11:33.000Z</time>
        <extensions>
          <ns3:TrackPointExtension>
            <ns3:hr>65</ns3:hr>
            <ns3:cad>0</ns3:cad>
          </ns3:TrackPointExtension>
        </extensions>
      </trkpt>
      <trkpt lat="43.47183982841670513153076171875" lon="1.432057209312915802001953125">
        <ele>253</ele>
        <time>2026-08-05T10:11:34.000Z</time>
        <extensions>
          <ns3:TrackPointExtension>
            <ns3:hr>65</ns3:hr>
            <ns3:cad>0</ns3:cad>
          </ns3:TrackPointExtension>
        </extensions>
      </trkpt>
      <trkpt lat="43.47183982841670513153076171875" lon="1.432057209312915802001953125">
        <ele>253</ele>
        <time>2026-08-05T10:11:35.000Z</time>
        <extensions>
          <ns3:TrackPointExtension>
            <ns3:hr>65</ns3:hr>
            <ns3:cad>0</ns3:cad>
          </ns3:TrackPointExtension>
        </extensions>
      </trkpt>
      <trkpt lat="43.47183982841670513153076171875" lon="1.432057209312915802001953125">
        <ele>253</ele>
        <time>2026-08-05T10:11:36.000Z</time>
        <extensions>
          <ns3:TrackPointExtension>
            <ns3:hr>65</ns3:hr>
            <ns3:cad>0</ns3:cad>
          </ns3:TrackPointExtension>
        </extensions>
      </trkpt>
      <trkpt lat="43.47184552811086177825927734375" lon="1.43205259926617145538330078125">
        <ele>253</ele>
        <time>2026-08-05T10:11:37.000Z</time>
        <extensions>
          <ns3:TrackPointExtension>
            <ns3:hr>65</ns3:hr>
            <ns3:cad>0</ns3:cad>
          </ns3:TrackPointExtension>
        </extensions>
      </trkpt>
      <trkpt lat="43.47184318117797374725341796875" lon="1.4320614002645015716552734375">
        <ele>253</ele>
        <time>2026-08-05T10:11:38.000Z</time>
        <extensions>
          <ns3:TrackPointExtension>
            <ns3:hr>66</ns3:hr>
            <ns3:cad>0</ns3:cad>
          </ns3:TrackPointExtension>
        </extensions>
      </trkpt>
      <trkpt lat="43.47183982841670513153076171875" lon="1.432057209312915802001953125">
        <ele>253</ele>
        <time>2026-08-05T10:11:39.000Z</time>
        <extensions>
          <ns3:TrackPointExtension>
            <ns3:hr>66</ns3:hr>
            <ns3:cad>0</ns3:cad>
          </ns3:TrackPointExtension>
        </extensions>
      </trkpt>
      <trkpt lat="43.47183982841670513153076171875" lon="1.432057209312915802001953125">
        <ele>253</ele>
        <time>2026-08-05T10:11:40.000Z</time>
        <extensions>
          <ns3:TrackPointExtension>
            <ns3:hr>66</ns3:hr>
            <ns3:cad>0</ns3:cad>
          </ns3:TrackPointExtension>
        </extensions>
      </trkpt>
      <trkpt lat="43.47183982841670513153076171875" lon="1.432057209312915802001953125">
        <ele>253</ele>
        <time>2026-08-05T10:11:41.000Z</time>
        <extensions>
          <ns3:TrackPointExtension>
            <ns3:hr>66</ns3:hr>
            <ns3:cad>0</ns3:cad>
          </ns3:TrackPointExtension>
        </extensions>
      </trkpt>
      <trkpt lat="43.47183982841670513153076171875" lon="1.432057209312915802001953125">
        <ele>253</ele>
        <time>2026-08-05T10:11:42.000Z</time>
        <extensions>
          <ns3:TrackPointExtension>
            <ns3:hr>65</ns3:hr>
            <ns3:cad>0</ns3:cad>
          </ns3:TrackPointExtension>
        </extensions>
      </trkpt>
      <trkpt lat="43.47183982841670513153076171875" lon="1.432057209312915802001953125">
        <ele>253</ele>
        <time>2026-08-05T10:11:43.000Z</time>
        <extensions>
          <ns3:TrackPointExtension>
            <ns3:hr>65</ns3:hr>
            <ns3:cad>0</ns3:cad>
          </ns3:TrackPointExtension>
        </extensions>
      </trkpt>
      <trkpt lat="43.47183982841670513153076171875" lon="1.432057209312915802001953125">
        <ele>253</ele>
        <time>2026-08-05T10:11:44.000Z</time>
        <extensions>
          <ns3:TrackPointExtension>
            <ns3:hr>65</ns3:hr>
            <ns3:cad>0</ns3:cad>
          </ns3:TrackPointExtension>
        </extensions>
      </trkpt>
      <trkpt lat="43.47183982841670513153076171875" lon="1.432057209312915802001953125">
        <ele>253</ele>
        <time>2026-08-05T10:11:45.000Z</time>
        <extensions>
          <ns3:TrackPointExtension>
            <ns3:hr>65</ns3:hr>
            <ns3:cad>0</ns3:cad>
          </ns3:TrackPointExtension>
        </extensions>
      </trkpt>
      <trkpt lat="43.47183982841670513153076171875" lon="1.432057209312915802001953125">
        <ele>253</ele>
        <time>2026-08-05T10:11:46.000Z</time>
        <extensions>
          <ns3:TrackPointExtension>
            <ns3:hr>65</ns3:hr>
            <ns3:cad>0</ns3:cad>
          </ns3:TrackPointExtension>
        </extensions>
      </trkpt>
      <trkpt lat="43.47183982841670513153076171875" lon="1.432057209312915802001953125">
        <ele>253</ele>
        <time>2026-08-05T10:11:47.000Z</time>
        <extensions>
          <ns3:TrackPointExtension>
            <ns3:hr>66</ns3:hr>
            <ns3:cad>0</ns3:cad>
          </ns3:TrackPointExtension>
        </extensions>
      </trkpt>
      <trkpt lat="43.47183982841670513153076171875" lon="1.432057209312915802001953125">
        <ele>253</ele>
        <time>2026-08-05T10:11:48.000Z</time>
        <extensions>
          <ns3:TrackPointExtension>
            <ns3:hr>65</ns3:hr>
            <ns3:cad>0</ns3:cad>
          </ns3:TrackPointExtension>
        </extensions>
      </trkpt>
      <trkpt lat="43.47183982841670513153076171875" lon="1.432057209312915802001953125">
        <ele>252.8000030517578125</ele>
        <time>2026-08-05T10:11:49.000Z</time>
        <extensions>
          <ns3:TrackPointExtension>
            <ns3:hr>66</ns3:hr>
            <ns3:cad>0</ns3:cad>
          </ns3:TrackPointExtension>
        </extensions>
      </trkpt>
      <trkpt lat="43.47183982841670513153076171875" lon="1.432057209312915802001953125">
        <ele>252.8000030517578125</ele>
        <time>2026-08-05T10:11:50.000Z</time>
        <extensions>
          <ns3:TrackPointExtension>
            <ns3:hr>65</ns3:hr>
            <ns3:cad>0</ns3:cad>
          </ns3:TrackPointExtension>
        </extensions>
      </trkpt>
      <trkpt lat="43.47183982841670513153076171875" lon="1.432057209312915802001953125">
        <ele>252.8000030517578125</ele>
        <time>2026-08-05T10:11:51.000Z</time>
        <extensions>
          <ns3:TrackPointExtension>
            <ns3:hr>65</ns3:hr>
            <ns3:cad>0</ns3:cad>
          </ns3:TrackPointExtension>
        </extensions>
      </trkpt>
      <trkpt lat="43.47183982841670513153076171875" lon="1.432057209312915802001953125">
        <ele>252.8000030517578125</ele>
        <time>2026-08-05T10:11:52.000Z</time>
        <extensions>
          <ns3:TrackPointExtension>
            <ns3:hr>65</ns3:hr>
            <ns3:cad>0</ns3:cad>
          </ns3:TrackPointExtension>
        </extensions>
      </trkpt>
      <trkpt lat="43.47183982841670513153076171875" lon="1.432057209312915802001953125">
        <ele>252.8000030517578125</ele>
        <time>2026-08-05T10:11:53.000Z</time>
        <extensions>
          <ns3:TrackPointExtension>
            <ns3:hr>64</ns3:hr>
            <ns3:cad>0</ns3:cad>
          </ns3:TrackPointExtension>
        </extensions>
      </trkpt>
      <trkpt lat="43.47183982841670513153076171875" lon="1.432057209312915802001953125">
        <ele>252.8000030517578125</ele>
        <time>2026-08-05T10:11:54.000Z</time>
        <extensions>
          <ns3:TrackPointExtension>
            <ns3:hr>63</ns3:hr>
            <ns3:cad>0</ns3:cad>
          </ns3:TrackPointExtension>
        </extensions>
      </trkpt>
      <trkpt lat="43.47183982841670513153076171875" lon="1.432057209312915802001953125">
        <ele>252.600006103515625</ele>
        <time>2026-08-05T10:11:55.000Z</time>
        <extensions>
          <ns3:TrackPointExtension>
            <ns3:hr>64</ns3:hr>
            <ns3:cad>0</ns3:cad>
          </ns3:TrackPointExtension>
        </extensions>
      </trkpt>
      <trkpt lat="43.47183982841670513153076171875" lon="1.432057209312915802001953125">
        <ele>252.600006103515625</ele>
        <time>2026-08-05T10:11:56.000Z</time>
        <extensions>
          <ns3:TrackPointExtension>
            <ns3:hr>64</ns3:hr>
            <ns3:cad>0</ns3:cad>
          </ns3:TrackPointExtension>
        </extensions>
      </trkpt>
      <trkpt lat="43.47183982841670513153076171875" lon="1.432057209312915802001953125">
        <ele>252.600006103515625</ele>
        <time>2026-08-05T10:11:57.000Z</time>
        <extensions>
          <ns3:TrackPointExtension>
            <ns3:hr>64</ns3:hr>
            <ns3:cad>0</ns3:cad>
          </ns3:TrackPointExtension>
        </extensions>
      </trkpt>
      <trkpt lat="43.47183982841670513153076171875" lon="1.432057209312915802001953125">
        <ele>252.600006103515625</ele>
        <time>2026-08-05T10:11:58.000Z</time>
        <extensions>
          <ns3:TrackPointExtension>
            <ns3:hr>64</ns3:hr>
            <ns3:cad>0</ns3:cad>
          </ns3:TrackPointExtension>
        </extensions>
      </trkpt>
      <trkpt lat="43.47183982841670513153076171875" lon="1.432057209312915802001953125">
        <ele>252.8000030517578125</ele>
        <time>2026-08-05T10:11:59.000Z</time>
        <extensions>
          <ns3:TrackPointExtension>
            <ns3:hr>64</ns3:hr>
            <ns3:cad>0</ns3:cad>
          </ns3:TrackPointExtension>
        </extensions>
      </trkpt>
      <trkpt lat="43.47183982841670513153076171875" lon="1.432057209312915802001953125">
        <ele>252.8000030517578125</ele>
        <time>2026-08-05T10:12:00.000Z</time>
        <extensions>
          <ns3:TrackPointExtension>
            <ns3:hr>65</ns3:hr>
            <ns3:cad>0</ns3:cad>
          </ns3:TrackPointExtension>
        </extensions>
      </trkpt>
      <trkpt lat="43.47183982841670513153076171875" lon="1.432057209312915802001953125">
        <ele>252.600006103515625</ele>
        <time>2026-08-05T10:12:01.000Z</time>
        <extensions>
          <ns3:TrackPointExtension>
            <ns3:hr>65</ns3:hr>
            <ns3:cad>0</ns3:cad>
          </ns3:TrackPointExtension>
        </extensions>
      </trkpt>
      <trkpt lat="43.47183982841670513153076171875" lon="1.432057209312915802001953125">
        <ele>252.600006103515625</ele>
        <time>2026-08-05T10:12:02.000Z</time>
        <extensions>
          <ns3:TrackPointExtension>
            <ns3:hr>65</ns3:hr>
            <ns3:cad>0</ns3:cad>
          </ns3:TrackPointExtension>
        </extensions>
      </trkpt>
      <trkpt lat="43.47183982841670513153076171875" lon="1.432057209312915802001953125">
        <ele>252.600006103515625</ele>
        <time>2026-08-05T10:12:03.000Z</time>
        <extensions>
          <ns3:TrackPointExtension>
            <ns3:hr>65</ns3:hr>
            <ns3:cad>0</ns3:cad>
          </ns3:TrackPointExtension>
        </extensions>
      </trkpt>
      <trkpt lat="43.47183982841670513153076171875" lon="1.432057209312915802001953125">
        <ele>252.399993896484375</ele>
        <time>2026-08-05T10:12:04.000Z</time>
        <extensions>
          <ns3:TrackPointExtension>
            <ns3:hr>66</ns3:hr>
            <ns3:cad>0</ns3:cad>
          </ns3:TrackPointExtension>
        </extensions>
      </trkpt>
      <trkpt lat="43.47183982841670513153076171875" lon="1.432057209312915802001953125">
        <ele>252.399993896484375</ele>
        <time>2026-08-05T10:12:05.000Z</time>
        <extensions>
          <ns3:TrackPointExtension>
            <ns3:hr>65</ns3:hr>
            <ns3:cad>0</ns3:cad>
          </ns3:TrackPointExtension>
        </extensions>
      </trkpt>
      <trkpt lat="43.47183982841670513153076171875" lon="1.432057209312915802001953125">
        <ele>252.399993896484375</ele>
        <time>2026-08-05T10:12:06.000Z</time>
        <extensions>
          <ns3:TrackPointExtension>
            <ns3:hr>64</ns3:hr>
            <ns3:cad>0</ns3:cad>
          </ns3:TrackPointExtension>
        </extensions>
      </trkpt>
      <trkpt lat="43.47183982841670513153076171875" lon="1.432057209312915802001953125">
        <ele>252.399993896484375</ele>
        <time>2026-08-05T10:12:07.000Z</time>
        <extensions>
          <ns3:TrackPointExtension>
            <ns3:hr>63</ns3:hr>
            <ns3:cad>0</ns3:cad>
          </ns3:TrackPointExtension>
        </extensions>
      </trkpt>
      <trkpt lat="43.47183982841670513153076171875" lon="1.432057209312915802001953125">
        <ele>252.399993896484375</ele>
        <time>2026-08-05T10:12:08.000Z</time>
        <extensions>
          <ns3:TrackPointExtension>
            <ns3:hr>62</ns3:hr>
            <ns3:cad>0</ns3:cad>
          </ns3:TrackPointExtension>
        </extensions>
      </trkpt>
      <trkpt lat="43.47183982841670513153076171875" lon="1.432057209312915802001953125">
        <ele>252.600006103515625</ele>
        <time>2026-08-05T10:12:09.000Z</time>
        <extensions>
          <ns3:TrackPointExtension>
            <ns3:hr>61</ns3:hr>
            <ns3:cad>0</ns3:cad>
          </ns3:TrackPointExtension>
        </extensions>
      </trkpt>
      <trkpt lat="43.47183982841670513153076171875" lon="1.432057209312915802001953125">
        <ele>252.600006103515625</ele>
        <time>2026-08-05T10:12:10.000Z</time>
        <extensions>
          <ns3:TrackPointExtension>
            <ns3:hr>60</ns3:hr>
            <ns3:cad>0</ns3:cad>
          </ns3:TrackPointExtension>
        </extensions>
      </trkpt>
      <trkpt lat="43.47183982841670513153076171875" lon="1.432057209312915802001953125">
        <ele>252.8000030517578125</ele>
        <time>2026-08-05T10:12:11.000Z</time>
        <extensions>
          <ns3:TrackPointExtension>
            <ns3:hr>59</ns3:hr>
            <ns3:cad>0</ns3:cad>
          </ns3:TrackPointExtension>
        </extensions>
      </trkpt>
      <trkpt lat="43.47183982841670513153076171875" lon="1.432057209312915802001953125">
        <ele>253</ele>
        <time>2026-08-05T10:12:12.000Z</time>
        <extensions>
          <ns3:TrackPointExtension>
            <ns3:hr>59</ns3:hr>
            <ns3:cad>0</ns3:cad>
          </ns3:TrackPointExtension>
        </extensions>
      </trkpt>
      <trkpt lat="43.47183982841670513153076171875" lon="1.432057209312915802001953125">
        <ele>253</ele>
        <time>2026-08-05T10:12:13.000Z</time>
        <extensions>
          <ns3:TrackPointExtension>
            <ns3:hr>59</ns3:hr>
            <ns3:cad>0</ns3:cad>
          </ns3:TrackPointExtension>
        </extensions>
      </trkpt>
      <trkpt lat="43.47183982841670513153076171875" lon="1.432057209312915802001953125">
        <ele>253</ele>
        <time>2026-08-05T10:12:14.000Z</time>
        <extensions>
          <ns3:TrackPointExtension>
            <ns3:hr>59</ns3:hr>
            <ns3:cad>0</ns3:cad>
          </ns3:TrackPointExtension>
        </extensions>
      </trkpt>
      <trkpt lat="43.47183982841670513153076171875" lon="1.432057209312915802001953125">
        <ele>253.1999969482421875</ele>
        <time>2026-08-05T10:12:15.000Z</time>
        <extensions>
          <ns3:TrackPointExtension>
            <ns3:hr>59</ns3:hr>
            <ns3:cad>0</ns3:cad>
          </ns3:TrackPointExtension>
        </extensions>
      </trkpt>
      <trkpt lat="43.47183982841670513153076171875" lon="1.432057209312915802001953125">
        <ele>253.1999969482421875</ele>
        <time>2026-08-05T10:12:16.000Z</time>
        <extensions>
          <ns3:TrackPointExtension>
            <ns3:hr>59</ns3:hr>
            <ns3:cad>0</ns3:cad>
          </ns3:TrackPointExtension>
        </extensions>
      </trkpt>
      <trkpt lat="43.47183982841670513153076171875" lon="1.432057209312915802001953125">
        <ele>253.1999969482421875</ele>
        <time>2026-08-05T10:12:17.000Z</time>
        <extensions>
          <ns3:TrackPointExtension>
            <ns3:hr>59</ns3:hr>
            <ns3:cad>0</ns3:cad>
          </ns3:TrackPointExtension>
        </extensions>
      </trkpt>
      <trkpt lat="43.47183982841670513153076171875" lon="1.432057209312915802001953125">
        <ele>253</ele>
        <time>2026-08-05T10:12:18.000Z</time>
        <extensions>
          <ns3:TrackPointExtension>
            <ns3:hr>60</ns3:hr>
            <ns3:cad>0</ns3:cad>
          </ns3:TrackPointExtension>
        </extensions>
      </trkpt>
      <trkpt lat="43.47183982841670513153076171875" lon="1.432057209312915802001953125">
        <ele>253</ele>
        <time>2026-08-05T10:12:19.000Z</time>
        <extensions>
          <ns3:TrackPointExtension>
            <ns3:hr>59</ns3:hr>
            <ns3:cad>0</ns3:cad>
          </ns3:TrackPointExtension>
        </extensions>
      </trkpt>
      <trkpt lat="43.47183982841670513153076171875" lon="1.432057209312915802001953125">
        <ele>253</ele>
        <time>2026-08-05T10:12:20.000Z</time>
        <extensions>
          <ns3:TrackPointExtension>
            <ns3:hr>59</ns3:hr>
            <ns3:cad>0</ns3:cad>
          </ns3:TrackPointExtension>
        </extensions>
      </trkpt>
      <trkpt lat="43.47183982841670513153076171875" lon="1.432057209312915802001953125">
        <ele>253</ele>
        <time>2026-08-05T10:12:21.000Z</time>
        <extensions>
          <ns3:TrackPointExtension>
            <ns3:hr>60</ns3:hr>
            <ns3:cad>0</ns3:cad>
          </ns3:TrackPointExtension>
        </extensions>
      </trkpt>
      <trkpt lat="43.47183982841670513153076171875" lon="1.432057209312915802001953125">
        <ele>253</ele>
        <time>2026-08-05T10:12:22.000Z</time>
        <extensions>
          <ns3:TrackPointExtension>
            <ns3:hr>60</ns3:hr>
            <ns3:cad>0</ns3:cad>
          </ns3:TrackPointExtension>
        </extensions>
      </trkpt>
      <trkpt lat="43.47183982841670513153076171875" lon="1.432057209312915802001953125">
        <ele>253.1999969482421875</ele>
        <time>2026-08-05T10:12:23.000Z</time>
        <extensions>
          <ns3:TrackPointExtension>
            <ns3:hr>60</ns3:hr>
            <ns3:cad>0</ns3:cad>
          </ns3:TrackPointExtension>
        </extensions>
      </trkpt>
      <trkpt lat="43.47183982841670513153076171875" lon="1.432057209312915802001953125">
        <ele>253.399993896484375</ele>
        <time>2026-08-05T10:12:24.000Z</time>
        <extensions>
          <ns3:TrackPointExtension>
            <ns3:hr>60</ns3:hr>
            <ns3:cad>0</ns3:cad>
          </ns3:TrackPointExtension>
        </extensions>
      </trkpt>
      <trkpt lat="43.47183982841670513153076171875" lon="1.432057209312915802001953125">
        <ele>253.399993896484375</ele>
        <time>2026-08-05T10:12:25.000Z</time>
        <extensions>
          <ns3:TrackPointExtension>
            <ns3:hr>60</ns3:hr>
            <ns3:cad>0</ns3:cad>
          </ns3:TrackPointExtension>
        </extensions>
      </trkpt>
      <trkpt lat="43.47183982841670513153076171875" lon="1.432057209312915802001953125">
        <ele>253.399993896484375</ele>
        <time>2026-08-05T10:12:26.000Z</time>
        <extensions>
          <ns3:TrackPointExtension>
            <ns3:hr>60</ns3:hr>
            <ns3:cad>0</ns3:cad>
          </ns3:TrackPointExtension>
        </extensions>
      </trkpt>
      <trkpt lat="43.47183982841670513153076171875" lon="1.432057209312915802001953125">
        <ele>253.1999969482421875</ele>
        <time>2026-08-05T10:12:27.000Z</time>
        <extensions>
          <ns3:TrackPointExtension>
            <ns3:hr>59</ns3:hr>
            <ns3:cad>0</ns3:cad>
          </ns3:TrackPointExtension>
        </extensions>
      </trkpt>
      <trkpt lat="43.47183982841670513153076171875" lon="1.432057209312915802001953125">
        <ele>253.1999969482421875</ele>
        <time>2026-08-05T10:12:28.000Z</time>
        <extensions>
          <ns3:TrackPointExtension>
            <ns3:hr>60</ns3:hr>
            <ns3:cad>0</ns3:cad>
          </ns3:TrackPointExtension>
        </extensions>
      </trkpt>
      <trkpt lat="43.47183982841670513153076171875" lon="1.432057209312915802001953125">
        <ele>253</ele>
        <time>2026-08-05T10:12:29.000Z</time>
        <extensions>
          <ns3:TrackPointExtension>
            <ns3:hr>60</ns3:hr>
            <ns3:cad>0</ns3:cad>
          </ns3:TrackPointExtension>
        </extensions>
      </trkpt>
      <trkpt lat="43.47183982841670513153076171875" lon="1.432057209312915802001953125">
        <ele>253</ele>
        <time>2026-08-05T10:12:30.000Z</time>
        <extensions>
          <ns3:TrackPointExtension>
            <ns3:hr>60</ns3:hr>
            <ns3:cad>0</ns3:cad>
          </ns3:TrackPointExtension>
        </extensions>
      </trkpt>
      <trkpt lat="43.47183982841670513153076171875" lon="1.432057209312915802001953125">
        <ele>253</ele>
        <time>2026-08-05T10:12:31.000Z</time>
        <extensions>
          <ns3:TrackPointExtension>
            <ns3:hr>61</ns3:hr>
            <ns3:cad>0</ns3:cad>
          </ns3:TrackPointExtension>
        </extensions>
      </trkpt>
      <trkpt lat="43.47183982841670513153076171875" lon="1.432057209312915802001953125">
        <ele>253</ele>
        <time>2026-08-05T10:12:32.000Z</time>
        <extensions>
          <ns3:TrackPointExtension>
            <ns3:hr>61</ns3:hr>
            <ns3:cad>0</ns3:cad>
          </ns3:TrackPointExtension>
        </extensions>
      </trkpt>
      <trkpt lat="43.47183982841670513153076171875" lon="1.432057209312915802001953125">
        <ele>253</ele>
        <time>2026-08-05T10:12:33.000Z</time>
        <extensions>
          <ns3:TrackPointExtension>
            <ns3:hr>61</ns3:hr>
            <ns3:cad>0</ns3:cad>
          </ns3:TrackPointExtension>
        </extensions>
      </trkpt>
      <trkpt lat="43.47183982841670513153076171875" lon="1.432057209312915802001953125">
        <ele>252.8000030517578125</ele>
        <time>2026-08-05T10:12:34.000Z</time>
        <extensions>
          <ns3:TrackPointExtension>
            <ns3:hr>62</ns3:hr>
            <ns3:cad>0</ns3:cad>
          </ns3:TrackPointExtension>
        </extensions>
      </trkpt>
      <trkpt lat="43.47183982841670513153076171875" lon="1.432057209312915802001953125">
        <ele>252.8000030517578125</ele>
        <time>2026-08-05T10:12:35.000Z</time>
        <extensions>
          <ns3:TrackPointExtension>
            <ns3:hr>62</ns3:hr>
            <ns3:cad>0</ns3:cad>
          </ns3:TrackPointExtension>
        </extensions>
      </trkpt>
      <trkpt lat="43.47183982841670513153076171875" lon="1.432057209312915802001953125">
        <ele>252.8000030517578125</ele>
        <time>2026-08-05T10:12:36.000Z</time>
        <extensions>
          <ns3:TrackPointExtension>
            <ns3:hr>62</ns3:hr>
            <ns3:cad>0</ns3:cad>
          </ns3:TrackPointExtension>
        </extensions>
      </trkpt>
      <trkpt lat="43.47183982841670513153076171875" lon="1.432057209312915802001953125">
        <ele>252.8000030517578125</ele>
        <time>2026-08-05T10:12:37.000Z</time>
        <extensions>
          <ns3:TrackPointExtension>
            <ns3:hr>60</ns3:hr>
            <ns3:cad>0</ns3:cad>
          </ns3:TrackPointExtension>
        </extensions>
      </trkpt>
      <trkpt lat="43.47183982841670513153076171875" lon="1.432057209312915802001953125">
        <ele>252.8000030517578125</ele>
        <time>2026-08-05T10:12:38.000Z</time>
        <extensions>
          <ns3:TrackPointExtension>
            <ns3:hr>58</ns3:hr>
            <ns3:cad>0</ns3:cad>
          </ns3:TrackPointExtension>
        </extensions>
      </trkpt>
      <trkpt lat="43.47183982841670513153076171875" lon="1.432057209312915802001953125">
        <ele>252.8000030517578125</ele>
        <time>2026-08-05T10:12:39.000Z</time>
        <extensions>
          <ns3:TrackPointExtension>
            <ns3:hr>57</ns3:hr>
            <ns3:cad>0</ns3:cad>
          </ns3:TrackPointExtension>
        </extensions>
      </trkpt>
      <trkpt lat="43.47183982841670513153076171875" lon="1.432057209312915802001953125">
        <ele>252.8000030517578125</ele>
        <time>2026-08-05T10:12:40.000Z</time>
        <extensions>
          <ns3:TrackPointExtension>
            <ns3:hr>57</ns3:hr>
            <ns3:cad>0</ns3:cad>
          </ns3:TrackPointExtension>
        </extensions>
      </trkpt>
      <trkpt lat="43.47183982841670513153076171875" lon="1.432057209312915802001953125">
        <ele>252.8000030517578125</ele>
        <time>2026-08-05T10:12:41.000Z</time>
        <extensions>
          <ns3:TrackPointExtension>
            <ns3:hr>56</ns3:hr>
            <ns3:cad>0</ns3:cad>
          </ns3:TrackPointExtension>
        </extensions>
      </trkpt>
      <trkpt lat="43.47183982841670513153076171875" lon="1.432057209312915802001953125">
        <ele>252.8000030517578125</ele>
        <time>2026-08-05T10:12:42.000Z</time>
        <extensions>
          <ns3:TrackPointExtension>
            <ns3:hr>56</ns3:hr>
            <ns3:cad>0</ns3:cad>
          </ns3:TrackPointExtension>
        </extensions>
      </trkpt>
      <trkpt lat="43.47183982841670513153076171875" lon="1.432057209312915802001953125">
        <ele>252.600006103515625</ele>
        <time>2026-08-05T10:12:43.000Z</time>
        <extensions>
          <ns3:TrackPointExtension>
            <ns3:hr>56</ns3:hr>
            <ns3:cad>0</ns3:cad>
          </ns3:TrackPointExtension>
        </extensions>
      </trkpt>
      <trkpt lat="43.47183982841670513153076171875" lon="1.432057209312915802001953125">
        <ele>252.8000030517578125</ele>
        <time>2026-08-05T10:12:44.000Z</time>
        <extensions>
          <ns3:TrackPointExtension>
            <ns3:hr>56</ns3:hr>
            <ns3:cad>0</ns3:cad>
          </ns3:TrackPointExtension>
        </extensions>
      </trkpt>
      <trkpt lat="43.47183982841670513153076171875" lon="1.432057209312915802001953125">
        <ele>252.8000030517578125</ele>
        <time>2026-08-05T10:12:45.000Z</time>
        <extensions>
          <ns3:TrackPointExtension>
            <ns3:hr>56</ns3:hr>
            <ns3:cad>0</ns3:cad>
          </ns3:TrackPointExtension>
        </extensions>
      </trkpt>
      <trkpt lat="43.47183982841670513153076171875" lon="1.432057209312915802001953125">
        <ele>252.8000030517578125</ele>
        <time>2026-08-05T10:12:46.000Z</time>
        <extensions>
          <ns3:TrackPointExtension>
            <ns3:hr>57</ns3:hr>
            <ns3:cad>0</ns3:cad>
          </ns3:TrackPointExtension>
        </extensions>
      </trkpt>
      <trkpt lat="43.47183982841670513153076171875" lon="1.432057209312915802001953125">
        <ele>252.8000030517578125</ele>
        <time>2026-08-05T10:12:47.000Z</time>
        <extensions>
          <ns3:TrackPointExtension>
            <ns3:hr>56</ns3:hr>
            <ns3:cad>0</ns3:cad>
          </ns3:TrackPointExtension>
        </extensions>
      </trkpt>
      <trkpt lat="43.47183982841670513153076171875" lon="1.432057209312915802001953125">
        <ele>253</ele>
        <time>2026-08-05T10:12:48.000Z</time>
        <extensions>
          <ns3:TrackPointExtension>
            <ns3:hr>56</ns3:hr>
            <ns3:cad>0</ns3:cad>
          </ns3:TrackPointExtension>
        </extensions>
      </trkpt>
      <trkpt lat="43.47183982841670513153076171875" lon="1.432057209312915802001953125">
        <ele>253</ele>
        <time>2026-08-05T10:12:49.000Z</time>
        <extensions>
          <ns3:TrackPointExtension>
            <ns3:hr>56</ns3:hr>
            <ns3:cad>0</ns3:cad>
          </ns3:TrackPointExtension>
        </extensions>
      </trkpt>
      <trkpt lat="43.47183982841670513153076171875" lon="1.432057209312915802001953125">
        <ele>253.1999969482421875</ele>
        <time>2026-08-05T10:12:50.000Z</time>
        <extensions>
          <ns3:TrackPointExtension>
            <ns3:hr>56</ns3:hr>
            <ns3:cad>0</ns3:cad>
          </ns3:TrackPointExtension>
        </extensions>
      </trkpt>
      <trkpt lat="43.47183982841670513153076171875" lon="1.432057209312915802001953125">
        <ele>253.1999969482421875</ele>
        <time>2026-08-05T10:12:51.000Z</time>
        <extensions>
          <ns3:TrackPointExtension>
            <ns3:hr>56</ns3:hr>
            <ns3:cad>0</ns3:cad>
          </ns3:TrackPointExtension>
        </extensions>
      </trkpt>
      <trkpt lat="43.47183982841670513153076171875" lon="1.432057209312915802001953125">
        <ele>253.1999969482421875</ele>
        <time>2026-08-05T10:12:52.000Z</time>
        <extensions>
          <ns3:TrackPointExtension>
            <ns3:hr>56</ns3:hr>
            <ns3:cad>0</ns3:cad>
          </ns3:TrackPointExtension>
        </extensions>
      </trkpt>
      <trkpt lat="43.4718430973589420318603515625" lon="1.4320587180554866790771484375">
        <ele>253.399993896484375</ele>
        <time>2026-08-05T10:12:53.000Z</time>
        <extensions>
          <ns3:TrackPointExtension>
            <ns3:hr>56</ns3:hr>
            <ns3:cad>0</ns3:cad>
          </ns3:TrackPointExtension>
        </extensions>
      </trkpt>
      <trkpt lat="43.47183982841670513153076171875" lon="1.432057209312915802001953125">
        <ele>253.399993896484375</ele>
        <time>2026-08-05T10:12:54.000Z</time>
        <extensions>
          <ns3:TrackPointExtension>
            <ns3:hr>56</ns3:hr>
            <ns3:cad>0</ns3:cad>
          </ns3:TrackPointExtension>
        </extensions>
      </trkpt>
      <trkpt lat="43.47183982841670513153076171875" lon="1.432057209312915802001953125">
        <ele>253.1999969482421875</ele>
        <time>2026-08-05T10:12:55.000Z</time>
        <extensions>
          <ns3:TrackPointExtension>
            <ns3:hr>57</ns3:hr>
            <ns3:cad>0</ns3:cad>
          </ns3:TrackPointExtension>
        </extensions>
      </trkpt>
      <trkpt lat="43.47183982841670513153076171875" lon="1.432057209312915802001953125">
        <ele>253.1999969482421875</ele>
        <time>2026-08-05T10:12:56.000Z</time>
        <extensions>
          <ns3:TrackPointExtension>
            <ns3:hr>57</ns3:hr>
            <ns3:cad>0</ns3:cad>
          </ns3:TrackPointExtension>
        </extensions>
      </trkpt>
      <trkpt lat="43.47183982841670513153076171875" lon="1.432057209312915802001953125">
        <ele>253.1999969482421875</ele>
        <time>2026-08-05T10:12:57.000Z</time>
        <extensions>
          <ns3:TrackPointExtension>
            <ns3:hr>57</ns3:hr>
            <ns3:cad>0</ns3:cad>
          </ns3:TrackPointExtension>
        </extensions>
      </trkpt>
      <trkpt lat="43.47183982841670513153076171875" lon="1.432057209312915802001953125">
        <ele>253.1999969482421875</ele>
        <time>2026-08-05T10:12:58.000Z</time>
        <extensions>
          <ns3:TrackPointExtension>
            <ns3:hr>59</ns3:hr>
            <ns3:cad>0</ns3:cad>
          </ns3:TrackPointExtension>
        </extensions>
      </trkpt>
      <trkpt lat="43.47183982841670513153076171875" lon="1.432057209312915802001953125">
        <ele>253.1999969482421875</ele>
        <time>2026-08-05T10:12:59.000Z</time>
        <extensions>
          <ns3:TrackPointExtension>
            <ns3:hr>60</ns3:hr>
            <ns3:cad>0</ns3:cad>
          </ns3:TrackPointExtension>
        </extensions>
      </trkpt>
      <trkpt lat="43.47183982841670513153076171875" lon="1.432057209312915802001953125">
        <ele>253.1999969482421875</ele>
        <time>2026-08-05T10:13:00.000Z</time>
        <extensions>
          <ns3:TrackPointExtension>
            <ns3:hr>61</ns3:hr>
            <ns3:cad>0</ns3:cad>
          </ns3:TrackPointExtension>
        </extensions>
      </trkpt>
      <trkpt lat="43.47183982841670513153076171875" lon="1.432057209312915802001953125">
        <ele>253.1999969482421875</ele>
        <time>2026-08-05T10:13:01.000Z</time>
        <extensions>
          <ns3:TrackPointExtension>
            <ns3:hr>62</ns3:hr>
            <ns3:cad>0</ns3:cad>
          </ns3:TrackPointExtension>
        </extensions>
      </trkpt>
      <trkpt lat="43.47183982841670513153076171875" lon="1.432057209312915802001953125">
        <ele>253.1999969482421875</ele>
        <time>2026-08-05T10:13:02.000Z</time>
        <extensions>
          <ns3:TrackPointExtension>
            <ns3:hr>64</ns3:hr>
            <ns3:cad>0</ns3:cad>
          </ns3:TrackPointExtension>
        </extensions>
      </trkpt>
      <trkpt lat="43.47183982841670513153076171875" lon="1.432057209312915802001953125">
        <ele>253.1999969482421875</ele>
        <time>2026-08-05T10:13:03.000Z</time>
        <extensions>
          <ns3:TrackPointExtension>
            <ns3:hr>64</ns3:hr>
            <ns3:cad>0</ns3:cad>
          </ns3:TrackPointExtension>
        </extensions>
      </trkpt>
      <trkpt lat="43.47183982841670513153076171875" lon="1.432057209312915802001953125">
        <ele>253.1999969482421875</ele>
        <time>2026-08-05T10:13:04.000Z</time>
        <extensions>
          <ns3:TrackPointExtension>
            <ns3:hr>63</ns3:hr>
            <ns3:cad>0</ns3:cad>
          </ns3:TrackPointExtension>
        </extensions>
      </trkpt>
      <trkpt lat="43.47183982841670513153076171875" lon="1.432057209312915802001953125">
        <ele>253</ele>
        <time>2026-08-05T10:13:05.000Z</time>
        <extensions>
          <ns3:TrackPointExtension>
            <ns3:hr>62</ns3:hr>
            <ns3:cad>0</ns3:cad>
          </ns3:TrackPointExtension>
        </extensions>
      </trkpt>
      <trkpt lat="43.47183982841670513153076171875" lon="1.432057209312915802001953125">
        <ele>253</ele>
        <time>2026-08-05T10:13:06.000Z</time>
        <extensions>
          <ns3:TrackPointExtension>
            <ns3:hr>62</ns3:hr>
            <ns3:cad>0</ns3:cad>
          </ns3:TrackPointExtension>
        </extensions>
      </trkpt>
      <trkpt lat="43.47183982841670513153076171875" lon="1.432057209312915802001953125">
        <ele>253</ele>
        <time>2026-08-05T10:13:07.000Z</time>
        <extensions>
          <ns3:TrackPointExtension>
            <ns3:hr>62</ns3:hr>
            <ns3:cad>0</ns3:cad>
          </ns3:TrackPointExtension>
        </extensions>
      </trkpt>
      <trkpt lat="43.47183982841670513153076171875" lon="1.432057209312915802001953125">
        <ele>253.1999969482421875</ele>
        <time>2026-08-05T10:13:08.000Z</time>
        <extensions>
          <ns3:TrackPointExtension>
            <ns3:hr>61</ns3:hr>
            <ns3:cad>0</ns3:cad>
          </ns3:TrackPointExtension>
        </extensions>
      </trkpt>
      <trkpt lat="43.47183982841670513153076171875" lon="1.432057209312915802001953125">
        <ele>253.1999969482421875</ele>
        <time>2026-08-05T10:13:09.000Z</time>
        <extensions>
          <ns3:TrackPointExtension>
            <ns3:hr>61</ns3:hr>
            <ns3:cad>0</ns3:cad>
          </ns3:TrackPointExtension>
        </extensions>
      </trkpt>
      <trkpt lat="43.47183982841670513153076171875" lon="1.432057209312915802001953125">
        <ele>253.1999969482421875</ele>
        <time>2026-08-05T10:13:10.000Z</time>
        <extensions>
          <ns3:TrackPointExtension>
            <ns3:hr>61</ns3:hr>
            <ns3:cad>0</ns3:cad>
          </ns3:TrackPointExtension>
        </extensions>
      </trkpt>
      <trkpt lat="43.47183982841670513153076171875" lon="1.432057209312915802001953125">
        <ele>253.1999969482421875</ele>
        <time>2026-08-05T10:13:11.000Z</time>
        <extensions>
          <ns3:TrackPointExtension>
            <ns3:hr>61</ns3:hr>
            <ns3:cad>0</ns3:cad>
          </ns3:TrackPointExtension>
        </extensions>
      </trkpt>
      <trkpt lat="43.47183982841670513153076171875" lon="1.432057209312915802001953125">
        <ele>253.1999969482421875</ele>
        <time>2026-08-05T10:13:12.000Z</time>
        <extensions>
          <ns3:TrackPointExtension>
            <ns3:hr>61</ns3:hr>
            <ns3:cad>0</ns3:cad>
          </ns3:TrackPointExtension>
        </extensions>
      </trkpt>
      <trkpt lat="43.47183982841670513153076171875" lon="1.432057209312915802001953125">
        <ele>253.1999969482421875</ele>
        <time>2026-08-05T10:13:13.000Z</time>
        <extensions>
          <ns3:TrackPointExtension>
            <ns3:hr>61</ns3:hr>
            <ns3:cad>0</ns3:cad>
          </ns3:TrackPointExtension>
        </extensions>
      </trkpt>
      <trkpt lat="43.47183982841670513153076171875" lon="1.432057209312915802001953125">
        <ele>253.1999969482421875</ele>
        <time>2026-08-05T10:13:14.000Z</time>
        <extensions>
          <ns3:TrackPointExtension>
            <ns3:hr>61</ns3:hr>
            <ns3:cad>0</ns3:cad>
          </ns3:TrackPointExtension>
        </extensions>
      </trkpt>
      <trkpt lat="43.47183982841670513153076171875" lon="1.432057209312915802001953125">
        <ele>253.1999969482421875</ele>
        <time>2026-08-05T10:13:15.000Z</time>
        <extensions>
          <ns3:TrackPointExtension>
            <ns3:hr>62</ns3:hr>
            <ns3:cad>0</ns3:cad>
          </ns3:TrackPointExtension>
        </extensions>
      </trkpt>
      <trkpt lat="43.47183982841670513153076171875" lon="1.432057209312915802001953125">
        <ele>253.399993896484375</ele>
        <time>2026-08-05T10:13:16.000Z</time>
        <extensions>
          <ns3:TrackPointExtension>
            <ns3:hr>62</ns3:hr>
            <ns3:cad>0</ns3:cad>
          </ns3:TrackPointExtension>
        </extensions>
      </trkpt>
      <trkpt lat="43.47183982841670513153076171875" lon="1.432057209312915802001953125">
        <ele>253.399993896484375</ele>
        <time>2026-08-05T10:13:17.000Z</time>
        <extensions>
          <ns3:TrackPointExtension>
            <ns3:hr>62</ns3:hr>
            <ns3:cad>0</ns3:cad>
          </ns3:TrackPointExtension>
        </extensions>
      </trkpt>
      <trkpt lat="43.47183982841670513153076171875" lon="1.432057209312915802001953125">
        <ele>253.399993896484375</ele>
        <time>2026-08-05T10:13:18.000Z</time>
        <extensions>
          <ns3:TrackPointExtension>
            <ns3:hr>63</ns3:hr>
            <ns3:cad>0</ns3:cad>
          </ns3:TrackPointExtension>
        </extensions>
      </trkpt>
      <trkpt lat="43.47183982841670513153076171875" lon="1.432057209312915802001953125">
        <ele>253.399993896484375</ele>
        <time>2026-08-05T10:13:19.000Z</time>
        <extensions>
          <ns3:TrackPointExtension>
            <ns3:hr>64</ns3:hr>
            <ns3:cad>0</ns3:cad>
          </ns3:TrackPointExtension>
        </extensions>
      </trkpt>
      <trkpt lat="43.47183982841670513153076171875" lon="1.432057209312915802001953125">
        <ele>253.399993896484375</ele>
        <time>2026-08-05T10:13:20.000Z</time>
        <extensions>
          <ns3:TrackPointExtension>
            <ns3:hr>65</ns3:hr>
            <ns3:cad>0</ns3:cad>
          </ns3:TrackPointExtension>
        </extensions>
      </trkpt>
      <trkpt lat="43.47183982841670513153076171875" lon="1.432057209312915802001953125">
        <ele>253.1999969482421875</ele>
        <time>2026-08-05T10:13:21.000Z</time>
        <extensions>
          <ns3:TrackPointExtension>
            <ns3:hr>65</ns3:hr>
            <ns3:cad>0</ns3:cad>
          </ns3:TrackPointExtension>
        </extensions>
      </trkpt>
      <trkpt lat="43.47183982841670513153076171875" lon="1.432057209312915802001953125">
        <ele>253.1999969482421875</ele>
        <time>2026-08-05T10:13:22.000Z</time>
        <extensions>
          <ns3:TrackPointExtension>
            <ns3:hr>65</ns3:hr>
            <ns3:cad>0</ns3:cad>
          </ns3:TrackPointExtension>
        </extensions>
      </trkpt>
      <trkpt lat="43.47183982841670513153076171875" lon="1.432057209312915802001953125">
        <ele>253.1999969482421875</ele>
        <time>2026-08-05T10:13:23.000Z</time>
        <extensions>
          <ns3:TrackPointExtension>
            <ns3:hr>65</ns3:hr>
            <ns3:cad>0</ns3:cad>
          </ns3:TrackPointExtension>
        </extensions>
      </trkpt>
      <trkpt lat="43.47183982841670513153076171875" lon="1.432057209312915802001953125">
        <ele>253.1999969482421875</ele>
        <time>2026-08-05T10:13:24.000Z</time>
        <extensions>
          <ns3:TrackPointExtension>
            <ns3:hr>66</ns3:hr>
            <ns3:cad>0</ns3:cad>
          </ns3:TrackPointExtension>
        </extensions>
      </trkpt>
      <trkpt lat="43.47183982841670513153076171875" lon="1.432057209312915802001953125">
        <ele>253.399993896484375</ele>
        <time>2026-08-05T10:13:25.000Z</time>
        <extensions>
          <ns3:TrackPointExtension>
            <ns3:hr>66</ns3:hr>
            <ns3:cad>0</ns3:cad>
          </ns3:TrackPointExtension>
        </extensions>
      </trkpt>
      <trkpt lat="43.47183982841670513153076171875" lon="1.432057209312915802001953125">
        <ele>253.399993896484375</ele>
        <time>2026-08-05T10:13:26.000Z</time>
        <extensions>
          <ns3:TrackPointExtension>
            <ns3:hr>65</ns3:hr>
            <ns3:cad>0</ns3:cad>
          </ns3:TrackPointExtension>
        </extensions>
      </trkpt>
      <trkpt lat="43.47183982841670513153076171875" lon="1.432057209312915802001953125">
        <ele>253.399993896484375</ele>
        <time>2026-08-05T10:13:27.000Z</time>
        <extensions>
          <ns3:TrackPointExtension>
            <ns3:hr>65</ns3:hr>
            <ns3:cad>0</ns3:cad>
          </ns3:TrackPointExtension>
        </extensions>
      </trkpt>
      <trkpt lat="43.47183982841670513153076171875" lon="1.432057209312915802001953125">
        <ele>253.600006103515625</ele>
        <time>2026-08-05T10:13:28.000Z</time>
        <extensions>
          <ns3:TrackPointExtension>
            <ns3:hr>65</ns3:hr>
            <ns3:cad>0</ns3:cad>
          </ns3:TrackPointExtension>
        </extensions>
      </trkpt>
      <trkpt lat="43.47183982841670513153076171875" lon="1.432057209312915802001953125">
        <ele>253.600006103515625</ele>
        <time>2026-08-05T10:13:29.000Z</time>
        <extensions>
          <ns3:TrackPointExtension>
            <ns3:hr>65</ns3:hr>
            <ns3:cad>0</ns3:cad>
          </ns3:TrackPointExtension>
        </extensions>
      </trkpt>
      <trkpt lat="43.47183982841670513153076171875" lon="1.432057209312915802001953125">
        <ele>253.600006103515625</ele>
        <time>2026-08-05T10:13:30.000Z</time>
        <extensions>
          <ns3:TrackPointExtension>
            <ns3:hr>66</ns3:hr>
            <ns3:cad>0</ns3:cad>
          </ns3:TrackPointExtension>
        </extensions>
      </trkpt>
      <trkpt lat="43.47183982841670513153076171875" lon="1.432057209312915802001953125">
        <ele>253.600006103515625</ele>
        <time>2026-08-05T10:13:31.000Z</time>
        <extensions>
          <ns3:TrackPointExtension>
            <ns3:hr>66</ns3:hr>
            <ns3:cad>0</ns3:cad>
          </ns3:TrackPointExtension>
        </extensions>
      </trkpt>
      <trkpt lat="43.47184569574892520904541015625" lon="1.432055868208408355712890625">
        <ele>253.600006103515625</ele>
        <time>2026-08-05T10:13:32.000Z</time>
        <extensions>
          <ns3:TrackPointExtension>
            <ns3:hr>66</ns3:hr>
            <ns3:cad>0</ns3:cad>
          </ns3:TrackPointExtension>
        </extensions>
      </trkpt>
      <trkpt lat="43.47183982841670513153076171875" lon="1.432057209312915802001953125">
        <ele>253.600006103515625</ele>
        <time>2026-08-05T10:13:33.000Z</time>
        <extensions>
          <ns3:TrackPointExtension>
            <ns3:hr>66</ns3:hr>
            <ns3:cad>0</ns3:cad>
          </ns3:TrackPointExtension>
        </extensions>
      </trkpt>
      <trkpt lat="43.47183982841670513153076171875" lon="1.432057209312915802001953125">
        <ele>253.8000030517578125</ele>
        <time>2026-08-05T10:13:34.000Z</time>
        <extensions>
          <ns3:TrackPointExtension>
            <ns3:hr>66</ns3:hr>
            <ns3:cad>0</ns3:cad>
          </ns3:TrackPointExtension>
        </extensions>
      </trkpt>
      <trkpt lat="43.47183982841670513153076171875" lon="1.432057209312915802001953125">
        <ele>253.8000030517578125</ele>
        <time>2026-08-05T10:13:35.000Z</time>
        <extensions>
          <ns3:TrackPointExtension>
            <ns3:hr>66</ns3:hr>
            <ns3:cad>0</ns3:cad>
          </ns3:TrackPointExtension>
        </extensions>
      </trkpt>
      <trkpt lat="43.47183982841670513153076171875" lon="1.432057209312915802001953125">
        <ele>253.8000030517578125</ele>
        <time>2026-08-05T10:13:36.000Z</time>
        <extensions>
          <ns3:TrackPointExtension>
            <ns3:hr>66</ns3:hr>
            <ns3:cad>0</ns3:cad>
          </ns3:TrackPointExtension>
        </extensions>
      </trkpt>
      <trkpt lat="43.47183982841670513153076171875" lon="1.432057209312915802001953125">
        <ele>253.8000030517578125</ele>
        <time>2026-08-05T10:13:37.000Z</time>
        <extensions>
          <ns3:TrackPointExtension>
            <ns3:hr>66</ns3:hr>
            <ns3:cad>0</ns3:cad>
          </ns3:TrackPointExtension>
        </extensions>
      </trkpt>
      <trkpt lat="43.47183982841670513153076171875" lon="1.432057209312915802001953125">
        <ele>253.8000030517578125</ele>
        <time>2026-08-05T10:13:38.000Z</time>
        <extensions>
          <ns3:TrackPointExtension>
            <ns3:hr>65</ns3:hr>
            <ns3:cad>0</ns3:cad>
          </ns3:TrackPointExtension>
        </extensions>
      </trkpt>
      <trkpt lat="43.47183982841670513153076171875" lon="1.432057209312915802001953125">
        <ele>253.8000030517578125</ele>
        <time>2026-08-05T10:13:39.000Z</time>
        <extensions>
          <ns3:TrackPointExtension>
            <ns3:hr>65</ns3:hr>
            <ns3:cad>0</ns3:cad>
          </ns3:TrackPointExtension>
        </extensions>
      </trkpt>
      <trkpt lat="43.47183982841670513153076171875" lon="1.432057209312915802001953125">
        <ele>253.8000030517578125</ele>
        <time>2026-08-05T10:13:40.000Z</time>
        <extensions>
          <ns3:TrackPointExtension>
            <ns3:hr>65</ns3:hr>
            <ns3:cad>0</ns3:cad>
          </ns3:TrackPointExtension>
        </extensions>
      </trkpt>
      <trkpt lat="43.47183982841670513153076171875" lon="1.432057209312915802001953125">
        <ele>253.8000030517578125</ele>
        <time>2026-08-05T10:13:41.000Z</time>
        <extensions>
          <ns3:TrackPointExtension>
            <ns3:hr>65</ns3:hr>
            <ns3:cad>0</ns3:cad>
          </ns3:TrackPointExtension>
        </extensions>
      </trkpt>
      <trkpt lat="43.47183982841670513153076171875" lon="1.432057209312915802001953125">
        <ele>253.8000030517578125</ele>
        <time>2026-08-05T10:13:42.000Z</time>
        <extensions>
          <ns3:TrackPointExtension>
            <ns3:hr>65</ns3:hr>
            <ns3:cad>0</ns3:cad>
          </ns3:TrackPointExtension>
        </extensions>
      </trkpt>
      <trkpt lat="43.47183982841670513153076171875" lon="1.432057209312915802001953125">
        <ele>253.8000030517578125</ele>
        <time>2026-08-05T10:13:43.000Z</time>
        <extensions>
          <ns3:TrackPointExtension>
            <ns3:hr>65</ns3:hr>
            <ns3:cad>0</ns3:cad>
          </ns3:TrackPointExtension>
        </extensions>
      </trkpt>
      <trkpt lat="43.47183982841670513153076171875" lon="1.432057209312915802001953125">
        <ele>253.8000030517578125</ele>
        <time>2026-08-05T10:13:44.000Z</time>
        <extensions>
          <ns3:TrackPointExtension>
            <ns3:hr>65</ns3:hr>
            <ns3:cad>0</ns3:cad>
          </ns3:TrackPointExtension>
        </extensions>
      </trkpt>
      <trkpt lat="43.47183982841670513153076171875" lon="1.432057209312915802001953125">
        <ele>253.8000030517578125</ele>
        <time>2026-08-05T10:13:45.000Z</time>
        <extensions>
          <ns3:TrackPointExtension>
            <ns3:hr>64</ns3:hr>
            <ns3:cad>0</ns3:cad>
          </ns3:TrackPointExtension>
        </extensions>
      </trkpt>
      <trkpt lat="43.47183982841670513153076171875" lon="1.432057209312915802001953125">
        <ele>253.8000030517578125</ele>
        <time>2026-08-05T10:13:46.000Z</time>
        <extensions>
          <ns3:TrackPointExtension>
            <ns3:hr>65</ns3:hr>
            <ns3:cad>0</ns3:cad>
          </ns3:TrackPointExtension>
        </extensions>
      </trkpt>
      <trkpt lat="43.47183982841670513153076171875" lon="1.432057209312915802001953125">
        <ele>253.8000030517578125</ele>
        <time>2026-08-05T10:13:47.000Z</time>
        <extensions>
          <ns3:TrackPointExtension>
            <ns3:hr>65</ns3:hr>
            <ns3:cad>0</ns3:cad>
          </ns3:TrackPointExtension>
        </extensions>
      </trkpt>
      <trkpt lat="43.47183982841670513153076171875" lon="1.432057209312915802001953125">
        <ele>253.600006103515625</ele>
        <time>2026-08-05T10:13:48.000Z</time>
        <extensions>
          <ns3:TrackPointExtension>
            <ns3:hr>64</ns3:hr>
            <ns3:cad>0</ns3:cad>
          </ns3:TrackPointExtension>
        </extensions>
      </trkpt>
      <trkpt lat="43.47183982841670513153076171875" lon="1.432057209312915802001953125">
        <ele>253.600006103515625</ele>
        <time>2026-08-05T10:13:49.000Z</time>
        <extensions>
          <ns3:TrackPointExtension>
            <ns3:hr>65</ns3:hr>
            <ns3:cad>0</ns3:cad>
          </ns3:TrackPointExtension>
        </extensions>
      </trkpt>
      <trkpt lat="43.47183982841670513153076171875" lon="1.432057209312915802001953125">
        <ele>253.600006103515625</ele>
        <time>2026-08-05T10:13:50.000Z</time>
        <extensions>
          <ns3:TrackPointExtension>
            <ns3:hr>65</ns3:hr>
            <ns3:cad>0</ns3:cad>
          </ns3:TrackPointExtension>
        </extensions>
      </trkpt>
      <trkpt lat="43.47183982841670513153076171875" lon="1.432057209312915802001953125">
        <ele>253.600006103515625</ele>
        <time>2026-08-05T10:13:51.000Z</time>
        <extensions>
          <ns3:TrackPointExtension>
            <ns3:hr>65</ns3:hr>
            <ns3:cad>0</ns3:cad>
          </ns3:TrackPointExtension>
        </extensions>
      </trkpt>
      <trkpt lat="43.47183982841670513153076171875" lon="1.432057209312915802001953125">
        <ele>253.8000030517578125</ele>
        <time>2026-08-05T10:13:52.000Z</time>
        <extensions>
          <ns3:TrackPointExtension>
            <ns3:hr>66</ns3:hr>
            <ns3:cad>0</ns3:cad>
          </ns3:TrackPointExtension>
        </extensions>
      </trkpt>
      <trkpt lat="43.47183982841670513153076171875" lon="1.432057209312915802001953125">
        <ele>253.8000030517578125</ele>
        <time>2026-08-05T10:13:53.000Z</time>
        <extensions>
          <ns3:TrackPointExtension>
            <ns3:hr>66</ns3:hr>
            <ns3:cad>0</ns3:cad>
          </ns3:TrackPointExtension>
        </extensions>
      </trkpt>
      <trkpt lat="43.47183982841670513153076171875" lon="1.432057209312915802001953125">
        <ele>253.8000030517578125</ele>
        <time>2026-08-05T10:13:54.000Z</time>
        <extensions>
          <ns3:TrackPointExtension>
            <ns3:hr>66</ns3:hr>
            <ns3:cad>0</ns3:cad>
          </ns3:TrackPointExtension>
        </extensions>
      </trkpt>
      <trkpt lat="43.47183982841670513153076171875" lon="1.432057209312915802001953125">
        <ele>253.8000030517578125</ele>
        <time>2026-08-05T10:13:55.000Z</time>
        <extensions>
          <ns3:TrackPointExtension>
            <ns3:hr>64</ns3:hr>
            <ns3:cad>0</ns3:cad>
          </ns3:TrackPointExtension>
        </extensions>
      </trkpt>
      <trkpt lat="43.47183982841670513153076171875" lon="1.432057209312915802001953125">
        <ele>253.8000030517578125</ele>
        <time>2026-08-05T10:13:56.000Z</time>
        <extensions>
          <ns3:TrackPointExtension>
            <ns3:hr>64</ns3:hr>
            <ns3:cad>0</ns3:cad>
          </ns3:TrackPointExtension>
        </extensions>
      </trkpt>
      <trkpt lat="43.47183982841670513153076171875" lon="1.432057209312915802001953125">
        <ele>253.8000030517578125</ele>
        <time>2026-08-05T10:13:57.000Z</time>
        <extensions>
          <ns3:TrackPointExtension>
            <ns3:hr>64</ns3:hr>
            <ns3:cad>0</ns3:cad>
          </ns3:TrackPointExtension>
        </extensions>
      </trkpt>
      <trkpt lat="43.47183982841670513153076171875" lon="1.432057209312915802001953125">
        <ele>253.600006103515625</ele>
        <time>2026-08-05T10:13:58.000Z</time>
        <extensions>
          <ns3:TrackPointExtension>
            <ns3:hr>65</ns3:hr>
            <ns3:cad>0</ns3:cad>
          </ns3:TrackPointExtension>
        </extensions>
      </trkpt>
      <trkpt lat="43.47183982841670513153076171875" lon="1.432057209312915802001953125">
        <ele>253.600006103515625</ele>
        <time>2026-08-05T10:13:59.000Z</time>
        <extensions>
          <ns3:TrackPointExtension>
            <ns3:hr>65</ns3:hr>
            <ns3:cad>0</ns3:cad>
          </ns3:TrackPointExtension>
        </extensions>
      </trkpt>
      <trkpt lat="43.47183982841670513153076171875" lon="1.432057209312915802001953125">
        <ele>253.600006103515625</ele>
        <time>2026-08-05T10:14:00.000Z</time>
        <extensions>
          <ns3:TrackPointExtension>
            <ns3:hr>65</ns3:hr>
            <ns3:cad>0</ns3:cad>
          </ns3:TrackPointExtension>
        </extensions>
      </trkpt>
      <trkpt lat="43.47183982841670513153076171875" lon="1.432057209312915802001953125">
        <ele>253.600006103515625</ele>
        <time>2026-08-05T10:14:01.000Z</time>
        <extensions>
          <ns3:TrackPointExtension>
            <ns3:hr>64</ns3:hr>
            <ns3:cad>0</ns3:cad>
          </ns3:TrackPointExtension>
        </extensions>
      </trkpt>
      <trkpt lat="43.47183982841670513153076171875" lon="1.432057209312915802001953125">
        <ele>253.600006103515625</ele>
        <time>2026-08-05T10:14:02.000Z</time>
        <extensions>
          <ns3:TrackPointExtension>
            <ns3:hr>64</ns3:hr>
            <ns3:cad>0</ns3:cad>
          </ns3:TrackPointExtension>
        </extensions>
      </trkpt>
      <trkpt lat="43.47183982841670513153076171875" lon="1.432057209312915802001953125">
        <ele>253.600006103515625</ele>
        <time>2026-08-05T10:14:03.000Z</time>
        <extensions>
          <ns3:TrackPointExtension>
            <ns3:hr>64</ns3:hr>
            <ns3:cad>0</ns3:cad>
          </ns3:TrackPointExtension>
        </extensions>
      </trkpt>
      <trkpt lat="43.47183982841670513153076171875" lon="1.432057209312915802001953125">
        <ele>253.600006103515625</ele>
        <time>2026-08-05T10:14:04.000Z</time>
        <extensions>
          <ns3:TrackPointExtension>
            <ns3:hr>65</ns3:hr>
            <ns3:cad>0</ns3:cad>
          </ns3:TrackPointExtension>
        </extensions>
      </trkpt>
      <trkpt lat="43.47183982841670513153076171875" lon="1.432057209312915802001953125">
        <ele>253.600006103515625</ele>
        <time>2026-08-05T10:14:05.000Z</time>
        <extensions>
          <ns3:TrackPointExtension>
            <ns3:hr>65</ns3:hr>
            <ns3:cad>0</ns3:cad>
          </ns3:TrackPointExtension>
        </extensions>
      </trkpt>
      <trkpt lat="43.47183982841670513153076171875" lon="1.432057209312915802001953125">
        <ele>253.600006103515625</ele>
        <time>2026-08-05T10:14:06.000Z</time>
        <extensions>
          <ns3:TrackPointExtension>
            <ns3:hr>65</ns3:hr>
            <ns3:cad>0</ns3:cad>
          </ns3:TrackPointExtension>
        </extensions>
      </trkpt>
      <trkpt lat="43.47183982841670513153076171875" lon="1.432057209312915802001953125">
        <ele>253.600006103515625</ele>
        <time>2026-08-05T10:14:07.000Z</time>
        <extensions>
          <ns3:TrackPointExtension>
            <ns3:hr>65</ns3:hr>
            <ns3:cad>0</ns3:cad>
          </ns3:TrackPointExtension>
        </extensions>
      </trkpt>
      <trkpt lat="43.47183982841670513153076171875" lon="1.432057209312915802001953125">
        <ele>253.8000030517578125</ele>
        <time>2026-08-05T10:14:08.000Z</time>
        <extensions>
          <ns3:TrackPointExtension>
            <ns3:hr>66</ns3:hr>
            <ns3:cad>0</ns3:cad>
          </ns3:TrackPointExtension>
        </extensions>
      </trkpt>
      <trkpt lat="43.47183982841670513153076171875" lon="1.432057209312915802001953125">
        <ele>253.8000030517578125</ele>
        <time>2026-08-05T10:14:09.000Z</time>
        <extensions>
          <ns3:TrackPointExtension>
            <ns3:hr>67</ns3:hr>
            <ns3:cad>0</ns3:cad>
          </ns3:TrackPointExtension>
        </extensions>
      </trkpt>
      <trkpt lat="43.47183982841670513153076171875" lon="1.432057209312915802001953125">
        <ele>253.600006103515625</ele>
        <time>2026-08-05T10:14:10.000Z</time>
        <extensions>
          <ns3:TrackPointExtension>
            <ns3:hr>67</ns3:hr>
            <ns3:cad>0</ns3:cad>
          </ns3:TrackPointExtension>
        </extensions>
      </trkpt>
      <trkpt lat="43.47183982841670513153076171875" lon="1.432057209312915802001953125">
        <ele>253.600006103515625</ele>
        <time>2026-08-05T10:14:11.000Z</time>
        <extensions>
          <ns3:TrackPointExtension>
            <ns3:hr>67</ns3:hr>
            <ns3:cad>0</ns3:cad>
          </ns3:TrackPointExtension>
        </extensions>
      </trkpt>
      <trkpt lat="43.47183982841670513153076171875" lon="1.432057209312915802001953125">
        <ele>253.600006103515625</ele>
        <time>2026-08-05T10:14:12.000Z</time>
        <extensions>
          <ns3:TrackPointExtension>
            <ns3:hr>68</ns3:hr>
            <ns3:cad>0</ns3:cad>
          </ns3:TrackPointExtension>
        </extensions>
      </trkpt>
      <trkpt lat="43.47183982841670513153076171875" lon="1.432057209312915802001953125">
        <ele>253.600006103515625</ele>
        <time>2026-08-05T10:14:13.000Z</time>
        <extensions>
          <ns3:TrackPointExtension>
            <ns3:hr>68</ns3:hr>
            <ns3:cad>0</ns3:cad>
          </ns3:TrackPointExtension>
        </extensions>
      </trkpt>
      <trkpt lat="43.47183982841670513153076171875" lon="1.432057209312915802001953125">
        <ele>253.399993896484375</ele>
        <time>2026-08-05T10:14:14.000Z</time>
        <extensions>
          <ns3:TrackPointExtension>
            <ns3:hr>67</ns3:hr>
            <ns3:cad>0</ns3:cad>
          </ns3:TrackPointExtension>
        </extensions>
      </trkpt>
      <trkpt lat="43.47183982841670513153076171875" lon="1.432057209312915802001953125">
        <ele>253.399993896484375</ele>
        <time>2026-08-05T10:14:15.000Z</time>
        <extensions>
          <ns3:TrackPointExtension>
            <ns3:hr>67</ns3:hr>
            <ns3:cad>0</ns3:cad>
          </ns3:TrackPointExtension>
        </extensions>
      </trkpt>
      <trkpt lat="43.47183982841670513153076171875" lon="1.432057209312915802001953125">
        <ele>253.399993896484375</ele>
        <time>2026-08-05T10:14:16.000Z</time>
        <extensions>
          <ns3:TrackPointExtension>
            <ns3:hr>67</ns3:hr>
            <ns3:cad>0</ns3:cad>
          </ns3:TrackPointExtension>
        </extensions>
      </trkpt>
      <trkpt lat="43.47183982841670513153076171875" lon="1.432057209312915802001953125">
        <ele>253.399993896484375</ele>
        <time>2026-08-05T10:14:17.000Z</time>
        <extensions>
          <ns3:TrackPointExtension>
            <ns3:hr>67</ns3:hr>
            <ns3:cad>0</ns3:cad>
          </ns3:TrackPointExtension>
        </extensions>
      </trkpt>
      <trkpt lat="43.47183982841670513153076171875" lon="1.432057209312915802001953125">
        <ele>253.600006103515625</ele>
        <time>2026-08-05T10:14:18.000Z</time>
        <extensions>
          <ns3:TrackPointExtension>
            <ns3:hr>68</ns3:hr>
            <ns3:cad>0</ns3:cad>
          </ns3:TrackPointExtension>
        </extensions>
      </trkpt>
      <trkpt lat="43.47183982841670513153076171875" lon="1.432057209312915802001953125">
        <ele>253.600006103515625</ele>
        <time>2026-08-05T10:14:19.000Z</time>
        <extensions>
          <ns3:TrackPointExtension>
            <ns3:hr>67</ns3:hr>
            <ns3:cad>0</ns3:cad>
          </ns3:TrackPointExtension>
        </extensions>
      </trkpt>
      <trkpt lat="43.47183982841670513153076171875" lon="1.432057209312915802001953125">
        <ele>253.600006103515625</ele>
        <time>2026-08-05T10:14:20.000Z</time>
        <extensions>
          <ns3:TrackPointExtension>
            <ns3:hr>68</ns3:hr>
            <ns3:cad>0</ns3:cad>
          </ns3:TrackPointExtension>
        </extensions>
      </trkpt>
      <trkpt lat="43.47183982841670513153076171875" lon="1.432057209312915802001953125">
        <ele>253.399993896484375</ele>
        <time>2026-08-05T10:14:21.000Z</time>
        <extensions>
          <ns3:TrackPointExtension>
            <ns3:hr>68</ns3:hr>
            <ns3:cad>0</ns3:cad>
          </ns3:TrackPointExtension>
        </extensions>
      </trkpt>
      <trkpt lat="43.47183982841670513153076171875" lon="1.432057209312915802001953125">
        <ele>253.399993896484375</ele>
        <time>2026-08-05T10:14:22.000Z</time>
        <extensions>
          <ns3:TrackPointExtension>
            <ns3:hr>68</ns3:hr>
            <ns3:cad>0</ns3:cad>
          </ns3:TrackPointExtension>
        </extensions>
      </trkpt>
      <trkpt lat="43.47183982841670513153076171875" lon="1.432057209312915802001953125">
        <ele>253.399993896484375</ele>
        <time>2026-08-05T10:14:23.000Z</time>
        <extensions>
          <ns3:TrackPointExtension>
            <ns3:hr>67</ns3:hr>
            <ns3:cad>0</ns3:cad>
          </ns3:TrackPointExtension>
        </extensions>
      </trkpt>
      <trkpt lat="43.47183982841670513153076171875" lon="1.432057209312915802001953125">
        <ele>253.399993896484375</ele>
        <time>2026-08-05T10:14:24.000Z</time>
        <extensions>
          <ns3:TrackPointExtension>
            <ns3:hr>67</ns3:hr>
            <ns3:cad>0</ns3:cad>
          </ns3:TrackPointExtension>
        </extensions>
      </trkpt>
      <trkpt lat="43.47183982841670513153076171875" lon="1.432057209312915802001953125">
        <ele>253.399993896484375</ele>
        <time>2026-08-05T10:14:25.000Z</time>
        <extensions>
          <ns3:TrackPointExtension>
            <ns3:hr>66</ns3:hr>
            <ns3:cad>0</ns3:cad>
          </ns3:TrackPointExtension>
        </extensions>
      </trkpt>
      <trkpt lat="43.47183982841670513153076171875" lon="1.432057209312915802001953125">
        <ele>253.399993896484375</ele>
        <time>2026-08-05T10:14:26.000Z</time>
        <extensions>
          <ns3:TrackPointExtension>
            <ns3:hr>66</ns3:hr>
            <ns3:cad>0</ns3:cad>
          </ns3:TrackPointExtension>
        </extensions>
      </trkpt>
      <trkpt lat="43.47183982841670513153076171875" lon="1.432057209312915802001953125">
        <ele>253.399993896484375</ele>
        <time>2026-08-05T10:14:27.000Z</time>
        <extensions>
          <ns3:TrackPointExtension>
            <ns3:hr>66</ns3:hr>
            <ns3:cad>0</ns3:cad>
          </ns3:TrackPointExtension>
        </extensions>
      </trkpt>
      <trkpt lat="43.47183982841670513153076171875" lon="1.432057209312915802001953125">
        <ele>253.399993896484375</ele>
        <time>2026-08-05T10:14:28.000Z</time>
        <extensions>
          <ns3:TrackPointExtension>
            <ns3:hr>65</ns3:hr>
            <ns3:cad>0</ns3:cad>
          </ns3:TrackPointExtension>
        </extensions>
      </trkpt>
      <trkpt lat="43.47183982841670513153076171875" lon="1.432057209312915802001953125">
        <ele>253.399993896484375</ele>
        <time>2026-08-05T10:14:29.000Z</time>
        <extensions>
          <ns3:TrackPointExtension>
            <ns3:hr>65</ns3:hr>
            <ns3:cad>0</ns3:cad>
          </ns3:TrackPointExtension>
        </extensions>
      </trkpt>
      <trkpt lat="43.47183982841670513153076171875" lon="1.432057209312915802001953125">
        <ele>253.399993896484375</ele>
        <time>2026-08-05T10:14:30.000Z</time>
        <extensions>
          <ns3:TrackPointExtension>
            <ns3:hr>65</ns3:hr>
            <ns3:cad>0</ns3:cad>
          </ns3:TrackPointExtension>
        </extensions>
      </trkpt>
      <trkpt lat="43.47183982841670513153076171875" lon="1.432057209312915802001953125">
        <ele>253.399993896484375</ele>
        <time>2026-08-05T10:14:31.000Z</time>
        <extensions>
          <ns3:TrackPointExtension>
            <ns3:hr>64</ns3:hr>
            <ns3:cad>0</ns3:cad>
          </ns3:TrackPointExtension>
        </extensions>
      </trkpt>
      <trkpt lat="43.47183982841670513153076171875" lon="1.432057209312915802001953125">
        <ele>253.399993896484375</ele>
        <time>2026-08-05T10:14:32.000Z</time>
        <extensions>
          <ns3:TrackPointExtension>
            <ns3:hr>64</ns3:hr>
            <ns3:cad>0</ns3:cad>
          </ns3:TrackPointExtension>
        </extensions>
      </trkpt>
      <trkpt lat="43.47183982841670513153076171875" lon="1.432057209312915802001953125">
        <ele>253.399993896484375</ele>
        <time>2026-08-05T10:14:33.000Z</time>
        <extensions>
          <ns3:TrackPointExtension>
            <ns3:hr>64</ns3:hr>
            <ns3:cad>0</ns3:cad>
          </ns3:TrackPointExtension>
        </extensions>
      </trkpt>
      <trkpt lat="43.47183982841670513153076171875" lon="1.432057209312915802001953125">
        <ele>253.399993896484375</ele>
        <time>2026-08-05T10:14:34.000Z</time>
        <extensions>
          <ns3:TrackPointExtension>
            <ns3:hr>64</ns3:hr>
            <ns3:cad>0</ns3:cad>
          </ns3:TrackPointExtension>
        </extensions>
      </trkpt>
      <trkpt lat="43.47183982841670513153076171875" lon="1.432057209312915802001953125">
        <ele>253.399993896484375</ele>
        <time>2026-08-05T10:14:35.000Z</time>
        <extensions>
          <ns3:TrackPointExtension>
            <ns3:hr>63</ns3:hr>
            <ns3:cad>0</ns3:cad>
          </ns3:TrackPointExtension>
        </extensions>
      </trkpt>
      <trkpt lat="43.47183982841670513153076171875" lon="1.432057209312915802001953125">
        <ele>253.399993896484375</ele>
        <time>2026-08-05T10:14:36.000Z</time>
        <extensions>
          <ns3:TrackPointExtension>
            <ns3:hr>63</ns3:hr>
            <ns3:cad>0</ns3:cad>
          </ns3:TrackPointExtension>
        </extensions>
      </trkpt>
      <trkpt lat="43.47183982841670513153076171875" lon="1.432057209312915802001953125">
        <ele>253.1999969482421875</ele>
        <time>2026-08-05T10:14:37.000Z</time>
        <extensions>
          <ns3:TrackPointExtension>
            <ns3:hr>64</ns3:hr>
            <ns3:cad>0</ns3:cad>
          </ns3:TrackPointExtension>
        </extensions>
      </trkpt>
      <trkpt lat="43.47183982841670513153076171875" lon="1.432057209312915802001953125">
        <ele>253.1999969482421875</ele>
        <time>2026-08-05T10:14:38.000Z</time>
        <extensions>
          <ns3:TrackPointExtension>
            <ns3:hr>64</ns3:hr>
            <ns3:cad>0</ns3:cad>
          </ns3:TrackPointExtension>
        </extensions>
      </trkpt>
      <trkpt lat="43.47183982841670513153076171875" lon="1.432057209312915802001953125">
        <ele>253.399993896484375</ele>
        <time>2026-08-05T10:14:39.000Z</time>
        <extensions>
          <ns3:TrackPointExtension>
            <ns3:hr>64</ns3:hr>
            <ns3:cad>0</ns3:cad>
          </ns3:TrackPointExtension>
        </extensions>
      </trkpt>
      <trkpt lat="43.47183982841670513153076171875" lon="1.432057209312915802001953125">
        <ele>253.399993896484375</ele>
        <time>2026-08-05T10:14:40.000Z</time>
        <extensions>
          <ns3:TrackPointExtension>
            <ns3:hr>64</ns3:hr>
            <ns3:cad>0</ns3:cad>
          </ns3:TrackPointExtension>
        </extensions>
      </trkpt>
      <trkpt lat="43.47183982841670513153076171875" lon="1.432057209312915802001953125">
        <ele>253.399993896484375</ele>
        <time>2026-08-05T10:14:41.000Z</time>
        <extensions>
          <ns3:TrackPointExtension>
            <ns3:hr>67</ns3:hr>
            <ns3:cad>0</ns3:cad>
          </ns3:TrackPointExtension>
        </extensions>
      </trkpt>
      <trkpt lat="43.47183982841670513153076171875" lon="1.432057209312915802001953125">
        <ele>253.399993896484375</ele>
        <time>2026-08-05T10:14:42.000Z</time>
        <extensions>
          <ns3:TrackPointExtension>
            <ns3:hr>68</ns3:hr>
            <ns3:cad>0</ns3:cad>
          </ns3:TrackPointExtension>
        </extensions>
      </trkpt>
      <trkpt lat="43.47183982841670513153076171875" lon="1.432057209312915802001953125">
        <ele>253.399993896484375</ele>
        <time>2026-08-05T10:14:43.000Z</time>
        <extensions>
          <ns3:TrackPointExtension>
            <ns3:hr>69</ns3:hr>
            <ns3:cad>0</ns3:cad>
          </ns3:TrackPointExtension>
        </extensions>
      </trkpt>
      <trkpt lat="43.47183982841670513153076171875" lon="1.432057209312915802001953125">
        <ele>253.399993896484375</ele>
        <time>2026-08-05T10:14:44.000Z</time>
        <extensions>
          <ns3:TrackPointExtension>
            <ns3:hr>69</ns3:hr>
            <ns3:cad>0</ns3:cad>
          </ns3:TrackPointExtension>
        </extensions>
      </trkpt>
      <trkpt lat="43.47183982841670513153076171875" lon="1.432057209312915802001953125">
        <ele>253.399993896484375</ele>
        <time>2026-08-05T10:14:45.000Z</time>
        <extensions>
          <ns3:TrackPointExtension>
            <ns3:hr>70</ns3:hr>
            <ns3:cad>0</ns3:cad>
          </ns3:TrackPointExtension>
        </extensions>
      </trkpt>
      <trkpt lat="43.47183982841670513153076171875" lon="1.432057209312915802001953125">
        <ele>253.399993896484375</ele>
        <time>2026-08-05T10:14:46.000Z</time>
        <extensions>
          <ns3:TrackPointExtension>
            <ns3:hr>70</ns3:hr>
            <ns3:cad>0</ns3:cad>
          </ns3:TrackPointExtension>
        </extensions>
      </trkpt>
      <trkpt lat="43.47183982841670513153076171875" lon="1.432057209312915802001953125">
        <ele>253.399993896484375</ele>
        <time>2026-08-05T10:14:47.000Z</time>
        <extensions>
          <ns3:TrackPointExtension>
            <ns3:hr>70</ns3:hr>
            <ns3:cad>0</ns3:cad>
          </ns3:TrackPointExtension>
        </extensions>
      </trkpt>
      <trkpt lat="43.47183982841670513153076171875" lon="1.432057209312915802001953125">
        <ele>253.399993896484375</ele>
        <time>2026-08-05T10:14:48.000Z</time>
        <extensions>
          <ns3:TrackPointExtension>
            <ns3:hr>70</ns3:hr>
            <ns3:cad>0</ns3:cad>
          </ns3:TrackPointExtension>
        </extensions>
      </trkpt>
      <trkpt lat="43.47183982841670513153076171875" lon="1.432057209312915802001953125">
        <ele>253.399993896484375</ele>
        <time>2026-08-05T10:14:49.000Z</time>
        <extensions>
          <ns3:TrackPointExtension>
            <ns3:hr>71</ns3:hr>
            <ns3:cad>0</ns3:cad>
          </ns3:TrackPointExtension>
        </extensions>
      </trkpt>
      <trkpt lat="43.47183982841670513153076171875" lon="1.432057209312915802001953125">
        <ele>253.399993896484375</ele>
        <time>2026-08-05T10:14:50.000Z</time>
        <extensions>
          <ns3:TrackPointExtension>
            <ns3:hr>70</ns3:hr>
            <ns3:cad>0</ns3:cad>
          </ns3:TrackPointExtension>
        </extensions>
      </trkpt>
      <trkpt lat="43.47183982841670513153076171875" lon="1.432057209312915802001953125">
        <ele>253.399993896484375</ele>
        <time>2026-08-05T10:14:51.000Z</time>
        <extensions>
          <ns3:TrackPointExtension>
            <ns3:hr>68</ns3:hr>
            <ns3:cad>0</ns3:cad>
          </ns3:TrackPointExtension>
        </extensions>
      </trkpt>
      <trkpt lat="43.47183982841670513153076171875" lon="1.432057209312915802001953125">
        <ele>253.399993896484375</ele>
        <time>2026-08-05T10:14:52.000Z</time>
        <extensions>
          <ns3:TrackPointExtension>
            <ns3:hr>67</ns3:hr>
            <ns3:cad>0</ns3:cad>
          </ns3:TrackPointExtension>
        </extensions>
      </trkpt>
      <trkpt lat="43.47183982841670513153076171875" lon="1.432057209312915802001953125">
        <ele>253.399993896484375</ele>
        <time>2026-08-05T10:14:53.000Z</time>
        <extensions>
          <ns3:TrackPointExtension>
            <ns3:hr>65</ns3:hr>
            <ns3:cad>0</ns3:cad>
          </ns3:TrackPointExtension>
        </extensions>
      </trkpt>
      <trkpt lat="43.47183982841670513153076171875" lon="1.432057209312915802001953125">
        <ele>253.399993896484375</ele>
        <time>2026-08-05T10:14:54.000Z</time>
        <extensions>
          <ns3:TrackPointExtension>
            <ns3:hr>63</ns3:hr>
            <ns3:cad>0</ns3:cad>
          </ns3:TrackPointExtension>
        </extensions>
      </trkpt>
      <trkpt lat="43.47183982841670513153076171875" lon="1.432057209312915802001953125">
        <ele>253.399993896484375</ele>
        <time>2026-08-05T10:14:55.000Z</time>
        <extensions>
          <ns3:TrackPointExtension>
            <ns3:hr>62</ns3:hr>
            <ns3:cad>0</ns3:cad>
          </ns3:TrackPointExtension>
        </extensions>
      </trkpt>
      <trkpt lat="43.47183982841670513153076171875" lon="1.432057209312915802001953125">
        <ele>253.399993896484375</ele>
        <time>2026-08-05T10:14:56.000Z</time>
        <extensions>
          <ns3:TrackPointExtension>
            <ns3:hr>61</ns3:hr>
            <ns3:cad>0</ns3:cad>
          </ns3:TrackPointExtension>
        </extensions>
      </trkpt>
      <trkpt lat="43.47183982841670513153076171875" lon="1.432057209312915802001953125">
        <ele>253.399993896484375</ele>
        <time>2026-08-05T10:14:57.000Z</time>
        <extensions>
          <ns3:TrackPointExtension>
            <ns3:hr>60</ns3:hr>
            <ns3:cad>0</ns3:cad>
          </ns3:TrackPointExtension>
        </extensions>
      </trkpt>
      <trkpt lat="43.47183982841670513153076171875" lon="1.432057209312915802001953125">
        <ele>253.399993896484375</ele>
        <time>2026-08-05T10:14:58.000Z</time>
        <extensions>
          <ns3:TrackPointExtension>
            <ns3:hr>60</ns3:hr>
            <ns3:cad>0</ns3:cad>
          </ns3:TrackPointExtension>
        </extensions>
      </trkpt>
      <trkpt lat="43.47183982841670513153076171875" lon="1.432057209312915802001953125">
        <ele>253.399993896484375</ele>
        <time>2026-08-05T10:14:59.000Z</time>
        <extensions>
          <ns3:TrackPointExtension>
            <ns3:hr>60</ns3:hr>
            <ns3:cad>0</ns3:cad>
          </ns3:TrackPointExtension>
        </extensions>
      </trkpt>
      <trkpt lat="43.47183982841670513153076171875" lon="1.432057209312915802001953125">
        <ele>253.1999969482421875</ele>
        <time>2026-08-05T10:15:00.000Z</time>
        <extensions>
          <ns3:TrackPointExtension>
            <ns3:hr>60</ns3:hr>
            <ns3:cad>0</ns3:cad>
          </ns3:TrackPointExtension>
        </extensions>
      </trkpt>
      <trkpt lat="43.47183982841670513153076171875" lon="1.432057209312915802001953125">
        <ele>253.1999969482421875</ele>
        <time>2026-08-05T10:15:01.000Z</time>
        <extensions>
          <ns3:TrackPointExtension>
            <ns3:hr>61</ns3:hr>
            <ns3:cad>0</ns3:cad>
          </ns3:TrackPointExtension>
        </extensions>
      </trkpt>
      <trkpt lat="43.47183982841670513153076171875" lon="1.432057209312915802001953125">
        <ele>253.1999969482421875</ele>
        <time>2026-08-05T10:15:02.000Z</time>
        <extensions>
          <ns3:TrackPointExtension>
            <ns3:hr>63</ns3:hr>
            <ns3:cad>0</ns3:cad>
          </ns3:TrackPointExtension>
        </extensions>
      </trkpt>
      <trkpt lat="43.47183982841670513153076171875" lon="1.432057209312915802001953125">
        <ele>253.1999969482421875</ele>
        <time>2026-08-05T10:15:03.000Z</time>
        <extensions>
          <ns3:TrackPointExtension>
            <ns3:hr>63</ns3:hr>
            <ns3:cad>0</ns3:cad>
          </ns3:TrackPointExtension>
        </extensions>
      </trkpt>
      <trkpt lat="43.47183982841670513153076171875" lon="1.432057209312915802001953125">
        <ele>253.1999969482421875</ele>
        <time>2026-08-05T10:15:04.000Z</time>
        <extensions>
          <ns3:TrackPointExtension>
            <ns3:hr>65</ns3:hr>
            <ns3:cad>0</ns3:cad>
          </ns3:TrackPointExtension>
        </extensions>
      </trkpt>
      <trkpt lat="43.47183982841670513153076171875" lon="1.432057209312915802001953125">
        <ele>253.1999969482421875</ele>
        <time>2026-08-05T10:15:05.000Z</time>
        <extensions>
          <ns3:TrackPointExtension>
            <ns3:hr>65</ns3:hr>
            <ns3:cad>0</ns3:cad>
          </ns3:TrackPointExtension>
        </extensions>
      </trkpt>
      <trkpt lat="43.47183982841670513153076171875" lon="1.432057209312915802001953125">
        <ele>253.1999969482421875</ele>
        <time>2026-08-05T10:15:06.000Z</time>
        <extensions>
          <ns3:TrackPointExtension>
            <ns3:hr>65</ns3:hr>
            <ns3:cad>0</ns3:cad>
          </ns3:TrackPointExtension>
        </extensions>
      </trkpt>
      <trkpt lat="43.47183982841670513153076171875" lon="1.432057209312915802001953125">
        <ele>253.1999969482421875</ele>
        <time>2026-08-05T10:15:07.000Z</time>
        <extensions>
          <ns3:TrackPointExtension>
            <ns3:hr>64</ns3:hr>
            <ns3:cad>0</ns3:cad>
          </ns3:TrackPointExtension>
        </extensions>
      </trkpt>
      <trkpt lat="43.47183982841670513153076171875" lon="1.432057209312915802001953125">
        <ele>253.1999969482421875</ele>
        <time>2026-08-05T10:15:08.000Z</time>
        <extensions>
          <ns3:TrackPointExtension>
            <ns3:hr>64</ns3:hr>
            <ns3:cad>0</ns3:cad>
          </ns3:TrackPointExtension>
        </extensions>
      </trkpt>
      <trkpt lat="43.47183982841670513153076171875" lon="1.432057209312915802001953125">
        <ele>253.1999969482421875</ele>
        <time>2026-08-05T10:15:09.000Z</time>
        <extensions>
          <ns3:TrackPointExtension>
            <ns3:hr>64</ns3:hr>
            <ns3:cad>0</ns3:cad>
          </ns3:TrackPointExtension>
        </extensions>
      </trkpt>
      <trkpt lat="43.47183982841670513153076171875" lon="1.432057209312915802001953125">
        <ele>253.1999969482421875</ele>
        <time>2026-08-05T10:15:10.000Z</time>
        <extensions>
          <ns3:TrackPointExtension>
            <ns3:hr>64</ns3:hr>
            <ns3:cad>0</ns3:cad>
          </ns3:TrackPointExtension>
        </extensions>
      </trkpt>
      <trkpt lat="43.47183982841670513153076171875" lon="1.432057209312915802001953125">
        <ele>253</ele>
        <time>2026-08-05T10:15:11.000Z</time>
        <extensions>
          <ns3:TrackPointExtension>
            <ns3:hr>65</ns3:hr>
            <ns3:cad>0</ns3:cad>
          </ns3:TrackPointExtension>
        </extensions>
      </trkpt>
      <trkpt lat="43.47183982841670513153076171875" lon="1.432057209312915802001953125">
        <ele>253</ele>
        <time>2026-08-05T10:15:12.000Z</time>
        <extensions>
          <ns3:TrackPointExtension>
            <ns3:hr>65</ns3:hr>
            <ns3:cad>0</ns3:cad>
          </ns3:TrackPointExtension>
        </extensions>
      </trkpt>
      <trkpt lat="43.47183982841670513153076171875" lon="1.432057209312915802001953125">
        <ele>253</ele>
        <time>2026-08-05T10:15:13.000Z</time>
        <extensions>
          <ns3:TrackPointExtension>
            <ns3:hr>65</ns3:hr>
            <ns3:cad>0</ns3:cad>
          </ns3:TrackPointExtension>
        </extensions>
      </trkpt>
      <trkpt lat="43.47183982841670513153076171875" lon="1.432057209312915802001953125">
        <ele>253</ele>
        <time>2026-08-05T10:15:14.000Z</time>
        <extensions>
          <ns3:TrackPointExtension>
            <ns3:hr>66</ns3:hr>
            <ns3:cad>0</ns3:cad>
          </ns3:TrackPointExtension>
        </extensions>
      </trkpt>
      <trkpt lat="43.47183982841670513153076171875" lon="1.432057209312915802001953125">
        <ele>253</ele>
        <time>2026-08-05T10:15:15.000Z</time>
        <extensions>
          <ns3:TrackPointExtension>
            <ns3:hr>66</ns3:hr>
            <ns3:cad>0</ns3:cad>
          </ns3:TrackPointExtension>
        </extensions>
      </trkpt>
      <trkpt lat="43.47183982841670513153076171875" lon="1.432057209312915802001953125">
        <ele>253</ele>
        <time>2026-08-05T10:15:16.000Z</time>
        <extensions>
          <ns3:TrackPointExtension>
            <ns3:hr>65</ns3:hr>
            <ns3:cad>0</ns3:cad>
          </ns3:TrackPointExtension>
        </extensions>
      </trkpt>
      <trkpt lat="43.47183982841670513153076171875" lon="1.432057209312915802001953125">
        <ele>253</ele>
        <time>2026-08-05T10:15:17.000Z</time>
        <extensions>
          <ns3:TrackPointExtension>
            <ns3:hr>65</ns3:hr>
            <ns3:cad>0</ns3:cad>
          </ns3:TrackPointExtension>
        </extensions>
      </trkpt>
      <trkpt lat="43.47183982841670513153076171875" lon="1.432057209312915802001953125">
        <ele>253</ele>
        <time>2026-08-05T10:15:18.000Z</time>
        <extensions>
          <ns3:TrackPointExtension>
            <ns3:hr>65</ns3:hr>
            <ns3:cad>0</ns3:cad>
          </ns3:TrackPointExtension>
        </extensions>
      </trkpt>
      <trkpt lat="43.47183982841670513153076171875" lon="1.432057209312915802001953125">
        <ele>253</ele>
        <time>2026-08-05T10:15:19.000Z</time>
        <extensions>
          <ns3:TrackPointExtension>
            <ns3:hr>64</ns3:hr>
            <ns3:cad>0</ns3:cad>
          </ns3:TrackPointExtension>
        </extensions>
      </trkpt>
      <trkpt lat="43.47183982841670513153076171875" lon="1.432057209312915802001953125">
        <ele>253</ele>
        <time>2026-08-05T10:15:20.000Z</time>
        <extensions>
          <ns3:TrackPointExtension>
            <ns3:hr>64</ns3:hr>
            <ns3:cad>0</ns3:cad>
          </ns3:TrackPointExtension>
        </extensions>
      </trkpt>
      <trkpt lat="43.47183982841670513153076171875" lon="1.432057209312915802001953125">
        <ele>253</ele>
        <time>2026-08-05T10:15:21.000Z</time>
        <extensions>
          <ns3:TrackPointExtension>
            <ns3:hr>64</ns3:hr>
            <ns3:cad>0</ns3:cad>
          </ns3:TrackPointExtension>
        </extensions>
      </trkpt>
      <trkpt lat="43.47183982841670513153076171875" lon="1.432057209312915802001953125">
        <ele>253</ele>
        <time>2026-08-05T10:15:22.000Z</time>
        <extensions>
          <ns3:TrackPointExtension>
            <ns3:hr>65</ns3:hr>
            <ns3:cad>0</ns3:cad>
          </ns3:TrackPointExtension>
        </extensions>
      </trkpt>
      <trkpt lat="43.47183982841670513153076171875" lon="1.432057209312915802001953125">
        <ele>253</ele>
        <time>2026-08-05T10:15:23.000Z</time>
        <extensions>
          <ns3:TrackPointExtension>
            <ns3:hr>64</ns3:hr>
            <ns3:cad>0</ns3:cad>
          </ns3:TrackPointExtension>
        </extensions>
      </trkpt>
      <trkpt lat="43.47183982841670513153076171875" lon="1.432057209312915802001953125">
        <ele>253</ele>
        <time>2026-08-05T10:15:24.000Z</time>
        <extensions>
          <ns3:TrackPointExtension>
            <ns3:hr>64</ns3:hr>
            <ns3:cad>0</ns3:cad>
          </ns3:TrackPointExtension>
        </extensions>
      </trkpt>
      <trkpt lat="43.47183982841670513153076171875" lon="1.432057209312915802001953125">
        <ele>253</ele>
        <time>2026-08-05T10:15:25.000Z</time>
        <extensions>
          <ns3:TrackPointExtension>
            <ns3:hr>65</ns3:hr>
            <ns3:cad>0</ns3:cad>
          </ns3:TrackPointExtension>
        </extensions>
      </trkpt>
      <trkpt lat="43.47183982841670513153076171875" lon="1.432057209312915802001953125">
        <ele>253</ele>
        <time>2026-08-05T10:15:26.000Z</time>
        <extensions>
          <ns3:TrackPointExtension>
            <ns3:hr>65</ns3:hr>
            <ns3:cad>0</ns3:cad>
          </ns3:TrackPointExtension>
        </extensions>
      </trkpt>
      <trkpt lat="43.47183982841670513153076171875" lon="1.432057209312915802001953125">
        <ele>253</ele>
        <time>2026-08-05T10:15:27.000Z</time>
        <extensions>
          <ns3:TrackPointExtension>
            <ns3:hr>66</ns3:hr>
            <ns3:cad>0</ns3:cad>
          </ns3:TrackPointExtension>
        </extensions>
      </trkpt>
      <trkpt lat="43.47183982841670513153076171875" lon="1.432057209312915802001953125">
        <ele>253</ele>
        <time>2026-08-05T10:15:28.000Z</time>
        <extensions>
          <ns3:TrackPointExtension>
            <ns3:hr>66</ns3:hr>
            <ns3:cad>0</ns3:cad>
          </ns3:TrackPointExtension>
        </extensions>
      </trkpt>
      <trkpt lat="43.47183982841670513153076171875" lon="1.432057209312915802001953125">
        <ele>253</ele>
        <time>2026-08-05T10:15:29.000Z</time>
        <extensions>
          <ns3:TrackPointExtension>
            <ns3:hr>66</ns3:hr>
            <ns3:cad>0</ns3:cad>
          </ns3:TrackPointExtension>
        </extensions>
      </trkpt>
      <trkpt lat="43.47183982841670513153076171875" lon="1.432057209312915802001953125">
        <ele>253</ele>
        <time>2026-08-05T10:15:30.000Z</time>
        <extensions>
          <ns3:TrackPointExtension>
            <ns3:hr>65</ns3:hr>
            <ns3:cad>0</ns3:cad>
          </ns3:TrackPointExtension>
        </extensions>
      </trkpt>
      <trkpt lat="43.47183982841670513153076171875" lon="1.432057209312915802001953125">
        <ele>253</ele>
        <time>2026-08-05T10:15:31.000Z</time>
        <extensions>
          <ns3:TrackPointExtension>
            <ns3:hr>64</ns3:hr>
            <ns3:cad>0</ns3:cad>
          </ns3:TrackPointExtension>
        </extensions>
      </trkpt>
      <trkpt lat="43.47183982841670513153076171875" lon="1.432057209312915802001953125">
        <ele>253</ele>
        <time>2026-08-05T10:15:32.000Z</time>
        <extensions>
          <ns3:TrackPointExtension>
            <ns3:hr>62</ns3:hr>
            <ns3:cad>0</ns3:cad>
          </ns3:TrackPointExtension>
        </extensions>
      </trkpt>
      <trkpt lat="43.47183982841670513153076171875" lon="1.432057209312915802001953125">
        <ele>253</ele>
        <time>2026-08-05T10:15:33.000Z</time>
        <extensions>
          <ns3:TrackPointExtension>
            <ns3:hr>60</ns3:hr>
            <ns3:cad>0</ns3:cad>
          </ns3:TrackPointExtension>
        </extensions>
      </trkpt>
      <trkpt lat="43.47183982841670513153076171875" lon="1.432057209312915802001953125">
        <ele>253</ele>
        <time>2026-08-05T10:15:34.000Z</time>
        <extensions>
          <ns3:TrackPointExtension>
            <ns3:hr>59</ns3:hr>
            <ns3:cad>0</ns3:cad>
          </ns3:TrackPointExtension>
        </extensions>
      </trkpt>
      <trkpt lat="43.47183982841670513153076171875" lon="1.432057209312915802001953125">
        <ele>252.8000030517578125</ele>
        <time>2026-08-05T10:15:35.000Z</time>
        <extensions>
          <ns3:TrackPointExtension>
            <ns3:hr>59</ns3:hr>
            <ns3:cad>0</ns3:cad>
          </ns3:TrackPointExtension>
        </extensions>
      </trkpt>
      <trkpt lat="43.47183982841670513153076171875" lon="1.432057209312915802001953125">
        <ele>252.8000030517578125</ele>
        <time>2026-08-05T10:15:36.000Z</time>
        <extensions>
          <ns3:TrackPointExtension>
            <ns3:hr>59</ns3:hr>
            <ns3:cad>0</ns3:cad>
          </ns3:TrackPointExtension>
        </extensions>
      </trkpt>
      <trkpt lat="43.47183982841670513153076171875" lon="1.432057209312915802001953125">
        <ele>252.8000030517578125</ele>
        <time>2026-08-05T10:15:37.000Z</time>
        <extensions>
          <ns3:TrackPointExtension>
            <ns3:hr>59</ns3:hr>
            <ns3:cad>0</ns3:cad>
          </ns3:TrackPointExtension>
        </extensions>
      </trkpt>
      <trkpt lat="43.47183982841670513153076171875" lon="1.432057209312915802001953125">
        <ele>252.600006103515625</ele>
        <time>2026-08-05T10:15:38.000Z</time>
        <extensions>
          <ns3:TrackPointExtension>
            <ns3:hr>59</ns3:hr>
            <ns3:cad>0</ns3:cad>
          </ns3:TrackPointExtension>
        </extensions>
      </trkpt>
      <trkpt lat="43.47183982841670513153076171875" lon="1.432057209312915802001953125">
        <ele>252.600006103515625</ele>
        <time>2026-08-05T10:15:39.000Z</time>
        <extensions>
          <ns3:TrackPointExtension>
            <ns3:hr>59</ns3:hr>
            <ns3:cad>0</ns3:cad>
          </ns3:TrackPointExtension>
        </extensions>
      </trkpt>
      <trkpt lat="43.47183982841670513153076171875" lon="1.432057209312915802001953125">
        <ele>252.600006103515625</ele>
        <time>2026-08-05T10:15:40.000Z</time>
        <extensions>
          <ns3:TrackPointExtension>
            <ns3:hr>59</ns3:hr>
            <ns3:cad>0</ns3:cad>
          </ns3:TrackPointExtension>
        </extensions>
      </trkpt>
      <trkpt lat="43.47183982841670513153076171875" lon="1.432057209312915802001953125">
        <ele>252.600006103515625</ele>
        <time>2026-08-05T10:15:41.000Z</time>
        <extensions>
          <ns3:TrackPointExtension>
            <ns3:hr>58</ns3:hr>
            <ns3:cad>0</ns3:cad>
          </ns3:TrackPointExtension>
        </extensions>
      </trkpt>
      <trkpt lat="43.47183982841670513153076171875" lon="1.432057209312915802001953125">
        <ele>252.600006103515625</ele>
        <time>2026-08-05T10:15:42.000Z</time>
        <extensions>
          <ns3:TrackPointExtension>
            <ns3:hr>58</ns3:hr>
            <ns3:cad>0</ns3:cad>
          </ns3:TrackPointExtension>
        </extensions>
      </trkpt>
      <trkpt lat="43.47183982841670513153076171875" lon="1.432057209312915802001953125">
        <ele>252.600006103515625</ele>
        <time>2026-08-05T10:15:43.000Z</time>
        <extensions>
          <ns3:TrackPointExtension>
            <ns3:hr>58</ns3:hr>
            <ns3:cad>0</ns3:cad>
          </ns3:TrackPointExtension>
        </extensions>
      </trkpt>
      <trkpt lat="43.47183982841670513153076171875" lon="1.432057209312915802001953125">
        <ele>252.600006103515625</ele>
        <time>2026-08-05T10:15:44.000Z</time>
        <extensions>
          <ns3:TrackPointExtension>
            <ns3:hr>58</ns3:hr>
            <ns3:cad>0</ns3:cad>
          </ns3:TrackPointExtension>
        </extensions>
      </trkpt>
      <trkpt lat="43.47183982841670513153076171875" lon="1.432057209312915802001953125">
        <ele>252.600006103515625</ele>
        <time>2026-08-05T10:15:45.000Z</time>
        <extensions>
          <ns3:TrackPointExtension>
            <ns3:hr>59</ns3:hr>
            <ns3:cad>0</ns3:cad>
          </ns3:TrackPointExtension>
        </extensions>
      </trkpt>
      <trkpt lat="43.47183982841670513153076171875" lon="1.432057209312915802001953125">
        <ele>252.600006103515625</ele>
        <time>2026-08-05T10:15:46.000Z</time>
        <extensions>
          <ns3:TrackPointExtension>
            <ns3:hr>59</ns3:hr>
            <ns3:cad>0</ns3:cad>
          </ns3:TrackPointExtension>
        </extensions>
      </trkpt>
      <trkpt lat="43.47183982841670513153076171875" lon="1.432057209312915802001953125">
        <ele>252.600006103515625</ele>
        <time>2026-08-05T10:15:47.000Z</time>
        <extensions>
          <ns3:TrackPointExtension>
            <ns3:hr>60</ns3:hr>
            <ns3:cad>0</ns3:cad>
          </ns3:TrackPointExtension>
        </extensions>
      </trkpt>
      <trkpt lat="43.47183982841670513153076171875" lon="1.432057209312915802001953125">
        <ele>252.600006103515625</ele>
        <time>2026-08-05T10:15:48.000Z</time>
        <extensions>
          <ns3:TrackPointExtension>
            <ns3:hr>61</ns3:hr>
            <ns3:cad>0</ns3:cad>
          </ns3:TrackPointExtension>
        </extensions>
      </trkpt>
      <trkpt lat="43.47183982841670513153076171875" lon="1.432057209312915802001953125">
        <ele>252.600006103515625</ele>
        <time>2026-08-05T10:15:49.000Z</time>
        <extensions>
          <ns3:TrackPointExtension>
            <ns3:hr>63</ns3:hr>
            <ns3:cad>0</ns3:cad>
          </ns3:TrackPointExtension>
        </extensions>
      </trkpt>
      <trkpt lat="43.47183982841670513153076171875" lon="1.432057209312915802001953125">
        <ele>252.8000030517578125</ele>
        <time>2026-08-05T10:15:50.000Z</time>
        <extensions>
          <ns3:TrackPointExtension>
            <ns3:hr>64</ns3:hr>
            <ns3:cad>0</ns3:cad>
          </ns3:TrackPointExtension>
        </extensions>
      </trkpt>
      <trkpt lat="43.47183982841670513153076171875" lon="1.432057209312915802001953125">
        <ele>252.8000030517578125</ele>
        <time>2026-08-05T10:15:51.000Z</time>
        <extensions>
          <ns3:TrackPointExtension>
            <ns3:hr>64</ns3:hr>
            <ns3:cad>0</ns3:cad>
          </ns3:TrackPointExtension>
        </extensions>
      </trkpt>
      <trkpt lat="43.47183982841670513153076171875" lon="1.432057209312915802001953125">
        <ele>252.8000030517578125</ele>
        <time>2026-08-05T10:15:52.000Z</time>
        <extensions>
          <ns3:TrackPointExtension>
            <ns3:hr>64</ns3:hr>
            <ns3:cad>0</ns3:cad>
          </ns3:TrackPointExtension>
        </extensions>
      </trkpt>
      <trkpt lat="43.47183982841670513153076171875" lon="1.432057209312915802001953125">
        <ele>252.8000030517578125</ele>
        <time>2026-08-05T10:15:53.000Z</time>
        <extensions>
          <ns3:TrackPointExtension>
            <ns3:hr>65</ns3:hr>
            <ns3:cad>0</ns3:cad>
          </ns3:TrackPointExtension>
        </extensions>
      </trkpt>
      <trkpt lat="43.47183982841670513153076171875" lon="1.432057209312915802001953125">
        <ele>252.8000030517578125</ele>
        <time>2026-08-05T10:15:54.000Z</time>
        <extensions>
          <ns3:TrackPointExtension>
            <ns3:hr>65</ns3:hr>
            <ns3:cad>0</ns3:cad>
          </ns3:TrackPointExtension>
        </extensions>
      </trkpt>
      <trkpt lat="43.47183982841670513153076171875" lon="1.432057209312915802001953125">
        <ele>252.600006103515625</ele>
        <time>2026-08-05T10:15:55.000Z</time>
        <extensions>
          <ns3:TrackPointExtension>
            <ns3:hr>66</ns3:hr>
            <ns3:cad>0</ns3:cad>
          </ns3:TrackPointExtension>
        </extensions>
      </trkpt>
      <trkpt lat="43.47183982841670513153076171875" lon="1.432057209312915802001953125">
        <ele>252.600006103515625</ele>
        <time>2026-08-05T10:15:56.000Z</time>
        <extensions>
          <ns3:TrackPointExtension>
            <ns3:hr>66</ns3:hr>
            <ns3:cad>0</ns3:cad>
          </ns3:TrackPointExtension>
        </extensions>
      </trkpt>
      <trkpt lat="43.47183982841670513153076171875" lon="1.432057209312915802001953125">
        <ele>252.600006103515625</ele>
        <time>2026-08-05T10:15:57.000Z</time>
        <extensions>
          <ns3:TrackPointExtension>
            <ns3:hr>66</ns3:hr>
            <ns3:cad>0</ns3:cad>
          </ns3:TrackPointExtension>
        </extensions>
      </trkpt>
      <trkpt lat="43.47183982841670513153076171875" lon="1.432057209312915802001953125">
        <ele>252.600006103515625</ele>
        <time>2026-08-05T10:15:58.000Z</time>
        <extensions>
          <ns3:TrackPointExtension>
            <ns3:hr>66</ns3:hr>
            <ns3:cad>0</ns3:cad>
          </ns3:TrackPointExtension>
        </extensions>
      </trkpt>
      <trkpt lat="43.47183982841670513153076171875" lon="1.432057209312915802001953125">
        <ele>252.600006103515625</ele>
        <time>2026-08-05T10:15:59.000Z</time>
        <extensions>
          <ns3:TrackPointExtension>
            <ns3:hr>65</ns3:hr>
            <ns3:cad>0</ns3:cad>
          </ns3:TrackPointExtension>
        </extensions>
      </trkpt>
      <trkpt lat="43.47183982841670513153076171875" lon="1.432057209312915802001953125">
        <ele>252.600006103515625</ele>
        <time>2026-08-05T10:16:00.000Z</time>
        <extensions>
          <ns3:TrackPointExtension>
            <ns3:hr>63</ns3:hr>
            <ns3:cad>0</ns3:cad>
          </ns3:TrackPointExtension>
        </extensions>
      </trkpt>
      <trkpt lat="43.47183982841670513153076171875" lon="1.432057209312915802001953125">
        <ele>252.600006103515625</ele>
        <time>2026-08-05T10:16:01.000Z</time>
        <extensions>
          <ns3:TrackPointExtension>
            <ns3:hr>60</ns3:hr>
            <ns3:cad>0</ns3:cad>
          </ns3:TrackPointExtension>
        </extensions>
      </trkpt>
      <trkpt lat="43.47183982841670513153076171875" lon="1.432057209312915802001953125">
        <ele>252.8000030517578125</ele>
        <time>2026-08-05T10:16:02.000Z</time>
        <extensions>
          <ns3:TrackPointExtension>
            <ns3:hr>59</ns3:hr>
            <ns3:cad>0</ns3:cad>
          </ns3:TrackPointExtension>
        </extensions>
      </trkpt>
      <trkpt lat="43.47183982841670513153076171875" lon="1.432057209312915802001953125">
        <ele>252.8000030517578125</ele>
        <time>2026-08-05T10:16:03.000Z</time>
        <extensions>
          <ns3:TrackPointExtension>
            <ns3:hr>58</ns3:hr>
            <ns3:cad>0</ns3:cad>
          </ns3:TrackPointExtension>
        </extensions>
      </trkpt>
      <trkpt lat="43.47183982841670513153076171875" lon="1.432057209312915802001953125">
        <ele>252.8000030517578125</ele>
        <time>2026-08-05T10:16:04.000Z</time>
        <extensions>
          <ns3:TrackPointExtension>
            <ns3:hr>58</ns3:hr>
            <ns3:cad>0</ns3:cad>
          </ns3:TrackPointExtension>
        </extensions>
      </trkpt>
      <trkpt lat="43.47183982841670513153076171875" lon="1.432057209312915802001953125">
        <ele>252.8000030517578125</ele>
        <time>2026-08-05T10:16:05.000Z</time>
        <extensions>
          <ns3:TrackPointExtension>
            <ns3:hr>58</ns3:hr>
            <ns3:cad>0</ns3:cad>
          </ns3:TrackPointExtension>
        </extensions>
      </trkpt>
      <trkpt lat="43.47183982841670513153076171875" lon="1.432057209312915802001953125">
        <ele>252.8000030517578125</ele>
        <time>2026-08-05T10:16:06.000Z</time>
        <extensions>
          <ns3:TrackPointExtension>
            <ns3:hr>58</ns3:hr>
            <ns3:cad>0</ns3:cad>
          </ns3:TrackPointExtension>
        </extensions>
      </trkpt>
      <trkpt lat="43.47183982841670513153076171875" lon="1.432057209312915802001953125">
        <ele>252.600006103515625</ele>
        <time>2026-08-05T10:16:07.000Z</time>
        <extensions>
          <ns3:TrackPointExtension>
            <ns3:hr>59</ns3:hr>
            <ns3:cad>0</ns3:cad>
          </ns3:TrackPointExtension>
        </extensions>
      </trkpt>
      <trkpt lat="43.47183982841670513153076171875" lon="1.432057209312915802001953125">
        <ele>252.600006103515625</ele>
        <time>2026-08-05T10:16:08.000Z</time>
        <extensions>
          <ns3:TrackPointExtension>
            <ns3:hr>59</ns3:hr>
            <ns3:cad>0</ns3:cad>
          </ns3:TrackPointExtension>
        </extensions>
      </trkpt>
      <trkpt lat="43.47183982841670513153076171875" lon="1.432057209312915802001953125">
        <ele>252.600006103515625</ele>
        <time>2026-08-05T10:16:09.000Z</time>
        <extensions>
          <ns3:TrackPointExtension>
            <ns3:hr>60</ns3:hr>
            <ns3:cad>0</ns3:cad>
          </ns3:TrackPointExtension>
        </extensions>
      </trkpt>
      <trkpt lat="43.47183982841670513153076171875" lon="1.432057209312915802001953125">
        <ele>252.600006103515625</ele>
        <time>2026-08-05T10:16:10.000Z</time>
        <extensions>
          <ns3:TrackPointExtension>
            <ns3:hr>60</ns3:hr>
            <ns3:cad>0</ns3:cad>
          </ns3:TrackPointExtension>
        </extensions>
      </trkpt>
      <trkpt lat="43.47183982841670513153076171875" lon="1.432057209312915802001953125">
        <ele>252.600006103515625</ele>
        <time>2026-08-05T10:16:11.000Z</time>
        <extensions>
          <ns3:TrackPointExtension>
            <ns3:hr>60</ns3:hr>
            <ns3:cad>0</ns3:cad>
          </ns3:TrackPointExtension>
        </extensions>
      </trkpt>
      <trkpt lat="43.47183982841670513153076171875" lon="1.432057209312915802001953125">
        <ele>252.8000030517578125</ele>
        <time>2026-08-05T10:16:12.000Z</time>
        <extensions>
          <ns3:TrackPointExtension>
            <ns3:hr>61</ns3:hr>
            <ns3:cad>0</ns3:cad>
          </ns3:TrackPointExtension>
        </extensions>
      </trkpt>
      <trkpt lat="43.47183982841670513153076171875" lon="1.432057209312915802001953125">
        <ele>252.8000030517578125</ele>
        <time>2026-08-05T10:16:13.000Z</time>
        <extensions>
          <ns3:TrackPointExtension>
            <ns3:hr>62</ns3:hr>
            <ns3:cad>0</ns3:cad>
          </ns3:TrackPointExtension>
        </extensions>
      </trkpt>
      <trkpt lat="43.47183982841670513153076171875" lon="1.432057209312915802001953125">
        <ele>252.8000030517578125</ele>
        <time>2026-08-05T10:16:14.000Z</time>
        <extensions>
          <ns3:TrackPointExtension>
            <ns3:hr>63</ns3:hr>
            <ns3:cad>0</ns3:cad>
          </ns3:TrackPointExtension>
        </extensions>
      </trkpt>
      <trkpt lat="43.47183982841670513153076171875" lon="1.432057209312915802001953125">
        <ele>253</ele>
        <time>2026-08-05T10:16:15.000Z</time>
        <extensions>
          <ns3:TrackPointExtension>
            <ns3:hr>63</ns3:hr>
            <ns3:cad>0</ns3:cad>
          </ns3:TrackPointExtension>
        </extensions>
      </trkpt>
      <trkpt lat="43.47183982841670513153076171875" lon="1.432057209312915802001953125">
        <ele>253</ele>
        <time>2026-08-05T10:16:16.000Z</time>
        <extensions>
          <ns3:TrackPointExtension>
            <ns3:hr>64</ns3:hr>
            <ns3:cad>0</ns3:cad>
          </ns3:TrackPointExtension>
        </extensions>
      </trkpt>
      <trkpt lat="43.47183982841670513153076171875" lon="1.432057209312915802001953125">
        <ele>253</ele>
        <time>2026-08-05T10:16:17.000Z</time>
        <extensions>
          <ns3:TrackPointExtension>
            <ns3:hr>64</ns3:hr>
            <ns3:cad>0</ns3:cad>
          </ns3:TrackPointExtension>
        </extensions>
      </trkpt>
      <trkpt lat="43.47183982841670513153076171875" lon="1.432057209312915802001953125">
        <ele>253</ele>
        <time>2026-08-05T10:16:18.000Z</time>
        <extensions>
          <ns3:TrackPointExtension>
            <ns3:hr>64</ns3:hr>
            <ns3:cad>0</ns3:cad>
          </ns3:TrackPointExtension>
        </extensions>
      </trkpt>
      <trkpt lat="43.47183982841670513153076171875" lon="1.432057209312915802001953125">
        <ele>253</ele>
        <time>2026-08-05T10:16:19.000Z</time>
        <extensions>
          <ns3:TrackPointExtension>
            <ns3:hr>64</ns3:hr>
            <ns3:cad>0</ns3:cad>
          </ns3:TrackPointExtension>
        </extensions>
      </trkpt>
      <trkpt lat="43.47183982841670513153076171875" lon="1.432057209312915802001953125">
        <ele>253.1999969482421875</ele>
        <time>2026-08-05T10:16:20.000Z</time>
        <extensions>
          <ns3:TrackPointExtension>
            <ns3:hr>63</ns3:hr>
            <ns3:cad>0</ns3:cad>
          </ns3:TrackPointExtension>
        </extensions>
      </trkpt>
      <trkpt lat="43.47183982841670513153076171875" lon="1.432057209312915802001953125">
        <ele>253.1999969482421875</ele>
        <time>2026-08-05T10:16:21.000Z</time>
        <extensions>
          <ns3:TrackPointExtension>
            <ns3:hr>63</ns3:hr>
            <ns3:cad>0</ns3:cad>
          </ns3:TrackPointExtension>
        </extensions>
      </trkpt>
      <trkpt lat="43.47183982841670513153076171875" lon="1.432057209312915802001953125">
        <ele>253.1999969482421875</ele>
        <time>2026-08-05T10:16:22.000Z</time>
        <extensions>
          <ns3:TrackPointExtension>
            <ns3:hr>63</ns3:hr>
            <ns3:cad>0</ns3:cad>
          </ns3:TrackPointExtension>
        </extensions>
      </trkpt>
      <trkpt lat="43.47183982841670513153076171875" lon="1.432057209312915802001953125">
        <ele>253</ele>
        <time>2026-08-05T10:16:23.000Z</time>
        <extensions>
          <ns3:TrackPointExtension>
            <ns3:hr>63</ns3:hr>
            <ns3:cad>0</ns3:cad>
          </ns3:TrackPointExtension>
        </extensions>
      </trkpt>
      <trkpt lat="43.47183982841670513153076171875" lon="1.432057209312915802001953125">
        <ele>253</ele>
        <time>2026-08-05T10:16:24.000Z</time>
        <extensions>
          <ns3:TrackPointExtension>
            <ns3:hr>63</ns3:hr>
            <ns3:cad>0</ns3:cad>
          </ns3:TrackPointExtension>
        </extensions>
      </trkpt>
      <trkpt lat="43.47183982841670513153076171875" lon="1.432057209312915802001953125">
        <ele>253</ele>
        <time>2026-08-05T10:16:25.000Z</time>
        <extensions>
          <ns3:TrackPointExtension>
            <ns3:hr>62</ns3:hr>
            <ns3:cad>0</ns3:cad>
          </ns3:TrackPointExtension>
        </extensions>
      </trkpt>
      <trkpt lat="43.47183982841670513153076171875" lon="1.432057209312915802001953125">
        <ele>253</ele>
        <time>2026-08-05T10:16:26.000Z</time>
        <extensions>
          <ns3:TrackPointExtension>
            <ns3:hr>61</ns3:hr>
            <ns3:cad>0</ns3:cad>
          </ns3:TrackPointExtension>
        </extensions>
      </trkpt>
      <trkpt lat="43.47183982841670513153076171875" lon="1.432057209312915802001953125">
        <ele>253</ele>
        <time>2026-08-05T10:16:27.000Z</time>
        <extensions>
          <ns3:TrackPointExtension>
            <ns3:hr>60</ns3:hr>
            <ns3:cad>0</ns3:cad>
          </ns3:TrackPointExtension>
        </extensions>
      </trkpt>
      <trkpt lat="43.47183982841670513153076171875" lon="1.432057209312915802001953125">
        <ele>253</ele>
        <time>2026-08-05T10:16:28.000Z</time>
        <extensions>
          <ns3:TrackPointExtension>
            <ns3:hr>60</ns3:hr>
            <ns3:cad>0</ns3:cad>
          </ns3:TrackPointExtension>
        </extensions>
      </trkpt>
      <trkpt lat="43.47183982841670513153076171875" lon="1.432057209312915802001953125">
        <ele>253</ele>
        <time>2026-08-05T10:16:29.000Z</time>
        <extensions>
          <ns3:TrackPointExtension>
            <ns3:hr>60</ns3:hr>
            <ns3:cad>0</ns3:cad>
          </ns3:TrackPointExtension>
        </extensions>
      </trkpt>
      <trkpt lat="43.47183982841670513153076171875" lon="1.432057209312915802001953125">
        <ele>252.8000030517578125</ele>
        <time>2026-08-05T10:16:30.000Z</time>
        <extensions>
          <ns3:TrackPointExtension>
            <ns3:hr>60</ns3:hr>
            <ns3:cad>0</ns3:cad>
          </ns3:TrackPointExtension>
        </extensions>
      </trkpt>
      <trkpt lat="43.47183982841670513153076171875" lon="1.432057209312915802001953125">
        <ele>253</ele>
        <time>2026-08-05T10:16:31.000Z</time>
        <extensions>
          <ns3:TrackPointExtension>
            <ns3:hr>60</ns3:hr>
            <ns3:cad>0</ns3:cad>
          </ns3:TrackPointExtension>
        </extensions>
      </trkpt>
      <trkpt lat="43.47183982841670513153076171875" lon="1.432057209312915802001953125">
        <ele>252.8000030517578125</ele>
        <time>2026-08-05T10:16:32.000Z</time>
        <extensions>
          <ns3:TrackPointExtension>
            <ns3:hr>60</ns3:hr>
            <ns3:cad>0</ns3:cad>
          </ns3:TrackPointExtension>
        </extensions>
      </trkpt>
      <trkpt lat="43.47183982841670513153076171875" lon="1.432057209312915802001953125">
        <ele>253</ele>
        <time>2026-08-05T10:16:33.000Z</time>
        <extensions>
          <ns3:TrackPointExtension>
            <ns3:hr>60</ns3:hr>
            <ns3:cad>0</ns3:cad>
          </ns3:TrackPointExtension>
        </extensions>
      </trkpt>
      <trkpt lat="43.47183982841670513153076171875" lon="1.432057209312915802001953125">
        <ele>253</ele>
        <time>2026-08-05T10:16:34.000Z</time>
        <extensions>
          <ns3:TrackPointExtension>
            <ns3:hr>60</ns3:hr>
            <ns3:cad>0</ns3:cad>
          </ns3:TrackPointExtension>
        </extensions>
      </trkpt>
      <trkpt lat="43.47183982841670513153076171875" lon="1.432057209312915802001953125">
        <ele>253</ele>
        <time>2026-08-05T10:16:35.000Z</time>
        <extensions>
          <ns3:TrackPointExtension>
            <ns3:hr>61</ns3:hr>
            <ns3:cad>0</ns3:cad>
          </ns3:TrackPointExtension>
        </extensions>
      </trkpt>
      <trkpt lat="43.47183982841670513153076171875" lon="1.432057209312915802001953125">
        <ele>253</ele>
        <time>2026-08-05T10:16:36.000Z</time>
        <extensions>
          <ns3:TrackPointExtension>
            <ns3:hr>61</ns3:hr>
            <ns3:cad>0</ns3:cad>
          </ns3:TrackPointExtension>
        </extensions>
      </trkpt>
      <trkpt lat="43.47183982841670513153076171875" lon="1.432057209312915802001953125">
        <ele>253</ele>
        <time>2026-08-05T10:16:37.000Z</time>
        <extensions>
          <ns3:TrackPointExtension>
            <ns3:hr>62</ns3:hr>
            <ns3:cad>0</ns3:cad>
          </ns3:TrackPointExtension>
        </extensions>
      </trkpt>
      <trkpt lat="43.47183982841670513153076171875" lon="1.432057209312915802001953125">
        <ele>253</ele>
        <time>2026-08-05T10:16:38.000Z</time>
        <extensions>
          <ns3:TrackPointExtension>
            <ns3:hr>63</ns3:hr>
            <ns3:cad>0</ns3:cad>
          </ns3:TrackPointExtension>
        </extensions>
      </trkpt>
      <trkpt lat="43.47183982841670513153076171875" lon="1.432057209312915802001953125">
        <ele>253</ele>
        <time>2026-08-05T10:16:39.000Z</time>
        <extensions>
          <ns3:TrackPointExtension>
            <ns3:hr>64</ns3:hr>
            <ns3:cad>0</ns3:cad>
          </ns3:TrackPointExtension>
        </extensions>
      </trkpt>
      <trkpt lat="43.47183982841670513153076171875" lon="1.432057209312915802001953125">
        <ele>252.8000030517578125</ele>
        <time>2026-08-05T10:16:40.000Z</time>
        <extensions>
          <ns3:TrackPointExtension>
            <ns3:hr>64</ns3:hr>
            <ns3:cad>0</ns3:cad>
          </ns3:TrackPointExtension>
        </extensions>
      </trkpt>
      <trkpt lat="43.47183982841670513153076171875" lon="1.432057209312915802001953125">
        <ele>252.8000030517578125</ele>
        <time>2026-08-05T10:16:41.000Z</time>
        <extensions>
          <ns3:TrackPointExtension>
            <ns3:hr>64</ns3:hr>
            <ns3:cad>0</ns3:cad>
          </ns3:TrackPointExtension>
        </extensions>
      </trkpt>
      <trkpt lat="43.471853323280811309814453125" lon="1.432055532932281494140625">
        <ele>252.8000030517578125</ele>
        <time>2026-08-05T10:16:42.000Z</time>
        <extensions>
          <ns3:TrackPointExtension>
            <ns3:hr>63</ns3:hr>
            <ns3:cad>0</ns3:cad>
          </ns3:TrackPointExtension>
        </extensions>
      </trkpt>
      <trkpt lat="43.47185340709984302520751953125" lon="1.43205544911324977874755859375">
        <ele>252.8000030517578125</ele>
        <time>2026-08-05T10:16:43.000Z</time>
        <extensions>
          <ns3:TrackPointExtension>
            <ns3:hr>62</ns3:hr>
            <ns3:cad>0</ns3:cad>
          </ns3:TrackPointExtension>
        </extensions>
      </trkpt>
      <trkpt lat="43.47185357473790645599365234375" lon="1.43205528147518634796142578125">
        <ele>252.8000030517578125</ele>
        <time>2026-08-05T10:16:44.000Z</time>
        <extensions>
          <ns3:TrackPointExtension>
            <ns3:hr>60</ns3:hr>
            <ns3:cad>0</ns3:cad>
          </ns3:TrackPointExtension>
        </extensions>
      </trkpt>
      <trkpt lat="43.47185340709984302520751953125" lon="1.43205544911324977874755859375">
        <ele>252.8000030517578125</ele>
        <time>2026-08-05T10:16:45.000Z</time>
        <extensions>
          <ns3:TrackPointExtension>
            <ns3:hr>60</ns3:hr>
            <ns3:cad>0</ns3:cad>
          </ns3:TrackPointExtension>
        </extensions>
      </trkpt>
      <trkpt lat="43.47185340709984302520751953125" lon="1.43205544911324977874755859375">
        <ele>252.8000030517578125</ele>
        <time>2026-08-05T10:16:46.000Z</time>
        <extensions>
          <ns3:TrackPointExtension>
            <ns3:hr>59</ns3:hr>
            <ns3:cad>0</ns3:cad>
          </ns3:TrackPointExtension>
        </extensions>
      </trkpt>
      <trkpt lat="43.47185340709984302520751953125" lon="1.43205544911324977874755859375">
        <ele>252.8000030517578125</ele>
        <time>2026-08-05T10:16:47.000Z</time>
        <extensions>
          <ns3:TrackPointExtension>
            <ns3:hr>59</ns3:hr>
            <ns3:cad>0</ns3:cad>
          </ns3:TrackPointExtension>
        </extensions>
      </trkpt>
      <trkpt lat="43.47185340709984302520751953125" lon="1.43205544911324977874755859375">
        <ele>252.8000030517578125</ele>
        <time>2026-08-05T10:16:48.000Z</time>
        <extensions>
          <ns3:TrackPointExtension>
            <ns3:hr>59</ns3:hr>
            <ns3:cad>0</ns3:cad>
          </ns3:TrackPointExtension>
        </extensions>
      </trkpt>
      <trkpt lat="43.47185340709984302520751953125" lon="1.43205544911324977874755859375">
        <ele>252.8000030517578125</ele>
        <time>2026-08-05T10:16:49.000Z</time>
        <extensions>
          <ns3:TrackPointExtension>
            <ns3:hr>59</ns3:hr>
            <ns3:cad>0</ns3:cad>
          </ns3:TrackPointExtension>
        </extensions>
      </trkpt>
      <trkpt lat="43.47185340709984302520751953125" lon="1.43205544911324977874755859375">
        <ele>253</ele>
        <time>2026-08-05T10:16:50.000Z</time>
        <extensions>
          <ns3:TrackPointExtension>
            <ns3:hr>59</ns3:hr>
            <ns3:cad>0</ns3:cad>
          </ns3:TrackPointExtension>
        </extensions>
      </trkpt>
      <trkpt lat="43.47185340709984302520751953125" lon="1.43205544911324977874755859375">
        <ele>253</ele>
        <time>2026-08-05T10:16:51.000Z</time>
        <extensions>
          <ns3:TrackPointExtension>
            <ns3:hr>59</ns3:hr>
            <ns3:cad>0</ns3:cad>
          </ns3:TrackPointExtension>
        </extensions>
      </trkpt>
      <trkpt lat="43.47185340709984302520751953125" lon="1.43205544911324977874755859375">
        <ele>253</ele>
        <time>2026-08-05T10:16:52.000Z</time>
        <extensions>
          <ns3:TrackPointExtension>
            <ns3:hr>61</ns3:hr>
            <ns3:cad>0</ns3:cad>
          </ns3:TrackPointExtension>
        </extensions>
      </trkpt>
      <trkpt lat="43.47185340709984302520751953125" lon="1.43205544911324977874755859375">
        <ele>253</ele>
        <time>2026-08-05T10:16:53.000Z</time>
        <extensions>
          <ns3:TrackPointExtension>
            <ns3:hr>61</ns3:hr>
            <ns3:cad>0</ns3:cad>
          </ns3:TrackPointExtension>
        </extensions>
      </trkpt>
      <trkpt lat="43.47185340709984302520751953125" lon="1.43205544911324977874755859375">
        <ele>253</ele>
        <time>2026-08-05T10:16:54.000Z</time>
        <extensions>
          <ns3:TrackPointExtension>
            <ns3:hr>61</ns3:hr>
            <ns3:cad>0</ns3:cad>
          </ns3:TrackPointExtension>
        </extensions>
      </trkpt>
      <trkpt lat="43.47185340709984302520751953125" lon="1.43205544911324977874755859375">
        <ele>253</ele>
        <time>2026-08-05T10:16:55.000Z</time>
        <extensions>
          <ns3:TrackPointExtension>
            <ns3:hr>61</ns3:hr>
            <ns3:cad>0</ns3:cad>
          </ns3:TrackPointExtension>
        </extensions>
      </trkpt>
      <trkpt lat="43.47185340709984302520751953125" lon="1.43205544911324977874755859375">
        <ele>253</ele>
        <time>2026-08-05T10:16:56.000Z</time>
        <extensions>
          <ns3:TrackPointExtension>
            <ns3:hr>61</ns3:hr>
            <ns3:cad>0</ns3:cad>
          </ns3:TrackPointExtension>
        </extensions>
      </trkpt>
      <trkpt lat="43.47185340709984302520751953125" lon="1.43205544911324977874755859375">
        <ele>253</ele>
        <time>2026-08-05T10:16:57.000Z</time>
        <extensions>
          <ns3:TrackPointExtension>
            <ns3:hr>61</ns3:hr>
            <ns3:cad>0</ns3:cad>
          </ns3:TrackPointExtension>
        </extensions>
      </trkpt>
      <trkpt lat="43.47185340709984302520751953125" lon="1.43205544911324977874755859375">
        <ele>253</ele>
        <time>2026-08-05T10:16:58.000Z</time>
        <extensions>
          <ns3:TrackPointExtension>
            <ns3:hr>62</ns3:hr>
            <ns3:cad>0</ns3:cad>
          </ns3:TrackPointExtension>
        </extensions>
      </trkpt>
      <trkpt lat="43.47185340709984302520751953125" lon="1.43205544911324977874755859375">
        <ele>253</ele>
        <time>2026-08-05T10:16:59.000Z</time>
        <extensions>
          <ns3:TrackPointExtension>
            <ns3:hr>62</ns3:hr>
            <ns3:cad>0</ns3:cad>
          </ns3:TrackPointExtension>
        </extensions>
      </trkpt>
      <trkpt lat="43.47185340709984302520751953125" lon="1.43205544911324977874755859375">
        <ele>253</ele>
        <time>2026-08-05T10:17:00.000Z</time>
        <extensions>
          <ns3:TrackPointExtension>
            <ns3:hr>63</ns3:hr>
            <ns3:cad>0</ns3:cad>
          </ns3:TrackPointExtension>
        </extensions>
      </trkpt>
      <trkpt lat="43.47185340709984302520751953125" lon="1.43205544911324977874755859375">
        <ele>253</ele>
        <time>2026-08-05T10:17:01.000Z</time>
        <extensions>
          <ns3:TrackPointExtension>
            <ns3:hr>63</ns3:hr>
            <ns3:cad>0</ns3:cad>
          </ns3:TrackPointExtension>
        </extensions>
      </trkpt>
      <trkpt lat="43.47185340709984302520751953125" lon="1.43205544911324977874755859375">
        <ele>253</ele>
        <time>2026-08-05T10:17:02.000Z</time>
        <extensions>
          <ns3:TrackPointExtension>
            <ns3:hr>63</ns3:hr>
            <ns3:cad>0</ns3:cad>
          </ns3:TrackPointExtension>
        </extensions>
      </trkpt>
      <trkpt lat="43.47185340709984302520751953125" lon="1.43205544911324977874755859375">
        <ele>253</ele>
        <time>2026-08-05T10:17:03.000Z</time>
        <extensions>
          <ns3:TrackPointExtension>
            <ns3:hr>62</ns3:hr>
            <ns3:cad>0</ns3:cad>
          </ns3:TrackPointExtension>
        </extensions>
      </trkpt>
      <trkpt lat="43.47185340709984302520751953125" lon="1.43205544911324977874755859375">
        <ele>253</ele>
        <time>2026-08-05T10:17:04.000Z</time>
        <extensions>
          <ns3:TrackPointExtension>
            <ns3:hr>63</ns3:hr>
            <ns3:cad>0</ns3:cad>
          </ns3:TrackPointExtension>
        </extensions>
      </trkpt>
      <trkpt lat="43.47185340709984302520751953125" lon="1.43205544911324977874755859375">
        <ele>253</ele>
        <time>2026-08-05T10:17:05.000Z</time>
        <extensions>
          <ns3:TrackPointExtension>
            <ns3:hr>63</ns3:hr>
            <ns3:cad>0</ns3:cad>
          </ns3:TrackPointExtension>
        </extensions>
      </trkpt>
      <trkpt lat="43.47185340709984302520751953125" lon="1.43205544911324977874755859375">
        <ele>253.1999969482421875</ele>
        <time>2026-08-05T10:17:06.000Z</time>
        <extensions>
          <ns3:TrackPointExtension>
            <ns3:hr>64</ns3:hr>
            <ns3:cad>0</ns3:cad>
          </ns3:TrackPointExtension>
        </extensions>
      </trkpt>
      <trkpt lat="43.47185340709984302520751953125" lon="1.43205544911324977874755859375">
        <ele>253.1999969482421875</ele>
        <time>2026-08-05T10:17:07.000Z</time>
        <extensions>
          <ns3:TrackPointExtension>
            <ns3:hr>65</ns3:hr>
            <ns3:cad>0</ns3:cad>
          </ns3:TrackPointExtension>
        </extensions>
      </trkpt>
      <trkpt lat="43.47185340709984302520751953125" lon="1.43205544911324977874755859375">
        <ele>253</ele>
        <time>2026-08-05T10:17:08.000Z</time>
        <extensions>
          <ns3:TrackPointExtension>
            <ns3:hr>65</ns3:hr>
            <ns3:cad>0</ns3:cad>
          </ns3:TrackPointExtension>
        </extensions>
      </trkpt>
      <trkpt lat="43.47185340709984302520751953125" lon="1.43205544911324977874755859375">
        <ele>253</ele>
        <time>2026-08-05T10:17:09.000Z</time>
        <extensions>
          <ns3:TrackPointExtension>
            <ns3:hr>65</ns3:hr>
            <ns3:cad>0</ns3:cad>
          </ns3:TrackPointExtension>
        </extensions>
      </trkpt>
      <trkpt lat="43.47185340709984302520751953125" lon="1.43205544911324977874755859375">
        <ele>253</ele>
        <time>2026-08-05T10:17:10.000Z</time>
        <extensions>
          <ns3:TrackPointExtension>
            <ns3:hr>65</ns3:hr>
            <ns3:cad>0</ns3:cad>
          </ns3:TrackPointExtension>
        </extensions>
      </trkpt>
      <trkpt lat="43.47185340709984302520751953125" lon="1.43205544911324977874755859375">
        <ele>253</ele>
        <time>2026-08-05T10:17:11.000Z</time>
        <extensions>
          <ns3:TrackPointExtension>
            <ns3:hr>65</ns3:hr>
            <ns3:cad>0</ns3:cad>
          </ns3:TrackPointExtension>
        </extensions>
      </trkpt>
      <trkpt lat="43.47185340709984302520751953125" lon="1.43205544911324977874755859375">
        <ele>253</ele>
        <time>2026-08-05T10:17:12.000Z</time>
        <extensions>
          <ns3:TrackPointExtension>
            <ns3:hr>64</ns3:hr>
            <ns3:cad>0</ns3:cad>
          </ns3:TrackPointExtension>
        </extensions>
      </trkpt>
      <trkpt lat="43.47185340709984302520751953125" lon="1.43205544911324977874755859375">
        <ele>253</ele>
        <time>2026-08-05T10:17:13.000Z</time>
        <extensions>
          <ns3:TrackPointExtension>
            <ns3:hr>65</ns3:hr>
            <ns3:cad>0</ns3:cad>
          </ns3:TrackPointExtension>
        </extensions>
      </trkpt>
      <trkpt lat="43.47185340709984302520751953125" lon="1.43205544911324977874755859375">
        <ele>253</ele>
        <time>2026-08-05T10:17:14.000Z</time>
        <extensions>
          <ns3:TrackPointExtension>
            <ns3:hr>65</ns3:hr>
            <ns3:cad>0</ns3:cad>
          </ns3:TrackPointExtension>
        </extensions>
      </trkpt>
      <trkpt lat="43.47185340709984302520751953125" lon="1.43205544911324977874755859375">
        <ele>253</ele>
        <time>2026-08-05T10:17:15.000Z</time>
        <extensions>
          <ns3:TrackPointExtension>
            <ns3:hr>65</ns3:hr>
            <ns3:cad>0</ns3:cad>
          </ns3:TrackPointExtension>
        </extensions>
      </trkpt>
      <trkpt lat="43.47185340709984302520751953125" lon="1.43205544911324977874755859375">
        <ele>253</ele>
        <time>2026-08-05T10:17:16.000Z</time>
        <extensions>
          <ns3:TrackPointExtension>
            <ns3:hr>65</ns3:hr>
            <ns3:cad>0</ns3:cad>
          </ns3:TrackPointExtension>
        </extensions>
      </trkpt>
      <trkpt lat="43.47185340709984302520751953125" lon="1.43205544911324977874755859375">
        <ele>253</ele>
        <time>2026-08-05T10:17:17.000Z</time>
        <extensions>
          <ns3:TrackPointExtension>
            <ns3:hr>65</ns3:hr>
            <ns3:cad>0</ns3:cad>
          </ns3:TrackPointExtension>
        </extensions>
      </trkpt>
      <trkpt lat="43.47185340709984302520751953125" lon="1.43205544911324977874755859375">
        <ele>253</ele>
        <time>2026-08-05T10:17:18.000Z</time>
        <extensions>
          <ns3:TrackPointExtension>
            <ns3:hr>65</ns3:hr>
            <ns3:cad>0</ns3:cad>
          </ns3:TrackPointExtension>
        </extensions>
      </trkpt>
      <trkpt lat="43.47185340709984302520751953125" lon="1.43205544911324977874755859375">
        <ele>252.8000030517578125</ele>
        <time>2026-08-05T10:17:19.000Z</time>
        <extensions>
          <ns3:TrackPointExtension>
            <ns3:hr>65</ns3:hr>
            <ns3:cad>0</ns3:cad>
          </ns3:TrackPointExtension>
        </extensions>
      </trkpt>
      <trkpt lat="43.47185340709984302520751953125" lon="1.43205544911324977874755859375">
        <ele>252.8000030517578125</ele>
        <time>2026-08-05T10:17:20.000Z</time>
        <extensions>
          <ns3:TrackPointExtension>
            <ns3:hr>64</ns3:hr>
            <ns3:cad>0</ns3:cad>
          </ns3:TrackPointExtension>
        </extensions>
      </trkpt>
      <trkpt lat="43.47185340709984302520751953125" lon="1.43205544911324977874755859375">
        <ele>252.8000030517578125</ele>
        <time>2026-08-05T10:17:21.000Z</time>
        <extensions>
          <ns3:TrackPointExtension>
            <ns3:hr>64</ns3:hr>
            <ns3:cad>0</ns3:cad>
          </ns3:TrackPointExtension>
        </extensions>
      </trkpt>
      <trkpt lat="43.47185340709984302520751953125" lon="1.43205544911324977874755859375">
        <ele>252.8000030517578125</ele>
        <time>2026-08-05T10:17:22.000Z</time>
        <extensions>
          <ns3:TrackPointExtension>
            <ns3:hr>64</ns3:hr>
            <ns3:cad>0</ns3:cad>
          </ns3:TrackPointExtension>
        </extensions>
      </trkpt>
      <trkpt lat="43.47185340709984302520751953125" lon="1.43205544911324977874755859375">
        <ele>252.8000030517578125</ele>
        <time>2026-08-05T10:17:23.000Z</time>
        <extensions>
          <ns3:TrackPointExtension>
            <ns3:hr>64</ns3:hr>
            <ns3:cad>0</ns3:cad>
          </ns3:TrackPointExtension>
        </extensions>
      </trkpt>
      <trkpt lat="43.47185340709984302520751953125" lon="1.43205544911324977874755859375">
        <ele>252.8000030517578125</ele>
        <time>2026-08-05T10:17:24.000Z</time>
        <extensions>
          <ns3:TrackPointExtension>
            <ns3:hr>63</ns3:hr>
            <ns3:cad>0</ns3:cad>
          </ns3:TrackPointExtension>
        </extensions>
      </trkpt>
      <trkpt lat="43.47185340709984302520751953125" lon="1.43205544911324977874755859375">
        <ele>252.8000030517578125</ele>
        <time>2026-08-05T10:17:25.000Z</time>
        <extensions>
          <ns3:TrackPointExtension>
            <ns3:hr>64</ns3:hr>
            <ns3:cad>0</ns3:cad>
          </ns3:TrackPointExtension>
        </extensions>
      </trkpt>
      <trkpt lat="43.47185340709984302520751953125" lon="1.43205544911324977874755859375">
        <ele>252.8000030517578125</ele>
        <time>2026-08-05T10:17:26.000Z</time>
        <extensions>
          <ns3:TrackPointExtension>
            <ns3:hr>64</ns3:hr>
            <ns3:cad>0</ns3:cad>
          </ns3:TrackPointExtension>
        </extensions>
      </trkpt>
      <trkpt lat="43.47185340709984302520751953125" lon="1.43205544911324977874755859375">
        <ele>252.8000030517578125</ele>
        <time>2026-08-05T10:17:27.000Z</time>
        <extensions>
          <ns3:TrackPointExtension>
            <ns3:hr>64</ns3:hr>
            <ns3:cad>0</ns3:cad>
          </ns3:TrackPointExtension>
        </extensions>
      </trkpt>
      <trkpt lat="43.47185340709984302520751953125" lon="1.43205544911324977874755859375">
        <ele>253</ele>
        <time>2026-08-05T10:17:28.000Z</time>
        <extensions>
          <ns3:TrackPointExtension>
            <ns3:hr>64</ns3:hr>
            <ns3:cad>0</ns3:cad>
          </ns3:TrackPointExtension>
        </extensions>
      </trkpt>
      <trkpt lat="43.47185340709984302520751953125" lon="1.43205544911324977874755859375">
        <ele>253</ele>
        <time>2026-08-05T10:17:29.000Z</time>
        <extensions>
          <ns3:TrackPointExtension>
            <ns3:hr>65</ns3:hr>
            <ns3:cad>0</ns3:cad>
          </ns3:TrackPointExtension>
        </extensions>
      </trkpt>
      <trkpt lat="43.47185340709984302520751953125" lon="1.43205544911324977874755859375">
        <ele>253</ele>
        <time>2026-08-05T10:17:30.000Z</time>
        <extensions>
          <ns3:TrackPointExtension>
            <ns3:hr>65</ns3:hr>
            <ns3:cad>0</ns3:cad>
          </ns3:TrackPointExtension>
        </extensions>
      </trkpt>
      <trkpt lat="43.47185340709984302520751953125" lon="1.43205544911324977874755859375">
        <ele>253</ele>
        <time>2026-08-05T10:17:31.000Z</time>
        <extensions>
          <ns3:TrackPointExtension>
            <ns3:hr>65</ns3:hr>
            <ns3:cad>0</ns3:cad>
          </ns3:TrackPointExtension>
        </extensions>
      </trkpt>
      <trkpt lat="43.47185340709984302520751953125" lon="1.43205544911324977874755859375">
        <ele>253</ele>
        <time>2026-08-05T10:17:32.000Z</time>
        <extensions>
          <ns3:TrackPointExtension>
            <ns3:hr>65</ns3:hr>
            <ns3:cad>0</ns3:cad>
          </ns3:TrackPointExtension>
        </extensions>
      </trkpt>
      <trkpt lat="43.47185340709984302520751953125" lon="1.43205544911324977874755859375">
        <ele>253</ele>
        <time>2026-08-05T10:17:33.000Z</time>
        <extensions>
          <ns3:TrackPointExtension>
            <ns3:hr>64</ns3:hr>
            <ns3:cad>0</ns3:cad>
          </ns3:TrackPointExtension>
        </extensions>
      </trkpt>
      <trkpt lat="43.47185340709984302520751953125" lon="1.43205544911324977874755859375">
        <ele>252.8000030517578125</ele>
        <time>2026-08-05T10:17:34.000Z</time>
        <extensions>
          <ns3:TrackPointExtension>
            <ns3:hr>65</ns3:hr>
            <ns3:cad>0</ns3:cad>
          </ns3:TrackPointExtension>
        </extensions>
      </trkpt>
      <trkpt lat="43.47185340709984302520751953125" lon="1.43205544911324977874755859375">
        <ele>252.8000030517578125</ele>
        <time>2026-08-05T10:17:35.000Z</time>
        <extensions>
          <ns3:TrackPointExtension>
            <ns3:hr>65</ns3:hr>
            <ns3:cad>0</ns3:cad>
          </ns3:TrackPointExtension>
        </extensions>
      </trkpt>
      <trkpt lat="43.47185340709984302520751953125" lon="1.43205544911324977874755859375">
        <ele>252.8000030517578125</ele>
        <time>2026-08-05T10:17:36.000Z</time>
        <extensions>
          <ns3:TrackPointExtension>
            <ns3:hr>65</ns3:hr>
            <ns3:cad>0</ns3:cad>
          </ns3:TrackPointExtension>
        </extensions>
      </trkpt>
      <trkpt lat="43.47185340709984302520751953125" lon="1.43205544911324977874755859375">
        <ele>252.8000030517578125</ele>
        <time>2026-08-05T10:17:37.000Z</time>
        <extensions>
          <ns3:TrackPointExtension>
            <ns3:hr>65</ns3:hr>
            <ns3:cad>0</ns3:cad>
          </ns3:TrackPointExtension>
        </extensions>
      </trkpt>
      <trkpt lat="43.47185340709984302520751953125" lon="1.43205544911324977874755859375">
        <ele>253</ele>
        <time>2026-08-05T10:17:38.000Z</time>
        <extensions>
          <ns3:TrackPointExtension>
            <ns3:hr>65</ns3:hr>
            <ns3:cad>0</ns3:cad>
          </ns3:TrackPointExtension>
        </extensions>
      </trkpt>
      <trkpt lat="43.47185340709984302520751953125" lon="1.43205544911324977874755859375">
        <ele>253</ele>
        <time>2026-08-05T10:17:39.000Z</time>
        <extensions>
          <ns3:TrackPointExtension>
            <ns3:hr>65</ns3:hr>
            <ns3:cad>0</ns3:cad>
          </ns3:TrackPointExtension>
        </extensions>
      </trkpt>
      <trkpt lat="43.47185340709984302520751953125" lon="1.43205544911324977874755859375">
        <ele>253</ele>
        <time>2026-08-05T10:17:40.000Z</time>
        <extensions>
          <ns3:TrackPointExtension>
            <ns3:hr>65</ns3:hr>
            <ns3:cad>0</ns3:cad>
          </ns3:TrackPointExtension>
        </extensions>
      </trkpt>
      <trkpt lat="43.47185340709984302520751953125" lon="1.43205544911324977874755859375">
        <ele>253</ele>
        <time>2026-08-05T10:17:41.000Z</time>
        <extensions>
          <ns3:TrackPointExtension>
            <ns3:hr>64</ns3:hr>
            <ns3:cad>0</ns3:cad>
          </ns3:TrackPointExtension>
        </extensions>
      </trkpt>
      <trkpt lat="43.47185340709984302520751953125" lon="1.43205544911324977874755859375">
        <ele>253</ele>
        <time>2026-08-05T10:17:42.000Z</time>
        <extensions>
          <ns3:TrackPointExtension>
            <ns3:hr>63</ns3:hr>
            <ns3:cad>0</ns3:cad>
          </ns3:TrackPointExtension>
        </extensions>
      </trkpt>
      <trkpt lat="43.47185340709984302520751953125" lon="1.43205544911324977874755859375">
        <ele>253</ele>
        <time>2026-08-05T10:17:43.000Z</time>
        <extensions>
          <ns3:TrackPointExtension>
            <ns3:hr>63</ns3:hr>
            <ns3:cad>0</ns3:cad>
          </ns3:TrackPointExtension>
        </extensions>
      </trkpt>
      <trkpt lat="43.47185340709984302520751953125" lon="1.43205544911324977874755859375">
        <ele>253</ele>
        <time>2026-08-05T10:17:44.000Z</time>
        <extensions>
          <ns3:TrackPointExtension>
            <ns3:hr>63</ns3:hr>
            <ns3:cad>0</ns3:cad>
          </ns3:TrackPointExtension>
        </extensions>
      </trkpt>
      <trkpt lat="43.47185340709984302520751953125" lon="1.43205544911324977874755859375">
        <ele>253</ele>
        <time>2026-08-05T10:17:45.000Z</time>
        <extensions>
          <ns3:TrackPointExtension>
            <ns3:hr>63</ns3:hr>
            <ns3:cad>0</ns3:cad>
          </ns3:TrackPointExtension>
        </extensions>
      </trkpt>
      <trkpt lat="43.47185340709984302520751953125" lon="1.43205544911324977874755859375">
        <ele>253</ele>
        <time>2026-08-05T10:17:46.000Z</time>
        <extensions>
          <ns3:TrackPointExtension>
            <ns3:hr>63</ns3:hr>
            <ns3:cad>0</ns3:cad>
          </ns3:TrackPointExtension>
        </extensions>
      </trkpt>
      <trkpt lat="43.47185340709984302520751953125" lon="1.43205544911324977874755859375">
        <ele>253</ele>
        <time>2026-08-05T10:17:47.000Z</time>
        <extensions>
          <ns3:TrackPointExtension>
            <ns3:hr>63</ns3:hr>
            <ns3:cad>0</ns3:cad>
          </ns3:TrackPointExtension>
        </extensions>
      </trkpt>
      <trkpt lat="43.47185340709984302520751953125" lon="1.43205544911324977874755859375">
        <ele>253</ele>
        <time>2026-08-05T10:17:48.000Z</time>
        <extensions>
          <ns3:TrackPointExtension>
            <ns3:hr>62</ns3:hr>
            <ns3:cad>0</ns3:cad>
          </ns3:TrackPointExtension>
        </extensions>
      </trkpt>
      <trkpt lat="43.47185340709984302520751953125" lon="1.43205544911324977874755859375">
        <ele>252.8000030517578125</ele>
        <time>2026-08-05T10:17:49.000Z</time>
        <extensions>
          <ns3:TrackPointExtension>
            <ns3:hr>63</ns3:hr>
            <ns3:cad>0</ns3:cad>
          </ns3:TrackPointExtension>
        </extensions>
      </trkpt>
      <trkpt lat="43.47185340709984302520751953125" lon="1.43205544911324977874755859375">
        <ele>252.8000030517578125</ele>
        <time>2026-08-05T10:17:50.000Z</time>
        <extensions>
          <ns3:TrackPointExtension>
            <ns3:hr>63</ns3:hr>
            <ns3:cad>0</ns3:cad>
          </ns3:TrackPointExtension>
        </extensions>
      </trkpt>
      <trkpt lat="43.47185340709984302520751953125" lon="1.43205544911324977874755859375">
        <ele>252.8000030517578125</ele>
        <time>2026-08-05T10:17:51.000Z</time>
        <extensions>
          <ns3:TrackPointExtension>
            <ns3:hr>63</ns3:hr>
            <ns3:cad>0</ns3:cad>
          </ns3:TrackPointExtension>
        </extensions>
      </trkpt>
      <trkpt lat="43.47185340709984302520751953125" lon="1.43205544911324977874755859375">
        <ele>252.8000030517578125</ele>
        <time>2026-08-05T10:17:52.000Z</time>
        <extensions>
          <ns3:TrackPointExtension>
            <ns3:hr>62</ns3:hr>
            <ns3:cad>0</ns3:cad>
          </ns3:TrackPointExtension>
        </extensions>
      </trkpt>
      <trkpt lat="43.47185340709984302520751953125" lon="1.43205544911324977874755859375">
        <ele>253</ele>
        <time>2026-08-05T10:17:53.000Z</time>
        <extensions>
          <ns3:TrackPointExtension>
            <ns3:hr>63</ns3:hr>
            <ns3:cad>0</ns3:cad>
          </ns3:TrackPointExtension>
        </extensions>
      </trkpt>
      <trkpt lat="43.47185340709984302520751953125" lon="1.43205544911324977874755859375">
        <ele>253</ele>
        <time>2026-08-05T10:17:54.000Z</time>
        <extensions>
          <ns3:TrackPointExtension>
            <ns3:hr>62</ns3:hr>
            <ns3:cad>0</ns3:cad>
          </ns3:TrackPointExtension>
        </extensions>
      </trkpt>
      <trkpt lat="43.47185340709984302520751953125" lon="1.43205544911324977874755859375">
        <ele>253</ele>
        <time>2026-08-05T10:17:55.000Z</time>
        <extensions>
          <ns3:TrackPointExtension>
            <ns3:hr>62</ns3:hr>
            <ns3:cad>0</ns3:cad>
          </ns3:TrackPointExtension>
        </extensions>
      </trkpt>
      <trkpt lat="43.47185340709984302520751953125" lon="1.43205544911324977874755859375">
        <ele>253</ele>
        <time>2026-08-05T10:17:56.000Z</time>
        <extensions>
          <ns3:TrackPointExtension>
            <ns3:hr>62</ns3:hr>
            <ns3:cad>0</ns3:cad>
          </ns3:TrackPointExtension>
        </extensions>
      </trkpt>
      <trkpt lat="43.47185340709984302520751953125" lon="1.43205544911324977874755859375">
        <ele>253</ele>
        <time>2026-08-05T10:17:57.000Z</time>
        <extensions>
          <ns3:TrackPointExtension>
            <ns3:hr>63</ns3:hr>
            <ns3:cad>0</ns3:cad>
          </ns3:TrackPointExtension>
        </extensions>
      </trkpt>
      <trkpt lat="43.47185491584241390228271484375" lon="1.432056538760662078857421875">
        <ele>253</ele>
        <time>2026-08-05T10:17:58.000Z</time>
        <extensions>
          <ns3:TrackPointExtension>
            <ns3:hr>63</ns3:hr>
            <ns3:cad>0</ns3:cad>
          </ns3:TrackPointExtension>
        </extensions>
      </trkpt>
      <trkpt lat="43.47185273654758930206298828125" lon="1.4320560358464717864990234375">
        <ele>253</ele>
        <time>2026-08-05T10:17:59.000Z</time>
        <extensions>
          <ns3:TrackPointExtension>
            <ns3:hr>63</ns3:hr>
            <ns3:cad>0</ns3:cad>
          </ns3:TrackPointExtension>
        </extensions>
      </trkpt>
      <trkpt lat="43.47185340709984302520751953125" lon="1.43205544911324977874755859375">
        <ele>253</ele>
        <time>2026-08-05T10:18:00.000Z</time>
        <extensions>
          <ns3:TrackPointExtension>
            <ns3:hr>63</ns3:hr>
            <ns3:cad>0</ns3:cad>
          </ns3:TrackPointExtension>
        </extensions>
      </trkpt>
      <trkpt lat="43.47185340709984302520751953125" lon="1.43205544911324977874755859375">
        <ele>253</ele>
        <time>2026-08-05T10:18:01.000Z</time>
        <extensions>
          <ns3:TrackPointExtension>
            <ns3:hr>63</ns3:hr>
            <ns3:cad>0</ns3:cad>
          </ns3:TrackPointExtension>
        </extensions>
      </trkpt>
      <trkpt lat="43.47185340709984302520751953125" lon="1.43205544911324977874755859375">
        <ele>253</ele>
        <time>2026-08-05T10:18:02.000Z</time>
        <extensions>
          <ns3:TrackPointExtension>
            <ns3:hr>63</ns3:hr>
            <ns3:cad>0</ns3:cad>
          </ns3:TrackPointExtension>
        </extensions>
      </trkpt>
      <trkpt lat="43.47185340709984302520751953125" lon="1.43205544911324977874755859375">
        <ele>253.1999969482421875</ele>
        <time>2026-08-05T10:18:03.000Z</time>
        <extensions>
          <ns3:TrackPointExtension>
            <ns3:hr>62</ns3:hr>
            <ns3:cad>0</ns3:cad>
          </ns3:TrackPointExtension>
        </extensions>
      </trkpt>
      <trkpt lat="43.47185340709984302520751953125" lon="1.43205544911324977874755859375">
        <ele>253.1999969482421875</ele>
        <time>2026-08-05T10:18:04.000Z</time>
        <extensions>
          <ns3:TrackPointExtension>
            <ns3:hr>61</ns3:hr>
            <ns3:cad>0</ns3:cad>
          </ns3:TrackPointExtension>
        </extensions>
      </trkpt>
      <trkpt lat="43.47185340709984302520751953125" lon="1.43205544911324977874755859375">
        <ele>253.1999969482421875</ele>
        <time>2026-08-05T10:18:05.000Z</time>
        <extensions>
          <ns3:TrackPointExtension>
            <ns3:hr>61</ns3:hr>
            <ns3:cad>0</ns3:cad>
          </ns3:TrackPointExtension>
        </extensions>
      </trkpt>
      <trkpt lat="43.471851646900177001953125" lon="1.432058550417423248291015625">
        <ele>253.1999969482421875</ele>
        <time>2026-08-05T10:18:06.000Z</time>
        <extensions>
          <ns3:TrackPointExtension>
            <ns3:hr>60</ns3:hr>
            <ns3:cad>0</ns3:cad>
          </ns3:TrackPointExtension>
        </extensions>
      </trkpt>
      <trkpt lat="43.4718544967472553253173828125" lon="1.4320603944361209869384765625">
        <ele>253.1999969482421875</ele>
        <time>2026-08-05T10:18:07.000Z</time>
        <extensions>
          <ns3:TrackPointExtension>
            <ns3:hr>58</ns3:hr>
            <ns3:cad>0</ns3:cad>
          </ns3:TrackPointExtension>
        </extensions>
      </trkpt>
      <trkpt lat="43.47185692749917507171630859375" lon="1.4320637471973896026611328125">
        <ele>253</ele>
        <time>2026-08-05T10:18:08.000Z</time>
        <extensions>
          <ns3:TrackPointExtension>
            <ns3:hr>58</ns3:hr>
            <ns3:cad>0</ns3:cad>
          </ns3:TrackPointExtension>
        </extensions>
      </trkpt>
      <trkpt lat="43.4718568436801433563232421875" lon="1.43206718377768993377685546875">
        <ele>253</ele>
        <time>2026-08-05T10:18:09.000Z</time>
        <extensions>
          <ns3:TrackPointExtension>
            <ns3:hr>58</ns3:hr>
            <ns3:cad>0</ns3:cad>
          </ns3:TrackPointExtension>
        </extensions>
      </trkpt>
      <trkpt lat="43.47185634076595306396484375" lon="1.43206961452960968017578125">
        <ele>253</ele>
        <time>2026-08-05T10:18:10.000Z</time>
        <extensions>
          <ns3:TrackPointExtension>
            <ns3:hr>58</ns3:hr>
            <ns3:cad>0</ns3:cad>
          </ns3:TrackPointExtension>
        </extensions>
      </trkpt>
      <trkpt lat="43.47185877151787281036376953125" lon="1.43206827342510223388671875">
        <ele>253</ele>
        <time>2026-08-05T10:18:11.000Z</time>
        <extensions>
          <ns3:TrackPointExtension>
            <ns3:hr>58</ns3:hr>
            <ns3:cad>0</ns3:cad>
          </ns3:TrackPointExtension>
        </extensions>
      </trkpt>
      <trkpt lat="43.47185642458498477935791015625" lon="1.4320670999586582183837890625">
        <ele>253</ele>
        <time>2026-08-05T10:18:12.000Z</time>
        <extensions>
          <ns3:TrackPointExtension>
            <ns3:hr>58</ns3:hr>
            <ns3:cad>0</ns3:cad>
          </ns3:TrackPointExtension>
        </extensions>
      </trkpt>
      <trkpt lat="43.47185675986111164093017578125" lon="1.4320637471973896026611328125">
        <ele>253</ele>
        <time>2026-08-05T10:18:13.000Z</time>
        <extensions>
          <ns3:TrackPointExtension>
            <ns3:hr>58</ns3:hr>
            <ns3:cad>0</ns3:cad>
          </ns3:TrackPointExtension>
        </extensions>
      </trkpt>
      <trkpt lat="43.47185659222304821014404296875" lon="1.43206064589321613311767578125">
        <ele>253</ele>
        <time>2026-08-05T10:18:14.000Z</time>
        <extensions>
          <ns3:TrackPointExtension>
            <ns3:hr>58</ns3:hr>
            <ns3:cad>0</ns3:cad>
          </ns3:TrackPointExtension>
        </extensions>
      </trkpt>
      <trkpt lat="43.4718528203666210174560546875" lon="1.4320580475032329559326171875">
        <ele>253</ele>
        <time>2026-08-05T10:18:15.000Z</time>
        <extensions>
          <ns3:TrackPointExtension>
            <ns3:hr>58</ns3:hr>
            <ns3:cad>0</ns3:cad>
          </ns3:TrackPointExtension>
        </extensions>
      </trkpt>
      <trkpt lat="43.47184695303440093994140625" lon="1.43205645494163036346435546875">
        <ele>253</ele>
        <time>2026-08-05T10:18:16.000Z</time>
        <extensions>
          <ns3:TrackPointExtension>
            <ns3:hr>58</ns3:hr>
            <ns3:cad>0</ns3:cad>
          </ns3:TrackPointExtension>
        </extensions>
      </trkpt>
      <trkpt lat="43.4718397445976734161376953125" lon="1.4320533536374568939208984375">
        <ele>253</ele>
        <time>2026-08-05T10:18:17.000Z</time>
        <extensions>
          <ns3:TrackPointExtension>
            <ns3:hr>59</ns3:hr>
            <ns3:cad>0</ns3:cad>
          </ns3:TrackPointExtension>
        </extensions>
      </trkpt>
      <trkpt lat="43.4718333743512630462646484375" lon="1.43205276690423488616943359375">
        <ele>253</ele>
        <time>2026-08-05T10:18:18.000Z</time>
        <extensions>
          <ns3:TrackPointExtension>
            <ns3:hr>58</ns3:hr>
            <ns3:cad>0</ns3:cad>
          </ns3:TrackPointExtension>
        </extensions>
      </trkpt>
      <trkpt lat="43.47182549536228179931640625" lon="1.43205092288553714752197265625">
        <ele>253</ele>
        <time>2026-08-05T10:18:19.000Z</time>
        <extensions>
          <ns3:TrackPointExtension>
            <ns3:hr>58</ns3:hr>
            <ns3:cad>0</ns3:cad>
          </ns3:TrackPointExtension>
        </extensions>
      </trkpt>
      <trkpt lat="43.4718234837055206298828125" lon="1.4320523478090763092041015625">
        <ele>253.1999969482421875</ele>
        <time>2026-08-05T10:18:20.000Z</time>
        <extensions>
          <ns3:TrackPointExtension>
            <ns3:hr>58</ns3:hr>
            <ns3:cad>0</ns3:cad>
          </ns3:TrackPointExtension>
        </extensions>
      </trkpt>
      <trkpt lat="43.4718199633061885833740234375" lon="1.432055532932281494140625">
        <ele>253.1999969482421875</ele>
        <time>2026-08-05T10:18:21.000Z</time>
        <extensions>
          <ns3:TrackPointExtension>
            <ns3:hr>59</ns3:hr>
            <ns3:cad>0</ns3:cad>
          </ns3:TrackPointExtension>
        </extensions>
      </trkpt>
      <trkpt lat="43.471813760697841644287109375" lon="1.4320541918277740478515625">
        <ele>253.1999969482421875</ele>
        <time>2026-08-05T10:18:22.000Z</time>
        <extensions>
          <ns3:TrackPointExtension>
            <ns3:hr>59</ns3:hr>
            <ns3:cad>0</ns3:cad>
          </ns3:TrackPointExtension>
        </extensions>
      </trkpt>
      <trkpt lat="43.4718085639178752899169921875" lon="1.4320493303239345550537109375">
        <ele>253.1999969482421875</ele>
        <time>2026-08-05T10:18:23.000Z</time>
        <extensions>
          <ns3:TrackPointExtension>
            <ns3:hr>59</ns3:hr>
            <ns3:cad>0</ns3:cad>
          </ns3:TrackPointExtension>
        </extensions>
      </trkpt>
      <trkpt lat="43.4718249924480915069580078125" lon="1.432047151029109954833984375">
        <ele>253.1999969482421875</ele>
        <time>2026-08-05T10:18:24.000Z</time>
        <extensions>
          <ns3:TrackPointExtension>
            <ns3:hr>59</ns3:hr>
            <ns3:cad>0</ns3:cad>
          </ns3:TrackPointExtension>
        </extensions>
      </trkpt>
      <trkpt lat="43.471825160086154937744140625" lon="1.43204740248620510101318359375">
        <ele>253.1999969482421875</ele>
        <time>2026-08-05T10:18:25.000Z</time>
        <extensions>
          <ns3:TrackPointExtension>
            <ns3:hr>59</ns3:hr>
            <ns3:cad>0</ns3:cad>
          </ns3:TrackPointExtension>
        </extensions>
      </trkpt>
      <trkpt lat="43.471825160086154937744140625" lon="1.43204740248620510101318359375">
        <ele>253.399993896484375</ele>
        <time>2026-08-05T10:18:26.000Z</time>
        <extensions>
          <ns3:TrackPointExtension>
            <ns3:hr>59</ns3:hr>
            <ns3:cad>0</ns3:cad>
          </ns3:TrackPointExtension>
        </extensions>
      </trkpt>
      <trkpt lat="43.471825160086154937744140625" lon="1.43204740248620510101318359375">
        <ele>253.399993896484375</ele>
        <time>2026-08-05T10:18:27.000Z</time>
        <extensions>
          <ns3:TrackPointExtension>
            <ns3:hr>59</ns3:hr>
            <ns3:cad>0</ns3:cad>
          </ns3:TrackPointExtension>
        </extensions>
      </trkpt>
      <trkpt lat="43.471825160086154937744140625" lon="1.43204740248620510101318359375">
        <ele>253.399993896484375</ele>
        <time>2026-08-05T10:18:28.000Z</time>
        <extensions>
          <ns3:TrackPointExtension>
            <ns3:hr>60</ns3:hr>
            <ns3:cad>0</ns3:cad>
          </ns3:TrackPointExtension>
        </extensions>
      </trkpt>
      <trkpt lat="43.471825160086154937744140625" lon="1.43204740248620510101318359375">
        <ele>253.399993896484375</ele>
        <time>2026-08-05T10:18:29.000Z</time>
        <extensions>
          <ns3:TrackPointExtension>
            <ns3:hr>60</ns3:hr>
            <ns3:cad>0</ns3:cad>
          </ns3:TrackPointExtension>
        </extensions>
      </trkpt>
      <trkpt lat="43.471825160086154937744140625" lon="1.43204740248620510101318359375">
        <ele>253.399993896484375</ele>
        <time>2026-08-05T10:18:30.000Z</time>
        <extensions>
          <ns3:TrackPointExtension>
            <ns3:hr>61</ns3:hr>
            <ns3:cad>0</ns3:cad>
          </ns3:TrackPointExtension>
        </extensions>
      </trkpt>
      <trkpt lat="43.471825160086154937744140625" lon="1.43204740248620510101318359375">
        <ele>253.399993896484375</ele>
        <time>2026-08-05T10:18:31.000Z</time>
        <extensions>
          <ns3:TrackPointExtension>
            <ns3:hr>64</ns3:hr>
            <ns3:cad>0</ns3:cad>
          </ns3:TrackPointExtension>
        </extensions>
      </trkpt>
      <trkpt lat="43.471825160086154937744140625" lon="1.43204740248620510101318359375">
        <ele>253.399993896484375</ele>
        <time>2026-08-05T10:18:32.000Z</time>
        <extensions>
          <ns3:TrackPointExtension>
            <ns3:hr>66</ns3:hr>
            <ns3:cad>0</ns3:cad>
          </ns3:TrackPointExtension>
        </extensions>
      </trkpt>
      <trkpt lat="43.471825160086154937744140625" lon="1.43204740248620510101318359375">
        <ele>253.399993896484375</ele>
        <time>2026-08-05T10:18:33.000Z</time>
        <extensions>
          <ns3:TrackPointExtension>
            <ns3:hr>66</ns3:hr>
            <ns3:cad>0</ns3:cad>
          </ns3:TrackPointExtension>
        </extensions>
      </trkpt>
      <trkpt lat="43.471825160086154937744140625" lon="1.43204740248620510101318359375">
        <ele>253.399993896484375</ele>
        <time>2026-08-05T10:18:34.000Z</time>
        <extensions>
          <ns3:TrackPointExtension>
            <ns3:hr>67</ns3:hr>
            <ns3:cad>0</ns3:cad>
          </ns3:TrackPointExtension>
        </extensions>
      </trkpt>
      <trkpt lat="43.471825160086154937744140625" lon="1.43204740248620510101318359375">
        <ele>253.399993896484375</ele>
        <time>2026-08-05T10:18:35.000Z</time>
        <extensions>
          <ns3:TrackPointExtension>
            <ns3:hr>67</ns3:hr>
            <ns3:cad>0</ns3:cad>
          </ns3:TrackPointExtension>
        </extensions>
      </trkpt>
      <trkpt lat="43.471825160086154937744140625" lon="1.43204740248620510101318359375">
        <ele>253.399993896484375</ele>
        <time>2026-08-05T10:18:36.000Z</time>
        <extensions>
          <ns3:TrackPointExtension>
            <ns3:hr>68</ns3:hr>
            <ns3:cad>0</ns3:cad>
          </ns3:TrackPointExtension>
        </extensions>
      </trkpt>
      <trkpt lat="43.471825160086154937744140625" lon="1.43204740248620510101318359375">
        <ele>253.399993896484375</ele>
        <time>2026-08-05T10:18:37.000Z</time>
        <extensions>
          <ns3:TrackPointExtension>
            <ns3:hr>68</ns3:hr>
            <ns3:cad>0</ns3:cad>
          </ns3:TrackPointExtension>
        </extensions>
      </trkpt>
      <trkpt lat="43.471825160086154937744140625" lon="1.43204740248620510101318359375">
        <ele>253.399993896484375</ele>
        <time>2026-08-05T10:18:38.000Z</time>
        <extensions>
          <ns3:TrackPointExtension>
            <ns3:hr>67</ns3:hr>
            <ns3:cad>0</ns3:cad>
          </ns3:TrackPointExtension>
        </extensions>
      </trkpt>
      <trkpt lat="43.471825160086154937744140625" lon="1.43204740248620510101318359375">
        <ele>253.399993896484375</ele>
        <time>2026-08-05T10:18:39.000Z</time>
        <extensions>
          <ns3:TrackPointExtension>
            <ns3:hr>67</ns3:hr>
            <ns3:cad>0</ns3:cad>
          </ns3:TrackPointExtension>
        </extensions>
      </trkpt>
      <trkpt lat="43.471825160086154937744140625" lon="1.43204740248620510101318359375">
        <ele>253.399993896484375</ele>
        <time>2026-08-05T10:18:40.000Z</time>
        <extensions>
          <ns3:TrackPointExtension>
            <ns3:hr>68</ns3:hr>
            <ns3:cad>0</ns3:cad>
          </ns3:TrackPointExtension>
        </extensions>
      </trkpt>
      <trkpt lat="43.471825160086154937744140625" lon="1.43204740248620510101318359375">
        <ele>253.399993896484375</ele>
        <time>2026-08-05T10:18:41.000Z</time>
        <extensions>
          <ns3:TrackPointExtension>
            <ns3:hr>69</ns3:hr>
            <ns3:cad>0</ns3:cad>
          </ns3:TrackPointExtension>
        </extensions>
      </trkpt>
      <trkpt lat="43.471825160086154937744140625" lon="1.43204740248620510101318359375">
        <ele>253.399993896484375</ele>
        <time>2026-08-05T10:18:42.000Z</time>
        <extensions>
          <ns3:TrackPointExtension>
            <ns3:hr>69</ns3:hr>
            <ns3:cad>0</ns3:cad>
          </ns3:TrackPointExtension>
        </extensions>
      </trkpt>
      <trkpt lat="43.471825160086154937744140625" lon="1.43204740248620510101318359375">
        <ele>253.399993896484375</ele>
        <time>2026-08-05T10:18:43.000Z</time>
        <extensions>
          <ns3:TrackPointExtension>
            <ns3:hr>69</ns3:hr>
            <ns3:cad>0</ns3:cad>
          </ns3:TrackPointExtension>
        </extensions>
      </trkpt>
      <trkpt lat="43.471825160086154937744140625" lon="1.43204740248620510101318359375">
        <ele>253.399993896484375</ele>
        <time>2026-08-05T10:18:44.000Z</time>
        <extensions>
          <ns3:TrackPointExtension>
            <ns3:hr>69</ns3:hr>
            <ns3:cad>0</ns3:cad>
          </ns3:TrackPointExtension>
        </extensions>
      </trkpt>
      <trkpt lat="43.471825160086154937744140625" lon="1.43204740248620510101318359375">
        <ele>253.399993896484375</ele>
        <time>2026-08-05T10:18:45.000Z</time>
        <extensions>
          <ns3:TrackPointExtension>
            <ns3:hr>69</ns3:hr>
            <ns3:cad>0</ns3:cad>
          </ns3:TrackPointExtension>
        </extensions>
      </trkpt>
      <trkpt lat="43.471825160086154937744140625" lon="1.43204740248620510101318359375">
        <ele>253.399993896484375</ele>
        <time>2026-08-05T10:18:46.000Z</time>
        <extensions>
          <ns3:TrackPointExtension>
            <ns3:hr>69</ns3:hr>
            <ns3:cad>0</ns3:cad>
          </ns3:TrackPointExtension>
        </extensions>
      </trkpt>
      <trkpt lat="43.471825160086154937744140625" lon="1.43204740248620510101318359375">
        <ele>253.399993896484375</ele>
        <time>2026-08-05T10:18:47.000Z</time>
        <extensions>
          <ns3:TrackPointExtension>
            <ns3:hr>70</ns3:hr>
            <ns3:cad>0</ns3:cad>
          </ns3:TrackPointExtension>
        </extensions>
      </trkpt>
      <trkpt lat="43.471825160086154937744140625" lon="1.43204740248620510101318359375">
        <ele>253.399993896484375</ele>
        <time>2026-08-05T10:18:48.000Z</time>
        <extensions>
          <ns3:TrackPointExtension>
            <ns3:hr>71</ns3:hr>
            <ns3:cad>0</ns3:cad>
          </ns3:TrackPointExtension>
        </extensions>
      </trkpt>
      <trkpt lat="43.471825160086154937744140625" lon="1.43204740248620510101318359375">
        <ele>253.399993896484375</ele>
        <time>2026-08-05T10:18:49.000Z</time>
        <extensions>
          <ns3:TrackPointExtension>
            <ns3:hr>70</ns3:hr>
            <ns3:cad>0</ns3:cad>
          </ns3:TrackPointExtension>
        </extensions>
      </trkpt>
      <trkpt lat="43.4718303568661212921142578125" lon="1.43204807303845882415771484375">
        <ele>253.1999969482421875</ele>
        <time>2026-08-05T10:18:50.000Z</time>
        <extensions>
          <ns3:TrackPointExtension>
            <ns3:hr>70</ns3:hr>
            <ns3:cad>75</ns3:cad>
          </ns3:TrackPointExtension>
        </extensions>
      </trkpt>
      <trkpt lat="43.47184351645410060882568359375" lon="1.432053185999393463134765625">
        <ele>253.1999969482421875</ele>
        <time>2026-08-05T10:18:51.000Z</time>
        <extensions>
          <ns3:TrackPointExtension>
            <ns3:hr>70</ns3:hr>
            <ns3:cad>75</ns3:cad>
          </ns3:TrackPointExtension>
        </extensions>
      </trkpt>
      <trkpt lat="43.47184519283473491668701171875" lon="1.43205410800874233245849609375">
        <ele>253.1999969482421875</ele>
        <time>2026-08-05T10:18:52.000Z</time>
        <extensions>
          <ns3:TrackPointExtension>
            <ns3:hr>69</ns3:hr>
            <ns3:cad>0</ns3:cad>
          </ns3:TrackPointExtension>
        </extensions>
      </trkpt>
      <trkpt lat="43.47184519283473491668701171875" lon="1.43205410800874233245849609375">
        <ele>253.1999969482421875</ele>
        <time>2026-08-05T10:18:53.000Z</time>
        <extensions>
          <ns3:TrackPointExtension>
            <ns3:hr>71</ns3:hr>
            <ns3:cad>0</ns3:cad>
          </ns3:TrackPointExtension>
        </extensions>
      </trkpt>
      <trkpt lat="43.47184519283473491668701171875" lon="1.43205410800874233245849609375">
        <ele>253.1999969482421875</ele>
        <time>2026-08-05T10:18:54.000Z</time>
        <extensions>
          <ns3:TrackPointExtension>
            <ns3:hr>72</ns3:hr>
            <ns3:cad>0</ns3:cad>
          </ns3:TrackPointExtension>
        </extensions>
      </trkpt>
      <trkpt lat="43.47184519283473491668701171875" lon="1.43205410800874233245849609375">
        <ele>253.1999969482421875</ele>
        <time>2026-08-05T10:18:55.000Z</time>
        <extensions>
          <ns3:TrackPointExtension>
            <ns3:hr>74</ns3:hr>
            <ns3:cad>0</ns3:cad>
          </ns3:TrackPointExtension>
        </extensions>
      </trkpt>
      <trkpt lat="43.47184519283473491668701171875" lon="1.43205410800874233245849609375">
        <ele>253.1999969482421875</ele>
        <time>2026-08-05T10:18:56.000Z</time>
        <extensions>
          <ns3:TrackPointExtension>
            <ns3:hr>75</ns3:hr>
            <ns3:cad>0</ns3:cad>
          </ns3:TrackPointExtension>
        </extensions>
      </trkpt>
      <trkpt lat="43.47184519283473491668701171875" lon="1.43205410800874233245849609375">
        <ele>253.1999969482421875</ele>
        <time>2026-08-05T10:18:57.000Z</time>
        <extensions>
          <ns3:TrackPointExtension>
            <ns3:hr>75</ns3:hr>
            <ns3:cad>0</ns3:cad>
          </ns3:TrackPointExtension>
        </extensions>
      </trkpt>
      <trkpt lat="43.47184519283473491668701171875" lon="1.43205410800874233245849609375">
        <ele>253.1999969482421875</ele>
        <time>2026-08-05T10:18:58.000Z</time>
        <extensions>
          <ns3:TrackPointExtension>
            <ns3:hr>74</ns3:hr>
            <ns3:cad>0</ns3:cad>
          </ns3:TrackPointExtension>
        </extensions>
      </trkpt>
      <trkpt lat="43.47184519283473491668701171875" lon="1.43205410800874233245849609375">
        <ele>253.1999969482421875</ele>
        <time>2026-08-05T10:18:59.000Z</time>
        <extensions>
          <ns3:TrackPointExtension>
            <ns3:hr>73</ns3:hr>
            <ns3:cad>0</ns3:cad>
          </ns3:TrackPointExtension>
        </extensions>
      </trkpt>
      <trkpt lat="43.47184519283473491668701171875" lon="1.43205410800874233245849609375">
        <ele>253.1999969482421875</ele>
        <time>2026-08-05T10:19:00.000Z</time>
        <extensions>
          <ns3:TrackPointExtension>
            <ns3:hr>73</ns3:hr>
            <ns3:cad>0</ns3:cad>
          </ns3:TrackPointExtension>
        </extensions>
      </trkpt>
      <trkpt lat="43.47184519283473491668701171875" lon="1.43205410800874233245849609375">
        <ele>253.1999969482421875</ele>
        <time>2026-08-05T10:19:01.000Z</time>
        <extensions>
          <ns3:TrackPointExtension>
            <ns3:hr>73</ns3:hr>
            <ns3:cad>0</ns3:cad>
          </ns3:TrackPointExtension>
        </extensions>
      </trkpt>
      <trkpt lat="43.47184519283473491668701171875" lon="1.43205410800874233245849609375">
        <ele>253.1999969482421875</ele>
        <time>2026-08-05T10:19:02.000Z</time>
        <extensions>
          <ns3:TrackPointExtension>
            <ns3:hr>72</ns3:hr>
            <ns3:cad>0</ns3:cad>
          </ns3:TrackPointExtension>
        </extensions>
      </trkpt>
      <trkpt lat="43.47184519283473491668701171875" lon="1.43205410800874233245849609375">
        <ele>253.1999969482421875</ele>
        <time>2026-08-05T10:19:03.000Z</time>
        <extensions>
          <ns3:TrackPointExtension>
            <ns3:hr>72</ns3:hr>
            <ns3:cad>0</ns3:cad>
          </ns3:TrackPointExtension>
        </extensions>
      </trkpt>
      <trkpt lat="43.47184519283473491668701171875" lon="1.43205410800874233245849609375">
        <ele>253.1999969482421875</ele>
        <time>2026-08-05T10:19:04.000Z</time>
        <extensions>
          <ns3:TrackPointExtension>
            <ns3:hr>72</ns3:hr>
            <ns3:cad>0</ns3:cad>
          </ns3:TrackPointExtension>
        </extensions>
      </trkpt>
      <trkpt lat="43.47184519283473491668701171875" lon="1.43205410800874233245849609375">
        <ele>253.1999969482421875</ele>
        <time>2026-08-05T10:19:05.000Z</time>
        <extensions>
          <ns3:TrackPointExtension>
            <ns3:hr>72</ns3:hr>
            <ns3:cad>0</ns3:cad>
          </ns3:TrackPointExtension>
        </extensions>
      </trkpt>
      <trkpt lat="43.47184519283473491668701171875" lon="1.43205410800874233245849609375">
        <ele>253.1999969482421875</ele>
        <time>2026-08-05T10:19:06.000Z</time>
        <extensions>
          <ns3:TrackPointExtension>
            <ns3:hr>73</ns3:hr>
            <ns3:cad>0</ns3:cad>
          </ns3:TrackPointExtension>
        </extensions>
      </trkpt>
      <trkpt lat="43.47184519283473491668701171875" lon="1.43205410800874233245849609375">
        <ele>253.1999969482421875</ele>
        <time>2026-08-05T10:19:07.000Z</time>
        <extensions>
          <ns3:TrackPointExtension>
            <ns3:hr>74</ns3:hr>
            <ns3:cad>0</ns3:cad>
          </ns3:TrackPointExtension>
        </extensions>
      </trkpt>
      <trkpt lat="43.47184519283473491668701171875" lon="1.43205410800874233245849609375">
        <ele>253.399993896484375</ele>
        <time>2026-08-05T10:19:08.000Z</time>
        <extensions>
          <ns3:TrackPointExtension>
            <ns3:hr>75</ns3:hr>
            <ns3:cad>0</ns3:cad>
          </ns3:TrackPointExtension>
        </extensions>
      </trkpt>
      <trkpt lat="43.47184519283473491668701171875" lon="1.43205410800874233245849609375">
        <ele>253.399993896484375</ele>
        <time>2026-08-05T10:19:09.000Z</time>
        <extensions>
          <ns3:TrackPointExtension>
            <ns3:hr>76</ns3:hr>
            <ns3:cad>0</ns3:cad>
          </ns3:TrackPointExtension>
        </extensions>
      </trkpt>
      <trkpt lat="43.47184519283473491668701171875" lon="1.43205410800874233245849609375">
        <ele>253.399993896484375</ele>
        <time>2026-08-05T10:19:10.000Z</time>
        <extensions>
          <ns3:TrackPointExtension>
            <ns3:hr>76</ns3:hr>
            <ns3:cad>0</ns3:cad>
          </ns3:TrackPointExtension>
        </extensions>
      </trkpt>
      <trkpt lat="43.47184519283473491668701171875" lon="1.43205410800874233245849609375">
        <ele>253.399993896484375</ele>
        <time>2026-08-05T10:19:11.000Z</time>
        <extensions>
          <ns3:TrackPointExtension>
            <ns3:hr>77</ns3:hr>
            <ns3:cad>0</ns3:cad>
          </ns3:TrackPointExtension>
        </extensions>
      </trkpt>
      <trkpt lat="43.47184519283473491668701171875" lon="1.43205410800874233245849609375">
        <ele>253.1999969482421875</ele>
        <time>2026-08-05T10:19:12.000Z</time>
        <extensions>
          <ns3:TrackPointExtension>
            <ns3:hr>76</ns3:hr>
            <ns3:cad>0</ns3:cad>
          </ns3:TrackPointExtension>
        </extensions>
      </trkpt>
      <trkpt lat="43.47184519283473491668701171875" lon="1.43205410800874233245849609375">
        <ele>253.1999969482421875</ele>
        <time>2026-08-05T10:19:13.000Z</time>
        <extensions>
          <ns3:TrackPointExtension>
            <ns3:hr>76</ns3:hr>
            <ns3:cad>0</ns3:cad>
          </ns3:TrackPointExtension>
        </extensions>
      </trkpt>
      <trkpt lat="43.47184519283473491668701171875" lon="1.43205410800874233245849609375">
        <ele>253.1999969482421875</ele>
        <time>2026-08-05T10:19:14.000Z</time>
        <extensions>
          <ns3:TrackPointExtension>
            <ns3:hr>76</ns3:hr>
            <ns3:cad>0</ns3:cad>
          </ns3:TrackPointExtension>
        </extensions>
      </trkpt>
      <trkpt lat="43.47184519283473491668701171875" lon="1.43205410800874233245849609375">
        <ele>253.1999969482421875</ele>
        <time>2026-08-05T10:19:15.000Z</time>
        <extensions>
          <ns3:TrackPointExtension>
            <ns3:hr>75</ns3:hr>
            <ns3:cad>0</ns3:cad>
          </ns3:TrackPointExtension>
        </extensions>
      </trkpt>
      <trkpt lat="43.47184519283473491668701171875" lon="1.43205410800874233245849609375">
        <ele>253.1999969482421875</ele>
        <time>2026-08-05T10:19:16.000Z</time>
        <extensions>
          <ns3:TrackPointExtension>
            <ns3:hr>75</ns3:hr>
            <ns3:cad>0</ns3:cad>
          </ns3:TrackPointExtension>
        </extensions>
      </trkpt>
      <trkpt lat="43.47184519283473491668701171875" lon="1.43205410800874233245849609375">
        <ele>253</ele>
        <time>2026-08-05T10:19:17.000Z</time>
        <extensions>
          <ns3:TrackPointExtension>
            <ns3:hr>75</ns3:hr>
            <ns3:cad>0</ns3:cad>
          </ns3:TrackPointExtension>
        </extensions>
      </trkpt>
      <trkpt lat="43.47184519283473491668701171875" lon="1.43205410800874233245849609375">
        <ele>253</ele>
        <time>2026-08-05T10:19:18.000Z</time>
        <extensions>
          <ns3:TrackPointExtension>
            <ns3:hr>75</ns3:hr>
            <ns3:cad>0</ns3:cad>
          </ns3:TrackPointExtension>
        </extensions>
      </trkpt>
      <trkpt lat="43.47184519283473491668701171875" lon="1.43205410800874233245849609375">
        <ele>253</ele>
        <time>2026-08-05T10:19:19.000Z</time>
        <extensions>
          <ns3:TrackPointExtension>
            <ns3:hr>75</ns3:hr>
            <ns3:cad>0</ns3:cad>
          </ns3:TrackPointExtension>
        </extensions>
      </trkpt>
      <trkpt lat="43.47184519283473491668701171875" lon="1.43205410800874233245849609375">
        <ele>253</ele>
        <time>2026-08-05T10:19:20.000Z</time>
        <extensions>
          <ns3:TrackPointExtension>
            <ns3:hr>75</ns3:hr>
            <ns3:cad>0</ns3:cad>
          </ns3:TrackPointExtension>
        </extensions>
      </trkpt>
      <trkpt lat="43.47184519283473491668701171875" lon="1.43205410800874233245849609375">
        <ele>253</ele>
        <time>2026-08-05T10:19:21.000Z</time>
        <extensions>
          <ns3:TrackPointExtension>
            <ns3:hr>75</ns3:hr>
            <ns3:cad>0</ns3:cad>
          </ns3:TrackPointExtension>
        </extensions>
      </trkpt>
      <trkpt lat="43.47184519283473491668701171875" lon="1.43205410800874233245849609375">
        <ele>253</ele>
        <time>2026-08-05T10:19:22.000Z</time>
        <extensions>
          <ns3:TrackPointExtension>
            <ns3:hr>75</ns3:hr>
            <ns3:cad>0</ns3:cad>
          </ns3:TrackPointExtension>
        </extensions>
      </trkpt>
      <trkpt lat="43.47184519283473491668701171875" lon="1.43205410800874233245849609375">
        <ele>253</ele>
        <time>2026-08-05T10:19:23.000Z</time>
        <extensions>
          <ns3:TrackPointExtension>
            <ns3:hr>75</ns3:hr>
            <ns3:cad>0</ns3:cad>
          </ns3:TrackPointExtension>
        </extensions>
      </trkpt>
      <trkpt lat="43.47184519283473491668701171875" lon="1.43205410800874233245849609375">
        <ele>253.1999969482421875</ele>
        <time>2026-08-05T10:19:24.000Z</time>
        <extensions>
          <ns3:TrackPointExtension>
            <ns3:hr>75</ns3:hr>
            <ns3:cad>0</ns3:cad>
          </ns3:TrackPointExtension>
        </extensions>
      </trkpt>
      <trkpt lat="43.47184519283473491668701171875" lon="1.43205410800874233245849609375">
        <ele>253.1999969482421875</ele>
        <time>2026-08-05T10:19:25.000Z</time>
        <extensions>
          <ns3:TrackPointExtension>
            <ns3:hr>75</ns3:hr>
            <ns3:cad>0</ns3:cad>
          </ns3:TrackPointExtension>
        </extensions>
      </trkpt>
      <trkpt lat="43.47184519283473491668701171875" lon="1.43205410800874233245849609375">
        <ele>253.399993896484375</ele>
        <time>2026-08-05T10:19:26.000Z</time>
        <extensions>
          <ns3:TrackPointExtension>
            <ns3:hr>74</ns3:hr>
            <ns3:cad>0</ns3:cad>
          </ns3:TrackPointExtension>
        </extensions>
      </trkpt>
      <trkpt lat="43.47184519283473491668701171875" lon="1.43205410800874233245849609375">
        <ele>253.399993896484375</ele>
        <time>2026-08-05T10:19:27.000Z</time>
        <extensions>
          <ns3:TrackPointExtension>
            <ns3:hr>74</ns3:hr>
            <ns3:cad>0</ns3:cad>
          </ns3:TrackPointExtension>
        </extensions>
      </trkpt>
      <trkpt lat="43.47184519283473491668701171875" lon="1.43205410800874233245849609375">
        <ele>253.399993896484375</ele>
        <time>2026-08-05T10:19:28.000Z</time>
        <extensions>
          <ns3:TrackPointExtension>
            <ns3:hr>73</ns3:hr>
            <ns3:cad>0</ns3:cad>
          </ns3:TrackPointExtension>
        </extensions>
      </trkpt>
      <trkpt lat="43.47184519283473491668701171875" lon="1.43205410800874233245849609375">
        <ele>253.399993896484375</ele>
        <time>2026-08-05T10:19:29.000Z</time>
        <extensions>
          <ns3:TrackPointExtension>
            <ns3:hr>73</ns3:hr>
            <ns3:cad>0</ns3:cad>
          </ns3:TrackPointExtension>
        </extensions>
      </trkpt>
      <trkpt lat="43.47184519283473491668701171875" lon="1.43205410800874233245849609375">
        <ele>253.1999969482421875</ele>
        <time>2026-08-05T10:19:30.000Z</time>
        <extensions>
          <ns3:TrackPointExtension>
            <ns3:hr>73</ns3:hr>
            <ns3:cad>0</ns3:cad>
          </ns3:TrackPointExtension>
        </extensions>
      </trkpt>
      <trkpt lat="43.47184519283473491668701171875" lon="1.43205410800874233245849609375">
        <ele>253.1999969482421875</ele>
        <time>2026-08-05T10:19:31.000Z</time>
        <extensions>
          <ns3:TrackPointExtension>
            <ns3:hr>73</ns3:hr>
            <ns3:cad>0</ns3:cad>
          </ns3:TrackPointExtension>
        </extensions>
      </trkpt>
      <trkpt lat="43.47184519283473491668701171875" lon="1.43205410800874233245849609375">
        <ele>253.1999969482421875</ele>
        <time>2026-08-05T10:19:32.000Z</time>
        <extensions>
          <ns3:TrackPointExtension>
            <ns3:hr>73</ns3:hr>
            <ns3:cad>0</ns3:cad>
          </ns3:TrackPointExtension>
        </extensions>
      </trkpt>
      <trkpt lat="43.47184519283473491668701171875" lon="1.43205410800874233245849609375">
        <ele>253.1999969482421875</ele>
        <time>2026-08-05T10:19:33.000Z</time>
        <extensions>
          <ns3:TrackPointExtension>
            <ns3:hr>72</ns3:hr>
            <ns3:cad>0</ns3:cad>
          </ns3:TrackPointExtension>
        </extensions>
      </trkpt>
      <trkpt lat="43.47184519283473491668701171875" lon="1.43205410800874233245849609375">
        <ele>253.1999969482421875</ele>
        <time>2026-08-05T10:19:34.000Z</time>
        <extensions>
          <ns3:TrackPointExtension>
            <ns3:hr>72</ns3:hr>
            <ns3:cad>0</ns3:cad>
          </ns3:TrackPointExtension>
        </extensions>
      </trkpt>
      <trkpt lat="43.47184519283473491668701171875" lon="1.43205410800874233245849609375">
        <ele>253.1999969482421875</ele>
        <time>2026-08-05T10:19:35.000Z</time>
        <extensions>
          <ns3:TrackPointExtension>
            <ns3:hr>72</ns3:hr>
            <ns3:cad>0</ns3:cad>
          </ns3:TrackPointExtension>
        </extensions>
      </trkpt>
      <trkpt lat="43.47184519283473491668701171875" lon="1.43205410800874233245849609375">
        <ele>253</ele>
        <time>2026-08-05T10:19:36.000Z</time>
        <extensions>
          <ns3:TrackPointExtension>
            <ns3:hr>72</ns3:hr>
            <ns3:cad>0</ns3:cad>
          </ns3:TrackPointExtension>
        </extensions>
      </trkpt>
      <trkpt lat="43.47184519283473491668701171875" lon="1.43205410800874233245849609375">
        <ele>253</ele>
        <time>2026-08-05T10:19:37.000Z</time>
        <extensions>
          <ns3:TrackPointExtension>
            <ns3:hr>71</ns3:hr>
            <ns3:cad>0</ns3:cad>
          </ns3:TrackPointExtension>
        </extensions>
      </trkpt>
      <trkpt lat="43.47184519283473491668701171875" lon="1.43205410800874233245849609375">
        <ele>253</ele>
        <time>2026-08-05T10:19:38.000Z</time>
        <extensions>
          <ns3:TrackPointExtension>
            <ns3:hr>71</ns3:hr>
            <ns3:cad>0</ns3:cad>
          </ns3:TrackPointExtension>
        </extensions>
      </trkpt>
      <trkpt lat="43.47184519283473491668701171875" lon="1.43205410800874233245849609375">
        <ele>252.8000030517578125</ele>
        <time>2026-08-05T10:19:39.000Z</time>
        <extensions>
          <ns3:TrackPointExtension>
            <ns3:hr>71</ns3:hr>
            <ns3:cad>0</ns3:cad>
          </ns3:TrackPointExtension>
        </extensions>
      </trkpt>
      <trkpt lat="43.47184519283473491668701171875" lon="1.43205410800874233245849609375">
        <ele>252.8000030517578125</ele>
        <time>2026-08-05T10:19:40.000Z</time>
        <extensions>
          <ns3:TrackPointExtension>
            <ns3:hr>72</ns3:hr>
            <ns3:cad>0</ns3:cad>
          </ns3:TrackPointExtension>
        </extensions>
      </trkpt>
      <trkpt lat="43.47184519283473491668701171875" lon="1.43205410800874233245849609375">
        <ele>252.8000030517578125</ele>
        <time>2026-08-05T10:19:41.000Z</time>
        <extensions>
          <ns3:TrackPointExtension>
            <ns3:hr>72</ns3:hr>
            <ns3:cad>0</ns3:cad>
          </ns3:TrackPointExtension>
        </extensions>
      </trkpt>
      <trkpt lat="43.47184519283473491668701171875" lon="1.43205410800874233245849609375">
        <ele>252.8000030517578125</ele>
        <time>2026-08-05T10:19:42.000Z</time>
        <extensions>
          <ns3:TrackPointExtension>
            <ns3:hr>72</ns3:hr>
            <ns3:cad>0</ns3:cad>
          </ns3:TrackPointExtension>
        </extensions>
      </trkpt>
      <trkpt lat="43.47184519283473491668701171875" lon="1.43205410800874233245849609375">
        <ele>252.8000030517578125</ele>
        <time>2026-08-05T10:19:43.000Z</time>
        <extensions>
          <ns3:TrackPointExtension>
            <ns3:hr>72</ns3:hr>
            <ns3:cad>0</ns3:cad>
          </ns3:TrackPointExtension>
        </extensions>
      </trkpt>
      <trkpt lat="43.47184519283473491668701171875" lon="1.43205410800874233245849609375">
        <ele>253</ele>
        <time>2026-08-05T10:19:44.000Z</time>
        <extensions>
          <ns3:TrackPointExtension>
            <ns3:hr>72</ns3:hr>
            <ns3:cad>0</ns3:cad>
          </ns3:TrackPointExtension>
        </extensions>
      </trkpt>
      <trkpt lat="43.47184670157730579376220703125" lon="1.43206098116934299468994140625">
        <ele>253</ele>
        <time>2026-08-05T10:19:45.000Z</time>
        <extensions>
          <ns3:TrackPointExtension>
            <ns3:hr>72</ns3:hr>
            <ns3:cad>0</ns3:cad>
          </ns3:TrackPointExtension>
        </extensions>
      </trkpt>
      <trkpt lat="43.47184821031987667083740234375" lon="1.43206299282610416412353515625">
        <ele>253</ele>
        <time>2026-08-05T10:19:46.000Z</time>
        <extensions>
          <ns3:TrackPointExtension>
            <ns3:hr>73</ns3:hr>
            <ns3:cad>0</ns3:cad>
          </ns3:TrackPointExtension>
        </extensions>
      </trkpt>
      <trkpt lat="43.47184519283473491668701171875" lon="1.43205410800874233245849609375">
        <ele>253</ele>
        <time>2026-08-05T10:19:47.000Z</time>
        <extensions>
          <ns3:TrackPointExtension>
            <ns3:hr>73</ns3:hr>
            <ns3:cad>0</ns3:cad>
          </ns3:TrackPointExtension>
        </extensions>
      </trkpt>
      <trkpt lat="43.47184519283473491668701171875" lon="1.43205410800874233245849609375">
        <ele>253</ele>
        <time>2026-08-05T10:19:48.000Z</time>
        <extensions>
          <ns3:TrackPointExtension>
            <ns3:hr>73</ns3:hr>
            <ns3:cad>0</ns3:cad>
          </ns3:TrackPointExtension>
        </extensions>
      </trkpt>
      <trkpt lat="43.47184519283473491668701171875" lon="1.43205410800874233245849609375">
        <ele>253</ele>
        <time>2026-08-05T10:19:49.000Z</time>
        <extensions>
          <ns3:TrackPointExtension>
            <ns3:hr>73</ns3:hr>
            <ns3:cad>0</ns3:cad>
          </ns3:TrackPointExtension>
        </extensions>
      </trkpt>
      <trkpt lat="43.47184519283473491668701171875" lon="1.43205410800874233245849609375">
        <ele>253</ele>
        <time>2026-08-05T10:19:50.000Z</time>
        <extensions>
          <ns3:TrackPointExtension>
            <ns3:hr>72</ns3:hr>
            <ns3:cad>0</ns3:cad>
          </ns3:TrackPointExtension>
        </extensions>
      </trkpt>
      <trkpt lat="43.47184519283473491668701171875" lon="1.43205410800874233245849609375">
        <ele>253</ele>
        <time>2026-08-05T10:19:51.000Z</time>
        <extensions>
          <ns3:TrackPointExtension>
            <ns3:hr>72</ns3:hr>
            <ns3:cad>0</ns3:cad>
          </ns3:TrackPointExtension>
        </extensions>
      </trkpt>
      <trkpt lat="43.47184971906244754791259765625" lon="1.43205821514129638671875">
        <ele>253</ele>
        <time>2026-08-05T10:19:52.000Z</time>
        <extensions>
          <ns3:TrackPointExtension>
            <ns3:hr>70</ns3:hr>
            <ns3:cad>0</ns3:cad>
          </ns3:TrackPointExtension>
        </extensions>
      </trkpt>
      <trkpt lat="43.47184519283473491668701171875" lon="1.43205410800874233245849609375">
        <ele>252.8000030517578125</ele>
        <time>2026-08-05T10:19:53.000Z</time>
        <extensions>
          <ns3:TrackPointExtension>
            <ns3:hr>68</ns3:hr>
            <ns3:cad>0</ns3:cad>
          </ns3:TrackPointExtension>
        </extensions>
      </trkpt>
      <trkpt lat="43.47184519283473491668701171875" lon="1.43205410800874233245849609375">
        <ele>252.8000030517578125</ele>
        <time>2026-08-05T10:19:54.000Z</time>
        <extensions>
          <ns3:TrackPointExtension>
            <ns3:hr>68</ns3:hr>
            <ns3:cad>0</ns3:cad>
          </ns3:TrackPointExtension>
        </extensions>
      </trkpt>
      <trkpt lat="43.47184519283473491668701171875" lon="1.43205410800874233245849609375">
        <ele>252.8000030517578125</ele>
        <time>2026-08-05T10:19:55.000Z</time>
        <extensions>
          <ns3:TrackPointExtension>
            <ns3:hr>67</ns3:hr>
            <ns3:cad>0</ns3:cad>
          </ns3:TrackPointExtension>
        </extensions>
      </trkpt>
      <trkpt lat="43.47184519283473491668701171875" lon="1.43205410800874233245849609375">
        <ele>252.600006103515625</ele>
        <time>2026-08-05T10:19:56.000Z</time>
        <extensions>
          <ns3:TrackPointExtension>
            <ns3:hr>67</ns3:hr>
            <ns3:cad>0</ns3:cad>
          </ns3:TrackPointExtension>
        </extensions>
      </trkpt>
      <trkpt lat="43.47184519283473491668701171875" lon="1.43205410800874233245849609375">
        <ele>252.600006103515625</ele>
        <time>2026-08-05T10:19:57.000Z</time>
        <extensions>
          <ns3:TrackPointExtension>
            <ns3:hr>68</ns3:hr>
            <ns3:cad>0</ns3:cad>
          </ns3:TrackPointExtension>
        </extensions>
      </trkpt>
      <trkpt lat="43.47184519283473491668701171875" lon="1.43205410800874233245849609375">
        <ele>252.399993896484375</ele>
        <time>2026-08-05T10:19:58.000Z</time>
        <extensions>
          <ns3:TrackPointExtension>
            <ns3:hr>69</ns3:hr>
            <ns3:cad>0</ns3:cad>
          </ns3:TrackPointExtension>
        </extensions>
      </trkpt>
      <trkpt lat="43.47184519283473491668701171875" lon="1.43205410800874233245849609375">
        <ele>252.1999969482421875</ele>
        <time>2026-08-05T10:19:59.000Z</time>
        <extensions>
          <ns3:TrackPointExtension>
            <ns3:hr>70</ns3:hr>
            <ns3:cad>0</ns3:cad>
          </ns3:TrackPointExtension>
        </extensions>
      </trkpt>
      <trkpt lat="43.47184519283473491668701171875" lon="1.43205410800874233245849609375">
        <ele>252.1999969482421875</ele>
        <time>2026-08-05T10:20:00.000Z</time>
        <extensions>
          <ns3:TrackPointExtension>
            <ns3:hr>73</ns3:hr>
            <ns3:cad>0</ns3:cad>
          </ns3:TrackPointExtension>
        </extensions>
      </trkpt>
      <trkpt lat="43.47184519283473491668701171875" lon="1.43205410800874233245849609375">
        <ele>252.1999969482421875</ele>
        <time>2026-08-05T10:20:01.000Z</time>
        <extensions>
          <ns3:TrackPointExtension>
            <ns3:hr>74</ns3:hr>
            <ns3:cad>0</ns3:cad>
          </ns3:TrackPointExtension>
        </extensions>
      </trkpt>
      <trkpt lat="43.47184519283473491668701171875" lon="1.43205410800874233245849609375">
        <ele>252.399993896484375</ele>
        <time>2026-08-05T10:20:02.000Z</time>
        <extensions>
          <ns3:TrackPointExtension>
            <ns3:hr>74</ns3:hr>
            <ns3:cad>0</ns3:cad>
          </ns3:TrackPointExtension>
        </extensions>
      </trkpt>
      <trkpt lat="43.47184519283473491668701171875" lon="1.43205410800874233245849609375">
        <ele>252.399993896484375</ele>
        <time>2026-08-05T10:20:03.000Z</time>
        <extensions>
          <ns3:TrackPointExtension>
            <ns3:hr>73</ns3:hr>
            <ns3:cad>0</ns3:cad>
          </ns3:TrackPointExtension>
        </extensions>
      </trkpt>
      <trkpt lat="43.47184519283473491668701171875" lon="1.43205410800874233245849609375">
        <ele>252.399993896484375</ele>
        <time>2026-08-05T10:20:04.000Z</time>
        <extensions>
          <ns3:TrackPointExtension>
            <ns3:hr>73</ns3:hr>
            <ns3:cad>0</ns3:cad>
          </ns3:TrackPointExtension>
        </extensions>
      </trkpt>
      <trkpt lat="43.47184519283473491668701171875" lon="1.43205410800874233245849609375">
        <ele>252.399993896484375</ele>
        <time>2026-08-05T10:20:05.000Z</time>
        <extensions>
          <ns3:TrackPointExtension>
            <ns3:hr>73</ns3:hr>
            <ns3:cad>0</ns3:cad>
          </ns3:TrackPointExtension>
        </extensions>
      </trkpt>
      <trkpt lat="43.47184519283473491668701171875" lon="1.43205410800874233245849609375">
        <ele>252.399993896484375</ele>
        <time>2026-08-05T10:20:06.000Z</time>
        <extensions>
          <ns3:TrackPointExtension>
            <ns3:hr>74</ns3:hr>
            <ns3:cad>0</ns3:cad>
          </ns3:TrackPointExtension>
        </extensions>
      </trkpt>
      <trkpt lat="43.47184519283473491668701171875" lon="1.43205410800874233245849609375">
        <ele>252.600006103515625</ele>
        <time>2026-08-05T10:20:07.000Z</time>
        <extensions>
          <ns3:TrackPointExtension>
            <ns3:hr>73</ns3:hr>
            <ns3:cad>0</ns3:cad>
          </ns3:TrackPointExtension>
        </extensions>
      </trkpt>
      <trkpt lat="43.47184519283473491668701171875" lon="1.43205410800874233245849609375">
        <ele>252.600006103515625</ele>
        <time>2026-08-05T10:20:08.000Z</time>
        <extensions>
          <ns3:TrackPointExtension>
            <ns3:hr>73</ns3:hr>
            <ns3:cad>0</ns3:cad>
          </ns3:TrackPointExtension>
        </extensions>
      </trkpt>
      <trkpt lat="43.47184519283473491668701171875" lon="1.43205410800874233245849609375">
        <ele>252.8000030517578125</ele>
        <time>2026-08-05T10:20:09.000Z</time>
        <extensions>
          <ns3:TrackPointExtension>
            <ns3:hr>74</ns3:hr>
            <ns3:cad>0</ns3:cad>
          </ns3:TrackPointExtension>
        </extensions>
      </trkpt>
      <trkpt lat="43.47184837795794010162353515625" lon="1.43205427564680576324462890625">
        <ele>252.8000030517578125</ele>
        <time>2026-08-05T10:20:10.000Z</time>
        <extensions>
          <ns3:TrackPointExtension>
            <ns3:hr>73</ns3:hr>
            <ns3:cad>0</ns3:cad>
          </ns3:TrackPointExtension>
        </extensions>
      </trkpt>
      <trkpt lat="43.47185122780501842498779296875" lon="1.4320520125329494476318359375">
        <ele>253</ele>
        <time>2026-08-05T10:20:11.000Z</time>
        <extensions>
          <ns3:TrackPointExtension>
            <ns3:hr>73</ns3:hr>
            <ns3:cad>0</ns3:cad>
          </ns3:TrackPointExtension>
        </extensions>
      </trkpt>
      <trkpt lat="43.47185273654758930206298828125" lon="1.43205041997134685516357421875">
        <ele>252.8000030517578125</ele>
        <time>2026-08-05T10:20:12.000Z</time>
        <extensions>
          <ns3:TrackPointExtension>
            <ns3:hr>74</ns3:hr>
            <ns3:cad>0</ns3:cad>
          </ns3:TrackPointExtension>
        </extensions>
      </trkpt>
      <trkpt lat="43.47184519283473491668701171875" lon="1.43205410800874233245849609375">
        <ele>252.8000030517578125</ele>
        <time>2026-08-05T10:20:13.000Z</time>
        <extensions>
          <ns3:TrackPointExtension>
            <ns3:hr>73</ns3:hr>
            <ns3:cad>0</ns3:cad>
          </ns3:TrackPointExtension>
        </extensions>
      </trkpt>
      <trkpt lat="43.47184519283473491668701171875" lon="1.43205410800874233245849609375">
        <ele>252.8000030517578125</ele>
        <time>2026-08-05T10:20:14.000Z</time>
        <extensions>
          <ns3:TrackPointExtension>
            <ns3:hr>74</ns3:hr>
            <ns3:cad>0</ns3:cad>
          </ns3:TrackPointExtension>
        </extensions>
      </trkpt>
      <trkpt lat="43.47184519283473491668701171875" lon="1.43205410800874233245849609375">
        <ele>252.8000030517578125</ele>
        <time>2026-08-05T10:20:15.000Z</time>
        <extensions>
          <ns3:TrackPointExtension>
            <ns3:hr>74</ns3:hr>
            <ns3:cad>0</ns3:cad>
          </ns3:TrackPointExtension>
        </extensions>
      </trkpt>
      <trkpt lat="43.47184519283473491668701171875" lon="1.43205410800874233245849609375">
        <ele>253</ele>
        <time>2026-08-05T10:20:16.000Z</time>
        <extensions>
          <ns3:TrackPointExtension>
            <ns3:hr>74</ns3:hr>
            <ns3:cad>0</ns3:cad>
          </ns3:TrackPointExtension>
        </extensions>
      </trkpt>
      <trkpt lat="43.47184519283473491668701171875" lon="1.43205410800874233245849609375">
        <ele>253</ele>
        <time>2026-08-05T10:20:17.000Z</time>
        <extensions>
          <ns3:TrackPointExtension>
            <ns3:hr>75</ns3:hr>
            <ns3:cad>0</ns3:cad>
          </ns3:TrackPointExtension>
        </extensions>
      </trkpt>
      <trkpt lat="43.47184519283473491668701171875" lon="1.43205410800874233245849609375">
        <ele>253.1999969482421875</ele>
        <time>2026-08-05T10:20:18.000Z</time>
        <extensions>
          <ns3:TrackPointExtension>
            <ns3:hr>74</ns3:hr>
            <ns3:cad>0</ns3:cad>
          </ns3:TrackPointExtension>
        </extensions>
      </trkpt>
      <trkpt lat="43.47184519283473491668701171875" lon="1.43205410800874233245849609375">
        <ele>253.1999969482421875</ele>
        <time>2026-08-05T10:20:19.000Z</time>
        <extensions>
          <ns3:TrackPointExtension>
            <ns3:hr>74</ns3:hr>
            <ns3:cad>0</ns3:cad>
          </ns3:TrackPointExtension>
        </extensions>
      </trkpt>
      <trkpt lat="43.47184519283473491668701171875" lon="1.43205410800874233245849609375">
        <ele>253.1999969482421875</ele>
        <time>2026-08-05T10:20:20.000Z</time>
        <extensions>
          <ns3:TrackPointExtension>
            <ns3:hr>73</ns3:hr>
            <ns3:cad>0</ns3:cad>
          </ns3:TrackPointExtension>
        </extensions>
      </trkpt>
      <trkpt lat="43.47184519283473491668701171875" lon="1.43205410800874233245849609375">
        <ele>253.1999969482421875</ele>
        <time>2026-08-05T10:20:21.000Z</time>
        <extensions>
          <ns3:TrackPointExtension>
            <ns3:hr>73</ns3:hr>
            <ns3:cad>0</ns3:cad>
          </ns3:TrackPointExtension>
        </extensions>
      </trkpt>
      <trkpt lat="43.47184519283473491668701171875" lon="1.43205410800874233245849609375">
        <ele>253.1999969482421875</ele>
        <time>2026-08-05T10:20:22.000Z</time>
        <extensions>
          <ns3:TrackPointExtension>
            <ns3:hr>73</ns3:hr>
            <ns3:cad>0</ns3:cad>
          </ns3:TrackPointExtension>
        </extensions>
      </trkpt>
      <trkpt lat="43.47184519283473491668701171875" lon="1.43205410800874233245849609375">
        <ele>253.1999969482421875</ele>
        <time>2026-08-05T10:20:23.000Z</time>
        <extensions>
          <ns3:TrackPointExtension>
            <ns3:hr>73</ns3:hr>
            <ns3:cad>0</ns3:cad>
          </ns3:TrackPointExtension>
        </extensions>
      </trkpt>
      <trkpt lat="43.47184519283473491668701171875" lon="1.43205410800874233245849609375">
        <ele>253.1999969482421875</ele>
        <time>2026-08-05T10:20:24.000Z</time>
        <extensions>
          <ns3:TrackPointExtension>
            <ns3:hr>73</ns3:hr>
            <ns3:cad>0</ns3:cad>
          </ns3:TrackPointExtension>
        </extensions>
      </trkpt>
      <trkpt lat="43.47184519283473491668701171875" lon="1.43205410800874233245849609375">
        <ele>253.1999969482421875</ele>
        <time>2026-08-05T10:20:25.000Z</time>
        <extensions>
          <ns3:TrackPointExtension>
            <ns3:hr>73</ns3:hr>
            <ns3:cad>0</ns3:cad>
          </ns3:TrackPointExtension>
        </extensions>
      </trkpt>
      <trkpt lat="43.47184519283473491668701171875" lon="1.43205410800874233245849609375">
        <ele>253</ele>
        <time>2026-08-05T10:20:26.000Z</time>
        <extensions>
          <ns3:TrackPointExtension>
            <ns3:hr>72</ns3:hr>
            <ns3:cad>0</ns3:cad>
          </ns3:TrackPointExtension>
        </extensions>
      </trkpt>
      <trkpt lat="43.47184519283473491668701171875" lon="1.43205410800874233245849609375">
        <ele>253</ele>
        <time>2026-08-05T10:20:27.000Z</time>
        <extensions>
          <ns3:TrackPointExtension>
            <ns3:hr>72</ns3:hr>
            <ns3:cad>0</ns3:cad>
          </ns3:TrackPointExtension>
        </extensions>
      </trkpt>
      <trkpt lat="43.47184519283473491668701171875" lon="1.43205410800874233245849609375">
        <ele>253</ele>
        <time>2026-08-05T10:20:28.000Z</time>
        <extensions>
          <ns3:TrackPointExtension>
            <ns3:hr>72</ns3:hr>
            <ns3:cad>0</ns3:cad>
          </ns3:TrackPointExtension>
        </extensions>
      </trkpt>
      <trkpt lat="43.47184519283473491668701171875" lon="1.43205410800874233245849609375">
        <ele>253</ele>
        <time>2026-08-05T10:20:29.000Z</time>
        <extensions>
          <ns3:TrackPointExtension>
            <ns3:hr>72</ns3:hr>
            <ns3:cad>0</ns3:cad>
          </ns3:TrackPointExtension>
        </extensions>
      </trkpt>
      <trkpt lat="43.47184519283473491668701171875" lon="1.43205410800874233245849609375">
        <ele>253</ele>
        <time>2026-08-05T10:20:30.000Z</time>
        <extensions>
          <ns3:TrackPointExtension>
            <ns3:hr>72</ns3:hr>
            <ns3:cad>0</ns3:cad>
          </ns3:TrackPointExtension>
        </extensions>
      </trkpt>
      <trkpt lat="43.47184519283473491668701171875" lon="1.43205410800874233245849609375">
        <ele>253</ele>
        <time>2026-08-05T10:20:31.000Z</time>
        <extensions>
          <ns3:TrackPointExtension>
            <ns3:hr>72</ns3:hr>
            <ns3:cad>0</ns3:cad>
          </ns3:TrackPointExtension>
        </extensions>
      </trkpt>
      <trkpt lat="43.47184519283473491668701171875" lon="1.43205410800874233245849609375">
        <ele>253</ele>
        <time>2026-08-05T10:20:32.000Z</time>
        <extensions>
          <ns3:TrackPointExtension>
            <ns3:hr>72</ns3:hr>
            <ns3:cad>0</ns3:cad>
          </ns3:TrackPointExtension>
        </extensions>
      </trkpt>
      <trkpt lat="43.47184519283473491668701171875" lon="1.43205410800874233245849609375">
        <ele>253</ele>
        <time>2026-08-05T10:20:33.000Z</time>
        <extensions>
          <ns3:TrackPointExtension>
            <ns3:hr>72</ns3:hr>
            <ns3:cad>0</ns3:cad>
          </ns3:TrackPointExtension>
        </extensions>
      </trkpt>
      <trkpt lat="43.47184519283473491668701171875" lon="1.43205410800874233245849609375">
        <ele>253</ele>
        <time>2026-08-05T10:20:34.000Z</time>
        <extensions>
          <ns3:TrackPointExtension>
            <ns3:hr>72</ns3:hr>
            <ns3:cad>0</ns3:cad>
          </ns3:TrackPointExtension>
        </extensions>
      </trkpt>
      <trkpt lat="43.47184519283473491668701171875" lon="1.43205410800874233245849609375">
        <ele>253</ele>
        <time>2026-08-05T10:20:35.000Z</time>
        <extensions>
          <ns3:TrackPointExtension>
            <ns3:hr>72</ns3:hr>
            <ns3:cad>0</ns3:cad>
          </ns3:TrackPointExtension>
        </extensions>
      </trkpt>
      <trkpt lat="43.47184519283473491668701171875" lon="1.43205410800874233245849609375">
        <ele>253</ele>
        <time>2026-08-05T10:20:36.000Z</time>
        <extensions>
          <ns3:TrackPointExtension>
            <ns3:hr>72</ns3:hr>
            <ns3:cad>0</ns3:cad>
          </ns3:TrackPointExtension>
        </extensions>
      </trkpt>
      <trkpt lat="43.47184519283473491668701171875" lon="1.43205410800874233245849609375">
        <ele>253</ele>
        <time>2026-08-05T10:20:37.000Z</time>
        <extensions>
          <ns3:TrackPointExtension>
            <ns3:hr>72</ns3:hr>
            <ns3:cad>0</ns3:cad>
          </ns3:TrackPointExtension>
        </extensions>
      </trkpt>
      <trkpt lat="43.47184519283473491668701171875" lon="1.43205410800874233245849609375">
        <ele>253</ele>
        <time>2026-08-05T10:20:38.000Z</time>
        <extensions>
          <ns3:TrackPointExtension>
            <ns3:hr>72</ns3:hr>
            <ns3:cad>0</ns3:cad>
          </ns3:TrackPointExtension>
        </extensions>
      </trkpt>
      <trkpt lat="43.47184519283473491668701171875" lon="1.43205410800874233245849609375">
        <ele>253.1999969482421875</ele>
        <time>2026-08-05T10:20:39.000Z</time>
        <extensions>
          <ns3:TrackPointExtension>
            <ns3:hr>72</ns3:hr>
            <ns3:cad>0</ns3:cad>
          </ns3:TrackPointExtension>
        </extensions>
      </trkpt>
      <trkpt lat="43.47184519283473491668701171875" lon="1.43205410800874233245849609375">
        <ele>253.1999969482421875</ele>
        <time>2026-08-05T10:20:40.000Z</time>
        <extensions>
          <ns3:TrackPointExtension>
            <ns3:hr>72</ns3:hr>
            <ns3:cad>0</ns3:cad>
          </ns3:TrackPointExtension>
        </extensions>
      </trkpt>
      <trkpt lat="43.47184519283473491668701171875" lon="1.43205410800874233245849609375">
        <ele>253.1999969482421875</ele>
        <time>2026-08-05T10:20:41.000Z</time>
        <extensions>
          <ns3:TrackPointExtension>
            <ns3:hr>71</ns3:hr>
            <ns3:cad>0</ns3:cad>
          </ns3:TrackPointExtension>
        </extensions>
      </trkpt>
      <trkpt lat="43.47184519283473491668701171875" lon="1.43205410800874233245849609375">
        <ele>253.1999969482421875</ele>
        <time>2026-08-05T10:20:42.000Z</time>
        <extensions>
          <ns3:TrackPointExtension>
            <ns3:hr>71</ns3:hr>
            <ns3:cad>0</ns3:cad>
          </ns3:TrackPointExtension>
        </extensions>
      </trkpt>
      <trkpt lat="43.47184519283473491668701171875" lon="1.43205410800874233245849609375">
        <ele>253.1999969482421875</ele>
        <time>2026-08-05T10:20:43.000Z</time>
        <extensions>
          <ns3:TrackPointExtension>
            <ns3:hr>71</ns3:hr>
            <ns3:cad>0</ns3:cad>
          </ns3:TrackPointExtension>
        </extensions>
      </trkpt>
      <trkpt lat="43.47184519283473491668701171875" lon="1.43205410800874233245849609375">
        <ele>253.1999969482421875</ele>
        <time>2026-08-05T10:20:44.000Z</time>
        <extensions>
          <ns3:TrackPointExtension>
            <ns3:hr>70</ns3:hr>
            <ns3:cad>0</ns3:cad>
          </ns3:TrackPointExtension>
        </extensions>
      </trkpt>
      <trkpt lat="43.47184519283473491668701171875" lon="1.43205410800874233245849609375">
        <ele>253.399993896484375</ele>
        <time>2026-08-05T10:20:45.000Z</time>
        <extensions>
          <ns3:TrackPointExtension>
            <ns3:hr>71</ns3:hr>
            <ns3:cad>0</ns3:cad>
          </ns3:TrackPointExtension>
        </extensions>
      </trkpt>
      <trkpt lat="43.47184519283473491668701171875" lon="1.43205410800874233245849609375">
        <ele>253.399993896484375</ele>
        <time>2026-08-05T10:20:46.000Z</time>
        <extensions>
          <ns3:TrackPointExtension>
            <ns3:hr>71</ns3:hr>
            <ns3:cad>0</ns3:cad>
          </ns3:TrackPointExtension>
        </extensions>
      </trkpt>
      <trkpt lat="43.47184519283473491668701171875" lon="1.43205410800874233245849609375">
        <ele>253.399993896484375</ele>
        <time>2026-08-05T10:20:47.000Z</time>
        <extensions>
          <ns3:TrackPointExtension>
            <ns3:hr>71</ns3:hr>
            <ns3:cad>0</ns3:cad>
          </ns3:TrackPointExtension>
        </extensions>
      </trkpt>
      <trkpt lat="43.47184519283473491668701171875" lon="1.43205410800874233245849609375">
        <ele>253.399993896484375</ele>
        <time>2026-08-05T10:20:48.000Z</time>
        <extensions>
          <ns3:TrackPointExtension>
            <ns3:hr>72</ns3:hr>
            <ns3:cad>0</ns3:cad>
          </ns3:TrackPointExtension>
        </extensions>
      </trkpt>
      <trkpt lat="43.47184519283473491668701171875" lon="1.43205410800874233245849609375">
        <ele>253.399993896484375</ele>
        <time>2026-08-05T10:20:49.000Z</time>
        <extensions>
          <ns3:TrackPointExtension>
            <ns3:hr>72</ns3:hr>
            <ns3:cad>0</ns3:cad>
          </ns3:TrackPointExtension>
        </extensions>
      </trkpt>
      <trkpt lat="43.47184519283473491668701171875" lon="1.43205410800874233245849609375">
        <ele>253.399993896484375</ele>
        <time>2026-08-05T10:20:50.000Z</time>
        <extensions>
          <ns3:TrackPointExtension>
            <ns3:hr>72</ns3:hr>
            <ns3:cad>0</ns3:cad>
          </ns3:TrackPointExtension>
        </extensions>
      </trkpt>
      <trkpt lat="43.47184519283473491668701171875" lon="1.43205410800874233245849609375">
        <ele>253.399993896484375</ele>
        <time>2026-08-05T10:20:51.000Z</time>
        <extensions>
          <ns3:TrackPointExtension>
            <ns3:hr>72</ns3:hr>
            <ns3:cad>0</ns3:cad>
          </ns3:TrackPointExtension>
        </extensions>
      </trkpt>
      <trkpt lat="43.47184519283473491668701171875" lon="1.43205410800874233245849609375">
        <ele>253.399993896484375</ele>
        <time>2026-08-05T10:20:52.000Z</time>
        <extensions>
          <ns3:TrackPointExtension>
            <ns3:hr>73</ns3:hr>
            <ns3:cad>0</ns3:cad>
          </ns3:TrackPointExtension>
        </extensions>
      </trkpt>
      <trkpt lat="43.47184519283473491668701171875" lon="1.43205410800874233245849609375">
        <ele>253.399993896484375</ele>
        <time>2026-08-05T10:20:53.000Z</time>
        <extensions>
          <ns3:TrackPointExtension>
            <ns3:hr>73</ns3:hr>
            <ns3:cad>0</ns3:cad>
          </ns3:TrackPointExtension>
        </extensions>
      </trkpt>
      <trkpt lat="43.47184519283473491668701171875" lon="1.43205410800874233245849609375">
        <ele>253.399993896484375</ele>
        <time>2026-08-05T10:20:54.000Z</time>
        <extensions>
          <ns3:TrackPointExtension>
            <ns3:hr>73</ns3:hr>
            <ns3:cad>0</ns3:cad>
          </ns3:TrackPointExtension>
        </extensions>
      </trkpt>
      <trkpt lat="43.47184519283473491668701171875" lon="1.43205410800874233245849609375">
        <ele>253.399993896484375</ele>
        <time>2026-08-05T10:20:55.000Z</time>
        <extensions>
          <ns3:TrackPointExtension>
            <ns3:hr>73</ns3:hr>
            <ns3:cad>0</ns3:cad>
          </ns3:TrackPointExtension>
        </extensions>
      </trkpt>
      <trkpt lat="43.47184519283473491668701171875" lon="1.43205410800874233245849609375">
        <ele>253.399993896484375</ele>
        <time>2026-08-05T10:20:56.000Z</time>
        <extensions>
          <ns3:TrackPointExtension>
            <ns3:hr>72</ns3:hr>
            <ns3:cad>0</ns3:cad>
          </ns3:TrackPointExtension>
        </extensions>
      </trkpt>
      <trkpt lat="43.47184519283473491668701171875" lon="1.43205410800874233245849609375">
        <ele>253.399993896484375</ele>
        <time>2026-08-05T10:20:57.000Z</time>
        <extensions>
          <ns3:TrackPointExtension>
            <ns3:hr>72</ns3:hr>
            <ns3:cad>0</ns3:cad>
          </ns3:TrackPointExtension>
        </extensions>
      </trkpt>
      <trkpt lat="43.47184519283473491668701171875" lon="1.43205410800874233245849609375">
        <ele>253.399993896484375</ele>
        <time>2026-08-05T10:20:58.000Z</time>
        <extensions>
          <ns3:TrackPointExtension>
            <ns3:hr>71</ns3:hr>
            <ns3:cad>0</ns3:cad>
          </ns3:TrackPointExtension>
        </extensions>
      </trkpt>
      <trkpt lat="43.47184519283473491668701171875" lon="1.43205410800874233245849609375">
        <ele>253.399993896484375</ele>
        <time>2026-08-05T10:20:59.000Z</time>
        <extensions>
          <ns3:TrackPointExtension>
            <ns3:hr>70</ns3:hr>
            <ns3:cad>0</ns3:cad>
          </ns3:TrackPointExtension>
        </extensions>
      </trkpt>
      <trkpt lat="43.47184519283473491668701171875" lon="1.43205410800874233245849609375">
        <ele>253.399993896484375</ele>
        <time>2026-08-05T10:21:00.000Z</time>
        <extensions>
          <ns3:TrackPointExtension>
            <ns3:hr>70</ns3:hr>
            <ns3:cad>0</ns3:cad>
          </ns3:TrackPointExtension>
        </extensions>
      </trkpt>
      <trkpt lat="43.47184519283473491668701171875" lon="1.43205410800874233245849609375">
        <ele>253.399993896484375</ele>
        <time>2026-08-05T10:21:01.000Z</time>
        <extensions>
          <ns3:TrackPointExtension>
            <ns3:hr>70</ns3:hr>
            <ns3:cad>0</ns3:cad>
          </ns3:TrackPointExtension>
        </extensions>
      </trkpt>
      <trkpt lat="43.47184519283473491668701171875" lon="1.43205410800874233245849609375">
        <ele>253.399993896484375</ele>
        <time>2026-08-05T10:21:02.000Z</time>
        <extensions>
          <ns3:TrackPointExtension>
            <ns3:hr>70</ns3:hr>
            <ns3:cad>0</ns3:cad>
          </ns3:TrackPointExtension>
        </extensions>
      </trkpt>
      <trkpt lat="43.47184519283473491668701171875" lon="1.43205410800874233245849609375">
        <ele>253.399993896484375</ele>
        <time>2026-08-05T10:21:03.000Z</time>
        <extensions>
          <ns3:TrackPointExtension>
            <ns3:hr>71</ns3:hr>
            <ns3:cad>0</ns3:cad>
          </ns3:TrackPointExtension>
        </extensions>
      </trkpt>
      <trkpt lat="43.47184519283473491668701171875" lon="1.43205410800874233245849609375">
        <ele>253.399993896484375</ele>
        <time>2026-08-05T10:21:04.000Z</time>
        <extensions>
          <ns3:TrackPointExtension>
            <ns3:hr>71</ns3:hr>
            <ns3:cad>0</ns3:cad>
          </ns3:TrackPointExtension>
        </extensions>
      </trkpt>
      <trkpt lat="43.47184519283473491668701171875" lon="1.43205410800874233245849609375">
        <ele>253.399993896484375</ele>
        <time>2026-08-05T10:21:05.000Z</time>
        <extensions>
          <ns3:TrackPointExtension>
            <ns3:hr>71</ns3:hr>
            <ns3:cad>0</ns3:cad>
          </ns3:TrackPointExtension>
        </extensions>
      </trkpt>
      <trkpt lat="43.47184519283473491668701171875" lon="1.43205410800874233245849609375">
        <ele>253.399993896484375</ele>
        <time>2026-08-05T10:21:06.000Z</time>
        <extensions>
          <ns3:TrackPointExtension>
            <ns3:hr>70</ns3:hr>
            <ns3:cad>0</ns3:cad>
          </ns3:TrackPointExtension>
        </extensions>
      </trkpt>
      <trkpt lat="43.47184519283473491668701171875" lon="1.43205410800874233245849609375">
        <ele>253.399993896484375</ele>
        <time>2026-08-05T10:21:07.000Z</time>
        <extensions>
          <ns3:TrackPointExtension>
            <ns3:hr>71</ns3:hr>
            <ns3:cad>0</ns3:cad>
          </ns3:TrackPointExtension>
        </extensions>
      </trkpt>
      <trkpt lat="43.47184519283473491668701171875" lon="1.43205410800874233245849609375">
        <ele>253.399993896484375</ele>
        <time>2026-08-05T10:21:08.000Z</time>
        <extensions>
          <ns3:TrackPointExtension>
            <ns3:hr>71</ns3:hr>
            <ns3:cad>0</ns3:cad>
          </ns3:TrackPointExtension>
        </extensions>
      </trkpt>
      <trkpt lat="43.47184519283473491668701171875" lon="1.43205410800874233245849609375">
        <ele>253.600006103515625</ele>
        <time>2026-08-05T10:21:09.000Z</time>
        <extensions>
          <ns3:TrackPointExtension>
            <ns3:hr>71</ns3:hr>
            <ns3:cad>0</ns3:cad>
          </ns3:TrackPointExtension>
        </extensions>
      </trkpt>
      <trkpt lat="43.47184519283473491668701171875" lon="1.43205410800874233245849609375">
        <ele>253.399993896484375</ele>
        <time>2026-08-05T10:21:10.000Z</time>
        <extensions>
          <ns3:TrackPointExtension>
            <ns3:hr>70</ns3:hr>
            <ns3:cad>0</ns3:cad>
          </ns3:TrackPointExtension>
        </extensions>
      </trkpt>
      <trkpt lat="43.47184519283473491668701171875" lon="1.43205410800874233245849609375">
        <ele>253.399993896484375</ele>
        <time>2026-08-05T10:21:11.000Z</time>
        <extensions>
          <ns3:TrackPointExtension>
            <ns3:hr>71</ns3:hr>
            <ns3:cad>0</ns3:cad>
          </ns3:TrackPointExtension>
        </extensions>
      </trkpt>
      <trkpt lat="43.47184519283473491668701171875" lon="1.43205410800874233245849609375">
        <ele>253.399993896484375</ele>
        <time>2026-08-05T10:21:12.000Z</time>
        <extensions>
          <ns3:TrackPointExtension>
            <ns3:hr>71</ns3:hr>
            <ns3:cad>0</ns3:cad>
          </ns3:TrackPointExtension>
        </extensions>
      </trkpt>
      <trkpt lat="43.47184519283473491668701171875" lon="1.43205410800874233245849609375">
        <ele>253.600006103515625</ele>
        <time>2026-08-05T10:21:13.000Z</time>
        <extensions>
          <ns3:TrackPointExtension>
            <ns3:hr>70</ns3:hr>
            <ns3:cad>0</ns3:cad>
          </ns3:TrackPointExtension>
        </extensions>
      </trkpt>
      <trkpt lat="43.47184519283473491668701171875" lon="1.43205410800874233245849609375">
        <ele>253.600006103515625</ele>
        <time>2026-08-05T10:21:14.000Z</time>
        <extensions>
          <ns3:TrackPointExtension>
            <ns3:hr>71</ns3:hr>
            <ns3:cad>0</ns3:cad>
          </ns3:TrackPointExtension>
        </extensions>
      </trkpt>
      <trkpt lat="43.47184519283473491668701171875" lon="1.43205410800874233245849609375">
        <ele>253.600006103515625</ele>
        <time>2026-08-05T10:21:15.000Z</time>
        <extensions>
          <ns3:TrackPointExtension>
            <ns3:hr>71</ns3:hr>
            <ns3:cad>0</ns3:cad>
          </ns3:TrackPointExtension>
        </extensions>
      </trkpt>
      <trkpt lat="43.47184519283473491668701171875" lon="1.43205410800874233245849609375">
        <ele>253.600006103515625</ele>
        <time>2026-08-05T10:21:16.000Z</time>
        <extensions>
          <ns3:TrackPointExtension>
            <ns3:hr>71</ns3:hr>
            <ns3:cad>0</ns3:cad>
          </ns3:TrackPointExtension>
        </extensions>
      </trkpt>
      <trkpt lat="43.47184519283473491668701171875" lon="1.43205410800874233245849609375">
        <ele>253.600006103515625</ele>
        <time>2026-08-05T10:21:17.000Z</time>
        <extensions>
          <ns3:TrackPointExtension>
            <ns3:hr>71</ns3:hr>
            <ns3:cad>0</ns3:cad>
          </ns3:TrackPointExtension>
        </extensions>
      </trkpt>
      <trkpt lat="43.47184519283473491668701171875" lon="1.43205410800874233245849609375">
        <ele>253.600006103515625</ele>
        <time>2026-08-05T10:21:18.000Z</time>
        <extensions>
          <ns3:TrackPointExtension>
            <ns3:hr>71</ns3:hr>
            <ns3:cad>0</ns3:cad>
          </ns3:TrackPointExtension>
        </extensions>
      </trkpt>
      <trkpt lat="43.47184519283473491668701171875" lon="1.43205410800874233245849609375">
        <ele>253.600006103515625</ele>
        <time>2026-08-05T10:21:19.000Z</time>
        <extensions>
          <ns3:TrackPointExtension>
            <ns3:hr>71</ns3:hr>
            <ns3:cad>0</ns3:cad>
          </ns3:TrackPointExtension>
        </extensions>
      </trkpt>
      <trkpt lat="43.47184519283473491668701171875" lon="1.43205410800874233245849609375">
        <ele>253.600006103515625</ele>
        <time>2026-08-05T10:21:20.000Z</time>
        <extensions>
          <ns3:TrackPointExtension>
            <ns3:hr>69</ns3:hr>
            <ns3:cad>0</ns3:cad>
          </ns3:TrackPointExtension>
        </extensions>
      </trkpt>
      <trkpt lat="43.47184519283473491668701171875" lon="1.43205410800874233245849609375">
        <ele>253.600006103515625</ele>
        <time>2026-08-05T10:21:21.000Z</time>
        <extensions>
          <ns3:TrackPointExtension>
            <ns3:hr>67</ns3:hr>
            <ns3:cad>0</ns3:cad>
          </ns3:TrackPointExtension>
        </extensions>
      </trkpt>
      <trkpt lat="43.47184519283473491668701171875" lon="1.43205410800874233245849609375">
        <ele>253.600006103515625</ele>
        <time>2026-08-05T10:21:22.000Z</time>
        <extensions>
          <ns3:TrackPointExtension>
            <ns3:hr>66</ns3:hr>
            <ns3:cad>0</ns3:cad>
          </ns3:TrackPointExtension>
        </extensions>
      </trkpt>
      <trkpt lat="43.47184519283473491668701171875" lon="1.43205410800874233245849609375">
        <ele>253.600006103515625</ele>
        <time>2026-08-05T10:21:23.000Z</time>
        <extensions>
          <ns3:TrackPointExtension>
            <ns3:hr>67</ns3:hr>
            <ns3:cad>0</ns3:cad>
          </ns3:TrackPointExtension>
        </extensions>
      </trkpt>
      <trkpt lat="43.47184519283473491668701171875" lon="1.43205410800874233245849609375">
        <ele>253.399993896484375</ele>
        <time>2026-08-05T10:21:24.000Z</time>
        <extensions>
          <ns3:TrackPointExtension>
            <ns3:hr>67</ns3:hr>
            <ns3:cad>0</ns3:cad>
          </ns3:TrackPointExtension>
        </extensions>
      </trkpt>
      <trkpt lat="43.47184519283473491668701171875" lon="1.43205410800874233245849609375">
        <ele>253.399993896484375</ele>
        <time>2026-08-05T10:21:25.000Z</time>
        <extensions>
          <ns3:TrackPointExtension>
            <ns3:hr>67</ns3:hr>
            <ns3:cad>0</ns3:cad>
          </ns3:TrackPointExtension>
        </extensions>
      </trkpt>
      <trkpt lat="43.47184519283473491668701171875" lon="1.43205410800874233245849609375">
        <ele>253.399993896484375</ele>
        <time>2026-08-05T10:21:26.000Z</time>
        <extensions>
          <ns3:TrackPointExtension>
            <ns3:hr>67</ns3:hr>
            <ns3:cad>0</ns3:cad>
          </ns3:TrackPointExtension>
        </extensions>
      </trkpt>
      <trkpt lat="43.47184519283473491668701171875" lon="1.43205410800874233245849609375">
        <ele>253.399993896484375</ele>
        <time>2026-08-05T10:21:27.000Z</time>
        <extensions>
          <ns3:TrackPointExtension>
            <ns3:hr>67</ns3:hr>
            <ns3:cad>0</ns3:cad>
          </ns3:TrackPointExtension>
        </extensions>
      </trkpt>
      <trkpt lat="43.47184519283473491668701171875" lon="1.43205410800874233245849609375">
        <ele>253.399993896484375</ele>
        <time>2026-08-05T10:21:28.000Z</time>
        <extensions>
          <ns3:TrackPointExtension>
            <ns3:hr>66</ns3:hr>
            <ns3:cad>0</ns3:cad>
          </ns3:TrackPointExtension>
        </extensions>
      </trkpt>
      <trkpt lat="43.47184519283473491668701171875" lon="1.43205410800874233245849609375">
        <ele>253.399993896484375</ele>
        <time>2026-08-05T10:21:29.000Z</time>
        <extensions>
          <ns3:TrackPointExtension>
            <ns3:hr>66</ns3:hr>
            <ns3:cad>0</ns3:cad>
          </ns3:TrackPointExtension>
        </extensions>
      </trkpt>
      <trkpt lat="43.47184519283473491668701171875" lon="1.43205410800874233245849609375">
        <ele>253.399993896484375</ele>
        <time>2026-08-05T10:21:30.000Z</time>
        <extensions>
          <ns3:TrackPointExtension>
            <ns3:hr>67</ns3:hr>
            <ns3:cad>0</ns3:cad>
          </ns3:TrackPointExtension>
        </extensions>
      </trkpt>
      <trkpt lat="43.47184519283473491668701171875" lon="1.43205410800874233245849609375">
        <ele>253.399993896484375</ele>
        <time>2026-08-05T10:21:31.000Z</time>
        <extensions>
          <ns3:TrackPointExtension>
            <ns3:hr>67</ns3:hr>
            <ns3:cad>0</ns3:cad>
          </ns3:TrackPointExtension>
        </extensions>
      </trkpt>
      <trkpt lat="43.47184519283473491668701171875" lon="1.43205410800874233245849609375">
        <ele>253.399993896484375</ele>
        <time>2026-08-05T10:21:32.000Z</time>
        <extensions>
          <ns3:TrackPointExtension>
            <ns3:hr>67</ns3:hr>
            <ns3:cad>0</ns3:cad>
          </ns3:TrackPointExtension>
        </extensions>
      </trkpt>
      <trkpt lat="43.47184519283473491668701171875" lon="1.43205410800874233245849609375">
        <ele>253.399993896484375</ele>
        <time>2026-08-05T10:21:33.000Z</time>
        <extensions>
          <ns3:TrackPointExtension>
            <ns3:hr>67</ns3:hr>
            <ns3:cad>0</ns3:cad>
          </ns3:TrackPointExtension>
        </extensions>
      </trkpt>
      <trkpt lat="43.47184519283473491668701171875" lon="1.43205410800874233245849609375">
        <ele>253.399993896484375</ele>
        <time>2026-08-05T10:21:34.000Z</time>
        <extensions>
          <ns3:TrackPointExtension>
            <ns3:hr>67</ns3:hr>
            <ns3:cad>0</ns3:cad>
          </ns3:TrackPointExtension>
        </extensions>
      </trkpt>
      <trkpt lat="43.47184519283473491668701171875" lon="1.43205410800874233245849609375">
        <ele>253.399993896484375</ele>
        <time>2026-08-05T10:21:35.000Z</time>
        <extensions>
          <ns3:TrackPointExtension>
            <ns3:hr>66</ns3:hr>
            <ns3:cad>0</ns3:cad>
          </ns3:TrackPointExtension>
        </extensions>
      </trkpt>
      <trkpt lat="43.47184519283473491668701171875" lon="1.43205410800874233245849609375">
        <ele>253.399993896484375</ele>
        <time>2026-08-05T10:21:36.000Z</time>
        <extensions>
          <ns3:TrackPointExtension>
            <ns3:hr>66</ns3:hr>
            <ns3:cad>0</ns3:cad>
          </ns3:TrackPointExtension>
        </extensions>
      </trkpt>
      <trkpt lat="43.47184519283473491668701171875" lon="1.43205410800874233245849609375">
        <ele>253.399993896484375</ele>
        <time>2026-08-05T10:21:37.000Z</time>
        <extensions>
          <ns3:TrackPointExtension>
            <ns3:hr>66</ns3:hr>
            <ns3:cad>0</ns3:cad>
          </ns3:TrackPointExtension>
        </extensions>
      </trkpt>
      <trkpt lat="43.47184770740568637847900390625" lon="1.43205645494163036346435546875">
        <ele>253.399993896484375</ele>
        <time>2026-08-05T10:21:38.000Z</time>
        <extensions>
          <ns3:TrackPointExtension>
            <ns3:hr>66</ns3:hr>
            <ns3:cad>0</ns3:cad>
          </ns3:TrackPointExtension>
        </extensions>
      </trkpt>
      <trkpt lat="43.4718476235866546630859375" lon="1.432058550417423248291015625">
        <ele>253.399993896484375</ele>
        <time>2026-08-05T10:21:39.000Z</time>
        <extensions>
          <ns3:TrackPointExtension>
            <ns3:hr>67</ns3:hr>
            <ns3:cad>0</ns3:cad>
          </ns3:TrackPointExtension>
        </extensions>
      </trkpt>
      <trkpt lat="43.47184695303440093994140625" lon="1.43205997534096240997314453125">
        <ele>253.399993896484375</ele>
        <time>2026-08-05T10:21:40.000Z</time>
        <extensions>
          <ns3:TrackPointExtension>
            <ns3:hr>66</ns3:hr>
            <ns3:cad>0</ns3:cad>
          </ns3:TrackPointExtension>
        </extensions>
      </trkpt>
      <trkpt lat="43.47184603102505207061767578125" lon="1.43206953071057796478271484375">
        <ele>253.399993896484375</ele>
        <time>2026-08-05T10:21:41.000Z</time>
        <extensions>
          <ns3:TrackPointExtension>
            <ns3:hr>66</ns3:hr>
            <ns3:cad>0</ns3:cad>
          </ns3:TrackPointExtension>
        </extensions>
      </trkpt>
      <trkpt lat="43.471846282482147216796875" lon="1.432071626186370849609375">
        <ele>253.399993896484375</ele>
        <time>2026-08-05T10:21:42.000Z</time>
        <extensions>
          <ns3:TrackPointExtension>
            <ns3:hr>67</ns3:hr>
            <ns3:cad>0</ns3:cad>
          </ns3:TrackPointExtension>
        </extensions>
      </trkpt>
      <trkpt lat="43.4718395769596099853515625" lon="1.43206969834864139556884765625">
        <ele>253.399993896484375</ele>
        <time>2026-08-05T10:21:43.000Z</time>
        <extensions>
          <ns3:TrackPointExtension>
            <ns3:hr>66</ns3:hr>
            <ns3:cad>0</ns3:cad>
          </ns3:TrackPointExtension>
        </extensions>
      </trkpt>
      <trkpt lat="43.471843264997005462646484375" lon="1.43207506276667118072509765625">
        <ele>253.399993896484375</ele>
        <time>2026-08-05T10:21:44.000Z</time>
        <extensions>
          <ns3:TrackPointExtension>
            <ns3:hr>66</ns3:hr>
            <ns3:cad>0</ns3:cad>
          </ns3:TrackPointExtension>
        </extensions>
      </trkpt>
      <trkpt lat="43.47184435464441776275634765625" lon="1.432075314223766326904296875">
        <ele>253.399993896484375</ele>
        <time>2026-08-05T10:21:45.000Z</time>
        <extensions>
          <ns3:TrackPointExtension>
            <ns3:hr>65</ns3:hr>
            <ns3:cad>0</ns3:cad>
          </ns3:TrackPointExtension>
        </extensions>
      </trkpt>
      <trkpt lat="43.47184435464441776275634765625" lon="1.43207539804279804229736328125">
        <ele>253.399993896484375</ele>
        <time>2026-08-05T10:21:46.000Z</time>
        <extensions>
          <ns3:TrackPointExtension>
            <ns3:hr>65</ns3:hr>
            <ns3:cad>0</ns3:cad>
          </ns3:TrackPointExtension>
        </extensions>
      </trkpt>
      <trkpt lat="43.47184435464441776275634765625" lon="1.43207539804279804229736328125">
        <ele>253.399993896484375</ele>
        <time>2026-08-05T10:21:47.000Z</time>
        <extensions>
          <ns3:TrackPointExtension>
            <ns3:hr>65</ns3:hr>
            <ns3:cad>0</ns3:cad>
          </ns3:TrackPointExtension>
        </extensions>
      </trkpt>
      <trkpt lat="43.47184435464441776275634765625" lon="1.43207539804279804229736328125">
        <ele>253.399993896484375</ele>
        <time>2026-08-05T10:21:48.000Z</time>
        <extensions>
          <ns3:TrackPointExtension>
            <ns3:hr>66</ns3:hr>
            <ns3:cad>0</ns3:cad>
          </ns3:TrackPointExtension>
        </extensions>
      </trkpt>
      <trkpt lat="43.47184435464441776275634765625" lon="1.43207539804279804229736328125">
        <ele>253.1999969482421875</ele>
        <time>2026-08-05T10:21:49.000Z</time>
        <extensions>
          <ns3:TrackPointExtension>
            <ns3:hr>66</ns3:hr>
            <ns3:cad>0</ns3:cad>
          </ns3:TrackPointExtension>
        </extensions>
      </trkpt>
      <trkpt lat="43.47184435464441776275634765625" lon="1.43207539804279804229736328125">
        <ele>253.1999969482421875</ele>
        <time>2026-08-05T10:21:50.000Z</time>
        <extensions>
          <ns3:TrackPointExtension>
            <ns3:hr>67</ns3:hr>
            <ns3:cad>0</ns3:cad>
          </ns3:TrackPointExtension>
        </extensions>
      </trkpt>
      <trkpt lat="43.4718441031873226165771484375" lon="1.4320754818618297576904296875">
        <ele>253.1999969482421875</ele>
        <time>2026-08-05T10:21:51.000Z</time>
        <extensions>
          <ns3:TrackPointExtension>
            <ns3:hr>68</ns3:hr>
            <ns3:cad>0</ns3:cad>
          </ns3:TrackPointExtension>
        </extensions>
      </trkpt>
      <trkpt lat="43.47184334881603717803955078125" lon="1.43207489512860774993896484375">
        <ele>253.1999969482421875</ele>
        <time>2026-08-05T10:21:52.000Z</time>
        <extensions>
          <ns3:TrackPointExtension>
            <ns3:hr>68</ns3:hr>
            <ns3:cad>0</ns3:cad>
          </ns3:TrackPointExtension>
        </extensions>
      </trkpt>
      <trkpt lat="43.471844606101512908935546875" lon="1.43207388930022716522216796875">
        <ele>253.1999969482421875</ele>
        <time>2026-08-05T10:21:53.000Z</time>
        <extensions>
          <ns3:TrackPointExtension>
            <ns3:hr>68</ns3:hr>
            <ns3:cad>0</ns3:cad>
          </ns3:TrackPointExtension>
        </extensions>
      </trkpt>
      <trkpt lat="43.47184435464441776275634765625" lon="1.43207539804279804229736328125">
        <ele>253.1999969482421875</ele>
        <time>2026-08-05T10:21:54.000Z</time>
        <extensions>
          <ns3:TrackPointExtension>
            <ns3:hr>67</ns3:hr>
            <ns3:cad>0</ns3:cad>
          </ns3:TrackPointExtension>
        </extensions>
      </trkpt>
      <trkpt lat="43.47184435464441776275634765625" lon="1.43207539804279804229736328125">
        <ele>253.399993896484375</ele>
        <time>2026-08-05T10:21:55.000Z</time>
        <extensions>
          <ns3:TrackPointExtension>
            <ns3:hr>68</ns3:hr>
            <ns3:cad>0</ns3:cad>
          </ns3:TrackPointExtension>
        </extensions>
      </trkpt>
      <trkpt lat="43.47184435464441776275634765625" lon="1.43207539804279804229736328125">
        <ele>253.399993896484375</ele>
        <time>2026-08-05T10:21:56.000Z</time>
        <extensions>
          <ns3:TrackPointExtension>
            <ns3:hr>68</ns3:hr>
            <ns3:cad>0</ns3:cad>
          </ns3:TrackPointExtension>
        </extensions>
      </trkpt>
      <trkpt lat="43.47184435464441776275634765625" lon="1.43207539804279804229736328125">
        <ele>253.399993896484375</ele>
        <time>2026-08-05T10:21:57.000Z</time>
        <extensions>
          <ns3:TrackPointExtension>
            <ns3:hr>68</ns3:hr>
            <ns3:cad>0</ns3:cad>
          </ns3:TrackPointExtension>
        </extensions>
      </trkpt>
      <trkpt lat="43.47184435464441776275634765625" lon="1.43207539804279804229736328125">
        <ele>253.399993896484375</ele>
        <time>2026-08-05T10:21:58.000Z</time>
        <extensions>
          <ns3:TrackPointExtension>
            <ns3:hr>68</ns3:hr>
            <ns3:cad>0</ns3:cad>
          </ns3:TrackPointExtension>
        </extensions>
      </trkpt>
      <trkpt lat="43.47184435464441776275634765625" lon="1.43207539804279804229736328125">
        <ele>253.399993896484375</ele>
        <time>2026-08-05T10:21:59.000Z</time>
        <extensions>
          <ns3:TrackPointExtension>
            <ns3:hr>67</ns3:hr>
            <ns3:cad>0</ns3:cad>
          </ns3:TrackPointExtension>
        </extensions>
      </trkpt>
      <trkpt lat="43.47184435464441776275634765625" lon="1.43207539804279804229736328125">
        <ele>253.399993896484375</ele>
        <time>2026-08-05T10:22:00.000Z</time>
        <extensions>
          <ns3:TrackPointExtension>
            <ns3:hr>68</ns3:hr>
            <ns3:cad>0</ns3:cad>
          </ns3:TrackPointExtension>
        </extensions>
      </trkpt>
      <trkpt lat="43.47184435464441776275634765625" lon="1.43207539804279804229736328125">
        <ele>253.399993896484375</ele>
        <time>2026-08-05T10:22:01.000Z</time>
        <extensions>
          <ns3:TrackPointExtension>
            <ns3:hr>68</ns3:hr>
            <ns3:cad>0</ns3:cad>
          </ns3:TrackPointExtension>
        </extensions>
      </trkpt>
      <trkpt lat="43.47184435464441776275634765625" lon="1.43207539804279804229736328125">
        <ele>253.399993896484375</ele>
        <time>2026-08-05T10:22:02.000Z</time>
        <extensions>
          <ns3:TrackPointExtension>
            <ns3:hr>68</ns3:hr>
            <ns3:cad>0</ns3:cad>
          </ns3:TrackPointExtension>
        </extensions>
      </trkpt>
      <trkpt lat="43.47184435464441776275634765625" lon="1.43207539804279804229736328125">
        <ele>253.600006103515625</ele>
        <time>2026-08-05T10:22:03.000Z</time>
        <extensions>
          <ns3:TrackPointExtension>
            <ns3:hr>68</ns3:hr>
            <ns3:cad>0</ns3:cad>
          </ns3:TrackPointExtension>
        </extensions>
      </trkpt>
      <trkpt lat="43.4718464501202106475830078125" lon="1.43206961452960968017578125">
        <ele>253.600006103515625</ele>
        <time>2026-08-05T10:22:04.000Z</time>
        <extensions>
          <ns3:TrackPointExtension>
            <ns3:hr>68</ns3:hr>
            <ns3:cad>0</ns3:cad>
          </ns3:TrackPointExtension>
        </extensions>
      </trkpt>
      <trkpt lat="43.4718477912247180938720703125" lon="1.43206701613962650299072265625">
        <ele>253.600006103515625</ele>
        <time>2026-08-05T10:22:05.000Z</time>
        <extensions>
          <ns3:TrackPointExtension>
            <ns3:hr>68</ns3:hr>
            <ns3:cad>0</ns3:cad>
          </ns3:TrackPointExtension>
        </extensions>
      </trkpt>
      <trkpt lat="43.4718487970530986785888671875" lon="1.432067267596721649169921875">
        <ele>253.8000030517578125</ele>
        <time>2026-08-05T10:22:06.000Z</time>
        <extensions>
          <ns3:TrackPointExtension>
            <ns3:hr>68</ns3:hr>
            <ns3:cad>0</ns3:cad>
          </ns3:TrackPointExtension>
        </extensions>
      </trkpt>
      <trkpt lat="43.47185189835727214813232421875" lon="1.43206265754997730255126953125">
        <ele>253.8000030517578125</ele>
        <time>2026-08-05T10:22:07.000Z</time>
        <extensions>
          <ns3:TrackPointExtension>
            <ns3:hr>68</ns3:hr>
            <ns3:cad>0</ns3:cad>
          </ns3:TrackPointExtension>
        </extensions>
      </trkpt>
      <trkpt lat="43.4718528203666210174560546875" lon="1.43205846659839153289794921875">
        <ele>253.8000030517578125</ele>
        <time>2026-08-05T10:22:08.000Z</time>
        <extensions>
          <ns3:TrackPointExtension>
            <ns3:hr>67</ns3:hr>
            <ns3:cad>0</ns3:cad>
          </ns3:TrackPointExtension>
        </extensions>
      </trkpt>
      <trkpt lat="43.4718528203666210174560546875" lon="1.432055532932281494140625">
        <ele>253.8000030517578125</ele>
        <time>2026-08-05T10:22:09.000Z</time>
        <extensions>
          <ns3:TrackPointExtension>
            <ns3:hr>68</ns3:hr>
            <ns3:cad>0</ns3:cad>
          </ns3:TrackPointExtension>
        </extensions>
      </trkpt>
      <trkpt lat="43.47185357473790645599365234375" lon="1.4320553652942180633544921875">
        <ele>253.8000030517578125</ele>
        <time>2026-08-05T10:22:10.000Z</time>
        <extensions>
          <ns3:TrackPointExtension>
            <ns3:hr>68</ns3:hr>
            <ns3:cad>0</ns3:cad>
          </ns3:TrackPointExtension>
        </extensions>
      </trkpt>
      <trkpt lat="43.47185273654758930206298828125" lon="1.4320560358464717864990234375">
        <ele>253.600006103515625</ele>
        <time>2026-08-05T10:22:11.000Z</time>
        <extensions>
          <ns3:TrackPointExtension>
            <ns3:hr>69</ns3:hr>
            <ns3:cad>0</ns3:cad>
          </ns3:TrackPointExtension>
        </extensions>
      </trkpt>
      <trkpt lat="43.4718521498143672943115234375" lon="1.43205293454229831695556640625">
        <ele>253.600006103515625</ele>
        <time>2026-08-05T10:22:12.000Z</time>
        <extensions>
          <ns3:TrackPointExtension>
            <ns3:hr>70</ns3:hr>
            <ns3:cad>0</ns3:cad>
          </ns3:TrackPointExtension>
        </extensions>
      </trkpt>
      <trkpt lat="43.47185122780501842498779296875" lon="1.4320500008761882781982421875">
        <ele>253.600006103515625</ele>
        <time>2026-08-05T10:22:13.000Z</time>
        <extensions>
          <ns3:TrackPointExtension>
            <ns3:hr>70</ns3:hr>
            <ns3:cad>0</ns3:cad>
          </ns3:TrackPointExtension>
        </extensions>
      </trkpt>
      <trkpt lat="43.47185307182371616363525390625" lon="1.43204840831458568572998046875">
        <ele>253.399993896484375</ele>
        <time>2026-08-05T10:22:14.000Z</time>
        <extensions>
          <ns3:TrackPointExtension>
            <ns3:hr>70</ns3:hr>
            <ns3:cad>0</ns3:cad>
          </ns3:TrackPointExtension>
        </extensions>
      </trkpt>
      <trkpt lat="43.47185256890952587127685546875" lon="1.432049833238124847412109375">
        <ele>253.399993896484375</ele>
        <time>2026-08-05T10:22:15.000Z</time>
        <extensions>
          <ns3:TrackPointExtension>
            <ns3:hr>71</ns3:hr>
            <ns3:cad>0</ns3:cad>
          </ns3:TrackPointExtension>
        </extensions>
      </trkpt>
      <trkpt lat="43.47184988670051097869873046875" lon="1.432053856551647186279296875">
        <ele>253.399993896484375</ele>
        <time>2026-08-05T10:22:16.000Z</time>
        <extensions>
          <ns3:TrackPointExtension>
            <ns3:hr>70</ns3:hr>
            <ns3:cad>0</ns3:cad>
          </ns3:TrackPointExtension>
        </extensions>
      </trkpt>
      <trkpt lat="43.47184821031987667083740234375" lon="1.43205486238002777099609375">
        <ele>253.600006103515625</ele>
        <time>2026-08-05T10:22:17.000Z</time>
        <extensions>
          <ns3:TrackPointExtension>
            <ns3:hr>70</ns3:hr>
            <ns3:cad>0</ns3:cad>
          </ns3:TrackPointExtension>
        </extensions>
      </trkpt>
      <trkpt lat="43.4718447737395763397216796875" lon="1.4320577122271060943603515625">
        <ele>253.600006103515625</ele>
        <time>2026-08-05T10:22:18.000Z</time>
        <extensions>
          <ns3:TrackPointExtension>
            <ns3:hr>70</ns3:hr>
            <ns3:cad>0</ns3:cad>
          </ns3:TrackPointExtension>
        </extensions>
      </trkpt>
      <trkpt lat="43.47184234298765659332275390625" lon="1.43205863423645496368408203125">
        <ele>253.600006103515625</ele>
        <time>2026-08-05T10:22:19.000Z</time>
        <extensions>
          <ns3:TrackPointExtension>
            <ns3:hr>69</ns3:hr>
            <ns3:cad>0</ns3:cad>
          </ns3:TrackPointExtension>
        </extensions>
      </trkpt>
      <trkpt lat="43.4718400798738002777099609375" lon="1.4320684410631656646728515625">
        <ele>253.600006103515625</ele>
        <time>2026-08-05T10:22:20.000Z</time>
        <extensions>
          <ns3:TrackPointExtension>
            <ns3:hr>69</ns3:hr>
            <ns3:cad>0</ns3:cad>
          </ns3:TrackPointExtension>
        </extensions>
      </trkpt>
      <trkpt lat="43.47184435464441776275634765625" lon="1.43207539804279804229736328125">
        <ele>253.600006103515625</ele>
        <time>2026-08-05T10:22:21.000Z</time>
        <extensions>
          <ns3:TrackPointExtension>
            <ns3:hr>69</ns3:hr>
            <ns3:cad>0</ns3:cad>
          </ns3:TrackPointExtension>
        </extensions>
      </trkpt>
      <trkpt lat="43.47184435464441776275634765625" lon="1.43207539804279804229736328125">
        <ele>253.600006103515625</ele>
        <time>2026-08-05T10:22:22.000Z</time>
        <extensions>
          <ns3:TrackPointExtension>
            <ns3:hr>69</ns3:hr>
            <ns3:cad>0</ns3:cad>
          </ns3:TrackPointExtension>
        </extensions>
      </trkpt>
      <trkpt lat="43.47184435464441776275634765625" lon="1.43207539804279804229736328125">
        <ele>253.600006103515625</ele>
        <time>2026-08-05T10:22:23.000Z</time>
        <extensions>
          <ns3:TrackPointExtension>
            <ns3:hr>69</ns3:hr>
            <ns3:cad>0</ns3:cad>
          </ns3:TrackPointExtension>
        </extensions>
      </trkpt>
      <trkpt lat="43.47184435464441776275634765625" lon="1.43207539804279804229736328125">
        <ele>253.600006103515625</ele>
        <time>2026-08-05T10:22:24.000Z</time>
        <extensions>
          <ns3:TrackPointExtension>
            <ns3:hr>69</ns3:hr>
            <ns3:cad>0</ns3:cad>
          </ns3:TrackPointExtension>
        </extensions>
      </trkpt>
      <trkpt lat="43.47184435464441776275634765625" lon="1.43207539804279804229736328125">
        <ele>253.600006103515625</ele>
        <time>2026-08-05T10:22:25.000Z</time>
        <extensions>
          <ns3:TrackPointExtension>
            <ns3:hr>69</ns3:hr>
            <ns3:cad>0</ns3:cad>
          </ns3:TrackPointExtension>
        </extensions>
      </trkpt>
      <trkpt lat="43.47184435464441776275634765625" lon="1.43207539804279804229736328125">
        <ele>253.600006103515625</ele>
        <time>2026-08-05T10:22:26.000Z</time>
        <extensions>
          <ns3:TrackPointExtension>
            <ns3:hr>69</ns3:hr>
            <ns3:cad>0</ns3:cad>
          </ns3:TrackPointExtension>
        </extensions>
      </trkpt>
      <trkpt lat="43.47184435464441776275634765625" lon="1.43207539804279804229736328125">
        <ele>253.600006103515625</ele>
        <time>2026-08-05T10:22:27.000Z</time>
        <extensions>
          <ns3:TrackPointExtension>
            <ns3:hr>69</ns3:hr>
            <ns3:cad>0</ns3:cad>
          </ns3:TrackPointExtension>
        </extensions>
      </trkpt>
      <trkpt lat="43.47184435464441776275634765625" lon="1.43207539804279804229736328125">
        <ele>253.600006103515625</ele>
        <time>2026-08-05T10:22:28.000Z</time>
        <extensions>
          <ns3:TrackPointExtension>
            <ns3:hr>68</ns3:hr>
            <ns3:cad>0</ns3:cad>
          </ns3:TrackPointExtension>
        </extensions>
      </trkpt>
      <trkpt lat="43.47184435464441776275634765625" lon="1.43207539804279804229736328125">
        <ele>253.600006103515625</ele>
        <time>2026-08-05T10:22:29.000Z</time>
        <extensions>
          <ns3:TrackPointExtension>
            <ns3:hr>68</ns3:hr>
            <ns3:cad>0</ns3:cad>
          </ns3:TrackPointExtension>
        </extensions>
      </trkpt>
      <trkpt lat="43.47184435464441776275634765625" lon="1.43207539804279804229736328125">
        <ele>253.600006103515625</ele>
        <time>2026-08-05T10:22:30.000Z</time>
        <extensions>
          <ns3:TrackPointExtension>
            <ns3:hr>68</ns3:hr>
            <ns3:cad>0</ns3:cad>
          </ns3:TrackPointExtension>
        </extensions>
      </trkpt>
      <trkpt lat="43.47184435464441776275634765625" lon="1.43207539804279804229736328125">
        <ele>253.600006103515625</ele>
        <time>2026-08-05T10:22:31.000Z</time>
        <extensions>
          <ns3:TrackPointExtension>
            <ns3:hr>69</ns3:hr>
            <ns3:cad>0</ns3:cad>
          </ns3:TrackPointExtension>
        </extensions>
      </trkpt>
      <trkpt lat="43.47184435464441776275634765625" lon="1.43207539804279804229736328125">
        <ele>253.600006103515625</ele>
        <time>2026-08-05T10:22:32.000Z</time>
        <extensions>
          <ns3:TrackPointExtension>
            <ns3:hr>68</ns3:hr>
            <ns3:cad>0</ns3:cad>
          </ns3:TrackPointExtension>
        </extensions>
      </trkpt>
      <trkpt lat="43.47184435464441776275634765625" lon="1.43207539804279804229736328125">
        <ele>253.600006103515625</ele>
        <time>2026-08-05T10:22:33.000Z</time>
        <extensions>
          <ns3:TrackPointExtension>
            <ns3:hr>68</ns3:hr>
            <ns3:cad>0</ns3:cad>
          </ns3:TrackPointExtension>
        </extensions>
      </trkpt>
      <trkpt lat="43.47184435464441776275634765625" lon="1.43207539804279804229736328125">
        <ele>253.600006103515625</ele>
        <time>2026-08-05T10:22:34.000Z</time>
        <extensions>
          <ns3:TrackPointExtension>
            <ns3:hr>69</ns3:hr>
            <ns3:cad>0</ns3:cad>
          </ns3:TrackPointExtension>
        </extensions>
      </trkpt>
      <trkpt lat="43.47184435464441776275634765625" lon="1.43207539804279804229736328125">
        <ele>253.600006103515625</ele>
        <time>2026-08-05T10:22:35.000Z</time>
        <extensions>
          <ns3:TrackPointExtension>
            <ns3:hr>67</ns3:hr>
            <ns3:cad>0</ns3:cad>
          </ns3:TrackPointExtension>
        </extensions>
      </trkpt>
      <trkpt lat="43.47184435464441776275634765625" lon="1.43207539804279804229736328125">
        <ele>253.600006103515625</ele>
        <time>2026-08-05T10:22:36.000Z</time>
        <extensions>
          <ns3:TrackPointExtension>
            <ns3:hr>66</ns3:hr>
            <ns3:cad>0</ns3:cad>
          </ns3:TrackPointExtension>
        </extensions>
      </trkpt>
      <trkpt lat="43.47184435464441776275634765625" lon="1.43207539804279804229736328125">
        <ele>253.600006103515625</ele>
        <time>2026-08-05T10:22:37.000Z</time>
        <extensions>
          <ns3:TrackPointExtension>
            <ns3:hr>65</ns3:hr>
            <ns3:cad>0</ns3:cad>
          </ns3:TrackPointExtension>
        </extensions>
      </trkpt>
      <trkpt lat="43.47184435464441776275634765625" lon="1.43207539804279804229736328125">
        <ele>253.600006103515625</ele>
        <time>2026-08-05T10:22:38.000Z</time>
        <extensions>
          <ns3:TrackPointExtension>
            <ns3:hr>64</ns3:hr>
            <ns3:cad>0</ns3:cad>
          </ns3:TrackPointExtension>
        </extensions>
      </trkpt>
      <trkpt lat="43.47184435464441776275634765625" lon="1.43207539804279804229736328125">
        <ele>253.600006103515625</ele>
        <time>2026-08-05T10:22:39.000Z</time>
        <extensions>
          <ns3:TrackPointExtension>
            <ns3:hr>63</ns3:hr>
            <ns3:cad>0</ns3:cad>
          </ns3:TrackPointExtension>
        </extensions>
      </trkpt>
      <trkpt lat="43.47184435464441776275634765625" lon="1.43207539804279804229736328125">
        <ele>253.600006103515625</ele>
        <time>2026-08-05T10:22:40.000Z</time>
        <extensions>
          <ns3:TrackPointExtension>
            <ns3:hr>62</ns3:hr>
            <ns3:cad>0</ns3:cad>
          </ns3:TrackPointExtension>
        </extensions>
      </trkpt>
      <trkpt lat="43.47184435464441776275634765625" lon="1.43207539804279804229736328125">
        <ele>253.600006103515625</ele>
        <time>2026-08-05T10:22:41.000Z</time>
        <extensions>
          <ns3:TrackPointExtension>
            <ns3:hr>61</ns3:hr>
            <ns3:cad>0</ns3:cad>
          </ns3:TrackPointExtension>
        </extensions>
      </trkpt>
      <trkpt lat="43.47184435464441776275634765625" lon="1.43207539804279804229736328125">
        <ele>253.600006103515625</ele>
        <time>2026-08-05T10:22:42.000Z</time>
        <extensions>
          <ns3:TrackPointExtension>
            <ns3:hr>60</ns3:hr>
            <ns3:cad>0</ns3:cad>
          </ns3:TrackPointExtension>
        </extensions>
      </trkpt>
      <trkpt lat="43.47184435464441776275634765625" lon="1.43207539804279804229736328125">
        <ele>253.399993896484375</ele>
        <time>2026-08-05T10:22:43.000Z</time>
        <extensions>
          <ns3:TrackPointExtension>
            <ns3:hr>60</ns3:hr>
            <ns3:cad>0</ns3:cad>
          </ns3:TrackPointExtension>
        </extensions>
      </trkpt>
      <trkpt lat="43.47184435464441776275634765625" lon="1.43207539804279804229736328125">
        <ele>253.399993896484375</ele>
        <time>2026-08-05T10:22:44.000Z</time>
        <extensions>
          <ns3:TrackPointExtension>
            <ns3:hr>60</ns3:hr>
            <ns3:cad>0</ns3:cad>
          </ns3:TrackPointExtension>
        </extensions>
      </trkpt>
      <trkpt lat="43.47184435464441776275634765625" lon="1.43207539804279804229736328125">
        <ele>253.399993896484375</ele>
        <time>2026-08-05T10:22:45.000Z</time>
        <extensions>
          <ns3:TrackPointExtension>
            <ns3:hr>62</ns3:hr>
            <ns3:cad>0</ns3:cad>
          </ns3:TrackPointExtension>
        </extensions>
      </trkpt>
      <trkpt lat="43.47184435464441776275634765625" lon="1.43207539804279804229736328125">
        <ele>253.399993896484375</ele>
        <time>2026-08-05T10:22:46.000Z</time>
        <extensions>
          <ns3:TrackPointExtension>
            <ns3:hr>63</ns3:hr>
            <ns3:cad>0</ns3:cad>
          </ns3:TrackPointExtension>
        </extensions>
      </trkpt>
      <trkpt lat="43.47184435464441776275634765625" lon="1.43207539804279804229736328125">
        <ele>253.399993896484375</ele>
        <time>2026-08-05T10:22:47.000Z</time>
        <extensions>
          <ns3:TrackPointExtension>
            <ns3:hr>65</ns3:hr>
            <ns3:cad>0</ns3:cad>
          </ns3:TrackPointExtension>
        </extensions>
      </trkpt>
      <trkpt lat="43.47184435464441776275634765625" lon="1.43207539804279804229736328125">
        <ele>253.399993896484375</ele>
        <time>2026-08-05T10:22:48.000Z</time>
        <extensions>
          <ns3:TrackPointExtension>
            <ns3:hr>66</ns3:hr>
            <ns3:cad>0</ns3:cad>
          </ns3:TrackPointExtension>
        </extensions>
      </trkpt>
      <trkpt lat="43.47184435464441776275634765625" lon="1.43207539804279804229736328125">
        <ele>253.399993896484375</ele>
        <time>2026-08-05T10:22:49.000Z</time>
        <extensions>
          <ns3:TrackPointExtension>
            <ns3:hr>66</ns3:hr>
            <ns3:cad>0</ns3:cad>
          </ns3:TrackPointExtension>
        </extensions>
      </trkpt>
      <trkpt lat="43.47184435464441776275634765625" lon="1.43207539804279804229736328125">
        <ele>253.399993896484375</ele>
        <time>2026-08-05T10:22:50.000Z</time>
        <extensions>
          <ns3:TrackPointExtension>
            <ns3:hr>66</ns3:hr>
            <ns3:cad>0</ns3:cad>
          </ns3:TrackPointExtension>
        </extensions>
      </trkpt>
      <trkpt lat="43.47184435464441776275634765625" lon="1.43207539804279804229736328125">
        <ele>253.399993896484375</ele>
        <time>2026-08-05T10:22:51.000Z</time>
        <extensions>
          <ns3:TrackPointExtension>
            <ns3:hr>64</ns3:hr>
            <ns3:cad>0</ns3:cad>
          </ns3:TrackPointExtension>
        </extensions>
      </trkpt>
      <trkpt lat="43.47184435464441776275634765625" lon="1.43207539804279804229736328125">
        <ele>253.399993896484375</ele>
        <time>2026-08-05T10:22:52.000Z</time>
        <extensions>
          <ns3:TrackPointExtension>
            <ns3:hr>64</ns3:hr>
            <ns3:cad>0</ns3:cad>
          </ns3:TrackPointExtension>
        </extensions>
      </trkpt>
      <trkpt lat="43.47184435464441776275634765625" lon="1.43207539804279804229736328125">
        <ele>253.399993896484375</ele>
        <time>2026-08-05T10:22:53.000Z</time>
        <extensions>
          <ns3:TrackPointExtension>
            <ns3:hr>65</ns3:hr>
            <ns3:cad>0</ns3:cad>
          </ns3:TrackPointExtension>
        </extensions>
      </trkpt>
      <trkpt lat="43.47184435464441776275634765625" lon="1.43207539804279804229736328125">
        <ele>253.399993896484375</ele>
        <time>2026-08-05T10:22:54.000Z</time>
        <extensions>
          <ns3:TrackPointExtension>
            <ns3:hr>65</ns3:hr>
            <ns3:cad>0</ns3:cad>
          </ns3:TrackPointExtension>
        </extensions>
      </trkpt>
      <trkpt lat="43.47184435464441776275634765625" lon="1.43207539804279804229736328125">
        <ele>253.399993896484375</ele>
        <time>2026-08-05T10:22:55.000Z</time>
        <extensions>
          <ns3:TrackPointExtension>
            <ns3:hr>65</ns3:hr>
            <ns3:cad>0</ns3:cad>
          </ns3:TrackPointExtension>
        </extensions>
      </trkpt>
      <trkpt lat="43.47184435464441776275634765625" lon="1.43207539804279804229736328125">
        <ele>253.399993896484375</ele>
        <time>2026-08-05T10:22:56.000Z</time>
        <extensions>
          <ns3:TrackPointExtension>
            <ns3:hr>65</ns3:hr>
            <ns3:cad>0</ns3:cad>
          </ns3:TrackPointExtension>
        </extensions>
      </trkpt>
      <trkpt lat="43.47184435464441776275634765625" lon="1.43207539804279804229736328125">
        <ele>253.399993896484375</ele>
        <time>2026-08-05T10:22:57.000Z</time>
        <extensions>
          <ns3:TrackPointExtension>
            <ns3:hr>65</ns3:hr>
            <ns3:cad>0</ns3:cad>
          </ns3:TrackPointExtension>
        </extensions>
      </trkpt>
      <trkpt lat="43.47184435464441776275634765625" lon="1.43207539804279804229736328125">
        <ele>253.399993896484375</ele>
        <time>2026-08-05T10:22:58.000Z</time>
        <extensions>
          <ns3:TrackPointExtension>
            <ns3:hr>66</ns3:hr>
            <ns3:cad>0</ns3:cad>
          </ns3:TrackPointExtension>
        </extensions>
      </trkpt>
      <trkpt lat="43.47184435464441776275634765625" lon="1.43207539804279804229736328125">
        <ele>253.399993896484375</ele>
        <time>2026-08-05T10:22:59.000Z</time>
        <extensions>
          <ns3:TrackPointExtension>
            <ns3:hr>68</ns3:hr>
            <ns3:cad>0</ns3:cad>
          </ns3:TrackPointExtension>
        </extensions>
      </trkpt>
      <trkpt lat="43.47184435464441776275634765625" lon="1.43207539804279804229736328125">
        <ele>253.399993896484375</ele>
        <time>2026-08-05T10:23:00.000Z</time>
        <extensions>
          <ns3:TrackPointExtension>
            <ns3:hr>70</ns3:hr>
            <ns3:cad>0</ns3:cad>
          </ns3:TrackPointExtension>
        </extensions>
      </trkpt>
      <trkpt lat="43.47184435464441776275634765625" lon="1.43207539804279804229736328125">
        <ele>253.399993896484375</ele>
        <time>2026-08-05T10:23:01.000Z</time>
        <extensions>
          <ns3:TrackPointExtension>
            <ns3:hr>71</ns3:hr>
            <ns3:cad>0</ns3:cad>
          </ns3:TrackPointExtension>
        </extensions>
      </trkpt>
      <trkpt lat="43.47184435464441776275634765625" lon="1.43207539804279804229736328125">
        <ele>253.1999969482421875</ele>
        <time>2026-08-05T10:23:02.000Z</time>
        <extensions>
          <ns3:TrackPointExtension>
            <ns3:hr>71</ns3:hr>
            <ns3:cad>0</ns3:cad>
          </ns3:TrackPointExtension>
        </extensions>
      </trkpt>
      <trkpt lat="43.47184435464441776275634765625" lon="1.43207539804279804229736328125">
        <ele>253.1999969482421875</ele>
        <time>2026-08-05T10:23:03.000Z</time>
        <extensions>
          <ns3:TrackPointExtension>
            <ns3:hr>74</ns3:hr>
            <ns3:cad>0</ns3:cad>
          </ns3:TrackPointExtension>
        </extensions>
      </trkpt>
      <trkpt lat="43.47184435464441776275634765625" lon="1.43207539804279804229736328125">
        <ele>253.1999969482421875</ele>
        <time>2026-08-05T10:23:04.000Z</time>
        <extensions>
          <ns3:TrackPointExtension>
            <ns3:hr>75</ns3:hr>
            <ns3:cad>0</ns3:cad>
          </ns3:TrackPointExtension>
        </extensions>
      </trkpt>
      <trkpt lat="43.47184435464441776275634765625" lon="1.43207539804279804229736328125">
        <ele>253.1999969482421875</ele>
        <time>2026-08-05T10:23:05.000Z</time>
        <extensions>
          <ns3:TrackPointExtension>
            <ns3:hr>76</ns3:hr>
            <ns3:cad>0</ns3:cad>
          </ns3:TrackPointExtension>
        </extensions>
      </trkpt>
      <trkpt lat="43.47184435464441776275634765625" lon="1.43207539804279804229736328125">
        <ele>253.399993896484375</ele>
        <time>2026-08-05T10:23:06.000Z</time>
        <extensions>
          <ns3:TrackPointExtension>
            <ns3:hr>75</ns3:hr>
            <ns3:cad>0</ns3:cad>
          </ns3:TrackPointExtension>
        </extensions>
      </trkpt>
      <trkpt lat="43.47184435464441776275634765625" lon="1.43207539804279804229736328125">
        <ele>253.399993896484375</ele>
        <time>2026-08-05T10:23:07.000Z</time>
        <extensions>
          <ns3:TrackPointExtension>
            <ns3:hr>70</ns3:hr>
            <ns3:cad>0</ns3:cad>
          </ns3:TrackPointExtension>
        </extensions>
      </trkpt>
      <trkpt lat="43.47184435464441776275634765625" lon="1.43207539804279804229736328125">
        <ele>253.399993896484375</ele>
        <time>2026-08-05T10:23:08.000Z</time>
        <extensions>
          <ns3:TrackPointExtension>
            <ns3:hr>67</ns3:hr>
            <ns3:cad>0</ns3:cad>
          </ns3:TrackPointExtension>
        </extensions>
      </trkpt>
      <trkpt lat="43.47184435464441776275634765625" lon="1.43207539804279804229736328125">
        <ele>253.399993896484375</ele>
        <time>2026-08-05T10:23:09.000Z</time>
        <extensions>
          <ns3:TrackPointExtension>
            <ns3:hr>65</ns3:hr>
            <ns3:cad>0</ns3:cad>
          </ns3:TrackPointExtension>
        </extensions>
      </trkpt>
      <trkpt lat="43.47184435464441776275634765625" lon="1.43207539804279804229736328125">
        <ele>253.399993896484375</ele>
        <time>2026-08-05T10:23:10.000Z</time>
        <extensions>
          <ns3:TrackPointExtension>
            <ns3:hr>65</ns3:hr>
            <ns3:cad>0</ns3:cad>
          </ns3:TrackPointExtension>
        </extensions>
      </trkpt>
      <trkpt lat="43.47184435464441776275634765625" lon="1.43207539804279804229736328125">
        <ele>253.399993896484375</ele>
        <time>2026-08-05T10:23:11.000Z</time>
        <extensions>
          <ns3:TrackPointExtension>
            <ns3:hr>65</ns3:hr>
            <ns3:cad>0</ns3:cad>
          </ns3:TrackPointExtension>
        </extensions>
      </trkpt>
      <trkpt lat="43.47184435464441776275634765625" lon="1.43207539804279804229736328125">
        <ele>253.399993896484375</ele>
        <time>2026-08-05T10:23:12.000Z</time>
        <extensions>
          <ns3:TrackPointExtension>
            <ns3:hr>64</ns3:hr>
            <ns3:cad>0</ns3:cad>
          </ns3:TrackPointExtension>
        </extensions>
      </trkpt>
      <trkpt lat="43.47184435464441776275634765625" lon="1.43207539804279804229736328125">
        <ele>253.399993896484375</ele>
        <time>2026-08-05T10:23:13.000Z</time>
        <extensions>
          <ns3:TrackPointExtension>
            <ns3:hr>65</ns3:hr>
            <ns3:cad>0</ns3:cad>
          </ns3:TrackPointExtension>
        </extensions>
      </trkpt>
      <trkpt lat="43.47184435464441776275634765625" lon="1.43207539804279804229736328125">
        <ele>253.399993896484375</ele>
        <time>2026-08-05T10:23:14.000Z</time>
        <extensions>
          <ns3:TrackPointExtension>
            <ns3:hr>67</ns3:hr>
            <ns3:cad>0</ns3:cad>
          </ns3:TrackPointExtension>
        </extensions>
      </trkpt>
      <trkpt lat="43.47184435464441776275634765625" lon="1.43207539804279804229736328125">
        <ele>253.399993896484375</ele>
        <time>2026-08-05T10:23:15.000Z</time>
        <extensions>
          <ns3:TrackPointExtension>
            <ns3:hr>68</ns3:hr>
            <ns3:cad>0</ns3:cad>
          </ns3:TrackPointExtension>
        </extensions>
      </trkpt>
      <trkpt lat="43.47184435464441776275634765625" lon="1.43207539804279804229736328125">
        <ele>253.399993896484375</ele>
        <time>2026-08-05T10:23:16.000Z</time>
        <extensions>
          <ns3:TrackPointExtension>
            <ns3:hr>68</ns3:hr>
            <ns3:cad>0</ns3:cad>
          </ns3:TrackPointExtension>
        </extensions>
      </trkpt>
      <trkpt lat="43.47184435464441776275634765625" lon="1.43207539804279804229736328125">
        <ele>253.399993896484375</ele>
        <time>2026-08-05T10:23:17.000Z</time>
        <extensions>
          <ns3:TrackPointExtension>
            <ns3:hr>68</ns3:hr>
            <ns3:cad>0</ns3:cad>
          </ns3:TrackPointExtension>
        </extensions>
      </trkpt>
      <trkpt lat="43.47184435464441776275634765625" lon="1.43207539804279804229736328125">
        <ele>253.399993896484375</ele>
        <time>2026-08-05T10:23:18.000Z</time>
        <extensions>
          <ns3:TrackPointExtension>
            <ns3:hr>68</ns3:hr>
            <ns3:cad>0</ns3:cad>
          </ns3:TrackPointExtension>
        </extensions>
      </trkpt>
      <trkpt lat="43.47184435464441776275634765625" lon="1.43207539804279804229736328125">
        <ele>253.399993896484375</ele>
        <time>2026-08-05T10:23:19.000Z</time>
        <extensions>
          <ns3:TrackPointExtension>
            <ns3:hr>67</ns3:hr>
            <ns3:cad>0</ns3:cad>
          </ns3:TrackPointExtension>
        </extensions>
      </trkpt>
      <trkpt lat="43.47184435464441776275634765625" lon="1.43207539804279804229736328125">
        <ele>253.399993896484375</ele>
        <time>2026-08-05T10:23:20.000Z</time>
        <extensions>
          <ns3:TrackPointExtension>
            <ns3:hr>67</ns3:hr>
            <ns3:cad>0</ns3:cad>
          </ns3:TrackPointExtension>
        </extensions>
      </trkpt>
      <trkpt lat="43.47184435464441776275634765625" lon="1.43207539804279804229736328125">
        <ele>253.399993896484375</ele>
        <time>2026-08-05T10:23:21.000Z</time>
        <extensions>
          <ns3:TrackPointExtension>
            <ns3:hr>67</ns3:hr>
            <ns3:cad>0</ns3:cad>
          </ns3:TrackPointExtension>
        </extensions>
      </trkpt>
      <trkpt lat="43.47184435464441776275634765625" lon="1.43207539804279804229736328125">
        <ele>253.399993896484375</ele>
        <time>2026-08-05T10:23:22.000Z</time>
        <extensions>
          <ns3:TrackPointExtension>
            <ns3:hr>67</ns3:hr>
            <ns3:cad>0</ns3:cad>
          </ns3:TrackPointExtension>
        </extensions>
      </trkpt>
      <trkpt lat="43.47184435464441776275634765625" lon="1.43207539804279804229736328125">
        <ele>253.399993896484375</ele>
        <time>2026-08-05T10:23:23.000Z</time>
        <extensions>
          <ns3:TrackPointExtension>
            <ns3:hr>68</ns3:hr>
            <ns3:cad>0</ns3:cad>
          </ns3:TrackPointExtension>
        </extensions>
      </trkpt>
      <trkpt lat="43.47184435464441776275634765625" lon="1.43207539804279804229736328125">
        <ele>253.399993896484375</ele>
        <time>2026-08-05T10:23:24.000Z</time>
        <extensions>
          <ns3:TrackPointExtension>
            <ns3:hr>68</ns3:hr>
            <ns3:cad>0</ns3:cad>
          </ns3:TrackPointExtension>
        </extensions>
      </trkpt>
      <trkpt lat="43.47184435464441776275634765625" lon="1.43207539804279804229736328125">
        <ele>253.399993896484375</ele>
        <time>2026-08-05T10:23:25.000Z</time>
        <extensions>
          <ns3:TrackPointExtension>
            <ns3:hr>69</ns3:hr>
            <ns3:cad>0</ns3:cad>
          </ns3:TrackPointExtension>
        </extensions>
      </trkpt>
      <trkpt lat="43.47184435464441776275634765625" lon="1.43207539804279804229736328125">
        <ele>253.399993896484375</ele>
        <time>2026-08-05T10:23:26.000Z</time>
        <extensions>
          <ns3:TrackPointExtension>
            <ns3:hr>69</ns3:hr>
            <ns3:cad>0</ns3:cad>
          </ns3:TrackPointExtension>
        </extensions>
      </trkpt>
      <trkpt lat="43.47184435464441776275634765625" lon="1.43207539804279804229736328125">
        <ele>253.399993896484375</ele>
        <time>2026-08-05T10:23:27.000Z</time>
        <extensions>
          <ns3:TrackPointExtension>
            <ns3:hr>70</ns3:hr>
            <ns3:cad>0</ns3:cad>
          </ns3:TrackPointExtension>
        </extensions>
      </trkpt>
      <trkpt lat="43.47184435464441776275634765625" lon="1.43207539804279804229736328125">
        <ele>253.399993896484375</ele>
        <time>2026-08-05T10:23:28.000Z</time>
        <extensions>
          <ns3:TrackPointExtension>
            <ns3:hr>71</ns3:hr>
            <ns3:cad>0</ns3:cad>
          </ns3:TrackPointExtension>
        </extensions>
      </trkpt>
      <trkpt lat="43.47184435464441776275634765625" lon="1.43207539804279804229736328125">
        <ele>253.399993896484375</ele>
        <time>2026-08-05T10:23:29.000Z</time>
        <extensions>
          <ns3:TrackPointExtension>
            <ns3:hr>71</ns3:hr>
            <ns3:cad>0</ns3:cad>
          </ns3:TrackPointExtension>
        </extensions>
      </trkpt>
      <trkpt lat="43.47184435464441776275634765625" lon="1.43207539804279804229736328125">
        <ele>253.399993896484375</ele>
        <time>2026-08-05T10:23:30.000Z</time>
        <extensions>
          <ns3:TrackPointExtension>
            <ns3:hr>71</ns3:hr>
            <ns3:cad>0</ns3:cad>
          </ns3:TrackPointExtension>
        </extensions>
      </trkpt>
      <trkpt lat="43.47184435464441776275634765625" lon="1.43207539804279804229736328125">
        <ele>253.399993896484375</ele>
        <time>2026-08-05T10:23:31.000Z</time>
        <extensions>
          <ns3:TrackPointExtension>
            <ns3:hr>71</ns3:hr>
            <ns3:cad>0</ns3:cad>
          </ns3:TrackPointExtension>
        </extensions>
      </trkpt>
      <trkpt lat="43.47184435464441776275634765625" lon="1.43207539804279804229736328125">
        <ele>253.399993896484375</ele>
        <time>2026-08-05T10:23:32.000Z</time>
        <extensions>
          <ns3:TrackPointExtension>
            <ns3:hr>72</ns3:hr>
            <ns3:cad>0</ns3:cad>
          </ns3:TrackPointExtension>
        </extensions>
      </trkpt>
      <trkpt lat="43.47184435464441776275634765625" lon="1.43207539804279804229736328125">
        <ele>253.399993896484375</ele>
        <time>2026-08-05T10:23:33.000Z</time>
        <extensions>
          <ns3:TrackPointExtension>
            <ns3:hr>72</ns3:hr>
            <ns3:cad>0</ns3:cad>
          </ns3:TrackPointExtension>
        </extensions>
      </trkpt>
      <trkpt lat="43.47184435464441776275634765625" lon="1.43207539804279804229736328125">
        <ele>253.399993896484375</ele>
        <time>2026-08-05T10:23:34.000Z</time>
        <extensions>
          <ns3:TrackPointExtension>
            <ns3:hr>72</ns3:hr>
            <ns3:cad>0</ns3:cad>
          </ns3:TrackPointExtension>
        </extensions>
      </trkpt>
      <trkpt lat="43.47184435464441776275634765625" lon="1.43207539804279804229736328125">
        <ele>253.600006103515625</ele>
        <time>2026-08-05T10:23:35.000Z</time>
        <extensions>
          <ns3:TrackPointExtension>
            <ns3:hr>72</ns3:hr>
            <ns3:cad>0</ns3:cad>
          </ns3:TrackPointExtension>
        </extensions>
      </trkpt>
      <trkpt lat="43.47184435464441776275634765625" lon="1.43207539804279804229736328125">
        <ele>253.600006103515625</ele>
        <time>2026-08-05T10:23:36.000Z</time>
        <extensions>
          <ns3:TrackPointExtension>
            <ns3:hr>73</ns3:hr>
            <ns3:cad>0</ns3:cad>
          </ns3:TrackPointExtension>
        </extensions>
      </trkpt>
      <trkpt lat="43.47184435464441776275634765625" lon="1.43207539804279804229736328125">
        <ele>253.399993896484375</ele>
        <time>2026-08-05T10:23:37.000Z</time>
        <extensions>
          <ns3:TrackPointExtension>
            <ns3:hr>73</ns3:hr>
            <ns3:cad>0</ns3:cad>
          </ns3:TrackPointExtension>
        </extensions>
      </trkpt>
      <trkpt lat="43.47184435464441776275634765625" lon="1.43207539804279804229736328125">
        <ele>253.399993896484375</ele>
        <time>2026-08-05T10:23:38.000Z</time>
        <extensions>
          <ns3:TrackPointExtension>
            <ns3:hr>73</ns3:hr>
            <ns3:cad>0</ns3:cad>
          </ns3:TrackPointExtension>
        </extensions>
      </trkpt>
      <trkpt lat="43.47184435464441776275634765625" lon="1.43207539804279804229736328125">
        <ele>253.600006103515625</ele>
        <time>2026-08-05T10:23:39.000Z</time>
        <extensions>
          <ns3:TrackPointExtension>
            <ns3:hr>73</ns3:hr>
            <ns3:cad>0</ns3:cad>
          </ns3:TrackPointExtension>
        </extensions>
      </trkpt>
      <trkpt lat="43.47184435464441776275634765625" lon="1.43207539804279804229736328125">
        <ele>253.600006103515625</ele>
        <time>2026-08-05T10:23:40.000Z</time>
        <extensions>
          <ns3:TrackPointExtension>
            <ns3:hr>74</ns3:hr>
            <ns3:cad>0</ns3:cad>
          </ns3:TrackPointExtension>
        </extensions>
      </trkpt>
      <trkpt lat="43.47184435464441776275634765625" lon="1.43207539804279804229736328125">
        <ele>253.600006103515625</ele>
        <time>2026-08-05T10:23:41.000Z</time>
        <extensions>
          <ns3:TrackPointExtension>
            <ns3:hr>75</ns3:hr>
            <ns3:cad>0</ns3:cad>
          </ns3:TrackPointExtension>
        </extensions>
      </trkpt>
      <trkpt lat="43.47184435464441776275634765625" lon="1.43207539804279804229736328125">
        <ele>253.600006103515625</ele>
        <time>2026-08-05T10:23:42.000Z</time>
        <extensions>
          <ns3:TrackPointExtension>
            <ns3:hr>78</ns3:hr>
            <ns3:cad>0</ns3:cad>
          </ns3:TrackPointExtension>
        </extensions>
      </trkpt>
      <trkpt lat="43.47184435464441776275634765625" lon="1.43207539804279804229736328125">
        <ele>253.600006103515625</ele>
        <time>2026-08-05T10:23:43.000Z</time>
        <extensions>
          <ns3:TrackPointExtension>
            <ns3:hr>78</ns3:hr>
            <ns3:cad>0</ns3:cad>
          </ns3:TrackPointExtension>
        </extensions>
      </trkpt>
      <trkpt lat="43.47184435464441776275634765625" lon="1.43207539804279804229736328125">
        <ele>253.600006103515625</ele>
        <time>2026-08-05T10:23:44.000Z</time>
        <extensions>
          <ns3:TrackPointExtension>
            <ns3:hr>79</ns3:hr>
            <ns3:cad>0</ns3:cad>
          </ns3:TrackPointExtension>
        </extensions>
      </trkpt>
      <trkpt lat="43.47184435464441776275634765625" lon="1.43207539804279804229736328125">
        <ele>253.600006103515625</ele>
        <time>2026-08-05T10:23:45.000Z</time>
        <extensions>
          <ns3:TrackPointExtension>
            <ns3:hr>79</ns3:hr>
            <ns3:cad>0</ns3:cad>
          </ns3:TrackPointExtension>
        </extensions>
      </trkpt>
      <trkpt lat="43.47184435464441776275634765625" lon="1.43207539804279804229736328125">
        <ele>253.600006103515625</ele>
        <time>2026-08-05T10:23:46.000Z</time>
        <extensions>
          <ns3:TrackPointExtension>
            <ns3:hr>79</ns3:hr>
            <ns3:cad>0</ns3:cad>
          </ns3:TrackPointExtension>
        </extensions>
      </trkpt>
      <trkpt lat="43.47184435464441776275634765625" lon="1.43207539804279804229736328125">
        <ele>253.399993896484375</ele>
        <time>2026-08-05T10:23:47.000Z</time>
        <extensions>
          <ns3:TrackPointExtension>
            <ns3:hr>79</ns3:hr>
            <ns3:cad>0</ns3:cad>
          </ns3:TrackPointExtension>
        </extensions>
      </trkpt>
      <trkpt lat="43.47184435464441776275634765625" lon="1.43207539804279804229736328125">
        <ele>253.399993896484375</ele>
        <time>2026-08-05T10:23:48.000Z</time>
        <extensions>
          <ns3:TrackPointExtension>
            <ns3:hr>79</ns3:hr>
            <ns3:cad>0</ns3:cad>
          </ns3:TrackPointExtension>
        </extensions>
      </trkpt>
      <trkpt lat="43.47184435464441776275634765625" lon="1.43207539804279804229736328125">
        <ele>253.399993896484375</ele>
        <time>2026-08-05T10:23:49.000Z</time>
        <extensions>
          <ns3:TrackPointExtension>
            <ns3:hr>79</ns3:hr>
            <ns3:cad>0</ns3:cad>
          </ns3:TrackPointExtension>
        </extensions>
      </trkpt>
      <trkpt lat="43.47184435464441776275634765625" lon="1.43207539804279804229736328125">
        <ele>253.399993896484375</ele>
        <time>2026-08-05T10:23:50.000Z</time>
        <extensions>
          <ns3:TrackPointExtension>
            <ns3:hr>79</ns3:hr>
            <ns3:cad>0</ns3:cad>
          </ns3:TrackPointExtension>
        </extensions>
      </trkpt>
      <trkpt lat="43.47184435464441776275634765625" lon="1.43207539804279804229736328125">
        <ele>253.399993896484375</ele>
        <time>2026-08-05T10:23:51.000Z</time>
        <extensions>
          <ns3:TrackPointExtension>
            <ns3:hr>79</ns3:hr>
            <ns3:cad>0</ns3:cad>
          </ns3:TrackPointExtension>
        </extensions>
      </trkpt>
      <trkpt lat="43.47184435464441776275634765625" lon="1.43207539804279804229736328125">
        <ele>253.399993896484375</ele>
        <time>2026-08-05T10:23:52.000Z</time>
        <extensions>
          <ns3:TrackPointExtension>
            <ns3:hr>79</ns3:hr>
            <ns3:cad>0</ns3:cad>
          </ns3:TrackPointExtension>
        </extensions>
      </trkpt>
      <trkpt lat="43.47184435464441776275634765625" lon="1.43207539804279804229736328125">
        <ele>253.399993896484375</ele>
        <time>2026-08-05T10:23:53.000Z</time>
        <extensions>
          <ns3:TrackPointExtension>
            <ns3:hr>79</ns3:hr>
            <ns3:cad>0</ns3:cad>
          </ns3:TrackPointExtension>
        </extensions>
      </trkpt>
      <trkpt lat="43.47184435464441776275634765625" lon="1.43207539804279804229736328125">
        <ele>253.399993896484375</ele>
        <time>2026-08-05T10:23:54.000Z</time>
        <extensions>
          <ns3:TrackPointExtension>
            <ns3:hr>78</ns3:hr>
            <ns3:cad>0</ns3:cad>
          </ns3:TrackPointExtension>
        </extensions>
      </trkpt>
      <trkpt lat="43.47184435464441776275634765625" lon="1.43207539804279804229736328125">
        <ele>253.399993896484375</ele>
        <time>2026-08-05T10:23:55.000Z</time>
        <extensions>
          <ns3:TrackPointExtension>
            <ns3:hr>77</ns3:hr>
            <ns3:cad>0</ns3:cad>
          </ns3:TrackPointExtension>
        </extensions>
      </trkpt>
      <trkpt lat="43.47184435464441776275634765625" lon="1.43207539804279804229736328125">
        <ele>253.399993896484375</ele>
        <time>2026-08-05T10:23:56.000Z</time>
        <extensions>
          <ns3:TrackPointExtension>
            <ns3:hr>76</ns3:hr>
            <ns3:cad>0</ns3:cad>
          </ns3:TrackPointExtension>
        </extensions>
      </trkpt>
      <trkpt lat="43.47184435464441776275634765625" lon="1.43207539804279804229736328125">
        <ele>253.399993896484375</ele>
        <time>2026-08-05T10:23:57.000Z</time>
        <extensions>
          <ns3:TrackPointExtension>
            <ns3:hr>75</ns3:hr>
            <ns3:cad>0</ns3:cad>
          </ns3:TrackPointExtension>
        </extensions>
      </trkpt>
      <trkpt lat="43.47184435464441776275634765625" lon="1.43207539804279804229736328125">
        <ele>253.399993896484375</ele>
        <time>2026-08-05T10:23:58.000Z</time>
        <extensions>
          <ns3:TrackPointExtension>
            <ns3:hr>74</ns3:hr>
            <ns3:cad>0</ns3:cad>
          </ns3:TrackPointExtension>
        </extensions>
      </trkpt>
      <trkpt lat="43.47184435464441776275634765625" lon="1.43207539804279804229736328125">
        <ele>253.399993896484375</ele>
        <time>2026-08-05T10:23:59.000Z</time>
        <extensions>
          <ns3:TrackPointExtension>
            <ns3:hr>73</ns3:hr>
            <ns3:cad>0</ns3:cad>
          </ns3:TrackPointExtension>
        </extensions>
      </trkpt>
      <trkpt lat="43.47184435464441776275634765625" lon="1.43207539804279804229736328125">
        <ele>253.399993896484375</ele>
        <time>2026-08-05T10:24:00.000Z</time>
        <extensions>
          <ns3:TrackPointExtension>
            <ns3:hr>73</ns3:hr>
            <ns3:cad>0</ns3:cad>
          </ns3:TrackPointExtension>
        </extensions>
      </trkpt>
      <trkpt lat="43.47184435464441776275634765625" lon="1.43207539804279804229736328125">
        <ele>253.399993896484375</ele>
        <time>2026-08-05T10:24:01.000Z</time>
        <extensions>
          <ns3:TrackPointExtension>
            <ns3:hr>73</ns3:hr>
            <ns3:cad>0</ns3:cad>
          </ns3:TrackPointExtension>
        </extensions>
      </trkpt>
      <trkpt lat="43.47184435464441776275634765625" lon="1.43207539804279804229736328125">
        <ele>253.399993896484375</ele>
        <time>2026-08-05T10:24:02.000Z</time>
        <extensions>
          <ns3:TrackPointExtension>
            <ns3:hr>72</ns3:hr>
            <ns3:cad>0</ns3:cad>
          </ns3:TrackPointExtension>
        </extensions>
      </trkpt>
      <trkpt lat="43.47184435464441776275634765625" lon="1.43207539804279804229736328125">
        <ele>253.399993896484375</ele>
        <time>2026-08-05T10:24:03.000Z</time>
        <extensions>
          <ns3:TrackPointExtension>
            <ns3:hr>71</ns3:hr>
            <ns3:cad>0</ns3:cad>
          </ns3:TrackPointExtension>
        </extensions>
      </trkpt>
      <trkpt lat="43.47184435464441776275634765625" lon="1.43207539804279804229736328125">
        <ele>253.399993896484375</ele>
        <time>2026-08-05T10:24:04.000Z</time>
        <extensions>
          <ns3:TrackPointExtension>
            <ns3:hr>69</ns3:hr>
            <ns3:cad>0</ns3:cad>
          </ns3:TrackPointExtension>
        </extensions>
      </trkpt>
      <trkpt lat="43.47184435464441776275634765625" lon="1.43207539804279804229736328125">
        <ele>253.399993896484375</ele>
        <time>2026-08-05T10:24:05.000Z</time>
        <extensions>
          <ns3:TrackPointExtension>
            <ns3:hr>68</ns3:hr>
            <ns3:cad>0</ns3:cad>
          </ns3:TrackPointExtension>
        </extensions>
      </trkpt>
      <trkpt lat="43.47184435464441776275634765625" lon="1.43207539804279804229736328125">
        <ele>253.399993896484375</ele>
        <time>2026-08-05T10:24:06.000Z</time>
        <extensions>
          <ns3:TrackPointExtension>
            <ns3:hr>68</ns3:hr>
            <ns3:cad>0</ns3:cad>
          </ns3:TrackPointExtension>
        </extensions>
      </trkpt>
      <trkpt lat="43.47184435464441776275634765625" lon="1.43207539804279804229736328125">
        <ele>253.399993896484375</ele>
        <time>2026-08-05T10:24:07.000Z</time>
        <extensions>
          <ns3:TrackPointExtension>
            <ns3:hr>68</ns3:hr>
            <ns3:cad>0</ns3:cad>
          </ns3:TrackPointExtension>
        </extensions>
      </trkpt>
      <trkpt lat="43.47184435464441776275634765625" lon="1.43207539804279804229736328125">
        <ele>253.399993896484375</ele>
        <time>2026-08-05T10:24:08.000Z</time>
        <extensions>
          <ns3:TrackPointExtension>
            <ns3:hr>68</ns3:hr>
            <ns3:cad>0</ns3:cad>
          </ns3:TrackPointExtension>
        </extensions>
      </trkpt>
      <trkpt lat="43.47184435464441776275634765625" lon="1.43207539804279804229736328125">
        <ele>253.399993896484375</ele>
        <time>2026-08-05T10:24:09.000Z</time>
        <extensions>
          <ns3:TrackPointExtension>
            <ns3:hr>67</ns3:hr>
            <ns3:cad>0</ns3:cad>
          </ns3:TrackPointExtension>
        </extensions>
      </trkpt>
      <trkpt lat="43.47184435464441776275634765625" lon="1.43207539804279804229736328125">
        <ele>253.399993896484375</ele>
        <time>2026-08-05T10:24:10.000Z</time>
        <extensions>
          <ns3:TrackPointExtension>
            <ns3:hr>68</ns3:hr>
            <ns3:cad>0</ns3:cad>
          </ns3:TrackPointExtension>
        </extensions>
      </trkpt>
      <trkpt lat="43.47184435464441776275634765625" lon="1.43207539804279804229736328125">
        <ele>253.399993896484375</ele>
        <time>2026-08-05T10:24:11.000Z</time>
        <extensions>
          <ns3:TrackPointExtension>
            <ns3:hr>67</ns3:hr>
            <ns3:cad>0</ns3:cad>
          </ns3:TrackPointExtension>
        </extensions>
      </trkpt>
      <trkpt lat="43.47184435464441776275634765625" lon="1.43207539804279804229736328125">
        <ele>253.399993896484375</ele>
        <time>2026-08-05T10:24:12.000Z</time>
        <extensions>
          <ns3:TrackPointExtension>
            <ns3:hr>66</ns3:hr>
            <ns3:cad>0</ns3:cad>
          </ns3:TrackPointExtension>
        </extensions>
      </trkpt>
      <trkpt lat="43.47184435464441776275634765625" lon="1.43207539804279804229736328125">
        <ele>253.399993896484375</ele>
        <time>2026-08-05T10:24:13.000Z</time>
        <extensions>
          <ns3:TrackPointExtension>
            <ns3:hr>66</ns3:hr>
            <ns3:cad>0</ns3:cad>
          </ns3:TrackPointExtension>
        </extensions>
      </trkpt>
      <trkpt lat="43.47184435464441776275634765625" lon="1.43207539804279804229736328125">
        <ele>253.399993896484375</ele>
        <time>2026-08-05T10:24:14.000Z</time>
        <extensions>
          <ns3:TrackPointExtension>
            <ns3:hr>65</ns3:hr>
            <ns3:cad>0</ns3:cad>
          </ns3:TrackPointExtension>
        </extensions>
      </trkpt>
      <trkpt lat="43.47184435464441776275634765625" lon="1.43207539804279804229736328125">
        <ele>253.399993896484375</ele>
        <time>2026-08-05T10:24:15.000Z</time>
        <extensions>
          <ns3:TrackPointExtension>
            <ns3:hr>64</ns3:hr>
            <ns3:cad>0</ns3:cad>
          </ns3:TrackPointExtension>
        </extensions>
      </trkpt>
      <trkpt lat="43.47184435464441776275634765625" lon="1.43207539804279804229736328125">
        <ele>253.399993896484375</ele>
        <time>2026-08-05T10:24:16.000Z</time>
        <extensions>
          <ns3:TrackPointExtension>
            <ns3:hr>64</ns3:hr>
            <ns3:cad>0</ns3:cad>
          </ns3:TrackPointExtension>
        </extensions>
      </trkpt>
      <trkpt lat="43.47184435464441776275634765625" lon="1.43207539804279804229736328125">
        <ele>253.399993896484375</ele>
        <time>2026-08-05T10:24:17.000Z</time>
        <extensions>
          <ns3:TrackPointExtension>
            <ns3:hr>64</ns3:hr>
            <ns3:cad>0</ns3:cad>
          </ns3:TrackPointExtension>
        </extensions>
      </trkpt>
      <trkpt lat="43.47184435464441776275634765625" lon="1.43207539804279804229736328125">
        <ele>253.399993896484375</ele>
        <time>2026-08-05T10:24:18.000Z</time>
        <extensions>
          <ns3:TrackPointExtension>
            <ns3:hr>64</ns3:hr>
            <ns3:cad>0</ns3:cad>
          </ns3:TrackPointExtension>
        </extensions>
      </trkpt>
      <trkpt lat="43.47184435464441776275634765625" lon="1.43207539804279804229736328125">
        <ele>253.399993896484375</ele>
        <time>2026-08-05T10:24:19.000Z</time>
        <extensions>
          <ns3:TrackPointExtension>
            <ns3:hr>64</ns3:hr>
            <ns3:cad>0</ns3:cad>
          </ns3:TrackPointExtension>
        </extensions>
      </trkpt>
      <trkpt lat="43.47184435464441776275634765625" lon="1.43207539804279804229736328125">
        <ele>253.399993896484375</ele>
        <time>2026-08-05T10:24:20.000Z</time>
        <extensions>
          <ns3:TrackPointExtension>
            <ns3:hr>63</ns3:hr>
            <ns3:cad>0</ns3:cad>
          </ns3:TrackPointExtension>
        </extensions>
      </trkpt>
      <trkpt lat="43.47184435464441776275634765625" lon="1.43207539804279804229736328125">
        <ele>253.399993896484375</ele>
        <time>2026-08-05T10:24:21.000Z</time>
        <extensions>
          <ns3:TrackPointExtension>
            <ns3:hr>63</ns3:hr>
            <ns3:cad>0</ns3:cad>
          </ns3:TrackPointExtension>
        </extensions>
      </trkpt>
      <trkpt lat="43.47184435464441776275634765625" lon="1.43207539804279804229736328125">
        <ele>253.399993896484375</ele>
        <time>2026-08-05T10:24:22.000Z</time>
        <extensions>
          <ns3:TrackPointExtension>
            <ns3:hr>62</ns3:hr>
            <ns3:cad>0</ns3:cad>
          </ns3:TrackPointExtension>
        </extensions>
      </trkpt>
      <trkpt lat="43.47184435464441776275634765625" lon="1.43207539804279804229736328125">
        <ele>253.399993896484375</ele>
        <time>2026-08-05T10:24:23.000Z</time>
        <extensions>
          <ns3:TrackPointExtension>
            <ns3:hr>62</ns3:hr>
            <ns3:cad>0</ns3:cad>
          </ns3:TrackPointExtension>
        </extensions>
      </trkpt>
      <trkpt lat="43.47184435464441776275634765625" lon="1.43207539804279804229736328125">
        <ele>253.399993896484375</ele>
        <time>2026-08-05T10:24:24.000Z</time>
        <extensions>
          <ns3:TrackPointExtension>
            <ns3:hr>63</ns3:hr>
            <ns3:cad>0</ns3:cad>
          </ns3:TrackPointExtension>
        </extensions>
      </trkpt>
      <trkpt lat="43.47184435464441776275634765625" lon="1.43207539804279804229736328125">
        <ele>253.399993896484375</ele>
        <time>2026-08-05T10:24:25.000Z</time>
        <extensions>
          <ns3:TrackPointExtension>
            <ns3:hr>63</ns3:hr>
            <ns3:cad>0</ns3:cad>
          </ns3:TrackPointExtension>
        </extensions>
      </trkpt>
      <trkpt lat="43.47184435464441776275634765625" lon="1.43207539804279804229736328125">
        <ele>253.399993896484375</ele>
        <time>2026-08-05T10:24:26.000Z</time>
        <extensions>
          <ns3:TrackPointExtension>
            <ns3:hr>65</ns3:hr>
            <ns3:cad>0</ns3:cad>
          </ns3:TrackPointExtension>
        </extensions>
      </trkpt>
      <trkpt lat="43.47184435464441776275634765625" lon="1.43207539804279804229736328125">
        <ele>253.399993896484375</ele>
        <time>2026-08-05T10:24:27.000Z</time>
        <extensions>
          <ns3:TrackPointExtension>
            <ns3:hr>65</ns3:hr>
            <ns3:cad>0</ns3:cad>
          </ns3:TrackPointExtension>
        </extensions>
      </trkpt>
      <trkpt lat="43.47184435464441776275634765625" lon="1.43207539804279804229736328125">
        <ele>253.399993896484375</ele>
        <time>2026-08-05T10:24:28.000Z</time>
        <extensions>
          <ns3:TrackPointExtension>
            <ns3:hr>64</ns3:hr>
            <ns3:cad>0</ns3:cad>
          </ns3:TrackPointExtension>
        </extensions>
      </trkpt>
      <trkpt lat="43.47184435464441776275634765625" lon="1.43207539804279804229736328125">
        <ele>253.399993896484375</ele>
        <time>2026-08-05T10:24:29.000Z</time>
        <extensions>
          <ns3:TrackPointExtension>
            <ns3:hr>64</ns3:hr>
            <ns3:cad>0</ns3:cad>
          </ns3:TrackPointExtension>
        </extensions>
      </trkpt>
      <trkpt lat="43.47184435464441776275634765625" lon="1.43207539804279804229736328125">
        <ele>253.1999969482421875</ele>
        <time>2026-08-05T10:24:30.000Z</time>
        <extensions>
          <ns3:TrackPointExtension>
            <ns3:hr>63</ns3:hr>
            <ns3:cad>0</ns3:cad>
          </ns3:TrackPointExtension>
        </extensions>
      </trkpt>
      <trkpt lat="43.47184435464441776275634765625" lon="1.43207539804279804229736328125">
        <ele>253.1999969482421875</ele>
        <time>2026-08-05T10:24:31.000Z</time>
        <extensions>
          <ns3:TrackPointExtension>
            <ns3:hr>63</ns3:hr>
            <ns3:cad>0</ns3:cad>
          </ns3:TrackPointExtension>
        </extensions>
      </trkpt>
      <trkpt lat="43.47184435464441776275634765625" lon="1.43207539804279804229736328125">
        <ele>253.1999969482421875</ele>
        <time>2026-08-05T10:24:32.000Z</time>
        <extensions>
          <ns3:TrackPointExtension>
            <ns3:hr>63</ns3:hr>
            <ns3:cad>0</ns3:cad>
          </ns3:TrackPointExtension>
        </extensions>
      </trkpt>
      <trkpt lat="43.47184435464441776275634765625" lon="1.43207539804279804229736328125">
        <ele>253.1999969482421875</ele>
        <time>2026-08-05T10:24:33.000Z</time>
        <extensions>
          <ns3:TrackPointExtension>
            <ns3:hr>63</ns3:hr>
            <ns3:cad>0</ns3:cad>
          </ns3:TrackPointExtension>
        </extensions>
      </trkpt>
      <trkpt lat="43.47184435464441776275634765625" lon="1.43207539804279804229736328125">
        <ele>253.1999969482421875</ele>
        <time>2026-08-05T10:24:34.000Z</time>
        <extensions>
          <ns3:TrackPointExtension>
            <ns3:hr>62</ns3:hr>
            <ns3:cad>0</ns3:cad>
          </ns3:TrackPointExtension>
        </extensions>
      </trkpt>
      <trkpt lat="43.47184435464441776275634765625" lon="1.43207539804279804229736328125">
        <ele>253.1999969482421875</ele>
        <time>2026-08-05T10:24:35.000Z</time>
        <extensions>
          <ns3:TrackPointExtension>
            <ns3:hr>63</ns3:hr>
            <ns3:cad>0</ns3:cad>
          </ns3:TrackPointExtension>
        </extensions>
      </trkpt>
      <trkpt lat="43.47184435464441776275634765625" lon="1.43207539804279804229736328125">
        <ele>253.1999969482421875</ele>
        <time>2026-08-05T10:24:36.000Z</time>
        <extensions>
          <ns3:TrackPointExtension>
            <ns3:hr>63</ns3:hr>
            <ns3:cad>0</ns3:cad>
          </ns3:TrackPointExtension>
        </extensions>
      </trkpt>
      <trkpt lat="43.47184435464441776275634765625" lon="1.43207539804279804229736328125">
        <ele>253.1999969482421875</ele>
        <time>2026-08-05T10:24:37.000Z</time>
        <extensions>
          <ns3:TrackPointExtension>
            <ns3:hr>63</ns3:hr>
            <ns3:cad>0</ns3:cad>
          </ns3:TrackPointExtension>
        </extensions>
      </trkpt>
      <trkpt lat="43.47184435464441776275634765625" lon="1.43207539804279804229736328125">
        <ele>253.1999969482421875</ele>
        <time>2026-08-05T10:24:38.000Z</time>
        <extensions>
          <ns3:TrackPointExtension>
            <ns3:hr>64</ns3:hr>
            <ns3:cad>0</ns3:cad>
          </ns3:TrackPointExtension>
        </extensions>
      </trkpt>
      <trkpt lat="43.47184435464441776275634765625" lon="1.43207539804279804229736328125">
        <ele>253.1999969482421875</ele>
        <time>2026-08-05T10:24:39.000Z</time>
        <extensions>
          <ns3:TrackPointExtension>
            <ns3:hr>64</ns3:hr>
            <ns3:cad>0</ns3:cad>
          </ns3:TrackPointExtension>
        </extensions>
      </trkpt>
      <trkpt lat="43.47184435464441776275634765625" lon="1.43207539804279804229736328125">
        <ele>253.1999969482421875</ele>
        <time>2026-08-05T10:24:40.000Z</time>
        <extensions>
          <ns3:TrackPointExtension>
            <ns3:hr>65</ns3:hr>
            <ns3:cad>0</ns3:cad>
          </ns3:TrackPointExtension>
        </extensions>
      </trkpt>
      <trkpt lat="43.47184435464441776275634765625" lon="1.43207539804279804229736328125">
        <ele>253.1999969482421875</ele>
        <time>2026-08-05T10:24:41.000Z</time>
        <extensions>
          <ns3:TrackPointExtension>
            <ns3:hr>66</ns3:hr>
            <ns3:cad>0</ns3:cad>
          </ns3:TrackPointExtension>
        </extensions>
      </trkpt>
      <trkpt lat="43.47184435464441776275634765625" lon="1.43207539804279804229736328125">
        <ele>253.1999969482421875</ele>
        <time>2026-08-05T10:24:42.000Z</time>
        <extensions>
          <ns3:TrackPointExtension>
            <ns3:hr>67</ns3:hr>
            <ns3:cad>0</ns3:cad>
          </ns3:TrackPointExtension>
        </extensions>
      </trkpt>
      <trkpt lat="43.47184435464441776275634765625" lon="1.43207539804279804229736328125">
        <ele>253.1999969482421875</ele>
        <time>2026-08-05T10:24:43.000Z</time>
        <extensions>
          <ns3:TrackPointExtension>
            <ns3:hr>67</ns3:hr>
            <ns3:cad>0</ns3:cad>
          </ns3:TrackPointExtension>
        </extensions>
      </trkpt>
      <trkpt lat="43.47184435464441776275634765625" lon="1.43207539804279804229736328125">
        <ele>253.1999969482421875</ele>
        <time>2026-08-05T10:24:44.000Z</time>
        <extensions>
          <ns3:TrackPointExtension>
            <ns3:hr>66</ns3:hr>
            <ns3:cad>0</ns3:cad>
          </ns3:TrackPointExtension>
        </extensions>
      </trkpt>
      <trkpt lat="43.47184435464441776275634765625" lon="1.43207539804279804229736328125">
        <ele>253.1999969482421875</ele>
        <time>2026-08-05T10:24:45.000Z</time>
        <extensions>
          <ns3:TrackPointExtension>
            <ns3:hr>66</ns3:hr>
            <ns3:cad>0</ns3:cad>
          </ns3:TrackPointExtension>
        </extensions>
      </trkpt>
      <trkpt lat="43.47184435464441776275634765625" lon="1.43207539804279804229736328125">
        <ele>253.1999969482421875</ele>
        <time>2026-08-05T10:24:46.000Z</time>
        <extensions>
          <ns3:TrackPointExtension>
            <ns3:hr>65</ns3:hr>
            <ns3:cad>0</ns3:cad>
          </ns3:TrackPointExtension>
        </extensions>
      </trkpt>
      <trkpt lat="43.47184435464441776275634765625" lon="1.43207539804279804229736328125">
        <ele>253.1999969482421875</ele>
        <time>2026-08-05T10:24:47.000Z</time>
        <extensions>
          <ns3:TrackPointExtension>
            <ns3:hr>64</ns3:hr>
            <ns3:cad>0</ns3:cad>
          </ns3:TrackPointExtension>
        </extensions>
      </trkpt>
      <trkpt lat="43.47184435464441776275634765625" lon="1.43207539804279804229736328125">
        <ele>253.1999969482421875</ele>
        <time>2026-08-05T10:24:48.000Z</time>
        <extensions>
          <ns3:TrackPointExtension>
            <ns3:hr>63</ns3:hr>
            <ns3:cad>0</ns3:cad>
          </ns3:TrackPointExtension>
        </extensions>
      </trkpt>
      <trkpt lat="43.47184435464441776275634765625" lon="1.43207539804279804229736328125">
        <ele>253.1999969482421875</ele>
        <time>2026-08-05T10:24:49.000Z</time>
        <extensions>
          <ns3:TrackPointExtension>
            <ns3:hr>62</ns3:hr>
            <ns3:cad>0</ns3:cad>
          </ns3:TrackPointExtension>
        </extensions>
      </trkpt>
      <trkpt lat="43.47184435464441776275634765625" lon="1.43207539804279804229736328125">
        <ele>253.399993896484375</ele>
        <time>2026-08-05T10:24:50.000Z</time>
        <extensions>
          <ns3:TrackPointExtension>
            <ns3:hr>62</ns3:hr>
            <ns3:cad>0</ns3:cad>
          </ns3:TrackPointExtension>
        </extensions>
      </trkpt>
      <trkpt lat="43.47184435464441776275634765625" lon="1.43207539804279804229736328125">
        <ele>253.399993896484375</ele>
        <time>2026-08-05T10:24:51.000Z</time>
        <extensions>
          <ns3:TrackPointExtension>
            <ns3:hr>62</ns3:hr>
            <ns3:cad>0</ns3:cad>
          </ns3:TrackPointExtension>
        </extensions>
      </trkpt>
      <trkpt lat="43.47184435464441776275634765625" lon="1.43207539804279804229736328125">
        <ele>253.399993896484375</ele>
        <time>2026-08-05T10:24:52.000Z</time>
        <extensions>
          <ns3:TrackPointExtension>
            <ns3:hr>61</ns3:hr>
            <ns3:cad>0</ns3:cad>
          </ns3:TrackPointExtension>
        </extensions>
      </trkpt>
      <trkpt lat="43.47184435464441776275634765625" lon="1.43207539804279804229736328125">
        <ele>253.399993896484375</ele>
        <time>2026-08-05T10:24:53.000Z</time>
        <extensions>
          <ns3:TrackPointExtension>
            <ns3:hr>61</ns3:hr>
            <ns3:cad>0</ns3:cad>
          </ns3:TrackPointExtension>
        </extensions>
      </trkpt>
      <trkpt lat="43.47184435464441776275634765625" lon="1.43207539804279804229736328125">
        <ele>253.399993896484375</ele>
        <time>2026-08-05T10:24:54.000Z</time>
        <extensions>
          <ns3:TrackPointExtension>
            <ns3:hr>61</ns3:hr>
            <ns3:cad>0</ns3:cad>
          </ns3:TrackPointExtension>
        </extensions>
      </trkpt>
      <trkpt lat="43.47184435464441776275634765625" lon="1.43207539804279804229736328125">
        <ele>253.399993896484375</ele>
        <time>2026-08-05T10:24:55.000Z</time>
        <extensions>
          <ns3:TrackPointExtension>
            <ns3:hr>61</ns3:hr>
            <ns3:cad>0</ns3:cad>
          </ns3:TrackPointExtension>
        </extensions>
      </trkpt>
      <trkpt lat="43.47184435464441776275634765625" lon="1.43207539804279804229736328125">
        <ele>253.1999969482421875</ele>
        <time>2026-08-05T10:24:56.000Z</time>
        <extensions>
          <ns3:TrackPointExtension>
            <ns3:hr>61</ns3:hr>
            <ns3:cad>0</ns3:cad>
          </ns3:TrackPointExtension>
        </extensions>
      </trkpt>
      <trkpt lat="43.47184435464441776275634765625" lon="1.43207539804279804229736328125">
        <ele>253.1999969482421875</ele>
        <time>2026-08-05T10:24:57.000Z</time>
        <extensions>
          <ns3:TrackPointExtension>
            <ns3:hr>62</ns3:hr>
            <ns3:cad>0</ns3:cad>
          </ns3:TrackPointExtension>
        </extensions>
      </trkpt>
      <trkpt lat="43.47184435464441776275634765625" lon="1.43207539804279804229736328125">
        <ele>253.1999969482421875</ele>
        <time>2026-08-05T10:24:58.000Z</time>
        <extensions>
          <ns3:TrackPointExtension>
            <ns3:hr>62</ns3:hr>
            <ns3:cad>0</ns3:cad>
          </ns3:TrackPointExtension>
        </extensions>
      </trkpt>
      <trkpt lat="43.47184435464441776275634765625" lon="1.43207539804279804229736328125">
        <ele>253.1999969482421875</ele>
        <time>2026-08-05T10:24:59.000Z</time>
        <extensions>
          <ns3:TrackPointExtension>
            <ns3:hr>63</ns3:hr>
            <ns3:cad>0</ns3:cad>
          </ns3:TrackPointExtension>
        </extensions>
      </trkpt>
      <trkpt lat="43.47184435464441776275634765625" lon="1.43207539804279804229736328125">
        <ele>253.1999969482421875</ele>
        <time>2026-08-05T10:25:00.000Z</time>
        <extensions>
          <ns3:TrackPointExtension>
            <ns3:hr>63</ns3:hr>
            <ns3:cad>0</ns3:cad>
          </ns3:TrackPointExtension>
        </extensions>
      </trkpt>
      <trkpt lat="43.47184435464441776275634765625" lon="1.43207539804279804229736328125">
        <ele>253.1999969482421875</ele>
        <time>2026-08-05T10:25:01.000Z</time>
        <extensions>
          <ns3:TrackPointExtension>
            <ns3:hr>63</ns3:hr>
            <ns3:cad>0</ns3:cad>
          </ns3:TrackPointExtension>
        </extensions>
      </trkpt>
      <trkpt lat="43.47184435464441776275634765625" lon="1.43207539804279804229736328125">
        <ele>253.1999969482421875</ele>
        <time>2026-08-05T10:25:02.000Z</time>
        <extensions>
          <ns3:TrackPointExtension>
            <ns3:hr>64</ns3:hr>
            <ns3:cad>0</ns3:cad>
          </ns3:TrackPointExtension>
        </extensions>
      </trkpt>
      <trkpt lat="43.47184435464441776275634765625" lon="1.43207539804279804229736328125">
        <ele>253.399993896484375</ele>
        <time>2026-08-05T10:25:03.000Z</time>
        <extensions>
          <ns3:TrackPointExtension>
            <ns3:hr>65</ns3:hr>
            <ns3:cad>0</ns3:cad>
          </ns3:TrackPointExtension>
        </extensions>
      </trkpt>
      <trkpt lat="43.47184435464441776275634765625" lon="1.43207539804279804229736328125">
        <ele>253.399993896484375</ele>
        <time>2026-08-05T10:25:04.000Z</time>
        <extensions>
          <ns3:TrackPointExtension>
            <ns3:hr>64</ns3:hr>
            <ns3:cad>0</ns3:cad>
          </ns3:TrackPointExtension>
        </extensions>
      </trkpt>
      <trkpt lat="43.47184435464441776275634765625" lon="1.43207539804279804229736328125">
        <ele>253.399993896484375</ele>
        <time>2026-08-05T10:25:05.000Z</time>
        <extensions>
          <ns3:TrackPointExtension>
            <ns3:hr>64</ns3:hr>
            <ns3:cad>0</ns3:cad>
          </ns3:TrackPointExtension>
        </extensions>
      </trkpt>
      <trkpt lat="43.47184435464441776275634765625" lon="1.43207539804279804229736328125">
        <ele>253.399993896484375</ele>
        <time>2026-08-05T10:25:06.000Z</time>
        <extensions>
          <ns3:TrackPointExtension>
            <ns3:hr>64</ns3:hr>
            <ns3:cad>0</ns3:cad>
          </ns3:TrackPointExtension>
        </extensions>
      </trkpt>
      <trkpt lat="43.47184435464441776275634765625" lon="1.43207539804279804229736328125">
        <ele>253.399993896484375</ele>
        <time>2026-08-05T10:25:07.000Z</time>
        <extensions>
          <ns3:TrackPointExtension>
            <ns3:hr>64</ns3:hr>
            <ns3:cad>0</ns3:cad>
          </ns3:TrackPointExtension>
        </extensions>
      </trkpt>
      <trkpt lat="43.47184435464441776275634765625" lon="1.43207539804279804229736328125">
        <ele>253.399993896484375</ele>
        <time>2026-08-05T10:25:08.000Z</time>
        <extensions>
          <ns3:TrackPointExtension>
            <ns3:hr>64</ns3:hr>
            <ns3:cad>0</ns3:cad>
          </ns3:TrackPointExtension>
        </extensions>
      </trkpt>
      <trkpt lat="43.47184435464441776275634765625" lon="1.43207539804279804229736328125">
        <ele>253.399993896484375</ele>
        <time>2026-08-05T10:25:09.000Z</time>
        <extensions>
          <ns3:TrackPointExtension>
            <ns3:hr>64</ns3:hr>
            <ns3:cad>0</ns3:cad>
          </ns3:TrackPointExtension>
        </extensions>
      </trkpt>
      <trkpt lat="43.47184435464441776275634765625" lon="1.43207539804279804229736328125">
        <ele>253.399993896484375</ele>
        <time>2026-08-05T10:25:10.000Z</time>
        <extensions>
          <ns3:TrackPointExtension>
            <ns3:hr>65</ns3:hr>
            <ns3:cad>0</ns3:cad>
          </ns3:TrackPointExtension>
        </extensions>
      </trkpt>
      <trkpt lat="43.47184435464441776275634765625" lon="1.43207539804279804229736328125">
        <ele>253.600006103515625</ele>
        <time>2026-08-05T10:25:11.000Z</time>
        <extensions>
          <ns3:TrackPointExtension>
            <ns3:hr>64</ns3:hr>
            <ns3:cad>0</ns3:cad>
          </ns3:TrackPointExtension>
        </extensions>
      </trkpt>
      <trkpt lat="43.47184435464441776275634765625" lon="1.43207539804279804229736328125">
        <ele>253.600006103515625</ele>
        <time>2026-08-05T10:25:12.000Z</time>
        <extensions>
          <ns3:TrackPointExtension>
            <ns3:hr>65</ns3:hr>
            <ns3:cad>0</ns3:cad>
          </ns3:TrackPointExtension>
        </extensions>
      </trkpt>
      <trkpt lat="43.47184435464441776275634765625" lon="1.43207539804279804229736328125">
        <ele>253.600006103515625</ele>
        <time>2026-08-05T10:25:13.000Z</time>
        <extensions>
          <ns3:TrackPointExtension>
            <ns3:hr>65</ns3:hr>
            <ns3:cad>0</ns3:cad>
          </ns3:TrackPointExtension>
        </extensions>
      </trkpt>
      <trkpt lat="43.47184435464441776275634765625" lon="1.43207539804279804229736328125">
        <ele>253.600006103515625</ele>
        <time>2026-08-05T10:25:14.000Z</time>
        <extensions>
          <ns3:TrackPointExtension>
            <ns3:hr>65</ns3:hr>
            <ns3:cad>0</ns3:cad>
          </ns3:TrackPointExtension>
        </extensions>
      </trkpt>
      <trkpt lat="43.47184435464441776275634765625" lon="1.43207539804279804229736328125">
        <ele>253.600006103515625</ele>
        <time>2026-08-05T10:25:15.000Z</time>
        <extensions>
          <ns3:TrackPointExtension>
            <ns3:hr>65</ns3:hr>
            <ns3:cad>0</ns3:cad>
          </ns3:TrackPointExtension>
        </extensions>
      </trkpt>
      <trkpt lat="43.47184435464441776275634765625" lon="1.43207539804279804229736328125">
        <ele>253.399993896484375</ele>
        <time>2026-08-05T10:25:16.000Z</time>
        <extensions>
          <ns3:TrackPointExtension>
            <ns3:hr>65</ns3:hr>
            <ns3:cad>0</ns3:cad>
          </ns3:TrackPointExtension>
        </extensions>
      </trkpt>
      <trkpt lat="43.47184435464441776275634765625" lon="1.43207539804279804229736328125">
        <ele>253.399993896484375</ele>
        <time>2026-08-05T10:25:17.000Z</time>
        <extensions>
          <ns3:TrackPointExtension>
            <ns3:hr>65</ns3:hr>
            <ns3:cad>0</ns3:cad>
          </ns3:TrackPointExtension>
        </extensions>
      </trkpt>
      <trkpt lat="43.47184435464441776275634765625" lon="1.43207539804279804229736328125">
        <ele>253.399993896484375</ele>
        <time>2026-08-05T10:25:18.000Z</time>
        <extensions>
          <ns3:TrackPointExtension>
            <ns3:hr>65</ns3:hr>
            <ns3:cad>0</ns3:cad>
          </ns3:TrackPointExtension>
        </extensions>
      </trkpt>
      <trkpt lat="43.47184435464441776275634765625" lon="1.43207120709121227264404296875">
        <ele>253.1999969482421875</ele>
        <time>2026-08-05T10:25:19.000Z</time>
        <extensions>
          <ns3:TrackPointExtension>
            <ns3:hr>65</ns3:hr>
            <ns3:cad>0</ns3:cad>
          </ns3:TrackPointExtension>
        </extensions>
      </trkpt>
      <trkpt lat="43.47184418700635433197021484375" lon="1.43207489512860774993896484375">
        <ele>253.1999969482421875</ele>
        <time>2026-08-05T10:25:20.000Z</time>
        <extensions>
          <ns3:TrackPointExtension>
            <ns3:hr>65</ns3:hr>
            <ns3:cad>0</ns3:cad>
          </ns3:TrackPointExtension>
        </extensions>
      </trkpt>
      <trkpt lat="43.4718434326350688934326171875" lon="1.4320741407573223114013671875">
        <ele>253.399993896484375</ele>
        <time>2026-08-05T10:25:21.000Z</time>
        <extensions>
          <ns3:TrackPointExtension>
            <ns3:hr>65</ns3:hr>
            <ns3:cad>0</ns3:cad>
          </ns3:TrackPointExtension>
        </extensions>
      </trkpt>
      <trkpt lat="43.4718441031873226165771484375" lon="1.43206986598670482635498046875">
        <ele>253.399993896484375</ele>
        <time>2026-08-05T10:25:22.000Z</time>
        <extensions>
          <ns3:TrackPointExtension>
            <ns3:hr>65</ns3:hr>
            <ns3:cad>0</ns3:cad>
          </ns3:TrackPointExtension>
        </extensions>
      </trkpt>
      <trkpt lat="43.4718464501202106475830078125" lon="1.43206567503511905670166015625">
        <ele>253.1999969482421875</ele>
        <time>2026-08-05T10:25:23.000Z</time>
        <extensions>
          <ns3:TrackPointExtension>
            <ns3:hr>66</ns3:hr>
            <ns3:cad>0</ns3:cad>
          </ns3:TrackPointExtension>
        </extensions>
      </trkpt>
      <trkpt lat="43.47184435464441776275634765625" lon="1.43207539804279804229736328125">
        <ele>253.399993896484375</ele>
        <time>2026-08-05T10:25:24.000Z</time>
        <extensions>
          <ns3:TrackPointExtension>
            <ns3:hr>66</ns3:hr>
            <ns3:cad>0</ns3:cad>
          </ns3:TrackPointExtension>
        </extensions>
      </trkpt>
      <trkpt lat="43.471845276653766632080078125" lon="1.43206081353127956390380859375">
        <ele>253.399993896484375</ele>
        <time>2026-08-05T10:25:25.000Z</time>
        <extensions>
          <ns3:TrackPointExtension>
            <ns3:hr>65</ns3:hr>
            <ns3:cad>0</ns3:cad>
          </ns3:TrackPointExtension>
        </extensions>
      </trkpt>
      <trkpt lat="43.47184435464441776275634765625" lon="1.43207539804279804229736328125">
        <ele>253.600006103515625</ele>
        <time>2026-08-05T10:25:26.000Z</time>
        <extensions>
          <ns3:TrackPointExtension>
            <ns3:hr>65</ns3:hr>
            <ns3:cad>0</ns3:cad>
          </ns3:TrackPointExtension>
        </extensions>
      </trkpt>
      <trkpt lat="43.4718464501202106475830078125" lon="1.432059220969676971435546875">
        <ele>253.600006103515625</ele>
        <time>2026-08-05T10:25:27.000Z</time>
        <extensions>
          <ns3:TrackPointExtension>
            <ns3:hr>65</ns3:hr>
            <ns3:cad>0</ns3:cad>
          </ns3:TrackPointExtension>
        </extensions>
      </trkpt>
      <trkpt lat="43.47184519283473491668701171875" lon="1.43206156790256500244140625">
        <ele>253.8000030517578125</ele>
        <time>2026-08-05T10:25:28.000Z</time>
        <extensions>
          <ns3:TrackPointExtension>
            <ns3:hr>64</ns3:hr>
            <ns3:cad>0</ns3:cad>
          </ns3:TrackPointExtension>
        </extensions>
      </trkpt>
      <trkpt lat="43.47184435464441776275634765625" lon="1.43207539804279804229736328125">
        <ele>253.8000030517578125</ele>
        <time>2026-08-05T10:25:29.000Z</time>
        <extensions>
          <ns3:TrackPointExtension>
            <ns3:hr>64</ns3:hr>
            <ns3:cad>0</ns3:cad>
          </ns3:TrackPointExtension>
        </extensions>
      </trkpt>
      <trkpt lat="43.47184435464441776275634765625" lon="1.43207539804279804229736328125">
        <ele>254</ele>
        <time>2026-08-05T10:25:30.000Z</time>
        <extensions>
          <ns3:TrackPointExtension>
            <ns3:hr>64</ns3:hr>
            <ns3:cad>0</ns3:cad>
          </ns3:TrackPointExtension>
        </extensions>
      </trkpt>
      <trkpt lat="43.47184435464441776275634765625" lon="1.43207539804279804229736328125">
        <ele>254</ele>
        <time>2026-08-05T10:25:31.000Z</time>
        <extensions>
          <ns3:TrackPointExtension>
            <ns3:hr>64</ns3:hr>
            <ns3:cad>0</ns3:cad>
          </ns3:TrackPointExtension>
        </extensions>
      </trkpt>
      <trkpt lat="43.47184435464441776275634765625" lon="1.43207539804279804229736328125">
        <ele>254</ele>
        <time>2026-08-05T10:25:32.000Z</time>
        <extensions>
          <ns3:TrackPointExtension>
            <ns3:hr>64</ns3:hr>
            <ns3:cad>0</ns3:cad>
          </ns3:TrackPointExtension>
        </extensions>
      </trkpt>
      <trkpt lat="43.47184435464441776275634765625" lon="1.43207539804279804229736328125">
        <ele>254</ele>
        <time>2026-08-05T10:25:33.000Z</time>
        <extensions>
          <ns3:TrackPointExtension>
            <ns3:hr>65</ns3:hr>
            <ns3:cad>0</ns3:cad>
          </ns3:TrackPointExtension>
        </extensions>
      </trkpt>
      <trkpt lat="43.47184435464441776275634765625" lon="1.43207539804279804229736328125">
        <ele>254.1999969482421875</ele>
        <time>2026-08-05T10:25:34.000Z</time>
        <extensions>
          <ns3:TrackPointExtension>
            <ns3:hr>65</ns3:hr>
            <ns3:cad>0</ns3:cad>
          </ns3:TrackPointExtension>
        </extensions>
      </trkpt>
      <trkpt lat="43.47184435464441776275634765625" lon="1.43207539804279804229736328125">
        <ele>254.600006103515625</ele>
        <time>2026-08-05T10:25:35.000Z</time>
        <extensions>
          <ns3:TrackPointExtension>
            <ns3:hr>67</ns3:hr>
            <ns3:cad>0</ns3:cad>
          </ns3:TrackPointExtension>
        </extensions>
      </trkpt>
      <trkpt lat="43.47184435464441776275634765625" lon="1.43207539804279804229736328125">
        <ele>255</ele>
        <time>2026-08-05T10:25:36.000Z</time>
        <extensions>
          <ns3:TrackPointExtension>
            <ns3:hr>68</ns3:hr>
            <ns3:cad>0</ns3:cad>
          </ns3:TrackPointExtension>
        </extensions>
      </trkpt>
      <trkpt lat="43.47184435464441776275634765625" lon="1.43207539804279804229736328125">
        <ele>255.1999969482421875</ele>
        <time>2026-08-05T10:25:37.000Z</time>
        <extensions>
          <ns3:TrackPointExtension>
            <ns3:hr>68</ns3:hr>
            <ns3:cad>0</ns3:cad>
          </ns3:TrackPointExtension>
        </extensions>
      </trkpt>
      <trkpt lat="43.47184435464441776275634765625" lon="1.43207539804279804229736328125">
        <ele>255.1999969482421875</ele>
        <time>2026-08-05T10:25:38.000Z</time>
        <extensions>
          <ns3:TrackPointExtension>
            <ns3:hr>68</ns3:hr>
            <ns3:cad>0</ns3:cad>
          </ns3:TrackPointExtension>
        </extensions>
      </trkpt>
      <trkpt lat="43.47184435464441776275634765625" lon="1.43207539804279804229736328125">
        <ele>255</ele>
        <time>2026-08-05T10:25:39.000Z</time>
        <extensions>
          <ns3:TrackPointExtension>
            <ns3:hr>68</ns3:hr>
            <ns3:cad>0</ns3:cad>
          </ns3:TrackPointExtension>
        </extensions>
      </trkpt>
      <trkpt lat="43.47184435464441776275634765625" lon="1.43207539804279804229736328125">
        <ele>254.600006103515625</ele>
        <time>2026-08-05T10:25:40.000Z</time>
        <extensions>
          <ns3:TrackPointExtension>
            <ns3:hr>68</ns3:hr>
            <ns3:cad>0</ns3:cad>
          </ns3:TrackPointExtension>
        </extensions>
      </trkpt>
      <trkpt lat="43.47184435464441776275634765625" lon="1.43207539804279804229736328125">
        <ele>254</ele>
        <time>2026-08-05T10:25:41.000Z</time>
        <extensions>
          <ns3:TrackPointExtension>
            <ns3:hr>67</ns3:hr>
            <ns3:cad>0</ns3:cad>
          </ns3:TrackPointExtension>
        </extensions>
      </trkpt>
      <trkpt lat="43.47184435464441776275634765625" lon="1.43207539804279804229736328125">
        <ele>253.600006103515625</ele>
        <time>2026-08-05T10:25:42.000Z</time>
        <extensions>
          <ns3:TrackPointExtension>
            <ns3:hr>67</ns3:hr>
            <ns3:cad>0</ns3:cad>
          </ns3:TrackPointExtension>
        </extensions>
      </trkpt>
      <trkpt lat="43.47184435464441776275634765625" lon="1.43207539804279804229736328125">
        <ele>253.1999969482421875</ele>
        <time>2026-08-05T10:25:43.000Z</time>
        <extensions>
          <ns3:TrackPointExtension>
            <ns3:hr>66</ns3:hr>
            <ns3:cad>0</ns3:cad>
          </ns3:TrackPointExtension>
        </extensions>
      </trkpt>
      <trkpt lat="43.47184435464441776275634765625" lon="1.43207539804279804229736328125">
        <ele>253.1999969482421875</ele>
        <time>2026-08-05T10:25:44.000Z</time>
        <extensions>
          <ns3:TrackPointExtension>
            <ns3:hr>66</ns3:hr>
            <ns3:cad>0</ns3:cad>
          </ns3:TrackPointExtension>
        </extensions>
      </trkpt>
      <trkpt lat="43.47184435464441776275634765625" lon="1.43207539804279804229736328125">
        <ele>253.1999969482421875</ele>
        <time>2026-08-05T10:25:45.000Z</time>
        <extensions>
          <ns3:TrackPointExtension>
            <ns3:hr>66</ns3:hr>
            <ns3:cad>0</ns3:cad>
          </ns3:TrackPointExtension>
        </extensions>
      </trkpt>
      <trkpt lat="43.47184435464441776275634765625" lon="1.43207539804279804229736328125">
        <ele>253.1999969482421875</ele>
        <time>2026-08-05T10:25:46.000Z</time>
        <extensions>
          <ns3:TrackPointExtension>
            <ns3:hr>67</ns3:hr>
            <ns3:cad>0</ns3:cad>
          </ns3:TrackPointExtension>
        </extensions>
      </trkpt>
      <trkpt lat="43.47184502519667148590087890625" lon="1.43206022679805755615234375">
        <ele>253.399993896484375</ele>
        <time>2026-08-05T10:25:47.000Z</time>
        <extensions>
          <ns3:TrackPointExtension>
            <ns3:hr>67</ns3:hr>
            <ns3:cad>0</ns3:cad>
          </ns3:TrackPointExtension>
        </extensions>
      </trkpt>
      <trkpt lat="43.47184435464441776275634765625" lon="1.43207539804279804229736328125">
        <ele>253.399993896484375</ele>
        <time>2026-08-05T10:25:48.000Z</time>
        <extensions>
          <ns3:TrackPointExtension>
            <ns3:hr>67</ns3:hr>
            <ns3:cad>0</ns3:cad>
          </ns3:TrackPointExtension>
        </extensions>
      </trkpt>
      <trkpt lat="43.47184435464441776275634765625" lon="1.43207539804279804229736328125">
        <ele>253.399993896484375</ele>
        <time>2026-08-05T10:25:49.000Z</time>
        <extensions>
          <ns3:TrackPointExtension>
            <ns3:hr>66</ns3:hr>
            <ns3:cad>0</ns3:cad>
          </ns3:TrackPointExtension>
        </extensions>
      </trkpt>
      <trkpt lat="43.47184435464441776275634765625" lon="1.43207539804279804229736328125">
        <ele>253.399993896484375</ele>
        <time>2026-08-05T10:25:50.000Z</time>
        <extensions>
          <ns3:TrackPointExtension>
            <ns3:hr>67</ns3:hr>
            <ns3:cad>0</ns3:cad>
          </ns3:TrackPointExtension>
        </extensions>
      </trkpt>
      <trkpt lat="43.47184435464441776275634765625" lon="1.43207539804279804229736328125">
        <ele>253.399993896484375</ele>
        <time>2026-08-05T10:25:51.000Z</time>
        <extensions>
          <ns3:TrackPointExtension>
            <ns3:hr>67</ns3:hr>
            <ns3:cad>0</ns3:cad>
          </ns3:TrackPointExtension>
        </extensions>
      </trkpt>
      <trkpt lat="43.47184435464441776275634765625" lon="1.43207539804279804229736328125">
        <ele>253.399993896484375</ele>
        <time>2026-08-05T10:25:52.000Z</time>
        <extensions>
          <ns3:TrackPointExtension>
            <ns3:hr>67</ns3:hr>
            <ns3:cad>0</ns3:cad>
          </ns3:TrackPointExtension>
        </extensions>
      </trkpt>
      <trkpt lat="43.47184435464441776275634765625" lon="1.43207539804279804229736328125">
        <ele>253.399993896484375</ele>
        <time>2026-08-05T10:25:53.000Z</time>
        <extensions>
          <ns3:TrackPointExtension>
            <ns3:hr>67</ns3:hr>
            <ns3:cad>0</ns3:cad>
          </ns3:TrackPointExtension>
        </extensions>
      </trkpt>
      <trkpt lat="43.47184435464441776275634765625" lon="1.43207539804279804229736328125">
        <ele>253.399993896484375</ele>
        <time>2026-08-05T10:25:54.000Z</time>
        <extensions>
          <ns3:TrackPointExtension>
            <ns3:hr>67</ns3:hr>
            <ns3:cad>0</ns3:cad>
          </ns3:TrackPointExtension>
        </extensions>
      </trkpt>
      <trkpt lat="43.47184435464441776275634765625" lon="1.4320624060928821563720703125">
        <ele>253.399993896484375</ele>
        <time>2026-08-05T10:25:55.000Z</time>
        <extensions>
          <ns3:TrackPointExtension>
            <ns3:hr>67</ns3:hr>
            <ns3:cad>0</ns3:cad>
          </ns3:TrackPointExtension>
        </extensions>
      </trkpt>
      <trkpt lat="43.47184435464441776275634765625" lon="1.43207539804279804229736328125">
        <ele>253.399993896484375</ele>
        <time>2026-08-05T10:25:56.000Z</time>
        <extensions>
          <ns3:TrackPointExtension>
            <ns3:hr>67</ns3:hr>
            <ns3:cad>0</ns3:cad>
          </ns3:TrackPointExtension>
        </extensions>
      </trkpt>
      <trkpt lat="43.47184435464441776275634765625" lon="1.43207539804279804229736328125">
        <ele>253.1999969482421875</ele>
        <time>2026-08-05T10:25:57.000Z</time>
        <extensions>
          <ns3:TrackPointExtension>
            <ns3:hr>67</ns3:hr>
            <ns3:cad>0</ns3:cad>
          </ns3:TrackPointExtension>
        </extensions>
      </trkpt>
      <trkpt lat="43.47184435464441776275634765625" lon="1.43207539804279804229736328125">
        <ele>253</ele>
        <time>2026-08-05T10:25:58.000Z</time>
        <extensions>
          <ns3:TrackPointExtension>
            <ns3:hr>67</ns3:hr>
            <ns3:cad>0</ns3:cad>
          </ns3:TrackPointExtension>
        </extensions>
      </trkpt>
      <trkpt lat="43.47184435464441776275634765625" lon="1.43207539804279804229736328125">
        <ele>253</ele>
        <time>2026-08-05T10:25:59.000Z</time>
        <extensions>
          <ns3:TrackPointExtension>
            <ns3:hr>67</ns3:hr>
            <ns3:cad>0</ns3:cad>
          </ns3:TrackPointExtension>
        </extensions>
      </trkpt>
      <trkpt lat="43.47184435464441776275634765625" lon="1.43207539804279804229736328125">
        <ele>252.8000030517578125</ele>
        <time>2026-08-05T10:26:00.000Z</time>
        <extensions>
          <ns3:TrackPointExtension>
            <ns3:hr>68</ns3:hr>
            <ns3:cad>0</ns3:cad>
          </ns3:TrackPointExtension>
        </extensions>
      </trkpt>
      <trkpt lat="43.47184435464441776275634765625" lon="1.43207539804279804229736328125">
        <ele>253</ele>
        <time>2026-08-05T10:26:01.000Z</time>
        <extensions>
          <ns3:TrackPointExtension>
            <ns3:hr>68</ns3:hr>
            <ns3:cad>0</ns3:cad>
          </ns3:TrackPointExtension>
        </extensions>
      </trkpt>
      <trkpt lat="43.47184435464441776275634765625" lon="1.43207539804279804229736328125">
        <ele>253</ele>
        <time>2026-08-05T10:26:02.000Z</time>
        <extensions>
          <ns3:TrackPointExtension>
            <ns3:hr>68</ns3:hr>
            <ns3:cad>0</ns3:cad>
          </ns3:TrackPointExtension>
        </extensions>
      </trkpt>
      <trkpt lat="43.47184435464441776275634765625" lon="1.43207539804279804229736328125">
        <ele>253</ele>
        <time>2026-08-05T10:26:03.000Z</time>
        <extensions>
          <ns3:TrackPointExtension>
            <ns3:hr>67</ns3:hr>
            <ns3:cad>0</ns3:cad>
          </ns3:TrackPointExtension>
        </extensions>
      </trkpt>
      <trkpt lat="43.47184435464441776275634765625" lon="1.43207539804279804229736328125">
        <ele>253</ele>
        <time>2026-08-05T10:26:04.000Z</time>
        <extensions>
          <ns3:TrackPointExtension>
            <ns3:hr>67</ns3:hr>
            <ns3:cad>0</ns3:cad>
          </ns3:TrackPointExtension>
        </extensions>
      </trkpt>
      <trkpt lat="43.47184435464441776275634765625" lon="1.43207539804279804229736328125">
        <ele>252.8000030517578125</ele>
        <time>2026-08-05T10:26:05.000Z</time>
        <extensions>
          <ns3:TrackPointExtension>
            <ns3:hr>66</ns3:hr>
            <ns3:cad>0</ns3:cad>
          </ns3:TrackPointExtension>
        </extensions>
      </trkpt>
      <trkpt lat="43.47184435464441776275634765625" lon="1.43207539804279804229736328125">
        <ele>252.8000030517578125</ele>
        <time>2026-08-05T10:26:06.000Z</time>
        <extensions>
          <ns3:TrackPointExtension>
            <ns3:hr>66</ns3:hr>
            <ns3:cad>0</ns3:cad>
          </ns3:TrackPointExtension>
        </extensions>
      </trkpt>
      <trkpt lat="43.47184435464441776275634765625" lon="1.43207539804279804229736328125">
        <ele>252.600006103515625</ele>
        <time>2026-08-05T10:26:07.000Z</time>
        <extensions>
          <ns3:TrackPointExtension>
            <ns3:hr>65</ns3:hr>
            <ns3:cad>0</ns3:cad>
          </ns3:TrackPointExtension>
        </extensions>
      </trkpt>
      <trkpt lat="43.47184435464441776275634765625" lon="1.43207539804279804229736328125">
        <ele>252.600006103515625</ele>
        <time>2026-08-05T10:26:08.000Z</time>
        <extensions>
          <ns3:TrackPointExtension>
            <ns3:hr>64</ns3:hr>
            <ns3:cad>0</ns3:cad>
          </ns3:TrackPointExtension>
        </extensions>
      </trkpt>
      <trkpt lat="43.47184435464441776275634765625" lon="1.43207539804279804229736328125">
        <ele>252.600006103515625</ele>
        <time>2026-08-05T10:26:09.000Z</time>
        <extensions>
          <ns3:TrackPointExtension>
            <ns3:hr>63</ns3:hr>
            <ns3:cad>0</ns3:cad>
          </ns3:TrackPointExtension>
        </extensions>
      </trkpt>
      <trkpt lat="43.47184435464441776275634765625" lon="1.43207539804279804229736328125">
        <ele>252.600006103515625</ele>
        <time>2026-08-05T10:26:10.000Z</time>
        <extensions>
          <ns3:TrackPointExtension>
            <ns3:hr>64</ns3:hr>
            <ns3:cad>0</ns3:cad>
          </ns3:TrackPointExtension>
        </extensions>
      </trkpt>
      <trkpt lat="43.47184435464441776275634765625" lon="1.43207539804279804229736328125">
        <ele>252.600006103515625</ele>
        <time>2026-08-05T10:26:11.000Z</time>
        <extensions>
          <ns3:TrackPointExtension>
            <ns3:hr>64</ns3:hr>
            <ns3:cad>0</ns3:cad>
          </ns3:TrackPointExtension>
        </extensions>
      </trkpt>
      <trkpt lat="43.47184435464441776275634765625" lon="1.43207539804279804229736328125">
        <ele>252.600006103515625</ele>
        <time>2026-08-05T10:26:12.000Z</time>
        <extensions>
          <ns3:TrackPointExtension>
            <ns3:hr>64</ns3:hr>
            <ns3:cad>0</ns3:cad>
          </ns3:TrackPointExtension>
        </extensions>
      </trkpt>
      <trkpt lat="43.47184435464441776275634765625" lon="1.43207539804279804229736328125">
        <ele>252.600006103515625</ele>
        <time>2026-08-05T10:26:13.000Z</time>
        <extensions>
          <ns3:TrackPointExtension>
            <ns3:hr>64</ns3:hr>
            <ns3:cad>0</ns3:cad>
          </ns3:TrackPointExtension>
        </extensions>
      </trkpt>
      <trkpt lat="43.47184435464441776275634765625" lon="1.43207539804279804229736328125">
        <ele>252.600006103515625</ele>
        <time>2026-08-05T10:26:14.000Z</time>
        <extensions>
          <ns3:TrackPointExtension>
            <ns3:hr>64</ns3:hr>
            <ns3:cad>0</ns3:cad>
          </ns3:TrackPointExtension>
        </extensions>
      </trkpt>
      <trkpt lat="43.47184435464441776275634765625" lon="1.43207539804279804229736328125">
        <ele>252.600006103515625</ele>
        <time>2026-08-05T10:26:15.000Z</time>
        <extensions>
          <ns3:TrackPointExtension>
            <ns3:hr>64</ns3:hr>
            <ns3:cad>0</ns3:cad>
          </ns3:TrackPointExtension>
        </extensions>
      </trkpt>
      <trkpt lat="43.47184435464441776275634765625" lon="1.43207539804279804229736328125">
        <ele>252.600006103515625</ele>
        <time>2026-08-05T10:26:16.000Z</time>
        <extensions>
          <ns3:TrackPointExtension>
            <ns3:hr>64</ns3:hr>
            <ns3:cad>0</ns3:cad>
          </ns3:TrackPointExtension>
        </extensions>
      </trkpt>
      <trkpt lat="43.47184435464441776275634765625" lon="1.43207539804279804229736328125">
        <ele>252.600006103515625</ele>
        <time>2026-08-05T10:26:17.000Z</time>
        <extensions>
          <ns3:TrackPointExtension>
            <ns3:hr>64</ns3:hr>
            <ns3:cad>0</ns3:cad>
          </ns3:TrackPointExtension>
        </extensions>
      </trkpt>
      <trkpt lat="43.47184435464441776275634765625" lon="1.43207539804279804229736328125">
        <ele>252.399993896484375</ele>
        <time>2026-08-05T10:26:18.000Z</time>
        <extensions>
          <ns3:TrackPointExtension>
            <ns3:hr>64</ns3:hr>
            <ns3:cad>0</ns3:cad>
          </ns3:TrackPointExtension>
        </extensions>
      </trkpt>
      <trkpt lat="43.47184435464441776275634765625" lon="1.43207539804279804229736328125">
        <ele>252.399993896484375</ele>
        <time>2026-08-05T10:26:19.000Z</time>
        <extensions>
          <ns3:TrackPointExtension>
            <ns3:hr>64</ns3:hr>
            <ns3:cad>0</ns3:cad>
          </ns3:TrackPointExtension>
        </extensions>
      </trkpt>
      <trkpt lat="43.47184435464441776275634765625" lon="1.43207539804279804229736328125">
        <ele>252.399993896484375</ele>
        <time>2026-08-05T10:26:20.000Z</time>
        <extensions>
          <ns3:TrackPointExtension>
            <ns3:hr>64</ns3:hr>
            <ns3:cad>0</ns3:cad>
          </ns3:TrackPointExtension>
        </extensions>
      </trkpt>
      <trkpt lat="43.47184435464441776275634765625" lon="1.43207539804279804229736328125">
        <ele>252.399993896484375</ele>
        <time>2026-08-05T10:26:21.000Z</time>
        <extensions>
          <ns3:TrackPointExtension>
            <ns3:hr>64</ns3:hr>
            <ns3:cad>0</ns3:cad>
          </ns3:TrackPointExtension>
        </extensions>
      </trkpt>
      <trkpt lat="43.47184435464441776275634765625" lon="1.43207539804279804229736328125">
        <ele>252.1999969482421875</ele>
        <time>2026-08-05T10:26:22.000Z</time>
        <extensions>
          <ns3:TrackPointExtension>
            <ns3:hr>63</ns3:hr>
            <ns3:cad>0</ns3:cad>
          </ns3:TrackPointExtension>
        </extensions>
      </trkpt>
      <trkpt lat="43.47184435464441776275634765625" lon="1.43207539804279804229736328125">
        <ele>252.1999969482421875</ele>
        <time>2026-08-05T10:26:23.000Z</time>
        <extensions>
          <ns3:TrackPointExtension>
            <ns3:hr>63</ns3:hr>
            <ns3:cad>0</ns3:cad>
          </ns3:TrackPointExtension>
        </extensions>
      </trkpt>
      <trkpt lat="43.47184435464441776275634765625" lon="1.43207539804279804229736328125">
        <ele>252</ele>
        <time>2026-08-05T10:26:24.000Z</time>
        <extensions>
          <ns3:TrackPointExtension>
            <ns3:hr>63</ns3:hr>
            <ns3:cad>0</ns3:cad>
          </ns3:TrackPointExtension>
        </extensions>
      </trkpt>
      <trkpt lat="43.47184435464441776275634765625" lon="1.43207539804279804229736328125">
        <ele>252</ele>
        <time>2026-08-05T10:26:25.000Z</time>
        <extensions>
          <ns3:TrackPointExtension>
            <ns3:hr>63</ns3:hr>
            <ns3:cad>0</ns3:cad>
          </ns3:TrackPointExtension>
        </extensions>
      </trkpt>
      <trkpt lat="43.47184435464441776275634765625" lon="1.43207539804279804229736328125">
        <ele>252</ele>
        <time>2026-08-05T10:26:26.000Z</time>
        <extensions>
          <ns3:TrackPointExtension>
            <ns3:hr>63</ns3:hr>
            <ns3:cad>0</ns3:cad>
          </ns3:TrackPointExtension>
        </extensions>
      </trkpt>
      <trkpt lat="43.47184435464441776275634765625" lon="1.43207539804279804229736328125">
        <ele>252</ele>
        <time>2026-08-05T10:26:27.000Z</time>
        <extensions>
          <ns3:TrackPointExtension>
            <ns3:hr>64</ns3:hr>
            <ns3:cad>0</ns3:cad>
          </ns3:TrackPointExtension>
        </extensions>
      </trkpt>
      <trkpt lat="43.47184435464441776275634765625" lon="1.43207539804279804229736328125">
        <ele>252.1999969482421875</ele>
        <time>2026-08-05T10:26:28.000Z</time>
        <extensions>
          <ns3:TrackPointExtension>
            <ns3:hr>63</ns3:hr>
            <ns3:cad>0</ns3:cad>
          </ns3:TrackPointExtension>
        </extensions>
      </trkpt>
      <trkpt lat="43.47184435464441776275634765625" lon="1.43207539804279804229736328125">
        <ele>252.399993896484375</ele>
        <time>2026-08-05T10:26:29.000Z</time>
        <extensions>
          <ns3:TrackPointExtension>
            <ns3:hr>63</ns3:hr>
            <ns3:cad>0</ns3:cad>
          </ns3:TrackPointExtension>
        </extensions>
      </trkpt>
      <trkpt lat="43.47184435464441776275634765625" lon="1.43207539804279804229736328125">
        <ele>252.600006103515625</ele>
        <time>2026-08-05T10:26:30.000Z</time>
        <extensions>
          <ns3:TrackPointExtension>
            <ns3:hr>62</ns3:hr>
            <ns3:cad>0</ns3:cad>
          </ns3:TrackPointExtension>
        </extensions>
      </trkpt>
      <trkpt lat="43.47184435464441776275634765625" lon="1.43207539804279804229736328125">
        <ele>252.600006103515625</ele>
        <time>2026-08-05T10:26:31.000Z</time>
        <extensions>
          <ns3:TrackPointExtension>
            <ns3:hr>61</ns3:hr>
            <ns3:cad>0</ns3:cad>
          </ns3:TrackPointExtension>
        </extensions>
      </trkpt>
      <trkpt lat="43.47184435464441776275634765625" lon="1.43207539804279804229736328125">
        <ele>252.8000030517578125</ele>
        <time>2026-08-05T10:26:32.000Z</time>
        <extensions>
          <ns3:TrackPointExtension>
            <ns3:hr>60</ns3:hr>
            <ns3:cad>0</ns3:cad>
          </ns3:TrackPointExtension>
        </extensions>
      </trkpt>
      <trkpt lat="43.47184435464441776275634765625" lon="1.43207539804279804229736328125">
        <ele>252.8000030517578125</ele>
        <time>2026-08-05T10:26:33.000Z</time>
        <extensions>
          <ns3:TrackPointExtension>
            <ns3:hr>59</ns3:hr>
            <ns3:cad>0</ns3:cad>
          </ns3:TrackPointExtension>
        </extensions>
      </trkpt>
      <trkpt lat="43.47184435464441776275634765625" lon="1.43207539804279804229736328125">
        <ele>252.600006103515625</ele>
        <time>2026-08-05T10:26:34.000Z</time>
        <extensions>
          <ns3:TrackPointExtension>
            <ns3:hr>59</ns3:hr>
            <ns3:cad>0</ns3:cad>
          </ns3:TrackPointExtension>
        </extensions>
      </trkpt>
      <trkpt lat="43.47184435464441776275634765625" lon="1.43207539804279804229736328125">
        <ele>252.600006103515625</ele>
        <time>2026-08-05T10:26:35.000Z</time>
        <extensions>
          <ns3:TrackPointExtension>
            <ns3:hr>59</ns3:hr>
            <ns3:cad>0</ns3:cad>
          </ns3:TrackPointExtension>
        </extensions>
      </trkpt>
      <trkpt lat="43.47184435464441776275634765625" lon="1.43207539804279804229736328125">
        <ele>252.600006103515625</ele>
        <time>2026-08-05T10:26:36.000Z</time>
        <extensions>
          <ns3:TrackPointExtension>
            <ns3:hr>59</ns3:hr>
            <ns3:cad>0</ns3:cad>
          </ns3:TrackPointExtension>
        </extensions>
      </trkpt>
      <trkpt lat="43.47184435464441776275634765625" lon="1.43207539804279804229736328125">
        <ele>252.600006103515625</ele>
        <time>2026-08-05T10:26:37.000Z</time>
        <extensions>
          <ns3:TrackPointExtension>
            <ns3:hr>59</ns3:hr>
            <ns3:cad>0</ns3:cad>
          </ns3:TrackPointExtension>
        </extensions>
      </trkpt>
      <trkpt lat="43.47184435464441776275634765625" lon="1.43207539804279804229736328125">
        <ele>252.600006103515625</ele>
        <time>2026-08-05T10:26:38.000Z</time>
        <extensions>
          <ns3:TrackPointExtension>
            <ns3:hr>59</ns3:hr>
            <ns3:cad>0</ns3:cad>
          </ns3:TrackPointExtension>
        </extensions>
      </trkpt>
      <trkpt lat="43.47184435464441776275634765625" lon="1.43207539804279804229736328125">
        <ele>252.600006103515625</ele>
        <time>2026-08-05T10:26:39.000Z</time>
        <extensions>
          <ns3:TrackPointExtension>
            <ns3:hr>60</ns3:hr>
            <ns3:cad>0</ns3:cad>
          </ns3:TrackPointExtension>
        </extensions>
      </trkpt>
      <trkpt lat="43.47184435464441776275634765625" lon="1.43207539804279804229736328125">
        <ele>252.600006103515625</ele>
        <time>2026-08-05T10:26:40.000Z</time>
        <extensions>
          <ns3:TrackPointExtension>
            <ns3:hr>60</ns3:hr>
            <ns3:cad>0</ns3:cad>
          </ns3:TrackPointExtension>
        </extensions>
      </trkpt>
      <trkpt lat="43.47184435464441776275634765625" lon="1.43207539804279804229736328125">
        <ele>252.600006103515625</ele>
        <time>2026-08-05T10:26:41.000Z</time>
        <extensions>
          <ns3:TrackPointExtension>
            <ns3:hr>60</ns3:hr>
            <ns3:cad>0</ns3:cad>
          </ns3:TrackPointExtension>
        </extensions>
      </trkpt>
      <trkpt lat="43.47184435464441776275634765625" lon="1.43207539804279804229736328125">
        <ele>252.600006103515625</ele>
        <time>2026-08-05T10:26:42.000Z</time>
        <extensions>
          <ns3:TrackPointExtension>
            <ns3:hr>60</ns3:hr>
            <ns3:cad>0</ns3:cad>
          </ns3:TrackPointExtension>
        </extensions>
      </trkpt>
      <trkpt lat="43.47184435464441776275634765625" lon="1.43207539804279804229736328125">
        <ele>252.600006103515625</ele>
        <time>2026-08-05T10:26:43.000Z</time>
        <extensions>
          <ns3:TrackPointExtension>
            <ns3:hr>61</ns3:hr>
            <ns3:cad>0</ns3:cad>
          </ns3:TrackPointExtension>
        </extensions>
      </trkpt>
      <trkpt lat="43.47184435464441776275634765625" lon="1.43207539804279804229736328125">
        <ele>252.600006103515625</ele>
        <time>2026-08-05T10:26:44.000Z</time>
        <extensions>
          <ns3:TrackPointExtension>
            <ns3:hr>62</ns3:hr>
            <ns3:cad>0</ns3:cad>
          </ns3:TrackPointExtension>
        </extensions>
      </trkpt>
      <trkpt lat="43.47184435464441776275634765625" lon="1.43207539804279804229736328125">
        <ele>252.600006103515625</ele>
        <time>2026-08-05T10:26:45.000Z</time>
        <extensions>
          <ns3:TrackPointExtension>
            <ns3:hr>62</ns3:hr>
            <ns3:cad>0</ns3:cad>
          </ns3:TrackPointExtension>
        </extensions>
      </trkpt>
      <trkpt lat="43.47184435464441776275634765625" lon="1.43207539804279804229736328125">
        <ele>252.600006103515625</ele>
        <time>2026-08-05T10:26:46.000Z</time>
        <extensions>
          <ns3:TrackPointExtension>
            <ns3:hr>62</ns3:hr>
            <ns3:cad>0</ns3:cad>
          </ns3:TrackPointExtension>
        </extensions>
      </trkpt>
      <trkpt lat="43.47184435464441776275634765625" lon="1.43207539804279804229736328125">
        <ele>252.600006103515625</ele>
        <time>2026-08-05T10:26:47.000Z</time>
        <extensions>
          <ns3:TrackPointExtension>
            <ns3:hr>63</ns3:hr>
            <ns3:cad>0</ns3:cad>
          </ns3:TrackPointExtension>
        </extensions>
      </trkpt>
      <trkpt lat="43.47184435464441776275634765625" lon="1.43207539804279804229736328125">
        <ele>252.600006103515625</ele>
        <time>2026-08-05T10:26:48.000Z</time>
        <extensions>
          <ns3:TrackPointExtension>
            <ns3:hr>63</ns3:hr>
            <ns3:cad>0</ns3:cad>
          </ns3:TrackPointExtension>
        </extensions>
      </trkpt>
      <trkpt lat="43.47184435464441776275634765625" lon="1.43207539804279804229736328125">
        <ele>252.600006103515625</ele>
        <time>2026-08-05T10:26:49.000Z</time>
        <extensions>
          <ns3:TrackPointExtension>
            <ns3:hr>63</ns3:hr>
            <ns3:cad>0</ns3:cad>
          </ns3:TrackPointExtension>
        </extensions>
      </trkpt>
      <trkpt lat="43.47184435464441776275634765625" lon="1.43207539804279804229736328125">
        <ele>252.600006103515625</ele>
        <time>2026-08-05T10:26:50.000Z</time>
        <extensions>
          <ns3:TrackPointExtension>
            <ns3:hr>63</ns3:hr>
            <ns3:cad>0</ns3:cad>
          </ns3:TrackPointExtension>
        </extensions>
      </trkpt>
      <trkpt lat="43.47184435464441776275634765625" lon="1.43207539804279804229736328125">
        <ele>252.600006103515625</ele>
        <time>2026-08-05T10:26:51.000Z</time>
        <extensions>
          <ns3:TrackPointExtension>
            <ns3:hr>63</ns3:hr>
            <ns3:cad>0</ns3:cad>
          </ns3:TrackPointExtension>
        </extensions>
      </trkpt>
      <trkpt lat="43.47184435464441776275634765625" lon="1.43207539804279804229736328125">
        <ele>252.600006103515625</ele>
        <time>2026-08-05T10:26:52.000Z</time>
        <extensions>
          <ns3:TrackPointExtension>
            <ns3:hr>63</ns3:hr>
            <ns3:cad>0</ns3:cad>
          </ns3:TrackPointExtension>
        </extensions>
      </trkpt>
      <trkpt lat="43.47184435464441776275634765625" lon="1.43207539804279804229736328125">
        <ele>252.600006103515625</ele>
        <time>2026-08-05T10:26:53.000Z</time>
        <extensions>
          <ns3:TrackPointExtension>
            <ns3:hr>61</ns3:hr>
            <ns3:cad>0</ns3:cad>
          </ns3:TrackPointExtension>
        </extensions>
      </trkpt>
      <trkpt lat="43.47184435464441776275634765625" lon="1.43207539804279804229736328125">
        <ele>252.600006103515625</ele>
        <time>2026-08-05T10:26:54.000Z</time>
        <extensions>
          <ns3:TrackPointExtension>
            <ns3:hr>59</ns3:hr>
            <ns3:cad>0</ns3:cad>
          </ns3:TrackPointExtension>
        </extensions>
      </trkpt>
      <trkpt lat="43.47184435464441776275634765625" lon="1.43207539804279804229736328125">
        <ele>252.600006103515625</ele>
        <time>2026-08-05T10:26:55.000Z</time>
        <extensions>
          <ns3:TrackPointExtension>
            <ns3:hr>59</ns3:hr>
            <ns3:cad>0</ns3:cad>
          </ns3:TrackPointExtension>
        </extensions>
      </trkpt>
      <trkpt lat="43.47184435464441776275634765625" lon="1.43207539804279804229736328125">
        <ele>252.600006103515625</ele>
        <time>2026-08-05T10:26:56.000Z</time>
        <extensions>
          <ns3:TrackPointExtension>
            <ns3:hr>59</ns3:hr>
            <ns3:cad>0</ns3:cad>
          </ns3:TrackPointExtension>
        </extensions>
      </trkpt>
      <trkpt lat="43.47184435464441776275634765625" lon="1.43207539804279804229736328125">
        <ele>252.600006103515625</ele>
        <time>2026-08-05T10:26:57.000Z</time>
        <extensions>
          <ns3:TrackPointExtension>
            <ns3:hr>58</ns3:hr>
            <ns3:cad>0</ns3:cad>
          </ns3:TrackPointExtension>
        </extensions>
      </trkpt>
      <trkpt lat="43.47184435464441776275634765625" lon="1.43207539804279804229736328125">
        <ele>252.600006103515625</ele>
        <time>2026-08-05T10:26:58.000Z</time>
        <extensions>
          <ns3:TrackPointExtension>
            <ns3:hr>58</ns3:hr>
            <ns3:cad>0</ns3:cad>
          </ns3:TrackPointExtension>
        </extensions>
      </trkpt>
      <trkpt lat="43.47184435464441776275634765625" lon="1.43207539804279804229736328125">
        <ele>252.600006103515625</ele>
        <time>2026-08-05T10:26:59.000Z</time>
        <extensions>
          <ns3:TrackPointExtension>
            <ns3:hr>58</ns3:hr>
            <ns3:cad>0</ns3:cad>
          </ns3:TrackPointExtension>
        </extensions>
      </trkpt>
      <trkpt lat="43.47184435464441776275634765625" lon="1.43207539804279804229736328125">
        <ele>252.600006103515625</ele>
        <time>2026-08-05T10:27:00.000Z</time>
        <extensions>
          <ns3:TrackPointExtension>
            <ns3:hr>59</ns3:hr>
            <ns3:cad>0</ns3:cad>
          </ns3:TrackPointExtension>
        </extensions>
      </trkpt>
      <trkpt lat="43.47184435464441776275634765625" lon="1.43207539804279804229736328125">
        <ele>252.600006103515625</ele>
        <time>2026-08-05T10:27:01.000Z</time>
        <extensions>
          <ns3:TrackPointExtension>
            <ns3:hr>58</ns3:hr>
            <ns3:cad>0</ns3:cad>
          </ns3:TrackPointExtension>
        </extensions>
      </trkpt>
      <trkpt lat="43.47184435464441776275634765625" lon="1.43207539804279804229736328125">
        <ele>252.600006103515625</ele>
        <time>2026-08-05T10:27:02.000Z</time>
        <extensions>
          <ns3:TrackPointExtension>
            <ns3:hr>58</ns3:hr>
            <ns3:cad>0</ns3:cad>
          </ns3:TrackPointExtension>
        </extensions>
      </trkpt>
      <trkpt lat="43.47184435464441776275634765625" lon="1.43207539804279804229736328125">
        <ele>252.600006103515625</ele>
        <time>2026-08-05T10:27:03.000Z</time>
        <extensions>
          <ns3:TrackPointExtension>
            <ns3:hr>59</ns3:hr>
            <ns3:cad>0</ns3:cad>
          </ns3:TrackPointExtension>
        </extensions>
      </trkpt>
      <trkpt lat="43.47184435464441776275634765625" lon="1.43207539804279804229736328125">
        <ele>252.600006103515625</ele>
        <time>2026-08-05T10:27:04.000Z</time>
        <extensions>
          <ns3:TrackPointExtension>
            <ns3:hr>59</ns3:hr>
            <ns3:cad>0</ns3:cad>
          </ns3:TrackPointExtension>
        </extensions>
      </trkpt>
      <trkpt lat="43.47184435464441776275634765625" lon="1.43207539804279804229736328125">
        <ele>252.600006103515625</ele>
        <time>2026-08-05T10:27:05.000Z</time>
        <extensions>
          <ns3:TrackPointExtension>
            <ns3:hr>60</ns3:hr>
            <ns3:cad>0</ns3:cad>
          </ns3:TrackPointExtension>
        </extensions>
      </trkpt>
      <trkpt lat="43.47184435464441776275634765625" lon="1.43207539804279804229736328125">
        <ele>252.600006103515625</ele>
        <time>2026-08-05T10:27:06.000Z</time>
        <extensions>
          <ns3:TrackPointExtension>
            <ns3:hr>60</ns3:hr>
            <ns3:cad>0</ns3:cad>
          </ns3:TrackPointExtension>
        </extensions>
      </trkpt>
      <trkpt lat="43.47184435464441776275634765625" lon="1.43207539804279804229736328125">
        <ele>252.600006103515625</ele>
        <time>2026-08-05T10:27:07.000Z</time>
        <extensions>
          <ns3:TrackPointExtension>
            <ns3:hr>60</ns3:hr>
            <ns3:cad>0</ns3:cad>
          </ns3:TrackPointExtension>
        </extensions>
      </trkpt>
      <trkpt lat="43.47184435464441776275634765625" lon="1.43207539804279804229736328125">
        <ele>252.600006103515625</ele>
        <time>2026-08-05T10:27:08.000Z</time>
        <extensions>
          <ns3:TrackPointExtension>
            <ns3:hr>60</ns3:hr>
            <ns3:cad>0</ns3:cad>
          </ns3:TrackPointExtension>
        </extensions>
      </trkpt>
      <trkpt lat="43.47184435464441776275634765625" lon="1.43207539804279804229736328125">
        <ele>252.600006103515625</ele>
        <time>2026-08-05T10:27:09.000Z</time>
        <extensions>
          <ns3:TrackPointExtension>
            <ns3:hr>60</ns3:hr>
            <ns3:cad>0</ns3:cad>
          </ns3:TrackPointExtension>
        </extensions>
      </trkpt>
      <trkpt lat="43.47184435464441776275634765625" lon="1.43207539804279804229736328125">
        <ele>252.600006103515625</ele>
        <time>2026-08-05T10:27:10.000Z</time>
        <extensions>
          <ns3:TrackPointExtension>
            <ns3:hr>60</ns3:hr>
            <ns3:cad>0</ns3:cad>
          </ns3:TrackPointExtension>
        </extensions>
      </trkpt>
      <trkpt lat="43.47184435464441776275634765625" lon="1.43207539804279804229736328125">
        <ele>252.600006103515625</ele>
        <time>2026-08-05T10:27:11.000Z</time>
        <extensions>
          <ns3:TrackPointExtension>
            <ns3:hr>60</ns3:hr>
            <ns3:cad>0</ns3:cad>
          </ns3:TrackPointExtension>
        </extensions>
      </trkpt>
      <trkpt lat="43.47184435464441776275634765625" lon="1.43207539804279804229736328125">
        <ele>252.600006103515625</ele>
        <time>2026-08-05T10:27:12.000Z</time>
        <extensions>
          <ns3:TrackPointExtension>
            <ns3:hr>60</ns3:hr>
            <ns3:cad>0</ns3:cad>
          </ns3:TrackPointExtension>
        </extensions>
      </trkpt>
      <trkpt lat="43.47184435464441776275634765625" lon="1.43207539804279804229736328125">
        <ele>252.600006103515625</ele>
        <time>2026-08-05T10:27:13.000Z</time>
        <extensions>
          <ns3:TrackPointExtension>
            <ns3:hr>60</ns3:hr>
            <ns3:cad>0</ns3:cad>
          </ns3:TrackPointExtension>
        </extensions>
      </trkpt>
      <trkpt lat="43.47184435464441776275634765625" lon="1.43207539804279804229736328125">
        <ele>252.399993896484375</ele>
        <time>2026-08-05T10:27:14.000Z</time>
        <extensions>
          <ns3:TrackPointExtension>
            <ns3:hr>60</ns3:hr>
            <ns3:cad>0</ns3:cad>
          </ns3:TrackPointExtension>
        </extensions>
      </trkpt>
      <trkpt lat="43.47184435464441776275634765625" lon="1.43207539804279804229736328125">
        <ele>252.600006103515625</ele>
        <time>2026-08-05T10:27:15.000Z</time>
        <extensions>
          <ns3:TrackPointExtension>
            <ns3:hr>60</ns3:hr>
            <ns3:cad>0</ns3:cad>
          </ns3:TrackPointExtension>
        </extensions>
      </trkpt>
      <trkpt lat="43.47184435464441776275634765625" lon="1.43207539804279804229736328125">
        <ele>252.600006103515625</ele>
        <time>2026-08-05T10:27:16.000Z</time>
        <extensions>
          <ns3:TrackPointExtension>
            <ns3:hr>60</ns3:hr>
            <ns3:cad>0</ns3:cad>
          </ns3:TrackPointExtension>
        </extensions>
      </trkpt>
      <trkpt lat="43.47184435464441776275634765625" lon="1.43207539804279804229736328125">
        <ele>252.600006103515625</ele>
        <time>2026-08-05T10:27:17.000Z</time>
        <extensions>
          <ns3:TrackPointExtension>
            <ns3:hr>60</ns3:hr>
            <ns3:cad>0</ns3:cad>
          </ns3:TrackPointExtension>
        </extensions>
      </trkpt>
      <trkpt lat="43.47184435464441776275634765625" lon="1.43207539804279804229736328125">
        <ele>252.600006103515625</ele>
        <time>2026-08-05T10:27:18.000Z</time>
        <extensions>
          <ns3:TrackPointExtension>
            <ns3:hr>61</ns3:hr>
            <ns3:cad>0</ns3:cad>
          </ns3:TrackPointExtension>
        </extensions>
      </trkpt>
      <trkpt lat="43.47184435464441776275634765625" lon="1.43207539804279804229736328125">
        <ele>252.600006103515625</ele>
        <time>2026-08-05T10:27:19.000Z</time>
        <extensions>
          <ns3:TrackPointExtension>
            <ns3:hr>61</ns3:hr>
            <ns3:cad>0</ns3:cad>
          </ns3:TrackPointExtension>
        </extensions>
      </trkpt>
      <trkpt lat="43.47184435464441776275634765625" lon="1.43207539804279804229736328125">
        <ele>252.600006103515625</ele>
        <time>2026-08-05T10:27:20.000Z</time>
        <extensions>
          <ns3:TrackPointExtension>
            <ns3:hr>62</ns3:hr>
            <ns3:cad>0</ns3:cad>
          </ns3:TrackPointExtension>
        </extensions>
      </trkpt>
      <trkpt lat="43.47184435464441776275634765625" lon="1.43207539804279804229736328125">
        <ele>252.600006103515625</ele>
        <time>2026-08-05T10:27:21.000Z</time>
        <extensions>
          <ns3:TrackPointExtension>
            <ns3:hr>63</ns3:hr>
            <ns3:cad>0</ns3:cad>
          </ns3:TrackPointExtension>
        </extensions>
      </trkpt>
      <trkpt lat="43.47184435464441776275634765625" lon="1.43207539804279804229736328125">
        <ele>252.600006103515625</ele>
        <time>2026-08-05T10:27:22.000Z</time>
        <extensions>
          <ns3:TrackPointExtension>
            <ns3:hr>63</ns3:hr>
            <ns3:cad>0</ns3:cad>
          </ns3:TrackPointExtension>
        </extensions>
      </trkpt>
      <trkpt lat="43.47184435464441776275634765625" lon="1.43207539804279804229736328125">
        <ele>252.600006103515625</ele>
        <time>2026-08-05T10:27:23.000Z</time>
        <extensions>
          <ns3:TrackPointExtension>
            <ns3:hr>63</ns3:hr>
            <ns3:cad>0</ns3:cad>
          </ns3:TrackPointExtension>
        </extensions>
      </trkpt>
      <trkpt lat="43.47184452228248119354248046875" lon="1.43207439221441745758056640625">
        <ele>252.600006103515625</ele>
        <time>2026-08-05T10:27:24.000Z</time>
        <extensions>
          <ns3:TrackPointExtension>
            <ns3:hr>62</ns3:hr>
            <ns3:cad>0</ns3:cad>
          </ns3:TrackPointExtension>
        </extensions>
      </trkpt>
      <trkpt lat="43.47184452228248119354248046875" lon="1.43207439221441745758056640625">
        <ele>252.600006103515625</ele>
        <time>2026-08-05T10:27:25.000Z</time>
        <extensions>
          <ns3:TrackPointExtension>
            <ns3:hr>63</ns3:hr>
            <ns3:cad>0</ns3:cad>
          </ns3:TrackPointExtension>
        </extensions>
      </trkpt>
      <trkpt lat="43.47184452228248119354248046875" lon="1.43207439221441745758056640625">
        <ele>252.600006103515625</ele>
        <time>2026-08-05T10:27:26.000Z</time>
        <extensions>
          <ns3:TrackPointExtension>
            <ns3:hr>65</ns3:hr>
            <ns3:cad>0</ns3:cad>
          </ns3:TrackPointExtension>
        </extensions>
      </trkpt>
      <trkpt lat="43.47184452228248119354248046875" lon="1.43207439221441745758056640625">
        <ele>252.600006103515625</ele>
        <time>2026-08-05T10:27:27.000Z</time>
        <extensions>
          <ns3:TrackPointExtension>
            <ns3:hr>68</ns3:hr>
            <ns3:cad>0</ns3:cad>
          </ns3:TrackPointExtension>
        </extensions>
      </trkpt>
      <trkpt lat="43.47184452228248119354248046875" lon="1.43207439221441745758056640625">
        <ele>252.600006103515625</ele>
        <time>2026-08-05T10:27:28.000Z</time>
        <extensions>
          <ns3:TrackPointExtension>
            <ns3:hr>69</ns3:hr>
            <ns3:cad>0</ns3:cad>
          </ns3:TrackPointExtension>
        </extensions>
      </trkpt>
      <trkpt lat="43.47184452228248119354248046875" lon="1.43207439221441745758056640625">
        <ele>252.600006103515625</ele>
        <time>2026-08-05T10:27:29.000Z</time>
        <extensions>
          <ns3:TrackPointExtension>
            <ns3:hr>69</ns3:hr>
            <ns3:cad>0</ns3:cad>
          </ns3:TrackPointExtension>
        </extensions>
      </trkpt>
      <trkpt lat="43.47184452228248119354248046875" lon="1.43207439221441745758056640625">
        <ele>252.600006103515625</ele>
        <time>2026-08-05T10:27:30.000Z</time>
        <extensions>
          <ns3:TrackPointExtension>
            <ns3:hr>69</ns3:hr>
            <ns3:cad>0</ns3:cad>
          </ns3:TrackPointExtension>
        </extensions>
      </trkpt>
      <trkpt lat="43.47184452228248119354248046875" lon="1.43207439221441745758056640625">
        <ele>252.600006103515625</ele>
        <time>2026-08-05T10:27:31.000Z</time>
        <extensions>
          <ns3:TrackPointExtension>
            <ns3:hr>69</ns3:hr>
            <ns3:cad>0</ns3:cad>
          </ns3:TrackPointExtension>
        </extensions>
      </trkpt>
      <trkpt lat="43.47184452228248119354248046875" lon="1.43207439221441745758056640625">
        <ele>252.8000030517578125</ele>
        <time>2026-08-05T10:27:32.000Z</time>
        <extensions>
          <ns3:TrackPointExtension>
            <ns3:hr>68</ns3:hr>
            <ns3:cad>0</ns3:cad>
          </ns3:TrackPointExtension>
        </extensions>
      </trkpt>
      <trkpt lat="43.47184452228248119354248046875" lon="1.43207439221441745758056640625">
        <ele>252.8000030517578125</ele>
        <time>2026-08-05T10:27:33.000Z</time>
        <extensions>
          <ns3:TrackPointExtension>
            <ns3:hr>68</ns3:hr>
            <ns3:cad>0</ns3:cad>
          </ns3:TrackPointExtension>
        </extensions>
      </trkpt>
      <trkpt lat="43.47184452228248119354248046875" lon="1.43207439221441745758056640625">
        <ele>252.8000030517578125</ele>
        <time>2026-08-05T10:27:34.000Z</time>
        <extensions>
          <ns3:TrackPointExtension>
            <ns3:hr>68</ns3:hr>
            <ns3:cad>0</ns3:cad>
          </ns3:TrackPointExtension>
        </extensions>
      </trkpt>
      <trkpt lat="43.47184452228248119354248046875" lon="1.43207439221441745758056640625">
        <ele>252.600006103515625</ele>
        <time>2026-08-05T10:27:35.000Z</time>
        <extensions>
          <ns3:TrackPointExtension>
            <ns3:hr>67</ns3:hr>
            <ns3:cad>0</ns3:cad>
          </ns3:TrackPointExtension>
        </extensions>
      </trkpt>
      <trkpt lat="43.47184452228248119354248046875" lon="1.43207439221441745758056640625">
        <ele>252.600006103515625</ele>
        <time>2026-08-05T10:27:36.000Z</time>
        <extensions>
          <ns3:TrackPointExtension>
            <ns3:hr>67</ns3:hr>
            <ns3:cad>0</ns3:cad>
          </ns3:TrackPointExtension>
        </extensions>
      </trkpt>
      <trkpt lat="43.47184452228248119354248046875" lon="1.43207439221441745758056640625">
        <ele>252.600006103515625</ele>
        <time>2026-08-05T10:27:37.000Z</time>
        <extensions>
          <ns3:TrackPointExtension>
            <ns3:hr>67</ns3:hr>
            <ns3:cad>0</ns3:cad>
          </ns3:TrackPointExtension>
        </extensions>
      </trkpt>
      <trkpt lat="43.47184452228248119354248046875" lon="1.43207439221441745758056640625">
        <ele>252.600006103515625</ele>
        <time>2026-08-05T10:27:38.000Z</time>
        <extensions>
          <ns3:TrackPointExtension>
            <ns3:hr>67</ns3:hr>
            <ns3:cad>0</ns3:cad>
          </ns3:TrackPointExtension>
        </extensions>
      </trkpt>
      <trkpt lat="43.47184452228248119354248046875" lon="1.43207439221441745758056640625">
        <ele>252.600006103515625</ele>
        <time>2026-08-05T10:27:39.000Z</time>
        <extensions>
          <ns3:TrackPointExtension>
            <ns3:hr>66</ns3:hr>
            <ns3:cad>0</ns3:cad>
          </ns3:TrackPointExtension>
        </extensions>
      </trkpt>
      <trkpt lat="43.47184452228248119354248046875" lon="1.43207439221441745758056640625">
        <ele>252.600006103515625</ele>
        <time>2026-08-05T10:27:40.000Z</time>
        <extensions>
          <ns3:TrackPointExtension>
            <ns3:hr>66</ns3:hr>
            <ns3:cad>0</ns3:cad>
          </ns3:TrackPointExtension>
        </extensions>
      </trkpt>
      <trkpt lat="43.47184334881603717803955078125" lon="1.432063579559326171875">
        <ele>252.600006103515625</ele>
        <time>2026-08-05T10:27:41.000Z</time>
        <extensions>
          <ns3:TrackPointExtension>
            <ns3:hr>66</ns3:hr>
            <ns3:cad>0</ns3:cad>
          </ns3:TrackPointExtension>
        </extensions>
      </trkpt>
      <trkpt lat="43.47184435464441776275634765625" lon="1.43207539804279804229736328125">
        <ele>252.8000030517578125</ele>
        <time>2026-08-05T10:27:42.000Z</time>
        <extensions>
          <ns3:TrackPointExtension>
            <ns3:hr>66</ns3:hr>
            <ns3:cad>0</ns3:cad>
          </ns3:TrackPointExtension>
        </extensions>
      </trkpt>
      <trkpt lat="43.47184435464441776275634765625" lon="1.43207539804279804229736328125">
        <ele>252.8000030517578125</ele>
        <time>2026-08-05T10:27:43.000Z</time>
        <extensions>
          <ns3:TrackPointExtension>
            <ns3:hr>66</ns3:hr>
            <ns3:cad>0</ns3:cad>
          </ns3:TrackPointExtension>
        </extensions>
      </trkpt>
      <trkpt lat="43.47184435464441776275634765625" lon="1.43207539804279804229736328125">
        <ele>252.8000030517578125</ele>
        <time>2026-08-05T10:27:44.000Z</time>
        <extensions>
          <ns3:TrackPointExtension>
            <ns3:hr>66</ns3:hr>
            <ns3:cad>0</ns3:cad>
          </ns3:TrackPointExtension>
        </extensions>
      </trkpt>
      <trkpt lat="43.47184435464441776275634765625" lon="1.43207539804279804229736328125">
        <ele>252.8000030517578125</ele>
        <time>2026-08-05T10:27:45.000Z</time>
        <extensions>
          <ns3:TrackPointExtension>
            <ns3:hr>66</ns3:hr>
            <ns3:cad>0</ns3:cad>
          </ns3:TrackPointExtension>
        </extensions>
      </trkpt>
      <trkpt lat="43.47184435464441776275634765625" lon="1.43207539804279804229736328125">
        <ele>252.8000030517578125</ele>
        <time>2026-08-05T10:27:46.000Z</time>
        <extensions>
          <ns3:TrackPointExtension>
            <ns3:hr>66</ns3:hr>
            <ns3:cad>0</ns3:cad>
          </ns3:TrackPointExtension>
        </extensions>
      </trkpt>
      <trkpt lat="43.47184435464441776275634765625" lon="1.43207539804279804229736328125">
        <ele>252.600006103515625</ele>
        <time>2026-08-05T10:27:47.000Z</time>
        <extensions>
          <ns3:TrackPointExtension>
            <ns3:hr>66</ns3:hr>
            <ns3:cad>0</ns3:cad>
          </ns3:TrackPointExtension>
        </extensions>
      </trkpt>
      <trkpt lat="43.47184435464441776275634765625" lon="1.43207539804279804229736328125">
        <ele>252.600006103515625</ele>
        <time>2026-08-05T10:27:48.000Z</time>
        <extensions>
          <ns3:TrackPointExtension>
            <ns3:hr>67</ns3:hr>
            <ns3:cad>0</ns3:cad>
          </ns3:TrackPointExtension>
        </extensions>
      </trkpt>
      <trkpt lat="43.47184435464441776275634765625" lon="1.43207539804279804229736328125">
        <ele>252.8000030517578125</ele>
        <time>2026-08-05T10:27:49.000Z</time>
        <extensions>
          <ns3:TrackPointExtension>
            <ns3:hr>69</ns3:hr>
            <ns3:cad>0</ns3:cad>
          </ns3:TrackPointExtension>
        </extensions>
      </trkpt>
      <trkpt lat="43.47184435464441776275634765625" lon="1.43207539804279804229736328125">
        <ele>252.8000030517578125</ele>
        <time>2026-08-05T10:27:50.000Z</time>
        <extensions>
          <ns3:TrackPointExtension>
            <ns3:hr>71</ns3:hr>
            <ns3:cad>0</ns3:cad>
          </ns3:TrackPointExtension>
        </extensions>
      </trkpt>
      <trkpt lat="43.47184435464441776275634765625" lon="1.43207539804279804229736328125">
        <ele>252.8000030517578125</ele>
        <time>2026-08-05T10:27:51.000Z</time>
        <extensions>
          <ns3:TrackPointExtension>
            <ns3:hr>73</ns3:hr>
            <ns3:cad>0</ns3:cad>
          </ns3:TrackPointExtension>
        </extensions>
      </trkpt>
      <trkpt lat="43.47184435464441776275634765625" lon="1.43207539804279804229736328125">
        <ele>252.8000030517578125</ele>
        <time>2026-08-05T10:27:52.000Z</time>
        <extensions>
          <ns3:TrackPointExtension>
            <ns3:hr>73</ns3:hr>
            <ns3:cad>0</ns3:cad>
          </ns3:TrackPointExtension>
        </extensions>
      </trkpt>
      <trkpt lat="43.47184435464441776275634765625" lon="1.43207539804279804229736328125">
        <ele>252.8000030517578125</ele>
        <time>2026-08-05T10:27:53.000Z</time>
        <extensions>
          <ns3:TrackPointExtension>
            <ns3:hr>73</ns3:hr>
            <ns3:cad>0</ns3:cad>
          </ns3:TrackPointExtension>
        </extensions>
      </trkpt>
      <trkpt lat="43.47184435464441776275634765625" lon="1.43207003362476825714111328125">
        <ele>252.8000030517578125</ele>
        <time>2026-08-05T10:27:54.000Z</time>
        <extensions>
          <ns3:TrackPointExtension>
            <ns3:hr>74</ns3:hr>
            <ns3:cad>0</ns3:cad>
          </ns3:TrackPointExtension>
        </extensions>
      </trkpt>
      <trkpt lat="43.47184435464441776275634765625" lon="1.43207539804279804229736328125">
        <ele>253</ele>
        <time>2026-08-05T10:27:55.000Z</time>
        <extensions>
          <ns3:TrackPointExtension>
            <ns3:hr>73</ns3:hr>
            <ns3:cad>62</ns3:cad>
          </ns3:TrackPointExtension>
        </extensions>
      </trkpt>
      <trkpt lat="43.47184292972087860107421875" lon="1.43206567503511905670166015625">
        <ele>253</ele>
        <time>2026-08-05T10:27:56.000Z</time>
        <extensions>
          <ns3:TrackPointExtension>
            <ns3:hr>72</ns3:hr>
            <ns3:cad>62</ns3:cad>
          </ns3:TrackPointExtension>
        </extensions>
      </trkpt>
      <trkpt lat="43.47184435464441776275634765625" lon="1.43207539804279804229736328125">
        <ele>252.8000030517578125</ele>
        <time>2026-08-05T10:27:57.000Z</time>
        <extensions>
          <ns3:TrackPointExtension>
            <ns3:hr>72</ns3:hr>
            <ns3:cad>0</ns3:cad>
          </ns3:TrackPointExtension>
        </extensions>
      </trkpt>
      <trkpt lat="43.47184435464441776275634765625" lon="1.43207539804279804229736328125">
        <ele>252.8000030517578125</ele>
        <time>2026-08-05T10:27:58.000Z</time>
        <extensions>
          <ns3:TrackPointExtension>
            <ns3:hr>72</ns3:hr>
            <ns3:cad>0</ns3:cad>
          </ns3:TrackPointExtension>
        </extensions>
      </trkpt>
      <trkpt lat="43.47184435464441776275634765625" lon="1.43207539804279804229736328125">
        <ele>252.8000030517578125</ele>
        <time>2026-08-05T10:27:59.000Z</time>
        <extensions>
          <ns3:TrackPointExtension>
            <ns3:hr>72</ns3:hr>
            <ns3:cad>0</ns3:cad>
          </ns3:TrackPointExtension>
        </extensions>
      </trkpt>
      <trkpt lat="43.47184435464441776275634765625" lon="1.43207539804279804229736328125">
        <ele>252.8000030517578125</ele>
        <time>2026-08-05T10:28:00.000Z</time>
        <extensions>
          <ns3:TrackPointExtension>
            <ns3:hr>73</ns3:hr>
            <ns3:cad>0</ns3:cad>
          </ns3:TrackPointExtension>
        </extensions>
      </trkpt>
      <trkpt lat="43.47184435464441776275634765625" lon="1.43207539804279804229736328125">
        <ele>252.8000030517578125</ele>
        <time>2026-08-05T10:28:01.000Z</time>
        <extensions>
          <ns3:TrackPointExtension>
            <ns3:hr>72</ns3:hr>
            <ns3:cad>0</ns3:cad>
          </ns3:TrackPointExtension>
        </extensions>
      </trkpt>
      <trkpt lat="43.47184435464441776275634765625" lon="1.43207539804279804229736328125">
        <ele>252.8000030517578125</ele>
        <time>2026-08-05T10:28:02.000Z</time>
        <extensions>
          <ns3:TrackPointExtension>
            <ns3:hr>72</ns3:hr>
            <ns3:cad>0</ns3:cad>
          </ns3:TrackPointExtension>
        </extensions>
      </trkpt>
      <trkpt lat="43.47184435464441776275634765625" lon="1.43207539804279804229736328125">
        <ele>252.8000030517578125</ele>
        <time>2026-08-05T10:28:03.000Z</time>
        <extensions>
          <ns3:TrackPointExtension>
            <ns3:hr>73</ns3:hr>
            <ns3:cad>0</ns3:cad>
          </ns3:TrackPointExtension>
        </extensions>
      </trkpt>
      <trkpt lat="43.47184435464441776275634765625" lon="1.43207539804279804229736328125">
        <ele>252.8000030517578125</ele>
        <time>2026-08-05T10:28:04.000Z</time>
        <extensions>
          <ns3:TrackPointExtension>
            <ns3:hr>72</ns3:hr>
            <ns3:cad>0</ns3:cad>
          </ns3:TrackPointExtension>
        </extensions>
      </trkpt>
      <trkpt lat="43.47184435464441776275634765625" lon="1.43207539804279804229736328125">
        <ele>252.8000030517578125</ele>
        <time>2026-08-05T10:28:05.000Z</time>
        <extensions>
          <ns3:TrackPointExtension>
            <ns3:hr>72</ns3:hr>
            <ns3:cad>0</ns3:cad>
          </ns3:TrackPointExtension>
        </extensions>
      </trkpt>
      <trkpt lat="43.47184435464441776275634765625" lon="1.43207539804279804229736328125">
        <ele>252.8000030517578125</ele>
        <time>2026-08-05T10:28:06.000Z</time>
        <extensions>
          <ns3:TrackPointExtension>
            <ns3:hr>68</ns3:hr>
            <ns3:cad>0</ns3:cad>
          </ns3:TrackPointExtension>
        </extensions>
      </trkpt>
      <trkpt lat="43.47184435464441776275634765625" lon="1.43207539804279804229736328125">
        <ele>252.8000030517578125</ele>
        <time>2026-08-05T10:28:07.000Z</time>
        <extensions>
          <ns3:TrackPointExtension>
            <ns3:hr>67</ns3:hr>
            <ns3:cad>0</ns3:cad>
          </ns3:TrackPointExtension>
        </extensions>
      </trkpt>
      <trkpt lat="43.47184435464441776275634765625" lon="1.43207539804279804229736328125">
        <ele>252.8000030517578125</ele>
        <time>2026-08-05T10:28:08.000Z</time>
        <extensions>
          <ns3:TrackPointExtension>
            <ns3:hr>66</ns3:hr>
            <ns3:cad>0</ns3:cad>
          </ns3:TrackPointExtension>
        </extensions>
      </trkpt>
      <trkpt lat="43.47184435464441776275634765625" lon="1.43207539804279804229736328125">
        <ele>252.600006103515625</ele>
        <time>2026-08-05T10:28:09.000Z</time>
        <extensions>
          <ns3:TrackPointExtension>
            <ns3:hr>65</ns3:hr>
            <ns3:cad>0</ns3:cad>
          </ns3:TrackPointExtension>
        </extensions>
      </trkpt>
      <trkpt lat="43.47184435464441776275634765625" lon="1.43207539804279804229736328125">
        <ele>252.600006103515625</ele>
        <time>2026-08-05T10:28:10.000Z</time>
        <extensions>
          <ns3:TrackPointExtension>
            <ns3:hr>65</ns3:hr>
            <ns3:cad>0</ns3:cad>
          </ns3:TrackPointExtension>
        </extensions>
      </trkpt>
      <trkpt lat="43.47184435464441776275634765625" lon="1.43207539804279804229736328125">
        <ele>252.600006103515625</ele>
        <time>2026-08-05T10:28:11.000Z</time>
        <extensions>
          <ns3:TrackPointExtension>
            <ns3:hr>64</ns3:hr>
            <ns3:cad>0</ns3:cad>
          </ns3:TrackPointExtension>
        </extensions>
      </trkpt>
      <trkpt lat="43.47184435464441776275634765625" lon="1.43207539804279804229736328125">
        <ele>252.399993896484375</ele>
        <time>2026-08-05T10:28:12.000Z</time>
        <extensions>
          <ns3:TrackPointExtension>
            <ns3:hr>64</ns3:hr>
            <ns3:cad>0</ns3:cad>
          </ns3:TrackPointExtension>
        </extensions>
      </trkpt>
      <trkpt lat="43.47184435464441776275634765625" lon="1.43207539804279804229736328125">
        <ele>252.399993896484375</ele>
        <time>2026-08-05T10:28:13.000Z</time>
        <extensions>
          <ns3:TrackPointExtension>
            <ns3:hr>64</ns3:hr>
            <ns3:cad>0</ns3:cad>
          </ns3:TrackPointExtension>
        </extensions>
      </trkpt>
      <trkpt lat="43.47184435464441776275634765625" lon="1.43207539804279804229736328125">
        <ele>252.399993896484375</ele>
        <time>2026-08-05T10:28:14.000Z</time>
        <extensions>
          <ns3:TrackPointExtension>
            <ns3:hr>64</ns3:hr>
            <ns3:cad>0</ns3:cad>
          </ns3:TrackPointExtension>
        </extensions>
      </trkpt>
      <trkpt lat="43.47184435464441776275634765625" lon="1.43207539804279804229736328125">
        <ele>252.399993896484375</ele>
        <time>2026-08-05T10:28:15.000Z</time>
        <extensions>
          <ns3:TrackPointExtension>
            <ns3:hr>64</ns3:hr>
            <ns3:cad>0</ns3:cad>
          </ns3:TrackPointExtension>
        </extensions>
      </trkpt>
      <trkpt lat="43.47184435464441776275634765625" lon="1.43207539804279804229736328125">
        <ele>252.399993896484375</ele>
        <time>2026-08-05T10:28:16.000Z</time>
        <extensions>
          <ns3:TrackPointExtension>
            <ns3:hr>64</ns3:hr>
            <ns3:cad>0</ns3:cad>
          </ns3:TrackPointExtension>
        </extensions>
      </trkpt>
      <trkpt lat="43.47184435464441776275634765625" lon="1.43207539804279804229736328125">
        <ele>252.399993896484375</ele>
        <time>2026-08-05T10:28:17.000Z</time>
        <extensions>
          <ns3:TrackPointExtension>
            <ns3:hr>65</ns3:hr>
            <ns3:cad>0</ns3:cad>
          </ns3:TrackPointExtension>
        </extensions>
      </trkpt>
      <trkpt lat="43.47184435464441776275634765625" lon="1.43207539804279804229736328125">
        <ele>252.399993896484375</ele>
        <time>2026-08-05T10:28:18.000Z</time>
        <extensions>
          <ns3:TrackPointExtension>
            <ns3:hr>64</ns3:hr>
            <ns3:cad>0</ns3:cad>
          </ns3:TrackPointExtension>
        </extensions>
      </trkpt>
      <trkpt lat="43.47184435464441776275634765625" lon="1.43207539804279804229736328125">
        <ele>252.399993896484375</ele>
        <time>2026-08-05T10:28:19.000Z</time>
        <extensions>
          <ns3:TrackPointExtension>
            <ns3:hr>65</ns3:hr>
            <ns3:cad>0</ns3:cad>
          </ns3:TrackPointExtension>
        </extensions>
      </trkpt>
      <trkpt lat="43.47184435464441776275634765625" lon="1.43207539804279804229736328125">
        <ele>252.600006103515625</ele>
        <time>2026-08-05T10:28:20.000Z</time>
        <extensions>
          <ns3:TrackPointExtension>
            <ns3:hr>66</ns3:hr>
            <ns3:cad>0</ns3:cad>
          </ns3:TrackPointExtension>
        </extensions>
      </trkpt>
      <trkpt lat="43.47184435464441776275634765625" lon="1.43207539804279804229736328125">
        <ele>252.399993896484375</ele>
        <time>2026-08-05T10:28:21.000Z</time>
        <extensions>
          <ns3:TrackPointExtension>
            <ns3:hr>65</ns3:hr>
            <ns3:cad>0</ns3:cad>
          </ns3:TrackPointExtension>
        </extensions>
      </trkpt>
      <trkpt lat="43.47184435464441776275634765625" lon="1.43207539804279804229736328125">
        <ele>252.399993896484375</ele>
        <time>2026-08-05T10:28:22.000Z</time>
        <extensions>
          <ns3:TrackPointExtension>
            <ns3:hr>65</ns3:hr>
            <ns3:cad>0</ns3:cad>
          </ns3:TrackPointExtension>
        </extensions>
      </trkpt>
      <trkpt lat="43.47184435464441776275634765625" lon="1.43207539804279804229736328125">
        <ele>252.399993896484375</ele>
        <time>2026-08-05T10:28:23.000Z</time>
        <extensions>
          <ns3:TrackPointExtension>
            <ns3:hr>65</ns3:hr>
            <ns3:cad>0</ns3:cad>
          </ns3:TrackPointExtension>
        </extensions>
      </trkpt>
      <trkpt lat="43.47184435464441776275634765625" lon="1.43207539804279804229736328125">
        <ele>252.399993896484375</ele>
        <time>2026-08-05T10:28:24.000Z</time>
        <extensions>
          <ns3:TrackPointExtension>
            <ns3:hr>65</ns3:hr>
            <ns3:cad>0</ns3:cad>
          </ns3:TrackPointExtension>
        </extensions>
      </trkpt>
      <trkpt lat="43.4718422591686248779296875" lon="1.43206156790256500244140625">
        <ele>252.399993896484375</ele>
        <time>2026-08-05T10:28:25.000Z</time>
        <extensions>
          <ns3:TrackPointExtension>
            <ns3:hr>65</ns3:hr>
            <ns3:cad>0</ns3:cad>
          </ns3:TrackPointExtension>
        </extensions>
      </trkpt>
      <trkpt lat="43.47184435464441776275634765625" lon="1.43207539804279804229736328125">
        <ele>252.399993896484375</ele>
        <time>2026-08-05T10:28:26.000Z</time>
        <extensions>
          <ns3:TrackPointExtension>
            <ns3:hr>65</ns3:hr>
            <ns3:cad>0</ns3:cad>
          </ns3:TrackPointExtension>
        </extensions>
      </trkpt>
      <trkpt lat="43.47184435464441776275634765625" lon="1.43207539804279804229736328125">
        <ele>252.399993896484375</ele>
        <time>2026-08-05T10:28:27.000Z</time>
        <extensions>
          <ns3:TrackPointExtension>
            <ns3:hr>65</ns3:hr>
            <ns3:cad>0</ns3:cad>
          </ns3:TrackPointExtension>
        </extensions>
      </trkpt>
      <trkpt lat="43.47184435464441776275634765625" lon="1.43207539804279804229736328125">
        <ele>252.600006103515625</ele>
        <time>2026-08-05T10:28:28.000Z</time>
        <extensions>
          <ns3:TrackPointExtension>
            <ns3:hr>65</ns3:hr>
            <ns3:cad>0</ns3:cad>
          </ns3:TrackPointExtension>
        </extensions>
      </trkpt>
      <trkpt lat="43.47184435464441776275634765625" lon="1.43207539804279804229736328125">
        <ele>252.600006103515625</ele>
        <time>2026-08-05T10:28:29.000Z</time>
        <extensions>
          <ns3:TrackPointExtension>
            <ns3:hr>65</ns3:hr>
            <ns3:cad>0</ns3:cad>
          </ns3:TrackPointExtension>
        </extensions>
      </trkpt>
      <trkpt lat="43.47184435464441776275634765625" lon="1.43207539804279804229736328125">
        <ele>252.600006103515625</ele>
        <time>2026-08-05T10:28:30.000Z</time>
        <extensions>
          <ns3:TrackPointExtension>
            <ns3:hr>66</ns3:hr>
            <ns3:cad>0</ns3:cad>
          </ns3:TrackPointExtension>
        </extensions>
      </trkpt>
      <trkpt lat="43.47184435464441776275634765625" lon="1.43207539804279804229736328125">
        <ele>252.600006103515625</ele>
        <time>2026-08-05T10:28:31.000Z</time>
        <extensions>
          <ns3:TrackPointExtension>
            <ns3:hr>67</ns3:hr>
            <ns3:cad>0</ns3:cad>
          </ns3:TrackPointExtension>
        </extensions>
      </trkpt>
      <trkpt lat="43.47184435464441776275634765625" lon="1.43207539804279804229736328125">
        <ele>252.399993896484375</ele>
        <time>2026-08-05T10:28:32.000Z</time>
        <extensions>
          <ns3:TrackPointExtension>
            <ns3:hr>67</ns3:hr>
            <ns3:cad>0</ns3:cad>
          </ns3:TrackPointExtension>
        </extensions>
      </trkpt>
      <trkpt lat="43.47184435464441776275634765625" lon="1.43207539804279804229736328125">
        <ele>252.399993896484375</ele>
        <time>2026-08-05T10:28:33.000Z</time>
        <extensions>
          <ns3:TrackPointExtension>
            <ns3:hr>67</ns3:hr>
            <ns3:cad>0</ns3:cad>
          </ns3:TrackPointExtension>
        </extensions>
      </trkpt>
      <trkpt lat="43.47184435464441776275634765625" lon="1.43207539804279804229736328125">
        <ele>252.399993896484375</ele>
        <time>2026-08-05T10:28:34.000Z</time>
        <extensions>
          <ns3:TrackPointExtension>
            <ns3:hr>67</ns3:hr>
            <ns3:cad>0</ns3:cad>
          </ns3:TrackPointExtension>
        </extensions>
      </trkpt>
      <trkpt lat="43.47184435464441776275634765625" lon="1.43207539804279804229736328125">
        <ele>252.399993896484375</ele>
        <time>2026-08-05T10:28:35.000Z</time>
        <extensions>
          <ns3:TrackPointExtension>
            <ns3:hr>67</ns3:hr>
            <ns3:cad>0</ns3:cad>
          </ns3:TrackPointExtension>
        </extensions>
      </trkpt>
      <trkpt lat="43.47184435464441776275634765625" lon="1.43207539804279804229736328125">
        <ele>252.399993896484375</ele>
        <time>2026-08-05T10:28:36.000Z</time>
        <extensions>
          <ns3:TrackPointExtension>
            <ns3:hr>67</ns3:hr>
            <ns3:cad>0</ns3:cad>
          </ns3:TrackPointExtension>
        </extensions>
      </trkpt>
      <trkpt lat="43.47184435464441776275634765625" lon="1.43207539804279804229736328125">
        <ele>252.399993896484375</ele>
        <time>2026-08-05T10:28:37.000Z</time>
        <extensions>
          <ns3:TrackPointExtension>
            <ns3:hr>68</ns3:hr>
            <ns3:cad>0</ns3:cad>
          </ns3:TrackPointExtension>
        </extensions>
      </trkpt>
      <trkpt lat="43.47184435464441776275634765625" lon="1.43207539804279804229736328125">
        <ele>252.399993896484375</ele>
        <time>2026-08-05T10:28:38.000Z</time>
        <extensions>
          <ns3:TrackPointExtension>
            <ns3:hr>68</ns3:hr>
            <ns3:cad>0</ns3:cad>
          </ns3:TrackPointExtension>
        </extensions>
      </trkpt>
      <trkpt lat="43.47184435464441776275634765625" lon="1.43207539804279804229736328125">
        <ele>252.399993896484375</ele>
        <time>2026-08-05T10:28:39.000Z</time>
        <extensions>
          <ns3:TrackPointExtension>
            <ns3:hr>68</ns3:hr>
            <ns3:cad>0</ns3:cad>
          </ns3:TrackPointExtension>
        </extensions>
      </trkpt>
      <trkpt lat="43.47184435464441776275634765625" lon="1.43207539804279804229736328125">
        <ele>252.399993896484375</ele>
        <time>2026-08-05T10:28:40.000Z</time>
        <extensions>
          <ns3:TrackPointExtension>
            <ns3:hr>69</ns3:hr>
            <ns3:cad>0</ns3:cad>
          </ns3:TrackPointExtension>
        </extensions>
      </trkpt>
      <trkpt lat="43.47184435464441776275634765625" lon="1.43207539804279804229736328125">
        <ele>252.399993896484375</ele>
        <time>2026-08-05T10:28:41.000Z</time>
        <extensions>
          <ns3:TrackPointExtension>
            <ns3:hr>70</ns3:hr>
            <ns3:cad>0</ns3:cad>
          </ns3:TrackPointExtension>
        </extensions>
      </trkpt>
      <trkpt lat="43.47184435464441776275634765625" lon="1.43207539804279804229736328125">
        <ele>252.399993896484375</ele>
        <time>2026-08-05T10:28:42.000Z</time>
        <extensions>
          <ns3:TrackPointExtension>
            <ns3:hr>71</ns3:hr>
            <ns3:cad>0</ns3:cad>
          </ns3:TrackPointExtension>
        </extensions>
      </trkpt>
      <trkpt lat="43.47184435464441776275634765625" lon="1.43207539804279804229736328125">
        <ele>252.1999969482421875</ele>
        <time>2026-08-05T10:28:43.000Z</time>
        <extensions>
          <ns3:TrackPointExtension>
            <ns3:hr>72</ns3:hr>
            <ns3:cad>0</ns3:cad>
          </ns3:TrackPointExtension>
        </extensions>
      </trkpt>
      <trkpt lat="43.47184435464441776275634765625" lon="1.43207539804279804229736328125">
        <ele>252.1999969482421875</ele>
        <time>2026-08-05T10:28:44.000Z</time>
        <extensions>
          <ns3:TrackPointExtension>
            <ns3:hr>73</ns3:hr>
            <ns3:cad>0</ns3:cad>
          </ns3:TrackPointExtension>
        </extensions>
      </trkpt>
      <trkpt lat="43.47184435464441776275634765625" lon="1.43207539804279804229736328125">
        <ele>252.1999969482421875</ele>
        <time>2026-08-05T10:28:45.000Z</time>
        <extensions>
          <ns3:TrackPointExtension>
            <ns3:hr>73</ns3:hr>
            <ns3:cad>0</ns3:cad>
          </ns3:TrackPointExtension>
        </extensions>
      </trkpt>
      <trkpt lat="43.47184435464441776275634765625" lon="1.43207539804279804229736328125">
        <ele>252.1999969482421875</ele>
        <time>2026-08-05T10:28:46.000Z</time>
        <extensions>
          <ns3:TrackPointExtension>
            <ns3:hr>72</ns3:hr>
            <ns3:cad>0</ns3:cad>
          </ns3:TrackPointExtension>
        </extensions>
      </trkpt>
      <trkpt lat="43.47184435464441776275634765625" lon="1.43207539804279804229736328125">
        <ele>252.1999969482421875</ele>
        <time>2026-08-05T10:28:47.000Z</time>
        <extensions>
          <ns3:TrackPointExtension>
            <ns3:hr>72</ns3:hr>
            <ns3:cad>0</ns3:cad>
          </ns3:TrackPointExtension>
        </extensions>
      </trkpt>
      <trkpt lat="43.47184435464441776275634765625" lon="1.43207539804279804229736328125">
        <ele>252.1999969482421875</ele>
        <time>2026-08-05T10:28:48.000Z</time>
        <extensions>
          <ns3:TrackPointExtension>
            <ns3:hr>71</ns3:hr>
            <ns3:cad>0</ns3:cad>
          </ns3:TrackPointExtension>
        </extensions>
      </trkpt>
      <trkpt lat="43.47184435464441776275634765625" lon="1.43207539804279804229736328125">
        <ele>252.1999969482421875</ele>
        <time>2026-08-05T10:28:49.000Z</time>
        <extensions>
          <ns3:TrackPointExtension>
            <ns3:hr>67</ns3:hr>
            <ns3:cad>0</ns3:cad>
          </ns3:TrackPointExtension>
        </extensions>
      </trkpt>
      <trkpt lat="43.47184435464441776275634765625" lon="1.43207539804279804229736328125">
        <ele>252.1999969482421875</ele>
        <time>2026-08-05T10:28:50.000Z</time>
        <extensions>
          <ns3:TrackPointExtension>
            <ns3:hr>62</ns3:hr>
            <ns3:cad>0</ns3:cad>
          </ns3:TrackPointExtension>
        </extensions>
      </trkpt>
      <trkpt lat="43.47184418700635433197021484375" lon="1.43206098116934299468994140625">
        <ele>252.399993896484375</ele>
        <time>2026-08-05T10:28:51.000Z</time>
        <extensions>
          <ns3:TrackPointExtension>
            <ns3:hr>61</ns3:hr>
            <ns3:cad>0</ns3:cad>
          </ns3:TrackPointExtension>
        </extensions>
      </trkpt>
      <trkpt lat="43.47184435464441776275634765625" lon="1.43207539804279804229736328125">
        <ele>252.399993896484375</ele>
        <time>2026-08-05T10:28:52.000Z</time>
        <extensions>
          <ns3:TrackPointExtension>
            <ns3:hr>61</ns3:hr>
            <ns3:cad>0</ns3:cad>
          </ns3:TrackPointExtension>
        </extensions>
      </trkpt>
      <trkpt lat="43.47184435464441776275634765625" lon="1.43207539804279804229736328125">
        <ele>252.600006103515625</ele>
        <time>2026-08-05T10:28:53.000Z</time>
        <extensions>
          <ns3:TrackPointExtension>
            <ns3:hr>61</ns3:hr>
            <ns3:cad>0</ns3:cad>
          </ns3:TrackPointExtension>
        </extensions>
      </trkpt>
      <trkpt lat="43.47184435464441776275634765625" lon="1.43207539804279804229736328125">
        <ele>252.600006103515625</ele>
        <time>2026-08-05T10:28:54.000Z</time>
        <extensions>
          <ns3:TrackPointExtension>
            <ns3:hr>61</ns3:hr>
            <ns3:cad>0</ns3:cad>
          </ns3:TrackPointExtension>
        </extensions>
      </trkpt>
      <trkpt lat="43.47184435464441776275634765625" lon="1.43207539804279804229736328125">
        <ele>252.399993896484375</ele>
        <time>2026-08-05T10:28:55.000Z</time>
        <extensions>
          <ns3:TrackPointExtension>
            <ns3:hr>61</ns3:hr>
            <ns3:cad>0</ns3:cad>
          </ns3:TrackPointExtension>
        </extensions>
      </trkpt>
      <trkpt lat="43.47184435464441776275634765625" lon="1.43207539804279804229736328125">
        <ele>252.399993896484375</ele>
        <time>2026-08-05T10:28:56.000Z</time>
        <extensions>
          <ns3:TrackPointExtension>
            <ns3:hr>62</ns3:hr>
            <ns3:cad>0</ns3:cad>
          </ns3:TrackPointExtension>
        </extensions>
      </trkpt>
      <trkpt lat="43.47184435464441776275634765625" lon="1.43207539804279804229736328125">
        <ele>252.399993896484375</ele>
        <time>2026-08-05T10:28:57.000Z</time>
        <extensions>
          <ns3:TrackPointExtension>
            <ns3:hr>62</ns3:hr>
            <ns3:cad>0</ns3:cad>
          </ns3:TrackPointExtension>
        </extensions>
      </trkpt>
      <trkpt lat="43.47184435464441776275634765625" lon="1.43207539804279804229736328125">
        <ele>252.1999969482421875</ele>
        <time>2026-08-05T10:28:58.000Z</time>
        <extensions>
          <ns3:TrackPointExtension>
            <ns3:hr>62</ns3:hr>
            <ns3:cad>0</ns3:cad>
          </ns3:TrackPointExtension>
        </extensions>
      </trkpt>
      <trkpt lat="43.47184435464441776275634765625" lon="1.43207539804279804229736328125">
        <ele>252.1999969482421875</ele>
        <time>2026-08-05T10:28:59.000Z</time>
        <extensions>
          <ns3:TrackPointExtension>
            <ns3:hr>63</ns3:hr>
            <ns3:cad>0</ns3:cad>
          </ns3:TrackPointExtension>
        </extensions>
      </trkpt>
      <trkpt lat="43.47184435464441776275634765625" lon="1.43207539804279804229736328125">
        <ele>252.399993896484375</ele>
        <time>2026-08-05T10:29:00.000Z</time>
        <extensions>
          <ns3:TrackPointExtension>
            <ns3:hr>64</ns3:hr>
            <ns3:cad>0</ns3:cad>
          </ns3:TrackPointExtension>
        </extensions>
      </trkpt>
      <trkpt lat="43.47184435464441776275634765625" lon="1.43207539804279804229736328125">
        <ele>252.399993896484375</ele>
        <time>2026-08-05T10:29:01.000Z</time>
        <extensions>
          <ns3:TrackPointExtension>
            <ns3:hr>66</ns3:hr>
            <ns3:cad>0</ns3:cad>
          </ns3:TrackPointExtension>
        </extensions>
      </trkpt>
      <trkpt lat="43.47184435464441776275634765625" lon="1.43207539804279804229736328125">
        <ele>252.399993896484375</ele>
        <time>2026-08-05T10:29:02.000Z</time>
        <extensions>
          <ns3:TrackPointExtension>
            <ns3:hr>67</ns3:hr>
            <ns3:cad>0</ns3:cad>
          </ns3:TrackPointExtension>
        </extensions>
      </trkpt>
      <trkpt lat="43.47184435464441776275634765625" lon="1.43207539804279804229736328125">
        <ele>252.600006103515625</ele>
        <time>2026-08-05T10:29:03.000Z</time>
        <extensions>
          <ns3:TrackPointExtension>
            <ns3:hr>68</ns3:hr>
            <ns3:cad>0</ns3:cad>
          </ns3:TrackPointExtension>
        </extensions>
      </trkpt>
      <trkpt lat="43.47184435464441776275634765625" lon="1.43207539804279804229736328125">
        <ele>252.600006103515625</ele>
        <time>2026-08-05T10:29:04.000Z</time>
        <extensions>
          <ns3:TrackPointExtension>
            <ns3:hr>69</ns3:hr>
            <ns3:cad>0</ns3:cad>
          </ns3:TrackPointExtension>
        </extensions>
      </trkpt>
      <trkpt lat="43.47184435464441776275634765625" lon="1.43207539804279804229736328125">
        <ele>252.600006103515625</ele>
        <time>2026-08-05T10:29:05.000Z</time>
        <extensions>
          <ns3:TrackPointExtension>
            <ns3:hr>70</ns3:hr>
            <ns3:cad>0</ns3:cad>
          </ns3:TrackPointExtension>
        </extensions>
      </trkpt>
      <trkpt lat="43.47184435464441776275634765625" lon="1.43207539804279804229736328125">
        <ele>252.600006103515625</ele>
        <time>2026-08-05T10:29:06.000Z</time>
        <extensions>
          <ns3:TrackPointExtension>
            <ns3:hr>70</ns3:hr>
            <ns3:cad>0</ns3:cad>
          </ns3:TrackPointExtension>
        </extensions>
      </trkpt>
      <trkpt lat="43.47184435464441776275634765625" lon="1.43207539804279804229736328125">
        <ele>252.600006103515625</ele>
        <time>2026-08-05T10:29:07.000Z</time>
        <extensions>
          <ns3:TrackPointExtension>
            <ns3:hr>70</ns3:hr>
            <ns3:cad>0</ns3:cad>
          </ns3:TrackPointExtension>
        </extensions>
      </trkpt>
      <trkpt lat="43.47184435464441776275634765625" lon="1.43207539804279804229736328125">
        <ele>252.600006103515625</ele>
        <time>2026-08-05T10:29:08.000Z</time>
        <extensions>
          <ns3:TrackPointExtension>
            <ns3:hr>69</ns3:hr>
            <ns3:cad>0</ns3:cad>
          </ns3:TrackPointExtension>
        </extensions>
      </trkpt>
      <trkpt lat="43.47184435464441776275634765625" lon="1.43207539804279804229736328125">
        <ele>252.600006103515625</ele>
        <time>2026-08-05T10:29:09.000Z</time>
        <extensions>
          <ns3:TrackPointExtension>
            <ns3:hr>69</ns3:hr>
            <ns3:cad>0</ns3:cad>
          </ns3:TrackPointExtension>
        </extensions>
      </trkpt>
      <trkpt lat="43.47184435464441776275634765625" lon="1.43207539804279804229736328125">
        <ele>252.399993896484375</ele>
        <time>2026-08-05T10:29:10.000Z</time>
        <extensions>
          <ns3:TrackPointExtension>
            <ns3:hr>69</ns3:hr>
            <ns3:cad>0</ns3:cad>
          </ns3:TrackPointExtension>
        </extensions>
      </trkpt>
      <trkpt lat="43.47184435464441776275634765625" lon="1.43207539804279804229736328125">
        <ele>252.399993896484375</ele>
        <time>2026-08-05T10:29:11.000Z</time>
        <extensions>
          <ns3:TrackPointExtension>
            <ns3:hr>70</ns3:hr>
            <ns3:cad>0</ns3:cad>
          </ns3:TrackPointExtension>
        </extensions>
      </trkpt>
      <trkpt lat="43.47184435464441776275634765625" lon="1.43207539804279804229736328125">
        <ele>252.1999969482421875</ele>
        <time>2026-08-05T10:29:12.000Z</time>
        <extensions>
          <ns3:TrackPointExtension>
            <ns3:hr>70</ns3:hr>
            <ns3:cad>0</ns3:cad>
          </ns3:TrackPointExtension>
        </extensions>
      </trkpt>
      <trkpt lat="43.47184435464441776275634765625" lon="1.43207539804279804229736328125">
        <ele>252.1999969482421875</ele>
        <time>2026-08-05T10:29:13.000Z</time>
        <extensions>
          <ns3:TrackPointExtension>
            <ns3:hr>70</ns3:hr>
            <ns3:cad>0</ns3:cad>
          </ns3:TrackPointExtension>
        </extensions>
      </trkpt>
      <trkpt lat="43.47184435464441776275634765625" lon="1.43207539804279804229736328125">
        <ele>252.1999969482421875</ele>
        <time>2026-08-05T10:29:14.000Z</time>
        <extensions>
          <ns3:TrackPointExtension>
            <ns3:hr>70</ns3:hr>
            <ns3:cad>0</ns3:cad>
          </ns3:TrackPointExtension>
        </extensions>
      </trkpt>
      <trkpt lat="43.47184435464441776275634765625" lon="1.43207539804279804229736328125">
        <ele>252.399993896484375</ele>
        <time>2026-08-05T10:29:15.000Z</time>
        <extensions>
          <ns3:TrackPointExtension>
            <ns3:hr>70</ns3:hr>
            <ns3:cad>0</ns3:cad>
          </ns3:TrackPointExtension>
        </extensions>
      </trkpt>
      <trkpt lat="43.47184435464441776275634765625" lon="1.43207539804279804229736328125">
        <ele>252.399993896484375</ele>
        <time>2026-08-05T10:29:16.000Z</time>
        <extensions>
          <ns3:TrackPointExtension>
            <ns3:hr>71</ns3:hr>
            <ns3:cad>0</ns3:cad>
          </ns3:TrackPointExtension>
        </extensions>
      </trkpt>
      <trkpt lat="43.47184435464441776275634765625" lon="1.43207539804279804229736328125">
        <ele>252.399993896484375</ele>
        <time>2026-08-05T10:29:17.000Z</time>
        <extensions>
          <ns3:TrackPointExtension>
            <ns3:hr>73</ns3:hr>
            <ns3:cad>0</ns3:cad>
          </ns3:TrackPointExtension>
        </extensions>
      </trkpt>
      <trkpt lat="43.47184435464441776275634765625" lon="1.43207539804279804229736328125">
        <ele>252.399993896484375</ele>
        <time>2026-08-05T10:29:18.000Z</time>
        <extensions>
          <ns3:TrackPointExtension>
            <ns3:hr>74</ns3:hr>
            <ns3:cad>0</ns3:cad>
          </ns3:TrackPointExtension>
        </extensions>
      </trkpt>
      <trkpt lat="43.47184435464441776275634765625" lon="1.43207539804279804229736328125">
        <ele>252.600006103515625</ele>
        <time>2026-08-05T10:29:19.000Z</time>
        <extensions>
          <ns3:TrackPointExtension>
            <ns3:hr>75</ns3:hr>
            <ns3:cad>0</ns3:cad>
          </ns3:TrackPointExtension>
        </extensions>
      </trkpt>
      <trkpt lat="43.47184435464441776275634765625" lon="1.43207539804279804229736328125">
        <ele>252.600006103515625</ele>
        <time>2026-08-05T10:29:20.000Z</time>
        <extensions>
          <ns3:TrackPointExtension>
            <ns3:hr>75</ns3:hr>
            <ns3:cad>0</ns3:cad>
          </ns3:TrackPointExtension>
        </extensions>
      </trkpt>
      <trkpt lat="43.47184435464441776275634765625" lon="1.43207539804279804229736328125">
        <ele>252.600006103515625</ele>
        <time>2026-08-05T10:29:21.000Z</time>
        <extensions>
          <ns3:TrackPointExtension>
            <ns3:hr>75</ns3:hr>
            <ns3:cad>0</ns3:cad>
          </ns3:TrackPointExtension>
        </extensions>
      </trkpt>
      <trkpt lat="43.47184435464441776275634765625" lon="1.43207539804279804229736328125">
        <ele>252.600006103515625</ele>
        <time>2026-08-05T10:29:22.000Z</time>
        <extensions>
          <ns3:TrackPointExtension>
            <ns3:hr>74</ns3:hr>
            <ns3:cad>0</ns3:cad>
          </ns3:TrackPointExtension>
        </extensions>
      </trkpt>
      <trkpt lat="43.47184435464441776275634765625" lon="1.43207539804279804229736328125">
        <ele>252.8000030517578125</ele>
        <time>2026-08-05T10:29:23.000Z</time>
        <extensions>
          <ns3:TrackPointExtension>
            <ns3:hr>74</ns3:hr>
            <ns3:cad>0</ns3:cad>
          </ns3:TrackPointExtension>
        </extensions>
      </trkpt>
      <trkpt lat="43.47184435464441776275634765625" lon="1.43207539804279804229736328125">
        <ele>252.600006103515625</ele>
        <time>2026-08-05T10:29:24.000Z</time>
        <extensions>
          <ns3:TrackPointExtension>
            <ns3:hr>73</ns3:hr>
            <ns3:cad>0</ns3:cad>
          </ns3:TrackPointExtension>
        </extensions>
      </trkpt>
      <trkpt lat="43.47184435464441776275634765625" lon="1.43207539804279804229736328125">
        <ele>252.600006103515625</ele>
        <time>2026-08-05T10:29:25.000Z</time>
        <extensions>
          <ns3:TrackPointExtension>
            <ns3:hr>73</ns3:hr>
            <ns3:cad>0</ns3:cad>
          </ns3:TrackPointExtension>
        </extensions>
      </trkpt>
      <trkpt lat="43.47184435464441776275634765625" lon="1.43207539804279804229736328125">
        <ele>252.600006103515625</ele>
        <time>2026-08-05T10:29:26.000Z</time>
        <extensions>
          <ns3:TrackPointExtension>
            <ns3:hr>73</ns3:hr>
            <ns3:cad>0</ns3:cad>
          </ns3:TrackPointExtension>
        </extensions>
      </trkpt>
      <trkpt lat="43.47184435464441776275634765625" lon="1.43207539804279804229736328125">
        <ele>252.600006103515625</ele>
        <time>2026-08-05T10:29:27.000Z</time>
        <extensions>
          <ns3:TrackPointExtension>
            <ns3:hr>73</ns3:hr>
            <ns3:cad>0</ns3:cad>
          </ns3:TrackPointExtension>
        </extensions>
      </trkpt>
      <trkpt lat="43.47184435464441776275634765625" lon="1.43207539804279804229736328125">
        <ele>252.600006103515625</ele>
        <time>2026-08-05T10:29:28.000Z</time>
        <extensions>
          <ns3:TrackPointExtension>
            <ns3:hr>73</ns3:hr>
            <ns3:cad>0</ns3:cad>
          </ns3:TrackPointExtension>
        </extensions>
      </trkpt>
      <trkpt lat="43.47184435464441776275634765625" lon="1.43207539804279804229736328125">
        <ele>252.600006103515625</ele>
        <time>2026-08-05T10:29:29.000Z</time>
        <extensions>
          <ns3:TrackPointExtension>
            <ns3:hr>73</ns3:hr>
            <ns3:cad>0</ns3:cad>
          </ns3:TrackPointExtension>
        </extensions>
      </trkpt>
      <trkpt lat="43.47184435464441776275634765625" lon="1.43207539804279804229736328125">
        <ele>252.600006103515625</ele>
        <time>2026-08-05T10:29:30.000Z</time>
        <extensions>
          <ns3:TrackPointExtension>
            <ns3:hr>74</ns3:hr>
            <ns3:cad>0</ns3:cad>
          </ns3:TrackPointExtension>
        </extensions>
      </trkpt>
      <trkpt lat="43.47184435464441776275634765625" lon="1.43207539804279804229736328125">
        <ele>252.600006103515625</ele>
        <time>2026-08-05T10:29:31.000Z</time>
        <extensions>
          <ns3:TrackPointExtension>
            <ns3:hr>74</ns3:hr>
            <ns3:cad>0</ns3:cad>
          </ns3:TrackPointExtension>
        </extensions>
      </trkpt>
      <trkpt lat="43.47184435464441776275634765625" lon="1.43207539804279804229736328125">
        <ele>252.8000030517578125</ele>
        <time>2026-08-05T10:29:32.000Z</time>
        <extensions>
          <ns3:TrackPointExtension>
            <ns3:hr>74</ns3:hr>
            <ns3:cad>0</ns3:cad>
          </ns3:TrackPointExtension>
        </extensions>
      </trkpt>
      <trkpt lat="43.47184435464441776275634765625" lon="1.43207539804279804229736328125">
        <ele>252.8000030517578125</ele>
        <time>2026-08-05T10:29:33.000Z</time>
        <extensions>
          <ns3:TrackPointExtension>
            <ns3:hr>74</ns3:hr>
            <ns3:cad>0</ns3:cad>
          </ns3:TrackPointExtension>
        </extensions>
      </trkpt>
      <trkpt lat="43.47184435464441776275634765625" lon="1.43207539804279804229736328125">
        <ele>252.600006103515625</ele>
        <time>2026-08-05T10:29:34.000Z</time>
        <extensions>
          <ns3:TrackPointExtension>
            <ns3:hr>73</ns3:hr>
            <ns3:cad>0</ns3:cad>
          </ns3:TrackPointExtension>
        </extensions>
      </trkpt>
      <trkpt lat="43.47184435464441776275634765625" lon="1.43207539804279804229736328125">
        <ele>252.600006103515625</ele>
        <time>2026-08-05T10:29:35.000Z</time>
        <extensions>
          <ns3:TrackPointExtension>
            <ns3:hr>74</ns3:hr>
            <ns3:cad>0</ns3:cad>
          </ns3:TrackPointExtension>
        </extensions>
      </trkpt>
      <trkpt lat="43.47184435464441776275634765625" lon="1.43207539804279804229736328125">
        <ele>252.600006103515625</ele>
        <time>2026-08-05T10:29:36.000Z</time>
        <extensions>
          <ns3:TrackPointExtension>
            <ns3:hr>73</ns3:hr>
            <ns3:cad>0</ns3:cad>
          </ns3:TrackPointExtension>
        </extensions>
      </trkpt>
      <trkpt lat="43.47184435464441776275634765625" lon="1.43207539804279804229736328125">
        <ele>252.600006103515625</ele>
        <time>2026-08-05T10:29:37.000Z</time>
        <extensions>
          <ns3:TrackPointExtension>
            <ns3:hr>73</ns3:hr>
            <ns3:cad>0</ns3:cad>
          </ns3:TrackPointExtension>
        </extensions>
      </trkpt>
      <trkpt lat="43.47184435464441776275634765625" lon="1.43207539804279804229736328125">
        <ele>252.600006103515625</ele>
        <time>2026-08-05T10:29:38.000Z</time>
        <extensions>
          <ns3:TrackPointExtension>
            <ns3:hr>73</ns3:hr>
            <ns3:cad>0</ns3:cad>
          </ns3:TrackPointExtension>
        </extensions>
      </trkpt>
      <trkpt lat="43.47184435464441776275634765625" lon="1.43207539804279804229736328125">
        <ele>252.600006103515625</ele>
        <time>2026-08-05T10:29:39.000Z</time>
        <extensions>
          <ns3:TrackPointExtension>
            <ns3:hr>73</ns3:hr>
            <ns3:cad>0</ns3:cad>
          </ns3:TrackPointExtension>
        </extensions>
      </trkpt>
      <trkpt lat="43.47184435464441776275634765625" lon="1.43207539804279804229736328125">
        <ele>252.600006103515625</ele>
        <time>2026-08-05T10:29:40.000Z</time>
        <extensions>
          <ns3:TrackPointExtension>
            <ns3:hr>72</ns3:hr>
            <ns3:cad>0</ns3:cad>
          </ns3:TrackPointExtension>
        </extensions>
      </trkpt>
      <trkpt lat="43.47184435464441776275634765625" lon="1.43207539804279804229736328125">
        <ele>252.600006103515625</ele>
        <time>2026-08-05T10:29:41.000Z</time>
        <extensions>
          <ns3:TrackPointExtension>
            <ns3:hr>71</ns3:hr>
            <ns3:cad>0</ns3:cad>
          </ns3:TrackPointExtension>
        </extensions>
      </trkpt>
      <trkpt lat="43.47184435464441776275634765625" lon="1.43207539804279804229736328125">
        <ele>252.600006103515625</ele>
        <time>2026-08-05T10:29:42.000Z</time>
        <extensions>
          <ns3:TrackPointExtension>
            <ns3:hr>70</ns3:hr>
            <ns3:cad>0</ns3:cad>
          </ns3:TrackPointExtension>
        </extensions>
      </trkpt>
      <trkpt lat="43.47184435464441776275634765625" lon="1.43207539804279804229736328125">
        <ele>252.399993896484375</ele>
        <time>2026-08-05T10:29:43.000Z</time>
        <extensions>
          <ns3:TrackPointExtension>
            <ns3:hr>69</ns3:hr>
            <ns3:cad>0</ns3:cad>
          </ns3:TrackPointExtension>
        </extensions>
      </trkpt>
      <trkpt lat="43.47184435464441776275634765625" lon="1.43207539804279804229736328125">
        <ele>252.399993896484375</ele>
        <time>2026-08-05T10:29:44.000Z</time>
        <extensions>
          <ns3:TrackPointExtension>
            <ns3:hr>67</ns3:hr>
            <ns3:cad>0</ns3:cad>
          </ns3:TrackPointExtension>
        </extensions>
      </trkpt>
      <trkpt lat="43.47184435464441776275634765625" lon="1.43207539804279804229736328125">
        <ele>252.399993896484375</ele>
        <time>2026-08-05T10:29:45.000Z</time>
        <extensions>
          <ns3:TrackPointExtension>
            <ns3:hr>66</ns3:hr>
            <ns3:cad>0</ns3:cad>
          </ns3:TrackPointExtension>
        </extensions>
      </trkpt>
      <trkpt lat="43.47184435464441776275634765625" lon="1.43207539804279804229736328125">
        <ele>252.399993896484375</ele>
        <time>2026-08-05T10:29:46.000Z</time>
        <extensions>
          <ns3:TrackPointExtension>
            <ns3:hr>66</ns3:hr>
            <ns3:cad>0</ns3:cad>
          </ns3:TrackPointExtension>
        </extensions>
      </trkpt>
      <trkpt lat="43.47184435464441776275634765625" lon="1.43207539804279804229736328125">
        <ele>252.399993896484375</ele>
        <time>2026-08-05T10:29:47.000Z</time>
        <extensions>
          <ns3:TrackPointExtension>
            <ns3:hr>66</ns3:hr>
            <ns3:cad>0</ns3:cad>
          </ns3:TrackPointExtension>
        </extensions>
      </trkpt>
      <trkpt lat="43.47184435464441776275634765625" lon="1.43207539804279804229736328125">
        <ele>252.399993896484375</ele>
        <time>2026-08-05T10:29:48.000Z</time>
        <extensions>
          <ns3:TrackPointExtension>
            <ns3:hr>66</ns3:hr>
            <ns3:cad>0</ns3:cad>
          </ns3:TrackPointExtension>
        </extensions>
      </trkpt>
      <trkpt lat="43.47184435464441776275634765625" lon="1.43207539804279804229736328125">
        <ele>252.399993896484375</ele>
        <time>2026-08-05T10:29:49.000Z</time>
        <extensions>
          <ns3:TrackPointExtension>
            <ns3:hr>67</ns3:hr>
            <ns3:cad>0</ns3:cad>
          </ns3:TrackPointExtension>
        </extensions>
      </trkpt>
      <trkpt lat="43.47184435464441776275634765625" lon="1.43207539804279804229736328125">
        <ele>252.399993896484375</ele>
        <time>2026-08-05T10:29:50.000Z</time>
        <extensions>
          <ns3:TrackPointExtension>
            <ns3:hr>69</ns3:hr>
            <ns3:cad>0</ns3:cad>
          </ns3:TrackPointExtension>
        </extensions>
      </trkpt>
      <trkpt lat="43.47184435464441776275634765625" lon="1.43207539804279804229736328125">
        <ele>252.399993896484375</ele>
        <time>2026-08-05T10:29:51.000Z</time>
        <extensions>
          <ns3:TrackPointExtension>
            <ns3:hr>70</ns3:hr>
            <ns3:cad>0</ns3:cad>
          </ns3:TrackPointExtension>
        </extensions>
      </trkpt>
      <trkpt lat="43.47184435464441776275634765625" lon="1.43207539804279804229736328125">
        <ele>252.399993896484375</ele>
        <time>2026-08-05T10:29:52.000Z</time>
        <extensions>
          <ns3:TrackPointExtension>
            <ns3:hr>70</ns3:hr>
            <ns3:cad>0</ns3:cad>
          </ns3:TrackPointExtension>
        </extensions>
      </trkpt>
      <trkpt lat="43.47184435464441776275634765625" lon="1.43207539804279804229736328125">
        <ele>252.399993896484375</ele>
        <time>2026-08-05T10:29:53.000Z</time>
        <extensions>
          <ns3:TrackPointExtension>
            <ns3:hr>69</ns3:hr>
            <ns3:cad>0</ns3:cad>
          </ns3:TrackPointExtension>
        </extensions>
      </trkpt>
      <trkpt lat="43.47184435464441776275634765625" lon="1.43207539804279804229736328125">
        <ele>252.399993896484375</ele>
        <time>2026-08-05T10:29:54.000Z</time>
        <extensions>
          <ns3:TrackPointExtension>
            <ns3:hr>68</ns3:hr>
            <ns3:cad>0</ns3:cad>
          </ns3:TrackPointExtension>
        </extensions>
      </trkpt>
      <trkpt lat="43.47184435464441776275634765625" lon="1.43207539804279804229736328125">
        <ele>252.399993896484375</ele>
        <time>2026-08-05T10:29:55.000Z</time>
        <extensions>
          <ns3:TrackPointExtension>
            <ns3:hr>68</ns3:hr>
            <ns3:cad>0</ns3:cad>
          </ns3:TrackPointExtension>
        </extensions>
      </trkpt>
      <trkpt lat="43.47184435464441776275634765625" lon="1.43207539804279804229736328125">
        <ele>252.399993896484375</ele>
        <time>2026-08-05T10:29:56.000Z</time>
        <extensions>
          <ns3:TrackPointExtension>
            <ns3:hr>67</ns3:hr>
            <ns3:cad>0</ns3:cad>
          </ns3:TrackPointExtension>
        </extensions>
      </trkpt>
      <trkpt lat="43.47184435464441776275634765625" lon="1.43207539804279804229736328125">
        <ele>252.399993896484375</ele>
        <time>2026-08-05T10:29:57.000Z</time>
        <extensions>
          <ns3:TrackPointExtension>
            <ns3:hr>67</ns3:hr>
            <ns3:cad>0</ns3:cad>
          </ns3:TrackPointExtension>
        </extensions>
      </trkpt>
      <trkpt lat="43.47184435464441776275634765625" lon="1.43207539804279804229736328125">
        <ele>252.399993896484375</ele>
        <time>2026-08-05T10:29:58.000Z</time>
        <extensions>
          <ns3:TrackPointExtension>
            <ns3:hr>67</ns3:hr>
            <ns3:cad>0</ns3:cad>
          </ns3:TrackPointExtension>
        </extensions>
      </trkpt>
      <trkpt lat="43.47184435464441776275634765625" lon="1.43207539804279804229736328125">
        <ele>252.399993896484375</ele>
        <time>2026-08-05T10:29:59.000Z</time>
        <extensions>
          <ns3:TrackPointExtension>
            <ns3:hr>67</ns3:hr>
            <ns3:cad>0</ns3:cad>
          </ns3:TrackPointExtension>
        </extensions>
      </trkpt>
      <trkpt lat="43.47184435464441776275634765625" lon="1.43207539804279804229736328125">
        <ele>252.399993896484375</ele>
        <time>2026-08-05T10:30:00.000Z</time>
        <extensions>
          <ns3:TrackPointExtension>
            <ns3:hr>66</ns3:hr>
            <ns3:cad>0</ns3:cad>
          </ns3:TrackPointExtension>
        </extensions>
      </trkpt>
      <trkpt lat="43.47184435464441776275634765625" lon="1.43207539804279804229736328125">
        <ele>252.399993896484375</ele>
        <time>2026-08-05T10:30:01.000Z</time>
        <extensions>
          <ns3:TrackPointExtension>
            <ns3:hr>66</ns3:hr>
            <ns3:cad>0</ns3:cad>
          </ns3:TrackPointExtension>
        </extensions>
      </trkpt>
      <trkpt lat="43.47184435464441776275634765625" lon="1.43207539804279804229736328125">
        <ele>252.399993896484375</ele>
        <time>2026-08-05T10:30:02.000Z</time>
        <extensions>
          <ns3:TrackPointExtension>
            <ns3:hr>66</ns3:hr>
            <ns3:cad>0</ns3:cad>
          </ns3:TrackPointExtension>
        </extensions>
      </trkpt>
      <trkpt lat="43.47184435464441776275634765625" lon="1.43207539804279804229736328125">
        <ele>252.399993896484375</ele>
        <time>2026-08-05T10:30:03.000Z</time>
        <extensions>
          <ns3:TrackPointExtension>
            <ns3:hr>65</ns3:hr>
            <ns3:cad>0</ns3:cad>
          </ns3:TrackPointExtension>
        </extensions>
      </trkpt>
      <trkpt lat="43.47184435464441776275634765625" lon="1.43207539804279804229736328125">
        <ele>252.600006103515625</ele>
        <time>2026-08-05T10:30:04.000Z</time>
        <extensions>
          <ns3:TrackPointExtension>
            <ns3:hr>66</ns3:hr>
            <ns3:cad>0</ns3:cad>
          </ns3:TrackPointExtension>
        </extensions>
      </trkpt>
      <trkpt lat="43.47184435464441776275634765625" lon="1.43207539804279804229736328125">
        <ele>252.600006103515625</ele>
        <time>2026-08-05T10:30:05.000Z</time>
        <extensions>
          <ns3:TrackPointExtension>
            <ns3:hr>66</ns3:hr>
            <ns3:cad>0</ns3:cad>
          </ns3:TrackPointExtension>
        </extensions>
      </trkpt>
      <trkpt lat="43.47184435464441776275634765625" lon="1.43207539804279804229736328125">
        <ele>252.600006103515625</ele>
        <time>2026-08-05T10:30:06.000Z</time>
        <extensions>
          <ns3:TrackPointExtension>
            <ns3:hr>65</ns3:hr>
            <ns3:cad>0</ns3:cad>
          </ns3:TrackPointExtension>
        </extensions>
      </trkpt>
      <trkpt lat="43.47184435464441776275634765625" lon="1.43207539804279804229736328125">
        <ele>252.600006103515625</ele>
        <time>2026-08-05T10:30:07.000Z</time>
        <extensions>
          <ns3:TrackPointExtension>
            <ns3:hr>65</ns3:hr>
            <ns3:cad>0</ns3:cad>
          </ns3:TrackPointExtension>
        </extensions>
      </trkpt>
      <trkpt lat="43.47184435464441776275634765625" lon="1.43207539804279804229736328125">
        <ele>252.600006103515625</ele>
        <time>2026-08-05T10:30:08.000Z</time>
        <extensions>
          <ns3:TrackPointExtension>
            <ns3:hr>65</ns3:hr>
            <ns3:cad>0</ns3:cad>
          </ns3:TrackPointExtension>
        </extensions>
      </trkpt>
      <trkpt lat="43.47184435464441776275634765625" lon="1.43207539804279804229736328125">
        <ele>252.600006103515625</ele>
        <time>2026-08-05T10:30:09.000Z</time>
        <extensions>
          <ns3:TrackPointExtension>
            <ns3:hr>65</ns3:hr>
            <ns3:cad>0</ns3:cad>
          </ns3:TrackPointExtension>
        </extensions>
      </trkpt>
      <trkpt lat="43.47184435464441776275634765625" lon="1.43207539804279804229736328125">
        <ele>252.600006103515625</ele>
        <time>2026-08-05T10:30:10.000Z</time>
        <extensions>
          <ns3:TrackPointExtension>
            <ns3:hr>66</ns3:hr>
            <ns3:cad>0</ns3:cad>
          </ns3:TrackPointExtension>
        </extensions>
      </trkpt>
      <trkpt lat="43.47184435464441776275634765625" lon="1.43207539804279804229736328125">
        <ele>252.600006103515625</ele>
        <time>2026-08-05T10:30:11.000Z</time>
        <extensions>
          <ns3:TrackPointExtension>
            <ns3:hr>66</ns3:hr>
            <ns3:cad>0</ns3:cad>
          </ns3:TrackPointExtension>
        </extensions>
      </trkpt>
      <trkpt lat="43.47184435464441776275634765625" lon="1.43207539804279804229736328125">
        <ele>252.600006103515625</ele>
        <time>2026-08-05T10:30:12.000Z</time>
        <extensions>
          <ns3:TrackPointExtension>
            <ns3:hr>66</ns3:hr>
            <ns3:cad>0</ns3:cad>
          </ns3:TrackPointExtension>
        </extensions>
      </trkpt>
      <trkpt lat="43.47184435464441776275634765625" lon="1.43207539804279804229736328125">
        <ele>252.600006103515625</ele>
        <time>2026-08-05T10:30:13.000Z</time>
        <extensions>
          <ns3:TrackPointExtension>
            <ns3:hr>66</ns3:hr>
            <ns3:cad>0</ns3:cad>
          </ns3:TrackPointExtension>
        </extensions>
      </trkpt>
      <trkpt lat="43.47184435464441776275634765625" lon="1.43207539804279804229736328125">
        <ele>252.600006103515625</ele>
        <time>2026-08-05T10:30:14.000Z</time>
        <extensions>
          <ns3:TrackPointExtension>
            <ns3:hr>66</ns3:hr>
            <ns3:cad>0</ns3:cad>
          </ns3:TrackPointExtension>
        </extensions>
      </trkpt>
      <trkpt lat="43.47184435464441776275634765625" lon="1.43207539804279804229736328125">
        <ele>252.600006103515625</ele>
        <time>2026-08-05T10:30:15.000Z</time>
        <extensions>
          <ns3:TrackPointExtension>
            <ns3:hr>66</ns3:hr>
            <ns3:cad>0</ns3:cad>
          </ns3:TrackPointExtension>
        </extensions>
      </trkpt>
      <trkpt lat="43.47184435464441776275634765625" lon="1.43207539804279804229736328125">
        <ele>252.600006103515625</ele>
        <time>2026-08-05T10:30:16.000Z</time>
        <extensions>
          <ns3:TrackPointExtension>
            <ns3:hr>66</ns3:hr>
            <ns3:cad>0</ns3:cad>
          </ns3:TrackPointExtension>
        </extensions>
      </trkpt>
      <trkpt lat="43.47184435464441776275634765625" lon="1.43207539804279804229736328125">
        <ele>252.600006103515625</ele>
        <time>2026-08-05T10:30:17.000Z</time>
        <extensions>
          <ns3:TrackPointExtension>
            <ns3:hr>66</ns3:hr>
            <ns3:cad>0</ns3:cad>
          </ns3:TrackPointExtension>
        </extensions>
      </trkpt>
      <trkpt lat="43.47184435464441776275634765625" lon="1.43207539804279804229736328125">
        <ele>252.600006103515625</ele>
        <time>2026-08-05T10:30:18.000Z</time>
        <extensions>
          <ns3:TrackPointExtension>
            <ns3:hr>66</ns3:hr>
            <ns3:cad>0</ns3:cad>
          </ns3:TrackPointExtension>
        </extensions>
      </trkpt>
      <trkpt lat="43.47184435464441776275634765625" lon="1.43207539804279804229736328125">
        <ele>252.600006103515625</ele>
        <time>2026-08-05T10:30:19.000Z</time>
        <extensions>
          <ns3:TrackPointExtension>
            <ns3:hr>65</ns3:hr>
            <ns3:cad>0</ns3:cad>
          </ns3:TrackPointExtension>
        </extensions>
      </trkpt>
      <trkpt lat="43.47184435464441776275634765625" lon="1.43207539804279804229736328125">
        <ele>252.600006103515625</ele>
        <time>2026-08-05T10:30:20.000Z</time>
        <extensions>
          <ns3:TrackPointExtension>
            <ns3:hr>65</ns3:hr>
            <ns3:cad>0</ns3:cad>
          </ns3:TrackPointExtension>
        </extensions>
      </trkpt>
      <trkpt lat="43.47184435464441776275634765625" lon="1.43207539804279804229736328125">
        <ele>252.600006103515625</ele>
        <time>2026-08-05T10:30:21.000Z</time>
        <extensions>
          <ns3:TrackPointExtension>
            <ns3:hr>65</ns3:hr>
            <ns3:cad>0</ns3:cad>
          </ns3:TrackPointExtension>
        </extensions>
      </trkpt>
      <trkpt lat="43.47184435464441776275634765625" lon="1.43207539804279804229736328125">
        <ele>252.600006103515625</ele>
        <time>2026-08-05T10:30:22.000Z</time>
        <extensions>
          <ns3:TrackPointExtension>
            <ns3:hr>65</ns3:hr>
            <ns3:cad>0</ns3:cad>
          </ns3:TrackPointExtension>
        </extensions>
      </trkpt>
      <trkpt lat="43.47184435464441776275634765625" lon="1.43207539804279804229736328125">
        <ele>252.600006103515625</ele>
        <time>2026-08-05T10:30:23.000Z</time>
        <extensions>
          <ns3:TrackPointExtension>
            <ns3:hr>65</ns3:hr>
            <ns3:cad>0</ns3:cad>
          </ns3:TrackPointExtension>
        </extensions>
      </trkpt>
      <trkpt lat="43.47184435464441776275634765625" lon="1.43207539804279804229736328125">
        <ele>252.600006103515625</ele>
        <time>2026-08-05T10:30:24.000Z</time>
        <extensions>
          <ns3:TrackPointExtension>
            <ns3:hr>66</ns3:hr>
            <ns3:cad>0</ns3:cad>
          </ns3:TrackPointExtension>
        </extensions>
      </trkpt>
      <trkpt lat="43.47184435464441776275634765625" lon="1.43207539804279804229736328125">
        <ele>252.600006103515625</ele>
        <time>2026-08-05T10:30:25.000Z</time>
        <extensions>
          <ns3:TrackPointExtension>
            <ns3:hr>66</ns3:hr>
            <ns3:cad>0</ns3:cad>
          </ns3:TrackPointExtension>
        </extensions>
      </trkpt>
      <trkpt lat="43.47184435464441776275634765625" lon="1.43207539804279804229736328125">
        <ele>252.600006103515625</ele>
        <time>2026-08-05T10:30:26.000Z</time>
        <extensions>
          <ns3:TrackPointExtension>
            <ns3:hr>67</ns3:hr>
            <ns3:cad>0</ns3:cad>
          </ns3:TrackPointExtension>
        </extensions>
      </trkpt>
      <trkpt lat="43.47184435464441776275634765625" lon="1.43207539804279804229736328125">
        <ele>252.600006103515625</ele>
        <time>2026-08-05T10:30:27.000Z</time>
        <extensions>
          <ns3:TrackPointExtension>
            <ns3:hr>67</ns3:hr>
            <ns3:cad>0</ns3:cad>
          </ns3:TrackPointExtension>
        </extensions>
      </trkpt>
      <trkpt lat="43.47184435464441776275634765625" lon="1.43207539804279804229736328125">
        <ele>252.399993896484375</ele>
        <time>2026-08-05T10:30:28.000Z</time>
        <extensions>
          <ns3:TrackPointExtension>
            <ns3:hr>66</ns3:hr>
            <ns3:cad>0</ns3:cad>
          </ns3:TrackPointExtension>
        </extensions>
      </trkpt>
      <trkpt lat="43.47184435464441776275634765625" lon="1.43207539804279804229736328125">
        <ele>252.399993896484375</ele>
        <time>2026-08-05T10:30:29.000Z</time>
        <extensions>
          <ns3:TrackPointExtension>
            <ns3:hr>66</ns3:hr>
            <ns3:cad>0</ns3:cad>
          </ns3:TrackPointExtension>
        </extensions>
      </trkpt>
      <trkpt lat="43.47184435464441776275634765625" lon="1.43207539804279804229736328125">
        <ele>252.399993896484375</ele>
        <time>2026-08-05T10:30:30.000Z</time>
        <extensions>
          <ns3:TrackPointExtension>
            <ns3:hr>66</ns3:hr>
            <ns3:cad>0</ns3:cad>
          </ns3:TrackPointExtension>
        </extensions>
      </trkpt>
      <trkpt lat="43.47184435464441776275634765625" lon="1.43207539804279804229736328125">
        <ele>252.399993896484375</ele>
        <time>2026-08-05T10:30:31.000Z</time>
        <extensions>
          <ns3:TrackPointExtension>
            <ns3:hr>66</ns3:hr>
            <ns3:cad>0</ns3:cad>
          </ns3:TrackPointExtension>
        </extensions>
      </trkpt>
      <trkpt lat="43.47184435464441776275634765625" lon="1.43207539804279804229736328125">
        <ele>252.399993896484375</ele>
        <time>2026-08-05T10:30:32.000Z</time>
        <extensions>
          <ns3:TrackPointExtension>
            <ns3:hr>65</ns3:hr>
            <ns3:cad>0</ns3:cad>
          </ns3:TrackPointExtension>
        </extensions>
      </trkpt>
      <trkpt lat="43.47184435464441776275634765625" lon="1.43207539804279804229736328125">
        <ele>252.399993896484375</ele>
        <time>2026-08-05T10:30:33.000Z</time>
        <extensions>
          <ns3:TrackPointExtension>
            <ns3:hr>64</ns3:hr>
            <ns3:cad>0</ns3:cad>
          </ns3:TrackPointExtension>
        </extensions>
      </trkpt>
      <trkpt lat="43.47184435464441776275634765625" lon="1.43207539804279804229736328125">
        <ele>252.399993896484375</ele>
        <time>2026-08-05T10:30:34.000Z</time>
        <extensions>
          <ns3:TrackPointExtension>
            <ns3:hr>62</ns3:hr>
            <ns3:cad>0</ns3:cad>
          </ns3:TrackPointExtension>
        </extensions>
      </trkpt>
      <trkpt lat="43.47184435464441776275634765625" lon="1.43207539804279804229736328125">
        <ele>252.399993896484375</ele>
        <time>2026-08-05T10:30:35.000Z</time>
        <extensions>
          <ns3:TrackPointExtension>
            <ns3:hr>61</ns3:hr>
            <ns3:cad>0</ns3:cad>
          </ns3:TrackPointExtension>
        </extensions>
      </trkpt>
      <trkpt lat="43.47184435464441776275634765625" lon="1.43207539804279804229736328125">
        <ele>252.1999969482421875</ele>
        <time>2026-08-05T10:30:36.000Z</time>
        <extensions>
          <ns3:TrackPointExtension>
            <ns3:hr>60</ns3:hr>
            <ns3:cad>0</ns3:cad>
          </ns3:TrackPointExtension>
        </extensions>
      </trkpt>
      <trkpt lat="43.47184435464441776275634765625" lon="1.43207539804279804229736328125">
        <ele>252.1999969482421875</ele>
        <time>2026-08-05T10:30:37.000Z</time>
        <extensions>
          <ns3:TrackPointExtension>
            <ns3:hr>60</ns3:hr>
            <ns3:cad>0</ns3:cad>
          </ns3:TrackPointExtension>
        </extensions>
      </trkpt>
      <trkpt lat="43.47184435464441776275634765625" lon="1.43207539804279804229736328125">
        <ele>252.1999969482421875</ele>
        <time>2026-08-05T10:30:38.000Z</time>
        <extensions>
          <ns3:TrackPointExtension>
            <ns3:hr>60</ns3:hr>
            <ns3:cad>0</ns3:cad>
          </ns3:TrackPointExtension>
        </extensions>
      </trkpt>
      <trkpt lat="43.47184435464441776275634765625" lon="1.43207539804279804229736328125">
        <ele>252.1999969482421875</ele>
        <time>2026-08-05T10:30:39.000Z</time>
        <extensions>
          <ns3:TrackPointExtension>
            <ns3:hr>60</ns3:hr>
            <ns3:cad>0</ns3:cad>
          </ns3:TrackPointExtension>
        </extensions>
      </trkpt>
      <trkpt lat="43.47184435464441776275634765625" lon="1.43207539804279804229736328125">
        <ele>252.1999969482421875</ele>
        <time>2026-08-05T10:30:40.000Z</time>
        <extensions>
          <ns3:TrackPointExtension>
            <ns3:hr>60</ns3:hr>
            <ns3:cad>0</ns3:cad>
          </ns3:TrackPointExtension>
        </extensions>
      </trkpt>
      <trkpt lat="43.47184435464441776275634765625" lon="1.43207539804279804229736328125">
        <ele>252.1999969482421875</ele>
        <time>2026-08-05T10:30:41.000Z</time>
        <extensions>
          <ns3:TrackPointExtension>
            <ns3:hr>59</ns3:hr>
            <ns3:cad>0</ns3:cad>
          </ns3:TrackPointExtension>
        </extensions>
      </trkpt>
      <trkpt lat="43.47184435464441776275634765625" lon="1.43207539804279804229736328125">
        <ele>252.1999969482421875</ele>
        <time>2026-08-05T10:30:42.000Z</time>
        <extensions>
          <ns3:TrackPointExtension>
            <ns3:hr>59</ns3:hr>
            <ns3:cad>0</ns3:cad>
          </ns3:TrackPointExtension>
        </extensions>
      </trkpt>
      <trkpt lat="43.47184435464441776275634765625" lon="1.43207539804279804229736328125">
        <ele>252.399993896484375</ele>
        <time>2026-08-05T10:30:43.000Z</time>
        <extensions>
          <ns3:TrackPointExtension>
            <ns3:hr>58</ns3:hr>
            <ns3:cad>0</ns3:cad>
          </ns3:TrackPointExtension>
        </extensions>
      </trkpt>
      <trkpt lat="43.47184435464441776275634765625" lon="1.43207539804279804229736328125">
        <ele>252.399993896484375</ele>
        <time>2026-08-05T10:30:44.000Z</time>
        <extensions>
          <ns3:TrackPointExtension>
            <ns3:hr>58</ns3:hr>
            <ns3:cad>0</ns3:cad>
          </ns3:TrackPointExtension>
        </extensions>
      </trkpt>
      <trkpt lat="43.47184435464441776275634765625" lon="1.43207539804279804229736328125">
        <ele>252.399993896484375</ele>
        <time>2026-08-05T10:30:45.000Z</time>
        <extensions>
          <ns3:TrackPointExtension>
            <ns3:hr>58</ns3:hr>
            <ns3:cad>0</ns3:cad>
          </ns3:TrackPointExtension>
        </extensions>
      </trkpt>
      <trkpt lat="43.47184435464441776275634765625" lon="1.43207539804279804229736328125">
        <ele>252.399993896484375</ele>
        <time>2026-08-05T10:30:46.000Z</time>
        <extensions>
          <ns3:TrackPointExtension>
            <ns3:hr>57</ns3:hr>
            <ns3:cad>0</ns3:cad>
          </ns3:TrackPointExtension>
        </extensions>
      </trkpt>
      <trkpt lat="43.47184435464441776275634765625" lon="1.43207539804279804229736328125">
        <ele>252.399993896484375</ele>
        <time>2026-08-05T10:30:47.000Z</time>
        <extensions>
          <ns3:TrackPointExtension>
            <ns3:hr>57</ns3:hr>
            <ns3:cad>0</ns3:cad>
          </ns3:TrackPointExtension>
        </extensions>
      </trkpt>
      <trkpt lat="43.47184435464441776275634765625" lon="1.43207539804279804229736328125">
        <ele>252.399993896484375</ele>
        <time>2026-08-05T10:30:48.000Z</time>
        <extensions>
          <ns3:TrackPointExtension>
            <ns3:hr>57</ns3:hr>
            <ns3:cad>0</ns3:cad>
          </ns3:TrackPointExtension>
        </extensions>
      </trkpt>
      <trkpt lat="43.47184435464441776275634765625" lon="1.43207539804279804229736328125">
        <ele>252.399993896484375</ele>
        <time>2026-08-05T10:30:49.000Z</time>
        <extensions>
          <ns3:TrackPointExtension>
            <ns3:hr>57</ns3:hr>
            <ns3:cad>0</ns3:cad>
          </ns3:TrackPointExtension>
        </extensions>
      </trkpt>
      <trkpt lat="43.47184435464441776275634765625" lon="1.43207539804279804229736328125">
        <ele>252.600006103515625</ele>
        <time>2026-08-05T10:30:50.000Z</time>
        <extensions>
          <ns3:TrackPointExtension>
            <ns3:hr>57</ns3:hr>
            <ns3:cad>0</ns3:cad>
          </ns3:TrackPointExtension>
        </extensions>
      </trkpt>
      <trkpt lat="43.47184435464441776275634765625" lon="1.43207539804279804229736328125">
        <ele>252.600006103515625</ele>
        <time>2026-08-05T10:30:51.000Z</time>
        <extensions>
          <ns3:TrackPointExtension>
            <ns3:hr>58</ns3:hr>
            <ns3:cad>0</ns3:cad>
          </ns3:TrackPointExtension>
        </extensions>
      </trkpt>
      <trkpt lat="43.47184435464441776275634765625" lon="1.43207539804279804229736328125">
        <ele>252.600006103515625</ele>
        <time>2026-08-05T10:30:52.000Z</time>
        <extensions>
          <ns3:TrackPointExtension>
            <ns3:hr>58</ns3:hr>
            <ns3:cad>0</ns3:cad>
          </ns3:TrackPointExtension>
        </extensions>
      </trkpt>
      <trkpt lat="43.47184435464441776275634765625" lon="1.43207539804279804229736328125">
        <ele>252.600006103515625</ele>
        <time>2026-08-05T10:30:53.000Z</time>
        <extensions>
          <ns3:TrackPointExtension>
            <ns3:hr>61</ns3:hr>
            <ns3:cad>0</ns3:cad>
          </ns3:TrackPointExtension>
        </extensions>
      </trkpt>
      <trkpt lat="43.47184435464441776275634765625" lon="1.43207539804279804229736328125">
        <ele>252.600006103515625</ele>
        <time>2026-08-05T10:30:54.000Z</time>
        <extensions>
          <ns3:TrackPointExtension>
            <ns3:hr>62</ns3:hr>
            <ns3:cad>0</ns3:cad>
          </ns3:TrackPointExtension>
        </extensions>
      </trkpt>
      <trkpt lat="43.47184435464441776275634765625" lon="1.43207539804279804229736328125">
        <ele>252.600006103515625</ele>
        <time>2026-08-05T10:30:55.000Z</time>
        <extensions>
          <ns3:TrackPointExtension>
            <ns3:hr>62</ns3:hr>
            <ns3:cad>0</ns3:cad>
          </ns3:TrackPointExtension>
        </extensions>
      </trkpt>
      <trkpt lat="43.47184435464441776275634765625" lon="1.43207539804279804229736328125">
        <ele>252.600006103515625</ele>
        <time>2026-08-05T10:30:56.000Z</time>
        <extensions>
          <ns3:TrackPointExtension>
            <ns3:hr>62</ns3:hr>
            <ns3:cad>0</ns3:cad>
          </ns3:TrackPointExtension>
        </extensions>
      </trkpt>
      <trkpt lat="43.47184435464441776275634765625" lon="1.43207539804279804229736328125">
        <ele>252.600006103515625</ele>
        <time>2026-08-05T10:30:57.000Z</time>
        <extensions>
          <ns3:TrackPointExtension>
            <ns3:hr>62</ns3:hr>
            <ns3:cad>0</ns3:cad>
          </ns3:TrackPointExtension>
        </extensions>
      </trkpt>
      <trkpt lat="43.47184435464441776275634765625" lon="1.43207539804279804229736328125">
        <ele>252.600006103515625</ele>
        <time>2026-08-05T10:30:58.000Z</time>
        <extensions>
          <ns3:TrackPointExtension>
            <ns3:hr>62</ns3:hr>
            <ns3:cad>0</ns3:cad>
          </ns3:TrackPointExtension>
        </extensions>
      </trkpt>
      <trkpt lat="43.47184435464441776275634765625" lon="1.43207539804279804229736328125">
        <ele>252.600006103515625</ele>
        <time>2026-08-05T10:30:59.000Z</time>
        <extensions>
          <ns3:TrackPointExtension>
            <ns3:hr>62</ns3:hr>
            <ns3:cad>0</ns3:cad>
          </ns3:TrackPointExtension>
        </extensions>
      </trkpt>
      <trkpt lat="43.47184435464441776275634765625" lon="1.43207539804279804229736328125">
        <ele>252.600006103515625</ele>
        <time>2026-08-05T10:31:00.000Z</time>
        <extensions>
          <ns3:TrackPointExtension>
            <ns3:hr>62</ns3:hr>
            <ns3:cad>0</ns3:cad>
          </ns3:TrackPointExtension>
        </extensions>
      </trkpt>
      <trkpt lat="43.47184435464441776275634765625" lon="1.43207539804279804229736328125">
        <ele>252.600006103515625</ele>
        <time>2026-08-05T10:31:01.000Z</time>
        <extensions>
          <ns3:TrackPointExtension>
            <ns3:hr>63</ns3:hr>
            <ns3:cad>0</ns3:cad>
          </ns3:TrackPointExtension>
        </extensions>
      </trkpt>
      <trkpt lat="43.47184435464441776275634765625" lon="1.43207539804279804229736328125">
        <ele>252.600006103515625</ele>
        <time>2026-08-05T10:31:02.000Z</time>
        <extensions>
          <ns3:TrackPointExtension>
            <ns3:hr>63</ns3:hr>
            <ns3:cad>0</ns3:cad>
          </ns3:TrackPointExtension>
        </extensions>
      </trkpt>
      <trkpt lat="43.47184435464441776275634765625" lon="1.43207539804279804229736328125">
        <ele>252.600006103515625</ele>
        <time>2026-08-05T10:31:03.000Z</time>
        <extensions>
          <ns3:TrackPointExtension>
            <ns3:hr>63</ns3:hr>
            <ns3:cad>0</ns3:cad>
          </ns3:TrackPointExtension>
        </extensions>
      </trkpt>
      <trkpt lat="43.47184435464441776275634765625" lon="1.43207539804279804229736328125">
        <ele>252.600006103515625</ele>
        <time>2026-08-05T10:31:04.000Z</time>
        <extensions>
          <ns3:TrackPointExtension>
            <ns3:hr>64</ns3:hr>
            <ns3:cad>0</ns3:cad>
          </ns3:TrackPointExtension>
        </extensions>
      </trkpt>
      <trkpt lat="43.47184435464441776275634765625" lon="1.43207539804279804229736328125">
        <ele>252.600006103515625</ele>
        <time>2026-08-05T10:31:05.000Z</time>
        <extensions>
          <ns3:TrackPointExtension>
            <ns3:hr>65</ns3:hr>
            <ns3:cad>0</ns3:cad>
          </ns3:TrackPointExtension>
        </extensions>
      </trkpt>
      <trkpt lat="43.47184435464441776275634765625" lon="1.43207539804279804229736328125">
        <ele>252.600006103515625</ele>
        <time>2026-08-05T10:31:06.000Z</time>
        <extensions>
          <ns3:TrackPointExtension>
            <ns3:hr>66</ns3:hr>
            <ns3:cad>0</ns3:cad>
          </ns3:TrackPointExtension>
        </extensions>
      </trkpt>
      <trkpt lat="43.47184435464441776275634765625" lon="1.43207539804279804229736328125">
        <ele>252.600006103515625</ele>
        <time>2026-08-05T10:31:07.000Z</time>
        <extensions>
          <ns3:TrackPointExtension>
            <ns3:hr>68</ns3:hr>
            <ns3:cad>0</ns3:cad>
          </ns3:TrackPointExtension>
        </extensions>
      </trkpt>
      <trkpt lat="43.47184435464441776275634765625" lon="1.43207539804279804229736328125">
        <ele>252.600006103515625</ele>
        <time>2026-08-05T10:31:08.000Z</time>
        <extensions>
          <ns3:TrackPointExtension>
            <ns3:hr>68</ns3:hr>
            <ns3:cad>0</ns3:cad>
          </ns3:TrackPointExtension>
        </extensions>
      </trkpt>
      <trkpt lat="43.47184435464441776275634765625" lon="1.43207539804279804229736328125">
        <ele>252.600006103515625</ele>
        <time>2026-08-05T10:31:09.000Z</time>
        <extensions>
          <ns3:TrackPointExtension>
            <ns3:hr>69</ns3:hr>
            <ns3:cad>0</ns3:cad>
          </ns3:TrackPointExtension>
        </extensions>
      </trkpt>
      <trkpt lat="43.47184435464441776275634765625" lon="1.43207539804279804229736328125">
        <ele>252.600006103515625</ele>
        <time>2026-08-05T10:31:10.000Z</time>
        <extensions>
          <ns3:TrackPointExtension>
            <ns3:hr>69</ns3:hr>
            <ns3:cad>0</ns3:cad>
          </ns3:TrackPointExtension>
        </extensions>
      </trkpt>
      <trkpt lat="43.47184435464441776275634765625" lon="1.43207539804279804229736328125">
        <ele>252.600006103515625</ele>
        <time>2026-08-05T10:31:11.000Z</time>
        <extensions>
          <ns3:TrackPointExtension>
            <ns3:hr>69</ns3:hr>
            <ns3:cad>0</ns3:cad>
          </ns3:TrackPointExtension>
        </extensions>
      </trkpt>
      <trkpt lat="43.47184435464441776275634765625" lon="1.43207539804279804229736328125">
        <ele>252.600006103515625</ele>
        <time>2026-08-05T10:31:12.000Z</time>
        <extensions>
          <ns3:TrackPointExtension>
            <ns3:hr>69</ns3:hr>
            <ns3:cad>0</ns3:cad>
          </ns3:TrackPointExtension>
        </extensions>
      </trkpt>
      <trkpt lat="43.47184435464441776275634765625" lon="1.43207539804279804229736328125">
        <ele>252.8000030517578125</ele>
        <time>2026-08-05T10:31:13.000Z</time>
        <extensions>
          <ns3:TrackPointExtension>
            <ns3:hr>69</ns3:hr>
            <ns3:cad>0</ns3:cad>
          </ns3:TrackPointExtension>
        </extensions>
      </trkpt>
      <trkpt lat="43.47184435464441776275634765625" lon="1.43207539804279804229736328125">
        <ele>252.8000030517578125</ele>
        <time>2026-08-05T10:31:14.000Z</time>
        <extensions>
          <ns3:TrackPointExtension>
            <ns3:hr>68</ns3:hr>
            <ns3:cad>0</ns3:cad>
          </ns3:TrackPointExtension>
        </extensions>
      </trkpt>
      <trkpt lat="43.47184435464441776275634765625" lon="1.43207539804279804229736328125">
        <ele>252.8000030517578125</ele>
        <time>2026-08-05T10:31:15.000Z</time>
        <extensions>
          <ns3:TrackPointExtension>
            <ns3:hr>68</ns3:hr>
            <ns3:cad>0</ns3:cad>
          </ns3:TrackPointExtension>
        </extensions>
      </trkpt>
      <trkpt lat="43.47184435464441776275634765625" lon="1.43207539804279804229736328125">
        <ele>252.600006103515625</ele>
        <time>2026-08-05T10:31:16.000Z</time>
        <extensions>
          <ns3:TrackPointExtension>
            <ns3:hr>68</ns3:hr>
            <ns3:cad>0</ns3:cad>
          </ns3:TrackPointExtension>
        </extensions>
      </trkpt>
      <trkpt lat="43.47184435464441776275634765625" lon="1.43207539804279804229736328125">
        <ele>252.600006103515625</ele>
        <time>2026-08-05T10:31:17.000Z</time>
        <extensions>
          <ns3:TrackPointExtension>
            <ns3:hr>67</ns3:hr>
            <ns3:cad>0</ns3:cad>
          </ns3:TrackPointExtension>
        </extensions>
      </trkpt>
      <trkpt lat="43.47184435464441776275634765625" lon="1.43207539804279804229736328125">
        <ele>252.600006103515625</ele>
        <time>2026-08-05T10:31:18.000Z</time>
        <extensions>
          <ns3:TrackPointExtension>
            <ns3:hr>67</ns3:hr>
            <ns3:cad>0</ns3:cad>
          </ns3:TrackPointExtension>
        </extensions>
      </trkpt>
      <trkpt lat="43.47184435464441776275634765625" lon="1.43207539804279804229736328125">
        <ele>252.600006103515625</ele>
        <time>2026-08-05T10:31:19.000Z</time>
        <extensions>
          <ns3:TrackPointExtension>
            <ns3:hr>66</ns3:hr>
            <ns3:cad>0</ns3:cad>
          </ns3:TrackPointExtension>
        </extensions>
      </trkpt>
      <trkpt lat="43.47184435464441776275634765625" lon="1.43207539804279804229736328125">
        <ele>252.600006103515625</ele>
        <time>2026-08-05T10:31:20.000Z</time>
        <extensions>
          <ns3:TrackPointExtension>
            <ns3:hr>65</ns3:hr>
            <ns3:cad>0</ns3:cad>
          </ns3:TrackPointExtension>
        </extensions>
      </trkpt>
      <trkpt lat="43.47184435464441776275634765625" lon="1.43207539804279804229736328125">
        <ele>252.600006103515625</ele>
        <time>2026-08-05T10:31:21.000Z</time>
        <extensions>
          <ns3:TrackPointExtension>
            <ns3:hr>64</ns3:hr>
            <ns3:cad>0</ns3:cad>
          </ns3:TrackPointExtension>
        </extensions>
      </trkpt>
      <trkpt lat="43.47184435464441776275634765625" lon="1.43207539804279804229736328125">
        <ele>252.600006103515625</ele>
        <time>2026-08-05T10:31:22.000Z</time>
        <extensions>
          <ns3:TrackPointExtension>
            <ns3:hr>64</ns3:hr>
            <ns3:cad>0</ns3:cad>
          </ns3:TrackPointExtension>
        </extensions>
      </trkpt>
      <trkpt lat="43.47184435464441776275634765625" lon="1.43207539804279804229736328125">
        <ele>252.600006103515625</ele>
        <time>2026-08-05T10:31:23.000Z</time>
        <extensions>
          <ns3:TrackPointExtension>
            <ns3:hr>64</ns3:hr>
            <ns3:cad>0</ns3:cad>
          </ns3:TrackPointExtension>
        </extensions>
      </trkpt>
      <trkpt lat="43.47184435464441776275634765625" lon="1.43207539804279804229736328125">
        <ele>252.600006103515625</ele>
        <time>2026-08-05T10:31:24.000Z</time>
        <extensions>
          <ns3:TrackPointExtension>
            <ns3:hr>64</ns3:hr>
            <ns3:cad>0</ns3:cad>
          </ns3:TrackPointExtension>
        </extensions>
      </trkpt>
      <trkpt lat="43.47184435464441776275634765625" lon="1.43207539804279804229736328125">
        <ele>252.600006103515625</ele>
        <time>2026-08-05T10:31:25.000Z</time>
        <extensions>
          <ns3:TrackPointExtension>
            <ns3:hr>65</ns3:hr>
            <ns3:cad>0</ns3:cad>
          </ns3:TrackPointExtension>
        </extensions>
      </trkpt>
      <trkpt lat="43.47184435464441776275634765625" lon="1.43207539804279804229736328125">
        <ele>252.600006103515625</ele>
        <time>2026-08-05T10:31:26.000Z</time>
        <extensions>
          <ns3:TrackPointExtension>
            <ns3:hr>64</ns3:hr>
            <ns3:cad>0</ns3:cad>
          </ns3:TrackPointExtension>
        </extensions>
      </trkpt>
      <trkpt lat="43.47184435464441776275634765625" lon="1.43207539804279804229736328125">
        <ele>252.600006103515625</ele>
        <time>2026-08-05T10:31:27.000Z</time>
        <extensions>
          <ns3:TrackPointExtension>
            <ns3:hr>65</ns3:hr>
            <ns3:cad>0</ns3:cad>
          </ns3:TrackPointExtension>
        </extensions>
      </trkpt>
      <trkpt lat="43.47184435464441776275634765625" lon="1.43207539804279804229736328125">
        <ele>252.8000030517578125</ele>
        <time>2026-08-05T10:31:28.000Z</time>
        <extensions>
          <ns3:TrackPointExtension>
            <ns3:hr>65</ns3:hr>
            <ns3:cad>0</ns3:cad>
          </ns3:TrackPointExtension>
        </extensions>
      </trkpt>
      <trkpt lat="43.47184435464441776275634765625" lon="1.43207539804279804229736328125">
        <ele>252.8000030517578125</ele>
        <time>2026-08-05T10:31:29.000Z</time>
        <extensions>
          <ns3:TrackPointExtension>
            <ns3:hr>65</ns3:hr>
            <ns3:cad>0</ns3:cad>
          </ns3:TrackPointExtension>
        </extensions>
      </trkpt>
      <trkpt lat="43.47184435464441776275634765625" lon="1.43207539804279804229736328125">
        <ele>253</ele>
        <time>2026-08-05T10:31:30.000Z</time>
        <extensions>
          <ns3:TrackPointExtension>
            <ns3:hr>65</ns3:hr>
            <ns3:cad>0</ns3:cad>
          </ns3:TrackPointExtension>
        </extensions>
      </trkpt>
      <trkpt lat="43.47184435464441776275634765625" lon="1.43207539804279804229736328125">
        <ele>253</ele>
        <time>2026-08-05T10:31:31.000Z</time>
        <extensions>
          <ns3:TrackPointExtension>
            <ns3:hr>65</ns3:hr>
            <ns3:cad>0</ns3:cad>
          </ns3:TrackPointExtension>
        </extensions>
      </trkpt>
      <trkpt lat="43.47184435464441776275634765625" lon="1.43207539804279804229736328125">
        <ele>253</ele>
        <time>2026-08-05T10:31:32.000Z</time>
        <extensions>
          <ns3:TrackPointExtension>
            <ns3:hr>65</ns3:hr>
            <ns3:cad>0</ns3:cad>
          </ns3:TrackPointExtension>
        </extensions>
      </trkpt>
      <trkpt lat="43.47184435464441776275634765625" lon="1.43207539804279804229736328125">
        <ele>253.1999969482421875</ele>
        <time>2026-08-05T10:31:33.000Z</time>
        <extensions>
          <ns3:TrackPointExtension>
            <ns3:hr>66</ns3:hr>
            <ns3:cad>0</ns3:cad>
          </ns3:TrackPointExtension>
        </extensions>
      </trkpt>
      <trkpt lat="43.47184435464441776275634765625" lon="1.43207539804279804229736328125">
        <ele>253.1999969482421875</ele>
        <time>2026-08-05T10:31:34.000Z</time>
        <extensions>
          <ns3:TrackPointExtension>
            <ns3:hr>66</ns3:hr>
            <ns3:cad>0</ns3:cad>
          </ns3:TrackPointExtension>
        </extensions>
      </trkpt>
      <trkpt lat="43.47184435464441776275634765625" lon="1.43207539804279804229736328125">
        <ele>253.1999969482421875</ele>
        <time>2026-08-05T10:31:35.000Z</time>
        <extensions>
          <ns3:TrackPointExtension>
            <ns3:hr>66</ns3:hr>
            <ns3:cad>0</ns3:cad>
          </ns3:TrackPointExtension>
        </extensions>
      </trkpt>
      <trkpt lat="43.47184435464441776275634765625" lon="1.43207539804279804229736328125">
        <ele>253.1999969482421875</ele>
        <time>2026-08-05T10:31:36.000Z</time>
        <extensions>
          <ns3:TrackPointExtension>
            <ns3:hr>66</ns3:hr>
            <ns3:cad>0</ns3:cad>
          </ns3:TrackPointExtension>
        </extensions>
      </trkpt>
      <trkpt lat="43.47184435464441776275634765625" lon="1.43207539804279804229736328125">
        <ele>253</ele>
        <time>2026-08-05T10:31:37.000Z</time>
        <extensions>
          <ns3:TrackPointExtension>
            <ns3:hr>66</ns3:hr>
            <ns3:cad>0</ns3:cad>
          </ns3:TrackPointExtension>
        </extensions>
      </trkpt>
      <trkpt lat="43.47184435464441776275634765625" lon="1.43207539804279804229736328125">
        <ele>253</ele>
        <time>2026-08-05T10:31:38.000Z</time>
        <extensions>
          <ns3:TrackPointExtension>
            <ns3:hr>66</ns3:hr>
            <ns3:cad>0</ns3:cad>
          </ns3:TrackPointExtension>
        </extensions>
      </trkpt>
      <trkpt lat="43.47184435464441776275634765625" lon="1.43207539804279804229736328125">
        <ele>253</ele>
        <time>2026-08-05T10:31:39.000Z</time>
        <extensions>
          <ns3:TrackPointExtension>
            <ns3:hr>65</ns3:hr>
            <ns3:cad>0</ns3:cad>
          </ns3:TrackPointExtension>
        </extensions>
      </trkpt>
      <trkpt lat="43.47184435464441776275634765625" lon="1.43207539804279804229736328125">
        <ele>253.1999969482421875</ele>
        <time>2026-08-05T10:31:40.000Z</time>
        <extensions>
          <ns3:TrackPointExtension>
            <ns3:hr>65</ns3:hr>
            <ns3:cad>0</ns3:cad>
          </ns3:TrackPointExtension>
        </extensions>
      </trkpt>
      <trkpt lat="43.47184435464441776275634765625" lon="1.43207539804279804229736328125">
        <ele>253.1999969482421875</ele>
        <time>2026-08-05T10:31:41.000Z</time>
        <extensions>
          <ns3:TrackPointExtension>
            <ns3:hr>65</ns3:hr>
            <ns3:cad>0</ns3:cad>
          </ns3:TrackPointExtension>
        </extensions>
      </trkpt>
      <trkpt lat="43.47184435464441776275634765625" lon="1.43207539804279804229736328125">
        <ele>253</ele>
        <time>2026-08-05T10:31:42.000Z</time>
        <extensions>
          <ns3:TrackPointExtension>
            <ns3:hr>65</ns3:hr>
            <ns3:cad>0</ns3:cad>
          </ns3:TrackPointExtension>
        </extensions>
      </trkpt>
      <trkpt lat="43.47184435464441776275634765625" lon="1.43207539804279804229736328125">
        <ele>253</ele>
        <time>2026-08-05T10:31:43.000Z</time>
        <extensions>
          <ns3:TrackPointExtension>
            <ns3:hr>65</ns3:hr>
            <ns3:cad>0</ns3:cad>
          </ns3:TrackPointExtension>
        </extensions>
      </trkpt>
      <trkpt lat="43.47184435464441776275634765625" lon="1.43207539804279804229736328125">
        <ele>253</ele>
        <time>2026-08-05T10:31:44.000Z</time>
        <extensions>
          <ns3:TrackPointExtension>
            <ns3:hr>64</ns3:hr>
            <ns3:cad>0</ns3:cad>
          </ns3:TrackPointExtension>
        </extensions>
      </trkpt>
      <trkpt lat="43.47184435464441776275634765625" lon="1.43207539804279804229736328125">
        <ele>253</ele>
        <time>2026-08-05T10:31:45.000Z</time>
        <extensions>
          <ns3:TrackPointExtension>
            <ns3:hr>65</ns3:hr>
            <ns3:cad>0</ns3:cad>
          </ns3:TrackPointExtension>
        </extensions>
      </trkpt>
      <trkpt lat="43.47184435464441776275634765625" lon="1.43207539804279804229736328125">
        <ele>253</ele>
        <time>2026-08-05T10:31:46.000Z</time>
        <extensions>
          <ns3:TrackPointExtension>
            <ns3:hr>63</ns3:hr>
            <ns3:cad>0</ns3:cad>
          </ns3:TrackPointExtension>
        </extensions>
      </trkpt>
      <trkpt lat="43.47184435464441776275634765625" lon="1.43207539804279804229736328125">
        <ele>253</ele>
        <time>2026-08-05T10:31:47.000Z</time>
        <extensions>
          <ns3:TrackPointExtension>
            <ns3:hr>62</ns3:hr>
            <ns3:cad>0</ns3:cad>
          </ns3:TrackPointExtension>
        </extensions>
      </trkpt>
      <trkpt lat="43.47184435464441776275634765625" lon="1.43207539804279804229736328125">
        <ele>253</ele>
        <time>2026-08-05T10:31:48.000Z</time>
        <extensions>
          <ns3:TrackPointExtension>
            <ns3:hr>59</ns3:hr>
            <ns3:cad>0</ns3:cad>
          </ns3:TrackPointExtension>
        </extensions>
      </trkpt>
      <trkpt lat="43.47184435464441776275634765625" lon="1.43207539804279804229736328125">
        <ele>253</ele>
        <time>2026-08-05T10:31:49.000Z</time>
        <extensions>
          <ns3:TrackPointExtension>
            <ns3:hr>58</ns3:hr>
            <ns3:cad>0</ns3:cad>
          </ns3:TrackPointExtension>
        </extensions>
      </trkpt>
      <trkpt lat="43.47184435464441776275634765625" lon="1.43207539804279804229736328125">
        <ele>253.1999969482421875</ele>
        <time>2026-08-05T10:31:50.000Z</time>
        <extensions>
          <ns3:TrackPointExtension>
            <ns3:hr>58</ns3:hr>
            <ns3:cad>0</ns3:cad>
          </ns3:TrackPointExtension>
        </extensions>
      </trkpt>
      <trkpt lat="43.47184435464441776275634765625" lon="1.43207539804279804229736328125">
        <ele>253.1999969482421875</ele>
        <time>2026-08-05T10:31:51.000Z</time>
        <extensions>
          <ns3:TrackPointExtension>
            <ns3:hr>58</ns3:hr>
            <ns3:cad>0</ns3:cad>
          </ns3:TrackPointExtension>
        </extensions>
      </trkpt>
      <trkpt lat="43.47184435464441776275634765625" lon="1.43207539804279804229736328125">
        <ele>253.1999969482421875</ele>
        <time>2026-08-05T10:31:52.000Z</time>
        <extensions>
          <ns3:TrackPointExtension>
            <ns3:hr>58</ns3:hr>
            <ns3:cad>0</ns3:cad>
          </ns3:TrackPointExtension>
        </extensions>
      </trkpt>
      <trkpt lat="43.47184435464441776275634765625" lon="1.43207539804279804229736328125">
        <ele>253.1999969482421875</ele>
        <time>2026-08-05T10:31:53.000Z</time>
        <extensions>
          <ns3:TrackPointExtension>
            <ns3:hr>57</ns3:hr>
            <ns3:cad>0</ns3:cad>
          </ns3:TrackPointExtension>
        </extensions>
      </trkpt>
      <trkpt lat="43.47184435464441776275634765625" lon="1.43207539804279804229736328125">
        <ele>253.1999969482421875</ele>
        <time>2026-08-05T10:31:54.000Z</time>
        <extensions>
          <ns3:TrackPointExtension>
            <ns3:hr>57</ns3:hr>
            <ns3:cad>0</ns3:cad>
          </ns3:TrackPointExtension>
        </extensions>
      </trkpt>
      <trkpt lat="43.47184435464441776275634765625" lon="1.43207539804279804229736328125">
        <ele>253</ele>
        <time>2026-08-05T10:31:55.000Z</time>
        <extensions>
          <ns3:TrackPointExtension>
            <ns3:hr>57</ns3:hr>
            <ns3:cad>0</ns3:cad>
          </ns3:TrackPointExtension>
        </extensions>
      </trkpt>
      <trkpt lat="43.47184435464441776275634765625" lon="1.43207539804279804229736328125">
        <ele>253</ele>
        <time>2026-08-05T10:31:56.000Z</time>
        <extensions>
          <ns3:TrackPointExtension>
            <ns3:hr>57</ns3:hr>
            <ns3:cad>0</ns3:cad>
          </ns3:TrackPointExtension>
        </extensions>
      </trkpt>
      <trkpt lat="43.47184435464441776275634765625" lon="1.43207539804279804229736328125">
        <ele>253</ele>
        <time>2026-08-05T10:31:57.000Z</time>
        <extensions>
          <ns3:TrackPointExtension>
            <ns3:hr>57</ns3:hr>
            <ns3:cad>0</ns3:cad>
          </ns3:TrackPointExtension>
        </extensions>
      </trkpt>
      <trkpt lat="43.47184435464441776275634765625" lon="1.43207539804279804229736328125">
        <ele>253</ele>
        <time>2026-08-05T10:31:58.000Z</time>
        <extensions>
          <ns3:TrackPointExtension>
            <ns3:hr>58</ns3:hr>
            <ns3:cad>0</ns3:cad>
          </ns3:TrackPointExtension>
        </extensions>
      </trkpt>
      <trkpt lat="43.47184435464441776275634765625" lon="1.43207539804279804229736328125">
        <ele>252.8000030517578125</ele>
        <time>2026-08-05T10:31:59.000Z</time>
        <extensions>
          <ns3:TrackPointExtension>
            <ns3:hr>57</ns3:hr>
            <ns3:cad>0</ns3:cad>
          </ns3:TrackPointExtension>
        </extensions>
      </trkpt>
      <trkpt lat="43.47184435464441776275634765625" lon="1.43207539804279804229736328125">
        <ele>252.8000030517578125</ele>
        <time>2026-08-05T10:32:00.000Z</time>
        <extensions>
          <ns3:TrackPointExtension>
            <ns3:hr>56</ns3:hr>
            <ns3:cad>0</ns3:cad>
          </ns3:TrackPointExtension>
        </extensions>
      </trkpt>
      <trkpt lat="43.47184435464441776275634765625" lon="1.43207539804279804229736328125">
        <ele>252.8000030517578125</ele>
        <time>2026-08-05T10:32:01.000Z</time>
        <extensions>
          <ns3:TrackPointExtension>
            <ns3:hr>56</ns3:hr>
            <ns3:cad>0</ns3:cad>
          </ns3:TrackPointExtension>
        </extensions>
      </trkpt>
      <trkpt lat="43.47184435464441776275634765625" lon="1.43207539804279804229736328125">
        <ele>253</ele>
        <time>2026-08-05T10:32:02.000Z</time>
        <extensions>
          <ns3:TrackPointExtension>
            <ns3:hr>55</ns3:hr>
            <ns3:cad>0</ns3:cad>
          </ns3:TrackPointExtension>
        </extensions>
      </trkpt>
      <trkpt lat="43.47184435464441776275634765625" lon="1.43207539804279804229736328125">
        <ele>253</ele>
        <time>2026-08-05T10:32:03.000Z</time>
        <extensions>
          <ns3:TrackPointExtension>
            <ns3:hr>55</ns3:hr>
            <ns3:cad>0</ns3:cad>
          </ns3:TrackPointExtension>
        </extensions>
      </trkpt>
      <trkpt lat="43.47184435464441776275634765625" lon="1.43207539804279804229736328125">
        <ele>252.8000030517578125</ele>
        <time>2026-08-05T10:32:04.000Z</time>
        <extensions>
          <ns3:TrackPointExtension>
            <ns3:hr>55</ns3:hr>
            <ns3:cad>0</ns3:cad>
          </ns3:TrackPointExtension>
        </extensions>
      </trkpt>
      <trkpt lat="43.47184435464441776275634765625" lon="1.43207539804279804229736328125">
        <ele>252.8000030517578125</ele>
        <time>2026-08-05T10:32:05.000Z</time>
        <extensions>
          <ns3:TrackPointExtension>
            <ns3:hr>55</ns3:hr>
            <ns3:cad>0</ns3:cad>
          </ns3:TrackPointExtension>
        </extensions>
      </trkpt>
      <trkpt lat="43.47184435464441776275634765625" lon="1.43207539804279804229736328125">
        <ele>252.8000030517578125</ele>
        <time>2026-08-05T10:32:06.000Z</time>
        <extensions>
          <ns3:TrackPointExtension>
            <ns3:hr>55</ns3:hr>
            <ns3:cad>0</ns3:cad>
          </ns3:TrackPointExtension>
        </extensions>
      </trkpt>
      <trkpt lat="43.47184435464441776275634765625" lon="1.43207539804279804229736328125">
        <ele>252.8000030517578125</ele>
        <time>2026-08-05T10:32:07.000Z</time>
        <extensions>
          <ns3:TrackPointExtension>
            <ns3:hr>55</ns3:hr>
            <ns3:cad>0</ns3:cad>
          </ns3:TrackPointExtension>
        </extensions>
      </trkpt>
      <trkpt lat="43.47184435464441776275634765625" lon="1.43207539804279804229736328125">
        <ele>252.8000030517578125</ele>
        <time>2026-08-05T10:32:08.000Z</time>
        <extensions>
          <ns3:TrackPointExtension>
            <ns3:hr>55</ns3:hr>
            <ns3:cad>0</ns3:cad>
          </ns3:TrackPointExtension>
        </extensions>
      </trkpt>
      <trkpt lat="43.47184435464441776275634765625" lon="1.43207539804279804229736328125">
        <ele>252.8000030517578125</ele>
        <time>2026-08-05T10:32:09.000Z</time>
        <extensions>
          <ns3:TrackPointExtension>
            <ns3:hr>55</ns3:hr>
            <ns3:cad>0</ns3:cad>
          </ns3:TrackPointExtension>
        </extensions>
      </trkpt>
      <trkpt lat="43.47184435464441776275634765625" lon="1.43207539804279804229736328125">
        <ele>252.8000030517578125</ele>
        <time>2026-08-05T10:32:10.000Z</time>
        <extensions>
          <ns3:TrackPointExtension>
            <ns3:hr>56</ns3:hr>
            <ns3:cad>0</ns3:cad>
          </ns3:TrackPointExtension>
        </extensions>
      </trkpt>
      <trkpt lat="43.47184435464441776275634765625" lon="1.43207539804279804229736328125">
        <ele>252.8000030517578125</ele>
        <time>2026-08-05T10:32:11.000Z</time>
        <extensions>
          <ns3:TrackPointExtension>
            <ns3:hr>56</ns3:hr>
            <ns3:cad>0</ns3:cad>
          </ns3:TrackPointExtension>
        </extensions>
      </trkpt>
      <trkpt lat="43.47184435464441776275634765625" lon="1.43207539804279804229736328125">
        <ele>252.8000030517578125</ele>
        <time>2026-08-05T10:32:12.000Z</time>
        <extensions>
          <ns3:TrackPointExtension>
            <ns3:hr>56</ns3:hr>
            <ns3:cad>0</ns3:cad>
          </ns3:TrackPointExtension>
        </extensions>
      </trkpt>
      <trkpt lat="43.47184435464441776275634765625" lon="1.43207539804279804229736328125">
        <ele>252.8000030517578125</ele>
        <time>2026-08-05T10:32:13.000Z</time>
        <extensions>
          <ns3:TrackPointExtension>
            <ns3:hr>56</ns3:hr>
            <ns3:cad>0</ns3:cad>
          </ns3:TrackPointExtension>
        </extensions>
      </trkpt>
      <trkpt lat="43.47184435464441776275634765625" lon="1.43207539804279804229736328125">
        <ele>252.8000030517578125</ele>
        <time>2026-08-05T10:32:14.000Z</time>
        <extensions>
          <ns3:TrackPointExtension>
            <ns3:hr>56</ns3:hr>
            <ns3:cad>0</ns3:cad>
          </ns3:TrackPointExtension>
        </extensions>
      </trkpt>
      <trkpt lat="43.47184435464441776275634765625" lon="1.43207539804279804229736328125">
        <ele>252.8000030517578125</ele>
        <time>2026-08-05T10:32:15.000Z</time>
        <extensions>
          <ns3:TrackPointExtension>
            <ns3:hr>56</ns3:hr>
            <ns3:cad>0</ns3:cad>
          </ns3:TrackPointExtension>
        </extensions>
      </trkpt>
      <trkpt lat="43.47184435464441776275634765625" lon="1.43207539804279804229736328125">
        <ele>252.8000030517578125</ele>
        <time>2026-08-05T10:32:16.000Z</time>
        <extensions>
          <ns3:TrackPointExtension>
            <ns3:hr>56</ns3:hr>
            <ns3:cad>0</ns3:cad>
          </ns3:TrackPointExtension>
        </extensions>
      </trkpt>
      <trkpt lat="43.47184435464441776275634765625" lon="1.43207539804279804229736328125">
        <ele>252.8000030517578125</ele>
        <time>2026-08-05T10:32:17.000Z</time>
        <extensions>
          <ns3:TrackPointExtension>
            <ns3:hr>55</ns3:hr>
            <ns3:cad>0</ns3:cad>
          </ns3:TrackPointExtension>
        </extensions>
      </trkpt>
      <trkpt lat="43.47184435464441776275634765625" lon="1.43207539804279804229736328125">
        <ele>252.8000030517578125</ele>
        <time>2026-08-05T10:32:18.000Z</time>
        <extensions>
          <ns3:TrackPointExtension>
            <ns3:hr>56</ns3:hr>
            <ns3:cad>0</ns3:cad>
          </ns3:TrackPointExtension>
        </extensions>
      </trkpt>
      <trkpt lat="43.47184435464441776275634765625" lon="1.43207539804279804229736328125">
        <ele>252.8000030517578125</ele>
        <time>2026-08-05T10:32:19.000Z</time>
        <extensions>
          <ns3:TrackPointExtension>
            <ns3:hr>56</ns3:hr>
            <ns3:cad>0</ns3:cad>
          </ns3:TrackPointExtension>
        </extensions>
      </trkpt>
      <trkpt lat="43.47184435464441776275634765625" lon="1.43207539804279804229736328125">
        <ele>252.8000030517578125</ele>
        <time>2026-08-05T10:32:20.000Z</time>
        <extensions>
          <ns3:TrackPointExtension>
            <ns3:hr>56</ns3:hr>
            <ns3:cad>0</ns3:cad>
          </ns3:TrackPointExtension>
        </extensions>
      </trkpt>
      <trkpt lat="43.47184435464441776275634765625" lon="1.43207539804279804229736328125">
        <ele>252.8000030517578125</ele>
        <time>2026-08-05T10:32:21.000Z</time>
        <extensions>
          <ns3:TrackPointExtension>
            <ns3:hr>55</ns3:hr>
            <ns3:cad>0</ns3:cad>
          </ns3:TrackPointExtension>
        </extensions>
      </trkpt>
      <trkpt lat="43.47184435464441776275634765625" lon="1.43207539804279804229736328125">
        <ele>252.8000030517578125</ele>
        <time>2026-08-05T10:32:22.000Z</time>
        <extensions>
          <ns3:TrackPointExtension>
            <ns3:hr>56</ns3:hr>
            <ns3:cad>0</ns3:cad>
          </ns3:TrackPointExtension>
        </extensions>
      </trkpt>
      <trkpt lat="43.47184435464441776275634765625" lon="1.43207539804279804229736328125">
        <ele>252.8000030517578125</ele>
        <time>2026-08-05T10:32:23.000Z</time>
        <extensions>
          <ns3:TrackPointExtension>
            <ns3:hr>56</ns3:hr>
            <ns3:cad>0</ns3:cad>
          </ns3:TrackPointExtension>
        </extensions>
      </trkpt>
      <trkpt lat="43.47184435464441776275634765625" lon="1.43207539804279804229736328125">
        <ele>252.8000030517578125</ele>
        <time>2026-08-05T10:32:24.000Z</time>
        <extensions>
          <ns3:TrackPointExtension>
            <ns3:hr>55</ns3:hr>
            <ns3:cad>0</ns3:cad>
          </ns3:TrackPointExtension>
        </extensions>
      </trkpt>
      <trkpt lat="43.47184435464441776275634765625" lon="1.43207539804279804229736328125">
        <ele>252.8000030517578125</ele>
        <time>2026-08-05T10:32:25.000Z</time>
        <extensions>
          <ns3:TrackPointExtension>
            <ns3:hr>55</ns3:hr>
            <ns3:cad>0</ns3:cad>
          </ns3:TrackPointExtension>
        </extensions>
      </trkpt>
      <trkpt lat="43.47184435464441776275634765625" lon="1.43207539804279804229736328125">
        <ele>252.8000030517578125</ele>
        <time>2026-08-05T10:32:26.000Z</time>
        <extensions>
          <ns3:TrackPointExtension>
            <ns3:hr>55</ns3:hr>
            <ns3:cad>0</ns3:cad>
          </ns3:TrackPointExtension>
        </extensions>
      </trkpt>
      <trkpt lat="43.47184435464441776275634765625" lon="1.43207539804279804229736328125">
        <ele>252.8000030517578125</ele>
        <time>2026-08-05T10:32:27.000Z</time>
        <extensions>
          <ns3:TrackPointExtension>
            <ns3:hr>55</ns3:hr>
            <ns3:cad>0</ns3:cad>
          </ns3:TrackPointExtension>
        </extensions>
      </trkpt>
      <trkpt lat="43.47184435464441776275634765625" lon="1.43207539804279804229736328125">
        <ele>252.8000030517578125</ele>
        <time>2026-08-05T10:32:28.000Z</time>
        <extensions>
          <ns3:TrackPointExtension>
            <ns3:hr>55</ns3:hr>
            <ns3:cad>0</ns3:cad>
          </ns3:TrackPointExtension>
        </extensions>
      </trkpt>
      <trkpt lat="43.47184435464441776275634765625" lon="1.43207539804279804229736328125">
        <ele>252.8000030517578125</ele>
        <time>2026-08-05T10:32:29.000Z</time>
        <extensions>
          <ns3:TrackPointExtension>
            <ns3:hr>55</ns3:hr>
            <ns3:cad>0</ns3:cad>
          </ns3:TrackPointExtension>
        </extensions>
      </trkpt>
      <trkpt lat="43.47184435464441776275634765625" lon="1.43207539804279804229736328125">
        <ele>252.8000030517578125</ele>
        <time>2026-08-05T10:32:30.000Z</time>
        <extensions>
          <ns3:TrackPointExtension>
            <ns3:hr>55</ns3:hr>
            <ns3:cad>0</ns3:cad>
          </ns3:TrackPointExtension>
        </extensions>
      </trkpt>
      <trkpt lat="43.47184435464441776275634765625" lon="1.43207539804279804229736328125">
        <ele>252.8000030517578125</ele>
        <time>2026-08-05T10:32:31.000Z</time>
        <extensions>
          <ns3:TrackPointExtension>
            <ns3:hr>55</ns3:hr>
            <ns3:cad>0</ns3:cad>
          </ns3:TrackPointExtension>
        </extensions>
      </trkpt>
      <trkpt lat="43.47184435464441776275634765625" lon="1.43207539804279804229736328125">
        <ele>252.8000030517578125</ele>
        <time>2026-08-05T10:32:32.000Z</time>
        <extensions>
          <ns3:TrackPointExtension>
            <ns3:hr>56</ns3:hr>
            <ns3:cad>0</ns3:cad>
          </ns3:TrackPointExtension>
        </extensions>
      </trkpt>
      <trkpt lat="43.47184435464441776275634765625" lon="1.43207539804279804229736328125">
        <ele>252.8000030517578125</ele>
        <time>2026-08-05T10:32:33.000Z</time>
        <extensions>
          <ns3:TrackPointExtension>
            <ns3:hr>56</ns3:hr>
            <ns3:cad>0</ns3:cad>
          </ns3:TrackPointExtension>
        </extensions>
      </trkpt>
      <trkpt lat="43.47184435464441776275634765625" lon="1.43207539804279804229736328125">
        <ele>252.8000030517578125</ele>
        <time>2026-08-05T10:32:34.000Z</time>
        <extensions>
          <ns3:TrackPointExtension>
            <ns3:hr>56</ns3:hr>
            <ns3:cad>0</ns3:cad>
          </ns3:TrackPointExtension>
        </extensions>
      </trkpt>
      <trkpt lat="43.47184435464441776275634765625" lon="1.43207539804279804229736328125">
        <ele>252.8000030517578125</ele>
        <time>2026-08-05T10:32:35.000Z</time>
        <extensions>
          <ns3:TrackPointExtension>
            <ns3:hr>55</ns3:hr>
            <ns3:cad>0</ns3:cad>
          </ns3:TrackPointExtension>
        </extensions>
      </trkpt>
      <trkpt lat="43.47184435464441776275634765625" lon="1.43207539804279804229736328125">
        <ele>252.8000030517578125</ele>
        <time>2026-08-05T10:32:36.000Z</time>
        <extensions>
          <ns3:TrackPointExtension>
            <ns3:hr>56</ns3:hr>
            <ns3:cad>0</ns3:cad>
          </ns3:TrackPointExtension>
        </extensions>
      </trkpt>
      <trkpt lat="43.47184435464441776275634765625" lon="1.43207539804279804229736328125">
        <ele>252.8000030517578125</ele>
        <time>2026-08-05T10:32:37.000Z</time>
        <extensions>
          <ns3:TrackPointExtension>
            <ns3:hr>56</ns3:hr>
            <ns3:cad>0</ns3:cad>
          </ns3:TrackPointExtension>
        </extensions>
      </trkpt>
      <trkpt lat="43.47184435464441776275634765625" lon="1.43207539804279804229736328125">
        <ele>253</ele>
        <time>2026-08-05T10:32:38.000Z</time>
        <extensions>
          <ns3:TrackPointExtension>
            <ns3:hr>56</ns3:hr>
            <ns3:cad>0</ns3:cad>
          </ns3:TrackPointExtension>
        </extensions>
      </trkpt>
      <trkpt lat="43.47184435464441776275634765625" lon="1.43207539804279804229736328125">
        <ele>253</ele>
        <time>2026-08-05T10:32:39.000Z</time>
        <extensions>
          <ns3:TrackPointExtension>
            <ns3:hr>56</ns3:hr>
            <ns3:cad>0</ns3:cad>
          </ns3:TrackPointExtension>
        </extensions>
      </trkpt>
      <trkpt lat="43.47184435464441776275634765625" lon="1.43207539804279804229736328125">
        <ele>253</ele>
        <time>2026-08-05T10:32:40.000Z</time>
        <extensions>
          <ns3:TrackPointExtension>
            <ns3:hr>55</ns3:hr>
            <ns3:cad>0</ns3:cad>
          </ns3:TrackPointExtension>
        </extensions>
      </trkpt>
      <trkpt lat="43.47184435464441776275634765625" lon="1.43207539804279804229736328125">
        <ele>253</ele>
        <time>2026-08-05T10:32:41.000Z</time>
        <extensions>
          <ns3:TrackPointExtension>
            <ns3:hr>56</ns3:hr>
            <ns3:cad>0</ns3:cad>
          </ns3:TrackPointExtension>
        </extensions>
      </trkpt>
      <trkpt lat="43.47184435464441776275634765625" lon="1.43207539804279804229736328125">
        <ele>253</ele>
        <time>2026-08-05T10:32:42.000Z</time>
        <extensions>
          <ns3:TrackPointExtension>
            <ns3:hr>55</ns3:hr>
            <ns3:cad>0</ns3:cad>
          </ns3:TrackPointExtension>
        </extensions>
      </trkpt>
      <trkpt lat="43.47184435464441776275634765625" lon="1.43207539804279804229736328125">
        <ele>253</ele>
        <time>2026-08-05T10:32:43.000Z</time>
        <extensions>
          <ns3:TrackPointExtension>
            <ns3:hr>55</ns3:hr>
            <ns3:cad>0</ns3:cad>
          </ns3:TrackPointExtension>
        </extensions>
      </trkpt>
      <trkpt lat="43.47184435464441776275634765625" lon="1.43207539804279804229736328125">
        <ele>252.8000030517578125</ele>
        <time>2026-08-05T10:32:44.000Z</time>
        <extensions>
          <ns3:TrackPointExtension>
            <ns3:hr>55</ns3:hr>
            <ns3:cad>0</ns3:cad>
          </ns3:TrackPointExtension>
        </extensions>
      </trkpt>
      <trkpt lat="43.47184435464441776275634765625" lon="1.43207539804279804229736328125">
        <ele>252.8000030517578125</ele>
        <time>2026-08-05T10:32:45.000Z</time>
        <extensions>
          <ns3:TrackPointExtension>
            <ns3:hr>55</ns3:hr>
            <ns3:cad>0</ns3:cad>
          </ns3:TrackPointExtension>
        </extensions>
      </trkpt>
      <trkpt lat="43.47184435464441776275634765625" lon="1.43207539804279804229736328125">
        <ele>252.8000030517578125</ele>
        <time>2026-08-05T10:32:46.000Z</time>
        <extensions>
          <ns3:TrackPointExtension>
            <ns3:hr>54</ns3:hr>
            <ns3:cad>0</ns3:cad>
          </ns3:TrackPointExtension>
        </extensions>
      </trkpt>
      <trkpt lat="43.47184435464441776275634765625" lon="1.43207539804279804229736328125">
        <ele>252.8000030517578125</ele>
        <time>2026-08-05T10:32:47.000Z</time>
        <extensions>
          <ns3:TrackPointExtension>
            <ns3:hr>54</ns3:hr>
            <ns3:cad>0</ns3:cad>
          </ns3:TrackPointExtension>
        </extensions>
      </trkpt>
      <trkpt lat="43.47184435464441776275634765625" lon="1.43207539804279804229736328125">
        <ele>252.8000030517578125</ele>
        <time>2026-08-05T10:32:48.000Z</time>
        <extensions>
          <ns3:TrackPointExtension>
            <ns3:hr>54</ns3:hr>
            <ns3:cad>0</ns3:cad>
          </ns3:TrackPointExtension>
        </extensions>
      </trkpt>
      <trkpt lat="43.47184435464441776275634765625" lon="1.43207539804279804229736328125">
        <ele>252.8000030517578125</ele>
        <time>2026-08-05T10:32:49.000Z</time>
        <extensions>
          <ns3:TrackPointExtension>
            <ns3:hr>54</ns3:hr>
            <ns3:cad>0</ns3:cad>
          </ns3:TrackPointExtension>
        </extensions>
      </trkpt>
      <trkpt lat="43.47184435464441776275634765625" lon="1.43207539804279804229736328125">
        <ele>252.8000030517578125</ele>
        <time>2026-08-05T10:32:50.000Z</time>
        <extensions>
          <ns3:TrackPointExtension>
            <ns3:hr>53</ns3:hr>
            <ns3:cad>0</ns3:cad>
          </ns3:TrackPointExtension>
        </extensions>
      </trkpt>
      <trkpt lat="43.47184435464441776275634765625" lon="1.43207539804279804229736328125">
        <ele>252.8000030517578125</ele>
        <time>2026-08-05T10:32:51.000Z</time>
        <extensions>
          <ns3:TrackPointExtension>
            <ns3:hr>53</ns3:hr>
            <ns3:cad>0</ns3:cad>
          </ns3:TrackPointExtension>
        </extensions>
      </trkpt>
      <trkpt lat="43.47184435464441776275634765625" lon="1.43207539804279804229736328125">
        <ele>252.8000030517578125</ele>
        <time>2026-08-05T10:32:52.000Z</time>
        <extensions>
          <ns3:TrackPointExtension>
            <ns3:hr>53</ns3:hr>
            <ns3:cad>0</ns3:cad>
          </ns3:TrackPointExtension>
        </extensions>
      </trkpt>
      <trkpt lat="43.47184435464441776275634765625" lon="1.43207539804279804229736328125">
        <ele>252.8000030517578125</ele>
        <time>2026-08-05T10:32:53.000Z</time>
        <extensions>
          <ns3:TrackPointExtension>
            <ns3:hr>53</ns3:hr>
            <ns3:cad>0</ns3:cad>
          </ns3:TrackPointExtension>
        </extensions>
      </trkpt>
      <trkpt lat="43.47184435464441776275634765625" lon="1.43207539804279804229736328125">
        <ele>252.8000030517578125</ele>
        <time>2026-08-05T10:32:54.000Z</time>
        <extensions>
          <ns3:TrackPointExtension>
            <ns3:hr>54</ns3:hr>
            <ns3:cad>0</ns3:cad>
          </ns3:TrackPointExtension>
        </extensions>
      </trkpt>
      <trkpt lat="43.47184435464441776275634765625" lon="1.43207539804279804229736328125">
        <ele>253</ele>
        <time>2026-08-05T10:32:55.000Z</time>
        <extensions>
          <ns3:TrackPointExtension>
            <ns3:hr>54</ns3:hr>
            <ns3:cad>0</ns3:cad>
          </ns3:TrackPointExtension>
        </extensions>
      </trkpt>
      <trkpt lat="43.47184435464441776275634765625" lon="1.43207539804279804229736328125">
        <ele>253</ele>
        <time>2026-08-05T10:32:56.000Z</time>
        <extensions>
          <ns3:TrackPointExtension>
            <ns3:hr>54</ns3:hr>
            <ns3:cad>0</ns3:cad>
          </ns3:TrackPointExtension>
        </extensions>
      </trkpt>
      <trkpt lat="43.47184435464441776275634765625" lon="1.43207539804279804229736328125">
        <ele>253</ele>
        <time>2026-08-05T10:32:57.000Z</time>
        <extensions>
          <ns3:TrackPointExtension>
            <ns3:hr>54</ns3:hr>
            <ns3:cad>0</ns3:cad>
          </ns3:TrackPointExtension>
        </extensions>
      </trkpt>
      <trkpt lat="43.47184435464441776275634765625" lon="1.43207539804279804229736328125">
        <ele>252.8000030517578125</ele>
        <time>2026-08-05T10:32:58.000Z</time>
        <extensions>
          <ns3:TrackPointExtension>
            <ns3:hr>54</ns3:hr>
            <ns3:cad>0</ns3:cad>
          </ns3:TrackPointExtension>
        </extensions>
      </trkpt>
      <trkpt lat="43.47184435464441776275634765625" lon="1.43207539804279804229736328125">
        <ele>252.8000030517578125</ele>
        <time>2026-08-05T10:32:59.000Z</time>
        <extensions>
          <ns3:TrackPointExtension>
            <ns3:hr>54</ns3:hr>
            <ns3:cad>0</ns3:cad>
          </ns3:TrackPointExtension>
        </extensions>
      </trkpt>
      <trkpt lat="43.47184435464441776275634765625" lon="1.43207539804279804229736328125">
        <ele>252.8000030517578125</ele>
        <time>2026-08-05T10:33:00.000Z</time>
        <extensions>
          <ns3:TrackPointExtension>
            <ns3:hr>54</ns3:hr>
            <ns3:cad>0</ns3:cad>
          </ns3:TrackPointExtension>
        </extensions>
      </trkpt>
      <trkpt lat="43.47184435464441776275634765625" lon="1.43207539804279804229736328125">
        <ele>252.8000030517578125</ele>
        <time>2026-08-05T10:33:01.000Z</time>
        <extensions>
          <ns3:TrackPointExtension>
            <ns3:hr>54</ns3:hr>
            <ns3:cad>0</ns3:cad>
          </ns3:TrackPointExtension>
        </extensions>
      </trkpt>
      <trkpt lat="43.47184435464441776275634765625" lon="1.43207539804279804229736328125">
        <ele>253</ele>
        <time>2026-08-05T10:33:02.000Z</time>
        <extensions>
          <ns3:TrackPointExtension>
            <ns3:hr>54</ns3:hr>
            <ns3:cad>0</ns3:cad>
          </ns3:TrackPointExtension>
        </extensions>
      </trkpt>
      <trkpt lat="43.47184435464441776275634765625" lon="1.43207539804279804229736328125">
        <ele>253</ele>
        <time>2026-08-05T10:33:03.000Z</time>
        <extensions>
          <ns3:TrackPointExtension>
            <ns3:hr>54</ns3:hr>
            <ns3:cad>0</ns3:cad>
          </ns3:TrackPointExtension>
        </extensions>
      </trkpt>
      <trkpt lat="43.47184435464441776275634765625" lon="1.43207539804279804229736328125">
        <ele>253</ele>
        <time>2026-08-05T10:33:04.000Z</time>
        <extensions>
          <ns3:TrackPointExtension>
            <ns3:hr>54</ns3:hr>
            <ns3:cad>0</ns3:cad>
          </ns3:TrackPointExtension>
        </extensions>
      </trkpt>
      <trkpt lat="43.47184435464441776275634765625" lon="1.43207539804279804229736328125">
        <ele>253</ele>
        <time>2026-08-05T10:33:05.000Z</time>
        <extensions>
          <ns3:TrackPointExtension>
            <ns3:hr>54</ns3:hr>
            <ns3:cad>0</ns3:cad>
          </ns3:TrackPointExtension>
        </extensions>
      </trkpt>
      <trkpt lat="43.47184435464441776275634765625" lon="1.43207539804279804229736328125">
        <ele>253</ele>
        <time>2026-08-05T10:33:06.000Z</time>
        <extensions>
          <ns3:TrackPointExtension>
            <ns3:hr>54</ns3:hr>
            <ns3:cad>0</ns3:cad>
          </ns3:TrackPointExtension>
        </extensions>
      </trkpt>
      <trkpt lat="43.47184435464441776275634765625" lon="1.43207539804279804229736328125">
        <ele>253</ele>
        <time>2026-08-05T10:33:07.000Z</time>
        <extensions>
          <ns3:TrackPointExtension>
            <ns3:hr>54</ns3:hr>
            <ns3:cad>0</ns3:cad>
          </ns3:TrackPointExtension>
        </extensions>
      </trkpt>
      <trkpt lat="43.47184435464441776275634765625" lon="1.43207539804279804229736328125">
        <ele>253</ele>
        <time>2026-08-05T10:33:08.000Z</time>
        <extensions>
          <ns3:TrackPointExtension>
            <ns3:hr>54</ns3:hr>
            <ns3:cad>0</ns3:cad>
          </ns3:TrackPointExtension>
        </extensions>
      </trkpt>
      <trkpt lat="43.47184435464441776275634765625" lon="1.43207539804279804229736328125">
        <ele>253</ele>
        <time>2026-08-05T10:33:09.000Z</time>
        <extensions>
          <ns3:TrackPointExtension>
            <ns3:hr>54</ns3:hr>
            <ns3:cad>0</ns3:cad>
          </ns3:TrackPointExtension>
        </extensions>
      </trkpt>
      <trkpt lat="43.47184435464441776275634765625" lon="1.43207539804279804229736328125">
        <ele>253</ele>
        <time>2026-08-05T10:33:10.000Z</time>
        <extensions>
          <ns3:TrackPointExtension>
            <ns3:hr>55</ns3:hr>
            <ns3:cad>0</ns3:cad>
          </ns3:TrackPointExtension>
        </extensions>
      </trkpt>
      <trkpt lat="43.47184435464441776275634765625" lon="1.43207539804279804229736328125">
        <ele>253</ele>
        <time>2026-08-05T10:33:11.000Z</time>
        <extensions>
          <ns3:TrackPointExtension>
            <ns3:hr>55</ns3:hr>
            <ns3:cad>0</ns3:cad>
          </ns3:TrackPointExtension>
        </extensions>
      </trkpt>
      <trkpt lat="43.47184435464441776275634765625" lon="1.43207539804279804229736328125">
        <ele>253</ele>
        <time>2026-08-05T10:33:12.000Z</time>
        <extensions>
          <ns3:TrackPointExtension>
            <ns3:hr>55</ns3:hr>
            <ns3:cad>0</ns3:cad>
          </ns3:TrackPointExtension>
        </extensions>
      </trkpt>
      <trkpt lat="43.47184435464441776275634765625" lon="1.43207539804279804229736328125">
        <ele>253</ele>
        <time>2026-08-05T10:33:13.000Z</time>
        <extensions>
          <ns3:TrackPointExtension>
            <ns3:hr>56</ns3:hr>
            <ns3:cad>0</ns3:cad>
          </ns3:TrackPointExtension>
        </extensions>
      </trkpt>
      <trkpt lat="43.47184435464441776275634765625" lon="1.43207539804279804229736328125">
        <ele>253</ele>
        <time>2026-08-05T10:33:14.000Z</time>
        <extensions>
          <ns3:TrackPointExtension>
            <ns3:hr>56</ns3:hr>
            <ns3:cad>0</ns3:cad>
          </ns3:TrackPointExtension>
        </extensions>
      </trkpt>
      <trkpt lat="43.47184435464441776275634765625" lon="1.43207539804279804229736328125">
        <ele>253</ele>
        <time>2026-08-05T10:33:15.000Z</time>
        <extensions>
          <ns3:TrackPointExtension>
            <ns3:hr>57</ns3:hr>
            <ns3:cad>0</ns3:cad>
          </ns3:TrackPointExtension>
        </extensions>
      </trkpt>
      <trkpt lat="43.47184435464441776275634765625" lon="1.43207539804279804229736328125">
        <ele>253</ele>
        <time>2026-08-05T10:33:16.000Z</time>
        <extensions>
          <ns3:TrackPointExtension>
            <ns3:hr>57</ns3:hr>
            <ns3:cad>0</ns3:cad>
          </ns3:TrackPointExtension>
        </extensions>
      </trkpt>
      <trkpt lat="43.47184435464441776275634765625" lon="1.43207539804279804229736328125">
        <ele>253</ele>
        <time>2026-08-05T10:33:17.000Z</time>
        <extensions>
          <ns3:TrackPointExtension>
            <ns3:hr>57</ns3:hr>
            <ns3:cad>0</ns3:cad>
          </ns3:TrackPointExtension>
        </extensions>
      </trkpt>
      <trkpt lat="43.47184435464441776275634765625" lon="1.43207539804279804229736328125">
        <ele>253</ele>
        <time>2026-08-05T10:33:18.000Z</time>
        <extensions>
          <ns3:TrackPointExtension>
            <ns3:hr>58</ns3:hr>
            <ns3:cad>0</ns3:cad>
          </ns3:TrackPointExtension>
        </extensions>
      </trkpt>
      <trkpt lat="43.47184435464441776275634765625" lon="1.43207539804279804229736328125">
        <ele>253</ele>
        <time>2026-08-05T10:33:19.000Z</time>
        <extensions>
          <ns3:TrackPointExtension>
            <ns3:hr>57</ns3:hr>
            <ns3:cad>0</ns3:cad>
          </ns3:TrackPointExtension>
        </extensions>
      </trkpt>
      <trkpt lat="43.47184435464441776275634765625" lon="1.43207539804279804229736328125">
        <ele>253</ele>
        <time>2026-08-05T10:33:20.000Z</time>
        <extensions>
          <ns3:TrackPointExtension>
            <ns3:hr>58</ns3:hr>
            <ns3:cad>0</ns3:cad>
          </ns3:TrackPointExtension>
        </extensions>
      </trkpt>
      <trkpt lat="43.47184435464441776275634765625" lon="1.43207539804279804229736328125">
        <ele>253</ele>
        <time>2026-08-05T10:33:21.000Z</time>
        <extensions>
          <ns3:TrackPointExtension>
            <ns3:hr>58</ns3:hr>
            <ns3:cad>0</ns3:cad>
          </ns3:TrackPointExtension>
        </extensions>
      </trkpt>
      <trkpt lat="43.47184435464441776275634765625" lon="1.43207539804279804229736328125">
        <ele>253</ele>
        <time>2026-08-05T10:33:22.000Z</time>
        <extensions>
          <ns3:TrackPointExtension>
            <ns3:hr>58</ns3:hr>
            <ns3:cad>0</ns3:cad>
          </ns3:TrackPointExtension>
        </extensions>
      </trkpt>
      <trkpt lat="43.47184435464441776275634765625" lon="1.43207539804279804229736328125">
        <ele>253</ele>
        <time>2026-08-05T10:33:23.000Z</time>
        <extensions>
          <ns3:TrackPointExtension>
            <ns3:hr>59</ns3:hr>
            <ns3:cad>0</ns3:cad>
          </ns3:TrackPointExtension>
        </extensions>
      </trkpt>
      <trkpt lat="43.47184435464441776275634765625" lon="1.43207539804279804229736328125">
        <ele>253</ele>
        <time>2026-08-05T10:33:24.000Z</time>
        <extensions>
          <ns3:TrackPointExtension>
            <ns3:hr>59</ns3:hr>
            <ns3:cad>0</ns3:cad>
          </ns3:TrackPointExtension>
        </extensions>
      </trkpt>
      <trkpt lat="43.47184435464441776275634765625" lon="1.43207539804279804229736328125">
        <ele>253</ele>
        <time>2026-08-05T10:33:25.000Z</time>
        <extensions>
          <ns3:TrackPointExtension>
            <ns3:hr>60</ns3:hr>
            <ns3:cad>0</ns3:cad>
          </ns3:TrackPointExtension>
        </extensions>
      </trkpt>
      <trkpt lat="43.47184435464441776275634765625" lon="1.43207539804279804229736328125">
        <ele>253</ele>
        <time>2026-08-05T10:33:26.000Z</time>
        <extensions>
          <ns3:TrackPointExtension>
            <ns3:hr>61</ns3:hr>
            <ns3:cad>0</ns3:cad>
          </ns3:TrackPointExtension>
        </extensions>
      </trkpt>
      <trkpt lat="43.47184435464441776275634765625" lon="1.43207539804279804229736328125">
        <ele>253</ele>
        <time>2026-08-05T10:33:27.000Z</time>
        <extensions>
          <ns3:TrackPointExtension>
            <ns3:hr>61</ns3:hr>
            <ns3:cad>0</ns3:cad>
          </ns3:TrackPointExtension>
        </extensions>
      </trkpt>
      <trkpt lat="43.47184435464441776275634765625" lon="1.43207539804279804229736328125">
        <ele>253</ele>
        <time>2026-08-05T10:33:28.000Z</time>
        <extensions>
          <ns3:TrackPointExtension>
            <ns3:hr>62</ns3:hr>
            <ns3:cad>0</ns3:cad>
          </ns3:TrackPointExtension>
        </extensions>
      </trkpt>
      <trkpt lat="43.47184435464441776275634765625" lon="1.43207539804279804229736328125">
        <ele>253</ele>
        <time>2026-08-05T10:33:29.000Z</time>
        <extensions>
          <ns3:TrackPointExtension>
            <ns3:hr>63</ns3:hr>
            <ns3:cad>0</ns3:cad>
          </ns3:TrackPointExtension>
        </extensions>
      </trkpt>
      <trkpt lat="43.47184435464441776275634765625" lon="1.43207539804279804229736328125">
        <ele>253</ele>
        <time>2026-08-05T10:33:30.000Z</time>
        <extensions>
          <ns3:TrackPointExtension>
            <ns3:hr>65</ns3:hr>
            <ns3:cad>0</ns3:cad>
          </ns3:TrackPointExtension>
        </extensions>
      </trkpt>
      <trkpt lat="43.47184435464441776275634765625" lon="1.43207539804279804229736328125">
        <ele>253</ele>
        <time>2026-08-05T10:33:31.000Z</time>
        <extensions>
          <ns3:TrackPointExtension>
            <ns3:hr>69</ns3:hr>
            <ns3:cad>0</ns3:cad>
          </ns3:TrackPointExtension>
        </extensions>
      </trkpt>
      <trkpt lat="43.47184435464441776275634765625" lon="1.43207539804279804229736328125">
        <ele>253</ele>
        <time>2026-08-05T10:33:32.000Z</time>
        <extensions>
          <ns3:TrackPointExtension>
            <ns3:hr>69</ns3:hr>
            <ns3:cad>0</ns3:cad>
          </ns3:TrackPointExtension>
        </extensions>
      </trkpt>
      <trkpt lat="43.47184435464441776275634765625" lon="1.43207539804279804229736328125">
        <ele>253</ele>
        <time>2026-08-05T10:33:33.000Z</time>
        <extensions>
          <ns3:TrackPointExtension>
            <ns3:hr>69</ns3:hr>
            <ns3:cad>0</ns3:cad>
          </ns3:TrackPointExtension>
        </extensions>
      </trkpt>
      <trkpt lat="43.47184435464441776275634765625" lon="1.43207539804279804229736328125">
        <ele>253</ele>
        <time>2026-08-05T10:33:34.000Z</time>
        <extensions>
          <ns3:TrackPointExtension>
            <ns3:hr>69</ns3:hr>
            <ns3:cad>0</ns3:cad>
          </ns3:TrackPointExtension>
        </extensions>
      </trkpt>
      <trkpt lat="43.47184435464441776275634765625" lon="1.43207539804279804229736328125">
        <ele>253</ele>
        <time>2026-08-05T10:33:35.000Z</time>
        <extensions>
          <ns3:TrackPointExtension>
            <ns3:hr>69</ns3:hr>
            <ns3:cad>0</ns3:cad>
          </ns3:TrackPointExtension>
        </extensions>
      </trkpt>
      <trkpt lat="43.47184418700635433197021484375" lon="1.43206366337835788726806640625">
        <ele>253</ele>
        <time>2026-08-05T10:33:36.000Z</time>
        <extensions>
          <ns3:TrackPointExtension>
            <ns3:hr>68</ns3:hr>
            <ns3:cad>0</ns3:cad>
          </ns3:TrackPointExtension>
        </extensions>
      </trkpt>
      <trkpt lat="43.47184267826378345489501953125" lon="1.43206232227385044097900390625">
        <ele>252.8000030517578125</ele>
        <time>2026-08-05T10:33:37.000Z</time>
        <extensions>
          <ns3:TrackPointExtension>
            <ns3:hr>68</ns3:hr>
            <ns3:cad>0</ns3:cad>
          </ns3:TrackPointExtension>
        </extensions>
      </trkpt>
      <trkpt lat="43.47184251062572002410888671875" lon="1.43206081353127956390380859375">
        <ele>252.8000030517578125</ele>
        <time>2026-08-05T10:33:38.000Z</time>
        <extensions>
          <ns3:TrackPointExtension>
            <ns3:hr>68</ns3:hr>
            <ns3:cad>0</ns3:cad>
          </ns3:TrackPointExtension>
        </extensions>
      </trkpt>
      <trkpt lat="43.47184150479733943939208984375" lon="1.43206031061708927154541015625">
        <ele>252.8000030517578125</ele>
        <time>2026-08-05T10:33:39.000Z</time>
        <extensions>
          <ns3:TrackPointExtension>
            <ns3:hr>67</ns3:hr>
            <ns3:cad>0</ns3:cad>
          </ns3:TrackPointExtension>
        </extensions>
      </trkpt>
      <trkpt lat="43.47184100188314914703369140625" lon="1.4320597238838672637939453125">
        <ele>252.8000030517578125</ele>
        <time>2026-08-05T10:33:40.000Z</time>
        <extensions>
          <ns3:TrackPointExtension>
            <ns3:hr>67</ns3:hr>
            <ns3:cad>0</ns3:cad>
          </ns3:TrackPointExtension>
        </extensions>
      </trkpt>
      <trkpt lat="43.47184334881603717803955078125" lon="1.4320557005703449249267578125">
        <ele>252.8000030517578125</ele>
        <time>2026-08-05T10:33:41.000Z</time>
        <extensions>
          <ns3:TrackPointExtension>
            <ns3:hr>67</ns3:hr>
            <ns3:cad>0</ns3:cad>
          </ns3:TrackPointExtension>
        </extensions>
      </trkpt>
      <trkpt lat="43.4718449413776397705078125" lon="1.43205544911324977874755859375">
        <ele>252.8000030517578125</ele>
        <time>2026-08-05T10:33:42.000Z</time>
        <extensions>
          <ns3:TrackPointExtension>
            <ns3:hr>66</ns3:hr>
            <ns3:cad>0</ns3:cad>
          </ns3:TrackPointExtension>
        </extensions>
      </trkpt>
      <trkpt lat="43.47184720449149608612060546875" lon="1.4320580475032329559326171875">
        <ele>252.8000030517578125</ele>
        <time>2026-08-05T10:33:43.000Z</time>
        <extensions>
          <ns3:TrackPointExtension>
            <ns3:hr>65</ns3:hr>
            <ns3:cad>0</ns3:cad>
          </ns3:TrackPointExtension>
        </extensions>
      </trkpt>
      <trkpt lat="43.47184720449149608612060546875" lon="1.4320580475032329559326171875">
        <ele>252.8000030517578125</ele>
        <time>2026-08-05T10:33:44.000Z</time>
        <extensions>
          <ns3:TrackPointExtension>
            <ns3:hr>65</ns3:hr>
            <ns3:cad>0</ns3:cad>
          </ns3:TrackPointExtension>
        </extensions>
      </trkpt>
      <trkpt lat="43.47184720449149608612060546875" lon="1.4320580475032329559326171875">
        <ele>252.8000030517578125</ele>
        <time>2026-08-05T10:33:45.000Z</time>
        <extensions>
          <ns3:TrackPointExtension>
            <ns3:hr>66</ns3:hr>
            <ns3:cad>0</ns3:cad>
          </ns3:TrackPointExtension>
        </extensions>
      </trkpt>
      <trkpt lat="43.47184720449149608612060546875" lon="1.4320580475032329559326171875">
        <ele>252.8000030517578125</ele>
        <time>2026-08-05T10:33:46.000Z</time>
        <extensions>
          <ns3:TrackPointExtension>
            <ns3:hr>66</ns3:hr>
            <ns3:cad>0</ns3:cad>
          </ns3:TrackPointExtension>
        </extensions>
      </trkpt>
      <trkpt lat="43.47184720449149608612060546875" lon="1.4320580475032329559326171875">
        <ele>252.8000030517578125</ele>
        <time>2026-08-05T10:33:47.000Z</time>
        <extensions>
          <ns3:TrackPointExtension>
            <ns3:hr>66</ns3:hr>
            <ns3:cad>0</ns3:cad>
          </ns3:TrackPointExtension>
        </extensions>
      </trkpt>
      <trkpt lat="43.47184720449149608612060546875" lon="1.4320580475032329559326171875">
        <ele>252.8000030517578125</ele>
        <time>2026-08-05T10:33:48.000Z</time>
        <extensions>
          <ns3:TrackPointExtension>
            <ns3:hr>65</ns3:hr>
            <ns3:cad>0</ns3:cad>
          </ns3:TrackPointExtension>
        </extensions>
      </trkpt>
      <trkpt lat="43.47184720449149608612060546875" lon="1.4320580475032329559326171875">
        <ele>252.8000030517578125</ele>
        <time>2026-08-05T10:33:49.000Z</time>
        <extensions>
          <ns3:TrackPointExtension>
            <ns3:hr>65</ns3:hr>
            <ns3:cad>0</ns3:cad>
          </ns3:TrackPointExtension>
        </extensions>
      </trkpt>
      <trkpt lat="43.47184720449149608612060546875" lon="1.4320580475032329559326171875">
        <ele>252.8000030517578125</ele>
        <time>2026-08-05T10:33:50.000Z</time>
        <extensions>
          <ns3:TrackPointExtension>
            <ns3:hr>65</ns3:hr>
            <ns3:cad>0</ns3:cad>
          </ns3:TrackPointExtension>
        </extensions>
      </trkpt>
      <trkpt lat="43.47184720449149608612060546875" lon="1.4320580475032329559326171875">
        <ele>252.8000030517578125</ele>
        <time>2026-08-05T10:33:51.000Z</time>
        <extensions>
          <ns3:TrackPointExtension>
            <ns3:hr>64</ns3:hr>
            <ns3:cad>0</ns3:cad>
          </ns3:TrackPointExtension>
        </extensions>
      </trkpt>
      <trkpt lat="43.47184720449149608612060546875" lon="1.4320580475032329559326171875">
        <ele>252.8000030517578125</ele>
        <time>2026-08-05T10:33:52.000Z</time>
        <extensions>
          <ns3:TrackPointExtension>
            <ns3:hr>64</ns3:hr>
            <ns3:cad>0</ns3:cad>
          </ns3:TrackPointExtension>
        </extensions>
      </trkpt>
      <trkpt lat="43.47184720449149608612060546875" lon="1.4320580475032329559326171875">
        <ele>252.8000030517578125</ele>
        <time>2026-08-05T10:33:53.000Z</time>
        <extensions>
          <ns3:TrackPointExtension>
            <ns3:hr>64</ns3:hr>
            <ns3:cad>0</ns3:cad>
          </ns3:TrackPointExtension>
        </extensions>
      </trkpt>
      <trkpt lat="43.47184720449149608612060546875" lon="1.4320580475032329559326171875">
        <ele>252.8000030517578125</ele>
        <time>2026-08-05T10:33:54.000Z</time>
        <extensions>
          <ns3:TrackPointExtension>
            <ns3:hr>64</ns3:hr>
            <ns3:cad>0</ns3:cad>
          </ns3:TrackPointExtension>
        </extensions>
      </trkpt>
      <trkpt lat="43.47184720449149608612060546875" lon="1.4320580475032329559326171875">
        <ele>252.8000030517578125</ele>
        <time>2026-08-05T10:33:55.000Z</time>
        <extensions>
          <ns3:TrackPointExtension>
            <ns3:hr>64</ns3:hr>
            <ns3:cad>0</ns3:cad>
          </ns3:TrackPointExtension>
        </extensions>
      </trkpt>
      <trkpt lat="43.47184720449149608612060546875" lon="1.4320580475032329559326171875">
        <ele>252.8000030517578125</ele>
        <time>2026-08-05T10:33:56.000Z</time>
        <extensions>
          <ns3:TrackPointExtension>
            <ns3:hr>64</ns3:hr>
            <ns3:cad>0</ns3:cad>
          </ns3:TrackPointExtension>
        </extensions>
      </trkpt>
      <trkpt lat="43.47184720449149608612060546875" lon="1.4320580475032329559326171875">
        <ele>252.8000030517578125</ele>
        <time>2026-08-05T10:33:57.000Z</time>
        <extensions>
          <ns3:TrackPointExtension>
            <ns3:hr>64</ns3:hr>
            <ns3:cad>0</ns3:cad>
          </ns3:TrackPointExtension>
        </extensions>
      </trkpt>
      <trkpt lat="43.47184720449149608612060546875" lon="1.4320580475032329559326171875">
        <ele>252.8000030517578125</ele>
        <time>2026-08-05T10:33:58.000Z</time>
        <extensions>
          <ns3:TrackPointExtension>
            <ns3:hr>64</ns3:hr>
            <ns3:cad>0</ns3:cad>
          </ns3:TrackPointExtension>
        </extensions>
      </trkpt>
      <trkpt lat="43.47184720449149608612060546875" lon="1.4320580475032329559326171875">
        <ele>252.8000030517578125</ele>
        <time>2026-08-05T10:33:59.000Z</time>
        <extensions>
          <ns3:TrackPointExtension>
            <ns3:hr>64</ns3:hr>
            <ns3:cad>0</ns3:cad>
          </ns3:TrackPointExtension>
        </extensions>
      </trkpt>
      <trkpt lat="43.47184720449149608612060546875" lon="1.4320580475032329559326171875">
        <ele>252.8000030517578125</ele>
        <time>2026-08-05T10:34:00.000Z</time>
        <extensions>
          <ns3:TrackPointExtension>
            <ns3:hr>64</ns3:hr>
            <ns3:cad>0</ns3:cad>
          </ns3:TrackPointExtension>
        </extensions>
      </trkpt>
      <trkpt lat="43.47184720449149608612060546875" lon="1.4320580475032329559326171875">
        <ele>252.8000030517578125</ele>
        <time>2026-08-05T10:34:01.000Z</time>
        <extensions>
          <ns3:TrackPointExtension>
            <ns3:hr>64</ns3:hr>
            <ns3:cad>0</ns3:cad>
          </ns3:TrackPointExtension>
        </extensions>
      </trkpt>
      <trkpt lat="43.47184720449149608612060546875" lon="1.4320580475032329559326171875">
        <ele>252.8000030517578125</ele>
        <time>2026-08-05T10:34:02.000Z</time>
        <extensions>
          <ns3:TrackPointExtension>
            <ns3:hr>63</ns3:hr>
            <ns3:cad>0</ns3:cad>
          </ns3:TrackPointExtension>
        </extensions>
      </trkpt>
      <trkpt lat="43.47184720449149608612060546875" lon="1.4320580475032329559326171875">
        <ele>252.8000030517578125</ele>
        <time>2026-08-05T10:34:03.000Z</time>
        <extensions>
          <ns3:TrackPointExtension>
            <ns3:hr>64</ns3:hr>
            <ns3:cad>0</ns3:cad>
          </ns3:TrackPointExtension>
        </extensions>
      </trkpt>
      <trkpt lat="43.47184720449149608612060546875" lon="1.4320580475032329559326171875">
        <ele>252.8000030517578125</ele>
        <time>2026-08-05T10:34:04.000Z</time>
        <extensions>
          <ns3:TrackPointExtension>
            <ns3:hr>64</ns3:hr>
            <ns3:cad>0</ns3:cad>
          </ns3:TrackPointExtension>
        </extensions>
      </trkpt>
      <trkpt lat="43.47184720449149608612060546875" lon="1.4320580475032329559326171875">
        <ele>252.8000030517578125</ele>
        <time>2026-08-05T10:34:05.000Z</time>
        <extensions>
          <ns3:TrackPointExtension>
            <ns3:hr>64</ns3:hr>
            <ns3:cad>0</ns3:cad>
          </ns3:TrackPointExtension>
        </extensions>
      </trkpt>
      <trkpt lat="43.47184720449149608612060546875" lon="1.4320580475032329559326171875">
        <ele>252.8000030517578125</ele>
        <time>2026-08-05T10:34:06.000Z</time>
        <extensions>
          <ns3:TrackPointExtension>
            <ns3:hr>63</ns3:hr>
            <ns3:cad>0</ns3:cad>
          </ns3:TrackPointExtension>
        </extensions>
      </trkpt>
      <trkpt lat="43.47184720449149608612060546875" lon="1.4320580475032329559326171875">
        <ele>252.600006103515625</ele>
        <time>2026-08-05T10:34:07.000Z</time>
        <extensions>
          <ns3:TrackPointExtension>
            <ns3:hr>63</ns3:hr>
            <ns3:cad>0</ns3:cad>
          </ns3:TrackPointExtension>
        </extensions>
      </trkpt>
      <trkpt lat="43.47184720449149608612060546875" lon="1.4320580475032329559326171875">
        <ele>252.600006103515625</ele>
        <time>2026-08-05T10:34:08.000Z</time>
        <extensions>
          <ns3:TrackPointExtension>
            <ns3:hr>63</ns3:hr>
            <ns3:cad>0</ns3:cad>
          </ns3:TrackPointExtension>
        </extensions>
      </trkpt>
      <trkpt lat="43.47184720449149608612060546875" lon="1.4320580475032329559326171875">
        <ele>252.600006103515625</ele>
        <time>2026-08-05T10:34:09.000Z</time>
        <extensions>
          <ns3:TrackPointExtension>
            <ns3:hr>63</ns3:hr>
            <ns3:cad>0</ns3:cad>
          </ns3:TrackPointExtension>
        </extensions>
      </trkpt>
      <trkpt lat="43.47184720449149608612060546875" lon="1.4320580475032329559326171875">
        <ele>252.600006103515625</ele>
        <time>2026-08-05T10:34:10.000Z</time>
        <extensions>
          <ns3:TrackPointExtension>
            <ns3:hr>62</ns3:hr>
            <ns3:cad>0</ns3:cad>
          </ns3:TrackPointExtension>
        </extensions>
      </trkpt>
      <trkpt lat="43.47184720449149608612060546875" lon="1.4320580475032329559326171875">
        <ele>252.600006103515625</ele>
        <time>2026-08-05T10:34:11.000Z</time>
        <extensions>
          <ns3:TrackPointExtension>
            <ns3:hr>62</ns3:hr>
            <ns3:cad>0</ns3:cad>
          </ns3:TrackPointExtension>
        </extensions>
      </trkpt>
      <trkpt lat="43.47184720449149608612060546875" lon="1.4320580475032329559326171875">
        <ele>252.600006103515625</ele>
        <time>2026-08-05T10:34:12.000Z</time>
        <extensions>
          <ns3:TrackPointExtension>
            <ns3:hr>61</ns3:hr>
            <ns3:cad>0</ns3:cad>
          </ns3:TrackPointExtension>
        </extensions>
      </trkpt>
      <trkpt lat="43.47184720449149608612060546875" lon="1.4320580475032329559326171875">
        <ele>252.600006103515625</ele>
        <time>2026-08-05T10:34:13.000Z</time>
        <extensions>
          <ns3:TrackPointExtension>
            <ns3:hr>61</ns3:hr>
            <ns3:cad>0</ns3:cad>
          </ns3:TrackPointExtension>
        </extensions>
      </trkpt>
      <trkpt lat="43.47184720449149608612060546875" lon="1.4320580475032329559326171875">
        <ele>252.600006103515625</ele>
        <time>2026-08-05T10:34:14.000Z</time>
        <extensions>
          <ns3:TrackPointExtension>
            <ns3:hr>61</ns3:hr>
            <ns3:cad>0</ns3:cad>
          </ns3:TrackPointExtension>
        </extensions>
      </trkpt>
      <trkpt lat="43.47184720449149608612060546875" lon="1.4320580475032329559326171875">
        <ele>252.600006103515625</ele>
        <time>2026-08-05T10:34:15.000Z</time>
        <extensions>
          <ns3:TrackPointExtension>
            <ns3:hr>61</ns3:hr>
            <ns3:cad>0</ns3:cad>
          </ns3:TrackPointExtension>
        </extensions>
      </trkpt>
      <trkpt lat="43.47184720449149608612060546875" lon="1.4320580475032329559326171875">
        <ele>252.600006103515625</ele>
        <time>2026-08-05T10:34:16.000Z</time>
        <extensions>
          <ns3:TrackPointExtension>
            <ns3:hr>61</ns3:hr>
            <ns3:cad>0</ns3:cad>
          </ns3:TrackPointExtension>
        </extensions>
      </trkpt>
      <trkpt lat="43.47184720449149608612060546875" lon="1.4320580475032329559326171875">
        <ele>252.600006103515625</ele>
        <time>2026-08-05T10:34:17.000Z</time>
        <extensions>
          <ns3:TrackPointExtension>
            <ns3:hr>61</ns3:hr>
            <ns3:cad>0</ns3:cad>
          </ns3:TrackPointExtension>
        </extensions>
      </trkpt>
      <trkpt lat="43.47184720449149608612060546875" lon="1.4320580475032329559326171875">
        <ele>252.600006103515625</ele>
        <time>2026-08-05T10:34:18.000Z</time>
        <extensions>
          <ns3:TrackPointExtension>
            <ns3:hr>62</ns3:hr>
            <ns3:cad>0</ns3:cad>
          </ns3:TrackPointExtension>
        </extensions>
      </trkpt>
      <trkpt lat="43.47184720449149608612060546875" lon="1.4320580475032329559326171875">
        <ele>252.399993896484375</ele>
        <time>2026-08-05T10:34:19.000Z</time>
        <extensions>
          <ns3:TrackPointExtension>
            <ns3:hr>62</ns3:hr>
            <ns3:cad>0</ns3:cad>
          </ns3:TrackPointExtension>
        </extensions>
      </trkpt>
      <trkpt lat="43.47184720449149608612060546875" lon="1.4320580475032329559326171875">
        <ele>252.399993896484375</ele>
        <time>2026-08-05T10:34:20.000Z</time>
        <extensions>
          <ns3:TrackPointExtension>
            <ns3:hr>63</ns3:hr>
            <ns3:cad>0</ns3:cad>
          </ns3:TrackPointExtension>
        </extensions>
      </trkpt>
      <trkpt lat="43.47184720449149608612060546875" lon="1.4320580475032329559326171875">
        <ele>252.399993896484375</ele>
        <time>2026-08-05T10:34:21.000Z</time>
        <extensions>
          <ns3:TrackPointExtension>
            <ns3:hr>63</ns3:hr>
            <ns3:cad>0</ns3:cad>
          </ns3:TrackPointExtension>
        </extensions>
      </trkpt>
      <trkpt lat="43.47184720449149608612060546875" lon="1.4320580475032329559326171875">
        <ele>252.399993896484375</ele>
        <time>2026-08-05T10:34:22.000Z</time>
        <extensions>
          <ns3:TrackPointExtension>
            <ns3:hr>63</ns3:hr>
            <ns3:cad>0</ns3:cad>
          </ns3:TrackPointExtension>
        </extensions>
      </trkpt>
      <trkpt lat="43.47184720449149608612060546875" lon="1.4320580475032329559326171875">
        <ele>252.399993896484375</ele>
        <time>2026-08-05T10:34:23.000Z</time>
        <extensions>
          <ns3:TrackPointExtension>
            <ns3:hr>63</ns3:hr>
            <ns3:cad>0</ns3:cad>
          </ns3:TrackPointExtension>
        </extensions>
      </trkpt>
      <trkpt lat="43.47184720449149608612060546875" lon="1.4320580475032329559326171875">
        <ele>252.399993896484375</ele>
        <time>2026-08-05T10:34:24.000Z</time>
        <extensions>
          <ns3:TrackPointExtension>
            <ns3:hr>62</ns3:hr>
            <ns3:cad>0</ns3:cad>
          </ns3:TrackPointExtension>
        </extensions>
      </trkpt>
      <trkpt lat="43.47184720449149608612060546875" lon="1.4320580475032329559326171875">
        <ele>252.399993896484375</ele>
        <time>2026-08-05T10:34:25.000Z</time>
        <extensions>
          <ns3:TrackPointExtension>
            <ns3:hr>62</ns3:hr>
            <ns3:cad>0</ns3:cad>
          </ns3:TrackPointExtension>
        </extensions>
      </trkpt>
      <trkpt lat="43.47184720449149608612060546875" lon="1.4320580475032329559326171875">
        <ele>252.399993896484375</ele>
        <time>2026-08-05T10:34:26.000Z</time>
        <extensions>
          <ns3:TrackPointExtension>
            <ns3:hr>62</ns3:hr>
            <ns3:cad>0</ns3:cad>
          </ns3:TrackPointExtension>
        </extensions>
      </trkpt>
      <trkpt lat="43.47184720449149608612060546875" lon="1.4320580475032329559326171875">
        <ele>252.600006103515625</ele>
        <time>2026-08-05T10:34:27.000Z</time>
        <extensions>
          <ns3:TrackPointExtension>
            <ns3:hr>61</ns3:hr>
            <ns3:cad>0</ns3:cad>
          </ns3:TrackPointExtension>
        </extensions>
      </trkpt>
      <trkpt lat="43.47184720449149608612060546875" lon="1.4320580475032329559326171875">
        <ele>252.600006103515625</ele>
        <time>2026-08-05T10:34:28.000Z</time>
        <extensions>
          <ns3:TrackPointExtension>
            <ns3:hr>61</ns3:hr>
            <ns3:cad>0</ns3:cad>
          </ns3:TrackPointExtension>
        </extensions>
      </trkpt>
      <trkpt lat="43.47184720449149608612060546875" lon="1.4320580475032329559326171875">
        <ele>252.600006103515625</ele>
        <time>2026-08-05T10:34:29.000Z</time>
        <extensions>
          <ns3:TrackPointExtension>
            <ns3:hr>60</ns3:hr>
            <ns3:cad>0</ns3:cad>
          </ns3:TrackPointExtension>
        </extensions>
      </trkpt>
      <trkpt lat="43.47184720449149608612060546875" lon="1.4320580475032329559326171875">
        <ele>252.600006103515625</ele>
        <time>2026-08-05T10:34:30.000Z</time>
        <extensions>
          <ns3:TrackPointExtension>
            <ns3:hr>61</ns3:hr>
            <ns3:cad>0</ns3:cad>
          </ns3:TrackPointExtension>
        </extensions>
      </trkpt>
      <trkpt lat="43.47184720449149608612060546875" lon="1.4320580475032329559326171875">
        <ele>252.600006103515625</ele>
        <time>2026-08-05T10:34:31.000Z</time>
        <extensions>
          <ns3:TrackPointExtension>
            <ns3:hr>62</ns3:hr>
            <ns3:cad>0</ns3:cad>
          </ns3:TrackPointExtension>
        </extensions>
      </trkpt>
      <trkpt lat="43.47184720449149608612060546875" lon="1.4320580475032329559326171875">
        <ele>252.600006103515625</ele>
        <time>2026-08-05T10:34:32.000Z</time>
        <extensions>
          <ns3:TrackPointExtension>
            <ns3:hr>62</ns3:hr>
            <ns3:cad>0</ns3:cad>
          </ns3:TrackPointExtension>
        </extensions>
      </trkpt>
      <trkpt lat="43.47184720449149608612060546875" lon="1.4320580475032329559326171875">
        <ele>252.600006103515625</ele>
        <time>2026-08-05T10:34:33.000Z</time>
        <extensions>
          <ns3:TrackPointExtension>
            <ns3:hr>63</ns3:hr>
            <ns3:cad>0</ns3:cad>
          </ns3:TrackPointExtension>
        </extensions>
      </trkpt>
      <trkpt lat="43.47184720449149608612060546875" lon="1.4320580475032329559326171875">
        <ele>252.399993896484375</ele>
        <time>2026-08-05T10:34:34.000Z</time>
        <extensions>
          <ns3:TrackPointExtension>
            <ns3:hr>63</ns3:hr>
            <ns3:cad>0</ns3:cad>
          </ns3:TrackPointExtension>
        </extensions>
      </trkpt>
      <trkpt lat="43.47184720449149608612060546875" lon="1.4320580475032329559326171875">
        <ele>252.600006103515625</ele>
        <time>2026-08-05T10:34:35.000Z</time>
        <extensions>
          <ns3:TrackPointExtension>
            <ns3:hr>63</ns3:hr>
            <ns3:cad>0</ns3:cad>
          </ns3:TrackPointExtension>
        </extensions>
      </trkpt>
      <trkpt lat="43.47184720449149608612060546875" lon="1.4320580475032329559326171875">
        <ele>252.600006103515625</ele>
        <time>2026-08-05T10:34:36.000Z</time>
        <extensions>
          <ns3:TrackPointExtension>
            <ns3:hr>63</ns3:hr>
            <ns3:cad>0</ns3:cad>
          </ns3:TrackPointExtension>
        </extensions>
      </trkpt>
      <trkpt lat="43.47184720449149608612060546875" lon="1.4320580475032329559326171875">
        <ele>252.600006103515625</ele>
        <time>2026-08-05T10:34:37.000Z</time>
        <extensions>
          <ns3:TrackPointExtension>
            <ns3:hr>63</ns3:hr>
            <ns3:cad>0</ns3:cad>
          </ns3:TrackPointExtension>
        </extensions>
      </trkpt>
      <trkpt lat="43.47184720449149608612060546875" lon="1.4320580475032329559326171875">
        <ele>252.600006103515625</ele>
        <time>2026-08-05T10:34:38.000Z</time>
        <extensions>
          <ns3:TrackPointExtension>
            <ns3:hr>62</ns3:hr>
            <ns3:cad>0</ns3:cad>
          </ns3:TrackPointExtension>
        </extensions>
      </trkpt>
      <trkpt lat="43.47184720449149608612060546875" lon="1.4320580475032329559326171875">
        <ele>252.600006103515625</ele>
        <time>2026-08-05T10:34:39.000Z</time>
        <extensions>
          <ns3:TrackPointExtension>
            <ns3:hr>60</ns3:hr>
            <ns3:cad>0</ns3:cad>
          </ns3:TrackPointExtension>
        </extensions>
      </trkpt>
      <trkpt lat="43.47184720449149608612060546875" lon="1.4320580475032329559326171875">
        <ele>252.600006103515625</ele>
        <time>2026-08-05T10:34:40.000Z</time>
        <extensions>
          <ns3:TrackPointExtension>
            <ns3:hr>58</ns3:hr>
            <ns3:cad>0</ns3:cad>
          </ns3:TrackPointExtension>
        </extensions>
      </trkpt>
      <trkpt lat="43.47184720449149608612060546875" lon="1.4320580475032329559326171875">
        <ele>252.600006103515625</ele>
        <time>2026-08-05T10:34:41.000Z</time>
        <extensions>
          <ns3:TrackPointExtension>
            <ns3:hr>58</ns3:hr>
            <ns3:cad>0</ns3:cad>
          </ns3:TrackPointExtension>
        </extensions>
      </trkpt>
      <trkpt lat="43.47184720449149608612060546875" lon="1.4320580475032329559326171875">
        <ele>252.600006103515625</ele>
        <time>2026-08-05T10:34:42.000Z</time>
        <extensions>
          <ns3:TrackPointExtension>
            <ns3:hr>57</ns3:hr>
            <ns3:cad>0</ns3:cad>
          </ns3:TrackPointExtension>
        </extensions>
      </trkpt>
      <trkpt lat="43.47184720449149608612060546875" lon="1.4320580475032329559326171875">
        <ele>252.600006103515625</ele>
        <time>2026-08-05T10:34:43.000Z</time>
        <extensions>
          <ns3:TrackPointExtension>
            <ns3:hr>57</ns3:hr>
            <ns3:cad>0</ns3:cad>
          </ns3:TrackPointExtension>
        </extensions>
      </trkpt>
      <trkpt lat="43.47184720449149608612060546875" lon="1.4320580475032329559326171875">
        <ele>252.600006103515625</ele>
        <time>2026-08-05T10:34:44.000Z</time>
        <extensions>
          <ns3:TrackPointExtension>
            <ns3:hr>57</ns3:hr>
            <ns3:cad>0</ns3:cad>
          </ns3:TrackPointExtension>
        </extensions>
      </trkpt>
      <trkpt lat="43.47184720449149608612060546875" lon="1.4320580475032329559326171875">
        <ele>252.399993896484375</ele>
        <time>2026-08-05T10:34:45.000Z</time>
        <extensions>
          <ns3:TrackPointExtension>
            <ns3:hr>57</ns3:hr>
            <ns3:cad>0</ns3:cad>
          </ns3:TrackPointExtension>
        </extensions>
      </trkpt>
      <trkpt lat="43.47184720449149608612060546875" lon="1.4320580475032329559326171875">
        <ele>252.399993896484375</ele>
        <time>2026-08-05T10:34:46.000Z</time>
        <extensions>
          <ns3:TrackPointExtension>
            <ns3:hr>56</ns3:hr>
            <ns3:cad>0</ns3:cad>
          </ns3:TrackPointExtension>
        </extensions>
      </trkpt>
      <trkpt lat="43.47184720449149608612060546875" lon="1.4320580475032329559326171875">
        <ele>252.399993896484375</ele>
        <time>2026-08-05T10:34:47.000Z</time>
        <extensions>
          <ns3:TrackPointExtension>
            <ns3:hr>56</ns3:hr>
            <ns3:cad>0</ns3:cad>
          </ns3:TrackPointExtension>
        </extensions>
      </trkpt>
      <trkpt lat="43.47184720449149608612060546875" lon="1.4320580475032329559326171875">
        <ele>252.399993896484375</ele>
        <time>2026-08-05T10:34:48.000Z</time>
        <extensions>
          <ns3:TrackPointExtension>
            <ns3:hr>57</ns3:hr>
            <ns3:cad>0</ns3:cad>
          </ns3:TrackPointExtension>
        </extensions>
      </trkpt>
      <trkpt lat="43.47184720449149608612060546875" lon="1.4320580475032329559326171875">
        <ele>252.399993896484375</ele>
        <time>2026-08-05T10:34:49.000Z</time>
        <extensions>
          <ns3:TrackPointExtension>
            <ns3:hr>58</ns3:hr>
            <ns3:cad>0</ns3:cad>
          </ns3:TrackPointExtension>
        </extensions>
      </trkpt>
      <trkpt lat="43.47184720449149608612060546875" lon="1.4320580475032329559326171875">
        <ele>252.399993896484375</ele>
        <time>2026-08-05T10:34:50.000Z</time>
        <extensions>
          <ns3:TrackPointExtension>
            <ns3:hr>58</ns3:hr>
            <ns3:cad>0</ns3:cad>
          </ns3:TrackPointExtension>
        </extensions>
      </trkpt>
      <trkpt lat="43.47184720449149608612060546875" lon="1.4320580475032329559326171875">
        <ele>252.1999969482421875</ele>
        <time>2026-08-05T10:34:51.000Z</time>
        <extensions>
          <ns3:TrackPointExtension>
            <ns3:hr>58</ns3:hr>
            <ns3:cad>0</ns3:cad>
          </ns3:TrackPointExtension>
        </extensions>
      </trkpt>
      <trkpt lat="43.47184720449149608612060546875" lon="1.4320580475032329559326171875">
        <ele>252.1999969482421875</ele>
        <time>2026-08-05T10:34:52.000Z</time>
        <extensions>
          <ns3:TrackPointExtension>
            <ns3:hr>59</ns3:hr>
            <ns3:cad>0</ns3:cad>
          </ns3:TrackPointExtension>
        </extensions>
      </trkpt>
      <trkpt lat="43.47184720449149608612060546875" lon="1.4320580475032329559326171875">
        <ele>252.1999969482421875</ele>
        <time>2026-08-05T10:34:53.000Z</time>
        <extensions>
          <ns3:TrackPointExtension>
            <ns3:hr>59</ns3:hr>
            <ns3:cad>0</ns3:cad>
          </ns3:TrackPointExtension>
        </extensions>
      </trkpt>
      <trkpt lat="43.47184720449149608612060546875" lon="1.4320580475032329559326171875">
        <ele>252</ele>
        <time>2026-08-05T10:34:54.000Z</time>
        <extensions>
          <ns3:TrackPointExtension>
            <ns3:hr>59</ns3:hr>
            <ns3:cad>0</ns3:cad>
          </ns3:TrackPointExtension>
        </extensions>
      </trkpt>
      <trkpt lat="43.47184720449149608612060546875" lon="1.4320580475032329559326171875">
        <ele>252</ele>
        <time>2026-08-05T10:34:55.000Z</time>
        <extensions>
          <ns3:TrackPointExtension>
            <ns3:hr>59</ns3:hr>
            <ns3:cad>0</ns3:cad>
          </ns3:TrackPointExtension>
        </extensions>
      </trkpt>
      <trkpt lat="43.47184720449149608612060546875" lon="1.4320580475032329559326171875">
        <ele>252</ele>
        <time>2026-08-05T10:34:56.000Z</time>
        <extensions>
          <ns3:TrackPointExtension>
            <ns3:hr>59</ns3:hr>
            <ns3:cad>0</ns3:cad>
          </ns3:TrackPointExtension>
        </extensions>
      </trkpt>
      <trkpt lat="43.47184720449149608612060546875" lon="1.4320580475032329559326171875">
        <ele>252</ele>
        <time>2026-08-05T10:34:57.000Z</time>
        <extensions>
          <ns3:TrackPointExtension>
            <ns3:hr>59</ns3:hr>
            <ns3:cad>0</ns3:cad>
          </ns3:TrackPointExtension>
        </extensions>
      </trkpt>
      <trkpt lat="43.47184720449149608612060546875" lon="1.4320580475032329559326171875">
        <ele>252</ele>
        <time>2026-08-05T10:34:58.000Z</time>
        <extensions>
          <ns3:TrackPointExtension>
            <ns3:hr>59</ns3:hr>
            <ns3:cad>0</ns3:cad>
          </ns3:TrackPointExtension>
        </extensions>
      </trkpt>
      <trkpt lat="43.47184720449149608612060546875" lon="1.4320580475032329559326171875">
        <ele>252</ele>
        <time>2026-08-05T10:34:59.000Z</time>
        <extensions>
          <ns3:TrackPointExtension>
            <ns3:hr>59</ns3:hr>
            <ns3:cad>0</ns3:cad>
          </ns3:TrackPointExtension>
        </extensions>
      </trkpt>
      <trkpt lat="43.47184720449149608612060546875" lon="1.4320580475032329559326171875">
        <ele>252</ele>
        <time>2026-08-05T10:35:00.000Z</time>
        <extensions>
          <ns3:TrackPointExtension>
            <ns3:hr>59</ns3:hr>
            <ns3:cad>0</ns3:cad>
          </ns3:TrackPointExtension>
        </extensions>
      </trkpt>
      <trkpt lat="43.47184720449149608612060546875" lon="1.4320580475032329559326171875">
        <ele>252</ele>
        <time>2026-08-05T10:35:01.000Z</time>
        <extensions>
          <ns3:TrackPointExtension>
            <ns3:hr>60</ns3:hr>
            <ns3:cad>0</ns3:cad>
          </ns3:TrackPointExtension>
        </extensions>
      </trkpt>
      <trkpt lat="43.47184720449149608612060546875" lon="1.4320580475032329559326171875">
        <ele>251.8000030517578125</ele>
        <time>2026-08-05T10:35:02.000Z</time>
        <extensions>
          <ns3:TrackPointExtension>
            <ns3:hr>61</ns3:hr>
            <ns3:cad>0</ns3:cad>
          </ns3:TrackPointExtension>
        </extensions>
      </trkpt>
      <trkpt lat="43.47184720449149608612060546875" lon="1.4320580475032329559326171875">
        <ele>251.8000030517578125</ele>
        <time>2026-08-05T10:35:03.000Z</time>
        <extensions>
          <ns3:TrackPointExtension>
            <ns3:hr>61</ns3:hr>
            <ns3:cad>0</ns3:cad>
          </ns3:TrackPointExtension>
        </extensions>
      </trkpt>
      <trkpt lat="43.4718474559485912322998046875" lon="1.43205486238002777099609375">
        <ele>251.8000030517578125</ele>
        <time>2026-08-05T10:35:04.000Z</time>
        <extensions>
          <ns3:TrackPointExtension>
            <ns3:hr>61</ns3:hr>
            <ns3:cad>0</ns3:cad>
          </ns3:TrackPointExtension>
        </extensions>
      </trkpt>
      <trkpt lat="43.47184955142438411712646484375" lon="1.43206559121608734130859375">
        <ele>251.8000030517578125</ele>
        <time>2026-08-05T10:35:05.000Z</time>
        <extensions>
          <ns3:TrackPointExtension>
            <ns3:hr>62</ns3:hr>
            <ns3:cad>0</ns3:cad>
          </ns3:TrackPointExtension>
        </extensions>
      </trkpt>
      <trkpt lat="43.4718511439859867095947265625" lon="1.432065255939960479736328125">
        <ele>252</ele>
        <time>2026-08-05T10:35:06.000Z</time>
        <extensions>
          <ns3:TrackPointExtension>
            <ns3:hr>63</ns3:hr>
            <ns3:cad>0</ns3:cad>
          </ns3:TrackPointExtension>
        </extensions>
      </trkpt>
      <trkpt lat="43.47185106016695499420166015625" lon="1.432065255939960479736328125">
        <ele>252</ele>
        <time>2026-08-05T10:35:07.000Z</time>
        <extensions>
          <ns3:TrackPointExtension>
            <ns3:hr>65</ns3:hr>
            <ns3:cad>0</ns3:cad>
          </ns3:TrackPointExtension>
        </extensions>
      </trkpt>
      <trkpt lat="43.4718504734337329864501953125" lon="1.432065255939960479736328125">
        <ele>252</ele>
        <time>2026-08-05T10:35:08.000Z</time>
        <extensions>
          <ns3:TrackPointExtension>
            <ns3:hr>68</ns3:hr>
            <ns3:cad>0</ns3:cad>
          </ns3:TrackPointExtension>
        </extensions>
      </trkpt>
      <trkpt lat="43.47185022197663784027099609375" lon="1.43206366337835788726806640625">
        <ele>252</ele>
        <time>2026-08-05T10:35:09.000Z</time>
        <extensions>
          <ns3:TrackPointExtension>
            <ns3:hr>70</ns3:hr>
            <ns3:cad>0</ns3:cad>
          </ns3:TrackPointExtension>
        </extensions>
      </trkpt>
      <trkpt lat="43.47184720449149608612060546875" lon="1.4320580475032329559326171875">
        <ele>252</ele>
        <time>2026-08-05T10:35:10.000Z</time>
        <extensions>
          <ns3:TrackPointExtension>
            <ns3:hr>70</ns3:hr>
            <ns3:cad>0</ns3:cad>
          </ns3:TrackPointExtension>
        </extensions>
      </trkpt>
      <trkpt lat="43.47184720449149608612060546875" lon="1.4320580475032329559326171875">
        <ele>252</ele>
        <time>2026-08-05T10:35:11.000Z</time>
        <extensions>
          <ns3:TrackPointExtension>
            <ns3:hr>70</ns3:hr>
            <ns3:cad>0</ns3:cad>
          </ns3:TrackPointExtension>
        </extensions>
      </trkpt>
      <trkpt lat="43.47184720449149608612060546875" lon="1.4320580475032329559326171875">
        <ele>252</ele>
        <time>2026-08-05T10:35:12.000Z</time>
        <extensions>
          <ns3:TrackPointExtension>
            <ns3:hr>71</ns3:hr>
            <ns3:cad>0</ns3:cad>
          </ns3:TrackPointExtension>
        </extensions>
      </trkpt>
      <trkpt lat="43.47184720449149608612060546875" lon="1.4320580475032329559326171875">
        <ele>252</ele>
        <time>2026-08-05T10:35:13.000Z</time>
        <extensions>
          <ns3:TrackPointExtension>
            <ns3:hr>70</ns3:hr>
            <ns3:cad>0</ns3:cad>
          </ns3:TrackPointExtension>
        </extensions>
      </trkpt>
      <trkpt lat="43.47184720449149608612060546875" lon="1.4320580475032329559326171875">
        <ele>252</ele>
        <time>2026-08-05T10:35:14.000Z</time>
        <extensions>
          <ns3:TrackPointExtension>
            <ns3:hr>70</ns3:hr>
            <ns3:cad>0</ns3:cad>
          </ns3:TrackPointExtension>
        </extensions>
      </trkpt>
      <trkpt lat="43.47184720449149608612060546875" lon="1.4320580475032329559326171875">
        <ele>252</ele>
        <time>2026-08-05T10:35:15.000Z</time>
        <extensions>
          <ns3:TrackPointExtension>
            <ns3:hr>69</ns3:hr>
            <ns3:cad>0</ns3:cad>
          </ns3:TrackPointExtension>
        </extensions>
      </trkpt>
      <trkpt lat="43.47184720449149608612060546875" lon="1.4320580475032329559326171875">
        <ele>252</ele>
        <time>2026-08-05T10:35:16.000Z</time>
        <extensions>
          <ns3:TrackPointExtension>
            <ns3:hr>69</ns3:hr>
            <ns3:cad>0</ns3:cad>
          </ns3:TrackPointExtension>
        </extensions>
      </trkpt>
      <trkpt lat="43.47184720449149608612060546875" lon="1.4320580475032329559326171875">
        <ele>252</ele>
        <time>2026-08-05T10:35:17.000Z</time>
        <extensions>
          <ns3:TrackPointExtension>
            <ns3:hr>68</ns3:hr>
            <ns3:cad>0</ns3:cad>
          </ns3:TrackPointExtension>
        </extensions>
      </trkpt>
      <trkpt lat="43.47184720449149608612060546875" lon="1.4320580475032329559326171875">
        <ele>252</ele>
        <time>2026-08-05T10:35:18.000Z</time>
        <extensions>
          <ns3:TrackPointExtension>
            <ns3:hr>67</ns3:hr>
            <ns3:cad>0</ns3:cad>
          </ns3:TrackPointExtension>
        </extensions>
      </trkpt>
      <trkpt lat="43.47184720449149608612060546875" lon="1.4320580475032329559326171875">
        <ele>252</ele>
        <time>2026-08-05T10:35:19.000Z</time>
        <extensions>
          <ns3:TrackPointExtension>
            <ns3:hr>66</ns3:hr>
            <ns3:cad>0</ns3:cad>
          </ns3:TrackPointExtension>
        </extensions>
      </trkpt>
      <trkpt lat="43.47184720449149608612060546875" lon="1.4320580475032329559326171875">
        <ele>252</ele>
        <time>2026-08-05T10:35:20.000Z</time>
        <extensions>
          <ns3:TrackPointExtension>
            <ns3:hr>65</ns3:hr>
            <ns3:cad>0</ns3:cad>
          </ns3:TrackPointExtension>
        </extensions>
      </trkpt>
      <trkpt lat="43.47184720449149608612060546875" lon="1.4320580475032329559326171875">
        <ele>251.8000030517578125</ele>
        <time>2026-08-05T10:35:21.000Z</time>
        <extensions>
          <ns3:TrackPointExtension>
            <ns3:hr>65</ns3:hr>
            <ns3:cad>0</ns3:cad>
          </ns3:TrackPointExtension>
        </extensions>
      </trkpt>
      <trkpt lat="43.47184720449149608612060546875" lon="1.4320580475032329559326171875">
        <ele>251.8000030517578125</ele>
        <time>2026-08-05T10:35:22.000Z</time>
        <extensions>
          <ns3:TrackPointExtension>
            <ns3:hr>65</ns3:hr>
            <ns3:cad>0</ns3:cad>
          </ns3:TrackPointExtension>
        </extensions>
      </trkpt>
      <trkpt lat="43.47184720449149608612060546875" lon="1.4320580475032329559326171875">
        <ele>251.8000030517578125</ele>
        <time>2026-08-05T10:35:23.000Z</time>
        <extensions>
          <ns3:TrackPointExtension>
            <ns3:hr>64</ns3:hr>
            <ns3:cad>0</ns3:cad>
          </ns3:TrackPointExtension>
        </extensions>
      </trkpt>
      <trkpt lat="43.47184720449149608612060546875" lon="1.4320580475032329559326171875">
        <ele>251.8000030517578125</ele>
        <time>2026-08-05T10:35:24.000Z</time>
        <extensions>
          <ns3:TrackPointExtension>
            <ns3:hr>64</ns3:hr>
            <ns3:cad>0</ns3:cad>
          </ns3:TrackPointExtension>
        </extensions>
      </trkpt>
      <trkpt lat="43.47184720449149608612060546875" lon="1.4320580475032329559326171875">
        <ele>251.8000030517578125</ele>
        <time>2026-08-05T10:35:25.000Z</time>
        <extensions>
          <ns3:TrackPointExtension>
            <ns3:hr>63</ns3:hr>
            <ns3:cad>0</ns3:cad>
          </ns3:TrackPointExtension>
        </extensions>
      </trkpt>
      <trkpt lat="43.47184720449149608612060546875" lon="1.4320580475032329559326171875">
        <ele>251.8000030517578125</ele>
        <time>2026-08-05T10:35:26.000Z</time>
        <extensions>
          <ns3:TrackPointExtension>
            <ns3:hr>63</ns3:hr>
            <ns3:cad>0</ns3:cad>
          </ns3:TrackPointExtension>
        </extensions>
      </trkpt>
      <trkpt lat="43.47184720449149608612060546875" lon="1.4320580475032329559326171875">
        <ele>252</ele>
        <time>2026-08-05T10:35:27.000Z</time>
        <extensions>
          <ns3:TrackPointExtension>
            <ns3:hr>62</ns3:hr>
            <ns3:cad>0</ns3:cad>
          </ns3:TrackPointExtension>
        </extensions>
      </trkpt>
      <trkpt lat="43.47184720449149608612060546875" lon="1.4320580475032329559326171875">
        <ele>252</ele>
        <time>2026-08-05T10:35:28.000Z</time>
        <extensions>
          <ns3:TrackPointExtension>
            <ns3:hr>62</ns3:hr>
            <ns3:cad>0</ns3:cad>
          </ns3:TrackPointExtension>
        </extensions>
      </trkpt>
      <trkpt lat="43.47184720449149608612060546875" lon="1.4320580475032329559326171875">
        <ele>252.1999969482421875</ele>
        <time>2026-08-05T10:35:29.000Z</time>
        <extensions>
          <ns3:TrackPointExtension>
            <ns3:hr>63</ns3:hr>
            <ns3:cad>0</ns3:cad>
          </ns3:TrackPointExtension>
        </extensions>
      </trkpt>
      <trkpt lat="43.47184720449149608612060546875" lon="1.4320580475032329559326171875">
        <ele>252.1999969482421875</ele>
        <time>2026-08-05T10:35:30.000Z</time>
        <extensions>
          <ns3:TrackPointExtension>
            <ns3:hr>63</ns3:hr>
            <ns3:cad>0</ns3:cad>
          </ns3:TrackPointExtension>
        </extensions>
      </trkpt>
      <trkpt lat="43.47184720449149608612060546875" lon="1.4320580475032329559326171875">
        <ele>252.1999969482421875</ele>
        <time>2026-08-05T10:35:31.000Z</time>
        <extensions>
          <ns3:TrackPointExtension>
            <ns3:hr>63</ns3:hr>
            <ns3:cad>0</ns3:cad>
          </ns3:TrackPointExtension>
        </extensions>
      </trkpt>
      <trkpt lat="43.47184720449149608612060546875" lon="1.4320580475032329559326171875">
        <ele>252.399993896484375</ele>
        <time>2026-08-05T10:35:32.000Z</time>
        <extensions>
          <ns3:TrackPointExtension>
            <ns3:hr>63</ns3:hr>
            <ns3:cad>0</ns3:cad>
          </ns3:TrackPointExtension>
        </extensions>
      </trkpt>
      <trkpt lat="43.47184720449149608612060546875" lon="1.4320580475032329559326171875">
        <ele>252.399993896484375</ele>
        <time>2026-08-05T10:35:33.000Z</time>
        <extensions>
          <ns3:TrackPointExtension>
            <ns3:hr>64</ns3:hr>
            <ns3:cad>0</ns3:cad>
          </ns3:TrackPointExtension>
        </extensions>
      </trkpt>
      <trkpt lat="43.47184720449149608612060546875" lon="1.4320580475032329559326171875">
        <ele>252.399993896484375</ele>
        <time>2026-08-05T10:35:34.000Z</time>
        <extensions>
          <ns3:TrackPointExtension>
            <ns3:hr>64</ns3:hr>
            <ns3:cad>0</ns3:cad>
          </ns3:TrackPointExtension>
        </extensions>
      </trkpt>
      <trkpt lat="43.47184720449149608612060546875" lon="1.4320580475032329559326171875">
        <ele>252.399993896484375</ele>
        <time>2026-08-05T10:35:35.000Z</time>
        <extensions>
          <ns3:TrackPointExtension>
            <ns3:hr>64</ns3:hr>
            <ns3:cad>0</ns3:cad>
          </ns3:TrackPointExtension>
        </extensions>
      </trkpt>
      <trkpt lat="43.47184720449149608612060546875" lon="1.4320580475032329559326171875">
        <ele>252.399993896484375</ele>
        <time>2026-08-05T10:35:36.000Z</time>
        <extensions>
          <ns3:TrackPointExtension>
            <ns3:hr>63</ns3:hr>
            <ns3:cad>0</ns3:cad>
          </ns3:TrackPointExtension>
        </extensions>
      </trkpt>
      <trkpt lat="43.47184720449149608612060546875" lon="1.4320580475032329559326171875">
        <ele>252.399993896484375</ele>
        <time>2026-08-05T10:35:37.000Z</time>
        <extensions>
          <ns3:TrackPointExtension>
            <ns3:hr>63</ns3:hr>
            <ns3:cad>0</ns3:cad>
          </ns3:TrackPointExtension>
        </extensions>
      </trkpt>
      <trkpt lat="43.47184720449149608612060546875" lon="1.4320580475032329559326171875">
        <ele>252.399993896484375</ele>
        <time>2026-08-05T10:35:38.000Z</time>
        <extensions>
          <ns3:TrackPointExtension>
            <ns3:hr>64</ns3:hr>
            <ns3:cad>0</ns3:cad>
          </ns3:TrackPointExtension>
        </extensions>
      </trkpt>
      <trkpt lat="43.47184720449149608612060546875" lon="1.4320580475032329559326171875">
        <ele>252.1999969482421875</ele>
        <time>2026-08-05T10:35:39.000Z</time>
        <extensions>
          <ns3:TrackPointExtension>
            <ns3:hr>64</ns3:hr>
            <ns3:cad>0</ns3:cad>
          </ns3:TrackPointExtension>
        </extensions>
      </trkpt>
      <trkpt lat="43.47184720449149608612060546875" lon="1.4320580475032329559326171875">
        <ele>252.1999969482421875</ele>
        <time>2026-08-05T10:35:40.000Z</time>
        <extensions>
          <ns3:TrackPointExtension>
            <ns3:hr>64</ns3:hr>
            <ns3:cad>0</ns3:cad>
          </ns3:TrackPointExtension>
        </extensions>
      </trkpt>
      <trkpt lat="43.47184720449149608612060546875" lon="1.4320580475032329559326171875">
        <ele>252.1999969482421875</ele>
        <time>2026-08-05T10:35:41.000Z</time>
        <extensions>
          <ns3:TrackPointExtension>
            <ns3:hr>64</ns3:hr>
            <ns3:cad>0</ns3:cad>
          </ns3:TrackPointExtension>
        </extensions>
      </trkpt>
      <trkpt lat="43.47184720449149608612060546875" lon="1.4320580475032329559326171875">
        <ele>252.1999969482421875</ele>
        <time>2026-08-05T10:35:42.000Z</time>
        <extensions>
          <ns3:TrackPointExtension>
            <ns3:hr>65</ns3:hr>
            <ns3:cad>0</ns3:cad>
          </ns3:TrackPointExtension>
        </extensions>
      </trkpt>
      <trkpt lat="43.47184720449149608612060546875" lon="1.4320580475032329559326171875">
        <ele>252.1999969482421875</ele>
        <time>2026-08-05T10:35:43.000Z</time>
        <extensions>
          <ns3:TrackPointExtension>
            <ns3:hr>64</ns3:hr>
            <ns3:cad>0</ns3:cad>
          </ns3:TrackPointExtension>
        </extensions>
      </trkpt>
      <trkpt lat="43.47184720449149608612060546875" lon="1.4320580475032329559326171875">
        <ele>252.1999969482421875</ele>
        <time>2026-08-05T10:35:44.000Z</time>
        <extensions>
          <ns3:TrackPointExtension>
            <ns3:hr>64</ns3:hr>
            <ns3:cad>0</ns3:cad>
          </ns3:TrackPointExtension>
        </extensions>
      </trkpt>
      <trkpt lat="43.47184720449149608612060546875" lon="1.4320580475032329559326171875">
        <ele>252.399993896484375</ele>
        <time>2026-08-05T10:35:45.000Z</time>
        <extensions>
          <ns3:TrackPointExtension>
            <ns3:hr>62</ns3:hr>
            <ns3:cad>0</ns3:cad>
          </ns3:TrackPointExtension>
        </extensions>
      </trkpt>
      <trkpt lat="43.47184720449149608612060546875" lon="1.4320580475032329559326171875">
        <ele>252.399993896484375</ele>
        <time>2026-08-05T10:35:46.000Z</time>
        <extensions>
          <ns3:TrackPointExtension>
            <ns3:hr>61</ns3:hr>
            <ns3:cad>0</ns3:cad>
          </ns3:TrackPointExtension>
        </extensions>
      </trkpt>
      <trkpt lat="43.47184720449149608612060546875" lon="1.4320580475032329559326171875">
        <ele>252.399993896484375</ele>
        <time>2026-08-05T10:35:47.000Z</time>
        <extensions>
          <ns3:TrackPointExtension>
            <ns3:hr>61</ns3:hr>
            <ns3:cad>0</ns3:cad>
          </ns3:TrackPointExtension>
        </extensions>
      </trkpt>
      <trkpt lat="43.47184720449149608612060546875" lon="1.4320580475032329559326171875">
        <ele>252.399993896484375</ele>
        <time>2026-08-05T10:35:48.000Z</time>
        <extensions>
          <ns3:TrackPointExtension>
            <ns3:hr>60</ns3:hr>
            <ns3:cad>0</ns3:cad>
          </ns3:TrackPointExtension>
        </extensions>
      </trkpt>
      <trkpt lat="43.47184787504374980926513671875" lon="1.432065255939960479736328125">
        <ele>252.399993896484375</ele>
        <time>2026-08-05T10:35:49.000Z</time>
        <extensions>
          <ns3:TrackPointExtension>
            <ns3:hr>58</ns3:hr>
            <ns3:cad>0</ns3:cad>
          </ns3:TrackPointExtension>
        </extensions>
      </trkpt>
      <trkpt lat="43.47184720449149608612060546875" lon="1.4320580475032329559326171875">
        <ele>252.399993896484375</ele>
        <time>2026-08-05T10:35:50.000Z</time>
        <extensions>
          <ns3:TrackPointExtension>
            <ns3:hr>57</ns3:hr>
            <ns3:cad>0</ns3:cad>
          </ns3:TrackPointExtension>
        </extensions>
      </trkpt>
      <trkpt lat="43.47184720449149608612060546875" lon="1.4320580475032329559326171875">
        <ele>252.1999969482421875</ele>
        <time>2026-08-05T10:35:51.000Z</time>
        <extensions>
          <ns3:TrackPointExtension>
            <ns3:hr>56</ns3:hr>
            <ns3:cad>0</ns3:cad>
          </ns3:TrackPointExtension>
        </extensions>
      </trkpt>
      <trkpt lat="43.47184720449149608612060546875" lon="1.4320580475032329559326171875">
        <ele>252.1999969482421875</ele>
        <time>2026-08-05T10:35:52.000Z</time>
        <extensions>
          <ns3:TrackPointExtension>
            <ns3:hr>56</ns3:hr>
            <ns3:cad>0</ns3:cad>
          </ns3:TrackPointExtension>
        </extensions>
      </trkpt>
      <trkpt lat="43.47184720449149608612060546875" lon="1.4320580475032329559326171875">
        <ele>252.1999969482421875</ele>
        <time>2026-08-05T10:35:53.000Z</time>
        <extensions>
          <ns3:TrackPointExtension>
            <ns3:hr>55</ns3:hr>
            <ns3:cad>0</ns3:cad>
          </ns3:TrackPointExtension>
        </extensions>
      </trkpt>
      <trkpt lat="43.47184737212955951690673828125" lon="1.43206265754997730255126953125">
        <ele>252.1999969482421875</ele>
        <time>2026-08-05T10:35:54.000Z</time>
        <extensions>
          <ns3:TrackPointExtension>
            <ns3:hr>55</ns3:hr>
            <ns3:cad>0</ns3:cad>
          </ns3:TrackPointExtension>
        </extensions>
      </trkpt>
      <trkpt lat="43.47184686921536922454833984375" lon="1.43206450156867504119873046875">
        <ele>252.1999969482421875</ele>
        <time>2026-08-05T10:35:55.000Z</time>
        <extensions>
          <ns3:TrackPointExtension>
            <ns3:hr>55</ns3:hr>
            <ns3:cad>0</ns3:cad>
          </ns3:TrackPointExtension>
        </extensions>
      </trkpt>
      <trkpt lat="43.47185005433857440948486328125" lon="1.43206165172159671783447265625">
        <ele>252.399993896484375</ele>
        <time>2026-08-05T10:35:56.000Z</time>
        <extensions>
          <ns3:TrackPointExtension>
            <ns3:hr>55</ns3:hr>
            <ns3:cad>0</ns3:cad>
          </ns3:TrackPointExtension>
        </extensions>
      </trkpt>
      <trkpt lat="43.4718498028814792633056640625" lon="1.43206693232059478759765625">
        <ele>252.399993896484375</ele>
        <time>2026-08-05T10:35:57.000Z</time>
        <extensions>
          <ns3:TrackPointExtension>
            <ns3:hr>55</ns3:hr>
            <ns3:cad>0</ns3:cad>
          </ns3:TrackPointExtension>
        </extensions>
      </trkpt>
      <trkpt lat="43.47184720449149608612060546875" lon="1.4320580475032329559326171875">
        <ele>252.600006103515625</ele>
        <time>2026-08-05T10:35:58.000Z</time>
        <extensions>
          <ns3:TrackPointExtension>
            <ns3:hr>54</ns3:hr>
            <ns3:cad>0</ns3:cad>
          </ns3:TrackPointExtension>
        </extensions>
      </trkpt>
      <trkpt lat="43.47184720449149608612060546875" lon="1.4320580475032329559326171875">
        <ele>252.600006103515625</ele>
        <time>2026-08-05T10:35:59.000Z</time>
        <extensions>
          <ns3:TrackPointExtension>
            <ns3:hr>55</ns3:hr>
            <ns3:cad>0</ns3:cad>
          </ns3:TrackPointExtension>
        </extensions>
      </trkpt>
      <trkpt lat="43.47184720449149608612060546875" lon="1.4320580475032329559326171875">
        <ele>252.600006103515625</ele>
        <time>2026-08-05T10:36:00.000Z</time>
        <extensions>
          <ns3:TrackPointExtension>
            <ns3:hr>55</ns3:hr>
            <ns3:cad>0</ns3:cad>
          </ns3:TrackPointExtension>
        </extensions>
      </trkpt>
      <trkpt lat="43.47184720449149608612060546875" lon="1.4320580475032329559326171875">
        <ele>252.600006103515625</ele>
        <time>2026-08-05T10:36:01.000Z</time>
        <extensions>
          <ns3:TrackPointExtension>
            <ns3:hr>55</ns3:hr>
            <ns3:cad>0</ns3:cad>
          </ns3:TrackPointExtension>
        </extensions>
      </trkpt>
      <trkpt lat="43.47184720449149608612060546875" lon="1.4320580475032329559326171875">
        <ele>252.600006103515625</ele>
        <time>2026-08-05T10:36:02.000Z</time>
        <extensions>
          <ns3:TrackPointExtension>
            <ns3:hr>55</ns3:hr>
            <ns3:cad>0</ns3:cad>
          </ns3:TrackPointExtension>
        </extensions>
      </trkpt>
      <trkpt lat="43.47184720449149608612060546875" lon="1.4320580475032329559326171875">
        <ele>252.600006103515625</ele>
        <time>2026-08-05T10:36:03.000Z</time>
        <extensions>
          <ns3:TrackPointExtension>
            <ns3:hr>55</ns3:hr>
            <ns3:cad>0</ns3:cad>
          </ns3:TrackPointExtension>
        </extensions>
      </trkpt>
      <trkpt lat="43.47184720449149608612060546875" lon="1.4320580475032329559326171875">
        <ele>252.8000030517578125</ele>
        <time>2026-08-05T10:36:04.000Z</time>
        <extensions>
          <ns3:TrackPointExtension>
            <ns3:hr>54</ns3:hr>
            <ns3:cad>0</ns3:cad>
          </ns3:TrackPointExtension>
        </extensions>
      </trkpt>
      <trkpt lat="43.47184720449149608612060546875" lon="1.4320580475032329559326171875">
        <ele>252.8000030517578125</ele>
        <time>2026-08-05T10:36:05.000Z</time>
        <extensions>
          <ns3:TrackPointExtension>
            <ns3:hr>55</ns3:hr>
            <ns3:cad>0</ns3:cad>
          </ns3:TrackPointExtension>
        </extensions>
      </trkpt>
      <trkpt lat="43.47184720449149608612060546875" lon="1.4320580475032329559326171875">
        <ele>252.8000030517578125</ele>
        <time>2026-08-05T10:36:06.000Z</time>
        <extensions>
          <ns3:TrackPointExtension>
            <ns3:hr>55</ns3:hr>
            <ns3:cad>0</ns3:cad>
          </ns3:TrackPointExtension>
        </extensions>
      </trkpt>
      <trkpt lat="43.47184988670051097869873046875" lon="1.4320670999586582183837890625">
        <ele>252.8000030517578125</ele>
        <time>2026-08-05T10:36:07.000Z</time>
        <extensions>
          <ns3:TrackPointExtension>
            <ns3:hr>56</ns3:hr>
            <ns3:cad>0</ns3:cad>
          </ns3:TrackPointExtension>
        </extensions>
      </trkpt>
      <trkpt lat="43.4718528203666210174560546875" lon="1.43206651322543621063232421875">
        <ele>252.8000030517578125</ele>
        <time>2026-08-05T10:36:08.000Z</time>
        <extensions>
          <ns3:TrackPointExtension>
            <ns3:hr>56</ns3:hr>
            <ns3:cad>0</ns3:cad>
          </ns3:TrackPointExtension>
        </extensions>
      </trkpt>
      <trkpt lat="43.47185256890952587127685546875" lon="1.4320670999586582183837890625">
        <ele>252.8000030517578125</ele>
        <time>2026-08-05T10:36:09.000Z</time>
        <extensions>
          <ns3:TrackPointExtension>
            <ns3:hr>56</ns3:hr>
            <ns3:cad>0</ns3:cad>
          </ns3:TrackPointExtension>
        </extensions>
      </trkpt>
      <trkpt lat="43.47185432910919189453125" lon="1.4320681057870388031005859375">
        <ele>252.8000030517578125</ele>
        <time>2026-08-05T10:36:10.000Z</time>
        <extensions>
          <ns3:TrackPointExtension>
            <ns3:hr>55</ns3:hr>
            <ns3:cad>0</ns3:cad>
          </ns3:TrackPointExtension>
        </extensions>
      </trkpt>
      <trkpt lat="43.47185743041336536407470703125" lon="1.4320634119212627410888671875">
        <ele>252.8000030517578125</ele>
        <time>2026-08-05T10:36:11.000Z</time>
        <extensions>
          <ns3:TrackPointExtension>
            <ns3:hr>55</ns3:hr>
            <ns3:cad>0</ns3:cad>
          </ns3:TrackPointExtension>
        </extensions>
      </trkpt>
      <trkpt lat="43.4718615375459194183349609375" lon="1.43206399865448474884033203125">
        <ele>252.8000030517578125</ele>
        <time>2026-08-05T10:36:12.000Z</time>
        <extensions>
          <ns3:TrackPointExtension>
            <ns3:hr>55</ns3:hr>
            <ns3:cad>0</ns3:cad>
          </ns3:TrackPointExtension>
        </extensions>
      </trkpt>
      <trkpt lat="43.47186438739299774169921875" lon="1.4320650883018970489501953125">
        <ele>252.600006103515625</ele>
        <time>2026-08-05T10:36:13.000Z</time>
        <extensions>
          <ns3:TrackPointExtension>
            <ns3:hr>56</ns3:hr>
            <ns3:cad>0</ns3:cad>
          </ns3:TrackPointExtension>
        </extensions>
      </trkpt>
      <trkpt lat="43.47186698578298091888427734375" lon="1.43206047825515270233154296875">
        <ele>252.600006103515625</ele>
        <time>2026-08-05T10:36:14.000Z</time>
        <extensions>
          <ns3:TrackPointExtension>
            <ns3:hr>56</ns3:hr>
            <ns3:cad>0</ns3:cad>
          </ns3:TrackPointExtension>
        </extensions>
      </trkpt>
      <trkpt lat="43.4718717634677886962890625" lon="1.432055868208408355712890625">
        <ele>252.600006103515625</ele>
        <time>2026-08-05T10:36:15.000Z</time>
        <extensions>
          <ns3:TrackPointExtension>
            <ns3:hr>56</ns3:hr>
            <ns3:cad>0</ns3:cad>
          </ns3:TrackPointExtension>
        </extensions>
      </trkpt>
      <trkpt lat="43.471872769296169281005859375" lon="1.43205528147518634796142578125">
        <ele>252.600006103515625</ele>
        <time>2026-08-05T10:36:16.000Z</time>
        <extensions>
          <ns3:TrackPointExtension>
            <ns3:hr>56</ns3:hr>
            <ns3:cad>0</ns3:cad>
          </ns3:TrackPointExtension>
        </extensions>
      </trkpt>
      <trkpt lat="43.471873104572296142578125" lon="1.43205528147518634796142578125">
        <ele>252.600006103515625</ele>
        <time>2026-08-05T10:36:17.000Z</time>
        <extensions>
          <ns3:TrackPointExtension>
            <ns3:hr>56</ns3:hr>
            <ns3:cad>0</ns3:cad>
          </ns3:TrackPointExtension>
        </extensions>
      </trkpt>
      <trkpt lat="43.471873104572296142578125" lon="1.43205528147518634796142578125">
        <ele>252.600006103515625</ele>
        <time>2026-08-05T10:36:18.000Z</time>
        <extensions>
          <ns3:TrackPointExtension>
            <ns3:hr>56</ns3:hr>
            <ns3:cad>0</ns3:cad>
          </ns3:TrackPointExtension>
        </extensions>
      </trkpt>
      <trkpt lat="43.471873104572296142578125" lon="1.43205528147518634796142578125">
        <ele>252.600006103515625</ele>
        <time>2026-08-05T10:36:19.000Z</time>
        <extensions>
          <ns3:TrackPointExtension>
            <ns3:hr>56</ns3:hr>
            <ns3:cad>0</ns3:cad>
          </ns3:TrackPointExtension>
        </extensions>
      </trkpt>
      <trkpt lat="43.471873104572296142578125" lon="1.43205528147518634796142578125">
        <ele>252.8000030517578125</ele>
        <time>2026-08-05T10:36:20.000Z</time>
        <extensions>
          <ns3:TrackPointExtension>
            <ns3:hr>56</ns3:hr>
            <ns3:cad>0</ns3:cad>
          </ns3:TrackPointExtension>
        </extensions>
      </trkpt>
      <trkpt lat="43.471873104572296142578125" lon="1.43205528147518634796142578125">
        <ele>252.8000030517578125</ele>
        <time>2026-08-05T10:36:21.000Z</time>
        <extensions>
          <ns3:TrackPointExtension>
            <ns3:hr>56</ns3:hr>
            <ns3:cad>0</ns3:cad>
          </ns3:TrackPointExtension>
        </extensions>
      </trkpt>
      <trkpt lat="43.471873104572296142578125" lon="1.43205528147518634796142578125">
        <ele>252.600006103515625</ele>
        <time>2026-08-05T10:36:22.000Z</time>
        <extensions>
          <ns3:TrackPointExtension>
            <ns3:hr>56</ns3:hr>
            <ns3:cad>0</ns3:cad>
          </ns3:TrackPointExtension>
        </extensions>
      </trkpt>
      <trkpt lat="43.4718732722103595733642578125" lon="1.43205511383712291717529296875">
        <ele>252.600006103515625</ele>
        <time>2026-08-05T10:36:23.000Z</time>
        <extensions>
          <ns3:TrackPointExtension>
            <ns3:hr>56</ns3:hr>
            <ns3:cad>0</ns3:cad>
          </ns3:TrackPointExtension>
        </extensions>
      </trkpt>
      <trkpt lat="43.4718739427626132965087890625" lon="1.4320593886077404022216796875">
        <ele>252.600006103515625</ele>
        <time>2026-08-05T10:36:24.000Z</time>
        <extensions>
          <ns3:TrackPointExtension>
            <ns3:hr>57</ns3:hr>
            <ns3:cad>0</ns3:cad>
          </ns3:TrackPointExtension>
        </extensions>
      </trkpt>
      <trkpt lat="43.471876792609691619873046875" lon="1.4320593886077404022216796875">
        <ele>252.600006103515625</ele>
        <time>2026-08-05T10:36:25.000Z</time>
        <extensions>
          <ns3:TrackPointExtension>
            <ns3:hr>57</ns3:hr>
            <ns3:cad>0</ns3:cad>
          </ns3:TrackPointExtension>
        </extensions>
      </trkpt>
      <trkpt lat="43.47187922336161136627197265625" lon="1.43205846659839153289794921875">
        <ele>252.600006103515625</ele>
        <time>2026-08-05T10:36:26.000Z</time>
        <extensions>
          <ns3:TrackPointExtension>
            <ns3:hr>57</ns3:hr>
            <ns3:cad>0</ns3:cad>
          </ns3:TrackPointExtension>
        </extensions>
      </trkpt>
      <trkpt lat="43.47188039682805538177490234375" lon="1.43205712549388408660888671875">
        <ele>252.600006103515625</ele>
        <time>2026-08-05T10:36:27.000Z</time>
        <extensions>
          <ns3:TrackPointExtension>
            <ns3:hr>57</ns3:hr>
            <ns3:cad>0</ns3:cad>
          </ns3:TrackPointExtension>
        </extensions>
      </trkpt>
      <trkpt lat="43.4718803130090236663818359375" lon="1.43205829896032810211181640625">
        <ele>252.8000030517578125</ele>
        <time>2026-08-05T10:36:28.000Z</time>
        <extensions>
          <ns3:TrackPointExtension>
            <ns3:hr>58</ns3:hr>
            <ns3:cad>0</ns3:cad>
          </ns3:TrackPointExtension>
        </extensions>
      </trkpt>
      <trkpt lat="43.471880145370960235595703125" lon="1.432063244283199310302734375">
        <ele>252.8000030517578125</ele>
        <time>2026-08-05T10:36:29.000Z</time>
        <extensions>
          <ns3:TrackPointExtension>
            <ns3:hr>59</ns3:hr>
            <ns3:cad>0</ns3:cad>
          </ns3:TrackPointExtension>
        </extensions>
      </trkpt>
      <trkpt lat="43.47187922336161136627197265625" lon="1.43207539804279804229736328125">
        <ele>253</ele>
        <time>2026-08-05T10:36:30.000Z</time>
        <extensions>
          <ns3:TrackPointExtension>
            <ns3:hr>61</ns3:hr>
            <ns3:cad>0</ns3:cad>
          </ns3:TrackPointExtension>
        </extensions>
      </trkpt>
      <trkpt lat="43.471876792609691619873046875" lon="1.4320878870785236358642578125">
        <ele>253</ele>
        <time>2026-08-05T10:36:31.000Z</time>
        <extensions>
          <ns3:TrackPointExtension>
            <ns3:hr>62</ns3:hr>
            <ns3:cad>0</ns3:cad>
          </ns3:TrackPointExtension>
        </extensions>
      </trkpt>
      <trkpt lat="43.47188006155192852020263671875" lon="1.432093419134616851806640625">
        <ele>253</ele>
        <time>2026-08-05T10:36:32.000Z</time>
        <extensions>
          <ns3:TrackPointExtension>
            <ns3:hr>65</ns3:hr>
            <ns3:cad>0</ns3:cad>
          </ns3:TrackPointExtension>
        </extensions>
      </trkpt>
      <trkpt lat="43.47188207320868968963623046875" lon="1.43209635280072689056396484375">
        <ele>253</ele>
        <time>2026-08-05T10:36:33.000Z</time>
        <extensions>
          <ns3:TrackPointExtension>
            <ns3:hr>69</ns3:hr>
            <ns3:cad>0</ns3:cad>
          </ns3:TrackPointExtension>
        </extensions>
      </trkpt>
      <trkpt lat="43.4718836657702922821044921875" lon="1.43209199421107769012451171875">
        <ele>252.8000030517578125</ele>
        <time>2026-08-05T10:36:34.000Z</time>
        <extensions>
          <ns3:TrackPointExtension>
            <ns3:hr>75</ns3:hr>
            <ns3:cad>0</ns3:cad>
          </ns3:TrackPointExtension>
        </extensions>
      </trkpt>
      <trkpt lat="43.471883833408355712890625" lon="1.43209115602076053619384765625">
        <ele>252.600006103515625</ele>
        <time>2026-08-05T10:36:35.000Z</time>
        <extensions>
          <ns3:TrackPointExtension>
            <ns3:hr>82</ns3:hr>
            <ns3:cad>0</ns3:cad>
          </ns3:TrackPointExtension>
        </extensions>
      </trkpt>
      <trkpt lat="43.4718836657702922821044921875" lon="1.4320917427539825439453125">
        <ele>252.600006103515625</ele>
        <time>2026-08-05T10:36:36.000Z</time>
        <extensions>
          <ns3:TrackPointExtension>
            <ns3:hr>85</ns3:hr>
            <ns3:cad>0</ns3:cad>
          </ns3:TrackPointExtension>
        </extensions>
      </trkpt>
      <trkpt lat="43.471883498132228851318359375" lon="1.43209065310657024383544921875">
        <ele>252.399993896484375</ele>
        <time>2026-08-05T10:36:37.000Z</time>
        <extensions>
          <ns3:TrackPointExtension>
            <ns3:hr>85</ns3:hr>
            <ns3:cad>0</ns3:cad>
          </ns3:TrackPointExtension>
        </extensions>
      </trkpt>
      <trkpt lat="43.4718853421509265899658203125" lon="1.43209048546850681304931640625">
        <ele>252.399993896484375</ele>
        <time>2026-08-05T10:36:38.000Z</time>
        <extensions>
          <ns3:TrackPointExtension>
            <ns3:hr>85</ns3:hr>
            <ns3:cad>0</ns3:cad>
          </ns3:TrackPointExtension>
        </extensions>
      </trkpt>
      <trkpt lat="43.47188710235059261322021484375" lon="1.4320935867726802825927734375">
        <ele>252.399993896484375</ele>
        <time>2026-08-05T10:36:39.000Z</time>
        <extensions>
          <ns3:TrackPointExtension>
            <ns3:hr>86</ns3:hr>
            <ns3:cad>0</ns3:cad>
          </ns3:TrackPointExtension>
        </extensions>
      </trkpt>
      <trkpt lat="43.47188743762671947479248046875" lon="1.43209350295364856719970703125">
        <ele>252.399993896484375</ele>
        <time>2026-08-05T10:36:40.000Z</time>
        <extensions>
          <ns3:TrackPointExtension>
            <ns3:hr>85</ns3:hr>
            <ns3:cad>0</ns3:cad>
          </ns3:TrackPointExtension>
        </extensions>
      </trkpt>
      <trkpt lat="43.47188743762671947479248046875" lon="1.43209350295364856719970703125">
        <ele>252.600006103515625</ele>
        <time>2026-08-05T10:36:41.000Z</time>
        <extensions>
          <ns3:TrackPointExtension>
            <ns3:hr>86</ns3:hr>
            <ns3:cad>0</ns3:cad>
          </ns3:TrackPointExtension>
        </extensions>
      </trkpt>
      <trkpt lat="43.47188710235059261322021484375" lon="1.43209383822977542877197265625">
        <ele>252.600006103515625</ele>
        <time>2026-08-05T10:36:42.000Z</time>
        <extensions>
          <ns3:TrackPointExtension>
            <ns3:hr>86</ns3:hr>
            <ns3:cad>0</ns3:cad>
          </ns3:TrackPointExtension>
        </extensions>
      </trkpt>
      <trkpt lat="43.4718883596360683441162109375" lon="1.43209434114396572113037109375">
        <ele>252.8000030517578125</ele>
        <time>2026-08-05T10:36:43.000Z</time>
        <extensions>
          <ns3:TrackPointExtension>
            <ns3:hr>86</ns3:hr>
            <ns3:cad>0</ns3:cad>
          </ns3:TrackPointExtension>
        </extensions>
      </trkpt>
      <trkpt lat="43.47188844345510005950927734375" lon="1.43209216184914112091064453125">
        <ele>252.8000030517578125</ele>
        <time>2026-08-05T10:36:44.000Z</time>
        <extensions>
          <ns3:TrackPointExtension>
            <ns3:hr>86</ns3:hr>
            <ns3:cad>0</ns3:cad>
          </ns3:TrackPointExtension>
        </extensions>
      </trkpt>
      <trkpt lat="43.47188844345510005950927734375" lon="1.43209467642009258270263671875">
        <ele>253</ele>
        <time>2026-08-05T10:36:45.000Z</time>
        <extensions>
          <ns3:TrackPointExtension>
            <ns3:hr>86</ns3:hr>
            <ns3:cad>0</ns3:cad>
          </ns3:TrackPointExtension>
        </extensions>
      </trkpt>
      <trkpt lat="43.471889197826385498046875" lon="1.4321009628474712371826171875">
        <ele>253</ele>
        <time>2026-08-05T10:36:46.000Z</time>
        <extensions>
          <ns3:TrackPointExtension>
            <ns3:hr>86</ns3:hr>
            <ns3:cad>0</ns3:cad>
          </ns3:TrackPointExtension>
        </extensions>
      </trkpt>
      <trkpt lat="43.471891544759273529052734375" lon="1.43210607580840587615966796875">
        <ele>253</ele>
        <time>2026-08-05T10:36:47.000Z</time>
        <extensions>
          <ns3:TrackPointExtension>
            <ns3:hr>86</ns3:hr>
            <ns3:cad>0</ns3:cad>
          </ns3:TrackPointExtension>
        </extensions>
      </trkpt>
      <trkpt lat="43.4718940593302249908447265625" lon="1.4321076683700084686279296875">
        <ele>253.1999969482421875</ele>
        <time>2026-08-05T10:36:48.000Z</time>
        <extensions>
          <ns3:TrackPointExtension>
            <ns3:hr>86</ns3:hr>
            <ns3:cad>0</ns3:cad>
          </ns3:TrackPointExtension>
        </extensions>
      </trkpt>
      <trkpt lat="43.47189682535827159881591796875" lon="1.43210339359939098358154296875">
        <ele>253.1999969482421875</ele>
        <time>2026-08-05T10:36:49.000Z</time>
        <extensions>
          <ns3:TrackPointExtension>
            <ns3:hr>86</ns3:hr>
            <ns3:cad>0</ns3:cad>
          </ns3:TrackPointExtension>
        </extensions>
      </trkpt>
      <trkpt lat="43.47189724445343017578125" lon="1.43210087902843952178955078125">
        <ele>253</ele>
        <time>2026-08-05T10:36:50.000Z</time>
        <extensions>
          <ns3:TrackPointExtension>
            <ns3:hr>86</ns3:hr>
            <ns3:cad>0</ns3:cad>
          </ns3:TrackPointExtension>
        </extensions>
      </trkpt>
      <trkpt lat="43.47190051339566707611083984375" lon="1.43210222013294696807861328125">
        <ele>253</ele>
        <time>2026-08-05T10:36:51.000Z</time>
        <extensions>
          <ns3:TrackPointExtension>
            <ns3:hr>85</ns3:hr>
            <ns3:cad>0</ns3:cad>
          </ns3:TrackPointExtension>
        </extensions>
      </trkpt>
      <trkpt lat="43.47190034575760364532470703125" lon="1.43210372887551784515380859375">
        <ele>253</ele>
        <time>2026-08-05T10:36:52.000Z</time>
        <extensions>
          <ns3:TrackPointExtension>
            <ns3:hr>85</ns3:hr>
            <ns3:cad>0</ns3:cad>
          </ns3:TrackPointExtension>
        </extensions>
      </trkpt>
      <trkpt lat="43.4718990884721279144287109375" lon="1.4321039803326129913330078125">
        <ele>252.8000030517578125</ele>
        <time>2026-08-05T10:36:53.000Z</time>
        <extensions>
          <ns3:TrackPointExtension>
            <ns3:hr>85</ns3:hr>
            <ns3:cad>0</ns3:cad>
          </ns3:TrackPointExtension>
        </extensions>
      </trkpt>
      <trkpt lat="43.47189783118665218353271484375" lon="1.43210456706583499908447265625">
        <ele>252.8000030517578125</ele>
        <time>2026-08-05T10:36:54.000Z</time>
        <extensions>
          <ns3:TrackPointExtension>
            <ns3:hr>86</ns3:hr>
            <ns3:cad>0</ns3:cad>
          </ns3:TrackPointExtension>
        </extensions>
      </trkpt>
      <trkpt lat="43.47189380787312984466552734375" lon="1.43210456706583499908447265625">
        <ele>252.600006103515625</ele>
        <time>2026-08-05T10:36:55.000Z</time>
        <extensions>
          <ns3:TrackPointExtension>
            <ns3:hr>85</ns3:hr>
            <ns3:cad>0</ns3:cad>
          </ns3:TrackPointExtension>
        </extensions>
      </trkpt>
      <trkpt lat="43.47188743762671947479248046875" lon="1.43209350295364856719970703125">
        <ele>252.600006103515625</ele>
        <time>2026-08-05T10:36:56.000Z</time>
        <extensions>
          <ns3:TrackPointExtension>
            <ns3:hr>85</ns3:hr>
            <ns3:cad>0</ns3:cad>
          </ns3:TrackPointExtension>
        </extensions>
      </trkpt>
      <trkpt lat="43.47188743762671947479248046875" lon="1.43209350295364856719970703125">
        <ele>252.8000030517578125</ele>
        <time>2026-08-05T10:36:57.000Z</time>
        <extensions>
          <ns3:TrackPointExtension>
            <ns3:hr>85</ns3:hr>
            <ns3:cad>0</ns3:cad>
          </ns3:TrackPointExtension>
        </extensions>
      </trkpt>
      <trkpt lat="43.47188743762671947479248046875" lon="1.43209350295364856719970703125">
        <ele>252.8000030517578125</ele>
        <time>2026-08-05T10:36:58.000Z</time>
        <extensions>
          <ns3:TrackPointExtension>
            <ns3:hr>84</ns3:hr>
            <ns3:cad>0</ns3:cad>
          </ns3:TrackPointExtension>
        </extensions>
      </trkpt>
      <trkpt lat="43.47188743762671947479248046875" lon="1.43209350295364856719970703125">
        <ele>253</ele>
        <time>2026-08-05T10:36:59.000Z</time>
        <extensions>
          <ns3:TrackPointExtension>
            <ns3:hr>84</ns3:hr>
            <ns3:cad>0</ns3:cad>
          </ns3:TrackPointExtension>
        </extensions>
      </trkpt>
      <trkpt lat="43.47188743762671947479248046875" lon="1.43209350295364856719970703125">
        <ele>253.1999969482421875</ele>
        <time>2026-08-05T10:37:00.000Z</time>
        <extensions>
          <ns3:TrackPointExtension>
            <ns3:hr>85</ns3:hr>
            <ns3:cad>0</ns3:cad>
          </ns3:TrackPointExtension>
        </extensions>
      </trkpt>
      <trkpt lat="43.47188743762671947479248046875" lon="1.43209350295364856719970703125">
        <ele>253.1999969482421875</ele>
        <time>2026-08-05T10:37:01.000Z</time>
        <extensions>
          <ns3:TrackPointExtension>
            <ns3:hr>85</ns3:hr>
            <ns3:cad>0</ns3:cad>
          </ns3:TrackPointExtension>
        </extensions>
      </trkpt>
      <trkpt lat="43.47188743762671947479248046875" lon="1.43209350295364856719970703125">
        <ele>253.1999969482421875</ele>
        <time>2026-08-05T10:37:02.000Z</time>
        <extensions>
          <ns3:TrackPointExtension>
            <ns3:hr>85</ns3:hr>
            <ns3:cad>0</ns3:cad>
          </ns3:TrackPointExtension>
        </extensions>
      </trkpt>
      <trkpt lat="43.47188743762671947479248046875" lon="1.43209350295364856719970703125">
        <ele>253.1999969482421875</ele>
        <time>2026-08-05T10:37:03.000Z</time>
        <extensions>
          <ns3:TrackPointExtension>
            <ns3:hr>85</ns3:hr>
            <ns3:cad>0</ns3:cad>
          </ns3:TrackPointExtension>
        </extensions>
      </trkpt>
      <trkpt lat="43.47188743762671947479248046875" lon="1.43209350295364856719970703125">
        <ele>253.1999969482421875</ele>
        <time>2026-08-05T10:37:04.000Z</time>
        <extensions>
          <ns3:TrackPointExtension>
            <ns3:hr>85</ns3:hr>
            <ns3:cad>0</ns3:cad>
          </ns3:TrackPointExtension>
        </extensions>
      </trkpt>
      <trkpt lat="43.47188743762671947479248046875" lon="1.43209350295364856719970703125">
        <ele>253</ele>
        <time>2026-08-05T10:37:05.000Z</time>
        <extensions>
          <ns3:TrackPointExtension>
            <ns3:hr>85</ns3:hr>
            <ns3:cad>0</ns3:cad>
          </ns3:TrackPointExtension>
        </extensions>
      </trkpt>
      <trkpt lat="43.47188743762671947479248046875" lon="1.43209350295364856719970703125">
        <ele>253</ele>
        <time>2026-08-05T10:37:06.000Z</time>
        <extensions>
          <ns3:TrackPointExtension>
            <ns3:hr>84</ns3:hr>
            <ns3:cad>0</ns3:cad>
          </ns3:TrackPointExtension>
        </extensions>
      </trkpt>
      <trkpt lat="43.47188743762671947479248046875" lon="1.43209350295364856719970703125">
        <ele>252.8000030517578125</ele>
        <time>2026-08-05T10:37:07.000Z</time>
        <extensions>
          <ns3:TrackPointExtension>
            <ns3:hr>82</ns3:hr>
            <ns3:cad>0</ns3:cad>
          </ns3:TrackPointExtension>
        </extensions>
      </trkpt>
      <trkpt lat="43.47188743762671947479248046875" lon="1.43209350295364856719970703125">
        <ele>252.8000030517578125</ele>
        <time>2026-08-05T10:37:08.000Z</time>
        <extensions>
          <ns3:TrackPointExtension>
            <ns3:hr>80</ns3:hr>
            <ns3:cad>0</ns3:cad>
          </ns3:TrackPointExtension>
        </extensions>
      </trkpt>
      <trkpt lat="43.47188743762671947479248046875" lon="1.43209350295364856719970703125">
        <ele>252.600006103515625</ele>
        <time>2026-08-05T10:37:09.000Z</time>
        <extensions>
          <ns3:TrackPointExtension>
            <ns3:hr>78</ns3:hr>
            <ns3:cad>0</ns3:cad>
          </ns3:TrackPointExtension>
        </extensions>
      </trkpt>
      <trkpt lat="43.47188743762671947479248046875" lon="1.43209350295364856719970703125">
        <ele>252.600006103515625</ele>
        <time>2026-08-05T10:37:10.000Z</time>
        <extensions>
          <ns3:TrackPointExtension>
            <ns3:hr>77</ns3:hr>
            <ns3:cad>0</ns3:cad>
          </ns3:TrackPointExtension>
        </extensions>
      </trkpt>
      <trkpt lat="43.471889533102512359619140625" lon="1.432104818522930145263671875">
        <ele>252.600006103515625</ele>
        <time>2026-08-05T10:37:11.000Z</time>
        <extensions>
          <ns3:TrackPointExtension>
            <ns3:hr>75</ns3:hr>
            <ns3:cad>0</ns3:cad>
          </ns3:TrackPointExtension>
        </extensions>
      </trkpt>
      <trkpt lat="43.47188190557062625885009765625" lon="1.4321130327880382537841796875">
        <ele>252.8000030517578125</ele>
        <time>2026-08-05T10:37:12.000Z</time>
        <extensions>
          <ns3:TrackPointExtension>
            <ns3:hr>75</ns3:hr>
            <ns3:cad>0</ns3:cad>
          </ns3:TrackPointExtension>
        </extensions>
      </trkpt>
      <trkpt lat="43.47187100909650325775146484375" lon="1.43212501890957355499267578125">
        <ele>253</ele>
        <time>2026-08-05T10:37:13.000Z</time>
        <extensions>
          <ns3:TrackPointExtension>
            <ns3:hr>75</ns3:hr>
            <ns3:cad>0</ns3:cad>
          </ns3:TrackPointExtension>
        </extensions>
      </trkpt>
      <trkpt lat="43.47186438739299774169921875" lon="1.43213021568953990936279296875">
        <ele>253</ele>
        <time>2026-08-05T10:37:14.000Z</time>
        <extensions>
          <ns3:TrackPointExtension>
            <ns3:hr>75</ns3:hr>
            <ns3:cad>0</ns3:cad>
          </ns3:TrackPointExtension>
        </extensions>
      </trkpt>
      <trkpt lat="43.4718588553369045257568359375" lon="1.43213205970823764801025390625">
        <ele>253.1999969482421875</ele>
        <time>2026-08-05T10:37:15.000Z</time>
        <extensions>
          <ns3:TrackPointExtension>
            <ns3:hr>74</ns3:hr>
            <ns3:cad>0</ns3:cad>
          </ns3:TrackPointExtension>
        </extensions>
      </trkpt>
      <trkpt lat="43.471853323280811309814453125" lon="1.432134322822093963623046875">
        <ele>253.1999969482421875</ele>
        <time>2026-08-05T10:37:16.000Z</time>
        <extensions>
          <ns3:TrackPointExtension>
            <ns3:hr>74</ns3:hr>
            <ns3:cad>0</ns3:cad>
          </ns3:TrackPointExtension>
        </extensions>
      </trkpt>
      <trkpt lat="43.47185340709984302520751953125" lon="1.432138346135616302490234375">
        <ele>253</ele>
        <time>2026-08-05T10:37:17.000Z</time>
        <extensions>
          <ns3:TrackPointExtension>
            <ns3:hr>74</ns3:hr>
            <ns3:cad>0</ns3:cad>
          </ns3:TrackPointExtension>
        </extensions>
      </trkpt>
      <trkpt lat="43.47185424529016017913818359375" lon="1.43213675357401371002197265625">
        <ele>253</ele>
        <time>2026-08-05T10:37:18.000Z</time>
        <extensions>
          <ns3:TrackPointExtension>
            <ns3:hr>74</ns3:hr>
            <ns3:cad>0</ns3:cad>
          </ns3:TrackPointExtension>
        </extensions>
      </trkpt>
      <trkpt lat="43.47185122780501842498779296875" lon="1.4321398548781871795654296875">
        <ele>253</ele>
        <time>2026-08-05T10:37:19.000Z</time>
        <extensions>
          <ns3:TrackPointExtension>
            <ns3:hr>74</ns3:hr>
            <ns3:cad>0</ns3:cad>
          </ns3:TrackPointExtension>
        </extensions>
      </trkpt>
      <trkpt lat="43.47185273654758930206298828125" lon="1.432137675583362579345703125">
        <ele>252.8000030517578125</ele>
        <time>2026-08-05T10:37:20.000Z</time>
        <extensions>
          <ns3:TrackPointExtension>
            <ns3:hr>74</ns3:hr>
            <ns3:cad>0</ns3:cad>
          </ns3:TrackPointExtension>
        </extensions>
      </trkpt>
      <trkpt lat="43.471851982176303863525390625" lon="1.4321378432214260101318359375">
        <ele>252.8000030517578125</ele>
        <time>2026-08-05T10:37:21.000Z</time>
        <extensions>
          <ns3:TrackPointExtension>
            <ns3:hr>75</ns3:hr>
            <ns3:cad>0</ns3:cad>
          </ns3:TrackPointExtension>
        </extensions>
      </trkpt>
      <trkpt lat="43.47184837795794010162353515625" lon="1.43214329145848751068115234375">
        <ele>252.8000030517578125</ele>
        <time>2026-08-05T10:37:22.000Z</time>
        <extensions>
          <ns3:TrackPointExtension>
            <ns3:hr>75</ns3:hr>
            <ns3:cad>0</ns3:cad>
          </ns3:TrackPointExtension>
        </extensions>
      </trkpt>
      <trkpt lat="43.4718491323292255401611328125" lon="1.4321401901543140411376953125">
        <ele>252.8000030517578125</ele>
        <time>2026-08-05T10:37:23.000Z</time>
        <extensions>
          <ns3:TrackPointExtension>
            <ns3:hr>75</ns3:hr>
            <ns3:cad>0</ns3:cad>
          </ns3:TrackPointExtension>
        </extensions>
      </trkpt>
      <trkpt lat="43.47184871323406696319580078125" lon="1.4321448840200901031494140625">
        <ele>252.8000030517578125</ele>
        <time>2026-08-05T10:37:24.000Z</time>
        <extensions>
          <ns3:TrackPointExtension>
            <ns3:hr>78</ns3:hr>
            <ns3:cad>0</ns3:cad>
          </ns3:TrackPointExtension>
        </extensions>
      </trkpt>
      <trkpt lat="43.4718476235866546630859375" lon="1.43214664421975612640380859375">
        <ele>252.8000030517578125</ele>
        <time>2026-08-05T10:37:25.000Z</time>
        <extensions>
          <ns3:TrackPointExtension>
            <ns3:hr>79</ns3:hr>
            <ns3:cad>0</ns3:cad>
          </ns3:TrackPointExtension>
        </extensions>
      </trkpt>
      <trkpt lat="43.4718476235866546630859375" lon="1.4321465604007244110107421875">
        <ele>252.8000030517578125</ele>
        <time>2026-08-05T10:37:26.000Z</time>
        <extensions>
          <ns3:TrackPointExtension>
            <ns3:hr>80</ns3:hr>
            <ns3:cad>0</ns3:cad>
          </ns3:TrackPointExtension>
        </extensions>
      </trkpt>
      <trkpt lat="43.4718476235866546630859375" lon="1.4321465604007244110107421875">
        <ele>252.8000030517578125</ele>
        <time>2026-08-05T10:37:27.000Z</time>
        <extensions>
          <ns3:TrackPointExtension>
            <ns3:hr>80</ns3:hr>
            <ns3:cad>0</ns3:cad>
          </ns3:TrackPointExtension>
        </extensions>
      </trkpt>
      <trkpt lat="43.4718477912247180938720703125" lon="1.432146728038787841796875">
        <ele>252.8000030517578125</ele>
        <time>2026-08-05T10:37:28.000Z</time>
        <extensions>
          <ns3:TrackPointExtension>
            <ns3:hr>80</ns3:hr>
            <ns3:cad>0</ns3:cad>
          </ns3:TrackPointExtension>
        </extensions>
      </trkpt>
      <trkpt lat="43.47185231745243072509765625" lon="1.432149745523929595947265625">
        <ele>252.8000030517578125</ele>
        <time>2026-08-05T10:37:29.000Z</time>
        <extensions>
          <ns3:TrackPointExtension>
            <ns3:hr>80</ns3:hr>
            <ns3:cad>0</ns3:cad>
          </ns3:TrackPointExtension>
        </extensions>
      </trkpt>
      <trkpt lat="43.4718476235866546630859375" lon="1.4321465604007244110107421875">
        <ele>252.8000030517578125</ele>
        <time>2026-08-05T10:37:30.000Z</time>
        <extensions>
          <ns3:TrackPointExtension>
            <ns3:hr>79</ns3:hr>
            <ns3:cad>0</ns3:cad>
          </ns3:TrackPointExtension>
        </extensions>
      </trkpt>
      <trkpt lat="43.4718476235866546630859375" lon="1.4321465604007244110107421875">
        <ele>252.8000030517578125</ele>
        <time>2026-08-05T10:37:31.000Z</time>
        <extensions>
          <ns3:TrackPointExtension>
            <ns3:hr>79</ns3:hr>
            <ns3:cad>0</ns3:cad>
          </ns3:TrackPointExtension>
        </extensions>
      </trkpt>
      <trkpt lat="43.4718476235866546630859375" lon="1.4321465604007244110107421875">
        <ele>252.8000030517578125</ele>
        <time>2026-08-05T10:37:32.000Z</time>
        <extensions>
          <ns3:TrackPointExtension>
            <ns3:hr>79</ns3:hr>
            <ns3:cad>0</ns3:cad>
          </ns3:TrackPointExtension>
        </extensions>
      </trkpt>
      <trkpt lat="43.4718476235866546630859375" lon="1.4321465604007244110107421875">
        <ele>253</ele>
        <time>2026-08-05T10:37:33.000Z</time>
        <extensions>
          <ns3:TrackPointExtension>
            <ns3:hr>78</ns3:hr>
            <ns3:cad>0</ns3:cad>
          </ns3:TrackPointExtension>
        </extensions>
      </trkpt>
      <trkpt lat="43.47185256890952587127685546875" lon="1.43214739859104156494140625">
        <ele>253</ele>
        <time>2026-08-05T10:37:34.000Z</time>
        <extensions>
          <ns3:TrackPointExtension>
            <ns3:hr>78</ns3:hr>
            <ns3:cad>0</ns3:cad>
          </ns3:TrackPointExtension>
        </extensions>
      </trkpt>
      <trkpt lat="43.4718476235866546630859375" lon="1.4321465604007244110107421875">
        <ele>253</ele>
        <time>2026-08-05T10:37:35.000Z</time>
        <extensions>
          <ns3:TrackPointExtension>
            <ns3:hr>79</ns3:hr>
            <ns3:cad>0</ns3:cad>
          </ns3:TrackPointExtension>
        </extensions>
      </trkpt>
      <trkpt lat="43.4718476235866546630859375" lon="1.4321465604007244110107421875">
        <ele>253</ele>
        <time>2026-08-05T10:37:36.000Z</time>
        <extensions>
          <ns3:TrackPointExtension>
            <ns3:hr>79</ns3:hr>
            <ns3:cad>0</ns3:cad>
          </ns3:TrackPointExtension>
        </extensions>
      </trkpt>
      <trkpt lat="43.47185189835727214813232421875" lon="1.43214312382042407989501953125">
        <ele>253</ele>
        <time>2026-08-05T10:37:37.000Z</time>
        <extensions>
          <ns3:TrackPointExtension>
            <ns3:hr>80</ns3:hr>
            <ns3:cad>0</ns3:cad>
          </ns3:TrackPointExtension>
        </extensions>
      </trkpt>
      <trkpt lat="43.47185189835727214813232421875" lon="1.43213306553661823272705078125">
        <ele>253</ele>
        <time>2026-08-05T10:37:38.000Z</time>
        <extensions>
          <ns3:TrackPointExtension>
            <ns3:hr>80</ns3:hr>
            <ns3:cad>0</ns3:cad>
          </ns3:TrackPointExtension>
        </extensions>
      </trkpt>
      <trkpt lat="43.47185441292822360992431640625" lon="1.43212233670055866241455078125">
        <ele>253</ele>
        <time>2026-08-05T10:37:39.000Z</time>
        <extensions>
          <ns3:TrackPointExtension>
            <ns3:hr>80</ns3:hr>
            <ns3:cad>0</ns3:cad>
          </ns3:TrackPointExtension>
        </extensions>
      </trkpt>
      <trkpt lat="43.47185474820435047149658203125" lon="1.43211730755865573883056640625">
        <ele>253</ele>
        <time>2026-08-05T10:37:40.000Z</time>
        <extensions>
          <ns3:TrackPointExtension>
            <ns3:hr>81</ns3:hr>
            <ns3:cad>0</ns3:cad>
          </ns3:TrackPointExtension>
        </extensions>
      </trkpt>
      <trkpt lat="43.47185474820435047149658203125" lon="1.4321172237396240234375">
        <ele>253</ele>
        <time>2026-08-05T10:37:41.000Z</time>
        <extensions>
          <ns3:TrackPointExtension>
            <ns3:hr>81</ns3:hr>
            <ns3:cad>0</ns3:cad>
          </ns3:TrackPointExtension>
        </extensions>
      </trkpt>
      <trkpt lat="43.47185474820435047149658203125" lon="1.4321172237396240234375">
        <ele>252.8000030517578125</ele>
        <time>2026-08-05T10:37:42.000Z</time>
        <extensions>
          <ns3:TrackPointExtension>
            <ns3:hr>81</ns3:hr>
            <ns3:cad>0</ns3:cad>
          </ns3:TrackPointExtension>
        </extensions>
      </trkpt>
      <trkpt lat="43.47185474820435047149658203125" lon="1.4321172237396240234375">
        <ele>252.8000030517578125</ele>
        <time>2026-08-05T10:37:43.000Z</time>
        <extensions>
          <ns3:TrackPointExtension>
            <ns3:hr>82</ns3:hr>
            <ns3:cad>0</ns3:cad>
          </ns3:TrackPointExtension>
        </extensions>
      </trkpt>
      <trkpt lat="43.47185474820435047149658203125" lon="1.4321172237396240234375">
        <ele>252.8000030517578125</ele>
        <time>2026-08-05T10:37:44.000Z</time>
        <extensions>
          <ns3:TrackPointExtension>
            <ns3:hr>82</ns3:hr>
            <ns3:cad>0</ns3:cad>
          </ns3:TrackPointExtension>
        </extensions>
      </trkpt>
      <trkpt lat="43.4718548320233821868896484375" lon="1.4321167208254337310791015625">
        <ele>252.8000030517578125</ele>
        <time>2026-08-05T10:37:45.000Z</time>
        <extensions>
          <ns3:TrackPointExtension>
            <ns3:hr>82</ns3:hr>
            <ns3:cad>0</ns3:cad>
          </ns3:TrackPointExtension>
        </extensions>
      </trkpt>
      <trkpt lat="43.47185499966144561767578125" lon="1.43210791982710361480712890625">
        <ele>252.600006103515625</ele>
        <time>2026-08-05T10:37:46.000Z</time>
        <extensions>
          <ns3:TrackPointExtension>
            <ns3:hr>82</ns3:hr>
            <ns3:cad>0</ns3:cad>
          </ns3:TrackPointExtension>
        </extensions>
      </trkpt>
      <trkpt lat="43.47185634076595306396484375" lon="1.43209383822977542877197265625">
        <ele>252.600006103515625</ele>
        <time>2026-08-05T10:37:47.000Z</time>
        <extensions>
          <ns3:TrackPointExtension>
            <ns3:hr>81</ns3:hr>
            <ns3:cad>0</ns3:cad>
          </ns3:TrackPointExtension>
        </extensions>
      </trkpt>
      <trkpt lat="43.47185273654758930206298828125" lon="1.43208394758403301239013671875">
        <ele>252.8000030517578125</ele>
        <time>2026-08-05T10:37:48.000Z</time>
        <extensions>
          <ns3:TrackPointExtension>
            <ns3:hr>82</ns3:hr>
            <ns3:cad>0</ns3:cad>
          </ns3:TrackPointExtension>
        </extensions>
      </trkpt>
      <trkpt lat="43.47185097634792327880859375" lon="1.4320758171379566192626953125">
        <ele>252.8000030517578125</ele>
        <time>2026-08-05T10:37:49.000Z</time>
        <extensions>
          <ns3:TrackPointExtension>
            <ns3:hr>81</ns3:hr>
            <ns3:cad>0</ns3:cad>
          </ns3:TrackPointExtension>
        </extensions>
      </trkpt>
      <trkpt lat="43.47184829413890838623046875" lon="1.432064585387706756591796875">
        <ele>252.8000030517578125</ele>
        <time>2026-08-05T10:37:50.000Z</time>
        <extensions>
          <ns3:TrackPointExtension>
            <ns3:hr>81</ns3:hr>
            <ns3:cad>0</ns3:cad>
          </ns3:TrackPointExtension>
        </extensions>
      </trkpt>
      <trkpt lat="43.47184854559600353240966796875" lon="1.432060897350311279296875">
        <ele>252.8000030517578125</ele>
        <time>2026-08-05T10:37:51.000Z</time>
        <extensions>
          <ns3:TrackPointExtension>
            <ns3:hr>81</ns3:hr>
            <ns3:cad>0</ns3:cad>
          </ns3:TrackPointExtension>
        </extensions>
      </trkpt>
      <trkpt lat="43.47185005433857440948486328125" lon="1.43206299282610416412353515625">
        <ele>253</ele>
        <time>2026-08-05T10:37:52.000Z</time>
        <extensions>
          <ns3:TrackPointExtension>
            <ns3:hr>81</ns3:hr>
            <ns3:cad>0</ns3:cad>
          </ns3:TrackPointExtension>
        </extensions>
      </trkpt>
      <trkpt lat="43.47185005433857440948486328125" lon="1.43206290900707244873046875">
        <ele>253</ele>
        <time>2026-08-05T10:37:53.000Z</time>
        <extensions>
          <ns3:TrackPointExtension>
            <ns3:hr>81</ns3:hr>
            <ns3:cad>0</ns3:cad>
          </ns3:TrackPointExtension>
        </extensions>
      </trkpt>
      <trkpt lat="43.47185005433857440948486328125" lon="1.43206290900707244873046875">
        <ele>253</ele>
        <time>2026-08-05T10:37:54.000Z</time>
        <extensions>
          <ns3:TrackPointExtension>
            <ns3:hr>81</ns3:hr>
            <ns3:cad>0</ns3:cad>
          </ns3:TrackPointExtension>
        </extensions>
      </trkpt>
      <trkpt lat="43.47185005433857440948486328125" lon="1.43206290900707244873046875">
        <ele>253</ele>
        <time>2026-08-05T10:37:55.000Z</time>
        <extensions>
          <ns3:TrackPointExtension>
            <ns3:hr>82</ns3:hr>
            <ns3:cad>0</ns3:cad>
          </ns3:TrackPointExtension>
        </extensions>
      </trkpt>
      <trkpt lat="43.47185005433857440948486328125" lon="1.43206290900707244873046875">
        <ele>253</ele>
        <time>2026-08-05T10:37:56.000Z</time>
        <extensions>
          <ns3:TrackPointExtension>
            <ns3:hr>81</ns3:hr>
            <ns3:cad>0</ns3:cad>
          </ns3:TrackPointExtension>
        </extensions>
      </trkpt>
      <trkpt lat="43.47185005433857440948486328125" lon="1.43206290900707244873046875">
        <ele>253</ele>
        <time>2026-08-05T10:37:57.000Z</time>
        <extensions>
          <ns3:TrackPointExtension>
            <ns3:hr>81</ns3:hr>
            <ns3:cad>0</ns3:cad>
          </ns3:TrackPointExtension>
        </extensions>
      </trkpt>
      <trkpt lat="43.47185005433857440948486328125" lon="1.43206290900707244873046875">
        <ele>253</ele>
        <time>2026-08-05T10:37:58.000Z</time>
        <extensions>
          <ns3:TrackPointExtension>
            <ns3:hr>81</ns3:hr>
            <ns3:cad>0</ns3:cad>
          </ns3:TrackPointExtension>
        </extensions>
      </trkpt>
      <trkpt lat="43.47185005433857440948486328125" lon="1.43206290900707244873046875">
        <ele>253</ele>
        <time>2026-08-05T10:37:59.000Z</time>
        <extensions>
          <ns3:TrackPointExtension>
            <ns3:hr>80</ns3:hr>
            <ns3:cad>0</ns3:cad>
          </ns3:TrackPointExtension>
        </extensions>
      </trkpt>
      <trkpt lat="43.47185005433857440948486328125" lon="1.43206290900707244873046875">
        <ele>253.1999969482421875</ele>
        <time>2026-08-05T10:38:00.000Z</time>
        <extensions>
          <ns3:TrackPointExtension>
            <ns3:hr>80</ns3:hr>
            <ns3:cad>0</ns3:cad>
          </ns3:TrackPointExtension>
        </extensions>
      </trkpt>
      <trkpt lat="43.47185005433857440948486328125" lon="1.43206290900707244873046875">
        <ele>253.1999969482421875</ele>
        <time>2026-08-05T10:38:01.000Z</time>
        <extensions>
          <ns3:TrackPointExtension>
            <ns3:hr>79</ns3:hr>
            <ns3:cad>0</ns3:cad>
          </ns3:TrackPointExtension>
        </extensions>
      </trkpt>
      <trkpt lat="43.47185005433857440948486328125" lon="1.43206290900707244873046875">
        <ele>253.1999969482421875</ele>
        <time>2026-08-05T10:38:02.000Z</time>
        <extensions>
          <ns3:TrackPointExtension>
            <ns3:hr>79</ns3:hr>
            <ns3:cad>0</ns3:cad>
          </ns3:TrackPointExtension>
        </extensions>
      </trkpt>
      <trkpt lat="43.47185005433857440948486328125" lon="1.43206290900707244873046875">
        <ele>253.1999969482421875</ele>
        <time>2026-08-05T10:38:03.000Z</time>
        <extensions>
          <ns3:TrackPointExtension>
            <ns3:hr>78</ns3:hr>
            <ns3:cad>0</ns3:cad>
          </ns3:TrackPointExtension>
        </extensions>
      </trkpt>
      <trkpt lat="43.47185005433857440948486328125" lon="1.43206290900707244873046875">
        <ele>253.1999969482421875</ele>
        <time>2026-08-05T10:38:04.000Z</time>
        <extensions>
          <ns3:TrackPointExtension>
            <ns3:hr>78</ns3:hr>
            <ns3:cad>0</ns3:cad>
          </ns3:TrackPointExtension>
        </extensions>
      </trkpt>
      <trkpt lat="43.47185005433857440948486328125" lon="1.43206290900707244873046875">
        <ele>253.1999969482421875</ele>
        <time>2026-08-05T10:38:05.000Z</time>
        <extensions>
          <ns3:TrackPointExtension>
            <ns3:hr>79</ns3:hr>
            <ns3:cad>0</ns3:cad>
          </ns3:TrackPointExtension>
        </extensions>
      </trkpt>
      <trkpt lat="43.47185005433857440948486328125" lon="1.43206290900707244873046875">
        <ele>253.1999969482421875</ele>
        <time>2026-08-05T10:38:06.000Z</time>
        <extensions>
          <ns3:TrackPointExtension>
            <ns3:hr>79</ns3:hr>
            <ns3:cad>0</ns3:cad>
          </ns3:TrackPointExtension>
        </extensions>
      </trkpt>
      <trkpt lat="43.47185005433857440948486328125" lon="1.43206290900707244873046875">
        <ele>253.1999969482421875</ele>
        <time>2026-08-05T10:38:07.000Z</time>
        <extensions>
          <ns3:TrackPointExtension>
            <ns3:hr>79</ns3:hr>
            <ns3:cad>0</ns3:cad>
          </ns3:TrackPointExtension>
        </extensions>
      </trkpt>
      <trkpt lat="43.47185005433857440948486328125" lon="1.43206290900707244873046875">
        <ele>253.1999969482421875</ele>
        <time>2026-08-05T10:38:08.000Z</time>
        <extensions>
          <ns3:TrackPointExtension>
            <ns3:hr>80</ns3:hr>
            <ns3:cad>0</ns3:cad>
          </ns3:TrackPointExtension>
        </extensions>
      </trkpt>
      <trkpt lat="43.47185005433857440948486328125" lon="1.43206290900707244873046875">
        <ele>253.1999969482421875</ele>
        <time>2026-08-05T10:38:09.000Z</time>
        <extensions>
          <ns3:TrackPointExtension>
            <ns3:hr>80</ns3:hr>
            <ns3:cad>0</ns3:cad>
          </ns3:TrackPointExtension>
        </extensions>
      </trkpt>
      <trkpt lat="43.47185005433857440948486328125" lon="1.43206290900707244873046875">
        <ele>253.1999969482421875</ele>
        <time>2026-08-05T10:38:10.000Z</time>
        <extensions>
          <ns3:TrackPointExtension>
            <ns3:hr>80</ns3:hr>
            <ns3:cad>0</ns3:cad>
          </ns3:TrackPointExtension>
        </extensions>
      </trkpt>
      <trkpt lat="43.47185005433857440948486328125" lon="1.43206290900707244873046875">
        <ele>253.1999969482421875</ele>
        <time>2026-08-05T10:38:11.000Z</time>
        <extensions>
          <ns3:TrackPointExtension>
            <ns3:hr>81</ns3:hr>
            <ns3:cad>0</ns3:cad>
          </ns3:TrackPointExtension>
        </extensions>
      </trkpt>
      <trkpt lat="43.47185005433857440948486328125" lon="1.43206290900707244873046875">
        <ele>253.399993896484375</ele>
        <time>2026-08-05T10:38:12.000Z</time>
        <extensions>
          <ns3:TrackPointExtension>
            <ns3:hr>80</ns3:hr>
            <ns3:cad>0</ns3:cad>
          </ns3:TrackPointExtension>
        </extensions>
      </trkpt>
      <trkpt lat="43.47185005433857440948486328125" lon="1.43206290900707244873046875">
        <ele>253.399993896484375</ele>
        <time>2026-08-05T10:38:13.000Z</time>
        <extensions>
          <ns3:TrackPointExtension>
            <ns3:hr>80</ns3:hr>
            <ns3:cad>0</ns3:cad>
          </ns3:TrackPointExtension>
        </extensions>
      </trkpt>
      <trkpt lat="43.47185005433857440948486328125" lon="1.43206290900707244873046875">
        <ele>253.399993896484375</ele>
        <time>2026-08-05T10:38:14.000Z</time>
        <extensions>
          <ns3:TrackPointExtension>
            <ns3:hr>80</ns3:hr>
            <ns3:cad>0</ns3:cad>
          </ns3:TrackPointExtension>
        </extensions>
      </trkpt>
      <trkpt lat="43.47185005433857440948486328125" lon="1.43206290900707244873046875">
        <ele>253.399993896484375</ele>
        <time>2026-08-05T10:38:15.000Z</time>
        <extensions>
          <ns3:TrackPointExtension>
            <ns3:hr>79</ns3:hr>
            <ns3:cad>0</ns3:cad>
          </ns3:TrackPointExtension>
        </extensions>
      </trkpt>
      <trkpt lat="43.47185005433857440948486328125" lon="1.43206290900707244873046875">
        <ele>253.399993896484375</ele>
        <time>2026-08-05T10:38:16.000Z</time>
        <extensions>
          <ns3:TrackPointExtension>
            <ns3:hr>79</ns3:hr>
            <ns3:cad>0</ns3:cad>
          </ns3:TrackPointExtension>
        </extensions>
      </trkpt>
      <trkpt lat="43.47185005433857440948486328125" lon="1.43206290900707244873046875">
        <ele>253.399993896484375</ele>
        <time>2026-08-05T10:38:17.000Z</time>
        <extensions>
          <ns3:TrackPointExtension>
            <ns3:hr>79</ns3:hr>
            <ns3:cad>0</ns3:cad>
          </ns3:TrackPointExtension>
        </extensions>
      </trkpt>
      <trkpt lat="43.47185005433857440948486328125" lon="1.43206290900707244873046875">
        <ele>253.399993896484375</ele>
        <time>2026-08-05T10:38:18.000Z</time>
        <extensions>
          <ns3:TrackPointExtension>
            <ns3:hr>80</ns3:hr>
            <ns3:cad>0</ns3:cad>
          </ns3:TrackPointExtension>
        </extensions>
      </trkpt>
      <trkpt lat="43.47185005433857440948486328125" lon="1.43206290900707244873046875">
        <ele>253.399993896484375</ele>
        <time>2026-08-05T10:38:19.000Z</time>
        <extensions>
          <ns3:TrackPointExtension>
            <ns3:hr>80</ns3:hr>
            <ns3:cad>0</ns3:cad>
          </ns3:TrackPointExtension>
        </extensions>
      </trkpt>
      <trkpt lat="43.47185005433857440948486328125" lon="1.43206290900707244873046875">
        <ele>253.1999969482421875</ele>
        <time>2026-08-05T10:38:20.000Z</time>
        <extensions>
          <ns3:TrackPointExtension>
            <ns3:hr>79</ns3:hr>
            <ns3:cad>0</ns3:cad>
          </ns3:TrackPointExtension>
        </extensions>
      </trkpt>
      <trkpt lat="43.47185005433857440948486328125" lon="1.43206290900707244873046875">
        <ele>253.399993896484375</ele>
        <time>2026-08-05T10:38:21.000Z</time>
        <extensions>
          <ns3:TrackPointExtension>
            <ns3:hr>78</ns3:hr>
            <ns3:cad>0</ns3:cad>
          </ns3:TrackPointExtension>
        </extensions>
      </trkpt>
      <trkpt lat="43.47185005433857440948486328125" lon="1.43206290900707244873046875">
        <ele>253.399993896484375</ele>
        <time>2026-08-05T10:38:22.000Z</time>
        <extensions>
          <ns3:TrackPointExtension>
            <ns3:hr>78</ns3:hr>
            <ns3:cad>0</ns3:cad>
          </ns3:TrackPointExtension>
        </extensions>
      </trkpt>
      <trkpt lat="43.47185005433857440948486328125" lon="1.43206290900707244873046875">
        <ele>253.399993896484375</ele>
        <time>2026-08-05T10:38:23.000Z</time>
        <extensions>
          <ns3:TrackPointExtension>
            <ns3:hr>76</ns3:hr>
            <ns3:cad>0</ns3:cad>
          </ns3:TrackPointExtension>
        </extensions>
      </trkpt>
      <trkpt lat="43.47185005433857440948486328125" lon="1.43206290900707244873046875">
        <ele>253.399993896484375</ele>
        <time>2026-08-05T10:38:24.000Z</time>
        <extensions>
          <ns3:TrackPointExtension>
            <ns3:hr>76</ns3:hr>
            <ns3:cad>0</ns3:cad>
          </ns3:TrackPointExtension>
        </extensions>
      </trkpt>
      <trkpt lat="43.47185005433857440948486328125" lon="1.43206290900707244873046875">
        <ele>253.399993896484375</ele>
        <time>2026-08-05T10:38:25.000Z</time>
        <extensions>
          <ns3:TrackPointExtension>
            <ns3:hr>75</ns3:hr>
            <ns3:cad>0</ns3:cad>
          </ns3:TrackPointExtension>
        </extensions>
      </trkpt>
      <trkpt lat="43.47185005433857440948486328125" lon="1.43206290900707244873046875">
        <ele>253.399993896484375</ele>
        <time>2026-08-05T10:38:26.000Z</time>
        <extensions>
          <ns3:TrackPointExtension>
            <ns3:hr>75</ns3:hr>
            <ns3:cad>0</ns3:cad>
          </ns3:TrackPointExtension>
        </extensions>
      </trkpt>
      <trkpt lat="43.47185005433857440948486328125" lon="1.43206290900707244873046875">
        <ele>253.399993896484375</ele>
        <time>2026-08-05T10:38:27.000Z</time>
        <extensions>
          <ns3:TrackPointExtension>
            <ns3:hr>76</ns3:hr>
            <ns3:cad>0</ns3:cad>
          </ns3:TrackPointExtension>
        </extensions>
      </trkpt>
      <trkpt lat="43.471852652728557586669921875" lon="1.43205846659839153289794921875">
        <ele>253.399993896484375</ele>
        <time>2026-08-05T10:38:28.000Z</time>
        <extensions>
          <ns3:TrackPointExtension>
            <ns3:hr>76</ns3:hr>
            <ns3:cad>0</ns3:cad>
          </ns3:TrackPointExtension>
        </extensions>
      </trkpt>
      <trkpt lat="43.47185173071920871734619140625" lon="1.4320506714284420013427734375">
        <ele>253.399993896484375</ele>
        <time>2026-08-05T10:38:29.000Z</time>
        <extensions>
          <ns3:TrackPointExtension>
            <ns3:hr>76</ns3:hr>
            <ns3:cad>0</ns3:cad>
          </ns3:TrackPointExtension>
        </extensions>
      </trkpt>
      <trkpt lat="43.47185005433857440948486328125" lon="1.43206290900707244873046875">
        <ele>253.399993896484375</ele>
        <time>2026-08-05T10:38:30.000Z</time>
        <extensions>
          <ns3:TrackPointExtension>
            <ns3:hr>78</ns3:hr>
            <ns3:cad>0</ns3:cad>
          </ns3:TrackPointExtension>
        </extensions>
      </trkpt>
      <trkpt lat="43.47185005433857440948486328125" lon="1.43206290900707244873046875">
        <ele>253.399993896484375</ele>
        <time>2026-08-05T10:38:31.000Z</time>
        <extensions>
          <ns3:TrackPointExtension>
            <ns3:hr>78</ns3:hr>
            <ns3:cad>0</ns3:cad>
          </ns3:TrackPointExtension>
        </extensions>
      </trkpt>
      <trkpt lat="43.47185005433857440948486328125" lon="1.43206290900707244873046875">
        <ele>253.399993896484375</ele>
        <time>2026-08-05T10:38:32.000Z</time>
        <extensions>
          <ns3:TrackPointExtension>
            <ns3:hr>79</ns3:hr>
            <ns3:cad>0</ns3:cad>
          </ns3:TrackPointExtension>
        </extensions>
      </trkpt>
      <trkpt lat="43.47185005433857440948486328125" lon="1.43206290900707244873046875">
        <ele>253.399993896484375</ele>
        <time>2026-08-05T10:38:33.000Z</time>
        <extensions>
          <ns3:TrackPointExtension>
            <ns3:hr>78</ns3:hr>
            <ns3:cad>0</ns3:cad>
          </ns3:TrackPointExtension>
        </extensions>
      </trkpt>
      <trkpt lat="43.47185005433857440948486328125" lon="1.43206290900707244873046875">
        <ele>253.399993896484375</ele>
        <time>2026-08-05T10:38:34.000Z</time>
        <extensions>
          <ns3:TrackPointExtension>
            <ns3:hr>78</ns3:hr>
            <ns3:cad>0</ns3:cad>
          </ns3:TrackPointExtension>
        </extensions>
      </trkpt>
      <trkpt lat="43.47185005433857440948486328125" lon="1.43206290900707244873046875">
        <ele>253.399993896484375</ele>
        <time>2026-08-05T10:38:35.000Z</time>
        <extensions>
          <ns3:TrackPointExtension>
            <ns3:hr>79</ns3:hr>
            <ns3:cad>0</ns3:cad>
          </ns3:TrackPointExtension>
        </extensions>
      </trkpt>
      <trkpt lat="43.47185005433857440948486328125" lon="1.43206290900707244873046875">
        <ele>253.399993896484375</ele>
        <time>2026-08-05T10:38:36.000Z</time>
        <extensions>
          <ns3:TrackPointExtension>
            <ns3:hr>79</ns3:hr>
            <ns3:cad>0</ns3:cad>
          </ns3:TrackPointExtension>
        </extensions>
      </trkpt>
      <trkpt lat="43.47185005433857440948486328125" lon="1.43206290900707244873046875">
        <ele>253.399993896484375</ele>
        <time>2026-08-05T10:38:37.000Z</time>
        <extensions>
          <ns3:TrackPointExtension>
            <ns3:hr>79</ns3:hr>
            <ns3:cad>0</ns3:cad>
          </ns3:TrackPointExtension>
        </extensions>
      </trkpt>
      <trkpt lat="43.47185005433857440948486328125" lon="1.43206290900707244873046875">
        <ele>253.399993896484375</ele>
        <time>2026-08-05T10:38:38.000Z</time>
        <extensions>
          <ns3:TrackPointExtension>
            <ns3:hr>78</ns3:hr>
            <ns3:cad>0</ns3:cad>
          </ns3:TrackPointExtension>
        </extensions>
      </trkpt>
      <trkpt lat="43.47185005433857440948486328125" lon="1.43206290900707244873046875">
        <ele>253.399993896484375</ele>
        <time>2026-08-05T10:38:39.000Z</time>
        <extensions>
          <ns3:TrackPointExtension>
            <ns3:hr>79</ns3:hr>
            <ns3:cad>0</ns3:cad>
          </ns3:TrackPointExtension>
        </extensions>
      </trkpt>
      <trkpt lat="43.47185005433857440948486328125" lon="1.43206290900707244873046875">
        <ele>253.399993896484375</ele>
        <time>2026-08-05T10:38:40.000Z</time>
        <extensions>
          <ns3:TrackPointExtension>
            <ns3:hr>78</ns3:hr>
            <ns3:cad>0</ns3:cad>
          </ns3:TrackPointExtension>
        </extensions>
      </trkpt>
      <trkpt lat="43.47185005433857440948486328125" lon="1.43206290900707244873046875">
        <ele>253.399993896484375</ele>
        <time>2026-08-05T10:38:41.000Z</time>
        <extensions>
          <ns3:TrackPointExtension>
            <ns3:hr>78</ns3:hr>
            <ns3:cad>0</ns3:cad>
          </ns3:TrackPointExtension>
        </extensions>
      </trkpt>
      <trkpt lat="43.47185005433857440948486328125" lon="1.43206290900707244873046875">
        <ele>253.600006103515625</ele>
        <time>2026-08-05T10:38:42.000Z</time>
        <extensions>
          <ns3:TrackPointExtension>
            <ns3:hr>73</ns3:hr>
            <ns3:cad>0</ns3:cad>
          </ns3:TrackPointExtension>
        </extensions>
      </trkpt>
      <trkpt lat="43.47185005433857440948486328125" lon="1.43206290900707244873046875">
        <ele>253.600006103515625</ele>
        <time>2026-08-05T10:38:43.000Z</time>
        <extensions>
          <ns3:TrackPointExtension>
            <ns3:hr>70</ns3:hr>
            <ns3:cad>0</ns3:cad>
          </ns3:TrackPointExtension>
        </extensions>
      </trkpt>
      <trkpt lat="43.47185005433857440948486328125" lon="1.43206290900707244873046875">
        <ele>253.600006103515625</ele>
        <time>2026-08-05T10:38:44.000Z</time>
        <extensions>
          <ns3:TrackPointExtension>
            <ns3:hr>70</ns3:hr>
            <ns3:cad>0</ns3:cad>
          </ns3:TrackPointExtension>
        </extensions>
      </trkpt>
      <trkpt lat="43.47185005433857440948486328125" lon="1.43206290900707244873046875">
        <ele>253.8000030517578125</ele>
        <time>2026-08-05T10:38:45.000Z</time>
        <extensions>
          <ns3:TrackPointExtension>
            <ns3:hr>70</ns3:hr>
            <ns3:cad>0</ns3:cad>
          </ns3:TrackPointExtension>
        </extensions>
      </trkpt>
      <trkpt lat="43.47185005433857440948486328125" lon="1.43206290900707244873046875">
        <ele>253.8000030517578125</ele>
        <time>2026-08-05T10:38:46.000Z</time>
        <extensions>
          <ns3:TrackPointExtension>
            <ns3:hr>76</ns3:hr>
            <ns3:cad>0</ns3:cad>
          </ns3:TrackPointExtension>
        </extensions>
      </trkpt>
      <trkpt lat="43.47185005433857440948486328125" lon="1.43206290900707244873046875">
        <ele>253.8000030517578125</ele>
        <time>2026-08-05T10:38:47.000Z</time>
        <extensions>
          <ns3:TrackPointExtension>
            <ns3:hr>79</ns3:hr>
            <ns3:cad>0</ns3:cad>
          </ns3:TrackPointExtension>
        </extensions>
      </trkpt>
      <trkpt lat="43.47185005433857440948486328125" lon="1.43206290900707244873046875">
        <ele>253.600006103515625</ele>
        <time>2026-08-05T10:38:48.000Z</time>
        <extensions>
          <ns3:TrackPointExtension>
            <ns3:hr>79</ns3:hr>
            <ns3:cad>0</ns3:cad>
          </ns3:TrackPointExtension>
        </extensions>
      </trkpt>
      <trkpt lat="43.47185005433857440948486328125" lon="1.43206290900707244873046875">
        <ele>253.600006103515625</ele>
        <time>2026-08-05T10:38:49.000Z</time>
        <extensions>
          <ns3:TrackPointExtension>
            <ns3:hr>79</ns3:hr>
            <ns3:cad>0</ns3:cad>
          </ns3:TrackPointExtension>
        </extensions>
      </trkpt>
      <trkpt lat="43.47185005433857440948486328125" lon="1.43206290900707244873046875">
        <ele>253.399993896484375</ele>
        <time>2026-08-05T10:38:50.000Z</time>
        <extensions>
          <ns3:TrackPointExtension>
            <ns3:hr>78</ns3:hr>
            <ns3:cad>0</ns3:cad>
          </ns3:TrackPointExtension>
        </extensions>
      </trkpt>
      <trkpt lat="43.47185005433857440948486328125" lon="1.43206290900707244873046875">
        <ele>253.399993896484375</ele>
        <time>2026-08-05T10:38:51.000Z</time>
        <extensions>
          <ns3:TrackPointExtension>
            <ns3:hr>77</ns3:hr>
            <ns3:cad>0</ns3:cad>
          </ns3:TrackPointExtension>
        </extensions>
      </trkpt>
      <trkpt lat="43.47185005433857440948486328125" lon="1.43206290900707244873046875">
        <ele>253.399993896484375</ele>
        <time>2026-08-05T10:38:52.000Z</time>
        <extensions>
          <ns3:TrackPointExtension>
            <ns3:hr>76</ns3:hr>
            <ns3:cad>0</ns3:cad>
          </ns3:TrackPointExtension>
        </extensions>
      </trkpt>
      <trkpt lat="43.47185005433857440948486328125" lon="1.43206290900707244873046875">
        <ele>253.399993896484375</ele>
        <time>2026-08-05T10:38:53.000Z</time>
        <extensions>
          <ns3:TrackPointExtension>
            <ns3:hr>75</ns3:hr>
            <ns3:cad>0</ns3:cad>
          </ns3:TrackPointExtension>
        </extensions>
      </trkpt>
      <trkpt lat="43.47185005433857440948486328125" lon="1.43206290900707244873046875">
        <ele>253.399993896484375</ele>
        <time>2026-08-05T10:38:54.000Z</time>
        <extensions>
          <ns3:TrackPointExtension>
            <ns3:hr>75</ns3:hr>
            <ns3:cad>0</ns3:cad>
          </ns3:TrackPointExtension>
        </extensions>
      </trkpt>
      <trkpt lat="43.47185005433857440948486328125" lon="1.43206290900707244873046875">
        <ele>253.399993896484375</ele>
        <time>2026-08-05T10:38:55.000Z</time>
        <extensions>
          <ns3:TrackPointExtension>
            <ns3:hr>76</ns3:hr>
            <ns3:cad>0</ns3:cad>
          </ns3:TrackPointExtension>
        </extensions>
      </trkpt>
      <trkpt lat="43.47185005433857440948486328125" lon="1.43206290900707244873046875">
        <ele>253.1999969482421875</ele>
        <time>2026-08-05T10:38:56.000Z</time>
        <extensions>
          <ns3:TrackPointExtension>
            <ns3:hr>77</ns3:hr>
            <ns3:cad>0</ns3:cad>
          </ns3:TrackPointExtension>
        </extensions>
      </trkpt>
      <trkpt lat="43.47185005433857440948486328125" lon="1.43206290900707244873046875">
        <ele>253.1999969482421875</ele>
        <time>2026-08-05T10:38:57.000Z</time>
        <extensions>
          <ns3:TrackPointExtension>
            <ns3:hr>77</ns3:hr>
            <ns3:cad>0</ns3:cad>
          </ns3:TrackPointExtension>
        </extensions>
      </trkpt>
      <trkpt lat="43.47185005433857440948486328125" lon="1.43206290900707244873046875">
        <ele>253.1999969482421875</ele>
        <time>2026-08-05T10:38:58.000Z</time>
        <extensions>
          <ns3:TrackPointExtension>
            <ns3:hr>77</ns3:hr>
            <ns3:cad>0</ns3:cad>
          </ns3:TrackPointExtension>
        </extensions>
      </trkpt>
      <trkpt lat="43.47185005433857440948486328125" lon="1.43206290900707244873046875">
        <ele>253.1999969482421875</ele>
        <time>2026-08-05T10:38:59.000Z</time>
        <extensions>
          <ns3:TrackPointExtension>
            <ns3:hr>77</ns3:hr>
            <ns3:cad>0</ns3:cad>
          </ns3:TrackPointExtension>
        </extensions>
      </trkpt>
      <trkpt lat="43.47185005433857440948486328125" lon="1.43206290900707244873046875">
        <ele>253.1999969482421875</ele>
        <time>2026-08-05T10:39:00.000Z</time>
        <extensions>
          <ns3:TrackPointExtension>
            <ns3:hr>76</ns3:hr>
            <ns3:cad>0</ns3:cad>
          </ns3:TrackPointExtension>
        </extensions>
      </trkpt>
      <trkpt lat="43.47185005433857440948486328125" lon="1.43206290900707244873046875">
        <ele>253.1999969482421875</ele>
        <time>2026-08-05T10:39:01.000Z</time>
        <extensions>
          <ns3:TrackPointExtension>
            <ns3:hr>74</ns3:hr>
            <ns3:cad>0</ns3:cad>
          </ns3:TrackPointExtension>
        </extensions>
      </trkpt>
      <trkpt lat="43.47185005433857440948486328125" lon="1.43206290900707244873046875">
        <ele>253.1999969482421875</ele>
        <time>2026-08-05T10:39:02.000Z</time>
        <extensions>
          <ns3:TrackPointExtension>
            <ns3:hr>73</ns3:hr>
            <ns3:cad>0</ns3:cad>
          </ns3:TrackPointExtension>
        </extensions>
      </trkpt>
      <trkpt lat="43.47185005433857440948486328125" lon="1.43206290900707244873046875">
        <ele>253.1999969482421875</ele>
        <time>2026-08-05T10:39:03.000Z</time>
        <extensions>
          <ns3:TrackPointExtension>
            <ns3:hr>73</ns3:hr>
            <ns3:cad>0</ns3:cad>
          </ns3:TrackPointExtension>
        </extensions>
      </trkpt>
      <trkpt lat="43.47185005433857440948486328125" lon="1.43206290900707244873046875">
        <ele>253.1999969482421875</ele>
        <time>2026-08-05T10:39:04.000Z</time>
        <extensions>
          <ns3:TrackPointExtension>
            <ns3:hr>73</ns3:hr>
            <ns3:cad>0</ns3:cad>
          </ns3:TrackPointExtension>
        </extensions>
      </trkpt>
      <trkpt lat="43.47185005433857440948486328125" lon="1.43206290900707244873046875">
        <ele>253</ele>
        <time>2026-08-05T10:39:05.000Z</time>
        <extensions>
          <ns3:TrackPointExtension>
            <ns3:hr>73</ns3:hr>
            <ns3:cad>0</ns3:cad>
          </ns3:TrackPointExtension>
        </extensions>
      </trkpt>
      <trkpt lat="43.47185005433857440948486328125" lon="1.43206290900707244873046875">
        <ele>253</ele>
        <time>2026-08-05T10:39:06.000Z</time>
        <extensions>
          <ns3:TrackPointExtension>
            <ns3:hr>71</ns3:hr>
            <ns3:cad>0</ns3:cad>
          </ns3:TrackPointExtension>
        </extensions>
      </trkpt>
      <trkpt lat="43.47185005433857440948486328125" lon="1.43206290900707244873046875">
        <ele>253.1999969482421875</ele>
        <time>2026-08-05T10:39:07.000Z</time>
        <extensions>
          <ns3:TrackPointExtension>
            <ns3:hr>70</ns3:hr>
            <ns3:cad>0</ns3:cad>
          </ns3:TrackPointExtension>
        </extensions>
      </trkpt>
      <trkpt lat="43.47185005433857440948486328125" lon="1.43206290900707244873046875">
        <ele>253.1999969482421875</ele>
        <time>2026-08-05T10:39:08.000Z</time>
        <extensions>
          <ns3:TrackPointExtension>
            <ns3:hr>69</ns3:hr>
            <ns3:cad>0</ns3:cad>
          </ns3:TrackPointExtension>
        </extensions>
      </trkpt>
      <trkpt lat="43.47185005433857440948486328125" lon="1.43206290900707244873046875">
        <ele>253.1999969482421875</ele>
        <time>2026-08-05T10:39:09.000Z</time>
        <extensions>
          <ns3:TrackPointExtension>
            <ns3:hr>69</ns3:hr>
            <ns3:cad>0</ns3:cad>
          </ns3:TrackPointExtension>
        </extensions>
      </trkpt>
      <trkpt lat="43.47185005433857440948486328125" lon="1.43206290900707244873046875">
        <ele>253.1999969482421875</ele>
        <time>2026-08-05T10:39:10.000Z</time>
        <extensions>
          <ns3:TrackPointExtension>
            <ns3:hr>69</ns3:hr>
            <ns3:cad>0</ns3:cad>
          </ns3:TrackPointExtension>
        </extensions>
      </trkpt>
      <trkpt lat="43.47185005433857440948486328125" lon="1.43206290900707244873046875">
        <ele>253.1999969482421875</ele>
        <time>2026-08-05T10:39:11.000Z</time>
        <extensions>
          <ns3:TrackPointExtension>
            <ns3:hr>69</ns3:hr>
            <ns3:cad>0</ns3:cad>
          </ns3:TrackPointExtension>
        </extensions>
      </trkpt>
      <trkpt lat="43.47185005433857440948486328125" lon="1.43206290900707244873046875">
        <ele>253.1999969482421875</ele>
        <time>2026-08-05T10:39:12.000Z</time>
        <extensions>
          <ns3:TrackPointExtension>
            <ns3:hr>69</ns3:hr>
            <ns3:cad>0</ns3:cad>
          </ns3:TrackPointExtension>
        </extensions>
      </trkpt>
      <trkpt lat="43.47185005433857440948486328125" lon="1.43206290900707244873046875">
        <ele>253.1999969482421875</ele>
        <time>2026-08-05T10:39:13.000Z</time>
        <extensions>
          <ns3:TrackPointExtension>
            <ns3:hr>69</ns3:hr>
            <ns3:cad>0</ns3:cad>
          </ns3:TrackPointExtension>
        </extensions>
      </trkpt>
      <trkpt lat="43.47185005433857440948486328125" lon="1.43206290900707244873046875">
        <ele>253.1999969482421875</ele>
        <time>2026-08-05T10:39:14.000Z</time>
        <extensions>
          <ns3:TrackPointExtension>
            <ns3:hr>69</ns3:hr>
            <ns3:cad>0</ns3:cad>
          </ns3:TrackPointExtension>
        </extensions>
      </trkpt>
      <trkpt lat="43.47185005433857440948486328125" lon="1.43206290900707244873046875">
        <ele>253.1999969482421875</ele>
        <time>2026-08-05T10:39:15.000Z</time>
        <extensions>
          <ns3:TrackPointExtension>
            <ns3:hr>69</ns3:hr>
            <ns3:cad>0</ns3:cad>
          </ns3:TrackPointExtension>
        </extensions>
      </trkpt>
      <trkpt lat="43.47185005433857440948486328125" lon="1.43206290900707244873046875">
        <ele>253.1999969482421875</ele>
        <time>2026-08-05T10:39:16.000Z</time>
        <extensions>
          <ns3:TrackPointExtension>
            <ns3:hr>69</ns3:hr>
            <ns3:cad>0</ns3:cad>
          </ns3:TrackPointExtension>
        </extensions>
      </trkpt>
      <trkpt lat="43.47185005433857440948486328125" lon="1.43206290900707244873046875">
        <ele>253.1999969482421875</ele>
        <time>2026-08-05T10:39:17.000Z</time>
        <extensions>
          <ns3:TrackPointExtension>
            <ns3:hr>69</ns3:hr>
            <ns3:cad>0</ns3:cad>
          </ns3:TrackPointExtension>
        </extensions>
      </trkpt>
      <trkpt lat="43.47185005433857440948486328125" lon="1.43206290900707244873046875">
        <ele>253.1999969482421875</ele>
        <time>2026-08-05T10:39:18.000Z</time>
        <extensions>
          <ns3:TrackPointExtension>
            <ns3:hr>70</ns3:hr>
            <ns3:cad>0</ns3:cad>
          </ns3:TrackPointExtension>
        </extensions>
      </trkpt>
      <trkpt lat="43.47185005433857440948486328125" lon="1.43206290900707244873046875">
        <ele>253.1999969482421875</ele>
        <time>2026-08-05T10:39:19.000Z</time>
        <extensions>
          <ns3:TrackPointExtension>
            <ns3:hr>70</ns3:hr>
            <ns3:cad>0</ns3:cad>
          </ns3:TrackPointExtension>
        </extensions>
      </trkpt>
      <trkpt lat="43.47185005433857440948486328125" lon="1.43206290900707244873046875">
        <ele>253.1999969482421875</ele>
        <time>2026-08-05T10:39:20.000Z</time>
        <extensions>
          <ns3:TrackPointExtension>
            <ns3:hr>70</ns3:hr>
            <ns3:cad>0</ns3:cad>
          </ns3:TrackPointExtension>
        </extensions>
      </trkpt>
      <trkpt lat="43.47185005433857440948486328125" lon="1.43206290900707244873046875">
        <ele>253.1999969482421875</ele>
        <time>2026-08-05T10:39:21.000Z</time>
        <extensions>
          <ns3:TrackPointExtension>
            <ns3:hr>70</ns3:hr>
            <ns3:cad>0</ns3:cad>
          </ns3:TrackPointExtension>
        </extensions>
      </trkpt>
      <trkpt lat="43.47185005433857440948486328125" lon="1.43206290900707244873046875">
        <ele>253.399993896484375</ele>
        <time>2026-08-05T10:39:22.000Z</time>
        <extensions>
          <ns3:TrackPointExtension>
            <ns3:hr>70</ns3:hr>
            <ns3:cad>0</ns3:cad>
          </ns3:TrackPointExtension>
        </extensions>
      </trkpt>
      <trkpt lat="43.47185005433857440948486328125" lon="1.43206290900707244873046875">
        <ele>253.399993896484375</ele>
        <time>2026-08-05T10:39:23.000Z</time>
        <extensions>
          <ns3:TrackPointExtension>
            <ns3:hr>72</ns3:hr>
            <ns3:cad>0</ns3:cad>
          </ns3:TrackPointExtension>
        </extensions>
      </trkpt>
      <trkpt lat="43.47185005433857440948486328125" lon="1.43206290900707244873046875">
        <ele>253.399993896484375</ele>
        <time>2026-08-05T10:39:24.000Z</time>
        <extensions>
          <ns3:TrackPointExtension>
            <ns3:hr>73</ns3:hr>
            <ns3:cad>0</ns3:cad>
          </ns3:TrackPointExtension>
        </extensions>
      </trkpt>
      <trkpt lat="43.47185005433857440948486328125" lon="1.43206290900707244873046875">
        <ele>253.399993896484375</ele>
        <time>2026-08-05T10:39:25.000Z</time>
        <extensions>
          <ns3:TrackPointExtension>
            <ns3:hr>73</ns3:hr>
            <ns3:cad>0</ns3:cad>
          </ns3:TrackPointExtension>
        </extensions>
      </trkpt>
      <trkpt lat="43.47185005433857440948486328125" lon="1.43206290900707244873046875">
        <ele>253.399993896484375</ele>
        <time>2026-08-05T10:39:26.000Z</time>
        <extensions>
          <ns3:TrackPointExtension>
            <ns3:hr>74</ns3:hr>
            <ns3:cad>0</ns3:cad>
          </ns3:TrackPointExtension>
        </extensions>
      </trkpt>
      <trkpt lat="43.47185005433857440948486328125" lon="1.43206290900707244873046875">
        <ele>253.399993896484375</ele>
        <time>2026-08-05T10:39:27.000Z</time>
        <extensions>
          <ns3:TrackPointExtension>
            <ns3:hr>74</ns3:hr>
            <ns3:cad>0</ns3:cad>
          </ns3:TrackPointExtension>
        </extensions>
      </trkpt>
      <trkpt lat="43.47185005433857440948486328125" lon="1.43206290900707244873046875">
        <ele>253.399993896484375</ele>
        <time>2026-08-05T10:39:28.000Z</time>
        <extensions>
          <ns3:TrackPointExtension>
            <ns3:hr>74</ns3:hr>
            <ns3:cad>0</ns3:cad>
          </ns3:TrackPointExtension>
        </extensions>
      </trkpt>
      <trkpt lat="43.47185005433857440948486328125" lon="1.43206290900707244873046875">
        <ele>253.399993896484375</ele>
        <time>2026-08-05T10:39:29.000Z</time>
        <extensions>
          <ns3:TrackPointExtension>
            <ns3:hr>74</ns3:hr>
            <ns3:cad>0</ns3:cad>
          </ns3:TrackPointExtension>
        </extensions>
      </trkpt>
      <trkpt lat="43.47185005433857440948486328125" lon="1.43206290900707244873046875">
        <ele>253.1999969482421875</ele>
        <time>2026-08-05T10:39:30.000Z</time>
        <extensions>
          <ns3:TrackPointExtension>
            <ns3:hr>74</ns3:hr>
            <ns3:cad>0</ns3:cad>
          </ns3:TrackPointExtension>
        </extensions>
      </trkpt>
      <trkpt lat="43.47185005433857440948486328125" lon="1.43206290900707244873046875">
        <ele>253.1999969482421875</ele>
        <time>2026-08-05T10:39:31.000Z</time>
        <extensions>
          <ns3:TrackPointExtension>
            <ns3:hr>74</ns3:hr>
            <ns3:cad>0</ns3:cad>
          </ns3:TrackPointExtension>
        </extensions>
      </trkpt>
      <trkpt lat="43.47185005433857440948486328125" lon="1.43206290900707244873046875">
        <ele>253.1999969482421875</ele>
        <time>2026-08-05T10:39:32.000Z</time>
        <extensions>
          <ns3:TrackPointExtension>
            <ns3:hr>73</ns3:hr>
            <ns3:cad>0</ns3:cad>
          </ns3:TrackPointExtension>
        </extensions>
      </trkpt>
      <trkpt lat="43.47185005433857440948486328125" lon="1.43206290900707244873046875">
        <ele>253.1999969482421875</ele>
        <time>2026-08-05T10:39:33.000Z</time>
        <extensions>
          <ns3:TrackPointExtension>
            <ns3:hr>73</ns3:hr>
            <ns3:cad>0</ns3:cad>
          </ns3:TrackPointExtension>
        </extensions>
      </trkpt>
      <trkpt lat="43.47185005433857440948486328125" lon="1.43206290900707244873046875">
        <ele>253.1999969482421875</ele>
        <time>2026-08-05T10:39:34.000Z</time>
        <extensions>
          <ns3:TrackPointExtension>
            <ns3:hr>73</ns3:hr>
            <ns3:cad>0</ns3:cad>
          </ns3:TrackPointExtension>
        </extensions>
      </trkpt>
      <trkpt lat="43.47185005433857440948486328125" lon="1.43206290900707244873046875">
        <ele>253.1999969482421875</ele>
        <time>2026-08-05T10:39:35.000Z</time>
        <extensions>
          <ns3:TrackPointExtension>
            <ns3:hr>73</ns3:hr>
            <ns3:cad>0</ns3:cad>
          </ns3:TrackPointExtension>
        </extensions>
      </trkpt>
      <trkpt lat="43.47185340709984302520751953125" lon="1.4320543594658374786376953125">
        <ele>253.1999969482421875</ele>
        <time>2026-08-05T10:39:36.000Z</time>
        <extensions>
          <ns3:TrackPointExtension>
            <ns3:hr>73</ns3:hr>
            <ns3:cad>0</ns3:cad>
          </ns3:TrackPointExtension>
        </extensions>
      </trkpt>
      <trkpt lat="43.471853993833065032958984375" lon="1.432055197656154632568359375">
        <ele>253.1999969482421875</ele>
        <time>2026-08-05T10:39:37.000Z</time>
        <extensions>
          <ns3:TrackPointExtension>
            <ns3:hr>74</ns3:hr>
            <ns3:cad>0</ns3:cad>
          </ns3:TrackPointExtension>
        </extensions>
      </trkpt>
      <trkpt lat="43.4718588553369045257568359375" lon="1.4320483244955539703369140625">
        <ele>253.1999969482421875</ele>
        <time>2026-08-05T10:39:38.000Z</time>
        <extensions>
          <ns3:TrackPointExtension>
            <ns3:hr>73</ns3:hr>
            <ns3:cad>0</ns3:cad>
          </ns3:TrackPointExtension>
        </extensions>
      </trkpt>
      <trkpt lat="43.47185608930885791778564453125" lon="1.43205528147518634796142578125">
        <ele>253.1999969482421875</ele>
        <time>2026-08-05T10:39:39.000Z</time>
        <extensions>
          <ns3:TrackPointExtension>
            <ns3:hr>73</ns3:hr>
            <ns3:cad>0</ns3:cad>
          </ns3:TrackPointExtension>
        </extensions>
      </trkpt>
      <trkpt lat="43.47185005433857440948486328125" lon="1.43206290900707244873046875">
        <ele>253.1999969482421875</ele>
        <time>2026-08-05T10:39:40.000Z</time>
        <extensions>
          <ns3:TrackPointExtension>
            <ns3:hr>73</ns3:hr>
            <ns3:cad>0</ns3:cad>
          </ns3:TrackPointExtension>
        </extensions>
      </trkpt>
      <trkpt lat="43.47185005433857440948486328125" lon="1.43206290900707244873046875">
        <ele>253.1999969482421875</ele>
        <time>2026-08-05T10:39:41.000Z</time>
        <extensions>
          <ns3:TrackPointExtension>
            <ns3:hr>73</ns3:hr>
            <ns3:cad>0</ns3:cad>
          </ns3:TrackPointExtension>
        </extensions>
      </trkpt>
      <trkpt lat="43.47185005433857440948486328125" lon="1.43206290900707244873046875">
        <ele>253.1999969482421875</ele>
        <time>2026-08-05T10:39:42.000Z</time>
        <extensions>
          <ns3:TrackPointExtension>
            <ns3:hr>74</ns3:hr>
            <ns3:cad>0</ns3:cad>
          </ns3:TrackPointExtension>
        </extensions>
      </trkpt>
      <trkpt lat="43.47185005433857440948486328125" lon="1.43206290900707244873046875">
        <ele>253.1999969482421875</ele>
        <time>2026-08-05T10:39:43.000Z</time>
        <extensions>
          <ns3:TrackPointExtension>
            <ns3:hr>74</ns3:hr>
            <ns3:cad>0</ns3:cad>
          </ns3:TrackPointExtension>
        </extensions>
      </trkpt>
      <trkpt lat="43.47185005433857440948486328125" lon="1.43206290900707244873046875">
        <ele>253.1999969482421875</ele>
        <time>2026-08-05T10:39:44.000Z</time>
        <extensions>
          <ns3:TrackPointExtension>
            <ns3:hr>74</ns3:hr>
            <ns3:cad>0</ns3:cad>
          </ns3:TrackPointExtension>
        </extensions>
      </trkpt>
      <trkpt lat="43.47185005433857440948486328125" lon="1.43206290900707244873046875">
        <ele>253.399993896484375</ele>
        <time>2026-08-05T10:39:45.000Z</time>
        <extensions>
          <ns3:TrackPointExtension>
            <ns3:hr>74</ns3:hr>
            <ns3:cad>0</ns3:cad>
          </ns3:TrackPointExtension>
        </extensions>
      </trkpt>
      <trkpt lat="43.47185005433857440948486328125" lon="1.43206290900707244873046875">
        <ele>253.600006103515625</ele>
        <time>2026-08-05T10:39:46.000Z</time>
        <extensions>
          <ns3:TrackPointExtension>
            <ns3:hr>74</ns3:hr>
            <ns3:cad>0</ns3:cad>
          </ns3:TrackPointExtension>
        </extensions>
      </trkpt>
      <trkpt lat="43.47185776568949222564697265625" lon="1.43205611966550350189208984375">
        <ele>253.8000030517578125</ele>
        <time>2026-08-05T10:39:47.000Z</time>
        <extensions>
          <ns3:TrackPointExtension>
            <ns3:hr>74</ns3:hr>
            <ns3:cad>0</ns3:cad>
          </ns3:TrackPointExtension>
        </extensions>
      </trkpt>
      <trkpt lat="43.47185902297496795654296875" lon="1.43205511383712291717529296875">
        <ele>253.8000030517578125</ele>
        <time>2026-08-05T10:39:48.000Z</time>
        <extensions>
          <ns3:TrackPointExtension>
            <ns3:hr>75</ns3:hr>
            <ns3:cad>0</ns3:cad>
          </ns3:TrackPointExtension>
        </extensions>
      </trkpt>
      <trkpt lat="43.47186044789850711822509765625" lon="1.432054527103900909423828125">
        <ele>253.600006103515625</ele>
        <time>2026-08-05T10:39:49.000Z</time>
        <extensions>
          <ns3:TrackPointExtension>
            <ns3:hr>75</ns3:hr>
            <ns3:cad>0</ns3:cad>
          </ns3:TrackPointExtension>
        </extensions>
      </trkpt>
      <trkpt lat="43.4718618728220462799072265625" lon="1.43205377273261547088623046875">
        <ele>253.600006103515625</ele>
        <time>2026-08-05T10:39:50.000Z</time>
        <extensions>
          <ns3:TrackPointExtension>
            <ns3:hr>75</ns3:hr>
            <ns3:cad>0</ns3:cad>
          </ns3:TrackPointExtension>
        </extensions>
      </trkpt>
      <trkpt lat="43.4718612022697925567626953125" lon="1.432051844894886016845703125">
        <ele>253.399993896484375</ele>
        <time>2026-08-05T10:39:51.000Z</time>
        <extensions>
          <ns3:TrackPointExtension>
            <ns3:hr>75</ns3:hr>
            <ns3:cad>0</ns3:cad>
          </ns3:TrackPointExtension>
        </extensions>
      </trkpt>
      <trkpt lat="43.47185910679399967193603515625" lon="1.43205083906650543212890625">
        <ele>253.1999969482421875</ele>
        <time>2026-08-05T10:39:52.000Z</time>
        <extensions>
          <ns3:TrackPointExtension>
            <ns3:hr>75</ns3:hr>
            <ns3:cad>0</ns3:cad>
          </ns3:TrackPointExtension>
        </extensions>
      </trkpt>
      <trkpt lat="43.47185776568949222564697265625" lon="1.43204740248620510101318359375">
        <ele>253.1999969482421875</ele>
        <time>2026-08-05T10:39:53.000Z</time>
        <extensions>
          <ns3:TrackPointExtension>
            <ns3:hr>75</ns3:hr>
            <ns3:cad>0</ns3:cad>
          </ns3:TrackPointExtension>
        </extensions>
      </trkpt>
      <trkpt lat="43.47185659222304821014404296875" lon="1.432043798267841339111328125">
        <ele>253.1999969482421875</ele>
        <time>2026-08-05T10:39:54.000Z</time>
        <extensions>
          <ns3:TrackPointExtension>
            <ns3:hr>74</ns3:hr>
            <ns3:cad>0</ns3:cad>
          </ns3:TrackPointExtension>
        </extensions>
      </trkpt>
      <trkpt lat="43.471856005489826202392578125" lon="1.43204371444880962371826171875">
        <ele>253.1999969482421875</ele>
        <time>2026-08-05T10:39:55.000Z</time>
        <extensions>
          <ns3:TrackPointExtension>
            <ns3:hr>71</ns3:hr>
            <ns3:cad>0</ns3:cad>
          </ns3:TrackPointExtension>
        </extensions>
      </trkpt>
      <trkpt lat="43.47185592167079448699951171875" lon="1.43204388208687305450439453125">
        <ele>253.1999969482421875</ele>
        <time>2026-08-05T10:39:56.000Z</time>
        <extensions>
          <ns3:TrackPointExtension>
            <ns3:hr>69</ns3:hr>
            <ns3:cad>0</ns3:cad>
          </ns3:TrackPointExtension>
        </extensions>
      </trkpt>
      <trkpt lat="43.47185592167079448699951171875" lon="1.43204388208687305450439453125">
        <ele>253.1999969482421875</ele>
        <time>2026-08-05T10:39:57.000Z</time>
        <extensions>
          <ns3:TrackPointExtension>
            <ns3:hr>68</ns3:hr>
            <ns3:cad>0</ns3:cad>
          </ns3:TrackPointExtension>
        </extensions>
      </trkpt>
      <trkpt lat="43.47185592167079448699951171875" lon="1.43204388208687305450439453125">
        <ele>253.1999969482421875</ele>
        <time>2026-08-05T10:39:58.000Z</time>
        <extensions>
          <ns3:TrackPointExtension>
            <ns3:hr>68</ns3:hr>
            <ns3:cad>0</ns3:cad>
          </ns3:TrackPointExtension>
        </extensions>
      </trkpt>
      <trkpt lat="43.4718558378517627716064453125" lon="1.4320439659059047698974609375">
        <ele>253.1999969482421875</ele>
        <time>2026-08-05T10:39:59.000Z</time>
        <extensions>
          <ns3:TrackPointExtension>
            <ns3:hr>69</ns3:hr>
            <ns3:cad>0</ns3:cad>
          </ns3:TrackPointExtension>
        </extensions>
      </trkpt>
      <trkpt lat="43.4718555025756359100341796875" lon="1.43204505555331707000732421875">
        <ele>253.1999969482421875</ele>
        <time>2026-08-05T10:40:00.000Z</time>
        <extensions>
          <ns3:TrackPointExtension>
            <ns3:hr>70</ns3:hr>
            <ns3:cad>0</ns3:cad>
          </ns3:TrackPointExtension>
        </extensions>
      </trkpt>
      <trkpt lat="43.47185592167079448699951171875" lon="1.43204388208687305450439453125">
        <ele>253.1999969482421875</ele>
        <time>2026-08-05T10:40:01.000Z</time>
        <extensions>
          <ns3:TrackPointExtension>
            <ns3:hr>70</ns3:hr>
            <ns3:cad>0</ns3:cad>
          </ns3:TrackPointExtension>
        </extensions>
      </trkpt>
      <trkpt lat="43.47185592167079448699951171875" lon="1.43204388208687305450439453125">
        <ele>253</ele>
        <time>2026-08-05T10:40:02.000Z</time>
        <extensions>
          <ns3:TrackPointExtension>
            <ns3:hr>70</ns3:hr>
            <ns3:cad>0</ns3:cad>
          </ns3:TrackPointExtension>
        </extensions>
      </trkpt>
      <trkpt lat="43.47185592167079448699951171875" lon="1.43204388208687305450439453125">
        <ele>253</ele>
        <time>2026-08-05T10:40:03.000Z</time>
        <extensions>
          <ns3:TrackPointExtension>
            <ns3:hr>71</ns3:hr>
            <ns3:cad>0</ns3:cad>
          </ns3:TrackPointExtension>
        </extensions>
      </trkpt>
      <trkpt lat="43.47185592167079448699951171875" lon="1.43204388208687305450439453125">
        <ele>253</ele>
        <time>2026-08-05T10:40:04.000Z</time>
        <extensions>
          <ns3:TrackPointExtension>
            <ns3:hr>71</ns3:hr>
            <ns3:cad>0</ns3:cad>
          </ns3:TrackPointExtension>
        </extensions>
      </trkpt>
      <trkpt lat="43.47185592167079448699951171875" lon="1.43204388208687305450439453125">
        <ele>253</ele>
        <time>2026-08-05T10:40:05.000Z</time>
        <extensions>
          <ns3:TrackPointExtension>
            <ns3:hr>72</ns3:hr>
            <ns3:cad>0</ns3:cad>
          </ns3:TrackPointExtension>
        </extensions>
      </trkpt>
      <trkpt lat="43.47185592167079448699951171875" lon="1.43204388208687305450439453125">
        <ele>253.1999969482421875</ele>
        <time>2026-08-05T10:40:06.000Z</time>
        <extensions>
          <ns3:TrackPointExtension>
            <ns3:hr>74</ns3:hr>
            <ns3:cad>0</ns3:cad>
          </ns3:TrackPointExtension>
        </extensions>
      </trkpt>
      <trkpt lat="43.47185592167079448699951171875" lon="1.43204388208687305450439453125">
        <ele>253.1999969482421875</ele>
        <time>2026-08-05T10:40:07.000Z</time>
        <extensions>
          <ns3:TrackPointExtension>
            <ns3:hr>74</ns3:hr>
            <ns3:cad>0</ns3:cad>
          </ns3:TrackPointExtension>
        </extensions>
      </trkpt>
      <trkpt lat="43.47185592167079448699951171875" lon="1.43204388208687305450439453125">
        <ele>253.1999969482421875</ele>
        <time>2026-08-05T10:40:08.000Z</time>
        <extensions>
          <ns3:TrackPointExtension>
            <ns3:hr>74</ns3:hr>
            <ns3:cad>0</ns3:cad>
          </ns3:TrackPointExtension>
        </extensions>
      </trkpt>
      <trkpt lat="43.47185592167079448699951171875" lon="1.43204388208687305450439453125">
        <ele>253.1999969482421875</ele>
        <time>2026-08-05T10:40:09.000Z</time>
        <extensions>
          <ns3:TrackPointExtension>
            <ns3:hr>74</ns3:hr>
            <ns3:cad>0</ns3:cad>
          </ns3:TrackPointExtension>
        </extensions>
      </trkpt>
      <trkpt lat="43.47185592167079448699951171875" lon="1.43204388208687305450439453125">
        <ele>253</ele>
        <time>2026-08-05T10:40:10.000Z</time>
        <extensions>
          <ns3:TrackPointExtension>
            <ns3:hr>74</ns3:hr>
            <ns3:cad>0</ns3:cad>
          </ns3:TrackPointExtension>
        </extensions>
      </trkpt>
      <trkpt lat="43.47185592167079448699951171875" lon="1.43204388208687305450439453125">
        <ele>253</ele>
        <time>2026-08-05T10:40:11.000Z</time>
        <extensions>
          <ns3:TrackPointExtension>
            <ns3:hr>73</ns3:hr>
            <ns3:cad>0</ns3:cad>
          </ns3:TrackPointExtension>
        </extensions>
      </trkpt>
      <trkpt lat="43.47185592167079448699951171875" lon="1.43204388208687305450439453125">
        <ele>253</ele>
        <time>2026-08-05T10:40:12.000Z</time>
        <extensions>
          <ns3:TrackPointExtension>
            <ns3:hr>72</ns3:hr>
            <ns3:cad>0</ns3:cad>
          </ns3:TrackPointExtension>
        </extensions>
      </trkpt>
      <trkpt lat="43.47185592167079448699951171875" lon="1.43204388208687305450439453125">
        <ele>253</ele>
        <time>2026-08-05T10:40:13.000Z</time>
        <extensions>
          <ns3:TrackPointExtension>
            <ns3:hr>71</ns3:hr>
            <ns3:cad>0</ns3:cad>
          </ns3:TrackPointExtension>
        </extensions>
      </trkpt>
      <trkpt lat="43.47185592167079448699951171875" lon="1.43204388208687305450439453125">
        <ele>253</ele>
        <time>2026-08-05T10:40:14.000Z</time>
        <extensions>
          <ns3:TrackPointExtension>
            <ns3:hr>71</ns3:hr>
            <ns3:cad>0</ns3:cad>
          </ns3:TrackPointExtension>
        </extensions>
      </trkpt>
      <trkpt lat="43.47185592167079448699951171875" lon="1.43204388208687305450439453125">
        <ele>253</ele>
        <time>2026-08-05T10:40:15.000Z</time>
        <extensions>
          <ns3:TrackPointExtension>
            <ns3:hr>72</ns3:hr>
            <ns3:cad>0</ns3:cad>
          </ns3:TrackPointExtension>
        </extensions>
      </trkpt>
      <trkpt lat="43.47185592167079448699951171875" lon="1.43204388208687305450439453125">
        <ele>253</ele>
        <time>2026-08-05T10:40:16.000Z</time>
        <extensions>
          <ns3:TrackPointExtension>
            <ns3:hr>72</ns3:hr>
            <ns3:cad>0</ns3:cad>
          </ns3:TrackPointExtension>
        </extensions>
      </trkpt>
      <trkpt lat="43.47185592167079448699951171875" lon="1.43204388208687305450439453125">
        <ele>253</ele>
        <time>2026-08-05T10:40:17.000Z</time>
        <extensions>
          <ns3:TrackPointExtension>
            <ns3:hr>72</ns3:hr>
            <ns3:cad>0</ns3:cad>
          </ns3:TrackPointExtension>
        </extensions>
      </trkpt>
      <trkpt lat="43.47185592167079448699951171875" lon="1.43204388208687305450439453125">
        <ele>252.8000030517578125</ele>
        <time>2026-08-05T10:40:18.000Z</time>
        <extensions>
          <ns3:TrackPointExtension>
            <ns3:hr>76</ns3:hr>
            <ns3:cad>0</ns3:cad>
          </ns3:TrackPointExtension>
        </extensions>
      </trkpt>
      <trkpt lat="43.47185592167079448699951171875" lon="1.43204388208687305450439453125">
        <ele>252.8000030517578125</ele>
        <time>2026-08-05T10:40:19.000Z</time>
        <extensions>
          <ns3:TrackPointExtension>
            <ns3:hr>77</ns3:hr>
            <ns3:cad>0</ns3:cad>
          </ns3:TrackPointExtension>
        </extensions>
      </trkpt>
      <trkpt lat="43.47185592167079448699951171875" lon="1.43204388208687305450439453125">
        <ele>252.8000030517578125</ele>
        <time>2026-08-05T10:40:20.000Z</time>
        <extensions>
          <ns3:TrackPointExtension>
            <ns3:hr>76</ns3:hr>
            <ns3:cad>0</ns3:cad>
          </ns3:TrackPointExtension>
        </extensions>
      </trkpt>
      <trkpt lat="43.47185592167079448699951171875" lon="1.43204388208687305450439453125">
        <ele>252.8000030517578125</ele>
        <time>2026-08-05T10:40:21.000Z</time>
        <extensions>
          <ns3:TrackPointExtension>
            <ns3:hr>75</ns3:hr>
            <ns3:cad>0</ns3:cad>
          </ns3:TrackPointExtension>
        </extensions>
      </trkpt>
      <trkpt lat="43.47185592167079448699951171875" lon="1.43204388208687305450439453125">
        <ele>252.8000030517578125</ele>
        <time>2026-08-05T10:40:22.000Z</time>
        <extensions>
          <ns3:TrackPointExtension>
            <ns3:hr>75</ns3:hr>
            <ns3:cad>0</ns3:cad>
          </ns3:TrackPointExtension>
        </extensions>
      </trkpt>
      <trkpt lat="43.47185592167079448699951171875" lon="1.43204388208687305450439453125">
        <ele>253</ele>
        <time>2026-08-05T10:40:23.000Z</time>
        <extensions>
          <ns3:TrackPointExtension>
            <ns3:hr>76</ns3:hr>
            <ns3:cad>0</ns3:cad>
          </ns3:TrackPointExtension>
        </extensions>
      </trkpt>
      <trkpt lat="43.47185592167079448699951171875" lon="1.43204388208687305450439453125">
        <ele>253.1999969482421875</ele>
        <time>2026-08-05T10:40:24.000Z</time>
        <extensions>
          <ns3:TrackPointExtension>
            <ns3:hr>75</ns3:hr>
            <ns3:cad>0</ns3:cad>
          </ns3:TrackPointExtension>
        </extensions>
      </trkpt>
      <trkpt lat="43.47185592167079448699951171875" lon="1.43204388208687305450439453125">
        <ele>253.1999969482421875</ele>
        <time>2026-08-05T10:40:25.000Z</time>
        <extensions>
          <ns3:TrackPointExtension>
            <ns3:hr>75</ns3:hr>
            <ns3:cad>0</ns3:cad>
          </ns3:TrackPointExtension>
        </extensions>
      </trkpt>
      <trkpt lat="43.47185592167079448699951171875" lon="1.43204388208687305450439453125">
        <ele>253.1999969482421875</ele>
        <time>2026-08-05T10:40:26.000Z</time>
        <extensions>
          <ns3:TrackPointExtension>
            <ns3:hr>75</ns3:hr>
            <ns3:cad>0</ns3:cad>
          </ns3:TrackPointExtension>
        </extensions>
      </trkpt>
      <trkpt lat="43.47185592167079448699951171875" lon="1.43204388208687305450439453125">
        <ele>253.1999969482421875</ele>
        <time>2026-08-05T10:40:27.000Z</time>
        <extensions>
          <ns3:TrackPointExtension>
            <ns3:hr>75</ns3:hr>
            <ns3:cad>0</ns3:cad>
          </ns3:TrackPointExtension>
        </extensions>
      </trkpt>
      <trkpt lat="43.47185592167079448699951171875" lon="1.43204388208687305450439453125">
        <ele>253.1999969482421875</ele>
        <time>2026-08-05T10:40:28.000Z</time>
        <extensions>
          <ns3:TrackPointExtension>
            <ns3:hr>76</ns3:hr>
            <ns3:cad>0</ns3:cad>
          </ns3:TrackPointExtension>
        </extensions>
      </trkpt>
      <trkpt lat="43.47185592167079448699951171875" lon="1.43204388208687305450439453125">
        <ele>253.1999969482421875</ele>
        <time>2026-08-05T10:40:29.000Z</time>
        <extensions>
          <ns3:TrackPointExtension>
            <ns3:hr>76</ns3:hr>
            <ns3:cad>0</ns3:cad>
          </ns3:TrackPointExtension>
        </extensions>
      </trkpt>
      <trkpt lat="43.47185592167079448699951171875" lon="1.43204388208687305450439453125">
        <ele>253.1999969482421875</ele>
        <time>2026-08-05T10:40:30.000Z</time>
        <extensions>
          <ns3:TrackPointExtension>
            <ns3:hr>76</ns3:hr>
            <ns3:cad>0</ns3:cad>
          </ns3:TrackPointExtension>
        </extensions>
      </trkpt>
      <trkpt lat="43.47185592167079448699951171875" lon="1.43204388208687305450439453125">
        <ele>253</ele>
        <time>2026-08-05T10:40:31.000Z</time>
        <extensions>
          <ns3:TrackPointExtension>
            <ns3:hr>77</ns3:hr>
            <ns3:cad>0</ns3:cad>
          </ns3:TrackPointExtension>
        </extensions>
      </trkpt>
      <trkpt lat="43.47185592167079448699951171875" lon="1.43204388208687305450439453125">
        <ele>253</ele>
        <time>2026-08-05T10:40:32.000Z</time>
        <extensions>
          <ns3:TrackPointExtension>
            <ns3:hr>76</ns3:hr>
            <ns3:cad>0</ns3:cad>
          </ns3:TrackPointExtension>
        </extensions>
      </trkpt>
      <trkpt lat="43.47185592167079448699951171875" lon="1.43204388208687305450439453125">
        <ele>253</ele>
        <time>2026-08-05T10:40:33.000Z</time>
        <extensions>
          <ns3:TrackPointExtension>
            <ns3:hr>76</ns3:hr>
            <ns3:cad>0</ns3:cad>
          </ns3:TrackPointExtension>
        </extensions>
      </trkpt>
      <trkpt lat="43.47185592167079448699951171875" lon="1.43204388208687305450439453125">
        <ele>252.8000030517578125</ele>
        <time>2026-08-05T10:40:34.000Z</time>
        <extensions>
          <ns3:TrackPointExtension>
            <ns3:hr>75</ns3:hr>
            <ns3:cad>0</ns3:cad>
          </ns3:TrackPointExtension>
        </extensions>
      </trkpt>
      <trkpt lat="43.47185592167079448699951171875" lon="1.43204388208687305450439453125">
        <ele>252.8000030517578125</ele>
        <time>2026-08-05T10:40:35.000Z</time>
        <extensions>
          <ns3:TrackPointExtension>
            <ns3:hr>75</ns3:hr>
            <ns3:cad>0</ns3:cad>
          </ns3:TrackPointExtension>
        </extensions>
      </trkpt>
      <trkpt lat="43.47185592167079448699951171875" lon="1.43204388208687305450439453125">
        <ele>252.8000030517578125</ele>
        <time>2026-08-05T10:40:36.000Z</time>
        <extensions>
          <ns3:TrackPointExtension>
            <ns3:hr>74</ns3:hr>
            <ns3:cad>0</ns3:cad>
          </ns3:TrackPointExtension>
        </extensions>
      </trkpt>
      <trkpt lat="43.47185592167079448699951171875" lon="1.43204388208687305450439453125">
        <ele>252.600006103515625</ele>
        <time>2026-08-05T10:40:37.000Z</time>
        <extensions>
          <ns3:TrackPointExtension>
            <ns3:hr>73</ns3:hr>
            <ns3:cad>0</ns3:cad>
          </ns3:TrackPointExtension>
        </extensions>
      </trkpt>
      <trkpt lat="43.47185592167079448699951171875" lon="1.43204388208687305450439453125">
        <ele>252.600006103515625</ele>
        <time>2026-08-05T10:40:38.000Z</time>
        <extensions>
          <ns3:TrackPointExtension>
            <ns3:hr>73</ns3:hr>
            <ns3:cad>0</ns3:cad>
          </ns3:TrackPointExtension>
        </extensions>
      </trkpt>
      <trkpt lat="43.47185592167079448699951171875" lon="1.43204388208687305450439453125">
        <ele>252.600006103515625</ele>
        <time>2026-08-05T10:40:39.000Z</time>
        <extensions>
          <ns3:TrackPointExtension>
            <ns3:hr>73</ns3:hr>
            <ns3:cad>0</ns3:cad>
          </ns3:TrackPointExtension>
        </extensions>
      </trkpt>
      <trkpt lat="43.47185592167079448699951171875" lon="1.43204388208687305450439453125">
        <ele>252.8000030517578125</ele>
        <time>2026-08-05T10:40:40.000Z</time>
        <extensions>
          <ns3:TrackPointExtension>
            <ns3:hr>73</ns3:hr>
            <ns3:cad>0</ns3:cad>
          </ns3:TrackPointExtension>
        </extensions>
      </trkpt>
      <trkpt lat="43.47185592167079448699951171875" lon="1.43204388208687305450439453125">
        <ele>252.8000030517578125</ele>
        <time>2026-08-05T10:40:41.000Z</time>
        <extensions>
          <ns3:TrackPointExtension>
            <ns3:hr>73</ns3:hr>
            <ns3:cad>0</ns3:cad>
          </ns3:TrackPointExtension>
        </extensions>
      </trkpt>
      <trkpt lat="43.47185592167079448699951171875" lon="1.43204388208687305450439453125">
        <ele>252.8000030517578125</ele>
        <time>2026-08-05T10:40:42.000Z</time>
        <extensions>
          <ns3:TrackPointExtension>
            <ns3:hr>73</ns3:hr>
            <ns3:cad>0</ns3:cad>
          </ns3:TrackPointExtension>
        </extensions>
      </trkpt>
      <trkpt lat="43.47185592167079448699951171875" lon="1.43204388208687305450439453125">
        <ele>252.8000030517578125</ele>
        <time>2026-08-05T10:40:43.000Z</time>
        <extensions>
          <ns3:TrackPointExtension>
            <ns3:hr>73</ns3:hr>
            <ns3:cad>0</ns3:cad>
          </ns3:TrackPointExtension>
        </extensions>
      </trkpt>
      <trkpt lat="43.47185592167079448699951171875" lon="1.43204388208687305450439453125">
        <ele>253</ele>
        <time>2026-08-05T10:40:44.000Z</time>
        <extensions>
          <ns3:TrackPointExtension>
            <ns3:hr>73</ns3:hr>
            <ns3:cad>0</ns3:cad>
          </ns3:TrackPointExtension>
        </extensions>
      </trkpt>
      <trkpt lat="43.47185592167079448699951171875" lon="1.43204388208687305450439453125">
        <ele>253</ele>
        <time>2026-08-05T10:40:45.000Z</time>
        <extensions>
          <ns3:TrackPointExtension>
            <ns3:hr>73</ns3:hr>
            <ns3:cad>0</ns3:cad>
          </ns3:TrackPointExtension>
        </extensions>
      </trkpt>
      <trkpt lat="43.47185592167079448699951171875" lon="1.43204388208687305450439453125">
        <ele>253.1999969482421875</ele>
        <time>2026-08-05T10:40:46.000Z</time>
        <extensions>
          <ns3:TrackPointExtension>
            <ns3:hr>72</ns3:hr>
            <ns3:cad>0</ns3:cad>
          </ns3:TrackPointExtension>
        </extensions>
      </trkpt>
      <trkpt lat="43.47185592167079448699951171875" lon="1.43204388208687305450439453125">
        <ele>253.1999969482421875</ele>
        <time>2026-08-05T10:40:47.000Z</time>
        <extensions>
          <ns3:TrackPointExtension>
            <ns3:hr>72</ns3:hr>
            <ns3:cad>0</ns3:cad>
          </ns3:TrackPointExtension>
        </extensions>
      </trkpt>
      <trkpt lat="43.47185592167079448699951171875" lon="1.43204388208687305450439453125">
        <ele>253.1999969482421875</ele>
        <time>2026-08-05T10:40:48.000Z</time>
        <extensions>
          <ns3:TrackPointExtension>
            <ns3:hr>72</ns3:hr>
            <ns3:cad>0</ns3:cad>
          </ns3:TrackPointExtension>
        </extensions>
      </trkpt>
      <trkpt lat="43.47185592167079448699951171875" lon="1.43204388208687305450439453125">
        <ele>253.1999969482421875</ele>
        <time>2026-08-05T10:40:49.000Z</time>
        <extensions>
          <ns3:TrackPointExtension>
            <ns3:hr>73</ns3:hr>
            <ns3:cad>0</ns3:cad>
          </ns3:TrackPointExtension>
        </extensions>
      </trkpt>
      <trkpt lat="43.47185592167079448699951171875" lon="1.43204388208687305450439453125">
        <ele>253.1999969482421875</ele>
        <time>2026-08-05T10:40:50.000Z</time>
        <extensions>
          <ns3:TrackPointExtension>
            <ns3:hr>73</ns3:hr>
            <ns3:cad>0</ns3:cad>
          </ns3:TrackPointExtension>
        </extensions>
      </trkpt>
      <trkpt lat="43.47185592167079448699951171875" lon="1.43204388208687305450439453125">
        <ele>253</ele>
        <time>2026-08-05T10:40:51.000Z</time>
        <extensions>
          <ns3:TrackPointExtension>
            <ns3:hr>73</ns3:hr>
            <ns3:cad>0</ns3:cad>
          </ns3:TrackPointExtension>
        </extensions>
      </trkpt>
      <trkpt lat="43.47185592167079448699951171875" lon="1.43204388208687305450439453125">
        <ele>253</ele>
        <time>2026-08-05T10:40:52.000Z</time>
        <extensions>
          <ns3:TrackPointExtension>
            <ns3:hr>73</ns3:hr>
            <ns3:cad>0</ns3:cad>
          </ns3:TrackPointExtension>
        </extensions>
      </trkpt>
      <trkpt lat="43.47185592167079448699951171875" lon="1.43204388208687305450439453125">
        <ele>253</ele>
        <time>2026-08-05T10:40:53.000Z</time>
        <extensions>
          <ns3:TrackPointExtension>
            <ns3:hr>73</ns3:hr>
            <ns3:cad>0</ns3:cad>
          </ns3:TrackPointExtension>
        </extensions>
      </trkpt>
      <trkpt lat="43.47185592167079448699951171875" lon="1.43204388208687305450439453125">
        <ele>253.1999969482421875</ele>
        <time>2026-08-05T10:40:54.000Z</time>
        <extensions>
          <ns3:TrackPointExtension>
            <ns3:hr>74</ns3:hr>
            <ns3:cad>0</ns3:cad>
          </ns3:TrackPointExtension>
        </extensions>
      </trkpt>
      <trkpt lat="43.47185592167079448699951171875" lon="1.43204388208687305450439453125">
        <ele>253.1999969482421875</ele>
        <time>2026-08-05T10:40:55.000Z</time>
        <extensions>
          <ns3:TrackPointExtension>
            <ns3:hr>74</ns3:hr>
            <ns3:cad>0</ns3:cad>
          </ns3:TrackPointExtension>
        </extensions>
      </trkpt>
      <trkpt lat="43.47185592167079448699951171875" lon="1.43204388208687305450439453125">
        <ele>253.1999969482421875</ele>
        <time>2026-08-05T10:40:56.000Z</time>
        <extensions>
          <ns3:TrackPointExtension>
            <ns3:hr>75</ns3:hr>
            <ns3:cad>0</ns3:cad>
          </ns3:TrackPointExtension>
        </extensions>
      </trkpt>
      <trkpt lat="43.47185592167079448699951171875" lon="1.43204388208687305450439453125">
        <ele>253.1999969482421875</ele>
        <time>2026-08-05T10:40:57.000Z</time>
        <extensions>
          <ns3:TrackPointExtension>
            <ns3:hr>75</ns3:hr>
            <ns3:cad>0</ns3:cad>
          </ns3:TrackPointExtension>
        </extensions>
      </trkpt>
      <trkpt lat="43.47185592167079448699951171875" lon="1.43204388208687305450439453125">
        <ele>253</ele>
        <time>2026-08-05T10:40:58.000Z</time>
        <extensions>
          <ns3:TrackPointExtension>
            <ns3:hr>75</ns3:hr>
            <ns3:cad>0</ns3:cad>
          </ns3:TrackPointExtension>
        </extensions>
      </trkpt>
      <trkpt lat="43.47185592167079448699951171875" lon="1.43204388208687305450439453125">
        <ele>253</ele>
        <time>2026-08-05T10:40:59.000Z</time>
        <extensions>
          <ns3:TrackPointExtension>
            <ns3:hr>75</ns3:hr>
            <ns3:cad>0</ns3:cad>
          </ns3:TrackPointExtension>
        </extensions>
      </trkpt>
      <trkpt lat="43.47185592167079448699951171875" lon="1.43204388208687305450439453125">
        <ele>253</ele>
        <time>2026-08-05T10:41:00.000Z</time>
        <extensions>
          <ns3:TrackPointExtension>
            <ns3:hr>75</ns3:hr>
            <ns3:cad>0</ns3:cad>
          </ns3:TrackPointExtension>
        </extensions>
      </trkpt>
      <trkpt lat="43.47185592167079448699951171875" lon="1.43204388208687305450439453125">
        <ele>253</ele>
        <time>2026-08-05T10:41:01.000Z</time>
        <extensions>
          <ns3:TrackPointExtension>
            <ns3:hr>75</ns3:hr>
            <ns3:cad>0</ns3:cad>
          </ns3:TrackPointExtension>
        </extensions>
      </trkpt>
      <trkpt lat="43.47185592167079448699951171875" lon="1.43204388208687305450439453125">
        <ele>252.8000030517578125</ele>
        <time>2026-08-05T10:41:02.000Z</time>
        <extensions>
          <ns3:TrackPointExtension>
            <ns3:hr>75</ns3:hr>
            <ns3:cad>0</ns3:cad>
          </ns3:TrackPointExtension>
        </extensions>
      </trkpt>
      <trkpt lat="43.47185592167079448699951171875" lon="1.43204388208687305450439453125">
        <ele>252.8000030517578125</ele>
        <time>2026-08-05T10:41:03.000Z</time>
        <extensions>
          <ns3:TrackPointExtension>
            <ns3:hr>76</ns3:hr>
            <ns3:cad>0</ns3:cad>
          </ns3:TrackPointExtension>
        </extensions>
      </trkpt>
      <trkpt lat="43.47185592167079448699951171875" lon="1.43204388208687305450439453125">
        <ele>252.600006103515625</ele>
        <time>2026-08-05T10:41:04.000Z</time>
        <extensions>
          <ns3:TrackPointExtension>
            <ns3:hr>76</ns3:hr>
            <ns3:cad>0</ns3:cad>
          </ns3:TrackPointExtension>
        </extensions>
      </trkpt>
      <trkpt lat="43.47185592167079448699951171875" lon="1.43204388208687305450439453125">
        <ele>252.600006103515625</ele>
        <time>2026-08-05T10:41:05.000Z</time>
        <extensions>
          <ns3:TrackPointExtension>
            <ns3:hr>75</ns3:hr>
            <ns3:cad>0</ns3:cad>
          </ns3:TrackPointExtension>
        </extensions>
      </trkpt>
      <trkpt lat="43.47185592167079448699951171875" lon="1.43204388208687305450439453125">
        <ele>252.399993896484375</ele>
        <time>2026-08-05T10:41:06.000Z</time>
        <extensions>
          <ns3:TrackPointExtension>
            <ns3:hr>75</ns3:hr>
            <ns3:cad>0</ns3:cad>
          </ns3:TrackPointExtension>
        </extensions>
      </trkpt>
      <trkpt lat="43.47185592167079448699951171875" lon="1.43204388208687305450439453125">
        <ele>252.399993896484375</ele>
        <time>2026-08-05T10:41:07.000Z</time>
        <extensions>
          <ns3:TrackPointExtension>
            <ns3:hr>75</ns3:hr>
            <ns3:cad>0</ns3:cad>
          </ns3:TrackPointExtension>
        </extensions>
      </trkpt>
      <trkpt lat="43.47185592167079448699951171875" lon="1.43204388208687305450439453125">
        <ele>252.399993896484375</ele>
        <time>2026-08-05T10:41:08.000Z</time>
        <extensions>
          <ns3:TrackPointExtension>
            <ns3:hr>75</ns3:hr>
            <ns3:cad>0</ns3:cad>
          </ns3:TrackPointExtension>
        </extensions>
      </trkpt>
      <trkpt lat="43.47185592167079448699951171875" lon="1.43204388208687305450439453125">
        <ele>252.399993896484375</ele>
        <time>2026-08-05T10:41:09.000Z</time>
        <extensions>
          <ns3:TrackPointExtension>
            <ns3:hr>74</ns3:hr>
            <ns3:cad>0</ns3:cad>
          </ns3:TrackPointExtension>
        </extensions>
      </trkpt>
      <trkpt lat="43.47185592167079448699951171875" lon="1.43204388208687305450439453125">
        <ele>252.600006103515625</ele>
        <time>2026-08-05T10:41:10.000Z</time>
        <extensions>
          <ns3:TrackPointExtension>
            <ns3:hr>74</ns3:hr>
            <ns3:cad>0</ns3:cad>
          </ns3:TrackPointExtension>
        </extensions>
      </trkpt>
      <trkpt lat="43.47185592167079448699951171875" lon="1.43204388208687305450439453125">
        <ele>252.600006103515625</ele>
        <time>2026-08-05T10:41:11.000Z</time>
        <extensions>
          <ns3:TrackPointExtension>
            <ns3:hr>74</ns3:hr>
            <ns3:cad>0</ns3:cad>
          </ns3:TrackPointExtension>
        </extensions>
      </trkpt>
      <trkpt lat="43.47185592167079448699951171875" lon="1.43204388208687305450439453125">
        <ele>252.8000030517578125</ele>
        <time>2026-08-05T10:41:12.000Z</time>
        <extensions>
          <ns3:TrackPointExtension>
            <ns3:hr>75</ns3:hr>
            <ns3:cad>0</ns3:cad>
          </ns3:TrackPointExtension>
        </extensions>
      </trkpt>
      <trkpt lat="43.47185592167079448699951171875" lon="1.43204388208687305450439453125">
        <ele>252.8000030517578125</ele>
        <time>2026-08-05T10:41:13.000Z</time>
        <extensions>
          <ns3:TrackPointExtension>
            <ns3:hr>75</ns3:hr>
            <ns3:cad>0</ns3:cad>
          </ns3:TrackPointExtension>
        </extensions>
      </trkpt>
      <trkpt lat="43.47185592167079448699951171875" lon="1.43204388208687305450439453125">
        <ele>252.8000030517578125</ele>
        <time>2026-08-05T10:41:14.000Z</time>
        <extensions>
          <ns3:TrackPointExtension>
            <ns3:hr>76</ns3:hr>
            <ns3:cad>0</ns3:cad>
          </ns3:TrackPointExtension>
        </extensions>
      </trkpt>
      <trkpt lat="43.47185592167079448699951171875" lon="1.43204388208687305450439453125">
        <ele>252.8000030517578125</ele>
        <time>2026-08-05T10:41:15.000Z</time>
        <extensions>
          <ns3:TrackPointExtension>
            <ns3:hr>75</ns3:hr>
            <ns3:cad>0</ns3:cad>
          </ns3:TrackPointExtension>
        </extensions>
      </trkpt>
      <trkpt lat="43.47185592167079448699951171875" lon="1.43204388208687305450439453125">
        <ele>252.8000030517578125</ele>
        <time>2026-08-05T10:41:16.000Z</time>
        <extensions>
          <ns3:TrackPointExtension>
            <ns3:hr>75</ns3:hr>
            <ns3:cad>0</ns3:cad>
          </ns3:TrackPointExtension>
        </extensions>
      </trkpt>
      <trkpt lat="43.47185592167079448699951171875" lon="1.43204388208687305450439453125">
        <ele>253</ele>
        <time>2026-08-05T10:41:17.000Z</time>
        <extensions>
          <ns3:TrackPointExtension>
            <ns3:hr>75</ns3:hr>
            <ns3:cad>0</ns3:cad>
          </ns3:TrackPointExtension>
        </extensions>
      </trkpt>
      <trkpt lat="43.47185592167079448699951171875" lon="1.43204388208687305450439453125">
        <ele>253</ele>
        <time>2026-08-05T10:41:18.000Z</time>
        <extensions>
          <ns3:TrackPointExtension>
            <ns3:hr>75</ns3:hr>
            <ns3:cad>0</ns3:cad>
          </ns3:TrackPointExtension>
        </extensions>
      </trkpt>
      <trkpt lat="43.47185592167079448699951171875" lon="1.43204388208687305450439453125">
        <ele>253</ele>
        <time>2026-08-05T10:41:19.000Z</time>
        <extensions>
          <ns3:TrackPointExtension>
            <ns3:hr>75</ns3:hr>
            <ns3:cad>0</ns3:cad>
          </ns3:TrackPointExtension>
        </extensions>
      </trkpt>
      <trkpt lat="43.47185592167079448699951171875" lon="1.43204388208687305450439453125">
        <ele>253</ele>
        <time>2026-08-05T10:41:20.000Z</time>
        <extensions>
          <ns3:TrackPointExtension>
            <ns3:hr>75</ns3:hr>
            <ns3:cad>0</ns3:cad>
          </ns3:TrackPointExtension>
        </extensions>
      </trkpt>
      <trkpt lat="43.47185592167079448699951171875" lon="1.43204388208687305450439453125">
        <ele>253</ele>
        <time>2026-08-05T10:41:21.000Z</time>
        <extensions>
          <ns3:TrackPointExtension>
            <ns3:hr>75</ns3:hr>
            <ns3:cad>0</ns3:cad>
          </ns3:TrackPointExtension>
        </extensions>
      </trkpt>
      <trkpt lat="43.47185592167079448699951171875" lon="1.43204388208687305450439453125">
        <ele>253</ele>
        <time>2026-08-05T10:41:22.000Z</time>
        <extensions>
          <ns3:TrackPointExtension>
            <ns3:hr>75</ns3:hr>
            <ns3:cad>0</ns3:cad>
          </ns3:TrackPointExtension>
        </extensions>
      </trkpt>
      <trkpt lat="43.47185592167079448699951171875" lon="1.43204388208687305450439453125">
        <ele>253</ele>
        <time>2026-08-05T10:41:23.000Z</time>
        <extensions>
          <ns3:TrackPointExtension>
            <ns3:hr>75</ns3:hr>
            <ns3:cad>0</ns3:cad>
          </ns3:TrackPointExtension>
        </extensions>
      </trkpt>
      <trkpt lat="43.47185592167079448699951171875" lon="1.43204388208687305450439453125">
        <ele>252.8000030517578125</ele>
        <time>2026-08-05T10:41:24.000Z</time>
        <extensions>
          <ns3:TrackPointExtension>
            <ns3:hr>74</ns3:hr>
            <ns3:cad>0</ns3:cad>
          </ns3:TrackPointExtension>
        </extensions>
      </trkpt>
      <trkpt lat="43.47185592167079448699951171875" lon="1.43204388208687305450439453125">
        <ele>253</ele>
        <time>2026-08-05T10:41:25.000Z</time>
        <extensions>
          <ns3:TrackPointExtension>
            <ns3:hr>74</ns3:hr>
            <ns3:cad>0</ns3:cad>
          </ns3:TrackPointExtension>
        </extensions>
      </trkpt>
      <trkpt lat="43.47185592167079448699951171875" lon="1.43204388208687305450439453125">
        <ele>253</ele>
        <time>2026-08-05T10:41:26.000Z</time>
        <extensions>
          <ns3:TrackPointExtension>
            <ns3:hr>74</ns3:hr>
            <ns3:cad>0</ns3:cad>
          </ns3:TrackPointExtension>
        </extensions>
      </trkpt>
      <trkpt lat="43.47185592167079448699951171875" lon="1.43204388208687305450439453125">
        <ele>253</ele>
        <time>2026-08-05T10:41:27.000Z</time>
        <extensions>
          <ns3:TrackPointExtension>
            <ns3:hr>74</ns3:hr>
            <ns3:cad>0</ns3:cad>
          </ns3:TrackPointExtension>
        </extensions>
      </trkpt>
      <trkpt lat="43.47185592167079448699951171875" lon="1.43204388208687305450439453125">
        <ele>253.1999969482421875</ele>
        <time>2026-08-05T10:41:28.000Z</time>
        <extensions>
          <ns3:TrackPointExtension>
            <ns3:hr>73</ns3:hr>
            <ns3:cad>0</ns3:cad>
          </ns3:TrackPointExtension>
        </extensions>
      </trkpt>
      <trkpt lat="43.47185592167079448699951171875" lon="1.43204388208687305450439453125">
        <ele>253.1999969482421875</ele>
        <time>2026-08-05T10:41:29.000Z</time>
        <extensions>
          <ns3:TrackPointExtension>
            <ns3:hr>74</ns3:hr>
            <ns3:cad>0</ns3:cad>
          </ns3:TrackPointExtension>
        </extensions>
      </trkpt>
      <trkpt lat="43.47185592167079448699951171875" lon="1.43204388208687305450439453125">
        <ele>253.1999969482421875</ele>
        <time>2026-08-05T10:41:30.000Z</time>
        <extensions>
          <ns3:TrackPointExtension>
            <ns3:hr>75</ns3:hr>
            <ns3:cad>0</ns3:cad>
          </ns3:TrackPointExtension>
        </extensions>
      </trkpt>
      <trkpt lat="43.47185592167079448699951171875" lon="1.43204388208687305450439453125">
        <ele>253</ele>
        <time>2026-08-05T10:41:31.000Z</time>
        <extensions>
          <ns3:TrackPointExtension>
            <ns3:hr>75</ns3:hr>
            <ns3:cad>0</ns3:cad>
          </ns3:TrackPointExtension>
        </extensions>
      </trkpt>
      <trkpt lat="43.47185592167079448699951171875" lon="1.43204388208687305450439453125">
        <ele>253</ele>
        <time>2026-08-05T10:41:32.000Z</time>
        <extensions>
          <ns3:TrackPointExtension>
            <ns3:hr>75</ns3:hr>
            <ns3:cad>0</ns3:cad>
          </ns3:TrackPointExtension>
        </extensions>
      </trkpt>
      <trkpt lat="43.47185592167079448699951171875" lon="1.43204388208687305450439453125">
        <ele>253</ele>
        <time>2026-08-05T10:41:33.000Z</time>
        <extensions>
          <ns3:TrackPointExtension>
            <ns3:hr>74</ns3:hr>
            <ns3:cad>0</ns3:cad>
          </ns3:TrackPointExtension>
        </extensions>
      </trkpt>
      <trkpt lat="43.47185592167079448699951171875" lon="1.43204388208687305450439453125">
        <ele>253</ele>
        <time>2026-08-05T10:41:34.000Z</time>
        <extensions>
          <ns3:TrackPointExtension>
            <ns3:hr>74</ns3:hr>
            <ns3:cad>0</ns3:cad>
          </ns3:TrackPointExtension>
        </extensions>
      </trkpt>
      <trkpt lat="43.47185592167079448699951171875" lon="1.43204388208687305450439453125">
        <ele>253</ele>
        <time>2026-08-05T10:41:35.000Z</time>
        <extensions>
          <ns3:TrackPointExtension>
            <ns3:hr>74</ns3:hr>
            <ns3:cad>0</ns3:cad>
          </ns3:TrackPointExtension>
        </extensions>
      </trkpt>
      <trkpt lat="43.4718544967472553253173828125" lon="1.432042457163333892822265625">
        <ele>252.8000030517578125</ele>
        <time>2026-08-05T10:41:36.000Z</time>
        <extensions>
          <ns3:TrackPointExtension>
            <ns3:hr>73</ns3:hr>
            <ns3:cad>0</ns3:cad>
          </ns3:TrackPointExtension>
        </extensions>
      </trkpt>
      <trkpt lat="43.4718544967472553253173828125" lon="1.43203751184046268463134765625">
        <ele>252.8000030517578125</ele>
        <time>2026-08-05T10:41:37.000Z</time>
        <extensions>
          <ns3:TrackPointExtension>
            <ns3:hr>73</ns3:hr>
            <ns3:cad>0</ns3:cad>
          </ns3:TrackPointExtension>
        </extensions>
      </trkpt>
      <trkpt lat="43.4718565084040164947509765625" lon="1.4320402778685092926025390625">
        <ele>252.8000030517578125</ele>
        <time>2026-08-05T10:41:38.000Z</time>
        <extensions>
          <ns3:TrackPointExtension>
            <ns3:hr>73</ns3:hr>
            <ns3:cad>0</ns3:cad>
          </ns3:TrackPointExtension>
        </extensions>
      </trkpt>
      <trkpt lat="43.47185692749917507171630859375" lon="1.432042457163333892822265625">
        <ele>253</ele>
        <time>2026-08-05T10:41:39.000Z</time>
        <extensions>
          <ns3:TrackPointExtension>
            <ns3:hr>73</ns3:hr>
            <ns3:cad>0</ns3:cad>
          </ns3:TrackPointExtension>
        </extensions>
      </trkpt>
      <trkpt lat="43.4718578495085239410400390625" lon="1.43204404972493648529052734375">
        <ele>253</ele>
        <time>2026-08-05T10:41:40.000Z</time>
        <extensions>
          <ns3:TrackPointExtension>
            <ns3:hr>73</ns3:hr>
            <ns3:cad>0</ns3:cad>
          </ns3:TrackPointExtension>
        </extensions>
      </trkpt>
      <trkpt lat="43.47185860387980937957763671875" lon="1.43204790540039539337158203125">
        <ele>253</ele>
        <time>2026-08-05T10:41:41.000Z</time>
        <extensions>
          <ns3:TrackPointExtension>
            <ns3:hr>73</ns3:hr>
            <ns3:cad>0</ns3:cad>
          </ns3:TrackPointExtension>
        </extensions>
      </trkpt>
      <trkpt lat="43.47186011262238025665283203125" lon="1.43205159343779087066650390625">
        <ele>253.1999969482421875</ele>
        <time>2026-08-05T10:41:42.000Z</time>
        <extensions>
          <ns3:TrackPointExtension>
            <ns3:hr>74</ns3:hr>
            <ns3:cad>0</ns3:cad>
          </ns3:TrackPointExtension>
        </extensions>
      </trkpt>
      <trkpt lat="43.47185994498431682586669921875" lon="1.43205259926617145538330078125">
        <ele>253.1999969482421875</ele>
        <time>2026-08-05T10:41:43.000Z</time>
        <extensions>
          <ns3:TrackPointExtension>
            <ns3:hr>73</ns3:hr>
            <ns3:cad>0</ns3:cad>
          </ns3:TrackPointExtension>
        </extensions>
      </trkpt>
      <trkpt lat="43.47185902297496795654296875" lon="1.4320510067045688629150390625">
        <ele>253.1999969482421875</ele>
        <time>2026-08-05T10:41:44.000Z</time>
        <extensions>
          <ns3:TrackPointExtension>
            <ns3:hr>72</ns3:hr>
            <ns3:cad>0</ns3:cad>
          </ns3:TrackPointExtension>
        </extensions>
      </trkpt>
      <trkpt lat="43.47185927443206310272216796875" lon="1.432047151029109954833984375">
        <ele>253.1999969482421875</ele>
        <time>2026-08-05T10:41:45.000Z</time>
        <extensions>
          <ns3:TrackPointExtension>
            <ns3:hr>72</ns3:hr>
            <ns3:cad>0</ns3:cad>
          </ns3:TrackPointExtension>
        </extensions>
      </trkpt>
      <trkpt lat="43.4718591906130313873291015625" lon="1.43204371444880962371826171875">
        <ele>253.1999969482421875</ele>
        <time>2026-08-05T10:41:46.000Z</time>
        <extensions>
          <ns3:TrackPointExtension>
            <ns3:hr>71</ns3:hr>
            <ns3:cad>0</ns3:cad>
          </ns3:TrackPointExtension>
        </extensions>
      </trkpt>
      <trkpt lat="43.47185860387980937957763671875" lon="1.43204279243946075439453125">
        <ele>253.1999969482421875</ele>
        <time>2026-08-05T10:41:47.000Z</time>
        <extensions>
          <ns3:TrackPointExtension>
            <ns3:hr>71</ns3:hr>
            <ns3:cad>0</ns3:cad>
          </ns3:TrackPointExtension>
        </extensions>
      </trkpt>
      <trkpt lat="43.47185826860368251800537109375" lon="1.43204119987785816192626953125">
        <ele>253</ele>
        <time>2026-08-05T10:41:48.000Z</time>
        <extensions>
          <ns3:TrackPointExtension>
            <ns3:hr>72</ns3:hr>
            <ns3:cad>0</ns3:cad>
          </ns3:TrackPointExtension>
        </extensions>
      </trkpt>
      <trkpt lat="43.4718575142323970794677734375" lon="1.4320372603833675384521484375">
        <ele>253</ele>
        <time>2026-08-05T10:41:49.000Z</time>
        <extensions>
          <ns3:TrackPointExtension>
            <ns3:hr>73</ns3:hr>
            <ns3:cad>0</ns3:cad>
          </ns3:TrackPointExtension>
        </extensions>
      </trkpt>
      <trkpt lat="43.47185726277530193328857421875" lon="1.4320354163646697998046875">
        <ele>253</ele>
        <time>2026-08-05T10:41:50.000Z</time>
        <extensions>
          <ns3:TrackPointExtension>
            <ns3:hr>72</ns3:hr>
            <ns3:cad>0</ns3:cad>
          </ns3:TrackPointExtension>
        </extensions>
      </trkpt>
      <trkpt lat="43.471856676042079925537109375" lon="1.43203365616500377655029296875">
        <ele>253</ele>
        <time>2026-08-05T10:41:51.000Z</time>
        <extensions>
          <ns3:TrackPointExtension>
            <ns3:hr>71</ns3:hr>
            <ns3:cad>0</ns3:cad>
          </ns3:TrackPointExtension>
        </extensions>
      </trkpt>
      <trkpt lat="43.471857346594333648681640625" lon="1.43203550018370151519775390625">
        <ele>253</ele>
        <time>2026-08-05T10:41:52.000Z</time>
        <extensions>
          <ns3:TrackPointExtension>
            <ns3:hr>71</ns3:hr>
            <ns3:cad>0</ns3:cad>
          </ns3:TrackPointExtension>
        </extensions>
      </trkpt>
      <trkpt lat="43.47185743041336536407470703125" lon="1.4320369251072406768798828125">
        <ele>253</ele>
        <time>2026-08-05T10:41:53.000Z</time>
        <extensions>
          <ns3:TrackPointExtension>
            <ns3:hr>71</ns3:hr>
            <ns3:cad>0</ns3:cad>
          </ns3:TrackPointExtension>
        </extensions>
      </trkpt>
      <trkpt lat="43.471856676042079925537109375" lon="1.4320352487266063690185546875">
        <ele>253</ele>
        <time>2026-08-05T10:41:54.000Z</time>
        <extensions>
          <ns3:TrackPointExtension>
            <ns3:hr>71</ns3:hr>
            <ns3:cad>0</ns3:cad>
          </ns3:TrackPointExtension>
        </extensions>
      </trkpt>
      <trkpt lat="43.47185625694692134857177734375" lon="1.4320352487266063690185546875">
        <ele>253</ele>
        <time>2026-08-05T10:41:55.000Z</time>
        <extensions>
          <ns3:TrackPointExtension>
            <ns3:hr>70</ns3:hr>
            <ns3:cad>0</ns3:cad>
          </ns3:TrackPointExtension>
        </extensions>
      </trkpt>
      <trkpt lat="43.47185625694692134857177734375" lon="1.43203717656433582305908203125">
        <ele>253</ele>
        <time>2026-08-05T10:41:56.000Z</time>
        <extensions>
          <ns3:TrackPointExtension>
            <ns3:hr>70</ns3:hr>
            <ns3:cad>0</ns3:cad>
          </ns3:TrackPointExtension>
        </extensions>
      </trkpt>
      <trkpt lat="43.4718578495085239410400390625" lon="1.43203952349722385406494140625">
        <ele>252.8000030517578125</ele>
        <time>2026-08-05T10:41:57.000Z</time>
        <extensions>
          <ns3:TrackPointExtension>
            <ns3:hr>71</ns3:hr>
            <ns3:cad>0</ns3:cad>
          </ns3:TrackPointExtension>
        </extensions>
      </trkpt>
      <trkpt lat="43.47185902297496795654296875" lon="1.43204254098236560821533203125">
        <ele>252.8000030517578125</ele>
        <time>2026-08-05T10:41:58.000Z</time>
        <extensions>
          <ns3:TrackPointExtension>
            <ns3:hr>72</ns3:hr>
            <ns3:cad>0</ns3:cad>
          </ns3:TrackPointExtension>
        </extensions>
      </trkpt>
      <trkpt lat="43.4718601964414119720458984375" lon="1.43204748630523681640625">
        <ele>252.8000030517578125</ele>
        <time>2026-08-05T10:41:59.000Z</time>
        <extensions>
          <ns3:TrackPointExtension>
            <ns3:hr>72</ns3:hr>
            <ns3:cad>0</ns3:cad>
          </ns3:TrackPointExtension>
        </extensions>
      </trkpt>
      <trkpt lat="43.4718618728220462799072265625" lon="1.43204773776233196258544921875">
        <ele>252.8000030517578125</ele>
        <time>2026-08-05T10:42:00.000Z</time>
        <extensions>
          <ns3:TrackPointExtension>
            <ns3:hr>71</ns3:hr>
            <ns3:cad>0</ns3:cad>
          </ns3:TrackPointExtension>
        </extensions>
      </trkpt>
      <trkpt lat="43.47186212427914142608642578125" lon="1.4320473186671733856201171875">
        <ele>252.8000030517578125</ele>
        <time>2026-08-05T10:42:01.000Z</time>
        <extensions>
          <ns3:TrackPointExtension>
            <ns3:hr>70</ns3:hr>
            <ns3:cad>0</ns3:cad>
          </ns3:TrackPointExtension>
        </extensions>
      </trkpt>
      <trkpt lat="43.47186212427914142608642578125" lon="1.43204723484814167022705078125">
        <ele>252.8000030517578125</ele>
        <time>2026-08-05T10:42:02.000Z</time>
        <extensions>
          <ns3:TrackPointExtension>
            <ns3:hr>69</ns3:hr>
            <ns3:cad>0</ns3:cad>
          </ns3:TrackPointExtension>
        </extensions>
      </trkpt>
      <trkpt lat="43.47186170518398284912109375" lon="1.43204740248620510101318359375">
        <ele>253</ele>
        <time>2026-08-05T10:42:03.000Z</time>
        <extensions>
          <ns3:TrackPointExtension>
            <ns3:hr>69</ns3:hr>
            <ns3:cad>0</ns3:cad>
          </ns3:TrackPointExtension>
        </extensions>
      </trkpt>
      <trkpt lat="43.4718628786504268646240234375" lon="1.4320456422865390777587890625">
        <ele>253</ele>
        <time>2026-08-05T10:42:04.000Z</time>
        <extensions>
          <ns3:TrackPointExtension>
            <ns3:hr>66</ns3:hr>
            <ns3:cad>0</ns3:cad>
          </ns3:TrackPointExtension>
        </extensions>
      </trkpt>
      <trkpt lat="43.47185592167079448699951171875" lon="1.43204388208687305450439453125">
        <ele>253</ele>
        <time>2026-08-05T10:42:05.000Z</time>
        <extensions>
          <ns3:TrackPointExtension>
            <ns3:hr>66</ns3:hr>
            <ns3:cad>0</ns3:cad>
          </ns3:TrackPointExtension>
        </extensions>
      </trkpt>
      <trkpt lat="43.47185592167079448699951171875" lon="1.43204388208687305450439453125">
        <ele>253</ele>
        <time>2026-08-05T10:42:06.000Z</time>
        <extensions>
          <ns3:TrackPointExtension>
            <ns3:hr>66</ns3:hr>
            <ns3:cad>0</ns3:cad>
          </ns3:TrackPointExtension>
        </extensions>
      </trkpt>
      <trkpt lat="43.47185592167079448699951171875" lon="1.43204388208687305450439453125">
        <ele>253</ele>
        <time>2026-08-05T10:42:07.000Z</time>
        <extensions>
          <ns3:TrackPointExtension>
            <ns3:hr>65</ns3:hr>
            <ns3:cad>0</ns3:cad>
          </ns3:TrackPointExtension>
        </extensions>
      </trkpt>
      <trkpt lat="43.47185592167079448699951171875" lon="1.43204388208687305450439453125">
        <ele>253</ele>
        <time>2026-08-05T10:42:08.000Z</time>
        <extensions>
          <ns3:TrackPointExtension>
            <ns3:hr>66</ns3:hr>
            <ns3:cad>0</ns3:cad>
          </ns3:TrackPointExtension>
        </extensions>
      </trkpt>
      <trkpt lat="43.47185592167079448699951171875" lon="1.43204388208687305450439453125">
        <ele>253</ele>
        <time>2026-08-05T10:42:09.000Z</time>
        <extensions>
          <ns3:TrackPointExtension>
            <ns3:hr>68</ns3:hr>
            <ns3:cad>0</ns3:cad>
          </ns3:TrackPointExtension>
        </extensions>
      </trkpt>
      <trkpt lat="43.47185592167079448699951171875" lon="1.43204388208687305450439453125">
        <ele>253</ele>
        <time>2026-08-05T10:42:10.000Z</time>
        <extensions>
          <ns3:TrackPointExtension>
            <ns3:hr>70</ns3:hr>
            <ns3:cad>0</ns3:cad>
          </ns3:TrackPointExtension>
        </extensions>
      </trkpt>
      <trkpt lat="43.47185592167079448699951171875" lon="1.43204388208687305450439453125">
        <ele>253</ele>
        <time>2026-08-05T10:42:11.000Z</time>
        <extensions>
          <ns3:TrackPointExtension>
            <ns3:hr>71</ns3:hr>
            <ns3:cad>0</ns3:cad>
          </ns3:TrackPointExtension>
        </extensions>
      </trkpt>
      <trkpt lat="43.47185592167079448699951171875" lon="1.43204388208687305450439453125">
        <ele>253</ele>
        <time>2026-08-05T10:42:12.000Z</time>
        <extensions>
          <ns3:TrackPointExtension>
            <ns3:hr>71</ns3:hr>
            <ns3:cad>0</ns3:cad>
          </ns3:TrackPointExtension>
        </extensions>
      </trkpt>
      <trkpt lat="43.47185592167079448699951171875" lon="1.43204388208687305450439453125">
        <ele>253</ele>
        <time>2026-08-05T10:42:13.000Z</time>
        <extensions>
          <ns3:TrackPointExtension>
            <ns3:hr>71</ns3:hr>
            <ns3:cad>0</ns3:cad>
          </ns3:TrackPointExtension>
        </extensions>
      </trkpt>
      <trkpt lat="43.47185592167079448699951171875" lon="1.43204388208687305450439453125">
        <ele>253</ele>
        <time>2026-08-05T10:42:14.000Z</time>
        <extensions>
          <ns3:TrackPointExtension>
            <ns3:hr>71</ns3:hr>
            <ns3:cad>0</ns3:cad>
          </ns3:TrackPointExtension>
        </extensions>
      </trkpt>
      <trkpt lat="43.47185592167079448699951171875" lon="1.43204388208687305450439453125">
        <ele>252.8000030517578125</ele>
        <time>2026-08-05T10:42:15.000Z</time>
        <extensions>
          <ns3:TrackPointExtension>
            <ns3:hr>72</ns3:hr>
            <ns3:cad>0</ns3:cad>
          </ns3:TrackPointExtension>
        </extensions>
      </trkpt>
      <trkpt lat="43.47185592167079448699951171875" lon="1.43204388208687305450439453125">
        <ele>252.8000030517578125</ele>
        <time>2026-08-05T10:42:16.000Z</time>
        <extensions>
          <ns3:TrackPointExtension>
            <ns3:hr>72</ns3:hr>
            <ns3:cad>0</ns3:cad>
          </ns3:TrackPointExtension>
        </extensions>
      </trkpt>
      <trkpt lat="43.47185592167079448699951171875" lon="1.43204388208687305450439453125">
        <ele>252.8000030517578125</ele>
        <time>2026-08-05T10:42:17.000Z</time>
        <extensions>
          <ns3:TrackPointExtension>
            <ns3:hr>72</ns3:hr>
            <ns3:cad>0</ns3:cad>
          </ns3:TrackPointExtension>
        </extensions>
      </trkpt>
      <trkpt lat="43.47185592167079448699951171875" lon="1.43204388208687305450439453125">
        <ele>252.8000030517578125</ele>
        <time>2026-08-05T10:42:18.000Z</time>
        <extensions>
          <ns3:TrackPointExtension>
            <ns3:hr>72</ns3:hr>
            <ns3:cad>0</ns3:cad>
          </ns3:TrackPointExtension>
        </extensions>
      </trkpt>
      <trkpt lat="43.47185592167079448699951171875" lon="1.43204388208687305450439453125">
        <ele>252.8000030517578125</ele>
        <time>2026-08-05T10:42:19.000Z</time>
        <extensions>
          <ns3:TrackPointExtension>
            <ns3:hr>72</ns3:hr>
            <ns3:cad>0</ns3:cad>
          </ns3:TrackPointExtension>
        </extensions>
      </trkpt>
      <trkpt lat="43.47185592167079448699951171875" lon="1.43204388208687305450439453125">
        <ele>252.8000030517578125</ele>
        <time>2026-08-05T10:42:20.000Z</time>
        <extensions>
          <ns3:TrackPointExtension>
            <ns3:hr>72</ns3:hr>
            <ns3:cad>0</ns3:cad>
          </ns3:TrackPointExtension>
        </extensions>
      </trkpt>
      <trkpt lat="43.47185592167079448699951171875" lon="1.43204388208687305450439453125">
        <ele>252.8000030517578125</ele>
        <time>2026-08-05T10:42:21.000Z</time>
        <extensions>
          <ns3:TrackPointExtension>
            <ns3:hr>71</ns3:hr>
            <ns3:cad>0</ns3:cad>
          </ns3:TrackPointExtension>
        </extensions>
      </trkpt>
      <trkpt lat="43.47185592167079448699951171875" lon="1.43204388208687305450439453125">
        <ele>252.8000030517578125</ele>
        <time>2026-08-05T10:42:22.000Z</time>
        <extensions>
          <ns3:TrackPointExtension>
            <ns3:hr>70</ns3:hr>
            <ns3:cad>0</ns3:cad>
          </ns3:TrackPointExtension>
        </extensions>
      </trkpt>
      <trkpt lat="43.47185592167079448699951171875" lon="1.43204388208687305450439453125">
        <ele>252.8000030517578125</ele>
        <time>2026-08-05T10:42:23.000Z</time>
        <extensions>
          <ns3:TrackPointExtension>
            <ns3:hr>70</ns3:hr>
            <ns3:cad>0</ns3:cad>
          </ns3:TrackPointExtension>
        </extensions>
      </trkpt>
      <trkpt lat="43.47185592167079448699951171875" lon="1.43204388208687305450439453125">
        <ele>252.8000030517578125</ele>
        <time>2026-08-05T10:42:24.000Z</time>
        <extensions>
          <ns3:TrackPointExtension>
            <ns3:hr>70</ns3:hr>
            <ns3:cad>0</ns3:cad>
          </ns3:TrackPointExtension>
        </extensions>
      </trkpt>
      <trkpt lat="43.47185592167079448699951171875" lon="1.43204388208687305450439453125">
        <ele>253</ele>
        <time>2026-08-05T10:42:25.000Z</time>
        <extensions>
          <ns3:TrackPointExtension>
            <ns3:hr>70</ns3:hr>
            <ns3:cad>0</ns3:cad>
          </ns3:TrackPointExtension>
        </extensions>
      </trkpt>
      <trkpt lat="43.47185592167079448699951171875" lon="1.43204388208687305450439453125">
        <ele>252.8000030517578125</ele>
        <time>2026-08-05T10:42:26.000Z</time>
        <extensions>
          <ns3:TrackPointExtension>
            <ns3:hr>69</ns3:hr>
            <ns3:cad>0</ns3:cad>
          </ns3:TrackPointExtension>
        </extensions>
      </trkpt>
      <trkpt lat="43.47185592167079448699951171875" lon="1.43204388208687305450439453125">
        <ele>252.8000030517578125</ele>
        <time>2026-08-05T10:42:27.000Z</time>
        <extensions>
          <ns3:TrackPointExtension>
            <ns3:hr>69</ns3:hr>
            <ns3:cad>0</ns3:cad>
          </ns3:TrackPointExtension>
        </extensions>
      </trkpt>
      <trkpt lat="43.47185592167079448699951171875" lon="1.43204388208687305450439453125">
        <ele>252.8000030517578125</ele>
        <time>2026-08-05T10:42:28.000Z</time>
        <extensions>
          <ns3:TrackPointExtension>
            <ns3:hr>69</ns3:hr>
            <ns3:cad>0</ns3:cad>
          </ns3:TrackPointExtension>
        </extensions>
      </trkpt>
      <trkpt lat="43.47185592167079448699951171875" lon="1.43204388208687305450439453125">
        <ele>252.600006103515625</ele>
        <time>2026-08-05T10:42:29.000Z</time>
        <extensions>
          <ns3:TrackPointExtension>
            <ns3:hr>69</ns3:hr>
            <ns3:cad>0</ns3:cad>
          </ns3:TrackPointExtension>
        </extensions>
      </trkpt>
      <trkpt lat="43.47185592167079448699951171875" lon="1.43204388208687305450439453125">
        <ele>252.600006103515625</ele>
        <time>2026-08-05T10:42:30.000Z</time>
        <extensions>
          <ns3:TrackPointExtension>
            <ns3:hr>69</ns3:hr>
            <ns3:cad>0</ns3:cad>
          </ns3:TrackPointExtension>
        </extensions>
      </trkpt>
      <trkpt lat="43.47185592167079448699951171875" lon="1.43204388208687305450439453125">
        <ele>252.600006103515625</ele>
        <time>2026-08-05T10:42:31.000Z</time>
        <extensions>
          <ns3:TrackPointExtension>
            <ns3:hr>70</ns3:hr>
            <ns3:cad>0</ns3:cad>
          </ns3:TrackPointExtension>
        </extensions>
      </trkpt>
      <trkpt lat="43.47185592167079448699951171875" lon="1.43204388208687305450439453125">
        <ele>252.8000030517578125</ele>
        <time>2026-08-05T10:42:32.000Z</time>
        <extensions>
          <ns3:TrackPointExtension>
            <ns3:hr>70</ns3:hr>
            <ns3:cad>0</ns3:cad>
          </ns3:TrackPointExtension>
        </extensions>
      </trkpt>
      <trkpt lat="43.47185592167079448699951171875" lon="1.43204388208687305450439453125">
        <ele>252.8000030517578125</ele>
        <time>2026-08-05T10:42:33.000Z</time>
        <extensions>
          <ns3:TrackPointExtension>
            <ns3:hr>71</ns3:hr>
            <ns3:cad>0</ns3:cad>
          </ns3:TrackPointExtension>
        </extensions>
      </trkpt>
      <trkpt lat="43.47185592167079448699951171875" lon="1.43204388208687305450439453125">
        <ele>252.8000030517578125</ele>
        <time>2026-08-05T10:42:34.000Z</time>
        <extensions>
          <ns3:TrackPointExtension>
            <ns3:hr>71</ns3:hr>
            <ns3:cad>0</ns3:cad>
          </ns3:TrackPointExtension>
        </extensions>
      </trkpt>
      <trkpt lat="43.47185592167079448699951171875" lon="1.43204388208687305450439453125">
        <ele>252.600006103515625</ele>
        <time>2026-08-05T10:42:35.000Z</time>
        <extensions>
          <ns3:TrackPointExtension>
            <ns3:hr>72</ns3:hr>
            <ns3:cad>0</ns3:cad>
          </ns3:TrackPointExtension>
        </extensions>
      </trkpt>
      <trkpt lat="43.4718588553369045257568359375" lon="1.43204840831458568572998046875">
        <ele>252.600006103515625</ele>
        <time>2026-08-05T10:42:36.000Z</time>
        <extensions>
          <ns3:TrackPointExtension>
            <ns3:hr>72</ns3:hr>
            <ns3:cad>0</ns3:cad>
          </ns3:TrackPointExtension>
        </extensions>
      </trkpt>
      <trkpt lat="43.47185793332755565643310546875" lon="1.4320493303239345550537109375">
        <ele>252.8000030517578125</ele>
        <time>2026-08-05T10:42:37.000Z</time>
        <extensions>
          <ns3:TrackPointExtension>
            <ns3:hr>72</ns3:hr>
            <ns3:cad>0</ns3:cad>
          </ns3:TrackPointExtension>
        </extensions>
      </trkpt>
      <trkpt lat="43.47185592167079448699951171875" lon="1.43204388208687305450439453125">
        <ele>252.8000030517578125</ele>
        <time>2026-08-05T10:42:38.000Z</time>
        <extensions>
          <ns3:TrackPointExtension>
            <ns3:hr>72</ns3:hr>
            <ns3:cad>0</ns3:cad>
          </ns3:TrackPointExtension>
        </extensions>
      </trkpt>
      <trkpt lat="43.47185592167079448699951171875" lon="1.43204388208687305450439453125">
        <ele>252.8000030517578125</ele>
        <time>2026-08-05T10:42:39.000Z</time>
        <extensions>
          <ns3:TrackPointExtension>
            <ns3:hr>73</ns3:hr>
            <ns3:cad>0</ns3:cad>
          </ns3:TrackPointExtension>
        </extensions>
      </trkpt>
      <trkpt lat="43.47185592167079448699951171875" lon="1.43204388208687305450439453125">
        <ele>253</ele>
        <time>2026-08-05T10:42:40.000Z</time>
        <extensions>
          <ns3:TrackPointExtension>
            <ns3:hr>73</ns3:hr>
            <ns3:cad>0</ns3:cad>
          </ns3:TrackPointExtension>
        </extensions>
      </trkpt>
      <trkpt lat="43.47185592167079448699951171875" lon="1.43204388208687305450439453125">
        <ele>253</ele>
        <time>2026-08-05T10:42:41.000Z</time>
        <extensions>
          <ns3:TrackPointExtension>
            <ns3:hr>74</ns3:hr>
            <ns3:cad>0</ns3:cad>
          </ns3:TrackPointExtension>
        </extensions>
      </trkpt>
      <trkpt lat="43.47185592167079448699951171875" lon="1.43204388208687305450439453125">
        <ele>253</ele>
        <time>2026-08-05T10:42:42.000Z</time>
        <extensions>
          <ns3:TrackPointExtension>
            <ns3:hr>74</ns3:hr>
            <ns3:cad>0</ns3:cad>
          </ns3:TrackPointExtension>
        </extensions>
      </trkpt>
      <trkpt lat="43.47185592167079448699951171875" lon="1.43204388208687305450439453125">
        <ele>253</ele>
        <time>2026-08-05T10:42:43.000Z</time>
        <extensions>
          <ns3:TrackPointExtension>
            <ns3:hr>74</ns3:hr>
            <ns3:cad>0</ns3:cad>
          </ns3:TrackPointExtension>
        </extensions>
      </trkpt>
      <trkpt lat="43.47185592167079448699951171875" lon="1.43204388208687305450439453125">
        <ele>253</ele>
        <time>2026-08-05T10:42:44.000Z</time>
        <extensions>
          <ns3:TrackPointExtension>
            <ns3:hr>73</ns3:hr>
            <ns3:cad>0</ns3:cad>
          </ns3:TrackPointExtension>
        </extensions>
      </trkpt>
      <trkpt lat="43.47185592167079448699951171875" lon="1.43204388208687305450439453125">
        <ele>253</ele>
        <time>2026-08-05T10:42:45.000Z</time>
        <extensions>
          <ns3:TrackPointExtension>
            <ns3:hr>74</ns3:hr>
            <ns3:cad>0</ns3:cad>
          </ns3:TrackPointExtension>
        </extensions>
      </trkpt>
      <trkpt lat="43.47185592167079448699951171875" lon="1.43204388208687305450439453125">
        <ele>253</ele>
        <time>2026-08-05T10:42:46.000Z</time>
        <extensions>
          <ns3:TrackPointExtension>
            <ns3:hr>75</ns3:hr>
            <ns3:cad>0</ns3:cad>
          </ns3:TrackPointExtension>
        </extensions>
      </trkpt>
      <trkpt lat="43.47185592167079448699951171875" lon="1.43204388208687305450439453125">
        <ele>253</ele>
        <time>2026-08-05T10:42:47.000Z</time>
        <extensions>
          <ns3:TrackPointExtension>
            <ns3:hr>75</ns3:hr>
            <ns3:cad>0</ns3:cad>
          </ns3:TrackPointExtension>
        </extensions>
      </trkpt>
      <trkpt lat="43.47185592167079448699951171875" lon="1.43204388208687305450439453125">
        <ele>252.8000030517578125</ele>
        <time>2026-08-05T10:42:48.000Z</time>
        <extensions>
          <ns3:TrackPointExtension>
            <ns3:hr>75</ns3:hr>
            <ns3:cad>0</ns3:cad>
          </ns3:TrackPointExtension>
        </extensions>
      </trkpt>
      <trkpt lat="43.47185592167079448699951171875" lon="1.43204388208687305450439453125">
        <ele>252.8000030517578125</ele>
        <time>2026-08-05T10:42:49.000Z</time>
        <extensions>
          <ns3:TrackPointExtension>
            <ns3:hr>75</ns3:hr>
            <ns3:cad>0</ns3:cad>
          </ns3:TrackPointExtension>
        </extensions>
      </trkpt>
      <trkpt lat="43.47185592167079448699951171875" lon="1.43204388208687305450439453125">
        <ele>252.8000030517578125</ele>
        <time>2026-08-05T10:42:50.000Z</time>
        <extensions>
          <ns3:TrackPointExtension>
            <ns3:hr>75</ns3:hr>
            <ns3:cad>0</ns3:cad>
          </ns3:TrackPointExtension>
        </extensions>
      </trkpt>
      <trkpt lat="43.47185592167079448699951171875" lon="1.43204388208687305450439453125">
        <ele>252.8000030517578125</ele>
        <time>2026-08-05T10:42:51.000Z</time>
        <extensions>
          <ns3:TrackPointExtension>
            <ns3:hr>75</ns3:hr>
            <ns3:cad>0</ns3:cad>
          </ns3:TrackPointExtension>
        </extensions>
      </trkpt>
      <trkpt lat="43.47185592167079448699951171875" lon="1.43204388208687305450439453125">
        <ele>252.8000030517578125</ele>
        <time>2026-08-05T10:42:52.000Z</time>
        <extensions>
          <ns3:TrackPointExtension>
            <ns3:hr>76</ns3:hr>
            <ns3:cad>0</ns3:cad>
          </ns3:TrackPointExtension>
        </extensions>
      </trkpt>
      <trkpt lat="43.47185592167079448699951171875" lon="1.43204388208687305450439453125">
        <ele>253</ele>
        <time>2026-08-05T10:42:53.000Z</time>
        <extensions>
          <ns3:TrackPointExtension>
            <ns3:hr>76</ns3:hr>
            <ns3:cad>0</ns3:cad>
          </ns3:TrackPointExtension>
        </extensions>
      </trkpt>
      <trkpt lat="43.47185592167079448699951171875" lon="1.43204388208687305450439453125">
        <ele>253</ele>
        <time>2026-08-05T10:42:54.000Z</time>
        <extensions>
          <ns3:TrackPointExtension>
            <ns3:hr>77</ns3:hr>
            <ns3:cad>0</ns3:cad>
          </ns3:TrackPointExtension>
        </extensions>
      </trkpt>
      <trkpt lat="43.47185592167079448699951171875" lon="1.43204388208687305450439453125">
        <ele>253</ele>
        <time>2026-08-05T10:42:55.000Z</time>
        <extensions>
          <ns3:TrackPointExtension>
            <ns3:hr>78</ns3:hr>
            <ns3:cad>0</ns3:cad>
          </ns3:TrackPointExtension>
        </extensions>
      </trkpt>
      <trkpt lat="43.47185592167079448699951171875" lon="1.43204388208687305450439453125">
        <ele>253</ele>
        <time>2026-08-05T10:42:56.000Z</time>
        <extensions>
          <ns3:TrackPointExtension>
            <ns3:hr>77</ns3:hr>
            <ns3:cad>0</ns3:cad>
          </ns3:TrackPointExtension>
        </extensions>
      </trkpt>
      <trkpt lat="43.47185592167079448699951171875" lon="1.43204388208687305450439453125">
        <ele>253</ele>
        <time>2026-08-05T10:42:57.000Z</time>
        <extensions>
          <ns3:TrackPointExtension>
            <ns3:hr>77</ns3:hr>
            <ns3:cad>0</ns3:cad>
          </ns3:TrackPointExtension>
        </extensions>
      </trkpt>
      <trkpt lat="43.47185592167079448699951171875" lon="1.43204388208687305450439453125">
        <ele>253</ele>
        <time>2026-08-05T10:42:58.000Z</time>
        <extensions>
          <ns3:TrackPointExtension>
            <ns3:hr>77</ns3:hr>
            <ns3:cad>0</ns3:cad>
          </ns3:TrackPointExtension>
        </extensions>
      </trkpt>
      <trkpt lat="43.47185592167079448699951171875" lon="1.43204388208687305450439453125">
        <ele>253.1999969482421875</ele>
        <time>2026-08-05T10:42:59.000Z</time>
        <extensions>
          <ns3:TrackPointExtension>
            <ns3:hr>77</ns3:hr>
            <ns3:cad>0</ns3:cad>
          </ns3:TrackPointExtension>
        </extensions>
      </trkpt>
      <trkpt lat="43.4718605317175388336181640625" lon="1.4320503361523151397705078125">
        <ele>253.1999969482421875</ele>
        <time>2026-08-05T10:43:00.000Z</time>
        <extensions>
          <ns3:TrackPointExtension>
            <ns3:hr>76</ns3:hr>
            <ns3:cad>0</ns3:cad>
          </ns3:TrackPointExtension>
        </extensions>
      </trkpt>
      <trkpt lat="43.4718575142323970794677734375" lon="1.43205410800874233245849609375">
        <ele>253.399993896484375</ele>
        <time>2026-08-05T10:43:01.000Z</time>
        <extensions>
          <ns3:TrackPointExtension>
            <ns3:hr>76</ns3:hr>
            <ns3:cad>0</ns3:cad>
          </ns3:TrackPointExtension>
        </extensions>
      </trkpt>
      <trkpt lat="43.47185592167079448699951171875" lon="1.43204388208687305450439453125">
        <ele>253.399993896484375</ele>
        <time>2026-08-05T10:43:02.000Z</time>
        <extensions>
          <ns3:TrackPointExtension>
            <ns3:hr>75</ns3:hr>
            <ns3:cad>0</ns3:cad>
          </ns3:TrackPointExtension>
        </extensions>
      </trkpt>
      <trkpt lat="43.47185592167079448699951171875" lon="1.43204388208687305450439453125">
        <ele>253.399993896484375</ele>
        <time>2026-08-05T10:43:03.000Z</time>
        <extensions>
          <ns3:TrackPointExtension>
            <ns3:hr>75</ns3:hr>
            <ns3:cad>0</ns3:cad>
          </ns3:TrackPointExtension>
        </extensions>
      </trkpt>
      <trkpt lat="43.47185592167079448699951171875" lon="1.43204388208687305450439453125">
        <ele>253.399993896484375</ele>
        <time>2026-08-05T10:43:04.000Z</time>
        <extensions>
          <ns3:TrackPointExtension>
            <ns3:hr>75</ns3:hr>
            <ns3:cad>0</ns3:cad>
          </ns3:TrackPointExtension>
        </extensions>
      </trkpt>
      <trkpt lat="43.47185592167079448699951171875" lon="1.43204388208687305450439453125">
        <ele>253.1999969482421875</ele>
        <time>2026-08-05T10:43:05.000Z</time>
        <extensions>
          <ns3:TrackPointExtension>
            <ns3:hr>75</ns3:hr>
            <ns3:cad>0</ns3:cad>
          </ns3:TrackPointExtension>
        </extensions>
      </trkpt>
      <trkpt lat="43.47185592167079448699951171875" lon="1.43204388208687305450439453125">
        <ele>253.1999969482421875</ele>
        <time>2026-08-05T10:43:06.000Z</time>
        <extensions>
          <ns3:TrackPointExtension>
            <ns3:hr>75</ns3:hr>
            <ns3:cad>0</ns3:cad>
          </ns3:TrackPointExtension>
        </extensions>
      </trkpt>
      <trkpt lat="43.47185592167079448699951171875" lon="1.43204388208687305450439453125">
        <ele>253.1999969482421875</ele>
        <time>2026-08-05T10:43:07.000Z</time>
        <extensions>
          <ns3:TrackPointExtension>
            <ns3:hr>75</ns3:hr>
            <ns3:cad>0</ns3:cad>
          </ns3:TrackPointExtension>
        </extensions>
      </trkpt>
      <trkpt lat="43.47185592167079448699951171875" lon="1.43204388208687305450439453125">
        <ele>253.1999969482421875</ele>
        <time>2026-08-05T10:43:08.000Z</time>
        <extensions>
          <ns3:TrackPointExtension>
            <ns3:hr>75</ns3:hr>
            <ns3:cad>0</ns3:cad>
          </ns3:TrackPointExtension>
        </extensions>
      </trkpt>
      <trkpt lat="43.47185592167079448699951171875" lon="1.43204388208687305450439453125">
        <ele>253.1999969482421875</ele>
        <time>2026-08-05T10:43:09.000Z</time>
        <extensions>
          <ns3:TrackPointExtension>
            <ns3:hr>75</ns3:hr>
            <ns3:cad>0</ns3:cad>
          </ns3:TrackPointExtension>
        </extensions>
      </trkpt>
      <trkpt lat="43.47185592167079448699951171875" lon="1.43204388208687305450439453125">
        <ele>253.1999969482421875</ele>
        <time>2026-08-05T10:43:10.000Z</time>
        <extensions>
          <ns3:TrackPointExtension>
            <ns3:hr>75</ns3:hr>
            <ns3:cad>0</ns3:cad>
          </ns3:TrackPointExtension>
        </extensions>
      </trkpt>
      <trkpt lat="43.47185592167079448699951171875" lon="1.43204388208687305450439453125">
        <ele>253.1999969482421875</ele>
        <time>2026-08-05T10:43:11.000Z</time>
        <extensions>
          <ns3:TrackPointExtension>
            <ns3:hr>77</ns3:hr>
            <ns3:cad>0</ns3:cad>
          </ns3:TrackPointExtension>
        </extensions>
      </trkpt>
      <trkpt lat="43.47185592167079448699951171875" lon="1.43204388208687305450439453125">
        <ele>253</ele>
        <time>2026-08-05T10:43:12.000Z</time>
        <extensions>
          <ns3:TrackPointExtension>
            <ns3:hr>77</ns3:hr>
            <ns3:cad>0</ns3:cad>
          </ns3:TrackPointExtension>
        </extensions>
      </trkpt>
      <trkpt lat="43.47185592167079448699951171875" lon="1.43204388208687305450439453125">
        <ele>253</ele>
        <time>2026-08-05T10:43:13.000Z</time>
        <extensions>
          <ns3:TrackPointExtension>
            <ns3:hr>77</ns3:hr>
            <ns3:cad>0</ns3:cad>
          </ns3:TrackPointExtension>
        </extensions>
      </trkpt>
      <trkpt lat="43.47185592167079448699951171875" lon="1.43204388208687305450439453125">
        <ele>253</ele>
        <time>2026-08-05T10:43:14.000Z</time>
        <extensions>
          <ns3:TrackPointExtension>
            <ns3:hr>77</ns3:hr>
            <ns3:cad>0</ns3:cad>
          </ns3:TrackPointExtension>
        </extensions>
      </trkpt>
      <trkpt lat="43.47185592167079448699951171875" lon="1.43204388208687305450439453125">
        <ele>253</ele>
        <time>2026-08-05T10:43:15.000Z</time>
        <extensions>
          <ns3:TrackPointExtension>
            <ns3:hr>77</ns3:hr>
            <ns3:cad>0</ns3:cad>
          </ns3:TrackPointExtension>
        </extensions>
      </trkpt>
      <trkpt lat="43.47185592167079448699951171875" lon="1.43204388208687305450439453125">
        <ele>253</ele>
        <time>2026-08-05T10:43:16.000Z</time>
        <extensions>
          <ns3:TrackPointExtension>
            <ns3:hr>77</ns3:hr>
            <ns3:cad>0</ns3:cad>
          </ns3:TrackPointExtension>
        </extensions>
      </trkpt>
      <trkpt lat="43.47185592167079448699951171875" lon="1.43204388208687305450439453125">
        <ele>253</ele>
        <time>2026-08-05T10:43:17.000Z</time>
        <extensions>
          <ns3:TrackPointExtension>
            <ns3:hr>77</ns3:hr>
            <ns3:cad>0</ns3:cad>
          </ns3:TrackPointExtension>
        </extensions>
      </trkpt>
      <trkpt lat="43.47185592167079448699951171875" lon="1.43204388208687305450439453125">
        <ele>253</ele>
        <time>2026-08-05T10:43:18.000Z</time>
        <extensions>
          <ns3:TrackPointExtension>
            <ns3:hr>77</ns3:hr>
            <ns3:cad>0</ns3:cad>
          </ns3:TrackPointExtension>
        </extensions>
      </trkpt>
      <trkpt lat="43.47185592167079448699951171875" lon="1.43204388208687305450439453125">
        <ele>253</ele>
        <time>2026-08-05T10:43:19.000Z</time>
        <extensions>
          <ns3:TrackPointExtension>
            <ns3:hr>77</ns3:hr>
            <ns3:cad>0</ns3:cad>
          </ns3:TrackPointExtension>
        </extensions>
      </trkpt>
      <trkpt lat="43.47185592167079448699951171875" lon="1.43204388208687305450439453125">
        <ele>253</ele>
        <time>2026-08-05T10:43:20.000Z</time>
        <extensions>
          <ns3:TrackPointExtension>
            <ns3:hr>78</ns3:hr>
            <ns3:cad>0</ns3:cad>
          </ns3:TrackPointExtension>
        </extensions>
      </trkpt>
      <trkpt lat="43.47185960970818996429443359375" lon="1.43205712549388408660888671875">
        <ele>253</ele>
        <time>2026-08-05T10:43:21.000Z</time>
        <extensions>
          <ns3:TrackPointExtension>
            <ns3:hr>77</ns3:hr>
            <ns3:cad>0</ns3:cad>
          </ns3:TrackPointExtension>
        </extensions>
      </trkpt>
      <trkpt lat="43.471860028803348541259765625" lon="1.4320541918277740478515625">
        <ele>253</ele>
        <time>2026-08-05T10:43:22.000Z</time>
        <extensions>
          <ns3:TrackPointExtension>
            <ns3:hr>77</ns3:hr>
            <ns3:cad>0</ns3:cad>
          </ns3:TrackPointExtension>
        </extensions>
      </trkpt>
      <trkpt lat="43.47186061553657054901123046875" lon="1.4320590533316135406494140625">
        <ele>253</ele>
        <time>2026-08-05T10:43:23.000Z</time>
        <extensions>
          <ns3:TrackPointExtension>
            <ns3:hr>77</ns3:hr>
            <ns3:cad>0</ns3:cad>
          </ns3:TrackPointExtension>
        </extensions>
      </trkpt>
      <trkpt lat="43.47185592167079448699951171875" lon="1.43204388208687305450439453125">
        <ele>253</ele>
        <time>2026-08-05T10:43:24.000Z</time>
        <extensions>
          <ns3:TrackPointExtension>
            <ns3:hr>77</ns3:hr>
            <ns3:cad>0</ns3:cad>
          </ns3:TrackPointExtension>
        </extensions>
      </trkpt>
      <trkpt lat="43.47185592167079448699951171875" lon="1.43204388208687305450439453125">
        <ele>253</ele>
        <time>2026-08-05T10:43:25.000Z</time>
        <extensions>
          <ns3:TrackPointExtension>
            <ns3:hr>76</ns3:hr>
            <ns3:cad>0</ns3:cad>
          </ns3:TrackPointExtension>
        </extensions>
      </trkpt>
      <trkpt lat="43.47185592167079448699951171875" lon="1.43204388208687305450439453125">
        <ele>253</ele>
        <time>2026-08-05T10:43:26.000Z</time>
        <extensions>
          <ns3:TrackPointExtension>
            <ns3:hr>75</ns3:hr>
            <ns3:cad>0</ns3:cad>
          </ns3:TrackPointExtension>
        </extensions>
      </trkpt>
      <trkpt lat="43.4718635492026805877685546875" lon="1.4320546947419643402099609375">
        <ele>253</ele>
        <time>2026-08-05T10:43:27.000Z</time>
        <extensions>
          <ns3:TrackPointExtension>
            <ns3:hr>74</ns3:hr>
            <ns3:cad>0</ns3:cad>
          </ns3:TrackPointExtension>
        </extensions>
      </trkpt>
      <trkpt lat="43.47185592167079448699951171875" lon="1.43204388208687305450439453125">
        <ele>253.1999969482421875</ele>
        <time>2026-08-05T10:43:28.000Z</time>
        <extensions>
          <ns3:TrackPointExtension>
            <ns3:hr>75</ns3:hr>
            <ns3:cad>0</ns3:cad>
          </ns3:TrackPointExtension>
        </extensions>
      </trkpt>
      <trkpt lat="43.47185592167079448699951171875" lon="1.43204388208687305450439453125">
        <ele>253.399993896484375</ele>
        <time>2026-08-05T10:43:29.000Z</time>
        <extensions>
          <ns3:TrackPointExtension>
            <ns3:hr>76</ns3:hr>
            <ns3:cad>0</ns3:cad>
          </ns3:TrackPointExtension>
        </extensions>
      </trkpt>
      <trkpt lat="43.47185592167079448699951171875" lon="1.43204388208687305450439453125">
        <ele>253.399993896484375</ele>
        <time>2026-08-05T10:43:30.000Z</time>
        <extensions>
          <ns3:TrackPointExtension>
            <ns3:hr>76</ns3:hr>
            <ns3:cad>0</ns3:cad>
          </ns3:TrackPointExtension>
        </extensions>
      </trkpt>
      <trkpt lat="43.47185592167079448699951171875" lon="1.43204388208687305450439453125">
        <ele>253.399993896484375</ele>
        <time>2026-08-05T10:43:31.000Z</time>
        <extensions>
          <ns3:TrackPointExtension>
            <ns3:hr>76</ns3:hr>
            <ns3:cad>0</ns3:cad>
          </ns3:TrackPointExtension>
        </extensions>
      </trkpt>
      <trkpt lat="43.47185592167079448699951171875" lon="1.43204388208687305450439453125">
        <ele>253.399993896484375</ele>
        <time>2026-08-05T10:43:32.000Z</time>
        <extensions>
          <ns3:TrackPointExtension>
            <ns3:hr>76</ns3:hr>
            <ns3:cad>0</ns3:cad>
          </ns3:TrackPointExtension>
        </extensions>
      </trkpt>
      <trkpt lat="43.47185592167079448699951171875" lon="1.43204388208687305450439453125">
        <ele>253.1999969482421875</ele>
        <time>2026-08-05T10:43:33.000Z</time>
        <extensions>
          <ns3:TrackPointExtension>
            <ns3:hr>77</ns3:hr>
            <ns3:cad>0</ns3:cad>
          </ns3:TrackPointExtension>
        </extensions>
      </trkpt>
      <trkpt lat="43.47185592167079448699951171875" lon="1.43204388208687305450439453125">
        <ele>253</ele>
        <time>2026-08-05T10:43:34.000Z</time>
        <extensions>
          <ns3:TrackPointExtension>
            <ns3:hr>76</ns3:hr>
            <ns3:cad>0</ns3:cad>
          </ns3:TrackPointExtension>
        </extensions>
      </trkpt>
      <trkpt lat="43.47185592167079448699951171875" lon="1.43204388208687305450439453125">
        <ele>253</ele>
        <time>2026-08-05T10:43:35.000Z</time>
        <extensions>
          <ns3:TrackPointExtension>
            <ns3:hr>76</ns3:hr>
            <ns3:cad>0</ns3:cad>
          </ns3:TrackPointExtension>
        </extensions>
      </trkpt>
      <trkpt lat="43.47185592167079448699951171875" lon="1.43204388208687305450439453125">
        <ele>253</ele>
        <time>2026-08-05T10:43:36.000Z</time>
        <extensions>
          <ns3:TrackPointExtension>
            <ns3:hr>77</ns3:hr>
            <ns3:cad>0</ns3:cad>
          </ns3:TrackPointExtension>
        </extensions>
      </trkpt>
      <trkpt lat="43.47185592167079448699951171875" lon="1.43204388208687305450439453125">
        <ele>253</ele>
        <time>2026-08-05T10:43:37.000Z</time>
        <extensions>
          <ns3:TrackPointExtension>
            <ns3:hr>76</ns3:hr>
            <ns3:cad>0</ns3:cad>
          </ns3:TrackPointExtension>
        </extensions>
      </trkpt>
      <trkpt lat="43.47185592167079448699951171875" lon="1.43204388208687305450439453125">
        <ele>253</ele>
        <time>2026-08-05T10:43:38.000Z</time>
        <extensions>
          <ns3:TrackPointExtension>
            <ns3:hr>76</ns3:hr>
            <ns3:cad>0</ns3:cad>
          </ns3:TrackPointExtension>
        </extensions>
      </trkpt>
      <trkpt lat="43.47186514176428318023681640625" lon="1.43205142579972743988037109375">
        <ele>253</ele>
        <time>2026-08-05T10:43:39.000Z</time>
        <extensions>
          <ns3:TrackPointExtension>
            <ns3:hr>77</ns3:hr>
            <ns3:cad>0</ns3:cad>
          </ns3:TrackPointExtension>
        </extensions>
      </trkpt>
      <trkpt lat="43.4718702547252178192138671875" lon="1.432057209312915802001953125">
        <ele>253.1999969482421875</ele>
        <time>2026-08-05T10:43:40.000Z</time>
        <extensions>
          <ns3:TrackPointExtension>
            <ns3:hr>76</ns3:hr>
            <ns3:cad>0</ns3:cad>
          </ns3:TrackPointExtension>
        </extensions>
      </trkpt>
      <trkpt lat="43.47186732105910778045654296875" lon="1.43205964006483554840087890625">
        <ele>253.1999969482421875</ele>
        <time>2026-08-05T10:43:41.000Z</time>
        <extensions>
          <ns3:TrackPointExtension>
            <ns3:hr>76</ns3:hr>
            <ns3:cad>0</ns3:cad>
          </ns3:TrackPointExtension>
        </extensions>
      </trkpt>
      <trkpt lat="43.47186665050685405731201171875" lon="1.43206031061708927154541015625">
        <ele>253.1999969482421875</ele>
        <time>2026-08-05T10:43:42.000Z</time>
        <extensions>
          <ns3:TrackPointExtension>
            <ns3:hr>74</ns3:hr>
            <ns3:cad>0</ns3:cad>
          </ns3:TrackPointExtension>
        </extensions>
      </trkpt>
      <trkpt lat="43.4718610346317291259765625" lon="1.4320660941302776336669921875">
        <ele>253.1999969482421875</ele>
        <time>2026-08-05T10:43:43.000Z</time>
        <extensions>
          <ns3:TrackPointExtension>
            <ns3:hr>74</ns3:hr>
            <ns3:cad>0</ns3:cad>
          </ns3:TrackPointExtension>
        </extensions>
      </trkpt>
      <trkpt lat="43.4718568436801433563232421875" lon="1.43206165172159671783447265625">
        <ele>253.1999969482421875</ele>
        <time>2026-08-05T10:43:44.000Z</time>
        <extensions>
          <ns3:TrackPointExtension>
            <ns3:hr>74</ns3:hr>
            <ns3:cad>0</ns3:cad>
          </ns3:TrackPointExtension>
        </extensions>
      </trkpt>
      <trkpt lat="43.47185365855693817138671875" lon="1.43206265754997730255126953125">
        <ele>253</ele>
        <time>2026-08-05T10:43:45.000Z</time>
        <extensions>
          <ns3:TrackPointExtension>
            <ns3:hr>73</ns3:hr>
            <ns3:cad>0</ns3:cad>
          </ns3:TrackPointExtension>
        </extensions>
      </trkpt>
      <trkpt lat="43.47185005433857440948486328125" lon="1.43206383101642131805419921875">
        <ele>253</ele>
        <time>2026-08-05T10:43:46.000Z</time>
        <extensions>
          <ns3:TrackPointExtension>
            <ns3:hr>73</ns3:hr>
            <ns3:cad>0</ns3:cad>
          </ns3:TrackPointExtension>
        </extensions>
      </trkpt>
      <trkpt lat="43.4718498028814792633056640625" lon="1.432063914835453033447265625">
        <ele>252.8000030517578125</ele>
        <time>2026-08-05T10:43:47.000Z</time>
        <extensions>
          <ns3:TrackPointExtension>
            <ns3:hr>73</ns3:hr>
            <ns3:cad>0</ns3:cad>
          </ns3:TrackPointExtension>
        </extensions>
      </trkpt>
      <trkpt lat="43.4718498028814792633056640625" lon="1.432063914835453033447265625">
        <ele>252.600006103515625</ele>
        <time>2026-08-05T10:43:48.000Z</time>
        <extensions>
          <ns3:TrackPointExtension>
            <ns3:hr>73</ns3:hr>
            <ns3:cad>0</ns3:cad>
          </ns3:TrackPointExtension>
        </extensions>
      </trkpt>
      <trkpt lat="43.4718498028814792633056640625" lon="1.432063914835453033447265625">
        <ele>252.600006103515625</ele>
        <time>2026-08-05T10:43:49.000Z</time>
        <extensions>
          <ns3:TrackPointExtension>
            <ns3:hr>72</ns3:hr>
            <ns3:cad>0</ns3:cad>
          </ns3:TrackPointExtension>
        </extensions>
      </trkpt>
      <trkpt lat="43.4718498028814792633056640625" lon="1.432063914835453033447265625">
        <ele>252.399993896484375</ele>
        <time>2026-08-05T10:43:50.000Z</time>
        <extensions>
          <ns3:TrackPointExtension>
            <ns3:hr>72</ns3:hr>
            <ns3:cad>0</ns3:cad>
          </ns3:TrackPointExtension>
        </extensions>
      </trkpt>
      <trkpt lat="43.4718498028814792633056640625" lon="1.432063914835453033447265625">
        <ele>252.399993896484375</ele>
        <time>2026-08-05T10:43:51.000Z</time>
        <extensions>
          <ns3:TrackPointExtension>
            <ns3:hr>72</ns3:hr>
            <ns3:cad>0</ns3:cad>
          </ns3:TrackPointExtension>
        </extensions>
      </trkpt>
      <trkpt lat="43.4718498028814792633056640625" lon="1.432063914835453033447265625">
        <ele>252.399993896484375</ele>
        <time>2026-08-05T10:43:52.000Z</time>
        <extensions>
          <ns3:TrackPointExtension>
            <ns3:hr>71</ns3:hr>
            <ns3:cad>0</ns3:cad>
          </ns3:TrackPointExtension>
        </extensions>
      </trkpt>
      <trkpt lat="43.4718498028814792633056640625" lon="1.432063914835453033447265625">
        <ele>252.399993896484375</ele>
        <time>2026-08-05T10:43:53.000Z</time>
        <extensions>
          <ns3:TrackPointExtension>
            <ns3:hr>72</ns3:hr>
            <ns3:cad>0</ns3:cad>
          </ns3:TrackPointExtension>
        </extensions>
      </trkpt>
      <trkpt lat="43.4718498028814792633056640625" lon="1.432063914835453033447265625">
        <ele>252.399993896484375</ele>
        <time>2026-08-05T10:43:54.000Z</time>
        <extensions>
          <ns3:TrackPointExtension>
            <ns3:hr>72</ns3:hr>
            <ns3:cad>0</ns3:cad>
          </ns3:TrackPointExtension>
        </extensions>
      </trkpt>
      <trkpt lat="43.4718498028814792633056640625" lon="1.432063914835453033447265625">
        <ele>252.399993896484375</ele>
        <time>2026-08-05T10:43:55.000Z</time>
        <extensions>
          <ns3:TrackPointExtension>
            <ns3:hr>71</ns3:hr>
            <ns3:cad>0</ns3:cad>
          </ns3:TrackPointExtension>
        </extensions>
      </trkpt>
      <trkpt lat="43.4718498028814792633056640625" lon="1.432063914835453033447265625">
        <ele>252.399993896484375</ele>
        <time>2026-08-05T10:43:56.000Z</time>
        <extensions>
          <ns3:TrackPointExtension>
            <ns3:hr>71</ns3:hr>
            <ns3:cad>0</ns3:cad>
          </ns3:TrackPointExtension>
        </extensions>
      </trkpt>
      <trkpt lat="43.4718498028814792633056640625" lon="1.432063914835453033447265625">
        <ele>252.399993896484375</ele>
        <time>2026-08-05T10:43:57.000Z</time>
        <extensions>
          <ns3:TrackPointExtension>
            <ns3:hr>71</ns3:hr>
            <ns3:cad>0</ns3:cad>
          </ns3:TrackPointExtension>
        </extensions>
      </trkpt>
      <trkpt lat="43.4718498028814792633056640625" lon="1.432063914835453033447265625">
        <ele>252.399993896484375</ele>
        <time>2026-08-05T10:43:58.000Z</time>
        <extensions>
          <ns3:TrackPointExtension>
            <ns3:hr>70</ns3:hr>
            <ns3:cad>0</ns3:cad>
          </ns3:TrackPointExtension>
        </extensions>
      </trkpt>
      <trkpt lat="43.4718498028814792633056640625" lon="1.432063914835453033447265625">
        <ele>252.399993896484375</ele>
        <time>2026-08-05T10:43:59.000Z</time>
        <extensions>
          <ns3:TrackPointExtension>
            <ns3:hr>66</ns3:hr>
            <ns3:cad>0</ns3:cad>
          </ns3:TrackPointExtension>
        </extensions>
      </trkpt>
      <trkpt lat="43.4718498028814792633056640625" lon="1.432063914835453033447265625">
        <ele>252.399993896484375</ele>
        <time>2026-08-05T10:44:00.000Z</time>
        <extensions>
          <ns3:TrackPointExtension>
            <ns3:hr>65</ns3:hr>
            <ns3:cad>0</ns3:cad>
          </ns3:TrackPointExtension>
        </extensions>
      </trkpt>
      <trkpt lat="43.4718498028814792633056640625" lon="1.432063914835453033447265625">
        <ele>252.399993896484375</ele>
        <time>2026-08-05T10:44:01.000Z</time>
        <extensions>
          <ns3:TrackPointExtension>
            <ns3:hr>64</ns3:hr>
            <ns3:cad>0</ns3:cad>
          </ns3:TrackPointExtension>
        </extensions>
      </trkpt>
      <trkpt lat="43.4718498028814792633056640625" lon="1.432063914835453033447265625">
        <ele>252.399993896484375</ele>
        <time>2026-08-05T10:44:02.000Z</time>
        <extensions>
          <ns3:TrackPointExtension>
            <ns3:hr>64</ns3:hr>
            <ns3:cad>0</ns3:cad>
          </ns3:TrackPointExtension>
        </extensions>
      </trkpt>
      <trkpt lat="43.4718498028814792633056640625" lon="1.432063914835453033447265625">
        <ele>252.600006103515625</ele>
        <time>2026-08-05T10:44:03.000Z</time>
        <extensions>
          <ns3:TrackPointExtension>
            <ns3:hr>64</ns3:hr>
            <ns3:cad>0</ns3:cad>
          </ns3:TrackPointExtension>
        </extensions>
      </trkpt>
      <trkpt lat="43.4718498028814792633056640625" lon="1.432063914835453033447265625">
        <ele>252.600006103515625</ele>
        <time>2026-08-05T10:44:04.000Z</time>
        <extensions>
          <ns3:TrackPointExtension>
            <ns3:hr>65</ns3:hr>
            <ns3:cad>0</ns3:cad>
          </ns3:TrackPointExtension>
        </extensions>
      </trkpt>
      <trkpt lat="43.4718498028814792633056640625" lon="1.432063914835453033447265625">
        <ele>252.399993896484375</ele>
        <time>2026-08-05T10:44:05.000Z</time>
        <extensions>
          <ns3:TrackPointExtension>
            <ns3:hr>65</ns3:hr>
            <ns3:cad>0</ns3:cad>
          </ns3:TrackPointExtension>
        </extensions>
      </trkpt>
      <trkpt lat="43.4718498028814792633056640625" lon="1.432063914835453033447265625">
        <ele>252.399993896484375</ele>
        <time>2026-08-05T10:44:06.000Z</time>
        <extensions>
          <ns3:TrackPointExtension>
            <ns3:hr>65</ns3:hr>
            <ns3:cad>0</ns3:cad>
          </ns3:TrackPointExtension>
        </extensions>
      </trkpt>
      <trkpt lat="43.4718498028814792633056640625" lon="1.432063914835453033447265625">
        <ele>252.399993896484375</ele>
        <time>2026-08-05T10:44:07.000Z</time>
        <extensions>
          <ns3:TrackPointExtension>
            <ns3:hr>66</ns3:hr>
            <ns3:cad>0</ns3:cad>
          </ns3:TrackPointExtension>
        </extensions>
      </trkpt>
      <trkpt lat="43.4718498028814792633056640625" lon="1.432063914835453033447265625">
        <ele>252.399993896484375</ele>
        <time>2026-08-05T10:44:08.000Z</time>
        <extensions>
          <ns3:TrackPointExtension>
            <ns3:hr>68</ns3:hr>
            <ns3:cad>0</ns3:cad>
          </ns3:TrackPointExtension>
        </extensions>
      </trkpt>
      <trkpt lat="43.4718498028814792633056640625" lon="1.432063914835453033447265625">
        <ele>252.399993896484375</ele>
        <time>2026-08-05T10:44:09.000Z</time>
        <extensions>
          <ns3:TrackPointExtension>
            <ns3:hr>69</ns3:hr>
            <ns3:cad>0</ns3:cad>
          </ns3:TrackPointExtension>
        </extensions>
      </trkpt>
      <trkpt lat="43.4718498028814792633056640625" lon="1.432063914835453033447265625">
        <ele>252.399993896484375</ele>
        <time>2026-08-05T10:44:10.000Z</time>
        <extensions>
          <ns3:TrackPointExtension>
            <ns3:hr>69</ns3:hr>
            <ns3:cad>0</ns3:cad>
          </ns3:TrackPointExtension>
        </extensions>
      </trkpt>
      <trkpt lat="43.4718498028814792633056640625" lon="1.432063914835453033447265625">
        <ele>252.600006103515625</ele>
        <time>2026-08-05T10:44:11.000Z</time>
        <extensions>
          <ns3:TrackPointExtension>
            <ns3:hr>70</ns3:hr>
            <ns3:cad>0</ns3:cad>
          </ns3:TrackPointExtension>
        </extensions>
      </trkpt>
      <trkpt lat="43.4718498028814792633056640625" lon="1.432063914835453033447265625">
        <ele>252.399993896484375</ele>
        <time>2026-08-05T10:44:12.000Z</time>
        <extensions>
          <ns3:TrackPointExtension>
            <ns3:hr>70</ns3:hr>
            <ns3:cad>0</ns3:cad>
          </ns3:TrackPointExtension>
        </extensions>
      </trkpt>
      <trkpt lat="43.4718498028814792633056640625" lon="1.432063914835453033447265625">
        <ele>252.399993896484375</ele>
        <time>2026-08-05T10:44:13.000Z</time>
        <extensions>
          <ns3:TrackPointExtension>
            <ns3:hr>71</ns3:hr>
            <ns3:cad>0</ns3:cad>
          </ns3:TrackPointExtension>
        </extensions>
      </trkpt>
      <trkpt lat="43.4718498028814792633056640625" lon="1.432063914835453033447265625">
        <ele>252.399993896484375</ele>
        <time>2026-08-05T10:44:14.000Z</time>
        <extensions>
          <ns3:TrackPointExtension>
            <ns3:hr>71</ns3:hr>
            <ns3:cad>0</ns3:cad>
          </ns3:TrackPointExtension>
        </extensions>
      </trkpt>
      <trkpt lat="43.4718498028814792633056640625" lon="1.432063914835453033447265625">
        <ele>252.399993896484375</ele>
        <time>2026-08-05T10:44:15.000Z</time>
        <extensions>
          <ns3:TrackPointExtension>
            <ns3:hr>72</ns3:hr>
            <ns3:cad>0</ns3:cad>
          </ns3:TrackPointExtension>
        </extensions>
      </trkpt>
      <trkpt lat="43.4718498028814792633056640625" lon="1.432063914835453033447265625">
        <ele>252.399993896484375</ele>
        <time>2026-08-05T10:44:16.000Z</time>
        <extensions>
          <ns3:TrackPointExtension>
            <ns3:hr>74</ns3:hr>
            <ns3:cad>0</ns3:cad>
          </ns3:TrackPointExtension>
        </extensions>
      </trkpt>
      <trkpt lat="43.4718498028814792633056640625" lon="1.432063914835453033447265625">
        <ele>252.399993896484375</ele>
        <time>2026-08-05T10:44:17.000Z</time>
        <extensions>
          <ns3:TrackPointExtension>
            <ns3:hr>75</ns3:hr>
            <ns3:cad>0</ns3:cad>
          </ns3:TrackPointExtension>
        </extensions>
      </trkpt>
      <trkpt lat="43.4718498028814792633056640625" lon="1.432063914835453033447265625">
        <ele>252.399993896484375</ele>
        <time>2026-08-05T10:44:18.000Z</time>
        <extensions>
          <ns3:TrackPointExtension>
            <ns3:hr>76</ns3:hr>
            <ns3:cad>0</ns3:cad>
          </ns3:TrackPointExtension>
        </extensions>
      </trkpt>
      <trkpt lat="43.4718498028814792633056640625" lon="1.432063914835453033447265625">
        <ele>252.399993896484375</ele>
        <time>2026-08-05T10:44:19.000Z</time>
        <extensions>
          <ns3:TrackPointExtension>
            <ns3:hr>75</ns3:hr>
            <ns3:cad>0</ns3:cad>
          </ns3:TrackPointExtension>
        </extensions>
      </trkpt>
      <trkpt lat="43.4718498028814792633056640625" lon="1.432063914835453033447265625">
        <ele>252.399993896484375</ele>
        <time>2026-08-05T10:44:20.000Z</time>
        <extensions>
          <ns3:TrackPointExtension>
            <ns3:hr>74</ns3:hr>
            <ns3:cad>0</ns3:cad>
          </ns3:TrackPointExtension>
        </extensions>
      </trkpt>
      <trkpt lat="43.4718498028814792633056640625" lon="1.432063914835453033447265625">
        <ele>252.399993896484375</ele>
        <time>2026-08-05T10:44:21.000Z</time>
        <extensions>
          <ns3:TrackPointExtension>
            <ns3:hr>73</ns3:hr>
            <ns3:cad>0</ns3:cad>
          </ns3:TrackPointExtension>
        </extensions>
      </trkpt>
      <trkpt lat="43.4718498028814792633056640625" lon="1.432063914835453033447265625">
        <ele>252.399993896484375</ele>
        <time>2026-08-05T10:44:22.000Z</time>
        <extensions>
          <ns3:TrackPointExtension>
            <ns3:hr>73</ns3:hr>
            <ns3:cad>0</ns3:cad>
          </ns3:TrackPointExtension>
        </extensions>
      </trkpt>
      <trkpt lat="43.4718498028814792633056640625" lon="1.432063914835453033447265625">
        <ele>252.399993896484375</ele>
        <time>2026-08-05T10:44:23.000Z</time>
        <extensions>
          <ns3:TrackPointExtension>
            <ns3:hr>74</ns3:hr>
            <ns3:cad>0</ns3:cad>
          </ns3:TrackPointExtension>
        </extensions>
      </trkpt>
      <trkpt lat="43.4718498028814792633056640625" lon="1.432063914835453033447265625">
        <ele>252.399993896484375</ele>
        <time>2026-08-05T10:44:24.000Z</time>
        <extensions>
          <ns3:TrackPointExtension>
            <ns3:hr>74</ns3:hr>
            <ns3:cad>0</ns3:cad>
          </ns3:TrackPointExtension>
        </extensions>
      </trkpt>
      <trkpt lat="43.4718498028814792633056640625" lon="1.432063914835453033447265625">
        <ele>252.399993896484375</ele>
        <time>2026-08-05T10:44:25.000Z</time>
        <extensions>
          <ns3:TrackPointExtension>
            <ns3:hr>73</ns3:hr>
            <ns3:cad>0</ns3:cad>
          </ns3:TrackPointExtension>
        </extensions>
      </trkpt>
      <trkpt lat="43.4718498028814792633056640625" lon="1.432063914835453033447265625">
        <ele>252.399993896484375</ele>
        <time>2026-08-05T10:44:26.000Z</time>
        <extensions>
          <ns3:TrackPointExtension>
            <ns3:hr>73</ns3:hr>
            <ns3:cad>0</ns3:cad>
          </ns3:TrackPointExtension>
        </extensions>
      </trkpt>
      <trkpt lat="43.4718498028814792633056640625" lon="1.432063914835453033447265625">
        <ele>252.399993896484375</ele>
        <time>2026-08-05T10:44:27.000Z</time>
        <extensions>
          <ns3:TrackPointExtension>
            <ns3:hr>74</ns3:hr>
            <ns3:cad>0</ns3:cad>
          </ns3:TrackPointExtension>
        </extensions>
      </trkpt>
      <trkpt lat="43.4718498028814792633056640625" lon="1.432063914835453033447265625">
        <ele>252.399993896484375</ele>
        <time>2026-08-05T10:44:28.000Z</time>
        <extensions>
          <ns3:TrackPointExtension>
            <ns3:hr>74</ns3:hr>
            <ns3:cad>0</ns3:cad>
          </ns3:TrackPointExtension>
        </extensions>
      </trkpt>
      <trkpt lat="43.4718498028814792633056640625" lon="1.432063914835453033447265625">
        <ele>252.399993896484375</ele>
        <time>2026-08-05T10:44:29.000Z</time>
        <extensions>
          <ns3:TrackPointExtension>
            <ns3:hr>74</ns3:hr>
            <ns3:cad>0</ns3:cad>
          </ns3:TrackPointExtension>
        </extensions>
      </trkpt>
      <trkpt lat="43.4718498028814792633056640625" lon="1.432063914835453033447265625">
        <ele>252.399993896484375</ele>
        <time>2026-08-05T10:44:30.000Z</time>
        <extensions>
          <ns3:TrackPointExtension>
            <ns3:hr>74</ns3:hr>
            <ns3:cad>0</ns3:cad>
          </ns3:TrackPointExtension>
        </extensions>
      </trkpt>
      <trkpt lat="43.4718498028814792633056640625" lon="1.432063914835453033447265625">
        <ele>252.399993896484375</ele>
        <time>2026-08-05T10:44:31.000Z</time>
        <extensions>
          <ns3:TrackPointExtension>
            <ns3:hr>75</ns3:hr>
            <ns3:cad>0</ns3:cad>
          </ns3:TrackPointExtension>
        </extensions>
      </trkpt>
      <trkpt lat="43.4718498028814792633056640625" lon="1.432063914835453033447265625">
        <ele>252.399993896484375</ele>
        <time>2026-08-05T10:44:32.000Z</time>
        <extensions>
          <ns3:TrackPointExtension>
            <ns3:hr>74</ns3:hr>
            <ns3:cad>0</ns3:cad>
          </ns3:TrackPointExtension>
        </extensions>
      </trkpt>
      <trkpt lat="43.4718498028814792633056640625" lon="1.432063914835453033447265625">
        <ele>252.399993896484375</ele>
        <time>2026-08-05T10:44:33.000Z</time>
        <extensions>
          <ns3:TrackPointExtension>
            <ns3:hr>73</ns3:hr>
            <ns3:cad>0</ns3:cad>
          </ns3:TrackPointExtension>
        </extensions>
      </trkpt>
      <trkpt lat="43.4718498028814792633056640625" lon="1.432063914835453033447265625">
        <ele>252.399993896484375</ele>
        <time>2026-08-05T10:44:34.000Z</time>
        <extensions>
          <ns3:TrackPointExtension>
            <ns3:hr>74</ns3:hr>
            <ns3:cad>0</ns3:cad>
          </ns3:TrackPointExtension>
        </extensions>
      </trkpt>
      <trkpt lat="43.4718498028814792633056640625" lon="1.432063914835453033447265625">
        <ele>252.399993896484375</ele>
        <time>2026-08-05T10:44:35.000Z</time>
        <extensions>
          <ns3:TrackPointExtension>
            <ns3:hr>73</ns3:hr>
            <ns3:cad>0</ns3:cad>
          </ns3:TrackPointExtension>
        </extensions>
      </trkpt>
      <trkpt lat="43.4718498028814792633056640625" lon="1.432063914835453033447265625">
        <ele>252.399993896484375</ele>
        <time>2026-08-05T10:44:36.000Z</time>
        <extensions>
          <ns3:TrackPointExtension>
            <ns3:hr>73</ns3:hr>
            <ns3:cad>0</ns3:cad>
          </ns3:TrackPointExtension>
        </extensions>
      </trkpt>
      <trkpt lat="43.4718498028814792633056640625" lon="1.432063914835453033447265625">
        <ele>252.399993896484375</ele>
        <time>2026-08-05T10:44:37.000Z</time>
        <extensions>
          <ns3:TrackPointExtension>
            <ns3:hr>73</ns3:hr>
            <ns3:cad>0</ns3:cad>
          </ns3:TrackPointExtension>
        </extensions>
      </trkpt>
      <trkpt lat="43.4718498028814792633056640625" lon="1.432063914835453033447265625">
        <ele>252.399993896484375</ele>
        <time>2026-08-05T10:44:38.000Z</time>
        <extensions>
          <ns3:TrackPointExtension>
            <ns3:hr>73</ns3:hr>
            <ns3:cad>0</ns3:cad>
          </ns3:TrackPointExtension>
        </extensions>
      </trkpt>
      <trkpt lat="43.4718498028814792633056640625" lon="1.432063914835453033447265625">
        <ele>252.1999969482421875</ele>
        <time>2026-08-05T10:44:39.000Z</time>
        <extensions>
          <ns3:TrackPointExtension>
            <ns3:hr>75</ns3:hr>
            <ns3:cad>0</ns3:cad>
          </ns3:TrackPointExtension>
        </extensions>
      </trkpt>
      <trkpt lat="43.4718498028814792633056640625" lon="1.432063914835453033447265625">
        <ele>252.1999969482421875</ele>
        <time>2026-08-05T10:44:40.000Z</time>
        <extensions>
          <ns3:TrackPointExtension>
            <ns3:hr>75</ns3:hr>
            <ns3:cad>0</ns3:cad>
          </ns3:TrackPointExtension>
        </extensions>
      </trkpt>
      <trkpt lat="43.4718498028814792633056640625" lon="1.432063914835453033447265625">
        <ele>252.1999969482421875</ele>
        <time>2026-08-05T10:44:41.000Z</time>
        <extensions>
          <ns3:TrackPointExtension>
            <ns3:hr>74</ns3:hr>
            <ns3:cad>0</ns3:cad>
          </ns3:TrackPointExtension>
        </extensions>
      </trkpt>
      <trkpt lat="43.47185089252889156341552734375" lon="1.43206668086349964141845703125">
        <ele>252.1999969482421875</ele>
        <time>2026-08-05T10:44:42.000Z</time>
        <extensions>
          <ns3:TrackPointExtension>
            <ns3:hr>74</ns3:hr>
            <ns3:cad>0</ns3:cad>
          </ns3:TrackPointExtension>
        </extensions>
      </trkpt>
      <trkpt lat="43.4718498028814792633056640625" lon="1.432063914835453033447265625">
        <ele>252.1999969482421875</ele>
        <time>2026-08-05T10:44:43.000Z</time>
        <extensions>
          <ns3:TrackPointExtension>
            <ns3:hr>74</ns3:hr>
            <ns3:cad>0</ns3:cad>
          </ns3:TrackPointExtension>
        </extensions>
      </trkpt>
      <trkpt lat="43.4718498028814792633056640625" lon="1.432063914835453033447265625">
        <ele>252.399993896484375</ele>
        <time>2026-08-05T10:44:44.000Z</time>
        <extensions>
          <ns3:TrackPointExtension>
            <ns3:hr>75</ns3:hr>
            <ns3:cad>0</ns3:cad>
          </ns3:TrackPointExtension>
        </extensions>
      </trkpt>
      <trkpt lat="43.4718498028814792633056640625" lon="1.432063914835453033447265625">
        <ele>252.399993896484375</ele>
        <time>2026-08-05T10:44:45.000Z</time>
        <extensions>
          <ns3:TrackPointExtension>
            <ns3:hr>76</ns3:hr>
            <ns3:cad>0</ns3:cad>
          </ns3:TrackPointExtension>
        </extensions>
      </trkpt>
      <trkpt lat="43.4718498028814792633056640625" lon="1.432063914835453033447265625">
        <ele>252.600006103515625</ele>
        <time>2026-08-05T10:44:46.000Z</time>
        <extensions>
          <ns3:TrackPointExtension>
            <ns3:hr>76</ns3:hr>
            <ns3:cad>0</ns3:cad>
          </ns3:TrackPointExtension>
        </extensions>
      </trkpt>
      <trkpt lat="43.4718498028814792633056640625" lon="1.432063914835453033447265625">
        <ele>252.600006103515625</ele>
        <time>2026-08-05T10:44:47.000Z</time>
        <extensions>
          <ns3:TrackPointExtension>
            <ns3:hr>77</ns3:hr>
            <ns3:cad>0</ns3:cad>
          </ns3:TrackPointExtension>
        </extensions>
      </trkpt>
      <trkpt lat="43.4718498028814792633056640625" lon="1.432063914835453033447265625">
        <ele>252.600006103515625</ele>
        <time>2026-08-05T10:44:48.000Z</time>
        <extensions>
          <ns3:TrackPointExtension>
            <ns3:hr>77</ns3:hr>
            <ns3:cad>0</ns3:cad>
          </ns3:TrackPointExtension>
        </extensions>
      </trkpt>
      <trkpt lat="43.4718498028814792633056640625" lon="1.432063914835453033447265625">
        <ele>252.600006103515625</ele>
        <time>2026-08-05T10:44:49.000Z</time>
        <extensions>
          <ns3:TrackPointExtension>
            <ns3:hr>77</ns3:hr>
            <ns3:cad>0</ns3:cad>
          </ns3:TrackPointExtension>
        </extensions>
      </trkpt>
      <trkpt lat="43.4718498028814792633056640625" lon="1.432063914835453033447265625">
        <ele>252.600006103515625</ele>
        <time>2026-08-05T10:44:50.000Z</time>
        <extensions>
          <ns3:TrackPointExtension>
            <ns3:hr>77</ns3:hr>
            <ns3:cad>0</ns3:cad>
          </ns3:TrackPointExtension>
        </extensions>
      </trkpt>
      <trkpt lat="43.4718498028814792633056640625" lon="1.432063914835453033447265625">
        <ele>252.600006103515625</ele>
        <time>2026-08-05T10:44:51.000Z</time>
        <extensions>
          <ns3:TrackPointExtension>
            <ns3:hr>76</ns3:hr>
            <ns3:cad>0</ns3:cad>
          </ns3:TrackPointExtension>
        </extensions>
      </trkpt>
      <trkpt lat="43.4718498028814792633056640625" lon="1.432063914835453033447265625">
        <ele>252.600006103515625</ele>
        <time>2026-08-05T10:44:52.000Z</time>
        <extensions>
          <ns3:TrackPointExtension>
            <ns3:hr>76</ns3:hr>
            <ns3:cad>0</ns3:cad>
          </ns3:TrackPointExtension>
        </extensions>
      </trkpt>
      <trkpt lat="43.4718498028814792633056640625" lon="1.432063914835453033447265625">
        <ele>252.600006103515625</ele>
        <time>2026-08-05T10:44:53.000Z</time>
        <extensions>
          <ns3:TrackPointExtension>
            <ns3:hr>75</ns3:hr>
            <ns3:cad>0</ns3:cad>
          </ns3:TrackPointExtension>
        </extensions>
      </trkpt>
      <trkpt lat="43.4718498028814792633056640625" lon="1.432063914835453033447265625">
        <ele>252.600006103515625</ele>
        <time>2026-08-05T10:44:54.000Z</time>
        <extensions>
          <ns3:TrackPointExtension>
            <ns3:hr>73</ns3:hr>
            <ns3:cad>0</ns3:cad>
          </ns3:TrackPointExtension>
        </extensions>
      </trkpt>
      <trkpt lat="43.4718498028814792633056640625" lon="1.432063914835453033447265625">
        <ele>252.600006103515625</ele>
        <time>2026-08-05T10:44:55.000Z</time>
        <extensions>
          <ns3:TrackPointExtension>
            <ns3:hr>71</ns3:hr>
            <ns3:cad>0</ns3:cad>
          </ns3:TrackPointExtension>
        </extensions>
      </trkpt>
      <trkpt lat="43.4718498028814792633056640625" lon="1.432063914835453033447265625">
        <ele>252.600006103515625</ele>
        <time>2026-08-05T10:44:56.000Z</time>
        <extensions>
          <ns3:TrackPointExtension>
            <ns3:hr>69</ns3:hr>
            <ns3:cad>0</ns3:cad>
          </ns3:TrackPointExtension>
        </extensions>
      </trkpt>
      <trkpt lat="43.4718498028814792633056640625" lon="1.432063914835453033447265625">
        <ele>252.600006103515625</ele>
        <time>2026-08-05T10:44:57.000Z</time>
        <extensions>
          <ns3:TrackPointExtension>
            <ns3:hr>68</ns3:hr>
            <ns3:cad>0</ns3:cad>
          </ns3:TrackPointExtension>
        </extensions>
      </trkpt>
      <trkpt lat="43.4718498028814792633056640625" lon="1.432063914835453033447265625">
        <ele>252.600006103515625</ele>
        <time>2026-08-05T10:44:58.000Z</time>
        <extensions>
          <ns3:TrackPointExtension>
            <ns3:hr>68</ns3:hr>
            <ns3:cad>0</ns3:cad>
          </ns3:TrackPointExtension>
        </extensions>
      </trkpt>
      <trkpt lat="43.4718498028814792633056640625" lon="1.432063914835453033447265625">
        <ele>252.600006103515625</ele>
        <time>2026-08-05T10:44:59.000Z</time>
        <extensions>
          <ns3:TrackPointExtension>
            <ns3:hr>69</ns3:hr>
            <ns3:cad>0</ns3:cad>
          </ns3:TrackPointExtension>
        </extensions>
      </trkpt>
      <trkpt lat="43.4718498028814792633056640625" lon="1.432063914835453033447265625">
        <ele>252.600006103515625</ele>
        <time>2026-08-05T10:45:00.000Z</time>
        <extensions>
          <ns3:TrackPointExtension>
            <ns3:hr>70</ns3:hr>
            <ns3:cad>0</ns3:cad>
          </ns3:TrackPointExtension>
        </extensions>
      </trkpt>
      <trkpt lat="43.4718498028814792633056640625" lon="1.432063914835453033447265625">
        <ele>252.600006103515625</ele>
        <time>2026-08-05T10:45:01.000Z</time>
        <extensions>
          <ns3:TrackPointExtension>
            <ns3:hr>70</ns3:hr>
            <ns3:cad>0</ns3:cad>
          </ns3:TrackPointExtension>
        </extensions>
      </trkpt>
      <trkpt lat="43.4718498028814792633056640625" lon="1.432063914835453033447265625">
        <ele>252.600006103515625</ele>
        <time>2026-08-05T10:45:02.000Z</time>
        <extensions>
          <ns3:TrackPointExtension>
            <ns3:hr>71</ns3:hr>
            <ns3:cad>0</ns3:cad>
          </ns3:TrackPointExtension>
        </extensions>
      </trkpt>
      <trkpt lat="43.4718498028814792633056640625" lon="1.432063914835453033447265625">
        <ele>252.600006103515625</ele>
        <time>2026-08-05T10:45:03.000Z</time>
        <extensions>
          <ns3:TrackPointExtension>
            <ns3:hr>71</ns3:hr>
            <ns3:cad>0</ns3:cad>
          </ns3:TrackPointExtension>
        </extensions>
      </trkpt>
      <trkpt lat="43.4718498028814792633056640625" lon="1.432063914835453033447265625">
        <ele>252.600006103515625</ele>
        <time>2026-08-05T10:45:04.000Z</time>
        <extensions>
          <ns3:TrackPointExtension>
            <ns3:hr>71</ns3:hr>
            <ns3:cad>0</ns3:cad>
          </ns3:TrackPointExtension>
        </extensions>
      </trkpt>
      <trkpt lat="43.4718498028814792633056640625" lon="1.432063914835453033447265625">
        <ele>252.600006103515625</ele>
        <time>2026-08-05T10:45:05.000Z</time>
        <extensions>
          <ns3:TrackPointExtension>
            <ns3:hr>71</ns3:hr>
            <ns3:cad>0</ns3:cad>
          </ns3:TrackPointExtension>
        </extensions>
      </trkpt>
      <trkpt lat="43.4718498028814792633056640625" lon="1.432063914835453033447265625">
        <ele>252.8000030517578125</ele>
        <time>2026-08-05T10:45:06.000Z</time>
        <extensions>
          <ns3:TrackPointExtension>
            <ns3:hr>70</ns3:hr>
            <ns3:cad>0</ns3:cad>
          </ns3:TrackPointExtension>
        </extensions>
      </trkpt>
      <trkpt lat="43.4718498028814792633056640625" lon="1.432063914835453033447265625">
        <ele>252.8000030517578125</ele>
        <time>2026-08-05T10:45:07.000Z</time>
        <extensions>
          <ns3:TrackPointExtension>
            <ns3:hr>70</ns3:hr>
            <ns3:cad>0</ns3:cad>
          </ns3:TrackPointExtension>
        </extensions>
      </trkpt>
      <trkpt lat="43.4718498028814792633056640625" lon="1.432063914835453033447265625">
        <ele>252.8000030517578125</ele>
        <time>2026-08-05T10:45:08.000Z</time>
        <extensions>
          <ns3:TrackPointExtension>
            <ns3:hr>66</ns3:hr>
            <ns3:cad>0</ns3:cad>
          </ns3:TrackPointExtension>
        </extensions>
      </trkpt>
      <trkpt lat="43.4718498028814792633056640625" lon="1.432063914835453033447265625">
        <ele>252.8000030517578125</ele>
        <time>2026-08-05T10:45:09.000Z</time>
        <extensions>
          <ns3:TrackPointExtension>
            <ns3:hr>65</ns3:hr>
            <ns3:cad>0</ns3:cad>
          </ns3:TrackPointExtension>
        </extensions>
      </trkpt>
      <trkpt lat="43.4718498028814792633056640625" lon="1.432063914835453033447265625">
        <ele>252.8000030517578125</ele>
        <time>2026-08-05T10:45:10.000Z</time>
        <extensions>
          <ns3:TrackPointExtension>
            <ns3:hr>64</ns3:hr>
            <ns3:cad>0</ns3:cad>
          </ns3:TrackPointExtension>
        </extensions>
      </trkpt>
      <trkpt lat="43.4718498028814792633056640625" lon="1.432063914835453033447265625">
        <ele>252.8000030517578125</ele>
        <time>2026-08-05T10:45:11.000Z</time>
        <extensions>
          <ns3:TrackPointExtension>
            <ns3:hr>64</ns3:hr>
            <ns3:cad>0</ns3:cad>
          </ns3:TrackPointExtension>
        </extensions>
      </trkpt>
      <trkpt lat="43.4718498028814792633056640625" lon="1.432063914835453033447265625">
        <ele>252.600006103515625</ele>
        <time>2026-08-05T10:45:12.000Z</time>
        <extensions>
          <ns3:TrackPointExtension>
            <ns3:hr>63</ns3:hr>
            <ns3:cad>0</ns3:cad>
          </ns3:TrackPointExtension>
        </extensions>
      </trkpt>
      <trkpt lat="43.4718498028814792633056640625" lon="1.432063914835453033447265625">
        <ele>252.600006103515625</ele>
        <time>2026-08-05T10:45:13.000Z</time>
        <extensions>
          <ns3:TrackPointExtension>
            <ns3:hr>63</ns3:hr>
            <ns3:cad>0</ns3:cad>
          </ns3:TrackPointExtension>
        </extensions>
      </trkpt>
      <trkpt lat="43.4718498028814792633056640625" lon="1.432063914835453033447265625">
        <ele>252.600006103515625</ele>
        <time>2026-08-05T10:45:14.000Z</time>
        <extensions>
          <ns3:TrackPointExtension>
            <ns3:hr>62</ns3:hr>
            <ns3:cad>0</ns3:cad>
          </ns3:TrackPointExtension>
        </extensions>
      </trkpt>
      <trkpt lat="43.4718498028814792633056640625" lon="1.432063914835453033447265625">
        <ele>252.600006103515625</ele>
        <time>2026-08-05T10:45:15.000Z</time>
        <extensions>
          <ns3:TrackPointExtension>
            <ns3:hr>62</ns3:hr>
            <ns3:cad>0</ns3:cad>
          </ns3:TrackPointExtension>
        </extensions>
      </trkpt>
      <trkpt lat="43.4718498028814792633056640625" lon="1.432063914835453033447265625">
        <ele>252.600006103515625</ele>
        <time>2026-08-05T10:45:16.000Z</time>
        <extensions>
          <ns3:TrackPointExtension>
            <ns3:hr>61</ns3:hr>
            <ns3:cad>0</ns3:cad>
          </ns3:TrackPointExtension>
        </extensions>
      </trkpt>
      <trkpt lat="43.4718498028814792633056640625" lon="1.432063914835453033447265625">
        <ele>252.600006103515625</ele>
        <time>2026-08-05T10:45:17.000Z</time>
        <extensions>
          <ns3:TrackPointExtension>
            <ns3:hr>62</ns3:hr>
            <ns3:cad>0</ns3:cad>
          </ns3:TrackPointExtension>
        </extensions>
      </trkpt>
      <trkpt lat="43.4718498028814792633056640625" lon="1.432063914835453033447265625">
        <ele>252.600006103515625</ele>
        <time>2026-08-05T10:45:18.000Z</time>
        <extensions>
          <ns3:TrackPointExtension>
            <ns3:hr>63</ns3:hr>
            <ns3:cad>0</ns3:cad>
          </ns3:TrackPointExtension>
        </extensions>
      </trkpt>
      <trkpt lat="43.4718498028814792633056640625" lon="1.432063914835453033447265625">
        <ele>252.600006103515625</ele>
        <time>2026-08-05T10:45:19.000Z</time>
        <extensions>
          <ns3:TrackPointExtension>
            <ns3:hr>63</ns3:hr>
            <ns3:cad>0</ns3:cad>
          </ns3:TrackPointExtension>
        </extensions>
      </trkpt>
      <trkpt lat="43.4718498028814792633056640625" lon="1.432063914835453033447265625">
        <ele>252.600006103515625</ele>
        <time>2026-08-05T10:45:20.000Z</time>
        <extensions>
          <ns3:TrackPointExtension>
            <ns3:hr>64</ns3:hr>
            <ns3:cad>0</ns3:cad>
          </ns3:TrackPointExtension>
        </extensions>
      </trkpt>
      <trkpt lat="43.4718498028814792633056640625" lon="1.432063914835453033447265625">
        <ele>252.600006103515625</ele>
        <time>2026-08-05T10:45:21.000Z</time>
        <extensions>
          <ns3:TrackPointExtension>
            <ns3:hr>64</ns3:hr>
            <ns3:cad>0</ns3:cad>
          </ns3:TrackPointExtension>
        </extensions>
      </trkpt>
      <trkpt lat="43.4718498028814792633056640625" lon="1.432063914835453033447265625">
        <ele>252.600006103515625</ele>
        <time>2026-08-05T10:45:22.000Z</time>
        <extensions>
          <ns3:TrackPointExtension>
            <ns3:hr>64</ns3:hr>
            <ns3:cad>0</ns3:cad>
          </ns3:TrackPointExtension>
        </extensions>
      </trkpt>
      <trkpt lat="43.4718498028814792633056640625" lon="1.432063914835453033447265625">
        <ele>252.8000030517578125</ele>
        <time>2026-08-05T10:45:23.000Z</time>
        <extensions>
          <ns3:TrackPointExtension>
            <ns3:hr>64</ns3:hr>
            <ns3:cad>0</ns3:cad>
          </ns3:TrackPointExtension>
        </extensions>
      </trkpt>
      <trkpt lat="43.4718498028814792633056640625" lon="1.432063914835453033447265625">
        <ele>252.8000030517578125</ele>
        <time>2026-08-05T10:45:24.000Z</time>
        <extensions>
          <ns3:TrackPointExtension>
            <ns3:hr>65</ns3:hr>
            <ns3:cad>0</ns3:cad>
          </ns3:TrackPointExtension>
        </extensions>
      </trkpt>
      <trkpt lat="43.4718498028814792633056640625" lon="1.432063914835453033447265625">
        <ele>252.8000030517578125</ele>
        <time>2026-08-05T10:45:25.000Z</time>
        <extensions>
          <ns3:TrackPointExtension>
            <ns3:hr>64</ns3:hr>
            <ns3:cad>0</ns3:cad>
          </ns3:TrackPointExtension>
        </extensions>
      </trkpt>
      <trkpt lat="43.4718498028814792633056640625" lon="1.432063914835453033447265625">
        <ele>252.8000030517578125</ele>
        <time>2026-08-05T10:45:26.000Z</time>
        <extensions>
          <ns3:TrackPointExtension>
            <ns3:hr>65</ns3:hr>
            <ns3:cad>0</ns3:cad>
          </ns3:TrackPointExtension>
        </extensions>
      </trkpt>
      <trkpt lat="43.4718498028814792633056640625" lon="1.432063914835453033447265625">
        <ele>252.8000030517578125</ele>
        <time>2026-08-05T10:45:27.000Z</time>
        <extensions>
          <ns3:TrackPointExtension>
            <ns3:hr>65</ns3:hr>
            <ns3:cad>0</ns3:cad>
          </ns3:TrackPointExtension>
        </extensions>
      </trkpt>
      <trkpt lat="43.4718498028814792633056640625" lon="1.432063914835453033447265625">
        <ele>252.8000030517578125</ele>
        <time>2026-08-05T10:45:28.000Z</time>
        <extensions>
          <ns3:TrackPointExtension>
            <ns3:hr>66</ns3:hr>
            <ns3:cad>0</ns3:cad>
          </ns3:TrackPointExtension>
        </extensions>
      </trkpt>
      <trkpt lat="43.4718498028814792633056640625" lon="1.432063914835453033447265625">
        <ele>252.8000030517578125</ele>
        <time>2026-08-05T10:45:29.000Z</time>
        <extensions>
          <ns3:TrackPointExtension>
            <ns3:hr>66</ns3:hr>
            <ns3:cad>0</ns3:cad>
          </ns3:TrackPointExtension>
        </extensions>
      </trkpt>
      <trkpt lat="43.4718498028814792633056640625" lon="1.432063914835453033447265625">
        <ele>252.8000030517578125</ele>
        <time>2026-08-05T10:45:30.000Z</time>
        <extensions>
          <ns3:TrackPointExtension>
            <ns3:hr>66</ns3:hr>
            <ns3:cad>0</ns3:cad>
          </ns3:TrackPointExtension>
        </extensions>
      </trkpt>
      <trkpt lat="43.4718498028814792633056640625" lon="1.432063914835453033447265625">
        <ele>252.8000030517578125</ele>
        <time>2026-08-05T10:45:31.000Z</time>
        <extensions>
          <ns3:TrackPointExtension>
            <ns3:hr>65</ns3:hr>
            <ns3:cad>0</ns3:cad>
          </ns3:TrackPointExtension>
        </extensions>
      </trkpt>
      <trkpt lat="43.4718498028814792633056640625" lon="1.432063914835453033447265625">
        <ele>252.8000030517578125</ele>
        <time>2026-08-05T10:45:32.000Z</time>
        <extensions>
          <ns3:TrackPointExtension>
            <ns3:hr>64</ns3:hr>
            <ns3:cad>0</ns3:cad>
          </ns3:TrackPointExtension>
        </extensions>
      </trkpt>
      <trkpt lat="43.4718498028814792633056640625" lon="1.432063914835453033447265625">
        <ele>252.8000030517578125</ele>
        <time>2026-08-05T10:45:33.000Z</time>
        <extensions>
          <ns3:TrackPointExtension>
            <ns3:hr>64</ns3:hr>
            <ns3:cad>0</ns3:cad>
          </ns3:TrackPointExtension>
        </extensions>
      </trkpt>
      <trkpt lat="43.4718498028814792633056640625" lon="1.432063914835453033447265625">
        <ele>252.8000030517578125</ele>
        <time>2026-08-05T10:45:34.000Z</time>
        <extensions>
          <ns3:TrackPointExtension>
            <ns3:hr>63</ns3:hr>
            <ns3:cad>0</ns3:cad>
          </ns3:TrackPointExtension>
        </extensions>
      </trkpt>
      <trkpt lat="43.4718498028814792633056640625" lon="1.432063914835453033447265625">
        <ele>252.8000030517578125</ele>
        <time>2026-08-05T10:45:35.000Z</time>
        <extensions>
          <ns3:TrackPointExtension>
            <ns3:hr>63</ns3:hr>
            <ns3:cad>0</ns3:cad>
          </ns3:TrackPointExtension>
        </extensions>
      </trkpt>
      <trkpt lat="43.4718498028814792633056640625" lon="1.432063914835453033447265625">
        <ele>252.8000030517578125</ele>
        <time>2026-08-05T10:45:36.000Z</time>
        <extensions>
          <ns3:TrackPointExtension>
            <ns3:hr>63</ns3:hr>
            <ns3:cad>0</ns3:cad>
          </ns3:TrackPointExtension>
        </extensions>
      </trkpt>
      <trkpt lat="43.4718498028814792633056640625" lon="1.432063914835453033447265625">
        <ele>252.8000030517578125</ele>
        <time>2026-08-05T10:45:37.000Z</time>
        <extensions>
          <ns3:TrackPointExtension>
            <ns3:hr>62</ns3:hr>
            <ns3:cad>0</ns3:cad>
          </ns3:TrackPointExtension>
        </extensions>
      </trkpt>
      <trkpt lat="43.4718498028814792633056640625" lon="1.432063914835453033447265625">
        <ele>252.8000030517578125</ele>
        <time>2026-08-05T10:45:38.000Z</time>
        <extensions>
          <ns3:TrackPointExtension>
            <ns3:hr>61</ns3:hr>
            <ns3:cad>0</ns3:cad>
          </ns3:TrackPointExtension>
        </extensions>
      </trkpt>
      <trkpt lat="43.4718498028814792633056640625" lon="1.432063914835453033447265625">
        <ele>252.8000030517578125</ele>
        <time>2026-08-05T10:45:39.000Z</time>
        <extensions>
          <ns3:TrackPointExtension>
            <ns3:hr>60</ns3:hr>
            <ns3:cad>0</ns3:cad>
          </ns3:TrackPointExtension>
        </extensions>
      </trkpt>
      <trkpt lat="43.4718498028814792633056640625" lon="1.432063914835453033447265625">
        <ele>252.8000030517578125</ele>
        <time>2026-08-05T10:45:40.000Z</time>
        <extensions>
          <ns3:TrackPointExtension>
            <ns3:hr>59</ns3:hr>
            <ns3:cad>0</ns3:cad>
          </ns3:TrackPointExtension>
        </extensions>
      </trkpt>
      <trkpt lat="43.4718498028814792633056640625" lon="1.432063914835453033447265625">
        <ele>252.8000030517578125</ele>
        <time>2026-08-05T10:45:41.000Z</time>
        <extensions>
          <ns3:TrackPointExtension>
            <ns3:hr>59</ns3:hr>
            <ns3:cad>0</ns3:cad>
          </ns3:TrackPointExtension>
        </extensions>
      </trkpt>
      <trkpt lat="43.4718498028814792633056640625" lon="1.432063914835453033447265625">
        <ele>252.8000030517578125</ele>
        <time>2026-08-05T10:45:42.000Z</time>
        <extensions>
          <ns3:TrackPointExtension>
            <ns3:hr>59</ns3:hr>
            <ns3:cad>0</ns3:cad>
          </ns3:TrackPointExtension>
        </extensions>
      </trkpt>
      <trkpt lat="43.4718498028814792633056640625" lon="1.432063914835453033447265625">
        <ele>252.600006103515625</ele>
        <time>2026-08-05T10:45:43.000Z</time>
        <extensions>
          <ns3:TrackPointExtension>
            <ns3:hr>59</ns3:hr>
            <ns3:cad>0</ns3:cad>
          </ns3:TrackPointExtension>
        </extensions>
      </trkpt>
      <trkpt lat="43.4718498028814792633056640625" lon="1.432063914835453033447265625">
        <ele>252.600006103515625</ele>
        <time>2026-08-05T10:45:44.000Z</time>
        <extensions>
          <ns3:TrackPointExtension>
            <ns3:hr>59</ns3:hr>
            <ns3:cad>0</ns3:cad>
          </ns3:TrackPointExtension>
        </extensions>
      </trkpt>
      <trkpt lat="43.4718498028814792633056640625" lon="1.432063914835453033447265625">
        <ele>252.600006103515625</ele>
        <time>2026-08-05T10:45:45.000Z</time>
        <extensions>
          <ns3:TrackPointExtension>
            <ns3:hr>60</ns3:hr>
            <ns3:cad>0</ns3:cad>
          </ns3:TrackPointExtension>
        </extensions>
      </trkpt>
      <trkpt lat="43.4718498028814792633056640625" lon="1.432063914835453033447265625">
        <ele>252.600006103515625</ele>
        <time>2026-08-05T10:45:46.000Z</time>
        <extensions>
          <ns3:TrackPointExtension>
            <ns3:hr>60</ns3:hr>
            <ns3:cad>0</ns3:cad>
          </ns3:TrackPointExtension>
        </extensions>
      </trkpt>
      <trkpt lat="43.4718498028814792633056640625" lon="1.432063914835453033447265625">
        <ele>252.600006103515625</ele>
        <time>2026-08-05T10:45:47.000Z</time>
        <extensions>
          <ns3:TrackPointExtension>
            <ns3:hr>60</ns3:hr>
            <ns3:cad>0</ns3:cad>
          </ns3:TrackPointExtension>
        </extensions>
      </trkpt>
      <trkpt lat="43.4718498028814792633056640625" lon="1.432063914835453033447265625">
        <ele>252.600006103515625</ele>
        <time>2026-08-05T10:45:48.000Z</time>
        <extensions>
          <ns3:TrackPointExtension>
            <ns3:hr>61</ns3:hr>
            <ns3:cad>0</ns3:cad>
          </ns3:TrackPointExtension>
        </extensions>
      </trkpt>
      <trkpt lat="43.4718498028814792633056640625" lon="1.432063914835453033447265625">
        <ele>252.600006103515625</ele>
        <time>2026-08-05T10:45:49.000Z</time>
        <extensions>
          <ns3:TrackPointExtension>
            <ns3:hr>62</ns3:hr>
            <ns3:cad>0</ns3:cad>
          </ns3:TrackPointExtension>
        </extensions>
      </trkpt>
      <trkpt lat="43.4718498028814792633056640625" lon="1.432063914835453033447265625">
        <ele>252.600006103515625</ele>
        <time>2026-08-05T10:45:50.000Z</time>
        <extensions>
          <ns3:TrackPointExtension>
            <ns3:hr>63</ns3:hr>
            <ns3:cad>0</ns3:cad>
          </ns3:TrackPointExtension>
        </extensions>
      </trkpt>
      <trkpt lat="43.4718498028814792633056640625" lon="1.432063914835453033447265625">
        <ele>252.600006103515625</ele>
        <time>2026-08-05T10:45:51.000Z</time>
        <extensions>
          <ns3:TrackPointExtension>
            <ns3:hr>63</ns3:hr>
            <ns3:cad>0</ns3:cad>
          </ns3:TrackPointExtension>
        </extensions>
      </trkpt>
      <trkpt lat="43.4718498028814792633056640625" lon="1.432063914835453033447265625">
        <ele>252.399993896484375</ele>
        <time>2026-08-05T10:45:52.000Z</time>
        <extensions>
          <ns3:TrackPointExtension>
            <ns3:hr>62</ns3:hr>
            <ns3:cad>0</ns3:cad>
          </ns3:TrackPointExtension>
        </extensions>
      </trkpt>
      <trkpt lat="43.4718498028814792633056640625" lon="1.432063914835453033447265625">
        <ele>252.399993896484375</ele>
        <time>2026-08-05T10:45:53.000Z</time>
        <extensions>
          <ns3:TrackPointExtension>
            <ns3:hr>62</ns3:hr>
            <ns3:cad>0</ns3:cad>
          </ns3:TrackPointExtension>
        </extensions>
      </trkpt>
      <trkpt lat="43.4718498028814792633056640625" lon="1.432063914835453033447265625">
        <ele>252.399993896484375</ele>
        <time>2026-08-05T10:45:54.000Z</time>
        <extensions>
          <ns3:TrackPointExtension>
            <ns3:hr>61</ns3:hr>
            <ns3:cad>0</ns3:cad>
          </ns3:TrackPointExtension>
        </extensions>
      </trkpt>
      <trkpt lat="43.4718498028814792633056640625" lon="1.432063914835453033447265625">
        <ele>252.399993896484375</ele>
        <time>2026-08-05T10:45:55.000Z</time>
        <extensions>
          <ns3:TrackPointExtension>
            <ns3:hr>60</ns3:hr>
            <ns3:cad>0</ns3:cad>
          </ns3:TrackPointExtension>
        </extensions>
      </trkpt>
      <trkpt lat="43.4718498028814792633056640625" lon="1.432063914835453033447265625">
        <ele>252.600006103515625</ele>
        <time>2026-08-05T10:45:56.000Z</time>
        <extensions>
          <ns3:TrackPointExtension>
            <ns3:hr>60</ns3:hr>
            <ns3:cad>0</ns3:cad>
          </ns3:TrackPointExtension>
        </extensions>
      </trkpt>
      <trkpt lat="43.4718498028814792633056640625" lon="1.432063914835453033447265625">
        <ele>252.600006103515625</ele>
        <time>2026-08-05T10:45:57.000Z</time>
        <extensions>
          <ns3:TrackPointExtension>
            <ns3:hr>60</ns3:hr>
            <ns3:cad>0</ns3:cad>
          </ns3:TrackPointExtension>
        </extensions>
      </trkpt>
      <trkpt lat="43.4718498028814792633056640625" lon="1.432063914835453033447265625">
        <ele>252.600006103515625</ele>
        <time>2026-08-05T10:45:58.000Z</time>
        <extensions>
          <ns3:TrackPointExtension>
            <ns3:hr>61</ns3:hr>
            <ns3:cad>0</ns3:cad>
          </ns3:TrackPointExtension>
        </extensions>
      </trkpt>
      <trkpt lat="43.4718498028814792633056640625" lon="1.432063914835453033447265625">
        <ele>252.600006103515625</ele>
        <time>2026-08-05T10:45:59.000Z</time>
        <extensions>
          <ns3:TrackPointExtension>
            <ns3:hr>61</ns3:hr>
            <ns3:cad>0</ns3:cad>
          </ns3:TrackPointExtension>
        </extensions>
      </trkpt>
      <trkpt lat="43.4718498028814792633056640625" lon="1.432063914835453033447265625">
        <ele>252.600006103515625</ele>
        <time>2026-08-05T10:46:00.000Z</time>
        <extensions>
          <ns3:TrackPointExtension>
            <ns3:hr>61</ns3:hr>
            <ns3:cad>0</ns3:cad>
          </ns3:TrackPointExtension>
        </extensions>
      </trkpt>
      <trkpt lat="43.4718498028814792633056640625" lon="1.432063914835453033447265625">
        <ele>252.600006103515625</ele>
        <time>2026-08-05T10:46:01.000Z</time>
        <extensions>
          <ns3:TrackPointExtension>
            <ns3:hr>61</ns3:hr>
            <ns3:cad>0</ns3:cad>
          </ns3:TrackPointExtension>
        </extensions>
      </trkpt>
      <trkpt lat="43.4718498028814792633056640625" lon="1.432063914835453033447265625">
        <ele>252.600006103515625</ele>
        <time>2026-08-05T10:46:02.000Z</time>
        <extensions>
          <ns3:TrackPointExtension>
            <ns3:hr>60</ns3:hr>
            <ns3:cad>0</ns3:cad>
          </ns3:TrackPointExtension>
        </extensions>
      </trkpt>
      <trkpt lat="43.4718498028814792633056640625" lon="1.432063914835453033447265625">
        <ele>252.399993896484375</ele>
        <time>2026-08-05T10:46:03.000Z</time>
        <extensions>
          <ns3:TrackPointExtension>
            <ns3:hr>60</ns3:hr>
            <ns3:cad>0</ns3:cad>
          </ns3:TrackPointExtension>
        </extensions>
      </trkpt>
      <trkpt lat="43.4718498028814792633056640625" lon="1.432063914835453033447265625">
        <ele>252.399993896484375</ele>
        <time>2026-08-05T10:46:04.000Z</time>
        <extensions>
          <ns3:TrackPointExtension>
            <ns3:hr>60</ns3:hr>
            <ns3:cad>0</ns3:cad>
          </ns3:TrackPointExtension>
        </extensions>
      </trkpt>
      <trkpt lat="43.4718498028814792633056640625" lon="1.432063914835453033447265625">
        <ele>252.399993896484375</ele>
        <time>2026-08-05T10:46:05.000Z</time>
        <extensions>
          <ns3:TrackPointExtension>
            <ns3:hr>59</ns3:hr>
            <ns3:cad>0</ns3:cad>
          </ns3:TrackPointExtension>
        </extensions>
      </trkpt>
      <trkpt lat="43.4718498028814792633056640625" lon="1.432063914835453033447265625">
        <ele>252.1999969482421875</ele>
        <time>2026-08-05T10:46:06.000Z</time>
        <extensions>
          <ns3:TrackPointExtension>
            <ns3:hr>60</ns3:hr>
            <ns3:cad>0</ns3:cad>
          </ns3:TrackPointExtension>
        </extensions>
      </trkpt>
      <trkpt lat="43.4718498028814792633056640625" lon="1.432063914835453033447265625">
        <ele>252.1999969482421875</ele>
        <time>2026-08-05T10:46:07.000Z</time>
        <extensions>
          <ns3:TrackPointExtension>
            <ns3:hr>60</ns3:hr>
            <ns3:cad>0</ns3:cad>
          </ns3:TrackPointExtension>
        </extensions>
      </trkpt>
      <trkpt lat="43.4718498028814792633056640625" lon="1.432063914835453033447265625">
        <ele>252.1999969482421875</ele>
        <time>2026-08-05T10:46:08.000Z</time>
        <extensions>
          <ns3:TrackPointExtension>
            <ns3:hr>61</ns3:hr>
            <ns3:cad>0</ns3:cad>
          </ns3:TrackPointExtension>
        </extensions>
      </trkpt>
      <trkpt lat="43.4718498028814792633056640625" lon="1.432063914835453033447265625">
        <ele>252.1999969482421875</ele>
        <time>2026-08-05T10:46:09.000Z</time>
        <extensions>
          <ns3:TrackPointExtension>
            <ns3:hr>62</ns3:hr>
            <ns3:cad>0</ns3:cad>
          </ns3:TrackPointExtension>
        </extensions>
      </trkpt>
      <trkpt lat="43.4718498028814792633056640625" lon="1.432063914835453033447265625">
        <ele>252.1999969482421875</ele>
        <time>2026-08-05T10:46:10.000Z</time>
        <extensions>
          <ns3:TrackPointExtension>
            <ns3:hr>66</ns3:hr>
            <ns3:cad>0</ns3:cad>
          </ns3:TrackPointExtension>
        </extensions>
      </trkpt>
      <trkpt lat="43.4718498028814792633056640625" lon="1.432063914835453033447265625">
        <ele>252.1999969482421875</ele>
        <time>2026-08-05T10:46:11.000Z</time>
        <extensions>
          <ns3:TrackPointExtension>
            <ns3:hr>68</ns3:hr>
            <ns3:cad>0</ns3:cad>
          </ns3:TrackPointExtension>
        </extensions>
      </trkpt>
      <trkpt lat="43.4718498028814792633056640625" lon="1.432063914835453033447265625">
        <ele>252.399993896484375</ele>
        <time>2026-08-05T10:46:12.000Z</time>
        <extensions>
          <ns3:TrackPointExtension>
            <ns3:hr>68</ns3:hr>
            <ns3:cad>0</ns3:cad>
          </ns3:TrackPointExtension>
        </extensions>
      </trkpt>
      <trkpt lat="43.4718498028814792633056640625" lon="1.432063914835453033447265625">
        <ele>252.399993896484375</ele>
        <time>2026-08-05T10:46:13.000Z</time>
        <extensions>
          <ns3:TrackPointExtension>
            <ns3:hr>69</ns3:hr>
            <ns3:cad>0</ns3:cad>
          </ns3:TrackPointExtension>
        </extensions>
      </trkpt>
      <trkpt lat="43.4718498028814792633056640625" lon="1.432063914835453033447265625">
        <ele>252.399993896484375</ele>
        <time>2026-08-05T10:46:14.000Z</time>
        <extensions>
          <ns3:TrackPointExtension>
            <ns3:hr>69</ns3:hr>
            <ns3:cad>0</ns3:cad>
          </ns3:TrackPointExtension>
        </extensions>
      </trkpt>
      <trkpt lat="43.4718498028814792633056640625" lon="1.432063914835453033447265625">
        <ele>252.399993896484375</ele>
        <time>2026-08-05T10:46:15.000Z</time>
        <extensions>
          <ns3:TrackPointExtension>
            <ns3:hr>69</ns3:hr>
            <ns3:cad>0</ns3:cad>
          </ns3:TrackPointExtension>
        </extensions>
      </trkpt>
      <trkpt lat="43.4718498028814792633056640625" lon="1.432063914835453033447265625">
        <ele>252.1999969482421875</ele>
        <time>2026-08-05T10:46:16.000Z</time>
        <extensions>
          <ns3:TrackPointExtension>
            <ns3:hr>68</ns3:hr>
            <ns3:cad>0</ns3:cad>
          </ns3:TrackPointExtension>
        </extensions>
      </trkpt>
      <trkpt lat="43.4718498028814792633056640625" lon="1.432063914835453033447265625">
        <ele>252.1999969482421875</ele>
        <time>2026-08-05T10:46:17.000Z</time>
        <extensions>
          <ns3:TrackPointExtension>
            <ns3:hr>68</ns3:hr>
            <ns3:cad>0</ns3:cad>
          </ns3:TrackPointExtension>
        </extensions>
      </trkpt>
      <trkpt lat="43.4718498028814792633056640625" lon="1.432063914835453033447265625">
        <ele>252.1999969482421875</ele>
        <time>2026-08-05T10:46:18.000Z</time>
        <extensions>
          <ns3:TrackPointExtension>
            <ns3:hr>66</ns3:hr>
            <ns3:cad>0</ns3:cad>
          </ns3:TrackPointExtension>
        </extensions>
      </trkpt>
      <trkpt lat="43.4718498028814792633056640625" lon="1.432063914835453033447265625">
        <ele>252.1999969482421875</ele>
        <time>2026-08-05T10:46:19.000Z</time>
        <extensions>
          <ns3:TrackPointExtension>
            <ns3:hr>64</ns3:hr>
            <ns3:cad>0</ns3:cad>
          </ns3:TrackPointExtension>
        </extensions>
      </trkpt>
      <trkpt lat="43.4718498028814792633056640625" lon="1.432063914835453033447265625">
        <ele>252</ele>
        <time>2026-08-05T10:46:20.000Z</time>
        <extensions>
          <ns3:TrackPointExtension>
            <ns3:hr>63</ns3:hr>
            <ns3:cad>0</ns3:cad>
          </ns3:TrackPointExtension>
        </extensions>
      </trkpt>
      <trkpt lat="43.4718498028814792633056640625" lon="1.432063914835453033447265625">
        <ele>252</ele>
        <time>2026-08-05T10:46:21.000Z</time>
        <extensions>
          <ns3:TrackPointExtension>
            <ns3:hr>63</ns3:hr>
            <ns3:cad>0</ns3:cad>
          </ns3:TrackPointExtension>
        </extensions>
      </trkpt>
      <trkpt lat="43.4718498028814792633056640625" lon="1.432063914835453033447265625">
        <ele>252</ele>
        <time>2026-08-05T10:46:22.000Z</time>
        <extensions>
          <ns3:TrackPointExtension>
            <ns3:hr>63</ns3:hr>
            <ns3:cad>0</ns3:cad>
          </ns3:TrackPointExtension>
        </extensions>
      </trkpt>
      <trkpt lat="43.4718498028814792633056640625" lon="1.432063914835453033447265625">
        <ele>252.1999969482421875</ele>
        <time>2026-08-05T10:46:23.000Z</time>
        <extensions>
          <ns3:TrackPointExtension>
            <ns3:hr>63</ns3:hr>
            <ns3:cad>0</ns3:cad>
          </ns3:TrackPointExtension>
        </extensions>
      </trkpt>
      <trkpt lat="43.4718498028814792633056640625" lon="1.432063914835453033447265625">
        <ele>252.1999969482421875</ele>
        <time>2026-08-05T10:46:24.000Z</time>
        <extensions>
          <ns3:TrackPointExtension>
            <ns3:hr>63</ns3:hr>
            <ns3:cad>0</ns3:cad>
          </ns3:TrackPointExtension>
        </extensions>
      </trkpt>
      <trkpt lat="43.4718498028814792633056640625" lon="1.432063914835453033447265625">
        <ele>252.399993896484375</ele>
        <time>2026-08-05T10:46:25.000Z</time>
        <extensions>
          <ns3:TrackPointExtension>
            <ns3:hr>63</ns3:hr>
            <ns3:cad>0</ns3:cad>
          </ns3:TrackPointExtension>
        </extensions>
      </trkpt>
      <trkpt lat="43.4718498028814792633056640625" lon="1.432063914835453033447265625">
        <ele>252.600006103515625</ele>
        <time>2026-08-05T10:46:26.000Z</time>
        <extensions>
          <ns3:TrackPointExtension>
            <ns3:hr>63</ns3:hr>
            <ns3:cad>0</ns3:cad>
          </ns3:TrackPointExtension>
        </extensions>
      </trkpt>
      <trkpt lat="43.4718498028814792633056640625" lon="1.432063914835453033447265625">
        <ele>252.600006103515625</ele>
        <time>2026-08-05T10:46:27.000Z</time>
        <extensions>
          <ns3:TrackPointExtension>
            <ns3:hr>63</ns3:hr>
            <ns3:cad>0</ns3:cad>
          </ns3:TrackPointExtension>
        </extensions>
      </trkpt>
      <trkpt lat="43.4718498028814792633056640625" lon="1.432063914835453033447265625">
        <ele>252.600006103515625</ele>
        <time>2026-08-05T10:46:28.000Z</time>
        <extensions>
          <ns3:TrackPointExtension>
            <ns3:hr>63</ns3:hr>
            <ns3:cad>0</ns3:cad>
          </ns3:TrackPointExtension>
        </extensions>
      </trkpt>
      <trkpt lat="43.4718498028814792633056640625" lon="1.432063914835453033447265625">
        <ele>252.399993896484375</ele>
        <time>2026-08-05T10:46:29.000Z</time>
        <extensions>
          <ns3:TrackPointExtension>
            <ns3:hr>63</ns3:hr>
            <ns3:cad>0</ns3:cad>
          </ns3:TrackPointExtension>
        </extensions>
      </trkpt>
      <trkpt lat="43.4718498028814792633056640625" lon="1.432063914835453033447265625">
        <ele>252.399993896484375</ele>
        <time>2026-08-05T10:46:30.000Z</time>
        <extensions>
          <ns3:TrackPointExtension>
            <ns3:hr>63</ns3:hr>
            <ns3:cad>0</ns3:cad>
          </ns3:TrackPointExtension>
        </extensions>
      </trkpt>
      <trkpt lat="43.4718498028814792633056640625" lon="1.432063914835453033447265625">
        <ele>252.1999969482421875</ele>
        <time>2026-08-05T10:46:31.000Z</time>
        <extensions>
          <ns3:TrackPointExtension>
            <ns3:hr>65</ns3:hr>
            <ns3:cad>0</ns3:cad>
          </ns3:TrackPointExtension>
        </extensions>
      </trkpt>
      <trkpt lat="43.4718498028814792633056640625" lon="1.432063914835453033447265625">
        <ele>252.1999969482421875</ele>
        <time>2026-08-05T10:46:32.000Z</time>
        <extensions>
          <ns3:TrackPointExtension>
            <ns3:hr>65</ns3:hr>
            <ns3:cad>0</ns3:cad>
          </ns3:TrackPointExtension>
        </extensions>
      </trkpt>
      <trkpt lat="43.4718498028814792633056640625" lon="1.432063914835453033447265625">
        <ele>252.1999969482421875</ele>
        <time>2026-08-05T10:46:33.000Z</time>
        <extensions>
          <ns3:TrackPointExtension>
            <ns3:hr>65</ns3:hr>
            <ns3:cad>0</ns3:cad>
          </ns3:TrackPointExtension>
        </extensions>
      </trkpt>
      <trkpt lat="43.4718498028814792633056640625" lon="1.432063914835453033447265625">
        <ele>252.399993896484375</ele>
        <time>2026-08-05T10:46:34.000Z</time>
        <extensions>
          <ns3:TrackPointExtension>
            <ns3:hr>64</ns3:hr>
            <ns3:cad>0</ns3:cad>
          </ns3:TrackPointExtension>
        </extensions>
      </trkpt>
      <trkpt lat="43.4718498028814792633056640625" lon="1.432063914835453033447265625">
        <ele>252.399993896484375</ele>
        <time>2026-08-05T10:46:35.000Z</time>
        <extensions>
          <ns3:TrackPointExtension>
            <ns3:hr>63</ns3:hr>
            <ns3:cad>0</ns3:cad>
          </ns3:TrackPointExtension>
        </extensions>
      </trkpt>
      <trkpt lat="43.4718498028814792633056640625" lon="1.432063914835453033447265625">
        <ele>252.399993896484375</ele>
        <time>2026-08-05T10:46:36.000Z</time>
        <extensions>
          <ns3:TrackPointExtension>
            <ns3:hr>63</ns3:hr>
            <ns3:cad>0</ns3:cad>
          </ns3:TrackPointExtension>
        </extensions>
      </trkpt>
      <trkpt lat="43.4718498028814792633056640625" lon="1.432063914835453033447265625">
        <ele>252.399993896484375</ele>
        <time>2026-08-05T10:46:37.000Z</time>
        <extensions>
          <ns3:TrackPointExtension>
            <ns3:hr>63</ns3:hr>
            <ns3:cad>0</ns3:cad>
          </ns3:TrackPointExtension>
        </extensions>
      </trkpt>
      <trkpt lat="43.4718498028814792633056640625" lon="1.432063914835453033447265625">
        <ele>252.399993896484375</ele>
        <time>2026-08-05T10:46:38.000Z</time>
        <extensions>
          <ns3:TrackPointExtension>
            <ns3:hr>63</ns3:hr>
            <ns3:cad>0</ns3:cad>
          </ns3:TrackPointExtension>
        </extensions>
      </trkpt>
      <trkpt lat="43.4718498028814792633056640625" lon="1.432063914835453033447265625">
        <ele>252.600006103515625</ele>
        <time>2026-08-05T10:46:39.000Z</time>
        <extensions>
          <ns3:TrackPointExtension>
            <ns3:hr>63</ns3:hr>
            <ns3:cad>0</ns3:cad>
          </ns3:TrackPointExtension>
        </extensions>
      </trkpt>
      <trkpt lat="43.4718498028814792633056640625" lon="1.432063914835453033447265625">
        <ele>252.600006103515625</ele>
        <time>2026-08-05T10:46:40.000Z</time>
        <extensions>
          <ns3:TrackPointExtension>
            <ns3:hr>63</ns3:hr>
            <ns3:cad>0</ns3:cad>
          </ns3:TrackPointExtension>
        </extensions>
      </trkpt>
      <trkpt lat="43.4718498028814792633056640625" lon="1.432063914835453033447265625">
        <ele>252.600006103515625</ele>
        <time>2026-08-05T10:46:41.000Z</time>
        <extensions>
          <ns3:TrackPointExtension>
            <ns3:hr>64</ns3:hr>
            <ns3:cad>0</ns3:cad>
          </ns3:TrackPointExtension>
        </extensions>
      </trkpt>
      <trkpt lat="43.4718498028814792633056640625" lon="1.432063914835453033447265625">
        <ele>252.600006103515625</ele>
        <time>2026-08-05T10:46:42.000Z</time>
        <extensions>
          <ns3:TrackPointExtension>
            <ns3:hr>65</ns3:hr>
            <ns3:cad>0</ns3:cad>
          </ns3:TrackPointExtension>
        </extensions>
      </trkpt>
      <trkpt lat="43.4718498028814792633056640625" lon="1.432063914835453033447265625">
        <ele>252.600006103515625</ele>
        <time>2026-08-05T10:46:43.000Z</time>
        <extensions>
          <ns3:TrackPointExtension>
            <ns3:hr>71</ns3:hr>
            <ns3:cad>0</ns3:cad>
          </ns3:TrackPointExtension>
        </extensions>
      </trkpt>
      <trkpt lat="43.4718498028814792633056640625" lon="1.432063914835453033447265625">
        <ele>252.600006103515625</ele>
        <time>2026-08-05T10:46:44.000Z</time>
        <extensions>
          <ns3:TrackPointExtension>
            <ns3:hr>73</ns3:hr>
            <ns3:cad>0</ns3:cad>
          </ns3:TrackPointExtension>
        </extensions>
      </trkpt>
      <trkpt lat="43.4718498028814792633056640625" lon="1.432063914835453033447265625">
        <ele>252.600006103515625</ele>
        <time>2026-08-05T10:46:45.000Z</time>
        <extensions>
          <ns3:TrackPointExtension>
            <ns3:hr>74</ns3:hr>
            <ns3:cad>0</ns3:cad>
          </ns3:TrackPointExtension>
        </extensions>
      </trkpt>
      <trkpt lat="43.4718498028814792633056640625" lon="1.432063914835453033447265625">
        <ele>252.600006103515625</ele>
        <time>2026-08-05T10:46:46.000Z</time>
        <extensions>
          <ns3:TrackPointExtension>
            <ns3:hr>74</ns3:hr>
            <ns3:cad>0</ns3:cad>
          </ns3:TrackPointExtension>
        </extensions>
      </trkpt>
      <trkpt lat="43.4718498028814792633056640625" lon="1.432063914835453033447265625">
        <ele>252.600006103515625</ele>
        <time>2026-08-05T10:46:47.000Z</time>
        <extensions>
          <ns3:TrackPointExtension>
            <ns3:hr>75</ns3:hr>
            <ns3:cad>0</ns3:cad>
          </ns3:TrackPointExtension>
        </extensions>
      </trkpt>
      <trkpt lat="43.4718498028814792633056640625" lon="1.432063914835453033447265625">
        <ele>252.600006103515625</ele>
        <time>2026-08-05T10:46:48.000Z</time>
        <extensions>
          <ns3:TrackPointExtension>
            <ns3:hr>75</ns3:hr>
            <ns3:cad>0</ns3:cad>
          </ns3:TrackPointExtension>
        </extensions>
      </trkpt>
      <trkpt lat="43.4718498028814792633056640625" lon="1.432063914835453033447265625">
        <ele>252.600006103515625</ele>
        <time>2026-08-05T10:46:49.000Z</time>
        <extensions>
          <ns3:TrackPointExtension>
            <ns3:hr>74</ns3:hr>
            <ns3:cad>0</ns3:cad>
          </ns3:TrackPointExtension>
        </extensions>
      </trkpt>
      <trkpt lat="43.4718498028814792633056640625" lon="1.432063914835453033447265625">
        <ele>252.600006103515625</ele>
        <time>2026-08-05T10:46:50.000Z</time>
        <extensions>
          <ns3:TrackPointExtension>
            <ns3:hr>68</ns3:hr>
            <ns3:cad>0</ns3:cad>
          </ns3:TrackPointExtension>
        </extensions>
      </trkpt>
      <trkpt lat="43.4718498028814792633056640625" lon="1.432063914835453033447265625">
        <ele>252.399993896484375</ele>
        <time>2026-08-05T10:46:51.000Z</time>
        <extensions>
          <ns3:TrackPointExtension>
            <ns3:hr>62</ns3:hr>
            <ns3:cad>0</ns3:cad>
          </ns3:TrackPointExtension>
        </extensions>
      </trkpt>
      <trkpt lat="43.4718498028814792633056640625" lon="1.432063914835453033447265625">
        <ele>252.399993896484375</ele>
        <time>2026-08-05T10:46:52.000Z</time>
        <extensions>
          <ns3:TrackPointExtension>
            <ns3:hr>61</ns3:hr>
            <ns3:cad>0</ns3:cad>
          </ns3:TrackPointExtension>
        </extensions>
      </trkpt>
      <trkpt lat="43.4718498028814792633056640625" lon="1.432063914835453033447265625">
        <ele>252.399993896484375</ele>
        <time>2026-08-05T10:46:53.000Z</time>
        <extensions>
          <ns3:TrackPointExtension>
            <ns3:hr>60</ns3:hr>
            <ns3:cad>0</ns3:cad>
          </ns3:TrackPointExtension>
        </extensions>
      </trkpt>
      <trkpt lat="43.4718498028814792633056640625" lon="1.432063914835453033447265625">
        <ele>252.399993896484375</ele>
        <time>2026-08-05T10:46:54.000Z</time>
        <extensions>
          <ns3:TrackPointExtension>
            <ns3:hr>61</ns3:hr>
            <ns3:cad>0</ns3:cad>
          </ns3:TrackPointExtension>
        </extensions>
      </trkpt>
      <trkpt lat="43.4718498028814792633056640625" lon="1.432063914835453033447265625">
        <ele>252.399993896484375</ele>
        <time>2026-08-05T10:46:55.000Z</time>
        <extensions>
          <ns3:TrackPointExtension>
            <ns3:hr>61</ns3:hr>
            <ns3:cad>0</ns3:cad>
          </ns3:TrackPointExtension>
        </extensions>
      </trkpt>
      <trkpt lat="43.4718498028814792633056640625" lon="1.432063914835453033447265625">
        <ele>252.399993896484375</ele>
        <time>2026-08-05T10:46:56.000Z</time>
        <extensions>
          <ns3:TrackPointExtension>
            <ns3:hr>61</ns3:hr>
            <ns3:cad>0</ns3:cad>
          </ns3:TrackPointExtension>
        </extensions>
      </trkpt>
      <trkpt lat="43.47184904851019382476806640625" lon="1.43206601031124591827392578125">
        <ele>252.399993896484375</ele>
        <time>2026-08-05T10:46:57.000Z</time>
        <extensions>
          <ns3:TrackPointExtension>
            <ns3:hr>61</ns3:hr>
            <ns3:cad>0</ns3:cad>
          </ns3:TrackPointExtension>
        </extensions>
      </trkpt>
      <trkpt lat="43.47185055725276470184326171875" lon="1.43207221291959285736083984375">
        <ele>252.600006103515625</ele>
        <time>2026-08-05T10:46:58.000Z</time>
        <extensions>
          <ns3:TrackPointExtension>
            <ns3:hr>61</ns3:hr>
            <ns3:cad>0</ns3:cad>
          </ns3:TrackPointExtension>
        </extensions>
      </trkpt>
      <trkpt lat="43.4718498028814792633056640625" lon="1.432063914835453033447265625">
        <ele>252.600006103515625</ele>
        <time>2026-08-05T10:46:59.000Z</time>
        <extensions>
          <ns3:TrackPointExtension>
            <ns3:hr>60</ns3:hr>
            <ns3:cad>0</ns3:cad>
          </ns3:TrackPointExtension>
        </extensions>
      </trkpt>
      <trkpt lat="43.4718498028814792633056640625" lon="1.432063914835453033447265625">
        <ele>252.8000030517578125</ele>
        <time>2026-08-05T10:47:00.000Z</time>
        <extensions>
          <ns3:TrackPointExtension>
            <ns3:hr>60</ns3:hr>
            <ns3:cad>0</ns3:cad>
          </ns3:TrackPointExtension>
        </extensions>
      </trkpt>
      <trkpt lat="43.4718498028814792633056640625" lon="1.432063914835453033447265625">
        <ele>252.8000030517578125</ele>
        <time>2026-08-05T10:47:01.000Z</time>
        <extensions>
          <ns3:TrackPointExtension>
            <ns3:hr>60</ns3:hr>
            <ns3:cad>0</ns3:cad>
          </ns3:TrackPointExtension>
        </extensions>
      </trkpt>
      <trkpt lat="43.4718498028814792633056640625" lon="1.432063914835453033447265625">
        <ele>252.8000030517578125</ele>
        <time>2026-08-05T10:47:02.000Z</time>
        <extensions>
          <ns3:TrackPointExtension>
            <ns3:hr>60</ns3:hr>
            <ns3:cad>0</ns3:cad>
          </ns3:TrackPointExtension>
        </extensions>
      </trkpt>
      <trkpt lat="43.4718498028814792633056640625" lon="1.432063914835453033447265625">
        <ele>252.8000030517578125</ele>
        <time>2026-08-05T10:47:03.000Z</time>
        <extensions>
          <ns3:TrackPointExtension>
            <ns3:hr>60</ns3:hr>
            <ns3:cad>0</ns3:cad>
          </ns3:TrackPointExtension>
        </extensions>
      </trkpt>
      <trkpt lat="43.4718498028814792633056640625" lon="1.432063914835453033447265625">
        <ele>252.600006103515625</ele>
        <time>2026-08-05T10:47:04.000Z</time>
        <extensions>
          <ns3:TrackPointExtension>
            <ns3:hr>61</ns3:hr>
            <ns3:cad>0</ns3:cad>
          </ns3:TrackPointExtension>
        </extensions>
      </trkpt>
      <trkpt lat="43.4718498028814792633056640625" lon="1.432063914835453033447265625">
        <ele>252.600006103515625</ele>
        <time>2026-08-05T10:47:05.000Z</time>
        <extensions>
          <ns3:TrackPointExtension>
            <ns3:hr>61</ns3:hr>
            <ns3:cad>0</ns3:cad>
          </ns3:TrackPointExtension>
        </extensions>
      </trkpt>
      <trkpt lat="43.4718498028814792633056640625" lon="1.432063914835453033447265625">
        <ele>252.600006103515625</ele>
        <time>2026-08-05T10:47:06.000Z</time>
        <extensions>
          <ns3:TrackPointExtension>
            <ns3:hr>61</ns3:hr>
            <ns3:cad>0</ns3:cad>
          </ns3:TrackPointExtension>
        </extensions>
      </trkpt>
      <trkpt lat="43.4718498028814792633056640625" lon="1.432063914835453033447265625">
        <ele>252.600006103515625</ele>
        <time>2026-08-05T10:47:07.000Z</time>
        <extensions>
          <ns3:TrackPointExtension>
            <ns3:hr>62</ns3:hr>
            <ns3:cad>0</ns3:cad>
          </ns3:TrackPointExtension>
        </extensions>
      </trkpt>
      <trkpt lat="43.4718498028814792633056640625" lon="1.432063914835453033447265625">
        <ele>252.600006103515625</ele>
        <time>2026-08-05T10:47:08.000Z</time>
        <extensions>
          <ns3:TrackPointExtension>
            <ns3:hr>62</ns3:hr>
            <ns3:cad>0</ns3:cad>
          </ns3:TrackPointExtension>
        </extensions>
      </trkpt>
      <trkpt lat="43.4718498028814792633056640625" lon="1.432063914835453033447265625">
        <ele>252.600006103515625</ele>
        <time>2026-08-05T10:47:09.000Z</time>
        <extensions>
          <ns3:TrackPointExtension>
            <ns3:hr>62</ns3:hr>
            <ns3:cad>0</ns3:cad>
          </ns3:TrackPointExtension>
        </extensions>
      </trkpt>
      <trkpt lat="43.4718498028814792633056640625" lon="1.432063914835453033447265625">
        <ele>252.600006103515625</ele>
        <time>2026-08-05T10:47:10.000Z</time>
        <extensions>
          <ns3:TrackPointExtension>
            <ns3:hr>61</ns3:hr>
            <ns3:cad>0</ns3:cad>
          </ns3:TrackPointExtension>
        </extensions>
      </trkpt>
      <trkpt lat="43.4718498028814792633056640625" lon="1.432063914835453033447265625">
        <ele>252.600006103515625</ele>
        <time>2026-08-05T10:47:11.000Z</time>
        <extensions>
          <ns3:TrackPointExtension>
            <ns3:hr>62</ns3:hr>
            <ns3:cad>0</ns3:cad>
          </ns3:TrackPointExtension>
        </extensions>
      </trkpt>
      <trkpt lat="43.4718498028814792633056640625" lon="1.432063914835453033447265625">
        <ele>252.600006103515625</ele>
        <time>2026-08-05T10:47:12.000Z</time>
        <extensions>
          <ns3:TrackPointExtension>
            <ns3:hr>61</ns3:hr>
            <ns3:cad>0</ns3:cad>
          </ns3:TrackPointExtension>
        </extensions>
      </trkpt>
      <trkpt lat="43.4718498028814792633056640625" lon="1.432063914835453033447265625">
        <ele>252.600006103515625</ele>
        <time>2026-08-05T10:47:13.000Z</time>
        <extensions>
          <ns3:TrackPointExtension>
            <ns3:hr>61</ns3:hr>
            <ns3:cad>0</ns3:cad>
          </ns3:TrackPointExtension>
        </extensions>
      </trkpt>
      <trkpt lat="43.4718498028814792633056640625" lon="1.432063914835453033447265625">
        <ele>252.600006103515625</ele>
        <time>2026-08-05T10:47:14.000Z</time>
        <extensions>
          <ns3:TrackPointExtension>
            <ns3:hr>61</ns3:hr>
            <ns3:cad>0</ns3:cad>
          </ns3:TrackPointExtension>
        </extensions>
      </trkpt>
      <trkpt lat="43.4718498028814792633056640625" lon="1.432063914835453033447265625">
        <ele>252.399993896484375</ele>
        <time>2026-08-05T10:47:15.000Z</time>
        <extensions>
          <ns3:TrackPointExtension>
            <ns3:hr>62</ns3:hr>
            <ns3:cad>0</ns3:cad>
          </ns3:TrackPointExtension>
        </extensions>
      </trkpt>
      <trkpt lat="43.4718498028814792633056640625" lon="1.432063914835453033447265625">
        <ele>252.399993896484375</ele>
        <time>2026-08-05T10:47:16.000Z</time>
        <extensions>
          <ns3:TrackPointExtension>
            <ns3:hr>61</ns3:hr>
            <ns3:cad>0</ns3:cad>
          </ns3:TrackPointExtension>
        </extensions>
      </trkpt>
      <trkpt lat="43.4718498028814792633056640625" lon="1.432063914835453033447265625">
        <ele>252.399993896484375</ele>
        <time>2026-08-05T10:47:17.000Z</time>
        <extensions>
          <ns3:TrackPointExtension>
            <ns3:hr>61</ns3:hr>
            <ns3:cad>0</ns3:cad>
          </ns3:TrackPointExtension>
        </extensions>
      </trkpt>
      <trkpt lat="43.4718498028814792633056640625" lon="1.432063914835453033447265625">
        <ele>252.399993896484375</ele>
        <time>2026-08-05T10:47:18.000Z</time>
        <extensions>
          <ns3:TrackPointExtension>
            <ns3:hr>62</ns3:hr>
            <ns3:cad>0</ns3:cad>
          </ns3:TrackPointExtension>
        </extensions>
      </trkpt>
      <trkpt lat="43.4718498028814792633056640625" lon="1.432063914835453033447265625">
        <ele>252.399993896484375</ele>
        <time>2026-08-05T10:47:19.000Z</time>
        <extensions>
          <ns3:TrackPointExtension>
            <ns3:hr>63</ns3:hr>
            <ns3:cad>0</ns3:cad>
          </ns3:TrackPointExtension>
        </extensions>
      </trkpt>
      <trkpt lat="43.4718498028814792633056640625" lon="1.432063914835453033447265625">
        <ele>252.399993896484375</ele>
        <time>2026-08-05T10:47:20.000Z</time>
        <extensions>
          <ns3:TrackPointExtension>
            <ns3:hr>65</ns3:hr>
            <ns3:cad>0</ns3:cad>
          </ns3:TrackPointExtension>
        </extensions>
      </trkpt>
      <trkpt lat="43.4718498028814792633056640625" lon="1.432063914835453033447265625">
        <ele>252.399993896484375</ele>
        <time>2026-08-05T10:47:21.000Z</time>
        <extensions>
          <ns3:TrackPointExtension>
            <ns3:hr>66</ns3:hr>
            <ns3:cad>0</ns3:cad>
          </ns3:TrackPointExtension>
        </extensions>
      </trkpt>
      <trkpt lat="43.4718498028814792633056640625" lon="1.432063914835453033447265625">
        <ele>252.1999969482421875</ele>
        <time>2026-08-05T10:47:22.000Z</time>
        <extensions>
          <ns3:TrackPointExtension>
            <ns3:hr>67</ns3:hr>
            <ns3:cad>0</ns3:cad>
          </ns3:TrackPointExtension>
        </extensions>
      </trkpt>
      <trkpt lat="43.4718498028814792633056640625" lon="1.432063914835453033447265625">
        <ele>252.1999969482421875</ele>
        <time>2026-08-05T10:47:23.000Z</time>
        <extensions>
          <ns3:TrackPointExtension>
            <ns3:hr>67</ns3:hr>
            <ns3:cad>0</ns3:cad>
          </ns3:TrackPointExtension>
        </extensions>
      </trkpt>
      <trkpt lat="43.4718498028814792633056640625" lon="1.432063914835453033447265625">
        <ele>252.1999969482421875</ele>
        <time>2026-08-05T10:47:24.000Z</time>
        <extensions>
          <ns3:TrackPointExtension>
            <ns3:hr>66</ns3:hr>
            <ns3:cad>0</ns3:cad>
          </ns3:TrackPointExtension>
        </extensions>
      </trkpt>
      <trkpt lat="43.4718498028814792633056640625" lon="1.432063914835453033447265625">
        <ele>252.1999969482421875</ele>
        <time>2026-08-05T10:47:25.000Z</time>
        <extensions>
          <ns3:TrackPointExtension>
            <ns3:hr>66</ns3:hr>
            <ns3:cad>0</ns3:cad>
          </ns3:TrackPointExtension>
        </extensions>
      </trkpt>
      <trkpt lat="43.4718498028814792633056640625" lon="1.432063914835453033447265625">
        <ele>252</ele>
        <time>2026-08-05T10:47:26.000Z</time>
        <extensions>
          <ns3:TrackPointExtension>
            <ns3:hr>67</ns3:hr>
            <ns3:cad>0</ns3:cad>
          </ns3:TrackPointExtension>
        </extensions>
      </trkpt>
      <trkpt lat="43.4718498028814792633056640625" lon="1.432063914835453033447265625">
        <ele>252</ele>
        <time>2026-08-05T10:47:27.000Z</time>
        <extensions>
          <ns3:TrackPointExtension>
            <ns3:hr>67</ns3:hr>
            <ns3:cad>0</ns3:cad>
          </ns3:TrackPointExtension>
        </extensions>
      </trkpt>
      <trkpt lat="43.4718498028814792633056640625" lon="1.432063914835453033447265625">
        <ele>252</ele>
        <time>2026-08-05T10:47:28.000Z</time>
        <extensions>
          <ns3:TrackPointExtension>
            <ns3:hr>67</ns3:hr>
            <ns3:cad>0</ns3:cad>
          </ns3:TrackPointExtension>
        </extensions>
      </trkpt>
      <trkpt lat="43.4718498028814792633056640625" lon="1.432063914835453033447265625">
        <ele>252</ele>
        <time>2026-08-05T10:47:29.000Z</time>
        <extensions>
          <ns3:TrackPointExtension>
            <ns3:hr>67</ns3:hr>
            <ns3:cad>0</ns3:cad>
          </ns3:TrackPointExtension>
        </extensions>
      </trkpt>
      <trkpt lat="43.4718498028814792633056640625" lon="1.432063914835453033447265625">
        <ele>252</ele>
        <time>2026-08-05T10:47:30.000Z</time>
        <extensions>
          <ns3:TrackPointExtension>
            <ns3:hr>67</ns3:hr>
            <ns3:cad>0</ns3:cad>
          </ns3:TrackPointExtension>
        </extensions>
      </trkpt>
      <trkpt lat="43.4718498028814792633056640625" lon="1.432063914835453033447265625">
        <ele>252</ele>
        <time>2026-08-05T10:47:31.000Z</time>
        <extensions>
          <ns3:TrackPointExtension>
            <ns3:hr>66</ns3:hr>
            <ns3:cad>0</ns3:cad>
          </ns3:TrackPointExtension>
        </extensions>
      </trkpt>
      <trkpt lat="43.4718498028814792633056640625" lon="1.432063914835453033447265625">
        <ele>252</ele>
        <time>2026-08-05T10:47:32.000Z</time>
        <extensions>
          <ns3:TrackPointExtension>
            <ns3:hr>66</ns3:hr>
            <ns3:cad>0</ns3:cad>
          </ns3:TrackPointExtension>
        </extensions>
      </trkpt>
      <trkpt lat="43.4718498028814792633056640625" lon="1.432063914835453033447265625">
        <ele>252</ele>
        <time>2026-08-05T10:47:33.000Z</time>
        <extensions>
          <ns3:TrackPointExtension>
            <ns3:hr>66</ns3:hr>
            <ns3:cad>0</ns3:cad>
          </ns3:TrackPointExtension>
        </extensions>
      </trkpt>
      <trkpt lat="43.4718498028814792633056640625" lon="1.432063914835453033447265625">
        <ele>252.1999969482421875</ele>
        <time>2026-08-05T10:47:34.000Z</time>
        <extensions>
          <ns3:TrackPointExtension>
            <ns3:hr>66</ns3:hr>
            <ns3:cad>0</ns3:cad>
          </ns3:TrackPointExtension>
        </extensions>
      </trkpt>
      <trkpt lat="43.4718498028814792633056640625" lon="1.432063914835453033447265625">
        <ele>252.1999969482421875</ele>
        <time>2026-08-05T10:47:35.000Z</time>
        <extensions>
          <ns3:TrackPointExtension>
            <ns3:hr>65</ns3:hr>
            <ns3:cad>0</ns3:cad>
          </ns3:TrackPointExtension>
        </extensions>
      </trkpt>
      <trkpt lat="43.4718498028814792633056640625" lon="1.432063914835453033447265625">
        <ele>252.1999969482421875</ele>
        <time>2026-08-05T10:47:36.000Z</time>
        <extensions>
          <ns3:TrackPointExtension>
            <ns3:hr>63</ns3:hr>
            <ns3:cad>0</ns3:cad>
          </ns3:TrackPointExtension>
        </extensions>
      </trkpt>
      <trkpt lat="43.4718498028814792633056640625" lon="1.432063914835453033447265625">
        <ele>252.1999969482421875</ele>
        <time>2026-08-05T10:47:37.000Z</time>
        <extensions>
          <ns3:TrackPointExtension>
            <ns3:hr>63</ns3:hr>
            <ns3:cad>0</ns3:cad>
          </ns3:TrackPointExtension>
        </extensions>
      </trkpt>
      <trkpt lat="43.4718498028814792633056640625" lon="1.432063914835453033447265625">
        <ele>252.1999969482421875</ele>
        <time>2026-08-05T10:47:38.000Z</time>
        <extensions>
          <ns3:TrackPointExtension>
            <ns3:hr>62</ns3:hr>
            <ns3:cad>0</ns3:cad>
          </ns3:TrackPointExtension>
        </extensions>
      </trkpt>
      <trkpt lat="43.4718498028814792633056640625" lon="1.432063914835453033447265625">
        <ele>252.1999969482421875</ele>
        <time>2026-08-05T10:47:39.000Z</time>
        <extensions>
          <ns3:TrackPointExtension>
            <ns3:hr>62</ns3:hr>
            <ns3:cad>0</ns3:cad>
          </ns3:TrackPointExtension>
        </extensions>
      </trkpt>
      <trkpt lat="43.4718498028814792633056640625" lon="1.432063914835453033447265625">
        <ele>252.1999969482421875</ele>
        <time>2026-08-05T10:47:40.000Z</time>
        <extensions>
          <ns3:TrackPointExtension>
            <ns3:hr>62</ns3:hr>
            <ns3:cad>0</ns3:cad>
          </ns3:TrackPointExtension>
        </extensions>
      </trkpt>
      <trkpt lat="43.4718498028814792633056640625" lon="1.432063914835453033447265625">
        <ele>252.1999969482421875</ele>
        <time>2026-08-05T10:47:41.000Z</time>
        <extensions>
          <ns3:TrackPointExtension>
            <ns3:hr>62</ns3:hr>
            <ns3:cad>0</ns3:cad>
          </ns3:TrackPointExtension>
        </extensions>
      </trkpt>
      <trkpt lat="43.4718498028814792633056640625" lon="1.432063914835453033447265625">
        <ele>252.1999969482421875</ele>
        <time>2026-08-05T10:47:42.000Z</time>
        <extensions>
          <ns3:TrackPointExtension>
            <ns3:hr>61</ns3:hr>
            <ns3:cad>0</ns3:cad>
          </ns3:TrackPointExtension>
        </extensions>
      </trkpt>
      <trkpt lat="43.4718498028814792633056640625" lon="1.432063914835453033447265625">
        <ele>252.1999969482421875</ele>
        <time>2026-08-05T10:47:43.000Z</time>
        <extensions>
          <ns3:TrackPointExtension>
            <ns3:hr>61</ns3:hr>
            <ns3:cad>0</ns3:cad>
          </ns3:TrackPointExtension>
        </extensions>
      </trkpt>
      <trkpt lat="43.4718498028814792633056640625" lon="1.432063914835453033447265625">
        <ele>252.1999969482421875</ele>
        <time>2026-08-05T10:47:44.000Z</time>
        <extensions>
          <ns3:TrackPointExtension>
            <ns3:hr>61</ns3:hr>
            <ns3:cad>0</ns3:cad>
          </ns3:TrackPointExtension>
        </extensions>
      </trkpt>
      <trkpt lat="43.4718498028814792633056640625" lon="1.432063914835453033447265625">
        <ele>252.1999969482421875</ele>
        <time>2026-08-05T10:47:45.000Z</time>
        <extensions>
          <ns3:TrackPointExtension>
            <ns3:hr>61</ns3:hr>
            <ns3:cad>0</ns3:cad>
          </ns3:TrackPointExtension>
        </extensions>
      </trkpt>
      <trkpt lat="43.4718498028814792633056640625" lon="1.432063914835453033447265625">
        <ele>252.1999969482421875</ele>
        <time>2026-08-05T10:47:46.000Z</time>
        <extensions>
          <ns3:TrackPointExtension>
            <ns3:hr>62</ns3:hr>
            <ns3:cad>0</ns3:cad>
          </ns3:TrackPointExtension>
        </extensions>
      </trkpt>
      <trkpt lat="43.4718498028814792633056640625" lon="1.432063914835453033447265625">
        <ele>252.1999969482421875</ele>
        <time>2026-08-05T10:47:47.000Z</time>
        <extensions>
          <ns3:TrackPointExtension>
            <ns3:hr>62</ns3:hr>
            <ns3:cad>0</ns3:cad>
          </ns3:TrackPointExtension>
        </extensions>
      </trkpt>
      <trkpt lat="43.4718498028814792633056640625" lon="1.432063914835453033447265625">
        <ele>252.1999969482421875</ele>
        <time>2026-08-05T10:47:48.000Z</time>
        <extensions>
          <ns3:TrackPointExtension>
            <ns3:hr>62</ns3:hr>
            <ns3:cad>0</ns3:cad>
          </ns3:TrackPointExtension>
        </extensions>
      </trkpt>
      <trkpt lat="43.4718498028814792633056640625" lon="1.432063914835453033447265625">
        <ele>252.1999969482421875</ele>
        <time>2026-08-05T10:47:49.000Z</time>
        <extensions>
          <ns3:TrackPointExtension>
            <ns3:hr>63</ns3:hr>
            <ns3:cad>0</ns3:cad>
          </ns3:TrackPointExtension>
        </extensions>
      </trkpt>
      <trkpt lat="43.4718498028814792633056640625" lon="1.432063914835453033447265625">
        <ele>252.1999969482421875</ele>
        <time>2026-08-05T10:47:50.000Z</time>
        <extensions>
          <ns3:TrackPointExtension>
            <ns3:hr>63</ns3:hr>
            <ns3:cad>0</ns3:cad>
          </ns3:TrackPointExtension>
        </extensions>
      </trkpt>
      <trkpt lat="43.4718498028814792633056640625" lon="1.432063914835453033447265625">
        <ele>252.1999969482421875</ele>
        <time>2026-08-05T10:47:51.000Z</time>
        <extensions>
          <ns3:TrackPointExtension>
            <ns3:hr>63</ns3:hr>
            <ns3:cad>0</ns3:cad>
          </ns3:TrackPointExtension>
        </extensions>
      </trkpt>
      <trkpt lat="43.4718498028814792633056640625" lon="1.432063914835453033447265625">
        <ele>252.1999969482421875</ele>
        <time>2026-08-05T10:47:52.000Z</time>
        <extensions>
          <ns3:TrackPointExtension>
            <ns3:hr>62</ns3:hr>
            <ns3:cad>0</ns3:cad>
          </ns3:TrackPointExtension>
        </extensions>
      </trkpt>
      <trkpt lat="43.4718498028814792633056640625" lon="1.432063914835453033447265625">
        <ele>252.1999969482421875</ele>
        <time>2026-08-05T10:47:53.000Z</time>
        <extensions>
          <ns3:TrackPointExtension>
            <ns3:hr>62</ns3:hr>
            <ns3:cad>0</ns3:cad>
          </ns3:TrackPointExtension>
        </extensions>
      </trkpt>
      <trkpt lat="43.4718498028814792633056640625" lon="1.432063914835453033447265625">
        <ele>252.1999969482421875</ele>
        <time>2026-08-05T10:47:54.000Z</time>
        <extensions>
          <ns3:TrackPointExtension>
            <ns3:hr>62</ns3:hr>
            <ns3:cad>0</ns3:cad>
          </ns3:TrackPointExtension>
        </extensions>
      </trkpt>
      <trkpt lat="43.4718498028814792633056640625" lon="1.432063914835453033447265625">
        <ele>252.1999969482421875</ele>
        <time>2026-08-05T10:47:55.000Z</time>
        <extensions>
          <ns3:TrackPointExtension>
            <ns3:hr>62</ns3:hr>
            <ns3:cad>0</ns3:cad>
          </ns3:TrackPointExtension>
        </extensions>
      </trkpt>
      <trkpt lat="43.4718498028814792633056640625" lon="1.432063914835453033447265625">
        <ele>252.1999969482421875</ele>
        <time>2026-08-05T10:47:56.000Z</time>
        <extensions>
          <ns3:TrackPointExtension>
            <ns3:hr>63</ns3:hr>
            <ns3:cad>0</ns3:cad>
          </ns3:TrackPointExtension>
        </extensions>
      </trkpt>
      <trkpt lat="43.4718498028814792633056640625" lon="1.432063914835453033447265625">
        <ele>252.399993896484375</ele>
        <time>2026-08-05T10:47:57.000Z</time>
        <extensions>
          <ns3:TrackPointExtension>
            <ns3:hr>62</ns3:hr>
            <ns3:cad>0</ns3:cad>
          </ns3:TrackPointExtension>
        </extensions>
      </trkpt>
      <trkpt lat="43.4718498028814792633056640625" lon="1.432063914835453033447265625">
        <ele>252.399993896484375</ele>
        <time>2026-08-05T10:47:58.000Z</time>
        <extensions>
          <ns3:TrackPointExtension>
            <ns3:hr>62</ns3:hr>
            <ns3:cad>0</ns3:cad>
          </ns3:TrackPointExtension>
        </extensions>
      </trkpt>
      <trkpt lat="43.4718498028814792633056640625" lon="1.432063914835453033447265625">
        <ele>252.399993896484375</ele>
        <time>2026-08-05T10:47:59.000Z</time>
        <extensions>
          <ns3:TrackPointExtension>
            <ns3:hr>62</ns3:hr>
            <ns3:cad>0</ns3:cad>
          </ns3:TrackPointExtension>
        </extensions>
      </trkpt>
      <trkpt lat="43.4718498028814792633056640625" lon="1.432063914835453033447265625">
        <ele>252.1999969482421875</ele>
        <time>2026-08-05T10:48:00.000Z</time>
        <extensions>
          <ns3:TrackPointExtension>
            <ns3:hr>62</ns3:hr>
            <ns3:cad>0</ns3:cad>
          </ns3:TrackPointExtension>
        </extensions>
      </trkpt>
      <trkpt lat="43.4718498028814792633056640625" lon="1.432063914835453033447265625">
        <ele>252.1999969482421875</ele>
        <time>2026-08-05T10:48:01.000Z</time>
        <extensions>
          <ns3:TrackPointExtension>
            <ns3:hr>64</ns3:hr>
            <ns3:cad>0</ns3:cad>
          </ns3:TrackPointExtension>
        </extensions>
      </trkpt>
      <trkpt lat="43.4718498028814792633056640625" lon="1.432063914835453033447265625">
        <ele>252.1999969482421875</ele>
        <time>2026-08-05T10:48:02.000Z</time>
        <extensions>
          <ns3:TrackPointExtension>
            <ns3:hr>64</ns3:hr>
            <ns3:cad>0</ns3:cad>
          </ns3:TrackPointExtension>
        </extensions>
      </trkpt>
      <trkpt lat="43.4718498028814792633056640625" lon="1.432063914835453033447265625">
        <ele>252.1999969482421875</ele>
        <time>2026-08-05T10:48:03.000Z</time>
        <extensions>
          <ns3:TrackPointExtension>
            <ns3:hr>64</ns3:hr>
            <ns3:cad>0</ns3:cad>
          </ns3:TrackPointExtension>
        </extensions>
      </trkpt>
      <trkpt lat="43.4718498028814792633056640625" lon="1.432063914835453033447265625">
        <ele>252.1999969482421875</ele>
        <time>2026-08-05T10:48:04.000Z</time>
        <extensions>
          <ns3:TrackPointExtension>
            <ns3:hr>63</ns3:hr>
            <ns3:cad>0</ns3:cad>
          </ns3:TrackPointExtension>
        </extensions>
      </trkpt>
      <trkpt lat="43.4718498028814792633056640625" lon="1.432063914835453033447265625">
        <ele>252.1999969482421875</ele>
        <time>2026-08-05T10:48:05.000Z</time>
        <extensions>
          <ns3:TrackPointExtension>
            <ns3:hr>62</ns3:hr>
            <ns3:cad>0</ns3:cad>
          </ns3:TrackPointExtension>
        </extensions>
      </trkpt>
      <trkpt lat="43.4718498028814792633056640625" lon="1.432063914835453033447265625">
        <ele>252.1999969482421875</ele>
        <time>2026-08-05T10:48:06.000Z</time>
        <extensions>
          <ns3:TrackPointExtension>
            <ns3:hr>62</ns3:hr>
            <ns3:cad>0</ns3:cad>
          </ns3:TrackPointExtension>
        </extensions>
      </trkpt>
      <trkpt lat="43.4718498028814792633056640625" lon="1.432063914835453033447265625">
        <ele>252.1999969482421875</ele>
        <time>2026-08-05T10:48:07.000Z</time>
        <extensions>
          <ns3:TrackPointExtension>
            <ns3:hr>61</ns3:hr>
            <ns3:cad>0</ns3:cad>
          </ns3:TrackPointExtension>
        </extensions>
      </trkpt>
      <trkpt lat="43.4718498028814792633056640625" lon="1.432063914835453033447265625">
        <ele>252.1999969482421875</ele>
        <time>2026-08-05T10:48:08.000Z</time>
        <extensions>
          <ns3:TrackPointExtension>
            <ns3:hr>61</ns3:hr>
            <ns3:cad>0</ns3:cad>
          </ns3:TrackPointExtension>
        </extensions>
      </trkpt>
      <trkpt lat="43.4718498028814792633056640625" lon="1.432063914835453033447265625">
        <ele>252.1999969482421875</ele>
        <time>2026-08-05T10:48:09.000Z</time>
        <extensions>
          <ns3:TrackPointExtension>
            <ns3:hr>61</ns3:hr>
            <ns3:cad>0</ns3:cad>
          </ns3:TrackPointExtension>
        </extensions>
      </trkpt>
      <trkpt lat="43.4718498028814792633056640625" lon="1.432063914835453033447265625">
        <ele>252.1999969482421875</ele>
        <time>2026-08-05T10:48:10.000Z</time>
        <extensions>
          <ns3:TrackPointExtension>
            <ns3:hr>61</ns3:hr>
            <ns3:cad>0</ns3:cad>
          </ns3:TrackPointExtension>
        </extensions>
      </trkpt>
      <trkpt lat="43.4718498028814792633056640625" lon="1.432063914835453033447265625">
        <ele>252.1999969482421875</ele>
        <time>2026-08-05T10:48:11.000Z</time>
        <extensions>
          <ns3:TrackPointExtension>
            <ns3:hr>62</ns3:hr>
            <ns3:cad>0</ns3:cad>
          </ns3:TrackPointExtension>
        </extensions>
      </trkpt>
      <trkpt lat="43.4718498028814792633056640625" lon="1.432063914835453033447265625">
        <ele>252.1999969482421875</ele>
        <time>2026-08-05T10:48:12.000Z</time>
        <extensions>
          <ns3:TrackPointExtension>
            <ns3:hr>63</ns3:hr>
            <ns3:cad>0</ns3:cad>
          </ns3:TrackPointExtension>
        </extensions>
      </trkpt>
      <trkpt lat="43.4718498028814792633056640625" lon="1.432063914835453033447265625">
        <ele>252</ele>
        <time>2026-08-05T10:48:13.000Z</time>
        <extensions>
          <ns3:TrackPointExtension>
            <ns3:hr>63</ns3:hr>
            <ns3:cad>0</ns3:cad>
          </ns3:TrackPointExtension>
        </extensions>
      </trkpt>
      <trkpt lat="43.4718498028814792633056640625" lon="1.432063914835453033447265625">
        <ele>252</ele>
        <time>2026-08-05T10:48:14.000Z</time>
        <extensions>
          <ns3:TrackPointExtension>
            <ns3:hr>62</ns3:hr>
            <ns3:cad>0</ns3:cad>
          </ns3:TrackPointExtension>
        </extensions>
      </trkpt>
      <trkpt lat="43.4718498028814792633056640625" lon="1.432063914835453033447265625">
        <ele>252</ele>
        <time>2026-08-05T10:48:15.000Z</time>
        <extensions>
          <ns3:TrackPointExtension>
            <ns3:hr>63</ns3:hr>
            <ns3:cad>0</ns3:cad>
          </ns3:TrackPointExtension>
        </extensions>
      </trkpt>
      <trkpt lat="43.4718498028814792633056640625" lon="1.432063914835453033447265625">
        <ele>252</ele>
        <time>2026-08-05T10:48:16.000Z</time>
        <extensions>
          <ns3:TrackPointExtension>
            <ns3:hr>62</ns3:hr>
            <ns3:cad>0</ns3:cad>
          </ns3:TrackPointExtension>
        </extensions>
      </trkpt>
      <trkpt lat="43.4718498028814792633056640625" lon="1.432063914835453033447265625">
        <ele>252</ele>
        <time>2026-08-05T10:48:17.000Z</time>
        <extensions>
          <ns3:TrackPointExtension>
            <ns3:hr>62</ns3:hr>
            <ns3:cad>0</ns3:cad>
          </ns3:TrackPointExtension>
        </extensions>
      </trkpt>
      <trkpt lat="43.4718498028814792633056640625" lon="1.432063914835453033447265625">
        <ele>252</ele>
        <time>2026-08-05T10:48:18.000Z</time>
        <extensions>
          <ns3:TrackPointExtension>
            <ns3:hr>62</ns3:hr>
            <ns3:cad>0</ns3:cad>
          </ns3:TrackPointExtension>
        </extensions>
      </trkpt>
      <trkpt lat="43.4718498028814792633056640625" lon="1.432063914835453033447265625">
        <ele>252.1999969482421875</ele>
        <time>2026-08-05T10:48:19.000Z</time>
        <extensions>
          <ns3:TrackPointExtension>
            <ns3:hr>61</ns3:hr>
            <ns3:cad>0</ns3:cad>
          </ns3:TrackPointExtension>
        </extensions>
      </trkpt>
      <trkpt lat="43.4718498028814792633056640625" lon="1.432063914835453033447265625">
        <ele>252.1999969482421875</ele>
        <time>2026-08-05T10:48:20.000Z</time>
        <extensions>
          <ns3:TrackPointExtension>
            <ns3:hr>62</ns3:hr>
            <ns3:cad>0</ns3:cad>
          </ns3:TrackPointExtension>
        </extensions>
      </trkpt>
      <trkpt lat="43.4718498028814792633056640625" lon="1.432063914835453033447265625">
        <ele>252.399993896484375</ele>
        <time>2026-08-05T10:48:21.000Z</time>
        <extensions>
          <ns3:TrackPointExtension>
            <ns3:hr>62</ns3:hr>
            <ns3:cad>0</ns3:cad>
          </ns3:TrackPointExtension>
        </extensions>
      </trkpt>
      <trkpt lat="43.4718498028814792633056640625" lon="1.432063914835453033447265625">
        <ele>252.399993896484375</ele>
        <time>2026-08-05T10:48:22.000Z</time>
        <extensions>
          <ns3:TrackPointExtension>
            <ns3:hr>62</ns3:hr>
            <ns3:cad>0</ns3:cad>
          </ns3:TrackPointExtension>
        </extensions>
      </trkpt>
      <trkpt lat="43.4718498028814792633056640625" lon="1.432063914835453033447265625">
        <ele>252.399993896484375</ele>
        <time>2026-08-05T10:48:23.000Z</time>
        <extensions>
          <ns3:TrackPointExtension>
            <ns3:hr>62</ns3:hr>
            <ns3:cad>0</ns3:cad>
          </ns3:TrackPointExtension>
        </extensions>
      </trkpt>
      <trkpt lat="43.4718498028814792633056640625" lon="1.432063914835453033447265625">
        <ele>252.1999969482421875</ele>
        <time>2026-08-05T10:48:24.000Z</time>
        <extensions>
          <ns3:TrackPointExtension>
            <ns3:hr>63</ns3:hr>
            <ns3:cad>0</ns3:cad>
          </ns3:TrackPointExtension>
        </extensions>
      </trkpt>
      <trkpt lat="43.4718498028814792633056640625" lon="1.432063914835453033447265625">
        <ele>252.1999969482421875</ele>
        <time>2026-08-05T10:48:25.000Z</time>
        <extensions>
          <ns3:TrackPointExtension>
            <ns3:hr>63</ns3:hr>
            <ns3:cad>0</ns3:cad>
          </ns3:TrackPointExtension>
        </extensions>
      </trkpt>
      <trkpt lat="43.4718498028814792633056640625" lon="1.432063914835453033447265625">
        <ele>252.1999969482421875</ele>
        <time>2026-08-05T10:48:26.000Z</time>
        <extensions>
          <ns3:TrackPointExtension>
            <ns3:hr>64</ns3:hr>
            <ns3:cad>0</ns3:cad>
          </ns3:TrackPointExtension>
        </extensions>
      </trkpt>
      <trkpt lat="43.4718498028814792633056640625" lon="1.432063914835453033447265625">
        <ele>252.1999969482421875</ele>
        <time>2026-08-05T10:48:27.000Z</time>
        <extensions>
          <ns3:TrackPointExtension>
            <ns3:hr>65</ns3:hr>
            <ns3:cad>0</ns3:cad>
          </ns3:TrackPointExtension>
        </extensions>
      </trkpt>
      <trkpt lat="43.4718498028814792633056640625" lon="1.432063914835453033447265625">
        <ele>252.1999969482421875</ele>
        <time>2026-08-05T10:48:28.000Z</time>
        <extensions>
          <ns3:TrackPointExtension>
            <ns3:hr>65</ns3:hr>
            <ns3:cad>0</ns3:cad>
          </ns3:TrackPointExtension>
        </extensions>
      </trkpt>
      <trkpt lat="43.4718498028814792633056640625" lon="1.432063914835453033447265625">
        <ele>252.399993896484375</ele>
        <time>2026-08-05T10:48:29.000Z</time>
        <extensions>
          <ns3:TrackPointExtension>
            <ns3:hr>65</ns3:hr>
            <ns3:cad>0</ns3:cad>
          </ns3:TrackPointExtension>
        </extensions>
      </trkpt>
      <trkpt lat="43.4718498028814792633056640625" lon="1.432063914835453033447265625">
        <ele>252.399993896484375</ele>
        <time>2026-08-05T10:48:30.000Z</time>
        <extensions>
          <ns3:TrackPointExtension>
            <ns3:hr>64</ns3:hr>
            <ns3:cad>0</ns3:cad>
          </ns3:TrackPointExtension>
        </extensions>
      </trkpt>
      <trkpt lat="43.4718498028814792633056640625" lon="1.432063914835453033447265625">
        <ele>252.399993896484375</ele>
        <time>2026-08-05T10:48:31.000Z</time>
        <extensions>
          <ns3:TrackPointExtension>
            <ns3:hr>64</ns3:hr>
            <ns3:cad>0</ns3:cad>
          </ns3:TrackPointExtension>
        </extensions>
      </trkpt>
      <trkpt lat="43.4718498028814792633056640625" lon="1.432063914835453033447265625">
        <ele>252.399993896484375</ele>
        <time>2026-08-05T10:48:32.000Z</time>
        <extensions>
          <ns3:TrackPointExtension>
            <ns3:hr>64</ns3:hr>
            <ns3:cad>0</ns3:cad>
          </ns3:TrackPointExtension>
        </extensions>
      </trkpt>
      <trkpt lat="43.4718498028814792633056640625" lon="1.432063914835453033447265625">
        <ele>252.399993896484375</ele>
        <time>2026-08-05T10:48:33.000Z</time>
        <extensions>
          <ns3:TrackPointExtension>
            <ns3:hr>64</ns3:hr>
            <ns3:cad>0</ns3:cad>
          </ns3:TrackPointExtension>
        </extensions>
      </trkpt>
      <trkpt lat="43.4718498028814792633056640625" lon="1.432063914835453033447265625">
        <ele>252.399993896484375</ele>
        <time>2026-08-05T10:48:34.000Z</time>
        <extensions>
          <ns3:TrackPointExtension>
            <ns3:hr>64</ns3:hr>
            <ns3:cad>0</ns3:cad>
          </ns3:TrackPointExtension>
        </extensions>
      </trkpt>
      <trkpt lat="43.4718498028814792633056640625" lon="1.432063914835453033447265625">
        <ele>252.399993896484375</ele>
        <time>2026-08-05T10:48:35.000Z</time>
        <extensions>
          <ns3:TrackPointExtension>
            <ns3:hr>63</ns3:hr>
            <ns3:cad>0</ns3:cad>
          </ns3:TrackPointExtension>
        </extensions>
      </trkpt>
      <trkpt lat="43.4718498028814792633056640625" lon="1.432063914835453033447265625">
        <ele>252.399993896484375</ele>
        <time>2026-08-05T10:48:36.000Z</time>
        <extensions>
          <ns3:TrackPointExtension>
            <ns3:hr>64</ns3:hr>
            <ns3:cad>0</ns3:cad>
          </ns3:TrackPointExtension>
        </extensions>
      </trkpt>
      <trkpt lat="43.4718498028814792633056640625" lon="1.432063914835453033447265625">
        <ele>252.399993896484375</ele>
        <time>2026-08-05T10:48:37.000Z</time>
        <extensions>
          <ns3:TrackPointExtension>
            <ns3:hr>64</ns3:hr>
            <ns3:cad>0</ns3:cad>
          </ns3:TrackPointExtension>
        </extensions>
      </trkpt>
      <trkpt lat="43.4718498028814792633056640625" lon="1.432063914835453033447265625">
        <ele>252.399993896484375</ele>
        <time>2026-08-05T10:48:38.000Z</time>
        <extensions>
          <ns3:TrackPointExtension>
            <ns3:hr>64</ns3:hr>
            <ns3:cad>0</ns3:cad>
          </ns3:TrackPointExtension>
        </extensions>
      </trkpt>
      <trkpt lat="43.4718498028814792633056640625" lon="1.432063914835453033447265625">
        <ele>252.399993896484375</ele>
        <time>2026-08-05T10:48:39.000Z</time>
        <extensions>
          <ns3:TrackPointExtension>
            <ns3:hr>63</ns3:hr>
            <ns3:cad>0</ns3:cad>
          </ns3:TrackPointExtension>
        </extensions>
      </trkpt>
      <trkpt lat="43.4718498028814792633056640625" lon="1.432063914835453033447265625">
        <ele>252.399993896484375</ele>
        <time>2026-08-05T10:48:40.000Z</time>
        <extensions>
          <ns3:TrackPointExtension>
            <ns3:hr>63</ns3:hr>
            <ns3:cad>0</ns3:cad>
          </ns3:TrackPointExtension>
        </extensions>
      </trkpt>
      <trkpt lat="43.4718498028814792633056640625" lon="1.432063914835453033447265625">
        <ele>252.399993896484375</ele>
        <time>2026-08-05T10:48:41.000Z</time>
        <extensions>
          <ns3:TrackPointExtension>
            <ns3:hr>64</ns3:hr>
            <ns3:cad>0</ns3:cad>
          </ns3:TrackPointExtension>
        </extensions>
      </trkpt>
      <trkpt lat="43.4718498028814792633056640625" lon="1.432063914835453033447265625">
        <ele>252.600006103515625</ele>
        <time>2026-08-05T10:48:42.000Z</time>
        <extensions>
          <ns3:TrackPointExtension>
            <ns3:hr>64</ns3:hr>
            <ns3:cad>0</ns3:cad>
          </ns3:TrackPointExtension>
        </extensions>
      </trkpt>
      <trkpt lat="43.4718498028814792633056640625" lon="1.432063914835453033447265625">
        <ele>252.600006103515625</ele>
        <time>2026-08-05T10:48:43.000Z</time>
        <extensions>
          <ns3:TrackPointExtension>
            <ns3:hr>64</ns3:hr>
            <ns3:cad>0</ns3:cad>
          </ns3:TrackPointExtension>
        </extensions>
      </trkpt>
      <trkpt lat="43.4718498028814792633056640625" lon="1.432063914835453033447265625">
        <ele>252.600006103515625</ele>
        <time>2026-08-05T10:48:44.000Z</time>
        <extensions>
          <ns3:TrackPointExtension>
            <ns3:hr>65</ns3:hr>
            <ns3:cad>0</ns3:cad>
          </ns3:TrackPointExtension>
        </extensions>
      </trkpt>
      <trkpt lat="43.4718498028814792633056640625" lon="1.432063914835453033447265625">
        <ele>252.600006103515625</ele>
        <time>2026-08-05T10:48:45.000Z</time>
        <extensions>
          <ns3:TrackPointExtension>
            <ns3:hr>64</ns3:hr>
            <ns3:cad>0</ns3:cad>
          </ns3:TrackPointExtension>
        </extensions>
      </trkpt>
      <trkpt lat="43.4718498028814792633056640625" lon="1.432063914835453033447265625">
        <ele>252.600006103515625</ele>
        <time>2026-08-05T10:48:46.000Z</time>
        <extensions>
          <ns3:TrackPointExtension>
            <ns3:hr>65</ns3:hr>
            <ns3:cad>0</ns3:cad>
          </ns3:TrackPointExtension>
        </extensions>
      </trkpt>
      <trkpt lat="43.4718498028814792633056640625" lon="1.432063914835453033447265625">
        <ele>252.600006103515625</ele>
        <time>2026-08-05T10:48:47.000Z</time>
        <extensions>
          <ns3:TrackPointExtension>
            <ns3:hr>65</ns3:hr>
            <ns3:cad>0</ns3:cad>
          </ns3:TrackPointExtension>
        </extensions>
      </trkpt>
      <trkpt lat="43.47184804268181324005126953125" lon="1.432071961462497711181640625">
        <ele>252.600006103515625</ele>
        <time>2026-08-05T10:48:48.000Z</time>
        <extensions>
          <ns3:TrackPointExtension>
            <ns3:hr>65</ns3:hr>
            <ns3:cad>0</ns3:cad>
          </ns3:TrackPointExtension>
        </extensions>
      </trkpt>
      <trkpt lat="43.4718498028814792633056640625" lon="1.432063914835453033447265625">
        <ele>252.600006103515625</ele>
        <time>2026-08-05T10:48:49.000Z</time>
        <extensions>
          <ns3:TrackPointExtension>
            <ns3:hr>65</ns3:hr>
            <ns3:cad>0</ns3:cad>
          </ns3:TrackPointExtension>
        </extensions>
      </trkpt>
      <trkpt lat="43.4718498028814792633056640625" lon="1.432063914835453033447265625">
        <ele>252.8000030517578125</ele>
        <time>2026-08-05T10:48:50.000Z</time>
        <extensions>
          <ns3:TrackPointExtension>
            <ns3:hr>64</ns3:hr>
            <ns3:cad>0</ns3:cad>
          </ns3:TrackPointExtension>
        </extensions>
      </trkpt>
      <trkpt lat="43.4718498028814792633056640625" lon="1.432063914835453033447265625">
        <ele>252.8000030517578125</ele>
        <time>2026-08-05T10:48:51.000Z</time>
        <extensions>
          <ns3:TrackPointExtension>
            <ns3:hr>65</ns3:hr>
            <ns3:cad>0</ns3:cad>
          </ns3:TrackPointExtension>
        </extensions>
      </trkpt>
      <trkpt lat="43.4718498028814792633056640625" lon="1.432063914835453033447265625">
        <ele>252.8000030517578125</ele>
        <time>2026-08-05T10:48:52.000Z</time>
        <extensions>
          <ns3:TrackPointExtension>
            <ns3:hr>65</ns3:hr>
            <ns3:cad>0</ns3:cad>
          </ns3:TrackPointExtension>
        </extensions>
      </trkpt>
      <trkpt lat="43.4718498028814792633056640625" lon="1.432063914835453033447265625">
        <ele>252.8000030517578125</ele>
        <time>2026-08-05T10:48:53.000Z</time>
        <extensions>
          <ns3:TrackPointExtension>
            <ns3:hr>65</ns3:hr>
            <ns3:cad>0</ns3:cad>
          </ns3:TrackPointExtension>
        </extensions>
      </trkpt>
      <trkpt lat="43.4718498028814792633056640625" lon="1.432063914835453033447265625">
        <ele>252.8000030517578125</ele>
        <time>2026-08-05T10:48:54.000Z</time>
        <extensions>
          <ns3:TrackPointExtension>
            <ns3:hr>65</ns3:hr>
            <ns3:cad>0</ns3:cad>
          </ns3:TrackPointExtension>
        </extensions>
      </trkpt>
      <trkpt lat="43.4718498028814792633056640625" lon="1.432063914835453033447265625">
        <ele>252.8000030517578125</ele>
        <time>2026-08-05T10:48:55.000Z</time>
        <extensions>
          <ns3:TrackPointExtension>
            <ns3:hr>64</ns3:hr>
            <ns3:cad>0</ns3:cad>
          </ns3:TrackPointExtension>
        </extensions>
      </trkpt>
      <trkpt lat="43.4718498028814792633056640625" lon="1.432063914835453033447265625">
        <ele>252.8000030517578125</ele>
        <time>2026-08-05T10:48:56.000Z</time>
        <extensions>
          <ns3:TrackPointExtension>
            <ns3:hr>65</ns3:hr>
            <ns3:cad>0</ns3:cad>
          </ns3:TrackPointExtension>
        </extensions>
      </trkpt>
      <trkpt lat="43.4718498028814792633056640625" lon="1.432063914835453033447265625">
        <ele>252.8000030517578125</ele>
        <time>2026-08-05T10:48:57.000Z</time>
        <extensions>
          <ns3:TrackPointExtension>
            <ns3:hr>65</ns3:hr>
            <ns3:cad>0</ns3:cad>
          </ns3:TrackPointExtension>
        </extensions>
      </trkpt>
      <trkpt lat="43.4718498028814792633056640625" lon="1.432063914835453033447265625">
        <ele>252.8000030517578125</ele>
        <time>2026-08-05T10:48:58.000Z</time>
        <extensions>
          <ns3:TrackPointExtension>
            <ns3:hr>65</ns3:hr>
            <ns3:cad>0</ns3:cad>
          </ns3:TrackPointExtension>
        </extensions>
      </trkpt>
      <trkpt lat="43.4718498028814792633056640625" lon="1.432063914835453033447265625">
        <ele>252.8000030517578125</ele>
        <time>2026-08-05T10:48:59.000Z</time>
        <extensions>
          <ns3:TrackPointExtension>
            <ns3:hr>65</ns3:hr>
            <ns3:cad>0</ns3:cad>
          </ns3:TrackPointExtension>
        </extensions>
      </trkpt>
      <trkpt lat="43.4718498028814792633056640625" lon="1.432063914835453033447265625">
        <ele>252.8000030517578125</ele>
        <time>2026-08-05T10:49:00.000Z</time>
        <extensions>
          <ns3:TrackPointExtension>
            <ns3:hr>65</ns3:hr>
            <ns3:cad>0</ns3:cad>
          </ns3:TrackPointExtension>
        </extensions>
      </trkpt>
      <trkpt lat="43.4718498028814792633056640625" lon="1.432063914835453033447265625">
        <ele>252.8000030517578125</ele>
        <time>2026-08-05T10:49:01.000Z</time>
        <extensions>
          <ns3:TrackPointExtension>
            <ns3:hr>64</ns3:hr>
            <ns3:cad>0</ns3:cad>
          </ns3:TrackPointExtension>
        </extensions>
      </trkpt>
      <trkpt lat="43.4718498028814792633056640625" lon="1.432063914835453033447265625">
        <ele>252.8000030517578125</ele>
        <time>2026-08-05T10:49:02.000Z</time>
        <extensions>
          <ns3:TrackPointExtension>
            <ns3:hr>63</ns3:hr>
            <ns3:cad>0</ns3:cad>
          </ns3:TrackPointExtension>
        </extensions>
      </trkpt>
      <trkpt lat="43.4718498028814792633056640625" lon="1.432063914835453033447265625">
        <ele>252.8000030517578125</ele>
        <time>2026-08-05T10:49:03.000Z</time>
        <extensions>
          <ns3:TrackPointExtension>
            <ns3:hr>62</ns3:hr>
            <ns3:cad>0</ns3:cad>
          </ns3:TrackPointExtension>
        </extensions>
      </trkpt>
      <trkpt lat="43.4718498028814792633056640625" lon="1.432063914835453033447265625">
        <ele>252.8000030517578125</ele>
        <time>2026-08-05T10:49:04.000Z</time>
        <extensions>
          <ns3:TrackPointExtension>
            <ns3:hr>61</ns3:hr>
            <ns3:cad>0</ns3:cad>
          </ns3:TrackPointExtension>
        </extensions>
      </trkpt>
      <trkpt lat="43.4718498028814792633056640625" lon="1.432063914835453033447265625">
        <ele>252.8000030517578125</ele>
        <time>2026-08-05T10:49:05.000Z</time>
        <extensions>
          <ns3:TrackPointExtension>
            <ns3:hr>61</ns3:hr>
            <ns3:cad>0</ns3:cad>
          </ns3:TrackPointExtension>
        </extensions>
      </trkpt>
      <trkpt lat="43.4718498028814792633056640625" lon="1.432063914835453033447265625">
        <ele>252.8000030517578125</ele>
        <time>2026-08-05T10:49:06.000Z</time>
        <extensions>
          <ns3:TrackPointExtension>
            <ns3:hr>61</ns3:hr>
            <ns3:cad>0</ns3:cad>
          </ns3:TrackPointExtension>
        </extensions>
      </trkpt>
      <trkpt lat="43.4718498028814792633056640625" lon="1.432063914835453033447265625">
        <ele>252.8000030517578125</ele>
        <time>2026-08-05T10:49:07.000Z</time>
        <extensions>
          <ns3:TrackPointExtension>
            <ns3:hr>61</ns3:hr>
            <ns3:cad>0</ns3:cad>
          </ns3:TrackPointExtension>
        </extensions>
      </trkpt>
      <trkpt lat="43.4718498028814792633056640625" lon="1.432063914835453033447265625">
        <ele>252.8000030517578125</ele>
        <time>2026-08-05T10:49:08.000Z</time>
        <extensions>
          <ns3:TrackPointExtension>
            <ns3:hr>61</ns3:hr>
            <ns3:cad>0</ns3:cad>
          </ns3:TrackPointExtension>
        </extensions>
      </trkpt>
      <trkpt lat="43.4718498028814792633056640625" lon="1.432063914835453033447265625">
        <ele>252.8000030517578125</ele>
        <time>2026-08-05T10:49:09.000Z</time>
        <extensions>
          <ns3:TrackPointExtension>
            <ns3:hr>60</ns3:hr>
            <ns3:cad>0</ns3:cad>
          </ns3:TrackPointExtension>
        </extensions>
      </trkpt>
      <trkpt lat="43.4718504734337329864501953125" lon="1.43206634558737277984619140625">
        <ele>252.8000030517578125</ele>
        <time>2026-08-05T10:49:10.000Z</time>
        <extensions>
          <ns3:TrackPointExtension>
            <ns3:hr>61</ns3:hr>
            <ns3:cad>0</ns3:cad>
          </ns3:TrackPointExtension>
        </extensions>
      </trkpt>
      <trkpt lat="43.4718498028814792633056640625" lon="1.432063914835453033447265625">
        <ele>252.8000030517578125</ele>
        <time>2026-08-05T10:49:11.000Z</time>
        <extensions>
          <ns3:TrackPointExtension>
            <ns3:hr>61</ns3:hr>
            <ns3:cad>0</ns3:cad>
          </ns3:TrackPointExtension>
        </extensions>
      </trkpt>
      <trkpt lat="43.4718498028814792633056640625" lon="1.432063914835453033447265625">
        <ele>252.8000030517578125</ele>
        <time>2026-08-05T10:49:12.000Z</time>
        <extensions>
          <ns3:TrackPointExtension>
            <ns3:hr>60</ns3:hr>
            <ns3:cad>0</ns3:cad>
          </ns3:TrackPointExtension>
        </extensions>
      </trkpt>
      <trkpt lat="43.4718498028814792633056640625" lon="1.432063914835453033447265625">
        <ele>252.600006103515625</ele>
        <time>2026-08-05T10:49:13.000Z</time>
        <extensions>
          <ns3:TrackPointExtension>
            <ns3:hr>60</ns3:hr>
            <ns3:cad>0</ns3:cad>
          </ns3:TrackPointExtension>
        </extensions>
      </trkpt>
      <trkpt lat="43.4718498028814792633056640625" lon="1.432063914835453033447265625">
        <ele>252.600006103515625</ele>
        <time>2026-08-05T10:49:14.000Z</time>
        <extensions>
          <ns3:TrackPointExtension>
            <ns3:hr>60</ns3:hr>
            <ns3:cad>0</ns3:cad>
          </ns3:TrackPointExtension>
        </extensions>
      </trkpt>
      <trkpt lat="43.4718498028814792633056640625" lon="1.432063914835453033447265625">
        <ele>252.600006103515625</ele>
        <time>2026-08-05T10:49:15.000Z</time>
        <extensions>
          <ns3:TrackPointExtension>
            <ns3:hr>60</ns3:hr>
            <ns3:cad>0</ns3:cad>
          </ns3:TrackPointExtension>
        </extensions>
      </trkpt>
      <trkpt lat="43.4718498028814792633056640625" lon="1.432063914835453033447265625">
        <ele>252.600006103515625</ele>
        <time>2026-08-05T10:49:16.000Z</time>
        <extensions>
          <ns3:TrackPointExtension>
            <ns3:hr>60</ns3:hr>
            <ns3:cad>0</ns3:cad>
          </ns3:TrackPointExtension>
        </extensions>
      </trkpt>
      <trkpt lat="43.4718498028814792633056640625" lon="1.432063914835453033447265625">
        <ele>252.600006103515625</ele>
        <time>2026-08-05T10:49:17.000Z</time>
        <extensions>
          <ns3:TrackPointExtension>
            <ns3:hr>60</ns3:hr>
            <ns3:cad>0</ns3:cad>
          </ns3:TrackPointExtension>
        </extensions>
      </trkpt>
      <trkpt lat="43.4718498028814792633056640625" lon="1.432063914835453033447265625">
        <ele>252.600006103515625</ele>
        <time>2026-08-05T10:49:18.000Z</time>
        <extensions>
          <ns3:TrackPointExtension>
            <ns3:hr>60</ns3:hr>
            <ns3:cad>0</ns3:cad>
          </ns3:TrackPointExtension>
        </extensions>
      </trkpt>
      <trkpt lat="43.4718498028814792633056640625" lon="1.432063914835453033447265625">
        <ele>252.600006103515625</ele>
        <time>2026-08-05T10:49:19.000Z</time>
        <extensions>
          <ns3:TrackPointExtension>
            <ns3:hr>60</ns3:hr>
            <ns3:cad>0</ns3:cad>
          </ns3:TrackPointExtension>
        </extensions>
      </trkpt>
      <trkpt lat="43.4718498028814792633056640625" lon="1.432063914835453033447265625">
        <ele>252.600006103515625</ele>
        <time>2026-08-05T10:49:20.000Z</time>
        <extensions>
          <ns3:TrackPointExtension>
            <ns3:hr>59</ns3:hr>
            <ns3:cad>0</ns3:cad>
          </ns3:TrackPointExtension>
        </extensions>
      </trkpt>
      <trkpt lat="43.4718498028814792633056640625" lon="1.432063914835453033447265625">
        <ele>252.399993896484375</ele>
        <time>2026-08-05T10:49:21.000Z</time>
        <extensions>
          <ns3:TrackPointExtension>
            <ns3:hr>60</ns3:hr>
            <ns3:cad>0</ns3:cad>
          </ns3:TrackPointExtension>
        </extensions>
      </trkpt>
      <trkpt lat="43.4718498028814792633056640625" lon="1.432063914835453033447265625">
        <ele>252.399993896484375</ele>
        <time>2026-08-05T10:49:22.000Z</time>
        <extensions>
          <ns3:TrackPointExtension>
            <ns3:hr>60</ns3:hr>
            <ns3:cad>0</ns3:cad>
          </ns3:TrackPointExtension>
        </extensions>
      </trkpt>
      <trkpt lat="43.4718498028814792633056640625" lon="1.432063914835453033447265625">
        <ele>252.399993896484375</ele>
        <time>2026-08-05T10:49:23.000Z</time>
        <extensions>
          <ns3:TrackPointExtension>
            <ns3:hr>60</ns3:hr>
            <ns3:cad>0</ns3:cad>
          </ns3:TrackPointExtension>
        </extensions>
      </trkpt>
      <trkpt lat="43.4718498028814792633056640625" lon="1.432063914835453033447265625">
        <ele>252.600006103515625</ele>
        <time>2026-08-05T10:49:24.000Z</time>
        <extensions>
          <ns3:TrackPointExtension>
            <ns3:hr>60</ns3:hr>
            <ns3:cad>0</ns3:cad>
          </ns3:TrackPointExtension>
        </extensions>
      </trkpt>
      <trkpt lat="43.4718498028814792633056640625" lon="1.432063914835453033447265625">
        <ele>252.600006103515625</ele>
        <time>2026-08-05T10:49:25.000Z</time>
        <extensions>
          <ns3:TrackPointExtension>
            <ns3:hr>59</ns3:hr>
            <ns3:cad>0</ns3:cad>
          </ns3:TrackPointExtension>
        </extensions>
      </trkpt>
      <trkpt lat="43.4718498028814792633056640625" lon="1.432063914835453033447265625">
        <ele>252.600006103515625</ele>
        <time>2026-08-05T10:49:26.000Z</time>
        <extensions>
          <ns3:TrackPointExtension>
            <ns3:hr>59</ns3:hr>
            <ns3:cad>0</ns3:cad>
          </ns3:TrackPointExtension>
        </extensions>
      </trkpt>
      <trkpt lat="43.4718498028814792633056640625" lon="1.432063914835453033447265625">
        <ele>252.600006103515625</ele>
        <time>2026-08-05T10:49:27.000Z</time>
        <extensions>
          <ns3:TrackPointExtension>
            <ns3:hr>58</ns3:hr>
            <ns3:cad>0</ns3:cad>
          </ns3:TrackPointExtension>
        </extensions>
      </trkpt>
      <trkpt lat="43.471853993833065032958984375" lon="1.43206852488219738006591796875">
        <ele>252.600006103515625</ele>
        <time>2026-08-05T10:49:28.000Z</time>
        <extensions>
          <ns3:TrackPointExtension>
            <ns3:hr>58</ns3:hr>
            <ns3:cad>0</ns3:cad>
          </ns3:TrackPointExtension>
        </extensions>
      </trkpt>
      <trkpt lat="43.4718498028814792633056640625" lon="1.432063914835453033447265625">
        <ele>252.600006103515625</ele>
        <time>2026-08-05T10:49:29.000Z</time>
        <extensions>
          <ns3:TrackPointExtension>
            <ns3:hr>58</ns3:hr>
            <ns3:cad>0</ns3:cad>
          </ns3:TrackPointExtension>
        </extensions>
      </trkpt>
      <trkpt lat="43.4718498028814792633056640625" lon="1.432063914835453033447265625">
        <ele>252.399993896484375</ele>
        <time>2026-08-05T10:49:30.000Z</time>
        <extensions>
          <ns3:TrackPointExtension>
            <ns3:hr>57</ns3:hr>
            <ns3:cad>0</ns3:cad>
          </ns3:TrackPointExtension>
        </extensions>
      </trkpt>
      <trkpt lat="43.4718498028814792633056640625" lon="1.432063914835453033447265625">
        <ele>252.399993896484375</ele>
        <time>2026-08-05T10:49:31.000Z</time>
        <extensions>
          <ns3:TrackPointExtension>
            <ns3:hr>57</ns3:hr>
            <ns3:cad>0</ns3:cad>
          </ns3:TrackPointExtension>
        </extensions>
      </trkpt>
      <trkpt lat="43.4718498028814792633056640625" lon="1.432063914835453033447265625">
        <ele>252.1999969482421875</ele>
        <time>2026-08-05T10:49:32.000Z</time>
        <extensions>
          <ns3:TrackPointExtension>
            <ns3:hr>57</ns3:hr>
            <ns3:cad>0</ns3:cad>
          </ns3:TrackPointExtension>
        </extensions>
      </trkpt>
      <trkpt lat="43.4718498028814792633056640625" lon="1.432063914835453033447265625">
        <ele>252.1999969482421875</ele>
        <time>2026-08-05T10:49:33.000Z</time>
        <extensions>
          <ns3:TrackPointExtension>
            <ns3:hr>57</ns3:hr>
            <ns3:cad>0</ns3:cad>
          </ns3:TrackPointExtension>
        </extensions>
      </trkpt>
      <trkpt lat="43.4718498028814792633056640625" lon="1.432063914835453033447265625">
        <ele>252.1999969482421875</ele>
        <time>2026-08-05T10:49:34.000Z</time>
        <extensions>
          <ns3:TrackPointExtension>
            <ns3:hr>57</ns3:hr>
            <ns3:cad>0</ns3:cad>
          </ns3:TrackPointExtension>
        </extensions>
      </trkpt>
      <trkpt lat="43.4718498028814792633056640625" lon="1.432063914835453033447265625">
        <ele>252.1999969482421875</ele>
        <time>2026-08-05T10:49:35.000Z</time>
        <extensions>
          <ns3:TrackPointExtension>
            <ns3:hr>57</ns3:hr>
            <ns3:cad>0</ns3:cad>
          </ns3:TrackPointExtension>
        </extensions>
      </trkpt>
      <trkpt lat="43.4718498028814792633056640625" lon="1.432063914835453033447265625">
        <ele>252.1999969482421875</ele>
        <time>2026-08-05T10:49:36.000Z</time>
        <extensions>
          <ns3:TrackPointExtension>
            <ns3:hr>57</ns3:hr>
            <ns3:cad>0</ns3:cad>
          </ns3:TrackPointExtension>
        </extensions>
      </trkpt>
      <trkpt lat="43.4718498028814792633056640625" lon="1.432063914835453033447265625">
        <ele>252</ele>
        <time>2026-08-05T10:49:37.000Z</time>
        <extensions>
          <ns3:TrackPointExtension>
            <ns3:hr>57</ns3:hr>
            <ns3:cad>0</ns3:cad>
          </ns3:TrackPointExtension>
        </extensions>
      </trkpt>
      <trkpt lat="43.4718498028814792633056640625" lon="1.432063914835453033447265625">
        <ele>252</ele>
        <time>2026-08-05T10:49:38.000Z</time>
        <extensions>
          <ns3:TrackPointExtension>
            <ns3:hr>57</ns3:hr>
            <ns3:cad>0</ns3:cad>
          </ns3:TrackPointExtension>
        </extensions>
      </trkpt>
      <trkpt lat="43.4718498028814792633056640625" lon="1.432063914835453033447265625">
        <ele>251.8000030517578125</ele>
        <time>2026-08-05T10:49:39.000Z</time>
        <extensions>
          <ns3:TrackPointExtension>
            <ns3:hr>57</ns3:hr>
            <ns3:cad>0</ns3:cad>
          </ns3:TrackPointExtension>
        </extensions>
      </trkpt>
      <trkpt lat="43.4718498028814792633056640625" lon="1.432063914835453033447265625">
        <ele>251.8000030517578125</ele>
        <time>2026-08-05T10:49:40.000Z</time>
        <extensions>
          <ns3:TrackPointExtension>
            <ns3:hr>58</ns3:hr>
            <ns3:cad>0</ns3:cad>
          </ns3:TrackPointExtension>
        </extensions>
      </trkpt>
      <trkpt lat="43.4718498028814792633056640625" lon="1.432063914835453033447265625">
        <ele>251.8000030517578125</ele>
        <time>2026-08-05T10:49:41.000Z</time>
        <extensions>
          <ns3:TrackPointExtension>
            <ns3:hr>57</ns3:hr>
            <ns3:cad>0</ns3:cad>
          </ns3:TrackPointExtension>
        </extensions>
      </trkpt>
      <trkpt lat="43.4718498028814792633056640625" lon="1.432063914835453033447265625">
        <ele>251.600006103515625</ele>
        <time>2026-08-05T10:49:42.000Z</time>
        <extensions>
          <ns3:TrackPointExtension>
            <ns3:hr>57</ns3:hr>
            <ns3:cad>0</ns3:cad>
          </ns3:TrackPointExtension>
        </extensions>
      </trkpt>
      <trkpt lat="43.4718498028814792633056640625" lon="1.432063914835453033447265625">
        <ele>251.600006103515625</ele>
        <time>2026-08-05T10:49:43.000Z</time>
        <extensions>
          <ns3:TrackPointExtension>
            <ns3:hr>57</ns3:hr>
            <ns3:cad>0</ns3:cad>
          </ns3:TrackPointExtension>
        </extensions>
      </trkpt>
      <trkpt lat="43.4718498028814792633056640625" lon="1.432063914835453033447265625">
        <ele>251.600006103515625</ele>
        <time>2026-08-05T10:49:44.000Z</time>
        <extensions>
          <ns3:TrackPointExtension>
            <ns3:hr>58</ns3:hr>
            <ns3:cad>0</ns3:cad>
          </ns3:TrackPointExtension>
        </extensions>
      </trkpt>
      <trkpt lat="43.4718498028814792633056640625" lon="1.432063914835453033447265625">
        <ele>251.600006103515625</ele>
        <time>2026-08-05T10:49:45.000Z</time>
        <extensions>
          <ns3:TrackPointExtension>
            <ns3:hr>57</ns3:hr>
            <ns3:cad>0</ns3:cad>
          </ns3:TrackPointExtension>
        </extensions>
      </trkpt>
      <trkpt lat="43.4718498028814792633056640625" lon="1.432063914835453033447265625">
        <ele>251.600006103515625</ele>
        <time>2026-08-05T10:49:46.000Z</time>
        <extensions>
          <ns3:TrackPointExtension>
            <ns3:hr>58</ns3:hr>
            <ns3:cad>0</ns3:cad>
          </ns3:TrackPointExtension>
        </extensions>
      </trkpt>
      <trkpt lat="43.4718498028814792633056640625" lon="1.432063914835453033447265625">
        <ele>251.600006103515625</ele>
        <time>2026-08-05T10:49:47.000Z</time>
        <extensions>
          <ns3:TrackPointExtension>
            <ns3:hr>58</ns3:hr>
            <ns3:cad>0</ns3:cad>
          </ns3:TrackPointExtension>
        </extensions>
      </trkpt>
      <trkpt lat="43.4718498028814792633056640625" lon="1.432063914835453033447265625">
        <ele>251.600006103515625</ele>
        <time>2026-08-05T10:49:48.000Z</time>
        <extensions>
          <ns3:TrackPointExtension>
            <ns3:hr>62</ns3:hr>
            <ns3:cad>0</ns3:cad>
          </ns3:TrackPointExtension>
        </extensions>
      </trkpt>
      <trkpt lat="43.4718498028814792633056640625" lon="1.432063914835453033447265625">
        <ele>251.600006103515625</ele>
        <time>2026-08-05T10:49:49.000Z</time>
        <extensions>
          <ns3:TrackPointExtension>
            <ns3:hr>67</ns3:hr>
            <ns3:cad>0</ns3:cad>
          </ns3:TrackPointExtension>
        </extensions>
      </trkpt>
      <trkpt lat="43.4718498028814792633056640625" lon="1.432063914835453033447265625">
        <ele>251.8000030517578125</ele>
        <time>2026-08-05T10:49:50.000Z</time>
        <extensions>
          <ns3:TrackPointExtension>
            <ns3:hr>68</ns3:hr>
            <ns3:cad>0</ns3:cad>
          </ns3:TrackPointExtension>
        </extensions>
      </trkpt>
      <trkpt lat="43.4718498028814792633056640625" lon="1.432063914835453033447265625">
        <ele>251.8000030517578125</ele>
        <time>2026-08-05T10:49:51.000Z</time>
        <extensions>
          <ns3:TrackPointExtension>
            <ns3:hr>68</ns3:hr>
            <ns3:cad>0</ns3:cad>
          </ns3:TrackPointExtension>
        </extensions>
      </trkpt>
      <trkpt lat="43.4718498028814792633056640625" lon="1.432063914835453033447265625">
        <ele>251.8000030517578125</ele>
        <time>2026-08-05T10:49:52.000Z</time>
        <extensions>
          <ns3:TrackPointExtension>
            <ns3:hr>69</ns3:hr>
            <ns3:cad>0</ns3:cad>
          </ns3:TrackPointExtension>
        </extensions>
      </trkpt>
      <trkpt lat="43.4718498028814792633056640625" lon="1.432063914835453033447265625">
        <ele>251.8000030517578125</ele>
        <time>2026-08-05T10:49:53.000Z</time>
        <extensions>
          <ns3:TrackPointExtension>
            <ns3:hr>70</ns3:hr>
            <ns3:cad>0</ns3:cad>
          </ns3:TrackPointExtension>
        </extensions>
      </trkpt>
      <trkpt lat="43.4718498028814792633056640625" lon="1.432063914835453033447265625">
        <ele>251.8000030517578125</ele>
        <time>2026-08-05T10:49:54.000Z</time>
        <extensions>
          <ns3:TrackPointExtension>
            <ns3:hr>71</ns3:hr>
            <ns3:cad>0</ns3:cad>
          </ns3:TrackPointExtension>
        </extensions>
      </trkpt>
      <trkpt lat="43.4718498028814792633056640625" lon="1.432063914835453033447265625">
        <ele>251.8000030517578125</ele>
        <time>2026-08-05T10:49:55.000Z</time>
        <extensions>
          <ns3:TrackPointExtension>
            <ns3:hr>71</ns3:hr>
            <ns3:cad>0</ns3:cad>
          </ns3:TrackPointExtension>
        </extensions>
      </trkpt>
      <trkpt lat="43.4718498028814792633056640625" lon="1.432063914835453033447265625">
        <ele>251.8000030517578125</ele>
        <time>2026-08-05T10:49:56.000Z</time>
        <extensions>
          <ns3:TrackPointExtension>
            <ns3:hr>71</ns3:hr>
            <ns3:cad>0</ns3:cad>
          </ns3:TrackPointExtension>
        </extensions>
      </trkpt>
      <trkpt lat="43.4718498028814792633056640625" lon="1.432063914835453033447265625">
        <ele>252</ele>
        <time>2026-08-05T10:49:57.000Z</time>
        <extensions>
          <ns3:TrackPointExtension>
            <ns3:hr>70</ns3:hr>
            <ns3:cad>0</ns3:cad>
          </ns3:TrackPointExtension>
        </extensions>
      </trkpt>
      <trkpt lat="43.4718498028814792633056640625" lon="1.432063914835453033447265625">
        <ele>252</ele>
        <time>2026-08-05T10:49:58.000Z</time>
        <extensions>
          <ns3:TrackPointExtension>
            <ns3:hr>70</ns3:hr>
            <ns3:cad>0</ns3:cad>
          </ns3:TrackPointExtension>
        </extensions>
      </trkpt>
      <trkpt lat="43.4718498028814792633056640625" lon="1.432063914835453033447265625">
        <ele>251.8000030517578125</ele>
        <time>2026-08-05T10:49:59.000Z</time>
        <extensions>
          <ns3:TrackPointExtension>
            <ns3:hr>69</ns3:hr>
            <ns3:cad>0</ns3:cad>
          </ns3:TrackPointExtension>
        </extensions>
      </trkpt>
      <trkpt lat="43.4718498028814792633056640625" lon="1.432063914835453033447265625">
        <ele>251.8000030517578125</ele>
        <time>2026-08-05T10:50:00.000Z</time>
        <extensions>
          <ns3:TrackPointExtension>
            <ns3:hr>67</ns3:hr>
            <ns3:cad>0</ns3:cad>
          </ns3:TrackPointExtension>
        </extensions>
      </trkpt>
      <trkpt lat="43.4718498028814792633056640625" lon="1.432063914835453033447265625">
        <ele>251.8000030517578125</ele>
        <time>2026-08-05T10:50:01.000Z</time>
        <extensions>
          <ns3:TrackPointExtension>
            <ns3:hr>66</ns3:hr>
            <ns3:cad>0</ns3:cad>
          </ns3:TrackPointExtension>
        </extensions>
      </trkpt>
      <trkpt lat="43.4718498028814792633056640625" lon="1.432063914835453033447265625">
        <ele>251.8000030517578125</ele>
        <time>2026-08-05T10:50:02.000Z</time>
        <extensions>
          <ns3:TrackPointExtension>
            <ns3:hr>65</ns3:hr>
            <ns3:cad>0</ns3:cad>
          </ns3:TrackPointExtension>
        </extensions>
      </trkpt>
      <trkpt lat="43.4718498028814792633056640625" lon="1.432063914835453033447265625">
        <ele>251.8000030517578125</ele>
        <time>2026-08-05T10:50:03.000Z</time>
        <extensions>
          <ns3:TrackPointExtension>
            <ns3:hr>64</ns3:hr>
            <ns3:cad>0</ns3:cad>
          </ns3:TrackPointExtension>
        </extensions>
      </trkpt>
      <trkpt lat="43.4718498028814792633056640625" lon="1.432063914835453033447265625">
        <ele>251.600006103515625</ele>
        <time>2026-08-05T10:50:04.000Z</time>
        <extensions>
          <ns3:TrackPointExtension>
            <ns3:hr>62</ns3:hr>
            <ns3:cad>0</ns3:cad>
          </ns3:TrackPointExtension>
        </extensions>
      </trkpt>
      <trkpt lat="43.4718498028814792633056640625" lon="1.432063914835453033447265625">
        <ele>251.600006103515625</ele>
        <time>2026-08-05T10:50:05.000Z</time>
        <extensions>
          <ns3:TrackPointExtension>
            <ns3:hr>62</ns3:hr>
            <ns3:cad>0</ns3:cad>
          </ns3:TrackPointExtension>
        </extensions>
      </trkpt>
      <trkpt lat="43.4718498028814792633056640625" lon="1.432063914835453033447265625">
        <ele>251.600006103515625</ele>
        <time>2026-08-05T10:50:06.000Z</time>
        <extensions>
          <ns3:TrackPointExtension>
            <ns3:hr>61</ns3:hr>
            <ns3:cad>0</ns3:cad>
          </ns3:TrackPointExtension>
        </extensions>
      </trkpt>
      <trkpt lat="43.4718498028814792633056640625" lon="1.432063914835453033447265625">
        <ele>251.600006103515625</ele>
        <time>2026-08-05T10:50:07.000Z</time>
        <extensions>
          <ns3:TrackPointExtension>
            <ns3:hr>61</ns3:hr>
            <ns3:cad>0</ns3:cad>
          </ns3:TrackPointExtension>
        </extensions>
      </trkpt>
      <trkpt lat="43.4718498028814792633056640625" lon="1.432063914835453033447265625">
        <ele>251.600006103515625</ele>
        <time>2026-08-05T10:50:08.000Z</time>
        <extensions>
          <ns3:TrackPointExtension>
            <ns3:hr>59</ns3:hr>
            <ns3:cad>0</ns3:cad>
          </ns3:TrackPointExtension>
        </extensions>
      </trkpt>
      <trkpt lat="43.4718498028814792633056640625" lon="1.432063914835453033447265625">
        <ele>251.600006103515625</ele>
        <time>2026-08-05T10:50:09.000Z</time>
        <extensions>
          <ns3:TrackPointExtension>
            <ns3:hr>58</ns3:hr>
            <ns3:cad>0</ns3:cad>
          </ns3:TrackPointExtension>
        </extensions>
      </trkpt>
      <trkpt lat="43.4718498028814792633056640625" lon="1.432063914835453033447265625">
        <ele>251.600006103515625</ele>
        <time>2026-08-05T10:50:10.000Z</time>
        <extensions>
          <ns3:TrackPointExtension>
            <ns3:hr>58</ns3:hr>
            <ns3:cad>0</ns3:cad>
          </ns3:TrackPointExtension>
        </extensions>
      </trkpt>
      <trkpt lat="43.4718498028814792633056640625" lon="1.432063914835453033447265625">
        <ele>251.600006103515625</ele>
        <time>2026-08-05T10:50:11.000Z</time>
        <extensions>
          <ns3:TrackPointExtension>
            <ns3:hr>57</ns3:hr>
            <ns3:cad>0</ns3:cad>
          </ns3:TrackPointExtension>
        </extensions>
      </trkpt>
      <trkpt lat="43.4718498028814792633056640625" lon="1.432063914835453033447265625">
        <ele>251.600006103515625</ele>
        <time>2026-08-05T10:50:12.000Z</time>
        <extensions>
          <ns3:TrackPointExtension>
            <ns3:hr>57</ns3:hr>
            <ns3:cad>0</ns3:cad>
          </ns3:TrackPointExtension>
        </extensions>
      </trkpt>
      <trkpt lat="43.4718498028814792633056640625" lon="1.432063914835453033447265625">
        <ele>251.600006103515625</ele>
        <time>2026-08-05T10:50:13.000Z</time>
        <extensions>
          <ns3:TrackPointExtension>
            <ns3:hr>56</ns3:hr>
            <ns3:cad>0</ns3:cad>
          </ns3:TrackPointExtension>
        </extensions>
      </trkpt>
      <trkpt lat="43.4718498028814792633056640625" lon="1.432063914835453033447265625">
        <ele>251.600006103515625</ele>
        <time>2026-08-05T10:50:14.000Z</time>
        <extensions>
          <ns3:TrackPointExtension>
            <ns3:hr>56</ns3:hr>
            <ns3:cad>0</ns3:cad>
          </ns3:TrackPointExtension>
        </extensions>
      </trkpt>
      <trkpt lat="43.4718498028814792633056640625" lon="1.432063914835453033447265625">
        <ele>251.8000030517578125</ele>
        <time>2026-08-05T10:50:15.000Z</time>
        <extensions>
          <ns3:TrackPointExtension>
            <ns3:hr>57</ns3:hr>
            <ns3:cad>0</ns3:cad>
          </ns3:TrackPointExtension>
        </extensions>
      </trkpt>
      <trkpt lat="43.4718498028814792633056640625" lon="1.432063914835453033447265625">
        <ele>251.8000030517578125</ele>
        <time>2026-08-05T10:50:16.000Z</time>
        <extensions>
          <ns3:TrackPointExtension>
            <ns3:hr>57</ns3:hr>
            <ns3:cad>0</ns3:cad>
          </ns3:TrackPointExtension>
        </extensions>
      </trkpt>
      <trkpt lat="43.4718498028814792633056640625" lon="1.432063914835453033447265625">
        <ele>251.8000030517578125</ele>
        <time>2026-08-05T10:50:17.000Z</time>
        <extensions>
          <ns3:TrackPointExtension>
            <ns3:hr>57</ns3:hr>
            <ns3:cad>0</ns3:cad>
          </ns3:TrackPointExtension>
        </extensions>
      </trkpt>
      <trkpt lat="43.4718498028814792633056640625" lon="1.432063914835453033447265625">
        <ele>251.600006103515625</ele>
        <time>2026-08-05T10:50:18.000Z</time>
        <extensions>
          <ns3:TrackPointExtension>
            <ns3:hr>57</ns3:hr>
            <ns3:cad>0</ns3:cad>
          </ns3:TrackPointExtension>
        </extensions>
      </trkpt>
      <trkpt lat="43.4718498028814792633056640625" lon="1.432063914835453033447265625">
        <ele>251.600006103515625</ele>
        <time>2026-08-05T10:50:19.000Z</time>
        <extensions>
          <ns3:TrackPointExtension>
            <ns3:hr>57</ns3:hr>
            <ns3:cad>0</ns3:cad>
          </ns3:TrackPointExtension>
        </extensions>
      </trkpt>
      <trkpt lat="43.4718498028814792633056640625" lon="1.432063914835453033447265625">
        <ele>251.600006103515625</ele>
        <time>2026-08-05T10:50:20.000Z</time>
        <extensions>
          <ns3:TrackPointExtension>
            <ns3:hr>57</ns3:hr>
            <ns3:cad>0</ns3:cad>
          </ns3:TrackPointExtension>
        </extensions>
      </trkpt>
      <trkpt lat="43.4718498028814792633056640625" lon="1.432063914835453033447265625">
        <ele>251.600006103515625</ele>
        <time>2026-08-05T10:50:21.000Z</time>
        <extensions>
          <ns3:TrackPointExtension>
            <ns3:hr>57</ns3:hr>
            <ns3:cad>0</ns3:cad>
          </ns3:TrackPointExtension>
        </extensions>
      </trkpt>
      <trkpt lat="43.4718498028814792633056640625" lon="1.432063914835453033447265625">
        <ele>251.600006103515625</ele>
        <time>2026-08-05T10:50:22.000Z</time>
        <extensions>
          <ns3:TrackPointExtension>
            <ns3:hr>57</ns3:hr>
            <ns3:cad>0</ns3:cad>
          </ns3:TrackPointExtension>
        </extensions>
      </trkpt>
      <trkpt lat="43.4718498028814792633056640625" lon="1.432063914835453033447265625">
        <ele>251.600006103515625</ele>
        <time>2026-08-05T10:50:23.000Z</time>
        <extensions>
          <ns3:TrackPointExtension>
            <ns3:hr>58</ns3:hr>
            <ns3:cad>0</ns3:cad>
          </ns3:TrackPointExtension>
        </extensions>
      </trkpt>
      <trkpt lat="43.4718498028814792633056640625" lon="1.432063914835453033447265625">
        <ele>251.8000030517578125</ele>
        <time>2026-08-05T10:50:24.000Z</time>
        <extensions>
          <ns3:TrackPointExtension>
            <ns3:hr>58</ns3:hr>
            <ns3:cad>0</ns3:cad>
          </ns3:TrackPointExtension>
        </extensions>
      </trkpt>
      <trkpt lat="43.4718498028814792633056640625" lon="1.432063914835453033447265625">
        <ele>251.8000030517578125</ele>
        <time>2026-08-05T10:50:25.000Z</time>
        <extensions>
          <ns3:TrackPointExtension>
            <ns3:hr>58</ns3:hr>
            <ns3:cad>0</ns3:cad>
          </ns3:TrackPointExtension>
        </extensions>
      </trkpt>
      <trkpt lat="43.4718498028814792633056640625" lon="1.432063914835453033447265625">
        <ele>251.8000030517578125</ele>
        <time>2026-08-05T10:50:26.000Z</time>
        <extensions>
          <ns3:TrackPointExtension>
            <ns3:hr>58</ns3:hr>
            <ns3:cad>0</ns3:cad>
          </ns3:TrackPointExtension>
        </extensions>
      </trkpt>
      <trkpt lat="43.4718498028814792633056640625" lon="1.432063914835453033447265625">
        <ele>252</ele>
        <time>2026-08-05T10:50:27.000Z</time>
        <extensions>
          <ns3:TrackPointExtension>
            <ns3:hr>59</ns3:hr>
            <ns3:cad>0</ns3:cad>
          </ns3:TrackPointExtension>
        </extensions>
      </trkpt>
      <trkpt lat="43.4718498028814792633056640625" lon="1.432063914835453033447265625">
        <ele>252</ele>
        <time>2026-08-05T10:50:28.000Z</time>
        <extensions>
          <ns3:TrackPointExtension>
            <ns3:hr>58</ns3:hr>
            <ns3:cad>0</ns3:cad>
          </ns3:TrackPointExtension>
        </extensions>
      </trkpt>
      <trkpt lat="43.4718498028814792633056640625" lon="1.432063914835453033447265625">
        <ele>252</ele>
        <time>2026-08-05T10:50:29.000Z</time>
        <extensions>
          <ns3:TrackPointExtension>
            <ns3:hr>58</ns3:hr>
            <ns3:cad>0</ns3:cad>
          </ns3:TrackPointExtension>
        </extensions>
      </trkpt>
      <trkpt lat="43.4718498028814792633056640625" lon="1.432063914835453033447265625">
        <ele>252</ele>
        <time>2026-08-05T10:50:30.000Z</time>
        <extensions>
          <ns3:TrackPointExtension>
            <ns3:hr>58</ns3:hr>
            <ns3:cad>0</ns3:cad>
          </ns3:TrackPointExtension>
        </extensions>
      </trkpt>
      <trkpt lat="43.4718498028814792633056640625" lon="1.432063914835453033447265625">
        <ele>252</ele>
        <time>2026-08-05T10:50:31.000Z</time>
        <extensions>
          <ns3:TrackPointExtension>
            <ns3:hr>58</ns3:hr>
            <ns3:cad>0</ns3:cad>
          </ns3:TrackPointExtension>
        </extensions>
      </trkpt>
      <trkpt lat="43.4718498028814792633056640625" lon="1.432063914835453033447265625">
        <ele>252</ele>
        <time>2026-08-05T10:50:32.000Z</time>
        <extensions>
          <ns3:TrackPointExtension>
            <ns3:hr>57</ns3:hr>
            <ns3:cad>0</ns3:cad>
          </ns3:TrackPointExtension>
        </extensions>
      </trkpt>
      <trkpt lat="43.4718498028814792633056640625" lon="1.432063914835453033447265625">
        <ele>252</ele>
        <time>2026-08-05T10:50:33.000Z</time>
        <extensions>
          <ns3:TrackPointExtension>
            <ns3:hr>58</ns3:hr>
            <ns3:cad>0</ns3:cad>
          </ns3:TrackPointExtension>
        </extensions>
      </trkpt>
      <trkpt lat="43.4718498028814792633056640625" lon="1.432063914835453033447265625">
        <ele>252.1999969482421875</ele>
        <time>2026-08-05T10:50:34.000Z</time>
        <extensions>
          <ns3:TrackPointExtension>
            <ns3:hr>58</ns3:hr>
            <ns3:cad>0</ns3:cad>
          </ns3:TrackPointExtension>
        </extensions>
      </trkpt>
      <trkpt lat="43.4718498028814792633056640625" lon="1.432063914835453033447265625">
        <ele>252.1999969482421875</ele>
        <time>2026-08-05T10:50:35.000Z</time>
        <extensions>
          <ns3:TrackPointExtension>
            <ns3:hr>58</ns3:hr>
            <ns3:cad>0</ns3:cad>
          </ns3:TrackPointExtension>
        </extensions>
      </trkpt>
      <trkpt lat="43.4718498028814792633056640625" lon="1.432063914835453033447265625">
        <ele>252.1999969482421875</ele>
        <time>2026-08-05T10:50:36.000Z</time>
        <extensions>
          <ns3:TrackPointExtension>
            <ns3:hr>58</ns3:hr>
            <ns3:cad>0</ns3:cad>
          </ns3:TrackPointExtension>
        </extensions>
      </trkpt>
      <trkpt lat="43.4718498028814792633056640625" lon="1.432063914835453033447265625">
        <ele>252.1999969482421875</ele>
        <time>2026-08-05T10:50:37.000Z</time>
        <extensions>
          <ns3:TrackPointExtension>
            <ns3:hr>59</ns3:hr>
            <ns3:cad>0</ns3:cad>
          </ns3:TrackPointExtension>
        </extensions>
      </trkpt>
      <trkpt lat="43.4718498028814792633056640625" lon="1.432063914835453033447265625">
        <ele>252.1999969482421875</ele>
        <time>2026-08-05T10:50:38.000Z</time>
        <extensions>
          <ns3:TrackPointExtension>
            <ns3:hr>59</ns3:hr>
            <ns3:cad>0</ns3:cad>
          </ns3:TrackPointExtension>
        </extensions>
      </trkpt>
      <trkpt lat="43.4718498028814792633056640625" lon="1.432063914835453033447265625">
        <ele>252.1999969482421875</ele>
        <time>2026-08-05T10:50:39.000Z</time>
        <extensions>
          <ns3:TrackPointExtension>
            <ns3:hr>59</ns3:hr>
            <ns3:cad>0</ns3:cad>
          </ns3:TrackPointExtension>
        </extensions>
      </trkpt>
      <trkpt lat="43.4718498028814792633056640625" lon="1.432063914835453033447265625">
        <ele>252</ele>
        <time>2026-08-05T10:50:40.000Z</time>
        <extensions>
          <ns3:TrackPointExtension>
            <ns3:hr>61</ns3:hr>
            <ns3:cad>0</ns3:cad>
          </ns3:TrackPointExtension>
        </extensions>
      </trkpt>
      <trkpt lat="43.47185173071920871734619140625" lon="1.4320650883018970489501953125">
        <ele>252</ele>
        <time>2026-08-05T10:50:41.000Z</time>
        <extensions>
          <ns3:TrackPointExtension>
            <ns3:hr>63</ns3:hr>
            <ns3:cad>0</ns3:cad>
          </ns3:TrackPointExtension>
        </extensions>
      </trkpt>
      <trkpt lat="43.4718544967472553253173828125" lon="1.43206316046416759490966796875">
        <ele>251.8000030517578125</ele>
        <time>2026-08-05T10:50:42.000Z</time>
        <extensions>
          <ns3:TrackPointExtension>
            <ns3:hr>64</ns3:hr>
            <ns3:cad>0</ns3:cad>
          </ns3:TrackPointExtension>
        </extensions>
      </trkpt>
      <trkpt lat="43.47185726277530193328857421875" lon="1.4320590533316135406494140625">
        <ele>251.8000030517578125</ele>
        <time>2026-08-05T10:50:43.000Z</time>
        <extensions>
          <ns3:TrackPointExtension>
            <ns3:hr>65</ns3:hr>
            <ns3:cad>0</ns3:cad>
          </ns3:TrackPointExtension>
        </extensions>
      </trkpt>
      <trkpt lat="43.47185474820435047149658203125" lon="1.43206081353127956390380859375">
        <ele>251.8000030517578125</ele>
        <time>2026-08-05T10:50:44.000Z</time>
        <extensions>
          <ns3:TrackPointExtension>
            <ns3:hr>65</ns3:hr>
            <ns3:cad>0</ns3:cad>
          </ns3:TrackPointExtension>
        </extensions>
      </trkpt>
      <trkpt lat="43.471853993833065032958984375" lon="1.4320603944361209869384765625">
        <ele>251.8000030517578125</ele>
        <time>2026-08-05T10:50:45.000Z</time>
        <extensions>
          <ns3:TrackPointExtension>
            <ns3:hr>64</ns3:hr>
            <ns3:cad>0</ns3:cad>
          </ns3:TrackPointExtension>
        </extensions>
      </trkpt>
      <trkpt lat="43.47185290418565273284912109375" lon="1.4320603944361209869384765625">
        <ele>252</ele>
        <time>2026-08-05T10:50:46.000Z</time>
        <extensions>
          <ns3:TrackPointExtension>
            <ns3:hr>61</ns3:hr>
            <ns3:cad>0</ns3:cad>
          </ns3:TrackPointExtension>
        </extensions>
      </trkpt>
      <trkpt lat="43.4718518145382404327392578125" lon="1.43205997534096240997314453125">
        <ele>252</ele>
        <time>2026-08-05T10:50:47.000Z</time>
        <extensions>
          <ns3:TrackPointExtension>
            <ns3:hr>59</ns3:hr>
            <ns3:cad>0</ns3:cad>
          </ns3:TrackPointExtension>
        </extensions>
      </trkpt>
      <trkpt lat="43.47185156308114528656005859375" lon="1.4320607297122478485107421875">
        <ele>252</ele>
        <time>2026-08-05T10:50:48.000Z</time>
        <extensions>
          <ns3:TrackPointExtension>
            <ns3:hr>59</ns3:hr>
            <ns3:cad>0</ns3:cad>
          </ns3:TrackPointExtension>
        </extensions>
      </trkpt>
      <trkpt lat="43.471851646900177001953125" lon="1.43206031061708927154541015625">
        <ele>252</ele>
        <time>2026-08-05T10:50:49.000Z</time>
        <extensions>
          <ns3:TrackPointExtension>
            <ns3:hr>59</ns3:hr>
            <ns3:cad>0</ns3:cad>
          </ns3:TrackPointExtension>
        </extensions>
      </trkpt>
      <trkpt lat="43.4718518145382404327392578125" lon="1.43206114880740642547607421875">
        <ele>251.8000030517578125</ele>
        <time>2026-08-05T10:50:50.000Z</time>
        <extensions>
          <ns3:TrackPointExtension>
            <ns3:hr>59</ns3:hr>
            <ns3:cad>0</ns3:cad>
          </ns3:TrackPointExtension>
        </extensions>
      </trkpt>
      <trkpt lat="43.4718521498143672943115234375" lon="1.43206114880740642547607421875">
        <ele>251.8000030517578125</ele>
        <time>2026-08-05T10:50:51.000Z</time>
        <extensions>
          <ns3:TrackPointExtension>
            <ns3:hr>59</ns3:hr>
            <ns3:cad>0</ns3:cad>
          </ns3:TrackPointExtension>
        </extensions>
      </trkpt>
      <trkpt lat="43.4718528203666210174560546875" lon="1.43206064589321613311767578125">
        <ele>251.8000030517578125</ele>
        <time>2026-08-05T10:50:52.000Z</time>
        <extensions>
          <ns3:TrackPointExtension>
            <ns3:hr>60</ns3:hr>
            <ns3:cad>0</ns3:cad>
          </ns3:TrackPointExtension>
        </extensions>
      </trkpt>
      <trkpt lat="43.4718529880046844482421875" lon="1.43205980770289897918701171875">
        <ele>251.8000030517578125</ele>
        <time>2026-08-05T10:50:53.000Z</time>
        <extensions>
          <ns3:TrackPointExtension>
            <ns3:hr>60</ns3:hr>
            <ns3:cad>0</ns3:cad>
          </ns3:TrackPointExtension>
        </extensions>
      </trkpt>
      <trkpt lat="43.47185273654758930206298828125" lon="1.4320595562458038330078125">
        <ele>251.8000030517578125</ele>
        <time>2026-08-05T10:50:54.000Z</time>
        <extensions>
          <ns3:TrackPointExtension>
            <ns3:hr>60</ns3:hr>
            <ns3:cad>0</ns3:cad>
          </ns3:TrackPointExtension>
        </extensions>
      </trkpt>
      <trkpt lat="43.47185206599533557891845703125" lon="1.43205980770289897918701171875">
        <ele>251.8000030517578125</ele>
        <time>2026-08-05T10:50:55.000Z</time>
        <extensions>
          <ns3:TrackPointExtension>
            <ns3:hr>60</ns3:hr>
            <ns3:cad>0</ns3:cad>
          </ns3:TrackPointExtension>
        </extensions>
      </trkpt>
      <trkpt lat="43.4718501381576061248779296875" lon="1.43206064589321613311767578125">
        <ele>251.8000030517578125</ele>
        <time>2026-08-05T10:50:56.000Z</time>
        <extensions>
          <ns3:TrackPointExtension>
            <ns3:hr>60</ns3:hr>
            <ns3:cad>0</ns3:cad>
          </ns3:TrackPointExtension>
        </extensions>
      </trkpt>
      <trkpt lat="43.4718501381576061248779296875" lon="1.4320607297122478485107421875">
        <ele>251.8000030517578125</ele>
        <time>2026-08-05T10:50:57.000Z</time>
        <extensions>
          <ns3:TrackPointExtension>
            <ns3:hr>59</ns3:hr>
            <ns3:cad>0</ns3:cad>
          </ns3:TrackPointExtension>
        </extensions>
      </trkpt>
      <trkpt lat="43.47185022197663784027099609375" lon="1.43206165172159671783447265625">
        <ele>251.8000030517578125</ele>
        <time>2026-08-05T10:50:58.000Z</time>
        <extensions>
          <ns3:TrackPointExtension>
            <ns3:hr>60</ns3:hr>
            <ns3:cad>0</ns3:cad>
          </ns3:TrackPointExtension>
        </extensions>
      </trkpt>
      <trkpt lat="43.4718503057956695556640625" lon="1.43206047825515270233154296875">
        <ele>252</ele>
        <time>2026-08-05T10:50:59.000Z</time>
        <extensions>
          <ns3:TrackPointExtension>
            <ns3:hr>59</ns3:hr>
            <ns3:cad>0</ns3:cad>
          </ns3:TrackPointExtension>
        </extensions>
      </trkpt>
      <trkpt lat="43.471850641071796417236328125" lon="1.43205947242677211761474609375">
        <ele>252</ele>
        <time>2026-08-05T10:51:00.000Z</time>
        <extensions>
          <ns3:TrackPointExtension>
            <ns3:hr>59</ns3:hr>
            <ns3:cad>0</ns3:cad>
          </ns3:TrackPointExtension>
        </extensions>
      </trkpt>
      <trkpt lat="43.47184963524341583251953125" lon="1.43205930478870868682861328125">
        <ele>252</ele>
        <time>2026-08-05T10:51:01.000Z</time>
        <extensions>
          <ns3:TrackPointExtension>
            <ns3:hr>59</ns3:hr>
            <ns3:cad>0</ns3:cad>
          </ns3:TrackPointExtension>
        </extensions>
      </trkpt>
      <trkpt lat="43.4718503057956695556640625" lon="1.43205947242677211761474609375">
        <ele>252</ele>
        <time>2026-08-05T10:51:02.000Z</time>
        <extensions>
          <ns3:TrackPointExtension>
            <ns3:hr>59</ns3:hr>
            <ns3:cad>0</ns3:cad>
          </ns3:TrackPointExtension>
        </extensions>
      </trkpt>
      <trkpt lat="43.47184988670051097869873046875" lon="1.43205964006483554840087890625">
        <ele>252</ele>
        <time>2026-08-05T10:51:03.000Z</time>
        <extensions>
          <ns3:TrackPointExtension>
            <ns3:hr>59</ns3:hr>
            <ns3:cad>0</ns3:cad>
          </ns3:TrackPointExtension>
        </extensions>
      </trkpt>
      <trkpt lat="43.4718491323292255401611328125" lon="1.4320600591599941253662109375">
        <ele>252</ele>
        <time>2026-08-05T10:51:04.000Z</time>
        <extensions>
          <ns3:TrackPointExtension>
            <ns3:hr>59</ns3:hr>
            <ns3:cad>0</ns3:cad>
          </ns3:TrackPointExtension>
        </extensions>
      </trkpt>
      <trkpt lat="43.471848964691162109375" lon="1.4320603944361209869384765625">
        <ele>252</ele>
        <time>2026-08-05T10:51:05.000Z</time>
        <extensions>
          <ns3:TrackPointExtension>
            <ns3:hr>59</ns3:hr>
            <ns3:cad>0</ns3:cad>
          </ns3:TrackPointExtension>
        </extensions>
      </trkpt>
      <trkpt lat="43.47185022197663784027099609375" lon="1.432060562074184417724609375">
        <ele>252</ele>
        <time>2026-08-05T10:51:06.000Z</time>
        <extensions>
          <ns3:TrackPointExtension>
            <ns3:hr>58</ns3:hr>
            <ns3:cad>0</ns3:cad>
          </ns3:TrackPointExtension>
        </extensions>
      </trkpt>
      <trkpt lat="43.471850641071796417236328125" lon="1.432060897350311279296875">
        <ele>252</ele>
        <time>2026-08-05T10:51:07.000Z</time>
        <extensions>
          <ns3:TrackPointExtension>
            <ns3:hr>58</ns3:hr>
            <ns3:cad>0</ns3:cad>
          </ns3:TrackPointExtension>
        </extensions>
      </trkpt>
      <trkpt lat="43.47184971906244754791259765625" lon="1.43206156790256500244140625">
        <ele>252</ele>
        <time>2026-08-05T10:51:08.000Z</time>
        <extensions>
          <ns3:TrackPointExtension>
            <ns3:hr>58</ns3:hr>
            <ns3:cad>0</ns3:cad>
          </ns3:TrackPointExtension>
        </extensions>
      </trkpt>
      <trkpt lat="43.4718491323292255401611328125" lon="1.43206181935966014862060546875">
        <ele>252</ele>
        <time>2026-08-05T10:51:09.000Z</time>
        <extensions>
          <ns3:TrackPointExtension>
            <ns3:hr>58</ns3:hr>
            <ns3:cad>0</ns3:cad>
          </ns3:TrackPointExtension>
        </extensions>
      </trkpt>
      <trkpt lat="43.47184837795794010162353515625" lon="1.4320617355406284332275390625">
        <ele>252</ele>
        <time>2026-08-05T10:51:10.000Z</time>
        <extensions>
          <ns3:TrackPointExtension>
            <ns3:hr>57</ns3:hr>
            <ns3:cad>0</ns3:cad>
          </ns3:TrackPointExtension>
        </extensions>
      </trkpt>
      <trkpt lat="43.47184787504374980926513671875" lon="1.432062573730945587158203125">
        <ele>252</ele>
        <time>2026-08-05T10:51:11.000Z</time>
        <extensions>
          <ns3:TrackPointExtension>
            <ns3:hr>57</ns3:hr>
            <ns3:cad>0</ns3:cad>
          </ns3:TrackPointExtension>
        </extensions>
      </trkpt>
      <trkpt lat="43.47184695303440093994140625" lon="1.43206282518804073333740234375">
        <ele>252</ele>
        <time>2026-08-05T10:51:12.000Z</time>
        <extensions>
          <ns3:TrackPointExtension>
            <ns3:hr>57</ns3:hr>
            <ns3:cad>0</ns3:cad>
          </ns3:TrackPointExtension>
        </extensions>
      </trkpt>
      <trkpt lat="43.47184561192989349365234375" lon="1.43206265754997730255126953125">
        <ele>252</ele>
        <time>2026-08-05T10:51:13.000Z</time>
        <extensions>
          <ns3:TrackPointExtension>
            <ns3:hr>57</ns3:hr>
            <ns3:cad>0</ns3:cad>
          </ns3:TrackPointExtension>
        </extensions>
      </trkpt>
      <trkpt lat="43.47184536047279834747314453125" lon="1.43206248991191387176513671875">
        <ele>251.8000030517578125</ele>
        <time>2026-08-05T10:51:14.000Z</time>
        <extensions>
          <ns3:TrackPointExtension>
            <ns3:hr>57</ns3:hr>
            <ns3:cad>0</ns3:cad>
          </ns3:TrackPointExtension>
        </extensions>
      </trkpt>
      <trkpt lat="43.47184670157730579376220703125" lon="1.4320614002645015716552734375">
        <ele>251.8000030517578125</ele>
        <time>2026-08-05T10:51:15.000Z</time>
        <extensions>
          <ns3:TrackPointExtension>
            <ns3:hr>56</ns3:hr>
            <ns3:cad>0</ns3:cad>
          </ns3:TrackPointExtension>
        </extensions>
      </trkpt>
      <trkpt lat="43.471848629415035247802734375" lon="1.43205964006483554840087890625">
        <ele>251.8000030517578125</ele>
        <time>2026-08-05T10:51:16.000Z</time>
        <extensions>
          <ns3:TrackPointExtension>
            <ns3:hr>56</ns3:hr>
            <ns3:cad>0</ns3:cad>
          </ns3:TrackPointExtension>
        </extensions>
      </trkpt>
      <trkpt lat="43.47184829413890838623046875" lon="1.43205829896032810211181640625">
        <ele>251.8000030517578125</ele>
        <time>2026-08-05T10:51:17.000Z</time>
        <extensions>
          <ns3:TrackPointExtension>
            <ns3:hr>56</ns3:hr>
            <ns3:cad>0</ns3:cad>
          </ns3:TrackPointExtension>
        </extensions>
      </trkpt>
      <trkpt lat="43.47184963524341583251953125" lon="1.43205863423645496368408203125">
        <ele>251.8000030517578125</ele>
        <time>2026-08-05T10:51:18.000Z</time>
        <extensions>
          <ns3:TrackPointExtension>
            <ns3:hr>56</ns3:hr>
            <ns3:cad>0</ns3:cad>
          </ns3:TrackPointExtension>
        </extensions>
      </trkpt>
      <trkpt lat="43.47185072489082813262939453125" lon="1.43205846659839153289794921875">
        <ele>252</ele>
        <time>2026-08-05T10:51:19.000Z</time>
        <extensions>
          <ns3:TrackPointExtension>
            <ns3:hr>56</ns3:hr>
            <ns3:cad>0</ns3:cad>
          </ns3:TrackPointExtension>
        </extensions>
      </trkpt>
      <trkpt lat="43.47185022197663784027099609375" lon="1.4320590533316135406494140625">
        <ele>252</ele>
        <time>2026-08-05T10:51:20.000Z</time>
        <extensions>
          <ns3:TrackPointExtension>
            <ns3:hr>57</ns3:hr>
            <ns3:cad>0</ns3:cad>
          </ns3:TrackPointExtension>
        </extensions>
      </trkpt>
      <trkpt lat="43.471848629415035247802734375" lon="1.4320597238838672637939453125">
        <ele>252</ele>
        <time>2026-08-05T10:51:21.000Z</time>
        <extensions>
          <ns3:TrackPointExtension>
            <ns3:hr>57</ns3:hr>
            <ns3:cad>0</ns3:cad>
          </ns3:TrackPointExtension>
        </extensions>
      </trkpt>
      <trkpt lat="43.47184561192989349365234375" lon="1.43206022679805755615234375">
        <ele>252</ele>
        <time>2026-08-05T10:51:22.000Z</time>
        <extensions>
          <ns3:TrackPointExtension>
            <ns3:hr>57</ns3:hr>
            <ns3:cad>0</ns3:cad>
          </ns3:TrackPointExtension>
        </extensions>
      </trkpt>
      <trkpt lat="43.4718451090157032012939453125" lon="1.43206022679805755615234375">
        <ele>252</ele>
        <time>2026-08-05T10:51:23.000Z</time>
        <extensions>
          <ns3:TrackPointExtension>
            <ns3:hr>57</ns3:hr>
            <ns3:cad>0</ns3:cad>
          </ns3:TrackPointExtension>
        </extensions>
      </trkpt>
      <trkpt lat="43.47184452228248119354248046875" lon="1.43206022679805755615234375">
        <ele>252</ele>
        <time>2026-08-05T10:51:24.000Z</time>
        <extensions>
          <ns3:TrackPointExtension>
            <ns3:hr>57</ns3:hr>
            <ns3:cad>0</ns3:cad>
          </ns3:TrackPointExtension>
        </extensions>
      </trkpt>
      <trkpt lat="43.47184368409216403961181640625" lon="1.43206014297902584075927734375">
        <ele>252</ele>
        <time>2026-08-05T10:51:25.000Z</time>
        <extensions>
          <ns3:TrackPointExtension>
            <ns3:hr>57</ns3:hr>
            <ns3:cad>0</ns3:cad>
          </ns3:TrackPointExtension>
        </extensions>
      </trkpt>
      <trkpt lat="43.4718434326350688934326171875" lon="1.43206047825515270233154296875">
        <ele>252</ele>
        <time>2026-08-05T10:51:26.000Z</time>
        <extensions>
          <ns3:TrackPointExtension>
            <ns3:hr>57</ns3:hr>
            <ns3:cad>0</ns3:cad>
          </ns3:TrackPointExtension>
        </extensions>
      </trkpt>
      <trkpt lat="43.4718430973589420318603515625" lon="1.43205997534096240997314453125">
        <ele>252</ele>
        <time>2026-08-05T10:51:27.000Z</time>
        <extensions>
          <ns3:TrackPointExtension>
            <ns3:hr>57</ns3:hr>
            <ns3:cad>0</ns3:cad>
          </ns3:TrackPointExtension>
        </extensions>
      </trkpt>
      <trkpt lat="43.4718447737395763397216796875" lon="1.432059220969676971435546875">
        <ele>252</ele>
        <time>2026-08-05T10:51:28.000Z</time>
        <extensions>
          <ns3:TrackPointExtension>
            <ns3:hr>56</ns3:hr>
            <ns3:cad>0</ns3:cad>
          </ns3:TrackPointExtension>
        </extensions>
      </trkpt>
      <trkpt lat="43.47184435464441776275634765625" lon="1.43205888569355010986328125">
        <ele>252</ele>
        <time>2026-08-05T10:51:29.000Z</time>
        <extensions>
          <ns3:TrackPointExtension>
            <ns3:hr>57</ns3:hr>
            <ns3:cad>0</ns3:cad>
          </ns3:TrackPointExtension>
        </extensions>
      </trkpt>
      <trkpt lat="43.47184619866311550140380859375" lon="1.43205829896032810211181640625">
        <ele>252</ele>
        <time>2026-08-05T10:51:30.000Z</time>
        <extensions>
          <ns3:TrackPointExtension>
            <ns3:hr>57</ns3:hr>
            <ns3:cad>0</ns3:cad>
          </ns3:TrackPointExtension>
        </extensions>
      </trkpt>
      <trkpt lat="43.47184561192989349365234375" lon="1.432057879865169525146484375">
        <ele>252</ele>
        <time>2026-08-05T10:51:31.000Z</time>
        <extensions>
          <ns3:TrackPointExtension>
            <ns3:hr>58</ns3:hr>
            <ns3:cad>0</ns3:cad>
          </ns3:TrackPointExtension>
        </extensions>
      </trkpt>
      <trkpt lat="43.47184695303440093994140625" lon="1.4320570416748523712158203125">
        <ele>252</ele>
        <time>2026-08-05T10:51:32.000Z</time>
        <extensions>
          <ns3:TrackPointExtension>
            <ns3:hr>58</ns3:hr>
            <ns3:cad>0</ns3:cad>
          </ns3:TrackPointExtension>
        </extensions>
      </trkpt>
      <trkpt lat="43.47184753976762294769287109375" lon="1.43205528147518634796142578125">
        <ele>252</ele>
        <time>2026-08-05T10:51:33.000Z</time>
        <extensions>
          <ns3:TrackPointExtension>
            <ns3:hr>59</ns3:hr>
            <ns3:cad>0</ns3:cad>
          </ns3:TrackPointExtension>
        </extensions>
      </trkpt>
      <trkpt lat="43.47184753976762294769287109375" lon="1.4320540241897106170654296875">
        <ele>252</ele>
        <time>2026-08-05T10:51:34.000Z</time>
        <extensions>
          <ns3:TrackPointExtension>
            <ns3:hr>59</ns3:hr>
            <ns3:cad>0</ns3:cad>
          </ns3:TrackPointExtension>
        </extensions>
      </trkpt>
      <trkpt lat="43.4718498028814792633056640625" lon="1.43205192871391773223876953125">
        <ele>252</ele>
        <time>2026-08-05T10:51:35.000Z</time>
        <extensions>
          <ns3:TrackPointExtension>
            <ns3:hr>60</ns3:hr>
            <ns3:cad>0</ns3:cad>
          </ns3:TrackPointExtension>
        </extensions>
      </trkpt>
      <trkpt lat="43.47184988670051097869873046875" lon="1.43205259926617145538330078125">
        <ele>252.1999969482421875</ele>
        <time>2026-08-05T10:51:36.000Z</time>
        <extensions>
          <ns3:TrackPointExtension>
            <ns3:hr>60</ns3:hr>
            <ns3:cad>0</ns3:cad>
          </ns3:TrackPointExtension>
        </extensions>
      </trkpt>
      <trkpt lat="43.47185097634792327880859375" lon="1.4320515096187591552734375">
        <ele>252.1999969482421875</ele>
        <time>2026-08-05T10:51:37.000Z</time>
        <extensions>
          <ns3:TrackPointExtension>
            <ns3:hr>60</ns3:hr>
            <ns3:cad>0</ns3:cad>
          </ns3:TrackPointExtension>
        </extensions>
      </trkpt>
      <trkpt lat="43.4718508087098598480224609375" lon="1.4320536889135837554931640625">
        <ele>252.1999969482421875</ele>
        <time>2026-08-05T10:51:38.000Z</time>
        <extensions>
          <ns3:TrackPointExtension>
            <ns3:hr>59</ns3:hr>
            <ns3:cad>0</ns3:cad>
          </ns3:TrackPointExtension>
        </extensions>
      </trkpt>
      <trkpt lat="43.47185089252889156341552734375" lon="1.4320563711225986480712890625">
        <ele>252.1999969482421875</ele>
        <time>2026-08-05T10:51:39.000Z</time>
        <extensions>
          <ns3:TrackPointExtension>
            <ns3:hr>59</ns3:hr>
            <ns3:cad>0</ns3:cad>
          </ns3:TrackPointExtension>
        </extensions>
      </trkpt>
      <trkpt lat="43.471849970519542694091796875" lon="1.43205679021775722503662109375">
        <ele>252.1999969482421875</ele>
        <time>2026-08-05T10:51:40.000Z</time>
        <extensions>
          <ns3:TrackPointExtension>
            <ns3:hr>60</ns3:hr>
            <ns3:cad>0</ns3:cad>
          </ns3:TrackPointExtension>
        </extensions>
      </trkpt>
      <trkpt lat="43.471847958862781524658203125" lon="1.4320593886077404022216796875">
        <ele>252.1999969482421875</ele>
        <time>2026-08-05T10:51:41.000Z</time>
        <extensions>
          <ns3:TrackPointExtension>
            <ns3:hr>60</ns3:hr>
            <ns3:cad>0</ns3:cad>
          </ns3:TrackPointExtension>
        </extensions>
      </trkpt>
      <trkpt lat="43.47184167243540287017822265625" lon="1.43205930478870868682861328125">
        <ele>252.1999969482421875</ele>
        <time>2026-08-05T10:51:42.000Z</time>
        <extensions>
          <ns3:TrackPointExtension>
            <ns3:hr>61</ns3:hr>
            <ns3:cad>0</ns3:cad>
          </ns3:TrackPointExtension>
        </extensions>
      </trkpt>
      <trkpt lat="43.4718471206724643707275390625" lon="1.4320550300180912017822265625">
        <ele>252.1999969482421875</ele>
        <time>2026-08-05T10:51:43.000Z</time>
        <extensions>
          <ns3:TrackPointExtension>
            <ns3:hr>61</ns3:hr>
            <ns3:cad>0</ns3:cad>
          </ns3:TrackPointExtension>
        </extensions>
      </trkpt>
      <trkpt lat="43.47184938378632068634033203125" lon="1.43205544911324977874755859375">
        <ele>252.1999969482421875</ele>
        <time>2026-08-05T10:51:44.000Z</time>
        <extensions>
          <ns3:TrackPointExtension>
            <ns3:hr>61</ns3:hr>
            <ns3:cad>0</ns3:cad>
          </ns3:TrackPointExtension>
        </extensions>
      </trkpt>
      <trkpt lat="43.47184829413890838623046875" lon="1.4320557005703449249267578125">
        <ele>252.1999969482421875</ele>
        <time>2026-08-05T10:51:45.000Z</time>
        <extensions>
          <ns3:TrackPointExtension>
            <ns3:hr>61</ns3:hr>
            <ns3:cad>0</ns3:cad>
          </ns3:TrackPointExtension>
        </extensions>
      </trkpt>
      <trkpt lat="43.47184804268181324005126953125" lon="1.43205477856099605560302734375">
        <ele>252.1999969482421875</ele>
        <time>2026-08-05T10:51:46.000Z</time>
        <extensions>
          <ns3:TrackPointExtension>
            <ns3:hr>60</ns3:hr>
            <ns3:cad>0</ns3:cad>
          </ns3:TrackPointExtension>
        </extensions>
      </trkpt>
      <trkpt lat="43.47184703685343265533447265625" lon="1.4320550300180912017822265625">
        <ele>252.399993896484375</ele>
        <time>2026-08-05T10:51:47.000Z</time>
        <extensions>
          <ns3:TrackPointExtension>
            <ns3:hr>60</ns3:hr>
            <ns3:cad>0</ns3:cad>
          </ns3:TrackPointExtension>
        </extensions>
      </trkpt>
      <trkpt lat="43.471845947206020355224609375" lon="1.43205628730356693267822265625">
        <ele>252.399993896484375</ele>
        <time>2026-08-05T10:51:48.000Z</time>
        <extensions>
          <ns3:TrackPointExtension>
            <ns3:hr>60</ns3:hr>
            <ns3:cad>0</ns3:cad>
          </ns3:TrackPointExtension>
        </extensions>
      </trkpt>
      <trkpt lat="43.47184519283473491668701171875" lon="1.43205611966550350189208984375">
        <ele>252.1999969482421875</ele>
        <time>2026-08-05T10:51:49.000Z</time>
        <extensions>
          <ns3:TrackPointExtension>
            <ns3:hr>61</ns3:hr>
            <ns3:cad>0</ns3:cad>
          </ns3:TrackPointExtension>
        </extensions>
      </trkpt>
      <trkpt lat="43.47184418700635433197021484375" lon="1.43205561675131320953369140625">
        <ele>252.1999969482421875</ele>
        <time>2026-08-05T10:51:50.000Z</time>
        <extensions>
          <ns3:TrackPointExtension>
            <ns3:hr>61</ns3:hr>
            <ns3:cad>0</ns3:cad>
          </ns3:TrackPointExtension>
        </extensions>
      </trkpt>
      <trkpt lat="43.47184334881603717803955078125" lon="1.4320560358464717864990234375">
        <ele>252.1999969482421875</ele>
        <time>2026-08-05T10:51:51.000Z</time>
        <extensions>
          <ns3:TrackPointExtension>
            <ns3:hr>60</ns3:hr>
            <ns3:cad>0</ns3:cad>
          </ns3:TrackPointExtension>
        </extensions>
      </trkpt>
      <trkpt lat="43.4718498028814792633056640625" lon="1.432063914835453033447265625">
        <ele>252.399993896484375</ele>
        <time>2026-08-05T10:51:52.000Z</time>
        <extensions>
          <ns3:TrackPointExtension>
            <ns3:hr>60</ns3:hr>
            <ns3:cad>0</ns3:cad>
          </ns3:TrackPointExtension>
        </extensions>
      </trkpt>
      <trkpt lat="43.4718498028814792633056640625" lon="1.432063914835453033447265625">
        <ele>252.399993896484375</ele>
        <time>2026-08-05T10:51:53.000Z</time>
        <extensions>
          <ns3:TrackPointExtension>
            <ns3:hr>60</ns3:hr>
            <ns3:cad>0</ns3:cad>
          </ns3:TrackPointExtension>
        </extensions>
      </trkpt>
      <trkpt lat="43.4718498028814792633056640625" lon="1.432063914835453033447265625">
        <ele>252.399993896484375</ele>
        <time>2026-08-05T10:51:54.000Z</time>
        <extensions>
          <ns3:TrackPointExtension>
            <ns3:hr>60</ns3:hr>
            <ns3:cad>0</ns3:cad>
          </ns3:TrackPointExtension>
        </extensions>
      </trkpt>
      <trkpt lat="43.4718498028814792633056640625" lon="1.432063914835453033447265625">
        <ele>252.399993896484375</ele>
        <time>2026-08-05T10:51:55.000Z</time>
        <extensions>
          <ns3:TrackPointExtension>
            <ns3:hr>60</ns3:hr>
            <ns3:cad>0</ns3:cad>
          </ns3:TrackPointExtension>
        </extensions>
      </trkpt>
      <trkpt lat="43.4718498028814792633056640625" lon="1.432063914835453033447265625">
        <ele>252.600006103515625</ele>
        <time>2026-08-05T10:51:56.000Z</time>
        <extensions>
          <ns3:TrackPointExtension>
            <ns3:hr>60</ns3:hr>
            <ns3:cad>0</ns3:cad>
          </ns3:TrackPointExtension>
        </extensions>
      </trkpt>
      <trkpt lat="43.4718498028814792633056640625" lon="1.432063914835453033447265625">
        <ele>252.600006103515625</ele>
        <time>2026-08-05T10:51:57.000Z</time>
        <extensions>
          <ns3:TrackPointExtension>
            <ns3:hr>61</ns3:hr>
            <ns3:cad>0</ns3:cad>
          </ns3:TrackPointExtension>
        </extensions>
      </trkpt>
      <trkpt lat="43.4718498028814792633056640625" lon="1.432063914835453033447265625">
        <ele>252.600006103515625</ele>
        <time>2026-08-05T10:51:58.000Z</time>
        <extensions>
          <ns3:TrackPointExtension>
            <ns3:hr>61</ns3:hr>
            <ns3:cad>0</ns3:cad>
          </ns3:TrackPointExtension>
        </extensions>
      </trkpt>
      <trkpt lat="43.4718498028814792633056640625" lon="1.432063914835453033447265625">
        <ele>252.600006103515625</ele>
        <time>2026-08-05T10:51:59.000Z</time>
        <extensions>
          <ns3:TrackPointExtension>
            <ns3:hr>61</ns3:hr>
            <ns3:cad>0</ns3:cad>
          </ns3:TrackPointExtension>
        </extensions>
      </trkpt>
      <trkpt lat="43.4718498028814792633056640625" lon="1.432063914835453033447265625">
        <ele>252.600006103515625</ele>
        <time>2026-08-05T10:52:00.000Z</time>
        <extensions>
          <ns3:TrackPointExtension>
            <ns3:hr>60</ns3:hr>
            <ns3:cad>0</ns3:cad>
          </ns3:TrackPointExtension>
        </extensions>
      </trkpt>
      <trkpt lat="43.4718498028814792633056640625" lon="1.432063914835453033447265625">
        <ele>252.600006103515625</ele>
        <time>2026-08-05T10:52:01.000Z</time>
        <extensions>
          <ns3:TrackPointExtension>
            <ns3:hr>61</ns3:hr>
            <ns3:cad>0</ns3:cad>
          </ns3:TrackPointExtension>
        </extensions>
      </trkpt>
      <trkpt lat="43.4718498028814792633056640625" lon="1.432063914835453033447265625">
        <ele>252.600006103515625</ele>
        <time>2026-08-05T10:52:02.000Z</time>
        <extensions>
          <ns3:TrackPointExtension>
            <ns3:hr>61</ns3:hr>
            <ns3:cad>0</ns3:cad>
          </ns3:TrackPointExtension>
        </extensions>
      </trkpt>
      <trkpt lat="43.4718498028814792633056640625" lon="1.432063914835453033447265625">
        <ele>252.600006103515625</ele>
        <time>2026-08-05T10:52:03.000Z</time>
        <extensions>
          <ns3:TrackPointExtension>
            <ns3:hr>61</ns3:hr>
            <ns3:cad>0</ns3:cad>
          </ns3:TrackPointExtension>
        </extensions>
      </trkpt>
      <trkpt lat="43.4718498028814792633056640625" lon="1.432063914835453033447265625">
        <ele>252.600006103515625</ele>
        <time>2026-08-05T10:52:04.000Z</time>
        <extensions>
          <ns3:TrackPointExtension>
            <ns3:hr>61</ns3:hr>
            <ns3:cad>0</ns3:cad>
          </ns3:TrackPointExtension>
        </extensions>
      </trkpt>
      <trkpt lat="43.4718498028814792633056640625" lon="1.432063914835453033447265625">
        <ele>252.600006103515625</ele>
        <time>2026-08-05T10:52:05.000Z</time>
        <extensions>
          <ns3:TrackPointExtension>
            <ns3:hr>61</ns3:hr>
            <ns3:cad>0</ns3:cad>
          </ns3:TrackPointExtension>
        </extensions>
      </trkpt>
      <trkpt lat="43.4718498028814792633056640625" lon="1.432063914835453033447265625">
        <ele>252.600006103515625</ele>
        <time>2026-08-05T10:52:06.000Z</time>
        <extensions>
          <ns3:TrackPointExtension>
            <ns3:hr>62</ns3:hr>
            <ns3:cad>0</ns3:cad>
          </ns3:TrackPointExtension>
        </extensions>
      </trkpt>
      <trkpt lat="43.4718498028814792633056640625" lon="1.432063914835453033447265625">
        <ele>252.600006103515625</ele>
        <time>2026-08-05T10:52:07.000Z</time>
        <extensions>
          <ns3:TrackPointExtension>
            <ns3:hr>63</ns3:hr>
            <ns3:cad>0</ns3:cad>
          </ns3:TrackPointExtension>
        </extensions>
      </trkpt>
      <trkpt lat="43.4718498028814792633056640625" lon="1.432063914835453033447265625">
        <ele>252.600006103515625</ele>
        <time>2026-08-05T10:52:08.000Z</time>
        <extensions>
          <ns3:TrackPointExtension>
            <ns3:hr>66</ns3:hr>
            <ns3:cad>0</ns3:cad>
          </ns3:TrackPointExtension>
        </extensions>
      </trkpt>
      <trkpt lat="43.4718498028814792633056640625" lon="1.432063914835453033447265625">
        <ele>252.600006103515625</ele>
        <time>2026-08-05T10:52:09.000Z</time>
        <extensions>
          <ns3:TrackPointExtension>
            <ns3:hr>69</ns3:hr>
            <ns3:cad>0</ns3:cad>
          </ns3:TrackPointExtension>
        </extensions>
      </trkpt>
      <trkpt lat="43.4718498028814792633056640625" lon="1.432063914835453033447265625">
        <ele>252.600006103515625</ele>
        <time>2026-08-05T10:52:10.000Z</time>
        <extensions>
          <ns3:TrackPointExtension>
            <ns3:hr>70</ns3:hr>
            <ns3:cad>0</ns3:cad>
          </ns3:TrackPointExtension>
        </extensions>
      </trkpt>
      <trkpt lat="43.4718498028814792633056640625" lon="1.432063914835453033447265625">
        <ele>252.600006103515625</ele>
        <time>2026-08-05T10:52:11.000Z</time>
        <extensions>
          <ns3:TrackPointExtension>
            <ns3:hr>67</ns3:hr>
            <ns3:cad>0</ns3:cad>
          </ns3:TrackPointExtension>
        </extensions>
      </trkpt>
      <trkpt lat="43.4718498028814792633056640625" lon="1.432063914835453033447265625">
        <ele>252.600006103515625</ele>
        <time>2026-08-05T10:52:12.000Z</time>
        <extensions>
          <ns3:TrackPointExtension>
            <ns3:hr>65</ns3:hr>
            <ns3:cad>0</ns3:cad>
          </ns3:TrackPointExtension>
        </extensions>
      </trkpt>
      <trkpt lat="43.4718498028814792633056640625" lon="1.432063914835453033447265625">
        <ele>252.399993896484375</ele>
        <time>2026-08-05T10:52:13.000Z</time>
        <extensions>
          <ns3:TrackPointExtension>
            <ns3:hr>64</ns3:hr>
            <ns3:cad>0</ns3:cad>
          </ns3:TrackPointExtension>
        </extensions>
      </trkpt>
      <trkpt lat="43.4718498028814792633056640625" lon="1.432063914835453033447265625">
        <ele>252.399993896484375</ele>
        <time>2026-08-05T10:52:14.000Z</time>
        <extensions>
          <ns3:TrackPointExtension>
            <ns3:hr>65</ns3:hr>
            <ns3:cad>0</ns3:cad>
          </ns3:TrackPointExtension>
        </extensions>
      </trkpt>
      <trkpt lat="43.4718498028814792633056640625" lon="1.432063914835453033447265625">
        <ele>252.399993896484375</ele>
        <time>2026-08-05T10:52:15.000Z</time>
        <extensions>
          <ns3:TrackPointExtension>
            <ns3:hr>65</ns3:hr>
            <ns3:cad>0</ns3:cad>
          </ns3:TrackPointExtension>
        </extensions>
      </trkpt>
      <trkpt lat="43.4718498028814792633056640625" lon="1.432063914835453033447265625">
        <ele>252.399993896484375</ele>
        <time>2026-08-05T10:52:16.000Z</time>
        <extensions>
          <ns3:TrackPointExtension>
            <ns3:hr>65</ns3:hr>
            <ns3:cad>0</ns3:cad>
          </ns3:TrackPointExtension>
        </extensions>
      </trkpt>
      <trkpt lat="43.4718498028814792633056640625" lon="1.432063914835453033447265625">
        <ele>252.399993896484375</ele>
        <time>2026-08-05T10:52:17.000Z</time>
        <extensions>
          <ns3:TrackPointExtension>
            <ns3:hr>65</ns3:hr>
            <ns3:cad>0</ns3:cad>
          </ns3:TrackPointExtension>
        </extensions>
      </trkpt>
      <trkpt lat="43.4718498028814792633056640625" lon="1.432063914835453033447265625">
        <ele>252.399993896484375</ele>
        <time>2026-08-05T10:52:18.000Z</time>
        <extensions>
          <ns3:TrackPointExtension>
            <ns3:hr>66</ns3:hr>
            <ns3:cad>0</ns3:cad>
          </ns3:TrackPointExtension>
        </extensions>
      </trkpt>
      <trkpt lat="43.4718498028814792633056640625" lon="1.432063914835453033447265625">
        <ele>252.399993896484375</ele>
        <time>2026-08-05T10:52:19.000Z</time>
        <extensions>
          <ns3:TrackPointExtension>
            <ns3:hr>66</ns3:hr>
            <ns3:cad>0</ns3:cad>
          </ns3:TrackPointExtension>
        </extensions>
      </trkpt>
      <trkpt lat="43.4718498028814792633056640625" lon="1.432063914835453033447265625">
        <ele>252.399993896484375</ele>
        <time>2026-08-05T10:52:20.000Z</time>
        <extensions>
          <ns3:TrackPointExtension>
            <ns3:hr>66</ns3:hr>
            <ns3:cad>0</ns3:cad>
          </ns3:TrackPointExtension>
        </extensions>
      </trkpt>
      <trkpt lat="43.4718498028814792633056640625" lon="1.432063914835453033447265625">
        <ele>252.1999969482421875</ele>
        <time>2026-08-05T10:52:21.000Z</time>
        <extensions>
          <ns3:TrackPointExtension>
            <ns3:hr>65</ns3:hr>
            <ns3:cad>0</ns3:cad>
          </ns3:TrackPointExtension>
        </extensions>
      </trkpt>
      <trkpt lat="43.4718498028814792633056640625" lon="1.432063914835453033447265625">
        <ele>252.1999969482421875</ele>
        <time>2026-08-05T10:52:22.000Z</time>
        <extensions>
          <ns3:TrackPointExtension>
            <ns3:hr>65</ns3:hr>
            <ns3:cad>0</ns3:cad>
          </ns3:TrackPointExtension>
        </extensions>
      </trkpt>
      <trkpt lat="43.4718498028814792633056640625" lon="1.432063914835453033447265625">
        <ele>252.1999969482421875</ele>
        <time>2026-08-05T10:52:23.000Z</time>
        <extensions>
          <ns3:TrackPointExtension>
            <ns3:hr>65</ns3:hr>
            <ns3:cad>0</ns3:cad>
          </ns3:TrackPointExtension>
        </extensions>
      </trkpt>
      <trkpt lat="43.4718498028814792633056640625" lon="1.432063914835453033447265625">
        <ele>252.1999969482421875</ele>
        <time>2026-08-05T10:52:24.000Z</time>
        <extensions>
          <ns3:TrackPointExtension>
            <ns3:hr>63</ns3:hr>
            <ns3:cad>0</ns3:cad>
          </ns3:TrackPointExtension>
        </extensions>
      </trkpt>
      <trkpt lat="43.4718498028814792633056640625" lon="1.432063914835453033447265625">
        <ele>252.1999969482421875</ele>
        <time>2026-08-05T10:52:25.000Z</time>
        <extensions>
          <ns3:TrackPointExtension>
            <ns3:hr>62</ns3:hr>
            <ns3:cad>0</ns3:cad>
          </ns3:TrackPointExtension>
        </extensions>
      </trkpt>
      <trkpt lat="43.4718498028814792633056640625" lon="1.432063914835453033447265625">
        <ele>252.1999969482421875</ele>
        <time>2026-08-05T10:52:26.000Z</time>
        <extensions>
          <ns3:TrackPointExtension>
            <ns3:hr>62</ns3:hr>
            <ns3:cad>0</ns3:cad>
          </ns3:TrackPointExtension>
        </extensions>
      </trkpt>
      <trkpt lat="43.4718498028814792633056640625" lon="1.432063914835453033447265625">
        <ele>252.399993896484375</ele>
        <time>2026-08-05T10:52:27.000Z</time>
        <extensions>
          <ns3:TrackPointExtension>
            <ns3:hr>63</ns3:hr>
            <ns3:cad>0</ns3:cad>
          </ns3:TrackPointExtension>
        </extensions>
      </trkpt>
      <trkpt lat="43.4718498028814792633056640625" lon="1.432063914835453033447265625">
        <ele>252.399993896484375</ele>
        <time>2026-08-05T10:52:28.000Z</time>
        <extensions>
          <ns3:TrackPointExtension>
            <ns3:hr>63</ns3:hr>
            <ns3:cad>0</ns3:cad>
          </ns3:TrackPointExtension>
        </extensions>
      </trkpt>
      <trkpt lat="43.4718498028814792633056640625" lon="1.432063914835453033447265625">
        <ele>252.399993896484375</ele>
        <time>2026-08-05T10:52:29.000Z</time>
        <extensions>
          <ns3:TrackPointExtension>
            <ns3:hr>63</ns3:hr>
            <ns3:cad>0</ns3:cad>
          </ns3:TrackPointExtension>
        </extensions>
      </trkpt>
      <trkpt lat="43.4718498028814792633056640625" lon="1.432063914835453033447265625">
        <ele>252.399993896484375</ele>
        <time>2026-08-05T10:52:30.000Z</time>
        <extensions>
          <ns3:TrackPointExtension>
            <ns3:hr>63</ns3:hr>
            <ns3:cad>0</ns3:cad>
          </ns3:TrackPointExtension>
        </extensions>
      </trkpt>
      <trkpt lat="43.4718498028814792633056640625" lon="1.432063914835453033447265625">
        <ele>252.399993896484375</ele>
        <time>2026-08-05T10:52:31.000Z</time>
        <extensions>
          <ns3:TrackPointExtension>
            <ns3:hr>63</ns3:hr>
            <ns3:cad>0</ns3:cad>
          </ns3:TrackPointExtension>
        </extensions>
      </trkpt>
      <trkpt lat="43.4718498028814792633056640625" lon="1.432063914835453033447265625">
        <ele>252.399993896484375</ele>
        <time>2026-08-05T10:52:32.000Z</time>
        <extensions>
          <ns3:TrackPointExtension>
            <ns3:hr>63</ns3:hr>
            <ns3:cad>0</ns3:cad>
          </ns3:TrackPointExtension>
        </extensions>
      </trkpt>
      <trkpt lat="43.4718498028814792633056640625" lon="1.432063914835453033447265625">
        <ele>252.399993896484375</ele>
        <time>2026-08-05T10:52:33.000Z</time>
        <extensions>
          <ns3:TrackPointExtension>
            <ns3:hr>63</ns3:hr>
            <ns3:cad>0</ns3:cad>
          </ns3:TrackPointExtension>
        </extensions>
      </trkpt>
      <trkpt lat="43.4718498028814792633056640625" lon="1.432063914835453033447265625">
        <ele>252.399993896484375</ele>
        <time>2026-08-05T10:52:34.000Z</time>
        <extensions>
          <ns3:TrackPointExtension>
            <ns3:hr>63</ns3:hr>
            <ns3:cad>0</ns3:cad>
          </ns3:TrackPointExtension>
        </extensions>
      </trkpt>
      <trkpt lat="43.4718498028814792633056640625" lon="1.432063914835453033447265625">
        <ele>252.399993896484375</ele>
        <time>2026-08-05T10:52:35.000Z</time>
        <extensions>
          <ns3:TrackPointExtension>
            <ns3:hr>63</ns3:hr>
            <ns3:cad>0</ns3:cad>
          </ns3:TrackPointExtension>
        </extensions>
      </trkpt>
      <trkpt lat="43.4718498028814792633056640625" lon="1.432063914835453033447265625">
        <ele>252.399993896484375</ele>
        <time>2026-08-05T10:52:36.000Z</time>
        <extensions>
          <ns3:TrackPointExtension>
            <ns3:hr>63</ns3:hr>
            <ns3:cad>0</ns3:cad>
          </ns3:TrackPointExtension>
        </extensions>
      </trkpt>
      <trkpt lat="43.4718498028814792633056640625" lon="1.432063914835453033447265625">
        <ele>252.399993896484375</ele>
        <time>2026-08-05T10:52:37.000Z</time>
        <extensions>
          <ns3:TrackPointExtension>
            <ns3:hr>65</ns3:hr>
            <ns3:cad>0</ns3:cad>
          </ns3:TrackPointExtension>
        </extensions>
      </trkpt>
      <trkpt lat="43.4718498028814792633056640625" lon="1.432063914835453033447265625">
        <ele>252.1999969482421875</ele>
        <time>2026-08-05T10:52:38.000Z</time>
        <extensions>
          <ns3:TrackPointExtension>
            <ns3:hr>65</ns3:hr>
            <ns3:cad>0</ns3:cad>
          </ns3:TrackPointExtension>
        </extensions>
      </trkpt>
      <trkpt lat="43.4718498028814792633056640625" lon="1.432063914835453033447265625">
        <ele>252.1999969482421875</ele>
        <time>2026-08-05T10:52:39.000Z</time>
        <extensions>
          <ns3:TrackPointExtension>
            <ns3:hr>66</ns3:hr>
            <ns3:cad>0</ns3:cad>
          </ns3:TrackPointExtension>
        </extensions>
      </trkpt>
      <trkpt lat="43.4718498028814792633056640625" lon="1.432063914835453033447265625">
        <ele>252.1999969482421875</ele>
        <time>2026-08-05T10:52:40.000Z</time>
        <extensions>
          <ns3:TrackPointExtension>
            <ns3:hr>66</ns3:hr>
            <ns3:cad>0</ns3:cad>
          </ns3:TrackPointExtension>
        </extensions>
      </trkpt>
      <trkpt lat="43.4718498028814792633056640625" lon="1.432063914835453033447265625">
        <ele>252</ele>
        <time>2026-08-05T10:52:41.000Z</time>
        <extensions>
          <ns3:TrackPointExtension>
            <ns3:hr>65</ns3:hr>
            <ns3:cad>0</ns3:cad>
          </ns3:TrackPointExtension>
        </extensions>
      </trkpt>
      <trkpt lat="43.4718498028814792633056640625" lon="1.432063914835453033447265625">
        <ele>252</ele>
        <time>2026-08-05T10:52:42.000Z</time>
        <extensions>
          <ns3:TrackPointExtension>
            <ns3:hr>64</ns3:hr>
            <ns3:cad>0</ns3:cad>
          </ns3:TrackPointExtension>
        </extensions>
      </trkpt>
      <trkpt lat="43.4718498028814792633056640625" lon="1.432063914835453033447265625">
        <ele>251.8000030517578125</ele>
        <time>2026-08-05T10:52:43.000Z</time>
        <extensions>
          <ns3:TrackPointExtension>
            <ns3:hr>62</ns3:hr>
            <ns3:cad>0</ns3:cad>
          </ns3:TrackPointExtension>
        </extensions>
      </trkpt>
      <trkpt lat="43.4718498028814792633056640625" lon="1.432063914835453033447265625">
        <ele>251.8000030517578125</ele>
        <time>2026-08-05T10:52:44.000Z</time>
        <extensions>
          <ns3:TrackPointExtension>
            <ns3:hr>60</ns3:hr>
            <ns3:cad>0</ns3:cad>
          </ns3:TrackPointExtension>
        </extensions>
      </trkpt>
      <trkpt lat="43.4718498028814792633056640625" lon="1.432063914835453033447265625">
        <ele>252</ele>
        <time>2026-08-05T10:52:45.000Z</time>
        <extensions>
          <ns3:TrackPointExtension>
            <ns3:hr>59</ns3:hr>
            <ns3:cad>0</ns3:cad>
          </ns3:TrackPointExtension>
        </extensions>
      </trkpt>
      <trkpt lat="43.47184468992054462432861328125" lon="1.4320540241897106170654296875">
        <ele>252</ele>
        <time>2026-08-05T10:52:46.000Z</time>
        <extensions>
          <ns3:TrackPointExtension>
            <ns3:hr>60</ns3:hr>
            <ns3:cad>0</ns3:cad>
          </ns3:TrackPointExtension>
        </extensions>
      </trkpt>
      <trkpt lat="43.4718498028814792633056640625" lon="1.432063914835453033447265625">
        <ele>252.1999969482421875</ele>
        <time>2026-08-05T10:52:47.000Z</time>
        <extensions>
          <ns3:TrackPointExtension>
            <ns3:hr>60</ns3:hr>
            <ns3:cad>0</ns3:cad>
          </ns3:TrackPointExtension>
        </extensions>
      </trkpt>
      <trkpt lat="43.4718498028814792633056640625" lon="1.432063914835453033447265625">
        <ele>252.1999969482421875</ele>
        <time>2026-08-05T10:52:48.000Z</time>
        <extensions>
          <ns3:TrackPointExtension>
            <ns3:hr>59</ns3:hr>
            <ns3:cad>0</ns3:cad>
          </ns3:TrackPointExtension>
        </extensions>
      </trkpt>
      <trkpt lat="43.4718498028814792633056640625" lon="1.432063914835453033447265625">
        <ele>252.1999969482421875</ele>
        <time>2026-08-05T10:52:49.000Z</time>
        <extensions>
          <ns3:TrackPointExtension>
            <ns3:hr>59</ns3:hr>
            <ns3:cad>0</ns3:cad>
          </ns3:TrackPointExtension>
        </extensions>
      </trkpt>
      <trkpt lat="43.4718498028814792633056640625" lon="1.432063914835453033447265625">
        <ele>252.1999969482421875</ele>
        <time>2026-08-05T10:52:50.000Z</time>
        <extensions>
          <ns3:TrackPointExtension>
            <ns3:hr>59</ns3:hr>
            <ns3:cad>0</ns3:cad>
          </ns3:TrackPointExtension>
        </extensions>
      </trkpt>
      <trkpt lat="43.4718498028814792633056640625" lon="1.432063914835453033447265625">
        <ele>252</ele>
        <time>2026-08-05T10:52:51.000Z</time>
        <extensions>
          <ns3:TrackPointExtension>
            <ns3:hr>58</ns3:hr>
            <ns3:cad>0</ns3:cad>
          </ns3:TrackPointExtension>
        </extensions>
      </trkpt>
      <trkpt lat="43.4718498028814792633056640625" lon="1.432063914835453033447265625">
        <ele>252</ele>
        <time>2026-08-05T10:52:52.000Z</time>
        <extensions>
          <ns3:TrackPointExtension>
            <ns3:hr>58</ns3:hr>
            <ns3:cad>0</ns3:cad>
          </ns3:TrackPointExtension>
        </extensions>
      </trkpt>
      <trkpt lat="43.4718498028814792633056640625" lon="1.432063914835453033447265625">
        <ele>252</ele>
        <time>2026-08-05T10:52:53.000Z</time>
        <extensions>
          <ns3:TrackPointExtension>
            <ns3:hr>58</ns3:hr>
            <ns3:cad>0</ns3:cad>
          </ns3:TrackPointExtension>
        </extensions>
      </trkpt>
      <trkpt lat="43.4718498028814792633056640625" lon="1.432063914835453033447265625">
        <ele>252</ele>
        <time>2026-08-05T10:52:54.000Z</time>
        <extensions>
          <ns3:TrackPointExtension>
            <ns3:hr>57</ns3:hr>
            <ns3:cad>0</ns3:cad>
          </ns3:TrackPointExtension>
        </extensions>
      </trkpt>
      <trkpt lat="43.4718498028814792633056640625" lon="1.432063914835453033447265625">
        <ele>252</ele>
        <time>2026-08-05T10:52:55.000Z</time>
        <extensions>
          <ns3:TrackPointExtension>
            <ns3:hr>58</ns3:hr>
            <ns3:cad>0</ns3:cad>
          </ns3:TrackPointExtension>
        </extensions>
      </trkpt>
      <trkpt lat="43.4718498028814792633056640625" lon="1.432063914835453033447265625">
        <ele>252</ele>
        <time>2026-08-05T10:52:56.000Z</time>
        <extensions>
          <ns3:TrackPointExtension>
            <ns3:hr>58</ns3:hr>
            <ns3:cad>0</ns3:cad>
          </ns3:TrackPointExtension>
        </extensions>
      </trkpt>
      <trkpt lat="43.4718498028814792633056640625" lon="1.432063914835453033447265625">
        <ele>251.8000030517578125</ele>
        <time>2026-08-05T10:52:57.000Z</time>
        <extensions>
          <ns3:TrackPointExtension>
            <ns3:hr>58</ns3:hr>
            <ns3:cad>0</ns3:cad>
          </ns3:TrackPointExtension>
        </extensions>
      </trkpt>
      <trkpt lat="43.4718498028814792633056640625" lon="1.432063914835453033447265625">
        <ele>251.8000030517578125</ele>
        <time>2026-08-05T10:52:58.000Z</time>
        <extensions>
          <ns3:TrackPointExtension>
            <ns3:hr>57</ns3:hr>
            <ns3:cad>0</ns3:cad>
          </ns3:TrackPointExtension>
        </extensions>
      </trkpt>
      <trkpt lat="43.4718498028814792633056640625" lon="1.432063914835453033447265625">
        <ele>251.8000030517578125</ele>
        <time>2026-08-05T10:52:59.000Z</time>
        <extensions>
          <ns3:TrackPointExtension>
            <ns3:hr>58</ns3:hr>
            <ns3:cad>0</ns3:cad>
          </ns3:TrackPointExtension>
        </extensions>
      </trkpt>
      <trkpt lat="43.4718498028814792633056640625" lon="1.432063914835453033447265625">
        <ele>251.600006103515625</ele>
        <time>2026-08-05T10:53:00.000Z</time>
        <extensions>
          <ns3:TrackPointExtension>
            <ns3:hr>58</ns3:hr>
            <ns3:cad>0</ns3:cad>
          </ns3:TrackPointExtension>
        </extensions>
      </trkpt>
      <trkpt lat="43.4718498028814792633056640625" lon="1.432063914835453033447265625">
        <ele>251.600006103515625</ele>
        <time>2026-08-05T10:53:01.000Z</time>
        <extensions>
          <ns3:TrackPointExtension>
            <ns3:hr>57</ns3:hr>
            <ns3:cad>0</ns3:cad>
          </ns3:TrackPointExtension>
        </extensions>
      </trkpt>
      <trkpt lat="43.4718498028814792633056640625" lon="1.432063914835453033447265625">
        <ele>251.600006103515625</ele>
        <time>2026-08-05T10:53:02.000Z</time>
        <extensions>
          <ns3:TrackPointExtension>
            <ns3:hr>57</ns3:hr>
            <ns3:cad>0</ns3:cad>
          </ns3:TrackPointExtension>
        </extensions>
      </trkpt>
      <trkpt lat="43.4718498028814792633056640625" lon="1.432063914835453033447265625">
        <ele>251.600006103515625</ele>
        <time>2026-08-05T10:53:03.000Z</time>
        <extensions>
          <ns3:TrackPointExtension>
            <ns3:hr>57</ns3:hr>
            <ns3:cad>0</ns3:cad>
          </ns3:TrackPointExtension>
        </extensions>
      </trkpt>
      <trkpt lat="43.4718498028814792633056640625" lon="1.432063914835453033447265625">
        <ele>251.600006103515625</ele>
        <time>2026-08-05T10:53:04.000Z</time>
        <extensions>
          <ns3:TrackPointExtension>
            <ns3:hr>57</ns3:hr>
            <ns3:cad>0</ns3:cad>
          </ns3:TrackPointExtension>
        </extensions>
      </trkpt>
      <trkpt lat="43.4718498028814792633056640625" lon="1.432063914835453033447265625">
        <ele>251.8000030517578125</ele>
        <time>2026-08-05T10:53:05.000Z</time>
        <extensions>
          <ns3:TrackPointExtension>
            <ns3:hr>57</ns3:hr>
            <ns3:cad>0</ns3:cad>
          </ns3:TrackPointExtension>
        </extensions>
      </trkpt>
      <trkpt lat="43.4718498028814792633056640625" lon="1.432063914835453033447265625">
        <ele>251.8000030517578125</ele>
        <time>2026-08-05T10:53:06.000Z</time>
        <extensions>
          <ns3:TrackPointExtension>
            <ns3:hr>58</ns3:hr>
            <ns3:cad>0</ns3:cad>
          </ns3:TrackPointExtension>
        </extensions>
      </trkpt>
      <trkpt lat="43.4718498028814792633056640625" lon="1.432063914835453033447265625">
        <ele>251.8000030517578125</ele>
        <time>2026-08-05T10:53:07.000Z</time>
        <extensions>
          <ns3:TrackPointExtension>
            <ns3:hr>58</ns3:hr>
            <ns3:cad>0</ns3:cad>
          </ns3:TrackPointExtension>
        </extensions>
      </trkpt>
      <trkpt lat="43.4718498028814792633056640625" lon="1.432063914835453033447265625">
        <ele>252</ele>
        <time>2026-08-05T10:53:08.000Z</time>
        <extensions>
          <ns3:TrackPointExtension>
            <ns3:hr>58</ns3:hr>
            <ns3:cad>0</ns3:cad>
          </ns3:TrackPointExtension>
        </extensions>
      </trkpt>
      <trkpt lat="43.4718498028814792633056640625" lon="1.432063914835453033447265625">
        <ele>252</ele>
        <time>2026-08-05T10:53:09.000Z</time>
        <extensions>
          <ns3:TrackPointExtension>
            <ns3:hr>58</ns3:hr>
            <ns3:cad>0</ns3:cad>
          </ns3:TrackPointExtension>
        </extensions>
      </trkpt>
      <trkpt lat="43.4718498028814792633056640625" lon="1.432063914835453033447265625">
        <ele>252</ele>
        <time>2026-08-05T10:53:10.000Z</time>
        <extensions>
          <ns3:TrackPointExtension>
            <ns3:hr>58</ns3:hr>
            <ns3:cad>0</ns3:cad>
          </ns3:TrackPointExtension>
        </extensions>
      </trkpt>
      <trkpt lat="43.4718498028814792633056640625" lon="1.432063914835453033447265625">
        <ele>251.8000030517578125</ele>
        <time>2026-08-05T10:53:11.000Z</time>
        <extensions>
          <ns3:TrackPointExtension>
            <ns3:hr>57</ns3:hr>
            <ns3:cad>0</ns3:cad>
          </ns3:TrackPointExtension>
        </extensions>
      </trkpt>
      <trkpt lat="43.4718498028814792633056640625" lon="1.432063914835453033447265625">
        <ele>251.8000030517578125</ele>
        <time>2026-08-05T10:53:12.000Z</time>
        <extensions>
          <ns3:TrackPointExtension>
            <ns3:hr>58</ns3:hr>
            <ns3:cad>0</ns3:cad>
          </ns3:TrackPointExtension>
        </extensions>
      </trkpt>
      <trkpt lat="43.4718498028814792633056640625" lon="1.432063914835453033447265625">
        <ele>251.8000030517578125</ele>
        <time>2026-08-05T10:53:13.000Z</time>
        <extensions>
          <ns3:TrackPointExtension>
            <ns3:hr>58</ns3:hr>
            <ns3:cad>0</ns3:cad>
          </ns3:TrackPointExtension>
        </extensions>
      </trkpt>
      <trkpt lat="43.4718498028814792633056640625" lon="1.432063914835453033447265625">
        <ele>251.600006103515625</ele>
        <time>2026-08-05T10:53:14.000Z</time>
        <extensions>
          <ns3:TrackPointExtension>
            <ns3:hr>58</ns3:hr>
            <ns3:cad>0</ns3:cad>
          </ns3:TrackPointExtension>
        </extensions>
      </trkpt>
      <trkpt lat="43.4718498028814792633056640625" lon="1.432063914835453033447265625">
        <ele>251.600006103515625</ele>
        <time>2026-08-05T10:53:15.000Z</time>
        <extensions>
          <ns3:TrackPointExtension>
            <ns3:hr>58</ns3:hr>
            <ns3:cad>0</ns3:cad>
          </ns3:TrackPointExtension>
        </extensions>
      </trkpt>
      <trkpt lat="43.4718498028814792633056640625" lon="1.432063914835453033447265625">
        <ele>251.600006103515625</ele>
        <time>2026-08-05T10:53:16.000Z</time>
        <extensions>
          <ns3:TrackPointExtension>
            <ns3:hr>57</ns3:hr>
            <ns3:cad>0</ns3:cad>
          </ns3:TrackPointExtension>
        </extensions>
      </trkpt>
      <trkpt lat="43.4718498028814792633056640625" lon="1.432063914835453033447265625">
        <ele>251.600006103515625</ele>
        <time>2026-08-05T10:53:17.000Z</time>
        <extensions>
          <ns3:TrackPointExtension>
            <ns3:hr>57</ns3:hr>
            <ns3:cad>0</ns3:cad>
          </ns3:TrackPointExtension>
        </extensions>
      </trkpt>
      <trkpt lat="43.4718498028814792633056640625" lon="1.432063914835453033447265625">
        <ele>251.600006103515625</ele>
        <time>2026-08-05T10:53:18.000Z</time>
        <extensions>
          <ns3:TrackPointExtension>
            <ns3:hr>57</ns3:hr>
            <ns3:cad>0</ns3:cad>
          </ns3:TrackPointExtension>
        </extensions>
      </trkpt>
      <trkpt lat="43.4718498028814792633056640625" lon="1.432063914835453033447265625">
        <ele>251.600006103515625</ele>
        <time>2026-08-05T10:53:19.000Z</time>
        <extensions>
          <ns3:TrackPointExtension>
            <ns3:hr>57</ns3:hr>
            <ns3:cad>0</ns3:cad>
          </ns3:TrackPointExtension>
        </extensions>
      </trkpt>
      <trkpt lat="43.4718498028814792633056640625" lon="1.432063914835453033447265625">
        <ele>251.8000030517578125</ele>
        <time>2026-08-05T10:53:20.000Z</time>
        <extensions>
          <ns3:TrackPointExtension>
            <ns3:hr>57</ns3:hr>
            <ns3:cad>0</ns3:cad>
          </ns3:TrackPointExtension>
        </extensions>
      </trkpt>
      <trkpt lat="43.4718498028814792633056640625" lon="1.432063914835453033447265625">
        <ele>251.8000030517578125</ele>
        <time>2026-08-05T10:53:21.000Z</time>
        <extensions>
          <ns3:TrackPointExtension>
            <ns3:hr>58</ns3:hr>
            <ns3:cad>0</ns3:cad>
          </ns3:TrackPointExtension>
        </extensions>
      </trkpt>
      <trkpt lat="43.47184586338698863983154296875" lon="1.43205511383712291717529296875">
        <ele>251.8000030517578125</ele>
        <time>2026-08-05T10:53:22.000Z</time>
        <extensions>
          <ns3:TrackPointExtension>
            <ns3:hr>58</ns3:hr>
            <ns3:cad>0</ns3:cad>
          </ns3:TrackPointExtension>
        </extensions>
      </trkpt>
      <trkpt lat="43.471845276653766632080078125" lon="1.432056538760662078857421875">
        <ele>251.8000030517578125</ele>
        <time>2026-08-05T10:53:23.000Z</time>
        <extensions>
          <ns3:TrackPointExtension>
            <ns3:hr>59</ns3:hr>
            <ns3:cad>0</ns3:cad>
          </ns3:TrackPointExtension>
        </extensions>
      </trkpt>
      <trkpt lat="43.4718498028814792633056640625" lon="1.432063914835453033447265625">
        <ele>251.8000030517578125</ele>
        <time>2026-08-05T10:53:24.000Z</time>
        <extensions>
          <ns3:TrackPointExtension>
            <ns3:hr>59</ns3:hr>
            <ns3:cad>0</ns3:cad>
          </ns3:TrackPointExtension>
        </extensions>
      </trkpt>
      <trkpt lat="43.4718498028814792633056640625" lon="1.432063914835453033447265625">
        <ele>251.8000030517578125</ele>
        <time>2026-08-05T10:53:25.000Z</time>
        <extensions>
          <ns3:TrackPointExtension>
            <ns3:hr>59</ns3:hr>
            <ns3:cad>0</ns3:cad>
          </ns3:TrackPointExtension>
        </extensions>
      </trkpt>
      <trkpt lat="43.4718498028814792633056640625" lon="1.432063914835453033447265625">
        <ele>251.600006103515625</ele>
        <time>2026-08-05T10:53:26.000Z</time>
        <extensions>
          <ns3:TrackPointExtension>
            <ns3:hr>59</ns3:hr>
            <ns3:cad>0</ns3:cad>
          </ns3:TrackPointExtension>
        </extensions>
      </trkpt>
      <trkpt lat="43.4718498028814792633056640625" lon="1.432063914835453033447265625">
        <ele>251.600006103515625</ele>
        <time>2026-08-05T10:53:27.000Z</time>
        <extensions>
          <ns3:TrackPointExtension>
            <ns3:hr>58</ns3:hr>
            <ns3:cad>0</ns3:cad>
          </ns3:TrackPointExtension>
        </extensions>
      </trkpt>
      <trkpt lat="43.4718498028814792633056640625" lon="1.432063914835453033447265625">
        <ele>251.600006103515625</ele>
        <time>2026-08-05T10:53:28.000Z</time>
        <extensions>
          <ns3:TrackPointExtension>
            <ns3:hr>58</ns3:hr>
            <ns3:cad>0</ns3:cad>
          </ns3:TrackPointExtension>
        </extensions>
      </trkpt>
      <trkpt lat="43.4718498028814792633056640625" lon="1.432063914835453033447265625">
        <ele>251.600006103515625</ele>
        <time>2026-08-05T10:53:29.000Z</time>
        <extensions>
          <ns3:TrackPointExtension>
            <ns3:hr>58</ns3:hr>
            <ns3:cad>0</ns3:cad>
          </ns3:TrackPointExtension>
        </extensions>
      </trkpt>
      <trkpt lat="43.4718498028814792633056640625" lon="1.432063914835453033447265625">
        <ele>251.600006103515625</ele>
        <time>2026-08-05T10:53:30.000Z</time>
        <extensions>
          <ns3:TrackPointExtension>
            <ns3:hr>58</ns3:hr>
            <ns3:cad>0</ns3:cad>
          </ns3:TrackPointExtension>
        </extensions>
      </trkpt>
      <trkpt lat="43.4718498028814792633056640625" lon="1.432063914835453033447265625">
        <ele>251.399993896484375</ele>
        <time>2026-08-05T10:53:31.000Z</time>
        <extensions>
          <ns3:TrackPointExtension>
            <ns3:hr>59</ns3:hr>
            <ns3:cad>0</ns3:cad>
          </ns3:TrackPointExtension>
        </extensions>
      </trkpt>
      <trkpt lat="43.4718498028814792633056640625" lon="1.432063914835453033447265625">
        <ele>251.399993896484375</ele>
        <time>2026-08-05T10:53:32.000Z</time>
        <extensions>
          <ns3:TrackPointExtension>
            <ns3:hr>59</ns3:hr>
            <ns3:cad>0</ns3:cad>
          </ns3:TrackPointExtension>
        </extensions>
      </trkpt>
      <trkpt lat="43.4718498028814792633056640625" lon="1.432063914835453033447265625">
        <ele>251.399993896484375</ele>
        <time>2026-08-05T10:53:33.000Z</time>
        <extensions>
          <ns3:TrackPointExtension>
            <ns3:hr>60</ns3:hr>
            <ns3:cad>0</ns3:cad>
          </ns3:TrackPointExtension>
        </extensions>
      </trkpt>
      <trkpt lat="43.4718498028814792633056640625" lon="1.432063914835453033447265625">
        <ele>251.399993896484375</ele>
        <time>2026-08-05T10:53:34.000Z</time>
        <extensions>
          <ns3:TrackPointExtension>
            <ns3:hr>62</ns3:hr>
            <ns3:cad>0</ns3:cad>
          </ns3:TrackPointExtension>
        </extensions>
      </trkpt>
      <trkpt lat="43.4718498028814792633056640625" lon="1.432063914835453033447265625">
        <ele>251.399993896484375</ele>
        <time>2026-08-05T10:53:35.000Z</time>
        <extensions>
          <ns3:TrackPointExtension>
            <ns3:hr>64</ns3:hr>
            <ns3:cad>0</ns3:cad>
          </ns3:TrackPointExtension>
        </extensions>
      </trkpt>
      <trkpt lat="43.4718498028814792633056640625" lon="1.432063914835453033447265625">
        <ele>251.399993896484375</ele>
        <time>2026-08-05T10:53:36.000Z</time>
        <extensions>
          <ns3:TrackPointExtension>
            <ns3:hr>65</ns3:hr>
            <ns3:cad>0</ns3:cad>
          </ns3:TrackPointExtension>
        </extensions>
      </trkpt>
      <trkpt lat="43.4718498028814792633056640625" lon="1.432063914835453033447265625">
        <ele>251.399993896484375</ele>
        <time>2026-08-05T10:53:37.000Z</time>
        <extensions>
          <ns3:TrackPointExtension>
            <ns3:hr>66</ns3:hr>
            <ns3:cad>0</ns3:cad>
          </ns3:TrackPointExtension>
        </extensions>
      </trkpt>
      <trkpt lat="43.4718498028814792633056640625" lon="1.432063914835453033447265625">
        <ele>251.399993896484375</ele>
        <time>2026-08-05T10:53:38.000Z</time>
        <extensions>
          <ns3:TrackPointExtension>
            <ns3:hr>65</ns3:hr>
            <ns3:cad>0</ns3:cad>
          </ns3:TrackPointExtension>
        </extensions>
      </trkpt>
      <trkpt lat="43.4718498028814792633056640625" lon="1.432063914835453033447265625">
        <ele>251.399993896484375</ele>
        <time>2026-08-05T10:53:39.000Z</time>
        <extensions>
          <ns3:TrackPointExtension>
            <ns3:hr>65</ns3:hr>
            <ns3:cad>0</ns3:cad>
          </ns3:TrackPointExtension>
        </extensions>
      </trkpt>
      <trkpt lat="43.4718498028814792633056640625" lon="1.432063914835453033447265625">
        <ele>251.399993896484375</ele>
        <time>2026-08-05T10:53:40.000Z</time>
        <extensions>
          <ns3:TrackPointExtension>
            <ns3:hr>64</ns3:hr>
            <ns3:cad>0</ns3:cad>
          </ns3:TrackPointExtension>
        </extensions>
      </trkpt>
      <trkpt lat="43.4718498028814792633056640625" lon="1.432063914835453033447265625">
        <ele>251.399993896484375</ele>
        <time>2026-08-05T10:53:41.000Z</time>
        <extensions>
          <ns3:TrackPointExtension>
            <ns3:hr>63</ns3:hr>
            <ns3:cad>0</ns3:cad>
          </ns3:TrackPointExtension>
        </extensions>
      </trkpt>
      <trkpt lat="43.4718498028814792633056640625" lon="1.432063914835453033447265625">
        <ele>251.399993896484375</ele>
        <time>2026-08-05T10:53:42.000Z</time>
        <extensions>
          <ns3:TrackPointExtension>
            <ns3:hr>63</ns3:hr>
            <ns3:cad>0</ns3:cad>
          </ns3:TrackPointExtension>
        </extensions>
      </trkpt>
      <trkpt lat="43.4718498028814792633056640625" lon="1.432063914835453033447265625">
        <ele>251.399993896484375</ele>
        <time>2026-08-05T10:53:43.000Z</time>
        <extensions>
          <ns3:TrackPointExtension>
            <ns3:hr>63</ns3:hr>
            <ns3:cad>0</ns3:cad>
          </ns3:TrackPointExtension>
        </extensions>
      </trkpt>
      <trkpt lat="43.4718498028814792633056640625" lon="1.432063914835453033447265625">
        <ele>251.399993896484375</ele>
        <time>2026-08-05T10:53:44.000Z</time>
        <extensions>
          <ns3:TrackPointExtension>
            <ns3:hr>64</ns3:hr>
            <ns3:cad>0</ns3:cad>
          </ns3:TrackPointExtension>
        </extensions>
      </trkpt>
      <trkpt lat="43.4718498028814792633056640625" lon="1.432063914835453033447265625">
        <ele>251.600006103515625</ele>
        <time>2026-08-05T10:53:45.000Z</time>
        <extensions>
          <ns3:TrackPointExtension>
            <ns3:hr>64</ns3:hr>
            <ns3:cad>0</ns3:cad>
          </ns3:TrackPointExtension>
        </extensions>
      </trkpt>
      <trkpt lat="43.4718498028814792633056640625" lon="1.432063914835453033447265625">
        <ele>251.600006103515625</ele>
        <time>2026-08-05T10:53:46.000Z</time>
        <extensions>
          <ns3:TrackPointExtension>
            <ns3:hr>64</ns3:hr>
            <ns3:cad>0</ns3:cad>
          </ns3:TrackPointExtension>
        </extensions>
      </trkpt>
      <trkpt lat="43.4718498028814792633056640625" lon="1.432063914835453033447265625">
        <ele>251.600006103515625</ele>
        <time>2026-08-05T10:53:47.000Z</time>
        <extensions>
          <ns3:TrackPointExtension>
            <ns3:hr>64</ns3:hr>
            <ns3:cad>0</ns3:cad>
          </ns3:TrackPointExtension>
        </extensions>
      </trkpt>
      <trkpt lat="43.4718498028814792633056640625" lon="1.432063914835453033447265625">
        <ele>251.600006103515625</ele>
        <time>2026-08-05T10:53:48.000Z</time>
        <extensions>
          <ns3:TrackPointExtension>
            <ns3:hr>65</ns3:hr>
            <ns3:cad>0</ns3:cad>
          </ns3:TrackPointExtension>
        </extensions>
      </trkpt>
      <trkpt lat="43.4718498028814792633056640625" lon="1.432063914835453033447265625">
        <ele>251.600006103515625</ele>
        <time>2026-08-05T10:53:49.000Z</time>
        <extensions>
          <ns3:TrackPointExtension>
            <ns3:hr>64</ns3:hr>
            <ns3:cad>0</ns3:cad>
          </ns3:TrackPointExtension>
        </extensions>
      </trkpt>
      <trkpt lat="43.4718498028814792633056640625" lon="1.432063914835453033447265625">
        <ele>251.600006103515625</ele>
        <time>2026-08-05T10:53:50.000Z</time>
        <extensions>
          <ns3:TrackPointExtension>
            <ns3:hr>64</ns3:hr>
            <ns3:cad>0</ns3:cad>
          </ns3:TrackPointExtension>
        </extensions>
      </trkpt>
      <trkpt lat="43.4718498028814792633056640625" lon="1.432063914835453033447265625">
        <ele>251.600006103515625</ele>
        <time>2026-08-05T10:53:51.000Z</time>
        <extensions>
          <ns3:TrackPointExtension>
            <ns3:hr>65</ns3:hr>
            <ns3:cad>0</ns3:cad>
          </ns3:TrackPointExtension>
        </extensions>
      </trkpt>
      <trkpt lat="43.4718498028814792633056640625" lon="1.432063914835453033447265625">
        <ele>251.399993896484375</ele>
        <time>2026-08-05T10:53:52.000Z</time>
        <extensions>
          <ns3:TrackPointExtension>
            <ns3:hr>64</ns3:hr>
            <ns3:cad>0</ns3:cad>
          </ns3:TrackPointExtension>
        </extensions>
      </trkpt>
      <trkpt lat="43.4718498028814792633056640625" lon="1.432063914835453033447265625">
        <ele>251.399993896484375</ele>
        <time>2026-08-05T10:53:53.000Z</time>
        <extensions>
          <ns3:TrackPointExtension>
            <ns3:hr>64</ns3:hr>
            <ns3:cad>0</ns3:cad>
          </ns3:TrackPointExtension>
        </extensions>
      </trkpt>
      <trkpt lat="43.4718498028814792633056640625" lon="1.432063914835453033447265625">
        <ele>251.399993896484375</ele>
        <time>2026-08-05T10:53:54.000Z</time>
        <extensions>
          <ns3:TrackPointExtension>
            <ns3:hr>64</ns3:hr>
            <ns3:cad>0</ns3:cad>
          </ns3:TrackPointExtension>
        </extensions>
      </trkpt>
      <trkpt lat="43.4718498028814792633056640625" lon="1.432063914835453033447265625">
        <ele>251.399993896484375</ele>
        <time>2026-08-05T10:53:55.000Z</time>
        <extensions>
          <ns3:TrackPointExtension>
            <ns3:hr>64</ns3:hr>
            <ns3:cad>0</ns3:cad>
          </ns3:TrackPointExtension>
        </extensions>
      </trkpt>
      <trkpt lat="43.4718498028814792633056640625" lon="1.432063914835453033447265625">
        <ele>251.399993896484375</ele>
        <time>2026-08-05T10:53:56.000Z</time>
        <extensions>
          <ns3:TrackPointExtension>
            <ns3:hr>63</ns3:hr>
            <ns3:cad>0</ns3:cad>
          </ns3:TrackPointExtension>
        </extensions>
      </trkpt>
      <trkpt lat="43.4718498028814792633056640625" lon="1.432063914835453033447265625">
        <ele>251.399993896484375</ele>
        <time>2026-08-05T10:53:57.000Z</time>
        <extensions>
          <ns3:TrackPointExtension>
            <ns3:hr>63</ns3:hr>
            <ns3:cad>0</ns3:cad>
          </ns3:TrackPointExtension>
        </extensions>
      </trkpt>
      <trkpt lat="43.4718498028814792633056640625" lon="1.432063914835453033447265625">
        <ele>251.399993896484375</ele>
        <time>2026-08-05T10:53:58.000Z</time>
        <extensions>
          <ns3:TrackPointExtension>
            <ns3:hr>63</ns3:hr>
            <ns3:cad>0</ns3:cad>
          </ns3:TrackPointExtension>
        </extensions>
      </trkpt>
      <trkpt lat="43.4718498028814792633056640625" lon="1.432063914835453033447265625">
        <ele>251.399993896484375</ele>
        <time>2026-08-05T10:53:59.000Z</time>
        <extensions>
          <ns3:TrackPointExtension>
            <ns3:hr>63</ns3:hr>
            <ns3:cad>0</ns3:cad>
          </ns3:TrackPointExtension>
        </extensions>
      </trkpt>
      <trkpt lat="43.4718498028814792633056640625" lon="1.432063914835453033447265625">
        <ele>251.399993896484375</ele>
        <time>2026-08-05T10:54:00.000Z</time>
        <extensions>
          <ns3:TrackPointExtension>
            <ns3:hr>63</ns3:hr>
            <ns3:cad>0</ns3:cad>
          </ns3:TrackPointExtension>
        </extensions>
      </trkpt>
      <trkpt lat="43.4718498028814792633056640625" lon="1.432063914835453033447265625">
        <ele>251.399993896484375</ele>
        <time>2026-08-05T10:54:01.000Z</time>
        <extensions>
          <ns3:TrackPointExtension>
            <ns3:hr>64</ns3:hr>
            <ns3:cad>0</ns3:cad>
          </ns3:TrackPointExtension>
        </extensions>
      </trkpt>
      <trkpt lat="43.4718498028814792633056640625" lon="1.432063914835453033447265625">
        <ele>251.399993896484375</ele>
        <time>2026-08-05T10:54:02.000Z</time>
        <extensions>
          <ns3:TrackPointExtension>
            <ns3:hr>63</ns3:hr>
            <ns3:cad>0</ns3:cad>
          </ns3:TrackPointExtension>
        </extensions>
      </trkpt>
      <trkpt lat="43.4718498028814792633056640625" lon="1.432063914835453033447265625">
        <ele>251.399993896484375</ele>
        <time>2026-08-05T10:54:03.000Z</time>
        <extensions>
          <ns3:TrackPointExtension>
            <ns3:hr>63</ns3:hr>
            <ns3:cad>0</ns3:cad>
          </ns3:TrackPointExtension>
        </extensions>
      </trkpt>
      <trkpt lat="43.4718498028814792633056640625" lon="1.432063914835453033447265625">
        <ele>251.1999969482421875</ele>
        <time>2026-08-05T10:54:04.000Z</time>
        <extensions>
          <ns3:TrackPointExtension>
            <ns3:hr>64</ns3:hr>
            <ns3:cad>0</ns3:cad>
          </ns3:TrackPointExtension>
        </extensions>
      </trkpt>
      <trkpt lat="43.4718498028814792633056640625" lon="1.432063914835453033447265625">
        <ele>251.1999969482421875</ele>
        <time>2026-08-05T10:54:05.000Z</time>
        <extensions>
          <ns3:TrackPointExtension>
            <ns3:hr>64</ns3:hr>
            <ns3:cad>0</ns3:cad>
          </ns3:TrackPointExtension>
        </extensions>
      </trkpt>
      <trkpt lat="43.4718498028814792633056640625" lon="1.432063914835453033447265625">
        <ele>251.1999969482421875</ele>
        <time>2026-08-05T10:54:06.000Z</time>
        <extensions>
          <ns3:TrackPointExtension>
            <ns3:hr>64</ns3:hr>
            <ns3:cad>0</ns3:cad>
          </ns3:TrackPointExtension>
        </extensions>
      </trkpt>
      <trkpt lat="43.4718498028814792633056640625" lon="1.432063914835453033447265625">
        <ele>251.1999969482421875</ele>
        <time>2026-08-05T10:54:07.000Z</time>
        <extensions>
          <ns3:TrackPointExtension>
            <ns3:hr>64</ns3:hr>
            <ns3:cad>0</ns3:cad>
          </ns3:TrackPointExtension>
        </extensions>
      </trkpt>
      <trkpt lat="43.4718498028814792633056640625" lon="1.432063914835453033447265625">
        <ele>251.1999969482421875</ele>
        <time>2026-08-05T10:54:08.000Z</time>
        <extensions>
          <ns3:TrackPointExtension>
            <ns3:hr>64</ns3:hr>
            <ns3:cad>0</ns3:cad>
          </ns3:TrackPointExtension>
        </extensions>
      </trkpt>
      <trkpt lat="43.4718498028814792633056640625" lon="1.432063914835453033447265625">
        <ele>251.1999969482421875</ele>
        <time>2026-08-05T10:54:09.000Z</time>
        <extensions>
          <ns3:TrackPointExtension>
            <ns3:hr>64</ns3:hr>
            <ns3:cad>0</ns3:cad>
          </ns3:TrackPointExtension>
        </extensions>
      </trkpt>
      <trkpt lat="43.4718498028814792633056640625" lon="1.432063914835453033447265625">
        <ele>251.1999969482421875</ele>
        <time>2026-08-05T10:54:10.000Z</time>
        <extensions>
          <ns3:TrackPointExtension>
            <ns3:hr>65</ns3:hr>
            <ns3:cad>0</ns3:cad>
          </ns3:TrackPointExtension>
        </extensions>
      </trkpt>
      <trkpt lat="43.4718498028814792633056640625" lon="1.432063914835453033447265625">
        <ele>251.1999969482421875</ele>
        <time>2026-08-05T10:54:11.000Z</time>
        <extensions>
          <ns3:TrackPointExtension>
            <ns3:hr>66</ns3:hr>
            <ns3:cad>0</ns3:cad>
          </ns3:TrackPointExtension>
        </extensions>
      </trkpt>
      <trkpt lat="43.4718498028814792633056640625" lon="1.432063914835453033447265625">
        <ele>251.1999969482421875</ele>
        <time>2026-08-05T10:54:12.000Z</time>
        <extensions>
          <ns3:TrackPointExtension>
            <ns3:hr>67</ns3:hr>
            <ns3:cad>0</ns3:cad>
          </ns3:TrackPointExtension>
        </extensions>
      </trkpt>
      <trkpt lat="43.4718498028814792633056640625" lon="1.432063914835453033447265625">
        <ele>251</ele>
        <time>2026-08-05T10:54:13.000Z</time>
        <extensions>
          <ns3:TrackPointExtension>
            <ns3:hr>68</ns3:hr>
            <ns3:cad>0</ns3:cad>
          </ns3:TrackPointExtension>
        </extensions>
      </trkpt>
      <trkpt lat="43.4718498028814792633056640625" lon="1.432063914835453033447265625">
        <ele>251</ele>
        <time>2026-08-05T10:54:14.000Z</time>
        <extensions>
          <ns3:TrackPointExtension>
            <ns3:hr>68</ns3:hr>
            <ns3:cad>0</ns3:cad>
          </ns3:TrackPointExtension>
        </extensions>
      </trkpt>
      <trkpt lat="43.4718498028814792633056640625" lon="1.432063914835453033447265625">
        <ele>251</ele>
        <time>2026-08-05T10:54:15.000Z</time>
        <extensions>
          <ns3:TrackPointExtension>
            <ns3:hr>68</ns3:hr>
            <ns3:cad>0</ns3:cad>
          </ns3:TrackPointExtension>
        </extensions>
      </trkpt>
      <trkpt lat="43.4718498028814792633056640625" lon="1.432063914835453033447265625">
        <ele>251</ele>
        <time>2026-08-05T10:54:16.000Z</time>
        <extensions>
          <ns3:TrackPointExtension>
            <ns3:hr>68</ns3:hr>
            <ns3:cad>0</ns3:cad>
          </ns3:TrackPointExtension>
        </extensions>
      </trkpt>
      <trkpt lat="43.4718498028814792633056640625" lon="1.432063914835453033447265625">
        <ele>250.8000030517578125</ele>
        <time>2026-08-05T10:54:17.000Z</time>
        <extensions>
          <ns3:TrackPointExtension>
            <ns3:hr>68</ns3:hr>
            <ns3:cad>0</ns3:cad>
          </ns3:TrackPointExtension>
        </extensions>
      </trkpt>
      <trkpt lat="43.4718498028814792633056640625" lon="1.432063914835453033447265625">
        <ele>250.8000030517578125</ele>
        <time>2026-08-05T10:54:18.000Z</time>
        <extensions>
          <ns3:TrackPointExtension>
            <ns3:hr>68</ns3:hr>
            <ns3:cad>0</ns3:cad>
          </ns3:TrackPointExtension>
        </extensions>
      </trkpt>
      <trkpt lat="43.4718498028814792633056640625" lon="1.432063914835453033447265625">
        <ele>250.8000030517578125</ele>
        <time>2026-08-05T10:54:19.000Z</time>
        <extensions>
          <ns3:TrackPointExtension>
            <ns3:hr>68</ns3:hr>
            <ns3:cad>0</ns3:cad>
          </ns3:TrackPointExtension>
        </extensions>
      </trkpt>
      <trkpt lat="43.4718498028814792633056640625" lon="1.432063914835453033447265625">
        <ele>250.8000030517578125</ele>
        <time>2026-08-05T10:54:20.000Z</time>
        <extensions>
          <ns3:TrackPointExtension>
            <ns3:hr>69</ns3:hr>
            <ns3:cad>0</ns3:cad>
          </ns3:TrackPointExtension>
        </extensions>
      </trkpt>
      <trkpt lat="43.4718498028814792633056640625" lon="1.432063914835453033447265625">
        <ele>250.8000030517578125</ele>
        <time>2026-08-05T10:54:21.000Z</time>
        <extensions>
          <ns3:TrackPointExtension>
            <ns3:hr>69</ns3:hr>
            <ns3:cad>0</ns3:cad>
          </ns3:TrackPointExtension>
        </extensions>
      </trkpt>
      <trkpt lat="43.4718498028814792633056640625" lon="1.432063914835453033447265625">
        <ele>250.8000030517578125</ele>
        <time>2026-08-05T10:54:22.000Z</time>
        <extensions>
          <ns3:TrackPointExtension>
            <ns3:hr>69</ns3:hr>
            <ns3:cad>0</ns3:cad>
          </ns3:TrackPointExtension>
        </extensions>
      </trkpt>
      <trkpt lat="43.4718498028814792633056640625" lon="1.432063914835453033447265625">
        <ele>250.8000030517578125</ele>
        <time>2026-08-05T10:54:23.000Z</time>
        <extensions>
          <ns3:TrackPointExtension>
            <ns3:hr>70</ns3:hr>
            <ns3:cad>0</ns3:cad>
          </ns3:TrackPointExtension>
        </extensions>
      </trkpt>
      <trkpt lat="43.4718498028814792633056640625" lon="1.432063914835453033447265625">
        <ele>250.8000030517578125</ele>
        <time>2026-08-05T10:54:24.000Z</time>
        <extensions>
          <ns3:TrackPointExtension>
            <ns3:hr>68</ns3:hr>
            <ns3:cad>0</ns3:cad>
          </ns3:TrackPointExtension>
        </extensions>
      </trkpt>
      <trkpt lat="43.4718498028814792633056640625" lon="1.432063914835453033447265625">
        <ele>250.600006103515625</ele>
        <time>2026-08-05T10:54:25.000Z</time>
        <extensions>
          <ns3:TrackPointExtension>
            <ns3:hr>66</ns3:hr>
            <ns3:cad>0</ns3:cad>
          </ns3:TrackPointExtension>
        </extensions>
      </trkpt>
      <trkpt lat="43.4718498028814792633056640625" lon="1.432063914835453033447265625">
        <ele>250.600006103515625</ele>
        <time>2026-08-05T10:54:26.000Z</time>
        <extensions>
          <ns3:TrackPointExtension>
            <ns3:hr>64</ns3:hr>
            <ns3:cad>0</ns3:cad>
          </ns3:TrackPointExtension>
        </extensions>
      </trkpt>
      <trkpt lat="43.4718498028814792633056640625" lon="1.432063914835453033447265625">
        <ele>250.600006103515625</ele>
        <time>2026-08-05T10:54:27.000Z</time>
        <extensions>
          <ns3:TrackPointExtension>
            <ns3:hr>63</ns3:hr>
            <ns3:cad>0</ns3:cad>
          </ns3:TrackPointExtension>
        </extensions>
      </trkpt>
      <trkpt lat="43.4718498028814792633056640625" lon="1.432063914835453033447265625">
        <ele>250.600006103515625</ele>
        <time>2026-08-05T10:54:28.000Z</time>
        <extensions>
          <ns3:TrackPointExtension>
            <ns3:hr>61</ns3:hr>
            <ns3:cad>0</ns3:cad>
          </ns3:TrackPointExtension>
        </extensions>
      </trkpt>
      <trkpt lat="43.4718498028814792633056640625" lon="1.432063914835453033447265625">
        <ele>250.600006103515625</ele>
        <time>2026-08-05T10:54:29.000Z</time>
        <extensions>
          <ns3:TrackPointExtension>
            <ns3:hr>60</ns3:hr>
            <ns3:cad>0</ns3:cad>
          </ns3:TrackPointExtension>
        </extensions>
      </trkpt>
      <trkpt lat="43.4718498028814792633056640625" lon="1.432063914835453033447265625">
        <ele>250.600006103515625</ele>
        <time>2026-08-05T10:54:30.000Z</time>
        <extensions>
          <ns3:TrackPointExtension>
            <ns3:hr>58</ns3:hr>
            <ns3:cad>0</ns3:cad>
          </ns3:TrackPointExtension>
        </extensions>
      </trkpt>
      <trkpt lat="43.4718498028814792633056640625" lon="1.432063914835453033447265625">
        <ele>250.600006103515625</ele>
        <time>2026-08-05T10:54:31.000Z</time>
        <extensions>
          <ns3:TrackPointExtension>
            <ns3:hr>58</ns3:hr>
            <ns3:cad>0</ns3:cad>
          </ns3:TrackPointExtension>
        </extensions>
      </trkpt>
      <trkpt lat="43.4718498028814792633056640625" lon="1.432063914835453033447265625">
        <ele>250.8000030517578125</ele>
        <time>2026-08-05T10:54:32.000Z</time>
        <extensions>
          <ns3:TrackPointExtension>
            <ns3:hr>58</ns3:hr>
            <ns3:cad>0</ns3:cad>
          </ns3:TrackPointExtension>
        </extensions>
      </trkpt>
      <trkpt lat="43.4718498028814792633056640625" lon="1.432063914835453033447265625">
        <ele>250.8000030517578125</ele>
        <time>2026-08-05T10:54:33.000Z</time>
        <extensions>
          <ns3:TrackPointExtension>
            <ns3:hr>58</ns3:hr>
            <ns3:cad>0</ns3:cad>
          </ns3:TrackPointExtension>
        </extensions>
      </trkpt>
      <trkpt lat="43.4718498028814792633056640625" lon="1.432063914835453033447265625">
        <ele>250.8000030517578125</ele>
        <time>2026-08-05T10:54:34.000Z</time>
        <extensions>
          <ns3:TrackPointExtension>
            <ns3:hr>59</ns3:hr>
            <ns3:cad>0</ns3:cad>
          </ns3:TrackPointExtension>
        </extensions>
      </trkpt>
      <trkpt lat="43.4718498028814792633056640625" lon="1.432063914835453033447265625">
        <ele>250.8000030517578125</ele>
        <time>2026-08-05T10:54:35.000Z</time>
        <extensions>
          <ns3:TrackPointExtension>
            <ns3:hr>59</ns3:hr>
            <ns3:cad>0</ns3:cad>
          </ns3:TrackPointExtension>
        </extensions>
      </trkpt>
      <trkpt lat="43.4718498028814792633056640625" lon="1.432063914835453033447265625">
        <ele>250.8000030517578125</ele>
        <time>2026-08-05T10:54:36.000Z</time>
        <extensions>
          <ns3:TrackPointExtension>
            <ns3:hr>59</ns3:hr>
            <ns3:cad>0</ns3:cad>
          </ns3:TrackPointExtension>
        </extensions>
      </trkpt>
      <trkpt lat="43.4718498028814792633056640625" lon="1.432063914835453033447265625">
        <ele>250.8000030517578125</ele>
        <time>2026-08-05T10:54:37.000Z</time>
        <extensions>
          <ns3:TrackPointExtension>
            <ns3:hr>58</ns3:hr>
            <ns3:cad>0</ns3:cad>
          </ns3:TrackPointExtension>
        </extensions>
      </trkpt>
      <trkpt lat="43.4718498028814792633056640625" lon="1.432063914835453033447265625">
        <ele>250.600006103515625</ele>
        <time>2026-08-05T10:54:38.000Z</time>
        <extensions>
          <ns3:TrackPointExtension>
            <ns3:hr>59</ns3:hr>
            <ns3:cad>0</ns3:cad>
          </ns3:TrackPointExtension>
        </extensions>
      </trkpt>
      <trkpt lat="43.4718498028814792633056640625" lon="1.432063914835453033447265625">
        <ele>250.600006103515625</ele>
        <time>2026-08-05T10:54:39.000Z</time>
        <extensions>
          <ns3:TrackPointExtension>
            <ns3:hr>58</ns3:hr>
            <ns3:cad>0</ns3:cad>
          </ns3:TrackPointExtension>
        </extensions>
      </trkpt>
      <trkpt lat="43.4718498028814792633056640625" lon="1.432063914835453033447265625">
        <ele>250.600006103515625</ele>
        <time>2026-08-05T10:54:40.000Z</time>
        <extensions>
          <ns3:TrackPointExtension>
            <ns3:hr>58</ns3:hr>
            <ns3:cad>0</ns3:cad>
          </ns3:TrackPointExtension>
        </extensions>
      </trkpt>
      <trkpt lat="43.4718498028814792633056640625" lon="1.432063914835453033447265625">
        <ele>250.600006103515625</ele>
        <time>2026-08-05T10:54:41.000Z</time>
        <extensions>
          <ns3:TrackPointExtension>
            <ns3:hr>57</ns3:hr>
            <ns3:cad>0</ns3:cad>
          </ns3:TrackPointExtension>
        </extensions>
      </trkpt>
      <trkpt lat="43.4718498028814792633056640625" lon="1.432063914835453033447265625">
        <ele>250.8000030517578125</ele>
        <time>2026-08-05T10:54:42.000Z</time>
        <extensions>
          <ns3:TrackPointExtension>
            <ns3:hr>57</ns3:hr>
            <ns3:cad>0</ns3:cad>
          </ns3:TrackPointExtension>
        </extensions>
      </trkpt>
      <trkpt lat="43.4718498028814792633056640625" lon="1.432063914835453033447265625">
        <ele>250.8000030517578125</ele>
        <time>2026-08-05T10:54:43.000Z</time>
        <extensions>
          <ns3:TrackPointExtension>
            <ns3:hr>57</ns3:hr>
            <ns3:cad>0</ns3:cad>
          </ns3:TrackPointExtension>
        </extensions>
      </trkpt>
      <trkpt lat="43.4718498028814792633056640625" lon="1.432063914835453033447265625">
        <ele>251</ele>
        <time>2026-08-05T10:54:44.000Z</time>
        <extensions>
          <ns3:TrackPointExtension>
            <ns3:hr>58</ns3:hr>
            <ns3:cad>0</ns3:cad>
          </ns3:TrackPointExtension>
        </extensions>
      </trkpt>
      <trkpt lat="43.4718498028814792633056640625" lon="1.432063914835453033447265625">
        <ele>251</ele>
        <time>2026-08-05T10:54:45.000Z</time>
        <extensions>
          <ns3:TrackPointExtension>
            <ns3:hr>57</ns3:hr>
            <ns3:cad>0</ns3:cad>
          </ns3:TrackPointExtension>
        </extensions>
      </trkpt>
      <trkpt lat="43.4718498028814792633056640625" lon="1.432063914835453033447265625">
        <ele>251</ele>
        <time>2026-08-05T10:54:46.000Z</time>
        <extensions>
          <ns3:TrackPointExtension>
            <ns3:hr>57</ns3:hr>
            <ns3:cad>0</ns3:cad>
          </ns3:TrackPointExtension>
        </extensions>
      </trkpt>
      <trkpt lat="43.4718498028814792633056640625" lon="1.432063914835453033447265625">
        <ele>251</ele>
        <time>2026-08-05T10:54:47.000Z</time>
        <extensions>
          <ns3:TrackPointExtension>
            <ns3:hr>56</ns3:hr>
            <ns3:cad>0</ns3:cad>
          </ns3:TrackPointExtension>
        </extensions>
      </trkpt>
      <trkpt lat="43.4718498028814792633056640625" lon="1.432063914835453033447265625">
        <ele>251</ele>
        <time>2026-08-05T10:54:48.000Z</time>
        <extensions>
          <ns3:TrackPointExtension>
            <ns3:hr>56</ns3:hr>
            <ns3:cad>0</ns3:cad>
          </ns3:TrackPointExtension>
        </extensions>
      </trkpt>
      <trkpt lat="43.4718498028814792633056640625" lon="1.432063914835453033447265625">
        <ele>251</ele>
        <time>2026-08-05T10:54:49.000Z</time>
        <extensions>
          <ns3:TrackPointExtension>
            <ns3:hr>56</ns3:hr>
            <ns3:cad>0</ns3:cad>
          </ns3:TrackPointExtension>
        </extensions>
      </trkpt>
      <trkpt lat="43.4718498028814792633056640625" lon="1.432063914835453033447265625">
        <ele>251</ele>
        <time>2026-08-05T10:54:50.000Z</time>
        <extensions>
          <ns3:TrackPointExtension>
            <ns3:hr>56</ns3:hr>
            <ns3:cad>0</ns3:cad>
          </ns3:TrackPointExtension>
        </extensions>
      </trkpt>
      <trkpt lat="43.4718498028814792633056640625" lon="1.432063914835453033447265625">
        <ele>251</ele>
        <time>2026-08-05T10:54:51.000Z</time>
        <extensions>
          <ns3:TrackPointExtension>
            <ns3:hr>55</ns3:hr>
            <ns3:cad>0</ns3:cad>
          </ns3:TrackPointExtension>
        </extensions>
      </trkpt>
      <trkpt lat="43.4718498028814792633056640625" lon="1.432063914835453033447265625">
        <ele>251</ele>
        <time>2026-08-05T10:54:52.000Z</time>
        <extensions>
          <ns3:TrackPointExtension>
            <ns3:hr>55</ns3:hr>
            <ns3:cad>0</ns3:cad>
          </ns3:TrackPointExtension>
        </extensions>
      </trkpt>
      <trkpt lat="43.4718498028814792633056640625" lon="1.432063914835453033447265625">
        <ele>251</ele>
        <time>2026-08-05T10:54:53.000Z</time>
        <extensions>
          <ns3:TrackPointExtension>
            <ns3:hr>55</ns3:hr>
            <ns3:cad>0</ns3:cad>
          </ns3:TrackPointExtension>
        </extensions>
      </trkpt>
      <trkpt lat="43.4718498028814792633056640625" lon="1.432063914835453033447265625">
        <ele>251</ele>
        <time>2026-08-05T10:54:54.000Z</time>
        <extensions>
          <ns3:TrackPointExtension>
            <ns3:hr>56</ns3:hr>
            <ns3:cad>0</ns3:cad>
          </ns3:TrackPointExtension>
        </extensions>
      </trkpt>
      <trkpt lat="43.4718498028814792633056640625" lon="1.432063914835453033447265625">
        <ele>251</ele>
        <time>2026-08-05T10:54:55.000Z</time>
        <extensions>
          <ns3:TrackPointExtension>
            <ns3:hr>56</ns3:hr>
            <ns3:cad>0</ns3:cad>
          </ns3:TrackPointExtension>
        </extensions>
      </trkpt>
      <trkpt lat="43.4718498028814792633056640625" lon="1.432063914835453033447265625">
        <ele>251</ele>
        <time>2026-08-05T10:54:56.000Z</time>
        <extensions>
          <ns3:TrackPointExtension>
            <ns3:hr>56</ns3:hr>
            <ns3:cad>0</ns3:cad>
          </ns3:TrackPointExtension>
        </extensions>
      </trkpt>
      <trkpt lat="43.4718498028814792633056640625" lon="1.432063914835453033447265625">
        <ele>251</ele>
        <time>2026-08-05T10:54:57.000Z</time>
        <extensions>
          <ns3:TrackPointExtension>
            <ns3:hr>56</ns3:hr>
            <ns3:cad>0</ns3:cad>
          </ns3:TrackPointExtension>
        </extensions>
      </trkpt>
      <trkpt lat="43.4718498028814792633056640625" lon="1.432063914835453033447265625">
        <ele>251</ele>
        <time>2026-08-05T10:54:58.000Z</time>
        <extensions>
          <ns3:TrackPointExtension>
            <ns3:hr>58</ns3:hr>
            <ns3:cad>0</ns3:cad>
          </ns3:TrackPointExtension>
        </extensions>
      </trkpt>
      <trkpt lat="43.4718498028814792633056640625" lon="1.432063914835453033447265625">
        <ele>251</ele>
        <time>2026-08-05T10:54:59.000Z</time>
        <extensions>
          <ns3:TrackPointExtension>
            <ns3:hr>59</ns3:hr>
            <ns3:cad>0</ns3:cad>
          </ns3:TrackPointExtension>
        </extensions>
      </trkpt>
      <trkpt lat="43.4718498028814792633056640625" lon="1.432063914835453033447265625">
        <ele>251</ele>
        <time>2026-08-05T10:55:00.000Z</time>
        <extensions>
          <ns3:TrackPointExtension>
            <ns3:hr>60</ns3:hr>
            <ns3:cad>0</ns3:cad>
          </ns3:TrackPointExtension>
        </extensions>
      </trkpt>
      <trkpt lat="43.4718498028814792633056640625" lon="1.432063914835453033447265625">
        <ele>251</ele>
        <time>2026-08-05T10:55:01.000Z</time>
        <extensions>
          <ns3:TrackPointExtension>
            <ns3:hr>61</ns3:hr>
            <ns3:cad>0</ns3:cad>
          </ns3:TrackPointExtension>
        </extensions>
      </trkpt>
      <trkpt lat="43.4718498028814792633056640625" lon="1.432063914835453033447265625">
        <ele>251</ele>
        <time>2026-08-05T10:55:02.000Z</time>
        <extensions>
          <ns3:TrackPointExtension>
            <ns3:hr>63</ns3:hr>
            <ns3:cad>0</ns3:cad>
          </ns3:TrackPointExtension>
        </extensions>
      </trkpt>
      <trkpt lat="43.4718498028814792633056640625" lon="1.432063914835453033447265625">
        <ele>251</ele>
        <time>2026-08-05T10:55:03.000Z</time>
        <extensions>
          <ns3:TrackPointExtension>
            <ns3:hr>64</ns3:hr>
            <ns3:cad>0</ns3:cad>
          </ns3:TrackPointExtension>
        </extensions>
      </trkpt>
      <trkpt lat="43.4718498028814792633056640625" lon="1.432063914835453033447265625">
        <ele>251</ele>
        <time>2026-08-05T10:55:04.000Z</time>
        <extensions>
          <ns3:TrackPointExtension>
            <ns3:hr>65</ns3:hr>
            <ns3:cad>0</ns3:cad>
          </ns3:TrackPointExtension>
        </extensions>
      </trkpt>
      <trkpt lat="43.4718498028814792633056640625" lon="1.432063914835453033447265625">
        <ele>251</ele>
        <time>2026-08-05T10:55:05.000Z</time>
        <extensions>
          <ns3:TrackPointExtension>
            <ns3:hr>66</ns3:hr>
            <ns3:cad>0</ns3:cad>
          </ns3:TrackPointExtension>
        </extensions>
      </trkpt>
      <trkpt lat="43.4718498028814792633056640625" lon="1.432063914835453033447265625">
        <ele>251</ele>
        <time>2026-08-05T10:55:06.000Z</time>
        <extensions>
          <ns3:TrackPointExtension>
            <ns3:hr>66</ns3:hr>
            <ns3:cad>0</ns3:cad>
          </ns3:TrackPointExtension>
        </extensions>
      </trkpt>
      <trkpt lat="43.4718498028814792633056640625" lon="1.432063914835453033447265625">
        <ele>251</ele>
        <time>2026-08-05T10:55:07.000Z</time>
        <extensions>
          <ns3:TrackPointExtension>
            <ns3:hr>65</ns3:hr>
            <ns3:cad>0</ns3:cad>
          </ns3:TrackPointExtension>
        </extensions>
      </trkpt>
      <trkpt lat="43.4718498028814792633056640625" lon="1.432063914835453033447265625">
        <ele>251</ele>
        <time>2026-08-05T10:55:08.000Z</time>
        <extensions>
          <ns3:TrackPointExtension>
            <ns3:hr>65</ns3:hr>
            <ns3:cad>0</ns3:cad>
          </ns3:TrackPointExtension>
        </extensions>
      </trkpt>
      <trkpt lat="43.4718498028814792633056640625" lon="1.432063914835453033447265625">
        <ele>251</ele>
        <time>2026-08-05T10:55:09.000Z</time>
        <extensions>
          <ns3:TrackPointExtension>
            <ns3:hr>65</ns3:hr>
            <ns3:cad>0</ns3:cad>
          </ns3:TrackPointExtension>
        </extensions>
      </trkpt>
      <trkpt lat="43.4718498028814792633056640625" lon="1.432063914835453033447265625">
        <ele>251</ele>
        <time>2026-08-05T10:55:10.000Z</time>
        <extensions>
          <ns3:TrackPointExtension>
            <ns3:hr>62</ns3:hr>
            <ns3:cad>0</ns3:cad>
          </ns3:TrackPointExtension>
        </extensions>
      </trkpt>
      <trkpt lat="43.4718498028814792633056640625" lon="1.432063914835453033447265625">
        <ele>251</ele>
        <time>2026-08-05T10:55:11.000Z</time>
        <extensions>
          <ns3:TrackPointExtension>
            <ns3:hr>62</ns3:hr>
            <ns3:cad>0</ns3:cad>
          </ns3:TrackPointExtension>
        </extensions>
      </trkpt>
      <trkpt lat="43.4718498028814792633056640625" lon="1.432063914835453033447265625">
        <ele>251</ele>
        <time>2026-08-05T10:55:12.000Z</time>
        <extensions>
          <ns3:TrackPointExtension>
            <ns3:hr>63</ns3:hr>
            <ns3:cad>0</ns3:cad>
          </ns3:TrackPointExtension>
        </extensions>
      </trkpt>
      <trkpt lat="43.4718498028814792633056640625" lon="1.432063914835453033447265625">
        <ele>251</ele>
        <time>2026-08-05T10:55:13.000Z</time>
        <extensions>
          <ns3:TrackPointExtension>
            <ns3:hr>63</ns3:hr>
            <ns3:cad>0</ns3:cad>
          </ns3:TrackPointExtension>
        </extensions>
      </trkpt>
      <trkpt lat="43.4718498028814792633056640625" lon="1.432063914835453033447265625">
        <ele>251</ele>
        <time>2026-08-05T10:55:14.000Z</time>
        <extensions>
          <ns3:TrackPointExtension>
            <ns3:hr>63</ns3:hr>
            <ns3:cad>0</ns3:cad>
          </ns3:TrackPointExtension>
        </extensions>
      </trkpt>
      <trkpt lat="43.4718498028814792633056640625" lon="1.432063914835453033447265625">
        <ele>251</ele>
        <time>2026-08-05T10:55:15.000Z</time>
        <extensions>
          <ns3:TrackPointExtension>
            <ns3:hr>63</ns3:hr>
            <ns3:cad>0</ns3:cad>
          </ns3:TrackPointExtension>
        </extensions>
      </trkpt>
      <trkpt lat="43.4718498028814792633056640625" lon="1.432063914835453033447265625">
        <ele>251</ele>
        <time>2026-08-05T10:55:16.000Z</time>
        <extensions>
          <ns3:TrackPointExtension>
            <ns3:hr>64</ns3:hr>
            <ns3:cad>0</ns3:cad>
          </ns3:TrackPointExtension>
        </extensions>
      </trkpt>
      <trkpt lat="43.4718498028814792633056640625" lon="1.432063914835453033447265625">
        <ele>251</ele>
        <time>2026-08-05T10:55:17.000Z</time>
        <extensions>
          <ns3:TrackPointExtension>
            <ns3:hr>63</ns3:hr>
            <ns3:cad>0</ns3:cad>
          </ns3:TrackPointExtension>
        </extensions>
      </trkpt>
      <trkpt lat="43.4718498028814792633056640625" lon="1.432063914835453033447265625">
        <ele>251.1999969482421875</ele>
        <time>2026-08-05T10:55:18.000Z</time>
        <extensions>
          <ns3:TrackPointExtension>
            <ns3:hr>63</ns3:hr>
            <ns3:cad>0</ns3:cad>
          </ns3:TrackPointExtension>
        </extensions>
      </trkpt>
      <trkpt lat="43.4718498028814792633056640625" lon="1.432063914835453033447265625">
        <ele>251.1999969482421875</ele>
        <time>2026-08-05T10:55:19.000Z</time>
        <extensions>
          <ns3:TrackPointExtension>
            <ns3:hr>59</ns3:hr>
            <ns3:cad>0</ns3:cad>
          </ns3:TrackPointExtension>
        </extensions>
      </trkpt>
      <trkpt lat="43.4718498028814792633056640625" lon="1.432063914835453033447265625">
        <ele>251.1999969482421875</ele>
        <time>2026-08-05T10:55:20.000Z</time>
        <extensions>
          <ns3:TrackPointExtension>
            <ns3:hr>58</ns3:hr>
            <ns3:cad>0</ns3:cad>
          </ns3:TrackPointExtension>
        </extensions>
      </trkpt>
      <trkpt lat="43.4718498028814792633056640625" lon="1.432063914835453033447265625">
        <ele>251.1999969482421875</ele>
        <time>2026-08-05T10:55:21.000Z</time>
        <extensions>
          <ns3:TrackPointExtension>
            <ns3:hr>57</ns3:hr>
            <ns3:cad>0</ns3:cad>
          </ns3:TrackPointExtension>
        </extensions>
      </trkpt>
      <trkpt lat="43.4718498028814792633056640625" lon="1.432063914835453033447265625">
        <ele>251.1999969482421875</ele>
        <time>2026-08-05T10:55:22.000Z</time>
        <extensions>
          <ns3:TrackPointExtension>
            <ns3:hr>56</ns3:hr>
            <ns3:cad>0</ns3:cad>
          </ns3:TrackPointExtension>
        </extensions>
      </trkpt>
      <trkpt lat="43.4718498028814792633056640625" lon="1.432063914835453033447265625">
        <ele>251.1999969482421875</ele>
        <time>2026-08-05T10:55:23.000Z</time>
        <extensions>
          <ns3:TrackPointExtension>
            <ns3:hr>56</ns3:hr>
            <ns3:cad>0</ns3:cad>
          </ns3:TrackPointExtension>
        </extensions>
      </trkpt>
      <trkpt lat="43.4718498028814792633056640625" lon="1.432063914835453033447265625">
        <ele>251</ele>
        <time>2026-08-05T10:55:24.000Z</time>
        <extensions>
          <ns3:TrackPointExtension>
            <ns3:hr>56</ns3:hr>
            <ns3:cad>0</ns3:cad>
          </ns3:TrackPointExtension>
        </extensions>
      </trkpt>
      <trkpt lat="43.4718498028814792633056640625" lon="1.432063914835453033447265625">
        <ele>251</ele>
        <time>2026-08-05T10:55:25.000Z</time>
        <extensions>
          <ns3:TrackPointExtension>
            <ns3:hr>55</ns3:hr>
            <ns3:cad>0</ns3:cad>
          </ns3:TrackPointExtension>
        </extensions>
      </trkpt>
      <trkpt lat="43.4718498028814792633056640625" lon="1.432063914835453033447265625">
        <ele>251</ele>
        <time>2026-08-05T10:55:26.000Z</time>
        <extensions>
          <ns3:TrackPointExtension>
            <ns3:hr>55</ns3:hr>
            <ns3:cad>0</ns3:cad>
          </ns3:TrackPointExtension>
        </extensions>
      </trkpt>
      <trkpt lat="43.4718498028814792633056640625" lon="1.432063914835453033447265625">
        <ele>251</ele>
        <time>2026-08-05T10:55:27.000Z</time>
        <extensions>
          <ns3:TrackPointExtension>
            <ns3:hr>56</ns3:hr>
            <ns3:cad>0</ns3:cad>
          </ns3:TrackPointExtension>
        </extensions>
      </trkpt>
      <trkpt lat="43.4718498028814792633056640625" lon="1.432063914835453033447265625">
        <ele>251</ele>
        <time>2026-08-05T10:55:28.000Z</time>
        <extensions>
          <ns3:TrackPointExtension>
            <ns3:hr>57</ns3:hr>
            <ns3:cad>0</ns3:cad>
          </ns3:TrackPointExtension>
        </extensions>
      </trkpt>
      <trkpt lat="43.4718498028814792633056640625" lon="1.432063914835453033447265625">
        <ele>251</ele>
        <time>2026-08-05T10:55:29.000Z</time>
        <extensions>
          <ns3:TrackPointExtension>
            <ns3:hr>57</ns3:hr>
            <ns3:cad>0</ns3:cad>
          </ns3:TrackPointExtension>
        </extensions>
      </trkpt>
      <trkpt lat="43.4718498028814792633056640625" lon="1.432063914835453033447265625">
        <ele>251</ele>
        <time>2026-08-05T10:55:30.000Z</time>
        <extensions>
          <ns3:TrackPointExtension>
            <ns3:hr>58</ns3:hr>
            <ns3:cad>0</ns3:cad>
          </ns3:TrackPointExtension>
        </extensions>
      </trkpt>
      <trkpt lat="43.4718498028814792633056640625" lon="1.432063914835453033447265625">
        <ele>251</ele>
        <time>2026-08-05T10:55:31.000Z</time>
        <extensions>
          <ns3:TrackPointExtension>
            <ns3:hr>58</ns3:hr>
            <ns3:cad>0</ns3:cad>
          </ns3:TrackPointExtension>
        </extensions>
      </trkpt>
      <trkpt lat="43.4718498028814792633056640625" lon="1.432063914835453033447265625">
        <ele>251</ele>
        <time>2026-08-05T10:55:32.000Z</time>
        <extensions>
          <ns3:TrackPointExtension>
            <ns3:hr>59</ns3:hr>
            <ns3:cad>0</ns3:cad>
          </ns3:TrackPointExtension>
        </extensions>
      </trkpt>
      <trkpt lat="43.4718498028814792633056640625" lon="1.432063914835453033447265625">
        <ele>251</ele>
        <time>2026-08-05T10:55:33.000Z</time>
        <extensions>
          <ns3:TrackPointExtension>
            <ns3:hr>60</ns3:hr>
            <ns3:cad>0</ns3:cad>
          </ns3:TrackPointExtension>
        </extensions>
      </trkpt>
      <trkpt lat="43.4718498028814792633056640625" lon="1.432063914835453033447265625">
        <ele>251</ele>
        <time>2026-08-05T10:55:34.000Z</time>
        <extensions>
          <ns3:TrackPointExtension>
            <ns3:hr>61</ns3:hr>
            <ns3:cad>0</ns3:cad>
          </ns3:TrackPointExtension>
        </extensions>
      </trkpt>
      <trkpt lat="43.4718498028814792633056640625" lon="1.432063914835453033447265625">
        <ele>251</ele>
        <time>2026-08-05T10:55:35.000Z</time>
        <extensions>
          <ns3:TrackPointExtension>
            <ns3:hr>62</ns3:hr>
            <ns3:cad>0</ns3:cad>
          </ns3:TrackPointExtension>
        </extensions>
      </trkpt>
      <trkpt lat="43.4718498028814792633056640625" lon="1.432063914835453033447265625">
        <ele>251</ele>
        <time>2026-08-05T10:55:36.000Z</time>
        <extensions>
          <ns3:TrackPointExtension>
            <ns3:hr>63</ns3:hr>
            <ns3:cad>0</ns3:cad>
          </ns3:TrackPointExtension>
        </extensions>
      </trkpt>
      <trkpt lat="43.4718498028814792633056640625" lon="1.432063914835453033447265625">
        <ele>251</ele>
        <time>2026-08-05T10:55:37.000Z</time>
        <extensions>
          <ns3:TrackPointExtension>
            <ns3:hr>63</ns3:hr>
            <ns3:cad>0</ns3:cad>
          </ns3:TrackPointExtension>
        </extensions>
      </trkpt>
      <trkpt lat="43.4718498028814792633056640625" lon="1.432063914835453033447265625">
        <ele>251</ele>
        <time>2026-08-05T10:55:38.000Z</time>
        <extensions>
          <ns3:TrackPointExtension>
            <ns3:hr>63</ns3:hr>
            <ns3:cad>0</ns3:cad>
          </ns3:TrackPointExtension>
        </extensions>
      </trkpt>
      <trkpt lat="43.4718498028814792633056640625" lon="1.432063914835453033447265625">
        <ele>251</ele>
        <time>2026-08-05T10:55:39.000Z</time>
        <extensions>
          <ns3:TrackPointExtension>
            <ns3:hr>63</ns3:hr>
            <ns3:cad>0</ns3:cad>
          </ns3:TrackPointExtension>
        </extensions>
      </trkpt>
      <trkpt lat="43.4718498028814792633056640625" lon="1.432063914835453033447265625">
        <ele>251</ele>
        <time>2026-08-05T10:55:40.000Z</time>
        <extensions>
          <ns3:TrackPointExtension>
            <ns3:hr>63</ns3:hr>
            <ns3:cad>0</ns3:cad>
          </ns3:TrackPointExtension>
        </extensions>
      </trkpt>
      <trkpt lat="43.4718498028814792633056640625" lon="1.432063914835453033447265625">
        <ele>251</ele>
        <time>2026-08-05T10:55:41.000Z</time>
        <extensions>
          <ns3:TrackPointExtension>
            <ns3:hr>63</ns3:hr>
            <ns3:cad>0</ns3:cad>
          </ns3:TrackPointExtension>
        </extensions>
      </trkpt>
      <trkpt lat="43.4718498028814792633056640625" lon="1.432063914835453033447265625">
        <ele>251</ele>
        <time>2026-08-05T10:55:42.000Z</time>
        <extensions>
          <ns3:TrackPointExtension>
            <ns3:hr>63</ns3:hr>
            <ns3:cad>0</ns3:cad>
          </ns3:TrackPointExtension>
        </extensions>
      </trkpt>
      <trkpt lat="43.4718498028814792633056640625" lon="1.432063914835453033447265625">
        <ele>251</ele>
        <time>2026-08-05T10:55:43.000Z</time>
        <extensions>
          <ns3:TrackPointExtension>
            <ns3:hr>64</ns3:hr>
            <ns3:cad>0</ns3:cad>
          </ns3:TrackPointExtension>
        </extensions>
      </trkpt>
      <trkpt lat="43.4718498028814792633056640625" lon="1.432063914835453033447265625">
        <ele>251</ele>
        <time>2026-08-05T10:55:44.000Z</time>
        <extensions>
          <ns3:TrackPointExtension>
            <ns3:hr>64</ns3:hr>
            <ns3:cad>0</ns3:cad>
          </ns3:TrackPointExtension>
        </extensions>
      </trkpt>
      <trkpt lat="43.4718498028814792633056640625" lon="1.432063914835453033447265625">
        <ele>251</ele>
        <time>2026-08-05T10:55:45.000Z</time>
        <extensions>
          <ns3:TrackPointExtension>
            <ns3:hr>64</ns3:hr>
            <ns3:cad>0</ns3:cad>
          </ns3:TrackPointExtension>
        </extensions>
      </trkpt>
      <trkpt lat="43.4718498028814792633056640625" lon="1.432063914835453033447265625">
        <ele>251</ele>
        <time>2026-08-05T10:55:46.000Z</time>
        <extensions>
          <ns3:TrackPointExtension>
            <ns3:hr>64</ns3:hr>
            <ns3:cad>0</ns3:cad>
          </ns3:TrackPointExtension>
        </extensions>
      </trkpt>
      <trkpt lat="43.4718498028814792633056640625" lon="1.432063914835453033447265625">
        <ele>251</ele>
        <time>2026-08-05T10:55:47.000Z</time>
        <extensions>
          <ns3:TrackPointExtension>
            <ns3:hr>65</ns3:hr>
            <ns3:cad>0</ns3:cad>
          </ns3:TrackPointExtension>
        </extensions>
      </trkpt>
      <trkpt lat="43.4718498028814792633056640625" lon="1.432063914835453033447265625">
        <ele>250.8000030517578125</ele>
        <time>2026-08-05T10:55:48.000Z</time>
        <extensions>
          <ns3:TrackPointExtension>
            <ns3:hr>67</ns3:hr>
            <ns3:cad>0</ns3:cad>
          </ns3:TrackPointExtension>
        </extensions>
      </trkpt>
      <trkpt lat="43.4718498028814792633056640625" lon="1.432063914835453033447265625">
        <ele>250.8000030517578125</ele>
        <time>2026-08-05T10:55:49.000Z</time>
        <extensions>
          <ns3:TrackPointExtension>
            <ns3:hr>68</ns3:hr>
            <ns3:cad>0</ns3:cad>
          </ns3:TrackPointExtension>
        </extensions>
      </trkpt>
      <trkpt lat="43.4718498028814792633056640625" lon="1.432063914835453033447265625">
        <ele>250.8000030517578125</ele>
        <time>2026-08-05T10:55:50.000Z</time>
        <extensions>
          <ns3:TrackPointExtension>
            <ns3:hr>67</ns3:hr>
            <ns3:cad>0</ns3:cad>
          </ns3:TrackPointExtension>
        </extensions>
      </trkpt>
      <trkpt lat="43.4718498028814792633056640625" lon="1.432063914835453033447265625">
        <ele>250.8000030517578125</ele>
        <time>2026-08-05T10:55:51.000Z</time>
        <extensions>
          <ns3:TrackPointExtension>
            <ns3:hr>67</ns3:hr>
            <ns3:cad>0</ns3:cad>
          </ns3:TrackPointExtension>
        </extensions>
      </trkpt>
      <trkpt lat="43.4718498028814792633056640625" lon="1.432063914835453033447265625">
        <ele>250.8000030517578125</ele>
        <time>2026-08-05T10:55:52.000Z</time>
        <extensions>
          <ns3:TrackPointExtension>
            <ns3:hr>66</ns3:hr>
            <ns3:cad>0</ns3:cad>
          </ns3:TrackPointExtension>
        </extensions>
      </trkpt>
      <trkpt lat="43.4718498028814792633056640625" lon="1.432063914835453033447265625">
        <ele>250.8000030517578125</ele>
        <time>2026-08-05T10:55:53.000Z</time>
        <extensions>
          <ns3:TrackPointExtension>
            <ns3:hr>65</ns3:hr>
            <ns3:cad>0</ns3:cad>
          </ns3:TrackPointExtension>
        </extensions>
      </trkpt>
      <trkpt lat="43.4718498028814792633056640625" lon="1.432063914835453033447265625">
        <ele>250.8000030517578125</ele>
        <time>2026-08-05T10:55:54.000Z</time>
        <extensions>
          <ns3:TrackPointExtension>
            <ns3:hr>64</ns3:hr>
            <ns3:cad>0</ns3:cad>
          </ns3:TrackPointExtension>
        </extensions>
      </trkpt>
      <trkpt lat="43.4718498028814792633056640625" lon="1.432063914835453033447265625">
        <ele>250.8000030517578125</ele>
        <time>2026-08-05T10:55:55.000Z</time>
        <extensions>
          <ns3:TrackPointExtension>
            <ns3:hr>61</ns3:hr>
            <ns3:cad>0</ns3:cad>
          </ns3:TrackPointExtension>
        </extensions>
      </trkpt>
      <trkpt lat="43.4718498028814792633056640625" lon="1.432063914835453033447265625">
        <ele>250.8000030517578125</ele>
        <time>2026-08-05T10:55:56.000Z</time>
        <extensions>
          <ns3:TrackPointExtension>
            <ns3:hr>60</ns3:hr>
            <ns3:cad>0</ns3:cad>
          </ns3:TrackPointExtension>
        </extensions>
      </trkpt>
      <trkpt lat="43.4718498028814792633056640625" lon="1.432063914835453033447265625">
        <ele>250.8000030517578125</ele>
        <time>2026-08-05T10:55:57.000Z</time>
        <extensions>
          <ns3:TrackPointExtension>
            <ns3:hr>60</ns3:hr>
            <ns3:cad>0</ns3:cad>
          </ns3:TrackPointExtension>
        </extensions>
      </trkpt>
      <trkpt lat="43.4718498028814792633056640625" lon="1.432063914835453033447265625">
        <ele>250.8000030517578125</ele>
        <time>2026-08-05T10:55:58.000Z</time>
        <extensions>
          <ns3:TrackPointExtension>
            <ns3:hr>60</ns3:hr>
            <ns3:cad>0</ns3:cad>
          </ns3:TrackPointExtension>
        </extensions>
      </trkpt>
      <trkpt lat="43.4718498028814792633056640625" lon="1.432063914835453033447265625">
        <ele>250.8000030517578125</ele>
        <time>2026-08-05T10:55:59.000Z</time>
        <extensions>
          <ns3:TrackPointExtension>
            <ns3:hr>61</ns3:hr>
            <ns3:cad>0</ns3:cad>
          </ns3:TrackPointExtension>
        </extensions>
      </trkpt>
      <trkpt lat="43.4718498028814792633056640625" lon="1.432063914835453033447265625">
        <ele>250.8000030517578125</ele>
        <time>2026-08-05T10:56:00.000Z</time>
        <extensions>
          <ns3:TrackPointExtension>
            <ns3:hr>62</ns3:hr>
            <ns3:cad>0</ns3:cad>
          </ns3:TrackPointExtension>
        </extensions>
      </trkpt>
      <trkpt lat="43.4718498028814792633056640625" lon="1.432063914835453033447265625">
        <ele>250.8000030517578125</ele>
        <time>2026-08-05T10:56:01.000Z</time>
        <extensions>
          <ns3:TrackPointExtension>
            <ns3:hr>62</ns3:hr>
            <ns3:cad>0</ns3:cad>
          </ns3:TrackPointExtension>
        </extensions>
      </trkpt>
      <trkpt lat="43.4718498028814792633056640625" lon="1.432063914835453033447265625">
        <ele>250.8000030517578125</ele>
        <time>2026-08-05T10:56:02.000Z</time>
        <extensions>
          <ns3:TrackPointExtension>
            <ns3:hr>62</ns3:hr>
            <ns3:cad>0</ns3:cad>
          </ns3:TrackPointExtension>
        </extensions>
      </trkpt>
      <trkpt lat="43.4718498028814792633056640625" lon="1.432063914835453033447265625">
        <ele>250.8000030517578125</ele>
        <time>2026-08-05T10:56:03.000Z</time>
        <extensions>
          <ns3:TrackPointExtension>
            <ns3:hr>62</ns3:hr>
            <ns3:cad>0</ns3:cad>
          </ns3:TrackPointExtension>
        </extensions>
      </trkpt>
      <trkpt lat="43.4718498028814792633056640625" lon="1.432063914835453033447265625">
        <ele>250.8000030517578125</ele>
        <time>2026-08-05T10:56:04.000Z</time>
        <extensions>
          <ns3:TrackPointExtension>
            <ns3:hr>63</ns3:hr>
            <ns3:cad>0</ns3:cad>
          </ns3:TrackPointExtension>
        </extensions>
      </trkpt>
      <trkpt lat="43.4718498028814792633056640625" lon="1.432063914835453033447265625">
        <ele>250.8000030517578125</ele>
        <time>2026-08-05T10:56:05.000Z</time>
        <extensions>
          <ns3:TrackPointExtension>
            <ns3:hr>63</ns3:hr>
            <ns3:cad>0</ns3:cad>
          </ns3:TrackPointExtension>
        </extensions>
      </trkpt>
      <trkpt lat="43.4718498028814792633056640625" lon="1.432063914835453033447265625">
        <ele>250.8000030517578125</ele>
        <time>2026-08-05T10:56:06.000Z</time>
        <extensions>
          <ns3:TrackPointExtension>
            <ns3:hr>63</ns3:hr>
            <ns3:cad>0</ns3:cad>
          </ns3:TrackPointExtension>
        </extensions>
      </trkpt>
      <trkpt lat="43.4718498028814792633056640625" lon="1.432063914835453033447265625">
        <ele>250.8000030517578125</ele>
        <time>2026-08-05T10:56:07.000Z</time>
        <extensions>
          <ns3:TrackPointExtension>
            <ns3:hr>62</ns3:hr>
            <ns3:cad>0</ns3:cad>
          </ns3:TrackPointExtension>
        </extensions>
      </trkpt>
      <trkpt lat="43.4718498028814792633056640625" lon="1.432063914835453033447265625">
        <ele>250.8000030517578125</ele>
        <time>2026-08-05T10:56:08.000Z</time>
        <extensions>
          <ns3:TrackPointExtension>
            <ns3:hr>62</ns3:hr>
            <ns3:cad>0</ns3:cad>
          </ns3:TrackPointExtension>
        </extensions>
      </trkpt>
      <trkpt lat="43.4718498028814792633056640625" lon="1.432063914835453033447265625">
        <ele>250.8000030517578125</ele>
        <time>2026-08-05T10:56:09.000Z</time>
        <extensions>
          <ns3:TrackPointExtension>
            <ns3:hr>62</ns3:hr>
            <ns3:cad>0</ns3:cad>
          </ns3:TrackPointExtension>
        </extensions>
      </trkpt>
      <trkpt lat="43.4718498028814792633056640625" lon="1.432063914835453033447265625">
        <ele>250.8000030517578125</ele>
        <time>2026-08-05T10:56:10.000Z</time>
        <extensions>
          <ns3:TrackPointExtension>
            <ns3:hr>62</ns3:hr>
            <ns3:cad>0</ns3:cad>
          </ns3:TrackPointExtension>
        </extensions>
      </trkpt>
      <trkpt lat="43.4718498028814792633056640625" lon="1.432063914835453033447265625">
        <ele>250.8000030517578125</ele>
        <time>2026-08-05T10:56:11.000Z</time>
        <extensions>
          <ns3:TrackPointExtension>
            <ns3:hr>62</ns3:hr>
            <ns3:cad>0</ns3:cad>
          </ns3:TrackPointExtension>
        </extensions>
      </trkpt>
      <trkpt lat="43.4718498028814792633056640625" lon="1.432063914835453033447265625">
        <ele>250.600006103515625</ele>
        <time>2026-08-05T10:56:12.000Z</time>
        <extensions>
          <ns3:TrackPointExtension>
            <ns3:hr>63</ns3:hr>
            <ns3:cad>0</ns3:cad>
          </ns3:TrackPointExtension>
        </extensions>
      </trkpt>
      <trkpt lat="43.4718498028814792633056640625" lon="1.432063914835453033447265625">
        <ele>250.600006103515625</ele>
        <time>2026-08-05T10:56:13.000Z</time>
        <extensions>
          <ns3:TrackPointExtension>
            <ns3:hr>63</ns3:hr>
            <ns3:cad>0</ns3:cad>
          </ns3:TrackPointExtension>
        </extensions>
      </trkpt>
      <trkpt lat="43.4718498028814792633056640625" lon="1.432063914835453033447265625">
        <ele>250.600006103515625</ele>
        <time>2026-08-05T10:56:14.000Z</time>
        <extensions>
          <ns3:TrackPointExtension>
            <ns3:hr>63</ns3:hr>
            <ns3:cad>0</ns3:cad>
          </ns3:TrackPointExtension>
        </extensions>
      </trkpt>
      <trkpt lat="43.4718498028814792633056640625" lon="1.432063914835453033447265625">
        <ele>250.600006103515625</ele>
        <time>2026-08-05T10:56:15.000Z</time>
        <extensions>
          <ns3:TrackPointExtension>
            <ns3:hr>63</ns3:hr>
            <ns3:cad>0</ns3:cad>
          </ns3:TrackPointExtension>
        </extensions>
      </trkpt>
      <trkpt lat="43.4718498028814792633056640625" lon="1.432063914835453033447265625">
        <ele>250.600006103515625</ele>
        <time>2026-08-05T10:56:16.000Z</time>
        <extensions>
          <ns3:TrackPointExtension>
            <ns3:hr>63</ns3:hr>
            <ns3:cad>0</ns3:cad>
          </ns3:TrackPointExtension>
        </extensions>
      </trkpt>
      <trkpt lat="43.4718498028814792633056640625" lon="1.432063914835453033447265625">
        <ele>250.8000030517578125</ele>
        <time>2026-08-05T10:56:17.000Z</time>
        <extensions>
          <ns3:TrackPointExtension>
            <ns3:hr>62</ns3:hr>
            <ns3:cad>0</ns3:cad>
          </ns3:TrackPointExtension>
        </extensions>
      </trkpt>
      <trkpt lat="43.4718498028814792633056640625" lon="1.432063914835453033447265625">
        <ele>250.8000030517578125</ele>
        <time>2026-08-05T10:56:18.000Z</time>
        <extensions>
          <ns3:TrackPointExtension>
            <ns3:hr>62</ns3:hr>
            <ns3:cad>0</ns3:cad>
          </ns3:TrackPointExtension>
        </extensions>
      </trkpt>
      <trkpt lat="43.4718498028814792633056640625" lon="1.432063914835453033447265625">
        <ele>250.8000030517578125</ele>
        <time>2026-08-05T10:56:19.000Z</time>
        <extensions>
          <ns3:TrackPointExtension>
            <ns3:hr>62</ns3:hr>
            <ns3:cad>0</ns3:cad>
          </ns3:TrackPointExtension>
        </extensions>
      </trkpt>
      <trkpt lat="43.4718498028814792633056640625" lon="1.432063914835453033447265625">
        <ele>250.8000030517578125</ele>
        <time>2026-08-05T10:56:20.000Z</time>
        <extensions>
          <ns3:TrackPointExtension>
            <ns3:hr>63</ns3:hr>
            <ns3:cad>0</ns3:cad>
          </ns3:TrackPointExtension>
        </extensions>
      </trkpt>
      <trkpt lat="43.4718498028814792633056640625" lon="1.432063914835453033447265625">
        <ele>250.600006103515625</ele>
        <time>2026-08-05T10:56:21.000Z</time>
        <extensions>
          <ns3:TrackPointExtension>
            <ns3:hr>62</ns3:hr>
            <ns3:cad>0</ns3:cad>
          </ns3:TrackPointExtension>
        </extensions>
      </trkpt>
      <trkpt lat="43.4718498028814792633056640625" lon="1.432063914835453033447265625">
        <ele>250.600006103515625</ele>
        <time>2026-08-05T10:56:22.000Z</time>
        <extensions>
          <ns3:TrackPointExtension>
            <ns3:hr>62</ns3:hr>
            <ns3:cad>0</ns3:cad>
          </ns3:TrackPointExtension>
        </extensions>
      </trkpt>
      <trkpt lat="43.4718498028814792633056640625" lon="1.432063914835453033447265625">
        <ele>250.600006103515625</ele>
        <time>2026-08-05T10:56:23.000Z</time>
        <extensions>
          <ns3:TrackPointExtension>
            <ns3:hr>62</ns3:hr>
            <ns3:cad>0</ns3:cad>
          </ns3:TrackPointExtension>
        </extensions>
      </trkpt>
      <trkpt lat="43.4718498028814792633056640625" lon="1.432063914835453033447265625">
        <ele>250.600006103515625</ele>
        <time>2026-08-05T10:56:24.000Z</time>
        <extensions>
          <ns3:TrackPointExtension>
            <ns3:hr>62</ns3:hr>
            <ns3:cad>0</ns3:cad>
          </ns3:TrackPointExtension>
        </extensions>
      </trkpt>
      <trkpt lat="43.4718498028814792633056640625" lon="1.432063914835453033447265625">
        <ele>250.600006103515625</ele>
        <time>2026-08-05T10:56:25.000Z</time>
        <extensions>
          <ns3:TrackPointExtension>
            <ns3:hr>61</ns3:hr>
            <ns3:cad>0</ns3:cad>
          </ns3:TrackPointExtension>
        </extensions>
      </trkpt>
      <trkpt lat="43.4718498028814792633056640625" lon="1.432063914835453033447265625">
        <ele>250.600006103515625</ele>
        <time>2026-08-05T10:56:26.000Z</time>
        <extensions>
          <ns3:TrackPointExtension>
            <ns3:hr>60</ns3:hr>
            <ns3:cad>0</ns3:cad>
          </ns3:TrackPointExtension>
        </extensions>
      </trkpt>
      <trkpt lat="43.4718498028814792633056640625" lon="1.432063914835453033447265625">
        <ele>250.600006103515625</ele>
        <time>2026-08-05T10:56:27.000Z</time>
        <extensions>
          <ns3:TrackPointExtension>
            <ns3:hr>59</ns3:hr>
            <ns3:cad>0</ns3:cad>
          </ns3:TrackPointExtension>
        </extensions>
      </trkpt>
      <trkpt lat="43.4718498028814792633056640625" lon="1.432063914835453033447265625">
        <ele>250.600006103515625</ele>
        <time>2026-08-05T10:56:28.000Z</time>
        <extensions>
          <ns3:TrackPointExtension>
            <ns3:hr>57</ns3:hr>
            <ns3:cad>0</ns3:cad>
          </ns3:TrackPointExtension>
        </extensions>
      </trkpt>
      <trkpt lat="43.4718498028814792633056640625" lon="1.432063914835453033447265625">
        <ele>250.600006103515625</ele>
        <time>2026-08-05T10:56:29.000Z</time>
        <extensions>
          <ns3:TrackPointExtension>
            <ns3:hr>57</ns3:hr>
            <ns3:cad>0</ns3:cad>
          </ns3:TrackPointExtension>
        </extensions>
      </trkpt>
      <trkpt lat="43.4718498028814792633056640625" lon="1.432063914835453033447265625">
        <ele>250.600006103515625</ele>
        <time>2026-08-05T10:56:30.000Z</time>
        <extensions>
          <ns3:TrackPointExtension>
            <ns3:hr>56</ns3:hr>
            <ns3:cad>0</ns3:cad>
          </ns3:TrackPointExtension>
        </extensions>
      </trkpt>
      <trkpt lat="43.4718498028814792633056640625" lon="1.432063914835453033447265625">
        <ele>250.600006103515625</ele>
        <time>2026-08-05T10:56:31.000Z</time>
        <extensions>
          <ns3:TrackPointExtension>
            <ns3:hr>56</ns3:hr>
            <ns3:cad>0</ns3:cad>
          </ns3:TrackPointExtension>
        </extensions>
      </trkpt>
      <trkpt lat="43.4718498028814792633056640625" lon="1.432063914835453033447265625">
        <ele>250.399993896484375</ele>
        <time>2026-08-05T10:56:32.000Z</time>
        <extensions>
          <ns3:TrackPointExtension>
            <ns3:hr>56</ns3:hr>
            <ns3:cad>0</ns3:cad>
          </ns3:TrackPointExtension>
        </extensions>
      </trkpt>
      <trkpt lat="43.4718498028814792633056640625" lon="1.432063914835453033447265625">
        <ele>250.399993896484375</ele>
        <time>2026-08-05T10:56:33.000Z</time>
        <extensions>
          <ns3:TrackPointExtension>
            <ns3:hr>55</ns3:hr>
            <ns3:cad>0</ns3:cad>
          </ns3:TrackPointExtension>
        </extensions>
      </trkpt>
      <trkpt lat="43.4718498028814792633056640625" lon="1.432063914835453033447265625">
        <ele>250.399993896484375</ele>
        <time>2026-08-05T10:56:34.000Z</time>
        <extensions>
          <ns3:TrackPointExtension>
            <ns3:hr>56</ns3:hr>
            <ns3:cad>0</ns3:cad>
          </ns3:TrackPointExtension>
        </extensions>
      </trkpt>
      <trkpt lat="43.4718498028814792633056640625" lon="1.432063914835453033447265625">
        <ele>250.399993896484375</ele>
        <time>2026-08-05T10:56:35.000Z</time>
        <extensions>
          <ns3:TrackPointExtension>
            <ns3:hr>56</ns3:hr>
            <ns3:cad>0</ns3:cad>
          </ns3:TrackPointExtension>
        </extensions>
      </trkpt>
      <trkpt lat="43.4718498028814792633056640625" lon="1.432063914835453033447265625">
        <ele>250.1999969482421875</ele>
        <time>2026-08-05T10:56:36.000Z</time>
        <extensions>
          <ns3:TrackPointExtension>
            <ns3:hr>55</ns3:hr>
            <ns3:cad>0</ns3:cad>
          </ns3:TrackPointExtension>
        </extensions>
      </trkpt>
      <trkpt lat="43.4718498028814792633056640625" lon="1.432063914835453033447265625">
        <ele>250.1999969482421875</ele>
        <time>2026-08-05T10:56:37.000Z</time>
        <extensions>
          <ns3:TrackPointExtension>
            <ns3:hr>56</ns3:hr>
            <ns3:cad>0</ns3:cad>
          </ns3:TrackPointExtension>
        </extensions>
      </trkpt>
      <trkpt lat="43.4718498028814792633056640625" lon="1.432063914835453033447265625">
        <ele>250.1999969482421875</ele>
        <time>2026-08-05T10:56:38.000Z</time>
        <extensions>
          <ns3:TrackPointExtension>
            <ns3:hr>56</ns3:hr>
            <ns3:cad>0</ns3:cad>
          </ns3:TrackPointExtension>
        </extensions>
      </trkpt>
      <trkpt lat="43.4718498028814792633056640625" lon="1.432063914835453033447265625">
        <ele>250.1999969482421875</ele>
        <time>2026-08-05T10:56:39.000Z</time>
        <extensions>
          <ns3:TrackPointExtension>
            <ns3:hr>56</ns3:hr>
            <ns3:cad>0</ns3:cad>
          </ns3:TrackPointExtension>
        </extensions>
      </trkpt>
      <trkpt lat="43.4718498028814792633056640625" lon="1.432063914835453033447265625">
        <ele>250.399993896484375</ele>
        <time>2026-08-05T10:56:40.000Z</time>
        <extensions>
          <ns3:TrackPointExtension>
            <ns3:hr>56</ns3:hr>
            <ns3:cad>0</ns3:cad>
          </ns3:TrackPointExtension>
        </extensions>
      </trkpt>
      <trkpt lat="43.4718498028814792633056640625" lon="1.432063914835453033447265625">
        <ele>250.399993896484375</ele>
        <time>2026-08-05T10:56:41.000Z</time>
        <extensions>
          <ns3:TrackPointExtension>
            <ns3:hr>56</ns3:hr>
            <ns3:cad>0</ns3:cad>
          </ns3:TrackPointExtension>
        </extensions>
      </trkpt>
      <trkpt lat="43.4718498028814792633056640625" lon="1.432063914835453033447265625">
        <ele>250.399993896484375</ele>
        <time>2026-08-05T10:56:42.000Z</time>
        <extensions>
          <ns3:TrackPointExtension>
            <ns3:hr>56</ns3:hr>
            <ns3:cad>0</ns3:cad>
          </ns3:TrackPointExtension>
        </extensions>
      </trkpt>
      <trkpt lat="43.4718498028814792633056640625" lon="1.432063914835453033447265625">
        <ele>250.399993896484375</ele>
        <time>2026-08-05T10:56:43.000Z</time>
        <extensions>
          <ns3:TrackPointExtension>
            <ns3:hr>56</ns3:hr>
            <ns3:cad>0</ns3:cad>
          </ns3:TrackPointExtension>
        </extensions>
      </trkpt>
      <trkpt lat="43.4718498028814792633056640625" lon="1.432063914835453033447265625">
        <ele>250.399993896484375</ele>
        <time>2026-08-05T10:56:44.000Z</time>
        <extensions>
          <ns3:TrackPointExtension>
            <ns3:hr>55</ns3:hr>
            <ns3:cad>0</ns3:cad>
          </ns3:TrackPointExtension>
        </extensions>
      </trkpt>
      <trkpt lat="43.4718498028814792633056640625" lon="1.432063914835453033447265625">
        <ele>250.399993896484375</ele>
        <time>2026-08-05T10:56:45.000Z</time>
        <extensions>
          <ns3:TrackPointExtension>
            <ns3:hr>53</ns3:hr>
            <ns3:cad>0</ns3:cad>
          </ns3:TrackPointExtension>
        </extensions>
      </trkpt>
      <trkpt lat="43.4718498028814792633056640625" lon="1.432063914835453033447265625">
        <ele>250.399993896484375</ele>
        <time>2026-08-05T10:56:46.000Z</time>
        <extensions>
          <ns3:TrackPointExtension>
            <ns3:hr>52</ns3:hr>
            <ns3:cad>0</ns3:cad>
          </ns3:TrackPointExtension>
        </extensions>
      </trkpt>
      <trkpt lat="43.4718498028814792633056640625" lon="1.432063914835453033447265625">
        <ele>250.399993896484375</ele>
        <time>2026-08-05T10:56:47.000Z</time>
        <extensions>
          <ns3:TrackPointExtension>
            <ns3:hr>51</ns3:hr>
            <ns3:cad>0</ns3:cad>
          </ns3:TrackPointExtension>
        </extensions>
      </trkpt>
      <trkpt lat="43.4718498028814792633056640625" lon="1.432063914835453033447265625">
        <ele>250.399993896484375</ele>
        <time>2026-08-05T10:56:48.000Z</time>
        <extensions>
          <ns3:TrackPointExtension>
            <ns3:hr>52</ns3:hr>
            <ns3:cad>0</ns3:cad>
          </ns3:TrackPointExtension>
        </extensions>
      </trkpt>
      <trkpt lat="43.4718498028814792633056640625" lon="1.432063914835453033447265625">
        <ele>250.399993896484375</ele>
        <time>2026-08-05T10:56:49.000Z</time>
        <extensions>
          <ns3:TrackPointExtension>
            <ns3:hr>53</ns3:hr>
            <ns3:cad>0</ns3:cad>
          </ns3:TrackPointExtension>
        </extensions>
      </trkpt>
      <trkpt lat="43.4718498028814792633056640625" lon="1.432063914835453033447265625">
        <ele>250.399993896484375</ele>
        <time>2026-08-05T10:56:50.000Z</time>
        <extensions>
          <ns3:TrackPointExtension>
            <ns3:hr>54</ns3:hr>
            <ns3:cad>0</ns3:cad>
          </ns3:TrackPointExtension>
        </extensions>
      </trkpt>
      <trkpt lat="43.4718498028814792633056640625" lon="1.432063914835453033447265625">
        <ele>250.399993896484375</ele>
        <time>2026-08-05T10:56:51.000Z</time>
        <extensions>
          <ns3:TrackPointExtension>
            <ns3:hr>54</ns3:hr>
            <ns3:cad>0</ns3:cad>
          </ns3:TrackPointExtension>
        </extensions>
      </trkpt>
      <trkpt lat="43.4718498028814792633056640625" lon="1.432063914835453033447265625">
        <ele>250.399993896484375</ele>
        <time>2026-08-05T10:56:52.000Z</time>
        <extensions>
          <ns3:TrackPointExtension>
            <ns3:hr>54</ns3:hr>
            <ns3:cad>0</ns3:cad>
          </ns3:TrackPointExtension>
        </extensions>
      </trkpt>
      <trkpt lat="43.4718498028814792633056640625" lon="1.432063914835453033447265625">
        <ele>250.399993896484375</ele>
        <time>2026-08-05T10:56:53.000Z</time>
        <extensions>
          <ns3:TrackPointExtension>
            <ns3:hr>54</ns3:hr>
            <ns3:cad>0</ns3:cad>
          </ns3:TrackPointExtension>
        </extensions>
      </trkpt>
      <trkpt lat="43.4718498028814792633056640625" lon="1.432063914835453033447265625">
        <ele>250.399993896484375</ele>
        <time>2026-08-05T10:56:54.000Z</time>
        <extensions>
          <ns3:TrackPointExtension>
            <ns3:hr>54</ns3:hr>
            <ns3:cad>0</ns3:cad>
          </ns3:TrackPointExtension>
        </extensions>
      </trkpt>
      <trkpt lat="43.4718498028814792633056640625" lon="1.432063914835453033447265625">
        <ele>250.399993896484375</ele>
        <time>2026-08-05T10:56:55.000Z</time>
        <extensions>
          <ns3:TrackPointExtension>
            <ns3:hr>54</ns3:hr>
            <ns3:cad>0</ns3:cad>
          </ns3:TrackPointExtension>
        </extensions>
      </trkpt>
      <trkpt lat="43.4718498028814792633056640625" lon="1.432063914835453033447265625">
        <ele>250.399993896484375</ele>
        <time>2026-08-05T10:56:56.000Z</time>
        <extensions>
          <ns3:TrackPointExtension>
            <ns3:hr>54</ns3:hr>
            <ns3:cad>0</ns3:cad>
          </ns3:TrackPointExtension>
        </extensions>
      </trkpt>
      <trkpt lat="43.4718498028814792633056640625" lon="1.432063914835453033447265625">
        <ele>250.399993896484375</ele>
        <time>2026-08-05T10:56:57.000Z</time>
        <extensions>
          <ns3:TrackPointExtension>
            <ns3:hr>54</ns3:hr>
            <ns3:cad>0</ns3:cad>
          </ns3:TrackPointExtension>
        </extensions>
      </trkpt>
      <trkpt lat="43.4718498028814792633056640625" lon="1.432063914835453033447265625">
        <ele>250.399993896484375</ele>
        <time>2026-08-05T10:56:58.000Z</time>
        <extensions>
          <ns3:TrackPointExtension>
            <ns3:hr>54</ns3:hr>
            <ns3:cad>0</ns3:cad>
          </ns3:TrackPointExtension>
        </extensions>
      </trkpt>
      <trkpt lat="43.4718498028814792633056640625" lon="1.432063914835453033447265625">
        <ele>250.399993896484375</ele>
        <time>2026-08-05T10:56:59.000Z</time>
        <extensions>
          <ns3:TrackPointExtension>
            <ns3:hr>54</ns3:hr>
            <ns3:cad>0</ns3:cad>
          </ns3:TrackPointExtension>
        </extensions>
      </trkpt>
      <trkpt lat="43.4718498028814792633056640625" lon="1.432063914835453033447265625">
        <ele>250.399993896484375</ele>
        <time>2026-08-05T10:57:00.000Z</time>
        <extensions>
          <ns3:TrackPointExtension>
            <ns3:hr>55</ns3:hr>
            <ns3:cad>0</ns3:cad>
          </ns3:TrackPointExtension>
        </extensions>
      </trkpt>
      <trkpt lat="43.4718498028814792633056640625" lon="1.432063914835453033447265625">
        <ele>250.1999969482421875</ele>
        <time>2026-08-05T10:57:01.000Z</time>
        <extensions>
          <ns3:TrackPointExtension>
            <ns3:hr>57</ns3:hr>
            <ns3:cad>0</ns3:cad>
          </ns3:TrackPointExtension>
        </extensions>
      </trkpt>
      <trkpt lat="43.4718498028814792633056640625" lon="1.432063914835453033447265625">
        <ele>250.1999969482421875</ele>
        <time>2026-08-05T10:57:02.000Z</time>
        <extensions>
          <ns3:TrackPointExtension>
            <ns3:hr>58</ns3:hr>
            <ns3:cad>0</ns3:cad>
          </ns3:TrackPointExtension>
        </extensions>
      </trkpt>
      <trkpt lat="43.4718498028814792633056640625" lon="1.432063914835453033447265625">
        <ele>250.1999969482421875</ele>
        <time>2026-08-05T10:57:03.000Z</time>
        <extensions>
          <ns3:TrackPointExtension>
            <ns3:hr>58</ns3:hr>
            <ns3:cad>0</ns3:cad>
          </ns3:TrackPointExtension>
        </extensions>
      </trkpt>
      <trkpt lat="43.4718498028814792633056640625" lon="1.432063914835453033447265625">
        <ele>250.1999969482421875</ele>
        <time>2026-08-05T10:57:04.000Z</time>
        <extensions>
          <ns3:TrackPointExtension>
            <ns3:hr>57</ns3:hr>
            <ns3:cad>0</ns3:cad>
          </ns3:TrackPointExtension>
        </extensions>
      </trkpt>
      <trkpt lat="43.4718498028814792633056640625" lon="1.432063914835453033447265625">
        <ele>250.1999969482421875</ele>
        <time>2026-08-05T10:57:05.000Z</time>
        <extensions>
          <ns3:TrackPointExtension>
            <ns3:hr>57</ns3:hr>
            <ns3:cad>0</ns3:cad>
          </ns3:TrackPointExtension>
        </extensions>
      </trkpt>
      <trkpt lat="43.4718498028814792633056640625" lon="1.432063914835453033447265625">
        <ele>250.1999969482421875</ele>
        <time>2026-08-05T10:57:06.000Z</time>
        <extensions>
          <ns3:TrackPointExtension>
            <ns3:hr>57</ns3:hr>
            <ns3:cad>0</ns3:cad>
          </ns3:TrackPointExtension>
        </extensions>
      </trkpt>
      <trkpt lat="43.4718498028814792633056640625" lon="1.432063914835453033447265625">
        <ele>250.399993896484375</ele>
        <time>2026-08-05T10:57:07.000Z</time>
        <extensions>
          <ns3:TrackPointExtension>
            <ns3:hr>57</ns3:hr>
            <ns3:cad>0</ns3:cad>
          </ns3:TrackPointExtension>
        </extensions>
      </trkpt>
      <trkpt lat="43.4718498028814792633056640625" lon="1.432063914835453033447265625">
        <ele>250.1999969482421875</ele>
        <time>2026-08-05T10:57:08.000Z</time>
        <extensions>
          <ns3:TrackPointExtension>
            <ns3:hr>57</ns3:hr>
            <ns3:cad>0</ns3:cad>
          </ns3:TrackPointExtension>
        </extensions>
      </trkpt>
      <trkpt lat="43.4718498028814792633056640625" lon="1.432063914835453033447265625">
        <ele>250.1999969482421875</ele>
        <time>2026-08-05T10:57:09.000Z</time>
        <extensions>
          <ns3:TrackPointExtension>
            <ns3:hr>56</ns3:hr>
            <ns3:cad>0</ns3:cad>
          </ns3:TrackPointExtension>
        </extensions>
      </trkpt>
      <trkpt lat="43.4718498028814792633056640625" lon="1.432063914835453033447265625">
        <ele>250.1999969482421875</ele>
        <time>2026-08-05T10:57:10.000Z</time>
        <extensions>
          <ns3:TrackPointExtension>
            <ns3:hr>56</ns3:hr>
            <ns3:cad>0</ns3:cad>
          </ns3:TrackPointExtension>
        </extensions>
      </trkpt>
      <trkpt lat="43.4718498028814792633056640625" lon="1.432063914835453033447265625">
        <ele>250.1999969482421875</ele>
        <time>2026-08-05T10:57:11.000Z</time>
        <extensions>
          <ns3:TrackPointExtension>
            <ns3:hr>56</ns3:hr>
            <ns3:cad>0</ns3:cad>
          </ns3:TrackPointExtension>
        </extensions>
      </trkpt>
      <trkpt lat="43.4718498028814792633056640625" lon="1.432063914835453033447265625">
        <ele>250.1999969482421875</ele>
        <time>2026-08-05T10:57:12.000Z</time>
        <extensions>
          <ns3:TrackPointExtension>
            <ns3:hr>56</ns3:hr>
            <ns3:cad>0</ns3:cad>
          </ns3:TrackPointExtension>
        </extensions>
      </trkpt>
      <trkpt lat="43.4718498028814792633056640625" lon="1.432063914835453033447265625">
        <ele>250.1999969482421875</ele>
        <time>2026-08-05T10:57:13.000Z</time>
        <extensions>
          <ns3:TrackPointExtension>
            <ns3:hr>56</ns3:hr>
            <ns3:cad>0</ns3:cad>
          </ns3:TrackPointExtension>
        </extensions>
      </trkpt>
      <trkpt lat="43.4718498028814792633056640625" lon="1.432063914835453033447265625">
        <ele>250.1999969482421875</ele>
        <time>2026-08-05T10:57:14.000Z</time>
        <extensions>
          <ns3:TrackPointExtension>
            <ns3:hr>56</ns3:hr>
            <ns3:cad>0</ns3:cad>
          </ns3:TrackPointExtension>
        </extensions>
      </trkpt>
      <trkpt lat="43.4718498028814792633056640625" lon="1.432063914835453033447265625">
        <ele>250.1999969482421875</ele>
        <time>2026-08-05T10:57:15.000Z</time>
        <extensions>
          <ns3:TrackPointExtension>
            <ns3:hr>56</ns3:hr>
            <ns3:cad>0</ns3:cad>
          </ns3:TrackPointExtension>
        </extensions>
      </trkpt>
      <trkpt lat="43.4718498028814792633056640625" lon="1.432063914835453033447265625">
        <ele>250.1999969482421875</ele>
        <time>2026-08-05T10:57:16.000Z</time>
        <extensions>
          <ns3:TrackPointExtension>
            <ns3:hr>55</ns3:hr>
            <ns3:cad>0</ns3:cad>
          </ns3:TrackPointExtension>
        </extensions>
      </trkpt>
      <trkpt lat="43.4718498028814792633056640625" lon="1.432063914835453033447265625">
        <ele>250.1999969482421875</ele>
        <time>2026-08-05T10:57:17.000Z</time>
        <extensions>
          <ns3:TrackPointExtension>
            <ns3:hr>56</ns3:hr>
            <ns3:cad>0</ns3:cad>
          </ns3:TrackPointExtension>
        </extensions>
      </trkpt>
      <trkpt lat="43.4718498028814792633056640625" lon="1.432063914835453033447265625">
        <ele>250.1999969482421875</ele>
        <time>2026-08-05T10:57:18.000Z</time>
        <extensions>
          <ns3:TrackPointExtension>
            <ns3:hr>56</ns3:hr>
            <ns3:cad>0</ns3:cad>
          </ns3:TrackPointExtension>
        </extensions>
      </trkpt>
      <trkpt lat="43.4718498028814792633056640625" lon="1.432063914835453033447265625">
        <ele>250.1999969482421875</ele>
        <time>2026-08-05T10:57:19.000Z</time>
        <extensions>
          <ns3:TrackPointExtension>
            <ns3:hr>56</ns3:hr>
            <ns3:cad>0</ns3:cad>
          </ns3:TrackPointExtension>
        </extensions>
      </trkpt>
      <trkpt lat="43.4718498028814792633056640625" lon="1.432063914835453033447265625">
        <ele>250</ele>
        <time>2026-08-05T10:57:20.000Z</time>
        <extensions>
          <ns3:TrackPointExtension>
            <ns3:hr>56</ns3:hr>
            <ns3:cad>0</ns3:cad>
          </ns3:TrackPointExtension>
        </extensions>
      </trkpt>
      <trkpt lat="43.4718498028814792633056640625" lon="1.432063914835453033447265625">
        <ele>250</ele>
        <time>2026-08-05T10:57:21.000Z</time>
        <extensions>
          <ns3:TrackPointExtension>
            <ns3:hr>56</ns3:hr>
            <ns3:cad>0</ns3:cad>
          </ns3:TrackPointExtension>
        </extensions>
      </trkpt>
      <trkpt lat="43.4718498028814792633056640625" lon="1.432063914835453033447265625">
        <ele>250</ele>
        <time>2026-08-05T10:57:22.000Z</time>
        <extensions>
          <ns3:TrackPointExtension>
            <ns3:hr>55</ns3:hr>
            <ns3:cad>0</ns3:cad>
          </ns3:TrackPointExtension>
        </extensions>
      </trkpt>
      <trkpt lat="43.4718498028814792633056640625" lon="1.432063914835453033447265625">
        <ele>250</ele>
        <time>2026-08-05T10:57:23.000Z</time>
        <extensions>
          <ns3:TrackPointExtension>
            <ns3:hr>56</ns3:hr>
            <ns3:cad>0</ns3:cad>
          </ns3:TrackPointExtension>
        </extensions>
      </trkpt>
      <trkpt lat="43.4718498028814792633056640625" lon="1.432063914835453033447265625">
        <ele>249.8000030517578125</ele>
        <time>2026-08-05T10:57:24.000Z</time>
        <extensions>
          <ns3:TrackPointExtension>
            <ns3:hr>56</ns3:hr>
            <ns3:cad>0</ns3:cad>
          </ns3:TrackPointExtension>
        </extensions>
      </trkpt>
      <trkpt lat="43.4718498028814792633056640625" lon="1.432063914835453033447265625">
        <ele>249.8000030517578125</ele>
        <time>2026-08-05T10:57:25.000Z</time>
        <extensions>
          <ns3:TrackPointExtension>
            <ns3:hr>55</ns3:hr>
            <ns3:cad>0</ns3:cad>
          </ns3:TrackPointExtension>
        </extensions>
      </trkpt>
      <trkpt lat="43.4718498028814792633056640625" lon="1.432063914835453033447265625">
        <ele>250</ele>
        <time>2026-08-05T10:57:26.000Z</time>
        <extensions>
          <ns3:TrackPointExtension>
            <ns3:hr>56</ns3:hr>
            <ns3:cad>0</ns3:cad>
          </ns3:TrackPointExtension>
        </extensions>
      </trkpt>
      <trkpt lat="43.4718498028814792633056640625" lon="1.432063914835453033447265625">
        <ele>250</ele>
        <time>2026-08-05T10:57:27.000Z</time>
        <extensions>
          <ns3:TrackPointExtension>
            <ns3:hr>56</ns3:hr>
            <ns3:cad>0</ns3:cad>
          </ns3:TrackPointExtension>
        </extensions>
      </trkpt>
      <trkpt lat="43.4718498028814792633056640625" lon="1.432063914835453033447265625">
        <ele>250</ele>
        <time>2026-08-05T10:57:28.000Z</time>
        <extensions>
          <ns3:TrackPointExtension>
            <ns3:hr>57</ns3:hr>
            <ns3:cad>0</ns3:cad>
          </ns3:TrackPointExtension>
        </extensions>
      </trkpt>
      <trkpt lat="43.4718498028814792633056640625" lon="1.432063914835453033447265625">
        <ele>250.1999969482421875</ele>
        <time>2026-08-05T10:57:29.000Z</time>
        <extensions>
          <ns3:TrackPointExtension>
            <ns3:hr>59</ns3:hr>
            <ns3:cad>0</ns3:cad>
          </ns3:TrackPointExtension>
        </extensions>
      </trkpt>
      <trkpt lat="43.4718498028814792633056640625" lon="1.432063914835453033447265625">
        <ele>250.1999969482421875</ele>
        <time>2026-08-05T10:57:30.000Z</time>
        <extensions>
          <ns3:TrackPointExtension>
            <ns3:hr>60</ns3:hr>
            <ns3:cad>0</ns3:cad>
          </ns3:TrackPointExtension>
        </extensions>
      </trkpt>
      <trkpt lat="43.4718498028814792633056640625" lon="1.432063914835453033447265625">
        <ele>250.1999969482421875</ele>
        <time>2026-08-05T10:57:31.000Z</time>
        <extensions>
          <ns3:TrackPointExtension>
            <ns3:hr>61</ns3:hr>
            <ns3:cad>0</ns3:cad>
          </ns3:TrackPointExtension>
        </extensions>
      </trkpt>
      <trkpt lat="43.4718498028814792633056640625" lon="1.432063914835453033447265625">
        <ele>250.1999969482421875</ele>
        <time>2026-08-05T10:57:32.000Z</time>
        <extensions>
          <ns3:TrackPointExtension>
            <ns3:hr>62</ns3:hr>
            <ns3:cad>0</ns3:cad>
          </ns3:TrackPointExtension>
        </extensions>
      </trkpt>
      <trkpt lat="43.4718498028814792633056640625" lon="1.432063914835453033447265625">
        <ele>250.1999969482421875</ele>
        <time>2026-08-05T10:57:33.000Z</time>
        <extensions>
          <ns3:TrackPointExtension>
            <ns3:hr>62</ns3:hr>
            <ns3:cad>0</ns3:cad>
          </ns3:TrackPointExtension>
        </extensions>
      </trkpt>
      <trkpt lat="43.4718498028814792633056640625" lon="1.432063914835453033447265625">
        <ele>250.1999969482421875</ele>
        <time>2026-08-05T10:57:34.000Z</time>
        <extensions>
          <ns3:TrackPointExtension>
            <ns3:hr>62</ns3:hr>
            <ns3:cad>0</ns3:cad>
          </ns3:TrackPointExtension>
        </extensions>
      </trkpt>
      <trkpt lat="43.4718498028814792633056640625" lon="1.432063914835453033447265625">
        <ele>250.1999969482421875</ele>
        <time>2026-08-05T10:57:35.000Z</time>
        <extensions>
          <ns3:TrackPointExtension>
            <ns3:hr>62</ns3:hr>
            <ns3:cad>0</ns3:cad>
          </ns3:TrackPointExtension>
        </extensions>
      </trkpt>
      <trkpt lat="43.4718498028814792633056640625" lon="1.432063914835453033447265625">
        <ele>250.1999969482421875</ele>
        <time>2026-08-05T10:57:36.000Z</time>
        <extensions>
          <ns3:TrackPointExtension>
            <ns3:hr>62</ns3:hr>
            <ns3:cad>0</ns3:cad>
          </ns3:TrackPointExtension>
        </extensions>
      </trkpt>
      <trkpt lat="43.4718498028814792633056640625" lon="1.432063914835453033447265625">
        <ele>250.1999969482421875</ele>
        <time>2026-08-05T10:57:37.000Z</time>
        <extensions>
          <ns3:TrackPointExtension>
            <ns3:hr>62</ns3:hr>
            <ns3:cad>0</ns3:cad>
          </ns3:TrackPointExtension>
        </extensions>
      </trkpt>
      <trkpt lat="43.4718498028814792633056640625" lon="1.432063914835453033447265625">
        <ele>250.1999969482421875</ele>
        <time>2026-08-05T10:57:38.000Z</time>
        <extensions>
          <ns3:TrackPointExtension>
            <ns3:hr>63</ns3:hr>
            <ns3:cad>0</ns3:cad>
          </ns3:TrackPointExtension>
        </extensions>
      </trkpt>
      <trkpt lat="43.4718498028814792633056640625" lon="1.432063914835453033447265625">
        <ele>250.1999969482421875</ele>
        <time>2026-08-05T10:57:39.000Z</time>
        <extensions>
          <ns3:TrackPointExtension>
            <ns3:hr>63</ns3:hr>
            <ns3:cad>0</ns3:cad>
          </ns3:TrackPointExtension>
        </extensions>
      </trkpt>
      <trkpt lat="43.4718498028814792633056640625" lon="1.432063914835453033447265625">
        <ele>250.1999969482421875</ele>
        <time>2026-08-05T10:57:40.000Z</time>
        <extensions>
          <ns3:TrackPointExtension>
            <ns3:hr>63</ns3:hr>
            <ns3:cad>0</ns3:cad>
          </ns3:TrackPointExtension>
        </extensions>
      </trkpt>
      <trkpt lat="43.4718498028814792633056640625" lon="1.432063914835453033447265625">
        <ele>250</ele>
        <time>2026-08-05T10:57:41.000Z</time>
        <extensions>
          <ns3:TrackPointExtension>
            <ns3:hr>63</ns3:hr>
            <ns3:cad>0</ns3:cad>
          </ns3:TrackPointExtension>
        </extensions>
      </trkpt>
      <trkpt lat="43.4718498028814792633056640625" lon="1.432063914835453033447265625">
        <ele>250</ele>
        <time>2026-08-05T10:57:42.000Z</time>
        <extensions>
          <ns3:TrackPointExtension>
            <ns3:hr>63</ns3:hr>
            <ns3:cad>0</ns3:cad>
          </ns3:TrackPointExtension>
        </extensions>
      </trkpt>
      <trkpt lat="43.4718498028814792633056640625" lon="1.432063914835453033447265625">
        <ele>250</ele>
        <time>2026-08-05T10:57:43.000Z</time>
        <extensions>
          <ns3:TrackPointExtension>
            <ns3:hr>63</ns3:hr>
            <ns3:cad>0</ns3:cad>
          </ns3:TrackPointExtension>
        </extensions>
      </trkpt>
      <trkpt lat="43.4718498028814792633056640625" lon="1.432063914835453033447265625">
        <ele>250</ele>
        <time>2026-08-05T10:57:44.000Z</time>
        <extensions>
          <ns3:TrackPointExtension>
            <ns3:hr>64</ns3:hr>
            <ns3:cad>0</ns3:cad>
          </ns3:TrackPointExtension>
        </extensions>
      </trkpt>
      <trkpt lat="43.4718498028814792633056640625" lon="1.432063914835453033447265625">
        <ele>250</ele>
        <time>2026-08-05T10:57:45.000Z</time>
        <extensions>
          <ns3:TrackPointExtension>
            <ns3:hr>64</ns3:hr>
            <ns3:cad>0</ns3:cad>
          </ns3:TrackPointExtension>
        </extensions>
      </trkpt>
      <trkpt lat="43.4718498028814792633056640625" lon="1.432063914835453033447265625">
        <ele>250</ele>
        <time>2026-08-05T10:57:46.000Z</time>
        <extensions>
          <ns3:TrackPointExtension>
            <ns3:hr>65</ns3:hr>
            <ns3:cad>0</ns3:cad>
          </ns3:TrackPointExtension>
        </extensions>
      </trkpt>
      <trkpt lat="43.4718498028814792633056640625" lon="1.432063914835453033447265625">
        <ele>250</ele>
        <time>2026-08-05T10:57:47.000Z</time>
        <extensions>
          <ns3:TrackPointExtension>
            <ns3:hr>65</ns3:hr>
            <ns3:cad>0</ns3:cad>
          </ns3:TrackPointExtension>
        </extensions>
      </trkpt>
      <trkpt lat="43.4718498028814792633056640625" lon="1.432063914835453033447265625">
        <ele>250</ele>
        <time>2026-08-05T10:57:48.000Z</time>
        <extensions>
          <ns3:TrackPointExtension>
            <ns3:hr>65</ns3:hr>
            <ns3:cad>0</ns3:cad>
          </ns3:TrackPointExtension>
        </extensions>
      </trkpt>
      <trkpt lat="43.4718498028814792633056640625" lon="1.432063914835453033447265625">
        <ele>250</ele>
        <time>2026-08-05T10:57:49.000Z</time>
        <extensions>
          <ns3:TrackPointExtension>
            <ns3:hr>65</ns3:hr>
            <ns3:cad>0</ns3:cad>
          </ns3:TrackPointExtension>
        </extensions>
      </trkpt>
      <trkpt lat="43.4718498028814792633056640625" lon="1.432063914835453033447265625">
        <ele>250</ele>
        <time>2026-08-05T10:57:50.000Z</time>
        <extensions>
          <ns3:TrackPointExtension>
            <ns3:hr>64</ns3:hr>
            <ns3:cad>0</ns3:cad>
          </ns3:TrackPointExtension>
        </extensions>
      </trkpt>
      <trkpt lat="43.4718498028814792633056640625" lon="1.432063914835453033447265625">
        <ele>250</ele>
        <time>2026-08-05T10:57:51.000Z</time>
        <extensions>
          <ns3:TrackPointExtension>
            <ns3:hr>65</ns3:hr>
            <ns3:cad>0</ns3:cad>
          </ns3:TrackPointExtension>
        </extensions>
      </trkpt>
      <trkpt lat="43.4718498028814792633056640625" lon="1.432063914835453033447265625">
        <ele>250</ele>
        <time>2026-08-05T10:57:52.000Z</time>
        <extensions>
          <ns3:TrackPointExtension>
            <ns3:hr>65</ns3:hr>
            <ns3:cad>0</ns3:cad>
          </ns3:TrackPointExtension>
        </extensions>
      </trkpt>
      <trkpt lat="43.4718498028814792633056640625" lon="1.432063914835453033447265625">
        <ele>250</ele>
        <time>2026-08-05T10:57:53.000Z</time>
        <extensions>
          <ns3:TrackPointExtension>
            <ns3:hr>64</ns3:hr>
            <ns3:cad>0</ns3:cad>
          </ns3:TrackPointExtension>
        </extensions>
      </trkpt>
      <trkpt lat="43.4718498028814792633056640625" lon="1.432063914835453033447265625">
        <ele>250</ele>
        <time>2026-08-05T10:57:54.000Z</time>
        <extensions>
          <ns3:TrackPointExtension>
            <ns3:hr>63</ns3:hr>
            <ns3:cad>0</ns3:cad>
          </ns3:TrackPointExtension>
        </extensions>
      </trkpt>
      <trkpt lat="43.4718498028814792633056640625" lon="1.432063914835453033447265625">
        <ele>250</ele>
        <time>2026-08-05T10:57:55.000Z</time>
        <extensions>
          <ns3:TrackPointExtension>
            <ns3:hr>63</ns3:hr>
            <ns3:cad>0</ns3:cad>
          </ns3:TrackPointExtension>
        </extensions>
      </trkpt>
      <trkpt lat="43.4718498028814792633056640625" lon="1.432063914835453033447265625">
        <ele>250</ele>
        <time>2026-08-05T10:57:56.000Z</time>
        <extensions>
          <ns3:TrackPointExtension>
            <ns3:hr>63</ns3:hr>
            <ns3:cad>0</ns3:cad>
          </ns3:TrackPointExtension>
        </extensions>
      </trkpt>
      <trkpt lat="43.4718498028814792633056640625" lon="1.432063914835453033447265625">
        <ele>250</ele>
        <time>2026-08-05T10:57:57.000Z</time>
        <extensions>
          <ns3:TrackPointExtension>
            <ns3:hr>64</ns3:hr>
            <ns3:cad>0</ns3:cad>
          </ns3:TrackPointExtension>
        </extensions>
      </trkpt>
      <trkpt lat="43.4718498028814792633056640625" lon="1.432063914835453033447265625">
        <ele>250</ele>
        <time>2026-08-05T10:57:58.000Z</time>
        <extensions>
          <ns3:TrackPointExtension>
            <ns3:hr>64</ns3:hr>
            <ns3:cad>0</ns3:cad>
          </ns3:TrackPointExtension>
        </extensions>
      </trkpt>
      <trkpt lat="43.4718498028814792633056640625" lon="1.432063914835453033447265625">
        <ele>250</ele>
        <time>2026-08-05T10:57:59.000Z</time>
        <extensions>
          <ns3:TrackPointExtension>
            <ns3:hr>67</ns3:hr>
            <ns3:cad>0</ns3:cad>
          </ns3:TrackPointExtension>
        </extensions>
      </trkpt>
      <trkpt lat="43.4718498028814792633056640625" lon="1.432063914835453033447265625">
        <ele>250</ele>
        <time>2026-08-05T10:58:00.000Z</time>
        <extensions>
          <ns3:TrackPointExtension>
            <ns3:hr>68</ns3:hr>
            <ns3:cad>0</ns3:cad>
          </ns3:TrackPointExtension>
        </extensions>
      </trkpt>
      <trkpt lat="43.4718498028814792633056640625" lon="1.432063914835453033447265625">
        <ele>250</ele>
        <time>2026-08-05T10:58:01.000Z</time>
        <extensions>
          <ns3:TrackPointExtension>
            <ns3:hr>69</ns3:hr>
            <ns3:cad>0</ns3:cad>
          </ns3:TrackPointExtension>
        </extensions>
      </trkpt>
      <trkpt lat="43.4718498028814792633056640625" lon="1.432063914835453033447265625">
        <ele>250</ele>
        <time>2026-08-05T10:58:02.000Z</time>
        <extensions>
          <ns3:TrackPointExtension>
            <ns3:hr>69</ns3:hr>
            <ns3:cad>0</ns3:cad>
          </ns3:TrackPointExtension>
        </extensions>
      </trkpt>
      <trkpt lat="43.4718498028814792633056640625" lon="1.432063914835453033447265625">
        <ele>250</ele>
        <time>2026-08-05T10:58:03.000Z</time>
        <extensions>
          <ns3:TrackPointExtension>
            <ns3:hr>69</ns3:hr>
            <ns3:cad>0</ns3:cad>
          </ns3:TrackPointExtension>
        </extensions>
      </trkpt>
      <trkpt lat="43.4718498028814792633056640625" lon="1.432063914835453033447265625">
        <ele>250</ele>
        <time>2026-08-05T10:58:04.000Z</time>
        <extensions>
          <ns3:TrackPointExtension>
            <ns3:hr>68</ns3:hr>
            <ns3:cad>0</ns3:cad>
          </ns3:TrackPointExtension>
        </extensions>
      </trkpt>
      <trkpt lat="43.4718498028814792633056640625" lon="1.432063914835453033447265625">
        <ele>250</ele>
        <time>2026-08-05T10:58:05.000Z</time>
        <extensions>
          <ns3:TrackPointExtension>
            <ns3:hr>68</ns3:hr>
            <ns3:cad>0</ns3:cad>
          </ns3:TrackPointExtension>
        </extensions>
      </trkpt>
      <trkpt lat="43.4718498028814792633056640625" lon="1.432063914835453033447265625">
        <ele>250</ele>
        <time>2026-08-05T10:58:06.000Z</time>
        <extensions>
          <ns3:TrackPointExtension>
            <ns3:hr>68</ns3:hr>
            <ns3:cad>0</ns3:cad>
          </ns3:TrackPointExtension>
        </extensions>
      </trkpt>
      <trkpt lat="43.4718498028814792633056640625" lon="1.432063914835453033447265625">
        <ele>250.1999969482421875</ele>
        <time>2026-08-05T10:58:07.000Z</time>
        <extensions>
          <ns3:TrackPointExtension>
            <ns3:hr>67</ns3:hr>
            <ns3:cad>0</ns3:cad>
          </ns3:TrackPointExtension>
        </extensions>
      </trkpt>
      <trkpt lat="43.4718498028814792633056640625" lon="1.432063914835453033447265625">
        <ele>250</ele>
        <time>2026-08-05T10:58:08.000Z</time>
        <extensions>
          <ns3:TrackPointExtension>
            <ns3:hr>64</ns3:hr>
            <ns3:cad>0</ns3:cad>
          </ns3:TrackPointExtension>
        </extensions>
      </trkpt>
      <trkpt lat="43.4718498028814792633056640625" lon="1.432063914835453033447265625">
        <ele>250</ele>
        <time>2026-08-05T10:58:09.000Z</time>
        <extensions>
          <ns3:TrackPointExtension>
            <ns3:hr>62</ns3:hr>
            <ns3:cad>0</ns3:cad>
          </ns3:TrackPointExtension>
        </extensions>
      </trkpt>
      <trkpt lat="43.4718498028814792633056640625" lon="1.432063914835453033447265625">
        <ele>250</ele>
        <time>2026-08-05T10:58:10.000Z</time>
        <extensions>
          <ns3:TrackPointExtension>
            <ns3:hr>61</ns3:hr>
            <ns3:cad>0</ns3:cad>
          </ns3:TrackPointExtension>
        </extensions>
      </trkpt>
      <trkpt lat="43.4718498028814792633056640625" lon="1.432063914835453033447265625">
        <ele>250</ele>
        <time>2026-08-05T10:58:11.000Z</time>
        <extensions>
          <ns3:TrackPointExtension>
            <ns3:hr>60</ns3:hr>
            <ns3:cad>0</ns3:cad>
          </ns3:TrackPointExtension>
        </extensions>
      </trkpt>
      <trkpt lat="43.4718498028814792633056640625" lon="1.432063914835453033447265625">
        <ele>250</ele>
        <time>2026-08-05T10:58:12.000Z</time>
        <extensions>
          <ns3:TrackPointExtension>
            <ns3:hr>59</ns3:hr>
            <ns3:cad>0</ns3:cad>
          </ns3:TrackPointExtension>
        </extensions>
      </trkpt>
      <trkpt lat="43.4718498028814792633056640625" lon="1.432063914835453033447265625">
        <ele>250</ele>
        <time>2026-08-05T10:58:13.000Z</time>
        <extensions>
          <ns3:TrackPointExtension>
            <ns3:hr>59</ns3:hr>
            <ns3:cad>0</ns3:cad>
          </ns3:TrackPointExtension>
        </extensions>
      </trkpt>
      <trkpt lat="43.4718498028814792633056640625" lon="1.432063914835453033447265625">
        <ele>250</ele>
        <time>2026-08-05T10:58:14.000Z</time>
        <extensions>
          <ns3:TrackPointExtension>
            <ns3:hr>59</ns3:hr>
            <ns3:cad>0</ns3:cad>
          </ns3:TrackPointExtension>
        </extensions>
      </trkpt>
      <trkpt lat="43.4718498028814792633056640625" lon="1.432063914835453033447265625">
        <ele>249.8000030517578125</ele>
        <time>2026-08-05T10:58:15.000Z</time>
        <extensions>
          <ns3:TrackPointExtension>
            <ns3:hr>59</ns3:hr>
            <ns3:cad>0</ns3:cad>
          </ns3:TrackPointExtension>
        </extensions>
      </trkpt>
      <trkpt lat="43.4718498028814792633056640625" lon="1.432063914835453033447265625">
        <ele>249.8000030517578125</ele>
        <time>2026-08-05T10:58:16.000Z</time>
        <extensions>
          <ns3:TrackPointExtension>
            <ns3:hr>59</ns3:hr>
            <ns3:cad>0</ns3:cad>
          </ns3:TrackPointExtension>
        </extensions>
      </trkpt>
      <trkpt lat="43.4718498028814792633056640625" lon="1.432063914835453033447265625">
        <ele>249.600006103515625</ele>
        <time>2026-08-05T10:58:17.000Z</time>
        <extensions>
          <ns3:TrackPointExtension>
            <ns3:hr>59</ns3:hr>
            <ns3:cad>0</ns3:cad>
          </ns3:TrackPointExtension>
        </extensions>
      </trkpt>
      <trkpt lat="43.4718498028814792633056640625" lon="1.432063914835453033447265625">
        <ele>249.600006103515625</ele>
        <time>2026-08-05T10:58:18.000Z</time>
        <extensions>
          <ns3:TrackPointExtension>
            <ns3:hr>58</ns3:hr>
            <ns3:cad>0</ns3:cad>
          </ns3:TrackPointExtension>
        </extensions>
      </trkpt>
      <trkpt lat="43.4718498028814792633056640625" lon="1.432063914835453033447265625">
        <ele>249.600006103515625</ele>
        <time>2026-08-05T10:58:19.000Z</time>
        <extensions>
          <ns3:TrackPointExtension>
            <ns3:hr>58</ns3:hr>
            <ns3:cad>0</ns3:cad>
          </ns3:TrackPointExtension>
        </extensions>
      </trkpt>
      <trkpt lat="43.4718498028814792633056640625" lon="1.432063914835453033447265625">
        <ele>249.8000030517578125</ele>
        <time>2026-08-05T10:58:20.000Z</time>
        <extensions>
          <ns3:TrackPointExtension>
            <ns3:hr>58</ns3:hr>
            <ns3:cad>0</ns3:cad>
          </ns3:TrackPointExtension>
        </extensions>
      </trkpt>
      <trkpt lat="43.4718498028814792633056640625" lon="1.432063914835453033447265625">
        <ele>249.8000030517578125</ele>
        <time>2026-08-05T10:58:21.000Z</time>
        <extensions>
          <ns3:TrackPointExtension>
            <ns3:hr>58</ns3:hr>
            <ns3:cad>0</ns3:cad>
          </ns3:TrackPointExtension>
        </extensions>
      </trkpt>
      <trkpt lat="43.4718498028814792633056640625" lon="1.432063914835453033447265625">
        <ele>249.8000030517578125</ele>
        <time>2026-08-05T10:58:22.000Z</time>
        <extensions>
          <ns3:TrackPointExtension>
            <ns3:hr>58</ns3:hr>
            <ns3:cad>0</ns3:cad>
          </ns3:TrackPointExtension>
        </extensions>
      </trkpt>
      <trkpt lat="43.4718498028814792633056640625" lon="1.432063914835453033447265625">
        <ele>250</ele>
        <time>2026-08-05T10:58:23.000Z</time>
        <extensions>
          <ns3:TrackPointExtension>
            <ns3:hr>58</ns3:hr>
            <ns3:cad>0</ns3:cad>
          </ns3:TrackPointExtension>
        </extensions>
      </trkpt>
      <trkpt lat="43.4718498028814792633056640625" lon="1.432063914835453033447265625">
        <ele>250</ele>
        <time>2026-08-05T10:58:24.000Z</time>
        <extensions>
          <ns3:TrackPointExtension>
            <ns3:hr>57</ns3:hr>
            <ns3:cad>0</ns3:cad>
          </ns3:TrackPointExtension>
        </extensions>
      </trkpt>
      <trkpt lat="43.4718498028814792633056640625" lon="1.432063914835453033447265625">
        <ele>250</ele>
        <time>2026-08-05T10:58:25.000Z</time>
        <extensions>
          <ns3:TrackPointExtension>
            <ns3:hr>57</ns3:hr>
            <ns3:cad>0</ns3:cad>
          </ns3:TrackPointExtension>
        </extensions>
      </trkpt>
      <trkpt lat="43.4718498028814792633056640625" lon="1.432063914835453033447265625">
        <ele>250</ele>
        <time>2026-08-05T10:58:26.000Z</time>
        <extensions>
          <ns3:TrackPointExtension>
            <ns3:hr>57</ns3:hr>
            <ns3:cad>0</ns3:cad>
          </ns3:TrackPointExtension>
        </extensions>
      </trkpt>
      <trkpt lat="43.4718498028814792633056640625" lon="1.432063914835453033447265625">
        <ele>250</ele>
        <time>2026-08-05T10:58:27.000Z</time>
        <extensions>
          <ns3:TrackPointExtension>
            <ns3:hr>57</ns3:hr>
            <ns3:cad>0</ns3:cad>
          </ns3:TrackPointExtension>
        </extensions>
      </trkpt>
      <trkpt lat="43.4718498028814792633056640625" lon="1.432063914835453033447265625">
        <ele>250</ele>
        <time>2026-08-05T10:58:28.000Z</time>
        <extensions>
          <ns3:TrackPointExtension>
            <ns3:hr>57</ns3:hr>
            <ns3:cad>0</ns3:cad>
          </ns3:TrackPointExtension>
        </extensions>
      </trkpt>
      <trkpt lat="43.4718498028814792633056640625" lon="1.432063914835453033447265625">
        <ele>250</ele>
        <time>2026-08-05T10:58:29.000Z</time>
        <extensions>
          <ns3:TrackPointExtension>
            <ns3:hr>57</ns3:hr>
            <ns3:cad>0</ns3:cad>
          </ns3:TrackPointExtension>
        </extensions>
      </trkpt>
      <trkpt lat="43.4718498028814792633056640625" lon="1.432063914835453033447265625">
        <ele>250</ele>
        <time>2026-08-05T10:58:30.000Z</time>
        <extensions>
          <ns3:TrackPointExtension>
            <ns3:hr>57</ns3:hr>
            <ns3:cad>0</ns3:cad>
          </ns3:TrackPointExtension>
        </extensions>
      </trkpt>
      <trkpt lat="43.4718498028814792633056640625" lon="1.432063914835453033447265625">
        <ele>250.1999969482421875</ele>
        <time>2026-08-05T10:58:31.000Z</time>
        <extensions>
          <ns3:TrackPointExtension>
            <ns3:hr>57</ns3:hr>
            <ns3:cad>0</ns3:cad>
          </ns3:TrackPointExtension>
        </extensions>
      </trkpt>
      <trkpt lat="43.4718498028814792633056640625" lon="1.432063914835453033447265625">
        <ele>250.1999969482421875</ele>
        <time>2026-08-05T10:58:32.000Z</time>
        <extensions>
          <ns3:TrackPointExtension>
            <ns3:hr>57</ns3:hr>
            <ns3:cad>0</ns3:cad>
          </ns3:TrackPointExtension>
        </extensions>
      </trkpt>
      <trkpt lat="43.4718498028814792633056640625" lon="1.432063914835453033447265625">
        <ele>250.1999969482421875</ele>
        <time>2026-08-05T10:58:33.000Z</time>
        <extensions>
          <ns3:TrackPointExtension>
            <ns3:hr>57</ns3:hr>
            <ns3:cad>0</ns3:cad>
          </ns3:TrackPointExtension>
        </extensions>
      </trkpt>
      <trkpt lat="43.4718498028814792633056640625" lon="1.432063914835453033447265625">
        <ele>250.1999969482421875</ele>
        <time>2026-08-05T10:58:34.000Z</time>
        <extensions>
          <ns3:TrackPointExtension>
            <ns3:hr>57</ns3:hr>
            <ns3:cad>0</ns3:cad>
          </ns3:TrackPointExtension>
        </extensions>
      </trkpt>
      <trkpt lat="43.4718498028814792633056640625" lon="1.432063914835453033447265625">
        <ele>250.1999969482421875</ele>
        <time>2026-08-05T10:58:35.000Z</time>
        <extensions>
          <ns3:TrackPointExtension>
            <ns3:hr>58</ns3:hr>
            <ns3:cad>0</ns3:cad>
          </ns3:TrackPointExtension>
        </extensions>
      </trkpt>
      <trkpt lat="43.4718498028814792633056640625" lon="1.432063914835453033447265625">
        <ele>250.1999969482421875</ele>
        <time>2026-08-05T10:58:36.000Z</time>
        <extensions>
          <ns3:TrackPointExtension>
            <ns3:hr>57</ns3:hr>
            <ns3:cad>0</ns3:cad>
          </ns3:TrackPointExtension>
        </extensions>
      </trkpt>
      <trkpt lat="43.4718498028814792633056640625" lon="1.432063914835453033447265625">
        <ele>250.1999969482421875</ele>
        <time>2026-08-05T10:58:37.000Z</time>
        <extensions>
          <ns3:TrackPointExtension>
            <ns3:hr>58</ns3:hr>
            <ns3:cad>0</ns3:cad>
          </ns3:TrackPointExtension>
        </extensions>
      </trkpt>
      <trkpt lat="43.4718498028814792633056640625" lon="1.432063914835453033447265625">
        <ele>250.1999969482421875</ele>
        <time>2026-08-05T10:58:38.000Z</time>
        <extensions>
          <ns3:TrackPointExtension>
            <ns3:hr>58</ns3:hr>
            <ns3:cad>0</ns3:cad>
          </ns3:TrackPointExtension>
        </extensions>
      </trkpt>
      <trkpt lat="43.4718498028814792633056640625" lon="1.432063914835453033447265625">
        <ele>250.1999969482421875</ele>
        <time>2026-08-05T10:58:39.000Z</time>
        <extensions>
          <ns3:TrackPointExtension>
            <ns3:hr>59</ns3:hr>
            <ns3:cad>0</ns3:cad>
          </ns3:TrackPointExtension>
        </extensions>
      </trkpt>
      <trkpt lat="43.4718498028814792633056640625" lon="1.432063914835453033447265625">
        <ele>250.399993896484375</ele>
        <time>2026-08-05T10:58:40.000Z</time>
        <extensions>
          <ns3:TrackPointExtension>
            <ns3:hr>60</ns3:hr>
            <ns3:cad>0</ns3:cad>
          </ns3:TrackPointExtension>
        </extensions>
      </trkpt>
      <trkpt lat="43.4718498028814792633056640625" lon="1.432063914835453033447265625">
        <ele>250.399993896484375</ele>
        <time>2026-08-05T10:58:41.000Z</time>
        <extensions>
          <ns3:TrackPointExtension>
            <ns3:hr>61</ns3:hr>
            <ns3:cad>0</ns3:cad>
          </ns3:TrackPointExtension>
        </extensions>
      </trkpt>
      <trkpt lat="43.4718498028814792633056640625" lon="1.432063914835453033447265625">
        <ele>250.399993896484375</ele>
        <time>2026-08-05T10:58:42.000Z</time>
        <extensions>
          <ns3:TrackPointExtension>
            <ns3:hr>62</ns3:hr>
            <ns3:cad>0</ns3:cad>
          </ns3:TrackPointExtension>
        </extensions>
      </trkpt>
      <trkpt lat="43.4718498028814792633056640625" lon="1.432063914835453033447265625">
        <ele>250.399993896484375</ele>
        <time>2026-08-05T10:58:43.000Z</time>
        <extensions>
          <ns3:TrackPointExtension>
            <ns3:hr>63</ns3:hr>
            <ns3:cad>0</ns3:cad>
          </ns3:TrackPointExtension>
        </extensions>
      </trkpt>
      <trkpt lat="43.4718498028814792633056640625" lon="1.432063914835453033447265625">
        <ele>250.399993896484375</ele>
        <time>2026-08-05T10:58:44.000Z</time>
        <extensions>
          <ns3:TrackPointExtension>
            <ns3:hr>63</ns3:hr>
            <ns3:cad>0</ns3:cad>
          </ns3:TrackPointExtension>
        </extensions>
      </trkpt>
      <trkpt lat="43.4718498028814792633056640625" lon="1.432063914835453033447265625">
        <ele>250.1999969482421875</ele>
        <time>2026-08-05T10:58:45.000Z</time>
        <extensions>
          <ns3:TrackPointExtension>
            <ns3:hr>63</ns3:hr>
            <ns3:cad>0</ns3:cad>
          </ns3:TrackPointExtension>
        </extensions>
      </trkpt>
      <trkpt lat="43.4718498028814792633056640625" lon="1.432063914835453033447265625">
        <ele>250.1999969482421875</ele>
        <time>2026-08-05T10:58:46.000Z</time>
        <extensions>
          <ns3:TrackPointExtension>
            <ns3:hr>63</ns3:hr>
            <ns3:cad>0</ns3:cad>
          </ns3:TrackPointExtension>
        </extensions>
      </trkpt>
      <trkpt lat="43.4718498028814792633056640625" lon="1.432063914835453033447265625">
        <ele>250.1999969482421875</ele>
        <time>2026-08-05T10:58:47.000Z</time>
        <extensions>
          <ns3:TrackPointExtension>
            <ns3:hr>62</ns3:hr>
            <ns3:cad>0</ns3:cad>
          </ns3:TrackPointExtension>
        </extensions>
      </trkpt>
      <trkpt lat="43.4718498028814792633056640625" lon="1.432063914835453033447265625">
        <ele>250.1999969482421875</ele>
        <time>2026-08-05T10:58:48.000Z</time>
        <extensions>
          <ns3:TrackPointExtension>
            <ns3:hr>62</ns3:hr>
            <ns3:cad>0</ns3:cad>
          </ns3:TrackPointExtension>
        </extensions>
      </trkpt>
      <trkpt lat="43.4718498028814792633056640625" lon="1.432063914835453033447265625">
        <ele>250.1999969482421875</ele>
        <time>2026-08-05T10:58:49.000Z</time>
        <extensions>
          <ns3:TrackPointExtension>
            <ns3:hr>62</ns3:hr>
            <ns3:cad>0</ns3:cad>
          </ns3:TrackPointExtension>
        </extensions>
      </trkpt>
      <trkpt lat="43.4718498028814792633056640625" lon="1.432063914835453033447265625">
        <ele>250.1999969482421875</ele>
        <time>2026-08-05T10:58:50.000Z</time>
        <extensions>
          <ns3:TrackPointExtension>
            <ns3:hr>61</ns3:hr>
            <ns3:cad>0</ns3:cad>
          </ns3:TrackPointExtension>
        </extensions>
      </trkpt>
      <trkpt lat="43.4718498028814792633056640625" lon="1.432063914835453033447265625">
        <ele>250.1999969482421875</ele>
        <time>2026-08-05T10:58:51.000Z</time>
        <extensions>
          <ns3:TrackPointExtension>
            <ns3:hr>60</ns3:hr>
            <ns3:cad>0</ns3:cad>
          </ns3:TrackPointExtension>
        </extensions>
      </trkpt>
      <trkpt lat="43.4718498028814792633056640625" lon="1.432063914835453033447265625">
        <ele>250.399993896484375</ele>
        <time>2026-08-05T10:58:52.000Z</time>
        <extensions>
          <ns3:TrackPointExtension>
            <ns3:hr>59</ns3:hr>
            <ns3:cad>0</ns3:cad>
          </ns3:TrackPointExtension>
        </extensions>
      </trkpt>
      <trkpt lat="43.4718498028814792633056640625" lon="1.432063914835453033447265625">
        <ele>250.399993896484375</ele>
        <time>2026-08-05T10:58:53.000Z</time>
        <extensions>
          <ns3:TrackPointExtension>
            <ns3:hr>58</ns3:hr>
            <ns3:cad>0</ns3:cad>
          </ns3:TrackPointExtension>
        </extensions>
      </trkpt>
      <trkpt lat="43.4718498028814792633056640625" lon="1.432063914835453033447265625">
        <ele>250.600006103515625</ele>
        <time>2026-08-05T10:58:54.000Z</time>
        <extensions>
          <ns3:TrackPointExtension>
            <ns3:hr>58</ns3:hr>
            <ns3:cad>0</ns3:cad>
          </ns3:TrackPointExtension>
        </extensions>
      </trkpt>
      <trkpt lat="43.4718498028814792633056640625" lon="1.432063914835453033447265625">
        <ele>250.600006103515625</ele>
        <time>2026-08-05T10:58:55.000Z</time>
        <extensions>
          <ns3:TrackPointExtension>
            <ns3:hr>57</ns3:hr>
            <ns3:cad>0</ns3:cad>
          </ns3:TrackPointExtension>
        </extensions>
      </trkpt>
      <trkpt lat="43.4718498028814792633056640625" lon="1.432063914835453033447265625">
        <ele>250.600006103515625</ele>
        <time>2026-08-05T10:58:56.000Z</time>
        <extensions>
          <ns3:TrackPointExtension>
            <ns3:hr>55</ns3:hr>
            <ns3:cad>0</ns3:cad>
          </ns3:TrackPointExtension>
        </extensions>
      </trkpt>
      <trkpt lat="43.4718498028814792633056640625" lon="1.432063914835453033447265625">
        <ele>250.600006103515625</ele>
        <time>2026-08-05T10:58:57.000Z</time>
        <extensions>
          <ns3:TrackPointExtension>
            <ns3:hr>55</ns3:hr>
            <ns3:cad>0</ns3:cad>
          </ns3:TrackPointExtension>
        </extensions>
      </trkpt>
      <trkpt lat="43.4718498028814792633056640625" lon="1.432063914835453033447265625">
        <ele>250.399993896484375</ele>
        <time>2026-08-05T10:58:58.000Z</time>
        <extensions>
          <ns3:TrackPointExtension>
            <ns3:hr>54</ns3:hr>
            <ns3:cad>0</ns3:cad>
          </ns3:TrackPointExtension>
        </extensions>
      </trkpt>
      <trkpt lat="43.4718498028814792633056640625" lon="1.432063914835453033447265625">
        <ele>250.399993896484375</ele>
        <time>2026-08-05T10:58:59.000Z</time>
        <extensions>
          <ns3:TrackPointExtension>
            <ns3:hr>55</ns3:hr>
            <ns3:cad>0</ns3:cad>
          </ns3:TrackPointExtension>
        </extensions>
      </trkpt>
      <trkpt lat="43.4718498028814792633056640625" lon="1.432063914835453033447265625">
        <ele>250.399993896484375</ele>
        <time>2026-08-05T10:59:00.000Z</time>
        <extensions>
          <ns3:TrackPointExtension>
            <ns3:hr>54</ns3:hr>
            <ns3:cad>0</ns3:cad>
          </ns3:TrackPointExtension>
        </extensions>
      </trkpt>
      <trkpt lat="43.4718498028814792633056640625" lon="1.432063914835453033447265625">
        <ele>250.600006103515625</ele>
        <time>2026-08-05T10:59:01.000Z</time>
        <extensions>
          <ns3:TrackPointExtension>
            <ns3:hr>54</ns3:hr>
            <ns3:cad>0</ns3:cad>
          </ns3:TrackPointExtension>
        </extensions>
      </trkpt>
      <trkpt lat="43.4718498028814792633056640625" lon="1.432063914835453033447265625">
        <ele>250.600006103515625</ele>
        <time>2026-08-05T10:59:02.000Z</time>
        <extensions>
          <ns3:TrackPointExtension>
            <ns3:hr>54</ns3:hr>
            <ns3:cad>0</ns3:cad>
          </ns3:TrackPointExtension>
        </extensions>
      </trkpt>
      <trkpt lat="43.4718498028814792633056640625" lon="1.432063914835453033447265625">
        <ele>250.600006103515625</ele>
        <time>2026-08-05T10:59:03.000Z</time>
        <extensions>
          <ns3:TrackPointExtension>
            <ns3:hr>55</ns3:hr>
            <ns3:cad>0</ns3:cad>
          </ns3:TrackPointExtension>
        </extensions>
      </trkpt>
      <trkpt lat="43.4718498028814792633056640625" lon="1.432063914835453033447265625">
        <ele>250.600006103515625</ele>
        <time>2026-08-05T10:59:04.000Z</time>
        <extensions>
          <ns3:TrackPointExtension>
            <ns3:hr>56</ns3:hr>
            <ns3:cad>0</ns3:cad>
          </ns3:TrackPointExtension>
        </extensions>
      </trkpt>
      <trkpt lat="43.4718498028814792633056640625" lon="1.432063914835453033447265625">
        <ele>250.600006103515625</ele>
        <time>2026-08-05T10:59:05.000Z</time>
        <extensions>
          <ns3:TrackPointExtension>
            <ns3:hr>58</ns3:hr>
            <ns3:cad>0</ns3:cad>
          </ns3:TrackPointExtension>
        </extensions>
      </trkpt>
      <trkpt lat="43.4718498028814792633056640625" lon="1.432063914835453033447265625">
        <ele>250.600006103515625</ele>
        <time>2026-08-05T10:59:06.000Z</time>
        <extensions>
          <ns3:TrackPointExtension>
            <ns3:hr>59</ns3:hr>
            <ns3:cad>0</ns3:cad>
          </ns3:TrackPointExtension>
        </extensions>
      </trkpt>
      <trkpt lat="43.4718498028814792633056640625" lon="1.432063914835453033447265625">
        <ele>250.600006103515625</ele>
        <time>2026-08-05T10:59:07.000Z</time>
        <extensions>
          <ns3:TrackPointExtension>
            <ns3:hr>60</ns3:hr>
            <ns3:cad>0</ns3:cad>
          </ns3:TrackPointExtension>
        </extensions>
      </trkpt>
      <trkpt lat="43.4718498028814792633056640625" lon="1.432063914835453033447265625">
        <ele>250.600006103515625</ele>
        <time>2026-08-05T10:59:08.000Z</time>
        <extensions>
          <ns3:TrackPointExtension>
            <ns3:hr>60</ns3:hr>
            <ns3:cad>0</ns3:cad>
          </ns3:TrackPointExtension>
        </extensions>
      </trkpt>
      <trkpt lat="43.4718498028814792633056640625" lon="1.432063914835453033447265625">
        <ele>250.600006103515625</ele>
        <time>2026-08-05T10:59:09.000Z</time>
        <extensions>
          <ns3:TrackPointExtension>
            <ns3:hr>60</ns3:hr>
            <ns3:cad>0</ns3:cad>
          </ns3:TrackPointExtension>
        </extensions>
      </trkpt>
      <trkpt lat="43.4718498028814792633056640625" lon="1.432063914835453033447265625">
        <ele>250.600006103515625</ele>
        <time>2026-08-05T10:59:10.000Z</time>
        <extensions>
          <ns3:TrackPointExtension>
            <ns3:hr>60</ns3:hr>
            <ns3:cad>0</ns3:cad>
          </ns3:TrackPointExtension>
        </extensions>
      </trkpt>
      <trkpt lat="43.4718498028814792633056640625" lon="1.432063914835453033447265625">
        <ele>250.600006103515625</ele>
        <time>2026-08-05T10:59:11.000Z</time>
        <extensions>
          <ns3:TrackPointExtension>
            <ns3:hr>60</ns3:hr>
            <ns3:cad>0</ns3:cad>
          </ns3:TrackPointExtension>
        </extensions>
      </trkpt>
      <trkpt lat="43.4718498028814792633056640625" lon="1.432063914835453033447265625">
        <ele>250.399993896484375</ele>
        <time>2026-08-05T10:59:12.000Z</time>
        <extensions>
          <ns3:TrackPointExtension>
            <ns3:hr>61</ns3:hr>
            <ns3:cad>0</ns3:cad>
          </ns3:TrackPointExtension>
        </extensions>
      </trkpt>
      <trkpt lat="43.4718498028814792633056640625" lon="1.432063914835453033447265625">
        <ele>250.399993896484375</ele>
        <time>2026-08-05T10:59:13.000Z</time>
        <extensions>
          <ns3:TrackPointExtension>
            <ns3:hr>62</ns3:hr>
            <ns3:cad>0</ns3:cad>
          </ns3:TrackPointExtension>
        </extensions>
      </trkpt>
      <trkpt lat="43.4718498028814792633056640625" lon="1.432063914835453033447265625">
        <ele>250.399993896484375</ele>
        <time>2026-08-05T10:59:14.000Z</time>
        <extensions>
          <ns3:TrackPointExtension>
            <ns3:hr>62</ns3:hr>
            <ns3:cad>0</ns3:cad>
          </ns3:TrackPointExtension>
        </extensions>
      </trkpt>
      <trkpt lat="43.4718498028814792633056640625" lon="1.432063914835453033447265625">
        <ele>250.399993896484375</ele>
        <time>2026-08-05T10:59:15.000Z</time>
        <extensions>
          <ns3:TrackPointExtension>
            <ns3:hr>63</ns3:hr>
            <ns3:cad>0</ns3:cad>
          </ns3:TrackPointExtension>
        </extensions>
      </trkpt>
      <trkpt lat="43.4718498028814792633056640625" lon="1.432063914835453033447265625">
        <ele>250.600006103515625</ele>
        <time>2026-08-05T10:59:16.000Z</time>
        <extensions>
          <ns3:TrackPointExtension>
            <ns3:hr>63</ns3:hr>
            <ns3:cad>0</ns3:cad>
          </ns3:TrackPointExtension>
        </extensions>
      </trkpt>
      <trkpt lat="43.4718498028814792633056640625" lon="1.432063914835453033447265625">
        <ele>250.600006103515625</ele>
        <time>2026-08-05T10:59:17.000Z</time>
        <extensions>
          <ns3:TrackPointExtension>
            <ns3:hr>64</ns3:hr>
            <ns3:cad>0</ns3:cad>
          </ns3:TrackPointExtension>
        </extensions>
      </trkpt>
      <trkpt lat="43.4718498028814792633056640625" lon="1.432063914835453033447265625">
        <ele>250.600006103515625</ele>
        <time>2026-08-05T10:59:18.000Z</time>
        <extensions>
          <ns3:TrackPointExtension>
            <ns3:hr>65</ns3:hr>
            <ns3:cad>0</ns3:cad>
          </ns3:TrackPointExtension>
        </extensions>
      </trkpt>
      <trkpt lat="43.4718498028814792633056640625" lon="1.432063914835453033447265625">
        <ele>250.600006103515625</ele>
        <time>2026-08-05T10:59:19.000Z</time>
        <extensions>
          <ns3:TrackPointExtension>
            <ns3:hr>66</ns3:hr>
            <ns3:cad>0</ns3:cad>
          </ns3:TrackPointExtension>
        </extensions>
      </trkpt>
      <trkpt lat="43.4718498028814792633056640625" lon="1.432063914835453033447265625">
        <ele>250.600006103515625</ele>
        <time>2026-08-05T10:59:20.000Z</time>
        <extensions>
          <ns3:TrackPointExtension>
            <ns3:hr>67</ns3:hr>
            <ns3:cad>0</ns3:cad>
          </ns3:TrackPointExtension>
        </extensions>
      </trkpt>
      <trkpt lat="43.4718498028814792633056640625" lon="1.432063914835453033447265625">
        <ele>250.600006103515625</ele>
        <time>2026-08-05T10:59:21.000Z</time>
        <extensions>
          <ns3:TrackPointExtension>
            <ns3:hr>67</ns3:hr>
            <ns3:cad>0</ns3:cad>
          </ns3:TrackPointExtension>
        </extensions>
      </trkpt>
      <trkpt lat="43.4718498028814792633056640625" lon="1.432063914835453033447265625">
        <ele>250.600006103515625</ele>
        <time>2026-08-05T10:59:22.000Z</time>
        <extensions>
          <ns3:TrackPointExtension>
            <ns3:hr>67</ns3:hr>
            <ns3:cad>0</ns3:cad>
          </ns3:TrackPointExtension>
        </extensions>
      </trkpt>
      <trkpt lat="43.4718498028814792633056640625" lon="1.432063914835453033447265625">
        <ele>250.600006103515625</ele>
        <time>2026-08-05T10:59:23.000Z</time>
        <extensions>
          <ns3:TrackPointExtension>
            <ns3:hr>66</ns3:hr>
            <ns3:cad>0</ns3:cad>
          </ns3:TrackPointExtension>
        </extensions>
      </trkpt>
      <trkpt lat="43.4718498028814792633056640625" lon="1.432063914835453033447265625">
        <ele>250.399993896484375</ele>
        <time>2026-08-05T10:59:24.000Z</time>
        <extensions>
          <ns3:TrackPointExtension>
            <ns3:hr>66</ns3:hr>
            <ns3:cad>0</ns3:cad>
          </ns3:TrackPointExtension>
        </extensions>
      </trkpt>
      <trkpt lat="43.4718498028814792633056640625" lon="1.432063914835453033447265625">
        <ele>250.399993896484375</ele>
        <time>2026-08-05T10:59:25.000Z</time>
        <extensions>
          <ns3:TrackPointExtension>
            <ns3:hr>63</ns3:hr>
            <ns3:cad>0</ns3:cad>
          </ns3:TrackPointExtension>
        </extensions>
      </trkpt>
      <trkpt lat="43.4718498028814792633056640625" lon="1.432063914835453033447265625">
        <ele>250.600006103515625</ele>
        <time>2026-08-05T10:59:26.000Z</time>
        <extensions>
          <ns3:TrackPointExtension>
            <ns3:hr>61</ns3:hr>
            <ns3:cad>0</ns3:cad>
          </ns3:TrackPointExtension>
        </extensions>
      </trkpt>
      <trkpt lat="43.4718498028814792633056640625" lon="1.432063914835453033447265625">
        <ele>250.600006103515625</ele>
        <time>2026-08-05T10:59:27.000Z</time>
        <extensions>
          <ns3:TrackPointExtension>
            <ns3:hr>61</ns3:hr>
            <ns3:cad>0</ns3:cad>
          </ns3:TrackPointExtension>
        </extensions>
      </trkpt>
      <trkpt lat="43.4718498028814792633056640625" lon="1.432063914835453033447265625">
        <ele>250.600006103515625</ele>
        <time>2026-08-05T10:59:28.000Z</time>
        <extensions>
          <ns3:TrackPointExtension>
            <ns3:hr>61</ns3:hr>
            <ns3:cad>0</ns3:cad>
          </ns3:TrackPointExtension>
        </extensions>
      </trkpt>
      <trkpt lat="43.4718498028814792633056640625" lon="1.432063914835453033447265625">
        <ele>250.600006103515625</ele>
        <time>2026-08-05T10:59:29.000Z</time>
        <extensions>
          <ns3:TrackPointExtension>
            <ns3:hr>61</ns3:hr>
            <ns3:cad>0</ns3:cad>
          </ns3:TrackPointExtension>
        </extensions>
      </trkpt>
      <trkpt lat="43.4718498028814792633056640625" lon="1.432063914835453033447265625">
        <ele>250.600006103515625</ele>
        <time>2026-08-05T10:59:30.000Z</time>
        <extensions>
          <ns3:TrackPointExtension>
            <ns3:hr>62</ns3:hr>
            <ns3:cad>0</ns3:cad>
          </ns3:TrackPointExtension>
        </extensions>
      </trkpt>
      <trkpt lat="43.4718498028814792633056640625" lon="1.432063914835453033447265625">
        <ele>250.399993896484375</ele>
        <time>2026-08-05T10:59:31.000Z</time>
        <extensions>
          <ns3:TrackPointExtension>
            <ns3:hr>62</ns3:hr>
            <ns3:cad>0</ns3:cad>
          </ns3:TrackPointExtension>
        </extensions>
      </trkpt>
      <trkpt lat="43.4718498028814792633056640625" lon="1.432063914835453033447265625">
        <ele>250.399993896484375</ele>
        <time>2026-08-05T10:59:32.000Z</time>
        <extensions>
          <ns3:TrackPointExtension>
            <ns3:hr>63</ns3:hr>
            <ns3:cad>0</ns3:cad>
          </ns3:TrackPointExtension>
        </extensions>
      </trkpt>
      <trkpt lat="43.4718498028814792633056640625" lon="1.432063914835453033447265625">
        <ele>250.399993896484375</ele>
        <time>2026-08-05T10:59:33.000Z</time>
        <extensions>
          <ns3:TrackPointExtension>
            <ns3:hr>63</ns3:hr>
            <ns3:cad>0</ns3:cad>
          </ns3:TrackPointExtension>
        </extensions>
      </trkpt>
      <trkpt lat="43.4718498028814792633056640625" lon="1.432063914835453033447265625">
        <ele>250.399993896484375</ele>
        <time>2026-08-05T10:59:34.000Z</time>
        <extensions>
          <ns3:TrackPointExtension>
            <ns3:hr>64</ns3:hr>
            <ns3:cad>0</ns3:cad>
          </ns3:TrackPointExtension>
        </extensions>
      </trkpt>
      <trkpt lat="43.4718498028814792633056640625" lon="1.432063914835453033447265625">
        <ele>250.1999969482421875</ele>
        <time>2026-08-05T10:59:35.000Z</time>
        <extensions>
          <ns3:TrackPointExtension>
            <ns3:hr>65</ns3:hr>
            <ns3:cad>0</ns3:cad>
          </ns3:TrackPointExtension>
        </extensions>
      </trkpt>
      <trkpt lat="43.4718498028814792633056640625" lon="1.432063914835453033447265625">
        <ele>250.1999969482421875</ele>
        <time>2026-08-05T10:59:36.000Z</time>
        <extensions>
          <ns3:TrackPointExtension>
            <ns3:hr>65</ns3:hr>
            <ns3:cad>0</ns3:cad>
          </ns3:TrackPointExtension>
        </extensions>
      </trkpt>
      <trkpt lat="43.4718498028814792633056640625" lon="1.432063914835453033447265625">
        <ele>250.1999969482421875</ele>
        <time>2026-08-05T10:59:37.000Z</time>
        <extensions>
          <ns3:TrackPointExtension>
            <ns3:hr>65</ns3:hr>
            <ns3:cad>0</ns3:cad>
          </ns3:TrackPointExtension>
        </extensions>
      </trkpt>
      <trkpt lat="43.4718498028814792633056640625" lon="1.432063914835453033447265625">
        <ele>250.1999969482421875</ele>
        <time>2026-08-05T10:59:38.000Z</time>
        <extensions>
          <ns3:TrackPointExtension>
            <ns3:hr>64</ns3:hr>
            <ns3:cad>0</ns3:cad>
          </ns3:TrackPointExtension>
        </extensions>
      </trkpt>
      <trkpt lat="43.4718498028814792633056640625" lon="1.432063914835453033447265625">
        <ele>250.1999969482421875</ele>
        <time>2026-08-05T10:59:39.000Z</time>
        <extensions>
          <ns3:TrackPointExtension>
            <ns3:hr>64</ns3:hr>
            <ns3:cad>0</ns3:cad>
          </ns3:TrackPointExtension>
        </extensions>
      </trkpt>
      <trkpt lat="43.4718498028814792633056640625" lon="1.432063914835453033447265625">
        <ele>250.399993896484375</ele>
        <time>2026-08-05T10:59:40.000Z</time>
        <extensions>
          <ns3:TrackPointExtension>
            <ns3:hr>64</ns3:hr>
            <ns3:cad>0</ns3:cad>
          </ns3:TrackPointExtension>
        </extensions>
      </trkpt>
      <trkpt lat="43.4718498028814792633056640625" lon="1.432063914835453033447265625">
        <ele>250.399993896484375</ele>
        <time>2026-08-05T10:59:41.000Z</time>
        <extensions>
          <ns3:TrackPointExtension>
            <ns3:hr>62</ns3:hr>
            <ns3:cad>0</ns3:cad>
          </ns3:TrackPointExtension>
        </extensions>
      </trkpt>
      <trkpt lat="43.4718498028814792633056640625" lon="1.432063914835453033447265625">
        <ele>250.399993896484375</ele>
        <time>2026-08-05T10:59:42.000Z</time>
        <extensions>
          <ns3:TrackPointExtension>
            <ns3:hr>61</ns3:hr>
            <ns3:cad>0</ns3:cad>
          </ns3:TrackPointExtension>
        </extensions>
      </trkpt>
      <trkpt lat="43.4718498028814792633056640625" lon="1.432063914835453033447265625">
        <ele>250.399993896484375</ele>
        <time>2026-08-05T10:59:43.000Z</time>
        <extensions>
          <ns3:TrackPointExtension>
            <ns3:hr>59</ns3:hr>
            <ns3:cad>0</ns3:cad>
          </ns3:TrackPointExtension>
        </extensions>
      </trkpt>
      <trkpt lat="43.4718498028814792633056640625" lon="1.432063914835453033447265625">
        <ele>250.399993896484375</ele>
        <time>2026-08-05T10:59:44.000Z</time>
        <extensions>
          <ns3:TrackPointExtension>
            <ns3:hr>57</ns3:hr>
            <ns3:cad>0</ns3:cad>
          </ns3:TrackPointExtension>
        </extensions>
      </trkpt>
      <trkpt lat="43.4718498028814792633056640625" lon="1.432063914835453033447265625">
        <ele>250.399993896484375</ele>
        <time>2026-08-05T10:59:45.000Z</time>
        <extensions>
          <ns3:TrackPointExtension>
            <ns3:hr>55</ns3:hr>
            <ns3:cad>0</ns3:cad>
          </ns3:TrackPointExtension>
        </extensions>
      </trkpt>
      <trkpt lat="43.4718498028814792633056640625" lon="1.432063914835453033447265625">
        <ele>250.399993896484375</ele>
        <time>2026-08-05T10:59:46.000Z</time>
        <extensions>
          <ns3:TrackPointExtension>
            <ns3:hr>55</ns3:hr>
            <ns3:cad>0</ns3:cad>
          </ns3:TrackPointExtension>
        </extensions>
      </trkpt>
      <trkpt lat="43.4718498028814792633056640625" lon="1.432063914835453033447265625">
        <ele>250.399993896484375</ele>
        <time>2026-08-05T10:59:47.000Z</time>
        <extensions>
          <ns3:TrackPointExtension>
            <ns3:hr>55</ns3:hr>
            <ns3:cad>0</ns3:cad>
          </ns3:TrackPointExtension>
        </extensions>
      </trkpt>
      <trkpt lat="43.4718498028814792633056640625" lon="1.432063914835453033447265625">
        <ele>250.399993896484375</ele>
        <time>2026-08-05T10:59:48.000Z</time>
        <extensions>
          <ns3:TrackPointExtension>
            <ns3:hr>55</ns3:hr>
            <ns3:cad>0</ns3:cad>
          </ns3:TrackPointExtension>
        </extensions>
      </trkpt>
      <trkpt lat="43.4718498028814792633056640625" lon="1.432063914835453033447265625">
        <ele>250.399993896484375</ele>
        <time>2026-08-05T10:59:49.000Z</time>
        <extensions>
          <ns3:TrackPointExtension>
            <ns3:hr>55</ns3:hr>
            <ns3:cad>0</ns3:cad>
          </ns3:TrackPointExtension>
        </extensions>
      </trkpt>
      <trkpt lat="43.4718498028814792633056640625" lon="1.432063914835453033447265625">
        <ele>250.399993896484375</ele>
        <time>2026-08-05T10:59:50.000Z</time>
        <extensions>
          <ns3:TrackPointExtension>
            <ns3:hr>55</ns3:hr>
            <ns3:cad>0</ns3:cad>
          </ns3:TrackPointExtension>
        </extensions>
      </trkpt>
      <trkpt lat="43.4718498028814792633056640625" lon="1.432063914835453033447265625">
        <ele>250.399993896484375</ele>
        <time>2026-08-05T10:59:51.000Z</time>
        <extensions>
          <ns3:TrackPointExtension>
            <ns3:hr>55</ns3:hr>
            <ns3:cad>0</ns3:cad>
          </ns3:TrackPointExtension>
        </extensions>
      </trkpt>
      <trkpt lat="43.4718498028814792633056640625" lon="1.432063914835453033447265625">
        <ele>250.1999969482421875</ele>
        <time>2026-08-05T10:59:52.000Z</time>
        <extensions>
          <ns3:TrackPointExtension>
            <ns3:hr>56</ns3:hr>
            <ns3:cad>0</ns3:cad>
          </ns3:TrackPointExtension>
        </extensions>
      </trkpt>
      <trkpt lat="43.4718498028814792633056640625" lon="1.432063914835453033447265625">
        <ele>250.1999969482421875</ele>
        <time>2026-08-05T10:59:53.000Z</time>
        <extensions>
          <ns3:TrackPointExtension>
            <ns3:hr>55</ns3:hr>
            <ns3:cad>0</ns3:cad>
          </ns3:TrackPointExtension>
        </extensions>
      </trkpt>
      <trkpt lat="43.4718498028814792633056640625" lon="1.432063914835453033447265625">
        <ele>250.1999969482421875</ele>
        <time>2026-08-05T10:59:54.000Z</time>
        <extensions>
          <ns3:TrackPointExtension>
            <ns3:hr>55</ns3:hr>
            <ns3:cad>0</ns3:cad>
          </ns3:TrackPointExtension>
        </extensions>
      </trkpt>
      <trkpt lat="43.4718498028814792633056640625" lon="1.432063914835453033447265625">
        <ele>250.1999969482421875</ele>
        <time>2026-08-05T10:59:55.000Z</time>
        <extensions>
          <ns3:TrackPointExtension>
            <ns3:hr>56</ns3:hr>
            <ns3:cad>0</ns3:cad>
          </ns3:TrackPointExtension>
        </extensions>
      </trkpt>
      <trkpt lat="43.4718498028814792633056640625" lon="1.432063914835453033447265625">
        <ele>250.1999969482421875</ele>
        <time>2026-08-05T10:59:56.000Z</time>
        <extensions>
          <ns3:TrackPointExtension>
            <ns3:hr>55</ns3:hr>
            <ns3:cad>0</ns3:cad>
          </ns3:TrackPointExtension>
        </extensions>
      </trkpt>
      <trkpt lat="43.47184586338698863983154296875" lon="1.43205494619905948638916015625">
        <ele>250.1999969482421875</ele>
        <time>2026-08-05T10:59:57.000Z</time>
        <extensions>
          <ns3:TrackPointExtension>
            <ns3:hr>55</ns3:hr>
            <ns3:cad>0</ns3:cad>
          </ns3:TrackPointExtension>
        </extensions>
      </trkpt>
      <trkpt lat="43.4718498028814792633056640625" lon="1.432063914835453033447265625">
        <ele>250.1999969482421875</ele>
        <time>2026-08-05T10:59:58.000Z</time>
        <extensions>
          <ns3:TrackPointExtension>
            <ns3:hr>55</ns3:hr>
            <ns3:cad>0</ns3:cad>
          </ns3:TrackPointExtension>
        </extensions>
      </trkpt>
      <trkpt lat="43.4718498028814792633056640625" lon="1.432063914835453033447265625">
        <ele>250</ele>
        <time>2026-08-05T10:59:59.000Z</time>
        <extensions>
          <ns3:TrackPointExtension>
            <ns3:hr>56</ns3:hr>
            <ns3:cad>0</ns3:cad>
          </ns3:TrackPointExtension>
        </extensions>
      </trkpt>
      <trkpt lat="43.4718498028814792633056640625" lon="1.432063914835453033447265625">
        <ele>250</ele>
        <time>2026-08-05T11:00:00.000Z</time>
        <extensions>
          <ns3:TrackPointExtension>
            <ns3:hr>57</ns3:hr>
            <ns3:cad>0</ns3:cad>
          </ns3:TrackPointExtension>
        </extensions>
      </trkpt>
      <trkpt lat="43.4718498028814792633056640625" lon="1.432063914835453033447265625">
        <ele>250</ele>
        <time>2026-08-05T11:00:01.000Z</time>
        <extensions>
          <ns3:TrackPointExtension>
            <ns3:hr>58</ns3:hr>
            <ns3:cad>0</ns3:cad>
          </ns3:TrackPointExtension>
        </extensions>
      </trkpt>
      <trkpt lat="43.4718498028814792633056640625" lon="1.432063914835453033447265625">
        <ele>249.8000030517578125</ele>
        <time>2026-08-05T11:00:02.000Z</time>
        <extensions>
          <ns3:TrackPointExtension>
            <ns3:hr>59</ns3:hr>
            <ns3:cad>0</ns3:cad>
          </ns3:TrackPointExtension>
        </extensions>
      </trkpt>
      <trkpt lat="43.4718498028814792633056640625" lon="1.432063914835453033447265625">
        <ele>249.8000030517578125</ele>
        <time>2026-08-05T11:00:03.000Z</time>
        <extensions>
          <ns3:TrackPointExtension>
            <ns3:hr>59</ns3:hr>
            <ns3:cad>0</ns3:cad>
          </ns3:TrackPointExtension>
        </extensions>
      </trkpt>
      <trkpt lat="43.4718498028814792633056640625" lon="1.432063914835453033447265625">
        <ele>249.8000030517578125</ele>
        <time>2026-08-05T11:00:04.000Z</time>
        <extensions>
          <ns3:TrackPointExtension>
            <ns3:hr>59</ns3:hr>
            <ns3:cad>0</ns3:cad>
          </ns3:TrackPointExtension>
        </extensions>
      </trkpt>
      <trkpt lat="43.4718498028814792633056640625" lon="1.432063914835453033447265625">
        <ele>249.8000030517578125</ele>
        <time>2026-08-05T11:00:05.000Z</time>
        <extensions>
          <ns3:TrackPointExtension>
            <ns3:hr>60</ns3:hr>
            <ns3:cad>0</ns3:cad>
          </ns3:TrackPointExtension>
        </extensions>
      </trkpt>
      <trkpt lat="43.4718498028814792633056640625" lon="1.432063914835453033447265625">
        <ele>249.600006103515625</ele>
        <time>2026-08-05T11:00:06.000Z</time>
        <extensions>
          <ns3:TrackPointExtension>
            <ns3:hr>61</ns3:hr>
            <ns3:cad>0</ns3:cad>
          </ns3:TrackPointExtension>
        </extensions>
      </trkpt>
      <trkpt lat="43.4718498028814792633056640625" lon="1.432063914835453033447265625">
        <ele>249.600006103515625</ele>
        <time>2026-08-05T11:00:07.000Z</time>
        <extensions>
          <ns3:TrackPointExtension>
            <ns3:hr>61</ns3:hr>
            <ns3:cad>0</ns3:cad>
          </ns3:TrackPointExtension>
        </extensions>
      </trkpt>
      <trkpt lat="43.4718498028814792633056640625" lon="1.432063914835453033447265625">
        <ele>249.600006103515625</ele>
        <time>2026-08-05T11:00:08.000Z</time>
        <extensions>
          <ns3:TrackPointExtension>
            <ns3:hr>61</ns3:hr>
            <ns3:cad>0</ns3:cad>
          </ns3:TrackPointExtension>
        </extensions>
      </trkpt>
      <trkpt lat="43.4718498028814792633056640625" lon="1.432063914835453033447265625">
        <ele>249.600006103515625</ele>
        <time>2026-08-05T11:00:09.000Z</time>
        <extensions>
          <ns3:TrackPointExtension>
            <ns3:hr>62</ns3:hr>
            <ns3:cad>0</ns3:cad>
          </ns3:TrackPointExtension>
        </extensions>
      </trkpt>
      <trkpt lat="43.4718498028814792633056640625" lon="1.432063914835453033447265625">
        <ele>249.8000030517578125</ele>
        <time>2026-08-05T11:00:10.000Z</time>
        <extensions>
          <ns3:TrackPointExtension>
            <ns3:hr>63</ns3:hr>
            <ns3:cad>0</ns3:cad>
          </ns3:TrackPointExtension>
        </extensions>
      </trkpt>
      <trkpt lat="43.4718498028814792633056640625" lon="1.432063914835453033447265625">
        <ele>249.8000030517578125</ele>
        <time>2026-08-05T11:00:11.000Z</time>
        <extensions>
          <ns3:TrackPointExtension>
            <ns3:hr>63</ns3:hr>
            <ns3:cad>0</ns3:cad>
          </ns3:TrackPointExtension>
        </extensions>
      </trkpt>
      <trkpt lat="43.4718498028814792633056640625" lon="1.432063914835453033447265625">
        <ele>249.8000030517578125</ele>
        <time>2026-08-05T11:00:12.000Z</time>
        <extensions>
          <ns3:TrackPointExtension>
            <ns3:hr>63</ns3:hr>
            <ns3:cad>0</ns3:cad>
          </ns3:TrackPointExtension>
        </extensions>
      </trkpt>
      <trkpt lat="43.4718498028814792633056640625" lon="1.432063914835453033447265625">
        <ele>249.8000030517578125</ele>
        <time>2026-08-05T11:00:13.000Z</time>
        <extensions>
          <ns3:TrackPointExtension>
            <ns3:hr>63</ns3:hr>
            <ns3:cad>0</ns3:cad>
          </ns3:TrackPointExtension>
        </extensions>
      </trkpt>
      <trkpt lat="43.4718498028814792633056640625" lon="1.432063914835453033447265625">
        <ele>249.8000030517578125</ele>
        <time>2026-08-05T11:00:14.000Z</time>
        <extensions>
          <ns3:TrackPointExtension>
            <ns3:hr>63</ns3:hr>
            <ns3:cad>0</ns3:cad>
          </ns3:TrackPointExtension>
        </extensions>
      </trkpt>
      <trkpt lat="43.4718498028814792633056640625" lon="1.432063914835453033447265625">
        <ele>249.8000030517578125</ele>
        <time>2026-08-05T11:00:15.000Z</time>
        <extensions>
          <ns3:TrackPointExtension>
            <ns3:hr>63</ns3:hr>
            <ns3:cad>0</ns3:cad>
          </ns3:TrackPointExtension>
        </extensions>
      </trkpt>
      <trkpt lat="43.4718498028814792633056640625" lon="1.432063914835453033447265625">
        <ele>250</ele>
        <time>2026-08-05T11:00:16.000Z</time>
        <extensions>
          <ns3:TrackPointExtension>
            <ns3:hr>62</ns3:hr>
            <ns3:cad>0</ns3:cad>
          </ns3:TrackPointExtension>
        </extensions>
      </trkpt>
      <trkpt lat="43.4718498028814792633056640625" lon="1.432063914835453033447265625">
        <ele>250</ele>
        <time>2026-08-05T11:00:17.000Z</time>
        <extensions>
          <ns3:TrackPointExtension>
            <ns3:hr>61</ns3:hr>
            <ns3:cad>0</ns3:cad>
          </ns3:TrackPointExtension>
        </extensions>
      </trkpt>
      <trkpt lat="43.4718498028814792633056640625" lon="1.432063914835453033447265625">
        <ele>250</ele>
        <time>2026-08-05T11:00:18.000Z</time>
        <extensions>
          <ns3:TrackPointExtension>
            <ns3:hr>60</ns3:hr>
            <ns3:cad>0</ns3:cad>
          </ns3:TrackPointExtension>
        </extensions>
      </trkpt>
      <trkpt lat="43.4718498028814792633056640625" lon="1.432063914835453033447265625">
        <ele>250</ele>
        <time>2026-08-05T11:00:19.000Z</time>
        <extensions>
          <ns3:TrackPointExtension>
            <ns3:hr>59</ns3:hr>
            <ns3:cad>0</ns3:cad>
          </ns3:TrackPointExtension>
        </extensions>
      </trkpt>
      <trkpt lat="43.4718498028814792633056640625" lon="1.432063914835453033447265625">
        <ele>250</ele>
        <time>2026-08-05T11:00:20.000Z</time>
        <extensions>
          <ns3:TrackPointExtension>
            <ns3:hr>58</ns3:hr>
            <ns3:cad>0</ns3:cad>
          </ns3:TrackPointExtension>
        </extensions>
      </trkpt>
      <trkpt lat="43.4718498028814792633056640625" lon="1.432063914835453033447265625">
        <ele>250</ele>
        <time>2026-08-05T11:00:21.000Z</time>
        <extensions>
          <ns3:TrackPointExtension>
            <ns3:hr>58</ns3:hr>
            <ns3:cad>0</ns3:cad>
          </ns3:TrackPointExtension>
        </extensions>
      </trkpt>
      <trkpt lat="43.4718498028814792633056640625" lon="1.432063914835453033447265625">
        <ele>250.1999969482421875</ele>
        <time>2026-08-05T11:00:22.000Z</time>
        <extensions>
          <ns3:TrackPointExtension>
            <ns3:hr>58</ns3:hr>
            <ns3:cad>0</ns3:cad>
          </ns3:TrackPointExtension>
        </extensions>
      </trkpt>
      <trkpt lat="43.4718498028814792633056640625" lon="1.432063914835453033447265625">
        <ele>250.1999969482421875</ele>
        <time>2026-08-05T11:00:23.000Z</time>
        <extensions>
          <ns3:TrackPointExtension>
            <ns3:hr>58</ns3:hr>
            <ns3:cad>0</ns3:cad>
          </ns3:TrackPointExtension>
        </extensions>
      </trkpt>
      <trkpt lat="43.47184686921536922454833984375" lon="1.43205444328486919403076171875">
        <ele>250.600006103515625</ele>
        <time>2026-08-05T11:00:24.000Z</time>
        <extensions>
          <ns3:TrackPointExtension>
            <ns3:hr>58</ns3:hr>
            <ns3:cad>0</ns3:cad>
          </ns3:TrackPointExtension>
        </extensions>
      </trkpt>
      <trkpt lat="43.471845276653766632080078125" lon="1.43206366337835788726806640625">
        <ele>250.8000030517578125</ele>
        <time>2026-08-05T11:00:25.000Z</time>
        <extensions>
          <ns3:TrackPointExtension>
            <ns3:hr>57</ns3:hr>
            <ns3:cad>0</ns3:cad>
          </ns3:TrackPointExtension>
        </extensions>
      </trkpt>
      <trkpt lat="43.471847288310527801513671875" lon="1.43205913715064525604248046875">
        <ele>251</ele>
        <time>2026-08-05T11:00:26.000Z</time>
        <extensions>
          <ns3:TrackPointExtension>
            <ns3:hr>57</ns3:hr>
            <ns3:cad>0</ns3:cad>
          </ns3:TrackPointExtension>
        </extensions>
      </trkpt>
      <trkpt lat="43.4718498028814792633056640625" lon="1.432063914835453033447265625">
        <ele>251.1999969482421875</ele>
        <time>2026-08-05T11:00:27.000Z</time>
        <extensions>
          <ns3:TrackPointExtension>
            <ns3:hr>57</ns3:hr>
            <ns3:cad>0</ns3:cad>
          </ns3:TrackPointExtension>
        </extensions>
      </trkpt>
      <trkpt lat="43.4718498028814792633056640625" lon="1.432063914835453033447265625">
        <ele>251.399993896484375</ele>
        <time>2026-08-05T11:00:28.000Z</time>
        <extensions>
          <ns3:TrackPointExtension>
            <ns3:hr>57</ns3:hr>
            <ns3:cad>0</ns3:cad>
          </ns3:TrackPointExtension>
        </extensions>
      </trkpt>
      <trkpt lat="43.4718498028814792633056640625" lon="1.432063914835453033447265625">
        <ele>251.600006103515625</ele>
        <time>2026-08-05T11:00:29.000Z</time>
        <extensions>
          <ns3:TrackPointExtension>
            <ns3:hr>57</ns3:hr>
            <ns3:cad>0</ns3:cad>
          </ns3:TrackPointExtension>
        </extensions>
      </trkpt>
      <trkpt lat="43.471846282482147216796875" lon="1.43206332810223102569580078125">
        <ele>251.600006103515625</ele>
        <time>2026-08-05T11:00:30.000Z</time>
        <extensions>
          <ns3:TrackPointExtension>
            <ns3:hr>58</ns3:hr>
            <ns3:cad>0</ns3:cad>
          </ns3:TrackPointExtension>
        </extensions>
      </trkpt>
      <trkpt lat="43.4718498028814792633056640625" lon="1.432063914835453033447265625">
        <ele>251.600006103515625</ele>
        <time>2026-08-05T11:00:31.000Z</time>
        <extensions>
          <ns3:TrackPointExtension>
            <ns3:hr>57</ns3:hr>
            <ns3:cad>0</ns3:cad>
          </ns3:TrackPointExtension>
        </extensions>
      </trkpt>
      <trkpt lat="43.4718498028814792633056640625" lon="1.432063914835453033447265625">
        <ele>251.600006103515625</ele>
        <time>2026-08-05T11:00:32.000Z</time>
        <extensions>
          <ns3:TrackPointExtension>
            <ns3:hr>57</ns3:hr>
            <ns3:cad>0</ns3:cad>
          </ns3:TrackPointExtension>
        </extensions>
      </trkpt>
      <trkpt lat="43.47184385173022747039794921875" lon="1.4320704527199268341064453125">
        <ele>251.399993896484375</ele>
        <time>2026-08-05T11:00:33.000Z</time>
        <extensions>
          <ns3:TrackPointExtension>
            <ns3:hr>57</ns3:hr>
            <ns3:cad>0</ns3:cad>
          </ns3:TrackPointExtension>
        </extensions>
      </trkpt>
      <trkpt lat="43.4718498028814792633056640625" lon="1.432063914835453033447265625">
        <ele>251.399993896484375</ele>
        <time>2026-08-05T11:00:34.000Z</time>
        <extensions>
          <ns3:TrackPointExtension>
            <ns3:hr>58</ns3:hr>
            <ns3:cad>0</ns3:cad>
          </ns3:TrackPointExtension>
        </extensions>
      </trkpt>
      <trkpt lat="43.4718498028814792633056640625" lon="1.432063914835453033447265625">
        <ele>251.1999969482421875</ele>
        <time>2026-08-05T11:00:35.000Z</time>
        <extensions>
          <ns3:TrackPointExtension>
            <ns3:hr>58</ns3:hr>
            <ns3:cad>0</ns3:cad>
          </ns3:TrackPointExtension>
        </extensions>
      </trkpt>
      <trkpt lat="43.4718498028814792633056640625" lon="1.432063914835453033447265625">
        <ele>251.1999969482421875</ele>
        <time>2026-08-05T11:00:36.000Z</time>
        <extensions>
          <ns3:TrackPointExtension>
            <ns3:hr>58</ns3:hr>
            <ns3:cad>0</ns3:cad>
          </ns3:TrackPointExtension>
        </extensions>
      </trkpt>
      <trkpt lat="43.4718498028814792633056640625" lon="1.432063914835453033447265625">
        <ele>251</ele>
        <time>2026-08-05T11:00:37.000Z</time>
        <extensions>
          <ns3:TrackPointExtension>
            <ns3:hr>58</ns3:hr>
            <ns3:cad>0</ns3:cad>
          </ns3:TrackPointExtension>
        </extensions>
      </trkpt>
      <trkpt lat="43.4718498028814792633056640625" lon="1.432063914835453033447265625">
        <ele>251</ele>
        <time>2026-08-05T11:00:38.000Z</time>
        <extensions>
          <ns3:TrackPointExtension>
            <ns3:hr>58</ns3:hr>
            <ns3:cad>0</ns3:cad>
          </ns3:TrackPointExtension>
        </extensions>
      </trkpt>
      <trkpt lat="43.4718498028814792633056640625" lon="1.432063914835453033447265625">
        <ele>251</ele>
        <time>2026-08-05T11:00:39.000Z</time>
        <extensions>
          <ns3:TrackPointExtension>
            <ns3:hr>57</ns3:hr>
            <ns3:cad>0</ns3:cad>
          </ns3:TrackPointExtension>
        </extensions>
      </trkpt>
      <trkpt lat="43.4718498028814792633056640625" lon="1.432063914835453033447265625">
        <ele>251</ele>
        <time>2026-08-05T11:00:40.000Z</time>
        <extensions>
          <ns3:TrackPointExtension>
            <ns3:hr>57</ns3:hr>
            <ns3:cad>0</ns3:cad>
          </ns3:TrackPointExtension>
        </extensions>
      </trkpt>
      <trkpt lat="43.4718498028814792633056640625" lon="1.432063914835453033447265625">
        <ele>251</ele>
        <time>2026-08-05T11:00:41.000Z</time>
        <extensions>
          <ns3:TrackPointExtension>
            <ns3:hr>57</ns3:hr>
            <ns3:cad>0</ns3:cad>
          </ns3:TrackPointExtension>
        </extensions>
      </trkpt>
      <trkpt lat="43.4718498028814792633056640625" lon="1.432063914835453033447265625">
        <ele>251</ele>
        <time>2026-08-05T11:00:42.000Z</time>
        <extensions>
          <ns3:TrackPointExtension>
            <ns3:hr>57</ns3:hr>
            <ns3:cad>0</ns3:cad>
          </ns3:TrackPointExtension>
        </extensions>
      </trkpt>
      <trkpt lat="43.4718498028814792633056640625" lon="1.432063914835453033447265625">
        <ele>251</ele>
        <time>2026-08-05T11:00:43.000Z</time>
        <extensions>
          <ns3:TrackPointExtension>
            <ns3:hr>57</ns3:hr>
            <ns3:cad>0</ns3:cad>
          </ns3:TrackPointExtension>
        </extensions>
      </trkpt>
      <trkpt lat="43.4718498028814792633056640625" lon="1.432063914835453033447265625">
        <ele>251</ele>
        <time>2026-08-05T11:00:44.000Z</time>
        <extensions>
          <ns3:TrackPointExtension>
            <ns3:hr>57</ns3:hr>
            <ns3:cad>0</ns3:cad>
          </ns3:TrackPointExtension>
        </extensions>
      </trkpt>
      <trkpt lat="43.4718498028814792633056640625" lon="1.432063914835453033447265625">
        <ele>250.8000030517578125</ele>
        <time>2026-08-05T11:00:45.000Z</time>
        <extensions>
          <ns3:TrackPointExtension>
            <ns3:hr>57</ns3:hr>
            <ns3:cad>0</ns3:cad>
          </ns3:TrackPointExtension>
        </extensions>
      </trkpt>
      <trkpt lat="43.4718498028814792633056640625" lon="1.432063914835453033447265625">
        <ele>250.8000030517578125</ele>
        <time>2026-08-05T11:00:46.000Z</time>
        <extensions>
          <ns3:TrackPointExtension>
            <ns3:hr>57</ns3:hr>
            <ns3:cad>0</ns3:cad>
          </ns3:TrackPointExtension>
        </extensions>
      </trkpt>
      <trkpt lat="43.4718498028814792633056640625" lon="1.432063914835453033447265625">
        <ele>250.8000030517578125</ele>
        <time>2026-08-05T11:00:47.000Z</time>
        <extensions>
          <ns3:TrackPointExtension>
            <ns3:hr>57</ns3:hr>
            <ns3:cad>0</ns3:cad>
          </ns3:TrackPointExtension>
        </extensions>
      </trkpt>
      <trkpt lat="43.4718498028814792633056640625" lon="1.432063914835453033447265625">
        <ele>250.8000030517578125</ele>
        <time>2026-08-05T11:00:48.000Z</time>
        <extensions>
          <ns3:TrackPointExtension>
            <ns3:hr>57</ns3:hr>
            <ns3:cad>0</ns3:cad>
          </ns3:TrackPointExtension>
        </extensions>
      </trkpt>
      <trkpt lat="43.4718498028814792633056640625" lon="1.432063914835453033447265625">
        <ele>250.8000030517578125</ele>
        <time>2026-08-05T11:00:49.000Z</time>
        <extensions>
          <ns3:TrackPointExtension>
            <ns3:hr>58</ns3:hr>
            <ns3:cad>0</ns3:cad>
          </ns3:TrackPointExtension>
        </extensions>
      </trkpt>
      <trkpt lat="43.4718498028814792633056640625" lon="1.432063914835453033447265625">
        <ele>250.8000030517578125</ele>
        <time>2026-08-05T11:00:50.000Z</time>
        <extensions>
          <ns3:TrackPointExtension>
            <ns3:hr>58</ns3:hr>
            <ns3:cad>0</ns3:cad>
          </ns3:TrackPointExtension>
        </extensions>
      </trkpt>
      <trkpt lat="43.4718498028814792633056640625" lon="1.432063914835453033447265625">
        <ele>250.8000030517578125</ele>
        <time>2026-08-05T11:00:51.000Z</time>
        <extensions>
          <ns3:TrackPointExtension>
            <ns3:hr>59</ns3:hr>
            <ns3:cad>0</ns3:cad>
          </ns3:TrackPointExtension>
        </extensions>
      </trkpt>
      <trkpt lat="43.4718498028814792633056640625" lon="1.432063914835453033447265625">
        <ele>250.8000030517578125</ele>
        <time>2026-08-05T11:00:52.000Z</time>
        <extensions>
          <ns3:TrackPointExtension>
            <ns3:hr>65</ns3:hr>
            <ns3:cad>0</ns3:cad>
          </ns3:TrackPointExtension>
        </extensions>
      </trkpt>
      <trkpt lat="43.4718498028814792633056640625" lon="1.432063914835453033447265625">
        <ele>250.8000030517578125</ele>
        <time>2026-08-05T11:00:53.000Z</time>
        <extensions>
          <ns3:TrackPointExtension>
            <ns3:hr>75</ns3:hr>
            <ns3:cad>0</ns3:cad>
          </ns3:TrackPointExtension>
        </extensions>
      </trkpt>
      <trkpt lat="43.4718498028814792633056640625" lon="1.432063914835453033447265625">
        <ele>250.8000030517578125</ele>
        <time>2026-08-05T11:00:54.000Z</time>
        <extensions>
          <ns3:TrackPointExtension>
            <ns3:hr>77</ns3:hr>
            <ns3:cad>0</ns3:cad>
          </ns3:TrackPointExtension>
        </extensions>
      </trkpt>
      <trkpt lat="43.4718498028814792633056640625" lon="1.432063914835453033447265625">
        <ele>250.8000030517578125</ele>
        <time>2026-08-05T11:00:55.000Z</time>
        <extensions>
          <ns3:TrackPointExtension>
            <ns3:hr>77</ns3:hr>
            <ns3:cad>0</ns3:cad>
          </ns3:TrackPointExtension>
        </extensions>
      </trkpt>
      <trkpt lat="43.4718498028814792633056640625" lon="1.432063914835453033447265625">
        <ele>250.8000030517578125</ele>
        <time>2026-08-05T11:00:56.000Z</time>
        <extensions>
          <ns3:TrackPointExtension>
            <ns3:hr>78</ns3:hr>
            <ns3:cad>0</ns3:cad>
          </ns3:TrackPointExtension>
        </extensions>
      </trkpt>
      <trkpt lat="43.4718498028814792633056640625" lon="1.432063914835453033447265625">
        <ele>250.600006103515625</ele>
        <time>2026-08-05T11:00:57.000Z</time>
        <extensions>
          <ns3:TrackPointExtension>
            <ns3:hr>78</ns3:hr>
            <ns3:cad>0</ns3:cad>
          </ns3:TrackPointExtension>
        </extensions>
      </trkpt>
      <trkpt lat="43.4718498028814792633056640625" lon="1.432063914835453033447265625">
        <ele>250.8000030517578125</ele>
        <time>2026-08-05T11:00:58.000Z</time>
        <extensions>
          <ns3:TrackPointExtension>
            <ns3:hr>78</ns3:hr>
            <ns3:cad>0</ns3:cad>
          </ns3:TrackPointExtension>
        </extensions>
      </trkpt>
      <trkpt lat="43.4718498028814792633056640625" lon="1.432063914835453033447265625">
        <ele>250.8000030517578125</ele>
        <time>2026-08-05T11:00:59.000Z</time>
        <extensions>
          <ns3:TrackPointExtension>
            <ns3:hr>79</ns3:hr>
            <ns3:cad>0</ns3:cad>
          </ns3:TrackPointExtension>
        </extensions>
      </trkpt>
      <trkpt lat="43.4718498028814792633056640625" lon="1.432063914835453033447265625">
        <ele>250.8000030517578125</ele>
        <time>2026-08-05T11:01:00.000Z</time>
        <extensions>
          <ns3:TrackPointExtension>
            <ns3:hr>79</ns3:hr>
            <ns3:cad>0</ns3:cad>
          </ns3:TrackPointExtension>
        </extensions>
      </trkpt>
      <trkpt lat="43.4718498028814792633056640625" lon="1.432063914835453033447265625">
        <ele>250.8000030517578125</ele>
        <time>2026-08-05T11:01:01.000Z</time>
        <extensions>
          <ns3:TrackPointExtension>
            <ns3:hr>81</ns3:hr>
            <ns3:cad>0</ns3:cad>
          </ns3:TrackPointExtension>
        </extensions>
      </trkpt>
      <trkpt lat="43.4718498028814792633056640625" lon="1.432063914835453033447265625">
        <ele>250.8000030517578125</ele>
        <time>2026-08-05T11:01:02.000Z</time>
        <extensions>
          <ns3:TrackPointExtension>
            <ns3:hr>82</ns3:hr>
            <ns3:cad>0</ns3:cad>
          </ns3:TrackPointExtension>
        </extensions>
      </trkpt>
      <trkpt lat="43.4718498028814792633056640625" lon="1.432063914835453033447265625">
        <ele>251</ele>
        <time>2026-08-05T11:01:03.000Z</time>
        <extensions>
          <ns3:TrackPointExtension>
            <ns3:hr>84</ns3:hr>
            <ns3:cad>0</ns3:cad>
          </ns3:TrackPointExtension>
        </extensions>
      </trkpt>
      <trkpt lat="43.4718498028814792633056640625" lon="1.432063914835453033447265625">
        <ele>251</ele>
        <time>2026-08-05T11:01:04.000Z</time>
        <extensions>
          <ns3:TrackPointExtension>
            <ns3:hr>84</ns3:hr>
            <ns3:cad>0</ns3:cad>
          </ns3:TrackPointExtension>
        </extensions>
      </trkpt>
      <trkpt lat="43.4718498028814792633056640625" lon="1.432063914835453033447265625">
        <ele>251</ele>
        <time>2026-08-05T11:01:05.000Z</time>
        <extensions>
          <ns3:TrackPointExtension>
            <ns3:hr>84</ns3:hr>
            <ns3:cad>0</ns3:cad>
          </ns3:TrackPointExtension>
        </extensions>
      </trkpt>
      <trkpt lat="43.4718498028814792633056640625" lon="1.432063914835453033447265625">
        <ele>251</ele>
        <time>2026-08-05T11:01:06.000Z</time>
        <extensions>
          <ns3:TrackPointExtension>
            <ns3:hr>83</ns3:hr>
            <ns3:cad>0</ns3:cad>
          </ns3:TrackPointExtension>
        </extensions>
      </trkpt>
      <trkpt lat="43.4718498028814792633056640625" lon="1.432063914835453033447265625">
        <ele>251</ele>
        <time>2026-08-05T11:01:07.000Z</time>
        <extensions>
          <ns3:TrackPointExtension>
            <ns3:hr>83</ns3:hr>
            <ns3:cad>0</ns3:cad>
          </ns3:TrackPointExtension>
        </extensions>
      </trkpt>
      <trkpt lat="43.4718498028814792633056640625" lon="1.432063914835453033447265625">
        <ele>251.1999969482421875</ele>
        <time>2026-08-05T11:01:08.000Z</time>
        <extensions>
          <ns3:TrackPointExtension>
            <ns3:hr>82</ns3:hr>
            <ns3:cad>0</ns3:cad>
          </ns3:TrackPointExtension>
        </extensions>
      </trkpt>
      <trkpt lat="43.4718498028814792633056640625" lon="1.432063914835453033447265625">
        <ele>251.1999969482421875</ele>
        <time>2026-08-05T11:01:09.000Z</time>
        <extensions>
          <ns3:TrackPointExtension>
            <ns3:hr>82</ns3:hr>
            <ns3:cad>0</ns3:cad>
          </ns3:TrackPointExtension>
        </extensions>
      </trkpt>
      <trkpt lat="43.4718498028814792633056640625" lon="1.432063914835453033447265625">
        <ele>251.1999969482421875</ele>
        <time>2026-08-05T11:01:10.000Z</time>
        <extensions>
          <ns3:TrackPointExtension>
            <ns3:hr>82</ns3:hr>
            <ns3:cad>0</ns3:cad>
          </ns3:TrackPointExtension>
        </extensions>
      </trkpt>
      <trkpt lat="43.47184653393924236297607421875" lon="1.432073302567005157470703125">
        <ele>251.1999969482421875</ele>
        <time>2026-08-05T11:01:11.000Z</time>
        <extensions>
          <ns3:TrackPointExtension>
            <ns3:hr>83</ns3:hr>
            <ns3:cad>0</ns3:cad>
          </ns3:TrackPointExtension>
        </extensions>
      </trkpt>
      <trkpt lat="43.47185290418565273284912109375" lon="1.432071961462497711181640625">
        <ele>251.1999969482421875</ele>
        <time>2026-08-05T11:01:12.000Z</time>
        <extensions>
          <ns3:TrackPointExtension>
            <ns3:hr>82</ns3:hr>
            <ns3:cad>0</ns3:cad>
          </ns3:TrackPointExtension>
        </extensions>
      </trkpt>
      <trkpt lat="43.47185106016695499420166015625" lon="1.4320754818618297576904296875">
        <ele>251.1999969482421875</ele>
        <time>2026-08-05T11:01:13.000Z</time>
        <extensions>
          <ns3:TrackPointExtension>
            <ns3:hr>82</ns3:hr>
            <ns3:cad>0</ns3:cad>
          </ns3:TrackPointExtension>
        </extensions>
      </trkpt>
      <trkpt lat="43.47185499966144561767578125" lon="1.43207087181508541107177734375">
        <ele>251.399993896484375</ele>
        <time>2026-08-05T11:01:14.000Z</time>
        <extensions>
          <ns3:TrackPointExtension>
            <ns3:hr>82</ns3:hr>
            <ns3:cad>0</ns3:cad>
          </ns3:TrackPointExtension>
        </extensions>
      </trkpt>
      <trkpt lat="43.47184988670051097869873046875" lon="1.43207539804279804229736328125">
        <ele>251.399993896484375</ele>
        <time>2026-08-05T11:01:15.000Z</time>
        <extensions>
          <ns3:TrackPointExtension>
            <ns3:hr>83</ns3:hr>
            <ns3:cad>0</ns3:cad>
          </ns3:TrackPointExtension>
        </extensions>
      </trkpt>
      <trkpt lat="43.47185441292822360992431640625" lon="1.4320743083953857421875">
        <ele>251.399993896484375</ele>
        <time>2026-08-05T11:01:16.000Z</time>
        <extensions>
          <ns3:TrackPointExtension>
            <ns3:hr>82</ns3:hr>
            <ns3:cad>0</ns3:cad>
          </ns3:TrackPointExtension>
        </extensions>
      </trkpt>
      <trkpt lat="43.4718498028814792633056640625" lon="1.432063914835453033447265625">
        <ele>251.399993896484375</ele>
        <time>2026-08-05T11:01:17.000Z</time>
        <extensions>
          <ns3:TrackPointExtension>
            <ns3:hr>82</ns3:hr>
            <ns3:cad>0</ns3:cad>
          </ns3:TrackPointExtension>
        </extensions>
      </trkpt>
      <trkpt lat="43.4718498028814792633056640625" lon="1.432063914835453033447265625">
        <ele>251.399993896484375</ele>
        <time>2026-08-05T11:01:18.000Z</time>
        <extensions>
          <ns3:TrackPointExtension>
            <ns3:hr>82</ns3:hr>
            <ns3:cad>0</ns3:cad>
          </ns3:TrackPointExtension>
        </extensions>
      </trkpt>
      <trkpt lat="43.4718498028814792633056640625" lon="1.432063914835453033447265625">
        <ele>251.399993896484375</ele>
        <time>2026-08-05T11:01:19.000Z</time>
        <extensions>
          <ns3:TrackPointExtension>
            <ns3:hr>82</ns3:hr>
            <ns3:cad>0</ns3:cad>
          </ns3:TrackPointExtension>
        </extensions>
      </trkpt>
      <trkpt lat="43.4718498028814792633056640625" lon="1.432063914835453033447265625">
        <ele>251.1999969482421875</ele>
        <time>2026-08-05T11:01:20.000Z</time>
        <extensions>
          <ns3:TrackPointExtension>
            <ns3:hr>82</ns3:hr>
            <ns3:cad>0</ns3:cad>
          </ns3:TrackPointExtension>
        </extensions>
      </trkpt>
      <trkpt lat="43.4718498028814792633056640625" lon="1.432063914835453033447265625">
        <ele>251.1999969482421875</ele>
        <time>2026-08-05T11:01:21.000Z</time>
        <extensions>
          <ns3:TrackPointExtension>
            <ns3:hr>83</ns3:hr>
            <ns3:cad>0</ns3:cad>
          </ns3:TrackPointExtension>
        </extensions>
      </trkpt>
      <trkpt lat="43.4718498028814792633056640625" lon="1.432063914835453033447265625">
        <ele>251.1999969482421875</ele>
        <time>2026-08-05T11:01:22.000Z</time>
        <extensions>
          <ns3:TrackPointExtension>
            <ns3:hr>82</ns3:hr>
            <ns3:cad>0</ns3:cad>
          </ns3:TrackPointExtension>
        </extensions>
      </trkpt>
      <trkpt lat="43.4718498028814792633056640625" lon="1.432063914835453033447265625">
        <ele>251.1999969482421875</ele>
        <time>2026-08-05T11:01:23.000Z</time>
        <extensions>
          <ns3:TrackPointExtension>
            <ns3:hr>82</ns3:hr>
            <ns3:cad>0</ns3:cad>
          </ns3:TrackPointExtension>
        </extensions>
      </trkpt>
      <trkpt lat="43.4718498028814792633056640625" lon="1.432063914835453033447265625">
        <ele>251.1999969482421875</ele>
        <time>2026-08-05T11:01:24.000Z</time>
        <extensions>
          <ns3:TrackPointExtension>
            <ns3:hr>82</ns3:hr>
            <ns3:cad>0</ns3:cad>
          </ns3:TrackPointExtension>
        </extensions>
      </trkpt>
      <trkpt lat="43.4718498028814792633056640625" lon="1.432063914835453033447265625">
        <ele>251.1999969482421875</ele>
        <time>2026-08-05T11:01:25.000Z</time>
        <extensions>
          <ns3:TrackPointExtension>
            <ns3:hr>82</ns3:hr>
            <ns3:cad>0</ns3:cad>
          </ns3:TrackPointExtension>
        </extensions>
      </trkpt>
      <trkpt lat="43.4718498028814792633056640625" lon="1.432063914835453033447265625">
        <ele>251.1999969482421875</ele>
        <time>2026-08-05T11:01:26.000Z</time>
        <extensions>
          <ns3:TrackPointExtension>
            <ns3:hr>83</ns3:hr>
            <ns3:cad>0</ns3:cad>
          </ns3:TrackPointExtension>
        </extensions>
      </trkpt>
      <trkpt lat="43.4718498028814792633056640625" lon="1.432063914835453033447265625">
        <ele>251.1999969482421875</ele>
        <time>2026-08-05T11:01:27.000Z</time>
        <extensions>
          <ns3:TrackPointExtension>
            <ns3:hr>83</ns3:hr>
            <ns3:cad>0</ns3:cad>
          </ns3:TrackPointExtension>
        </extensions>
      </trkpt>
      <trkpt lat="43.4718498028814792633056640625" lon="1.432063914835453033447265625">
        <ele>251.1999969482421875</ele>
        <time>2026-08-05T11:01:28.000Z</time>
        <extensions>
          <ns3:TrackPointExtension>
            <ns3:hr>83</ns3:hr>
            <ns3:cad>0</ns3:cad>
          </ns3:TrackPointExtension>
        </extensions>
      </trkpt>
      <trkpt lat="43.4718498028814792633056640625" lon="1.432063914835453033447265625">
        <ele>251.1999969482421875</ele>
        <time>2026-08-05T11:01:29.000Z</time>
        <extensions>
          <ns3:TrackPointExtension>
            <ns3:hr>83</ns3:hr>
            <ns3:cad>0</ns3:cad>
          </ns3:TrackPointExtension>
        </extensions>
      </trkpt>
      <trkpt lat="43.4718498028814792633056640625" lon="1.432063914835453033447265625">
        <ele>251.1999969482421875</ele>
        <time>2026-08-05T11:01:30.000Z</time>
        <extensions>
          <ns3:TrackPointExtension>
            <ns3:hr>84</ns3:hr>
            <ns3:cad>0</ns3:cad>
          </ns3:TrackPointExtension>
        </extensions>
      </trkpt>
      <trkpt lat="43.4718498028814792633056640625" lon="1.432063914835453033447265625">
        <ele>251.1999969482421875</ele>
        <time>2026-08-05T11:01:31.000Z</time>
        <extensions>
          <ns3:TrackPointExtension>
            <ns3:hr>83</ns3:hr>
            <ns3:cad>0</ns3:cad>
          </ns3:TrackPointExtension>
        </extensions>
      </trkpt>
      <trkpt lat="43.4718498028814792633056640625" lon="1.432063914835453033447265625">
        <ele>251.399993896484375</ele>
        <time>2026-08-05T11:01:32.000Z</time>
        <extensions>
          <ns3:TrackPointExtension>
            <ns3:hr>83</ns3:hr>
            <ns3:cad>0</ns3:cad>
          </ns3:TrackPointExtension>
        </extensions>
      </trkpt>
      <trkpt lat="43.4718498028814792633056640625" lon="1.432063914835453033447265625">
        <ele>251.399993896484375</ele>
        <time>2026-08-05T11:01:33.000Z</time>
        <extensions>
          <ns3:TrackPointExtension>
            <ns3:hr>83</ns3:hr>
            <ns3:cad>0</ns3:cad>
          </ns3:TrackPointExtension>
        </extensions>
      </trkpt>
      <trkpt lat="43.4718498028814792633056640625" lon="1.432063914835453033447265625">
        <ele>251.399993896484375</ele>
        <time>2026-08-05T11:01:34.000Z</time>
        <extensions>
          <ns3:TrackPointExtension>
            <ns3:hr>83</ns3:hr>
            <ns3:cad>0</ns3:cad>
          </ns3:TrackPointExtension>
        </extensions>
      </trkpt>
      <trkpt lat="43.47185374237596988677978515625" lon="1.43207791261374950408935546875">
        <ele>251.399993896484375</ele>
        <time>2026-08-05T11:01:35.000Z</time>
        <extensions>
          <ns3:TrackPointExtension>
            <ns3:hr>83</ns3:hr>
            <ns3:cad>0</ns3:cad>
          </ns3:TrackPointExtension>
        </extensions>
      </trkpt>
      <trkpt lat="43.4718494676053524017333984375" lon="1.4320801757276058197021484375">
        <ele>251.1999969482421875</ele>
        <time>2026-08-05T11:01:36.000Z</time>
        <extensions>
          <ns3:TrackPointExtension>
            <ns3:hr>83</ns3:hr>
            <ns3:cad>0</ns3:cad>
          </ns3:TrackPointExtension>
        </extensions>
      </trkpt>
      <trkpt lat="43.47184921614825725555419921875" lon="1.43208302557468414306640625">
        <ele>251.1999969482421875</ele>
        <time>2026-08-05T11:01:37.000Z</time>
        <extensions>
          <ns3:TrackPointExtension>
            <ns3:hr>82</ns3:hr>
            <ns3:cad>0</ns3:cad>
          </ns3:TrackPointExtension>
        </extensions>
      </trkpt>
      <trkpt lat="43.47184904851019382476806640625" lon="1.432082355022430419921875">
        <ele>251.1999969482421875</ele>
        <time>2026-08-05T11:01:38.000Z</time>
        <extensions>
          <ns3:TrackPointExtension>
            <ns3:hr>81</ns3:hr>
            <ns3:cad>0</ns3:cad>
          </ns3:TrackPointExtension>
        </extensions>
      </trkpt>
      <trkpt lat="43.471849299967288970947265625" lon="1.432082019746303558349609375">
        <ele>251.1999969482421875</ele>
        <time>2026-08-05T11:01:39.000Z</time>
        <extensions>
          <ns3:TrackPointExtension>
            <ns3:hr>80</ns3:hr>
            <ns3:cad>0</ns3:cad>
          </ns3:TrackPointExtension>
        </extensions>
      </trkpt>
      <trkpt lat="43.4718471206724643707275390625" lon="1.43208327703177928924560546875">
        <ele>251</ele>
        <time>2026-08-05T11:01:40.000Z</time>
        <extensions>
          <ns3:TrackPointExtension>
            <ns3:hr>80</ns3:hr>
            <ns3:cad>0</ns3:cad>
          </ns3:TrackPointExtension>
        </extensions>
      </trkpt>
      <trkpt lat="43.4718441031873226165771484375" lon="1.43208176828920841217041015625">
        <ele>251.1999969482421875</ele>
        <time>2026-08-05T11:01:41.000Z</time>
        <extensions>
          <ns3:TrackPointExtension>
            <ns3:hr>80</ns3:hr>
            <ns3:cad>0</ns3:cad>
          </ns3:TrackPointExtension>
        </extensions>
      </trkpt>
      <trkpt lat="43.4718422591686248779296875" lon="1.43207556568086147308349609375">
        <ele>251.1999969482421875</ele>
        <time>2026-08-05T11:01:42.000Z</time>
        <extensions>
          <ns3:TrackPointExtension>
            <ns3:hr>80</ns3:hr>
            <ns3:cad>0</ns3:cad>
          </ns3:TrackPointExtension>
        </extensions>
      </trkpt>
      <trkpt lat="43.47184033133089542388916015625" lon="1.43207740969955921173095703125">
        <ele>251.1999969482421875</ele>
        <time>2026-08-05T11:01:43.000Z</time>
        <extensions>
          <ns3:TrackPointExtension>
            <ns3:hr>81</ns3:hr>
            <ns3:cad>0</ns3:cad>
          </ns3:TrackPointExtension>
        </extensions>
      </trkpt>
      <trkpt lat="43.47183982841670513153076171875" lon="1.4320729672908782958984375">
        <ele>251.1999969482421875</ele>
        <time>2026-08-05T11:01:44.000Z</time>
        <extensions>
          <ns3:TrackPointExtension>
            <ns3:hr>81</ns3:hr>
            <ns3:cad>0</ns3:cad>
          </ns3:TrackPointExtension>
        </extensions>
      </trkpt>
      <trkpt lat="43.47184770740568637847900390625" lon="1.43207388930022716522216796875">
        <ele>251.1999969482421875</ele>
        <time>2026-08-05T11:01:45.000Z</time>
        <extensions>
          <ns3:TrackPointExtension>
            <ns3:hr>82</ns3:hr>
            <ns3:cad>0</ns3:cad>
          </ns3:TrackPointExtension>
        </extensions>
      </trkpt>
      <trkpt lat="43.471857346594333648681640625" lon="1.432071626186370849609375">
        <ele>251.1999969482421875</ele>
        <time>2026-08-05T11:01:46.000Z</time>
        <extensions>
          <ns3:TrackPointExtension>
            <ns3:hr>82</ns3:hr>
            <ns3:cad>0</ns3:cad>
          </ns3:TrackPointExtension>
        </extensions>
      </trkpt>
      <trkpt lat="43.47186111845076084136962890625" lon="1.4320701174437999725341796875">
        <ele>251</ele>
        <time>2026-08-05T11:01:47.000Z</time>
        <extensions>
          <ns3:TrackPointExtension>
            <ns3:hr>83</ns3:hr>
            <ns3:cad>0</ns3:cad>
          </ns3:TrackPointExtension>
        </extensions>
      </trkpt>
      <trkpt lat="43.4718662314116954803466796875" lon="1.43207053653895854949951171875">
        <ele>251</ele>
        <time>2026-08-05T11:01:48.000Z</time>
        <extensions>
          <ns3:TrackPointExtension>
            <ns3:hr>83</ns3:hr>
            <ns3:cad>0</ns3:cad>
          </ns3:TrackPointExtension>
        </extensions>
      </trkpt>
      <trkpt lat="43.47186631523072719573974609375" lon="1.43207053653895854949951171875">
        <ele>251</ele>
        <time>2026-08-05T11:01:49.000Z</time>
        <extensions>
          <ns3:TrackPointExtension>
            <ns3:hr>84</ns3:hr>
            <ns3:cad>0</ns3:cad>
          </ns3:TrackPointExtension>
        </extensions>
      </trkpt>
      <trkpt lat="43.47186631523072719573974609375" lon="1.43207053653895854949951171875">
        <ele>251</ele>
        <time>2026-08-05T11:01:50.000Z</time>
        <extensions>
          <ns3:TrackPointExtension>
            <ns3:hr>85</ns3:hr>
            <ns3:cad>0</ns3:cad>
          </ns3:TrackPointExtension>
        </extensions>
      </trkpt>
      <trkpt lat="43.47186631523072719573974609375" lon="1.43207053653895854949951171875">
        <ele>251.1999969482421875</ele>
        <time>2026-08-05T11:01:51.000Z</time>
        <extensions>
          <ns3:TrackPointExtension>
            <ns3:hr>85</ns3:hr>
            <ns3:cad>0</ns3:cad>
          </ns3:TrackPointExtension>
        </extensions>
      </trkpt>
      <trkpt lat="43.47186631523072719573974609375" lon="1.43207053653895854949951171875">
        <ele>251</ele>
        <time>2026-08-05T11:01:52.000Z</time>
        <extensions>
          <ns3:TrackPointExtension>
            <ns3:hr>85</ns3:hr>
            <ns3:cad>0</ns3:cad>
          </ns3:TrackPointExtension>
        </extensions>
      </trkpt>
      <trkpt lat="43.47186631523072719573974609375" lon="1.43207053653895854949951171875">
        <ele>251</ele>
        <time>2026-08-05T11:01:53.000Z</time>
        <extensions>
          <ns3:TrackPointExtension>
            <ns3:hr>84</ns3:hr>
            <ns3:cad>0</ns3:cad>
          </ns3:TrackPointExtension>
        </extensions>
      </trkpt>
      <trkpt lat="43.47186631523072719573974609375" lon="1.43207053653895854949951171875">
        <ele>250.8000030517578125</ele>
        <time>2026-08-05T11:01:54.000Z</time>
        <extensions>
          <ns3:TrackPointExtension>
            <ns3:hr>84</ns3:hr>
            <ns3:cad>0</ns3:cad>
          </ns3:TrackPointExtension>
        </extensions>
      </trkpt>
      <trkpt lat="43.47186631523072719573974609375" lon="1.43207053653895854949951171875">
        <ele>250.8000030517578125</ele>
        <time>2026-08-05T11:01:55.000Z</time>
        <extensions>
          <ns3:TrackPointExtension>
            <ns3:hr>84</ns3:hr>
            <ns3:cad>0</ns3:cad>
          </ns3:TrackPointExtension>
        </extensions>
      </trkpt>
      <trkpt lat="43.47186631523072719573974609375" lon="1.43207053653895854949951171875">
        <ele>250.600006103515625</ele>
        <time>2026-08-05T11:01:56.000Z</time>
        <extensions>
          <ns3:TrackPointExtension>
            <ns3:hr>84</ns3:hr>
            <ns3:cad>0</ns3:cad>
          </ns3:TrackPointExtension>
        </extensions>
      </trkpt>
      <trkpt lat="43.47186631523072719573974609375" lon="1.43207053653895854949951171875">
        <ele>250.8000030517578125</ele>
        <time>2026-08-05T11:01:57.000Z</time>
        <extensions>
          <ns3:TrackPointExtension>
            <ns3:hr>84</ns3:hr>
            <ns3:cad>0</ns3:cad>
          </ns3:TrackPointExtension>
        </extensions>
      </trkpt>
      <trkpt lat="43.47186631523072719573974609375" lon="1.43207053653895854949951171875">
        <ele>250.8000030517578125</ele>
        <time>2026-08-05T11:01:58.000Z</time>
        <extensions>
          <ns3:TrackPointExtension>
            <ns3:hr>84</ns3:hr>
            <ns3:cad>0</ns3:cad>
          </ns3:TrackPointExtension>
        </extensions>
      </trkpt>
      <trkpt lat="43.47186631523072719573974609375" lon="1.43207053653895854949951171875">
        <ele>251</ele>
        <time>2026-08-05T11:01:59.000Z</time>
        <extensions>
          <ns3:TrackPointExtension>
            <ns3:hr>84</ns3:hr>
            <ns3:cad>0</ns3:cad>
          </ns3:TrackPointExtension>
        </extensions>
      </trkpt>
      <trkpt lat="43.47186631523072719573974609375" lon="1.43207053653895854949951171875">
        <ele>251</ele>
        <time>2026-08-05T11:02:00.000Z</time>
        <extensions>
          <ns3:TrackPointExtension>
            <ns3:hr>83</ns3:hr>
            <ns3:cad>0</ns3:cad>
          </ns3:TrackPointExtension>
        </extensions>
      </trkpt>
      <trkpt lat="43.47186631523072719573974609375" lon="1.43207053653895854949951171875">
        <ele>251</ele>
        <time>2026-08-05T11:02:01.000Z</time>
        <extensions>
          <ns3:TrackPointExtension>
            <ns3:hr>83</ns3:hr>
            <ns3:cad>0</ns3:cad>
          </ns3:TrackPointExtension>
        </extensions>
      </trkpt>
      <trkpt lat="43.47186631523072719573974609375" lon="1.43207053653895854949951171875">
        <ele>250.8000030517578125</ele>
        <time>2026-08-05T11:02:02.000Z</time>
        <extensions>
          <ns3:TrackPointExtension>
            <ns3:hr>83</ns3:hr>
            <ns3:cad>0</ns3:cad>
          </ns3:TrackPointExtension>
        </extensions>
      </trkpt>
      <trkpt lat="43.47186631523072719573974609375" lon="1.43207053653895854949951171875">
        <ele>250.8000030517578125</ele>
        <time>2026-08-05T11:02:03.000Z</time>
        <extensions>
          <ns3:TrackPointExtension>
            <ns3:hr>83</ns3:hr>
            <ns3:cad>0</ns3:cad>
          </ns3:TrackPointExtension>
        </extensions>
      </trkpt>
      <trkpt lat="43.47186631523072719573974609375" lon="1.43207053653895854949951171875">
        <ele>250.8000030517578125</ele>
        <time>2026-08-05T11:02:04.000Z</time>
        <extensions>
          <ns3:TrackPointExtension>
            <ns3:hr>83</ns3:hr>
            <ns3:cad>0</ns3:cad>
          </ns3:TrackPointExtension>
        </extensions>
      </trkpt>
      <trkpt lat="43.47186631523072719573974609375" lon="1.43207053653895854949951171875">
        <ele>250.8000030517578125</ele>
        <time>2026-08-05T11:02:05.000Z</time>
        <extensions>
          <ns3:TrackPointExtension>
            <ns3:hr>83</ns3:hr>
            <ns3:cad>0</ns3:cad>
          </ns3:TrackPointExtension>
        </extensions>
      </trkpt>
      <trkpt lat="43.47186631523072719573974609375" lon="1.43207053653895854949951171875">
        <ele>250.8000030517578125</ele>
        <time>2026-08-05T11:02:06.000Z</time>
        <extensions>
          <ns3:TrackPointExtension>
            <ns3:hr>83</ns3:hr>
            <ns3:cad>0</ns3:cad>
          </ns3:TrackPointExtension>
        </extensions>
      </trkpt>
      <trkpt lat="43.47186631523072719573974609375" lon="1.43207053653895854949951171875">
        <ele>250.8000030517578125</ele>
        <time>2026-08-05T11:02:07.000Z</time>
        <extensions>
          <ns3:TrackPointExtension>
            <ns3:hr>82</ns3:hr>
            <ns3:cad>0</ns3:cad>
          </ns3:TrackPointExtension>
        </extensions>
      </trkpt>
      <trkpt lat="43.47186631523072719573974609375" lon="1.43207053653895854949951171875">
        <ele>250.8000030517578125</ele>
        <time>2026-08-05T11:02:08.000Z</time>
        <extensions>
          <ns3:TrackPointExtension>
            <ns3:hr>81</ns3:hr>
            <ns3:cad>0</ns3:cad>
          </ns3:TrackPointExtension>
        </extensions>
      </trkpt>
      <trkpt lat="43.47186631523072719573974609375" lon="1.43207053653895854949951171875">
        <ele>250.8000030517578125</ele>
        <time>2026-08-05T11:02:09.000Z</time>
        <extensions>
          <ns3:TrackPointExtension>
            <ns3:hr>77</ns3:hr>
            <ns3:cad>0</ns3:cad>
          </ns3:TrackPointExtension>
        </extensions>
      </trkpt>
      <trkpt lat="43.47186631523072719573974609375" lon="1.43207053653895854949951171875">
        <ele>250.8000030517578125</ele>
        <time>2026-08-05T11:02:10.000Z</time>
        <extensions>
          <ns3:TrackPointExtension>
            <ns3:hr>72</ns3:hr>
            <ns3:cad>0</ns3:cad>
          </ns3:TrackPointExtension>
        </extensions>
      </trkpt>
      <trkpt lat="43.47186631523072719573974609375" lon="1.43207053653895854949951171875">
        <ele>250.8000030517578125</ele>
        <time>2026-08-05T11:02:11.000Z</time>
        <extensions>
          <ns3:TrackPointExtension>
            <ns3:hr>71</ns3:hr>
            <ns3:cad>0</ns3:cad>
          </ns3:TrackPointExtension>
        </extensions>
      </trkpt>
      <trkpt lat="43.47186631523072719573974609375" lon="1.43207053653895854949951171875">
        <ele>250.600006103515625</ele>
        <time>2026-08-05T11:02:12.000Z</time>
        <extensions>
          <ns3:TrackPointExtension>
            <ns3:hr>71</ns3:hr>
            <ns3:cad>0</ns3:cad>
          </ns3:TrackPointExtension>
        </extensions>
      </trkpt>
      <trkpt lat="43.47186631523072719573974609375" lon="1.43207053653895854949951171875">
        <ele>250.600006103515625</ele>
        <time>2026-08-05T11:02:13.000Z</time>
        <extensions>
          <ns3:TrackPointExtension>
            <ns3:hr>71</ns3:hr>
            <ns3:cad>0</ns3:cad>
          </ns3:TrackPointExtension>
        </extensions>
      </trkpt>
      <trkpt lat="43.47186631523072719573974609375" lon="1.43207053653895854949951171875">
        <ele>250.600006103515625</ele>
        <time>2026-08-05T11:02:14.000Z</time>
        <extensions>
          <ns3:TrackPointExtension>
            <ns3:hr>70</ns3:hr>
            <ns3:cad>0</ns3:cad>
          </ns3:TrackPointExtension>
        </extensions>
      </trkpt>
      <trkpt lat="43.47186631523072719573974609375" lon="1.43207053653895854949951171875">
        <ele>250.600006103515625</ele>
        <time>2026-08-05T11:02:15.000Z</time>
        <extensions>
          <ns3:TrackPointExtension>
            <ns3:hr>71</ns3:hr>
            <ns3:cad>0</ns3:cad>
          </ns3:TrackPointExtension>
        </extensions>
      </trkpt>
      <trkpt lat="43.47186631523072719573974609375" lon="1.43207053653895854949951171875">
        <ele>250.600006103515625</ele>
        <time>2026-08-05T11:02:16.000Z</time>
        <extensions>
          <ns3:TrackPointExtension>
            <ns3:hr>70</ns3:hr>
            <ns3:cad>0</ns3:cad>
          </ns3:TrackPointExtension>
        </extensions>
      </trkpt>
      <trkpt lat="43.47186631523072719573974609375" lon="1.43207053653895854949951171875">
        <ele>250.8000030517578125</ele>
        <time>2026-08-05T11:02:17.000Z</time>
        <extensions>
          <ns3:TrackPointExtension>
            <ns3:hr>70</ns3:hr>
            <ns3:cad>0</ns3:cad>
          </ns3:TrackPointExtension>
        </extensions>
      </trkpt>
      <trkpt lat="43.47186480648815631866455078125" lon="1.43206634558737277984619140625">
        <ele>250.8000030517578125</ele>
        <time>2026-08-05T11:02:18.000Z</time>
        <extensions>
          <ns3:TrackPointExtension>
            <ns3:hr>70</ns3:hr>
            <ns3:cad>0</ns3:cad>
          </ns3:TrackPointExtension>
        </extensions>
      </trkpt>
      <trkpt lat="43.471861369907855987548828125" lon="1.43206651322543621063232421875">
        <ele>250.8000030517578125</ele>
        <time>2026-08-05T11:02:19.000Z</time>
        <extensions>
          <ns3:TrackPointExtension>
            <ns3:hr>69</ns3:hr>
            <ns3:cad>0</ns3:cad>
          </ns3:TrackPointExtension>
        </extensions>
      </trkpt>
      <trkpt lat="43.47185877151787281036376953125" lon="1.4320590533316135406494140625">
        <ele>251</ele>
        <time>2026-08-05T11:02:20.000Z</time>
        <extensions>
          <ns3:TrackPointExtension>
            <ns3:hr>69</ns3:hr>
            <ns3:cad>0</ns3:cad>
          </ns3:TrackPointExtension>
        </extensions>
      </trkpt>
      <trkpt lat="43.47185877151787281036376953125" lon="1.43205109052360057830810546875">
        <ele>251.1999969482421875</ele>
        <time>2026-08-05T11:02:21.000Z</time>
        <extensions>
          <ns3:TrackPointExtension>
            <ns3:hr>67</ns3:hr>
            <ns3:cad>0</ns3:cad>
          </ns3:TrackPointExtension>
        </extensions>
      </trkpt>
      <trkpt lat="43.4718556702136993408203125" lon="1.43204539082944393157958984375">
        <ele>251.1999969482421875</ele>
        <time>2026-08-05T11:02:22.000Z</time>
        <extensions>
          <ns3:TrackPointExtension>
            <ns3:hr>66</ns3:hr>
            <ns3:cad>0</ns3:cad>
          </ns3:TrackPointExtension>
        </extensions>
      </trkpt>
      <trkpt lat="43.471857346594333648681640625" lon="1.43203684128820896148681640625">
        <ele>251.399993896484375</ele>
        <time>2026-08-05T11:02:23.000Z</time>
        <extensions>
          <ns3:TrackPointExtension>
            <ns3:hr>67</ns3:hr>
            <ns3:cad>0</ns3:cad>
          </ns3:TrackPointExtension>
        </extensions>
      </trkpt>
      <trkpt lat="43.47185323946177959442138671875" lon="1.43203206360340118408203125">
        <ele>251.600006103515625</ele>
        <time>2026-08-05T11:02:24.000Z</time>
        <extensions>
          <ns3:TrackPointExtension>
            <ns3:hr>68</ns3:hr>
            <ns3:cad>0</ns3:cad>
          </ns3:TrackPointExtension>
        </extensions>
      </trkpt>
      <trkpt lat="43.4718528203666210174560546875" lon="1.43202527426183223724365234375">
        <ele>251.600006103515625</ele>
        <time>2026-08-05T11:02:25.000Z</time>
        <extensions>
          <ns3:TrackPointExtension>
            <ns3:hr>68</ns3:hr>
            <ns3:cad>0</ns3:cad>
          </ns3:TrackPointExtension>
        </extensions>
      </trkpt>
      <trkpt lat="43.47185089252889156341552734375" lon="1.43201865255832672119140625">
        <ele>251.399993896484375</ele>
        <time>2026-08-05T11:02:26.000Z</time>
        <extensions>
          <ns3:TrackPointExtension>
            <ns3:hr>69</ns3:hr>
            <ns3:cad>0</ns3:cad>
          </ns3:TrackPointExtension>
        </extensions>
      </trkpt>
      <trkpt lat="43.47185365855693817138671875" lon="1.43200767226517200469970703125">
        <ele>251.600006103515625</ele>
        <time>2026-08-05T11:02:27.000Z</time>
        <extensions>
          <ns3:TrackPointExtension>
            <ns3:hr>69</ns3:hr>
            <ns3:cad>0</ns3:cad>
          </ns3:TrackPointExtension>
        </extensions>
      </trkpt>
      <trkpt lat="43.47185541875660419464111328125" lon="1.43200096674263477325439453125">
        <ele>251.600006103515625</ele>
        <time>2026-08-05T11:02:28.000Z</time>
        <extensions>
          <ns3:TrackPointExtension>
            <ns3:hr>69</ns3:hr>
            <ns3:cad>0</ns3:cad>
          </ns3:TrackPointExtension>
        </extensions>
      </trkpt>
      <trkpt lat="43.471856676042079925537109375" lon="1.4320010505616664886474609375">
        <ele>251.600006103515625</ele>
        <time>2026-08-05T11:02:29.000Z</time>
        <extensions>
          <ns3:TrackPointExtension>
            <ns3:hr>68</ns3:hr>
            <ns3:cad>0</ns3:cad>
          </ns3:TrackPointExtension>
        </extensions>
      </trkpt>
      <trkpt lat="43.471856676042079925537109375" lon="1.43200096674263477325439453125">
        <ele>251.600006103515625</ele>
        <time>2026-08-05T11:02:30.000Z</time>
        <extensions>
          <ns3:TrackPointExtension>
            <ns3:hr>68</ns3:hr>
            <ns3:cad>0</ns3:cad>
          </ns3:TrackPointExtension>
        </extensions>
      </trkpt>
      <trkpt lat="43.471856676042079925537109375" lon="1.43200096674263477325439453125">
        <ele>251.600006103515625</ele>
        <time>2026-08-05T11:02:31.000Z</time>
        <extensions>
          <ns3:TrackPointExtension>
            <ns3:hr>68</ns3:hr>
            <ns3:cad>0</ns3:cad>
          </ns3:TrackPointExtension>
        </extensions>
      </trkpt>
      <trkpt lat="43.471856676042079925537109375" lon="1.43200096674263477325439453125">
        <ele>251.600006103515625</ele>
        <time>2026-08-05T11:02:32.000Z</time>
        <extensions>
          <ns3:TrackPointExtension>
            <ns3:hr>69</ns3:hr>
            <ns3:cad>0</ns3:cad>
          </ns3:TrackPointExtension>
        </extensions>
      </trkpt>
      <trkpt lat="43.471856676042079925537109375" lon="1.43200096674263477325439453125">
        <ele>251.600006103515625</ele>
        <time>2026-08-05T11:02:33.000Z</time>
        <extensions>
          <ns3:TrackPointExtension>
            <ns3:hr>69</ns3:hr>
            <ns3:cad>0</ns3:cad>
          </ns3:TrackPointExtension>
        </extensions>
      </trkpt>
      <trkpt lat="43.471856676042079925537109375" lon="1.43200096674263477325439453125">
        <ele>251.600006103515625</ele>
        <time>2026-08-05T11:02:34.000Z</time>
        <extensions>
          <ns3:TrackPointExtension>
            <ns3:hr>71</ns3:hr>
            <ns3:cad>0</ns3:cad>
          </ns3:TrackPointExtension>
        </extensions>
      </trkpt>
      <trkpt lat="43.471856676042079925537109375" lon="1.43200096674263477325439453125">
        <ele>251.600006103515625</ele>
        <time>2026-08-05T11:02:35.000Z</time>
        <extensions>
          <ns3:TrackPointExtension>
            <ns3:hr>73</ns3:hr>
            <ns3:cad>0</ns3:cad>
          </ns3:TrackPointExtension>
        </extensions>
      </trkpt>
      <trkpt lat="43.471856676042079925537109375" lon="1.43200096674263477325439453125">
        <ele>251.600006103515625</ele>
        <time>2026-08-05T11:02:36.000Z</time>
        <extensions>
          <ns3:TrackPointExtension>
            <ns3:hr>74</ns3:hr>
            <ns3:cad>0</ns3:cad>
          </ns3:TrackPointExtension>
        </extensions>
      </trkpt>
      <trkpt lat="43.471856676042079925537109375" lon="1.43200096674263477325439453125">
        <ele>251.600006103515625</ele>
        <time>2026-08-05T11:02:37.000Z</time>
        <extensions>
          <ns3:TrackPointExtension>
            <ns3:hr>74</ns3:hr>
            <ns3:cad>0</ns3:cad>
          </ns3:TrackPointExtension>
        </extensions>
      </trkpt>
      <trkpt lat="43.471856676042079925537109375" lon="1.43200096674263477325439453125">
        <ele>251.399993896484375</ele>
        <time>2026-08-05T11:02:38.000Z</time>
        <extensions>
          <ns3:TrackPointExtension>
            <ns3:hr>74</ns3:hr>
            <ns3:cad>0</ns3:cad>
          </ns3:TrackPointExtension>
        </extensions>
      </trkpt>
      <trkpt lat="43.471856676042079925537109375" lon="1.43200096674263477325439453125">
        <ele>251.1999969482421875</ele>
        <time>2026-08-05T11:02:39.000Z</time>
        <extensions>
          <ns3:TrackPointExtension>
            <ns3:hr>75</ns3:hr>
            <ns3:cad>0</ns3:cad>
          </ns3:TrackPointExtension>
        </extensions>
      </trkpt>
      <trkpt lat="43.471856676042079925537109375" lon="1.43200096674263477325439453125">
        <ele>251</ele>
        <time>2026-08-05T11:02:40.000Z</time>
        <extensions>
          <ns3:TrackPointExtension>
            <ns3:hr>74</ns3:hr>
            <ns3:cad>0</ns3:cad>
          </ns3:TrackPointExtension>
        </extensions>
      </trkpt>
      <trkpt lat="43.471856676042079925537109375" lon="1.43200096674263477325439453125">
        <ele>251</ele>
        <time>2026-08-05T11:02:41.000Z</time>
        <extensions>
          <ns3:TrackPointExtension>
            <ns3:hr>73</ns3:hr>
            <ns3:cad>0</ns3:cad>
          </ns3:TrackPointExtension>
        </extensions>
      </trkpt>
      <trkpt lat="43.471856676042079925537109375" lon="1.43200096674263477325439453125">
        <ele>251</ele>
        <time>2026-08-05T11:02:42.000Z</time>
        <extensions>
          <ns3:TrackPointExtension>
            <ns3:hr>73</ns3:hr>
            <ns3:cad>0</ns3:cad>
          </ns3:TrackPointExtension>
        </extensions>
      </trkpt>
      <trkpt lat="43.471856676042079925537109375" lon="1.43200096674263477325439453125">
        <ele>251.1999969482421875</ele>
        <time>2026-08-05T11:02:43.000Z</time>
        <extensions>
          <ns3:TrackPointExtension>
            <ns3:hr>72</ns3:hr>
            <ns3:cad>0</ns3:cad>
          </ns3:TrackPointExtension>
        </extensions>
      </trkpt>
      <trkpt lat="43.471856676042079925537109375" lon="1.43200096674263477325439453125">
        <ele>251.1999969482421875</ele>
        <time>2026-08-05T11:02:44.000Z</time>
        <extensions>
          <ns3:TrackPointExtension>
            <ns3:hr>71</ns3:hr>
            <ns3:cad>0</ns3:cad>
          </ns3:TrackPointExtension>
        </extensions>
      </trkpt>
      <trkpt lat="43.471856676042079925537109375" lon="1.43200096674263477325439453125">
        <ele>251.399993896484375</ele>
        <time>2026-08-05T11:02:45.000Z</time>
        <extensions>
          <ns3:TrackPointExtension>
            <ns3:hr>70</ns3:hr>
            <ns3:cad>0</ns3:cad>
          </ns3:TrackPointExtension>
        </extensions>
      </trkpt>
      <trkpt lat="43.471856676042079925537109375" lon="1.43200096674263477325439453125">
        <ele>251.399993896484375</ele>
        <time>2026-08-05T11:02:46.000Z</time>
        <extensions>
          <ns3:TrackPointExtension>
            <ns3:hr>70</ns3:hr>
            <ns3:cad>0</ns3:cad>
          </ns3:TrackPointExtension>
        </extensions>
      </trkpt>
      <trkpt lat="43.471856676042079925537109375" lon="1.43200096674263477325439453125">
        <ele>251.399993896484375</ele>
        <time>2026-08-05T11:02:47.000Z</time>
        <extensions>
          <ns3:TrackPointExtension>
            <ns3:hr>70</ns3:hr>
            <ns3:cad>0</ns3:cad>
          </ns3:TrackPointExtension>
        </extensions>
      </trkpt>
      <trkpt lat="43.471856676042079925537109375" lon="1.43200096674263477325439453125">
        <ele>251.600006103515625</ele>
        <time>2026-08-05T11:02:48.000Z</time>
        <extensions>
          <ns3:TrackPointExtension>
            <ns3:hr>71</ns3:hr>
            <ns3:cad>0</ns3:cad>
          </ns3:TrackPointExtension>
        </extensions>
      </trkpt>
      <trkpt lat="43.471856676042079925537109375" lon="1.43200096674263477325439453125">
        <ele>251.600006103515625</ele>
        <time>2026-08-05T11:02:49.000Z</time>
        <extensions>
          <ns3:TrackPointExtension>
            <ns3:hr>71</ns3:hr>
            <ns3:cad>0</ns3:cad>
          </ns3:TrackPointExtension>
        </extensions>
      </trkpt>
      <trkpt lat="43.471856676042079925537109375" lon="1.43200096674263477325439453125">
        <ele>251.600006103515625</ele>
        <time>2026-08-05T11:02:50.000Z</time>
        <extensions>
          <ns3:TrackPointExtension>
            <ns3:hr>71</ns3:hr>
            <ns3:cad>0</ns3:cad>
          </ns3:TrackPointExtension>
        </extensions>
      </trkpt>
      <trkpt lat="43.471856676042079925537109375" lon="1.43200096674263477325439453125">
        <ele>251.600006103515625</ele>
        <time>2026-08-05T11:02:51.000Z</time>
        <extensions>
          <ns3:TrackPointExtension>
            <ns3:hr>71</ns3:hr>
            <ns3:cad>0</ns3:cad>
          </ns3:TrackPointExtension>
        </extensions>
      </trkpt>
      <trkpt lat="43.471856676042079925537109375" lon="1.43200096674263477325439453125">
        <ele>251.600006103515625</ele>
        <time>2026-08-05T11:02:52.000Z</time>
        <extensions>
          <ns3:TrackPointExtension>
            <ns3:hr>71</ns3:hr>
            <ns3:cad>0</ns3:cad>
          </ns3:TrackPointExtension>
        </extensions>
      </trkpt>
      <trkpt lat="43.471856676042079925537109375" lon="1.43200096674263477325439453125">
        <ele>251.600006103515625</ele>
        <time>2026-08-05T11:02:53.000Z</time>
        <extensions>
          <ns3:TrackPointExtension>
            <ns3:hr>71</ns3:hr>
            <ns3:cad>0</ns3:cad>
          </ns3:TrackPointExtension>
        </extensions>
      </trkpt>
      <trkpt lat="43.471856676042079925537109375" lon="1.43200096674263477325439453125">
        <ele>251.8000030517578125</ele>
        <time>2026-08-05T11:02:54.000Z</time>
        <extensions>
          <ns3:TrackPointExtension>
            <ns3:hr>71</ns3:hr>
            <ns3:cad>0</ns3:cad>
          </ns3:TrackPointExtension>
        </extensions>
      </trkpt>
      <trkpt lat="43.471856676042079925537109375" lon="1.43200096674263477325439453125">
        <ele>251.8000030517578125</ele>
        <time>2026-08-05T11:02:55.000Z</time>
        <extensions>
          <ns3:TrackPointExtension>
            <ns3:hr>71</ns3:hr>
            <ns3:cad>0</ns3:cad>
          </ns3:TrackPointExtension>
        </extensions>
      </trkpt>
      <trkpt lat="43.471856676042079925537109375" lon="1.43200096674263477325439453125">
        <ele>252</ele>
        <time>2026-08-05T11:02:56.000Z</time>
        <extensions>
          <ns3:TrackPointExtension>
            <ns3:hr>71</ns3:hr>
            <ns3:cad>0</ns3:cad>
          </ns3:TrackPointExtension>
        </extensions>
      </trkpt>
      <trkpt lat="43.471856676042079925537109375" lon="1.43200096674263477325439453125">
        <ele>252</ele>
        <time>2026-08-05T11:02:57.000Z</time>
        <extensions>
          <ns3:TrackPointExtension>
            <ns3:hr>71</ns3:hr>
            <ns3:cad>0</ns3:cad>
          </ns3:TrackPointExtension>
        </extensions>
      </trkpt>
      <trkpt lat="43.471856676042079925537109375" lon="1.43200096674263477325439453125">
        <ele>251.8000030517578125</ele>
        <time>2026-08-05T11:02:58.000Z</time>
        <extensions>
          <ns3:TrackPointExtension>
            <ns3:hr>71</ns3:hr>
            <ns3:cad>0</ns3:cad>
          </ns3:TrackPointExtension>
        </extensions>
      </trkpt>
      <trkpt lat="43.471856676042079925537109375" lon="1.43200096674263477325439453125">
        <ele>251.8000030517578125</ele>
        <time>2026-08-05T11:02:59.000Z</time>
        <extensions>
          <ns3:TrackPointExtension>
            <ns3:hr>71</ns3:hr>
            <ns3:cad>0</ns3:cad>
          </ns3:TrackPointExtension>
        </extensions>
      </trkpt>
      <trkpt lat="43.471856676042079925537109375" lon="1.43200096674263477325439453125">
        <ele>251.600006103515625</ele>
        <time>2026-08-05T11:03:00.000Z</time>
        <extensions>
          <ns3:TrackPointExtension>
            <ns3:hr>71</ns3:hr>
            <ns3:cad>0</ns3:cad>
          </ns3:TrackPointExtension>
        </extensions>
      </trkpt>
      <trkpt lat="43.471856676042079925537109375" lon="1.43200096674263477325439453125">
        <ele>251.399993896484375</ele>
        <time>2026-08-05T11:03:01.000Z</time>
        <extensions>
          <ns3:TrackPointExtension>
            <ns3:hr>71</ns3:hr>
            <ns3:cad>0</ns3:cad>
          </ns3:TrackPointExtension>
        </extensions>
      </trkpt>
      <trkpt lat="43.471856676042079925537109375" lon="1.43200096674263477325439453125">
        <ele>251.1999969482421875</ele>
        <time>2026-08-05T11:03:02.000Z</time>
        <extensions>
          <ns3:TrackPointExtension>
            <ns3:hr>71</ns3:hr>
            <ns3:cad>0</ns3:cad>
          </ns3:TrackPointExtension>
        </extensions>
      </trkpt>
      <trkpt lat="43.471856676042079925537109375" lon="1.43200096674263477325439453125">
        <ele>251.1999969482421875</ele>
        <time>2026-08-05T11:03:03.000Z</time>
        <extensions>
          <ns3:TrackPointExtension>
            <ns3:hr>70</ns3:hr>
            <ns3:cad>0</ns3:cad>
          </ns3:TrackPointExtension>
        </extensions>
      </trkpt>
      <trkpt lat="43.471856676042079925537109375" lon="1.43200096674263477325439453125">
        <ele>251</ele>
        <time>2026-08-05T11:03:04.000Z</time>
        <extensions>
          <ns3:TrackPointExtension>
            <ns3:hr>71</ns3:hr>
            <ns3:cad>0</ns3:cad>
          </ns3:TrackPointExtension>
        </extensions>
      </trkpt>
      <trkpt lat="43.471856676042079925537109375" lon="1.43200096674263477325439453125">
        <ele>251</ele>
        <time>2026-08-05T11:03:05.000Z</time>
        <extensions>
          <ns3:TrackPointExtension>
            <ns3:hr>71</ns3:hr>
            <ns3:cad>0</ns3:cad>
          </ns3:TrackPointExtension>
        </extensions>
      </trkpt>
      <trkpt lat="43.471856676042079925537109375" lon="1.43200096674263477325439453125">
        <ele>251.1999969482421875</ele>
        <time>2026-08-05T11:03:06.000Z</time>
        <extensions>
          <ns3:TrackPointExtension>
            <ns3:hr>70</ns3:hr>
            <ns3:cad>0</ns3:cad>
          </ns3:TrackPointExtension>
        </extensions>
      </trkpt>
      <trkpt lat="43.471856676042079925537109375" lon="1.43200096674263477325439453125">
        <ele>251.1999969482421875</ele>
        <time>2026-08-05T11:03:07.000Z</time>
        <extensions>
          <ns3:TrackPointExtension>
            <ns3:hr>70</ns3:hr>
            <ns3:cad>0</ns3:cad>
          </ns3:TrackPointExtension>
        </extensions>
      </trkpt>
      <trkpt lat="43.471856676042079925537109375" lon="1.43200096674263477325439453125">
        <ele>251.399993896484375</ele>
        <time>2026-08-05T11:03:08.000Z</time>
        <extensions>
          <ns3:TrackPointExtension>
            <ns3:hr>70</ns3:hr>
            <ns3:cad>0</ns3:cad>
          </ns3:TrackPointExtension>
        </extensions>
      </trkpt>
      <trkpt lat="43.47185575403273105621337890625" lon="1.43200549297034740447998046875">
        <ele>251.600006103515625</ele>
        <time>2026-08-05T11:03:09.000Z</time>
        <extensions>
          <ns3:TrackPointExtension>
            <ns3:hr>70</ns3:hr>
            <ns3:cad>0</ns3:cad>
          </ns3:TrackPointExtension>
        </extensions>
      </trkpt>
      <trkpt lat="43.4718556702136993408203125" lon="1.43200867809355258941650390625">
        <ele>251.600006103515625</ele>
        <time>2026-08-05T11:03:10.000Z</time>
        <extensions>
          <ns3:TrackPointExtension>
            <ns3:hr>70</ns3:hr>
            <ns3:cad>0</ns3:cad>
          </ns3:TrackPointExtension>
        </extensions>
      </trkpt>
      <trkpt lat="43.47185575403273105621337890625" lon="1.43201236613094806671142578125">
        <ele>251.8000030517578125</ele>
        <time>2026-08-05T11:03:11.000Z</time>
        <extensions>
          <ns3:TrackPointExtension>
            <ns3:hr>70</ns3:hr>
            <ns3:cad>0</ns3:cad>
          </ns3:TrackPointExtension>
        </extensions>
      </trkpt>
      <trkpt lat="43.4718595258891582489013671875" lon="1.4320174790918827056884765625">
        <ele>251.8000030517578125</ele>
        <time>2026-08-05T11:03:12.000Z</time>
        <extensions>
          <ns3:TrackPointExtension>
            <ns3:hr>69</ns3:hr>
            <ns3:cad>0</ns3:cad>
          </ns3:TrackPointExtension>
        </extensions>
      </trkpt>
      <trkpt lat="43.471858687698841094970703125" lon="1.4320251904428005218505859375">
        <ele>252</ele>
        <time>2026-08-05T11:03:13.000Z</time>
        <extensions>
          <ns3:TrackPointExtension>
            <ns3:hr>69</ns3:hr>
            <ns3:cad>0</ns3:cad>
          </ns3:TrackPointExtension>
        </extensions>
      </trkpt>
      <trkpt lat="43.4718612022697925567626953125" lon="1.43202929757535457611083984375">
        <ele>252</ele>
        <time>2026-08-05T11:03:14.000Z</time>
        <extensions>
          <ns3:TrackPointExtension>
            <ns3:hr>68</ns3:hr>
            <ns3:cad>0</ns3:cad>
          </ns3:TrackPointExtension>
        </extensions>
      </trkpt>
      <trkpt lat="43.4718610346317291259765625" lon="1.43202938139438629150390625">
        <ele>252</ele>
        <time>2026-08-05T11:03:15.000Z</time>
        <extensions>
          <ns3:TrackPointExtension>
            <ns3:hr>68</ns3:hr>
            <ns3:cad>0</ns3:cad>
          </ns3:TrackPointExtension>
        </extensions>
      </trkpt>
      <trkpt lat="43.47186036407947540283203125" lon="1.4320325665175914764404296875">
        <ele>251.8000030517578125</ele>
        <time>2026-08-05T11:03:16.000Z</time>
        <extensions>
          <ns3:TrackPointExtension>
            <ns3:hr>68</ns3:hr>
            <ns3:cad>0</ns3:cad>
          </ns3:TrackPointExtension>
        </extensions>
      </trkpt>
      <trkpt lat="43.47186036407947540283203125" lon="1.4320325665175914764404296875">
        <ele>251.8000030517578125</ele>
        <time>2026-08-05T11:03:17.000Z</time>
        <extensions>
          <ns3:TrackPointExtension>
            <ns3:hr>68</ns3:hr>
            <ns3:cad>0</ns3:cad>
          </ns3:TrackPointExtension>
        </extensions>
      </trkpt>
      <trkpt lat="43.47186036407947540283203125" lon="1.4320325665175914764404296875">
        <ele>251.600006103515625</ele>
        <time>2026-08-05T11:03:18.000Z</time>
        <extensions>
          <ns3:TrackPointExtension>
            <ns3:hr>68</ns3:hr>
            <ns3:cad>0</ns3:cad>
          </ns3:TrackPointExtension>
        </extensions>
      </trkpt>
      <trkpt lat="43.47186036407947540283203125" lon="1.4320325665175914764404296875">
        <ele>251.399993896484375</ele>
        <time>2026-08-05T11:03:19.000Z</time>
        <extensions>
          <ns3:TrackPointExtension>
            <ns3:hr>67</ns3:hr>
            <ns3:cad>0</ns3:cad>
          </ns3:TrackPointExtension>
        </extensions>
      </trkpt>
      <trkpt lat="43.47186036407947540283203125" lon="1.4320325665175914764404296875">
        <ele>251.399993896484375</ele>
        <time>2026-08-05T11:03:20.000Z</time>
        <extensions>
          <ns3:TrackPointExtension>
            <ns3:hr>67</ns3:hr>
            <ns3:cad>0</ns3:cad>
          </ns3:TrackPointExtension>
        </extensions>
      </trkpt>
      <trkpt lat="43.47186036407947540283203125" lon="1.4320325665175914764404296875">
        <ele>251.399993896484375</ele>
        <time>2026-08-05T11:03:21.000Z</time>
        <extensions>
          <ns3:TrackPointExtension>
            <ns3:hr>67</ns3:hr>
            <ns3:cad>0</ns3:cad>
          </ns3:TrackPointExtension>
        </extensions>
      </trkpt>
      <trkpt lat="43.47186036407947540283203125" lon="1.4320325665175914764404296875">
        <ele>251.399993896484375</ele>
        <time>2026-08-05T11:03:22.000Z</time>
        <extensions>
          <ns3:TrackPointExtension>
            <ns3:hr>67</ns3:hr>
            <ns3:cad>0</ns3:cad>
          </ns3:TrackPointExtension>
        </extensions>
      </trkpt>
      <trkpt lat="43.47186036407947540283203125" lon="1.4320325665175914764404296875">
        <ele>251.399993896484375</ele>
        <time>2026-08-05T11:03:23.000Z</time>
        <extensions>
          <ns3:TrackPointExtension>
            <ns3:hr>67</ns3:hr>
            <ns3:cad>0</ns3:cad>
          </ns3:TrackPointExtension>
        </extensions>
      </trkpt>
      <trkpt lat="43.47186036407947540283203125" lon="1.4320325665175914764404296875">
        <ele>251.600006103515625</ele>
        <time>2026-08-05T11:03:24.000Z</time>
        <extensions>
          <ns3:TrackPointExtension>
            <ns3:hr>68</ns3:hr>
            <ns3:cad>0</ns3:cad>
          </ns3:TrackPointExtension>
        </extensions>
      </trkpt>
      <trkpt lat="43.47186036407947540283203125" lon="1.4320325665175914764404296875">
        <ele>251.600006103515625</ele>
        <time>2026-08-05T11:03:25.000Z</time>
        <extensions>
          <ns3:TrackPointExtension>
            <ns3:hr>68</ns3:hr>
            <ns3:cad>0</ns3:cad>
          </ns3:TrackPointExtension>
        </extensions>
      </trkpt>
      <trkpt lat="43.47186036407947540283203125" lon="1.4320325665175914764404296875">
        <ele>251.600006103515625</ele>
        <time>2026-08-05T11:03:26.000Z</time>
        <extensions>
          <ns3:TrackPointExtension>
            <ns3:hr>68</ns3:hr>
            <ns3:cad>0</ns3:cad>
          </ns3:TrackPointExtension>
        </extensions>
      </trkpt>
      <trkpt lat="43.47186036407947540283203125" lon="1.4320325665175914764404296875">
        <ele>251.600006103515625</ele>
        <time>2026-08-05T11:03:27.000Z</time>
        <extensions>
          <ns3:TrackPointExtension>
            <ns3:hr>69</ns3:hr>
            <ns3:cad>0</ns3:cad>
          </ns3:TrackPointExtension>
        </extensions>
      </trkpt>
      <trkpt lat="43.47186036407947540283203125" lon="1.4320325665175914764404296875">
        <ele>251.600006103515625</ele>
        <time>2026-08-05T11:03:28.000Z</time>
        <extensions>
          <ns3:TrackPointExtension>
            <ns3:hr>70</ns3:hr>
            <ns3:cad>0</ns3:cad>
          </ns3:TrackPointExtension>
        </extensions>
      </trkpt>
      <trkpt lat="43.47186036407947540283203125" lon="1.4320325665175914764404296875">
        <ele>251.600006103515625</ele>
        <time>2026-08-05T11:03:29.000Z</time>
        <extensions>
          <ns3:TrackPointExtension>
            <ns3:hr>70</ns3:hr>
            <ns3:cad>0</ns3:cad>
          </ns3:TrackPointExtension>
        </extensions>
      </trkpt>
      <trkpt lat="43.47186036407947540283203125" lon="1.4320325665175914764404296875">
        <ele>251.600006103515625</ele>
        <time>2026-08-05T11:03:30.000Z</time>
        <extensions>
          <ns3:TrackPointExtension>
            <ns3:hr>70</ns3:hr>
            <ns3:cad>0</ns3:cad>
          </ns3:TrackPointExtension>
        </extensions>
      </trkpt>
      <trkpt lat="43.47186036407947540283203125" lon="1.4320325665175914764404296875">
        <ele>251.600006103515625</ele>
        <time>2026-08-05T11:03:31.000Z</time>
        <extensions>
          <ns3:TrackPointExtension>
            <ns3:hr>70</ns3:hr>
            <ns3:cad>0</ns3:cad>
          </ns3:TrackPointExtension>
        </extensions>
      </trkpt>
      <trkpt lat="43.47186036407947540283203125" lon="1.4320325665175914764404296875">
        <ele>251.399993896484375</ele>
        <time>2026-08-05T11:03:32.000Z</time>
        <extensions>
          <ns3:TrackPointExtension>
            <ns3:hr>70</ns3:hr>
            <ns3:cad>0</ns3:cad>
          </ns3:TrackPointExtension>
        </extensions>
      </trkpt>
      <trkpt lat="43.47186036407947540283203125" lon="1.4320325665175914764404296875">
        <ele>251.399993896484375</ele>
        <time>2026-08-05T11:03:33.000Z</time>
        <extensions>
          <ns3:TrackPointExtension>
            <ns3:hr>69</ns3:hr>
            <ns3:cad>0</ns3:cad>
          </ns3:TrackPointExtension>
        </extensions>
      </trkpt>
      <trkpt lat="43.47186036407947540283203125" lon="1.4320325665175914764404296875">
        <ele>251.399993896484375</ele>
        <time>2026-08-05T11:03:34.000Z</time>
        <extensions>
          <ns3:TrackPointExtension>
            <ns3:hr>69</ns3:hr>
            <ns3:cad>0</ns3:cad>
          </ns3:TrackPointExtension>
        </extensions>
      </trkpt>
      <trkpt lat="43.47186036407947540283203125" lon="1.4320325665175914764404296875">
        <ele>251.399993896484375</ele>
        <time>2026-08-05T11:03:35.000Z</time>
        <extensions>
          <ns3:TrackPointExtension>
            <ns3:hr>68</ns3:hr>
            <ns3:cad>0</ns3:cad>
          </ns3:TrackPointExtension>
        </extensions>
      </trkpt>
      <trkpt lat="43.47186036407947540283203125" lon="1.4320325665175914764404296875">
        <ele>251.600006103515625</ele>
        <time>2026-08-05T11:03:36.000Z</time>
        <extensions>
          <ns3:TrackPointExtension>
            <ns3:hr>68</ns3:hr>
            <ns3:cad>0</ns3:cad>
          </ns3:TrackPointExtension>
        </extensions>
      </trkpt>
      <trkpt lat="43.47186036407947540283203125" lon="1.4320325665175914764404296875">
        <ele>251.600006103515625</ele>
        <time>2026-08-05T11:03:37.000Z</time>
        <extensions>
          <ns3:TrackPointExtension>
            <ns3:hr>68</ns3:hr>
            <ns3:cad>0</ns3:cad>
          </ns3:TrackPointExtension>
        </extensions>
      </trkpt>
      <trkpt lat="43.47186036407947540283203125" lon="1.4320325665175914764404296875">
        <ele>251.600006103515625</ele>
        <time>2026-08-05T11:03:38.000Z</time>
        <extensions>
          <ns3:TrackPointExtension>
            <ns3:hr>68</ns3:hr>
            <ns3:cad>0</ns3:cad>
          </ns3:TrackPointExtension>
        </extensions>
      </trkpt>
      <trkpt lat="43.47186036407947540283203125" lon="1.4320325665175914764404296875">
        <ele>251.600006103515625</ele>
        <time>2026-08-05T11:03:39.000Z</time>
        <extensions>
          <ns3:TrackPointExtension>
            <ns3:hr>67</ns3:hr>
            <ns3:cad>0</ns3:cad>
          </ns3:TrackPointExtension>
        </extensions>
      </trkpt>
      <trkpt lat="43.47186036407947540283203125" lon="1.4320325665175914764404296875">
        <ele>251.399993896484375</ele>
        <time>2026-08-05T11:03:40.000Z</time>
        <extensions>
          <ns3:TrackPointExtension>
            <ns3:hr>67</ns3:hr>
            <ns3:cad>0</ns3:cad>
          </ns3:TrackPointExtension>
        </extensions>
      </trkpt>
      <trkpt lat="43.47186036407947540283203125" lon="1.4320325665175914764404296875">
        <ele>251.399993896484375</ele>
        <time>2026-08-05T11:03:41.000Z</time>
        <extensions>
          <ns3:TrackPointExtension>
            <ns3:hr>67</ns3:hr>
            <ns3:cad>0</ns3:cad>
          </ns3:TrackPointExtension>
        </extensions>
      </trkpt>
      <trkpt lat="43.47186036407947540283203125" lon="1.4320325665175914764404296875">
        <ele>251.399993896484375</ele>
        <time>2026-08-05T11:03:42.000Z</time>
        <extensions>
          <ns3:TrackPointExtension>
            <ns3:hr>66</ns3:hr>
            <ns3:cad>0</ns3:cad>
          </ns3:TrackPointExtension>
        </extensions>
      </trkpt>
      <trkpt lat="43.47186036407947540283203125" lon="1.4320325665175914764404296875">
        <ele>251.399993896484375</ele>
        <time>2026-08-05T11:03:43.000Z</time>
        <extensions>
          <ns3:TrackPointExtension>
            <ns3:hr>66</ns3:hr>
            <ns3:cad>0</ns3:cad>
          </ns3:TrackPointExtension>
        </extensions>
      </trkpt>
      <trkpt lat="43.47186036407947540283203125" lon="1.4320325665175914764404296875">
        <ele>251.600006103515625</ele>
        <time>2026-08-05T11:03:44.000Z</time>
        <extensions>
          <ns3:TrackPointExtension>
            <ns3:hr>66</ns3:hr>
            <ns3:cad>0</ns3:cad>
          </ns3:TrackPointExtension>
        </extensions>
      </trkpt>
      <trkpt lat="43.47186036407947540283203125" lon="1.4320325665175914764404296875">
        <ele>251.600006103515625</ele>
        <time>2026-08-05T11:03:45.000Z</time>
        <extensions>
          <ns3:TrackPointExtension>
            <ns3:hr>65</ns3:hr>
            <ns3:cad>0</ns3:cad>
          </ns3:TrackPointExtension>
        </extensions>
      </trkpt>
      <trkpt lat="43.47186036407947540283203125" lon="1.4320325665175914764404296875">
        <ele>251.8000030517578125</ele>
        <time>2026-08-05T11:03:46.000Z</time>
        <extensions>
          <ns3:TrackPointExtension>
            <ns3:hr>64</ns3:hr>
            <ns3:cad>0</ns3:cad>
          </ns3:TrackPointExtension>
        </extensions>
      </trkpt>
      <trkpt lat="43.47186036407947540283203125" lon="1.4320325665175914764404296875">
        <ele>251.8000030517578125</ele>
        <time>2026-08-05T11:03:47.000Z</time>
        <extensions>
          <ns3:TrackPointExtension>
            <ns3:hr>64</ns3:hr>
            <ns3:cad>0</ns3:cad>
          </ns3:TrackPointExtension>
        </extensions>
      </trkpt>
      <trkpt lat="43.47186296246945858001708984375" lon="1.43202795647084712982177734375">
        <ele>251.8000030517578125</ele>
        <time>2026-08-05T11:03:48.000Z</time>
        <extensions>
          <ns3:TrackPointExtension>
            <ns3:hr>64</ns3:hr>
            <ns3:cad>0</ns3:cad>
          </ns3:TrackPointExtension>
        </extensions>
      </trkpt>
      <trkpt lat="43.47186564467847347259521484375" lon="1.43201605416834354400634765625">
        <ele>251.8000030517578125</ele>
        <time>2026-08-05T11:03:49.000Z</time>
        <extensions>
          <ns3:TrackPointExtension>
            <ns3:hr>64</ns3:hr>
            <ns3:cad>0</ns3:cad>
          </ns3:TrackPointExtension>
        </extensions>
      </trkpt>
      <trkpt lat="43.47186681814491748809814453125" lon="1.43200658261775970458984375">
        <ele>251.8000030517578125</ele>
        <time>2026-08-05T11:03:50.000Z</time>
        <extensions>
          <ns3:TrackPointExtension>
            <ns3:hr>65</ns3:hr>
            <ns3:cad>0</ns3:cad>
          </ns3:TrackPointExtension>
        </extensions>
      </trkpt>
      <trkpt lat="43.4718682430684566497802734375" lon="1.43199157901108264923095703125">
        <ele>251.8000030517578125</ele>
        <time>2026-08-05T11:03:51.000Z</time>
        <extensions>
          <ns3:TrackPointExtension>
            <ns3:hr>66</ns3:hr>
            <ns3:cad>0</ns3:cad>
          </ns3:TrackPointExtension>
        </extensions>
      </trkpt>
      <trkpt lat="43.4718679077923297882080078125" lon="1.43197632394731044769287109375">
        <ele>251.8000030517578125</ele>
        <time>2026-08-05T11:03:52.000Z</time>
        <extensions>
          <ns3:TrackPointExtension>
            <ns3:hr>66</ns3:hr>
            <ns3:cad>0</ns3:cad>
          </ns3:TrackPointExtension>
        </extensions>
      </trkpt>
      <trkpt lat="43.4718690812587738037109375" lon="1.43196324817836284637451171875">
        <ele>252</ele>
        <time>2026-08-05T11:03:53.000Z</time>
        <extensions>
          <ns3:TrackPointExtension>
            <ns3:hr>66</ns3:hr>
            <ns3:cad>0</ns3:cad>
          </ns3:TrackPointExtension>
        </extensions>
      </trkpt>
      <trkpt lat="43.471870757639408111572265625" lon="1.43194866366684436798095703125">
        <ele>252</ele>
        <time>2026-08-05T11:03:54.000Z</time>
        <extensions>
          <ns3:TrackPointExtension>
            <ns3:hr>67</ns3:hr>
            <ns3:cad>0</ns3:cad>
          </ns3:TrackPointExtension>
        </extensions>
      </trkpt>
      <trkpt lat="43.4718722663819789886474609375" lon="1.43193525262176990509033203125">
        <ele>252.1999969482421875</ele>
        <time>2026-08-05T11:03:55.000Z</time>
        <extensions>
          <ns3:TrackPointExtension>
            <ns3:hr>67</ns3:hr>
            <ns3:cad>0</ns3:cad>
          </ns3:TrackPointExtension>
        </extensions>
      </trkpt>
      <trkpt lat="43.47187318839132785797119140625" lon="1.431925110518932342529296875">
        <ele>252.1999969482421875</ele>
        <time>2026-08-05T11:03:56.000Z</time>
        <extensions>
          <ns3:TrackPointExtension>
            <ns3:hr>67</ns3:hr>
            <ns3:cad>0</ns3:cad>
          </ns3:TrackPointExtension>
        </extensions>
      </trkpt>
      <trkpt lat="43.4718762896955013275146484375" lon="1.43191396258771419525146484375">
        <ele>252.1999969482421875</ele>
        <time>2026-08-05T11:03:57.000Z</time>
        <extensions>
          <ns3:TrackPointExtension>
            <ns3:hr>68</ns3:hr>
            <ns3:cad>79</ns3:cad>
          </ns3:TrackPointExtension>
        </extensions>
      </trkpt>
      <trkpt lat="43.4718771278858184814453125" lon="1.43190340138971805572509765625">
        <ele>252.399993896484375</ele>
        <time>2026-08-05T11:03:58.000Z</time>
        <extensions>
          <ns3:TrackPointExtension>
            <ns3:hr>68</ns3:hr>
            <ns3:cad>79</ns3:cad>
          </ns3:TrackPointExtension>
        </extensions>
      </trkpt>
      <trkpt lat="43.47187888808548450469970703125" lon="1.431895606219768524169921875">
        <ele>252.399993896484375</ele>
        <time>2026-08-05T11:03:59.000Z</time>
        <extensions>
          <ns3:TrackPointExtension>
            <ns3:hr>69</ns3:hr>
            <ns3:cad>0</ns3:cad>
          </ns3:TrackPointExtension>
        </extensions>
      </trkpt>
      <trkpt lat="43.47188048064708709716796875" lon="1.43188412301242351531982421875">
        <ele>252.399993896484375</ele>
        <time>2026-08-05T11:04:00.000Z</time>
        <extensions>
          <ns3:TrackPointExtension>
            <ns3:hr>69</ns3:hr>
            <ns3:cad>0</ns3:cad>
          </ns3:TrackPointExtension>
        </extensions>
      </trkpt>
      <trkpt lat="43.4718803130090236663818359375" lon="1.4318763278424739837646484375">
        <ele>252.1999969482421875</ele>
        <time>2026-08-05T11:04:01.000Z</time>
        <extensions>
          <ns3:TrackPointExtension>
            <ns3:hr>70</ns3:hr>
            <ns3:cad>0</ns3:cad>
          </ns3:TrackPointExtension>
        </extensions>
      </trkpt>
      <trkpt lat="43.4718811511993408203125" lon="1.4318679459393024444580078125">
        <ele>252.1999969482421875</ele>
        <time>2026-08-05T11:04:02.000Z</time>
        <extensions>
          <ns3:TrackPointExtension>
            <ns3:hr>71</ns3:hr>
            <ns3:cad>0</ns3:cad>
          </ns3:TrackPointExtension>
        </extensions>
      </trkpt>
      <trkpt lat="43.4718809835612773895263671875" lon="1.4318548701703548431396484375">
        <ele>252.1999969482421875</ele>
        <time>2026-08-05T11:04:03.000Z</time>
        <extensions>
          <ns3:TrackPointExtension>
            <ns3:hr>72</ns3:hr>
            <ns3:cad>0</ns3:cad>
          </ns3:TrackPointExtension>
        </extensions>
      </trkpt>
      <trkpt lat="43.47188240848481655120849609375" lon="1.43184422515332698822021484375">
        <ele>252.1999969482421875</ele>
        <time>2026-08-05T11:04:04.000Z</time>
        <extensions>
          <ns3:TrackPointExtension>
            <ns3:hr>73</ns3:hr>
            <ns3:cad>0</ns3:cad>
          </ns3:TrackPointExtension>
        </extensions>
      </trkpt>
      <trkpt lat="43.47188358195126056671142578125" lon="1.4318374358117580413818359375">
        <ele>252.1999969482421875</ele>
        <time>2026-08-05T11:04:05.000Z</time>
        <extensions>
          <ns3:TrackPointExtension>
            <ns3:hr>73</ns3:hr>
            <ns3:cad>0</ns3:cad>
          </ns3:TrackPointExtension>
        </extensions>
      </trkpt>
      <trkpt lat="43.47188307903707027435302734375" lon="1.43182687461376190185546875">
        <ele>252.1999969482421875</ele>
        <time>2026-08-05T11:04:06.000Z</time>
        <extensions>
          <ns3:TrackPointExtension>
            <ns3:hr>73</ns3:hr>
            <ns3:cad>0</ns3:cad>
          </ns3:TrackPointExtension>
        </extensions>
      </trkpt>
      <trkpt lat="43.4718826599419116973876953125" lon="1.43181472085416316986083984375">
        <ele>252.399993896484375</ele>
        <time>2026-08-05T11:04:07.000Z</time>
        <extensions>
          <ns3:TrackPointExtension>
            <ns3:hr>73</ns3:hr>
            <ns3:cad>0</ns3:cad>
          </ns3:TrackPointExtension>
        </extensions>
      </trkpt>
      <trkpt lat="43.47188391722738742828369140625" lon="1.43180550076067447662353515625">
        <ele>252.399993896484375</ele>
        <time>2026-08-05T11:04:08.000Z</time>
        <extensions>
          <ns3:TrackPointExtension>
            <ns3:hr>73</ns3:hr>
            <ns3:cad>40</ns3:cad>
          </ns3:TrackPointExtension>
        </extensions>
      </trkpt>
      <trkpt lat="43.47188341431319713592529296875" lon="1.43178974278271198272705078125">
        <ele>252.399993896484375</ele>
        <time>2026-08-05T11:04:09.000Z</time>
        <extensions>
          <ns3:TrackPointExtension>
            <ns3:hr>73</ns3:hr>
            <ns3:cad>40</ns3:cad>
          </ns3:TrackPointExtension>
        </extensions>
      </trkpt>
      <trkpt lat="43.47188425250351428985595703125" lon="1.43178001977503299713134765625">
        <ele>252.600006103515625</ele>
        <time>2026-08-05T11:04:10.000Z</time>
        <extensions>
          <ns3:TrackPointExtension>
            <ns3:hr>74</ns3:hr>
            <ns3:cad>40</ns3:cad>
          </ns3:TrackPointExtension>
        </extensions>
      </trkpt>
      <trkpt lat="43.4718856774270534515380859375" lon="1.43176778219640254974365234375">
        <ele>252.8000030517578125</ele>
        <time>2026-08-05T11:04:11.000Z</time>
        <extensions>
          <ns3:TrackPointExtension>
            <ns3:hr>74</ns3:hr>
            <ns3:cad>41</ns3:cad>
          </ns3:TrackPointExtension>
        </extensions>
      </trkpt>
      <trkpt lat="43.471885509788990020751953125" lon="1.4317583106458187103271484375">
        <ele>252.8000030517578125</ele>
        <time>2026-08-05T11:04:12.000Z</time>
        <extensions>
          <ns3:TrackPointExtension>
            <ns3:hr>74</ns3:hr>
            <ns3:cad>41</ns3:cad>
          </ns3:TrackPointExtension>
        </extensions>
      </trkpt>
      <trkpt lat="43.47188492305576801300048828125" lon="1.43175286240875720977783203125">
        <ele>253</ele>
        <time>2026-08-05T11:04:13.000Z</time>
        <extensions>
          <ns3:TrackPointExtension>
            <ns3:hr>74</ns3:hr>
            <ns3:cad>0</ns3:cad>
          </ns3:TrackPointExtension>
        </extensions>
      </trkpt>
      <trkpt lat="43.4718851745128631591796875" lon="1.431749761104583740234375">
        <ele>253</ele>
        <time>2026-08-05T11:04:14.000Z</time>
        <extensions>
          <ns3:TrackPointExtension>
            <ns3:hr>73</ns3:hr>
            <ns3:cad>0</ns3:cad>
          </ns3:TrackPointExtension>
        </extensions>
      </trkpt>
      <trkpt lat="43.47188592888414859771728515625" lon="1.43175043165683746337890625">
        <ele>253</ele>
        <time>2026-08-05T11:04:15.000Z</time>
        <extensions>
          <ns3:TrackPointExtension>
            <ns3:hr>74</ns3:hr>
            <ns3:cad>0</ns3:cad>
          </ns3:TrackPointExtension>
        </extensions>
      </trkpt>
      <trkpt lat="43.47188592888414859771728515625" lon="1.43175118602812290191650390625">
        <ele>252.8000030517578125</ele>
        <time>2026-08-05T11:04:16.000Z</time>
        <extensions>
          <ns3:TrackPointExtension>
            <ns3:hr>74</ns3:hr>
            <ns3:cad>0</ns3:cad>
          </ns3:TrackPointExtension>
        </extensions>
      </trkpt>
      <trkpt lat="43.47188643179833889007568359375" lon="1.43174733035266399383544921875">
        <ele>252.8000030517578125</ele>
        <time>2026-08-05T11:04:17.000Z</time>
        <extensions>
          <ns3:TrackPointExtension>
            <ns3:hr>74</ns3:hr>
            <ns3:cad>0</ns3:cad>
          </ns3:TrackPointExtension>
        </extensions>
      </trkpt>
      <trkpt lat="43.47188693471252918243408203125" lon="1.43174498341977596282958984375">
        <ele>252.600006103515625</ele>
        <time>2026-08-05T11:04:18.000Z</time>
        <extensions>
          <ns3:TrackPointExtension>
            <ns3:hr>74</ns3:hr>
            <ns3:cad>0</ns3:cad>
          </ns3:TrackPointExtension>
        </extensions>
      </trkpt>
      <trkpt lat="43.47188609652221202850341796875" lon="1.43174448050558567047119140625">
        <ele>252.399993896484375</ele>
        <time>2026-08-05T11:04:19.000Z</time>
        <extensions>
          <ns3:TrackPointExtension>
            <ns3:hr>74</ns3:hr>
            <ns3:cad>0</ns3:cad>
          </ns3:TrackPointExtension>
        </extensions>
      </trkpt>
      <trkpt lat="43.4718856774270534515380859375" lon="1.4317442290484905242919921875">
        <ele>252.399993896484375</ele>
        <time>2026-08-05T11:04:20.000Z</time>
        <extensions>
          <ns3:TrackPointExtension>
            <ns3:hr>74</ns3:hr>
            <ns3:cad>0</ns3:cad>
          </ns3:TrackPointExtension>
        </extensions>
      </trkpt>
      <trkpt lat="43.4718856774270534515380859375" lon="1.4317442290484905242919921875">
        <ele>252.399993896484375</ele>
        <time>2026-08-05T11:04:21.000Z</time>
        <extensions>
          <ns3:TrackPointExtension>
            <ns3:hr>74</ns3:hr>
            <ns3:cad>0</ns3:cad>
          </ns3:TrackPointExtension>
        </extensions>
      </trkpt>
      <trkpt lat="43.4718856774270534515380859375" lon="1.4317442290484905242919921875">
        <ele>252.399993896484375</ele>
        <time>2026-08-05T11:04:22.000Z</time>
        <extensions>
          <ns3:TrackPointExtension>
            <ns3:hr>74</ns3:hr>
            <ns3:cad>0</ns3:cad>
          </ns3:TrackPointExtension>
        </extensions>
      </trkpt>
      <trkpt lat="43.4718856774270534515380859375" lon="1.4317442290484905242919921875">
        <ele>252.399993896484375</ele>
        <time>2026-08-05T11:04:23.000Z</time>
        <extensions>
          <ns3:TrackPointExtension>
            <ns3:hr>75</ns3:hr>
            <ns3:cad>0</ns3:cad>
          </ns3:TrackPointExtension>
        </extensions>
      </trkpt>
      <trkpt lat="43.4718856774270534515380859375" lon="1.4317442290484905242919921875">
        <ele>252.399993896484375</ele>
        <time>2026-08-05T11:04:24.000Z</time>
        <extensions>
          <ns3:TrackPointExtension>
            <ns3:hr>74</ns3:hr>
            <ns3:cad>0</ns3:cad>
          </ns3:TrackPointExtension>
        </extensions>
      </trkpt>
      <trkpt lat="43.4718856774270534515380859375" lon="1.4317442290484905242919921875">
        <ele>252.399993896484375</ele>
        <time>2026-08-05T11:04:25.000Z</time>
        <extensions>
          <ns3:TrackPointExtension>
            <ns3:hr>72</ns3:hr>
            <ns3:cad>0</ns3:cad>
          </ns3:TrackPointExtension>
        </extensions>
      </trkpt>
      <trkpt lat="43.4718856774270534515380859375" lon="1.4317442290484905242919921875">
        <ele>252.399993896484375</ele>
        <time>2026-08-05T11:04:26.000Z</time>
        <extensions>
          <ns3:TrackPointExtension>
            <ns3:hr>71</ns3:hr>
            <ns3:cad>0</ns3:cad>
          </ns3:TrackPointExtension>
        </extensions>
      </trkpt>
      <trkpt lat="43.4718856774270534515380859375" lon="1.4317442290484905242919921875">
        <ele>252.399993896484375</ele>
        <time>2026-08-05T11:04:27.000Z</time>
        <extensions>
          <ns3:TrackPointExtension>
            <ns3:hr>70</ns3:hr>
            <ns3:cad>0</ns3:cad>
          </ns3:TrackPointExtension>
        </extensions>
      </trkpt>
      <trkpt lat="43.4718856774270534515380859375" lon="1.4317442290484905242919921875">
        <ele>252.399993896484375</ele>
        <time>2026-08-05T11:04:28.000Z</time>
        <extensions>
          <ns3:TrackPointExtension>
            <ns3:hr>69</ns3:hr>
            <ns3:cad>0</ns3:cad>
          </ns3:TrackPointExtension>
        </extensions>
      </trkpt>
      <trkpt lat="43.4718856774270534515380859375" lon="1.4317442290484905242919921875">
        <ele>252.399993896484375</ele>
        <time>2026-08-05T11:04:29.000Z</time>
        <extensions>
          <ns3:TrackPointExtension>
            <ns3:hr>69</ns3:hr>
            <ns3:cad>0</ns3:cad>
          </ns3:TrackPointExtension>
        </extensions>
      </trkpt>
      <trkpt lat="43.4718856774270534515380859375" lon="1.4317442290484905242919921875">
        <ele>252.399993896484375</ele>
        <time>2026-08-05T11:04:30.000Z</time>
        <extensions>
          <ns3:TrackPointExtension>
            <ns3:hr>69</ns3:hr>
            <ns3:cad>0</ns3:cad>
          </ns3:TrackPointExtension>
        </extensions>
      </trkpt>
      <trkpt lat="43.4718856774270534515380859375" lon="1.4317442290484905242919921875">
        <ele>252.1999969482421875</ele>
        <time>2026-08-05T11:04:31.000Z</time>
        <extensions>
          <ns3:TrackPointExtension>
            <ns3:hr>68</ns3:hr>
            <ns3:cad>0</ns3:cad>
          </ns3:TrackPointExtension>
        </extensions>
      </trkpt>
      <trkpt lat="43.4718856774270534515380859375" lon="1.4317442290484905242919921875">
        <ele>252.1999969482421875</ele>
        <time>2026-08-05T11:04:32.000Z</time>
        <extensions>
          <ns3:TrackPointExtension>
            <ns3:hr>67</ns3:hr>
            <ns3:cad>0</ns3:cad>
          </ns3:TrackPointExtension>
        </extensions>
      </trkpt>
      <trkpt lat="43.4718856774270534515380859375" lon="1.4317442290484905242919921875">
        <ele>252</ele>
        <time>2026-08-05T11:04:33.000Z</time>
        <extensions>
          <ns3:TrackPointExtension>
            <ns3:hr>67</ns3:hr>
            <ns3:cad>0</ns3:cad>
          </ns3:TrackPointExtension>
        </extensions>
      </trkpt>
      <trkpt lat="43.4718856774270534515380859375" lon="1.4317442290484905242919921875">
        <ele>251.8000030517578125</ele>
        <time>2026-08-05T11:04:34.000Z</time>
        <extensions>
          <ns3:TrackPointExtension>
            <ns3:hr>68</ns3:hr>
            <ns3:cad>0</ns3:cad>
          </ns3:TrackPointExtension>
        </extensions>
      </trkpt>
      <trkpt lat="43.4718856774270534515380859375" lon="1.4317442290484905242919921875">
        <ele>251.8000030517578125</ele>
        <time>2026-08-05T11:04:35.000Z</time>
        <extensions>
          <ns3:TrackPointExtension>
            <ns3:hr>68</ns3:hr>
            <ns3:cad>0</ns3:cad>
          </ns3:TrackPointExtension>
        </extensions>
      </trkpt>
      <trkpt lat="43.4718856774270534515380859375" lon="1.4317442290484905242919921875">
        <ele>252</ele>
        <time>2026-08-05T11:04:36.000Z</time>
        <extensions>
          <ns3:TrackPointExtension>
            <ns3:hr>68</ns3:hr>
            <ns3:cad>0</ns3:cad>
          </ns3:TrackPointExtension>
        </extensions>
      </trkpt>
      <trkpt lat="43.4718856774270534515380859375" lon="1.4317442290484905242919921875">
        <ele>252</ele>
        <time>2026-08-05T11:04:37.000Z</time>
        <extensions>
          <ns3:TrackPointExtension>
            <ns3:hr>69</ns3:hr>
            <ns3:cad>0</ns3:cad>
          </ns3:TrackPointExtension>
        </extensions>
      </trkpt>
      <trkpt lat="43.4718856774270534515380859375" lon="1.4317442290484905242919921875">
        <ele>252.1999969482421875</ele>
        <time>2026-08-05T11:04:38.000Z</time>
        <extensions>
          <ns3:TrackPointExtension>
            <ns3:hr>69</ns3:hr>
            <ns3:cad>0</ns3:cad>
          </ns3:TrackPointExtension>
        </extensions>
      </trkpt>
      <trkpt lat="43.4718856774270534515380859375" lon="1.4317442290484905242919921875">
        <ele>252.399993896484375</ele>
        <time>2026-08-05T11:04:39.000Z</time>
        <extensions>
          <ns3:TrackPointExtension>
            <ns3:hr>69</ns3:hr>
            <ns3:cad>0</ns3:cad>
          </ns3:TrackPointExtension>
        </extensions>
      </trkpt>
      <trkpt lat="43.4718856774270534515380859375" lon="1.4317442290484905242919921875">
        <ele>252.1999969482421875</ele>
        <time>2026-08-05T11:04:40.000Z</time>
        <extensions>
          <ns3:TrackPointExtension>
            <ns3:hr>70</ns3:hr>
            <ns3:cad>0</ns3:cad>
          </ns3:TrackPointExtension>
        </extensions>
      </trkpt>
      <trkpt lat="43.4718856774270534515380859375" lon="1.4317442290484905242919921875">
        <ele>252.399993896484375</ele>
        <time>2026-08-05T11:04:41.000Z</time>
        <extensions>
          <ns3:TrackPointExtension>
            <ns3:hr>71</ns3:hr>
            <ns3:cad>0</ns3:cad>
          </ns3:TrackPointExtension>
        </extensions>
      </trkpt>
      <trkpt lat="43.4718856774270534515380859375" lon="1.4317442290484905242919921875">
        <ele>252.399993896484375</ele>
        <time>2026-08-05T11:04:42.000Z</time>
        <extensions>
          <ns3:TrackPointExtension>
            <ns3:hr>71</ns3:hr>
            <ns3:cad>0</ns3:cad>
          </ns3:TrackPointExtension>
        </extensions>
      </trkpt>
      <trkpt lat="43.4718856774270534515380859375" lon="1.4317442290484905242919921875">
        <ele>252.1999969482421875</ele>
        <time>2026-08-05T11:04:43.000Z</time>
        <extensions>
          <ns3:TrackPointExtension>
            <ns3:hr>71</ns3:hr>
            <ns3:cad>0</ns3:cad>
          </ns3:TrackPointExtension>
        </extensions>
      </trkpt>
      <trkpt lat="43.4718856774270534515380859375" lon="1.4317442290484905242919921875">
        <ele>252.1999969482421875</ele>
        <time>2026-08-05T11:04:44.000Z</time>
        <extensions>
          <ns3:TrackPointExtension>
            <ns3:hr>71</ns3:hr>
            <ns3:cad>0</ns3:cad>
          </ns3:TrackPointExtension>
        </extensions>
      </trkpt>
      <trkpt lat="43.4718856774270534515380859375" lon="1.4317442290484905242919921875">
        <ele>252.399993896484375</ele>
        <time>2026-08-05T11:04:45.000Z</time>
        <extensions>
          <ns3:TrackPointExtension>
            <ns3:hr>72</ns3:hr>
            <ns3:cad>0</ns3:cad>
          </ns3:TrackPointExtension>
        </extensions>
      </trkpt>
      <trkpt lat="43.4718856774270534515380859375" lon="1.4317442290484905242919921875">
        <ele>252.399993896484375</ele>
        <time>2026-08-05T11:04:46.000Z</time>
        <extensions>
          <ns3:TrackPointExtension>
            <ns3:hr>71</ns3:hr>
            <ns3:cad>0</ns3:cad>
          </ns3:TrackPointExtension>
        </extensions>
      </trkpt>
      <trkpt lat="43.4718856774270534515380859375" lon="1.4317442290484905242919921875">
        <ele>252.600006103515625</ele>
        <time>2026-08-05T11:04:47.000Z</time>
        <extensions>
          <ns3:TrackPointExtension>
            <ns3:hr>71</ns3:hr>
            <ns3:cad>0</ns3:cad>
          </ns3:TrackPointExtension>
        </extensions>
      </trkpt>
      <trkpt lat="43.4718856774270534515380859375" lon="1.4317442290484905242919921875">
        <ele>252.600006103515625</ele>
        <time>2026-08-05T11:04:48.000Z</time>
        <extensions>
          <ns3:TrackPointExtension>
            <ns3:hr>71</ns3:hr>
            <ns3:cad>0</ns3:cad>
          </ns3:TrackPointExtension>
        </extensions>
      </trkpt>
      <trkpt lat="43.4718856774270534515380859375" lon="1.4317442290484905242919921875">
        <ele>252.8000030517578125</ele>
        <time>2026-08-05T11:04:49.000Z</time>
        <extensions>
          <ns3:TrackPointExtension>
            <ns3:hr>72</ns3:hr>
            <ns3:cad>0</ns3:cad>
          </ns3:TrackPointExtension>
        </extensions>
      </trkpt>
      <trkpt lat="43.4718856774270534515380859375" lon="1.4317442290484905242919921875">
        <ele>252.8000030517578125</ele>
        <time>2026-08-05T11:04:50.000Z</time>
        <extensions>
          <ns3:TrackPointExtension>
            <ns3:hr>72</ns3:hr>
            <ns3:cad>0</ns3:cad>
          </ns3:TrackPointExtension>
        </extensions>
      </trkpt>
      <trkpt lat="43.4718856774270534515380859375" lon="1.4317442290484905242919921875">
        <ele>252.600006103515625</ele>
        <time>2026-08-05T11:04:51.000Z</time>
        <extensions>
          <ns3:TrackPointExtension>
            <ns3:hr>72</ns3:hr>
            <ns3:cad>0</ns3:cad>
          </ns3:TrackPointExtension>
        </extensions>
      </trkpt>
      <trkpt lat="43.4718856774270534515380859375" lon="1.4317442290484905242919921875">
        <ele>252.600006103515625</ele>
        <time>2026-08-05T11:04:52.000Z</time>
        <extensions>
          <ns3:TrackPointExtension>
            <ns3:hr>72</ns3:hr>
            <ns3:cad>0</ns3:cad>
          </ns3:TrackPointExtension>
        </extensions>
      </trkpt>
      <trkpt lat="43.4718856774270534515380859375" lon="1.4317442290484905242919921875">
        <ele>252.600006103515625</ele>
        <time>2026-08-05T11:04:53.000Z</time>
        <extensions>
          <ns3:TrackPointExtension>
            <ns3:hr>73</ns3:hr>
            <ns3:cad>0</ns3:cad>
          </ns3:TrackPointExtension>
        </extensions>
      </trkpt>
      <trkpt lat="43.471883833408355712890625" lon="1.43173727206885814666748046875">
        <ele>252.600006103515625</ele>
        <time>2026-08-05T11:04:54.000Z</time>
        <extensions>
          <ns3:TrackPointExtension>
            <ns3:hr>73</ns3:hr>
            <ns3:cad>0</ns3:cad>
          </ns3:TrackPointExtension>
        </extensions>
      </trkpt>
      <trkpt lat="43.4718878567218780517578125" lon="1.43172386102378368377685546875">
        <ele>252.600006103515625</ele>
        <time>2026-08-05T11:04:55.000Z</time>
        <extensions>
          <ns3:TrackPointExtension>
            <ns3:hr>73</ns3:hr>
            <ns3:cad>0</ns3:cad>
          </ns3:TrackPointExtension>
        </extensions>
      </trkpt>
      <trkpt lat="43.4718873538076877593994140625" lon="1.43172092735767364501953125">
        <ele>252.600006103515625</ele>
        <time>2026-08-05T11:04:56.000Z</time>
        <extensions>
          <ns3:TrackPointExtension>
            <ns3:hr>74</ns3:hr>
            <ns3:cad>0</ns3:cad>
          </ns3:TrackPointExtension>
        </extensions>
      </trkpt>
      <trkpt lat="43.47188718616962432861328125" lon="1.43172084353864192962646484375">
        <ele>252.8000030517578125</ele>
        <time>2026-08-05T11:04:57.000Z</time>
        <extensions>
          <ns3:TrackPointExtension>
            <ns3:hr>74</ns3:hr>
            <ns3:cad>0</ns3:cad>
          </ns3:TrackPointExtension>
        </extensions>
      </trkpt>
      <trkpt lat="43.47188718616962432861328125" lon="1.43172084353864192962646484375">
        <ele>252.8000030517578125</ele>
        <time>2026-08-05T11:04:58.000Z</time>
        <extensions>
          <ns3:TrackPointExtension>
            <ns3:hr>74</ns3:hr>
            <ns3:cad>0</ns3:cad>
          </ns3:TrackPointExtension>
        </extensions>
      </trkpt>
      <trkpt lat="43.47188718616962432861328125" lon="1.43172084353864192962646484375">
        <ele>252.600006103515625</ele>
        <time>2026-08-05T11:04:59.000Z</time>
        <extensions>
          <ns3:TrackPointExtension>
            <ns3:hr>74</ns3:hr>
            <ns3:cad>0</ns3:cad>
          </ns3:TrackPointExtension>
        </extensions>
      </trkpt>
      <trkpt lat="43.4718870185315608978271484375" lon="1.43172034062445163726806640625">
        <ele>252.600006103515625</ele>
        <time>2026-08-05T11:05:00.000Z</time>
        <extensions>
          <ns3:TrackPointExtension>
            <ns3:hr>73</ns3:hr>
            <ns3:cad>0</ns3:cad>
          </ns3:TrackPointExtension>
        </extensions>
      </trkpt>
      <trkpt lat="43.47188777290284633636474609375" lon="1.431703828275203704833984375">
        <ele>252.600006103515625</ele>
        <time>2026-08-05T11:05:01.000Z</time>
        <extensions>
          <ns3:TrackPointExtension>
            <ns3:hr>73</ns3:hr>
            <ns3:cad>0</ns3:cad>
          </ns3:TrackPointExtension>
        </extensions>
      </trkpt>
      <trkpt lat="43.47188760526478290557861328125" lon="1.43169879913330078125">
        <ele>252.600006103515625</ele>
        <time>2026-08-05T11:05:02.000Z</time>
        <extensions>
          <ns3:TrackPointExtension>
            <ns3:hr>73</ns3:hr>
            <ns3:cad>67</ns3:cad>
          </ns3:TrackPointExtension>
        </extensions>
      </trkpt>
      <trkpt lat="43.47188794054090976715087890625" lon="1.431693769991397857666015625">
        <ele>252.600006103515625</ele>
        <time>2026-08-05T11:05:03.000Z</time>
        <extensions>
          <ns3:TrackPointExtension>
            <ns3:hr>74</ns3:hr>
            <ns3:cad>67</ns3:cad>
          </ns3:TrackPointExtension>
        </extensions>
      </trkpt>
      <trkpt lat="43.4718886949121952056884765625" lon="1.43168932758271694183349609375">
        <ele>252.8000030517578125</ele>
        <time>2026-08-05T11:05:04.000Z</time>
        <extensions>
          <ns3:TrackPointExtension>
            <ns3:hr>73</ns3:hr>
            <ns3:cad>0</ns3:cad>
          </ns3:TrackPointExtension>
        </extensions>
      </trkpt>
      <trkpt lat="43.4718893654644489288330078125" lon="1.43168681301176548004150390625">
        <ele>252.8000030517578125</ele>
        <time>2026-08-05T11:05:05.000Z</time>
        <extensions>
          <ns3:TrackPointExtension>
            <ns3:hr>73</ns3:hr>
            <ns3:cad>0</ns3:cad>
          </ns3:TrackPointExtension>
        </extensions>
      </trkpt>
      <trkpt lat="43.47188894636929035186767578125" lon="1.431687064468860626220703125">
        <ele>252.8000030517578125</ele>
        <time>2026-08-05T11:05:06.000Z</time>
        <extensions>
          <ns3:TrackPointExtension>
            <ns3:hr>73</ns3:hr>
            <ns3:cad>0</ns3:cad>
          </ns3:TrackPointExtension>
        </extensions>
      </trkpt>
      <trkpt lat="43.47188894636929035186767578125" lon="1.431687064468860626220703125">
        <ele>252.8000030517578125</ele>
        <time>2026-08-05T11:05:07.000Z</time>
        <extensions>
          <ns3:TrackPointExtension>
            <ns3:hr>73</ns3:hr>
            <ns3:cad>0</ns3:cad>
          </ns3:TrackPointExtension>
        </extensions>
      </trkpt>
      <trkpt lat="43.47188894636929035186767578125" lon="1.431687064468860626220703125">
        <ele>252.8000030517578125</ele>
        <time>2026-08-05T11:05:08.000Z</time>
        <extensions>
          <ns3:TrackPointExtension>
            <ns3:hr>73</ns3:hr>
            <ns3:cad>0</ns3:cad>
          </ns3:TrackPointExtension>
        </extensions>
      </trkpt>
      <trkpt lat="43.47188995219767093658447265625" lon="1.43168270587921142578125">
        <ele>252.8000030517578125</ele>
        <time>2026-08-05T11:05:09.000Z</time>
        <extensions>
          <ns3:TrackPointExtension>
            <ns3:hr>73</ns3:hr>
            <ns3:cad>0</ns3:cad>
          </ns3:TrackPointExtension>
        </extensions>
      </trkpt>
      <trkpt lat="43.471890203654766082763671875" lon="1.43167943693697452545166015625">
        <ele>252.8000030517578125</ele>
        <time>2026-08-05T11:05:10.000Z</time>
        <extensions>
          <ns3:TrackPointExtension>
            <ns3:hr>74</ns3:hr>
            <ns3:cad>0</ns3:cad>
          </ns3:TrackPointExtension>
        </extensions>
      </trkpt>
      <trkpt lat="43.4718907065689563751220703125" lon="1.43167273141443729400634765625">
        <ele>252.8000030517578125</ele>
        <time>2026-08-05T11:05:11.000Z</time>
        <extensions>
          <ns3:TrackPointExtension>
            <ns3:hr>74</ns3:hr>
            <ns3:cad>0</ns3:cad>
          </ns3:TrackPointExtension>
        </extensions>
      </trkpt>
      <trkpt lat="43.4718913771212100982666015625" lon="1.43165546469390392303466796875">
        <ele>252.8000030517578125</ele>
        <time>2026-08-05T11:05:12.000Z</time>
        <extensions>
          <ns3:TrackPointExtension>
            <ns3:hr>73</ns3:hr>
            <ns3:cad>0</ns3:cad>
          </ns3:TrackPointExtension>
        </extensions>
      </trkpt>
      <trkpt lat="43.471891544759273529052734375" lon="1.4316506870090961456298828125">
        <ele>252.8000030517578125</ele>
        <time>2026-08-05T11:05:13.000Z</time>
        <extensions>
          <ns3:TrackPointExtension>
            <ns3:hr>72</ns3:hr>
            <ns3:cad>0</ns3:cad>
          </ns3:TrackPointExtension>
        </extensions>
      </trkpt>
      <trkpt lat="43.4718883596360683441162109375" lon="1.4316473342478275299072265625">
        <ele>252.600006103515625</ele>
        <time>2026-08-05T11:05:14.000Z</time>
        <extensions>
          <ns3:TrackPointExtension>
            <ns3:hr>71</ns3:hr>
            <ns3:cad>0</ns3:cad>
          </ns3:TrackPointExtension>
        </extensions>
      </trkpt>
      <trkpt lat="43.4718897007405757904052734375" lon="1.4316443167626857757568359375">
        <ele>252.600006103515625</ele>
        <time>2026-08-05T11:05:15.000Z</time>
        <extensions>
          <ns3:TrackPointExtension>
            <ns3:hr>70</ns3:hr>
            <ns3:cad>0</ns3:cad>
          </ns3:TrackPointExtension>
        </extensions>
      </trkpt>
      <trkpt lat="43.47189011983573436737060546875" lon="1.43163786269724369049072265625">
        <ele>252.600006103515625</ele>
        <time>2026-08-05T11:05:16.000Z</time>
        <extensions>
          <ns3:TrackPointExtension>
            <ns3:hr>70</ns3:hr>
            <ns3:cad>0</ns3:cad>
          </ns3:TrackPointExtension>
        </extensions>
      </trkpt>
      <trkpt lat="43.471893556416034698486328125" lon="1.43163115717470645904541015625">
        <ele>252.399993896484375</ele>
        <time>2026-08-05T11:05:17.000Z</time>
        <extensions>
          <ns3:TrackPointExtension>
            <ns3:hr>69</ns3:hr>
            <ns3:cad>0</ns3:cad>
          </ns3:TrackPointExtension>
        </extensions>
      </trkpt>
      <trkpt lat="43.47189732827246189117431640625" lon="1.4316223561763763427734375">
        <ele>252.399993896484375</ele>
        <time>2026-08-05T11:05:18.000Z</time>
        <extensions>
          <ns3:TrackPointExtension>
            <ns3:hr>70</ns3:hr>
            <ns3:cad>0</ns3:cad>
          </ns3:TrackPointExtension>
        </extensions>
      </trkpt>
      <trkpt lat="43.47189900465309619903564453125" lon="1.43161229789257049560546875">
        <ele>252.399993896484375</ele>
        <time>2026-08-05T11:05:19.000Z</time>
        <extensions>
          <ns3:TrackPointExtension>
            <ns3:hr>70</ns3:hr>
            <ns3:cad>0</ns3:cad>
          </ns3:TrackPointExtension>
        </extensions>
      </trkpt>
      <trkpt lat="43.47190118394792079925537109375" lon="1.43159997649490833282470703125">
        <ele>252.399993896484375</ele>
        <time>2026-08-05T11:05:20.000Z</time>
        <extensions>
          <ns3:TrackPointExtension>
            <ns3:hr>70</ns3:hr>
            <ns3:cad>0</ns3:cad>
          </ns3:TrackPointExtension>
        </extensions>
      </trkpt>
      <trkpt lat="43.4719039499759674072265625" lon="1.4315955340862274169921875">
        <ele>252.399993896484375</ele>
        <time>2026-08-05T11:05:21.000Z</time>
        <extensions>
          <ns3:TrackPointExtension>
            <ns3:hr>70</ns3:hr>
            <ns3:cad>0</ns3:cad>
          </ns3:TrackPointExtension>
        </extensions>
      </trkpt>
      <trkpt lat="43.47190755419433116912841796875" lon="1.4315874874591827392578125">
        <ele>252.600006103515625</ele>
        <time>2026-08-05T11:05:22.000Z</time>
        <extensions>
          <ns3:TrackPointExtension>
            <ns3:hr>70</ns3:hr>
            <ns3:cad>0</ns3:cad>
          </ns3:TrackPointExtension>
        </extensions>
      </trkpt>
      <trkpt lat="43.47190990112721920013427734375" lon="1.43157952465116977691650390625">
        <ele>252.600006103515625</ele>
        <time>2026-08-05T11:05:23.000Z</time>
        <extensions>
          <ns3:TrackPointExtension>
            <ns3:hr>70</ns3:hr>
            <ns3:cad>0</ns3:cad>
          </ns3:TrackPointExtension>
        </extensions>
      </trkpt>
      <trkpt lat="43.4719111584126949310302734375" lon="1.43156728707253932952880859375">
        <ele>252.600006103515625</ele>
        <time>2026-08-05T11:05:24.000Z</time>
        <extensions>
          <ns3:TrackPointExtension>
            <ns3:hr>70</ns3:hr>
            <ns3:cad>0</ns3:cad>
          </ns3:TrackPointExtension>
        </extensions>
      </trkpt>
      <trkpt lat="43.4719121642410755157470703125" lon="1.4315579831600189208984375">
        <ele>252.600006103515625</ele>
        <time>2026-08-05T11:05:25.000Z</time>
        <extensions>
          <ns3:TrackPointExtension>
            <ns3:hr>70</ns3:hr>
            <ns3:cad>0</ns3:cad>
          </ns3:TrackPointExtension>
        </extensions>
      </trkpt>
      <trkpt lat="43.4719124995172023773193359375" lon="1.4315504394471645355224609375">
        <ele>252.600006103515625</ele>
        <time>2026-08-05T11:05:26.000Z</time>
        <extensions>
          <ns3:TrackPointExtension>
            <ns3:hr>70</ns3:hr>
            <ns3:cad>0</ns3:cad>
          </ns3:TrackPointExtension>
        </extensions>
      </trkpt>
      <trkpt lat="43.47191400825977325439453125" lon="1.43154390156269073486328125">
        <ele>252.600006103515625</ele>
        <time>2026-08-05T11:05:27.000Z</time>
        <extensions>
          <ns3:TrackPointExtension>
            <ns3:hr>69</ns3:hr>
            <ns3:cad>0</ns3:cad>
          </ns3:TrackPointExtension>
        </extensions>
      </trkpt>
      <trkpt lat="43.47191308625042438507080078125" lon="1.43153727985918521881103515625">
        <ele>252.600006103515625</ele>
        <time>2026-08-05T11:05:28.000Z</time>
        <extensions>
          <ns3:TrackPointExtension>
            <ns3:hr>70</ns3:hr>
            <ns3:cad>0</ns3:cad>
          </ns3:TrackPointExtension>
        </extensions>
      </trkpt>
      <trkpt lat="43.47191266715526580810546875" lon="1.43153057433664798736572265625">
        <ele>252.399993896484375</ele>
        <time>2026-08-05T11:05:29.000Z</time>
        <extensions>
          <ns3:TrackPointExtension>
            <ns3:hr>70</ns3:hr>
            <ns3:cad>0</ns3:cad>
          </ns3:TrackPointExtension>
        </extensions>
      </trkpt>
      <trkpt lat="43.47191493026912212371826171875" lon="1.4315259642899036407470703125">
        <ele>252.399993896484375</ele>
        <time>2026-08-05T11:05:30.000Z</time>
        <extensions>
          <ns3:TrackPointExtension>
            <ns3:hr>69</ns3:hr>
            <ns3:cad>0</ns3:cad>
          </ns3:TrackPointExtension>
        </extensions>
      </trkpt>
      <trkpt lat="43.47191425971686840057373046875" lon="1.43152051605284214019775390625">
        <ele>252.1999969482421875</ele>
        <time>2026-08-05T11:05:31.000Z</time>
        <extensions>
          <ns3:TrackPointExtension>
            <ns3:hr>70</ns3:hr>
            <ns3:cad>0</ns3:cad>
          </ns3:TrackPointExtension>
        </extensions>
      </trkpt>
      <trkpt lat="43.4719155170023441314697265625" lon="1.4315155707299709320068359375">
        <ele>252</ele>
        <time>2026-08-05T11:05:32.000Z</time>
        <extensions>
          <ns3:TrackPointExtension>
            <ns3:hr>71</ns3:hr>
            <ns3:cad>0</ns3:cad>
          </ns3:TrackPointExtension>
        </extensions>
      </trkpt>
      <trkpt lat="43.471915014088153839111328125" lon="1.431512050330638885498046875">
        <ele>252</ele>
        <time>2026-08-05T11:05:33.000Z</time>
        <extensions>
          <ns3:TrackPointExtension>
            <ns3:hr>71</ns3:hr>
            <ns3:cad>0</ns3:cad>
          </ns3:TrackPointExtension>
        </extensions>
      </trkpt>
      <trkpt lat="43.47191643901169300079345703125" lon="1.43150660209357738494873046875">
        <ele>252.1999969482421875</ele>
        <time>2026-08-05T11:05:34.000Z</time>
        <extensions>
          <ns3:TrackPointExtension>
            <ns3:hr>72</ns3:hr>
            <ns3:cad>0</ns3:cad>
          </ns3:TrackPointExtension>
        </extensions>
      </trkpt>
      <trkpt lat="43.47191660664975643157958984375" lon="1.43150107003748416900634765625">
        <ele>252.1999969482421875</ele>
        <time>2026-08-05T11:05:35.000Z</time>
        <extensions>
          <ns3:TrackPointExtension>
            <ns3:hr>72</ns3:hr>
            <ns3:cad>0</ns3:cad>
          </ns3:TrackPointExtension>
        </extensions>
      </trkpt>
      <trkpt lat="43.47191744484007358551025390625" lon="1.43149637617170810699462890625">
        <ele>252.399993896484375</ele>
        <time>2026-08-05T11:05:36.000Z</time>
        <extensions>
          <ns3:TrackPointExtension>
            <ns3:hr>72</ns3:hr>
            <ns3:cad>0</ns3:cad>
          </ns3:TrackPointExtension>
        </extensions>
      </trkpt>
      <trkpt lat="43.4719168581068515777587890625" lon="1.4314961247146129608154296875">
        <ele>252.600006103515625</ele>
        <time>2026-08-05T11:05:37.000Z</time>
        <extensions>
          <ns3:TrackPointExtension>
            <ns3:hr>72</ns3:hr>
            <ns3:cad>0</ns3:cad>
          </ns3:TrackPointExtension>
        </extensions>
      </trkpt>
      <trkpt lat="43.4719168581068515777587890625" lon="1.4314961247146129608154296875">
        <ele>252.8000030517578125</ele>
        <time>2026-08-05T11:05:38.000Z</time>
        <extensions>
          <ns3:TrackPointExtension>
            <ns3:hr>72</ns3:hr>
            <ns3:cad>0</ns3:cad>
          </ns3:TrackPointExtension>
        </extensions>
      </trkpt>
      <trkpt lat="43.4719168581068515777587890625" lon="1.4314961247146129608154296875">
        <ele>253</ele>
        <time>2026-08-05T11:05:39.000Z</time>
        <extensions>
          <ns3:TrackPointExtension>
            <ns3:hr>73</ns3:hr>
            <ns3:cad>0</ns3:cad>
          </ns3:TrackPointExtension>
        </extensions>
      </trkpt>
      <trkpt lat="43.4719168581068515777587890625" lon="1.4314961247146129608154296875">
        <ele>253.1999969482421875</ele>
        <time>2026-08-05T11:05:40.000Z</time>
        <extensions>
          <ns3:TrackPointExtension>
            <ns3:hr>73</ns3:hr>
            <ns3:cad>0</ns3:cad>
          </ns3:TrackPointExtension>
        </extensions>
      </trkpt>
      <trkpt lat="43.4719168581068515777587890625" lon="1.4314961247146129608154296875">
        <ele>253.1999969482421875</ele>
        <time>2026-08-05T11:05:41.000Z</time>
        <extensions>
          <ns3:TrackPointExtension>
            <ns3:hr>75</ns3:hr>
            <ns3:cad>0</ns3:cad>
          </ns3:TrackPointExtension>
        </extensions>
      </trkpt>
      <trkpt lat="43.4719168581068515777587890625" lon="1.4314961247146129608154296875">
        <ele>253.1999969482421875</ele>
        <time>2026-08-05T11:05:42.000Z</time>
        <extensions>
          <ns3:TrackPointExtension>
            <ns3:hr>75</ns3:hr>
            <ns3:cad>0</ns3:cad>
          </ns3:TrackPointExtension>
        </extensions>
      </trkpt>
      <trkpt lat="43.47191610373556613922119140625" lon="1.43149562180042266845703125">
        <ele>253.1999969482421875</ele>
        <time>2026-08-05T11:05:43.000Z</time>
        <extensions>
          <ns3:TrackPointExtension>
            <ns3:hr>74</ns3:hr>
            <ns3:cad>0</ns3:cad>
          </ns3:TrackPointExtension>
        </extensions>
      </trkpt>
      <trkpt lat="43.47191543318331241607666015625" lon="1.43148531205952167510986328125">
        <ele>253</ele>
        <time>2026-08-05T11:05:44.000Z</time>
        <extensions>
          <ns3:TrackPointExtension>
            <ns3:hr>73</ns3:hr>
            <ns3:cad>0</ns3:cad>
          </ns3:TrackPointExtension>
        </extensions>
      </trkpt>
      <trkpt lat="43.4719175286591053009033203125" lon="1.43147089518606662750244140625">
        <ele>252.8000030517578125</ele>
        <time>2026-08-05T11:05:45.000Z</time>
        <extensions>
          <ns3:TrackPointExtension>
            <ns3:hr>73</ns3:hr>
            <ns3:cad>0</ns3:cad>
          </ns3:TrackPointExtension>
        </extensions>
      </trkpt>
      <trkpt lat="43.4719181992113590240478515625" lon="1.431461088359355926513671875">
        <ele>252.8000030517578125</ele>
        <time>2026-08-05T11:05:46.000Z</time>
        <extensions>
          <ns3:TrackPointExtension>
            <ns3:hr>73</ns3:hr>
            <ns3:cad>0</ns3:cad>
          </ns3:TrackPointExtension>
        </extensions>
      </trkpt>
      <trkpt lat="43.4719178639352321624755859375" lon="1.43144725821912288665771484375">
        <ele>252.600006103515625</ele>
        <time>2026-08-05T11:05:47.000Z</time>
        <extensions>
          <ns3:TrackPointExtension>
            <ns3:hr>73</ns3:hr>
            <ns3:cad>0</ns3:cad>
          </ns3:TrackPointExtension>
        </extensions>
      </trkpt>
      <trkpt lat="43.47191979177296161651611328125" lon="1.43143116496503353118896484375">
        <ele>252.600006103515625</ele>
        <time>2026-08-05T11:05:48.000Z</time>
        <extensions>
          <ns3:TrackPointExtension>
            <ns3:hr>72</ns3:hr>
            <ns3:cad>0</ns3:cad>
          </ns3:TrackPointExtension>
        </extensions>
      </trkpt>
      <trkpt lat="43.47191962413489818572998046875" lon="1.43142320215702056884765625">
        <ele>252.600006103515625</ele>
        <time>2026-08-05T11:05:49.000Z</time>
        <extensions>
          <ns3:TrackPointExtension>
            <ns3:hr>72</ns3:hr>
            <ns3:cad>0</ns3:cad>
          </ns3:TrackPointExtension>
        </extensions>
      </trkpt>
      <trkpt lat="43.471919707953929901123046875" lon="1.431411467492580413818359375">
        <ele>252.399993896484375</ele>
        <time>2026-08-05T11:05:50.000Z</time>
        <extensions>
          <ns3:TrackPointExtension>
            <ns3:hr>72</ns3:hr>
            <ns3:cad>40</ns3:cad>
          </ns3:TrackPointExtension>
        </extensions>
      </trkpt>
      <trkpt lat="43.4719218872487545013427734375" lon="1.4314024150371551513671875">
        <ele>252.1999969482421875</ele>
        <time>2026-08-05T11:05:51.000Z</time>
        <extensions>
          <ns3:TrackPointExtension>
            <ns3:hr>73</ns3:hr>
            <ns3:cad>40</ns3:cad>
          </ns3:TrackPointExtension>
        </extensions>
      </trkpt>
      <trkpt lat="43.47192280925810337066650390625" lon="1.43139235675334930419921875">
        <ele>251.8000030517578125</ele>
        <time>2026-08-05T11:05:52.000Z</time>
        <extensions>
          <ns3:TrackPointExtension>
            <ns3:hr>73</ns3:hr>
            <ns3:cad>40</ns3:cad>
          </ns3:TrackPointExtension>
        </extensions>
      </trkpt>
      <trkpt lat="43.4719249047338962554931640625" lon="1.4313851483166217803955078125">
        <ele>251.600006103515625</ele>
        <time>2026-08-05T11:05:53.000Z</time>
        <extensions>
          <ns3:TrackPointExtension>
            <ns3:hr>73</ns3:hr>
            <ns3:cad>0</ns3:cad>
          </ns3:TrackPointExtension>
        </extensions>
      </trkpt>
      <trkpt lat="43.47192733548581600189208984375" lon="1.431377269327640533447265625">
        <ele>251.399993896484375</ele>
        <time>2026-08-05T11:05:54.000Z</time>
        <extensions>
          <ns3:TrackPointExtension>
            <ns3:hr>73</ns3:hr>
            <ns3:cad>0</ns3:cad>
          </ns3:TrackPointExtension>
        </extensions>
      </trkpt>
      <trkpt lat="43.47193052060902118682861328125" lon="1.4313693903386592864990234375">
        <ele>251</ele>
        <time>2026-08-05T11:05:55.000Z</time>
        <extensions>
          <ns3:TrackPointExtension>
            <ns3:hr>73</ns3:hr>
            <ns3:cad>0</ns3:cad>
          </ns3:TrackPointExtension>
        </extensions>
      </trkpt>
      <trkpt lat="43.47193186171352863311767578125" lon="1.4313603378832340240478515625">
        <ele>251</ele>
        <time>2026-08-05T11:05:56.000Z</time>
        <extensions>
          <ns3:TrackPointExtension>
            <ns3:hr>74</ns3:hr>
            <ns3:cad>0</ns3:cad>
          </ns3:TrackPointExtension>
        </extensions>
      </trkpt>
      <trkpt lat="43.47193303517997264862060546875" lon="1.4313522912561893463134765625">
        <ele>251</ele>
        <time>2026-08-05T11:05:57.000Z</time>
        <extensions>
          <ns3:TrackPointExtension>
            <ns3:hr>73</ns3:hr>
            <ns3:cad>0</ns3:cad>
          </ns3:TrackPointExtension>
        </extensions>
      </trkpt>
      <trkpt lat="43.47193521447479724884033203125" lon="1.43134667538106441497802734375">
        <ele>251</ele>
        <time>2026-08-05T11:05:58.000Z</time>
        <extensions>
          <ns3:TrackPointExtension>
            <ns3:hr>73</ns3:hr>
            <ns3:cad>0</ns3:cad>
          </ns3:TrackPointExtension>
        </extensions>
      </trkpt>
      <trkpt lat="43.4719352982938289642333984375" lon="1.43133980222046375274658203125">
        <ele>251.1999969482421875</ele>
        <time>2026-08-05T11:05:59.000Z</time>
        <extensions>
          <ns3:TrackPointExtension>
            <ns3:hr>73</ns3:hr>
            <ns3:cad>0</ns3:cad>
          </ns3:TrackPointExtension>
        </extensions>
      </trkpt>
      <trkpt lat="43.47193672321736812591552734375" lon="1.4313321746885776519775390625">
        <ele>251.1999969482421875</ele>
        <time>2026-08-05T11:06:00.000Z</time>
        <extensions>
          <ns3:TrackPointExtension>
            <ns3:hr>73</ns3:hr>
            <ns3:cad>0</ns3:cad>
          </ns3:TrackPointExtension>
        </extensions>
      </trkpt>
      <trkpt lat="43.47194015979766845703125" lon="1.43132689408957958221435546875">
        <ele>251.1999969482421875</ele>
        <time>2026-08-05T11:06:01.000Z</time>
        <extensions>
          <ns3:TrackPointExtension>
            <ns3:hr>72</ns3:hr>
            <ns3:cad>0</ns3:cad>
          </ns3:TrackPointExtension>
        </extensions>
      </trkpt>
      <trkpt lat="43.47194158472120761871337890625" lon="1.4313214458525180816650390625">
        <ele>251.1999969482421875</ele>
        <time>2026-08-05T11:06:02.000Z</time>
        <extensions>
          <ns3:TrackPointExtension>
            <ns3:hr>73</ns3:hr>
            <ns3:cad>0</ns3:cad>
          </ns3:TrackPointExtension>
        </extensions>
      </trkpt>
      <trkpt lat="43.4719436801970005035400390625" lon="1.4313154108822345733642578125">
        <ele>251.399993896484375</ele>
        <time>2026-08-05T11:06:03.000Z</time>
        <extensions>
          <ns3:TrackPointExtension>
            <ns3:hr>75</ns3:hr>
            <ns3:cad>0</ns3:cad>
          </ns3:TrackPointExtension>
        </extensions>
      </trkpt>
      <trkpt lat="43.47194644622504711151123046875" lon="1.4313093759119510650634765625">
        <ele>251.399993896484375</ele>
        <time>2026-08-05T11:06:04.000Z</time>
        <extensions>
          <ns3:TrackPointExtension>
            <ns3:hr>76</ns3:hr>
            <ns3:cad>0</ns3:cad>
          </ns3:TrackPointExtension>
        </extensions>
      </trkpt>
      <trkpt lat="43.47194829024374485015869140625" lon="1.43130174838006496429443359375">
        <ele>251.1999969482421875</ele>
        <time>2026-08-05T11:06:05.000Z</time>
        <extensions>
          <ns3:TrackPointExtension>
            <ns3:hr>77</ns3:hr>
            <ns3:cad>0</ns3:cad>
          </ns3:TrackPointExtension>
        </extensions>
      </trkpt>
      <trkpt lat="43.47195097245275974273681640625" lon="1.43129571340978145599365234375">
        <ele>251.1999969482421875</ele>
        <time>2026-08-05T11:06:06.000Z</time>
        <extensions>
          <ns3:TrackPointExtension>
            <ns3:hr>77</ns3:hr>
            <ns3:cad>0</ns3:cad>
          </ns3:TrackPointExtension>
        </extensions>
      </trkpt>
      <trkpt lat="43.47195482812821865081787109375" lon="1.43128766678273677825927734375">
        <ele>251</ele>
        <time>2026-08-05T11:06:07.000Z</time>
        <extensions>
          <ns3:TrackPointExtension>
            <ns3:hr>77</ns3:hr>
            <ns3:cad>0</ns3:cad>
          </ns3:TrackPointExtension>
        </extensions>
      </trkpt>
      <trkpt lat="43.47195834852755069732666015625" lon="1.43127844668924808502197265625">
        <ele>251</ele>
        <time>2026-08-05T11:06:08.000Z</time>
        <extensions>
          <ns3:TrackPointExtension>
            <ns3:hr>76</ns3:hr>
            <ns3:cad>0</ns3:cad>
          </ns3:TrackPointExtension>
        </extensions>
      </trkpt>
      <trkpt lat="43.47196119837462902069091796875" lon="1.43127090297639369964599609375">
        <ele>251</ele>
        <time>2026-08-05T11:06:09.000Z</time>
        <extensions>
          <ns3:TrackPointExtension>
            <ns3:hr>76</ns3:hr>
            <ns3:cad>0</ns3:cad>
          </ns3:TrackPointExtension>
        </extensions>
      </trkpt>
      <trkpt lat="43.47196103073656558990478515625" lon="1.4312654547393321990966796875">
        <ele>251</ele>
        <time>2026-08-05T11:06:10.000Z</time>
        <extensions>
          <ns3:TrackPointExtension>
            <ns3:hr>76</ns3:hr>
            <ns3:cad>0</ns3:cad>
          </ns3:TrackPointExtension>
        </extensions>
      </trkpt>
      <trkpt lat="43.47196094691753387451171875" lon="1.43126470036804676055908203125">
        <ele>251</ele>
        <time>2026-08-05T11:06:11.000Z</time>
        <extensions>
          <ns3:TrackPointExtension>
            <ns3:hr>76</ns3:hr>
            <ns3:cad>0</ns3:cad>
          </ns3:TrackPointExtension>
        </extensions>
      </trkpt>
      <trkpt lat="43.47196094691753387451171875" lon="1.43126470036804676055908203125">
        <ele>251</ele>
        <time>2026-08-05T11:06:12.000Z</time>
        <extensions>
          <ns3:TrackPointExtension>
            <ns3:hr>75</ns3:hr>
            <ns3:cad>0</ns3:cad>
          </ns3:TrackPointExtension>
        </extensions>
      </trkpt>
      <trkpt lat="43.47196086309850215911865234375" lon="1.43126386217772960662841796875">
        <ele>251</ele>
        <time>2026-08-05T11:06:13.000Z</time>
        <extensions>
          <ns3:TrackPointExtension>
            <ns3:hr>75</ns3:hr>
            <ns3:cad>0</ns3:cad>
          </ns3:TrackPointExtension>
        </extensions>
      </trkpt>
      <trkpt lat="43.47196656279265880584716796875" lon="1.4312510378658771514892578125">
        <ele>251</ele>
        <time>2026-08-05T11:06:14.000Z</time>
        <extensions>
          <ns3:TrackPointExtension>
            <ns3:hr>75</ns3:hr>
            <ns3:cad>0</ns3:cad>
          </ns3:TrackPointExtension>
        </extensions>
      </trkpt>
      <trkpt lat="43.471970669925212860107421875" lon="1.4312413148581981658935546875">
        <ele>250.8000030517578125</ele>
        <time>2026-08-05T11:06:15.000Z</time>
        <extensions>
          <ns3:TrackPointExtension>
            <ns3:hr>70</ns3:hr>
            <ns3:cad>0</ns3:cad>
          </ns3:TrackPointExtension>
        </extensions>
      </trkpt>
      <trkpt lat="43.4719735197722911834716796875" lon="1.43122966401278972625732421875">
        <ele>250.8000030517578125</ele>
        <time>2026-08-05T11:06:16.000Z</time>
        <extensions>
          <ns3:TrackPointExtension>
            <ns3:hr>71</ns3:hr>
            <ns3:cad>0</ns3:cad>
          </ns3:TrackPointExtension>
        </extensions>
      </trkpt>
      <trkpt lat="43.47197762690484523773193359375" lon="1.43122279085218906402587890625">
        <ele>250.8000030517578125</ele>
        <time>2026-08-05T11:06:17.000Z</time>
        <extensions>
          <ns3:TrackPointExtension>
            <ns3:hr>70</ns3:hr>
            <ns3:cad>0</ns3:cad>
          </ns3:TrackPointExtension>
        </extensions>
      </trkpt>
      <trkpt lat="43.4719805605709552764892578125" lon="1.43121524713933467864990234375">
        <ele>250.8000030517578125</ele>
        <time>2026-08-05T11:06:18.000Z</time>
        <extensions>
          <ns3:TrackPointExtension>
            <ns3:hr>70</ns3:hr>
            <ns3:cad>0</ns3:cad>
          </ns3:TrackPointExtension>
        </extensions>
      </trkpt>
      <trkpt lat="43.47198374569416046142578125" lon="1.431206278502941131591796875">
        <ele>251</ele>
        <time>2026-08-05T11:06:19.000Z</time>
        <extensions>
          <ns3:TrackPointExtension>
            <ns3:hr>70</ns3:hr>
            <ns3:cad>0</ns3:cad>
          </ns3:TrackPointExtension>
        </extensions>
      </trkpt>
      <trkpt lat="43.471987433731555938720703125" lon="1.43119814805686473846435546875">
        <ele>251</ele>
        <time>2026-08-05T11:06:20.000Z</time>
        <extensions>
          <ns3:TrackPointExtension>
            <ns3:hr>71</ns3:hr>
            <ns3:cad>0</ns3:cad>
          </ns3:TrackPointExtension>
        </extensions>
      </trkpt>
      <trkpt lat="43.47198952920734882354736328125" lon="1.43119043670594692230224609375">
        <ele>251</ele>
        <time>2026-08-05T11:06:21.000Z</time>
        <extensions>
          <ns3:TrackPointExtension>
            <ns3:hr>70</ns3:hr>
            <ns3:cad>0</ns3:cad>
          </ns3:TrackPointExtension>
        </extensions>
      </trkpt>
      <trkpt lat="43.47199170850217342376708984375" lon="1.431181132793426513671875">
        <ele>251</ele>
        <time>2026-08-05T11:06:22.000Z</time>
        <extensions>
          <ns3:TrackPointExtension>
            <ns3:hr>69</ns3:hr>
            <ns3:cad>0</ns3:cad>
          </ns3:TrackPointExtension>
        </extensions>
      </trkpt>
      <trkpt lat="43.4719949774444103240966796875" lon="1.43117400817573070526123046875">
        <ele>251</ele>
        <time>2026-08-05T11:06:23.000Z</time>
        <extensions>
          <ns3:TrackPointExtension>
            <ns3:hr>69</ns3:hr>
            <ns3:cad>76</ns3:cad>
          </ns3:TrackPointExtension>
        </extensions>
      </trkpt>
      <trkpt lat="43.47199849784374237060546875" lon="1.4311628602445125579833984375">
        <ele>250.8000030517578125</ele>
        <time>2026-08-05T11:06:24.000Z</time>
        <extensions>
          <ns3:TrackPointExtension>
            <ns3:hr>69</ns3:hr>
            <ns3:cad>76</ns3:cad>
          </ns3:TrackPointExtension>
        </extensions>
      </trkpt>
      <trkpt lat="43.4720023535192012786865234375" lon="1.43114903010427951812744140625">
        <ele>250.8000030517578125</ele>
        <time>2026-08-05T11:06:25.000Z</time>
        <extensions>
          <ns3:TrackPointExtension>
            <ns3:hr>69</ns3:hr>
            <ns3:cad>76</ns3:cad>
          </ns3:TrackPointExtension>
        </extensions>
      </trkpt>
      <trkpt lat="43.4720070473849773406982421875" lon="1.431135870516300201416015625">
        <ele>250.8000030517578125</ele>
        <time>2026-08-05T11:06:26.000Z</time>
        <extensions>
          <ns3:TrackPointExtension>
            <ns3:hr>70</ns3:hr>
            <ns3:cad>43</ns3:cad>
          </ns3:TrackPointExtension>
        </extensions>
      </trkpt>
      <trkpt lat="43.47201098687946796417236328125" lon="1.4311246387660503387451171875">
        <ele>250.8000030517578125</ele>
        <time>2026-08-05T11:06:27.000Z</time>
        <extensions>
          <ns3:TrackPointExtension>
            <ns3:hr>70</ns3:hr>
            <ns3:cad>43</ns3:cad>
          </ns3:TrackPointExtension>
        </extensions>
      </trkpt>
      <trkpt lat="43.4720154292881488800048828125" lon="1.4311142452061176300048828125">
        <ele>250.600006103515625</ele>
        <time>2026-08-05T11:06:28.000Z</time>
        <extensions>
          <ns3:TrackPointExtension>
            <ns3:hr>70</ns3:hr>
            <ns3:cad>44</ns3:cad>
          </ns3:TrackPointExtension>
        </extensions>
      </trkpt>
      <trkpt lat="43.47202037461102008819580078125" lon="1.4311055280268192291259765625">
        <ele>250.600006103515625</ele>
        <time>2026-08-05T11:06:29.000Z</time>
        <extensions>
          <ns3:TrackPointExtension>
            <ns3:hr>71</ns3:hr>
            <ns3:cad>45</ns3:cad>
          </ns3:TrackPointExtension>
        </extensions>
      </trkpt>
      <trkpt lat="43.47202339209616184234619140625" lon="1.43109731376171112060546875">
        <ele>250.600006103515625</ele>
        <time>2026-08-05T11:06:30.000Z</time>
        <extensions>
          <ns3:TrackPointExtension>
            <ns3:hr>72</ns3:hr>
            <ns3:cad>46</ns3:cad>
          </ns3:TrackPointExtension>
        </extensions>
      </trkpt>
      <trkpt lat="43.47202573902904987335205078125" lon="1.43108817748725414276123046875">
        <ele>250.399993896484375</ele>
        <time>2026-08-05T11:06:31.000Z</time>
        <extensions>
          <ns3:TrackPointExtension>
            <ns3:hr>72</ns3:hr>
            <ns3:cad>46</ns3:cad>
          </ns3:TrackPointExtension>
        </extensions>
      </trkpt>
      <trkpt lat="43.47203009761869907379150390625" lon="1.4310793764889240264892578125">
        <ele>250.399993896484375</ele>
        <time>2026-08-05T11:06:32.000Z</time>
        <extensions>
          <ns3:TrackPointExtension>
            <ns3:hr>73</ns3:hr>
            <ns3:cad>46</ns3:cad>
          </ns3:TrackPointExtension>
        </extensions>
      </trkpt>
      <trkpt lat="43.472034372389316558837890625" lon="1.4310713298618793487548828125">
        <ele>250.1999969482421875</ele>
        <time>2026-08-05T11:06:33.000Z</time>
        <extensions>
          <ns3:TrackPointExtension>
            <ns3:hr>74</ns3:hr>
            <ns3:cad>0</ns3:cad>
          </ns3:TrackPointExtension>
        </extensions>
      </trkpt>
      <trkpt lat="43.472037725150585174560546875" lon="1.43106185831129550933837890625">
        <ele>250.1999969482421875</ele>
        <time>2026-08-05T11:06:34.000Z</time>
        <extensions>
          <ns3:TrackPointExtension>
            <ns3:hr>75</ns3:hr>
            <ns3:cad>45</ns3:cad>
          </ns3:TrackPointExtension>
        </extensions>
      </trkpt>
      <trkpt lat="43.47204116173088550567626953125" lon="1.43105515278875827789306640625">
        <ele>250.1999969482421875</ele>
        <time>2026-08-05T11:06:35.000Z</time>
        <extensions>
          <ns3:TrackPointExtension>
            <ns3:hr>75</ns3:hr>
            <ns3:cad>0</ns3:cad>
          </ns3:TrackPointExtension>
        </extensions>
      </trkpt>
      <trkpt lat="43.47204451449215412139892578125" lon="1.43104509450495243072509765625">
        <ele>250.1999969482421875</ele>
        <time>2026-08-05T11:06:36.000Z</time>
        <extensions>
          <ns3:TrackPointExtension>
            <ns3:hr>77</ns3:hr>
            <ns3:cad>0</ns3:cad>
          </ns3:TrackPointExtension>
        </extensions>
      </trkpt>
      <trkpt lat="43.4720466099679470062255859375" lon="1.4310374669730663299560546875">
        <ele>250.1999969482421875</ele>
        <time>2026-08-05T11:06:37.000Z</time>
        <extensions>
          <ns3:TrackPointExtension>
            <ns3:hr>78</ns3:hr>
            <ns3:cad>0</ns3:cad>
          </ns3:TrackPointExtension>
        </extensions>
      </trkpt>
      <trkpt lat="43.47204945981502532958984375" lon="1.431029252707958221435546875">
        <ele>250.1999969482421875</ele>
        <time>2026-08-05T11:06:38.000Z</time>
        <extensions>
          <ns3:TrackPointExtension>
            <ns3:hr>78</ns3:hr>
            <ns3:cad>0</ns3:cad>
          </ns3:TrackPointExtension>
        </extensions>
      </trkpt>
      <trkpt lat="43.47205289639532566070556640625" lon="1.4310193620622158050537109375">
        <ele>250.1999969482421875</ele>
        <time>2026-08-05T11:06:39.000Z</time>
        <extensions>
          <ns3:TrackPointExtension>
            <ns3:hr>78</ns3:hr>
            <ns3:cad>0</ns3:cad>
          </ns3:TrackPointExtension>
        </extensions>
      </trkpt>
      <trkpt lat="43.47205708734691143035888671875" lon="1.4310093037784099578857421875">
        <ele>250.1999969482421875</ele>
        <time>2026-08-05T11:06:40.000Z</time>
        <extensions>
          <ns3:TrackPointExtension>
            <ns3:hr>78</ns3:hr>
            <ns3:cad>0</ns3:cad>
          </ns3:TrackPointExtension>
        </extensions>
      </trkpt>
      <trkpt lat="43.47206094302237033843994140625" lon="1.43099949695169925689697265625">
        <ele>250.1999969482421875</ele>
        <time>2026-08-05T11:06:41.000Z</time>
        <extensions>
          <ns3:TrackPointExtension>
            <ns3:hr>77</ns3:hr>
            <ns3:cad>43</ns3:cad>
          </ns3:TrackPointExtension>
        </extensions>
      </trkpt>
      <trkpt lat="43.47206421196460723876953125" lon="1.43099094741046428680419921875">
        <ele>250.1999969482421875</ele>
        <time>2026-08-05T11:06:42.000Z</time>
        <extensions>
          <ns3:TrackPointExtension>
            <ns3:hr>77</ns3:hr>
            <ns3:cad>43</ns3:cad>
          </ns3:TrackPointExtension>
        </extensions>
      </trkpt>
      <trkpt lat="43.47206764854490756988525390625" lon="1.4309828169643878936767578125">
        <ele>250</ele>
        <time>2026-08-05T11:06:43.000Z</time>
        <extensions>
          <ns3:TrackPointExtension>
            <ns3:hr>77</ns3:hr>
            <ns3:cad>43</ns3:cad>
          </ns3:TrackPointExtension>
        </extensions>
      </trkpt>
      <trkpt lat="43.4720702469348907470703125" lon="1.43097535707056522369384765625">
        <ele>250</ele>
        <time>2026-08-05T11:06:44.000Z</time>
        <extensions>
          <ns3:TrackPointExtension>
            <ns3:hr>76</ns3:hr>
            <ns3:cad>43</ns3:cad>
          </ns3:TrackPointExtension>
        </extensions>
      </trkpt>
      <trkpt lat="43.4720724262297153472900390625" lon="1.430966556072235107421875">
        <ele>250</ele>
        <time>2026-08-05T11:06:45.000Z</time>
        <extensions>
          <ns3:TrackPointExtension>
            <ns3:hr>76</ns3:hr>
            <ns3:cad>0</ns3:cad>
          </ns3:TrackPointExtension>
        </extensions>
      </trkpt>
      <trkpt lat="43.472075946629047393798828125" lon="1.43095741979777812957763671875">
        <ele>250</ele>
        <time>2026-08-05T11:06:46.000Z</time>
        <extensions>
          <ns3:TrackPointExtension>
            <ns3:hr>76</ns3:hr>
            <ns3:cad>0</ns3:cad>
          </ns3:TrackPointExtension>
        </extensions>
      </trkpt>
      <trkpt lat="43.47207988612353801727294921875" lon="1.43094786442816257476806640625">
        <ele>250</ele>
        <time>2026-08-05T11:06:47.000Z</time>
        <extensions>
          <ns3:TrackPointExtension>
            <ns3:hr>76</ns3:hr>
            <ns3:cad>0</ns3:cad>
          </ns3:TrackPointExtension>
        </extensions>
      </trkpt>
      <trkpt lat="43.4720844961702823638916015625" lon="1.43093830905854701995849609375">
        <ele>249.8000030517578125</ele>
        <time>2026-08-05T11:06:48.000Z</time>
        <extensions>
          <ns3:TrackPointExtension>
            <ns3:hr>76</ns3:hr>
            <ns3:cad>0</ns3:cad>
          </ns3:TrackPointExtension>
        </extensions>
      </trkpt>
      <trkpt lat="43.47208843566477298736572265625" lon="1.4309303462505340576171875">
        <ele>249.8000030517578125</ele>
        <time>2026-08-05T11:06:49.000Z</time>
        <extensions>
          <ns3:TrackPointExtension>
            <ns3:hr>75</ns3:hr>
            <ns3:cad>0</ns3:cad>
          </ns3:TrackPointExtension>
        </extensions>
      </trkpt>
      <trkpt lat="43.4720915369689464569091796875" lon="1.43092104233801364898681640625">
        <ele>249.8000030517578125</ele>
        <time>2026-08-05T11:06:50.000Z</time>
        <extensions>
          <ns3:TrackPointExtension>
            <ns3:hr>75</ns3:hr>
            <ns3:cad>0</ns3:cad>
          </ns3:TrackPointExtension>
        </extensions>
      </trkpt>
      <trkpt lat="43.4720955602824687957763671875" lon="1.43091383390128612518310546875">
        <ele>249.8000030517578125</ele>
        <time>2026-08-05T11:06:51.000Z</time>
        <extensions>
          <ns3:TrackPointExtension>
            <ns3:hr>74</ns3:hr>
            <ns3:cad>0</ns3:cad>
          </ns3:TrackPointExtension>
        </extensions>
      </trkpt>
      <trkpt lat="43.4720975719392299652099609375" lon="1.43090360797941684722900390625">
        <ele>249.8000030517578125</ele>
        <time>2026-08-05T11:06:52.000Z</time>
        <extensions>
          <ns3:TrackPointExtension>
            <ns3:hr>74</ns3:hr>
            <ns3:cad>0</ns3:cad>
          </ns3:TrackPointExtension>
        </extensions>
      </trkpt>
      <trkpt lat="43.4721015952527523040771484375" lon="1.43089212477207183837890625">
        <ele>249.8000030517578125</ele>
        <time>2026-08-05T11:06:53.000Z</time>
        <extensions>
          <ns3:TrackPointExtension>
            <ns3:hr>75</ns3:hr>
            <ns3:cad>0</ns3:cad>
          </ns3:TrackPointExtension>
        </extensions>
      </trkpt>
      <trkpt lat="43.4721046127378940582275390625" lon="1.4308842457830905914306640625">
        <ele>250</ele>
        <time>2026-08-05T11:06:54.000Z</time>
        <extensions>
          <ns3:TrackPointExtension>
            <ns3:hr>75</ns3:hr>
            <ns3:cad>0</ns3:cad>
          </ns3:TrackPointExtension>
        </extensions>
      </trkpt>
      <trkpt lat="43.4721052832901477813720703125" lon="1.4308834075927734375">
        <ele>250</ele>
        <time>2026-08-05T11:06:55.000Z</time>
        <extensions>
          <ns3:TrackPointExtension>
            <ns3:hr>75</ns3:hr>
            <ns3:cad>0</ns3:cad>
          </ns3:TrackPointExtension>
        </extensions>
      </trkpt>
      <trkpt lat="43.4721052832901477813720703125" lon="1.4308834075927734375">
        <ele>250.1999969482421875</ele>
        <time>2026-08-05T11:06:56.000Z</time>
        <extensions>
          <ns3:TrackPointExtension>
            <ns3:hr>75</ns3:hr>
            <ns3:cad>0</ns3:cad>
          </ns3:TrackPointExtension>
        </extensions>
      </trkpt>
      <trkpt lat="43.4721052832901477813720703125" lon="1.4308834075927734375">
        <ele>250.399993896484375</ele>
        <time>2026-08-05T11:06:57.000Z</time>
        <extensions>
          <ns3:TrackPointExtension>
            <ns3:hr>75</ns3:hr>
            <ns3:cad>0</ns3:cad>
          </ns3:TrackPointExtension>
        </extensions>
      </trkpt>
      <trkpt lat="43.4721052832901477813720703125" lon="1.4308834075927734375">
        <ele>250.399993896484375</ele>
        <time>2026-08-05T11:06:58.000Z</time>
        <extensions>
          <ns3:TrackPointExtension>
            <ns3:hr>74</ns3:hr>
            <ns3:cad>0</ns3:cad>
          </ns3:TrackPointExtension>
        </extensions>
      </trkpt>
      <trkpt lat="43.4721052832901477813720703125" lon="1.4308834075927734375">
        <ele>250.399993896484375</ele>
        <time>2026-08-05T11:06:59.000Z</time>
        <extensions>
          <ns3:TrackPointExtension>
            <ns3:hr>75</ns3:hr>
            <ns3:cad>0</ns3:cad>
          </ns3:TrackPointExtension>
        </extensions>
      </trkpt>
      <trkpt lat="43.4721052832901477813720703125" lon="1.4308834075927734375">
        <ele>250.399993896484375</ele>
        <time>2026-08-05T11:07:00.000Z</time>
        <extensions>
          <ns3:TrackPointExtension>
            <ns3:hr>75</ns3:hr>
            <ns3:cad>0</ns3:cad>
          </ns3:TrackPointExtension>
        </extensions>
      </trkpt>
      <trkpt lat="43.4721052832901477813720703125" lon="1.4308834075927734375">
        <ele>250.600006103515625</ele>
        <time>2026-08-05T11:07:01.000Z</time>
        <extensions>
          <ns3:TrackPointExtension>
            <ns3:hr>75</ns3:hr>
            <ns3:cad>0</ns3:cad>
          </ns3:TrackPointExtension>
        </extensions>
      </trkpt>
      <trkpt lat="43.4721052832901477813720703125" lon="1.4308834075927734375">
        <ele>250.600006103515625</ele>
        <time>2026-08-05T11:07:02.000Z</time>
        <extensions>
          <ns3:TrackPointExtension>
            <ns3:hr>75</ns3:hr>
            <ns3:cad>0</ns3:cad>
          </ns3:TrackPointExtension>
        </extensions>
      </trkpt>
      <trkpt lat="43.4721052832901477813720703125" lon="1.4308834075927734375">
        <ele>250.600006103515625</ele>
        <time>2026-08-05T11:07:03.000Z</time>
        <extensions>
          <ns3:TrackPointExtension>
            <ns3:hr>75</ns3:hr>
            <ns3:cad>0</ns3:cad>
          </ns3:TrackPointExtension>
        </extensions>
      </trkpt>
      <trkpt lat="43.4721052832901477813720703125" lon="1.4308834075927734375">
        <ele>250.600006103515625</ele>
        <time>2026-08-05T11:07:04.000Z</time>
        <extensions>
          <ns3:TrackPointExtension>
            <ns3:hr>74</ns3:hr>
            <ns3:cad>0</ns3:cad>
          </ns3:TrackPointExtension>
        </extensions>
      </trkpt>
      <trkpt lat="43.4721052832901477813720703125" lon="1.4308834075927734375">
        <ele>250.600006103515625</ele>
        <time>2026-08-05T11:07:05.000Z</time>
        <extensions>
          <ns3:TrackPointExtension>
            <ns3:hr>73</ns3:hr>
            <ns3:cad>0</ns3:cad>
          </ns3:TrackPointExtension>
        </extensions>
      </trkpt>
      <trkpt lat="43.4721052832901477813720703125" lon="1.4308834075927734375">
        <ele>250.399993896484375</ele>
        <time>2026-08-05T11:07:06.000Z</time>
        <extensions>
          <ns3:TrackPointExtension>
            <ns3:hr>73</ns3:hr>
            <ns3:cad>0</ns3:cad>
          </ns3:TrackPointExtension>
        </extensions>
      </trkpt>
      <trkpt lat="43.4721052832901477813720703125" lon="1.4308834075927734375">
        <ele>250.399993896484375</ele>
        <time>2026-08-05T11:07:07.000Z</time>
        <extensions>
          <ns3:TrackPointExtension>
            <ns3:hr>72</ns3:hr>
            <ns3:cad>0</ns3:cad>
          </ns3:TrackPointExtension>
        </extensions>
      </trkpt>
      <trkpt lat="43.4721052832901477813720703125" lon="1.4308834075927734375">
        <ele>250.399993896484375</ele>
        <time>2026-08-05T11:07:08.000Z</time>
        <extensions>
          <ns3:TrackPointExtension>
            <ns3:hr>72</ns3:hr>
            <ns3:cad>0</ns3:cad>
          </ns3:TrackPointExtension>
        </extensions>
      </trkpt>
      <trkpt lat="43.4721052832901477813720703125" lon="1.4308834075927734375">
        <ele>250.1999969482421875</ele>
        <time>2026-08-05T11:07:09.000Z</time>
        <extensions>
          <ns3:TrackPointExtension>
            <ns3:hr>71</ns3:hr>
            <ns3:cad>0</ns3:cad>
          </ns3:TrackPointExtension>
        </extensions>
      </trkpt>
      <trkpt lat="43.4721052832901477813720703125" lon="1.4308834075927734375">
        <ele>250.1999969482421875</ele>
        <time>2026-08-05T11:07:10.000Z</time>
        <extensions>
          <ns3:TrackPointExtension>
            <ns3:hr>71</ns3:hr>
            <ns3:cad>0</ns3:cad>
          </ns3:TrackPointExtension>
        </extensions>
      </trkpt>
      <trkpt lat="43.47210444509983062744140625" lon="1.430887095630168914794921875">
        <ele>250</ele>
        <time>2026-08-05T11:07:11.000Z</time>
        <extensions>
          <ns3:TrackPointExtension>
            <ns3:hr>70</ns3:hr>
            <ns3:cad>0</ns3:cad>
          </ns3:TrackPointExtension>
        </extensions>
      </trkpt>
      <trkpt lat="43.47210553474724292755126953125" lon="1.43087862990796566009521484375">
        <ele>249.600006103515625</ele>
        <time>2026-08-05T11:07:12.000Z</time>
        <extensions>
          <ns3:TrackPointExtension>
            <ns3:hr>69</ns3:hr>
            <ns3:cad>0</ns3:cad>
          </ns3:TrackPointExtension>
        </extensions>
      </trkpt>
      <trkpt lat="43.47210846841335296630859375" lon="1.430871672928333282470703125">
        <ele>249.399993896484375</ele>
        <time>2026-08-05T11:07:13.000Z</time>
        <extensions>
          <ns3:TrackPointExtension>
            <ns3:hr>69</ns3:hr>
            <ns3:cad>0</ns3:cad>
          </ns3:TrackPointExtension>
        </extensions>
      </trkpt>
      <trkpt lat="43.47211207263171672821044921875" lon="1.430863626301288604736328125">
        <ele>249.399993896484375</ele>
        <time>2026-08-05T11:07:14.000Z</time>
        <extensions>
          <ns3:TrackPointExtension>
            <ns3:hr>70</ns3:hr>
            <ns3:cad>0</ns3:cad>
          </ns3:TrackPointExtension>
        </extensions>
      </trkpt>
      <trkpt lat="43.47211358137428760528564453125" lon="1.4308567531406879425048828125">
        <ele>249.399993896484375</ele>
        <time>2026-08-05T11:07:15.000Z</time>
        <extensions>
          <ns3:TrackPointExtension>
            <ns3:hr>70</ns3:hr>
            <ns3:cad>0</ns3:cad>
          </ns3:TrackPointExtension>
        </extensions>
      </trkpt>
      <trkpt lat="43.4721166826784610748291015625" lon="1.4308471977710723876953125">
        <ele>249.399993896484375</ele>
        <time>2026-08-05T11:07:16.000Z</time>
        <extensions>
          <ns3:TrackPointExtension>
            <ns3:hr>70</ns3:hr>
            <ns3:cad>0</ns3:cad>
          </ns3:TrackPointExtension>
        </extensions>
      </trkpt>
      <trkpt lat="43.472119532525539398193359375" lon="1.4308386482298374176025390625">
        <ele>249.600006103515625</ele>
        <time>2026-08-05T11:07:17.000Z</time>
        <extensions>
          <ns3:TrackPointExtension>
            <ns3:hr>71</ns3:hr>
            <ns3:cad>0</ns3:cad>
          </ns3:TrackPointExtension>
        </extensions>
      </trkpt>
      <trkpt lat="43.47212296910583972930908203125" lon="1.4308423362672328948974609375">
        <ele>249.8000030517578125</ele>
        <time>2026-08-05T11:07:18.000Z</time>
        <extensions>
          <ns3:TrackPointExtension>
            <ns3:hr>71</ns3:hr>
            <ns3:cad>0</ns3:cad>
          </ns3:TrackPointExtension>
        </extensions>
      </trkpt>
      <trkpt lat="43.47212447784841060638427734375" lon="1.43084359355270862579345703125">
        <ele>249.600006103515625</ele>
        <time>2026-08-05T11:07:19.000Z</time>
        <extensions>
          <ns3:TrackPointExtension>
            <ns3:hr>72</ns3:hr>
            <ns3:cad>0</ns3:cad>
          </ns3:TrackPointExtension>
        </extensions>
      </trkpt>
      <trkpt lat="43.47212414257228374481201171875" lon="1.4308471977710723876953125">
        <ele>249.600006103515625</ele>
        <time>2026-08-05T11:07:20.000Z</time>
        <extensions>
          <ns3:TrackPointExtension>
            <ns3:hr>73</ns3:hr>
            <ns3:cad>0</ns3:cad>
          </ns3:TrackPointExtension>
        </extensions>
      </trkpt>
      <trkpt lat="43.4721237234771251678466796875" lon="1.43084526993334293365478515625">
        <ele>249.600006103515625</ele>
        <time>2026-08-05T11:07:21.000Z</time>
        <extensions>
          <ns3:TrackPointExtension>
            <ns3:hr>73</ns3:hr>
            <ns3:cad>0</ns3:cad>
          </ns3:TrackPointExtension>
        </extensions>
      </trkpt>
      <trkpt lat="43.47212380729615688323974609375" lon="1.4308453537523746490478515625">
        <ele>249.600006103515625</ele>
        <time>2026-08-05T11:07:22.000Z</time>
        <extensions>
          <ns3:TrackPointExtension>
            <ns3:hr>73</ns3:hr>
            <ns3:cad>0</ns3:cad>
          </ns3:TrackPointExtension>
        </extensions>
      </trkpt>
      <trkpt lat="43.4721237234771251678466796875" lon="1.430845521390438079833984375">
        <ele>249.600006103515625</ele>
        <time>2026-08-05T11:07:23.000Z</time>
        <extensions>
          <ns3:TrackPointExtension>
            <ns3:hr>73</ns3:hr>
            <ns3:cad>0</ns3:cad>
          </ns3:TrackPointExtension>
        </extensions>
      </trkpt>
      <trkpt lat="43.4721237234771251678466796875" lon="1.430845521390438079833984375">
        <ele>249.600006103515625</ele>
        <time>2026-08-05T11:07:24.000Z</time>
        <extensions>
          <ns3:TrackPointExtension>
            <ns3:hr>73</ns3:hr>
            <ns3:cad>0</ns3:cad>
          </ns3:TrackPointExtension>
        </extensions>
      </trkpt>
      <trkpt lat="43.4721237234771251678466796875" lon="1.430845521390438079833984375">
        <ele>249.600006103515625</ele>
        <time>2026-08-05T11:07:25.000Z</time>
        <extensions>
          <ns3:TrackPointExtension>
            <ns3:hr>73</ns3:hr>
            <ns3:cad>0</ns3:cad>
          </ns3:TrackPointExtension>
        </extensions>
      </trkpt>
      <trkpt lat="43.47212363965809345245361328125" lon="1.43084560520946979522705078125">
        <ele>249.600006103515625</ele>
        <time>2026-08-05T11:07:26.000Z</time>
        <extensions>
          <ns3:TrackPointExtension>
            <ns3:hr>72</ns3:hr>
            <ns3:cad>0</ns3:cad>
          </ns3:TrackPointExtension>
        </extensions>
      </trkpt>
      <trkpt lat="43.47212565131485462188720703125" lon="1.43083755858242511749267578125">
        <ele>249.600006103515625</ele>
        <time>2026-08-05T11:07:27.000Z</time>
        <extensions>
          <ns3:TrackPointExtension>
            <ns3:hr>72</ns3:hr>
            <ns3:cad>0</ns3:cad>
          </ns3:TrackPointExtension>
        </extensions>
      </trkpt>
      <trkpt lat="43.47212992608547210693359375" lon="1.4308297634124755859375">
        <ele>249.600006103515625</ele>
        <time>2026-08-05T11:07:28.000Z</time>
        <extensions>
          <ns3:TrackPointExtension>
            <ns3:hr>72</ns3:hr>
            <ns3:cad>0</ns3:cad>
          </ns3:TrackPointExtension>
        </extensions>
      </trkpt>
      <trkpt lat="43.47213218919932842254638671875" lon="1.4308232255280017852783203125">
        <ele>249.600006103515625</ele>
        <time>2026-08-05T11:07:29.000Z</time>
        <extensions>
          <ns3:TrackPointExtension>
            <ns3:hr>72</ns3:hr>
            <ns3:cad>0</ns3:cad>
          </ns3:TrackPointExtension>
        </extensions>
      </trkpt>
      <trkpt lat="43.4721351228654384613037109375" lon="1.4308145083487033843994140625">
        <ele>249.600006103515625</ele>
        <time>2026-08-05T11:07:30.000Z</time>
        <extensions>
          <ns3:TrackPointExtension>
            <ns3:hr>72</ns3:hr>
            <ns3:cad>0</ns3:cad>
          </ns3:TrackPointExtension>
        </extensions>
      </trkpt>
      <trkpt lat="43.47213705070316791534423828125" lon="1.43080956302583217620849609375">
        <ele>249.600006103515625</ele>
        <time>2026-08-05T11:07:31.000Z</time>
        <extensions>
          <ns3:TrackPointExtension>
            <ns3:hr>72</ns3:hr>
            <ns3:cad>0</ns3:cad>
          </ns3:TrackPointExtension>
        </extensions>
      </trkpt>
      <trkpt lat="43.47214065492153167724609375" lon="1.43080294132232666015625">
        <ele>249.600006103515625</ele>
        <time>2026-08-05T11:07:32.000Z</time>
        <extensions>
          <ns3:TrackPointExtension>
            <ns3:hr>73</ns3:hr>
            <ns3:cad>0</ns3:cad>
          </ns3:TrackPointExtension>
        </extensions>
      </trkpt>
      <trkpt lat="43.47214291803538799285888671875" lon="1.4307950623333454132080078125">
        <ele>249.399993896484375</ele>
        <time>2026-08-05T11:07:33.000Z</time>
        <extensions>
          <ns3:TrackPointExtension>
            <ns3:hr>73</ns3:hr>
            <ns3:cad>0</ns3:cad>
          </ns3:TrackPointExtension>
        </extensions>
      </trkpt>
      <trkpt lat="43.47214492969214916229248046875" lon="1.43079045228660106658935546875">
        <ele>249.399993896484375</ele>
        <time>2026-08-05T11:07:34.000Z</time>
        <extensions>
          <ns3:TrackPointExtension>
            <ns3:hr>73</ns3:hr>
            <ns3:cad>0</ns3:cad>
          </ns3:TrackPointExtension>
        </extensions>
      </trkpt>
      <trkpt lat="43.47215004265308380126953125" lon="1.43078483641147613525390625">
        <ele>249.1999969482421875</ele>
        <time>2026-08-05T11:07:35.000Z</time>
        <extensions>
          <ns3:TrackPointExtension>
            <ns3:hr>74</ns3:hr>
            <ns3:cad>0</ns3:cad>
          </ns3:TrackPointExtension>
        </extensions>
      </trkpt>
      <trkpt lat="43.47215297631919384002685546875" lon="1.43077854998409748077392578125">
        <ele>249.1999969482421875</ele>
        <time>2026-08-05T11:07:36.000Z</time>
        <extensions>
          <ns3:TrackPointExtension>
            <ns3:hr>73</ns3:hr>
            <ns3:cad>0</ns3:cad>
          </ns3:TrackPointExtension>
        </extensions>
      </trkpt>
      <trkpt lat="43.47215750254690647125244140625" lon="1.43077368848025798797607421875">
        <ele>249.1999969482421875</ele>
        <time>2026-08-05T11:07:37.000Z</time>
        <extensions>
          <ns3:TrackPointExtension>
            <ns3:hr>73</ns3:hr>
            <ns3:cad>0</ns3:cad>
          </ns3:TrackPointExtension>
        </extensions>
      </trkpt>
      <trkpt lat="43.4721606038510799407958984375" lon="1.43076949752867221832275390625">
        <ele>249</ele>
        <time>2026-08-05T11:07:38.000Z</time>
        <extensions>
          <ns3:TrackPointExtension>
            <ns3:hr>74</ns3:hr>
            <ns3:cad>0</ns3:cad>
          </ns3:TrackPointExtension>
        </extensions>
      </trkpt>
      <trkpt lat="43.4721629507839679718017578125" lon="1.43076279200613498687744140625">
        <ele>248.8000030517578125</ele>
        <time>2026-08-05T11:07:39.000Z</time>
        <extensions>
          <ns3:TrackPointExtension>
            <ns3:hr>73</ns3:hr>
            <ns3:cad>0</ns3:cad>
          </ns3:TrackPointExtension>
        </extensions>
      </trkpt>
      <trkpt lat="43.4721652977168560028076171875" lon="1.43075474537909030914306640625">
        <ele>248.8000030517578125</ele>
        <time>2026-08-05T11:07:40.000Z</time>
        <extensions>
          <ns3:TrackPointExtension>
            <ns3:hr>72</ns3:hr>
            <ns3:cad>0</ns3:cad>
          </ns3:TrackPointExtension>
        </extensions>
      </trkpt>
      <trkpt lat="43.47216756083071231842041015625" lon="1.43074837513267993927001953125">
        <ele>248.600006103515625</ele>
        <time>2026-08-05T11:07:41.000Z</time>
        <extensions>
          <ns3:TrackPointExtension>
            <ns3:hr>72</ns3:hr>
            <ns3:cad>0</ns3:cad>
          </ns3:TrackPointExtension>
        </extensions>
      </trkpt>
      <trkpt lat="43.47217024303972721099853515625" lon="1.43074217252433300018310546875">
        <ele>248.600006103515625</ele>
        <time>2026-08-05T11:07:42.000Z</time>
        <extensions>
          <ns3:TrackPointExtension>
            <ns3:hr>71</ns3:hr>
            <ns3:cad>0</ns3:cad>
          </ns3:TrackPointExtension>
        </extensions>
      </trkpt>
      <trkpt lat="43.47217082977294921875" lon="1.43073596991598606109619140625">
        <ele>248.8000030517578125</ele>
        <time>2026-08-05T11:07:43.000Z</time>
        <extensions>
          <ns3:TrackPointExtension>
            <ns3:hr>71</ns3:hr>
            <ns3:cad>0</ns3:cad>
          </ns3:TrackPointExtension>
        </extensions>
      </trkpt>
      <trkpt lat="43.47217191942036151885986328125" lon="1.4307296834886074066162109375">
        <ele>248.8000030517578125</ele>
        <time>2026-08-05T11:07:44.000Z</time>
        <extensions>
          <ns3:TrackPointExtension>
            <ns3:hr>70</ns3:hr>
            <ns3:cad>0</ns3:cad>
          </ns3:TrackPointExtension>
        </extensions>
      </trkpt>
      <trkpt lat="43.47217124886810779571533203125" lon="1.43072448670864105224609375">
        <ele>248.8000030517578125</ele>
        <time>2026-08-05T11:07:45.000Z</time>
        <extensions>
          <ns3:TrackPointExtension>
            <ns3:hr>70</ns3:hr>
            <ns3:cad>0</ns3:cad>
          </ns3:TrackPointExtension>
        </extensions>
      </trkpt>
      <trkpt lat="43.47217108123004436492919921875" lon="1.430724151432514190673828125">
        <ele>248.8000030517578125</ele>
        <time>2026-08-05T11:07:46.000Z</time>
        <extensions>
          <ns3:TrackPointExtension>
            <ns3:hr>71</ns3:hr>
            <ns3:cad>0</ns3:cad>
          </ns3:TrackPointExtension>
        </extensions>
      </trkpt>
      <trkpt lat="43.47217108123004436492919921875" lon="1.430724151432514190673828125">
        <ele>248.8000030517578125</ele>
        <time>2026-08-05T11:07:47.000Z</time>
        <extensions>
          <ns3:TrackPointExtension>
            <ns3:hr>72</ns3:hr>
            <ns3:cad>0</ns3:cad>
          </ns3:TrackPointExtension>
        </extensions>
      </trkpt>
      <trkpt lat="43.47217108123004436492919921875" lon="1.430724151432514190673828125">
        <ele>248.8000030517578125</ele>
        <time>2026-08-05T11:07:48.000Z</time>
        <extensions>
          <ns3:TrackPointExtension>
            <ns3:hr>72</ns3:hr>
            <ns3:cad>0</ns3:cad>
          </ns3:TrackPointExtension>
        </extensions>
      </trkpt>
      <trkpt lat="43.47217108123004436492919921875" lon="1.430724151432514190673828125">
        <ele>249</ele>
        <time>2026-08-05T11:07:49.000Z</time>
        <extensions>
          <ns3:TrackPointExtension>
            <ns3:hr>72</ns3:hr>
            <ns3:cad>0</ns3:cad>
          </ns3:TrackPointExtension>
        </extensions>
      </trkpt>
      <trkpt lat="43.47217108123004436492919921875" lon="1.430724151432514190673828125">
        <ele>249.1999969482421875</ele>
        <time>2026-08-05T11:07:50.000Z</time>
        <extensions>
          <ns3:TrackPointExtension>
            <ns3:hr>71</ns3:hr>
            <ns3:cad>0</ns3:cad>
          </ns3:TrackPointExtension>
        </extensions>
      </trkpt>
      <trkpt lat="43.47217108123004436492919921875" lon="1.43072322942316532135009765625">
        <ele>249.1999969482421875</ele>
        <time>2026-08-05T11:07:51.000Z</time>
        <extensions>
          <ns3:TrackPointExtension>
            <ns3:hr>71</ns3:hr>
            <ns3:cad>0</ns3:cad>
          </ns3:TrackPointExtension>
        </extensions>
      </trkpt>
      <trkpt lat="43.472175188362598419189453125" lon="1.43070747144520282745361328125">
        <ele>249.399993896484375</ele>
        <time>2026-08-05T11:07:52.000Z</time>
        <extensions>
          <ns3:TrackPointExtension>
            <ns3:hr>71</ns3:hr>
            <ns3:cad>0</ns3:cad>
          </ns3:TrackPointExtension>
        </extensions>
      </trkpt>
      <trkpt lat="43.47217912785708904266357421875" lon="1.430695317685604095458984375">
        <ele>249.399993896484375</ele>
        <time>2026-08-05T11:07:53.000Z</time>
        <extensions>
          <ns3:TrackPointExtension>
            <ns3:hr>70</ns3:hr>
            <ns3:cad>0</ns3:cad>
          </ns3:TrackPointExtension>
        </extensions>
      </trkpt>
      <trkpt lat="43.47218382172286510467529296875" lon="1.43068316392600536346435546875">
        <ele>249.1999969482421875</ele>
        <time>2026-08-05T11:07:54.000Z</time>
        <extensions>
          <ns3:TrackPointExtension>
            <ns3:hr>70</ns3:hr>
            <ns3:cad>0</ns3:cad>
          </ns3:TrackPointExtension>
        </extensions>
      </trkpt>
      <trkpt lat="43.47218616865575313568115234375" lon="1.43067310564219951629638671875">
        <ele>249</ele>
        <time>2026-08-05T11:07:55.000Z</time>
        <extensions>
          <ns3:TrackPointExtension>
            <ns3:hr>70</ns3:hr>
            <ns3:cad>0</ns3:cad>
          </ns3:TrackPointExtension>
        </extensions>
      </trkpt>
      <trkpt lat="43.472187928855419158935546875" lon="1.430660448968410491943359375">
        <ele>248.8000030517578125</ele>
        <time>2026-08-05T11:07:56.000Z</time>
        <extensions>
          <ns3:TrackPointExtension>
            <ns3:hr>70</ns3:hr>
            <ns3:cad>0</ns3:cad>
          </ns3:TrackPointExtension>
        </extensions>
      </trkpt>
      <trkpt lat="43.4721927903592586517333984375" lon="1.4306505583226680755615234375">
        <ele>248.8000030517578125</ele>
        <time>2026-08-05T11:07:57.000Z</time>
        <extensions>
          <ns3:TrackPointExtension>
            <ns3:hr>71</ns3:hr>
            <ns3:cad>40</ns3:cad>
          </ns3:TrackPointExtension>
        </extensions>
      </trkpt>
      <trkpt lat="43.472195975482463836669921875" lon="1.43064200878143310546875">
        <ele>248.600006103515625</ele>
        <time>2026-08-05T11:07:58.000Z</time>
        <extensions>
          <ns3:TrackPointExtension>
            <ns3:hr>71</ns3:hr>
            <ns3:cad>40</ns3:cad>
          </ns3:TrackPointExtension>
        </extensions>
      </trkpt>
      <trkpt lat="43.47219966351985931396484375" lon="1.43063119612634181976318359375">
        <ele>248.600006103515625</ele>
        <time>2026-08-05T11:07:59.000Z</time>
        <extensions>
          <ns3:TrackPointExtension>
            <ns3:hr>71</ns3:hr>
            <ns3:cad>40</ns3:cad>
          </ns3:TrackPointExtension>
        </extensions>
      </trkpt>
      <trkpt lat="43.47220360301434993743896484375" lon="1.4306187070906162261962890625">
        <ele>248.399993896484375</ele>
        <time>2026-08-05T11:08:00.000Z</time>
        <extensions>
          <ns3:TrackPointExtension>
            <ns3:hr>71</ns3:hr>
            <ns3:cad>40</ns3:cad>
          </ns3:TrackPointExtension>
        </extensions>
      </trkpt>
      <trkpt lat="43.47220879979431629180908203125" lon="1.43060739152133464813232421875">
        <ele>248.399993896484375</ele>
        <time>2026-08-05T11:08:01.000Z</time>
        <extensions>
          <ns3:TrackPointExtension>
            <ns3:hr>72</ns3:hr>
            <ns3:cad>45</ns3:cad>
          </ns3:TrackPointExtension>
        </extensions>
      </trkpt>
      <trkpt lat="43.472210727632045745849609375" lon="1.4305982552468776702880859375">
        <ele>248.1999969482421875</ele>
        <time>2026-08-05T11:08:02.000Z</time>
        <extensions>
          <ns3:TrackPointExtension>
            <ns3:hr>72</ns3:hr>
            <ns3:cad>45</ns3:cad>
          </ns3:TrackPointExtension>
        </extensions>
      </trkpt>
      <trkpt lat="43.4722135774791240692138671875" lon="1.43059029243886470794677734375">
        <ele>248.1999969482421875</ele>
        <time>2026-08-05T11:08:03.000Z</time>
        <extensions>
          <ns3:TrackPointExtension>
            <ns3:hr>73</ns3:hr>
            <ns3:cad>46</ns3:cad>
          </ns3:TrackPointExtension>
        </extensions>
      </trkpt>
      <trkpt lat="43.4722176007926464080810546875" lon="1.43058098852634429931640625">
        <ele>248.1999969482421875</ele>
        <time>2026-08-05T11:08:04.000Z</time>
        <extensions>
          <ns3:TrackPointExtension>
            <ns3:hr>73</ns3:hr>
            <ns3:cad>49</ns3:cad>
          </ns3:TrackPointExtension>
        </extensions>
      </trkpt>
      <trkpt lat="43.47222019918262958526611328125" lon="1.43057269044220447540283203125">
        <ele>248</ele>
        <time>2026-08-05T11:08:05.000Z</time>
        <extensions>
          <ns3:TrackPointExtension>
            <ns3:hr>74</ns3:hr>
            <ns3:cad>49</ns3:cad>
          </ns3:TrackPointExtension>
        </extensions>
      </trkpt>
      <trkpt lat="43.47222355194389820098876953125" lon="1.43056330271065235137939453125">
        <ele>248</ele>
        <time>2026-08-05T11:08:06.000Z</time>
        <extensions>
          <ns3:TrackPointExtension>
            <ns3:hr>74</ns3:hr>
            <ns3:cad>49</ns3:cad>
          </ns3:TrackPointExtension>
        </extensions>
      </trkpt>
      <trkpt lat="43.47222640179097652435302734375" lon="1.43055416643619537353515625">
        <ele>248</ele>
        <time>2026-08-05T11:08:07.000Z</time>
        <extensions>
          <ns3:TrackPointExtension>
            <ns3:hr>75</ns3:hr>
            <ns3:cad>50</ns3:cad>
          </ns3:TrackPointExtension>
        </extensions>
      </trkpt>
      <trkpt lat="43.47223042510449886322021484375" lon="1.43054435960948467254638671875">
        <ele>248</ele>
        <time>2026-08-05T11:08:08.000Z</time>
        <extensions>
          <ns3:TrackPointExtension>
            <ns3:hr>76</ns3:hr>
            <ns3:cad>50</ns3:cad>
          </ns3:TrackPointExtension>
        </extensions>
      </trkpt>
      <trkpt lat="43.47223310731351375579833984375" lon="1.430533714592456817626953125">
        <ele>248</ele>
        <time>2026-08-05T11:08:09.000Z</time>
        <extensions>
          <ns3:TrackPointExtension>
            <ns3:hr>76</ns3:hr>
            <ns3:cad>48</ns3:cad>
          </ns3:TrackPointExtension>
        </extensions>
      </trkpt>
      <trkpt lat="43.4722357057034969329833984375" lon="1.430522985756397247314453125">
        <ele>247.8000030517578125</ele>
        <time>2026-08-05T11:08:10.000Z</time>
        <extensions>
          <ns3:TrackPointExtension>
            <ns3:hr>76</ns3:hr>
            <ns3:cad>48</ns3:cad>
          </ns3:TrackPointExtension>
        </extensions>
      </trkpt>
      <trkpt lat="43.47223930992186069488525390625" lon="1.43051485531032085418701171875">
        <ele>247.8000030517578125</ele>
        <time>2026-08-05T11:08:11.000Z</time>
        <extensions>
          <ns3:TrackPointExtension>
            <ns3:hr>76</ns3:hr>
            <ns3:cad>47</ns3:cad>
          </ns3:TrackPointExtension>
        </extensions>
      </trkpt>
      <trkpt lat="43.472243249416351318359375" lon="1.43050379119813442230224609375">
        <ele>247.8000030517578125</ele>
        <time>2026-08-05T11:08:12.000Z</time>
        <extensions>
          <ns3:TrackPointExtension>
            <ns3:hr>76</ns3:hr>
            <ns3:cad>46</ns3:cad>
          </ns3:TrackPointExtension>
        </extensions>
      </trkpt>
      <trkpt lat="43.4722472727298736572265625" lon="1.43049473874270915985107421875">
        <ele>247.600006103515625</ele>
        <time>2026-08-05T11:08:13.000Z</time>
        <extensions>
          <ns3:TrackPointExtension>
            <ns3:hr>75</ns3:hr>
            <ns3:cad>47</ns3:cad>
          </ns3:TrackPointExtension>
        </extensions>
      </trkpt>
      <trkpt lat="43.47225087694823741912841796875" lon="1.43048468045890331268310546875">
        <ele>247.600006103515625</ele>
        <time>2026-08-05T11:08:14.000Z</time>
        <extensions>
          <ns3:TrackPointExtension>
            <ns3:hr>75</ns3:hr>
            <ns3:cad>46</ns3:cad>
          </ns3:TrackPointExtension>
        </extensions>
      </trkpt>
      <trkpt lat="43.47225422970950603485107421875" lon="1.4304738678038120269775390625">
        <ele>247.8000030517578125</ele>
        <time>2026-08-05T11:08:15.000Z</time>
        <extensions>
          <ns3:TrackPointExtension>
            <ns3:hr>75</ns3:hr>
            <ns3:cad>46</ns3:cad>
          </ns3:TrackPointExtension>
        </extensions>
      </trkpt>
      <trkpt lat="43.4722605161368846893310546875" lon="1.43046037293970584869384765625">
        <ele>247.8000030517578125</ele>
        <time>2026-08-05T11:08:16.000Z</time>
        <extensions>
          <ns3:TrackPointExtension>
            <ns3:hr>75</ns3:hr>
            <ns3:cad>46</ns3:cad>
          </ns3:TrackPointExtension>
        </extensions>
      </trkpt>
      <trkpt lat="43.47226512618362903594970703125" lon="1.4304500631988048553466796875">
        <ele>247.8000030517578125</ele>
        <time>2026-08-05T11:08:17.000Z</time>
        <extensions>
          <ns3:TrackPointExtension>
            <ns3:hr>75</ns3:hr>
            <ns3:cad>47</ns3:cad>
          </ns3:TrackPointExtension>
        </extensions>
      </trkpt>
      <trkpt lat="43.4722665511071681976318359375" lon="1.4304395020008087158203125">
        <ele>247.8000030517578125</ele>
        <time>2026-08-05T11:08:18.000Z</time>
        <extensions>
          <ns3:TrackPointExtension>
            <ns3:hr>74</ns3:hr>
            <ns3:cad>47</ns3:cad>
          </ns3:TrackPointExtension>
        </extensions>
      </trkpt>
      <trkpt lat="43.47226898185908794403076171875" lon="1.430427767336368560791015625">
        <ele>247.8000030517578125</ele>
        <time>2026-08-05T11:08:19.000Z</time>
        <extensions>
          <ns3:TrackPointExtension>
            <ns3:hr>74</ns3:hr>
            <ns3:cad>47</ns3:cad>
          </ns3:TrackPointExtension>
        </extensions>
      </trkpt>
      <trkpt lat="43.47227216698229312896728515625" lon="1.43041695468127727508544921875">
        <ele>247.8000030517578125</ele>
        <time>2026-08-05T11:08:20.000Z</time>
        <extensions>
          <ns3:TrackPointExtension>
            <ns3:hr>74</ns3:hr>
            <ns3:cad>46</ns3:cad>
          </ns3:TrackPointExtension>
        </extensions>
      </trkpt>
      <trkpt lat="43.47227652557194232940673828125" lon="1.4304073154926300048828125">
        <ele>247.8000030517578125</ele>
        <time>2026-08-05T11:08:21.000Z</time>
        <extensions>
          <ns3:TrackPointExtension>
            <ns3:hr>74</ns3:hr>
            <ns3:cad>46</ns3:cad>
          </ns3:TrackPointExtension>
        </extensions>
      </trkpt>
      <trkpt lat="43.47228222526609897613525390625" lon="1.43039532937109470367431640625">
        <ele>247.600006103515625</ele>
        <time>2026-08-05T11:08:22.000Z</time>
        <extensions>
          <ns3:TrackPointExtension>
            <ns3:hr>74</ns3:hr>
            <ns3:cad>46</ns3:cad>
          </ns3:TrackPointExtension>
        </extensions>
      </trkpt>
      <trkpt lat="43.4722876735031604766845703125" lon="1.4303840138018131256103515625">
        <ele>247.600006103515625</ele>
        <time>2026-08-05T11:08:23.000Z</time>
        <extensions>
          <ns3:TrackPointExtension>
            <ns3:hr>75</ns3:hr>
            <ns3:cad>46</ns3:cad>
          </ns3:TrackPointExtension>
        </extensions>
      </trkpt>
      <trkpt lat="43.472291529178619384765625" lon="1.430374123156070709228515625">
        <ele>247.600006103515625</ele>
        <time>2026-08-05T11:08:24.000Z</time>
        <extensions>
          <ns3:TrackPointExtension>
            <ns3:hr>74</ns3:hr>
            <ns3:cad>46</ns3:cad>
          </ns3:TrackPointExtension>
        </extensions>
      </trkpt>
      <trkpt lat="43.47229613922536373138427734375" lon="1.4303642325103282928466796875">
        <ele>247.399993896484375</ele>
        <time>2026-08-05T11:08:25.000Z</time>
        <extensions>
          <ns3:TrackPointExtension>
            <ns3:hr>74</ns3:hr>
            <ns3:cad>46</ns3:cad>
          </ns3:TrackPointExtension>
        </extensions>
      </trkpt>
      <trkpt lat="43.472299240529537200927734375" lon="1.4303576946258544921875">
        <ele>247.399993896484375</ele>
        <time>2026-08-05T11:08:26.000Z</time>
        <extensions>
          <ns3:TrackPointExtension>
            <ns3:hr>74</ns3:hr>
            <ns3:cad>45</ns3:cad>
          </ns3:TrackPointExtension>
        </extensions>
      </trkpt>
      <trkpt lat="43.47230250947177410125732421875" lon="1.430346630513668060302734375">
        <ele>247.1999969482421875</ele>
        <time>2026-08-05T11:08:27.000Z</time>
        <extensions>
          <ns3:TrackPointExtension>
            <ns3:hr>73</ns3:hr>
            <ns3:cad>48</ns3:cad>
          </ns3:TrackPointExtension>
        </extensions>
      </trkpt>
      <trkpt lat="43.47230670042335987091064453125" lon="1.43033632077276706695556640625">
        <ele>247.1999969482421875</ele>
        <time>2026-08-05T11:08:28.000Z</time>
        <extensions>
          <ns3:TrackPointExtension>
            <ns3:hr>73</ns3:hr>
            <ns3:cad>48</ns3:cad>
          </ns3:TrackPointExtension>
        </extensions>
      </trkpt>
      <trkpt lat="43.4723111428320407867431640625" lon="1.4303226582705974578857421875">
        <ele>247</ele>
        <time>2026-08-05T11:08:29.000Z</time>
        <extensions>
          <ns3:TrackPointExtension>
            <ns3:hr>73</ns3:hr>
            <ns3:cad>48</ns3:cad>
          </ns3:TrackPointExtension>
        </extensions>
      </trkpt>
      <trkpt lat="43.4723161719739437103271484375" lon="1.43031352199614048004150390625">
        <ele>247</ele>
        <time>2026-08-05T11:08:30.000Z</time>
        <extensions>
          <ns3:TrackPointExtension>
            <ns3:hr>74</ns3:hr>
            <ns3:cad>48</ns3:cad>
          </ns3:TrackPointExtension>
        </extensions>
      </trkpt>
      <trkpt lat="43.4723188541829586029052734375" lon="1.4303032122552394866943359375">
        <ele>247.1999969482421875</ele>
        <time>2026-08-05T11:08:31.000Z</time>
        <extensions>
          <ns3:TrackPointExtension>
            <ns3:hr>73</ns3:hr>
            <ns3:cad>48</ns3:cad>
          </ns3:TrackPointExtension>
        </extensions>
      </trkpt>
      <trkpt lat="43.47232111729681491851806640625" lon="1.43028996884822845458984375">
        <ele>247.1999969482421875</ele>
        <time>2026-08-05T11:08:32.000Z</time>
        <extensions>
          <ns3:TrackPointExtension>
            <ns3:hr>73</ns3:hr>
            <ns3:cad>47</ns3:cad>
          </ns3:TrackPointExtension>
        </extensions>
      </trkpt>
      <trkpt lat="43.4723242186009883880615234375" lon="1.43027848564088344573974609375">
        <ele>247.1999969482421875</ele>
        <time>2026-08-05T11:08:33.000Z</time>
        <extensions>
          <ns3:TrackPointExtension>
            <ns3:hr>72</ns3:hr>
            <ns3:cad>46</ns3:cad>
          </ns3:TrackPointExtension>
        </extensions>
      </trkpt>
      <trkpt lat="43.4723289124667644500732421875" lon="1.4302678406238555908203125">
        <ele>247</ele>
        <time>2026-08-05T11:08:34.000Z</time>
        <extensions>
          <ns3:TrackPointExtension>
            <ns3:hr>72</ns3:hr>
            <ns3:cad>46</ns3:cad>
          </ns3:TrackPointExtension>
        </extensions>
      </trkpt>
      <trkpt lat="43.472331427037715911865234375" lon="1.43025853671133518218994140625">
        <ele>247</ele>
        <time>2026-08-05T11:08:35.000Z</time>
        <extensions>
          <ns3:TrackPointExtension>
            <ns3:hr>72</ns3:hr>
            <ns3:cad>46</ns3:cad>
          </ns3:TrackPointExtension>
        </extensions>
      </trkpt>
      <trkpt lat="43.47233503125607967376708984375" lon="1.4302452094852924346923828125">
        <ele>246.8000030517578125</ele>
        <time>2026-08-05T11:08:36.000Z</time>
        <extensions>
          <ns3:TrackPointExtension>
            <ns3:hr>72</ns3:hr>
            <ns3:cad>46</ns3:cad>
          </ns3:TrackPointExtension>
        </extensions>
      </trkpt>
      <trkpt lat="43.4723379649221897125244140625" lon="1.43023632466793060302734375">
        <ele>246.600006103515625</ele>
        <time>2026-08-05T11:08:37.000Z</time>
        <extensions>
          <ns3:TrackPointExtension>
            <ns3:hr>72</ns3:hr>
            <ns3:cad>46</ns3:cad>
          </ns3:TrackPointExtension>
        </extensions>
      </trkpt>
      <trkpt lat="43.472344167530536651611328125" lon="1.43022500909864902496337890625">
        <ele>246.600006103515625</ele>
        <time>2026-08-05T11:08:38.000Z</time>
        <extensions>
          <ns3:TrackPointExtension>
            <ns3:hr>72</ns3:hr>
            <ns3:cad>46</ns3:cad>
          </ns3:TrackPointExtension>
        </extensions>
      </trkpt>
      <trkpt lat="43.47234785556793212890625" lon="1.43021495081484317779541015625">
        <ele>246.600006103515625</ele>
        <time>2026-08-05T11:08:39.000Z</time>
        <extensions>
          <ns3:TrackPointExtension>
            <ns3:hr>72</ns3:hr>
            <ns3:cad>46</ns3:cad>
          </ns3:TrackPointExtension>
        </extensions>
      </trkpt>
      <trkpt lat="43.4723540581762790679931640625" lon="1.43020204268395900726318359375">
        <ele>246.399993896484375</ele>
        <time>2026-08-05T11:08:40.000Z</time>
        <extensions>
          <ns3:TrackPointExtension>
            <ns3:hr>72</ns3:hr>
            <ns3:cad>44</ns3:cad>
          </ns3:TrackPointExtension>
        </extensions>
      </trkpt>
      <trkpt lat="43.4723577462136745452880859375" lon="1.43019433133304119110107421875">
        <ele>246.399993896484375</ele>
        <time>2026-08-05T11:08:41.000Z</time>
        <extensions>
          <ns3:TrackPointExtension>
            <ns3:hr>72</ns3:hr>
            <ns3:cad>44</ns3:cad>
          </ns3:TrackPointExtension>
        </extensions>
      </trkpt>
      <trkpt lat="43.4723614342510700225830078125" lon="1.43018779344856739044189453125">
        <ele>246.399993896484375</ele>
        <time>2026-08-05T11:08:42.000Z</time>
        <extensions>
          <ns3:TrackPointExtension>
            <ns3:hr>72</ns3:hr>
            <ns3:cad>44</ns3:cad>
          </ns3:TrackPointExtension>
        </extensions>
      </trkpt>
      <trkpt lat="43.47236470319330692291259765625" lon="1.43018041737377643585205078125">
        <ele>246.1999969482421875</ele>
        <time>2026-08-05T11:08:43.000Z</time>
        <extensions>
          <ns3:TrackPointExtension>
            <ns3:hr>72</ns3:hr>
            <ns3:cad>44</ns3:cad>
          </ns3:TrackPointExtension>
        </extensions>
      </trkpt>
      <trkpt lat="43.47237107343971729278564453125" lon="1.4301714487373828887939453125">
        <ele>246.1999969482421875</ele>
        <time>2026-08-05T11:08:44.000Z</time>
        <extensions>
          <ns3:TrackPointExtension>
            <ns3:hr>72</ns3:hr>
            <ns3:cad>44</ns3:cad>
          </ns3:TrackPointExtension>
        </extensions>
      </trkpt>
      <trkpt lat="43.472377024590969085693359375" lon="1.43015895970165729522705078125">
        <ele>246.1999969482421875</ele>
        <time>2026-08-05T11:08:45.000Z</time>
        <extensions>
          <ns3:TrackPointExtension>
            <ns3:hr>72</ns3:hr>
            <ns3:cad>44</ns3:cad>
          </ns3:TrackPointExtension>
        </extensions>
      </trkpt>
      <trkpt lat="43.4723818860948085784912109375" lon="1.4301536791026592254638671875">
        <ele>246</ele>
        <time>2026-08-05T11:08:46.000Z</time>
        <extensions>
          <ns3:TrackPointExtension>
            <ns3:hr>71</ns3:hr>
            <ns3:cad>44</ns3:cad>
          </ns3:TrackPointExtension>
        </extensions>
      </trkpt>
      <trkpt lat="43.4723845683038234710693359375" lon="1.43014605157077312469482421875">
        <ele>246</ele>
        <time>2026-08-05T11:08:47.000Z</time>
        <extensions>
          <ns3:TrackPointExtension>
            <ns3:hr>70</ns3:hr>
            <ns3:cad>44</ns3:cad>
          </ns3:TrackPointExtension>
        </extensions>
      </trkpt>
      <trkpt lat="43.47238934598863124847412109375" lon="1.43013029359281063079833984375">
        <ele>245.8000030517578125</ele>
        <time>2026-08-05T11:08:48.000Z</time>
        <extensions>
          <ns3:TrackPointExtension>
            <ns3:hr>70</ns3:hr>
            <ns3:cad>44</ns3:cad>
          </ns3:TrackPointExtension>
        </extensions>
      </trkpt>
      <trkpt lat="43.47239303402602672576904296875" lon="1.43012057058513164520263671875">
        <ele>245.8000030517578125</ele>
        <time>2026-08-05T11:08:49.000Z</time>
        <extensions>
          <ns3:TrackPointExtension>
            <ns3:hr>70</ns3:hr>
            <ns3:cad>44</ns3:cad>
          </ns3:TrackPointExtension>
        </extensions>
      </trkpt>
      <trkpt lat="43.4723989851772785186767578125" lon="1.4301087521016597747802734375">
        <ele>245.600006103515625</ele>
        <time>2026-08-05T11:08:50.000Z</time>
        <extensions>
          <ns3:TrackPointExtension>
            <ns3:hr>70</ns3:hr>
            <ns3:cad>44</ns3:cad>
          </ns3:TrackPointExtension>
        </extensions>
      </trkpt>
      <trkpt lat="43.47240258939564228057861328125" lon="1.430100537836551666259765625">
        <ele>245.600006103515625</ele>
        <time>2026-08-05T11:08:51.000Z</time>
        <extensions>
          <ns3:TrackPointExtension>
            <ns3:hr>70</ns3:hr>
            <ns3:cad>46</ns3:cad>
          </ns3:TrackPointExtension>
        </extensions>
      </trkpt>
      <trkpt lat="43.472407869994640350341796875" lon="1.43008788116276264190673828125">
        <ele>245.399993896484375</ele>
        <time>2026-08-05T11:08:52.000Z</time>
        <extensions>
          <ns3:TrackPointExtension>
            <ns3:hr>70</ns3:hr>
            <ns3:cad>48</ns3:cad>
          </ns3:TrackPointExtension>
        </extensions>
      </trkpt>
      <trkpt lat="43.47241164185106754302978515625" lon="1.4300782419741153717041015625">
        <ele>245.399993896484375</ele>
        <time>2026-08-05T11:08:53.000Z</time>
        <extensions>
          <ns3:TrackPointExtension>
            <ns3:hr>71</ns3:hr>
            <ns3:cad>48</ns3:cad>
          </ns3:TrackPointExtension>
        </extensions>
      </trkpt>
      <trkpt lat="43.4724154137074947357177734375" lon="1.43006843514740467071533203125">
        <ele>245.1999969482421875</ele>
        <time>2026-08-05T11:08:54.000Z</time>
        <extensions>
          <ns3:TrackPointExtension>
            <ns3:hr>70</ns3:hr>
            <ns3:cad>48</ns3:cad>
          </ns3:TrackPointExtension>
        </extensions>
      </trkpt>
      <trkpt lat="43.4724157489836215972900390625" lon="1.43006139434874057769775390625">
        <ele>245.1999969482421875</ele>
        <time>2026-08-05T11:08:55.000Z</time>
        <extensions>
          <ns3:TrackPointExtension>
            <ns3:hr>70</ns3:hr>
            <ns3:cad>47</ns3:cad>
          </ns3:TrackPointExtension>
        </extensions>
      </trkpt>
      <trkpt lat="43.4724191017448902130126953125" lon="1.4300460554659366607666015625">
        <ele>245.1999969482421875</ele>
        <time>2026-08-05T11:08:56.000Z</time>
        <extensions>
          <ns3:TrackPointExtension>
            <ns3:hr>71</ns3:hr>
            <ns3:cad>46</ns3:cad>
          </ns3:TrackPointExtension>
        </extensions>
      </trkpt>
      <trkpt lat="43.47242387942969799041748046875" lon="1.4300349913537502288818359375">
        <ele>245</ele>
        <time>2026-08-05T11:08:57.000Z</time>
        <extensions>
          <ns3:TrackPointExtension>
            <ns3:hr>70</ns3:hr>
            <ns3:cad>46</ns3:cad>
          </ns3:TrackPointExtension>
        </extensions>
      </trkpt>
      <trkpt lat="43.47242907620966434478759765625" lon="1.43002417869865894317626953125">
        <ele>245</ele>
        <time>2026-08-05T11:08:58.000Z</time>
        <extensions>
          <ns3:TrackPointExtension>
            <ns3:hr>70</ns3:hr>
            <ns3:cad>46</ns3:cad>
          </ns3:TrackPointExtension>
        </extensions>
      </trkpt>
      <trkpt lat="43.47243569791316986083984375" lon="1.43001613207161426544189453125">
        <ele>245</ele>
        <time>2026-08-05T11:08:59.000Z</time>
        <extensions>
          <ns3:TrackPointExtension>
            <ns3:hr>71</ns3:hr>
            <ns3:cad>46</ns3:cad>
          </ns3:TrackPointExtension>
        </extensions>
      </trkpt>
      <trkpt lat="43.47243896685540676116943359375" lon="1.43000439740717411041259765625">
        <ele>244.8000030517578125</ele>
        <time>2026-08-05T11:09:00.000Z</time>
        <extensions>
          <ns3:TrackPointExtension>
            <ns3:hr>71</ns3:hr>
            <ns3:cad>45</ns3:cad>
          </ns3:TrackPointExtension>
        </extensions>
      </trkpt>
      <trkpt lat="43.47244315780699253082275390625" lon="1.42998998053371906280517578125">
        <ele>244.8000030517578125</ele>
        <time>2026-08-05T11:09:01.000Z</time>
        <extensions>
          <ns3:TrackPointExtension>
            <ns3:hr>71</ns3:hr>
            <ns3:cad>45</ns3:cad>
          </ns3:TrackPointExtension>
        </extensions>
      </trkpt>
      <trkpt lat="43.472447432577610015869140625" lon="1.429979167878627777099609375">
        <ele>244.600006103515625</ele>
        <time>2026-08-05T11:09:02.000Z</time>
        <extensions>
          <ns3:TrackPointExtension>
            <ns3:hr>71</ns3:hr>
            <ns3:cad>45</ns3:cad>
          </ns3:TrackPointExtension>
        </extensions>
      </trkpt>
      <trkpt lat="43.4724519588053226470947265625" lon="1.4299699477851390838623046875">
        <ele>244.600006103515625</ele>
        <time>2026-08-05T11:09:03.000Z</time>
        <extensions>
          <ns3:TrackPointExtension>
            <ns3:hr>71</ns3:hr>
            <ns3:cad>45</ns3:cad>
          </ns3:TrackPointExtension>
        </extensions>
      </trkpt>
      <trkpt lat="43.47245447337627410888671875" lon="1.42996148206293582916259765625">
        <ele>244.600006103515625</ele>
        <time>2026-08-05T11:09:04.000Z</time>
        <extensions>
          <ns3:TrackPointExtension>
            <ns3:hr>71</ns3:hr>
            <ns3:cad>46</ns3:cad>
          </ns3:TrackPointExtension>
        </extensions>
      </trkpt>
      <trkpt lat="43.47245983779430389404296875" lon="1.4299441315233707427978515625">
        <ele>244.399993896484375</ele>
        <time>2026-08-05T11:09:05.000Z</time>
        <extensions>
          <ns3:TrackPointExtension>
            <ns3:hr>72</ns3:hr>
            <ns3:cad>46</ns3:cad>
          </ns3:TrackPointExtension>
        </extensions>
      </trkpt>
      <trkpt lat="43.4724646992981433868408203125" lon="1.42993298359215259552001953125">
        <ele>244.399993896484375</ele>
        <time>2026-08-05T11:09:06.000Z</time>
        <extensions>
          <ns3:TrackPointExtension>
            <ns3:hr>73</ns3:hr>
            <ns3:cad>46</ns3:cad>
          </ns3:TrackPointExtension>
        </extensions>
      </trkpt>
      <trkpt lat="43.47246897406876087188720703125" lon="1.42992309294641017913818359375">
        <ele>244.399993896484375</ele>
        <time>2026-08-05T11:09:07.000Z</time>
        <extensions>
          <ns3:TrackPointExtension>
            <ns3:hr>73</ns3:hr>
            <ns3:cad>46</ns3:cad>
          </ns3:TrackPointExtension>
        </extensions>
      </trkpt>
      <trkpt lat="43.47247199155390262603759765625" lon="1.4299166388809680938720703125">
        <ele>244.1999969482421875</ele>
        <time>2026-08-05T11:09:08.000Z</time>
        <extensions>
          <ns3:TrackPointExtension>
            <ns3:hr>74</ns3:hr>
            <ns3:cad>46</ns3:cad>
          </ns3:TrackPointExtension>
        </extensions>
      </trkpt>
      <trkpt lat="43.4724754281342029571533203125" lon="1.42990230582654476165771484375">
        <ele>244.1999969482421875</ele>
        <time>2026-08-05T11:09:09.000Z</time>
        <extensions>
          <ns3:TrackPointExtension>
            <ns3:hr>74</ns3:hr>
            <ns3:cad>46</ns3:cad>
          </ns3:TrackPointExtension>
        </extensions>
      </trkpt>
      <trkpt lat="43.47248322330415248870849609375" lon="1.42989031970500946044921875">
        <ele>244.1999969482421875</ele>
        <time>2026-08-05T11:09:10.000Z</time>
        <extensions>
          <ns3:TrackPointExtension>
            <ns3:hr>74</ns3:hr>
            <ns3:cad>46</ns3:cad>
          </ns3:TrackPointExtension>
        </extensions>
      </trkpt>
      <trkpt lat="43.472490347921848297119140625" lon="1.42987967468798160552978515625">
        <ele>244</ele>
        <time>2026-08-05T11:09:11.000Z</time>
        <extensions>
          <ns3:TrackPointExtension>
            <ns3:hr>75</ns3:hr>
            <ns3:cad>46</ns3:cad>
          </ns3:TrackPointExtension>
        </extensions>
      </trkpt>
      <trkpt lat="43.47249529324471950531005859375" lon="1.42987179569900035858154296875">
        <ele>244</ele>
        <time>2026-08-05T11:09:12.000Z</time>
        <extensions>
          <ns3:TrackPointExtension>
            <ns3:hr>74</ns3:hr>
            <ns3:cad>47</ns3:cad>
          </ns3:TrackPointExtension>
        </extensions>
      </trkpt>
      <trkpt lat="43.47250275313854217529296875" lon="1.4298601448535919189453125">
        <ele>244</ele>
        <time>2026-08-05T11:09:13.000Z</time>
        <extensions>
          <ns3:TrackPointExtension>
            <ns3:hr>74</ns3:hr>
            <ns3:cad>47</ns3:cad>
          </ns3:TrackPointExtension>
        </extensions>
      </trkpt>
      <trkpt lat="43.4725099615752696990966796875" lon="1.42984933219850063323974609375">
        <ele>244</ele>
        <time>2026-08-05T11:09:14.000Z</time>
        <extensions>
          <ns3:TrackPointExtension>
            <ns3:hr>75</ns3:hr>
            <ns3:cad>47</ns3:cad>
          </ns3:TrackPointExtension>
        </extensions>
      </trkpt>
      <trkpt lat="43.47251323051750659942626953125" lon="1.429834328591823577880859375">
        <ele>244</ele>
        <time>2026-08-05T11:09:15.000Z</time>
        <extensions>
          <ns3:TrackPointExtension>
            <ns3:hr>74</ns3:hr>
            <ns3:cad>47</ns3:cad>
          </ns3:TrackPointExtension>
        </extensions>
      </trkpt>
      <trkpt lat="43.4725180082023143768310546875" lon="1.42982066608965396881103515625">
        <ele>244</ele>
        <time>2026-08-05T11:09:16.000Z</time>
        <extensions>
          <ns3:TrackPointExtension>
            <ns3:hr>74</ns3:hr>
            <ns3:cad>47</ns3:cad>
          </ns3:TrackPointExtension>
        </extensions>
      </trkpt>
      <trkpt lat="43.47252261824905872344970703125" lon="1.4298123680055141448974609375">
        <ele>244</ele>
        <time>2026-08-05T11:09:17.000Z</time>
        <extensions>
          <ns3:TrackPointExtension>
            <ns3:hr>75</ns3:hr>
            <ns3:cad>50</ns3:cad>
          </ns3:TrackPointExtension>
        </extensions>
      </trkpt>
      <trkpt lat="43.4725277312099933624267578125" lon="1.4297999627888202667236328125">
        <ele>243.8000030517578125</ele>
        <time>2026-08-05T11:09:18.000Z</time>
        <extensions>
          <ns3:TrackPointExtension>
            <ns3:hr>75</ns3:hr>
            <ns3:cad>51</ns3:cad>
          </ns3:TrackPointExtension>
        </extensions>
      </trkpt>
      <trkpt lat="43.472532592713832855224609375" lon="1.4297815226018428802490234375">
        <ele>243.8000030517578125</ele>
        <time>2026-08-05T11:09:19.000Z</time>
        <extensions>
          <ns3:TrackPointExtension>
            <ns3:hr>75</ns3:hr>
            <ns3:cad>51</ns3:cad>
          </ns3:TrackPointExtension>
        </extensions>
      </trkpt>
      <trkpt lat="43.472535274922847747802734375" lon="1.4297677762806415557861328125">
        <ele>243.8000030517578125</ele>
        <time>2026-08-05T11:09:20.000Z</time>
        <extensions>
          <ns3:TrackPointExtension>
            <ns3:hr>75</ns3:hr>
            <ns3:cad>51</ns3:cad>
          </ns3:TrackPointExtension>
        </extensions>
      </trkpt>
      <trkpt lat="43.47253887914121150970458984375" lon="1.429755873978137969970703125">
        <ele>243.600006103515625</ele>
        <time>2026-08-05T11:09:21.000Z</time>
        <extensions>
          <ns3:TrackPointExtension>
            <ns3:hr>75</ns3:hr>
            <ns3:cad>51</ns3:cad>
          </ns3:TrackPointExtension>
        </extensions>
      </trkpt>
      <trkpt lat="43.47254022024571895599365234375" lon="1.4297473244369029998779296875">
        <ele>243.600006103515625</ele>
        <time>2026-08-05T11:09:22.000Z</time>
        <extensions>
          <ns3:TrackPointExtension>
            <ns3:hr>75</ns3:hr>
            <ns3:cad>47</ns3:cad>
          </ns3:TrackPointExtension>
        </extensions>
      </trkpt>
      <trkpt lat="43.472546674311161041259765625" lon="1.42973005771636962890625">
        <ele>243.399993896484375</ele>
        <time>2026-08-05T11:09:23.000Z</time>
        <extensions>
          <ns3:TrackPointExtension>
            <ns3:hr>75</ns3:hr>
            <ns3:cad>47</ns3:cad>
          </ns3:TrackPointExtension>
        </extensions>
      </trkpt>
      <trkpt lat="43.4725512005388736724853515625" lon="1.42971773631870746612548828125">
        <ele>243.399993896484375</ele>
        <time>2026-08-05T11:09:24.000Z</time>
        <extensions>
          <ns3:TrackPointExtension>
            <ns3:hr>76</ns3:hr>
            <ns3:cad>47</ns3:cad>
          </ns3:TrackPointExtension>
        </extensions>
      </trkpt>
      <trkpt lat="43.47255430184304714202880859375" lon="1.42970985732972621917724609375">
        <ele>243.1999969482421875</ele>
        <time>2026-08-05T11:09:25.000Z</time>
        <extensions>
          <ns3:TrackPointExtension>
            <ns3:hr>76</ns3:hr>
            <ns3:cad>47</ns3:cad>
          </ns3:TrackPointExtension>
        </extensions>
      </trkpt>
      <trkpt lat="43.47255715169012546539306640625" lon="1.4297007210552692413330078125">
        <ele>243.1999969482421875</ele>
        <time>2026-08-05T11:09:26.000Z</time>
        <extensions>
          <ns3:TrackPointExtension>
            <ns3:hr>76</ns3:hr>
            <ns3:cad>47</ns3:cad>
          </ns3:TrackPointExtension>
        </extensions>
      </trkpt>
      <trkpt lat="43.47255899570882320404052734375" lon="1.429692842066287994384765625">
        <ele>243.1999969482421875</ele>
        <time>2026-08-05T11:09:27.000Z</time>
        <extensions>
          <ns3:TrackPointExtension>
            <ns3:hr>76</ns3:hr>
            <ns3:cad>47</ns3:cad>
          </ns3:TrackPointExtension>
        </extensions>
      </trkpt>
      <trkpt lat="43.472567461431026458740234375" lon="1.4296752400696277618408203125">
        <ele>243</ele>
        <time>2026-08-05T11:09:28.000Z</time>
        <extensions>
          <ns3:TrackPointExtension>
            <ns3:hr>76</ns3:hr>
            <ns3:cad>48</ns3:cad>
          </ns3:TrackPointExtension>
        </extensions>
      </trkpt>
      <trkpt lat="43.47257207147777080535888671875" lon="1.42966392450034618377685546875">
        <ele>243</ele>
        <time>2026-08-05T11:09:29.000Z</time>
        <extensions>
          <ns3:TrackPointExtension>
            <ns3:hr>76</ns3:hr>
            <ns3:cad>48</ns3:cad>
          </ns3:TrackPointExtension>
        </extensions>
      </trkpt>
      <trkpt lat="43.4725776873528957366943359375" lon="1.42965160310268402099609375">
        <ele>243</ele>
        <time>2026-08-05T11:09:30.000Z</time>
        <extensions>
          <ns3:TrackPointExtension>
            <ns3:hr>76</ns3:hr>
            <ns3:cad>47</ns3:cad>
          </ns3:TrackPointExtension>
        </extensions>
      </trkpt>
      <trkpt lat="43.4725825488567352294921875" lon="1.42964087426662445068359375">
        <ele>242.8000030517578125</ele>
        <time>2026-08-05T11:09:31.000Z</time>
        <extensions>
          <ns3:TrackPointExtension>
            <ns3:hr>76</ns3:hr>
            <ns3:cad>47</ns3:cad>
          </ns3:TrackPointExtension>
        </extensions>
      </trkpt>
      <trkpt lat="43.47258363850414752960205078125" lon="1.4296340011060237884521484375">
        <ele>242.8000030517578125</ele>
        <time>2026-08-05T11:09:32.000Z</time>
        <extensions>
          <ns3:TrackPointExtension>
            <ns3:hr>76</ns3:hr>
            <ns3:cad>46</ns3:cad>
          </ns3:TrackPointExtension>
        </extensions>
      </trkpt>
      <trkpt lat="43.47258665598928928375244140625" lon="1.4296158961951732635498046875">
        <ele>242.8000030517578125</ele>
        <time>2026-08-05T11:09:33.000Z</time>
        <extensions>
          <ns3:TrackPointExtension>
            <ns3:hr>75</ns3:hr>
            <ns3:cad>46</ns3:cad>
          </ns3:TrackPointExtension>
        </extensions>
      </trkpt>
      <trkpt lat="43.4725905954837799072265625" lon="1.42960290424525737762451171875">
        <ele>242.8000030517578125</ele>
        <time>2026-08-05T11:09:34.000Z</time>
        <extensions>
          <ns3:TrackPointExtension>
            <ns3:hr>75</ns3:hr>
            <ns3:cad>46</ns3:cad>
          </ns3:TrackPointExtension>
        </extensions>
      </trkpt>
      <trkpt lat="43.47259419970214366912841796875" lon="1.42958831973373889923095703125">
        <ele>242.8000030517578125</ele>
        <time>2026-08-05T11:09:35.000Z</time>
        <extensions>
          <ns3:TrackPointExtension>
            <ns3:hr>75</ns3:hr>
            <ns3:cad>46</ns3:cad>
          </ns3:TrackPointExtension>
        </extensions>
      </trkpt>
      <trkpt lat="43.4725978039205074310302734375" lon="1.42957792617380619049072265625">
        <ele>242.8000030517578125</ele>
        <time>2026-08-05T11:09:36.000Z</time>
        <extensions>
          <ns3:TrackPointExtension>
            <ns3:hr>76</ns3:hr>
            <ns3:cad>46</ns3:cad>
          </ns3:TrackPointExtension>
        </extensions>
      </trkpt>
      <trkpt lat="43.4726013243198394775390625" lon="1.429566442966461181640625">
        <ele>242.600006103515625</ele>
        <time>2026-08-05T11:09:37.000Z</time>
        <extensions>
          <ns3:TrackPointExtension>
            <ns3:hr>75</ns3:hr>
            <ns3:cad>48</ns3:cad>
          </ns3:TrackPointExtension>
        </extensions>
      </trkpt>
      <trkpt lat="43.4726093709468841552734375" lon="1.4295521937310695648193359375">
        <ele>242.600006103515625</ele>
        <time>2026-08-05T11:09:38.000Z</time>
        <extensions>
          <ns3:TrackPointExtension>
            <ns3:hr>76</ns3:hr>
            <ns3:cad>48</ns3:cad>
          </ns3:TrackPointExtension>
        </extensions>
      </trkpt>
      <trkpt lat="43.47261465154588222503662109375" lon="1.42954003997147083282470703125">
        <ele>242.600006103515625</ele>
        <time>2026-08-05T11:09:39.000Z</time>
        <extensions>
          <ns3:TrackPointExtension>
            <ns3:hr>77</ns3:hr>
            <ns3:cad>48</ns3:cad>
          </ns3:TrackPointExtension>
        </extensions>
      </trkpt>
      <trkpt lat="43.4726209379732608795166015625" lon="1.42952746711671352386474609375">
        <ele>242.600006103515625</ele>
        <time>2026-08-05T11:09:40.000Z</time>
        <extensions>
          <ns3:TrackPointExtension>
            <ns3:hr>77</ns3:hr>
            <ns3:cad>48</ns3:cad>
          </ns3:TrackPointExtension>
        </extensions>
      </trkpt>
      <trkpt lat="43.47262571565806865692138671875" lon="1.4295186661183834075927734375">
        <ele>242.399993896484375</ele>
        <time>2026-08-05T11:09:41.000Z</time>
        <extensions>
          <ns3:TrackPointExtension>
            <ns3:hr>77</ns3:hr>
            <ns3:cad>48</ns3:cad>
          </ns3:TrackPointExtension>
        </extensions>
      </trkpt>
      <trkpt lat="43.47263091243803501129150390625" lon="1.42950517125427722930908203125">
        <ele>242.399993896484375</ele>
        <time>2026-08-05T11:09:42.000Z</time>
        <extensions>
          <ns3:TrackPointExtension>
            <ns3:hr>78</ns3:hr>
            <ns3:cad>48</ns3:cad>
          </ns3:TrackPointExtension>
        </extensions>
      </trkpt>
      <trkpt lat="43.472636528313159942626953125" lon="1.4294884912669658660888671875">
        <ele>242.399993896484375</ele>
        <time>2026-08-05T11:09:43.000Z</time>
        <extensions>
          <ns3:TrackPointExtension>
            <ns3:hr>78</ns3:hr>
            <ns3:cad>48</ns3:cad>
          </ns3:TrackPointExtension>
        </extensions>
      </trkpt>
      <trkpt lat="43.47264088690280914306640625" lon="1.4294770918786525726318359375">
        <ele>242.399993896484375</ele>
        <time>2026-08-05T11:09:44.000Z</time>
        <extensions>
          <ns3:TrackPointExtension>
            <ns3:hr>78</ns3:hr>
            <ns3:cad>48</ns3:cad>
          </ns3:TrackPointExtension>
        </extensions>
      </trkpt>
      <trkpt lat="43.472645916044712066650390625" lon="1.42946795560419559478759765625">
        <ele>242.399993896484375</ele>
        <time>2026-08-05T11:09:45.000Z</time>
        <extensions>
          <ns3:TrackPointExtension>
            <ns3:hr>78</ns3:hr>
            <ns3:cad>47</ns3:cad>
          </ns3:TrackPointExtension>
        </extensions>
      </trkpt>
      <trkpt lat="43.47264767624437808990478515625" lon="1.429462172091007232666015625">
        <ele>242.399993896484375</ele>
        <time>2026-08-05T11:09:46.000Z</time>
        <extensions>
          <ns3:TrackPointExtension>
            <ns3:hr>78</ns3:hr>
            <ns3:cad>47</ns3:cad>
          </ns3:TrackPointExtension>
        </extensions>
      </trkpt>
      <trkpt lat="43.47265153191983699798583984375" lon="1.42944783903658390045166015625">
        <ele>242.399993896484375</ele>
        <time>2026-08-05T11:09:47.000Z</time>
        <extensions>
          <ns3:TrackPointExtension>
            <ns3:hr>78</ns3:hr>
            <ns3:cad>47</ns3:cad>
          </ns3:TrackPointExtension>
        </extensions>
      </trkpt>
      <trkpt lat="43.472654633224010467529296875" lon="1.429436691105365753173828125">
        <ele>242.399993896484375</ele>
        <time>2026-08-05T11:09:48.000Z</time>
        <extensions>
          <ns3:TrackPointExtension>
            <ns3:hr>77</ns3:hr>
            <ns3:cad>47</ns3:cad>
          </ns3:TrackPointExtension>
        </extensions>
      </trkpt>
      <trkpt lat="43.47265857271850109100341796875" lon="1.4294254593551158905029296875">
        <ele>242.1999969482421875</ele>
        <time>2026-08-05T11:09:49.000Z</time>
        <extensions>
          <ns3:TrackPointExtension>
            <ns3:hr>77</ns3:hr>
            <ns3:cad>48</ns3:cad>
          </ns3:TrackPointExtension>
        </extensions>
      </trkpt>
      <trkpt lat="43.4726598300039768218994140625" lon="1.429417915642261505126953125">
        <ele>242.1999969482421875</ele>
        <time>2026-08-05T11:09:50.000Z</time>
        <extensions>
          <ns3:TrackPointExtension>
            <ns3:hr>77</ns3:hr>
            <ns3:cad>48</ns3:cad>
          </ns3:TrackPointExtension>
        </extensions>
      </trkpt>
      <trkpt lat="43.4726641885936260223388671875" lon="1.4294036664068698883056640625">
        <ele>242.1999969482421875</ele>
        <time>2026-08-05T11:09:51.000Z</time>
        <extensions>
          <ns3:TrackPointExtension>
            <ns3:hr>77</ns3:hr>
            <ns3:cad>46</ns3:cad>
          </ns3:TrackPointExtension>
        </extensions>
      </trkpt>
      <trkpt lat="43.4726695530116558074951171875" lon="1.4293895848095417022705078125">
        <ele>242</ele>
        <time>2026-08-05T11:09:52.000Z</time>
        <extensions>
          <ns3:TrackPointExtension>
            <ns3:hr>78</ns3:hr>
            <ns3:cad>46</ns3:cad>
          </ns3:TrackPointExtension>
        </extensions>
      </trkpt>
      <trkpt lat="43.4726752527058124542236328125" lon="1.429375670850276947021484375">
        <ele>242</ele>
        <time>2026-08-05T11:09:53.000Z</time>
        <extensions>
          <ns3:TrackPointExtension>
            <ns3:hr>77</ns3:hr>
            <ns3:cad>46</ns3:cad>
          </ns3:TrackPointExtension>
        </extensions>
      </trkpt>
      <trkpt lat="43.47268053330481052398681640625" lon="1.4293691329658031463623046875">
        <ele>241.8000030517578125</ele>
        <time>2026-08-05T11:09:54.000Z</time>
        <extensions>
          <ns3:TrackPointExtension>
            <ns3:hr>77</ns3:hr>
            <ns3:cad>46</ns3:cad>
          </ns3:TrackPointExtension>
        </extensions>
      </trkpt>
      <trkpt lat="43.47268254496157169342041015625" lon="1.429360248148441314697265625">
        <ele>241.8000030517578125</ele>
        <time>2026-08-05T11:09:55.000Z</time>
        <extensions>
          <ns3:TrackPointExtension>
            <ns3:hr>77</ns3:hr>
            <ns3:cad>45</ns3:cad>
          </ns3:TrackPointExtension>
        </extensions>
      </trkpt>
      <trkpt lat="43.47268539480865001678466796875" lon="1.42934373579919338226318359375">
        <ele>241.600006103515625</ele>
        <time>2026-08-05T11:09:56.000Z</time>
        <extensions>
          <ns3:TrackPointExtension>
            <ns3:hr>77</ns3:hr>
            <ns3:cad>45</ns3:cad>
          </ns3:TrackPointExtension>
        </extensions>
      </trkpt>
      <trkpt lat="43.47268824465572834014892578125" lon="1.4293312467634677886962890625">
        <ele>241.600006103515625</ele>
        <time>2026-08-05T11:09:57.000Z</time>
        <extensions>
          <ns3:TrackPointExtension>
            <ns3:hr>76</ns3:hr>
            <ns3:cad>47</ns3:cad>
          </ns3:TrackPointExtension>
        </extensions>
      </trkpt>
      <trkpt lat="43.4726916812360286712646484375" lon="1.42931791953742504119873046875">
        <ele>241.600006103515625</ele>
        <time>2026-08-05T11:09:58.000Z</time>
        <extensions>
          <ns3:TrackPointExtension>
            <ns3:hr>76</ns3:hr>
            <ns3:cad>47</ns3:cad>
          </ns3:TrackPointExtension>
        </extensions>
      </trkpt>
      <trkpt lat="43.47269344143569469451904296875" lon="1.42931054346263408660888671875">
        <ele>241.600006103515625</ele>
        <time>2026-08-05T11:09:59.000Z</time>
        <extensions>
          <ns3:TrackPointExtension>
            <ns3:hr>76</ns3:hr>
            <ns3:cad>47</ns3:cad>
          </ns3:TrackPointExtension>
        </extensions>
      </trkpt>
      <trkpt lat="43.4726987220346927642822265625" lon="1.42929545603692531585693359375">
        <ele>241.399993896484375</ele>
        <time>2026-08-05T11:10:00.000Z</time>
        <extensions>
          <ns3:TrackPointExtension>
            <ns3:hr>76</ns3:hr>
            <ns3:cad>45</ns3:cad>
          </ns3:TrackPointExtension>
        </extensions>
      </trkpt>
      <trkpt lat="43.47270349971950054168701171875" lon="1.429281793534755706787109375">
        <ele>241.399993896484375</ele>
        <time>2026-08-05T11:10:01.000Z</time>
        <extensions>
          <ns3:TrackPointExtension>
            <ns3:hr>76</ns3:hr>
            <ns3:cad>45</ns3:cad>
          </ns3:TrackPointExtension>
        </extensions>
      </trkpt>
      <trkpt lat="43.47270919941365718841552734375" lon="1.4292675442993640899658203125">
        <ele>241.399993896484375</ele>
        <time>2026-08-05T11:10:02.000Z</time>
        <extensions>
          <ns3:TrackPointExtension>
            <ns3:hr>76</ns3:hr>
            <ns3:cad>48</ns3:cad>
          </ns3:TrackPointExtension>
        </extensions>
      </trkpt>
      <trkpt lat="43.4727141447365283966064453125" lon="1.42925539053976535797119140625">
        <ele>241.600006103515625</ele>
        <time>2026-08-05T11:10:03.000Z</time>
        <extensions>
          <ns3:TrackPointExtension>
            <ns3:hr>76</ns3:hr>
            <ns3:cad>48</ns3:cad>
          </ns3:TrackPointExtension>
        </extensions>
      </trkpt>
      <trkpt lat="43.47272001206874847412109375" lon="1.42924432642757892608642578125">
        <ele>241.600006103515625</ele>
        <time>2026-08-05T11:10:04.000Z</time>
        <extensions>
          <ns3:TrackPointExtension>
            <ns3:hr>76</ns3:hr>
            <ns3:cad>47</ns3:cad>
          </ns3:TrackPointExtension>
        </extensions>
      </trkpt>
      <trkpt lat="43.47272478975355625152587890625" lon="1.4292320050299167633056640625">
        <ele>241.8000030517578125</ele>
        <time>2026-08-05T11:10:05.000Z</time>
        <extensions>
          <ns3:TrackPointExtension>
            <ns3:hr>76</ns3:hr>
            <ns3:cad>47</ns3:cad>
          </ns3:TrackPointExtension>
        </extensions>
      </trkpt>
      <trkpt lat="43.472729064524173736572265625" lon="1.4292179234325885772705078125">
        <ele>241.8000030517578125</ele>
        <time>2026-08-05T11:10:06.000Z</time>
        <extensions>
          <ns3:TrackPointExtension>
            <ns3:hr>77</ns3:hr>
            <ns3:cad>47</ns3:cad>
          </ns3:TrackPointExtension>
        </extensions>
      </trkpt>
      <trkpt lat="43.47273342311382293701171875" lon="1.4292051829397678375244140625">
        <ele>241.600006103515625</ele>
        <time>2026-08-05T11:10:07.000Z</time>
        <extensions>
          <ns3:TrackPointExtension>
            <ns3:hr>77</ns3:hr>
            <ns3:cad>48</ns3:cad>
          </ns3:TrackPointExtension>
        </extensions>
      </trkpt>
      <trkpt lat="43.4727382846176624298095703125" lon="1.42919923178851604461669921875">
        <ele>241.399993896484375</ele>
        <time>2026-08-05T11:10:08.000Z</time>
        <extensions>
          <ns3:TrackPointExtension>
            <ns3:hr>77</ns3:hr>
            <ns3:cad>48</ns3:cad>
          </ns3:TrackPointExtension>
        </extensions>
      </trkpt>
      <trkpt lat="43.472743146121501922607421875" lon="1.429189927875995635986328125">
        <ele>241.1999969482421875</ele>
        <time>2026-08-05T11:10:09.000Z</time>
        <extensions>
          <ns3:TrackPointExtension>
            <ns3:hr>77</ns3:hr>
            <ns3:cad>48</ns3:cad>
          </ns3:TrackPointExtension>
        </extensions>
      </trkpt>
      <trkpt lat="43.472747169435024261474609375" lon="1.42917626537382602691650390625">
        <ele>241</ele>
        <time>2026-08-05T11:10:10.000Z</time>
        <extensions>
          <ns3:TrackPointExtension>
            <ns3:hr>77</ns3:hr>
            <ns3:cad>48</ns3:cad>
          </ns3:TrackPointExtension>
        </extensions>
      </trkpt>
      <trkpt lat="43.4727516956627368927001953125" lon="1.429161764681339263916015625">
        <ele>240.600006103515625</ele>
        <time>2026-08-05T11:10:11.000Z</time>
        <extensions>
          <ns3:TrackPointExtension>
            <ns3:hr>78</ns3:hr>
            <ns3:cad>47</ns3:cad>
          </ns3:TrackPointExtension>
        </extensions>
      </trkpt>
      <trkpt lat="43.47275664098560810089111328125" lon="1.42915070056915283203125">
        <ele>240.399993896484375</ele>
        <time>2026-08-05T11:10:12.000Z</time>
        <extensions>
          <ns3:TrackPointExtension>
            <ns3:hr>78</ns3:hr>
            <ns3:cad>47</ns3:cad>
          </ns3:TrackPointExtension>
        </extensions>
      </trkpt>
      <trkpt lat="43.472762592136859893798828125" lon="1.4291391335427761077880859375">
        <ele>240.1999969482421875</ele>
        <time>2026-08-05T11:10:13.000Z</time>
        <extensions>
          <ns3:TrackPointExtension>
            <ns3:hr>78</ns3:hr>
            <ns3:cad>47</ns3:cad>
          </ns3:TrackPointExtension>
        </extensions>
      </trkpt>
      <trkpt lat="43.47277038730680942535400390625" lon="1.42913066782057285308837890625">
        <ele>240.1999969482421875</ele>
        <time>2026-08-05T11:10:14.000Z</time>
        <extensions>
          <ns3:TrackPointExtension>
            <ns3:hr>78</ns3:hr>
            <ns3:cad>48</ns3:cad>
          </ns3:TrackPointExtension>
        </extensions>
      </trkpt>
      <trkpt lat="43.47277491353452205657958984375" lon="1.42912052571773529052734375">
        <ele>240.1999969482421875</ele>
        <time>2026-08-05T11:10:15.000Z</time>
        <extensions>
          <ns3:TrackPointExtension>
            <ns3:hr>78</ns3:hr>
            <ns3:cad>50</ns3:cad>
          </ns3:TrackPointExtension>
        </extensions>
      </trkpt>
      <trkpt lat="43.4727795235812664031982421875" lon="1.42909982241690158843994140625">
        <ele>240.1999969482421875</ele>
        <time>2026-08-05T11:10:16.000Z</time>
        <extensions>
          <ns3:TrackPointExtension>
            <ns3:hr>78</ns3:hr>
            <ns3:cad>50</ns3:cad>
          </ns3:TrackPointExtension>
        </extensions>
      </trkpt>
      <trkpt lat="43.47278245724737644195556640625" lon="1.42907853238284587860107421875">
        <ele>240</ele>
        <time>2026-08-05T11:10:17.000Z</time>
        <extensions>
          <ns3:TrackPointExtension>
            <ns3:hr>79</ns3:hr>
            <ns3:cad>48</ns3:cad>
          </ns3:TrackPointExtension>
        </extensions>
      </trkpt>
      <trkpt lat="43.47278631292283535003662109375" lon="1.4290620200335979461669921875">
        <ele>240</ele>
        <time>2026-08-05T11:10:18.000Z</time>
        <extensions>
          <ns3:TrackPointExtension>
            <ns3:hr>79</ns3:hr>
            <ns3:cad>48</ns3:cad>
          </ns3:TrackPointExtension>
        </extensions>
      </trkpt>
      <trkpt lat="43.47279150970280170440673828125" lon="1.42905791290104389190673828125">
        <ele>240</ele>
        <time>2026-08-05T11:10:19.000Z</time>
        <extensions>
          <ns3:TrackPointExtension>
            <ns3:hr>79</ns3:hr>
            <ns3:cad>48</ns3:cad>
          </ns3:TrackPointExtension>
        </extensions>
      </trkpt>
      <trkpt lat="43.4727972932159900665283203125" lon="1.4290529675781726837158203125">
        <ele>240</ele>
        <time>2026-08-05T11:10:20.000Z</time>
        <extensions>
          <ns3:TrackPointExtension>
            <ns3:hr>78</ns3:hr>
            <ns3:cad>48</ns3:cad>
          </ns3:TrackPointExtension>
        </extensions>
      </trkpt>
      <trkpt lat="43.4728019870817661285400390625" lon="1.42903544940054416656494140625">
        <ele>240</ele>
        <time>2026-08-05T11:10:21.000Z</time>
        <extensions>
          <ns3:TrackPointExtension>
            <ns3:hr>78</ns3:hr>
            <ns3:cad>48</ns3:cad>
          </ns3:TrackPointExtension>
        </extensions>
      </trkpt>
      <trkpt lat="43.4728046692907810211181640625" lon="1.42901650629937648773193359375">
        <ele>239.8000030517578125</ele>
        <time>2026-08-05T11:10:22.000Z</time>
        <extensions>
          <ns3:TrackPointExtension>
            <ns3:hr>78</ns3:hr>
            <ns3:cad>48</ns3:cad>
          </ns3:TrackPointExtension>
        </extensions>
      </trkpt>
      <trkpt lat="43.47280944697558879852294921875" lon="1.42900074832141399383544921875">
        <ele>239.600006103515625</ele>
        <time>2026-08-05T11:10:23.000Z</time>
        <extensions>
          <ns3:TrackPointExtension>
            <ns3:hr>77</ns3:hr>
            <ns3:cad>48</ns3:cad>
          </ns3:TrackPointExtension>
        </extensions>
      </trkpt>
      <trkpt lat="43.4728147275745868682861328125" lon="1.42898750491440296173095703125">
        <ele>239.600006103515625</ele>
        <time>2026-08-05T11:10:24.000Z</time>
        <extensions>
          <ns3:TrackPointExtension>
            <ns3:hr>77</ns3:hr>
            <ns3:cad>48</ns3:cad>
          </ns3:TrackPointExtension>
        </extensions>
      </trkpt>
      <trkpt lat="43.472817577421665191650390625" lon="1.42897660844027996063232421875">
        <ele>239.399993896484375</ele>
        <time>2026-08-05T11:10:25.000Z</time>
        <extensions>
          <ns3:TrackPointExtension>
            <ns3:hr>78</ns3:hr>
            <ns3:cad>48</ns3:cad>
          </ns3:TrackPointExtension>
        </extensions>
      </trkpt>
      <trkpt lat="43.472822271287441253662109375" lon="1.42896587960422039031982421875">
        <ele>239.399993896484375</ele>
        <time>2026-08-05T11:10:26.000Z</time>
        <extensions>
          <ns3:TrackPointExtension>
            <ns3:hr>78</ns3:hr>
            <ns3:cad>48</ns3:cad>
          </ns3:TrackPointExtension>
        </extensions>
      </trkpt>
      <trkpt lat="43.47282637841999530792236328125" lon="1.4289493672549724578857421875">
        <ele>239.1999969482421875</ele>
        <time>2026-08-05T11:10:27.000Z</time>
        <extensions>
          <ns3:TrackPointExtension>
            <ns3:hr>78</ns3:hr>
            <ns3:cad>48</ns3:cad>
          </ns3:TrackPointExtension>
        </extensions>
      </trkpt>
      <trkpt lat="43.47283174283802509307861328125" lon="1.4289339445531368255615234375">
        <ele>239.1999969482421875</ele>
        <time>2026-08-05T11:10:28.000Z</time>
        <extensions>
          <ns3:TrackPointExtension>
            <ns3:hr>78</ns3:hr>
            <ns3:cad>48</ns3:cad>
          </ns3:TrackPointExtension>
        </extensions>
      </trkpt>
      <trkpt lat="43.47283811308443546295166015625" lon="1.42892028205096721649169921875">
        <ele>239.1999969482421875</ele>
        <time>2026-08-05T11:10:29.000Z</time>
        <extensions>
          <ns3:TrackPointExtension>
            <ns3:hr>78</ns3:hr>
            <ns3:cad>48</ns3:cad>
          </ns3:TrackPointExtension>
        </extensions>
      </trkpt>
      <trkpt lat="43.47284498624503612518310546875" lon="1.428908966481685638427734375">
        <ele>239</ele>
        <time>2026-08-05T11:10:30.000Z</time>
        <extensions>
          <ns3:TrackPointExtension>
            <ns3:hr>78</ns3:hr>
            <ns3:cad>49</ns3:cad>
          </ns3:TrackPointExtension>
        </extensions>
      </trkpt>
      <trkpt lat="43.47284884192049503326416015625" lon="1.42889865674078464508056640625">
        <ele>239</ele>
        <time>2026-08-05T11:10:31.000Z</time>
        <extensions>
          <ns3:TrackPointExtension>
            <ns3:hr>79</ns3:hr>
            <ns3:cad>49</ns3:cad>
          </ns3:TrackPointExtension>
        </extensions>
      </trkpt>
      <trkpt lat="43.47285588271915912628173828125" lon="1.4288863353431224822998046875">
        <ele>239</ele>
        <time>2026-08-05T11:10:32.000Z</time>
        <extensions>
          <ns3:TrackPointExtension>
            <ns3:hr>78</ns3:hr>
            <ns3:cad>49</ns3:cad>
          </ns3:TrackPointExtension>
        </extensions>
      </trkpt>
      <trkpt lat="43.47286057658493518829345703125" lon="1.42887912690639495849609375">
        <ele>239</ele>
        <time>2026-08-05T11:10:33.000Z</time>
        <extensions>
          <ns3:TrackPointExtension>
            <ns3:hr>78</ns3:hr>
            <ns3:cad>50</ns3:cad>
          </ns3:TrackPointExtension>
        </extensions>
      </trkpt>
      <trkpt lat="43.472865521907806396484375" lon="1.4288581721484661102294921875">
        <ele>239</ele>
        <time>2026-08-05T11:10:34.000Z</time>
        <extensions>
          <ns3:TrackPointExtension>
            <ns3:hr>78</ns3:hr>
            <ns3:cad>50</ns3:cad>
          </ns3:TrackPointExtension>
        </extensions>
      </trkpt>
      <trkpt lat="43.47287046723067760467529296875" lon="1.42884425818920135498046875">
        <ele>239</ele>
        <time>2026-08-05T11:10:35.000Z</time>
        <extensions>
          <ns3:TrackPointExtension>
            <ns3:hr>78</ns3:hr>
            <ns3:cad>50</ns3:cad>
          </ns3:TrackPointExtension>
        </extensions>
      </trkpt>
      <trkpt lat="43.47287516109645366668701171875" lon="1.42883193679153919219970703125">
        <ele>238.8000030517578125</ele>
        <time>2026-08-05T11:10:36.000Z</time>
        <extensions>
          <ns3:TrackPointExtension>
            <ns3:hr>78</ns3:hr>
            <ns3:cad>50</ns3:cad>
          </ns3:TrackPointExtension>
        </extensions>
      </trkpt>
      <trkpt lat="43.47287901677191257476806640625" lon="1.42881819047033786773681640625">
        <ele>238.8000030517578125</ele>
        <time>2026-08-05T11:10:37.000Z</time>
        <extensions>
          <ns3:TrackPointExtension>
            <ns3:hr>78</ns3:hr>
            <ns3:cad>50</ns3:cad>
          </ns3:TrackPointExtension>
        </extensions>
      </trkpt>
      <trkpt lat="43.47288320772349834442138671875" lon="1.42880695872008800506591796875">
        <ele>238.600006103515625</ele>
        <time>2026-08-05T11:10:38.000Z</time>
        <extensions>
          <ns3:TrackPointExtension>
            <ns3:hr>78</ns3:hr>
            <ns3:cad>50</ns3:cad>
          </ns3:TrackPointExtension>
        </extensions>
      </trkpt>
      <trkpt lat="43.47288899123668670654296875" lon="1.4287912845611572265625">
        <ele>238.600006103515625</ele>
        <time>2026-08-05T11:10:39.000Z</time>
        <extensions>
          <ns3:TrackPointExtension>
            <ns3:hr>78</ns3:hr>
            <ns3:cad>50</ns3:cad>
          </ns3:TrackPointExtension>
        </extensions>
      </trkpt>
      <trkpt lat="43.47289376892149448394775390625" lon="1.42877292819321155548095703125">
        <ele>238.600006103515625</ele>
        <time>2026-08-05T11:10:40.000Z</time>
        <extensions>
          <ns3:TrackPointExtension>
            <ns3:hr>78</ns3:hr>
            <ns3:cad>50</ns3:cad>
          </ns3:TrackPointExtension>
        </extensions>
      </trkpt>
      <trkpt lat="43.47290047444403171539306640625" lon="1.42875708639621734619140625">
        <ele>238.600006103515625</ele>
        <time>2026-08-05T11:10:41.000Z</time>
        <extensions>
          <ns3:TrackPointExtension>
            <ns3:hr>79</ns3:hr>
            <ns3:cad>50</ns3:cad>
          </ns3:TrackPointExtension>
        </extensions>
      </trkpt>
      <trkpt lat="43.47290734760463237762451171875" lon="1.4287404902279376983642578125">
        <ele>238.399993896484375</ele>
        <time>2026-08-05T11:10:42.000Z</time>
        <extensions>
          <ns3:TrackPointExtension>
            <ns3:hr>78</ns3:hr>
            <ns3:cad>50</ns3:cad>
          </ns3:TrackPointExtension>
        </extensions>
      </trkpt>
      <trkpt lat="43.4729132987558841705322265625" lon="1.4287260733544826507568359375">
        <ele>238.399993896484375</ele>
        <time>2026-08-05T11:10:43.000Z</time>
        <extensions>
          <ns3:TrackPointExtension>
            <ns3:hr>79</ns3:hr>
            <ns3:cad>51</ns3:cad>
          </ns3:TrackPointExtension>
        </extensions>
      </trkpt>
      <trkpt lat="43.47291857935488224029541015625" lon="1.42871760763227939605712890625">
        <ele>238.399993896484375</ele>
        <time>2026-08-05T11:10:44.000Z</time>
        <extensions>
          <ns3:TrackPointExtension>
            <ns3:hr>80</ns3:hr>
            <ns3:cad>51</ns3:cad>
          </ns3:TrackPointExtension>
        </extensions>
      </trkpt>
      <trkpt lat="43.47292385995388031005859375" lon="1.42870369367301464080810546875">
        <ele>238.1999969482421875</ele>
        <time>2026-08-05T11:10:45.000Z</time>
        <extensions>
          <ns3:TrackPointExtension>
            <ns3:hr>80</ns3:hr>
            <ns3:cad>50</ns3:cad>
          </ns3:TrackPointExtension>
        </extensions>
      </trkpt>
      <trkpt lat="43.47292729653418064117431640625" lon="1.42868424765765666961669921875">
        <ele>238.1999969482421875</ele>
        <time>2026-08-05T11:10:46.000Z</time>
        <extensions>
          <ns3:TrackPointExtension>
            <ns3:hr>80</ns3:hr>
            <ns3:cad>50</ns3:cad>
          </ns3:TrackPointExtension>
        </extensions>
      </trkpt>
      <trkpt lat="43.4729312360286712646484375" lon="1.4286694116890430450439453125">
        <ele>238</ele>
        <time>2026-08-05T11:10:47.000Z</time>
        <extensions>
          <ns3:TrackPointExtension>
            <ns3:hr>80</ns3:hr>
            <ns3:cad>50</ns3:cad>
          </ns3:TrackPointExtension>
        </extensions>
      </trkpt>
      <trkpt lat="43.47293886356055736541748046875" lon="1.42865440808236598968505859375">
        <ele>238</ele>
        <time>2026-08-05T11:10:48.000Z</time>
        <extensions>
          <ns3:TrackPointExtension>
            <ns3:hr>80</ns3:hr>
            <ns3:cad>50</ns3:cad>
          </ns3:TrackPointExtension>
        </extensions>
      </trkpt>
      <trkpt lat="43.47294271923601627349853515625" lon="1.42864032648503780364990234375">
        <ele>238</ele>
        <time>2026-08-05T11:10:49.000Z</time>
        <extensions>
          <ns3:TrackPointExtension>
            <ns3:hr>79</ns3:hr>
            <ns3:cad>50</ns3:cad>
          </ns3:TrackPointExtension>
        </extensions>
      </trkpt>
      <trkpt lat="43.47294825129210948944091796875" lon="1.4286315254867076873779296875">
        <ele>237.8000030517578125</ele>
        <time>2026-08-05T11:10:50.000Z</time>
        <extensions>
          <ns3:TrackPointExtension>
            <ns3:hr>79</ns3:hr>
            <ns3:cad>50</ns3:cad>
          </ns3:TrackPointExtension>
        </extensions>
      </trkpt>
      <trkpt lat="43.47295428626239299774169921875" lon="1.428616605699062347412109375">
        <ele>237.8000030517578125</ele>
        <time>2026-08-05T11:10:51.000Z</time>
        <extensions>
          <ns3:TrackPointExtension>
            <ns3:hr>80</ns3:hr>
            <ns3:cad>50</ns3:cad>
          </ns3:TrackPointExtension>
        </extensions>
      </trkpt>
      <trkpt lat="43.47296006977558135986328125" lon="1.42859942279756069183349609375">
        <ele>237.8000030517578125</ele>
        <time>2026-08-05T11:10:52.000Z</time>
        <extensions>
          <ns3:TrackPointExtension>
            <ns3:hr>80</ns3:hr>
            <ns3:cad>49</ns3:cad>
          </ns3:TrackPointExtension>
        </extensions>
      </trkpt>
      <trkpt lat="43.4729666076600551605224609375" lon="1.4285819046199321746826171875">
        <ele>237.600006103515625</ele>
        <time>2026-08-05T11:10:53.000Z</time>
        <extensions>
          <ns3:TrackPointExtension>
            <ns3:hr>80</ns3:hr>
            <ns3:cad>49</ns3:cad>
          </ns3:TrackPointExtension>
        </extensions>
      </trkpt>
      <trkpt lat="43.4729713015258312225341796875" lon="1.42856941558420658111572265625">
        <ele>237.600006103515625</ele>
        <time>2026-08-05T11:10:54.000Z</time>
        <extensions>
          <ns3:TrackPointExtension>
            <ns3:hr>79</ns3:hr>
            <ns3:cad>50</ns3:cad>
          </ns3:TrackPointExtension>
        </extensions>
      </trkpt>
      <trkpt lat="43.47297591157257556915283203125" lon="1.42855399288237094879150390625">
        <ele>237.600006103515625</ele>
        <time>2026-08-05T11:10:55.000Z</time>
        <extensions>
          <ns3:TrackPointExtension>
            <ns3:hr>80</ns3:hr>
            <ns3:cad>50</ns3:cad>
          </ns3:TrackPointExtension>
        </extensions>
      </trkpt>
      <trkpt lat="43.4729816950857639312744140625" lon="1.42854443751275539398193359375">
        <ele>237.399993896484375</ele>
        <time>2026-08-05T11:10:56.000Z</time>
        <extensions>
          <ns3:TrackPointExtension>
            <ns3:hr>81</ns3:hr>
            <ns3:cad>50</ns3:cad>
          </ns3:TrackPointExtension>
        </extensions>
      </trkpt>
      <trkpt lat="43.47298555076122283935546875" lon="1.42853789962828159332275390625">
        <ele>237.399993896484375</ele>
        <time>2026-08-05T11:10:57.000Z</time>
        <extensions>
          <ns3:TrackPointExtension>
            <ns3:hr>82</ns3:hr>
            <ns3:cad>51</ns3:cad>
          </ns3:TrackPointExtension>
        </extensions>
      </trkpt>
      <trkpt lat="43.4729902446269989013671875" lon="1.42852432094514369964599609375">
        <ele>237.399993896484375</ele>
        <time>2026-08-05T11:10:58.000Z</time>
        <extensions>
          <ns3:TrackPointExtension>
            <ns3:hr>82</ns3:hr>
            <ns3:cad>51</ns3:cad>
          </ns3:TrackPointExtension>
        </extensions>
      </trkpt>
      <trkpt lat="43.472996614873409271240234375" lon="1.42851023934781551361083984375">
        <ele>237.1999969482421875</ele>
        <time>2026-08-05T11:10:59.000Z</time>
        <extensions>
          <ns3:TrackPointExtension>
            <ns3:hr>82</ns3:hr>
            <ns3:cad>51</ns3:cad>
          </ns3:TrackPointExtension>
        </extensions>
      </trkpt>
      <trkpt lat="43.473001979291439056396484375" lon="1.4284984208643436431884765625">
        <ele>237.1999969482421875</ele>
        <time>2026-08-05T11:11:00.000Z</time>
        <extensions>
          <ns3:TrackPointExtension>
            <ns3:hr>83</ns3:hr>
            <ns3:cad>51</ns3:cad>
          </ns3:TrackPointExtension>
        </extensions>
      </trkpt>
      <trkpt lat="43.473007678985595703125" lon="1.42848777584731578826904296875">
        <ele>237.1999969482421875</ele>
        <time>2026-08-05T11:11:01.000Z</time>
        <extensions>
          <ns3:TrackPointExtension>
            <ns3:hr>83</ns3:hr>
            <ns3:cad>50</ns3:cad>
          </ns3:TrackPointExtension>
        </extensions>
      </trkpt>
      <trkpt lat="43.47301413305103778839111328125" lon="1.4284736104309558868408203125">
        <ele>237</ele>
        <time>2026-08-05T11:11:02.000Z</time>
        <extensions>
          <ns3:TrackPointExtension>
            <ns3:hr>83</ns3:hr>
            <ns3:cad>50</ns3:cad>
          </ns3:TrackPointExtension>
        </extensions>
      </trkpt>
      <trkpt lat="43.473018743097782135009765625" lon="1.4284588582813739776611328125">
        <ele>237</ele>
        <time>2026-08-05T11:11:03.000Z</time>
        <extensions>
          <ns3:TrackPointExtension>
            <ns3:hr>83</ns3:hr>
            <ns3:cad>50</ns3:cad>
          </ns3:TrackPointExtension>
        </extensions>
      </trkpt>
      <trkpt lat="43.47302385605871677398681640625" lon="1.428442932665348052978515625">
        <ele>237</ele>
        <time>2026-08-05T11:11:04.000Z</time>
        <extensions>
          <ns3:TrackPointExtension>
            <ns3:hr>83</ns3:hr>
            <ns3:cad>50</ns3:cad>
          </ns3:TrackPointExtension>
        </extensions>
      </trkpt>
      <trkpt lat="43.47303056158125400543212890625" lon="1.42842717468738555908203125">
        <ele>236.8000030517578125</ele>
        <time>2026-08-05T11:11:05.000Z</time>
        <extensions>
          <ns3:TrackPointExtension>
            <ns3:hr>83</ns3:hr>
            <ns3:cad>50</ns3:cad>
          </ns3:TrackPointExtension>
        </extensions>
      </trkpt>
      <trkpt lat="43.473037183284759521484375" lon="1.4284117519855499267578125">
        <ele>236.8000030517578125</ele>
        <time>2026-08-05T11:11:06.000Z</time>
        <extensions>
          <ns3:TrackPointExtension>
            <ns3:hr>84</ns3:hr>
            <ns3:cad>51</ns3:cad>
          </ns3:TrackPointExtension>
        </extensions>
      </trkpt>
      <trkpt lat="43.47304129041731357574462890625" lon="1.42839725129306316375732421875">
        <ele>236.600006103515625</ele>
        <time>2026-08-05T11:11:07.000Z</time>
        <extensions>
          <ns3:TrackPointExtension>
            <ns3:hr>84</ns3:hr>
            <ns3:cad>51</ns3:cad>
          </ns3:TrackPointExtension>
        </extensions>
      </trkpt>
      <trkpt lat="43.473046906292438507080078125" lon="1.4283814094960689544677734375">
        <ele>236.600006103515625</ele>
        <time>2026-08-05T11:11:08.000Z</time>
        <extensions>
          <ns3:TrackPointExtension>
            <ns3:hr>84</ns3:hr>
            <ns3:cad>51</ns3:cad>
          </ns3:TrackPointExtension>
        </extensions>
      </trkpt>
      <trkpt lat="43.473051600158214569091796875" lon="1.42836707644164562225341796875">
        <ele>236.399993896484375</ele>
        <time>2026-08-05T11:11:09.000Z</time>
        <extensions>
          <ns3:TrackPointExtension>
            <ns3:hr>83</ns3:hr>
            <ns3:cad>51</ns3:cad>
          </ns3:TrackPointExtension>
        </extensions>
      </trkpt>
      <trkpt lat="43.47305570729076862335205078125" lon="1.428353749215602874755859375">
        <ele>236.399993896484375</ele>
        <time>2026-08-05T11:11:10.000Z</time>
        <extensions>
          <ns3:TrackPointExtension>
            <ns3:hr>83</ns3:hr>
            <ns3:cad>51</ns3:cad>
          </ns3:TrackPointExtension>
        </extensions>
      </trkpt>
      <trkpt lat="43.473060317337512969970703125" lon="1.42833790741860866546630859375">
        <ele>236.1999969482421875</ele>
        <time>2026-08-05T11:11:11.000Z</time>
        <extensions>
          <ns3:TrackPointExtension>
            <ns3:hr>81</ns3:hr>
            <ns3:cad>51</ns3:cad>
          </ns3:TrackPointExtension>
        </extensions>
      </trkpt>
      <trkpt lat="43.47306593321263790130615234375" lon="1.4283220656216144561767578125">
        <ele>236.1999969482421875</ele>
        <time>2026-08-05T11:11:12.000Z</time>
        <extensions>
          <ns3:TrackPointExtension>
            <ns3:hr>81</ns3:hr>
            <ns3:cad>51</ns3:cad>
          </ns3:TrackPointExtension>
        </extensions>
      </trkpt>
      <trkpt lat="43.473071046173572540283203125" lon="1.42830756492912769317626953125">
        <ele>236.1999969482421875</ele>
        <time>2026-08-05T11:11:13.000Z</time>
        <extensions>
          <ns3:TrackPointExtension>
            <ns3:hr>81</ns3:hr>
            <ns3:cad>51</ns3:cad>
          </ns3:TrackPointExtension>
        </extensions>
      </trkpt>
      <trkpt lat="43.47307615913450717926025390625" lon="1.4282935671508312225341796875">
        <ele>236</ele>
        <time>2026-08-05T11:11:14.000Z</time>
        <extensions>
          <ns3:TrackPointExtension>
            <ns3:hr>82</ns3:hr>
            <ns3:cad>52</ns3:cad>
          </ns3:TrackPointExtension>
        </extensions>
      </trkpt>
      <trkpt lat="43.47307967953383922576904296875" lon="1.4282801561057567596435546875">
        <ele>236</ele>
        <time>2026-08-05T11:11:15.000Z</time>
        <extensions>
          <ns3:TrackPointExtension>
            <ns3:hr>82</ns3:hr>
            <ns3:cad>52</ns3:cad>
          </ns3:TrackPointExtension>
        </extensions>
      </trkpt>
      <trkpt lat="43.473085127770900726318359375" lon="1.4282633922994136810302734375">
        <ele>236</ele>
        <time>2026-08-05T11:11:16.000Z</time>
        <extensions>
          <ns3:TrackPointExtension>
            <ns3:hr>82</ns3:hr>
            <ns3:cad>52</ns3:cad>
          </ns3:TrackPointExtension>
        </extensions>
      </trkpt>
      <trkpt lat="43.47309107892215251922607421875" lon="1.42824620939791202545166015625">
        <ele>235.8000030517578125</ele>
        <time>2026-08-05T11:11:17.000Z</time>
        <extensions>
          <ns3:TrackPointExtension>
            <ns3:hr>82</ns3:hr>
            <ns3:cad>51</ns3:cad>
          </ns3:TrackPointExtension>
        </extensions>
      </trkpt>
      <trkpt lat="43.4730966947972774505615234375" lon="1.42823028378188610076904296875">
        <ele>235.8000030517578125</ele>
        <time>2026-08-05T11:11:18.000Z</time>
        <extensions>
          <ns3:TrackPointExtension>
            <ns3:hr>82</ns3:hr>
            <ns3:cad>52</ns3:cad>
          </ns3:TrackPointExtension>
        </extensions>
      </trkpt>
      <trkpt lat="43.4731030650436878204345703125" lon="1.428213603794574737548828125">
        <ele>235.8000030517578125</ele>
        <time>2026-08-05T11:11:19.000Z</time>
        <extensions>
          <ns3:TrackPointExtension>
            <ns3:hr>82</ns3:hr>
            <ns3:cad>51</ns3:cad>
          </ns3:TrackPointExtension>
        </extensions>
      </trkpt>
      <trkpt lat="43.47310918383300304412841796875" lon="1.42819759435951709747314453125">
        <ele>235.8000030517578125</ele>
        <time>2026-08-05T11:11:20.000Z</time>
        <extensions>
          <ns3:TrackPointExtension>
            <ns3:hr>81</ns3:hr>
            <ns3:cad>51</ns3:cad>
          </ns3:TrackPointExtension>
        </extensions>
      </trkpt>
      <trkpt lat="43.47311538644134998321533203125" lon="1.4281809143722057342529296875">
        <ele>235.8000030517578125</ele>
        <time>2026-08-05T11:11:21.000Z</time>
        <extensions>
          <ns3:TrackPointExtension>
            <ns3:hr>82</ns3:hr>
            <ns3:cad>51</ns3:cad>
          </ns3:TrackPointExtension>
        </extensions>
      </trkpt>
      <trkpt lat="43.47312142141163349151611328125" lon="1.42816708423197269439697265625">
        <ele>235.600006103515625</ele>
        <time>2026-08-05T11:11:22.000Z</time>
        <extensions>
          <ns3:TrackPointExtension>
            <ns3:hr>82</ns3:hr>
            <ns3:cad>52</ns3:cad>
          </ns3:TrackPointExtension>
        </extensions>
      </trkpt>
      <trkpt lat="43.473126702010631561279296875" lon="1.428153924643993377685546875">
        <ele>235.600006103515625</ele>
        <time>2026-08-05T11:11:23.000Z</time>
        <extensions>
          <ns3:TrackPointExtension>
            <ns3:hr>82</ns3:hr>
            <ns3:cad>52</ns3:cad>
          </ns3:TrackPointExtension>
        </extensions>
      </trkpt>
      <trkpt lat="43.47313332371413707733154296875" lon="1.42813774757087230682373046875">
        <ele>235.399993896484375</ele>
        <time>2026-08-05T11:11:24.000Z</time>
        <extensions>
          <ns3:TrackPointExtension>
            <ns3:hr>82</ns3:hr>
            <ns3:cad>53</ns3:cad>
          </ns3:TrackPointExtension>
        </extensions>
      </trkpt>
      <trkpt lat="43.4731396101415157318115234375" lon="1.428123414516448974609375">
        <ele>235.399993896484375</ele>
        <time>2026-08-05T11:11:25.000Z</time>
        <extensions>
          <ns3:TrackPointExtension>
            <ns3:hr>83</ns3:hr>
            <ns3:cad>53</ns3:cad>
          </ns3:TrackPointExtension>
        </extensions>
      </trkpt>
      <trkpt lat="43.473146148025989532470703125" lon="1.42810639925301074981689453125">
        <ele>235.399993896484375</ele>
        <time>2026-08-05T11:11:26.000Z</time>
        <extensions>
          <ns3:TrackPointExtension>
            <ns3:hr>83</ns3:hr>
            <ns3:cad>53</ns3:cad>
          </ns3:TrackPointExtension>
        </extensions>
      </trkpt>
      <trkpt lat="43.47315251827239990234375" lon="1.428088881075382232666015625">
        <ele>235.399993896484375</ele>
        <time>2026-08-05T11:11:27.000Z</time>
        <extensions>
          <ns3:TrackPointExtension>
            <ns3:hr>83</ns3:hr>
            <ns3:cad>53</ns3:cad>
          </ns3:TrackPointExtension>
        </extensions>
      </trkpt>
      <trkpt lat="43.47315855324268341064453125" lon="1.42807312309741973876953125">
        <ele>235.1999969482421875</ele>
        <time>2026-08-05T11:11:28.000Z</time>
        <extensions>
          <ns3:TrackPointExtension>
            <ns3:hr>84</ns3:hr>
            <ns3:cad>53</ns3:cad>
          </ns3:TrackPointExtension>
        </extensions>
      </trkpt>
      <trkpt lat="43.473165594041347503662109375" lon="1.42805661074817180633544921875">
        <ele>235.1999969482421875</ele>
        <time>2026-08-05T11:11:29.000Z</time>
        <extensions>
          <ns3:TrackPointExtension>
            <ns3:hr>85</ns3:hr>
            <ns3:cad>52</ns3:cad>
          </ns3:TrackPointExtension>
        </extensions>
      </trkpt>
      <trkpt lat="43.473171629011631011962890625" lon="1.4280411042273044586181640625">
        <ele>235</ele>
        <time>2026-08-05T11:11:30.000Z</time>
        <extensions>
          <ns3:TrackPointExtension>
            <ns3:hr>86</ns3:hr>
            <ns3:cad>52</ns3:cad>
          </ns3:TrackPointExtension>
        </extensions>
      </trkpt>
      <trkpt lat="43.47317724488675594329833984375" lon="1.42802576534450054168701171875">
        <ele>235</ele>
        <time>2026-08-05T11:11:31.000Z</time>
        <extensions>
          <ns3:TrackPointExtension>
            <ns3:hr>86</ns3:hr>
            <ns3:cad>52</ns3:cad>
          </ns3:TrackPointExtension>
        </extensions>
      </trkpt>
      <trkpt lat="43.47318269312381744384765625" lon="1.428011097013950347900390625">
        <ele>234.8000030517578125</ele>
        <time>2026-08-05T11:11:32.000Z</time>
        <extensions>
          <ns3:TrackPointExtension>
            <ns3:hr>86</ns3:hr>
            <ns3:cad>52</ns3:cad>
          </ns3:TrackPointExtension>
        </extensions>
      </trkpt>
      <trkpt lat="43.47318830899894237518310546875" lon="1.42799693159759044647216796875">
        <ele>234.8000030517578125</ele>
        <time>2026-08-05T11:11:33.000Z</time>
        <extensions>
          <ns3:TrackPointExtension>
            <ns3:hr>86</ns3:hr>
            <ns3:cad>52</ns3:cad>
          </ns3:TrackPointExtension>
        </extensions>
      </trkpt>
      <trkpt lat="43.473193757236003875732421875" lon="1.42798268236219882965087890625">
        <ele>234.600006103515625</ele>
        <time>2026-08-05T11:11:34.000Z</time>
        <extensions>
          <ns3:TrackPointExtension>
            <ns3:hr>86</ns3:hr>
            <ns3:cad>52</ns3:cad>
          </ns3:TrackPointExtension>
        </extensions>
      </trkpt>
      <trkpt lat="43.473199792206287384033203125" lon="1.4279649965465068817138671875">
        <ele>234.600006103515625</ele>
        <time>2026-08-05T11:11:35.000Z</time>
        <extensions>
          <ns3:TrackPointExtension>
            <ns3:hr>85</ns3:hr>
            <ns3:cad>52</ns3:cad>
          </ns3:TrackPointExtension>
        </extensions>
      </trkpt>
      <trkpt lat="43.47320641390979290008544921875" lon="1.427948065102100372314453125">
        <ele>234.399993896484375</ele>
        <time>2026-08-05T11:11:36.000Z</time>
        <extensions>
          <ns3:TrackPointExtension>
            <ns3:hr>85</ns3:hr>
            <ns3:cad>52</ns3:cad>
          </ns3:TrackPointExtension>
        </extensions>
      </trkpt>
      <trkpt lat="43.47321219742298126220703125" lon="1.427933983504772186279296875">
        <ele>234.399993896484375</ele>
        <time>2026-08-05T11:11:37.000Z</time>
        <extensions>
          <ns3:TrackPointExtension>
            <ns3:hr>84</ns3:hr>
            <ns3:cad>52</ns3:cad>
          </ns3:TrackPointExtension>
        </extensions>
      </trkpt>
      <trkpt lat="43.47321848385035991668701171875" lon="1.42791864462196826934814453125">
        <ele>234.1999969482421875</ele>
        <time>2026-08-05T11:11:38.000Z</time>
        <extensions>
          <ns3:TrackPointExtension>
            <ns3:hr>84</ns3:hr>
            <ns3:cad>52</ns3:cad>
          </ns3:TrackPointExtension>
        </extensions>
      </trkpt>
      <trkpt lat="43.47322552464902400970458984375" lon="1.4279048144817352294921875">
        <ele>234</ele>
        <time>2026-08-05T11:11:39.000Z</time>
        <extensions>
          <ns3:TrackPointExtension>
            <ns3:hr>83</ns3:hr>
            <ns3:cad>52</ns3:cad>
          </ns3:TrackPointExtension>
        </extensions>
      </trkpt>
      <trkpt lat="43.47323290072381496429443359375" lon="1.427890397608280181884765625">
        <ele>234</ele>
        <time>2026-08-05T11:11:40.000Z</time>
        <extensions>
          <ns3:TrackPointExtension>
            <ns3:hr>83</ns3:hr>
            <ns3:cad>52</ns3:cad>
          </ns3:TrackPointExtension>
        </extensions>
      </trkpt>
      <trkpt lat="43.47323792986571788787841796875" lon="1.427875645458698272705078125">
        <ele>233.8000030517578125</ele>
        <time>2026-08-05T11:11:41.000Z</time>
        <extensions>
          <ns3:TrackPointExtension>
            <ns3:hr>83</ns3:hr>
            <ns3:cad>51</ns3:cad>
          </ns3:TrackPointExtension>
        </extensions>
      </trkpt>
      <trkpt lat="43.47324304282665252685546875" lon="1.42785913310945034027099609375">
        <ele>233.600006103515625</ele>
        <time>2026-08-05T11:11:42.000Z</time>
        <extensions>
          <ns3:TrackPointExtension>
            <ns3:hr>83</ns3:hr>
            <ns3:cad>51</ns3:cad>
          </ns3:TrackPointExtension>
        </extensions>
      </trkpt>
      <trkpt lat="43.47324932925403118133544921875" lon="1.427840106189250946044921875">
        <ele>233.399993896484375</ele>
        <time>2026-08-05T11:11:43.000Z</time>
        <extensions>
          <ns3:TrackPointExtension>
            <ns3:hr>83</ns3:hr>
            <ns3:cad>51</ns3:cad>
          </ns3:TrackPointExtension>
        </extensions>
      </trkpt>
      <trkpt lat="43.47325469367206096649169921875" lon="1.427822001278400421142578125">
        <ele>233.1999969482421875</ele>
        <time>2026-08-05T11:11:44.000Z</time>
        <extensions>
          <ns3:TrackPointExtension>
            <ns3:hr>83</ns3:hr>
            <ns3:cad>52</ns3:cad>
          </ns3:TrackPointExtension>
        </extensions>
      </trkpt>
      <trkpt lat="43.47325938753783702850341796875" lon="1.42780833877623081207275390625">
        <ele>233</ele>
        <time>2026-08-05T11:11:45.000Z</time>
        <extensions>
          <ns3:TrackPointExtension>
            <ns3:hr>83</ns3:hr>
            <ns3:cad>52</ns3:cad>
          </ns3:TrackPointExtension>
        </extensions>
      </trkpt>
      <trkpt lat="43.47326525487005710601806640625" lon="1.427793838083744049072265625">
        <ele>232.8000030517578125</ele>
        <time>2026-08-05T11:11:46.000Z</time>
        <extensions>
          <ns3:TrackPointExtension>
            <ns3:hr>82</ns3:hr>
            <ns3:cad>52</ns3:cad>
          </ns3:TrackPointExtension>
        </extensions>
      </trkpt>
      <trkpt lat="43.47327229566872119903564453125" lon="1.427778415381908416748046875">
        <ele>232.8000030517578125</ele>
        <time>2026-08-05T11:11:47.000Z</time>
        <extensions>
          <ns3:TrackPointExtension>
            <ns3:hr>82</ns3:hr>
            <ns3:cad>52</ns3:cad>
          </ns3:TrackPointExtension>
        </extensions>
      </trkpt>
      <trkpt lat="43.47328017465770244598388671875" lon="1.4277614839375019073486328125">
        <ele>232.600006103515625</ele>
        <time>2026-08-05T11:11:48.000Z</time>
        <extensions>
          <ns3:TrackPointExtension>
            <ns3:hr>82</ns3:hr>
            <ns3:cad>53</ns3:cad>
          </ns3:TrackPointExtension>
        </extensions>
      </trkpt>
      <trkpt lat="43.47328637726604938507080078125" lon="1.42774580977857112884521484375">
        <ele>232.399993896484375</ele>
        <time>2026-08-05T11:11:49.000Z</time>
        <extensions>
          <ns3:TrackPointExtension>
            <ns3:hr>82</ns3:hr>
            <ns3:cad>53</ns3:cad>
          </ns3:TrackPointExtension>
        </extensions>
      </trkpt>
      <trkpt lat="43.47329224459826946258544921875" lon="1.427728794515132904052734375">
        <ele>232.1999969482421875</ele>
        <time>2026-08-05T11:11:50.000Z</time>
        <extensions>
          <ns3:TrackPointExtension>
            <ns3:hr>82</ns3:hr>
            <ns3:cad>53</ns3:cad>
          </ns3:TrackPointExtension>
        </extensions>
      </trkpt>
      <trkpt lat="43.47329911775887012481689453125" lon="1.42770993523299694061279296875">
        <ele>232</ele>
        <time>2026-08-05T11:11:51.000Z</time>
        <extensions>
          <ns3:TrackPointExtension>
            <ns3:hr>83</ns3:hr>
            <ns3:cad>53</ns3:cad>
          </ns3:TrackPointExtension>
        </extensions>
      </trkpt>
      <trkpt lat="43.47330682910978794097900390625" lon="1.42769065685570240020751953125">
        <ele>231.8000030517578125</ele>
        <time>2026-08-05T11:11:52.000Z</time>
        <extensions>
          <ns3:TrackPointExtension>
            <ns3:hr>82</ns3:hr>
            <ns3:cad>54</ns3:cad>
          </ns3:TrackPointExtension>
        </extensions>
      </trkpt>
      <trkpt lat="43.47331403754651546478271484375" lon="1.4276716299355030059814453125">
        <ele>231.8000030517578125</ele>
        <time>2026-08-05T11:11:53.000Z</time>
        <extensions>
          <ns3:TrackPointExtension>
            <ns3:hr>82</ns3:hr>
            <ns3:cad>54</ns3:cad>
          </ns3:TrackPointExtension>
        </extensions>
      </trkpt>
      <trkpt lat="43.47331973724067211151123046875" lon="1.42765562050044536590576171875">
        <ele>231.600006103515625</ele>
        <time>2026-08-05T11:11:54.000Z</time>
        <extensions>
          <ns3:TrackPointExtension>
            <ns3:hr>83</ns3:hr>
            <ns3:cad>54</ns3:cad>
          </ns3:TrackPointExtension>
        </extensions>
      </trkpt>
      <trkpt lat="43.4733263589441776275634765625" lon="1.427639611065387725830078125">
        <ele>231.399993896484375</ele>
        <time>2026-08-05T11:11:55.000Z</time>
        <extensions>
          <ns3:TrackPointExtension>
            <ns3:hr>83</ns3:hr>
            <ns3:cad>54</ns3:cad>
          </ns3:TrackPointExtension>
        </extensions>
      </trkpt>
      <trkpt lat="43.47333281300961971282958984375" lon="1.4276220090687274932861328125">
        <ele>231.399993896484375</ele>
        <time>2026-08-05T11:11:56.000Z</time>
        <extensions>
          <ns3:TrackPointExtension>
            <ns3:hr>83</ns3:hr>
            <ns3:cad>54</ns3:cad>
          </ns3:TrackPointExtension>
        </extensions>
      </trkpt>
      <trkpt lat="43.473339267075061798095703125" lon="1.42760574817657470703125">
        <ele>231.1999969482421875</ele>
        <time>2026-08-05T11:11:57.000Z</time>
        <extensions>
          <ns3:TrackPointExtension>
            <ns3:hr>83</ns3:hr>
            <ns3:cad>53</ns3:cad>
          </ns3:TrackPointExtension>
        </extensions>
      </trkpt>
      <trkpt lat="43.47334538586437702178955078125" lon="1.42759032547473907470703125">
        <ele>231.1999969482421875</ele>
        <time>2026-08-05T11:11:58.000Z</time>
        <extensions>
          <ns3:TrackPointExtension>
            <ns3:hr>86</ns3:hr>
            <ns3:cad>53</ns3:cad>
          </ns3:TrackPointExtension>
        </extensions>
      </trkpt>
      <trkpt lat="43.47335158847272396087646484375" lon="1.427575908601284027099609375">
        <ele>231</ele>
        <time>2026-08-05T11:11:59.000Z</time>
        <extensions>
          <ns3:TrackPointExtension>
            <ns3:hr>86</ns3:hr>
            <ns3:cad>53</ns3:cad>
          </ns3:TrackPointExtension>
        </extensions>
      </trkpt>
      <trkpt lat="43.47335728816688060760498046875" lon="1.4275614917278289794921875">
        <ele>231</ele>
        <time>2026-08-05T11:12:00.000Z</time>
        <extensions>
          <ns3:TrackPointExtension>
            <ns3:hr>86</ns3:hr>
            <ns3:cad>53</ns3:cad>
          </ns3:TrackPointExtension>
        </extensions>
      </trkpt>
      <trkpt lat="43.47336198203265666961669921875" lon="1.4275465719401836395263671875">
        <ele>230.8000030517578125</ele>
        <time>2026-08-05T11:12:01.000Z</time>
        <extensions>
          <ns3:TrackPointExtension>
            <ns3:hr>87</ns3:hr>
            <ns3:cad>53</ns3:cad>
          </ns3:TrackPointExtension>
        </extensions>
      </trkpt>
      <trkpt lat="43.4733675979077816009521484375" lon="1.4275291375815868377685546875">
        <ele>230.8000030517578125</ele>
        <time>2026-08-05T11:12:02.000Z</time>
        <extensions>
          <ns3:TrackPointExtension>
            <ns3:hr>88</ns3:hr>
            <ns3:cad>53</ns3:cad>
          </ns3:TrackPointExtension>
        </extensions>
      </trkpt>
      <trkpt lat="43.47337220795452594757080078125" lon="1.4275137148797512054443359375">
        <ele>230.600006103515625</ele>
        <time>2026-08-05T11:12:03.000Z</time>
        <extensions>
          <ns3:TrackPointExtension>
            <ns3:hr>88</ns3:hr>
            <ns3:cad>53</ns3:cad>
          </ns3:TrackPointExtension>
        </extensions>
      </trkpt>
      <trkpt lat="43.4733766503632068634033203125" lon="1.4274982921779155731201171875">
        <ele>230.399993896484375</ele>
        <time>2026-08-05T11:12:04.000Z</time>
        <extensions>
          <ns3:TrackPointExtension>
            <ns3:hr>89</ns3:hr>
            <ns3:cad>53</ns3:cad>
          </ns3:TrackPointExtension>
        </extensions>
      </trkpt>
      <trkpt lat="43.47338193096220493316650390625" lon="1.42748563550412654876708984375">
        <ele>230.1999969482421875</ele>
        <time>2026-08-05T11:12:05.000Z</time>
        <extensions>
          <ns3:TrackPointExtension>
            <ns3:hr>89</ns3:hr>
            <ns3:cad>53</ns3:cad>
          </ns3:TrackPointExtension>
        </extensions>
      </trkpt>
      <trkpt lat="43.47338612191379070281982421875" lon="1.42747121863067150115966796875">
        <ele>230</ele>
        <time>2026-08-05T11:12:06.000Z</time>
        <extensions>
          <ns3:TrackPointExtension>
            <ns3:hr>90</ns3:hr>
            <ns3:cad>53</ns3:cad>
          </ns3:TrackPointExtension>
        </extensions>
      </trkpt>
      <trkpt lat="43.47338964231312274932861328125" lon="1.427452862262725830078125">
        <ele>230</ele>
        <time>2026-08-05T11:12:07.000Z</time>
        <extensions>
          <ns3:TrackPointExtension>
            <ns3:hr>90</ns3:hr>
            <ns3:cad>53</ns3:cad>
          </ns3:TrackPointExtension>
        </extensions>
      </trkpt>
      <trkpt lat="43.4733900614082813262939453125" lon="1.4274382777512073516845703125">
        <ele>229.8000030517578125</ele>
        <time>2026-08-05T11:12:08.000Z</time>
        <extensions>
          <ns3:TrackPointExtension>
            <ns3:hr>90</ns3:hr>
            <ns3:cad>53</ns3:cad>
          </ns3:TrackPointExtension>
        </extensions>
      </trkpt>
      <trkpt lat="43.4733903966844081878662109375" lon="1.4274198375642299652099609375">
        <ele>229.8000030517578125</ele>
        <time>2026-08-05T11:12:09.000Z</time>
        <extensions>
          <ns3:TrackPointExtension>
            <ns3:hr>90</ns3:hr>
            <ns3:cad>53</ns3:cad>
          </ns3:TrackPointExtension>
        </extensions>
      </trkpt>
      <trkpt lat="43.47339366562664508819580078125" lon="1.42740382812917232513427734375">
        <ele>229.8000030517578125</ele>
        <time>2026-08-05T11:12:10.000Z</time>
        <extensions>
          <ns3:TrackPointExtension>
            <ns3:hr>90</ns3:hr>
            <ns3:cad>53</ns3:cad>
          </ns3:TrackPointExtension>
        </extensions>
      </trkpt>
      <trkpt lat="43.4733994491398334503173828125" lon="1.42738957889378070831298828125">
        <ele>229.8000030517578125</ele>
        <time>2026-08-05T11:12:11.000Z</time>
        <extensions>
          <ns3:TrackPointExtension>
            <ns3:hr>89</ns3:hr>
            <ns3:cad>53</ns3:cad>
          </ns3:TrackPointExtension>
        </extensions>
      </trkpt>
      <trkpt lat="43.47340355627238750457763671875" lon="1.4273712225258350372314453125">
        <ele>229.600006103515625</ele>
        <time>2026-08-05T11:12:12.000Z</time>
        <extensions>
          <ns3:TrackPointExtension>
            <ns3:hr>89</ns3:hr>
            <ns3:cad>53</ns3:cad>
          </ns3:TrackPointExtension>
        </extensions>
      </trkpt>
      <trkpt lat="43.4734088368713855743408203125" lon="1.42735253088176250457763671875">
        <ele>229.600006103515625</ele>
        <time>2026-08-05T11:12:13.000Z</time>
        <extensions>
          <ns3:TrackPointExtension>
            <ns3:hr>88</ns3:hr>
            <ns3:cad>53</ns3:cad>
          </ns3:TrackPointExtension>
        </extensions>
      </trkpt>
      <trkpt lat="43.47341596148908138275146484375" lon="1.42733727581799030303955078125">
        <ele>229.399993896484375</ele>
        <time>2026-08-05T11:12:14.000Z</time>
        <extensions>
          <ns3:TrackPointExtension>
            <ns3:hr>88</ns3:hr>
            <ns3:cad>52</ns3:cad>
          </ns3:TrackPointExtension>
        </extensions>
      </trkpt>
      <trkpt lat="43.473423421382904052734375" lon="1.42732202075421810150146484375">
        <ele>229.1999969482421875</ele>
        <time>2026-08-05T11:12:15.000Z</time>
        <extensions>
          <ns3:TrackPointExtension>
            <ns3:hr>87</ns3:hr>
            <ns3:cad>52</ns3:cad>
          </ns3:TrackPointExtension>
        </extensions>
      </trkpt>
      <trkpt lat="43.4734309650957584381103515625" lon="1.4273088611662387847900390625">
        <ele>229</ele>
        <time>2026-08-05T11:12:16.000Z</time>
        <extensions>
          <ns3:TrackPointExtension>
            <ns3:hr>86</ns3:hr>
            <ns3:cad>53</ns3:cad>
          </ns3:TrackPointExtension>
        </extensions>
      </trkpt>
      <trkpt lat="43.47343943081796169281005859375" lon="1.4272964559495449066162109375">
        <ele>228.8000030517578125</ele>
        <time>2026-08-05T11:12:17.000Z</time>
        <extensions>
          <ns3:TrackPointExtension>
            <ns3:hr>86</ns3:hr>
            <ns3:cad>54</ns3:cad>
          </ns3:TrackPointExtension>
        </extensions>
      </trkpt>
      <trkpt lat="43.473447225987911224365234375" lon="1.427282877266407012939453125">
        <ele>228.8000030517578125</ele>
        <time>2026-08-05T11:12:18.000Z</time>
        <extensions>
          <ns3:TrackPointExtension>
            <ns3:hr>85</ns3:hr>
            <ns3:cad>55</ns3:cad>
          </ns3:TrackPointExtension>
        </extensions>
      </trkpt>
      <trkpt lat="43.47345451824367046356201171875" lon="1.42726938240230083465576171875">
        <ele>228.600006103515625</ele>
        <time>2026-08-05T11:12:19.000Z</time>
        <extensions>
          <ns3:TrackPointExtension>
            <ns3:hr>85</ns3:hr>
            <ns3:cad>55</ns3:cad>
          </ns3:TrackPointExtension>
        </extensions>
      </trkpt>
      <trkpt lat="43.4734604693949222564697265625" lon="1.42725647427141666412353515625">
        <ele>228.399993896484375</ele>
        <time>2026-08-05T11:12:20.000Z</time>
        <extensions>
          <ns3:TrackPointExtension>
            <ns3:hr>85</ns3:hr>
            <ns3:cad>55</ns3:cad>
          </ns3:TrackPointExtension>
        </extensions>
      </trkpt>
      <trkpt lat="43.4734628163278102874755859375" lon="1.42724473960697650909423828125">
        <ele>228.1999969482421875</ele>
        <time>2026-08-05T11:12:21.000Z</time>
        <extensions>
          <ns3:TrackPointExtension>
            <ns3:hr>85</ns3:hr>
            <ns3:cad>55</ns3:cad>
          </ns3:TrackPointExtension>
        </extensions>
      </trkpt>
      <trkpt lat="43.47346809692680835723876953125" lon="1.42723233439028263092041015625">
        <ele>228.1999969482421875</ele>
        <time>2026-08-05T11:12:22.000Z</time>
        <extensions>
          <ns3:TrackPointExtension>
            <ns3:hr>86</ns3:hr>
            <ns3:cad>54</ns3:cad>
          </ns3:TrackPointExtension>
        </extensions>
      </trkpt>
      <trkpt lat="43.47347262315452098846435546875" lon="1.42721909098327159881591796875">
        <ele>228</ele>
        <time>2026-08-05T11:12:23.000Z</time>
        <extensions>
          <ns3:TrackPointExtension>
            <ns3:hr>85</ns3:hr>
            <ns3:cad>54</ns3:cad>
          </ns3:TrackPointExtension>
        </extensions>
      </trkpt>
      <trkpt lat="43.47347882576286792755126953125" lon="1.42720408737659454345703125">
        <ele>227.8000030517578125</ele>
        <time>2026-08-05T11:12:24.000Z</time>
        <extensions>
          <ns3:TrackPointExtension>
            <ns3:hr>85</ns3:hr>
            <ns3:cad>54</ns3:cad>
          </ns3:TrackPointExtension>
        </extensions>
      </trkpt>
      <trkpt lat="43.47348586656153202056884765625" lon="1.42718799412250518798828125">
        <ele>227.600006103515625</ele>
        <time>2026-08-05T11:12:25.000Z</time>
        <extensions>
          <ns3:TrackPointExtension>
            <ns3:hr>85</ns3:hr>
            <ns3:cad>55</ns3:cad>
          </ns3:TrackPointExtension>
        </extensions>
      </trkpt>
      <trkpt lat="43.473493494093418121337890625" lon="1.42716980539262294769287109375">
        <ele>227.399993896484375</ele>
        <time>2026-08-05T11:12:26.000Z</time>
        <extensions>
          <ns3:TrackPointExtension>
            <ns3:hr>85</ns3:hr>
            <ns3:cad>55</ns3:cad>
          </ns3:TrackPointExtension>
        </extensions>
      </trkpt>
      <trkpt lat="43.47350145690143108367919921875" lon="1.42715069465339183807373046875">
        <ele>227.1999969482421875</ele>
        <time>2026-08-05T11:12:27.000Z</time>
        <extensions>
          <ns3:TrackPointExtension>
            <ns3:hr>84</ns3:hr>
            <ns3:cad>55</ns3:cad>
          </ns3:TrackPointExtension>
        </extensions>
      </trkpt>
      <trkpt lat="43.4735090844333171844482421875" lon="1.42713426612317562103271484375">
        <ele>227.1999969482421875</ele>
        <time>2026-08-05T11:12:28.000Z</time>
        <extensions>
          <ns3:TrackPointExtension>
            <ns3:hr>84</ns3:hr>
            <ns3:cad>54</ns3:cad>
          </ns3:TrackPointExtension>
        </extensions>
      </trkpt>
      <trkpt lat="43.47351637668907642364501953125" lon="1.4271189272403717041015625">
        <ele>227</ele>
        <time>2026-08-05T11:12:29.000Z</time>
        <extensions>
          <ns3:TrackPointExtension>
            <ns3:hr>84</ns3:hr>
            <ns3:cad>54</ns3:cad>
          </ns3:TrackPointExtension>
        </extensions>
      </trkpt>
      <trkpt lat="43.4735221602022647857666015625" lon="1.42710275016725063323974609375">
        <ele>227</ele>
        <time>2026-08-05T11:12:30.000Z</time>
        <extensions>
          <ns3:TrackPointExtension>
            <ns3:hr>84</ns3:hr>
            <ns3:cad>54</ns3:cad>
          </ns3:TrackPointExtension>
        </extensions>
      </trkpt>
      <trkpt lat="43.4735278598964214324951171875" lon="1.42708565108478069305419921875">
        <ele>226.8000030517578125</ele>
        <time>2026-08-05T11:12:31.000Z</time>
        <extensions>
          <ns3:TrackPointExtension>
            <ns3:hr>84</ns3:hr>
            <ns3:cad>54</ns3:cad>
          </ns3:TrackPointExtension>
        </extensions>
      </trkpt>
      <trkpt lat="43.47353330813348293304443359375" lon="1.42706863582134246826171875">
        <ele>226.8000030517578125</ele>
        <time>2026-08-05T11:12:32.000Z</time>
        <extensions>
          <ns3:TrackPointExtension>
            <ns3:hr>84</ns3:hr>
            <ns3:cad>54</ns3:cad>
          </ns3:TrackPointExtension>
        </extensions>
      </trkpt>
      <trkpt lat="43.473538421094417572021484375" lon="1.42705162055790424346923828125">
        <ele>226.600006103515625</ele>
        <time>2026-08-05T11:12:33.000Z</time>
        <extensions>
          <ns3:TrackPointExtension>
            <ns3:hr>84</ns3:hr>
            <ns3:cad>54</ns3:cad>
          </ns3:TrackPointExtension>
        </extensions>
      </trkpt>
      <trkpt lat="43.47354386933147907257080078125" lon="1.4270357787609100341796875">
        <ele>226.600006103515625</ele>
        <time>2026-08-05T11:12:34.000Z</time>
        <extensions>
          <ns3:TrackPointExtension>
            <ns3:hr>84</ns3:hr>
            <ns3:cad>54</ns3:cad>
          </ns3:TrackPointExtension>
        </extensions>
      </trkpt>
      <trkpt lat="43.47355074249207973480224609375" lon="1.42702077515423297882080078125">
        <ele>226.399993896484375</ele>
        <time>2026-08-05T11:12:35.000Z</time>
        <extensions>
          <ns3:TrackPointExtension>
            <ns3:hr>84</ns3:hr>
            <ns3:cad>54</ns3:cad>
          </ns3:TrackPointExtension>
        </extensions>
      </trkpt>
      <trkpt lat="43.4735570289194583892822265625" lon="1.4270040951669216156005859375">
        <ele>226.1999969482421875</ele>
        <time>2026-08-05T11:12:36.000Z</time>
        <extensions>
          <ns3:TrackPointExtension>
            <ns3:hr>84</ns3:hr>
            <ns3:cad>54</ns3:cad>
          </ns3:TrackPointExtension>
        </extensions>
      </trkpt>
      <trkpt lat="43.47356214188039302825927734375" lon="1.42698791809380054473876953125">
        <ele>226.1999969482421875</ele>
        <time>2026-08-05T11:12:37.000Z</time>
        <extensions>
          <ns3:TrackPointExtension>
            <ns3:hr>84</ns3:hr>
            <ns3:cad>55</ns3:cad>
          </ns3:TrackPointExtension>
        </extensions>
      </trkpt>
      <trkpt lat="43.47356800921261310577392578125" lon="1.4269712381064891815185546875">
        <ele>226</ele>
        <time>2026-08-05T11:12:38.000Z</time>
        <extensions>
          <ns3:TrackPointExtension>
            <ns3:hr>84</ns3:hr>
            <ns3:cad>55</ns3:cad>
          </ns3:TrackPointExtension>
        </extensions>
      </trkpt>
      <trkpt lat="43.4735741280019283294677734375" lon="1.42695556394755840301513671875">
        <ele>225.8000030517578125</ele>
        <time>2026-08-05T11:12:39.000Z</time>
        <extensions>
          <ns3:TrackPointExtension>
            <ns3:hr>84</ns3:hr>
            <ns3:cad>55</ns3:cad>
          </ns3:TrackPointExtension>
        </extensions>
      </trkpt>
      <trkpt lat="43.473579995334148406982421875" lon="1.42694081179797649383544921875">
        <ele>225.8000030517578125</ele>
        <time>2026-08-05T11:12:40.000Z</time>
        <extensions>
          <ns3:TrackPointExtension>
            <ns3:hr>84</ns3:hr>
            <ns3:cad>55</ns3:cad>
          </ns3:TrackPointExtension>
        </extensions>
      </trkpt>
      <trkpt lat="43.473586700856685638427734375" lon="1.42692371271550655364990234375">
        <ele>225.600006103515625</ele>
        <time>2026-08-05T11:12:41.000Z</time>
        <extensions>
          <ns3:TrackPointExtension>
            <ns3:hr>84</ns3:hr>
            <ns3:cad>54</ns3:cad>
          </ns3:TrackPointExtension>
        </extensions>
      </trkpt>
      <trkpt lat="43.47359248436987400054931640625" lon="1.42690728418529033660888671875">
        <ele>225.600006103515625</ele>
        <time>2026-08-05T11:12:42.000Z</time>
        <extensions>
          <ns3:TrackPointExtension>
            <ns3:hr>85</ns3:hr>
            <ns3:cad>54</ns3:cad>
          </ns3:TrackPointExtension>
        </extensions>
      </trkpt>
      <trkpt lat="43.4735977649688720703125" lon="1.42689135856926441192626953125">
        <ele>225.399993896484375</ele>
        <time>2026-08-05T11:12:43.000Z</time>
        <extensions>
          <ns3:TrackPointExtension>
            <ns3:hr>85</ns3:hr>
            <ns3:cad>54</ns3:cad>
          </ns3:TrackPointExtension>
        </extensions>
      </trkpt>
      <trkpt lat="43.47360304556787014007568359375" lon="1.42687794752418994903564453125">
        <ele>225.399993896484375</ele>
        <time>2026-08-05T11:12:44.000Z</time>
        <extensions>
          <ns3:TrackPointExtension>
            <ns3:hr>85</ns3:hr>
            <ns3:cad>54</ns3:cad>
          </ns3:TrackPointExtension>
        </extensions>
      </trkpt>
      <trkpt lat="43.473606817424297332763671875" lon="1.42686252482235431671142578125">
        <ele>225.399993896484375</ele>
        <time>2026-08-05T11:12:45.000Z</time>
        <extensions>
          <ns3:TrackPointExtension>
            <ns3:hr>86</ns3:hr>
            <ns3:cad>54</ns3:cad>
          </ns3:TrackPointExtension>
        </extensions>
      </trkpt>
      <trkpt lat="43.47361184656620025634765625" lon="1.42684559337794780731201171875">
        <ele>225.1999969482421875</ele>
        <time>2026-08-05T11:12:46.000Z</time>
        <extensions>
          <ns3:TrackPointExtension>
            <ns3:hr>86</ns3:hr>
            <ns3:cad>53</ns3:cad>
          </ns3:TrackPointExtension>
        </extensions>
      </trkpt>
      <trkpt lat="43.47361813299357891082763671875" lon="1.42682983539998531341552734375">
        <ele>225.1999969482421875</ele>
        <time>2026-08-05T11:12:47.000Z</time>
        <extensions>
          <ns3:TrackPointExtension>
            <ns3:hr>86</ns3:hr>
            <ns3:cad>53</ns3:cad>
          </ns3:TrackPointExtension>
        </extensions>
      </trkpt>
      <trkpt lat="43.47362467087805271148681640625" lon="1.426814496517181396484375">
        <ele>225</ele>
        <time>2026-08-05T11:12:48.000Z</time>
        <extensions>
          <ns3:TrackPointExtension>
            <ns3:hr>87</ns3:hr>
            <ns3:cad>53</ns3:cad>
          </ns3:TrackPointExtension>
        </extensions>
      </trkpt>
      <trkpt lat="43.473630957305431365966796875" lon="1.42679798416793346405029296875">
        <ele>224.8000030517578125</ele>
        <time>2026-08-05T11:12:49.000Z</time>
        <extensions>
          <ns3:TrackPointExtension>
            <ns3:hr>86</ns3:hr>
            <ns3:cad>53</ns3:cad>
          </ns3:TrackPointExtension>
        </extensions>
      </trkpt>
      <trkpt lat="43.4736385010182857513427734375" lon="1.42678004689514636993408203125">
        <ele>224.8000030517578125</ele>
        <time>2026-08-05T11:12:50.000Z</time>
        <extensions>
          <ns3:TrackPointExtension>
            <ns3:hr>86</ns3:hr>
            <ns3:cad>53</ns3:cad>
          </ns3:TrackPointExtension>
        </extensions>
      </trkpt>
      <trkpt lat="43.47364529035985469818115234375" lon="1.42676261253654956817626953125">
        <ele>224.600006103515625</ele>
        <time>2026-08-05T11:12:51.000Z</time>
        <extensions>
          <ns3:TrackPointExtension>
            <ns3:hr>86</ns3:hr>
            <ns3:cad>53</ns3:cad>
          </ns3:TrackPointExtension>
        </extensions>
      </trkpt>
      <trkpt lat="43.47365216352045536041259765625" lon="1.4267445914447307586669921875">
        <ele>224.600006103515625</ele>
        <time>2026-08-05T11:12:52.000Z</time>
        <extensions>
          <ns3:TrackPointExtension>
            <ns3:hr>87</ns3:hr>
            <ns3:cad>53</ns3:cad>
          </ns3:TrackPointExtension>
        </extensions>
      </trkpt>
      <trkpt lat="43.4736596234142780303955078125" lon="1.42672640271484851837158203125">
        <ele>224.600006103515625</ele>
        <time>2026-08-05T11:12:53.000Z</time>
        <extensions>
          <ns3:TrackPointExtension>
            <ns3:hr>86</ns3:hr>
            <ns3:cad>53</ns3:cad>
          </ns3:TrackPointExtension>
        </extensions>
      </trkpt>
      <trkpt lat="43.47366574220359325408935546875" lon="1.4267093874514102935791015625">
        <ele>224.399993896484375</ele>
        <time>2026-08-05T11:12:54.000Z</time>
        <extensions>
          <ns3:TrackPointExtension>
            <ns3:hr>86</ns3:hr>
            <ns3:cad>53</ns3:cad>
          </ns3:TrackPointExtension>
        </extensions>
      </trkpt>
      <trkpt lat="43.47367127425968647003173828125" lon="1.4266924560070037841796875">
        <ele>224.399993896484375</ele>
        <time>2026-08-05T11:12:55.000Z</time>
        <extensions>
          <ns3:TrackPointExtension>
            <ns3:hr>87</ns3:hr>
            <ns3:cad>53</ns3:cad>
          </ns3:TrackPointExtension>
        </extensions>
      </trkpt>
      <trkpt lat="43.47367596812546253204345703125" lon="1.42667435109615325927734375">
        <ele>224.1999969482421875</ele>
        <time>2026-08-05T11:12:56.000Z</time>
        <extensions>
          <ns3:TrackPointExtension>
            <ns3:hr>86</ns3:hr>
            <ns3:cad>53</ns3:cad>
          </ns3:TrackPointExtension>
        </extensions>
      </trkpt>
      <trkpt lat="43.47368150018155574798583984375" lon="1.426655240356922149658203125">
        <ele>224.1999969482421875</ele>
        <time>2026-08-05T11:12:57.000Z</time>
        <extensions>
          <ns3:TrackPointExtension>
            <ns3:hr>87</ns3:hr>
            <ns3:cad>53</ns3:cad>
          </ns3:TrackPointExtension>
        </extensions>
      </trkpt>
      <trkpt lat="43.473686277866363525390625" lon="1.42663872800767421722412109375">
        <ele>224</ele>
        <time>2026-08-05T11:12:58.000Z</time>
        <extensions>
          <ns3:TrackPointExtension>
            <ns3:hr>87</ns3:hr>
            <ns3:cad>54</ns3:cad>
          </ns3:TrackPointExtension>
        </extensions>
      </trkpt>
      <trkpt lat="43.47369189374148845672607421875" lon="1.4266208745539188385009765625">
        <ele>223.8000030517578125</ele>
        <time>2026-08-05T11:12:59.000Z</time>
        <extensions>
          <ns3:TrackPointExtension>
            <ns3:hr>87</ns3:hr>
            <ns3:cad>54</ns3:cad>
          </ns3:TrackPointExtension>
        </extensions>
      </trkpt>
      <trkpt lat="43.4736965037882328033447265625" lon="1.42660553567111492156982421875">
        <ele>223.8000030517578125</ele>
        <time>2026-08-05T11:13:00.000Z</time>
        <extensions>
          <ns3:TrackPointExtension>
            <ns3:hr>87</ns3:hr>
            <ns3:cad>54</ns3:cad>
          </ns3:TrackPointExtension>
        </extensions>
      </trkpt>
      <trkpt lat="43.473702035844326019287109375" lon="1.42658944241702556610107421875">
        <ele>223.600006103515625</ele>
        <time>2026-08-05T11:13:01.000Z</time>
        <extensions>
          <ns3:TrackPointExtension>
            <ns3:hr>87</ns3:hr>
            <ns3:cad>54</ns3:cad>
          </ns3:TrackPointExtension>
        </extensions>
      </trkpt>
      <trkpt lat="43.47370781935751438140869140625" lon="1.426573432981967926025390625">
        <ele>223.600006103515625</ele>
        <time>2026-08-05T11:13:02.000Z</time>
        <extensions>
          <ns3:TrackPointExtension>
            <ns3:hr>87</ns3:hr>
            <ns3:cad>54</ns3:cad>
          </ns3:TrackPointExtension>
        </extensions>
      </trkpt>
      <trkpt lat="43.4737139381468296051025390625" lon="1.42655943520367145538330078125">
        <ele>223.399993896484375</ele>
        <time>2026-08-05T11:13:03.000Z</time>
        <extensions>
          <ns3:TrackPointExtension>
            <ns3:hr>87</ns3:hr>
            <ns3:cad>54</ns3:cad>
          </ns3:TrackPointExtension>
        </extensions>
      </trkpt>
      <trkpt lat="43.47372005693614482879638671875" lon="1.4265444315969944000244140625">
        <ele>223.1999969482421875</ele>
        <time>2026-08-05T11:13:04.000Z</time>
        <extensions>
          <ns3:TrackPointExtension>
            <ns3:hr>88</ns3:hr>
            <ns3:cad>53</ns3:cad>
          </ns3:TrackPointExtension>
        </extensions>
      </trkpt>
      <trkpt lat="43.4737266786396503448486328125" lon="1.426531188189983367919921875">
        <ele>223.1999969482421875</ele>
        <time>2026-08-05T11:13:05.000Z</time>
        <extensions>
          <ns3:TrackPointExtension>
            <ns3:hr>88</ns3:hr>
            <ns3:cad>53</ns3:cad>
          </ns3:TrackPointExtension>
        </extensions>
      </trkpt>
      <trkpt lat="43.47373346798121929168701171875" lon="1.42651802860200405120849609375">
        <ele>223</ele>
        <time>2026-08-05T11:13:06.000Z</time>
        <extensions>
          <ns3:TrackPointExtension>
            <ns3:hr>89</ns3:hr>
            <ns3:cad>53</ns3:cad>
          </ns3:TrackPointExtension>
        </extensions>
      </trkpt>
      <trkpt lat="43.473739922046661376953125" lon="1.426501683890819549560546875">
        <ele>222.8000030517578125</ele>
        <time>2026-08-05T11:13:07.000Z</time>
        <extensions>
          <ns3:TrackPointExtension>
            <ns3:hr>89</ns3:hr>
            <ns3:cad>53</ns3:cad>
          </ns3:TrackPointExtension>
        </extensions>
      </trkpt>
      <trkpt lat="43.47374469973146915435791015625" lon="1.4264877699315547943115234375">
        <ele>222.600006103515625</ele>
        <time>2026-08-05T11:13:08.000Z</time>
        <extensions>
          <ns3:TrackPointExtension>
            <ns3:hr>89</ns3:hr>
            <ns3:cad>54</ns3:cad>
          </ns3:TrackPointExtension>
        </extensions>
      </trkpt>
      <trkpt lat="43.473749645054340362548828125" lon="1.4264703355729579925537109375">
        <ele>222.399993896484375</ele>
        <time>2026-08-05T11:13:09.000Z</time>
        <extensions>
          <ns3:TrackPointExtension>
            <ns3:hr>88</ns3:hr>
            <ns3:cad>54</ns3:cad>
          </ns3:TrackPointExtension>
        </extensions>
      </trkpt>
      <trkpt lat="43.4737558476626873016357421875" lon="1.42645533196628093719482421875">
        <ele>222.1999969482421875</ele>
        <time>2026-08-05T11:13:10.000Z</time>
        <extensions>
          <ns3:TrackPointExtension>
            <ns3:hr>89</ns3:hr>
            <ns3:cad>55</ns3:cad>
          </ns3:TrackPointExtension>
        </extensions>
      </trkpt>
      <trkpt lat="43.473762385547161102294921875" lon="1.42644099891185760498046875">
        <ele>222</ele>
        <time>2026-08-05T11:13:11.000Z</time>
        <extensions>
          <ns3:TrackPointExtension>
            <ns3:hr>89</ns3:hr>
            <ns3:cad>55</ns3:cad>
          </ns3:TrackPointExtension>
        </extensions>
      </trkpt>
      <trkpt lat="43.4737689234316349029541015625" lon="1.42642398364841938018798828125">
        <ele>221.8000030517578125</ele>
        <time>2026-08-05T11:13:12.000Z</time>
        <extensions>
          <ns3:TrackPointExtension>
            <ns3:hr>89</ns3:hr>
            <ns3:cad>55</ns3:cad>
          </ns3:TrackPointExtension>
        </extensions>
      </trkpt>
      <trkpt lat="43.473774455487728118896484375" lon="1.42640772275626659393310546875">
        <ele>221.600006103515625</ele>
        <time>2026-08-05T11:13:13.000Z</time>
        <extensions>
          <ns3:TrackPointExtension>
            <ns3:hr>89</ns3:hr>
            <ns3:cad>55</ns3:cad>
          </ns3:TrackPointExtension>
        </extensions>
      </trkpt>
      <trkpt lat="43.47378241829574108123779296875" lon="1.42639012075960636138916015625">
        <ele>221.399993896484375</ele>
        <time>2026-08-05T11:13:14.000Z</time>
        <extensions>
          <ns3:TrackPointExtension>
            <ns3:hr>89</ns3:hr>
            <ns3:cad>55</ns3:cad>
          </ns3:TrackPointExtension>
        </extensions>
      </trkpt>
      <trkpt lat="43.47379130311310291290283203125" lon="1.426372267305850982666015625">
        <ele>221.1999969482421875</ele>
        <time>2026-08-05T11:13:15.000Z</time>
        <extensions>
          <ns3:TrackPointExtension>
            <ns3:hr>90</ns3:hr>
            <ns3:cad>55</ns3:cad>
          </ns3:TrackPointExtension>
        </extensions>
      </trkpt>
      <trkpt lat="43.47379918210208415985107421875" lon="1.4263550005853176116943359375">
        <ele>221.1999969482421875</ele>
        <time>2026-08-05T11:13:16.000Z</time>
        <extensions>
          <ns3:TrackPointExtension>
            <ns3:hr>90</ns3:hr>
            <ns3:cad>55</ns3:cad>
          </ns3:TrackPointExtension>
        </extensions>
      </trkpt>
      <trkpt lat="43.47380655817687511444091796875" lon="1.42633966170251369476318359375">
        <ele>221</ele>
        <time>2026-08-05T11:13:17.000Z</time>
        <extensions>
          <ns3:TrackPointExtension>
            <ns3:hr>91</ns3:hr>
            <ns3:cad>56</ns3:cad>
          </ns3:TrackPointExtension>
        </extensions>
      </trkpt>
      <trkpt lat="43.47381393425166606903076171875" lon="1.42632273025810718536376953125">
        <ele>220.8000030517578125</ele>
        <time>2026-08-05T11:13:18.000Z</time>
        <extensions>
          <ns3:TrackPointExtension>
            <ns3:hr>92</ns3:hr>
            <ns3:cad>55</ns3:cad>
          </ns3:TrackPointExtension>
        </extensions>
      </trkpt>
      <trkpt lat="43.47381929866969585418701171875" lon="1.426309235394001007080078125">
        <ele>220.600006103515625</ele>
        <time>2026-08-05T11:13:19.000Z</time>
        <extensions>
          <ns3:TrackPointExtension>
            <ns3:hr>92</ns3:hr>
            <ns3:cad>55</ns3:cad>
          </ns3:TrackPointExtension>
        </extensions>
      </trkpt>
      <trkpt lat="43.473824076354503631591796875" lon="1.42629557289183139801025390625">
        <ele>220.600006103515625</ele>
        <time>2026-08-05T11:13:20.000Z</time>
        <extensions>
          <ns3:TrackPointExtension>
            <ns3:hr>92</ns3:hr>
            <ns3:cad>54</ns3:cad>
          </ns3:TrackPointExtension>
        </extensions>
      </trkpt>
      <trkpt lat="43.4738292731344699859619140625" lon="1.42628165893256664276123046875">
        <ele>220.399993896484375</ele>
        <time>2026-08-05T11:13:21.000Z</time>
        <extensions>
          <ns3:TrackPointExtension>
            <ns3:hr>93</ns3:hr>
            <ns3:cad>54</ns3:cad>
          </ns3:TrackPointExtension>
        </extensions>
      </trkpt>
      <trkpt lat="43.47383690066635608673095703125" lon="1.4262644760310649871826171875">
        <ele>220.399993896484375</ele>
        <time>2026-08-05T11:13:22.000Z</time>
        <extensions>
          <ns3:TrackPointExtension>
            <ns3:hr>92</ns3:hr>
            <ns3:cad>55</ns3:cad>
          </ns3:TrackPointExtension>
        </extensions>
      </trkpt>
      <trkpt lat="43.473841845989227294921875" lon="1.42624762840569019317626953125">
        <ele>220.399993896484375</ele>
        <time>2026-08-05T11:13:23.000Z</time>
        <extensions>
          <ns3:TrackPointExtension>
            <ns3:hr>91</ns3:hr>
            <ns3:cad>55</ns3:cad>
          </ns3:TrackPointExtension>
        </extensions>
      </trkpt>
      <trkpt lat="43.473847545683383941650390625" lon="1.4262356422841548919677734375">
        <ele>220.1999969482421875</ele>
        <time>2026-08-05T11:13:24.000Z</time>
        <extensions>
          <ns3:TrackPointExtension>
            <ns3:hr>90</ns3:hr>
            <ns3:cad>55</ns3:cad>
          </ns3:TrackPointExtension>
        </extensions>
      </trkpt>
      <trkpt lat="43.4738517366349697113037109375" lon="1.42622063867747783660888671875">
        <ele>220</ele>
        <time>2026-08-05T11:13:25.000Z</time>
        <extensions>
          <ns3:TrackPointExtension>
            <ns3:hr>90</ns3:hr>
            <ns3:cad>55</ns3:cad>
          </ns3:TrackPointExtension>
        </extensions>
      </trkpt>
      <trkpt lat="43.47385768778622150421142578125" lon="1.4262031204998493194580078125">
        <ele>219.8000030517578125</ele>
        <time>2026-08-05T11:13:26.000Z</time>
        <extensions>
          <ns3:TrackPointExtension>
            <ns3:hr>90</ns3:hr>
            <ns3:cad>53</ns3:cad>
          </ns3:TrackPointExtension>
        </extensions>
      </trkpt>
      <trkpt lat="43.47386338748037815093994140625" lon="1.426186859607696533203125">
        <ele>219.600006103515625</ele>
        <time>2026-08-05T11:13:27.000Z</time>
        <extensions>
          <ns3:TrackPointExtension>
            <ns3:hr>89</ns3:hr>
            <ns3:cad>53</ns3:cad>
          </ns3:TrackPointExtension>
        </extensions>
      </trkpt>
      <trkpt lat="43.47387135028839111328125" lon="1.4261685870587825775146484375">
        <ele>219.399993896484375</ele>
        <time>2026-08-05T11:13:28.000Z</time>
        <extensions>
          <ns3:TrackPointExtension>
            <ns3:hr>89</ns3:hr>
            <ns3:cad>53</ns3:cad>
          </ns3:TrackPointExtension>
        </extensions>
      </trkpt>
      <trkpt lat="43.473879732191562652587890625" lon="1.42615140415728092193603515625">
        <ele>219.1999969482421875</ele>
        <time>2026-08-05T11:13:29.000Z</time>
        <extensions>
          <ns3:TrackPointExtension>
            <ns3:hr>89</ns3:hr>
            <ns3:cad>54</ns3:cad>
          </ns3:TrackPointExtension>
        </extensions>
      </trkpt>
      <trkpt lat="43.4738886170089244842529296875" lon="1.4261353947222232818603515625">
        <ele>219</ele>
        <time>2026-08-05T11:13:30.000Z</time>
        <extensions>
          <ns3:TrackPointExtension>
            <ns3:hr>89</ns3:hr>
            <ns3:cad>56</ns3:cad>
          </ns3:TrackPointExtension>
        </extensions>
      </trkpt>
      <trkpt lat="43.47389674745500087738037109375" lon="1.4261211454868316650390625">
        <ele>219</ele>
        <time>2026-08-05T11:13:31.000Z</time>
        <extensions>
          <ns3:TrackPointExtension>
            <ns3:hr>89</ns3:hr>
            <ns3:cad>56</ns3:cad>
          </ns3:TrackPointExtension>
        </extensions>
      </trkpt>
      <trkpt lat="43.4739048779010772705078125" lon="1.426106058061122894287109375">
        <ele>218.8000030517578125</ele>
        <time>2026-08-05T11:13:32.000Z</time>
        <extensions>
          <ns3:TrackPointExtension>
            <ns3:hr>89</ns3:hr>
            <ns3:cad>56</ns3:cad>
          </ns3:TrackPointExtension>
        </extensions>
      </trkpt>
      <trkpt lat="43.47391418181359767913818359375" lon="1.42608962953090667724609375">
        <ele>218.8000030517578125</ele>
        <time>2026-08-05T11:13:33.000Z</time>
        <extensions>
          <ns3:TrackPointExtension>
            <ns3:hr>88</ns3:hr>
            <ns3:cad>56</ns3:cad>
          </ns3:TrackPointExtension>
        </extensions>
      </trkpt>
      <trkpt lat="43.4739241562783718109130859375" lon="1.426072530448436737060546875">
        <ele>218.600006103515625</ele>
        <time>2026-08-05T11:13:34.000Z</time>
        <extensions>
          <ns3:TrackPointExtension>
            <ns3:hr>88</ns3:hr>
            <ns3:cad>56</ns3:cad>
          </ns3:TrackPointExtension>
        </extensions>
      </trkpt>
      <trkpt lat="43.47393513657152652740478515625" lon="1.4260596223175525665283203125">
        <ele>218.600006103515625</ele>
        <time>2026-08-05T11:13:35.000Z</time>
        <extensions>
          <ns3:TrackPointExtension>
            <ns3:hr>86</ns3:hr>
            <ns3:cad>56</ns3:cad>
          </ns3:TrackPointExtension>
        </extensions>
      </trkpt>
      <trkpt lat="43.4739466197788715362548828125" lon="1.42604864202439785003662109375">
        <ele>218.600006103515625</ele>
        <time>2026-08-05T11:13:36.000Z</time>
        <extensions>
          <ns3:TrackPointExtension>
            <ns3:hr>85</ns3:hr>
            <ns3:cad>55</ns3:cad>
          </ns3:TrackPointExtension>
        </extensions>
      </trkpt>
      <trkpt lat="43.47395919263362884521484375" lon="1.42603875137865543365478515625">
        <ele>218.600006103515625</ele>
        <time>2026-08-05T11:13:37.000Z</time>
        <extensions>
          <ns3:TrackPointExtension>
            <ns3:hr>85</ns3:hr>
            <ns3:cad>55</ns3:cad>
          </ns3:TrackPointExtension>
        </extensions>
      </trkpt>
      <trkpt lat="43.4739717654883861541748046875" lon="1.4260321296751499176025390625">
        <ele>218.600006103515625</ele>
        <time>2026-08-05T11:13:38.000Z</time>
        <extensions>
          <ns3:TrackPointExtension>
            <ns3:hr>85</ns3:hr>
            <ns3:cad>54</ns3:cad>
          </ns3:TrackPointExtension>
        </extensions>
      </trkpt>
      <trkpt lat="43.47398601472377777099609375" lon="1.42602869309484958648681640625">
        <ele>218.600006103515625</ele>
        <time>2026-08-05T11:13:39.000Z</time>
        <extensions>
          <ns3:TrackPointExtension>
            <ns3:hr>85</ns3:hr>
            <ns3:cad>54</ns3:cad>
          </ns3:TrackPointExtension>
        </extensions>
      </trkpt>
      <trkpt lat="43.4740012697875499725341796875" lon="1.42602701671421527862548828125">
        <ele>218.600006103515625</ele>
        <time>2026-08-05T11:13:40.000Z</time>
        <extensions>
          <ns3:TrackPointExtension>
            <ns3:hr>84</ns3:hr>
            <ns3:cad>54</ns3:cad>
          </ns3:TrackPointExtension>
        </extensions>
      </trkpt>
      <trkpt lat="43.474014513194561004638671875" lon="1.4260260947048664093017578125">
        <ele>218.8000030517578125</ele>
        <time>2026-08-05T11:13:41.000Z</time>
        <extensions>
          <ns3:TrackPointExtension>
            <ns3:hr>85</ns3:hr>
            <ns3:cad>54</ns3:cad>
          </ns3:TrackPointExtension>
        </extensions>
      </trkpt>
      <trkpt lat="43.474029600620269775390625" lon="1.42602601088583469390869140625">
        <ele>218.8000030517578125</ele>
        <time>2026-08-05T11:13:42.000Z</time>
        <extensions>
          <ns3:TrackPointExtension>
            <ns3:hr>85</ns3:hr>
            <ns3:cad>52</ns3:cad>
          </ns3:TrackPointExtension>
        </extensions>
      </trkpt>
      <trkpt lat="43.47404544241726398468017578125" lon="1.426026932895183563232421875">
        <ele>218.8000030517578125</ele>
        <time>2026-08-05T11:13:43.000Z</time>
        <extensions>
          <ns3:TrackPointExtension>
            <ns3:hr>85</ns3:hr>
            <ns3:cad>52</ns3:cad>
          </ns3:TrackPointExtension>
        </extensions>
      </trkpt>
      <trkpt lat="43.4740579314529895782470703125" lon="1.42603154294192790985107421875">
        <ele>219</ele>
        <time>2026-08-05T11:13:44.000Z</time>
        <extensions>
          <ns3:TrackPointExtension>
            <ns3:hr>85</ns3:hr>
            <ns3:cad>51</ns3:cad>
          </ns3:TrackPointExtension>
        </extensions>
      </trkpt>
      <trkpt lat="43.47406907938420772552490234375" lon="1.4260361529886722564697265625">
        <ele>219</ele>
        <time>2026-08-05T11:13:45.000Z</time>
        <extensions>
          <ns3:TrackPointExtension>
            <ns3:hr>86</ns3:hr>
            <ns3:cad>51</ns3:cad>
          </ns3:TrackPointExtension>
        </extensions>
      </trkpt>
      <trkpt lat="43.47408064641058444976806640625" lon="1.426042355597019195556640625">
        <ele>219</ele>
        <time>2026-08-05T11:13:46.000Z</time>
        <extensions>
          <ns3:TrackPointExtension>
            <ns3:hr>87</ns3:hr>
            <ns3:cad>51</ns3:cad>
          </ns3:TrackPointExtension>
        </extensions>
      </trkpt>
      <trkpt lat="43.47409330308437347412109375" lon="1.42604939639568328857421875">
        <ele>219</ele>
        <time>2026-08-05T11:13:47.000Z</time>
        <extensions>
          <ns3:TrackPointExtension>
            <ns3:hr>88</ns3:hr>
            <ns3:cad>51</ns3:cad>
          </ns3:TrackPointExtension>
        </extensions>
      </trkpt>
      <trkpt lat="43.47410629503428936004638671875" lon="1.42605601809918880462646484375">
        <ele>219</ele>
        <time>2026-08-05T11:13:48.000Z</time>
        <extensions>
          <ns3:TrackPointExtension>
            <ns3:hr>89</ns3:hr>
            <ns3:cad>50</ns3:cad>
          </ns3:TrackPointExtension>
        </extensions>
      </trkpt>
      <trkpt lat="43.4741192869842052459716796875" lon="1.42606473527848720550537109375">
        <ele>219</ele>
        <time>2026-08-05T11:13:49.000Z</time>
        <extensions>
          <ns3:TrackPointExtension>
            <ns3:hr>89</ns3:hr>
            <ns3:cad>50</ns3:cad>
          </ns3:TrackPointExtension>
        </extensions>
      </trkpt>
      <trkpt lat="43.47413194365799427032470703125" lon="1.42607445828616619110107421875">
        <ele>219</ele>
        <time>2026-08-05T11:13:50.000Z</time>
        <extensions>
          <ns3:TrackPointExtension>
            <ns3:hr>89</ns3:hr>
            <ns3:cad>50</ns3:cad>
          </ns3:TrackPointExtension>
        </extensions>
      </trkpt>
      <trkpt lat="43.47414451651275157928466796875" lon="1.4260851033031940460205078125">
        <ele>219</ele>
        <time>2026-08-05T11:13:51.000Z</time>
        <extensions>
          <ns3:TrackPointExtension>
            <ns3:hr>89</ns3:hr>
            <ns3:cad>51</ns3:cad>
          </ns3:TrackPointExtension>
        </extensions>
      </trkpt>
      <trkpt lat="43.47415390424430370330810546875" lon="1.42609775997698307037353515625">
        <ele>219</ele>
        <time>2026-08-05T11:13:52.000Z</time>
        <extensions>
          <ns3:TrackPointExtension>
            <ns3:hr>89</ns3:hr>
            <ns3:cad>51</ns3:cad>
          </ns3:TrackPointExtension>
        </extensions>
      </trkpt>
      <trkpt lat="43.47416698001325130462646484375" lon="1.4261109195649623870849609375">
        <ele>219.1999969482421875</ele>
        <time>2026-08-05T11:13:53.000Z</time>
        <extensions>
          <ns3:TrackPointExtension>
            <ns3:hr>89</ns3:hr>
            <ns3:cad>53</ns3:cad>
          </ns3:TrackPointExtension>
        </extensions>
      </trkpt>
      <trkpt lat="43.47417938522994518280029296875" lon="1.42612290568649768829345703125">
        <ele>219.1999969482421875</ele>
        <time>2026-08-05T11:13:54.000Z</time>
        <extensions>
          <ns3:TrackPointExtension>
            <ns3:hr>88</ns3:hr>
            <ns3:cad>53</ns3:cad>
          </ns3:TrackPointExtension>
        </extensions>
      </trkpt>
      <trkpt lat="43.4741913713514804840087890625" lon="1.426134221255779266357421875">
        <ele>219.1999969482421875</ele>
        <time>2026-08-05T11:13:55.000Z</time>
        <extensions>
          <ns3:TrackPointExtension>
            <ns3:hr>88</ns3:hr>
            <ns3:cad>53</ns3:cad>
          </ns3:TrackPointExtension>
        </extensions>
      </trkpt>
      <trkpt lat="43.4742031060159206390380859375" lon="1.42614603973925113677978515625">
        <ele>219.1999969482421875</ele>
        <time>2026-08-05T11:13:56.000Z</time>
        <extensions>
          <ns3:TrackPointExtension>
            <ns3:hr>89</ns3:hr>
            <ns3:cad>52</ns3:cad>
          </ns3:TrackPointExtension>
        </extensions>
      </trkpt>
      <trkpt lat="43.4742151759564876556396484375" lon="1.42615593038499355316162109375">
        <ele>219.1999969482421875</ele>
        <time>2026-08-05T11:13:57.000Z</time>
        <extensions>
          <ns3:TrackPointExtension>
            <ns3:hr>89</ns3:hr>
            <ns3:cad>51</ns3:cad>
          </ns3:TrackPointExtension>
        </extensions>
      </trkpt>
      <trkpt lat="43.47422632388770580291748046875" lon="1.4261669106781482696533203125">
        <ele>219.1999969482421875</ele>
        <time>2026-08-05T11:13:58.000Z</time>
        <extensions>
          <ns3:TrackPointExtension>
            <ns3:hr>89</ns3:hr>
            <ns3:cad>51</ns3:cad>
          </ns3:TrackPointExtension>
        </extensions>
      </trkpt>
      <trkpt lat="43.47423638217151165008544921875" lon="1.42617654986679553985595703125">
        <ele>219.1999969482421875</ele>
        <time>2026-08-05T11:13:59.000Z</time>
        <extensions>
          <ns3:TrackPointExtension>
            <ns3:hr>90</ns3:hr>
            <ns3:cad>51</ns3:cad>
          </ns3:TrackPointExtension>
        </extensions>
      </trkpt>
      <trkpt lat="43.4742460213601589202880859375" lon="1.4261887036263942718505859375">
        <ele>219.1999969482421875</ele>
        <time>2026-08-05T11:14:00.000Z</time>
        <extensions>
          <ns3:TrackPointExtension>
            <ns3:hr>90</ns3:hr>
            <ns3:cad>51</ns3:cad>
          </ns3:TrackPointExtension>
        </extensions>
      </trkpt>
      <trkpt lat="43.47425448708236217498779296875" lon="1.42620102502405643463134765625">
        <ele>219.1999969482421875</ele>
        <time>2026-08-05T11:14:01.000Z</time>
        <extensions>
          <ns3:TrackPointExtension>
            <ns3:hr>91</ns3:hr>
            <ns3:cad>51</ns3:cad>
          </ns3:TrackPointExtension>
        </extensions>
      </trkpt>
      <trkpt lat="43.4742629528045654296875" lon="1.42621099948883056640625">
        <ele>219.1999969482421875</ele>
        <time>2026-08-05T11:14:02.000Z</time>
        <extensions>
          <ns3:TrackPointExtension>
            <ns3:hr>91</ns3:hr>
            <ns3:cad>51</ns3:cad>
          </ns3:TrackPointExtension>
        </extensions>
      </trkpt>
      <trkpt lat="43.47427032887935638427734375" lon="1.4262215606868267059326171875">
        <ele>219.1999969482421875</ele>
        <time>2026-08-05T11:14:03.000Z</time>
        <extensions>
          <ns3:TrackPointExtension>
            <ns3:hr>91</ns3:hr>
            <ns3:cad>52</ns3:cad>
          </ns3:TrackPointExtension>
        </extensions>
      </trkpt>
      <trkpt lat="43.47427904605865478515625" lon="1.42623136751353740692138671875">
        <ele>219.1999969482421875</ele>
        <time>2026-08-05T11:14:04.000Z</time>
        <extensions>
          <ns3:TrackPointExtension>
            <ns3:hr>91</ns3:hr>
            <ns3:cad>52</ns3:cad>
          </ns3:TrackPointExtension>
        </extensions>
      </trkpt>
      <trkpt lat="43.47429086454212665557861328125" lon="1.426240168511867523193359375">
        <ele>219</ele>
        <time>2026-08-05T11:14:05.000Z</time>
        <extensions>
          <ns3:TrackPointExtension>
            <ns3:hr>90</ns3:hr>
            <ns3:cad>51</ns3:cad>
          </ns3:TrackPointExtension>
        </extensions>
      </trkpt>
      <trkpt lat="43.47430209629237651824951171875" lon="1.42624863423407077789306640625">
        <ele>219</ele>
        <time>2026-08-05T11:14:06.000Z</time>
        <extensions>
          <ns3:TrackPointExtension>
            <ns3:hr>91</ns3:hr>
            <ns3:cad>50</ns3:cad>
          </ns3:TrackPointExtension>
        </extensions>
      </trkpt>
      <trkpt lat="43.47431265749037265777587890625" lon="1.4262591116130352020263671875">
        <ele>219</ele>
        <time>2026-08-05T11:14:07.000Z</time>
        <extensions>
          <ns3:TrackPointExtension>
            <ns3:hr>91</ns3:hr>
            <ns3:cad>50</ns3:cad>
          </ns3:TrackPointExtension>
        </extensions>
      </trkpt>
      <trkpt lat="43.4743248112499713897705078125" lon="1.42626933753490447998046875">
        <ele>219</ele>
        <time>2026-08-05T11:14:08.000Z</time>
        <extensions>
          <ns3:TrackPointExtension>
            <ns3:hr>91</ns3:hr>
            <ns3:cad>51</ns3:cad>
          </ns3:TrackPointExtension>
        </extensions>
      </trkpt>
      <trkpt lat="43.47433595918118953704833984375" lon="1.426279060542583465576171875">
        <ele>219</ele>
        <time>2026-08-05T11:14:09.000Z</time>
        <extensions>
          <ns3:TrackPointExtension>
            <ns3:hr>91</ns3:hr>
            <ns3:cad>51</ns3:cad>
          </ns3:TrackPointExtension>
        </extensions>
      </trkpt>
      <trkpt lat="43.47434501163661479949951171875" lon="1.4262909628450870513916015625">
        <ele>218.8000030517578125</ele>
        <time>2026-08-05T11:14:10.000Z</time>
        <extensions>
          <ns3:TrackPointExtension>
            <ns3:hr>91</ns3:hr>
            <ns3:cad>51</ns3:cad>
          </ns3:TrackPointExtension>
        </extensions>
      </trkpt>
      <trkpt lat="43.47435406409204006195068359375" lon="1.42629993148148059844970703125">
        <ele>218.600006103515625</ele>
        <time>2026-08-05T11:14:11.000Z</time>
        <extensions>
          <ns3:TrackPointExtension>
            <ns3:hr>91</ns3:hr>
            <ns3:cad>51</ns3:cad>
          </ns3:TrackPointExtension>
        </extensions>
      </trkpt>
      <trkpt lat="43.47436445765197277069091796875" lon="1.42630680464208126068115234375">
        <ele>218.600006103515625</ele>
        <time>2026-08-05T11:14:12.000Z</time>
        <extensions>
          <ns3:TrackPointExtension>
            <ns3:hr>92</ns3:hr>
            <ns3:cad>51</ns3:cad>
          </ns3:TrackPointExtension>
        </extensions>
      </trkpt>
      <trkpt lat="43.47437669523060321807861328125" lon="1.42631233669817447662353515625">
        <ele>218.399993896484375</ele>
        <time>2026-08-05T11:14:13.000Z</time>
        <extensions>
          <ns3:TrackPointExtension>
            <ns3:hr>92</ns3:hr>
            <ns3:cad>51</ns3:cad>
          </ns3:TrackPointExtension>
        </extensions>
      </trkpt>
      <trkpt lat="43.47438658587634563446044921875" lon="1.42631786875426769256591796875">
        <ele>218</ele>
        <time>2026-08-05T11:14:14.000Z</time>
        <extensions>
          <ns3:TrackPointExtension>
            <ns3:hr>92</ns3:hr>
            <ns3:cad>51</ns3:cad>
          </ns3:TrackPointExtension>
        </extensions>
      </trkpt>
      <trkpt lat="43.47439563833177089691162109375" lon="1.4263221435248851776123046875">
        <ele>218</ele>
        <time>2026-08-05T11:14:15.000Z</time>
        <extensions>
          <ns3:TrackPointExtension>
            <ns3:hr>91</ns3:hr>
            <ns3:cad>51</ns3:cad>
          </ns3:TrackPointExtension>
        </extensions>
      </trkpt>
      <trkpt lat="43.47440318204462528228759765625" lon="1.42632826231420040130615234375">
        <ele>217.8000030517578125</ele>
        <time>2026-08-05T11:14:16.000Z</time>
        <extensions>
          <ns3:TrackPointExtension>
            <ns3:hr>92</ns3:hr>
            <ns3:cad>51</ns3:cad>
          </ns3:TrackPointExtension>
        </extensions>
      </trkpt>
      <trkpt lat="43.47441324032843112945556640625" lon="1.4263330399990081787109375">
        <ele>217.8000030517578125</ele>
        <time>2026-08-05T11:14:17.000Z</time>
        <extensions>
          <ns3:TrackPointExtension>
            <ns3:hr>92</ns3:hr>
            <ns3:cad>51</ns3:cad>
          </ns3:TrackPointExtension>
        </extensions>
      </trkpt>
      <trkpt lat="43.47442447207868099212646484375" lon="1.42633396200835704803466796875">
        <ele>217.600006103515625</ele>
        <time>2026-08-05T11:14:18.000Z</time>
        <extensions>
          <ns3:TrackPointExtension>
            <ns3:hr>92</ns3:hr>
            <ns3:cad>51</ns3:cad>
          </ns3:TrackPointExtension>
        </extensions>
      </trkpt>
      <trkpt lat="43.47443662583827972412109375" lon="1.42633094452321529388427734375">
        <ele>217.600006103515625</ele>
        <time>2026-08-05T11:14:19.000Z</time>
        <extensions>
          <ns3:TrackPointExtension>
            <ns3:hr>92</ns3:hr>
            <ns3:cad>50</ns3:cad>
          </ns3:TrackPointExtension>
        </extensions>
      </trkpt>
      <trkpt lat="43.47444869577884674072265625" lon="1.4263271726667881011962890625">
        <ele>217.399993896484375</ele>
        <time>2026-08-05T11:14:20.000Z</time>
        <extensions>
          <ns3:TrackPointExtension>
            <ns3:hr>92</ns3:hr>
            <ns3:cad>50</ns3:cad>
          </ns3:TrackPointExtension>
        </extensions>
      </trkpt>
      <trkpt lat="43.4744600951671600341796875" lon="1.42632432281970977783203125">
        <ele>217.399993896484375</ele>
        <time>2026-08-05T11:14:21.000Z</time>
        <extensions>
          <ns3:TrackPointExtension>
            <ns3:hr>92</ns3:hr>
            <ns3:cad>50</ns3:cad>
          </ns3:TrackPointExtension>
        </extensions>
      </trkpt>
      <trkpt lat="43.4744693152606487274169921875" lon="1.42631937749683856964111328125">
        <ele>217.1999969482421875</ele>
        <time>2026-08-05T11:14:22.000Z</time>
        <extensions>
          <ns3:TrackPointExtension>
            <ns3:hr>92</ns3:hr>
            <ns3:cad>50</ns3:cad>
          </ns3:TrackPointExtension>
        </extensions>
      </trkpt>
      <trkpt lat="43.47447392530739307403564453125" lon="1.4263137616217136383056640625">
        <ele>217.1999969482421875</ele>
        <time>2026-08-05T11:14:23.000Z</time>
        <extensions>
          <ns3:TrackPointExtension>
            <ns3:hr>92</ns3:hr>
            <ns3:cad>51</ns3:cad>
          </ns3:TrackPointExtension>
        </extensions>
      </trkpt>
      <trkpt lat="43.4744790382683277130126953125" lon="1.42630881629884243011474609375">
        <ele>217.1999969482421875</ele>
        <time>2026-08-05T11:14:24.000Z</time>
        <extensions>
          <ns3:TrackPointExtension>
            <ns3:hr>93</ns3:hr>
            <ns3:cad>53</ns3:cad>
          </ns3:TrackPointExtension>
        </extensions>
      </trkpt>
      <trkpt lat="43.47448582760989665985107421875" lon="1.4263026975095272064208984375">
        <ele>217</ele>
        <time>2026-08-05T11:14:25.000Z</time>
        <extensions>
          <ns3:TrackPointExtension>
            <ns3:hr>93</ns3:hr>
            <ns3:cad>53</ns3:cad>
          </ns3:TrackPointExtension>
        </extensions>
      </trkpt>
      <trkpt lat="43.47449437715113162994384765625" lon="1.426293142139911651611328125">
        <ele>216.8000030517578125</ele>
        <time>2026-08-05T11:14:26.000Z</time>
        <extensions>
          <ns3:TrackPointExtension>
            <ns3:hr>94</ns3:hr>
            <ns3:cad>53</ns3:cad>
          </ns3:TrackPointExtension>
        </extensions>
      </trkpt>
      <trkpt lat="43.47450074739754199981689453125" lon="1.4262805692851543426513671875">
        <ele>216.600006103515625</ele>
        <time>2026-08-05T11:14:27.000Z</time>
        <extensions>
          <ns3:TrackPointExtension>
            <ns3:hr>94</ns3:hr>
            <ns3:cad>53</ns3:cad>
          </ns3:TrackPointExtension>
        </extensions>
      </trkpt>
      <trkpt lat="43.47450477071106433868408203125" lon="1.42626791261136531829833984375">
        <ele>216.1999969482421875</ele>
        <time>2026-08-05T11:14:28.000Z</time>
        <extensions>
          <ns3:TrackPointExtension>
            <ns3:hr>94</ns3:hr>
            <ns3:cad>53</ns3:cad>
          </ns3:TrackPointExtension>
        </extensions>
      </trkpt>
      <trkpt lat="43.47450711764395236968994140625" lon="1.42625802196562290191650390625">
        <ele>215.8000030517578125</ele>
        <time>2026-08-05T11:14:29.000Z</time>
        <extensions>
          <ns3:TrackPointExtension>
            <ns3:hr>94</ns3:hr>
            <ns3:cad>49</ns3:cad>
          </ns3:TrackPointExtension>
        </extensions>
      </trkpt>
      <trkpt lat="43.47450946457684040069580078125" lon="1.42624519765377044677734375">
        <ele>215.8000030517578125</ele>
        <time>2026-08-05T11:14:30.000Z</time>
        <extensions>
          <ns3:TrackPointExtension>
            <ns3:hr>95</ns3:hr>
            <ns3:cad>49</ns3:cad>
          </ns3:TrackPointExtension>
        </extensions>
      </trkpt>
      <trkpt lat="43.47451030276715755462646484375" lon="1.42623119987547397613525390625">
        <ele>215.600006103515625</ele>
        <time>2026-08-05T11:14:31.000Z</time>
        <extensions>
          <ns3:TrackPointExtension>
            <ns3:hr>95</ns3:hr>
            <ns3:cad>50</ns3:cad>
          </ns3:TrackPointExtension>
        </extensions>
      </trkpt>
      <trkpt lat="43.4745110571384429931640625" lon="1.42621460370719432830810546875">
        <ele>215.8000030517578125</ele>
        <time>2026-08-05T11:14:32.000Z</time>
        <extensions>
          <ns3:TrackPointExtension>
            <ns3:hr>95</ns3:hr>
            <ns3:cad>50</ns3:cad>
          </ns3:TrackPointExtension>
        </extensions>
      </trkpt>
      <trkpt lat="43.47451114095747470855712890625" lon="1.42620035447180271148681640625">
        <ele>215.8000030517578125</ele>
        <time>2026-08-05T11:14:33.000Z</time>
        <extensions>
          <ns3:TrackPointExtension>
            <ns3:hr>95</ns3:hr>
            <ns3:cad>50</ns3:cad>
          </ns3:TrackPointExtension>
        </extensions>
      </trkpt>
      <trkpt lat="43.47451038658618927001953125" lon="1.4261853508651256561279296875">
        <ele>216</ele>
        <time>2026-08-05T11:14:34.000Z</time>
        <extensions>
          <ns3:TrackPointExtension>
            <ns3:hr>95</ns3:hr>
            <ns3:cad>51</ns3:cad>
          </ns3:TrackPointExtension>
        </extensions>
      </trkpt>
      <trkpt lat="43.47450544126331806182861328125" lon="1.42617219127714633941650390625">
        <ele>216</ele>
        <time>2026-08-05T11:14:35.000Z</time>
        <extensions>
          <ns3:TrackPointExtension>
            <ns3:hr>95</ns3:hr>
            <ns3:cad>51</ns3:cad>
          </ns3:TrackPointExtension>
        </extensions>
      </trkpt>
      <trkpt lat="43.47450393252074718475341796875" lon="1.4261598698794841766357421875">
        <ele>216</ele>
        <time>2026-08-05T11:14:36.000Z</time>
        <extensions>
          <ns3:TrackPointExtension>
            <ns3:hr>94</ns3:hr>
            <ns3:cad>50</ns3:cad>
          </ns3:TrackPointExtension>
        </extensions>
      </trkpt>
      <trkpt lat="43.47450292669236660003662109375" lon="1.42614989541471004486083984375">
        <ele>215.8000030517578125</ele>
        <time>2026-08-05T11:14:37.000Z</time>
        <extensions>
          <ns3:TrackPointExtension>
            <ns3:hr>94</ns3:hr>
            <ns3:cad>50</ns3:cad>
          </ns3:TrackPointExtension>
        </extensions>
      </trkpt>
      <trkpt lat="43.47450275905430316925048828125" lon="1.42613665200769901275634765625">
        <ele>215.600006103515625</ele>
        <time>2026-08-05T11:14:38.000Z</time>
        <extensions>
          <ns3:TrackPointExtension>
            <ns3:hr>94</ns3:hr>
            <ns3:cad>50</ns3:cad>
          </ns3:TrackPointExtension>
        </extensions>
      </trkpt>
      <trkpt lat="43.47450091503560543060302734375" lon="1.4261253364384174346923828125">
        <ele>215.600006103515625</ele>
        <time>2026-08-05T11:14:39.000Z</time>
        <extensions>
          <ns3:TrackPointExtension>
            <ns3:hr>94</ns3:hr>
            <ns3:cad>50</ns3:cad>
          </ns3:TrackPointExtension>
        </extensions>
      </trkpt>
      <trkpt lat="43.47449965775012969970703125" lon="1.42611217685043811798095703125">
        <ele>215.600006103515625</ele>
        <time>2026-08-05T11:14:40.000Z</time>
        <extensions>
          <ns3:TrackPointExtension>
            <ns3:hr>93</ns3:hr>
            <ns3:cad>49</ns3:cad>
          </ns3:TrackPointExtension>
        </extensions>
      </trkpt>
      <trkpt lat="43.47449907101690769195556640625" lon="1.4260934852063655853271484375">
        <ele>215.600006103515625</ele>
        <time>2026-08-05T11:14:41.000Z</time>
        <extensions>
          <ns3:TrackPointExtension>
            <ns3:hr>93</ns3:hr>
            <ns3:cad>49</ns3:cad>
          </ns3:TrackPointExtension>
        </extensions>
      </trkpt>
      <trkpt lat="43.4744971431791782379150390625" lon="1.42607931979000568389892578125">
        <ele>215.600006103515625</ele>
        <time>2026-08-05T11:14:42.000Z</time>
        <extensions>
          <ns3:TrackPointExtension>
            <ns3:hr>93</ns3:hr>
            <ns3:cad>49</ns3:cad>
          </ns3:TrackPointExtension>
        </extensions>
      </trkpt>
      <trkpt lat="43.47449555061757564544677734375" lon="1.42606523819267749786376953125">
        <ele>215.8000030517578125</ele>
        <time>2026-08-05T11:14:43.000Z</time>
        <extensions>
          <ns3:TrackPointExtension>
            <ns3:hr>93</ns3:hr>
            <ns3:cad>49</ns3:cad>
          </ns3:TrackPointExtension>
        </extensions>
      </trkpt>
      <trkpt lat="43.474495299160480499267578125" lon="1.426049061119556427001953125">
        <ele>215.8000030517578125</ele>
        <time>2026-08-05T11:14:44.000Z</time>
        <extensions>
          <ns3:TrackPointExtension>
            <ns3:hr>93</ns3:hr>
            <ns3:cad>49</ns3:cad>
          </ns3:TrackPointExtension>
        </extensions>
      </trkpt>
      <trkpt lat="43.47449471242725849151611328125" lon="1.4260354824364185333251953125">
        <ele>215.8000030517578125</ele>
        <time>2026-08-05T11:14:45.000Z</time>
        <extensions>
          <ns3:TrackPointExtension>
            <ns3:hr>93</ns3:hr>
            <ns3:cad>45</ns3:cad>
          </ns3:TrackPointExtension>
        </extensions>
      </trkpt>
      <trkpt lat="43.4744944609701633453369140625" lon="1.4260190539062023162841796875">
        <ele>215.8000030517578125</ele>
        <time>2026-08-05T11:14:46.000Z</time>
        <extensions>
          <ns3:TrackPointExtension>
            <ns3:hr>93</ns3:hr>
            <ns3:cad>45</ns3:cad>
          </ns3:TrackPointExtension>
        </extensions>
      </trkpt>
      <trkpt lat="43.47449286840856075286865234375" lon="1.426010169088840484619140625">
        <ele>215.8000030517578125</ele>
        <time>2026-08-05T11:14:47.000Z</time>
        <extensions>
          <ns3:TrackPointExtension>
            <ns3:hr>92</ns3:hr>
            <ns3:cad>45</ns3:cad>
          </ns3:TrackPointExtension>
        </extensions>
      </trkpt>
      <trkpt lat="43.474491275846958160400390625" lon="1.42599851824343204498291015625">
        <ele>215.8000030517578125</ele>
        <time>2026-08-05T11:14:48.000Z</time>
        <extensions>
          <ns3:TrackPointExtension>
            <ns3:hr>93</ns3:hr>
            <ns3:cad>45</ns3:cad>
          </ns3:TrackPointExtension>
        </extensions>
      </trkpt>
      <trkpt lat="43.47449035383760929107666015625" lon="1.4259855262935161590576171875">
        <ele>215.8000030517578125</ele>
        <time>2026-08-05T11:14:49.000Z</time>
        <extensions>
          <ns3:TrackPointExtension>
            <ns3:hr>93</ns3:hr>
            <ns3:cad>45</ns3:cad>
          </ns3:TrackPointExtension>
        </extensions>
      </trkpt>
      <trkpt lat="43.47449027001857757568359375" lon="1.42597437836229801177978515625">
        <ele>215.8000030517578125</ele>
        <time>2026-08-05T11:14:50.000Z</time>
        <extensions>
          <ns3:TrackPointExtension>
            <ns3:hr>93</ns3:hr>
            <ns3:cad>45</ns3:cad>
          </ns3:TrackPointExtension>
        </extensions>
      </trkpt>
      <trkpt lat="43.4744890965521335601806640625" lon="1.42596499063074588775634765625">
        <ele>215.600006103515625</ele>
        <time>2026-08-05T11:14:51.000Z</time>
        <extensions>
          <ns3:TrackPointExtension>
            <ns3:hr>93</ns3:hr>
            <ns3:cad>46</ns3:cad>
          </ns3:TrackPointExtension>
        </extensions>
      </trkpt>
      <trkpt lat="43.47448918037116527557373046875" lon="1.42595325596630573272705078125">
        <ele>215.600006103515625</ele>
        <time>2026-08-05T11:14:52.000Z</time>
        <extensions>
          <ns3:TrackPointExtension>
            <ns3:hr>93</ns3:hr>
            <ns3:cad>46</ns3:cad>
          </ns3:TrackPointExtension>
        </extensions>
      </trkpt>
      <trkpt lat="43.47449035383760929107666015625" lon="1.42594001255929470062255859375">
        <ele>215.399993896484375</ele>
        <time>2026-08-05T11:14:53.000Z</time>
        <extensions>
          <ns3:TrackPointExtension>
            <ns3:hr>93</ns3:hr>
            <ns3:cad>46</ns3:cad>
          </ns3:TrackPointExtension>
        </extensions>
      </trkpt>
      <trkpt lat="43.4744897671043872833251953125" lon="1.42592743970453739166259765625">
        <ele>215.399993896484375</ele>
        <time>2026-08-05T11:14:54.000Z</time>
        <extensions>
          <ns3:TrackPointExtension>
            <ns3:hr>93</ns3:hr>
            <ns3:cad>46</ns3:cad>
          </ns3:TrackPointExtension>
        </extensions>
      </trkpt>
      <trkpt lat="43.474490605294704437255859375" lon="1.425912268459796905517578125">
        <ele>215.399993896484375</ele>
        <time>2026-08-05T11:14:55.000Z</time>
        <extensions>
          <ns3:TrackPointExtension>
            <ns3:hr>92</ns3:hr>
            <ns3:cad>46</ns3:cad>
          </ns3:TrackPointExtension>
        </extensions>
      </trkpt>
      <trkpt lat="43.47449085675179958343505859375" lon="1.4258963428437709808349609375">
        <ele>215.1999969482421875</ele>
        <time>2026-08-05T11:14:56.000Z</time>
        <extensions>
          <ns3:TrackPointExtension>
            <ns3:hr>92</ns3:hr>
            <ns3:cad>47</ns3:cad>
          </ns3:TrackPointExtension>
        </extensions>
      </trkpt>
      <trkpt lat="43.4744904376566410064697265625" lon="1.42588175833225250244140625">
        <ele>215.399993896484375</ele>
        <time>2026-08-05T11:14:57.000Z</time>
        <extensions>
          <ns3:TrackPointExtension>
            <ns3:hr>92</ns3:hr>
            <ns3:cad>47</ns3:cad>
          </ns3:TrackPointExtension>
        </extensions>
      </trkpt>
      <trkpt lat="43.47449018619954586029052734375" lon="1.4258695207536220550537109375">
        <ele>215.1999969482421875</ele>
        <time>2026-08-05T11:14:58.000Z</time>
        <extensions>
          <ns3:TrackPointExtension>
            <ns3:hr>92</ns3:hr>
            <ns3:cad>47</ns3:cad>
          </ns3:TrackPointExtension>
        </extensions>
      </trkpt>
      <trkpt lat="43.4744894318282604217529296875" lon="1.42585116438567638397216796875">
        <ele>215.1999969482421875</ele>
        <time>2026-08-05T11:14:59.000Z</time>
        <extensions>
          <ns3:TrackPointExtension>
            <ns3:hr>91</ns3:hr>
            <ns3:cad>46</ns3:cad>
          </ns3:TrackPointExtension>
        </extensions>
      </trkpt>
      <trkpt lat="43.47448758780956268310546875" lon="1.4258380047976970672607421875">
        <ele>215.1999969482421875</ele>
        <time>2026-08-05T11:15:00.000Z</time>
        <extensions>
          <ns3:TrackPointExtension>
            <ns3:hr>91</ns3:hr>
            <ns3:cad>45</ns3:cad>
          </ns3:TrackPointExtension>
        </extensions>
      </trkpt>
      <trkpt lat="43.474487252533435821533203125" lon="1.4258269406855106353759765625">
        <ele>215</ele>
        <time>2026-08-05T11:15:01.000Z</time>
        <extensions>
          <ns3:TrackPointExtension>
            <ns3:hr>90</ns3:hr>
            <ns3:cad>45</ns3:cad>
          </ns3:TrackPointExtension>
        </extensions>
      </trkpt>
      <trkpt lat="43.47449001856148242950439453125" lon="1.4258111827075481414794921875">
        <ele>215</ele>
        <time>2026-08-05T11:15:02.000Z</time>
        <extensions>
          <ns3:TrackPointExtension>
            <ns3:hr>89</ns3:hr>
            <ns3:cad>50</ns3:cad>
          </ns3:TrackPointExtension>
        </extensions>
      </trkpt>
      <trkpt lat="43.47449420951306819915771484375" lon="1.425800286233425140380859375">
        <ele>214.8000030517578125</ele>
        <time>2026-08-05T11:15:03.000Z</time>
        <extensions>
          <ns3:TrackPointExtension>
            <ns3:hr>89</ns3:hr>
            <ns3:cad>50</ns3:cad>
          </ns3:TrackPointExtension>
        </extensions>
      </trkpt>
      <trkpt lat="43.47449722699820995330810546875" lon="1.42578595317900180816650390625">
        <ele>214.8000030517578125</ele>
        <time>2026-08-05T11:15:04.000Z</time>
        <extensions>
          <ns3:TrackPointExtension>
            <ns3:hr>88</ns3:hr>
            <ns3:cad>50</ns3:cad>
          </ns3:TrackPointExtension>
        </extensions>
      </trkpt>
      <trkpt lat="43.474497981369495391845703125" lon="1.42576868645846843719482421875">
        <ele>214.8000030517578125</ele>
        <time>2026-08-05T11:15:05.000Z</time>
        <extensions>
          <ns3:TrackPointExtension>
            <ns3:hr>88</ns3:hr>
            <ns3:cad>50</ns3:cad>
          </ns3:TrackPointExtension>
        </extensions>
      </trkpt>
      <trkpt lat="43.47449655644595623016357421875" lon="1.42575024627149105072021484375">
        <ele>214.8000030517578125</ele>
        <time>2026-08-05T11:15:06.000Z</time>
        <extensions>
          <ns3:TrackPointExtension>
            <ns3:hr>88</ns3:hr>
            <ns3:cad>49</ns3:cad>
          </ns3:TrackPointExtension>
        </extensions>
      </trkpt>
      <trkpt lat="43.47449789755046367645263671875" lon="1.42573465593159198760986328125">
        <ele>214.600006103515625</ele>
        <time>2026-08-05T11:15:07.000Z</time>
        <extensions>
          <ns3:TrackPointExtension>
            <ns3:hr>89</ns3:hr>
            <ns3:cad>49</ns3:cad>
          </ns3:TrackPointExtension>
        </extensions>
      </trkpt>
      <trkpt lat="43.47450024448335170745849609375" lon="1.4257209934294223785400390625">
        <ele>214.600006103515625</ele>
        <time>2026-08-05T11:15:08.000Z</time>
        <extensions>
          <ns3:TrackPointExtension>
            <ns3:hr>88</ns3:hr>
            <ns3:cad>49</ns3:cad>
          </ns3:TrackPointExtension>
        </extensions>
      </trkpt>
      <trkpt lat="43.47450275905430316925048828125" lon="1.42570816911756992340087890625">
        <ele>214.399993896484375</ele>
        <time>2026-08-05T11:15:09.000Z</time>
        <extensions>
          <ns3:TrackPointExtension>
            <ns3:hr>88</ns3:hr>
            <ns3:cad>49</ns3:cad>
          </ns3:TrackPointExtension>
        </extensions>
      </trkpt>
      <trkpt lat="43.47450275905430316925048828125" lon="1.42569056712090969085693359375">
        <ele>214.399993896484375</ele>
        <time>2026-08-05T11:15:10.000Z</time>
        <extensions>
          <ns3:TrackPointExtension>
            <ns3:hr>88</ns3:hr>
            <ns3:cad>50</ns3:cad>
          </ns3:TrackPointExtension>
        </extensions>
      </trkpt>
      <trkpt lat="43.47450292669236660003662109375" lon="1.42567615024745464324951171875">
        <ele>214.1999969482421875</ele>
        <time>2026-08-05T11:15:11.000Z</time>
        <extensions>
          <ns3:TrackPointExtension>
            <ns3:hr>88</ns3:hr>
            <ns3:cad>50</ns3:cad>
          </ns3:TrackPointExtension>
        </extensions>
      </trkpt>
      <trkpt lat="43.47450644709169864654541015625" lon="1.4256598055362701416015625">
        <ele>214.1999969482421875</ele>
        <time>2026-08-05T11:15:12.000Z</time>
        <extensions>
          <ns3:TrackPointExtension>
            <ns3:hr>87</ns3:hr>
            <ns3:cad>50</ns3:cad>
          </ns3:TrackPointExtension>
        </extensions>
      </trkpt>
      <trkpt lat="43.4745078720152378082275390625" lon="1.4256517589092254638671875">
        <ele>214</ele>
        <time>2026-08-05T11:15:13.000Z</time>
        <extensions>
          <ns3:TrackPointExtension>
            <ns3:hr>87</ns3:hr>
            <ns3:cad>50</ns3:cad>
          </ns3:TrackPointExtension>
        </extensions>
      </trkpt>
      <trkpt lat="43.47450879402458667755126953125" lon="1.425639353692531585693359375">
        <ele>214</ele>
        <time>2026-08-05T11:15:14.000Z</time>
        <extensions>
          <ns3:TrackPointExtension>
            <ns3:hr>87</ns3:hr>
            <ns3:cad>49</ns3:cad>
          </ns3:TrackPointExtension>
        </extensions>
      </trkpt>
      <trkpt lat="43.47451063804328441619873046875" lon="1.42562451772391796112060546875">
        <ele>213.8000030517578125</ele>
        <time>2026-08-05T11:15:15.000Z</time>
        <extensions>
          <ns3:TrackPointExtension>
            <ns3:hr>86</ns3:hr>
            <ns3:cad>49</ns3:cad>
          </ns3:TrackPointExtension>
        </extensions>
      </trkpt>
      <trkpt lat="43.47450963221490383148193359375" lon="1.425612866878509521484375">
        <ele>213.8000030517578125</ele>
        <time>2026-08-05T11:15:16.000Z</time>
        <extensions>
          <ns3:TrackPointExtension>
            <ns3:hr>86</ns3:hr>
            <ns3:cad>48</ns3:cad>
          </ns3:TrackPointExtension>
        </extensions>
      </trkpt>
      <trkpt lat="43.47451114095747470855712890625" lon="1.425599791109561920166015625">
        <ele>213.8000030517578125</ele>
        <time>2026-08-05T11:15:17.000Z</time>
        <extensions>
          <ns3:TrackPointExtension>
            <ns3:hr>85</ns3:hr>
            <ns3:cad>47</ns3:cad>
          </ns3:TrackPointExtension>
        </extensions>
      </trkpt>
      <trkpt lat="43.47451281733810901641845703125" lon="1.42558495514094829559326171875">
        <ele>213.8000030517578125</ele>
        <time>2026-08-05T11:15:18.000Z</time>
        <extensions>
          <ns3:TrackPointExtension>
            <ns3:hr>84</ns3:hr>
            <ns3:cad>46</ns3:cad>
          </ns3:TrackPointExtension>
        </extensions>
      </trkpt>
      <trkpt lat="43.47451482899487018585205078125" lon="1.425572298467159271240234375">
        <ele>214</ele>
        <time>2026-08-05T11:15:19.000Z</time>
        <extensions>
          <ns3:TrackPointExtension>
            <ns3:hr>82</ns3:hr>
            <ns3:cad>46</ns3:cad>
          </ns3:TrackPointExtension>
        </extensions>
      </trkpt>
      <trkpt lat="43.47451717592775821685791015625" lon="1.42555712722241878509521484375">
        <ele>214</ele>
        <time>2026-08-05T11:15:20.000Z</time>
        <extensions>
          <ns3:TrackPointExtension>
            <ns3:hr>81</ns3:hr>
            <ns3:cad>48</ns3:cad>
          </ns3:TrackPointExtension>
        </extensions>
      </trkpt>
      <trkpt lat="43.474517762660980224609375" lon="1.42553935758769512176513671875">
        <ele>213.8000030517578125</ele>
        <time>2026-08-05T11:15:21.000Z</time>
        <extensions>
          <ns3:TrackPointExtension>
            <ns3:hr>80</ns3:hr>
            <ns3:cad>48</ns3:cad>
          </ns3:TrackPointExtension>
        </extensions>
      </trkpt>
      <trkpt lat="43.47451818175613880157470703125" lon="1.42552561126649379730224609375">
        <ele>213.600006103515625</ele>
        <time>2026-08-05T11:15:22.000Z</time>
        <extensions>
          <ns3:TrackPointExtension>
            <ns3:hr>80</ns3:hr>
            <ns3:cad>49</ns3:cad>
          </ns3:TrackPointExtension>
        </extensions>
      </trkpt>
      <trkpt lat="43.47452019341289997100830078125" lon="1.42551253549754619598388671875">
        <ele>213.399993896484375</ele>
        <time>2026-08-05T11:15:23.000Z</time>
        <extensions>
          <ns3:TrackPointExtension>
            <ns3:hr>80</ns3:hr>
            <ns3:cad>49</ns3:cad>
          </ns3:TrackPointExtension>
        </extensions>
      </trkpt>
      <trkpt lat="43.4745206125080585479736328125" lon="1.4255033992230892181396484375">
        <ele>213.1999969482421875</ele>
        <time>2026-08-05T11:15:24.000Z</time>
        <extensions>
          <ns3:TrackPointExtension>
            <ns3:hr>80</ns3:hr>
            <ns3:cad>49</ns3:cad>
          </ns3:TrackPointExtension>
        </extensions>
      </trkpt>
      <trkpt lat="43.4745226241648197174072265625" lon="1.4254883117973804473876953125">
        <ele>213.1999969482421875</ele>
        <time>2026-08-05T11:15:25.000Z</time>
        <extensions>
          <ns3:TrackPointExtension>
            <ns3:hr>80</ns3:hr>
            <ns3:cad>48</ns3:cad>
          </ns3:TrackPointExtension>
        </extensions>
      </trkpt>
      <trkpt lat="43.47452572546899318695068359375" lon="1.42547230236232280731201171875">
        <ele>213.1999969482421875</ele>
        <time>2026-08-05T11:15:26.000Z</time>
        <extensions>
          <ns3:TrackPointExtension>
            <ns3:hr>79</ns3:hr>
            <ns3:cad>48</ns3:cad>
          </ns3:TrackPointExtension>
        </extensions>
      </trkpt>
      <trkpt lat="43.474528491497039794921875" lon="1.42545553855597972869873046875">
        <ele>213.1999969482421875</ele>
        <time>2026-08-05T11:15:27.000Z</time>
        <extensions>
          <ns3:TrackPointExtension>
            <ns3:hr>80</ns3:hr>
            <ns3:cad>48</ns3:cad>
          </ns3:TrackPointExtension>
        </extensions>
      </trkpt>
      <trkpt lat="43.4745283238589763641357421875" lon="1.42544455826282501220703125">
        <ele>213.1999969482421875</ele>
        <time>2026-08-05T11:15:28.000Z</time>
        <extensions>
          <ns3:TrackPointExtension>
            <ns3:hr>79</ns3:hr>
            <ns3:cad>48</ns3:cad>
          </ns3:TrackPointExtension>
        </extensions>
      </trkpt>
      <trkpt lat="43.47453125752508640289306640625" lon="1.42543341033160686492919921875">
        <ele>213.1999969482421875</ele>
        <time>2026-08-05T11:15:29.000Z</time>
        <extensions>
          <ns3:TrackPointExtension>
            <ns3:hr>79</ns3:hr>
            <ns3:cad>48</ns3:cad>
          </ns3:TrackPointExtension>
        </extensions>
      </trkpt>
      <trkpt lat="43.47453259862959384918212890625" lon="1.42541983164846897125244140625">
        <ele>213</ele>
        <time>2026-08-05T11:15:30.000Z</time>
        <extensions>
          <ns3:TrackPointExtension>
            <ns3:hr>79</ns3:hr>
            <ns3:cad>47</ns3:cad>
          </ns3:TrackPointExtension>
        </extensions>
      </trkpt>
      <trkpt lat="43.4745325148105621337890625" lon="1.4254085160791873931884765625">
        <ele>212.8000030517578125</ele>
        <time>2026-08-05T11:15:31.000Z</time>
        <extensions>
          <ns3:TrackPointExtension>
            <ns3:hr>78</ns3:hr>
            <ns3:cad>47</ns3:cad>
          </ns3:TrackPointExtension>
        </extensions>
      </trkpt>
      <trkpt lat="43.4745353646576404571533203125" lon="1.42539535649120807647705078125">
        <ele>212.8000030517578125</ele>
        <time>2026-08-05T11:15:32.000Z</time>
        <extensions>
          <ns3:TrackPointExtension>
            <ns3:hr>77</ns3:hr>
            <ns3:cad>47</ns3:cad>
          </ns3:TrackPointExtension>
        </extensions>
      </trkpt>
      <trkpt lat="43.47453578375279903411865234375" lon="1.42538580112159252166748046875">
        <ele>212.600006103515625</ele>
        <time>2026-08-05T11:15:33.000Z</time>
        <extensions>
          <ns3:TrackPointExtension>
            <ns3:hr>77</ns3:hr>
            <ns3:cad>48</ns3:cad>
          </ns3:TrackPointExtension>
        </extensions>
      </trkpt>
      <trkpt lat="43.47453880123794078826904296875" lon="1.42537121661007404327392578125">
        <ele>212.600006103515625</ele>
        <time>2026-08-05T11:15:34.000Z</time>
        <extensions>
          <ns3:TrackPointExtension>
            <ns3:hr>79</ns3:hr>
            <ns3:cad>48</ns3:cad>
          </ns3:TrackPointExtension>
        </extensions>
      </trkpt>
      <trkpt lat="43.47453880123794078826904296875" lon="1.42536140978336334228515625">
        <ele>212.600006103515625</ele>
        <time>2026-08-05T11:15:35.000Z</time>
        <extensions>
          <ns3:TrackPointExtension>
            <ns3:hr>79</ns3:hr>
            <ns3:cad>48</ns3:cad>
          </ns3:TrackPointExtension>
        </extensions>
      </trkpt>
      <trkpt lat="43.4745403937995433807373046875" lon="1.4253448136150836944580078125">
        <ele>212.600006103515625</ele>
        <time>2026-08-05T11:15:36.000Z</time>
        <extensions>
          <ns3:TrackPointExtension>
            <ns3:hr>79</ns3:hr>
            <ns3:cad>48</ns3:cad>
          </ns3:TrackPointExtension>
        </extensions>
      </trkpt>
      <trkpt lat="43.47454215399920940399169921875" lon="1.425330899655818939208984375">
        <ele>212.600006103515625</ele>
        <time>2026-08-05T11:15:37.000Z</time>
        <extensions>
          <ns3:TrackPointExtension>
            <ns3:hr>79</ns3:hr>
            <ns3:cad>48</ns3:cad>
          </ns3:TrackPointExtension>
        </extensions>
      </trkpt>
      <trkpt lat="43.47454366274178028106689453125" lon="1.42531740479171276092529296875">
        <ele>212.399993896484375</ele>
        <time>2026-08-05T11:15:38.000Z</time>
        <extensions>
          <ns3:TrackPointExtension>
            <ns3:hr>80</ns3:hr>
            <ns3:cad>48</ns3:cad>
          </ns3:TrackPointExtension>
        </extensions>
      </trkpt>
      <trkpt lat="43.474545590579509735107421875" lon="1.4252965338528156280517578125">
        <ele>212.1999969482421875</ele>
        <time>2026-08-05T11:15:39.000Z</time>
        <extensions>
          <ns3:TrackPointExtension>
            <ns3:hr>80</ns3:hr>
            <ns3:cad>47</ns3:cad>
          </ns3:TrackPointExtension>
        </extensions>
      </trkpt>
      <trkpt lat="43.47454668022692203521728515625" lon="1.4252831228077411651611328125">
        <ele>211.8000030517578125</ele>
        <time>2026-08-05T11:15:40.000Z</time>
        <extensions>
          <ns3:TrackPointExtension>
            <ns3:hr>80</ns3:hr>
            <ns3:cad>47</ns3:cad>
          </ns3:TrackPointExtension>
        </extensions>
      </trkpt>
      <trkpt lat="43.474548943340778350830078125" lon="1.42527046613395214080810546875">
        <ele>211.399993896484375</ele>
        <time>2026-08-05T11:15:41.000Z</time>
        <extensions>
          <ns3:TrackPointExtension>
            <ns3:hr>80</ns3:hr>
            <ns3:cad>47</ns3:cad>
          </ns3:TrackPointExtension>
        </extensions>
      </trkpt>
      <trkpt lat="43.4745511226356029510498046875" lon="1.42525370232760906219482421875">
        <ele>211.1999969482421875</ele>
        <time>2026-08-05T11:15:42.000Z</time>
        <extensions>
          <ns3:TrackPointExtension>
            <ns3:hr>79</ns3:hr>
            <ns3:cad>47</ns3:cad>
          </ns3:TrackPointExtension>
        </extensions>
      </trkpt>
      <trkpt lat="43.4745531342923641204833984375" lon="1.4252408780157566070556640625">
        <ele>211.1999969482421875</ele>
        <time>2026-08-05T11:15:43.000Z</time>
        <extensions>
          <ns3:TrackPointExtension>
            <ns3:hr>79</ns3:hr>
            <ns3:cad>50</ns3:cad>
          </ns3:TrackPointExtension>
        </extensions>
      </trkpt>
      <trkpt lat="43.47455539740622043609619140625" lon="1.4252252876758575439453125">
        <ele>211.1999969482421875</ele>
        <time>2026-08-05T11:15:44.000Z</time>
        <extensions>
          <ns3:TrackPointExtension>
            <ns3:hr>78</ns3:hr>
            <ns3:cad>51</ns3:cad>
          </ns3:TrackPointExtension>
        </extensions>
      </trkpt>
      <trkpt lat="43.47455724142491817474365234375" lon="1.42521120607852935791015625">
        <ele>211.1999969482421875</ele>
        <time>2026-08-05T11:15:45.000Z</time>
        <extensions>
          <ns3:TrackPointExtension>
            <ns3:hr>78</ns3:hr>
            <ns3:cad>51</ns3:cad>
          </ns3:TrackPointExtension>
        </extensions>
      </trkpt>
      <trkpt lat="43.47455942071974277496337890625" lon="1.42519955523312091827392578125">
        <ele>211.1999969482421875</ele>
        <time>2026-08-05T11:15:46.000Z</time>
        <extensions>
          <ns3:TrackPointExtension>
            <ns3:hr>78</ns3:hr>
            <ns3:cad>51</ns3:cad>
          </ns3:TrackPointExtension>
        </extensions>
      </trkpt>
      <trkpt lat="43.474561013281345367431640625" lon="1.42518664710223674774169921875">
        <ele>211.1999969482421875</ele>
        <time>2026-08-05T11:15:47.000Z</time>
        <extensions>
          <ns3:TrackPointExtension>
            <ns3:hr>78</ns3:hr>
            <ns3:cad>50</ns3:cad>
          </ns3:TrackPointExtension>
        </extensions>
      </trkpt>
      <trkpt lat="43.474560342729091644287109375" lon="1.425172984600067138671875">
        <ele>211.1999969482421875</ele>
        <time>2026-08-05T11:15:48.000Z</time>
        <extensions>
          <ns3:TrackPointExtension>
            <ns3:hr>78</ns3:hr>
            <ns3:cad>50</ns3:cad>
          </ns3:TrackPointExtension>
        </extensions>
      </trkpt>
      <trkpt lat="43.47456227056682109832763671875" lon="1.425159908831119537353515625">
        <ele>211.1999969482421875</ele>
        <time>2026-08-05T11:15:49.000Z</time>
        <extensions>
          <ns3:TrackPointExtension>
            <ns3:hr>78</ns3:hr>
            <ns3:cad>50</ns3:cad>
          </ns3:TrackPointExtension>
        </extensions>
      </trkpt>
      <trkpt lat="43.47456528805196285247802734375" lon="1.42514758743345737457275390625">
        <ele>211.1999969482421875</ele>
        <time>2026-08-05T11:15:50.000Z</time>
        <extensions>
          <ns3:TrackPointExtension>
            <ns3:hr>78</ns3:hr>
            <ns3:cad>50</ns3:cad>
          </ns3:TrackPointExtension>
        </extensions>
      </trkpt>
      <trkpt lat="43.47456679679453372955322265625" lon="1.4251329191029071807861328125">
        <ele>211.1999969482421875</ele>
        <time>2026-08-05T11:15:51.000Z</time>
        <extensions>
          <ns3:TrackPointExtension>
            <ns3:hr>78</ns3:hr>
            <ns3:cad>49</ns3:cad>
          </ns3:TrackPointExtension>
        </extensions>
      </trkpt>
      <trkpt lat="43.47456947900354862213134765625" lon="1.4251205138862133026123046875">
        <ele>211</ele>
        <time>2026-08-05T11:15:52.000Z</time>
        <extensions>
          <ns3:TrackPointExtension>
            <ns3:hr>78</ns3:hr>
            <ns3:cad>49</ns3:cad>
          </ns3:TrackPointExtension>
        </extensions>
      </trkpt>
      <trkpt lat="43.47457333467900753021240234375" lon="1.42510618083178997039794921875">
        <ele>211</ele>
        <time>2026-08-05T11:15:53.000Z</time>
        <extensions>
          <ns3:TrackPointExtension>
            <ns3:hr>78</ns3:hr>
            <ns3:cad>49</ns3:cad>
          </ns3:TrackPointExtension>
        </extensions>
      </trkpt>
      <trkpt lat="43.4745776094496250152587890625" lon="1.4250893332064151763916015625">
        <ele>210.8000030517578125</ele>
        <time>2026-08-05T11:15:54.000Z</time>
        <extensions>
          <ns3:TrackPointExtension>
            <ns3:hr>79</ns3:hr>
            <ns3:cad>49</ns3:cad>
          </ns3:TrackPointExtension>
        </extensions>
      </trkpt>
      <trkpt lat="43.47457936964929103851318359375" lon="1.425070054829120635986328125">
        <ele>210.600006103515625</ele>
        <time>2026-08-05T11:15:55.000Z</time>
        <extensions>
          <ns3:TrackPointExtension>
            <ns3:hr>80</ns3:hr>
            <ns3:cad>50</ns3:cad>
          </ns3:TrackPointExtension>
        </extensions>
      </trkpt>
      <trkpt lat="43.47457819618284702301025390625" lon="1.425053291022777557373046875">
        <ele>210.399993896484375</ele>
        <time>2026-08-05T11:15:56.000Z</time>
        <extensions>
          <ns3:TrackPointExtension>
            <ns3:hr>81</ns3:hr>
            <ns3:cad>50</ns3:cad>
          </ns3:TrackPointExtension>
        </extensions>
      </trkpt>
      <trkpt lat="43.47458087839186191558837890625" lon="1.42504063434898853302001953125">
        <ele>210.399993896484375</ele>
        <time>2026-08-05T11:15:57.000Z</time>
        <extensions>
          <ns3:TrackPointExtension>
            <ns3:hr>82</ns3:hr>
            <ns3:cad>50</ns3:cad>
          </ns3:TrackPointExtension>
        </extensions>
      </trkpt>
      <trkpt lat="43.4745836444199085235595703125" lon="1.425029151141643524169921875">
        <ele>210.1999969482421875</ele>
        <time>2026-08-05T11:15:58.000Z</time>
        <extensions>
          <ns3:TrackPointExtension>
            <ns3:hr>82</ns3:hr>
            <ns3:cad>50</ns3:cad>
          </ns3:TrackPointExtension>
        </extensions>
      </trkpt>
      <trkpt lat="43.47458456642925739288330078125" lon="1.4250152371823787689208984375">
        <ele>210.1999969482421875</ele>
        <time>2026-08-05T11:15:59.000Z</time>
        <extensions>
          <ns3:TrackPointExtension>
            <ns3:hr>83</ns3:hr>
            <ns3:cad>51</ns3:cad>
          </ns3:TrackPointExtension>
        </extensions>
      </trkpt>
      <trkpt lat="43.47458456642925739288330078125" lon="1.4250004850327968597412109375">
        <ele>210.1999969482421875</ele>
        <time>2026-08-05T11:16:00.000Z</time>
        <extensions>
          <ns3:TrackPointExtension>
            <ns3:hr>83</ns3:hr>
            <ns3:cad>51</ns3:cad>
          </ns3:TrackPointExtension>
        </extensions>
      </trkpt>
      <trkpt lat="43.47458548843860626220703125" lon="1.42498263157904148101806640625">
        <ele>210.1999969482421875</ele>
        <time>2026-08-05T11:16:01.000Z</time>
        <extensions>
          <ns3:TrackPointExtension>
            <ns3:hr>83</ns3:hr>
            <ns3:cad>51</ns3:cad>
          </ns3:TrackPointExtension>
        </extensions>
      </trkpt>
      <trkpt lat="43.4745873324573040008544921875" lon="1.42496335320174694061279296875">
        <ele>210.1999969482421875</ele>
        <time>2026-08-05T11:16:02.000Z</time>
        <extensions>
          <ns3:TrackPointExtension>
            <ns3:hr>83</ns3:hr>
            <ns3:cad>50</ns3:cad>
          </ns3:TrackPointExtension>
        </extensions>
      </trkpt>
      <trkpt lat="43.47459018230438232421875" lon="1.4249471761286258697509765625">
        <ele>210</ele>
        <time>2026-08-05T11:16:03.000Z</time>
        <extensions>
          <ns3:TrackPointExtension>
            <ns3:hr>83</ns3:hr>
            <ns3:cad>50</ns3:cad>
          </ns3:TrackPointExtension>
        </extensions>
      </trkpt>
      <trkpt lat="43.47459428943693637847900390625" lon="1.42493351362645626068115234375">
        <ele>209.8000030517578125</ele>
        <time>2026-08-05T11:16:04.000Z</time>
        <extensions>
          <ns3:TrackPointExtension>
            <ns3:hr>83</ns3:hr>
            <ns3:cad>50</ns3:cad>
          </ns3:TrackPointExtension>
        </extensions>
      </trkpt>
      <trkpt lat="43.47459780983626842498779296875" lon="1.42491809092462062835693359375">
        <ele>209.8000030517578125</ele>
        <time>2026-08-05T11:16:05.000Z</time>
        <extensions>
          <ns3:TrackPointExtension>
            <ns3:hr>83</ns3:hr>
            <ns3:cad>51</ns3:cad>
          </ns3:TrackPointExtension>
        </extensions>
      </trkpt>
      <trkpt lat="43.47460250370204448699951171875" lon="1.42490484751760959625244140625">
        <ele>209.600006103515625</ele>
        <time>2026-08-05T11:16:06.000Z</time>
        <extensions>
          <ns3:TrackPointExtension>
            <ns3:hr>82</ns3:hr>
            <ns3:cad>51</ns3:cad>
          </ns3:TrackPointExtension>
        </extensions>
      </trkpt>
      <trkpt lat="43.47460702992975711822509765625" lon="1.4248873293399810791015625">
        <ele>209.600006103515625</ele>
        <time>2026-08-05T11:16:07.000Z</time>
        <extensions>
          <ns3:TrackPointExtension>
            <ns3:hr>83</ns3:hr>
            <ns3:cad>52</ns3:cad>
          </ns3:TrackPointExtension>
        </extensions>
      </trkpt>
      <trkpt lat="43.4746097959578037261962890625" lon="1.42487081699073314666748046875">
        <ele>209.600006103515625</ele>
        <time>2026-08-05T11:16:08.000Z</time>
        <extensions>
          <ns3:TrackPointExtension>
            <ns3:hr>83</ns3:hr>
            <ns3:cad>52</ns3:cad>
          </ns3:TrackPointExtension>
        </extensions>
      </trkpt>
      <trkpt lat="43.47461122088134288787841796875" lon="1.4248559810221195220947265625">
        <ele>209.399993896484375</ele>
        <time>2026-08-05T11:16:09.000Z</time>
        <extensions>
          <ns3:TrackPointExtension>
            <ns3:hr>83</ns3:hr>
            <ns3:cad>52</ns3:cad>
          </ns3:TrackPointExtension>
        </extensions>
      </trkpt>
      <trkpt lat="43.474613986909389495849609375" lon="1.42484030686318874359130859375">
        <ele>209.1999969482421875</ele>
        <time>2026-08-05T11:16:10.000Z</time>
        <extensions>
          <ns3:TrackPointExtension>
            <ns3:hr>84</ns3:hr>
            <ns3:cad>50</ns3:cad>
          </ns3:TrackPointExtension>
        </extensions>
      </trkpt>
      <trkpt lat="43.47461842931807041168212890625" lon="1.42482521943747997283935546875">
        <ele>209</ele>
        <time>2026-08-05T11:16:11.000Z</time>
        <extensions>
          <ns3:TrackPointExtension>
            <ns3:hr>84</ns3:hr>
            <ns3:cad>50</ns3:cad>
          </ns3:TrackPointExtension>
        </extensions>
      </trkpt>
      <trkpt lat="43.47462144680321216583251953125" lon="1.4248122274875640869140625">
        <ele>208.8000030517578125</ele>
        <time>2026-08-05T11:16:12.000Z</time>
        <extensions>
          <ns3:TrackPointExtension>
            <ns3:hr>84</ns3:hr>
            <ns3:cad>50</ns3:cad>
          </ns3:TrackPointExtension>
        </extensions>
      </trkpt>
      <trkpt lat="43.47462236881256103515625" lon="1.4247963018715381622314453125">
        <ele>208.600006103515625</ele>
        <time>2026-08-05T11:16:13.000Z</time>
        <extensions>
          <ns3:TrackPointExtension>
            <ns3:hr>84</ns3:hr>
            <ns3:cad>50</ns3:cad>
          </ns3:TrackPointExtension>
        </extensions>
      </trkpt>
      <trkpt lat="43.47462194971740245819091796875" lon="1.42477811314165592193603515625">
        <ele>208.600006103515625</ele>
        <time>2026-08-05T11:16:14.000Z</time>
        <extensions>
          <ns3:TrackPointExtension>
            <ns3:hr>84</ns3:hr>
            <ns3:cad>50</ns3:cad>
          </ns3:TrackPointExtension>
        </extensions>
      </trkpt>
      <trkpt lat="43.47462429665029048919677734375" lon="1.42476327717304229736328125">
        <ele>208.399993896484375</ele>
        <time>2026-08-05T11:16:15.000Z</time>
        <extensions>
          <ns3:TrackPointExtension>
            <ns3:hr>84</ns3:hr>
            <ns3:cad>50</ns3:cad>
          </ns3:TrackPointExtension>
        </extensions>
      </trkpt>
      <trkpt lat="43.474626056849956512451171875" lon="1.4247505366802215576171875">
        <ele>208.399993896484375</ele>
        <time>2026-08-05T11:16:16.000Z</time>
        <extensions>
          <ns3:TrackPointExtension>
            <ns3:hr>84</ns3:hr>
            <ns3:cad>50</ns3:cad>
          </ns3:TrackPointExtension>
        </extensions>
      </trkpt>
      <trkpt lat="43.47462974488735198974609375" lon="1.4247382991015911102294921875">
        <ele>208.399993896484375</ele>
        <time>2026-08-05T11:16:17.000Z</time>
        <extensions>
          <ns3:TrackPointExtension>
            <ns3:hr>84</ns3:hr>
            <ns3:cad>50</ns3:cad>
          </ns3:TrackPointExtension>
        </extensions>
      </trkpt>
      <trkpt lat="43.4746315889060497283935546875" lon="1.4247265644371509552001953125">
        <ele>208.1999969482421875</ele>
        <time>2026-08-05T11:16:18.000Z</time>
        <extensions>
          <ns3:TrackPointExtension>
            <ns3:hr>85</ns3:hr>
            <ns3:cad>51</ns3:cad>
          </ns3:TrackPointExtension>
        </extensions>
      </trkpt>
      <trkpt lat="43.4746339358389377593994140625" lon="1.4247114770114421844482421875">
        <ele>208</ele>
        <time>2026-08-05T11:16:19.000Z</time>
        <extensions>
          <ns3:TrackPointExtension>
            <ns3:hr>85</ns3:hr>
            <ns3:cad>51</ns3:cad>
          </ns3:TrackPointExtension>
        </extensions>
      </trkpt>
      <trkpt lat="43.47463536076247692108154296875" lon="1.4246957190334796905517578125">
        <ele>208</ele>
        <time>2026-08-05T11:16:20.000Z</time>
        <extensions>
          <ns3:TrackPointExtension>
            <ns3:hr>85</ns3:hr>
            <ns3:cad>51</ns3:cad>
          </ns3:TrackPointExtension>
        </extensions>
      </trkpt>
      <trkpt lat="43.4746398031711578369140625" lon="1.42467786557972431182861328125">
        <ele>208</ele>
        <time>2026-08-05T11:16:21.000Z</time>
        <extensions>
          <ns3:TrackPointExtension>
            <ns3:hr>85</ns3:hr>
            <ns3:cad>50</ns3:cad>
          </ns3:TrackPointExtension>
        </extensions>
      </trkpt>
      <trkpt lat="43.47464357502758502960205078125" lon="1.4246618561446666717529296875">
        <ele>207.8000030517578125</ele>
        <time>2026-08-05T11:16:22.000Z</time>
        <extensions>
          <ns3:TrackPointExtension>
            <ns3:hr>85</ns3:hr>
            <ns3:cad>49</ns3:cad>
          </ns3:TrackPointExtension>
        </extensions>
      </trkpt>
      <trkpt lat="43.4746480174362659454345703125" lon="1.4246481098234653472900390625">
        <ele>207.8000030517578125</ele>
        <time>2026-08-05T11:16:23.000Z</time>
        <extensions>
          <ns3:TrackPointExtension>
            <ns3:hr>84</ns3:hr>
            <ns3:cad>49</ns3:cad>
          </ns3:TrackPointExtension>
        </extensions>
      </trkpt>
      <trkpt lat="43.4746506996452808380126953125" lon="1.42463612370193004608154296875">
        <ele>207.8000030517578125</ele>
        <time>2026-08-05T11:16:24.000Z</time>
        <extensions>
          <ns3:TrackPointExtension>
            <ns3:hr>85</ns3:hr>
            <ns3:cad>49</ns3:cad>
          </ns3:TrackPointExtension>
        </extensions>
      </trkpt>
      <trkpt lat="43.47465313039720058441162109375" lon="1.4246229641139507293701171875">
        <ele>207.600006103515625</ele>
        <time>2026-08-05T11:16:25.000Z</time>
        <extensions>
          <ns3:TrackPointExtension>
            <ns3:hr>85</ns3:hr>
            <ns3:cad>50</ns3:cad>
          </ns3:TrackPointExtension>
        </extensions>
      </trkpt>
      <trkpt lat="43.4746557287871837615966796875" lon="1.42460997216403484344482421875">
        <ele>207.600006103515625</ele>
        <time>2026-08-05T11:16:26.000Z</time>
        <extensions>
          <ns3:TrackPointExtension>
            <ns3:hr>85</ns3:hr>
            <ns3:cad>50</ns3:cad>
          </ns3:TrackPointExtension>
        </extensions>
      </trkpt>
      <trkpt lat="43.47465924918651580810546875" lon="1.42459270544350147247314453125">
        <ele>207.399993896484375</ele>
        <time>2026-08-05T11:16:27.000Z</time>
        <extensions>
          <ns3:TrackPointExtension>
            <ns3:hr>85</ns3:hr>
            <ns3:cad>50</ns3:cad>
          </ns3:TrackPointExtension>
        </extensions>
      </trkpt>
      <trkpt lat="43.47466327250003814697265625" lon="1.424577198922634124755859375">
        <ele>207.399993896484375</ele>
        <time>2026-08-05T11:16:28.000Z</time>
        <extensions>
          <ns3:TrackPointExtension>
            <ns3:hr>85</ns3:hr>
            <ns3:cad>50</ns3:cad>
          </ns3:TrackPointExtension>
        </extensions>
      </trkpt>
      <trkpt lat="43.474667966365814208984375" lon="1.42456403933465480804443359375">
        <ele>207.1999969482421875</ele>
        <time>2026-08-05T11:16:29.000Z</time>
        <extensions>
          <ns3:TrackPointExtension>
            <ns3:hr>85</ns3:hr>
            <ns3:cad>50</ns3:cad>
          </ns3:TrackPointExtension>
        </extensions>
      </trkpt>
      <trkpt lat="43.47467207349836826324462890625" lon="1.42454811371862888336181640625">
        <ele>207</ele>
        <time>2026-08-05T11:16:30.000Z</time>
        <extensions>
          <ns3:TrackPointExtension>
            <ns3:hr>85</ns3:hr>
            <ns3:cad>48</ns3:cad>
          </ns3:TrackPointExtension>
        </extensions>
      </trkpt>
      <trkpt lat="43.474678359925746917724609375" lon="1.4245327748358249664306640625">
        <ele>206.8000030517578125</ele>
        <time>2026-08-05T11:16:31.000Z</time>
        <extensions>
          <ns3:TrackPointExtension>
            <ns3:hr>85</ns3:hr>
            <ns3:cad>48</ns3:cad>
          </ns3:TrackPointExtension>
        </extensions>
      </trkpt>
      <trkpt lat="43.474682383239269256591796875" lon="1.424518525600433349609375">
        <ele>206.8000030517578125</ele>
        <time>2026-08-05T11:16:32.000Z</time>
        <extensions>
          <ns3:TrackPointExtension>
            <ns3:hr>85</ns3:hr>
            <ns3:cad>50</ns3:cad>
          </ns3:TrackPointExtension>
        </extensions>
      </trkpt>
      <trkpt lat="43.4746854007244110107421875" lon="1.42450151033699512481689453125">
        <ele>206.8000030517578125</ele>
        <time>2026-08-05T11:16:33.000Z</time>
        <extensions>
          <ns3:TrackPointExtension>
            <ns3:hr>84</ns3:hr>
            <ns3:cad>50</ns3:cad>
          </ns3:TrackPointExtension>
        </extensions>
      </trkpt>
      <trkpt lat="43.474689759314060211181640625" lon="1.42448960803449153900146484375">
        <ele>207</ele>
        <time>2026-08-05T11:16:34.000Z</time>
        <extensions>
          <ns3:TrackPointExtension>
            <ns3:hr>84</ns3:hr>
            <ns3:cad>50</ns3:cad>
          </ns3:TrackPointExtension>
        </extensions>
      </trkpt>
      <trkpt lat="43.47469143569469451904296875" lon="1.42447820864617824554443359375">
        <ele>207.1999969482421875</ele>
        <time>2026-08-05T11:16:35.000Z</time>
        <extensions>
          <ns3:TrackPointExtension>
            <ns3:hr>84</ns3:hr>
            <ns3:cad>50</ns3:cad>
          </ns3:TrackPointExtension>
        </extensions>
      </trkpt>
      <trkpt lat="43.47469537518918514251708984375" lon="1.4244653843343257904052734375">
        <ele>207.1999969482421875</ele>
        <time>2026-08-05T11:16:36.000Z</time>
        <extensions>
          <ns3:TrackPointExtension>
            <ns3:hr>85</ns3:hr>
            <ns3:cad>50</ns3:cad>
          </ns3:TrackPointExtension>
        </extensions>
      </trkpt>
      <trkpt lat="43.47469956614077091217041015625" lon="1.42445222474634647369384765625">
        <ele>207</ele>
        <time>2026-08-05T11:16:37.000Z</time>
        <extensions>
          <ns3:TrackPointExtension>
            <ns3:hr>84</ns3:hr>
            <ns3:cad>50</ns3:cad>
          </ns3:TrackPointExtension>
        </extensions>
      </trkpt>
      <trkpt lat="43.4747040085494518280029296875" lon="1.424436382949352264404296875">
        <ele>206.8000030517578125</ele>
        <time>2026-08-05T11:16:38.000Z</time>
        <extensions>
          <ns3:TrackPointExtension>
            <ns3:hr>84</ns3:hr>
            <ns3:cad>50</ns3:cad>
          </ns3:TrackPointExtension>
        </extensions>
      </trkpt>
      <trkpt lat="43.474705852568149566650390625" lon="1.42442003823816776275634765625">
        <ele>206.399993896484375</ele>
        <time>2026-08-05T11:16:39.000Z</time>
        <extensions>
          <ns3:TrackPointExtension>
            <ns3:hr>84</ns3:hr>
            <ns3:cad>50</ns3:cad>
          </ns3:TrackPointExtension>
        </extensions>
      </trkpt>
      <trkpt lat="43.47471155226230621337890625" lon="1.4244057051837444305419921875">
        <ele>206.1999969482421875</ele>
        <time>2026-08-05T11:16:40.000Z</time>
        <extensions>
          <ns3:TrackPointExtension>
            <ns3:hr>84</ns3:hr>
            <ns3:cad>49</ns3:cad>
          </ns3:TrackPointExtension>
        </extensions>
      </trkpt>
      <trkpt lat="43.47471599467098712921142578125" lon="1.42439137212932109832763671875">
        <ele>206</ele>
        <time>2026-08-05T11:16:41.000Z</time>
        <extensions>
          <ns3:TrackPointExtension>
            <ns3:hr>84</ns3:hr>
            <ns3:cad>49</ns3:cad>
          </ns3:TrackPointExtension>
        </extensions>
      </trkpt>
      <trkpt lat="43.4747207723557949066162109375" lon="1.4243815653026103973388671875">
        <ele>206</ele>
        <time>2026-08-05T11:16:42.000Z</time>
        <extensions>
          <ns3:TrackPointExtension>
            <ns3:hr>84</ns3:hr>
            <ns3:cad>49</ns3:cad>
          </ns3:TrackPointExtension>
        </extensions>
      </trkpt>
      <trkpt lat="43.4747258014976978302001953125" lon="1.42436899244785308837890625">
        <ele>205.8000030517578125</ele>
        <time>2026-08-05T11:16:43.000Z</time>
        <extensions>
          <ns3:TrackPointExtension>
            <ns3:hr>84</ns3:hr>
            <ns3:cad>50</ns3:cad>
          </ns3:TrackPointExtension>
        </extensions>
      </trkpt>
      <trkpt lat="43.474729321897029876708984375" lon="1.42435348592698574066162109375">
        <ele>205.600006103515625</ele>
        <time>2026-08-05T11:16:44.000Z</time>
        <extensions>
          <ns3:TrackPointExtension>
            <ns3:hr>84</ns3:hr>
            <ns3:cad>50</ns3:cad>
          </ns3:TrackPointExtension>
        </extensions>
      </trkpt>
      <trkpt lat="43.47473158501088619232177734375" lon="1.4243403263390064239501953125">
        <ele>205.399993896484375</ele>
        <time>2026-08-05T11:16:45.000Z</time>
        <extensions>
          <ns3:TrackPointExtension>
            <ns3:hr>84</ns3:hr>
            <ns3:cad>50</ns3:cad>
          </ns3:TrackPointExtension>
        </extensions>
      </trkpt>
      <trkpt lat="43.4747350215911865234375" lon="1.42432599328458309173583984375">
        <ele>205.1999969482421875</ele>
        <time>2026-08-05T11:16:46.000Z</time>
        <extensions>
          <ns3:TrackPointExtension>
            <ns3:hr>84</ns3:hr>
            <ns3:cad>50</ns3:cad>
          </ns3:TrackPointExtension>
        </extensions>
      </trkpt>
      <trkpt lat="43.474738709628582000732421875" lon="1.4243131689727306365966796875">
        <ele>205</ele>
        <time>2026-08-05T11:16:47.000Z</time>
        <extensions>
          <ns3:TrackPointExtension>
            <ns3:hr>84</ns3:hr>
            <ns3:cad>50</ns3:cad>
          </ns3:TrackPointExtension>
        </extensions>
      </trkpt>
      <trkpt lat="43.47474181093275547027587890625" lon="1.42429933883249759674072265625">
        <ele>205</ele>
        <time>2026-08-05T11:16:48.000Z</time>
        <extensions>
          <ns3:TrackPointExtension>
            <ns3:hr>83</ns3:hr>
            <ns3:cad>50</ns3:cad>
          </ns3:TrackPointExtension>
        </extensions>
      </trkpt>
      <trkpt lat="43.47474373877048492431640625" lon="1.4242853410542011260986328125">
        <ele>204.8000030517578125</ele>
        <time>2026-08-05T11:16:49.000Z</time>
        <extensions>
          <ns3:TrackPointExtension>
            <ns3:hr>84</ns3:hr>
            <ns3:cad>51</ns3:cad>
          </ns3:TrackPointExtension>
        </extensions>
      </trkpt>
      <trkpt lat="43.474746756255626678466796875" lon="1.42427218146622180938720703125">
        <ele>204.600006103515625</ele>
        <time>2026-08-05T11:16:50.000Z</time>
        <extensions>
          <ns3:TrackPointExtension>
            <ns3:hr>84</ns3:hr>
            <ns3:cad>51</ns3:cad>
          </ns3:TrackPointExtension>
        </extensions>
      </trkpt>
      <trkpt lat="43.474749438464641571044921875" lon="1.42425977624952793121337890625">
        <ele>204.399993896484375</ele>
        <time>2026-08-05T11:16:51.000Z</time>
        <extensions>
          <ns3:TrackPointExtension>
            <ns3:hr>84</ns3:hr>
            <ns3:cad>51</ns3:cad>
          </ns3:TrackPointExtension>
        </extensions>
      </trkpt>
      <trkpt lat="43.4747536294162273406982421875" lon="1.42424385063350200653076171875">
        <ele>204.1999969482421875</ele>
        <time>2026-08-05T11:16:52.000Z</time>
        <extensions>
          <ns3:TrackPointExtension>
            <ns3:hr>84</ns3:hr>
            <ns3:cad>51</ns3:cad>
          </ns3:TrackPointExtension>
        </extensions>
      </trkpt>
      <trkpt lat="43.4747576527297496795654296875" lon="1.4242286793887615203857421875">
        <ele>204.1999969482421875</ele>
        <time>2026-08-05T11:16:53.000Z</time>
        <extensions>
          <ns3:TrackPointExtension>
            <ns3:hr>84</ns3:hr>
            <ns3:cad>51</ns3:cad>
          </ns3:TrackPointExtension>
        </extensions>
      </trkpt>
      <trkpt lat="43.474759496748447418212890625" lon="1.42421610653400421142578125">
        <ele>204</ele>
        <time>2026-08-05T11:16:54.000Z</time>
        <extensions>
          <ns3:TrackPointExtension>
            <ns3:hr>85</ns3:hr>
            <ns3:cad>52</ns3:cad>
          </ns3:TrackPointExtension>
        </extensions>
      </trkpt>
      <trkpt lat="43.474762178957462310791015625" lon="1.42420160584151744842529296875">
        <ele>203.8000030517578125</ele>
        <time>2026-08-05T11:16:55.000Z</time>
        <extensions>
          <ns3:TrackPointExtension>
            <ns3:hr>86</ns3:hr>
            <ns3:cad>52</ns3:cad>
          </ns3:TrackPointExtension>
        </extensions>
      </trkpt>
      <trkpt lat="43.47476645372807979583740234375" lon="1.42418794333934783935546875">
        <ele>203.600006103515625</ele>
        <time>2026-08-05T11:16:56.000Z</time>
        <extensions>
          <ns3:TrackPointExtension>
            <ns3:hr>87</ns3:hr>
            <ns3:cad>52</ns3:cad>
          </ns3:TrackPointExtension>
        </extensions>
      </trkpt>
      <trkpt lat="43.4747697226703166961669921875" lon="1.42417361028492450714111328125">
        <ele>203.399993896484375</ele>
        <time>2026-08-05T11:16:57.000Z</time>
        <extensions>
          <ns3:TrackPointExtension>
            <ns3:hr>88</ns3:hr>
            <ns3:cad>53</ns3:cad>
          </ns3:TrackPointExtension>
        </extensions>
      </trkpt>
      <trkpt lat="43.47477248869836330413818359375" lon="1.42416221089661121368408203125">
        <ele>203.1999969482421875</ele>
        <time>2026-08-05T11:16:58.000Z</time>
        <extensions>
          <ns3:TrackPointExtension>
            <ns3:hr>88</ns3:hr>
            <ns3:cad>53</ns3:cad>
          </ns3:TrackPointExtension>
        </extensions>
      </trkpt>
      <trkpt lat="43.47477500326931476593017578125" lon="1.42414729110896587371826171875">
        <ele>203</ele>
        <time>2026-08-05T11:16:59.000Z</time>
        <extensions>
          <ns3:TrackPointExtension>
            <ns3:hr>89</ns3:hr>
            <ns3:cad>53</ns3:cad>
          </ns3:TrackPointExtension>
        </extensions>
      </trkpt>
      <trkpt lat="43.47477952949702739715576171875" lon="1.42413237132132053375244140625">
        <ele>202.8000030517578125</ele>
        <time>2026-08-05T11:17:00.000Z</time>
        <extensions>
          <ns3:TrackPointExtension>
            <ns3:hr>89</ns3:hr>
            <ns3:cad>53</ns3:cad>
          </ns3:TrackPointExtension>
        </extensions>
      </trkpt>
      <trkpt lat="43.47478321753442287445068359375" lon="1.42411912791430950164794921875">
        <ele>202.600006103515625</ele>
        <time>2026-08-05T11:17:01.000Z</time>
        <extensions>
          <ns3:TrackPointExtension>
            <ns3:hr>89</ns3:hr>
            <ns3:cad>53</ns3:cad>
          </ns3:TrackPointExtension>
        </extensions>
      </trkpt>
      <trkpt lat="43.4747851453721523284912109375" lon="1.4241066388785839080810546875">
        <ele>202.399993896484375</ele>
        <time>2026-08-05T11:17:02.000Z</time>
        <extensions>
          <ns3:TrackPointExtension>
            <ns3:hr>88</ns3:hr>
            <ns3:cad>53</ns3:cad>
          </ns3:TrackPointExtension>
        </extensions>
      </trkpt>
      <trkpt lat="43.47478891722857952117919921875" lon="1.42409599386155605316162109375">
        <ele>202.1999969482421875</ele>
        <time>2026-08-05T11:17:03.000Z</time>
        <extensions>
          <ns3:TrackPointExtension>
            <ns3:hr>88</ns3:hr>
            <ns3:cad>52</ns3:cad>
          </ns3:TrackPointExtension>
        </extensions>
      </trkpt>
      <trkpt lat="43.47479243762791156768798828125" lon="1.42408509738743305206298828125">
        <ele>202</ele>
        <time>2026-08-05T11:17:04.000Z</time>
        <extensions>
          <ns3:TrackPointExtension>
            <ns3:hr>87</ns3:hr>
            <ns3:cad>52</ns3:cad>
          </ns3:TrackPointExtension>
        </extensions>
      </trkpt>
      <trkpt lat="43.4747965447604656219482421875" lon="1.42407185398042201995849609375">
        <ele>201.8000030517578125</ele>
        <time>2026-08-05T11:17:05.000Z</time>
        <extensions>
          <ns3:TrackPointExtension>
            <ns3:hr>87</ns3:hr>
            <ns3:cad>51</ns3:cad>
          </ns3:TrackPointExtension>
        </extensions>
      </trkpt>
      <trkpt lat="43.47480199299752712249755859375" lon="1.4240558445453643798828125">
        <ele>201.8000030517578125</ele>
        <time>2026-08-05T11:17:06.000Z</time>
        <extensions>
          <ns3:TrackPointExtension>
            <ns3:hr>87</ns3:hr>
            <ns3:cad>51</ns3:cad>
          </ns3:TrackPointExtension>
        </extensions>
      </trkpt>
      <trkpt lat="43.47480635158717632293701171875" lon="1.42404377460479736328125">
        <ele>201.600006103515625</ele>
        <time>2026-08-05T11:17:07.000Z</time>
        <extensions>
          <ns3:TrackPointExtension>
            <ns3:hr>86</ns3:hr>
            <ns3:cad>51</ns3:cad>
          </ns3:TrackPointExtension>
        </extensions>
      </trkpt>
      <trkpt lat="43.4748089499771595001220703125" lon="1.4240328781306743621826171875">
        <ele>201.399993896484375</ele>
        <time>2026-08-05T11:17:08.000Z</time>
        <extensions>
          <ns3:TrackPointExtension>
            <ns3:hr>86</ns3:hr>
            <ns3:cad>51</ns3:cad>
          </ns3:TrackPointExtension>
        </extensions>
      </trkpt>
      <trkpt lat="43.4748116321861743927001953125" lon="1.42401971854269504547119140625">
        <ele>201.1999969482421875</ele>
        <time>2026-08-05T11:17:09.000Z</time>
        <extensions>
          <ns3:TrackPointExtension>
            <ns3:hr>85</ns3:hr>
            <ns3:cad>51</ns3:cad>
          </ns3:TrackPointExtension>
        </extensions>
      </trkpt>
      <trkpt lat="43.47481481730937957763671875" lon="1.424006558954715728759765625">
        <ele>201.1999969482421875</ele>
        <time>2026-08-05T11:17:10.000Z</time>
        <extensions>
          <ns3:TrackPointExtension>
            <ns3:hr>84</ns3:hr>
            <ns3:cad>51</ns3:cad>
          </ns3:TrackPointExtension>
        </extensions>
      </trkpt>
      <trkpt lat="43.4748176671564579010009765625" lon="1.423996500670909881591796875">
        <ele>201</ele>
        <time>2026-08-05T11:17:11.000Z</time>
        <extensions>
          <ns3:TrackPointExtension>
            <ns3:hr>84</ns3:hr>
            <ns3:cad>51</ns3:cad>
          </ns3:TrackPointExtension>
        </extensions>
      </trkpt>
      <trkpt lat="43.47482110373675823211669921875" lon="1.42398635856807231903076171875">
        <ele>200.8000030517578125</ele>
        <time>2026-08-05T11:17:12.000Z</time>
        <extensions>
          <ns3:TrackPointExtension>
            <ns3:hr>84</ns3:hr>
            <ns3:cad>51</ns3:cad>
          </ns3:TrackPointExtension>
        </extensions>
      </trkpt>
      <trkpt lat="43.47482177428901195526123046875" lon="1.42396506853401660919189453125">
        <ele>200.600006103515625</ele>
        <time>2026-08-05T11:17:13.000Z</time>
        <extensions>
          <ns3:TrackPointExtension>
            <ns3:hr>84</ns3:hr>
            <ns3:cad>50</ns3:cad>
          </ns3:TrackPointExtension>
        </extensions>
      </trkpt>
      <trkpt lat="43.47482495941221714019775390625" lon="1.4239514060318470001220703125">
        <ele>200.399993896484375</ele>
        <time>2026-08-05T11:17:14.000Z</time>
        <extensions>
          <ns3:TrackPointExtension>
            <ns3:hr>84</ns3:hr>
            <ns3:cad>50</ns3:cad>
          </ns3:TrackPointExtension>
        </extensions>
      </trkpt>
      <trkpt lat="43.47483065910637378692626953125" lon="1.42393648624420166015625">
        <ele>200.1999969482421875</ele>
        <time>2026-08-05T11:17:15.000Z</time>
        <extensions>
          <ns3:TrackPointExtension>
            <ns3:hr>85</ns3:hr>
            <ns3:cad>50</ns3:cad>
          </ns3:TrackPointExtension>
        </extensions>
      </trkpt>
      <trkpt lat="43.4748347662389278411865234375" lon="1.42392064444720745086669921875">
        <ele>200</ele>
        <time>2026-08-05T11:17:16.000Z</time>
        <extensions>
          <ns3:TrackPointExtension>
            <ns3:hr>84</ns3:hr>
            <ns3:cad>51</ns3:cad>
          </ns3:TrackPointExtension>
        </extensions>
      </trkpt>
      <trkpt lat="43.4748384542763233184814453125" lon="1.42390874214470386505126953125">
        <ele>199.8000030517578125</ele>
        <time>2026-08-05T11:17:17.000Z</time>
        <extensions>
          <ns3:TrackPointExtension>
            <ns3:hr>84</ns3:hr>
            <ns3:cad>51</ns3:cad>
          </ns3:TrackPointExtension>
        </extensions>
      </trkpt>
      <trkpt lat="43.47484272904694080352783203125" lon="1.42389650456607341766357421875">
        <ele>199.600006103515625</ele>
        <time>2026-08-05T11:17:18.000Z</time>
        <extensions>
          <ns3:TrackPointExtension>
            <ns3:hr>84</ns3:hr>
            <ns3:cad>51</ns3:cad>
          </ns3:TrackPointExtension>
        </extensions>
      </trkpt>
      <trkpt lat="43.4748461656272411346435546875" lon="1.42388259060680866241455078125">
        <ele>199.399993896484375</ele>
        <time>2026-08-05T11:17:19.000Z</time>
        <extensions>
          <ns3:TrackPointExtension>
            <ns3:hr>83</ns3:hr>
            <ns3:cad>51</ns3:cad>
          </ns3:TrackPointExtension>
        </extensions>
      </trkpt>
      <trkpt lat="43.47485178150236606597900390625" lon="1.423869766294956207275390625">
        <ele>199.1999969482421875</ele>
        <time>2026-08-05T11:17:20.000Z</time>
        <extensions>
          <ns3:TrackPointExtension>
            <ns3:hr>83</ns3:hr>
            <ns3:cad>51</ns3:cad>
          </ns3:TrackPointExtension>
        </extensions>
      </trkpt>
      <trkpt lat="43.474856056272983551025390625" lon="1.4238558523356914520263671875">
        <ele>199</ele>
        <time>2026-08-05T11:17:21.000Z</time>
        <extensions>
          <ns3:TrackPointExtension>
            <ns3:hr>83</ns3:hr>
            <ns3:cad>51</ns3:cad>
          </ns3:TrackPointExtension>
        </extensions>
      </trkpt>
      <trkpt lat="43.47485798411071300506591796875" lon="1.42384453676640987396240234375">
        <ele>198.8000030517578125</ele>
        <time>2026-08-05T11:17:22.000Z</time>
        <extensions>
          <ns3:TrackPointExtension>
            <ns3:hr>83</ns3:hr>
            <ns3:cad>51</ns3:cad>
          </ns3:TrackPointExtension>
        </extensions>
      </trkpt>
      <trkpt lat="43.4748602472245693206787109375" lon="1.42383129335939884185791015625">
        <ele>198.8000030517578125</ele>
        <time>2026-08-05T11:17:23.000Z</time>
        <extensions>
          <ns3:TrackPointExtension>
            <ns3:hr>83</ns3:hr>
            <ns3:cad>51</ns3:cad>
          </ns3:TrackPointExtension>
        </extensions>
      </trkpt>
      <trkpt lat="43.47486217506229877471923828125" lon="1.42381754703819751739501953125">
        <ele>198.600006103515625</ele>
        <time>2026-08-05T11:17:24.000Z</time>
        <extensions>
          <ns3:TrackPointExtension>
            <ns3:hr>83</ns3:hr>
            <ns3:cad>51</ns3:cad>
          </ns3:TrackPointExtension>
        </extensions>
      </trkpt>
      <trkpt lat="43.47486577928066253662109375" lon="1.4238052256405353546142578125">
        <ele>198.399993896484375</ele>
        <time>2026-08-05T11:17:25.000Z</time>
        <extensions>
          <ns3:TrackPointExtension>
            <ns3:hr>82</ns3:hr>
            <ns3:cad>51</ns3:cad>
          </ns3:TrackPointExtension>
        </extensions>
      </trkpt>
      <trkpt lat="43.4748704731464385986328125" lon="1.4237929880619049072265625">
        <ele>198.399993896484375</ele>
        <time>2026-08-05T11:17:26.000Z</time>
        <extensions>
          <ns3:TrackPointExtension>
            <ns3:hr>83</ns3:hr>
            <ns3:cad>51</ns3:cad>
          </ns3:TrackPointExtension>
        </extensions>
      </trkpt>
      <trkpt lat="43.47487256862223148345947265625" lon="1.4237740449607372283935546875">
        <ele>198.1999969482421875</ele>
        <time>2026-08-05T11:17:27.000Z</time>
        <extensions>
          <ns3:TrackPointExtension>
            <ns3:hr>82</ns3:hr>
            <ns3:cad>51</ns3:cad>
          </ns3:TrackPointExtension>
        </extensions>
      </trkpt>
      <trkpt lat="43.47487474791705608367919921875" lon="1.42375954426825046539306640625">
        <ele>198</ele>
        <time>2026-08-05T11:17:28.000Z</time>
        <extensions>
          <ns3:TrackPointExtension>
            <ns3:hr>82</ns3:hr>
            <ns3:cad>51</ns3:cad>
          </ns3:TrackPointExtension>
        </extensions>
      </trkpt>
      <trkpt lat="43.47487877123057842254638671875" lon="1.4237455464899539947509765625">
        <ele>197.8000030517578125</ele>
        <time>2026-08-05T11:17:29.000Z</time>
        <extensions>
          <ns3:TrackPointExtension>
            <ns3:hr>82</ns3:hr>
            <ns3:cad>51</ns3:cad>
          </ns3:TrackPointExtension>
        </extensions>
      </trkpt>
      <trkpt lat="43.47488212399184703826904296875" lon="1.4237344823777675628662109375">
        <ele>197.600006103515625</ele>
        <time>2026-08-05T11:17:30.000Z</time>
        <extensions>
          <ns3:TrackPointExtension>
            <ns3:hr>83</ns3:hr>
            <ns3:cad>51</ns3:cad>
          </ns3:TrackPointExtension>
        </extensions>
      </trkpt>
      <trkpt lat="43.47488648258149623870849609375" lon="1.42372081987559795379638671875">
        <ele>197.399993896484375</ele>
        <time>2026-08-05T11:17:31.000Z</time>
        <extensions>
          <ns3:TrackPointExtension>
            <ns3:hr>82</ns3:hr>
            <ns3:cad>52</ns3:cad>
          </ns3:TrackPointExtension>
        </extensions>
      </trkpt>
      <trkpt lat="43.47489100880920886993408203125" lon="1.42370657064020633697509765625">
        <ele>197.1999969482421875</ele>
        <time>2026-08-05T11:17:32.000Z</time>
        <extensions>
          <ns3:TrackPointExtension>
            <ns3:hr>82</ns3:hr>
            <ns3:cad>52</ns3:cad>
          </ns3:TrackPointExtension>
        </extensions>
      </trkpt>
      <trkpt lat="43.47489528357982635498046875" lon="1.42369299195706844329833984375">
        <ele>197</ele>
        <time>2026-08-05T11:17:33.000Z</time>
        <extensions>
          <ns3:TrackPointExtension>
            <ns3:hr>83</ns3:hr>
            <ns3:cad>52</ns3:cad>
          </ns3:TrackPointExtension>
        </extensions>
      </trkpt>
      <trkpt lat="43.47489888779819011688232421875" lon="1.423681676387786865234375">
        <ele>196.8000030517578125</ele>
        <time>2026-08-05T11:17:34.000Z</time>
        <extensions>
          <ns3:TrackPointExtension>
            <ns3:hr>82</ns3:hr>
            <ns3:cad>52</ns3:cad>
          </ns3:TrackPointExtension>
        </extensions>
      </trkpt>
      <trkpt lat="43.47490274347364902496337890625" lon="1.42366935499012470245361328125">
        <ele>196.600006103515625</ele>
        <time>2026-08-05T11:17:35.000Z</time>
        <extensions>
          <ns3:TrackPointExtension>
            <ns3:hr>83</ns3:hr>
            <ns3:cad>53</ns3:cad>
          </ns3:TrackPointExtension>
        </extensions>
      </trkpt>
      <trkpt lat="43.47490726970136165618896484375" lon="1.42365577630698680877685546875">
        <ele>196.399993896484375</ele>
        <time>2026-08-05T11:17:36.000Z</time>
        <extensions>
          <ns3:TrackPointExtension>
            <ns3:hr>83</ns3:hr>
            <ns3:cad>53</ns3:cad>
          </ns3:TrackPointExtension>
        </extensions>
      </trkpt>
      <trkpt lat="43.4749118797481060028076171875" lon="1.423641778528690338134765625">
        <ele>196.1999969482421875</ele>
        <time>2026-08-05T11:17:37.000Z</time>
        <extensions>
          <ns3:TrackPointExtension>
            <ns3:hr>83</ns3:hr>
            <ns3:cad>53</ns3:cad>
          </ns3:TrackPointExtension>
        </extensions>
      </trkpt>
      <trkpt lat="43.47491732798516750335693359375" lon="1.42362392507493495941162109375">
        <ele>196.1999969482421875</ele>
        <time>2026-08-05T11:17:38.000Z</time>
        <extensions>
          <ns3:TrackPointExtension>
            <ns3:hr>83</ns3:hr>
            <ns3:cad>54</ns3:cad>
          </ns3:TrackPointExtension>
        </extensions>
      </trkpt>
      <trkpt lat="43.47492168657481670379638671875" lon="1.4236127771437168121337890625">
        <ele>196</ele>
        <time>2026-08-05T11:17:39.000Z</time>
        <extensions>
          <ns3:TrackPointExtension>
            <ns3:hr>83</ns3:hr>
            <ns3:cad>54</ns3:cad>
          </ns3:TrackPointExtension>
        </extensions>
      </trkpt>
      <trkpt lat="43.47492638044059276580810546875" lon="1.42360062338411808013916015625">
        <ele>195.8000030517578125</ele>
        <time>2026-08-05T11:17:40.000Z</time>
        <extensions>
          <ns3:TrackPointExtension>
            <ns3:hr>83</ns3:hr>
            <ns3:cad>53</ns3:cad>
          </ns3:TrackPointExtension>
        </extensions>
      </trkpt>
      <trkpt lat="43.47493073903024196624755859375" lon="1.423588134348392486572265625">
        <ele>195.600006103515625</ele>
        <time>2026-08-05T11:17:41.000Z</time>
        <extensions>
          <ns3:TrackPointExtension>
            <ns3:hr>84</ns3:hr>
            <ns3:cad>53</ns3:cad>
          </ns3:TrackPointExtension>
        </extensions>
      </trkpt>
      <trkpt lat="43.47493392415344715118408203125" lon="1.42357648350298404693603515625">
        <ele>195.399993896484375</ele>
        <time>2026-08-05T11:17:42.000Z</time>
        <extensions>
          <ns3:TrackPointExtension>
            <ns3:hr>84</ns3:hr>
            <ns3:cad>53</ns3:cad>
          </ns3:TrackPointExtension>
        </extensions>
      </trkpt>
      <trkpt lat="43.474937193095684051513671875" lon="1.42356474883854389190673828125">
        <ele>195.1999969482421875</ele>
        <time>2026-08-05T11:17:43.000Z</time>
        <extensions>
          <ns3:TrackPointExtension>
            <ns3:hr>84</ns3:hr>
            <ns3:cad>52</ns3:cad>
          </ns3:TrackPointExtension>
        </extensions>
      </trkpt>
      <trkpt lat="43.4749402105808258056640625" lon="1.42355016432702541351318359375">
        <ele>195.1999969482421875</ele>
        <time>2026-08-05T11:17:44.000Z</time>
        <extensions>
          <ns3:TrackPointExtension>
            <ns3:hr>84</ns3:hr>
            <ns3:cad>52</ns3:cad>
          </ns3:TrackPointExtension>
        </extensions>
      </trkpt>
      <trkpt lat="43.4749427251517772674560546875" lon="1.42353490926325321197509765625">
        <ele>195</ele>
        <time>2026-08-05T11:17:45.000Z</time>
        <extensions>
          <ns3:TrackPointExtension>
            <ns3:hr>85</ns3:hr>
            <ns3:cad>52</ns3:cad>
          </ns3:TrackPointExtension>
        </extensions>
      </trkpt>
      <trkpt lat="43.47494649700820446014404296875" lon="1.423520743846893310546875">
        <ele>194.8000030517578125</ele>
        <time>2026-08-05T11:17:46.000Z</time>
        <extensions>
          <ns3:TrackPointExtension>
            <ns3:hr>85</ns3:hr>
            <ns3:cad>52</ns3:cad>
          </ns3:TrackPointExtension>
        </extensions>
      </trkpt>
      <trkpt lat="43.47495119087398052215576171875" lon="1.42350741662085056304931640625">
        <ele>194.600006103515625</ele>
        <time>2026-08-05T11:17:47.000Z</time>
        <extensions>
          <ns3:TrackPointExtension>
            <ns3:hr>85</ns3:hr>
            <ns3:cad>53</ns3:cad>
          </ns3:TrackPointExtension>
        </extensions>
      </trkpt>
      <trkpt lat="43.47495504654943943023681640625" lon="1.42349249683320522308349609375">
        <ele>194.399993896484375</ele>
        <time>2026-08-05T11:17:48.000Z</time>
        <extensions>
          <ns3:TrackPointExtension>
            <ns3:hr>85</ns3:hr>
            <ns3:cad>53</ns3:cad>
          </ns3:TrackPointExtension>
        </extensions>
      </trkpt>
      <trkpt lat="43.47495739348232746124267578125" lon="1.423478834331035614013671875">
        <ele>194.1999969482421875</ele>
        <time>2026-08-05T11:17:49.000Z</time>
        <extensions>
          <ns3:TrackPointExtension>
            <ns3:hr>84</ns3:hr>
            <ns3:cad>53</ns3:cad>
          </ns3:TrackPointExtension>
        </extensions>
      </trkpt>
      <trkpt lat="43.47496007569134235382080078125" lon="1.42346617765724658966064453125">
        <ele>194</ele>
        <time>2026-08-05T11:17:50.000Z</time>
        <extensions>
          <ns3:TrackPointExtension>
            <ns3:hr>84</ns3:hr>
            <ns3:cad>52</ns3:cad>
          </ns3:TrackPointExtension>
        </extensions>
      </trkpt>
      <trkpt lat="43.47496376372873783111572265625" lon="1.4234523475170135498046875">
        <ele>194</ele>
        <time>2026-08-05T11:17:51.000Z</time>
        <extensions>
          <ns3:TrackPointExtension>
            <ns3:hr>84</ns3:hr>
            <ns3:cad>52</ns3:cad>
          </ns3:TrackPointExtension>
        </extensions>
      </trkpt>
      <trkpt lat="43.4749672003090381622314453125" lon="1.42343818210065364837646484375">
        <ele>193.8000030517578125</ele>
        <time>2026-08-05T11:17:52.000Z</time>
        <extensions>
          <ns3:TrackPointExtension>
            <ns3:hr>84</ns3:hr>
            <ns3:cad>52</ns3:cad>
          </ns3:TrackPointExtension>
        </extensions>
      </trkpt>
      <trkpt lat="43.4749708883464336395263671875" lon="1.4234228432178497314453125">
        <ele>193.600006103515625</ele>
        <time>2026-08-05T11:17:53.000Z</time>
        <extensions>
          <ns3:TrackPointExtension>
            <ns3:hr>84</ns3:hr>
            <ns3:cad>52</ns3:cad>
          </ns3:TrackPointExtension>
        </extensions>
      </trkpt>
      <trkpt lat="43.47497365437448024749755859375" lon="1.423407085239887237548828125">
        <ele>193.399993896484375</ele>
        <time>2026-08-05T11:17:54.000Z</time>
        <extensions>
          <ns3:TrackPointExtension>
            <ns3:hr>84</ns3:hr>
            <ns3:cad>52</ns3:cad>
          </ns3:TrackPointExtension>
        </extensions>
      </trkpt>
      <trkpt lat="43.47497574985027313232421875" lon="1.42339090816676616668701171875">
        <ele>193.1999969482421875</ele>
        <time>2026-08-05T11:17:55.000Z</time>
        <extensions>
          <ns3:TrackPointExtension>
            <ns3:hr>85</ns3:hr>
            <ns3:cad>51</ns3:cad>
          </ns3:TrackPointExtension>
        </extensions>
      </trkpt>
      <trkpt lat="43.4749785996973514556884765625" lon="1.42337632365524768829345703125">
        <ele>193</ele>
        <time>2026-08-05T11:17:56.000Z</time>
        <extensions>
          <ns3:TrackPointExtension>
            <ns3:hr>84</ns3:hr>
            <ns3:cad>51</ns3:cad>
          </ns3:TrackPointExtension>
        </extensions>
      </trkpt>
      <trkpt lat="43.47498002462089061737060546875" lon="1.4233626611530780792236328125">
        <ele>192.8000030517578125</ele>
        <time>2026-08-05T11:17:57.000Z</time>
        <extensions>
          <ns3:TrackPointExtension>
            <ns3:hr>84</ns3:hr>
            <ns3:cad>51</ns3:cad>
          </ns3:TrackPointExtension>
        </extensions>
      </trkpt>
      <trkpt lat="43.47498237155377864837646484375" lon="1.42335050739347934722900390625">
        <ele>192.8000030517578125</ele>
        <time>2026-08-05T11:17:58.000Z</time>
        <extensions>
          <ns3:TrackPointExtension>
            <ns3:hr>84</ns3:hr>
            <ns3:cad>51</ns3:cad>
          </ns3:TrackPointExtension>
        </extensions>
      </trkpt>
      <trkpt lat="43.4749836288392543792724609375" lon="1.42333231866359710693359375">
        <ele>192.600006103515625</ele>
        <time>2026-08-05T11:17:59.000Z</time>
        <extensions>
          <ns3:TrackPointExtension>
            <ns3:hr>85</ns3:hr>
            <ns3:cad>51</ns3:cad>
          </ns3:TrackPointExtension>
        </extensions>
      </trkpt>
      <trkpt lat="43.474986143410205841064453125" lon="1.42331345938146114349365234375">
        <ele>192.399993896484375</ele>
        <time>2026-08-05T11:18:00.000Z</time>
        <extensions>
          <ns3:TrackPointExtension>
            <ns3:hr>84</ns3:hr>
            <ns3:cad>51</ns3:cad>
          </ns3:TrackPointExtension>
        </extensions>
      </trkpt>
      <trkpt lat="43.474987484514713287353515625" lon="1.42329744994640350341796875">
        <ele>192.1999969482421875</ele>
        <time>2026-08-05T11:18:01.000Z</time>
        <extensions>
          <ns3:TrackPointExtension>
            <ns3:hr>84</ns3:hr>
            <ns3:cad>52</ns3:cad>
          </ns3:TrackPointExtension>
        </extensions>
      </trkpt>
      <trkpt lat="43.47498907707631587982177734375" lon="1.42328009940683841705322265625">
        <ele>192</ele>
        <time>2026-08-05T11:18:02.000Z</time>
        <extensions>
          <ns3:TrackPointExtension>
            <ns3:hr>85</ns3:hr>
            <ns3:cad>52</ns3:cad>
          </ns3:TrackPointExtension>
        </extensions>
      </trkpt>
      <trkpt lat="43.47499108873307704925537109375" lon="1.42326367087662220001220703125">
        <ele>192</ele>
        <time>2026-08-05T11:18:03.000Z</time>
        <extensions>
          <ns3:TrackPointExtension>
            <ns3:hr>85</ns3:hr>
            <ns3:cad>52</ns3:cad>
          </ns3:TrackPointExtension>
        </extensions>
      </trkpt>
      <trkpt lat="43.474992848932743072509765625" lon="1.42324908636510372161865234375">
        <ele>191.8000030517578125</ele>
        <time>2026-08-05T11:18:04.000Z</time>
        <extensions>
          <ns3:TrackPointExtension>
            <ns3:hr>84</ns3:hr>
            <ns3:cad>50</ns3:cad>
          </ns3:TrackPointExtension>
        </extensions>
      </trkpt>
      <trkpt lat="43.47499561496078968048095703125" lon="1.4232352562248706817626953125">
        <ele>191.600006103515625</ele>
        <time>2026-08-05T11:18:05.000Z</time>
        <extensions>
          <ns3:TrackPointExtension>
            <ns3:hr>84</ns3:hr>
            <ns3:cad>50</ns3:cad>
          </ns3:TrackPointExtension>
        </extensions>
      </trkpt>
      <trkpt lat="43.47499729134142398834228515625" lon="1.42321891151368618011474609375">
        <ele>191.399993896484375</ele>
        <time>2026-08-05T11:18:06.000Z</time>
        <extensions>
          <ns3:TrackPointExtension>
            <ns3:hr>84</ns3:hr>
            <ns3:cad>51</ns3:cad>
          </ns3:TrackPointExtension>
        </extensions>
      </trkpt>
      <trkpt lat="43.47500064410269260406494140625" lon="1.4232034049928188323974609375">
        <ele>191.1999969482421875</ele>
        <time>2026-08-05T11:18:07.000Z</time>
        <extensions>
          <ns3:TrackPointExtension>
            <ns3:hr>84</ns3:hr>
            <ns3:cad>51</ns3:cad>
          </ns3:TrackPointExtension>
        </extensions>
      </trkpt>
      <trkpt lat="43.475003577768802642822265625" lon="1.4231923408806324005126953125">
        <ele>191.1999969482421875</ele>
        <time>2026-08-05T11:18:08.000Z</time>
        <extensions>
          <ns3:TrackPointExtension>
            <ns3:hr>84</ns3:hr>
            <ns3:cad>51</ns3:cad>
          </ns3:TrackPointExtension>
        </extensions>
      </trkpt>
      <trkpt lat="43.47500517033040523529052734375" lon="1.42317851074039936065673828125">
        <ele>191</ele>
        <time>2026-08-05T11:18:09.000Z</time>
        <extensions>
          <ns3:TrackPointExtension>
            <ns3:hr>85</ns3:hr>
            <ns3:cad>52</ns3:cad>
          </ns3:TrackPointExtension>
        </extensions>
      </trkpt>
      <trkpt lat="43.47500802017748355865478515625" lon="1.42316241748631000518798828125">
        <ele>190.8000030517578125</ele>
        <time>2026-08-05T11:18:10.000Z</time>
        <extensions>
          <ns3:TrackPointExtension>
            <ns3:hr>84</ns3:hr>
            <ns3:cad>52</ns3:cad>
          </ns3:TrackPointExtension>
        </extensions>
      </trkpt>
      <trkpt lat="43.475011624395847320556640625" lon="1.42314867116510868072509765625">
        <ele>190.8000030517578125</ele>
        <time>2026-08-05T11:18:11.000Z</time>
        <extensions>
          <ns3:TrackPointExtension>
            <ns3:hr>85</ns3:hr>
            <ns3:cad>52</ns3:cad>
          </ns3:TrackPointExtension>
        </extensions>
      </trkpt>
      <trkpt lat="43.47501506097614765167236328125" lon="1.42313517630100250244140625">
        <ele>190.600006103515625</ele>
        <time>2026-08-05T11:18:12.000Z</time>
        <extensions>
          <ns3:TrackPointExtension>
            <ns3:hr>85</ns3:hr>
            <ns3:cad>52</ns3:cad>
          </ns3:TrackPointExtension>
        </extensions>
      </trkpt>
      <trkpt lat="43.47501791082322597503662109375" lon="1.42312168143689632415771484375">
        <ele>190.399993896484375</ele>
        <time>2026-08-05T11:18:13.000Z</time>
        <extensions>
          <ns3:TrackPointExtension>
            <ns3:hr>85</ns3:hr>
            <ns3:cad>52</ns3:cad>
          </ns3:TrackPointExtension>
        </extensions>
      </trkpt>
      <trkpt lat="43.47501992247998714447021484375" lon="1.42310726456344127655029296875">
        <ele>190.1999969482421875</ele>
        <time>2026-08-05T11:18:14.000Z</time>
        <extensions>
          <ns3:TrackPointExtension>
            <ns3:hr>85</ns3:hr>
            <ns3:cad>53</ns3:cad>
          </ns3:TrackPointExtension>
        </extensions>
      </trkpt>
      <trkpt lat="43.47502293996512889862060546875" lon="1.42309335060417652130126953125">
        <ele>190</ele>
        <time>2026-08-05T11:18:15.000Z</time>
        <extensions>
          <ns3:TrackPointExtension>
            <ns3:hr>85</ns3:hr>
            <ns3:cad>53</ns3:cad>
          </ns3:TrackPointExtension>
        </extensions>
      </trkpt>
      <trkpt lat="43.4750258736312389373779296875" lon="1.423077173531055450439453125">
        <ele>189.8000030517578125</ele>
        <time>2026-08-05T11:18:16.000Z</time>
        <extensions>
          <ns3:TrackPointExtension>
            <ns3:hr>86</ns3:hr>
            <ns3:cad>53</ns3:cad>
          </ns3:TrackPointExtension>
        </extensions>
      </trkpt>
      <trkpt lat="43.47502830438315868377685546875" lon="1.42306501977145671844482421875">
        <ele>189.600006103515625</ele>
        <time>2026-08-05T11:18:17.000Z</time>
        <extensions>
          <ns3:TrackPointExtension>
            <ns3:hr>85</ns3:hr>
            <ns3:cad>53</ns3:cad>
          </ns3:TrackPointExtension>
        </extensions>
      </trkpt>
      <trkpt lat="43.475030399858951568603515625" lon="1.42305294983088970184326171875">
        <ele>189.399993896484375</ele>
        <time>2026-08-05T11:18:18.000Z</time>
        <extensions>
          <ns3:TrackPointExtension>
            <ns3:hr>85</ns3:hr>
            <ns3:cad>53</ns3:cad>
          </ns3:TrackPointExtension>
        </extensions>
      </trkpt>
      <trkpt lat="43.47503283061087131500244140625" lon="1.4230394549667835235595703125">
        <ele>189.399993896484375</ele>
        <time>2026-08-05T11:18:19.000Z</time>
        <extensions>
          <ns3:TrackPointExtension>
            <ns3:hr>85</ns3:hr>
            <ns3:cad>53</ns3:cad>
          </ns3:TrackPointExtension>
        </extensions>
      </trkpt>
      <trkpt lat="43.47503484226763248443603515625" lon="1.4230267144739627838134765625">
        <ele>189.1999969482421875</ele>
        <time>2026-08-05T11:18:20.000Z</time>
        <extensions>
          <ns3:TrackPointExtension>
            <ns3:hr>85</ns3:hr>
            <ns3:cad>52</ns3:cad>
          </ns3:TrackPointExtension>
        </extensions>
      </trkpt>
      <trkpt lat="43.47503702156245708465576171875" lon="1.42301221378147602081298828125">
        <ele>189</ele>
        <time>2026-08-05T11:18:21.000Z</time>
        <extensions>
          <ns3:TrackPointExtension>
            <ns3:hr>84</ns3:hr>
            <ns3:cad>52</ns3:cad>
          </ns3:TrackPointExtension>
        </extensions>
      </trkpt>
      <trkpt lat="43.475039117038249969482421875" lon="1.42299762926995754241943359375">
        <ele>188.8000030517578125</ele>
        <time>2026-08-05T11:18:22.000Z</time>
        <extensions>
          <ns3:TrackPointExtension>
            <ns3:hr>83</ns3:hr>
            <ns3:cad>51</ns3:cad>
          </ns3:TrackPointExtension>
        </extensions>
      </trkpt>
      <trkpt lat="43.47504288889467716217041015625" lon="1.4229811169207096099853515625">
        <ele>188.600006103515625</ele>
        <time>2026-08-05T11:18:23.000Z</time>
        <extensions>
          <ns3:TrackPointExtension>
            <ns3:hr>82</ns3:hr>
            <ns3:cad>51</ns3:cad>
          </ns3:TrackPointExtension>
        </extensions>
      </trkpt>
      <trkpt lat="43.47504607401788234710693359375" lon="1.42296619713306427001953125">
        <ele>188.399993896484375</ele>
        <time>2026-08-05T11:18:24.000Z</time>
        <extensions>
          <ns3:TrackPointExtension>
            <ns3:hr>82</ns3:hr>
            <ns3:cad>51</ns3:cad>
          </ns3:TrackPointExtension>
        </extensions>
      </trkpt>
      <trkpt lat="43.4750490076839923858642578125" lon="1.4229507744312286376953125">
        <ele>188.1999969482421875</ele>
        <time>2026-08-05T11:18:25.000Z</time>
        <extensions>
          <ns3:TrackPointExtension>
            <ns3:hr>82</ns3:hr>
            <ns3:cad>51</ns3:cad>
          </ns3:TrackPointExtension>
        </extensions>
      </trkpt>
      <trkpt lat="43.47505060024559497833251953125" lon="1.422936022281646728515625">
        <ele>188</ele>
        <time>2026-08-05T11:18:26.000Z</time>
        <extensions>
          <ns3:TrackPointExtension>
            <ns3:hr>83</ns3:hr>
            <ns3:cad>52</ns3:cad>
          </ns3:TrackPointExtension>
        </extensions>
      </trkpt>
      <trkpt lat="43.475053869187831878662109375" lon="1.4229217730462551116943359375">
        <ele>187.8000030517578125</ele>
        <time>2026-08-05T11:18:27.000Z</time>
        <extensions>
          <ns3:TrackPointExtension>
            <ns3:hr>84</ns3:hr>
            <ns3:cad>52</ns3:cad>
          </ns3:TrackPointExtension>
        </extensions>
      </trkpt>
      <trkpt lat="43.47505755722522735595703125" lon="1.4229053445160388946533203125">
        <ele>187.8000030517578125</ele>
        <time>2026-08-05T11:18:28.000Z</time>
        <extensions>
          <ns3:TrackPointExtension>
            <ns3:hr>84</ns3:hr>
            <ns3:cad>52</ns3:cad>
          </ns3:TrackPointExtension>
        </extensions>
      </trkpt>
      <trkpt lat="43.47506082616746425628662109375" lon="1.4228872396051883697509765625">
        <ele>187.600006103515625</ele>
        <time>2026-08-05T11:18:29.000Z</time>
        <extensions>
          <ns3:TrackPointExtension>
            <ns3:hr>84</ns3:hr>
            <ns3:cad>51</ns3:cad>
          </ns3:TrackPointExtension>
        </extensions>
      </trkpt>
      <trkpt lat="43.47506283782422542572021484375" lon="1.4228684641420841217041015625">
        <ele>187.399993896484375</ele>
        <time>2026-08-05T11:18:30.000Z</time>
        <extensions>
          <ns3:TrackPointExtension>
            <ns3:hr>84</ns3:hr>
            <ns3:cad>51</ns3:cad>
          </ns3:TrackPointExtension>
        </extensions>
      </trkpt>
      <trkpt lat="43.4750651009380817413330078125" lon="1.42285513691604137420654296875">
        <ele>187.1999969482421875</ele>
        <time>2026-08-05T11:18:31.000Z</time>
        <extensions>
          <ns3:TrackPointExtension>
            <ns3:hr>84</ns3:hr>
            <ns3:cad>51</ns3:cad>
          </ns3:TrackPointExtension>
        </extensions>
      </trkpt>
      <trkpt lat="43.4750661067664623260498046875" lon="1.42284415662288665771484375">
        <ele>187.1999969482421875</ele>
        <time>2026-08-05T11:18:32.000Z</time>
        <extensions>
          <ns3:TrackPointExtension>
            <ns3:hr>83</ns3:hr>
            <ns3:cad>51</ns3:cad>
          </ns3:TrackPointExtension>
        </extensions>
      </trkpt>
      <trkpt lat="43.4750697948038578033447265625" lon="1.422831080853939056396484375">
        <ele>187</ele>
        <time>2026-08-05T11:18:33.000Z</time>
        <extensions>
          <ns3:TrackPointExtension>
            <ns3:hr>83</ns3:hr>
            <ns3:cad>51</ns3:cad>
          </ns3:TrackPointExtension>
        </extensions>
      </trkpt>
      <trkpt lat="43.4750694595277309417724609375" lon="1.42282026819884777069091796875">
        <ele>186.8000030517578125</ele>
        <time>2026-08-05T11:18:34.000Z</time>
        <extensions>
          <ns3:TrackPointExtension>
            <ns3:hr>84</ns3:hr>
            <ns3:cad>51</ns3:cad>
          </ns3:TrackPointExtension>
        </extensions>
      </trkpt>
      <trkpt lat="43.47507071681320667266845703125" lon="1.42280794680118560791015625">
        <ele>186.8000030517578125</ele>
        <time>2026-08-05T11:18:35.000Z</time>
        <extensions>
          <ns3:TrackPointExtension>
            <ns3:hr>83</ns3:hr>
            <ns3:cad>52</ns3:cad>
          </ns3:TrackPointExtension>
        </extensions>
      </trkpt>
      <trkpt lat="43.4750721417367458343505859375" lon="1.4227926917374134063720703125">
        <ele>186.600006103515625</ele>
        <time>2026-08-05T11:18:36.000Z</time>
        <extensions>
          <ns3:TrackPointExtension>
            <ns3:hr>83</ns3:hr>
            <ns3:cad>52</ns3:cad>
          </ns3:TrackPointExtension>
        </extensions>
      </trkpt>
      <trkpt lat="43.4750731475651264190673828125" lon="1.4227806217968463897705078125">
        <ele>186.399993896484375</ele>
        <time>2026-08-05T11:18:37.000Z</time>
        <extensions>
          <ns3:TrackPointExtension>
            <ns3:hr>83</ns3:hr>
            <ns3:cad>52</ns3:cad>
          </ns3:TrackPointExtension>
        </extensions>
      </trkpt>
      <trkpt lat="43.47507691942155361175537109375" lon="1.42276704311370849609375">
        <ele>186.1999969482421875</ele>
        <time>2026-08-05T11:18:38.000Z</time>
        <extensions>
          <ns3:TrackPointExtension>
            <ns3:hr>83</ns3:hr>
            <ns3:cad>50</ns3:cad>
          </ns3:TrackPointExtension>
        </extensions>
      </trkpt>
      <trkpt lat="43.475081361830234527587890625" lon="1.42274801619350910186767578125">
        <ele>186.1999969482421875</ele>
        <time>2026-08-05T11:18:39.000Z</time>
        <extensions>
          <ns3:TrackPointExtension>
            <ns3:hr>82</ns3:hr>
            <ns3:cad>50</ns3:cad>
          </ns3:TrackPointExtension>
        </extensions>
      </trkpt>
      <trkpt lat="43.47508446313440799713134765625" lon="1.4227316714823246002197265625">
        <ele>186</ele>
        <time>2026-08-05T11:18:40.000Z</time>
        <extensions>
          <ns3:TrackPointExtension>
            <ns3:hr>82</ns3:hr>
            <ns3:cad>50</ns3:cad>
          </ns3:TrackPointExtension>
        </extensions>
      </trkpt>
      <trkpt lat="43.47508714534342288970947265625" lon="1.42271750606596469879150390625">
        <ele>185.8000030517578125</ele>
        <time>2026-08-05T11:18:41.000Z</time>
        <extensions>
          <ns3:TrackPointExtension>
            <ns3:hr>81</ns3:hr>
            <ns3:cad>50</ns3:cad>
          </ns3:TrackPointExtension>
        </extensions>
      </trkpt>
      <trkpt lat="43.47508865408599376678466796875" lon="1.42270040698349475860595703125">
        <ele>185.8000030517578125</ele>
        <time>2026-08-05T11:18:42.000Z</time>
        <extensions>
          <ns3:TrackPointExtension>
            <ns3:hr>81</ns3:hr>
            <ns3:cad>50</ns3:cad>
          </ns3:TrackPointExtension>
        </extensions>
      </trkpt>
      <trkpt lat="43.4750878997147083282470703125" lon="1.42268230207264423370361328125">
        <ele>185.600006103515625</ele>
        <time>2026-08-05T11:18:43.000Z</time>
        <extensions>
          <ns3:TrackPointExtension>
            <ns3:hr>81</ns3:hr>
            <ns3:cad>50</ns3:cad>
          </ns3:TrackPointExtension>
        </extensions>
      </trkpt>
      <trkpt lat="43.47508907318115234375" lon="1.42266310751438140869140625">
        <ele>185.399993896484375</ele>
        <time>2026-08-05T11:18:44.000Z</time>
        <extensions>
          <ns3:TrackPointExtension>
            <ns3:hr>81</ns3:hr>
            <ns3:cad>50</ns3:cad>
          </ns3:TrackPointExtension>
        </extensions>
      </trkpt>
      <trkpt lat="43.4750929288566112518310546875" lon="1.4226476848125457763671875">
        <ele>185.1999969482421875</ele>
        <time>2026-08-05T11:18:45.000Z</time>
        <extensions>
          <ns3:TrackPointExtension>
            <ns3:hr>82</ns3:hr>
            <ns3:cad>51</ns3:cad>
          </ns3:TrackPointExtension>
        </extensions>
      </trkpt>
      <trkpt lat="43.4750946052372455596923828125" lon="1.42263670451939105987548828125">
        <ele>185.1999969482421875</ele>
        <time>2026-08-05T11:18:46.000Z</time>
        <extensions>
          <ns3:TrackPointExtension>
            <ns3:hr>81</ns3:hr>
            <ns3:cad>51</ns3:cad>
          </ns3:TrackPointExtension>
        </extensions>
      </trkpt>
      <trkpt lat="43.4750952757894992828369140625" lon="1.42262153327465057373046875">
        <ele>185</ele>
        <time>2026-08-05T11:18:47.000Z</time>
        <extensions>
          <ns3:TrackPointExtension>
            <ns3:hr>81</ns3:hr>
            <ns3:cad>51</ns3:cad>
          </ns3:TrackPointExtension>
        </extensions>
      </trkpt>
      <trkpt lat="43.47509837709367275238037109375" lon="1.422608457505702972412109375">
        <ele>184.8000030517578125</ele>
        <time>2026-08-05T11:18:48.000Z</time>
        <extensions>
          <ns3:TrackPointExtension>
            <ns3:hr>82</ns3:hr>
            <ns3:cad>51</ns3:cad>
          </ns3:TrackPointExtension>
        </extensions>
      </trkpt>
      <trkpt lat="43.475100137293338775634765625" lon="1.42259563319385051727294921875">
        <ele>184.600006103515625</ele>
        <time>2026-08-05T11:18:49.000Z</time>
        <extensions>
          <ns3:TrackPointExtension>
            <ns3:hr>82</ns3:hr>
            <ns3:cad>52</ns3:cad>
          </ns3:TrackPointExtension>
        </extensions>
      </trkpt>
      <trkpt lat="43.475102484226226806640625" lon="1.42258130013942718505859375">
        <ele>184.600006103515625</ele>
        <time>2026-08-05T11:18:50.000Z</time>
        <extensions>
          <ns3:TrackPointExtension>
            <ns3:hr>82</ns3:hr>
            <ns3:cad>52</ns3:cad>
          </ns3:TrackPointExtension>
        </extensions>
      </trkpt>
      <trkpt lat="43.47510374151170253753662109375" lon="1.4225673861801624298095703125">
        <ele>184.399993896484375</ele>
        <time>2026-08-05T11:18:51.000Z</time>
        <extensions>
          <ns3:TrackPointExtension>
            <ns3:hr>82</ns3:hr>
            <ns3:cad>52</ns3:cad>
          </ns3:TrackPointExtension>
        </extensions>
      </trkpt>
      <trkpt lat="43.47510516643524169921875" lon="1.4225539751350879669189453125">
        <ele>184.399993896484375</ele>
        <time>2026-08-05T11:18:52.000Z</time>
        <extensions>
          <ns3:TrackPointExtension>
            <ns3:hr>81</ns3:hr>
            <ns3:cad>52</ns3:cad>
          </ns3:TrackPointExtension>
        </extensions>
      </trkpt>
      <trkpt lat="43.4751070104539394378662109375" lon="1.42254064790904521942138671875">
        <ele>184.1999969482421875</ele>
        <time>2026-08-05T11:18:53.000Z</time>
        <extensions>
          <ns3:TrackPointExtension>
            <ns3:hr>81</ns3:hr>
            <ns3:cad>51</ns3:cad>
          </ns3:TrackPointExtension>
        </extensions>
      </trkpt>
      <trkpt lat="43.47510717809200286865234375" lon="1.42252874560654163360595703125">
        <ele>184.1999969482421875</ele>
        <time>2026-08-05T11:18:54.000Z</time>
        <extensions>
          <ns3:TrackPointExtension>
            <ns3:hr>82</ns3:hr>
            <ns3:cad>51</ns3:cad>
          </ns3:TrackPointExtension>
        </extensions>
      </trkpt>
      <trkpt lat="43.4751073457300662994384765625" lon="1.42251416109502315521240234375">
        <ele>184</ele>
        <time>2026-08-05T11:18:55.000Z</time>
        <extensions>
          <ns3:TrackPointExtension>
            <ns3:hr>82</ns3:hr>
            <ns3:cad>51</ns3:cad>
          </ns3:TrackPointExtension>
        </extensions>
      </trkpt>
      <trkpt lat="43.47510977648198604583740234375" lon="1.42249940894544124603271484375">
        <ele>183.8000030517578125</ele>
        <time>2026-08-05T11:18:56.000Z</time>
        <extensions>
          <ns3:TrackPointExtension>
            <ns3:hr>82</ns3:hr>
            <ns3:cad>51</ns3:cad>
          </ns3:TrackPointExtension>
        </extensions>
      </trkpt>
      <trkpt lat="43.4751110337674617767333984375" lon="1.4224832318723201751708984375">
        <ele>183.600006103515625</ele>
        <time>2026-08-05T11:18:57.000Z</time>
        <extensions>
          <ns3:TrackPointExtension>
            <ns3:hr>82</ns3:hr>
            <ns3:cad>51</ns3:cad>
          </ns3:TrackPointExtension>
        </extensions>
      </trkpt>
      <trkpt lat="43.4751120395958423614501953125" lon="1.4224701561033725738525390625">
        <ele>183.600006103515625</ele>
        <time>2026-08-05T11:18:58.000Z</time>
        <extensions>
          <ns3:TrackPointExtension>
            <ns3:hr>82</ns3:hr>
            <ns3:cad>51</ns3:cad>
          </ns3:TrackPointExtension>
        </extensions>
      </trkpt>
      <trkpt lat="43.47511212341487407684326171875" lon="1.42245984636247158050537109375">
        <ele>183.399993896484375</ele>
        <time>2026-08-05T11:18:59.000Z</time>
        <extensions>
          <ns3:TrackPointExtension>
            <ns3:hr>82</ns3:hr>
            <ns3:cad>50</ns3:cad>
          </ns3:TrackPointExtension>
        </extensions>
      </trkpt>
      <trkpt lat="43.47511463798582553863525390625" lon="1.42244718968868255615234375">
        <ele>183.399993896484375</ele>
        <time>2026-08-05T11:19:00.000Z</time>
        <extensions>
          <ns3:TrackPointExtension>
            <ns3:hr>82</ns3:hr>
            <ns3:cad>50</ns3:cad>
          </ns3:TrackPointExtension>
        </extensions>
      </trkpt>
      <trkpt lat="43.47511782310903072357177734375" lon="1.42243587411940097808837890625">
        <ele>183.1999969482421875</ele>
        <time>2026-08-05T11:19:01.000Z</time>
        <extensions>
          <ns3:TrackPointExtension>
            <ns3:hr>82</ns3:hr>
            <ns3:cad>50</ns3:cad>
          </ns3:TrackPointExtension>
        </extensions>
      </trkpt>
      <trkpt lat="43.47512134350836277008056640625" lon="1.42242397181689739227294921875">
        <ele>183.1999969482421875</ele>
        <time>2026-08-05T11:19:02.000Z</time>
        <extensions>
          <ns3:TrackPointExtension>
            <ns3:hr>82</ns3:hr>
            <ns3:cad>52</ns3:cad>
          </ns3:TrackPointExtension>
        </extensions>
      </trkpt>
      <trkpt lat="43.47512436099350452423095703125" lon="1.4224084652960300445556640625">
        <ele>183</ele>
        <time>2026-08-05T11:19:03.000Z</time>
        <extensions>
          <ns3:TrackPointExtension>
            <ns3:hr>83</ns3:hr>
            <ns3:cad>52</ns3:cad>
          </ns3:TrackPointExtension>
        </extensions>
      </trkpt>
      <trkpt lat="43.47512721084058284759521484375" lon="1.42238943837583065032958984375">
        <ele>182.8000030517578125</ele>
        <time>2026-08-05T11:19:04.000Z</time>
        <extensions>
          <ns3:TrackPointExtension>
            <ns3:hr>82</ns3:hr>
            <ns3:cad>52</ns3:cad>
          </ns3:TrackPointExtension>
        </extensions>
      </trkpt>
      <trkpt lat="43.47513006068766117095947265625" lon="1.42237250693142414093017578125">
        <ele>182.600006103515625</ele>
        <time>2026-08-05T11:19:05.000Z</time>
        <extensions>
          <ns3:TrackPointExtension>
            <ns3:hr>82</ns3:hr>
            <ns3:cad>51</ns3:cad>
          </ns3:TrackPointExtension>
        </extensions>
      </trkpt>
      <trkpt lat="43.4751318208873271942138671875" lon="1.422359682619571685791015625">
        <ele>182.399993896484375</ele>
        <time>2026-08-05T11:19:06.000Z</time>
        <extensions>
          <ns3:TrackPointExtension>
            <ns3:hr>83</ns3:hr>
            <ns3:cad>51</ns3:cad>
          </ns3:TrackPointExtension>
        </extensions>
      </trkpt>
      <trkpt lat="43.4751321561634540557861328125" lon="1.42234937287867069244384765625">
        <ele>182.1999969482421875</ele>
        <time>2026-08-05T11:19:07.000Z</time>
        <extensions>
          <ns3:TrackPointExtension>
            <ns3:hr>82</ns3:hr>
            <ns3:cad>51</ns3:cad>
          </ns3:TrackPointExtension>
        </extensions>
      </trkpt>
      <trkpt lat="43.47513458691537380218505859375" lon="1.42233495600521564483642578125">
        <ele>182.1999969482421875</ele>
        <time>2026-08-05T11:19:08.000Z</time>
        <extensions>
          <ns3:TrackPointExtension>
            <ns3:hr>82</ns3:hr>
            <ns3:cad>50</ns3:cad>
          </ns3:TrackPointExtension>
        </extensions>
      </trkpt>
      <trkpt lat="43.47513525746762752532958984375" lon="1.4223169349133968353271484375">
        <ele>182</ele>
        <time>2026-08-05T11:19:09.000Z</time>
        <extensions>
          <ns3:TrackPointExtension>
            <ns3:hr>83</ns3:hr>
            <ns3:cad>50</ns3:cad>
          </ns3:TrackPointExtension>
        </extensions>
      </trkpt>
      <trkpt lat="43.4751365147531032562255859375" lon="1.42229908145964145660400390625">
        <ele>182</ele>
        <time>2026-08-05T11:19:10.000Z</time>
        <extensions>
          <ns3:TrackPointExtension>
            <ns3:hr>82</ns3:hr>
            <ns3:cad>50</ns3:cad>
          </ns3:TrackPointExtension>
        </extensions>
      </trkpt>
      <trkpt lat="43.4751378558576107025146484375" lon="1.42228223383426666259765625">
        <ele>181.8000030517578125</ele>
        <time>2026-08-05T11:19:11.000Z</time>
        <extensions>
          <ns3:TrackPointExtension>
            <ns3:hr>82</ns3:hr>
            <ns3:cad>50</ns3:cad>
          </ns3:TrackPointExtension>
        </extensions>
      </trkpt>
      <trkpt lat="43.47513978369534015655517578125" lon="1.4222663082182407379150390625">
        <ele>181.8000030517578125</ele>
        <time>2026-08-05T11:19:12.000Z</time>
        <extensions>
          <ns3:TrackPointExtension>
            <ns3:hr>83</ns3:hr>
            <ns3:cad>50</ns3:cad>
          </ns3:TrackPointExtension>
        </extensions>
      </trkpt>
      <trkpt lat="43.47514363937079906463623046875" lon="1.4222448505461215972900390625">
        <ele>181.600006103515625</ele>
        <time>2026-08-05T11:19:13.000Z</time>
        <extensions>
          <ns3:TrackPointExtension>
            <ns3:hr>82</ns3:hr>
            <ns3:cad>50</ns3:cad>
          </ns3:TrackPointExtension>
        </extensions>
      </trkpt>
      <trkpt lat="43.475145399570465087890625" lon="1.42223571427166461944580078125">
        <ele>181.600006103515625</ele>
        <time>2026-08-05T11:19:14.000Z</time>
        <extensions>
          <ns3:TrackPointExtension>
            <ns3:hr>83</ns3:hr>
            <ns3:cad>50</ns3:cad>
          </ns3:TrackPointExtension>
        </extensions>
      </trkpt>
      <trkpt lat="43.4751465730369091033935546875" lon="1.422222219407558441162109375">
        <ele>181.399993896484375</ele>
        <time>2026-08-05T11:19:15.000Z</time>
        <extensions>
          <ns3:TrackPointExtension>
            <ns3:hr>83</ns3:hr>
            <ns3:cad>50</ns3:cad>
          </ns3:TrackPointExtension>
        </extensions>
      </trkpt>
      <trkpt lat="43.47514632157981395721435546875" lon="1.42220570705831050872802734375">
        <ele>181.1999969482421875</ele>
        <time>2026-08-05T11:19:16.000Z</time>
        <extensions>
          <ns3:TrackPointExtension>
            <ns3:hr>83</ns3:hr>
            <ns3:cad>51</ns3:cad>
          </ns3:TrackPointExtension>
        </extensions>
      </trkpt>
      <trkpt lat="43.475145064294338226318359375" lon="1.422188691794872283935546875">
        <ele>181.1999969482421875</ele>
        <time>2026-08-05T11:19:17.000Z</time>
        <extensions>
          <ns3:TrackPointExtension>
            <ns3:hr>82</ns3:hr>
            <ns3:cad>51</ns3:cad>
          </ns3:TrackPointExtension>
        </extensions>
      </trkpt>
      <trkpt lat="43.47514632157981395721435546875" lon="1.4221731014549732208251953125">
        <ele>181</ele>
        <time>2026-08-05T11:19:18.000Z</time>
        <extensions>
          <ns3:TrackPointExtension>
            <ns3:hr>83</ns3:hr>
            <ns3:cad>51</ns3:cad>
          </ns3:TrackPointExtension>
        </extensions>
      </trkpt>
      <trkpt lat="43.47514732740819454193115234375" lon="1.422158181667327880859375">
        <ele>181</ele>
        <time>2026-08-05T11:19:19.000Z</time>
        <extensions>
          <ns3:TrackPointExtension>
            <ns3:hr>83</ns3:hr>
            <ns3:cad>51</ns3:cad>
          </ns3:TrackPointExtension>
        </extensions>
      </trkpt>
      <trkpt lat="43.47514632157981395721435546875" lon="1.4221452735364437103271484375">
        <ele>180.8000030517578125</ele>
        <time>2026-08-05T11:19:20.000Z</time>
        <extensions>
          <ns3:TrackPointExtension>
            <ns3:hr>83</ns3:hr>
            <ns3:cad>51</ns3:cad>
          </ns3:TrackPointExtension>
        </extensions>
      </trkpt>
      <trkpt lat="43.47514799796044826507568359375" lon="1.42213110812008380889892578125">
        <ele>180.600006103515625</ele>
        <time>2026-08-05T11:19:21.000Z</time>
        <extensions>
          <ns3:TrackPointExtension>
            <ns3:hr>83</ns3:hr>
            <ns3:cad>51</ns3:cad>
          </ns3:TrackPointExtension>
        </extensions>
      </trkpt>
      <trkpt lat="43.475150763988494873046875" lon="1.42211727797985076904296875">
        <ele>180.600006103515625</ele>
        <time>2026-08-05T11:19:22.000Z</time>
        <extensions>
          <ns3:TrackPointExtension>
            <ns3:hr>83</ns3:hr>
            <ns3:cad>51</ns3:cad>
          </ns3:TrackPointExtension>
        </extensions>
      </trkpt>
      <trkpt lat="43.47515000961720943450927734375" lon="1.42210629768669605255126953125">
        <ele>180.399993896484375</ele>
        <time>2026-08-05T11:19:23.000Z</time>
        <extensions>
          <ns3:TrackPointExtension>
            <ns3:hr>84</ns3:hr>
            <ns3:cad>51</ns3:cad>
          </ns3:TrackPointExtension>
        </extensions>
      </trkpt>
      <trkpt lat="43.47515403293073177337646484375" lon="1.4220896176993846893310546875">
        <ele>180.399993896484375</ele>
        <time>2026-08-05T11:19:24.000Z</time>
        <extensions>
          <ns3:TrackPointExtension>
            <ns3:hr>84</ns3:hr>
            <ns3:cad>51</ns3:cad>
          </ns3:TrackPointExtension>
        </extensions>
      </trkpt>
      <trkpt lat="43.47515679895877838134765625" lon="1.422078050673007965087890625">
        <ele>180.1999969482421875</ele>
        <time>2026-08-05T11:19:25.000Z</time>
        <extensions>
          <ns3:TrackPointExtension>
            <ns3:hr>84</ns3:hr>
            <ns3:cad>51</ns3:cad>
          </ns3:TrackPointExtension>
        </extensions>
      </trkpt>
      <trkpt lat="43.47516006790101528167724609375" lon="1.4220656454563140869140625">
        <ele>180</ele>
        <time>2026-08-05T11:19:26.000Z</time>
        <extensions>
          <ns3:TrackPointExtension>
            <ns3:hr>84</ns3:hr>
            <ns3:cad>52</ns3:cad>
          </ns3:TrackPointExtension>
        </extensions>
      </trkpt>
      <trkpt lat="43.47516342066228389739990234375" lon="1.42205022275447845458984375">
        <ele>179.8000030517578125</ele>
        <time>2026-08-05T11:19:27.000Z</time>
        <extensions>
          <ns3:TrackPointExtension>
            <ns3:hr>84</ns3:hr>
            <ns3:cad>52</ns3:cad>
          </ns3:TrackPointExtension>
        </extensions>
      </trkpt>
      <trkpt lat="43.475167192518711090087890625" lon="1.42203605733811855316162109375">
        <ele>179.600006103515625</ele>
        <time>2026-08-05T11:19:28.000Z</time>
        <extensions>
          <ns3:TrackPointExtension>
            <ns3:hr>85</ns3:hr>
            <ns3:cad>52</ns3:cad>
          </ns3:TrackPointExtension>
        </extensions>
      </trkpt>
      <trkpt lat="43.475170545279979705810546875" lon="1.42202205955982208251953125">
        <ele>179.600006103515625</ele>
        <time>2026-08-05T11:19:29.000Z</time>
        <extensions>
          <ns3:TrackPointExtension>
            <ns3:hr>85</ns3:hr>
            <ns3:cad>51</ns3:cad>
          </ns3:TrackPointExtension>
        </extensions>
      </trkpt>
      <trkpt lat="43.475174568593502044677734375" lon="1.4220066368579864501953125">
        <ele>179.399993896484375</ele>
        <time>2026-08-05T11:19:30.000Z</time>
        <extensions>
          <ns3:TrackPointExtension>
            <ns3:hr>85</ns3:hr>
            <ns3:cad>51</ns3:cad>
          </ns3:TrackPointExtension>
        </extensions>
      </trkpt>
      <trkpt lat="43.47517733462154865264892578125" lon="1.4219905436038970947265625">
        <ele>179.1999969482421875</ele>
        <time>2026-08-05T11:19:31.000Z</time>
        <extensions>
          <ns3:TrackPointExtension>
            <ns3:hr>85</ns3:hr>
            <ns3:cad>51</ns3:cad>
          </ns3:TrackPointExtension>
        </extensions>
      </trkpt>
      <trkpt lat="43.4751816093921661376953125" lon="1.4219722710549831390380859375">
        <ele>179.1999969482421875</ele>
        <time>2026-08-05T11:19:32.000Z</time>
        <extensions>
          <ns3:TrackPointExtension>
            <ns3:hr>85</ns3:hr>
            <ns3:cad>51</ns3:cad>
          </ns3:TrackPointExtension>
        </extensions>
      </trkpt>
      <trkpt lat="43.47518471069633960723876953125" lon="1.4219556748867034912109375">
        <ele>179</ele>
        <time>2026-08-05T11:19:33.000Z</time>
        <extensions>
          <ns3:TrackPointExtension>
            <ns3:hr>86</ns3:hr>
            <ns3:cad>51</ns3:cad>
          </ns3:TrackPointExtension>
        </extensions>
      </trkpt>
      <trkpt lat="43.47518764436244964599609375" lon="1.42194201238453388214111328125">
        <ele>179</ele>
        <time>2026-08-05T11:19:34.000Z</time>
        <extensions>
          <ns3:TrackPointExtension>
            <ns3:hr>85</ns3:hr>
            <ns3:cad>51</ns3:cad>
          </ns3:TrackPointExtension>
        </extensions>
      </trkpt>
      <trkpt lat="43.47519024275243282318115234375" lon="1.4219290204346179962158203125">
        <ele>178.8000030517578125</ele>
        <time>2026-08-05T11:19:35.000Z</time>
        <extensions>
          <ns3:TrackPointExtension>
            <ns3:hr>85</ns3:hr>
            <ns3:cad>52</ns3:cad>
          </ns3:TrackPointExtension>
        </extensions>
      </trkpt>
      <trkpt lat="43.47519258968532085418701171875" lon="1.42191477119922637939453125">
        <ele>178.8000030517578125</ele>
        <time>2026-08-05T11:19:36.000Z</time>
        <extensions>
          <ns3:TrackPointExtension>
            <ns3:hr>85</ns3:hr>
            <ns3:cad>52</ns3:cad>
          </ns3:TrackPointExtension>
        </extensions>
      </trkpt>
      <trkpt lat="43.4751941822469234466552734375" lon="1.42189859412610530853271484375">
        <ele>178.600006103515625</ele>
        <time>2026-08-05T11:19:37.000Z</time>
        <extensions>
          <ns3:TrackPointExtension>
            <ns3:hr>86</ns3:hr>
            <ns3:cad>52</ns3:cad>
          </ns3:TrackPointExtension>
        </extensions>
      </trkpt>
      <trkpt lat="43.47519703209400177001953125" lon="1.42188300378620624542236328125">
        <ele>178.399993896484375</ele>
        <time>2026-08-05T11:19:38.000Z</time>
        <extensions>
          <ns3:TrackPointExtension>
            <ns3:hr>85</ns3:hr>
            <ns3:cad>52</ns3:cad>
          </ns3:TrackPointExtension>
        </extensions>
      </trkpt>
      <trkpt lat="43.4752008877694606781005859375" lon="1.421868167817592620849609375">
        <ele>178.1999969482421875</ele>
        <time>2026-08-05T11:19:39.000Z</time>
        <extensions>
          <ns3:TrackPointExtension>
            <ns3:hr>85</ns3:hr>
            <ns3:cad>52</ns3:cad>
          </ns3:TrackPointExtension>
        </extensions>
      </trkpt>
      <trkpt lat="43.475204743444919586181640625" lon="1.421852409839630126953125">
        <ele>178</ele>
        <time>2026-08-05T11:19:40.000Z</time>
        <extensions>
          <ns3:TrackPointExtension>
            <ns3:hr>85</ns3:hr>
            <ns3:cad>51</ns3:cad>
          </ns3:TrackPointExtension>
        </extensions>
      </trkpt>
      <trkpt lat="43.47520776093006134033203125" lon="1.4218381606042385101318359375">
        <ele>177.8000030517578125</ele>
        <time>2026-08-05T11:19:41.000Z</time>
        <extensions>
          <ns3:TrackPointExtension>
            <ns3:hr>86</ns3:hr>
            <ns3:cad>51</ns3:cad>
          </ns3:TrackPointExtension>
        </extensions>
      </trkpt>
      <trkpt lat="43.47521119751036167144775390625" lon="1.42182089388370513916015625">
        <ele>177.600006103515625</ele>
        <time>2026-08-05T11:19:42.000Z</time>
        <extensions>
          <ns3:TrackPointExtension>
            <ns3:hr>85</ns3:hr>
            <ns3:cad>52</ns3:cad>
          </ns3:TrackPointExtension>
        </extensions>
      </trkpt>
      <trkpt lat="43.47521740011870861053466796875" lon="1.42179851420223712921142578125">
        <ele>177.399993896484375</ele>
        <time>2026-08-05T11:19:43.000Z</time>
        <extensions>
          <ns3:TrackPointExtension>
            <ns3:hr>85</ns3:hr>
            <ns3:cad>53</ns3:cad>
          </ns3:TrackPointExtension>
        </extensions>
      </trkpt>
      <trkpt lat="43.475222177803516387939453125" lon="1.42178334295749664306640625">
        <ele>177.1999969482421875</ele>
        <time>2026-08-05T11:19:44.000Z</time>
        <extensions>
          <ns3:TrackPointExtension>
            <ns3:hr>85</ns3:hr>
            <ns3:cad>53</ns3:cad>
          </ns3:TrackPointExtension>
        </extensions>
      </trkpt>
      <trkpt lat="43.47522645257413387298583984375" lon="1.42177219502627849578857421875">
        <ele>177</ele>
        <time>2026-08-05T11:19:45.000Z</time>
        <extensions>
          <ns3:TrackPointExtension>
            <ns3:hr>85</ns3:hr>
            <ns3:cad>54</ns3:cad>
          </ns3:TrackPointExtension>
        </extensions>
      </trkpt>
      <trkpt lat="43.47523014061152935028076171875" lon="1.42175660468637943267822265625">
        <ele>177</ele>
        <time>2026-08-05T11:19:46.000Z</time>
        <extensions>
          <ns3:TrackPointExtension>
            <ns3:hr>85</ns3:hr>
            <ns3:cad>52</ns3:cad>
          </ns3:TrackPointExtension>
        </extensions>
      </trkpt>
      <trkpt lat="43.4752364270389080047607421875" lon="1.42174235545098781585693359375">
        <ele>176.8000030517578125</ele>
        <time>2026-08-05T11:19:47.000Z</time>
        <extensions>
          <ns3:TrackPointExtension>
            <ns3:hr>85</ns3:hr>
            <ns3:cad>52</ns3:cad>
          </ns3:TrackPointExtension>
        </extensions>
      </trkpt>
      <trkpt lat="43.4752424620091915130615234375" lon="1.4217295311391353607177734375">
        <ele>176.8000030517578125</ele>
        <time>2026-08-05T11:19:48.000Z</time>
        <extensions>
          <ns3:TrackPointExtension>
            <ns3:hr>85</ns3:hr>
            <ns3:cad>51</ns3:cad>
          </ns3:TrackPointExtension>
        </extensions>
      </trkpt>
      <trkpt lat="43.47524740733206272125244140625" lon="1.421715952455997467041015625">
        <ele>176.8000030517578125</ele>
        <time>2026-08-05T11:19:49.000Z</time>
        <extensions>
          <ns3:TrackPointExtension>
            <ns3:hr>85</ns3:hr>
            <ns3:cad>50</ns3:cad>
          </ns3:TrackPointExtension>
        </extensions>
      </trkpt>
      <trkpt lat="43.47525394521653652191162109375" lon="1.42170329578220844268798828125">
        <ele>176.600006103515625</ele>
        <time>2026-08-05T11:19:50.000Z</time>
        <extensions>
          <ns3:TrackPointExtension>
            <ns3:hr>84</ns3:hr>
            <ns3:cad>50</ns3:cad>
          </ns3:TrackPointExtension>
        </extensions>
      </trkpt>
      <trkpt lat="43.4752595610916614532470703125" lon="1.42169172875583171844482421875">
        <ele>176.399993896484375</ele>
        <time>2026-08-05T11:19:51.000Z</time>
        <extensions>
          <ns3:TrackPointExtension>
            <ns3:hr>84</ns3:hr>
            <ns3:cad>51</ns3:cad>
          </ns3:TrackPointExtension>
        </extensions>
      </trkpt>
      <trkpt lat="43.4752649255096912384033203125" lon="1.421679742634296417236328125">
        <ele>176.399993896484375</ele>
        <time>2026-08-05T11:19:52.000Z</time>
        <extensions>
          <ns3:TrackPointExtension>
            <ns3:hr>84</ns3:hr>
            <ns3:cad>51</ns3:cad>
          </ns3:TrackPointExtension>
        </extensions>
      </trkpt>
      <trkpt lat="43.47526886500418186187744140625" lon="1.42166557721793651580810546875">
        <ele>176.1999969482421875</ele>
        <time>2026-08-05T11:19:53.000Z</time>
        <extensions>
          <ns3:TrackPointExtension>
            <ns3:hr>84</ns3:hr>
            <ns3:cad>51</ns3:cad>
          </ns3:TrackPointExtension>
        </extensions>
      </trkpt>
      <trkpt lat="43.47527422942221164703369140625" lon="1.42165216617286205291748046875">
        <ele>176</ele>
        <time>2026-08-05T11:19:54.000Z</time>
        <extensions>
          <ns3:TrackPointExtension>
            <ns3:hr>83</ns3:hr>
            <ns3:cad>51</ns3:cad>
          </ns3:TrackPointExtension>
        </extensions>
      </trkpt>
      <trkpt lat="43.47527842037379741668701171875" lon="1.42163992859423160552978515625">
        <ele>176</ele>
        <time>2026-08-05T11:19:55.000Z</time>
        <extensions>
          <ns3:TrackPointExtension>
            <ns3:hr>83</ns3:hr>
            <ns3:cad>52</ns3:cad>
          </ns3:TrackPointExtension>
        </extensions>
      </trkpt>
      <trkpt lat="43.475284874439239501953125" lon="1.42162567935883998870849609375">
        <ele>175.8000030517578125</ele>
        <time>2026-08-05T11:19:56.000Z</time>
        <extensions>
          <ns3:TrackPointExtension>
            <ns3:hr>83</ns3:hr>
            <ns3:cad>53</ns3:cad>
          </ns3:TrackPointExtension>
        </extensions>
      </trkpt>
      <trkpt lat="43.47529090940952301025390625" lon="1.42161411233246326446533203125">
        <ele>175.600006103515625</ele>
        <time>2026-08-05T11:19:57.000Z</time>
        <extensions>
          <ns3:TrackPointExtension>
            <ns3:hr>83</ns3:hr>
            <ns3:cad>53</ns3:cad>
          </ns3:TrackPointExtension>
        </extensions>
      </trkpt>
      <trkpt lat="43.47529669292271137237548828125" lon="1.4216041378676891326904296875">
        <ele>175.399993896484375</ele>
        <time>2026-08-05T11:19:58.000Z</time>
        <extensions>
          <ns3:TrackPointExtension>
            <ns3:hr>83</ns3:hr>
            <ns3:cad>52</ns3:cad>
          </ns3:TrackPointExtension>
        </extensions>
      </trkpt>
      <trkpt lat="43.47530289553105831146240234375" lon="1.4215960912406444549560546875">
        <ele>175.1999969482421875</ele>
        <time>2026-08-05T11:19:59.000Z</time>
        <extensions>
          <ns3:TrackPointExtension>
            <ns3:hr>83</ns3:hr>
            <ns3:cad>52</ns3:cad>
          </ns3:TrackPointExtension>
        </extensions>
      </trkpt>
      <trkpt lat="43.475310690701007843017578125" lon="1.42158360220491886138916015625">
        <ele>175</ele>
        <time>2026-08-05T11:20:00.000Z</time>
        <extensions>
          <ns3:TrackPointExtension>
            <ns3:hr>83</ns3:hr>
            <ns3:cad>52</ns3:cad>
          </ns3:TrackPointExtension>
        </extensions>
      </trkpt>
      <trkpt lat="43.475317396223545074462890625" lon="1.42157253809273242950439453125">
        <ele>175</ele>
        <time>2026-08-05T11:20:01.000Z</time>
        <extensions>
          <ns3:TrackPointExtension>
            <ns3:hr>83</ns3:hr>
            <ns3:cad>51</ns3:cad>
          </ns3:TrackPointExtension>
        </extensions>
      </trkpt>
      <trkpt lat="43.4753239341080188751220703125" lon="1.421561725437641143798828125">
        <ele>174.8000030517578125</ele>
        <time>2026-08-05T11:20:02.000Z</time>
        <extensions>
          <ns3:TrackPointExtension>
            <ns3:hr>84</ns3:hr>
            <ns3:cad>51</ns3:cad>
          </ns3:TrackPointExtension>
        </extensions>
      </trkpt>
      <trkpt lat="43.4753286279737949371337890625" lon="1.42155208624899387359619140625">
        <ele>174.600006103515625</ele>
        <time>2026-08-05T11:20:03.000Z</time>
        <extensions>
          <ns3:TrackPointExtension>
            <ns3:hr>84</ns3:hr>
            <ns3:cad>51</ns3:cad>
          </ns3:TrackPointExtension>
        </extensions>
      </trkpt>
      <trkpt lat="43.475334830582141876220703125" lon="1.42154152505099773406982421875">
        <ele>174.399993896484375</ele>
        <time>2026-08-05T11:20:04.000Z</time>
        <extensions>
          <ns3:TrackPointExtension>
            <ns3:hr>83</ns3:hr>
            <ns3:cad>51</ns3:cad>
          </ns3:TrackPointExtension>
        </extensions>
      </trkpt>
      <trkpt lat="43.47534229047596454620361328125" lon="1.421527862548828125">
        <ele>174.1999969482421875</ele>
        <time>2026-08-05T11:20:05.000Z</time>
        <extensions>
          <ns3:TrackPointExtension>
            <ns3:hr>83</ns3:hr>
            <ns3:cad>51</ns3:cad>
          </ns3:TrackPointExtension>
        </extensions>
      </trkpt>
      <trkpt lat="43.4753504209220409393310546875" lon="1.42151537351310253143310546875">
        <ele>174.1999969482421875</ele>
        <time>2026-08-05T11:20:06.000Z</time>
        <extensions>
          <ns3:TrackPointExtension>
            <ns3:hr>83</ns3:hr>
            <ns3:cad>51</ns3:cad>
          </ns3:TrackPointExtension>
        </extensions>
      </trkpt>
      <trkpt lat="43.47535670734941959381103515625" lon="1.421501375734806060791015625">
        <ele>174</ele>
        <time>2026-08-05T11:20:07.000Z</time>
        <extensions>
          <ns3:TrackPointExtension>
            <ns3:hr>84</ns3:hr>
            <ns3:cad>51</ns3:cad>
          </ns3:TrackPointExtension>
        </extensions>
      </trkpt>
      <trkpt lat="43.47536341287195682525634765625" lon="1.4214898087084293365478515625">
        <ele>173.8000030517578125</ele>
        <time>2026-08-05T11:20:08.000Z</time>
        <extensions>
          <ns3:TrackPointExtension>
            <ns3:hr>84</ns3:hr>
            <ns3:cad>52</ns3:cad>
          </ns3:TrackPointExtension>
        </extensions>
      </trkpt>
      <trkpt lat="43.4753691963851451873779296875" lon="1.42147497273981571197509765625">
        <ele>173.8000030517578125</ele>
        <time>2026-08-05T11:20:09.000Z</time>
        <extensions>
          <ns3:TrackPointExtension>
            <ns3:hr>84</ns3:hr>
            <ns3:cad>53</ns3:cad>
          </ns3:TrackPointExtension>
        </extensions>
      </trkpt>
      <trkpt lat="43.47537514753639698028564453125" lon="1.421459801495075225830078125">
        <ele>173.600006103515625</ele>
        <time>2026-08-05T11:20:10.000Z</time>
        <extensions>
          <ns3:TrackPointExtension>
            <ns3:hr>84</ns3:hr>
            <ns3:cad>53</ns3:cad>
          </ns3:TrackPointExtension>
        </extensions>
      </trkpt>
      <trkpt lat="43.475383110344409942626953125" lon="1.42144412733614444732666015625">
        <ele>173.399993896484375</ele>
        <time>2026-08-05T11:20:11.000Z</time>
        <extensions>
          <ns3:TrackPointExtension>
            <ns3:hr>84</ns3:hr>
            <ns3:cad>53</ns3:cad>
          </ns3:TrackPointExtension>
        </extensions>
      </trkpt>
      <trkpt lat="43.47538772039115428924560546875" lon="1.4214331470429897308349609375">
        <ele>173.1999969482421875</ele>
        <time>2026-08-05T11:20:12.000Z</time>
        <extensions>
          <ns3:TrackPointExtension>
            <ns3:hr>84</ns3:hr>
            <ns3:cad>53</ns3:cad>
          </ns3:TrackPointExtension>
        </extensions>
      </trkpt>
      <trkpt lat="43.47539174370467662811279296875" lon="1.42142317257821559906005859375">
        <ele>173</ele>
        <time>2026-08-05T11:20:13.000Z</time>
        <extensions>
          <ns3:TrackPointExtension>
            <ns3:hr>84</ns3:hr>
            <ns3:cad>53</ns3:cad>
          </ns3:TrackPointExtension>
        </extensions>
      </trkpt>
      <trkpt lat="43.47539425827562808990478515625" lon="1.42141412012279033660888671875">
        <ele>172.8000030517578125</ele>
        <time>2026-08-05T11:20:14.000Z</time>
        <extensions>
          <ns3:TrackPointExtension>
            <ns3:hr>84</ns3:hr>
            <ns3:cad>53</ns3:cad>
          </ns3:TrackPointExtension>
        </extensions>
      </trkpt>
      <trkpt lat="43.47540012560784816741943359375" lon="1.421402134001255035400390625">
        <ele>172.600006103515625</ele>
        <time>2026-08-05T11:20:15.000Z</time>
        <extensions>
          <ns3:TrackPointExtension>
            <ns3:hr>84</ns3:hr>
            <ns3:cad>52</ns3:cad>
          </ns3:TrackPointExtension>
        </extensions>
      </trkpt>
      <trkpt lat="43.47540549002587795257568359375" lon="1.42138830386102199554443359375">
        <ele>172.399993896484375</ele>
        <time>2026-08-05T11:20:16.000Z</time>
        <extensions>
          <ns3:TrackPointExtension>
            <ns3:hr>84</ns3:hr>
            <ns3:cad>51</ns3:cad>
          </ns3:TrackPointExtension>
        </extensions>
      </trkpt>
      <trkpt lat="43.4754122793674468994140625" lon="1.42137472517788410186767578125">
        <ele>172.1999969482421875</ele>
        <time>2026-08-05T11:20:17.000Z</time>
        <extensions>
          <ns3:TrackPointExtension>
            <ns3:hr>84</ns3:hr>
            <ns3:cad>52</ns3:cad>
          </ns3:TrackPointExtension>
        </extensions>
      </trkpt>
      <trkpt lat="43.47541906870901584625244140625" lon="1.42136223614215850830078125">
        <ele>172</ele>
        <time>2026-08-05T11:20:18.000Z</time>
        <extensions>
          <ns3:TrackPointExtension>
            <ns3:hr>84</ns3:hr>
            <ns3:cad>52</ns3:cad>
          </ns3:TrackPointExtension>
        </extensions>
      </trkpt>
      <trkpt lat="43.47542644478380680084228515625" lon="1.42134874127805233001708984375">
        <ele>172</ele>
        <time>2026-08-05T11:20:19.000Z</time>
        <extensions>
          <ns3:TrackPointExtension>
            <ns3:hr>84</ns3:hr>
            <ns3:cad>52</ns3:cad>
          </ns3:TrackPointExtension>
        </extensions>
      </trkpt>
      <trkpt lat="43.47543214447796344757080078125" lon="1.42133885063230991363525390625">
        <ele>171.8000030517578125</ele>
        <time>2026-08-05T11:20:20.000Z</time>
        <extensions>
          <ns3:TrackPointExtension>
            <ns3:hr>85</ns3:hr>
            <ns3:cad>52</ns3:cad>
          </ns3:TrackPointExtension>
        </extensions>
      </trkpt>
      <trkpt lat="43.475439436733722686767578125" lon="1.421325020492076873779296875">
        <ele>171.8000030517578125</ele>
        <time>2026-08-05T11:20:21.000Z</time>
        <extensions>
          <ns3:TrackPointExtension>
            <ns3:hr>86</ns3:hr>
            <ns3:cad>52</ns3:cad>
          </ns3:TrackPointExtension>
        </extensions>
      </trkpt>
      <trkpt lat="43.4754476509988307952880859375" lon="1.42131169326603412628173828125">
        <ele>171.600006103515625</ele>
        <time>2026-08-05T11:20:22.000Z</time>
        <extensions>
          <ns3:TrackPointExtension>
            <ns3:hr>86</ns3:hr>
            <ns3:cad>51</ns3:cad>
          </ns3:TrackPointExtension>
        </extensions>
      </trkpt>
      <trkpt lat="43.47545544616878032684326171875" lon="1.42130054533481597900390625">
        <ele>171.399993896484375</ele>
        <time>2026-08-05T11:20:23.000Z</time>
        <extensions>
          <ns3:TrackPointExtension>
            <ns3:hr>86</ns3:hr>
            <ns3:cad>51</ns3:cad>
          </ns3:TrackPointExtension>
        </extensions>
      </trkpt>
      <trkpt lat="43.47546265460550785064697265625" lon="1.421289481222629547119140625">
        <ele>171.1999969482421875</ele>
        <time>2026-08-05T11:20:24.000Z</time>
        <extensions>
          <ns3:TrackPointExtension>
            <ns3:hr>86</ns3:hr>
            <ns3:cad>51</ns3:cad>
          </ns3:TrackPointExtension>
        </extensions>
      </trkpt>
      <trkpt lat="43.47547053359448909759521484375" lon="1.421278081834316253662109375">
        <ele>171</ele>
        <time>2026-08-05T11:20:25.000Z</time>
        <extensions>
          <ns3:TrackPointExtension>
            <ns3:hr>86</ns3:hr>
            <ns3:cad>51</ns3:cad>
          </ns3:TrackPointExtension>
        </extensions>
      </trkpt>
      <trkpt lat="43.47547740675508975982666015625" lon="1.421268023550510406494140625">
        <ele>170.600006103515625</ele>
        <time>2026-08-05T11:20:26.000Z</time>
        <extensions>
          <ns3:TrackPointExtension>
            <ns3:hr>86</ns3:hr>
            <ns3:cad>51</ns3:cad>
          </ns3:TrackPointExtension>
        </extensions>
      </trkpt>
      <trkpt lat="43.47548511810600757598876953125" lon="1.42125737853348255157470703125">
        <ele>170.399993896484375</ele>
        <time>2026-08-05T11:20:27.000Z</time>
        <extensions>
          <ns3:TrackPointExtension>
            <ns3:hr>86</ns3:hr>
            <ns3:cad>52</ns3:cad>
          </ns3:TrackPointExtension>
        </extensions>
      </trkpt>
      <trkpt lat="43.47549232654273509979248046875" lon="1.42124715261161327362060546875">
        <ele>170.1999969482421875</ele>
        <time>2026-08-05T11:20:28.000Z</time>
        <extensions>
          <ns3:TrackPointExtension>
            <ns3:hr>86</ns3:hr>
            <ns3:cad>53</ns3:cad>
          </ns3:TrackPointExtension>
        </extensions>
      </trkpt>
      <trkpt lat="43.47550020553171634674072265625" lon="1.4212349988520145416259765625">
        <ele>170</ele>
        <time>2026-08-05T11:20:29.000Z</time>
        <extensions>
          <ns3:TrackPointExtension>
            <ns3:hr>86</ns3:hr>
            <ns3:cad>53</ns3:cad>
          </ns3:TrackPointExtension>
        </extensions>
      </trkpt>
      <trkpt lat="43.4755093418061733245849609375" lon="1.42122276127338409423828125">
        <ele>170</ele>
        <time>2026-08-05T11:20:30.000Z</time>
        <extensions>
          <ns3:TrackPointExtension>
            <ns3:hr>87</ns3:hr>
            <ns3:cad>53</ns3:cad>
          </ns3:TrackPointExtension>
        </extensions>
      </trkpt>
      <trkpt lat="43.4755173884332180023193359375" lon="1.42121027223765850067138671875">
        <ele>169.8000030517578125</ele>
        <time>2026-08-05T11:20:31.000Z</time>
        <extensions>
          <ns3:TrackPointExtension>
            <ns3:hr>87</ns3:hr>
            <ns3:cad>53</ns3:cad>
          </ns3:TrackPointExtension>
        </extensions>
      </trkpt>
      <trkpt lat="43.47552535124123096466064453125" lon="1.42119836993515491485595703125">
        <ele>169.600006103515625</ele>
        <time>2026-08-05T11:20:32.000Z</time>
        <extensions>
          <ns3:TrackPointExtension>
            <ns3:hr>87</ns3:hr>
            <ns3:cad>52</ns3:cad>
          </ns3:TrackPointExtension>
        </extensions>
      </trkpt>
      <trkpt lat="43.475532643496990203857421875" lon="1.42118780873715877532958984375">
        <ele>169.600006103515625</ele>
        <time>2026-08-05T11:20:33.000Z</time>
        <extensions>
          <ns3:TrackPointExtension>
            <ns3:hr>86</ns3:hr>
            <ns3:cad>52</ns3:cad>
          </ns3:TrackPointExtension>
        </extensions>
      </trkpt>
      <trkpt lat="43.47553725354373455047607421875" lon="1.4211751520633697509765625">
        <ele>169.399993896484375</ele>
        <time>2026-08-05T11:20:34.000Z</time>
        <extensions>
          <ns3:TrackPointExtension>
            <ns3:hr>86</ns3:hr>
            <ns3:cad>52</ns3:cad>
          </ns3:TrackPointExtension>
        </extensions>
      </trkpt>
      <trkpt lat="43.47554312087595462799072265625" lon="1.42116316594183444976806640625">
        <ele>169.1999969482421875</ele>
        <time>2026-08-05T11:20:35.000Z</time>
        <extensions>
          <ns3:TrackPointExtension>
            <ns3:hr>86</ns3:hr>
            <ns3:cad>52</ns3:cad>
          </ns3:TrackPointExtension>
        </extensions>
      </trkpt>
      <trkpt lat="43.47554965876042842864990234375" lon="1.4211498387157917022705078125">
        <ele>169</ele>
        <time>2026-08-05T11:20:36.000Z</time>
        <extensions>
          <ns3:TrackPointExtension>
            <ns3:hr>86</ns3:hr>
            <ns3:cad>52</ns3:cad>
          </ns3:TrackPointExtension>
        </extensions>
      </trkpt>
      <trkpt lat="43.4755549393594264984130859375" lon="1.42113693058490753173828125">
        <ele>168.8000030517578125</ele>
        <time>2026-08-05T11:20:37.000Z</time>
        <extensions>
          <ns3:TrackPointExtension>
            <ns3:hr>86</ns3:hr>
            <ns3:cad>52</ns3:cad>
          </ns3:TrackPointExtension>
        </extensions>
      </trkpt>
      <trkpt lat="43.47555954940617084503173828125" lon="1.4211273752152919769287109375">
        <ele>168.600006103515625</ele>
        <time>2026-08-05T11:20:38.000Z</time>
        <extensions>
          <ns3:TrackPointExtension>
            <ns3:hr>86</ns3:hr>
            <ns3:cad>52</ns3:cad>
          </ns3:TrackPointExtension>
        </extensions>
      </trkpt>
      <trkpt lat="43.4755670092999935150146484375" lon="1.42111220397055149078369140625">
        <ele>168.399993896484375</ele>
        <time>2026-08-05T11:20:39.000Z</time>
        <extensions>
          <ns3:TrackPointExtension>
            <ns3:hr>85</ns3:hr>
            <ns3:cad>52</ns3:cad>
          </ns3:TrackPointExtension>
        </extensions>
      </trkpt>
      <trkpt lat="43.47557254135608673095703125" lon="1.42110063694417476654052734375">
        <ele>168.399993896484375</ele>
        <time>2026-08-05T11:20:40.000Z</time>
        <extensions>
          <ns3:TrackPointExtension>
            <ns3:hr>85</ns3:hr>
            <ns3:cad>51</ns3:cad>
          </ns3:TrackPointExtension>
        </extensions>
      </trkpt>
      <trkpt lat="43.47557832486927509307861328125" lon="1.421088315546512603759765625">
        <ele>168.1999969482421875</ele>
        <time>2026-08-05T11:20:41.000Z</time>
        <extensions>
          <ns3:TrackPointExtension>
            <ns3:hr>85</ns3:hr>
            <ns3:cad>51</ns3:cad>
          </ns3:TrackPointExtension>
        </extensions>
      </trkpt>
      <trkpt lat="43.47558419220149517059326171875" lon="1.42107984982430934906005859375">
        <ele>168</ele>
        <time>2026-08-05T11:20:42.000Z</time>
        <extensions>
          <ns3:TrackPointExtension>
            <ns3:hr>85</ns3:hr>
            <ns3:cad>52</ns3:cad>
          </ns3:TrackPointExtension>
        </extensions>
      </trkpt>
      <trkpt lat="43.47559131681919097900390625" lon="1.421069540083408355712890625">
        <ele>167.8000030517578125</ele>
        <time>2026-08-05T11:20:43.000Z</time>
        <extensions>
          <ns3:TrackPointExtension>
            <ns3:hr>86</ns3:hr>
            <ns3:cad>52</ns3:cad>
          </ns3:TrackPointExtension>
        </extensions>
      </trkpt>
      <trkpt lat="43.47559927962720394134521484375" lon="1.42105369828641414642333984375">
        <ele>167.600006103515625</ele>
        <time>2026-08-05T11:20:44.000Z</time>
        <extensions>
          <ns3:TrackPointExtension>
            <ns3:hr>86</ns3:hr>
            <ns3:cad>52</ns3:cad>
          </ns3:TrackPointExtension>
        </extensions>
      </trkpt>
      <trkpt lat="43.4756025485694408416748046875" lon="1.4210388623178005218505859375">
        <ele>167.399993896484375</ele>
        <time>2026-08-05T11:20:45.000Z</time>
        <extensions>
          <ns3:TrackPointExtension>
            <ns3:hr>86</ns3:hr>
            <ns3:cad>53</ns3:cad>
          </ns3:TrackPointExtension>
        </extensions>
      </trkpt>
      <trkpt lat="43.4756082482635974884033203125" lon="1.42102872021496295928955078125">
        <ele>167.1999969482421875</ele>
        <time>2026-08-05T11:20:46.000Z</time>
        <extensions>
          <ns3:TrackPointExtension>
            <ns3:hr>86</ns3:hr>
            <ns3:cad>53</ns3:cad>
          </ns3:TrackPointExtension>
        </extensions>
      </trkpt>
      <trkpt lat="43.4756146185100078582763671875" lon="1.4210170693695545196533203125">
        <ele>167</ele>
        <time>2026-08-05T11:20:47.000Z</time>
        <extensions>
          <ns3:TrackPointExtension>
            <ns3:hr>85</ns3:hr>
            <ns3:cad>54</ns3:cad>
          </ns3:TrackPointExtension>
        </extensions>
      </trkpt>
      <trkpt lat="43.47561906091868877410888671875" lon="1.42100726254284381866455078125">
        <ele>166.8000030517578125</ele>
        <time>2026-08-05T11:20:48.000Z</time>
        <extensions>
          <ns3:TrackPointExtension>
            <ns3:hr>85</ns3:hr>
            <ns3:cad>54</ns3:cad>
          </ns3:TrackPointExtension>
        </extensions>
      </trkpt>
      <trkpt lat="43.4756253473460674285888671875" lon="1.42099971882998943328857421875">
        <ele>166.399993896484375</ele>
        <time>2026-08-05T11:20:49.000Z</time>
        <extensions>
          <ns3:TrackPointExtension>
            <ns3:hr>85</ns3:hr>
            <ns3:cad>54</ns3:cad>
          </ns3:TrackPointExtension>
        </extensions>
      </trkpt>
      <trkpt lat="43.47563213668763637542724609375" lon="1.4209909178316593170166015625">
        <ele>166.1999969482421875</ele>
        <time>2026-08-05T11:20:50.000Z</time>
        <extensions>
          <ns3:TrackPointExtension>
            <ns3:hr>86</ns3:hr>
            <ns3:cad>53</ns3:cad>
          </ns3:TrackPointExtension>
        </extensions>
      </trkpt>
      <trkpt lat="43.4756394289433956146240234375" lon="1.42097993753850460052490234375">
        <ele>166</ele>
        <time>2026-08-05T11:20:51.000Z</time>
        <extensions>
          <ns3:TrackPointExtension>
            <ns3:hr>85</ns3:hr>
            <ns3:cad>53</ns3:cad>
          </ns3:TrackPointExtension>
        </extensions>
      </trkpt>
      <trkpt lat="43.475645296275615692138671875" lon="1.42096753232181072235107421875">
        <ele>165.8000030517578125</ele>
        <time>2026-08-05T11:20:52.000Z</time>
        <extensions>
          <ns3:TrackPointExtension>
            <ns3:hr>85</ns3:hr>
            <ns3:cad>52</ns3:cad>
          </ns3:TrackPointExtension>
        </extensions>
      </trkpt>
      <trkpt lat="43.47565225325524806976318359375" lon="1.42095579765737056732177734375">
        <ele>165.600006103515625</ele>
        <time>2026-08-05T11:20:53.000Z</time>
        <extensions>
          <ns3:TrackPointExtension>
            <ns3:hr>86</ns3:hr>
            <ns3:cad>52</ns3:cad>
          </ns3:TrackPointExtension>
        </extensions>
      </trkpt>
      <trkpt lat="43.4756568633019924163818359375" lon="1.420943476259708404541015625">
        <ele>165.399993896484375</ele>
        <time>2026-08-05T11:20:54.000Z</time>
        <extensions>
          <ns3:TrackPointExtension>
            <ns3:hr>85</ns3:hr>
            <ns3:cad>52</ns3:cad>
          </ns3:TrackPointExtension>
        </extensions>
      </trkpt>
      <trkpt lat="43.475660048425197601318359375" lon="1.42093031667172908782958984375">
        <ele>165.399993896484375</ele>
        <time>2026-08-05T11:20:55.000Z</time>
        <extensions>
          <ns3:TrackPointExtension>
            <ns3:hr>85</ns3:hr>
            <ns3:cad>52</ns3:cad>
          </ns3:TrackPointExtension>
        </extensions>
      </trkpt>
      <trkpt lat="43.47566700540482997894287109375" lon="1.420917995274066925048828125">
        <ele>165.1999969482421875</ele>
        <time>2026-08-05T11:20:56.000Z</time>
        <extensions>
          <ns3:TrackPointExtension>
            <ns3:hr>85</ns3:hr>
            <ns3:cad>53</ns3:cad>
          </ns3:TrackPointExtension>
        </extensions>
      </trkpt>
      <trkpt lat="43.47567236982285976409912109375" lon="1.42090718261897563934326171875">
        <ele>165</ele>
        <time>2026-08-05T11:20:57.000Z</time>
        <extensions>
          <ns3:TrackPointExtension>
            <ns3:hr>85</ns3:hr>
            <ns3:cad>53</ns3:cad>
          </ns3:TrackPointExtension>
        </extensions>
      </trkpt>
      <trkpt lat="43.47567773424088954925537109375" lon="1.4208956994116306304931640625">
        <ele>165</ele>
        <time>2026-08-05T11:20:58.000Z</time>
        <extensions>
          <ns3:TrackPointExtension>
            <ns3:hr>84</ns3:hr>
            <ns3:cad>53</ns3:cad>
          </ns3:TrackPointExtension>
        </extensions>
      </trkpt>
      <trkpt lat="43.47568293102085590362548828125" lon="1.4208829589188098907470703125">
        <ele>164.8000030517578125</ele>
        <time>2026-08-05T11:20:59.000Z</time>
        <extensions>
          <ns3:TrackPointExtension>
            <ns3:hr>84</ns3:hr>
            <ns3:cad>53</ns3:cad>
          </ns3:TrackPointExtension>
        </extensions>
      </trkpt>
      <trkpt lat="43.47568745724856853485107421875" lon="1.42086912877857685089111328125">
        <ele>164.8000030517578125</ele>
        <time>2026-08-05T11:21:00.000Z</time>
        <extensions>
          <ns3:TrackPointExtension>
            <ns3:hr>84</ns3:hr>
            <ns3:cad>52</ns3:cad>
          </ns3:TrackPointExtension>
        </extensions>
      </trkpt>
      <trkpt lat="43.47569148056209087371826171875" lon="1.4208568073809146881103515625">
        <ele>164.600006103515625</ele>
        <time>2026-08-05T11:21:01.000Z</time>
        <extensions>
          <ns3:TrackPointExtension>
            <ns3:hr>84</ns3:hr>
            <ns3:cad>52</ns3:cad>
          </ns3:TrackPointExtension>
        </extensions>
      </trkpt>
      <trkpt lat="43.4756965935230255126953125" lon="1.4208454079926013946533203125">
        <ele>164.399993896484375</ele>
        <time>2026-08-05T11:21:02.000Z</time>
        <extensions>
          <ns3:TrackPointExtension>
            <ns3:hr>84</ns3:hr>
            <ns3:cad>53</ns3:cad>
          </ns3:TrackPointExtension>
        </extensions>
      </trkpt>
      <trkpt lat="43.4757011197507381439208984375" lon="1.420833170413970947265625">
        <ele>164.1999969482421875</ele>
        <time>2026-08-05T11:21:03.000Z</time>
        <extensions>
          <ns3:TrackPointExtension>
            <ns3:hr>84</ns3:hr>
            <ns3:cad>53</ns3:cad>
          </ns3:TrackPointExtension>
        </extensions>
      </trkpt>
      <trkpt lat="43.47570757381618022918701171875" lon="1.4208216033875942230224609375">
        <ele>164</ele>
        <time>2026-08-05T11:21:04.000Z</time>
        <extensions>
          <ns3:TrackPointExtension>
            <ns3:hr>84</ns3:hr>
            <ns3:cad>53</ns3:cad>
          </ns3:TrackPointExtension>
        </extensions>
      </trkpt>
      <trkpt lat="43.47571293823421001434326171875" lon="1.4208115451037883758544921875">
        <ele>164</ele>
        <time>2026-08-05T11:21:05.000Z</time>
        <extensions>
          <ns3:TrackPointExtension>
            <ns3:hr>85</ns3:hr>
            <ns3:cad>53</ns3:cad>
          </ns3:TrackPointExtension>
        </extensions>
      </trkpt>
      <trkpt lat="43.47571947611868381500244140625" lon="1.4208018220961093902587890625">
        <ele>163.8000030517578125</ele>
        <time>2026-08-05T11:21:06.000Z</time>
        <extensions>
          <ns3:TrackPointExtension>
            <ns3:hr>84</ns3:hr>
            <ns3:cad>53</ns3:cad>
          </ns3:TrackPointExtension>
        </extensions>
      </trkpt>
      <trkpt lat="43.47572601400315761566162109375" lon="1.42078983597457408905029296875">
        <ele>163.600006103515625</ele>
        <time>2026-08-05T11:21:07.000Z</time>
        <extensions>
          <ns3:TrackPointExtension>
            <ns3:hr>84</ns3:hr>
            <ns3:cad>53</ns3:cad>
          </ns3:TrackPointExtension>
        </extensions>
      </trkpt>
      <trkpt lat="43.4757319651544094085693359375" lon="1.42077961005270481109619140625">
        <ele>163.600006103515625</ele>
        <time>2026-08-05T11:21:08.000Z</time>
        <extensions>
          <ns3:TrackPointExtension>
            <ns3:hr>84</ns3:hr>
            <ns3:cad>53</ns3:cad>
          </ns3:TrackPointExtension>
        </extensions>
      </trkpt>
      <trkpt lat="43.47573908977210521697998046875" lon="1.420769803225994110107421875">
        <ele>163.399993896484375</ele>
        <time>2026-08-05T11:21:09.000Z</time>
        <extensions>
          <ns3:TrackPointExtension>
            <ns3:hr>83</ns3:hr>
            <ns3:cad>53</ns3:cad>
          </ns3:TrackPointExtension>
        </extensions>
      </trkpt>
      <trkpt lat="43.47574613057076930999755859375" lon="1.4207612536847591400146484375">
        <ele>163.399993896484375</ele>
        <time>2026-08-05T11:21:10.000Z</time>
        <extensions>
          <ns3:TrackPointExtension>
            <ns3:hr>84</ns3:hr>
            <ns3:cad>53</ns3:cad>
          </ns3:TrackPointExtension>
        </extensions>
      </trkpt>
      <trkpt lat="43.4757537581026554107666015625" lon="1.42075069248676300048828125">
        <ele>163.1999969482421875</ele>
        <time>2026-08-05T11:21:11.000Z</time>
        <extensions>
          <ns3:TrackPointExtension>
            <ns3:hr>84</ns3:hr>
            <ns3:cad>53</ns3:cad>
          </ns3:TrackPointExtension>
        </extensions>
      </trkpt>
      <trkpt lat="43.475762307643890380859375" lon="1.42074130475521087646484375">
        <ele>163</ele>
        <time>2026-08-05T11:21:12.000Z</time>
        <extensions>
          <ns3:TrackPointExtension>
            <ns3:hr>84</ns3:hr>
            <ns3:cad>53</ns3:cad>
          </ns3:TrackPointExtension>
        </extensions>
      </trkpt>
      <trkpt lat="43.47576842643320560455322265625" lon="1.4207299053668975830078125">
        <ele>162.8000030517578125</ele>
        <time>2026-08-05T11:21:13.000Z</time>
        <extensions>
          <ns3:TrackPointExtension>
            <ns3:hr>84</ns3:hr>
            <ns3:cad>51</ns3:cad>
          </ns3:TrackPointExtension>
        </extensions>
      </trkpt>
      <trkpt lat="43.4757743775844573974609375" lon="1.420716159045696258544921875">
        <ele>162.600006103515625</ele>
        <time>2026-08-05T11:21:14.000Z</time>
        <extensions>
          <ns3:TrackPointExtension>
            <ns3:hr>84</ns3:hr>
            <ns3:cad>51</ns3:cad>
          </ns3:TrackPointExtension>
        </extensions>
      </trkpt>
      <trkpt lat="43.47578183747828006744384765625" lon="1.42070266418159008026123046875">
        <ele>162.399993896484375</ele>
        <time>2026-08-05T11:21:15.000Z</time>
        <extensions>
          <ns3:TrackPointExtension>
            <ns3:hr>83</ns3:hr>
            <ns3:cad>52</ns3:cad>
          </ns3:TrackPointExtension>
        </extensions>
      </trkpt>
      <trkpt lat="43.47578736953437328338623046875" lon="1.42069428227841854095458984375">
        <ele>162.1999969482421875</ele>
        <time>2026-08-05T11:21:16.000Z</time>
        <extensions>
          <ns3:TrackPointExtension>
            <ns3:hr>83</ns3:hr>
            <ns3:cad>52</ns3:cad>
          </ns3:TrackPointExtension>
        </extensions>
      </trkpt>
      <trkpt lat="43.475793488323688507080078125" lon="1.42068564891815185546875">
        <ele>162.1999969482421875</ele>
        <time>2026-08-05T11:21:17.000Z</time>
        <extensions>
          <ns3:TrackPointExtension>
            <ns3:hr>84</ns3:hr>
            <ns3:cad>52</ns3:cad>
          </ns3:TrackPointExtension>
        </extensions>
      </trkpt>
      <trkpt lat="43.4758000262081623077392578125" lon="1.4206767641007900238037109375">
        <ele>162</ele>
        <time>2026-08-05T11:21:18.000Z</time>
        <extensions>
          <ns3:TrackPointExtension>
            <ns3:hr>84</ns3:hr>
            <ns3:cad>52</ns3:cad>
          </ns3:TrackPointExtension>
        </extensions>
      </trkpt>
      <trkpt lat="43.47580497153103351593017578125" lon="1.42066729255020618438720703125">
        <ele>162</ele>
        <time>2026-08-05T11:21:19.000Z</time>
        <extensions>
          <ns3:TrackPointExtension>
            <ns3:hr>84</ns3:hr>
            <ns3:cad>53</ns3:cad>
          </ns3:TrackPointExtension>
        </extensions>
      </trkpt>
      <trkpt lat="43.47581134177744388580322265625" lon="1.42065689899027347564697265625">
        <ele>161.8000030517578125</ele>
        <time>2026-08-05T11:21:20.000Z</time>
        <extensions>
          <ns3:TrackPointExtension>
            <ns3:hr>84</ns3:hr>
            <ns3:cad>53</ns3:cad>
          </ns3:TrackPointExtension>
        </extensions>
      </trkpt>
      <trkpt lat="43.47582140006124973297119140625" lon="1.4206445775926113128662109375">
        <ele>161.8000030517578125</ele>
        <time>2026-08-05T11:21:21.000Z</time>
        <extensions>
          <ns3:TrackPointExtension>
            <ns3:hr>84</ns3:hr>
            <ns3:cad>53</ns3:cad>
          </ns3:TrackPointExtension>
        </extensions>
      </trkpt>
      <trkpt lat="43.4758312068879604339599609375" lon="1.420631669461727142333984375">
        <ele>161.600006103515625</ele>
        <time>2026-08-05T11:21:22.000Z</time>
        <extensions>
          <ns3:TrackPointExtension>
            <ns3:hr>84</ns3:hr>
            <ns3:cad>52</ns3:cad>
          </ns3:TrackPointExtension>
        </extensions>
      </trkpt>
      <trkpt lat="43.47583849914371967315673828125" lon="1.4206226170063018798828125">
        <ele>161.600006103515625</ele>
        <time>2026-08-05T11:21:23.000Z</time>
        <extensions>
          <ns3:TrackPointExtension>
            <ns3:hr>84</ns3:hr>
            <ns3:cad>52</ns3:cad>
          </ns3:TrackPointExtension>
        </extensions>
      </trkpt>
      <trkpt lat="43.47584612667560577392578125" lon="1.420612223446369171142578125">
        <ele>161.399993896484375</ele>
        <time>2026-08-05T11:21:24.000Z</time>
        <extensions>
          <ns3:TrackPointExtension>
            <ns3:hr>85</ns3:hr>
            <ns3:cad>51</ns3:cad>
          </ns3:TrackPointExtension>
        </extensions>
      </trkpt>
      <trkpt lat="43.47585442475974559783935546875" lon="1.42060359008610248565673828125">
        <ele>161.399993896484375</ele>
        <time>2026-08-05T11:21:25.000Z</time>
        <extensions>
          <ns3:TrackPointExtension>
            <ns3:hr>85</ns3:hr>
            <ns3:cad>51</ns3:cad>
          </ns3:TrackPointExtension>
        </extensions>
      </trkpt>
      <trkpt lat="43.47586079500615596771240234375" lon="1.4205952920019626617431640625">
        <ele>161.399993896484375</ele>
        <time>2026-08-05T11:21:26.000Z</time>
        <extensions>
          <ns3:TrackPointExtension>
            <ns3:hr>86</ns3:hr>
            <ns3:cad>51</ns3:cad>
          </ns3:TrackPointExtension>
        </extensions>
      </trkpt>
      <trkpt lat="43.475864566862583160400390625" lon="1.42058883793652057647705078125">
        <ele>161.1999969482421875</ele>
        <time>2026-08-05T11:21:27.000Z</time>
        <extensions>
          <ns3:TrackPointExtension>
            <ns3:hr>87</ns3:hr>
            <ns3:cad>51</ns3:cad>
          </ns3:TrackPointExtension>
        </extensions>
      </trkpt>
      <trkpt lat="43.475869931280612945556640625" lon="1.42058380879461765289306640625">
        <ele>161.1999969482421875</ele>
        <time>2026-08-05T11:21:28.000Z</time>
        <extensions>
          <ns3:TrackPointExtension>
            <ns3:hr>87</ns3:hr>
            <ns3:cad>49</ns3:cad>
          </ns3:TrackPointExtension>
        </extensions>
      </trkpt>
      <trkpt lat="43.4758774749934673309326171875" lon="1.4205798693001270294189453125">
        <ele>161.1999969482421875</ele>
        <time>2026-08-05T11:21:29.000Z</time>
        <extensions>
          <ns3:TrackPointExtension>
            <ns3:hr>88</ns3:hr>
            <ns3:cad>49</ns3:cad>
          </ns3:TrackPointExtension>
        </extensions>
      </trkpt>
      <trkpt lat="43.4758912213146686553955078125" lon="1.4205708168447017669677734375">
        <ele>161.1999969482421875</ele>
        <time>2026-08-05T11:21:30.000Z</time>
        <extensions>
          <ns3:TrackPointExtension>
            <ns3:hr>88</ns3:hr>
            <ns3:cad>49</ns3:cad>
          </ns3:TrackPointExtension>
        </extensions>
      </trkpt>
      <trkpt lat="43.47590102814137935638427734375" lon="1.42056218348443508148193359375">
        <ele>161.1999969482421875</ele>
        <time>2026-08-05T11:21:31.000Z</time>
        <extensions>
          <ns3:TrackPointExtension>
            <ns3:hr>88</ns3:hr>
            <ns3:cad>49</ns3:cad>
          </ns3:TrackPointExtension>
        </extensions>
      </trkpt>
      <trkpt lat="43.4759089909493923187255859375" lon="1.42055531032383441925048828125">
        <ele>161.399993896484375</ele>
        <time>2026-08-05T11:21:32.000Z</time>
        <extensions>
          <ns3:TrackPointExtension>
            <ns3:hr>88</ns3:hr>
            <ns3:cad>47</ns3:cad>
          </ns3:TrackPointExtension>
        </extensions>
      </trkpt>
      <trkpt lat="43.4759167023003101348876953125" lon="1.42054416239261627197265625">
        <ele>161.399993896484375</ele>
        <time>2026-08-05T11:21:33.000Z</time>
        <extensions>
          <ns3:TrackPointExtension>
            <ns3:hr>88</ns3:hr>
            <ns3:cad>46</ns3:cad>
          </ns3:TrackPointExtension>
        </extensions>
      </trkpt>
      <trkpt lat="43.47592483274638652801513671875" lon="1.42053100280463695526123046875">
        <ele>161.399993896484375</ele>
        <time>2026-08-05T11:21:34.000Z</time>
        <extensions>
          <ns3:TrackPointExtension>
            <ns3:hr>87</ns3:hr>
            <ns3:cad>45</ns3:cad>
          </ns3:TrackPointExtension>
        </extensions>
      </trkpt>
      <trkpt lat="43.47593271173536777496337890625" lon="1.4205211959779262542724609375">
        <ele>161.399993896484375</ele>
        <time>2026-08-05T11:21:35.000Z</time>
        <extensions>
          <ns3:TrackPointExtension>
            <ns3:hr>87</ns3:hr>
            <ns3:cad>44</ns3:cad>
          </ns3:TrackPointExtension>
        </extensions>
      </trkpt>
      <trkpt lat="43.47593908198177814483642578125" lon="1.42051105387508869171142578125">
        <ele>161.399993896484375</ele>
        <time>2026-08-05T11:21:36.000Z</time>
        <extensions>
          <ns3:TrackPointExtension>
            <ns3:hr>87</ns3:hr>
            <ns3:cad>44</ns3:cad>
          </ns3:TrackPointExtension>
        </extensions>
      </trkpt>
      <trkpt lat="43.47594293765723705291748046875" lon="1.42049998976290225982666015625">
        <ele>161.600006103515625</ele>
        <time>2026-08-05T11:21:37.000Z</time>
        <extensions>
          <ns3:TrackPointExtension>
            <ns3:hr>86</ns3:hr>
            <ns3:cad>44</ns3:cad>
          </ns3:TrackPointExtension>
        </extensions>
      </trkpt>
      <trkpt lat="43.47594696097075939178466796875" lon="1.42048758454620838165283203125">
        <ele>161.600006103515625</ele>
        <time>2026-08-05T11:21:38.000Z</time>
        <extensions>
          <ns3:TrackPointExtension>
            <ns3:hr>87</ns3:hr>
            <ns3:cad>44</ns3:cad>
          </ns3:TrackPointExtension>
        </extensions>
      </trkpt>
      <trkpt lat="43.4759472124278545379638671875" lon="1.4204745925962924957275390625">
        <ele>161.600006103515625</ele>
        <time>2026-08-05T11:21:39.000Z</time>
        <extensions>
          <ns3:TrackPointExtension>
            <ns3:hr>87</ns3:hr>
            <ns3:cad>44</ns3:cad>
          </ns3:TrackPointExtension>
        </extensions>
      </trkpt>
      <trkpt lat="43.47594696097075939178466796875" lon="1.4204631932079792022705078125">
        <ele>161.399993896484375</ele>
        <time>2026-08-05T11:21:40.000Z</time>
        <extensions>
          <ns3:TrackPointExtension>
            <ns3:hr>87</ns3:hr>
            <ns3:cad>44</ns3:cad>
          </ns3:TrackPointExtension>
        </extensions>
      </trkpt>
      <trkpt lat="43.47594696097075939178466796875" lon="1.42045003361999988555908203125">
        <ele>161.399993896484375</ele>
        <time>2026-08-05T11:21:41.000Z</time>
        <extensions>
          <ns3:TrackPointExtension>
            <ns3:hr>87</ns3:hr>
            <ns3:cad>44</ns3:cad>
          </ns3:TrackPointExtension>
        </extensions>
      </trkpt>
      <trkpt lat="43.47594277001917362213134765625" lon="1.4204367063939571380615234375">
        <ele>161.1999969482421875</ele>
        <time>2026-08-05T11:21:42.000Z</time>
        <extensions>
          <ns3:TrackPointExtension>
            <ns3:hr>87</ns3:hr>
            <ns3:cad>44</ns3:cad>
          </ns3:TrackPointExtension>
        </extensions>
      </trkpt>
      <trkpt lat="43.475939668715000152587890625" lon="1.42042136751115322113037109375">
        <ele>161.1999969482421875</ele>
        <time>2026-08-05T11:21:43.000Z</time>
        <extensions>
          <ns3:TrackPointExtension>
            <ns3:hr>87</ns3:hr>
            <ns3:cad>46</ns3:cad>
          </ns3:TrackPointExtension>
        </extensions>
      </trkpt>
      <trkpt lat="43.47593732178211212158203125" lon="1.42040745355188846588134765625">
        <ele>161</ele>
        <time>2026-08-05T11:21:44.000Z</time>
        <extensions>
          <ns3:TrackPointExtension>
            <ns3:hr>87</ns3:hr>
            <ns3:cad>47</ns3:cad>
          </ns3:TrackPointExtension>
        </extensions>
      </trkpt>
      <trkpt lat="43.47593271173536777496337890625" lon="1.42039320431649684906005859375">
        <ele>161</ele>
        <time>2026-08-05T11:21:45.000Z</time>
        <extensions>
          <ns3:TrackPointExtension>
            <ns3:hr>86</ns3:hr>
            <ns3:cad>47</ns3:cad>
          </ns3:TrackPointExtension>
        </extensions>
      </trkpt>
      <trkpt lat="43.47592734731733798980712890625" lon="1.4203770272433757781982421875">
        <ele>160.8000030517578125</ele>
        <time>2026-08-05T11:21:46.000Z</time>
        <extensions>
          <ns3:TrackPointExtension>
            <ns3:hr>86</ns3:hr>
            <ns3:cad>47</ns3:cad>
          </ns3:TrackPointExtension>
        </extensions>
      </trkpt>
      <trkpt lat="43.47592147998511791229248046875" lon="1.42036386765539646148681640625">
        <ele>160.8000030517578125</ele>
        <time>2026-08-05T11:21:47.000Z</time>
        <extensions>
          <ns3:TrackPointExtension>
            <ns3:hr>86</ns3:hr>
            <ns3:cad>50</ns3:cad>
          </ns3:TrackPointExtension>
        </extensions>
      </trkpt>
      <trkpt lat="43.47591695375740528106689453125" lon="1.42035246826708316802978515625">
        <ele>160.600006103515625</ele>
        <time>2026-08-05T11:21:48.000Z</time>
        <extensions>
          <ns3:TrackPointExtension>
            <ns3:hr>86</ns3:hr>
            <ns3:cad>50</ns3:cad>
          </ns3:TrackPointExtension>
        </extensions>
      </trkpt>
      <trkpt lat="43.4759146906435489654541015625" lon="1.42034157179296016693115234375">
        <ele>160.399993896484375</ele>
        <time>2026-08-05T11:21:49.000Z</time>
        <extensions>
          <ns3:TrackPointExtension>
            <ns3:hr>85</ns3:hr>
            <ns3:cad>51</ns3:cad>
          </ns3:TrackPointExtension>
        </extensions>
      </trkpt>
      <trkpt lat="43.475912511348724365234375" lon="1.4203284122049808502197265625">
        <ele>160.399993896484375</ele>
        <time>2026-08-05T11:21:50.000Z</time>
        <extensions>
          <ns3:TrackPointExtension>
            <ns3:hr>85</ns3:hr>
            <ns3:cad>51</ns3:cad>
          </ns3:TrackPointExtension>
        </extensions>
      </trkpt>
      <trkpt lat="43.47590823657810688018798828125" lon="1.420317851006984710693359375">
        <ele>160.1999969482421875</ele>
        <time>2026-08-05T11:21:51.000Z</time>
        <extensions>
          <ns3:TrackPointExtension>
            <ns3:hr>85</ns3:hr>
            <ns3:cad>51</ns3:cad>
          </ns3:TrackPointExtension>
        </extensions>
      </trkpt>
      <trkpt lat="43.4759009443223476409912109375" lon="1.4203039370477199554443359375">
        <ele>160</ele>
        <time>2026-08-05T11:21:52.000Z</time>
        <extensions>
          <ns3:TrackPointExtension>
            <ns3:hr>86</ns3:hr>
            <ns3:cad>51</ns3:cad>
          </ns3:TrackPointExtension>
        </extensions>
      </trkpt>
      <trkpt lat="43.47589532844722270965576171875" lon="1.4202925376594066619873046875">
        <ele>159.8000030517578125</ele>
        <time>2026-08-05T11:21:53.000Z</time>
        <extensions>
          <ns3:TrackPointExtension>
            <ns3:hr>86</ns3:hr>
            <ns3:cad>51</ns3:cad>
          </ns3:TrackPointExtension>
        </extensions>
      </trkpt>
      <trkpt lat="43.47589046694338321685791015625" lon="1.420281641185283660888671875">
        <ele>159.8000030517578125</ele>
        <time>2026-08-05T11:21:54.000Z</time>
        <extensions>
          <ns3:TrackPointExtension>
            <ns3:hr>86</ns3:hr>
            <ns3:cad>50</ns3:cad>
          </ns3:TrackPointExtension>
        </extensions>
      </trkpt>
      <trkpt lat="43.475888036191463470458984375" lon="1.4202714152634143829345703125">
        <ele>159.600006103515625</ele>
        <time>2026-08-05T11:21:55.000Z</time>
        <extensions>
          <ns3:TrackPointExtension>
            <ns3:hr>86</ns3:hr>
            <ns3:cad>50</ns3:cad>
          </ns3:TrackPointExtension>
        </extensions>
      </trkpt>
      <trkpt lat="43.475881330668926239013671875" lon="1.4202583394944667816162109375">
        <ele>159.399993896484375</ele>
        <time>2026-08-05T11:21:56.000Z</time>
        <extensions>
          <ns3:TrackPointExtension>
            <ns3:hr>85</ns3:hr>
            <ns3:cad>50</ns3:cad>
          </ns3:TrackPointExtension>
        </extensions>
      </trkpt>
      <trkpt lat="43.4758771397173404693603515625" lon="1.42024316824972629547119140625">
        <ele>159.399993896484375</ele>
        <time>2026-08-05T11:21:57.000Z</time>
        <extensions>
          <ns3:TrackPointExtension>
            <ns3:hr>86</ns3:hr>
            <ns3:cad>50</ns3:cad>
          </ns3:TrackPointExtension>
        </extensions>
      </trkpt>
      <trkpt lat="43.4758721105754375457763671875" lon="1.42023076303303241729736328125">
        <ele>159.1999969482421875</ele>
        <time>2026-08-05T11:21:58.000Z</time>
        <extensions>
          <ns3:TrackPointExtension>
            <ns3:hr>86</ns3:hr>
            <ns3:cad>51</ns3:cad>
          </ns3:TrackPointExtension>
        </extensions>
      </trkpt>
      <trkpt lat="43.47586716525256633758544921875" lon="1.4202201180160045623779296875">
        <ele>159</ele>
        <time>2026-08-05T11:21:59.000Z</time>
        <extensions>
          <ns3:TrackPointExtension>
            <ns3:hr>86</ns3:hr>
            <ns3:cad>52</ns3:cad>
          </ns3:TrackPointExtension>
        </extensions>
      </trkpt>
      <trkpt lat="43.47586431540548801422119140625" lon="1.42020595259964466094970703125">
        <ele>159</ele>
        <time>2026-08-05T11:22:00.000Z</time>
        <extensions>
          <ns3:TrackPointExtension>
            <ns3:hr>86</ns3:hr>
            <ns3:cad>50</ns3:cad>
          </ns3:TrackPointExtension>
        </extensions>
      </trkpt>
      <trkpt lat="43.47586314193904399871826171875" lon="1.4202000014483928680419921875">
        <ele>158.8000030517578125</ele>
        <time>2026-08-05T11:22:01.000Z</time>
        <extensions>
          <ns3:TrackPointExtension>
            <ns3:hr>86</ns3:hr>
            <ns3:cad>50</ns3:cad>
          </ns3:TrackPointExtension>
        </extensions>
      </trkpt>
      <trkpt lat="43.47585744224488735198974609375" lon="1.42019069753587245941162109375">
        <ele>158.8000030517578125</ele>
        <time>2026-08-05T11:22:02.000Z</time>
        <extensions>
          <ns3:TrackPointExtension>
            <ns3:hr>85</ns3:hr>
            <ns3:cad>50</ns3:cad>
          </ns3:TrackPointExtension>
        </extensions>
      </trkpt>
      <trkpt lat="43.475853167474269866943359375" lon="1.4201745204627513885498046875">
        <ele>158.600006103515625</ele>
        <time>2026-08-05T11:22:03.000Z</time>
        <extensions>
          <ns3:TrackPointExtension>
            <ns3:hr>85</ns3:hr>
            <ns3:cad>50</ns3:cad>
          </ns3:TrackPointExtension>
        </extensions>
      </trkpt>
      <trkpt lat="43.47584553994238376617431640625" lon="1.42016488127410411834716796875">
        <ele>158.600006103515625</ele>
        <time>2026-08-05T11:22:04.000Z</time>
        <extensions>
          <ns3:TrackPointExtension>
            <ns3:hr>85</ns3:hr>
            <ns3:cad>50</ns3:cad>
          </ns3:TrackPointExtension>
        </extensions>
      </trkpt>
      <trkpt lat="43.47584051080048084259033203125" lon="1.42015482299029827117919921875">
        <ele>158.399993896484375</ele>
        <time>2026-08-05T11:22:05.000Z</time>
        <extensions>
          <ns3:TrackPointExtension>
            <ns3:hr>84</ns3:hr>
            <ns3:cad>50</ns3:cad>
          </ns3:TrackPointExtension>
        </extensions>
      </trkpt>
      <trkpt lat="43.47583447583019733428955078125" lon="1.42014526762068271636962890625">
        <ele>158.399993896484375</ele>
        <time>2026-08-05T11:22:06.000Z</time>
        <extensions>
          <ns3:TrackPointExtension>
            <ns3:hr>84</ns3:hr>
            <ns3:cad>50</ns3:cad>
          </ns3:TrackPointExtension>
        </extensions>
      </trkpt>
      <trkpt lat="43.475831039249897003173828125" lon="1.42013303004205226898193359375">
        <ele>158.1999969482421875</ele>
        <time>2026-08-05T11:22:07.000Z</time>
        <extensions>
          <ns3:TrackPointExtension>
            <ns3:hr>84</ns3:hr>
            <ns3:cad>50</ns3:cad>
          </ns3:TrackPointExtension>
        </extensions>
      </trkpt>
      <trkpt lat="43.47582709975540637969970703125" lon="1.42012163065373897552490234375">
        <ele>158</ele>
        <time>2026-08-05T11:22:08.000Z</time>
        <extensions>
          <ns3:TrackPointExtension>
            <ns3:hr>84</ns3:hr>
            <ns3:cad>50</ns3:cad>
          </ns3:TrackPointExtension>
        </extensions>
      </trkpt>
      <trkpt lat="43.475820980966091156005859375" lon="1.42010386101901531219482421875">
        <ele>158</ele>
        <time>2026-08-05T11:22:09.000Z</time>
        <extensions>
          <ns3:TrackPointExtension>
            <ns3:hr>84</ns3:hr>
            <ns3:cad>50</ns3:cad>
          </ns3:TrackPointExtension>
        </extensions>
      </trkpt>
      <trkpt lat="43.47581620328128337860107421875" lon="1.42008525319397449493408203125">
        <ele>157.8000030517578125</ele>
        <time>2026-08-05T11:22:10.000Z</time>
        <extensions>
          <ns3:TrackPointExtension>
            <ns3:hr>84</ns3:hr>
            <ns3:cad>50</ns3:cad>
          </ns3:TrackPointExtension>
        </extensions>
      </trkpt>
      <trkpt lat="43.47581100650131702423095703125" lon="1.42007335089147090911865234375">
        <ele>157.8000030517578125</ele>
        <time>2026-08-05T11:22:11.000Z</time>
        <extensions>
          <ns3:TrackPointExtension>
            <ns3:hr>84</ns3:hr>
            <ns3:cad>49</ns3:cad>
          </ns3:TrackPointExtension>
        </extensions>
      </trkpt>
      <trkpt lat="43.47580631263554096221923828125" lon="1.42005734145641326904296875">
        <ele>157.600006103515625</ele>
        <time>2026-08-05T11:22:12.000Z</time>
        <extensions>
          <ns3:TrackPointExtension>
            <ns3:hr>84</ns3:hr>
            <ns3:cad>49</ns3:cad>
          </ns3:TrackPointExtension>
        </extensions>
      </trkpt>
      <trkpt lat="43.4758010320365428924560546875" lon="1.42004334367811679840087890625">
        <ele>157.600006103515625</ele>
        <time>2026-08-05T11:22:13.000Z</time>
        <extensions>
          <ns3:TrackPointExtension>
            <ns3:hr>84</ns3:hr>
            <ns3:cad>50</ns3:cad>
          </ns3:TrackPointExtension>
        </extensions>
      </trkpt>
      <trkpt lat="43.47579323686659336090087890625" lon="1.420030184090137481689453125">
        <ele>157.399993896484375</ele>
        <time>2026-08-05T11:22:14.000Z</time>
        <extensions>
          <ns3:TrackPointExtension>
            <ns3:hr>84</ns3:hr>
            <ns3:cad>50</ns3:cad>
          </ns3:TrackPointExtension>
        </extensions>
      </trkpt>
      <trkpt lat="43.4757846035063266754150390625" lon="1.42001601867377758026123046875">
        <ele>157.1999969482421875</ele>
        <time>2026-08-05T11:22:15.000Z</time>
        <extensions>
          <ns3:TrackPointExtension>
            <ns3:hr>83</ns3:hr>
            <ns3:cad>50</ns3:cad>
          </ns3:TrackPointExtension>
        </extensions>
      </trkpt>
      <trkpt lat="43.47577647306025028228759765625" lon="1.4200042001903057098388671875">
        <ele>157.1999969482421875</ele>
        <time>2026-08-05T11:22:16.000Z</time>
        <extensions>
          <ns3:TrackPointExtension>
            <ns3:hr>83</ns3:hr>
            <ns3:cad>51</ns3:cad>
          </ns3:TrackPointExtension>
        </extensions>
      </trkpt>
      <trkpt lat="43.475767336785793304443359375" lon="1.4199938066303730010986328125">
        <ele>157</ele>
        <time>2026-08-05T11:22:17.000Z</time>
        <extensions>
          <ns3:TrackPointExtension>
            <ns3:hr>84</ns3:hr>
            <ns3:cad>51</ns3:cad>
          </ns3:TrackPointExtension>
        </extensions>
      </trkpt>
      <trkpt lat="43.47576037980616092681884765625" lon="1.41998399980366230010986328125">
        <ele>157</ele>
        <time>2026-08-05T11:22:18.000Z</time>
        <extensions>
          <ns3:TrackPointExtension>
            <ns3:hr>84</ns3:hr>
            <ns3:cad>51</ns3:cad>
          </ns3:TrackPointExtension>
        </extensions>
      </trkpt>
      <trkpt lat="43.475754596292972564697265625" lon="1.41997293569147586822509765625">
        <ele>157</ele>
        <time>2026-08-05T11:22:19.000Z</time>
        <extensions>
          <ns3:TrackPointExtension>
            <ns3:hr>84</ns3:hr>
            <ns3:cad>51</ns3:cad>
          </ns3:TrackPointExtension>
        </extensions>
      </trkpt>
      <trkpt lat="43.4757502377033233642578125" lon="1.419959776103496551513671875">
        <ele>156.8000030517578125</ele>
        <time>2026-08-05T11:22:20.000Z</time>
        <extensions>
          <ns3:TrackPointExtension>
            <ns3:hr>84</ns3:hr>
            <ns3:cad>51</ns3:cad>
          </ns3:TrackPointExtension>
        </extensions>
      </trkpt>
      <trkpt lat="43.47574378363788127899169921875" lon="1.4199467003345489501953125">
        <ele>156.8000030517578125</ele>
        <time>2026-08-05T11:22:21.000Z</time>
        <extensions>
          <ns3:TrackPointExtension>
            <ns3:hr>84</ns3:hr>
            <ns3:cad>51</ns3:cad>
          </ns3:TrackPointExtension>
        </extensions>
      </trkpt>
      <trkpt lat="43.47573691047728061676025390625" lon="1.41993127763271331787109375">
        <ele>156.600006103515625</ele>
        <time>2026-08-05T11:22:22.000Z</time>
        <extensions>
          <ns3:TrackPointExtension>
            <ns3:hr>84</ns3:hr>
            <ns3:cad>51</ns3:cad>
          </ns3:TrackPointExtension>
        </extensions>
      </trkpt>
      <trkpt lat="43.4757306240499019622802734375" lon="1.41992029733955860137939453125">
        <ele>156.600006103515625</ele>
        <time>2026-08-05T11:22:23.000Z</time>
        <extensions>
          <ns3:TrackPointExtension>
            <ns3:hr>83</ns3:hr>
            <ns3:cad>50</ns3:cad>
          </ns3:TrackPointExtension>
        </extensions>
      </trkpt>
      <trkpt lat="43.47572274506092071533203125" lon="1.4199093170464038848876953125">
        <ele>156.600006103515625</ele>
        <time>2026-08-05T11:22:24.000Z</time>
        <extensions>
          <ns3:TrackPointExtension>
            <ns3:hr>83</ns3:hr>
            <ns3:cad>49</ns3:cad>
          </ns3:TrackPointExtension>
        </extensions>
      </trkpt>
      <trkpt lat="43.47571872174739837646484375" lon="1.41990018077194690704345703125">
        <ele>156.399993896484375</ele>
        <time>2026-08-05T11:22:25.000Z</time>
        <extensions>
          <ns3:TrackPointExtension>
            <ns3:hr>83</ns3:hr>
            <ns3:cad>49</ns3:cad>
          </ns3:TrackPointExtension>
        </extensions>
      </trkpt>
      <trkpt lat="43.4757145307958126068115234375" lon="1.41988241113722324371337890625">
        <ele>156.399993896484375</ele>
        <time>2026-08-05T11:22:26.000Z</time>
        <extensions>
          <ns3:TrackPointExtension>
            <ns3:hr>83</ns3:hr>
            <ns3:cad>50</ns3:cad>
          </ns3:TrackPointExtension>
        </extensions>
      </trkpt>
      <trkpt lat="43.47570841200649738311767578125" lon="1.419869251549243927001953125">
        <ele>156.399993896484375</ele>
        <time>2026-08-05T11:22:27.000Z</time>
        <extensions>
          <ns3:TrackPointExtension>
            <ns3:hr>83</ns3:hr>
            <ns3:cad>50</ns3:cad>
          </ns3:TrackPointExtension>
        </extensions>
      </trkpt>
      <trkpt lat="43.4756981022655963897705078125" lon="1.4198570139706134796142578125">
        <ele>156.399993896484375</ele>
        <time>2026-08-05T11:22:28.000Z</time>
        <extensions>
          <ns3:TrackPointExtension>
            <ns3:hr>83</ns3:hr>
            <ns3:cad>50</ns3:cad>
          </ns3:TrackPointExtension>
        </extensions>
      </trkpt>
      <trkpt lat="43.47569131292402744293212890625" lon="1.41984452493488788604736328125">
        <ele>156.399993896484375</ele>
        <time>2026-08-05T11:22:29.000Z</time>
        <extensions>
          <ns3:TrackPointExtension>
            <ns3:hr>83</ns3:hr>
            <ns3:cad>50</ns3:cad>
          </ns3:TrackPointExtension>
        </extensions>
      </trkpt>
      <trkpt lat="43.47568309865891933441162109375" lon="1.4198291860520839691162109375">
        <ele>156.1999969482421875</ele>
        <time>2026-08-05T11:22:30.000Z</time>
        <extensions>
          <ns3:TrackPointExtension>
            <ns3:hr>83</ns3:hr>
            <ns3:cad>50</ns3:cad>
          </ns3:TrackPointExtension>
        </extensions>
      </trkpt>
      <trkpt lat="43.47567656077444553375244140625" lon="1.41981719993054866790771484375">
        <ele>156.1999969482421875</ele>
        <time>2026-08-05T11:22:31.000Z</time>
        <extensions>
          <ns3:TrackPointExtension>
            <ns3:hr>83</ns3:hr>
            <ns3:cad>50</ns3:cad>
          </ns3:TrackPointExtension>
        </extensions>
      </trkpt>
      <trkpt lat="43.47567019052803516387939453125" lon="1.41980546526610851287841796875">
        <ele>156.1999969482421875</ele>
        <time>2026-08-05T11:22:32.000Z</time>
        <extensions>
          <ns3:TrackPointExtension>
            <ns3:hr>83</ns3:hr>
            <ns3:cad>50</ns3:cad>
          </ns3:TrackPointExtension>
        </extensions>
      </trkpt>
      <trkpt lat="43.475671112537384033203125" lon="1.41979373060166835784912109375">
        <ele>156</ele>
        <time>2026-08-05T11:22:33.000Z</time>
        <extensions>
          <ns3:TrackPointExtension>
            <ns3:hr>82</ns3:hr>
            <ns3:cad>50</ns3:cad>
          </ns3:TrackPointExtension>
        </extensions>
      </trkpt>
      <trkpt lat="43.47566767595708370208740234375" lon="1.41979046165943145751953125">
        <ele>156</ele>
        <time>2026-08-05T11:22:34.000Z</time>
        <extensions>
          <ns3:TrackPointExtension>
            <ns3:hr>83</ns3:hr>
            <ns3:cad>50</ns3:cad>
          </ns3:TrackPointExtension>
        </extensions>
      </trkpt>
      <trkpt lat="43.475666753947734832763671875" lon="1.41979121603071689605712890625">
        <ele>156</ele>
        <time>2026-08-05T11:22:35.000Z</time>
        <extensions>
          <ns3:TrackPointExtension>
            <ns3:hr>83</ns3:hr>
            <ns3:cad>49</ns3:cad>
          </ns3:TrackPointExtension>
        </extensions>
      </trkpt>
      <trkpt lat="43.47566415555775165557861328125" lon="1.419792138040065765380859375">
        <ele>156</ele>
        <time>2026-08-05T11:22:36.000Z</time>
        <extensions>
          <ns3:TrackPointExtension>
            <ns3:hr>83</ns3:hr>
            <ns3:cad>0</ns3:cad>
          </ns3:TrackPointExtension>
        </extensions>
      </trkpt>
      <trkpt lat="43.4756615571677684783935546875" lon="1.4197889529168605804443359375">
        <ele>156</ele>
        <time>2026-08-05T11:22:37.000Z</time>
        <extensions>
          <ns3:TrackPointExtension>
            <ns3:hr>83</ns3:hr>
            <ns3:cad>0</ns3:cad>
          </ns3:TrackPointExtension>
        </extensions>
      </trkpt>
      <trkpt lat="43.4756551869213581085205078125" lon="1.41977746970951557159423828125">
        <ele>156</ele>
        <time>2026-08-05T11:22:38.000Z</time>
        <extensions>
          <ns3:TrackPointExtension>
            <ns3:hr>83</ns3:hr>
            <ns3:cad>0</ns3:cad>
          </ns3:TrackPointExtension>
        </extensions>
      </trkpt>
      <trkpt lat="43.4756525047123432159423828125" lon="1.4197750389575958251953125">
        <ele>156</ele>
        <time>2026-08-05T11:22:39.000Z</time>
        <extensions>
          <ns3:TrackPointExtension>
            <ns3:hr>83</ns3:hr>
            <ns3:cad>0</ns3:cad>
          </ns3:TrackPointExtension>
        </extensions>
      </trkpt>
      <trkpt lat="43.47565158270299434661865234375" lon="1.41977897845208644866943359375">
        <ele>155.8000030517578125</ele>
        <time>2026-08-05T11:22:40.000Z</time>
        <extensions>
          <ns3:TrackPointExtension>
            <ns3:hr>83</ns3:hr>
            <ns3:cad>0</ns3:cad>
          </ns3:TrackPointExtension>
        </extensions>
      </trkpt>
      <trkpt lat="43.47565007396042346954345703125" lon="1.41977964900434017181396484375">
        <ele>155.8000030517578125</ele>
        <time>2026-08-05T11:22:41.000Z</time>
        <extensions>
          <ns3:TrackPointExtension>
            <ns3:hr>83</ns3:hr>
            <ns3:cad>0</ns3:cad>
          </ns3:TrackPointExtension>
        </extensions>
      </trkpt>
      <trkpt lat="43.4756481461226940155029296875" lon="1.4197775535285472869873046875">
        <ele>155.8000030517578125</ele>
        <time>2026-08-05T11:22:42.000Z</time>
        <extensions>
          <ns3:TrackPointExtension>
            <ns3:hr>83</ns3:hr>
            <ns3:cad>0</ns3:cad>
          </ns3:TrackPointExtension>
        </extensions>
      </trkpt>
      <trkpt lat="43.47564588300883769989013671875" lon="1.41976590268313884735107421875">
        <ele>155.8000030517578125</ele>
        <time>2026-08-05T11:22:43.000Z</time>
        <extensions>
          <ns3:TrackPointExtension>
            <ns3:hr>82</ns3:hr>
            <ns3:cad>0</ns3:cad>
          </ns3:TrackPointExtension>
        </extensions>
      </trkpt>
      <trkpt lat="43.47564387135207653045654296875" lon="1.4197678305208683013916015625">
        <ele>155.600006103515625</ele>
        <time>2026-08-05T11:22:44.000Z</time>
        <extensions>
          <ns3:TrackPointExtension>
            <ns3:hr>82</ns3:hr>
            <ns3:cad>0</ns3:cad>
          </ns3:TrackPointExtension>
        </extensions>
      </trkpt>
      <trkpt lat="43.47564353607594966888427734375" lon="1.41976791433990001678466796875">
        <ele>155.600006103515625</ele>
        <time>2026-08-05T11:22:45.000Z</time>
        <extensions>
          <ns3:TrackPointExtension>
            <ns3:hr>80</ns3:hr>
            <ns3:cad>0</ns3:cad>
          </ns3:TrackPointExtension>
        </extensions>
      </trkpt>
      <trkpt lat="43.47563632763922214508056640625" lon="1.41976204700767993927001953125">
        <ele>155.399993896484375</ele>
        <time>2026-08-05T11:22:46.000Z</time>
        <extensions>
          <ns3:TrackPointExtension>
            <ns3:hr>79</ns3:hr>
            <ns3:cad>0</ns3:cad>
          </ns3:TrackPointExtension>
        </extensions>
      </trkpt>
      <trkpt lat="43.47562710754573345184326171875" lon="1.41975299455225467681884765625">
        <ele>155.399993896484375</ele>
        <time>2026-08-05T11:22:47.000Z</time>
        <extensions>
          <ns3:TrackPointExtension>
            <ns3:hr>78</ns3:hr>
            <ns3:cad>0</ns3:cad>
          </ns3:TrackPointExtension>
        </extensions>
      </trkpt>
      <trkpt lat="43.47562056966125965118408203125" lon="1.4197430200874805450439453125">
        <ele>155.399993896484375</ele>
        <time>2026-08-05T11:22:48.000Z</time>
        <extensions>
          <ns3:TrackPointExtension>
            <ns3:hr>78</ns3:hr>
            <ns3:cad>0</ns3:cad>
          </ns3:TrackPointExtension>
        </extensions>
      </trkpt>
      <trkpt lat="43.47561470232903957366943359375" lon="1.4197329618036746978759765625">
        <ele>155.399993896484375</ele>
        <time>2026-08-05T11:22:49.000Z</time>
        <extensions>
          <ns3:TrackPointExtension>
            <ns3:hr>78</ns3:hr>
            <ns3:cad>0</ns3:cad>
          </ns3:TrackPointExtension>
        </extensions>
      </trkpt>
      <trkpt lat="43.47560497932136058807373046875" lon="1.41972005367279052734375">
        <ele>155.399993896484375</ele>
        <time>2026-08-05T11:22:50.000Z</time>
        <extensions>
          <ns3:TrackPointExtension>
            <ns3:hr>78</ns3:hr>
            <ns3:cad>41</ns3:cad>
          </ns3:TrackPointExtension>
        </extensions>
      </trkpt>
      <trkpt lat="43.475596010684967041015625" lon="1.4197054691612720489501953125">
        <ele>155.399993896484375</ele>
        <time>2026-08-05T11:22:51.000Z</time>
        <extensions>
          <ns3:TrackPointExtension>
            <ns3:hr>78</ns3:hr>
            <ns3:cad>44</ns3:cad>
          </ns3:TrackPointExtension>
        </extensions>
      </trkpt>
      <trkpt lat="43.47558955661952495574951171875" lon="1.4196960814297199249267578125">
        <ele>155.1999969482421875</ele>
        <time>2026-08-05T11:22:52.000Z</time>
        <extensions>
          <ns3:TrackPointExtension>
            <ns3:hr>79</ns3:hr>
            <ns3:cad>45</ns3:cad>
          </ns3:TrackPointExtension>
        </extensions>
      </trkpt>
      <trkpt lat="43.47558318637311458587646484375" lon="1.419687531888484954833984375">
        <ele>155.1999969482421875</ele>
        <time>2026-08-05T11:22:53.000Z</time>
        <extensions>
          <ns3:TrackPointExtension>
            <ns3:hr>79</ns3:hr>
            <ns3:cad>45</ns3:cad>
          </ns3:TrackPointExtension>
        </extensions>
      </trkpt>
      <trkpt lat="43.475575558841228485107421875" lon="1.41967956908047199249267578125">
        <ele>155.1999969482421875</ele>
        <time>2026-08-05T11:22:54.000Z</time>
        <extensions>
          <ns3:TrackPointExtension>
            <ns3:hr>80</ns3:hr>
            <ns3:cad>47</ns3:cad>
          </ns3:TrackPointExtension>
        </extensions>
      </trkpt>
      <trkpt lat="43.47556793130934238433837890625" lon="1.41967437230050563812255859375">
        <ele>155.1999969482421875</ele>
        <time>2026-08-05T11:22:55.000Z</time>
        <extensions>
          <ns3:TrackPointExtension>
            <ns3:hr>80</ns3:hr>
            <ns3:cad>48</ns3:cad>
          </ns3:TrackPointExtension>
        </extensions>
      </trkpt>
      <trkpt lat="43.47555653192102909088134765625" lon="1.41966716386377811431884765625">
        <ele>155.1999969482421875</ele>
        <time>2026-08-05T11:22:56.000Z</time>
        <extensions>
          <ns3:TrackPointExtension>
            <ns3:hr>80</ns3:hr>
            <ns3:cad>48</ns3:cad>
          </ns3:TrackPointExtension>
        </extensions>
      </trkpt>
      <trkpt lat="43.47554965876042842864990234375" lon="1.4196598716080188751220703125">
        <ele>155.1999969482421875</ele>
        <time>2026-08-05T11:22:57.000Z</time>
        <extensions>
          <ns3:TrackPointExtension>
            <ns3:hr>81</ns3:hr>
            <ns3:cad>49</ns3:cad>
          </ns3:TrackPointExtension>
        </extensions>
      </trkpt>
      <trkpt lat="43.475544042885303497314453125" lon="1.41965308226644992828369140625">
        <ele>155</ele>
        <time>2026-08-05T11:22:58.000Z</time>
        <extensions>
          <ns3:TrackPointExtension>
            <ns3:hr>81</ns3:hr>
            <ns3:cad>49</ns3:cad>
          </ns3:TrackPointExtension>
        </extensions>
      </trkpt>
      <trkpt lat="43.47553901374340057373046875" lon="1.41964805312454700469970703125">
        <ele>155</ele>
        <time>2026-08-05T11:22:59.000Z</time>
        <extensions>
          <ns3:TrackPointExtension>
            <ns3:hr>81</ns3:hr>
            <ns3:cad>49</ns3:cad>
          </ns3:TrackPointExtension>
        </extensions>
      </trkpt>
      <trkpt lat="43.47553457133471965789794921875" lon="1.41964419744908809661865234375">
        <ele>155</ele>
        <time>2026-08-05T11:23:00.000Z</time>
        <extensions>
          <ns3:TrackPointExtension>
            <ns3:hr>81</ns3:hr>
            <ns3:cad>0</ns3:cad>
          </ns3:TrackPointExtension>
        </extensions>
      </trkpt>
      <trkpt lat="43.4755301289260387420654296875" lon="1.41964235343039035797119140625">
        <ele>155</ele>
        <time>2026-08-05T11:23:01.000Z</time>
        <extensions>
          <ns3:TrackPointExtension>
            <ns3:hr>81</ns3:hr>
            <ns3:cad>0</ns3:cad>
          </ns3:TrackPointExtension>
        </extensions>
      </trkpt>
      <trkpt lat="43.47552518360316753387451171875" lon="1.4196414314210414886474609375">
        <ele>155</ele>
        <time>2026-08-05T11:23:02.000Z</time>
        <extensions>
          <ns3:TrackPointExtension>
            <ns3:hr>81</ns3:hr>
            <ns3:cad>0</ns3:cad>
          </ns3:TrackPointExtension>
        </extensions>
      </trkpt>
      <trkpt lat="43.47551948390901088714599609375" lon="1.4196390844881534576416015625">
        <ele>155</ele>
        <time>2026-08-05T11:23:03.000Z</time>
        <extensions>
          <ns3:TrackPointExtension>
            <ns3:hr>81</ns3:hr>
            <ns3:cad>0</ns3:cad>
          </ns3:TrackPointExtension>
        </extensions>
      </trkpt>
      <trkpt lat="43.47551219165325164794921875" lon="1.4196367375552654266357421875">
        <ele>155</ele>
        <time>2026-08-05T11:23:04.000Z</time>
        <extensions>
          <ns3:TrackPointExtension>
            <ns3:hr>80</ns3:hr>
            <ns3:cad>0</ns3:cad>
          </ns3:TrackPointExtension>
        </extensions>
      </trkpt>
      <trkpt lat="43.47550422884523868560791015625" lon="1.419634558260440826416015625">
        <ele>155</ele>
        <time>2026-08-05T11:23:05.000Z</time>
        <extensions>
          <ns3:TrackPointExtension>
            <ns3:hr>80</ns3:hr>
            <ns3:cad>0</ns3:cad>
          </ns3:TrackPointExtension>
        </extensions>
      </trkpt>
      <trkpt lat="43.47549484111368656158447265625" lon="1.41963480971753597259521484375">
        <ele>154.8000030517578125</ele>
        <time>2026-08-05T11:23:06.000Z</time>
        <extensions>
          <ns3:TrackPointExtension>
            <ns3:hr>80</ns3:hr>
            <ns3:cad>40</ns3:cad>
          </ns3:TrackPointExtension>
        </extensions>
      </trkpt>
      <trkpt lat="43.47548729740083217620849609375" lon="1.419635228812694549560546875">
        <ele>154.8000030517578125</ele>
        <time>2026-08-05T11:23:07.000Z</time>
        <extensions>
          <ns3:TrackPointExtension>
            <ns3:hr>80</ns3:hr>
            <ns3:cad>40</ns3:cad>
          </ns3:TrackPointExtension>
        </extensions>
      </trkpt>
      <trkpt lat="43.475478999316692352294921875" lon="1.419633887708187103271484375">
        <ele>154.8000030517578125</ele>
        <time>2026-08-05T11:23:08.000Z</time>
        <extensions>
          <ns3:TrackPointExtension>
            <ns3:hr>80</ns3:hr>
            <ns3:cad>78</ns3:cad>
          </ns3:TrackPointExtension>
        </extensions>
      </trkpt>
      <trkpt lat="43.47547187469899654388427734375" lon="1.419635228812694549560546875">
        <ele>154.8000030517578125</ele>
        <time>2026-08-05T11:23:09.000Z</time>
        <extensions>
          <ns3:TrackPointExtension>
            <ns3:hr>80</ns3:hr>
            <ns3:cad>78</ns3:cad>
          </ns3:TrackPointExtension>
        </extensions>
      </trkpt>
      <trkpt lat="43.47546600736677646636962890625" lon="1.4196353964507579803466796875">
        <ele>154.8000030517578125</ele>
        <time>2026-08-05T11:23:10.000Z</time>
        <extensions>
          <ns3:TrackPointExtension>
            <ns3:hr>80</ns3:hr>
            <ns3:cad>0</ns3:cad>
          </ns3:TrackPointExtension>
        </extensions>
      </trkpt>
      <trkpt lat="43.4754590503871440887451171875" lon="1.41963128931820392608642578125">
        <ele>154.8000030517578125</ele>
        <time>2026-08-05T11:23:11.000Z</time>
        <extensions>
          <ns3:TrackPointExtension>
            <ns3:hr>79</ns3:hr>
            <ns3:cad>43</ns3:cad>
          </ns3:TrackPointExtension>
        </extensions>
      </trkpt>
      <trkpt lat="43.47544555552303791046142578125" lon="1.41962776891887187957763671875">
        <ele>154.8000030517578125</ele>
        <time>2026-08-05T11:23:12.000Z</time>
        <extensions>
          <ns3:TrackPointExtension>
            <ns3:hr>79</ns3:hr>
            <ns3:cad>43</ns3:cad>
          </ns3:TrackPointExtension>
        </extensions>
      </trkpt>
      <trkpt lat="43.47543549723923206329345703125" lon="1.41962776891887187957763671875">
        <ele>154.600006103515625</ele>
        <time>2026-08-05T11:23:13.000Z</time>
        <extensions>
          <ns3:TrackPointExtension>
            <ns3:hr>78</ns3:hr>
            <ns3:cad>43</ns3:cad>
          </ns3:TrackPointExtension>
        </extensions>
      </trkpt>
      <trkpt lat="43.475423343479633331298828125" lon="1.41962726600468158721923828125">
        <ele>154.600006103515625</ele>
        <time>2026-08-05T11:23:14.000Z</time>
        <extensions>
          <ns3:TrackPointExtension>
            <ns3:hr>78</ns3:hr>
            <ns3:cad>43</ns3:cad>
          </ns3:TrackPointExtension>
        </extensions>
      </trkpt>
      <trkpt lat="43.47541118972003459930419921875" lon="1.41962676309049129486083984375">
        <ele>154.600006103515625</ele>
        <time>2026-08-05T11:23:15.000Z</time>
        <extensions>
          <ns3:TrackPointExtension>
            <ns3:hr>78</ns3:hr>
            <ns3:cad>43</ns3:cad>
          </ns3:TrackPointExtension>
        </extensions>
      </trkpt>
      <trkpt lat="43.47540180198848247528076171875" lon="1.41962056048214435577392578125">
        <ele>154.600006103515625</ele>
        <time>2026-08-05T11:23:16.000Z</time>
        <extensions>
          <ns3:TrackPointExtension>
            <ns3:hr>78</ns3:hr>
            <ns3:cad>43</ns3:cad>
          </ns3:TrackPointExtension>
        </extensions>
      </trkpt>
      <trkpt lat="43.47539090551435947418212890625" lon="1.41962022520601749420166015625">
        <ele>154.600006103515625</ele>
        <time>2026-08-05T11:23:17.000Z</time>
        <extensions>
          <ns3:TrackPointExtension>
            <ns3:hr>78</ns3:hr>
            <ns3:cad>45</ns3:cad>
          </ns3:TrackPointExtension>
        </extensions>
      </trkpt>
      <trkpt lat="43.47538051195442676544189453125" lon="1.4196193031966686248779296875">
        <ele>154.600006103515625</ele>
        <time>2026-08-05T11:23:18.000Z</time>
        <extensions>
          <ns3:TrackPointExtension>
            <ns3:hr>78</ns3:hr>
            <ns3:cad>45</ns3:cad>
          </ns3:TrackPointExtension>
        </extensions>
      </trkpt>
      <trkpt lat="43.475374393165111541748046875" lon="1.41961938701570034027099609375">
        <ele>154.600006103515625</ele>
        <time>2026-08-05T11:23:19.000Z</time>
        <extensions>
          <ns3:TrackPointExtension>
            <ns3:hr>79</ns3:hr>
            <ns3:cad>46</ns3:cad>
          </ns3:TrackPointExtension>
        </extensions>
      </trkpt>
      <trkpt lat="43.4753671847283840179443359375" lon="1.4196186326444149017333984375">
        <ele>154.600006103515625</ele>
        <time>2026-08-05T11:23:20.000Z</time>
        <extensions>
          <ns3:TrackPointExtension>
            <ns3:hr>79</ns3:hr>
            <ns3:cad>46</ns3:cad>
          </ns3:TrackPointExtension>
        </extensions>
      </trkpt>
      <trkpt lat="43.475356958806514739990234375" lon="1.41961804591119289398193359375">
        <ele>154.600006103515625</ele>
        <time>2026-08-05T11:23:21.000Z</time>
        <extensions>
          <ns3:TrackPointExtension>
            <ns3:hr>79</ns3:hr>
            <ns3:cad>46</ns3:cad>
          </ns3:TrackPointExtension>
        </extensions>
      </trkpt>
      <trkpt lat="43.47534597851336002349853515625" lon="1.41961854882538318634033203125">
        <ele>154.600006103515625</ele>
        <time>2026-08-05T11:23:22.000Z</time>
        <extensions>
          <ns3:TrackPointExtension>
            <ns3:hr>79</ns3:hr>
            <ns3:cad>46</ns3:cad>
          </ns3:TrackPointExtension>
        </extensions>
      </trkpt>
      <trkpt lat="43.4753343276679515838623046875" lon="1.41961905173957347869873046875">
        <ele>154.600006103515625</ele>
        <time>2026-08-05T11:23:23.000Z</time>
        <extensions>
          <ns3:TrackPointExtension>
            <ns3:hr>79</ns3:hr>
            <ns3:cad>46</ns3:cad>
          </ns3:TrackPointExtension>
        </extensions>
      </trkpt>
      <trkpt lat="43.47532703541219234466552734375" lon="1.41962022520601749420166015625">
        <ele>154.399993896484375</ele>
        <time>2026-08-05T11:23:24.000Z</time>
        <extensions>
          <ns3:TrackPointExtension>
            <ns3:hr>78</ns3:hr>
            <ns3:cad>46</ns3:cad>
          </ns3:TrackPointExtension>
        </extensions>
      </trkpt>
      <trkpt lat="43.47531848587095737457275390625" lon="1.4196194708347320556640625">
        <ele>154.600006103515625</ele>
        <time>2026-08-05T11:23:25.000Z</time>
        <extensions>
          <ns3:TrackPointExtension>
            <ns3:hr>78</ns3:hr>
            <ns3:cad>46</ns3:cad>
          </ns3:TrackPointExtension>
        </extensions>
      </trkpt>
      <trkpt lat="43.4753068350255489349365234375" lon="1.4196167886257171630859375">
        <ele>154.600006103515625</ele>
        <time>2026-08-05T11:23:26.000Z</time>
        <extensions>
          <ns3:TrackPointExtension>
            <ns3:hr>78</ns3:hr>
            <ns3:cad>45</ns3:cad>
          </ns3:TrackPointExtension>
        </extensions>
      </trkpt>
      <trkpt lat="43.4753018058836460113525390625" lon="1.41961611807346343994140625">
        <ele>154.600006103515625</ele>
        <time>2026-08-05T11:23:27.000Z</time>
        <extensions>
          <ns3:TrackPointExtension>
            <ns3:hr>78</ns3:hr>
            <ns3:cad>45</ns3:cad>
          </ns3:TrackPointExtension>
        </extensions>
      </trkpt>
      <trkpt lat="43.475295267999172210693359375" lon="1.4196162857115268707275390625">
        <ele>154.600006103515625</ele>
        <time>2026-08-05T11:23:28.000Z</time>
        <extensions>
          <ns3:TrackPointExtension>
            <ns3:hr>80</ns3:hr>
            <ns3:cad>48</ns3:cad>
          </ns3:TrackPointExtension>
        </extensions>
      </trkpt>
      <trkpt lat="43.4752840362489223480224609375" lon="1.419613100588321685791015625">
        <ele>154.600006103515625</ele>
        <time>2026-08-05T11:23:29.000Z</time>
        <extensions>
          <ns3:TrackPointExtension>
            <ns3:hr>82</ns3:hr>
            <ns3:cad>48</ns3:cad>
          </ns3:TrackPointExtension>
        </extensions>
      </trkpt>
      <trkpt lat="43.4752719663083553314208984375" lon="1.41960949636995792388916015625">
        <ele>154.600006103515625</ele>
        <time>2026-08-05T11:23:30.000Z</time>
        <extensions>
          <ns3:TrackPointExtension>
            <ns3:hr>83</ns3:hr>
            <ns3:cad>48</ns3:cad>
          </ns3:TrackPointExtension>
        </extensions>
      </trkpt>
      <trkpt lat="43.4752619080245494842529296875" lon="1.4196052215993404388427734375">
        <ele>154.600006103515625</ele>
        <time>2026-08-05T11:23:31.000Z</time>
        <extensions>
          <ns3:TrackPointExtension>
            <ns3:hr>83</ns3:hr>
            <ns3:cad>48</ns3:cad>
          </ns3:TrackPointExtension>
        </extensions>
      </trkpt>
      <trkpt lat="43.47525143064558506011962890625" lon="1.41960262320935726165771484375">
        <ele>154.600006103515625</ele>
        <time>2026-08-05T11:23:32.000Z</time>
        <extensions>
          <ns3:TrackPointExtension>
            <ns3:hr>83</ns3:hr>
            <ns3:cad>47</ns3:cad>
          </ns3:TrackPointExtension>
        </extensions>
      </trkpt>
      <trkpt lat="43.47524170763790607452392578125" lon="1.4196022041141986846923828125">
        <ele>154.600006103515625</ele>
        <time>2026-08-05T11:23:33.000Z</time>
        <extensions>
          <ns3:TrackPointExtension>
            <ns3:hr>84</ns3:hr>
            <ns3:cad>47</ns3:cad>
          </ns3:TrackPointExtension>
        </extensions>
      </trkpt>
      <trkpt lat="43.4752303920686244964599609375" lon="1.4196033775806427001953125">
        <ele>154.600006103515625</ele>
        <time>2026-08-05T11:23:34.000Z</time>
        <extensions>
          <ns3:TrackPointExtension>
            <ns3:hr>84</ns3:hr>
            <ns3:cad>47</ns3:cad>
          </ns3:TrackPointExtension>
        </extensions>
      </trkpt>
      <trkpt lat="43.47521890886127948760986328125" lon="1.4196060597896575927734375">
        <ele>154.600006103515625</ele>
        <time>2026-08-05T11:23:35.000Z</time>
        <extensions>
          <ns3:TrackPointExtension>
            <ns3:hr>84</ns3:hr>
            <ns3:cad>47</ns3:cad>
          </ns3:TrackPointExtension>
        </extensions>
      </trkpt>
      <trkpt lat="43.47520583309233188629150390625" lon="1.41960949636995792388916015625">
        <ele>154.600006103515625</ele>
        <time>2026-08-05T11:23:36.000Z</time>
        <extensions>
          <ns3:TrackPointExtension>
            <ns3:hr>84</ns3:hr>
            <ns3:cad>48</ns3:cad>
          </ns3:TrackPointExtension>
        </extensions>
      </trkpt>
      <trkpt lat="43.47519510425627231597900390625" lon="1.41960941255092620849609375">
        <ele>154.600006103515625</ele>
        <time>2026-08-05T11:23:37.000Z</time>
        <extensions>
          <ns3:TrackPointExtension>
            <ns3:hr>84</ns3:hr>
            <ns3:cad>48</ns3:cad>
          </ns3:TrackPointExtension>
        </extensions>
      </trkpt>
      <trkpt lat="43.47518588416278362274169921875" lon="1.41961033456027507781982421875">
        <ele>154.600006103515625</ele>
        <time>2026-08-05T11:23:38.000Z</time>
        <extensions>
          <ns3:TrackPointExtension>
            <ns3:hr>84</ns3:hr>
            <ns3:cad>48</ns3:cad>
          </ns3:TrackPointExtension>
        </extensions>
      </trkpt>
      <trkpt lat="43.47517666406929492950439453125" lon="1.4196095801889896392822265625">
        <ele>154.600006103515625</ele>
        <time>2026-08-05T11:23:39.000Z</time>
        <extensions>
          <ns3:TrackPointExtension>
            <ns3:hr>85</ns3:hr>
            <ns3:cad>48</ns3:cad>
          </ns3:TrackPointExtension>
        </extensions>
      </trkpt>
      <trkpt lat="43.47516375593841075897216796875" lon="1.41961251385509967803955078125">
        <ele>154.600006103515625</ele>
        <time>2026-08-05T11:23:40.000Z</time>
        <extensions>
          <ns3:TrackPointExtension>
            <ns3:hr>84</ns3:hr>
            <ns3:cad>48</ns3:cad>
          </ns3:TrackPointExtension>
        </extensions>
      </trkpt>
      <trkpt lat="43.47515285946428775787353515625" lon="1.41961100511252880096435546875">
        <ele>154.600006103515625</ele>
        <time>2026-08-05T11:23:41.000Z</time>
        <extensions>
          <ns3:TrackPointExtension>
            <ns3:hr>84</ns3:hr>
            <ns3:cad>48</ns3:cad>
          </ns3:TrackPointExtension>
        </extensions>
      </trkpt>
      <trkpt lat="43.47514112479984760284423828125" lon="1.41960849054157733917236328125">
        <ele>154.600006103515625</ele>
        <time>2026-08-05T11:23:42.000Z</time>
        <extensions>
          <ns3:TrackPointExtension>
            <ns3:hr>85</ns3:hr>
            <ns3:cad>48</ns3:cad>
          </ns3:TrackPointExtension>
        </extensions>
      </trkpt>
      <trkpt lat="43.4751281328499317169189453125" lon="1.41961066983640193939208984375">
        <ele>154.600006103515625</ele>
        <time>2026-08-05T11:23:43.000Z</time>
        <extensions>
          <ns3:TrackPointExtension>
            <ns3:hr>85</ns3:hr>
            <ns3:cad>48</ns3:cad>
          </ns3:TrackPointExtension>
        </extensions>
      </trkpt>
      <trkpt lat="43.47511547617614269256591796875" lon="1.41961234621703624725341796875">
        <ele>154.600006103515625</ele>
        <time>2026-08-05T11:23:44.000Z</time>
        <extensions>
          <ns3:TrackPointExtension>
            <ns3:hr>85</ns3:hr>
            <ns3:cad>48</ns3:cad>
          </ns3:TrackPointExtension>
        </extensions>
      </trkpt>
      <trkpt lat="43.47510575316846370697021484375" lon="1.41962148249149322509765625">
        <ele>154.600006103515625</ele>
        <time>2026-08-05T11:23:45.000Z</time>
        <extensions>
          <ns3:TrackPointExtension>
            <ns3:hr>85</ns3:hr>
            <ns3:cad>48</ns3:cad>
          </ns3:TrackPointExtension>
        </extensions>
      </trkpt>
      <trkpt lat="43.47509284503757953643798828125" lon="1.41962558962404727935791015625">
        <ele>154.600006103515625</ele>
        <time>2026-08-05T11:23:46.000Z</time>
        <extensions>
          <ns3:TrackPointExtension>
            <ns3:hr>86</ns3:hr>
            <ns3:cad>49</ns3:cad>
          </ns3:TrackPointExtension>
        </extensions>
      </trkpt>
      <trkpt lat="43.47508496604859828948974609375" lon="1.41962911002337932586669921875">
        <ele>154.600006103515625</ele>
        <time>2026-08-05T11:23:47.000Z</time>
        <extensions>
          <ns3:TrackPointExtension>
            <ns3:hr>86</ns3:hr>
            <ns3:cad>49</ns3:cad>
          </ns3:TrackPointExtension>
        </extensions>
      </trkpt>
      <trkpt lat="43.47507541067898273468017578125" lon="1.41963531263172626495361328125">
        <ele>154.600006103515625</ele>
        <time>2026-08-05T11:23:48.000Z</time>
        <extensions>
          <ns3:TrackPointExtension>
            <ns3:hr>86</ns3:hr>
            <ns3:cad>49</ns3:cad>
          </ns3:TrackPointExtension>
        </extensions>
      </trkpt>
      <trkpt lat="43.4750661067664623260498046875" lon="1.419631876051425933837890625">
        <ele>154.600006103515625</ele>
        <time>2026-08-05T11:23:49.000Z</time>
        <extensions>
          <ns3:TrackPointExtension>
            <ns3:hr>85</ns3:hr>
            <ns3:cad>49</ns3:cad>
          </ns3:TrackPointExtension>
        </extensions>
      </trkpt>
      <trkpt lat="43.47505487501621246337890625" lon="1.41963480971753597259521484375">
        <ele>154.600006103515625</ele>
        <time>2026-08-05T11:23:50.000Z</time>
        <extensions>
          <ns3:TrackPointExtension>
            <ns3:hr>86</ns3:hr>
            <ns3:cad>49</ns3:cad>
          </ns3:TrackPointExtension>
        </extensions>
      </trkpt>
      <trkpt lat="43.47504255361855030059814453125" lon="1.4196421019732952117919921875">
        <ele>154.399993896484375</ele>
        <time>2026-08-05T11:23:51.000Z</time>
        <extensions>
          <ns3:TrackPointExtension>
            <ns3:hr>86</ns3:hr>
            <ns3:cad>49</ns3:cad>
          </ns3:TrackPointExtension>
        </extensions>
      </trkpt>
      <trkpt lat="43.47503283061087131500244140625" lon="1.4196481369435787200927734375">
        <ele>154.600006103515625</ele>
        <time>2026-08-05T11:23:52.000Z</time>
        <extensions>
          <ns3:TrackPointExtension>
            <ns3:hr>86</ns3:hr>
            <ns3:cad>49</ns3:cad>
          </ns3:TrackPointExtension>
        </extensions>
      </trkpt>
      <trkpt lat="43.47502444870769977569580078125" lon="1.41965626738965511322021484375">
        <ele>154.600006103515625</ele>
        <time>2026-08-05T11:23:53.000Z</time>
        <extensions>
          <ns3:TrackPointExtension>
            <ns3:hr>85</ns3:hr>
            <ns3:cad>49</ns3:cad>
          </ns3:TrackPointExtension>
        </extensions>
      </trkpt>
      <trkpt lat="43.47501522861421108245849609375" lon="1.419658698141574859619140625">
        <ele>154.600006103515625</ele>
        <time>2026-08-05T11:23:54.000Z</time>
        <extensions>
          <ns3:TrackPointExtension>
            <ns3:hr>86</ns3:hr>
            <ns3:cad>48</ns3:cad>
          </ns3:TrackPointExtension>
        </extensions>
      </trkpt>
      <trkpt lat="43.47500533796846866607666015625" lon="1.4196612127125263214111328125">
        <ele>154.600006103515625</ele>
        <time>2026-08-05T11:23:55.000Z</time>
        <extensions>
          <ns3:TrackPointExtension>
            <ns3:hr>86</ns3:hr>
            <ns3:cad>48</ns3:cad>
          </ns3:TrackPointExtension>
        </extensions>
      </trkpt>
      <trkpt lat="43.47499360330402851104736328125" lon="1.41966749913990497589111328125">
        <ele>154.600006103515625</ele>
        <time>2026-08-05T11:23:56.000Z</time>
        <extensions>
          <ns3:TrackPointExtension>
            <ns3:hr>86</ns3:hr>
            <ns3:cad>48</ns3:cad>
          </ns3:TrackPointExtension>
        </extensions>
      </trkpt>
      <trkpt lat="43.47498471848666667938232421875" lon="1.41967068426311016082763671875">
        <ele>154.600006103515625</ele>
        <time>2026-08-05T11:23:57.000Z</time>
        <extensions>
          <ns3:TrackPointExtension>
            <ns3:hr>85</ns3:hr>
            <ns3:cad>48</ns3:cad>
          </ns3:TrackPointExtension>
        </extensions>
      </trkpt>
      <trkpt lat="43.4749735705554485321044921875" lon="1.4196732826530933380126953125">
        <ele>154.600006103515625</ele>
        <time>2026-08-05T11:23:58.000Z</time>
        <extensions>
          <ns3:TrackPointExtension>
            <ns3:hr>86</ns3:hr>
            <ns3:cad>47</ns3:cad>
          </ns3:TrackPointExtension>
        </extensions>
      </trkpt>
      <trkpt lat="43.47496175207197666168212890625" lon="1.4196793176233768463134765625">
        <ele>154.600006103515625</ele>
        <time>2026-08-05T11:23:59.000Z</time>
        <extensions>
          <ns3:TrackPointExtension>
            <ns3:hr>86</ns3:hr>
            <ns3:cad>47</ns3:cad>
          </ns3:TrackPointExtension>
        </extensions>
      </trkpt>
      <trkpt lat="43.47494968213140964508056640625" lon="1.4196836762130260467529296875">
        <ele>154.600006103515625</ele>
        <time>2026-08-05T11:24:00.000Z</time>
        <extensions>
          <ns3:TrackPointExtension>
            <ns3:hr>86</ns3:hr>
            <ns3:cad>47</ns3:cad>
          </ns3:TrackPointExtension>
        </extensions>
      </trkpt>
      <trkpt lat="43.47493845038115978240966796875" lon="1.419689543545246124267578125">
        <ele>154.600006103515625</ele>
        <time>2026-08-05T11:24:01.000Z</time>
        <extensions>
          <ns3:TrackPointExtension>
            <ns3:hr>86</ns3:hr>
            <ns3:cad>47</ns3:cad>
          </ns3:TrackPointExtension>
        </extensions>
      </trkpt>
      <trkpt lat="43.4749249555170536041259765625" lon="1.41969515942037105560302734375">
        <ele>154.600006103515625</ele>
        <time>2026-08-05T11:24:02.000Z</time>
        <extensions>
          <ns3:TrackPointExtension>
            <ns3:hr>86</ns3:hr>
            <ns3:cad>47</ns3:cad>
          </ns3:TrackPointExtension>
        </extensions>
      </trkpt>
      <trkpt lat="43.4749142266809940338134765625" lon="1.41970328986644744873046875">
        <ele>154.600006103515625</ele>
        <time>2026-08-05T11:24:03.000Z</time>
        <extensions>
          <ns3:TrackPointExtension>
            <ns3:hr>86</ns3:hr>
            <ns3:cad>47</ns3:cad>
          </ns3:TrackPointExtension>
        </extensions>
      </trkpt>
      <trkpt lat="43.4749028272926807403564453125" lon="1.41970907337963581085205078125">
        <ele>154.600006103515625</ele>
        <time>2026-08-05T11:24:04.000Z</time>
        <extensions>
          <ns3:TrackPointExtension>
            <ns3:hr>87</ns3:hr>
            <ns3:cad>47</ns3:cad>
          </ns3:TrackPointExtension>
        </extensions>
      </trkpt>
      <trkpt lat="43.47489117644727230072021484375" lon="1.4197141863405704498291015625">
        <ele>154.600006103515625</ele>
        <time>2026-08-05T11:24:05.000Z</time>
        <extensions>
          <ns3:TrackPointExtension>
            <ns3:hr>87</ns3:hr>
            <ns3:cad>47</ns3:cad>
          </ns3:TrackPointExtension>
        </extensions>
      </trkpt>
      <trkpt lat="43.4748780168592929840087890625" lon="1.41972600482404232025146484375">
        <ele>154.600006103515625</ele>
        <time>2026-08-05T11:24:06.000Z</time>
        <extensions>
          <ns3:TrackPointExtension>
            <ns3:hr>87</ns3:hr>
            <ns3:cad>47</ns3:cad>
          </ns3:TrackPointExtension>
        </extensions>
      </trkpt>
      <trkpt lat="43.47486569546163082122802734375" lon="1.4197299443185329437255859375">
        <ele>154.600006103515625</ele>
        <time>2026-08-05T11:24:07.000Z</time>
        <extensions>
          <ns3:TrackPointExtension>
            <ns3:hr>86</ns3:hr>
            <ns3:cad>47</ns3:cad>
          </ns3:TrackPointExtension>
        </extensions>
      </trkpt>
      <trkpt lat="43.47485463134944438934326171875" lon="1.41973405145108699798583984375">
        <ele>154.600006103515625</ele>
        <time>2026-08-05T11:24:08.000Z</time>
        <extensions>
          <ns3:TrackPointExtension>
            <ns3:hr>87</ns3:hr>
            <ns3:cad>48</ns3:cad>
          </ns3:TrackPointExtension>
        </extensions>
      </trkpt>
      <trkpt lat="43.474844656884670257568359375" lon="1.41973908059298992156982421875">
        <ele>154.600006103515625</ele>
        <time>2026-08-05T11:24:09.000Z</time>
        <extensions>
          <ns3:TrackPointExtension>
            <ns3:hr>87</ns3:hr>
            <ns3:cad>48</ns3:cad>
          </ns3:TrackPointExtension>
        </extensions>
      </trkpt>
      <trkpt lat="43.47483468241989612579345703125" lon="1.4197446964681148529052734375">
        <ele>154.600006103515625</ele>
        <time>2026-08-05T11:24:10.000Z</time>
        <extensions>
          <ns3:TrackPointExtension>
            <ns3:hr>87</ns3:hr>
            <ns3:cad>48</ns3:cad>
          </ns3:TrackPointExtension>
        </extensions>
      </trkpt>
      <trkpt lat="43.474825881421566009521484375" lon="1.4197470434010028839111328125">
        <ele>154.600006103515625</ele>
        <time>2026-08-05T11:24:11.000Z</time>
        <extensions>
          <ns3:TrackPointExtension>
            <ns3:hr>87</ns3:hr>
            <ns3:cad>48</ns3:cad>
          </ns3:TrackPointExtension>
        </extensions>
      </trkpt>
      <trkpt lat="43.47481691278517246246337890625" lon="1.41975064761936664581298828125">
        <ele>154.600006103515625</ele>
        <time>2026-08-05T11:24:12.000Z</time>
        <extensions>
          <ns3:TrackPointExtension>
            <ns3:hr>87</ns3:hr>
            <ns3:cad>48</ns3:cad>
          </ns3:TrackPointExtension>
        </extensions>
      </trkpt>
      <trkpt lat="43.47481339238584041595458984375" lon="1.4197547547519207000732421875">
        <ele>154.600006103515625</ele>
        <time>2026-08-05T11:24:13.000Z</time>
        <extensions>
          <ns3:TrackPointExtension>
            <ns3:hr>87</ns3:hr>
            <ns3:cad>49</ns3:cad>
          </ns3:TrackPointExtension>
        </extensions>
      </trkpt>
      <trkpt lat="43.4748025797307491302490234375" lon="1.41976104117929935455322265625">
        <ele>154.600006103515625</ele>
        <time>2026-08-05T11:24:14.000Z</time>
        <extensions>
          <ns3:TrackPointExtension>
            <ns3:hr>87</ns3:hr>
            <ns3:cad>49</ns3:cad>
          </ns3:TrackPointExtension>
        </extensions>
      </trkpt>
      <trkpt lat="43.47479243762791156768798828125" lon="1.41976523213088512420654296875">
        <ele>154.600006103515625</ele>
        <time>2026-08-05T11:24:15.000Z</time>
        <extensions>
          <ns3:TrackPointExtension>
            <ns3:hr>87</ns3:hr>
            <ns3:cad>49</ns3:cad>
          </ns3:TrackPointExtension>
        </extensions>
      </trkpt>
      <trkpt lat="43.4747821278870105743408203125" lon="1.41977327875792980194091796875">
        <ele>154.600006103515625</ele>
        <time>2026-08-05T11:24:16.000Z</time>
        <extensions>
          <ns3:TrackPointExtension>
            <ns3:hr>87</ns3:hr>
            <ns3:cad>48</ns3:cad>
          </ns3:TrackPointExtension>
        </extensions>
      </trkpt>
      <trkpt lat="43.4747727401554584503173828125" lon="1.41977981664240360260009765625">
        <ele>154.600006103515625</ele>
        <time>2026-08-05T11:24:17.000Z</time>
        <extensions>
          <ns3:TrackPointExtension>
            <ns3:hr>88</ns3:hr>
            <ns3:cad>46</ns3:cad>
          </ns3:TrackPointExtension>
        </extensions>
      </trkpt>
      <trkpt lat="43.47476653754711151123046875" lon="1.41978551633656024932861328125">
        <ele>154.600006103515625</ele>
        <time>2026-08-05T11:24:18.000Z</time>
        <extensions>
          <ns3:TrackPointExtension>
            <ns3:hr>88</ns3:hr>
            <ns3:cad>46</ns3:cad>
          </ns3:TrackPointExtension>
        </extensions>
      </trkpt>
      <trkpt lat="43.47475321032106876373291015625" lon="1.41979406587779521942138671875">
        <ele>154.600006103515625</ele>
        <time>2026-08-05T11:24:19.000Z</time>
        <extensions>
          <ns3:TrackPointExtension>
            <ns3:hr>89</ns3:hr>
            <ns3:cad>46</ns3:cad>
          </ns3:TrackPointExtension>
        </extensions>
      </trkpt>
      <trkpt lat="43.474737703800201416015625" lon="1.41980244778096675872802734375">
        <ele>154.600006103515625</ele>
        <time>2026-08-05T11:24:20.000Z</time>
        <extensions>
          <ns3:TrackPointExtension>
            <ns3:hr>90</ns3:hr>
            <ns3:cad>46</ns3:cad>
          </ns3:TrackPointExtension>
        </extensions>
      </trkpt>
      <trkpt lat="43.4747247956693172454833984375" lon="1.41980580054223537445068359375">
        <ele>154.600006103515625</ele>
        <time>2026-08-05T11:24:21.000Z</time>
        <extensions>
          <ns3:TrackPointExtension>
            <ns3:hr>90</ns3:hr>
            <ns3:cad>47</ns3:cad>
          </ns3:TrackPointExtension>
        </extensions>
      </trkpt>
      <trkpt lat="43.47471565939486026763916015625" lon="1.4198063872754573822021484375">
        <ele>154.600006103515625</ele>
        <time>2026-08-05T11:24:22.000Z</time>
        <extensions>
          <ns3:TrackPointExtension>
            <ns3:hr>89</ns3:hr>
            <ns3:cad>47</ns3:cad>
          </ns3:TrackPointExtension>
        </extensions>
      </trkpt>
      <trkpt lat="43.47470627166330814361572265625" lon="1.419805549085140228271484375">
        <ele>154.600006103515625</ele>
        <time>2026-08-05T11:24:23.000Z</time>
        <extensions>
          <ns3:TrackPointExtension>
            <ns3:hr>88</ns3:hr>
            <ns3:cad>47</ns3:cad>
          </ns3:TrackPointExtension>
        </extensions>
      </trkpt>
      <trkpt lat="43.4746939502656459808349609375" lon="1.41980948857963085174560546875">
        <ele>154.600006103515625</ele>
        <time>2026-08-05T11:24:24.000Z</time>
        <extensions>
          <ns3:TrackPointExtension>
            <ns3:hr>88</ns3:hr>
            <ns3:cad>48</ns3:cad>
          </ns3:TrackPointExtension>
        </extensions>
      </trkpt>
      <trkpt lat="43.47468012012541294097900390625" lon="1.41981418244540691375732421875">
        <ele>154.600006103515625</ele>
        <time>2026-08-05T11:24:25.000Z</time>
        <extensions>
          <ns3:TrackPointExtension>
            <ns3:hr>89</ns3:hr>
            <ns3:cad>48</ns3:cad>
          </ns3:TrackPointExtension>
        </extensions>
      </trkpt>
      <trkpt lat="43.47466855309903621673583984375" lon="1.41982072032988071441650390625">
        <ele>154.600006103515625</ele>
        <time>2026-08-05T11:24:26.000Z</time>
        <extensions>
          <ns3:TrackPointExtension>
            <ns3:hr>90</ns3:hr>
            <ns3:cad>48</ns3:cad>
          </ns3:TrackPointExtension>
        </extensions>
      </trkpt>
      <trkpt lat="43.4746594168245792388916015625" lon="1.41982524655759334564208984375">
        <ele>154.600006103515625</ele>
        <time>2026-08-05T11:24:27.000Z</time>
        <extensions>
          <ns3:TrackPointExtension>
            <ns3:hr>90</ns3:hr>
            <ns3:cad>48</ns3:cad>
          </ns3:TrackPointExtension>
        </extensions>
      </trkpt>
      <trkpt lat="43.4746557287871837615966796875" lon="1.41982642002403736114501953125">
        <ele>154.600006103515625</ele>
        <time>2026-08-05T11:24:28.000Z</time>
        <extensions>
          <ns3:TrackPointExtension>
            <ns3:hr>90</ns3:hr>
            <ns3:cad>48</ns3:cad>
          </ns3:TrackPointExtension>
        </extensions>
      </trkpt>
      <trkpt lat="43.4746466763317584991455078125" lon="1.41983128152787685394287109375">
        <ele>154.600006103515625</ele>
        <time>2026-08-05T11:24:29.000Z</time>
        <extensions>
          <ns3:TrackPointExtension>
            <ns3:hr>90</ns3:hr>
            <ns3:cad>49</ns3:cad>
          </ns3:TrackPointExtension>
        </extensions>
      </trkpt>
      <trkpt lat="43.47463066689670085906982421875" lon="1.419835053384304046630859375">
        <ele>154.600006103515625</ele>
        <time>2026-08-05T11:24:30.000Z</time>
        <extensions>
          <ns3:TrackPointExtension>
            <ns3:hr>90</ns3:hr>
            <ns3:cad>49</ns3:cad>
          </ns3:TrackPointExtension>
        </extensions>
      </trkpt>
      <trkpt lat="43.4746185131371021270751953125" lon="1.41984201036393642425537109375">
        <ele>154.600006103515625</ele>
        <time>2026-08-05T11:24:31.000Z</time>
        <extensions>
          <ns3:TrackPointExtension>
            <ns3:hr>91</ns3:hr>
            <ns3:cad>49</ns3:cad>
          </ns3:TrackPointExtension>
        </extensions>
      </trkpt>
      <trkpt lat="43.47460686229169368743896484375" lon="1.41984251327812671661376953125">
        <ele>154.600006103515625</ele>
        <time>2026-08-05T11:24:32.000Z</time>
        <extensions>
          <ns3:TrackPointExtension>
            <ns3:hr>90</ns3:hr>
            <ns3:cad>49</ns3:cad>
          </ns3:TrackPointExtension>
        </extensions>
      </trkpt>
      <trkpt lat="43.47459563054144382476806640625" lon="1.419845782220363616943359375">
        <ele>154.600006103515625</ele>
        <time>2026-08-05T11:24:33.000Z</time>
        <extensions>
          <ns3:TrackPointExtension>
            <ns3:hr>91</ns3:hr>
            <ns3:cad>49</ns3:cad>
          </ns3:TrackPointExtension>
        </extensions>
      </trkpt>
      <trkpt lat="43.4745836444199085235595703125" lon="1.419851481914520263671875">
        <ele>154.600006103515625</ele>
        <time>2026-08-05T11:24:34.000Z</time>
        <extensions>
          <ns3:TrackPointExtension>
            <ns3:hr>91</ns3:hr>
            <ns3:cad>49</ns3:cad>
          </ns3:TrackPointExtension>
        </extensions>
      </trkpt>
      <trkpt lat="43.47457048483192920684814453125" lon="1.4198586903512477874755859375">
        <ele>154.600006103515625</ele>
        <time>2026-08-05T11:24:35.000Z</time>
        <extensions>
          <ns3:TrackPointExtension>
            <ns3:hr>92</ns3:hr>
            <ns3:cad>48</ns3:cad>
          </ns3:TrackPointExtension>
        </extensions>
      </trkpt>
      <trkpt lat="43.47455875016748905181884765625" lon="1.41986229456961154937744140625">
        <ele>154.600006103515625</ele>
        <time>2026-08-05T11:24:36.000Z</time>
        <extensions>
          <ns3:TrackPointExtension>
            <ns3:hr>92</ns3:hr>
            <ns3:cad>48</ns3:cad>
          </ns3:TrackPointExtension>
        </extensions>
      </trkpt>
      <trkpt lat="43.47454768605530261993408203125" lon="1.41986422240734100341796875">
        <ele>154.600006103515625</ele>
        <time>2026-08-05T11:24:37.000Z</time>
        <extensions>
          <ns3:TrackPointExtension>
            <ns3:hr>92</ns3:hr>
            <ns3:cad>48</ns3:cad>
          </ns3:TrackPointExtension>
        </extensions>
      </trkpt>
      <trkpt lat="43.474538214504718780517578125" lon="1.4198623783886432647705078125">
        <ele>154.600006103515625</ele>
        <time>2026-08-05T11:24:38.000Z</time>
        <extensions>
          <ns3:TrackPointExtension>
            <ns3:hr>92</ns3:hr>
            <ns3:cad>48</ns3:cad>
          </ns3:TrackPointExtension>
        </extensions>
      </trkpt>
      <trkpt lat="43.474530838429927825927734375" lon="1.41986447386443614959716796875">
        <ele>154.600006103515625</ele>
        <time>2026-08-05T11:24:39.000Z</time>
        <extensions>
          <ns3:TrackPointExtension>
            <ns3:hr>91</ns3:hr>
            <ns3:cad>48</ns3:cad>
          </ns3:TrackPointExtension>
        </extensions>
      </trkpt>
      <trkpt lat="43.47451969049870967864990234375" lon="1.41987084411084651947021484375">
        <ele>154.600006103515625</ele>
        <time>2026-08-05T11:24:40.000Z</time>
        <extensions>
          <ns3:TrackPointExtension>
            <ns3:hr>92</ns3:hr>
            <ns3:cad>49</ns3:cad>
          </ns3:TrackPointExtension>
        </extensions>
      </trkpt>
      <trkpt lat="43.4745068661868572235107421875" lon="1.41987754963338375091552734375">
        <ele>154.600006103515625</ele>
        <time>2026-08-05T11:24:41.000Z</time>
        <extensions>
          <ns3:TrackPointExtension>
            <ns3:hr>92</ns3:hr>
            <ns3:cad>49</ns3:cad>
          </ns3:TrackPointExtension>
        </extensions>
      </trkpt>
      <trkpt lat="43.47449404187500476837158203125" lon="1.41988358460366725921630859375">
        <ele>154.600006103515625</ele>
        <time>2026-08-05T11:24:42.000Z</time>
        <extensions>
          <ns3:TrackPointExtension>
            <ns3:hr>93</ns3:hr>
            <ns3:cad>48</ns3:cad>
          </ns3:TrackPointExtension>
        </extensions>
      </trkpt>
      <trkpt lat="43.4744827263057231903076171875" lon="1.41989104449748992919921875">
        <ele>154.600006103515625</ele>
        <time>2026-08-05T11:24:43.000Z</time>
        <extensions>
          <ns3:TrackPointExtension>
            <ns3:hr>93</ns3:hr>
            <ns3:cad>48</ns3:cad>
          </ns3:TrackPointExtension>
        </extensions>
      </trkpt>
      <trkpt lat="43.474475853145122528076171875" lon="1.41989330761134624481201171875">
        <ele>154.8000030517578125</ele>
        <time>2026-08-05T11:24:44.000Z</time>
        <extensions>
          <ns3:TrackPointExtension>
            <ns3:hr>93</ns3:hr>
            <ns3:cad>48</ns3:cad>
          </ns3:TrackPointExtension>
        </extensions>
      </trkpt>
      <trkpt lat="43.47446587868034839630126953125" lon="1.41989800147712230682373046875">
        <ele>154.8000030517578125</ele>
        <time>2026-08-05T11:24:45.000Z</time>
        <extensions>
          <ns3:TrackPointExtension>
            <ns3:hr>93</ns3:hr>
            <ns3:cad>48</ns3:cad>
          </ns3:TrackPointExtension>
        </extensions>
      </trkpt>
      <trkpt lat="43.47445112653076648712158203125" lon="1.41990738920867443084716796875">
        <ele>154.8000030517578125</ele>
        <time>2026-08-05T11:24:46.000Z</time>
        <extensions>
          <ns3:TrackPointExtension>
            <ns3:hr>93</ns3:hr>
            <ns3:cad>48</ns3:cad>
          </ns3:TrackPointExtension>
        </extensions>
      </trkpt>
      <trkpt lat="43.47443721257150173187255859375" lon="1.419914849102497100830078125">
        <ele>154.8000030517578125</ele>
        <time>2026-08-05T11:24:47.000Z</time>
        <extensions>
          <ns3:TrackPointExtension>
            <ns3:hr>93</ns3:hr>
            <ns3:cad>48</ns3:cad>
          </ns3:TrackPointExtension>
        </extensions>
      </trkpt>
      <trkpt lat="43.47442296333611011505126953125" lon="1.41991979442536830902099609375">
        <ele>154.8000030517578125</ele>
        <time>2026-08-05T11:24:48.000Z</time>
        <extensions>
          <ns3:TrackPointExtension>
            <ns3:hr>93</ns3:hr>
            <ns3:cad>48</ns3:cad>
          </ns3:TrackPointExtension>
        </extensions>
      </trkpt>
      <trkpt lat="43.47441022284328937530517578125" lon="1.41992591321468353271484375">
        <ele>154.8000030517578125</ele>
        <time>2026-08-05T11:24:49.000Z</time>
        <extensions>
          <ns3:TrackPointExtension>
            <ns3:hr>93</ns3:hr>
            <ns3:cad>48</ns3:cad>
          </ns3:TrackPointExtension>
        </extensions>
      </trkpt>
      <trkpt lat="43.47440066747367382049560546875" lon="1.41993035562336444854736328125">
        <ele>154.8000030517578125</ele>
        <time>2026-08-05T11:24:50.000Z</time>
        <extensions>
          <ns3:TrackPointExtension>
            <ns3:hr>93</ns3:hr>
            <ns3:cad>48</ns3:cad>
          </ns3:TrackPointExtension>
        </extensions>
      </trkpt>
      <trkpt lat="43.47438759170472621917724609375" lon="1.41993530094623565673828125">
        <ele>154.8000030517578125</ele>
        <time>2026-08-05T11:24:51.000Z</time>
        <extensions>
          <ns3:TrackPointExtension>
            <ns3:hr>93</ns3:hr>
            <ns3:cad>49</ns3:cad>
          </ns3:TrackPointExtension>
        </extensions>
      </trkpt>
      <trkpt lat="43.4743727557361125946044921875" lon="1.41994141973555088043212890625">
        <ele>154.8000030517578125</ele>
        <time>2026-08-05T11:24:52.000Z</time>
        <extensions>
          <ns3:TrackPointExtension>
            <ns3:hr>93</ns3:hr>
            <ns3:cad>49</ns3:cad>
          </ns3:TrackPointExtension>
        </extensions>
      </trkpt>
      <trkpt lat="43.4743590094149112701416015625" lon="1.419949047267436981201171875">
        <ele>154.8000030517578125</ele>
        <time>2026-08-05T11:24:53.000Z</time>
        <extensions>
          <ns3:TrackPointExtension>
            <ns3:hr>94</ns3:hr>
            <ns3:cad>49</ns3:cad>
          </ns3:TrackPointExtension>
        </extensions>
      </trkpt>
      <trkpt lat="43.474347107112407684326171875" lon="1.41995139420032501220703125">
        <ele>154.8000030517578125</ele>
        <time>2026-08-05T11:24:54.000Z</time>
        <extensions>
          <ns3:TrackPointExtension>
            <ns3:hr>94</ns3:hr>
            <ns3:cad>49</ns3:cad>
          </ns3:TrackPointExtension>
        </extensions>
      </trkpt>
      <trkpt lat="43.47433361224830150604248046875" lon="1.41995365731418132781982421875">
        <ele>154.8000030517578125</ele>
        <time>2026-08-05T11:24:55.000Z</time>
        <extensions>
          <ns3:TrackPointExtension>
            <ns3:hr>93</ns3:hr>
            <ns3:cad>49</ns3:cad>
          </ns3:TrackPointExtension>
        </extensions>
      </trkpt>
      <trkpt lat="43.47432388924062252044677734375" lon="1.41995315439999103546142578125">
        <ele>154.8000030517578125</ele>
        <time>2026-08-05T11:24:56.000Z</time>
        <extensions>
          <ns3:TrackPointExtension>
            <ns3:hr>92</ns3:hr>
            <ns3:cad>50</ns3:cad>
          </ns3:TrackPointExtension>
        </extensions>
      </trkpt>
      <trkpt lat="43.47431416623294353485107421875" lon="1.4199552498757839202880859375">
        <ele>154.8000030517578125</ele>
        <time>2026-08-05T11:24:57.000Z</time>
        <extensions>
          <ns3:TrackPointExtension>
            <ns3:hr>92</ns3:hr>
            <ns3:cad>50</ns3:cad>
          </ns3:TrackPointExtension>
        </extensions>
      </trkpt>
      <trkpt lat="43.4743045270442962646484375" lon="1.41995868645608425140380859375">
        <ele>154.8000030517578125</ele>
        <time>2026-08-05T11:24:58.000Z</time>
        <extensions>
          <ns3:TrackPointExtension>
            <ns3:hr>92</ns3:hr>
            <ns3:cad>50</ns3:cad>
          </ns3:TrackPointExtension>
        </extensions>
      </trkpt>
      <trkpt lat="43.47429446876049041748046875" lon="1.41996455378830432891845703125">
        <ele>154.8000030517578125</ele>
        <time>2026-08-05T11:24:59.000Z</time>
        <extensions>
          <ns3:TrackPointExtension>
            <ns3:hr>91</ns3:hr>
            <ns3:cad>50</ns3:cad>
          </ns3:TrackPointExtension>
        </extensions>
      </trkpt>
      <trkpt lat="43.4742844104766845703125" lon="1.419965811073780059814453125">
        <ele>154.600006103515625</ele>
        <time>2026-08-05T11:25:00.000Z</time>
        <extensions>
          <ns3:TrackPointExtension>
            <ns3:hr>91</ns3:hr>
            <ns3:cad>50</ns3:cad>
          </ns3:TrackPointExtension>
        </extensions>
      </trkpt>
      <trkpt lat="43.47427477128803730010986328125" lon="1.41996908001601696014404296875">
        <ele>154.600006103515625</ele>
        <time>2026-08-05T11:25:01.000Z</time>
        <extensions>
          <ns3:TrackPointExtension>
            <ns3:hr>91</ns3:hr>
            <ns3:cad>50</ns3:cad>
          </ns3:TrackPointExtension>
        </extensions>
      </trkpt>
      <trkpt lat="43.4742658026516437530517578125" lon="1.41997343860566616058349609375">
        <ele>154.600006103515625</ele>
        <time>2026-08-05T11:25:02.000Z</time>
        <extensions>
          <ns3:TrackPointExtension>
            <ns3:hr>91</ns3:hr>
            <ns3:cad>50</ns3:cad>
          </ns3:TrackPointExtension>
        </extensions>
      </trkpt>
      <trkpt lat="43.47425448708236217498779296875" lon="1.419979222118854522705078125">
        <ele>154.600006103515625</ele>
        <time>2026-08-05T11:25:03.000Z</time>
        <extensions>
          <ns3:TrackPointExtension>
            <ns3:hr>91</ns3:hr>
            <ns3:cad>49</ns3:cad>
          </ns3:TrackPointExtension>
        </extensions>
      </trkpt>
      <trkpt lat="43.47424023784697055816650390625" lon="1.4199842512607574462890625">
        <ele>154.600006103515625</ele>
        <time>2026-08-05T11:25:04.000Z</time>
        <extensions>
          <ns3:TrackPointExtension>
            <ns3:hr>91</ns3:hr>
            <ns3:cad>48</ns3:cad>
          </ns3:TrackPointExtension>
        </extensions>
      </trkpt>
      <trkpt lat="43.47422833554446697235107421875" lon="1.4199857600033283233642578125">
        <ele>154.399993896484375</ele>
        <time>2026-08-05T11:25:05.000Z</time>
        <extensions>
          <ns3:TrackPointExtension>
            <ns3:hr>91</ns3:hr>
            <ns3:cad>47</ns3:cad>
          </ns3:TrackPointExtension>
        </extensions>
      </trkpt>
      <trkpt lat="43.47422163002192974090576171875" lon="1.41998467035591602325439453125">
        <ele>154.399993896484375</ele>
        <time>2026-08-05T11:25:06.000Z</time>
        <extensions>
          <ns3:TrackPointExtension>
            <ns3:hr>91</ns3:hr>
            <ns3:cad>47</ns3:cad>
          </ns3:TrackPointExtension>
        </extensions>
      </trkpt>
      <trkpt lat="43.4742128290235996246337890625" lon="1.419986598193645477294921875">
        <ele>154.399993896484375</ele>
        <time>2026-08-05T11:25:07.000Z</time>
        <extensions>
          <ns3:TrackPointExtension>
            <ns3:hr>91</ns3:hr>
            <ns3:cad>48</ns3:cad>
          </ns3:TrackPointExtension>
        </extensions>
      </trkpt>
      <trkpt lat="43.47419388592243194580078125" lon="1.41999154351651668548583984375">
        <ele>154.399993896484375</ele>
        <time>2026-08-05T11:25:08.000Z</time>
        <extensions>
          <ns3:TrackPointExtension>
            <ns3:hr>91</ns3:hr>
            <ns3:cad>48</ns3:cad>
          </ns3:TrackPointExtension>
        </extensions>
      </trkpt>
      <trkpt lat="43.474179469048976898193359375" lon="1.41999389044940471649169921875">
        <ele>154.399993896484375</ele>
        <time>2026-08-05T11:25:09.000Z</time>
        <extensions>
          <ns3:TrackPointExtension>
            <ns3:hr>91</ns3:hr>
            <ns3:cad>48</ns3:cad>
          </ns3:TrackPointExtension>
        </extensions>
      </trkpt>
      <trkpt lat="43.47417167387902736663818359375" lon="1.4199951477348804473876953125">
        <ele>154.399993896484375</ele>
        <time>2026-08-05T11:25:10.000Z</time>
        <extensions>
          <ns3:TrackPointExtension>
            <ns3:hr>91</ns3:hr>
            <ns3:cad>48</ns3:cad>
          </ns3:TrackPointExtension>
        </extensions>
      </trkpt>
      <trkpt lat="43.4741665609180927276611328125" lon="1.41999389044940471649169921875">
        <ele>154.399993896484375</ele>
        <time>2026-08-05T11:25:11.000Z</time>
        <extensions>
          <ns3:TrackPointExtension>
            <ns3:hr>91</ns3:hr>
            <ns3:cad>48</ns3:cad>
          </ns3:TrackPointExtension>
        </extensions>
      </trkpt>
      <trkpt lat="43.47415675409138202667236328125" lon="1.41999891959130764007568359375">
        <ele>154.399993896484375</ele>
        <time>2026-08-05T11:25:12.000Z</time>
        <extensions>
          <ns3:TrackPointExtension>
            <ns3:hr>91</ns3:hr>
            <ns3:cad>48</ns3:cad>
          </ns3:TrackPointExtension>
        </extensions>
      </trkpt>
      <trkpt lat="43.47414535470306873321533203125" lon="1.42000503838062286376953125">
        <ele>154.399993896484375</ele>
        <time>2026-08-05T11:25:13.000Z</time>
        <extensions>
          <ns3:TrackPointExtension>
            <ns3:hr>91</ns3:hr>
            <ns3:cad>48</ns3:cad>
          </ns3:TrackPointExtension>
        </extensions>
      </trkpt>
      <trkpt lat="43.4741326980292797088623046875" lon="1.42001266591250896453857421875">
        <ele>154.1999969482421875</ele>
        <time>2026-08-05T11:25:14.000Z</time>
        <extensions>
          <ns3:TrackPointExtension>
            <ns3:hr>91</ns3:hr>
            <ns3:cad>47</ns3:cad>
          </ns3:TrackPointExtension>
        </extensions>
      </trkpt>
      <trkpt lat="43.4741248190402984619140625" lon="1.42001836560666561126708984375">
        <ele>154.1999969482421875</ele>
        <time>2026-08-05T11:25:15.000Z</time>
        <extensions>
          <ns3:TrackPointExtension>
            <ns3:hr>91</ns3:hr>
            <ns3:cad>49</ns3:cad>
          </ns3:TrackPointExtension>
        </extensions>
      </trkpt>
      <trkpt lat="43.47411534748971462249755859375" lon="1.42002104781568050384521484375">
        <ele>154.1999969482421875</ele>
        <time>2026-08-05T11:25:16.000Z</time>
        <extensions>
          <ns3:TrackPointExtension>
            <ns3:hr>91</ns3:hr>
            <ns3:cad>48</ns3:cad>
          </ns3:TrackPointExtension>
        </extensions>
      </trkpt>
      <trkpt lat="43.4741011820733547210693359375" lon="1.42002540640532970428466796875">
        <ele>154.1999969482421875</ele>
        <time>2026-08-05T11:25:17.000Z</time>
        <extensions>
          <ns3:TrackPointExtension>
            <ns3:hr>91</ns3:hr>
            <ns3:cad>48</ns3:cad>
          </ns3:TrackPointExtension>
        </extensions>
      </trkpt>
      <trkpt lat="43.4740901179611682891845703125" lon="1.42003429122269153594970703125">
        <ele>154.1999969482421875</ele>
        <time>2026-08-05T11:25:18.000Z</time>
        <extensions>
          <ns3:TrackPointExtension>
            <ns3:hr>90</ns3:hr>
            <ns3:cad>47</ns3:cad>
          </ns3:TrackPointExtension>
        </extensions>
      </trkpt>
      <trkpt lat="43.474080897867679595947265625" lon="1.4200370572507381439208984375">
        <ele>154.1999969482421875</ele>
        <time>2026-08-05T11:25:19.000Z</time>
        <extensions>
          <ns3:TrackPointExtension>
            <ns3:hr>90</ns3:hr>
            <ns3:cad>47</ns3:cad>
          </ns3:TrackPointExtension>
        </extensions>
      </trkpt>
      <trkpt lat="43.4740733541548252105712890625" lon="1.42003814689815044403076171875">
        <ele>154.1999969482421875</ele>
        <time>2026-08-05T11:25:20.000Z</time>
        <extensions>
          <ns3:TrackPointExtension>
            <ns3:hr>90</ns3:hr>
            <ns3:cad>47</ns3:cad>
          </ns3:TrackPointExtension>
        </extensions>
      </trkpt>
      <trkpt lat="43.474064134061336517333984375" lon="1.420042254030704498291015625">
        <ele>154.1999969482421875</ele>
        <time>2026-08-05T11:25:21.000Z</time>
        <extensions>
          <ns3:TrackPointExtension>
            <ns3:hr>90</ns3:hr>
            <ns3:cad>47</ns3:cad>
          </ns3:TrackPointExtension>
        </extensions>
      </trkpt>
      <trkpt lat="43.474049381911754608154296875" lon="1.42004770226776599884033203125">
        <ele>154.1999969482421875</ele>
        <time>2026-08-05T11:25:22.000Z</time>
        <extensions>
          <ns3:TrackPointExtension>
            <ns3:hr>90</ns3:hr>
            <ns3:cad>47</ns3:cad>
          </ns3:TrackPointExtension>
        </extensions>
      </trkpt>
      <trkpt lat="43.4740389883518218994140625" lon="1.42005021683871746063232421875">
        <ele>154.1999969482421875</ele>
        <time>2026-08-05T11:25:23.000Z</time>
        <extensions>
          <ns3:TrackPointExtension>
            <ns3:hr>90</ns3:hr>
            <ns3:cad>48</ns3:cad>
          </ns3:TrackPointExtension>
        </extensions>
      </trkpt>
      <trkpt lat="43.47402784042060375213623046875" lon="1.420055329799652099609375">
        <ele>154.1999969482421875</ele>
        <time>2026-08-05T11:25:24.000Z</time>
        <extensions>
          <ns3:TrackPointExtension>
            <ns3:hr>89</ns3:hr>
            <ns3:cad>48</ns3:cad>
          </ns3:TrackPointExtension>
        </extensions>
      </trkpt>
      <trkpt lat="43.47402012906968593597412109375" lon="1.42005625180900096893310546875">
        <ele>154.1999969482421875</ele>
        <time>2026-08-05T11:25:25.000Z</time>
        <extensions>
          <ns3:TrackPointExtension>
            <ns3:hr>89</ns3:hr>
            <ns3:cad>48</ns3:cad>
          </ns3:TrackPointExtension>
        </extensions>
      </trkpt>
      <trkpt lat="43.47400470636785030364990234375" lon="1.4200618676841259002685546875">
        <ele>154.1999969482421875</ele>
        <time>2026-08-05T11:25:26.000Z</time>
        <extensions>
          <ns3:TrackPointExtension>
            <ns3:hr>89</ns3:hr>
            <ns3:cad>48</ns3:cad>
          </ns3:TrackPointExtension>
        </extensions>
      </trkpt>
      <trkpt lat="43.473994396626949310302734375" lon="1.42006446607410907745361328125">
        <ele>154.1999969482421875</ele>
        <time>2026-08-05T11:25:27.000Z</time>
        <extensions>
          <ns3:TrackPointExtension>
            <ns3:hr>89</ns3:hr>
            <ns3:cad>47</ns3:cad>
          </ns3:TrackPointExtension>
        </extensions>
      </trkpt>
      <trkpt lat="43.47398358397185802459716796875" lon="1.42006530426442623138427734375">
        <ele>154.1999969482421875</ele>
        <time>2026-08-05T11:25:28.000Z</time>
        <extensions>
          <ns3:TrackPointExtension>
            <ns3:hr>89</ns3:hr>
            <ns3:cad>47</ns3:cad>
          </ns3:TrackPointExtension>
        </extensions>
      </trkpt>
      <trkpt lat="43.47398090176284313201904296875" lon="1.420062370598316192626953125">
        <ele>154.1999969482421875</ele>
        <time>2026-08-05T11:25:29.000Z</time>
        <extensions>
          <ns3:TrackPointExtension>
            <ns3:hr>88</ns3:hr>
            <ns3:cad>47</ns3:cad>
          </ns3:TrackPointExtension>
        </extensions>
      </trkpt>
      <trkpt lat="43.47397268749773502349853515625" lon="1.42006295733153820037841796875">
        <ele>154.1999969482421875</ele>
        <time>2026-08-05T11:25:30.000Z</time>
        <extensions>
          <ns3:TrackPointExtension>
            <ns3:hr>88</ns3:hr>
            <ns3:cad>47</ns3:cad>
          </ns3:TrackPointExtension>
        </extensions>
      </trkpt>
      <trkpt lat="43.47395382821559906005859375" lon="1.42007620073854923248291015625">
        <ele>154.1999969482421875</ele>
        <time>2026-08-05T11:25:31.000Z</time>
        <extensions>
          <ns3:TrackPointExtension>
            <ns3:hr>88</ns3:hr>
            <ns3:cad>48</ns3:cad>
          </ns3:TrackPointExtension>
        </extensions>
      </trkpt>
      <trkpt lat="43.473943434655666351318359375" lon="1.42008148133754730224609375">
        <ele>154.1999969482421875</ele>
        <time>2026-08-05T11:25:32.000Z</time>
        <extensions>
          <ns3:TrackPointExtension>
            <ns3:hr>88</ns3:hr>
            <ns3:cad>48</ns3:cad>
          </ns3:TrackPointExtension>
        </extensions>
      </trkpt>
      <trkpt lat="43.47393614239990711212158203125" lon="1.420083157718181610107421875">
        <ele>154.1999969482421875</ele>
        <time>2026-08-05T11:25:33.000Z</time>
        <extensions>
          <ns3:TrackPointExtension>
            <ns3:hr>88</ns3:hr>
            <ns3:cad>47</ns3:cad>
          </ns3:TrackPointExtension>
        </extensions>
      </trkpt>
      <trkpt lat="43.4739275090396404266357421875" lon="1.420084498822689056396484375">
        <ele>154.1999969482421875</ele>
        <time>2026-08-05T11:25:34.000Z</time>
        <extensions>
          <ns3:TrackPointExtension>
            <ns3:hr>88</ns3:hr>
            <ns3:cad>47</ns3:cad>
          </ns3:TrackPointExtension>
        </extensions>
      </trkpt>
      <trkpt lat="43.47391854040324687957763671875" lon="1.42008692957460880279541015625">
        <ele>154.1999969482421875</ele>
        <time>2026-08-05T11:25:35.000Z</time>
        <extensions>
          <ns3:TrackPointExtension>
            <ns3:hr>88</ns3:hr>
            <ns3:cad>45</ns3:cad>
          </ns3:TrackPointExtension>
        </extensions>
      </trkpt>
      <trkpt lat="43.4739094041287899017333984375" lon="1.42009128816425800323486328125">
        <ele>154.1999969482421875</ele>
        <time>2026-08-05T11:25:36.000Z</time>
        <extensions>
          <ns3:TrackPointExtension>
            <ns3:hr>89</ns3:hr>
            <ns3:cad>0</ns3:cad>
          </ns3:TrackPointExtension>
        </extensions>
      </trkpt>
      <trkpt lat="43.473900854587554931640625" lon="1.4200957305729389190673828125">
        <ele>154.1999969482421875</ele>
        <time>2026-08-05T11:25:37.000Z</time>
        <extensions>
          <ns3:TrackPointExtension>
            <ns3:hr>89</ns3:hr>
            <ns3:cad>0</ns3:cad>
          </ns3:TrackPointExtension>
        </extensions>
      </trkpt>
      <trkpt lat="43.47389054484665393829345703125" lon="1.42009749077260494232177734375">
        <ele>154.1999969482421875</ele>
        <time>2026-08-05T11:25:38.000Z</time>
        <extensions>
          <ns3:TrackPointExtension>
            <ns3:hr>89</ns3:hr>
            <ns3:cad>0</ns3:cad>
          </ns3:TrackPointExtension>
        </extensions>
      </trkpt>
      <trkpt lat="43.473881073296070098876953125" lon="1.42010000534355640411376953125">
        <ele>154.1999969482421875</ele>
        <time>2026-08-05T11:25:39.000Z</time>
        <extensions>
          <ns3:TrackPointExtension>
            <ns3:hr>89</ns3:hr>
            <ns3:cad>0</ns3:cad>
          </ns3:TrackPointExtension>
        </extensions>
      </trkpt>
      <trkpt lat="43.47387093119323253631591796875" lon="1.42010184936225414276123046875">
        <ele>154.1999969482421875</ele>
        <time>2026-08-05T11:25:40.000Z</time>
        <extensions>
          <ns3:TrackPointExtension>
            <ns3:hr>89</ns3:hr>
            <ns3:cad>45</ns3:cad>
          </ns3:TrackPointExtension>
        </extensions>
      </trkpt>
      <trkpt lat="43.47386372275650501251220703125" lon="1.4201041124761104583740234375">
        <ele>154.1999969482421875</ele>
        <time>2026-08-05T11:25:41.000Z</time>
        <extensions>
          <ns3:TrackPointExtension>
            <ns3:hr>89</ns3:hr>
            <ns3:cad>47</ns3:cad>
          </ns3:TrackPointExtension>
        </extensions>
      </trkpt>
      <trkpt lat="43.47385316155850887298583984375" lon="1.420110650360584259033203125">
        <ele>154.1999969482421875</ele>
        <time>2026-08-05T11:25:42.000Z</time>
        <extensions>
          <ns3:TrackPointExtension>
            <ns3:hr>89</ns3:hr>
            <ns3:cad>48</ns3:cad>
          </ns3:TrackPointExtension>
        </extensions>
      </trkpt>
      <trkpt lat="43.473845534026622772216796875" lon="1.42011500895023345947265625">
        <ele>154.1999969482421875</ele>
        <time>2026-08-05T11:25:43.000Z</time>
        <extensions>
          <ns3:TrackPointExtension>
            <ns3:hr>89</ns3:hr>
            <ns3:cad>48</ns3:cad>
          </ns3:TrackPointExtension>
        </extensions>
      </trkpt>
      <trkpt lat="43.47383237443864345550537109375" lon="1.4201198704540729522705078125">
        <ele>154.1999969482421875</ele>
        <time>2026-08-05T11:25:44.000Z</time>
        <extensions>
          <ns3:TrackPointExtension>
            <ns3:hr>90</ns3:hr>
            <ns3:cad>48</ns3:cad>
          </ns3:TrackPointExtension>
        </extensions>
      </trkpt>
      <trkpt lat="43.473818041384220123291015625" lon="1.42012297175824642181396484375">
        <ele>154.1999969482421875</ele>
        <time>2026-08-05T11:25:45.000Z</time>
        <extensions>
          <ns3:TrackPointExtension>
            <ns3:hr>89</ns3:hr>
            <ns3:cad>47</ns3:cad>
          </ns3:TrackPointExtension>
        </extensions>
      </trkpt>
      <trkpt lat="43.4738051332533359527587890625" lon="1.4201242290437221527099609375">
        <ele>154.1999969482421875</ele>
        <time>2026-08-05T11:25:46.000Z</time>
        <extensions>
          <ns3:TrackPointExtension>
            <ns3:hr>90</ns3:hr>
            <ns3:cad>47</ns3:cad>
          </ns3:TrackPointExtension>
        </extensions>
      </trkpt>
      <trkpt lat="43.47379616461694240570068359375" lon="1.42012548632919788360595703125">
        <ele>154.1999969482421875</ele>
        <time>2026-08-05T11:25:47.000Z</time>
        <extensions>
          <ns3:TrackPointExtension>
            <ns3:hr>90</ns3:hr>
            <ns3:cad>47</ns3:cad>
          </ns3:TrackPointExtension>
        </extensions>
      </trkpt>
      <trkpt lat="43.4737856872379779815673828125" lon="1.4201264083385467529296875">
        <ele>154.1999969482421875</ele>
        <time>2026-08-05T11:25:48.000Z</time>
        <extensions>
          <ns3:TrackPointExtension>
            <ns3:hr>90</ns3:hr>
            <ns3:cad>47</ns3:cad>
          </ns3:TrackPointExtension>
        </extensions>
      </trkpt>
      <trkpt lat="43.4737779758870601654052734375" lon="1.42012783326208591461181640625">
        <ele>154.1999969482421875</ele>
        <time>2026-08-05T11:25:49.000Z</time>
        <extensions>
          <ns3:TrackPointExtension>
            <ns3:hr>91</ns3:hr>
            <ns3:cad>48</ns3:cad>
          </ns3:TrackPointExtension>
        </extensions>
      </trkpt>
      <trkpt lat="43.4737635590136051177978515625" lon="1.42013403587043285369873046875">
        <ele>154.1999969482421875</ele>
        <time>2026-08-05T11:25:50.000Z</time>
        <extensions>
          <ns3:TrackPointExtension>
            <ns3:hr>91</ns3:hr>
            <ns3:cad>48</ns3:cad>
          </ns3:TrackPointExtension>
        </extensions>
      </trkpt>
      <trkpt lat="43.47375324927270412445068359375" lon="1.42013655044138431549072265625">
        <ele>154.1999969482421875</ele>
        <time>2026-08-05T11:25:51.000Z</time>
        <extensions>
          <ns3:TrackPointExtension>
            <ns3:hr>91</ns3:hr>
            <ns3:cad>48</ns3:cad>
          </ns3:TrackPointExtension>
        </extensions>
      </trkpt>
      <trkpt lat="43.47374369390308856964111328125" lon="1.42013914883136749267578125">
        <ele>154.1999969482421875</ele>
        <time>2026-08-05T11:25:52.000Z</time>
        <extensions>
          <ns3:TrackPointExtension>
            <ns3:hr>91</ns3:hr>
            <ns3:cad>48</ns3:cad>
          </ns3:TrackPointExtension>
        </extensions>
      </trkpt>
      <trkpt lat="43.47373849712312221527099609375" lon="1.420137472450733184814453125">
        <ele>154.1999969482421875</ele>
        <time>2026-08-05T11:25:53.000Z</time>
        <extensions>
          <ns3:TrackPointExtension>
            <ns3:hr>91</ns3:hr>
            <ns3:cad>50</ns3:cad>
          </ns3:TrackPointExtension>
        </extensions>
      </trkpt>
      <trkpt lat="43.47372374497354030609130859375" lon="1.42014183104038238525390625">
        <ele>154.1999969482421875</ele>
        <time>2026-08-05T11:25:54.000Z</time>
        <extensions>
          <ns3:TrackPointExtension>
            <ns3:hr>91</ns3:hr>
            <ns3:cad>50</ns3:cad>
          </ns3:TrackPointExtension>
        </extensions>
      </trkpt>
      <trkpt lat="43.47370983101427555084228515625" lon="1.4201473630964756011962890625">
        <ele>154.1999969482421875</ele>
        <time>2026-08-05T11:25:55.000Z</time>
        <extensions>
          <ns3:TrackPointExtension>
            <ns3:hr>91</ns3:hr>
            <ns3:cad>49</ns3:cad>
          </ns3:TrackPointExtension>
        </extensions>
      </trkpt>
      <trkpt lat="43.473697341978549957275390625" lon="1.4201450161635875701904296875">
        <ele>154.1999969482421875</ele>
        <time>2026-08-05T11:25:56.000Z</time>
        <extensions>
          <ns3:TrackPointExtension>
            <ns3:hr>91</ns3:hr>
            <ns3:cad>47</ns3:cad>
          </ns3:TrackPointExtension>
        </extensions>
      </trkpt>
      <trkpt lat="43.47369004972279071807861328125" lon="1.4201423339545726776123046875">
        <ele>154.1999969482421875</ele>
        <time>2026-08-05T11:25:57.000Z</time>
        <extensions>
          <ns3:TrackPointExtension>
            <ns3:hr>91</ns3:hr>
            <ns3:cad>47</ns3:cad>
          </ns3:TrackPointExtension>
        </extensions>
      </trkpt>
      <trkpt lat="43.4736787341535091400146484375" lon="1.42014509998261928558349609375">
        <ele>154.1999969482421875</ele>
        <time>2026-08-05T11:25:58.000Z</time>
        <extensions>
          <ns3:TrackPointExtension>
            <ns3:hr>91</ns3:hr>
            <ns3:cad>47</ns3:cad>
          </ns3:TrackPointExtension>
        </extensions>
      </trkpt>
      <trkpt lat="43.47366842441260814666748046875" lon="1.4201473630964756011962890625">
        <ele>154.1999969482421875</ele>
        <time>2026-08-05T11:25:59.000Z</time>
        <extensions>
          <ns3:TrackPointExtension>
            <ns3:hr>92</ns3:hr>
            <ns3:cad>47</ns3:cad>
          </ns3:TrackPointExtension>
        </extensions>
      </trkpt>
      <trkpt lat="43.47365836612880229949951171875" lon="1.4201503805816173553466796875">
        <ele>154.1999969482421875</ele>
        <time>2026-08-05T11:26:00.000Z</time>
        <extensions>
          <ns3:TrackPointExtension>
            <ns3:hr>92</ns3:hr>
            <ns3:cad>46</ns3:cad>
          </ns3:TrackPointExtension>
        </extensions>
      </trkpt>
      <trkpt lat="43.4736515767872333526611328125" lon="1.42015180550515651702880859375">
        <ele>154.1999969482421875</ele>
        <time>2026-08-05T11:26:01.000Z</time>
        <extensions>
          <ns3:TrackPointExtension>
            <ns3:hr>92</ns3:hr>
            <ns3:cad>46</ns3:cad>
          </ns3:TrackPointExtension>
        </extensions>
      </trkpt>
      <trkpt lat="43.47364009357988834381103515625" lon="1.420156918466091156005859375">
        <ele>154.1999969482421875</ele>
        <time>2026-08-05T11:26:02.000Z</time>
        <extensions>
          <ns3:TrackPointExtension>
            <ns3:hr>93</ns3:hr>
            <ns3:cad>46</ns3:cad>
          </ns3:TrackPointExtension>
        </extensions>
      </trkpt>
      <trkpt lat="43.473631627857685089111328125" lon="1.42016203142702579498291015625">
        <ele>154.1999969482421875</ele>
        <time>2026-08-05T11:26:03.000Z</time>
        <extensions>
          <ns3:TrackPointExtension>
            <ns3:hr>94</ns3:hr>
            <ns3:cad>46</ns3:cad>
          </ns3:TrackPointExtension>
        </extensions>
      </trkpt>
      <trkpt lat="43.473620899021625518798828125" lon="1.4201681502163410186767578125">
        <ele>154.1999969482421875</ele>
        <time>2026-08-05T11:26:04.000Z</time>
        <extensions>
          <ns3:TrackPointExtension>
            <ns3:hr>94</ns3:hr>
            <ns3:cad>45</ns3:cad>
          </ns3:TrackPointExtension>
        </extensions>
      </trkpt>
      <trkpt lat="43.47360958345234394073486328125" lon="1.42017326317727565765380859375">
        <ele>154.1999969482421875</ele>
        <time>2026-08-05T11:26:05.000Z</time>
        <extensions>
          <ns3:TrackPointExtension>
            <ns3:hr>94</ns3:hr>
            <ns3:cad>46</ns3:cad>
          </ns3:TrackPointExtension>
        </extensions>
      </trkpt>
      <trkpt lat="43.47360036335885524749755859375" lon="1.42017804086208343505859375">
        <ele>154.1999969482421875</ele>
        <time>2026-08-05T11:26:06.000Z</time>
        <extensions>
          <ns3:TrackPointExtension>
            <ns3:hr>94</ns3:hr>
            <ns3:cad>45</ns3:cad>
          </ns3:TrackPointExtension>
        </extensions>
      </trkpt>
      <trkpt lat="43.47358846105635166168212890625" lon="1.4201855845749378204345703125">
        <ele>154.1999969482421875</ele>
        <time>2026-08-05T11:26:07.000Z</time>
        <extensions>
          <ns3:TrackPointExtension>
            <ns3:hr>94</ns3:hr>
            <ns3:cad>46</ns3:cad>
          </ns3:TrackPointExtension>
        </extensions>
      </trkpt>
      <trkpt lat="43.4735761396586894989013671875" lon="1.4201907813549041748046875">
        <ele>154.1999969482421875</ele>
        <time>2026-08-05T11:26:08.000Z</time>
        <extensions>
          <ns3:TrackPointExtension>
            <ns3:hr>95</ns3:hr>
            <ns3:cad>46</ns3:cad>
          </ns3:TrackPointExtension>
        </extensions>
      </trkpt>
      <trkpt lat="43.47356633283197879791259765625" lon="1.4201922900974750518798828125">
        <ele>154</ele>
        <time>2026-08-05T11:26:09.000Z</time>
        <extensions>
          <ns3:TrackPointExtension>
            <ns3:hr>94</ns3:hr>
            <ns3:cad>46</ns3:cad>
          </ns3:TrackPointExtension>
        </extensions>
      </trkpt>
      <trkpt lat="43.47355828620493412017822265625" lon="1.42019757069647312164306640625">
        <ele>154</ele>
        <time>2026-08-05T11:26:10.000Z</time>
        <extensions>
          <ns3:TrackPointExtension>
            <ns3:hr>95</ns3:hr>
            <ns3:cad>46</ns3:cad>
          </ns3:TrackPointExtension>
        </extensions>
      </trkpt>
      <trkpt lat="43.473546802997589111328125" lon="1.420202516019344329833984375">
        <ele>154</ele>
        <time>2026-08-05T11:26:11.000Z</time>
        <extensions>
          <ns3:TrackPointExtension>
            <ns3:hr>95</ns3:hr>
            <ns3:cad>45</ns3:cad>
          </ns3:TrackPointExtension>
        </extensions>
      </trkpt>
      <trkpt lat="43.47353280521929264068603515625" lon="1.42020813189446926116943359375">
        <ele>154</ele>
        <time>2026-08-05T11:26:12.000Z</time>
        <extensions>
          <ns3:TrackPointExtension>
            <ns3:hr>95</ns3:hr>
            <ns3:cad>45</ns3:cad>
          </ns3:TrackPointExtension>
        </extensions>
      </trkpt>
      <trkpt lat="43.47351931035518646240234375" lon="1.4202157594263553619384765625">
        <ele>154</ele>
        <time>2026-08-05T11:26:13.000Z</time>
        <extensions>
          <ns3:TrackPointExtension>
            <ns3:hr>94</ns3:hr>
            <ns3:cad>46</ns3:cad>
          </ns3:TrackPointExtension>
        </extensions>
      </trkpt>
      <trkpt lat="43.47350916825234889984130859375" lon="1.42021517269313335418701171875">
        <ele>153.8000030517578125</ele>
        <time>2026-08-05T11:26:14.000Z</time>
        <extensions>
          <ns3:TrackPointExtension>
            <ns3:hr>93</ns3:hr>
            <ns3:cad>46</ns3:cad>
          </ns3:TrackPointExtension>
        </extensions>
      </trkpt>
      <trkpt lat="43.47349810414016246795654296875" lon="1.42021584324538707733154296875">
        <ele>153.8000030517578125</ele>
        <time>2026-08-05T11:26:15.000Z</time>
        <extensions>
          <ns3:TrackPointExtension>
            <ns3:hr>92</ns3:hr>
            <ns3:cad>47</ns3:cad>
          </ns3:TrackPointExtension>
        </extensions>
      </trkpt>
      <trkpt lat="43.4734859503805637359619140625" lon="1.42022070474922657012939453125">
        <ele>153.8000030517578125</ele>
        <time>2026-08-05T11:26:16.000Z</time>
        <extensions>
          <ns3:TrackPointExtension>
            <ns3:hr>91</ns3:hr>
            <ns3:cad>47</ns3:cad>
          </ns3:TrackPointExtension>
        </extensions>
      </trkpt>
      <trkpt lat="43.47347714938223361968994140625" lon="1.42022087238729000091552734375">
        <ele>153.8000030517578125</ele>
        <time>2026-08-05T11:26:17.000Z</time>
        <extensions>
          <ns3:TrackPointExtension>
            <ns3:hr>91</ns3:hr>
            <ns3:cad>48</ns3:cad>
          </ns3:TrackPointExtension>
        </extensions>
      </trkpt>
      <trkpt lat="43.47347195260226726531982421875" lon="1.42021869309246540069580078125">
        <ele>153.8000030517578125</ele>
        <time>2026-08-05T11:26:18.000Z</time>
        <extensions>
          <ns3:TrackPointExtension>
            <ns3:hr>91</ns3:hr>
            <ns3:cad>48</ns3:cad>
          </ns3:TrackPointExtension>
        </extensions>
      </trkpt>
      <trkpt lat="43.4734649956226348876953125" lon="1.42021181993186473846435546875">
        <ele>153.8000030517578125</ele>
        <time>2026-08-05T11:26:19.000Z</time>
        <extensions>
          <ns3:TrackPointExtension>
            <ns3:hr>91</ns3:hr>
            <ns3:cad>47</ns3:cad>
          </ns3:TrackPointExtension>
        </extensions>
      </trkpt>
      <trkpt lat="43.47345703281462192535400390625" lon="1.42021651379764080047607421875">
        <ele>153.600006103515625</ele>
        <time>2026-08-05T11:26:20.000Z</time>
        <extensions>
          <ns3:TrackPointExtension>
            <ns3:hr>91</ns3:hr>
            <ns3:cad>46</ns3:cad>
          </ns3:TrackPointExtension>
        </extensions>
      </trkpt>
      <trkpt lat="43.4734494052827358245849609375" lon="1.420221626758575439453125">
        <ele>153.600006103515625</ele>
        <time>2026-08-05T11:26:21.000Z</time>
        <extensions>
          <ns3:TrackPointExtension>
            <ns3:hr>91</ns3:hr>
            <ns3:cad>0</ns3:cad>
          </ns3:TrackPointExtension>
        </extensions>
      </trkpt>
      <trkpt lat="43.47344018518924713134765625" lon="1.4202211238443851470947265625">
        <ele>153.600006103515625</ele>
        <time>2026-08-05T11:26:22.000Z</time>
        <extensions>
          <ns3:TrackPointExtension>
            <ns3:hr>90</ns3:hr>
            <ns3:cad>45</ns3:cad>
          </ns3:TrackPointExtension>
        </extensions>
      </trkpt>
      <trkpt lat="43.47343322820961475372314453125" lon="1.42022573389112949371337890625">
        <ele>153.600006103515625</ele>
        <time>2026-08-05T11:26:23.000Z</time>
        <extensions>
          <ns3:TrackPointExtension>
            <ns3:hr>90</ns3:hr>
            <ns3:cad>45</ns3:cad>
          </ns3:TrackPointExtension>
        </extensions>
      </trkpt>
      <trkpt lat="43.47341981716454029083251953125" lon="1.42023160122334957122802734375">
        <ele>153.600006103515625</ele>
        <time>2026-08-05T11:26:24.000Z</time>
        <extensions>
          <ns3:TrackPointExtension>
            <ns3:hr>90</ns3:hr>
            <ns3:cad>46</ns3:cad>
          </ns3:TrackPointExtension>
        </extensions>
      </trkpt>
      <trkpt lat="43.47340799868106842041015625" lon="1.42023545689880847930908203125">
        <ele>153.399993896484375</ele>
        <time>2026-08-05T11:26:25.000Z</time>
        <extensions>
          <ns3:TrackPointExtension>
            <ns3:hr>90</ns3:hr>
            <ns3:cad>50</ns3:cad>
          </ns3:TrackPointExtension>
        </extensions>
      </trkpt>
      <trkpt lat="43.47339903004467487335205078125" lon="1.4202378876507282257080078125">
        <ele>153.399993896484375</ele>
        <time>2026-08-05T11:26:26.000Z</time>
        <extensions>
          <ns3:TrackPointExtension>
            <ns3:hr>90</ns3:hr>
            <ns3:cad>50</ns3:cad>
          </ns3:TrackPointExtension>
        </extensions>
      </trkpt>
      <trkpt lat="43.4733907319605350494384765625" lon="1.420240066945552825927734375">
        <ele>153.399993896484375</ele>
        <time>2026-08-05T11:26:27.000Z</time>
        <extensions>
          <ns3:TrackPointExtension>
            <ns3:hr>90</ns3:hr>
            <ns3:cad>50</ns3:cad>
          </ns3:TrackPointExtension>
        </extensions>
      </trkpt>
      <trkpt lat="43.4733831882476806640625" lon="1.42024911940097808837890625">
        <ele>153.399993896484375</ele>
        <time>2026-08-05T11:26:28.000Z</time>
        <extensions>
          <ns3:TrackPointExtension>
            <ns3:hr>90</ns3:hr>
            <ns3:cad>50</ns3:cad>
          </ns3:TrackPointExtension>
        </extensions>
      </trkpt>
      <trkpt lat="43.473368771374225616455078125" lon="1.42025657929480075836181640625">
        <ele>153.399993896484375</ele>
        <time>2026-08-05T11:26:29.000Z</time>
        <extensions>
          <ns3:TrackPointExtension>
            <ns3:hr>89</ns3:hr>
            <ns3:cad>50</ns3:cad>
          </ns3:TrackPointExtension>
        </extensions>
      </trkpt>
      <trkpt lat="43.47335846163332462310791015625" lon="1.42026060260832309722900390625">
        <ele>153.399993896484375</ele>
        <time>2026-08-05T11:26:30.000Z</time>
        <extensions>
          <ns3:TrackPointExtension>
            <ns3:hr>89</ns3:hr>
            <ns3:cad>50</ns3:cad>
          </ns3:TrackPointExtension>
        </extensions>
      </trkpt>
      <trkpt lat="43.47334689460694789886474609375" lon="1.42026244662702083587646484375">
        <ele>153.600006103515625</ele>
        <time>2026-08-05T11:26:31.000Z</time>
        <extensions>
          <ns3:TrackPointExtension>
            <ns3:hr>90</ns3:hr>
            <ns3:cad>50</ns3:cad>
          </ns3:TrackPointExtension>
        </extensions>
      </trkpt>
      <trkpt lat="43.4733377583324909210205078125" lon="1.42026630230247974395751953125">
        <ele>153.600006103515625</ele>
        <time>2026-08-05T11:26:32.000Z</time>
        <extensions>
          <ns3:TrackPointExtension>
            <ns3:hr>90</ns3:hr>
            <ns3:cad>50</ns3:cad>
          </ns3:TrackPointExtension>
        </extensions>
      </trkpt>
      <trkpt lat="43.4733273647725582122802734375" lon="1.420264542102813720703125">
        <ele>153.600006103515625</ele>
        <time>2026-08-05T11:26:33.000Z</time>
        <extensions>
          <ns3:TrackPointExtension>
            <ns3:hr>90</ns3:hr>
            <ns3:cad>46</ns3:cad>
          </ns3:TrackPointExtension>
        </extensions>
      </trkpt>
      <trkpt lat="43.4733152948319911956787109375" lon="1.42026512883603572845458984375">
        <ele>153.600006103515625</ele>
        <time>2026-08-05T11:26:34.000Z</time>
        <extensions>
          <ns3:TrackPointExtension>
            <ns3:hr>89</ns3:hr>
            <ns3:cad>46</ns3:cad>
          </ns3:TrackPointExtension>
        </extensions>
      </trkpt>
      <trkpt lat="43.47330129705369472503662109375" lon="1.4202657155692577362060546875">
        <ele>153.600006103515625</ele>
        <time>2026-08-05T11:26:35.000Z</time>
        <extensions>
          <ns3:TrackPointExtension>
            <ns3:hr>90</ns3:hr>
            <ns3:cad>46</ns3:cad>
          </ns3:TrackPointExtension>
        </extensions>
      </trkpt>
      <trkpt lat="43.47328805364668369293212890625" lon="1.42026714049279689788818359375">
        <ele>153.600006103515625</ele>
        <time>2026-08-05T11:26:36.000Z</time>
        <extensions>
          <ns3:TrackPointExtension>
            <ns3:hr>89</ns3:hr>
            <ns3:cad>50</ns3:cad>
          </ns3:TrackPointExtension>
        </extensions>
      </trkpt>
      <trkpt lat="43.4732777439057826995849609375" lon="1.4202694036066532135009765625">
        <ele>153.600006103515625</ele>
        <time>2026-08-05T11:26:37.000Z</time>
        <extensions>
          <ns3:TrackPointExtension>
            <ns3:hr>89</ns3:hr>
            <ns3:cad>50</ns3:cad>
          </ns3:TrackPointExtension>
        </extensions>
      </trkpt>
      <trkpt lat="43.473269529640674591064453125" lon="1.420266889035701751708984375">
        <ele>153.600006103515625</ele>
        <time>2026-08-05T11:26:38.000Z</time>
        <extensions>
          <ns3:TrackPointExtension>
            <ns3:hr>89</ns3:hr>
            <ns3:cad>50</ns3:cad>
          </ns3:TrackPointExtension>
        </extensions>
      </trkpt>
      <trkpt lat="43.47325687296688556671142578125" lon="1.42026663757860660552978515625">
        <ele>153.600006103515625</ele>
        <time>2026-08-05T11:26:39.000Z</time>
        <extensions>
          <ns3:TrackPointExtension>
            <ns3:hr>90</ns3:hr>
            <ns3:cad>50</ns3:cad>
          </ns3:TrackPointExtension>
        </extensions>
      </trkpt>
      <trkpt lat="43.47324346192181110382080078125" lon="1.42026546411216259002685546875">
        <ele>153.600006103515625</ele>
        <time>2026-08-05T11:26:40.000Z</time>
        <extensions>
          <ns3:TrackPointExtension>
            <ns3:hr>89</ns3:hr>
            <ns3:cad>50</ns3:cad>
          </ns3:TrackPointExtension>
        </extensions>
      </trkpt>
      <trkpt lat="43.473234660923480987548828125" lon="1.42026563175022602081298828125">
        <ele>153.600006103515625</ele>
        <time>2026-08-05T11:26:41.000Z</time>
        <extensions>
          <ns3:TrackPointExtension>
            <ns3:hr>89</ns3:hr>
            <ns3:cad>47</ns3:cad>
          </ns3:TrackPointExtension>
        </extensions>
      </trkpt>
      <trkpt lat="43.47322217188775539398193359375" lon="1.42026764340698719024658203125">
        <ele>153.600006103515625</ele>
        <time>2026-08-05T11:26:42.000Z</time>
        <extensions>
          <ns3:TrackPointExtension>
            <ns3:hr>89</ns3:hr>
            <ns3:cad>47</ns3:cad>
          </ns3:TrackPointExtension>
        </extensions>
      </trkpt>
      <trkpt lat="43.47321211360394954681396484375" lon="1.42026722431182861328125">
        <ele>153.600006103515625</ele>
        <time>2026-08-05T11:26:43.000Z</time>
        <extensions>
          <ns3:TrackPointExtension>
            <ns3:hr>89</ns3:hr>
            <ns3:cad>47</ns3:cad>
          </ns3:TrackPointExtension>
        </extensions>
      </trkpt>
      <trkpt lat="43.4731982834637165069580078125" lon="1.42027166672050952911376953125">
        <ele>153.600006103515625</ele>
        <time>2026-08-05T11:26:44.000Z</time>
        <extensions>
          <ns3:TrackPointExtension>
            <ns3:hr>89</ns3:hr>
            <ns3:cad>48</ns3:cad>
          </ns3:TrackPointExtension>
        </extensions>
      </trkpt>
      <trkpt lat="43.47318529151380062103271484375" lon="1.4202747680246829986572265625">
        <ele>153.600006103515625</ele>
        <time>2026-08-05T11:26:45.000Z</time>
        <extensions>
          <ns3:TrackPointExtension>
            <ns3:hr>89</ns3:hr>
            <ns3:cad>48</ns3:cad>
          </ns3:TrackPointExtension>
        </extensions>
      </trkpt>
      <trkpt lat="43.4731753170490264892578125" lon="1.42027418129146099090576171875">
        <ele>153.600006103515625</ele>
        <time>2026-08-05T11:26:46.000Z</time>
        <extensions>
          <ns3:TrackPointExtension>
            <ns3:hr>88</ns3:hr>
            <ns3:cad>48</ns3:cad>
          </ns3:TrackPointExtension>
        </extensions>
      </trkpt>
      <trkpt lat="43.47316525876522064208984375" lon="1.420275270938873291015625">
        <ele>153.600006103515625</ele>
        <time>2026-08-05T11:26:47.000Z</time>
        <extensions>
          <ns3:TrackPointExtension>
            <ns3:hr>88</ns3:hr>
            <ns3:cad>47</ns3:cad>
          </ns3:TrackPointExtension>
        </extensions>
      </trkpt>
      <trkpt lat="43.47315645776689052581787109375" lon="1.42027652822434902191162109375">
        <ele>153.600006103515625</ele>
        <time>2026-08-05T11:26:48.000Z</time>
        <extensions>
          <ns3:TrackPointExtension>
            <ns3:hr>88</ns3:hr>
            <ns3:cad>47</ns3:cad>
          </ns3:TrackPointExtension>
        </extensions>
      </trkpt>
      <trkpt lat="43.47314489074051380157470703125" lon="1.42027770169079303741455078125">
        <ele>153.600006103515625</ele>
        <time>2026-08-05T11:26:49.000Z</time>
        <extensions>
          <ns3:TrackPointExtension>
            <ns3:hr>88</ns3:hr>
            <ns3:cad>47</ns3:cad>
          </ns3:TrackPointExtension>
        </extensions>
      </trkpt>
      <trkpt lat="43.4731324017047882080078125" lon="1.42027862370014190673828125">
        <ele>153.600006103515625</ele>
        <time>2026-08-05T11:26:50.000Z</time>
        <extensions>
          <ns3:TrackPointExtension>
            <ns3:hr>88</ns3:hr>
            <ns3:cad>47</ns3:cad>
          </ns3:TrackPointExtension>
        </extensions>
      </trkpt>
      <trkpt lat="43.47312234342098236083984375" lon="1.4202774502336978912353515625">
        <ele>153.600006103515625</ele>
        <time>2026-08-05T11:26:51.000Z</time>
        <extensions>
          <ns3:TrackPointExtension>
            <ns3:hr>88</ns3:hr>
            <ns3:cad>47</ns3:cad>
          </ns3:TrackPointExtension>
        </extensions>
      </trkpt>
      <trkpt lat="43.4731124527752399444580078125" lon="1.42027585767209529876708984375">
        <ele>153.600006103515625</ele>
        <time>2026-08-05T11:26:52.000Z</time>
        <extensions>
          <ns3:TrackPointExtension>
            <ns3:hr>88</ns3:hr>
            <ns3:cad>47</ns3:cad>
          </ns3:TrackPointExtension>
        </extensions>
      </trkpt>
      <trkpt lat="43.47310281358659267425537109375" lon="1.420276947319507598876953125">
        <ele>153.600006103515625</ele>
        <time>2026-08-05T11:26:53.000Z</time>
        <extensions>
          <ns3:TrackPointExtension>
            <ns3:hr>87</ns3:hr>
            <ns3:cad>47</ns3:cad>
          </ns3:TrackPointExtension>
        </extensions>
      </trkpt>
      <trkpt lat="43.47309141419827938079833984375" lon="1.4202797971665859222412109375">
        <ele>153.399993896484375</ele>
        <time>2026-08-05T11:26:54.000Z</time>
        <extensions>
          <ns3:TrackPointExtension>
            <ns3:hr>87</ns3:hr>
            <ns3:cad>47</ns3:cad>
          </ns3:TrackPointExtension>
        </extensions>
      </trkpt>
      <trkpt lat="43.4730819426476955413818359375" lon="1.42027988098561763763427734375">
        <ele>153.399993896484375</ele>
        <time>2026-08-05T11:26:55.000Z</time>
        <extensions>
          <ns3:TrackPointExtension>
            <ns3:hr>87</ns3:hr>
            <ns3:cad>48</ns3:cad>
          </ns3:TrackPointExtension>
        </extensions>
      </trkpt>
      <trkpt lat="43.4730732254683971405029296875" lon="1.42027921043336391448974609375">
        <ele>153.399993896484375</ele>
        <time>2026-08-05T11:26:56.000Z</time>
        <extensions>
          <ns3:TrackPointExtension>
            <ns3:hr>87</ns3:hr>
            <ns3:cad>48</ns3:cad>
          </ns3:TrackPointExtension>
        </extensions>
      </trkpt>
      <trkpt lat="43.473064340651035308837890625" lon="1.4202767796814441680908203125">
        <ele>153.399993896484375</ele>
        <time>2026-08-05T11:26:57.000Z</time>
        <extensions>
          <ns3:TrackPointExtension>
            <ns3:hr>87</ns3:hr>
            <ns3:cad>48</ns3:cad>
          </ns3:TrackPointExtension>
        </extensions>
      </trkpt>
      <trkpt lat="43.4730531089007854461669921875" lon="1.42027552239596843719482421875">
        <ele>153.600006103515625</ele>
        <time>2026-08-05T11:26:58.000Z</time>
        <extensions>
          <ns3:TrackPointExtension>
            <ns3:hr>87</ns3:hr>
            <ns3:cad>48</ns3:cad>
          </ns3:TrackPointExtension>
        </extensions>
      </trkpt>
      <trkpt lat="43.4730412065982818603515625" lon="1.42027535475790500640869140625">
        <ele>153.600006103515625</ele>
        <time>2026-08-05T11:26:59.000Z</time>
        <extensions>
          <ns3:TrackPointExtension>
            <ns3:hr>87</ns3:hr>
            <ns3:cad>48</ns3:cad>
          </ns3:TrackPointExtension>
        </extensions>
      </trkpt>
      <trkpt lat="43.47303022630512714385986328125" lon="1.42027652822434902191162109375">
        <ele>153.600006103515625</ele>
        <time>2026-08-05T11:27:00.000Z</time>
        <extensions>
          <ns3:TrackPointExtension>
            <ns3:hr>86</ns3:hr>
            <ns3:cad>48</ns3:cad>
          </ns3:TrackPointExtension>
        </extensions>
      </trkpt>
      <trkpt lat="43.47302050329744815826416015625" lon="1.42027594149112701416015625">
        <ele>153.600006103515625</ele>
        <time>2026-08-05T11:27:01.000Z</time>
        <extensions>
          <ns3:TrackPointExtension>
            <ns3:hr>86</ns3:hr>
            <ns3:cad>48</ns3:cad>
          </ns3:TrackPointExtension>
        </extensions>
      </trkpt>
      <trkpt lat="43.4730098582804203033447265625" lon="1.42027954570949077606201171875">
        <ele>153.600006103515625</ele>
        <time>2026-08-05T11:27:02.000Z</time>
        <extensions>
          <ns3:TrackPointExtension>
            <ns3:hr>86</ns3:hr>
            <ns3:cad>48</ns3:cad>
          </ns3:TrackPointExtension>
        </extensions>
      </trkpt>
      <trkpt lat="43.47299896180629730224609375" lon="1.4202844910323619842529296875">
        <ele>153.600006103515625</ele>
        <time>2026-08-05T11:27:03.000Z</time>
        <extensions>
          <ns3:TrackPointExtension>
            <ns3:hr>86</ns3:hr>
            <ns3:cad>47</ns3:cad>
          </ns3:TrackPointExtension>
        </extensions>
      </trkpt>
      <trkpt lat="43.47299066372215747833251953125" lon="1.42028457485139369964599609375">
        <ele>153.600006103515625</ele>
        <time>2026-08-05T11:27:04.000Z</time>
        <extensions>
          <ns3:TrackPointExtension>
            <ns3:hr>85</ns3:hr>
            <ns3:cad>47</ns3:cad>
          </ns3:TrackPointExtension>
        </extensions>
      </trkpt>
      <trkpt lat="43.4729827009141445159912109375" lon="1.42028541304171085357666015625">
        <ele>153.600006103515625</ele>
        <time>2026-08-05T11:27:05.000Z</time>
        <extensions>
          <ns3:TrackPointExtension>
            <ns3:hr>86</ns3:hr>
            <ns3:cad>47</ns3:cad>
          </ns3:TrackPointExtension>
        </extensions>
      </trkpt>
      <trkpt lat="43.47297356463968753814697265625" lon="1.42028524540364742279052734375">
        <ele>153.600006103515625</ele>
        <time>2026-08-05T11:27:06.000Z</time>
        <extensions>
          <ns3:TrackPointExtension>
            <ns3:hr>86</ns3:hr>
            <ns3:cad>48</ns3:cad>
          </ns3:TrackPointExtension>
        </extensions>
      </trkpt>
      <trkpt lat="43.47296149469912052154541015625" lon="1.42028893344104290008544921875">
        <ele>153.600006103515625</ele>
        <time>2026-08-05T11:27:07.000Z</time>
        <extensions>
          <ns3:TrackPointExtension>
            <ns3:hr>85</ns3:hr>
            <ns3:cad>48</ns3:cad>
          </ns3:TrackPointExtension>
        </extensions>
      </trkpt>
      <trkpt lat="43.4729500114917755126953125" lon="1.42029228620231151580810546875">
        <ele>153.600006103515625</ele>
        <time>2026-08-05T11:27:08.000Z</time>
        <extensions>
          <ns3:TrackPointExtension>
            <ns3:hr>86</ns3:hr>
            <ns3:cad>48</ns3:cad>
          </ns3:TrackPointExtension>
        </extensions>
      </trkpt>
      <trkpt lat="43.47294020466506481170654296875" lon="1.4202927052974700927734375">
        <ele>153.600006103515625</ele>
        <time>2026-08-05T11:27:09.000Z</time>
        <extensions>
          <ns3:TrackPointExtension>
            <ns3:hr>86</ns3:hr>
            <ns3:cad>47</ns3:cad>
          </ns3:TrackPointExtension>
        </extensions>
      </trkpt>
      <trkpt lat="43.47293014638125896453857421875" lon="1.42029480077326297760009765625">
        <ele>153.600006103515625</ele>
        <time>2026-08-05T11:27:10.000Z</time>
        <extensions>
          <ns3:TrackPointExtension>
            <ns3:hr>85</ns3:hr>
            <ns3:cad>46</ns3:cad>
          </ns3:TrackPointExtension>
        </extensions>
      </trkpt>
      <trkpt lat="43.4729186631739139556884765625" lon="1.4202962256968021392822265625">
        <ele>153.600006103515625</ele>
        <time>2026-08-05T11:27:11.000Z</time>
        <extensions>
          <ns3:TrackPointExtension>
            <ns3:hr>86</ns3:hr>
            <ns3:cad>46</ns3:cad>
          </ns3:TrackPointExtension>
        </extensions>
      </trkpt>
      <trkpt lat="43.4729059226810932159423828125" lon="1.42029714770615100860595703125">
        <ele>153.8000030517578125</ele>
        <time>2026-08-05T11:27:12.000Z</time>
        <extensions>
          <ns3:TrackPointExtension>
            <ns3:hr>86</ns3:hr>
            <ns3:cad>46</ns3:cad>
          </ns3:TrackPointExtension>
        </extensions>
      </trkpt>
      <trkpt lat="43.47289393655955791473388671875" lon="1.420298404991626739501953125">
        <ele>153.8000030517578125</ele>
        <time>2026-08-05T11:27:13.000Z</time>
        <extensions>
          <ns3:TrackPointExtension>
            <ns3:hr>86</ns3:hr>
            <ns3:cad>46</ns3:cad>
          </ns3:TrackPointExtension>
        </extensions>
      </trkpt>
      <trkpt lat="43.47288438118994235992431640625" lon="1.42029999755322933197021484375">
        <ele>153.8000030517578125</ele>
        <time>2026-08-05T11:27:14.000Z</time>
        <extensions>
          <ns3:TrackPointExtension>
            <ns3:hr>85</ns3:hr>
            <ns3:cad>46</ns3:cad>
          </ns3:TrackPointExtension>
        </extensions>
      </trkpt>
      <trkpt lat="43.4728744067251682281494140625" lon="1.42029739916324615478515625">
        <ele>153.8000030517578125</ele>
        <time>2026-08-05T11:27:15.000Z</time>
        <extensions>
          <ns3:TrackPointExtension>
            <ns3:hr>86</ns3:hr>
            <ns3:cad>47</ns3:cad>
          </ns3:TrackPointExtension>
        </extensions>
      </trkpt>
      <trkpt lat="43.47286560572683811187744140625" lon="1.4202975668013095855712890625">
        <ele>153.8000030517578125</ele>
        <time>2026-08-05T11:27:16.000Z</time>
        <extensions>
          <ns3:TrackPointExtension>
            <ns3:hr>86</ns3:hr>
            <ns3:cad>47</ns3:cad>
          </ns3:TrackPointExtension>
        </extensions>
      </trkpt>
      <trkpt lat="43.47285118885338306427001953125" lon="1.4202975668013095855712890625">
        <ele>153.8000030517578125</ele>
        <time>2026-08-05T11:27:17.000Z</time>
        <extensions>
          <ns3:TrackPointExtension>
            <ns3:hr>86</ns3:hr>
            <ns3:cad>48</ns3:cad>
          </ns3:TrackPointExtension>
        </extensions>
      </trkpt>
      <trkpt lat="43.4728388674557209014892578125" lon="1.42030083574354648590087890625">
        <ele>153.8000030517578125</ele>
        <time>2026-08-05T11:27:18.000Z</time>
        <extensions>
          <ns3:TrackPointExtension>
            <ns3:hr>86</ns3:hr>
            <ns3:cad>48</ns3:cad>
          </ns3:TrackPointExtension>
        </extensions>
      </trkpt>
      <trkpt lat="43.4728244505822658538818359375" lon="1.42030267976224422454833984375">
        <ele>153.8000030517578125</ele>
        <time>2026-08-05T11:27:19.000Z</time>
        <extensions>
          <ns3:TrackPointExtension>
            <ns3:hr>87</ns3:hr>
            <ns3:cad>48</ns3:cad>
          </ns3:TrackPointExtension>
        </extensions>
      </trkpt>
      <trkpt lat="43.47281246446073055267333984375" lon="1.4203052781522274017333984375">
        <ele>153.8000030517578125</ele>
        <time>2026-08-05T11:27:20.000Z</time>
        <extensions>
          <ns3:TrackPointExtension>
            <ns3:hr>86</ns3:hr>
            <ns3:cad>48</ns3:cad>
          </ns3:TrackPointExtension>
        </extensions>
      </trkpt>
      <trkpt lat="43.472800143063068389892578125" lon="1.4203069545328617095947265625">
        <ele>153.600006103515625</ele>
        <time>2026-08-05T11:27:21.000Z</time>
        <extensions>
          <ns3:TrackPointExtension>
            <ns3:hr>86</ns3:hr>
            <ns3:cad>48</ns3:cad>
          </ns3:TrackPointExtension>
        </extensions>
      </trkpt>
      <trkpt lat="43.47279109060764312744140625" lon="1.42030905000865459442138671875">
        <ele>153.600006103515625</ele>
        <time>2026-08-05T11:27:22.000Z</time>
        <extensions>
          <ns3:TrackPointExtension>
            <ns3:hr>86</ns3:hr>
            <ns3:cad>48</ns3:cad>
          </ns3:TrackPointExtension>
        </extensions>
      </trkpt>
      <trkpt lat="43.4727815352380275726318359375" lon="1.42031189985573291778564453125">
        <ele>153.600006103515625</ele>
        <time>2026-08-05T11:27:23.000Z</time>
        <extensions>
          <ns3:TrackPointExtension>
            <ns3:hr>87</ns3:hr>
            <ns3:cad>48</ns3:cad>
          </ns3:TrackPointExtension>
        </extensions>
      </trkpt>
      <trkpt lat="43.4727714769542217254638671875" lon="1.42031307332217693328857421875">
        <ele>153.399993896484375</ele>
        <time>2026-08-05T11:27:24.000Z</time>
        <extensions>
          <ns3:TrackPointExtension>
            <ns3:hr>87</ns3:hr>
            <ns3:cad>49</ns3:cad>
          </ns3:TrackPointExtension>
        </extensions>
      </trkpt>
      <trkpt lat="43.4727610833942890167236328125" lon="1.42031324096024036407470703125">
        <ele>153.399993896484375</ele>
        <time>2026-08-05T11:27:25.000Z</time>
        <extensions>
          <ns3:TrackPointExtension>
            <ns3:hr>87</ns3:hr>
            <ns3:cad>0</ns3:cad>
          </ns3:TrackPointExtension>
        </extensions>
      </trkpt>
      <trkpt lat="43.4727523662149906158447265625" lon="1.4203103072941303253173828125">
        <ele>153.399993896484375</ele>
        <time>2026-08-05T11:27:26.000Z</time>
        <extensions>
          <ns3:TrackPointExtension>
            <ns3:hr>87</ns3:hr>
            <ns3:cad>0</ns3:cad>
          </ns3:TrackPointExtension>
        </extensions>
      </trkpt>
      <trkpt lat="43.4727409668266773223876953125" lon="1.42030972056090831756591796875">
        <ele>153.600006103515625</ele>
        <time>2026-08-05T11:27:27.000Z</time>
        <extensions>
          <ns3:TrackPointExtension>
            <ns3:hr>86</ns3:hr>
            <ns3:cad>0</ns3:cad>
          </ns3:TrackPointExtension>
        </extensions>
      </trkpt>
      <trkpt lat="43.47273208200931549072265625" lon="1.4203079603612422943115234375">
        <ele>153.600006103515625</ele>
        <time>2026-08-05T11:27:28.000Z</time>
        <extensions>
          <ns3:TrackPointExtension>
            <ns3:hr>87</ns3:hr>
            <ns3:cad>45</ns3:cad>
          </ns3:TrackPointExtension>
        </extensions>
      </trkpt>
      <trkpt lat="43.4727231971919536590576171875" lon="1.42030720598995685577392578125">
        <ele>153.600006103515625</ele>
        <time>2026-08-05T11:27:29.000Z</time>
        <extensions>
          <ns3:TrackPointExtension>
            <ns3:hr>86</ns3:hr>
            <ns3:cad>45</ns3:cad>
          </ns3:TrackPointExtension>
        </extensions>
      </trkpt>
      <trkpt lat="43.472714312374591827392578125" lon="1.42030888237059116363525390625">
        <ele>153.600006103515625</ele>
        <time>2026-08-05T11:27:30.000Z</time>
        <extensions>
          <ns3:TrackPointExtension>
            <ns3:hr>86</ns3:hr>
            <ns3:cad>45</ns3:cad>
          </ns3:TrackPointExtension>
        </extensions>
      </trkpt>
      <trkpt lat="43.4727020747959613800048828125" lon="1.4203087985515594482421875">
        <ele>153.8000030517578125</ele>
        <time>2026-08-05T11:27:31.000Z</time>
        <extensions>
          <ns3:TrackPointExtension>
            <ns3:hr>86</ns3:hr>
            <ns3:cad>48</ns3:cad>
          </ns3:TrackPointExtension>
        </extensions>
      </trkpt>
      <trkpt lat="43.47269184887409210205078125" lon="1.42031005583703517913818359375">
        <ele>153.8000030517578125</ele>
        <time>2026-08-05T11:27:32.000Z</time>
        <extensions>
          <ns3:TrackPointExtension>
            <ns3:hr>87</ns3:hr>
            <ns3:cad>48</ns3:cad>
          </ns3:TrackPointExtension>
        </extensions>
      </trkpt>
      <trkpt lat="43.4726786054670810699462890625" lon="1.42031206749379634857177734375">
        <ele>153.8000030517578125</ele>
        <time>2026-08-05T11:27:33.000Z</time>
        <extensions>
          <ns3:TrackPointExtension>
            <ns3:hr>86</ns3:hr>
            <ns3:cad>46</ns3:cad>
          </ns3:TrackPointExtension>
        </extensions>
      </trkpt>
      <trkpt lat="43.47267181612551212310791015625" lon="1.420309804379940032958984375">
        <ele>153.8000030517578125</ele>
        <time>2026-08-05T11:27:34.000Z</time>
        <extensions>
          <ns3:TrackPointExtension>
            <ns3:hr>87</ns3:hr>
            <ns3:cad>46</ns3:cad>
          </ns3:TrackPointExtension>
        </extensions>
      </trkpt>
      <trkpt lat="43.472661674022674560546875" lon="1.4203113131225109100341796875">
        <ele>153.8000030517578125</ele>
        <time>2026-08-05T11:27:35.000Z</time>
        <extensions>
          <ns3:TrackPointExtension>
            <ns3:hr>87</ns3:hr>
            <ns3:cad>47</ns3:cad>
          </ns3:TrackPointExtension>
        </extensions>
      </trkpt>
      <trkpt lat="43.4726484306156635284423828125" lon="1.42031458206474781036376953125">
        <ele>153.8000030517578125</ele>
        <time>2026-08-05T11:27:36.000Z</time>
        <extensions>
          <ns3:TrackPointExtension>
            <ns3:hr>87</ns3:hr>
            <ns3:cad>48</ns3:cad>
          </ns3:TrackPointExtension>
        </extensions>
      </trkpt>
      <trkpt lat="43.4726356901228427886962890625" lon="1.42031625844538211822509765625">
        <ele>153.8000030517578125</ele>
        <time>2026-08-05T11:27:37.000Z</time>
        <extensions>
          <ns3:TrackPointExtension>
            <ns3:hr>88</ns3:hr>
            <ns3:cad>49</ns3:cad>
          </ns3:TrackPointExtension>
        </extensions>
      </trkpt>
      <trkpt lat="43.4726226143538951873779296875" lon="1.42031617462635040283203125">
        <ele>153.8000030517578125</ele>
        <time>2026-08-05T11:27:38.000Z</time>
        <extensions>
          <ns3:TrackPointExtension>
            <ns3:hr>88</ns3:hr>
            <ns3:cad>49</ns3:cad>
          </ns3:TrackPointExtension>
        </extensions>
      </trkpt>
      <trkpt lat="43.472613729536533355712890625" lon="1.420312486588954925537109375">
        <ele>153.8000030517578125</ele>
        <time>2026-08-05T11:27:39.000Z</time>
        <extensions>
          <ns3:TrackPointExtension>
            <ns3:hr>89</ns3:hr>
            <ns3:cad>49</ns3:cad>
          </ns3:TrackPointExtension>
        </extensions>
      </trkpt>
      <trkpt lat="43.4726045094430446624755859375" lon="1.42031860537827014923095703125">
        <ele>153.8000030517578125</ele>
        <time>2026-08-05T11:27:40.000Z</time>
        <extensions>
          <ns3:TrackPointExtension>
            <ns3:hr>89</ns3:hr>
            <ns3:cad>47</ns3:cad>
          </ns3:TrackPointExtension>
        </extensions>
      </trkpt>
      <trkpt lat="43.4725931100547313690185546875" lon="1.42032396979629993438720703125">
        <ele>153.8000030517578125</ele>
        <time>2026-08-05T11:27:41.000Z</time>
        <extensions>
          <ns3:TrackPointExtension>
            <ns3:hr>90</ns3:hr>
            <ns3:cad>47</ns3:cad>
          </ns3:TrackPointExtension>
        </extensions>
      </trkpt>
      <trkpt lat="43.4725817106664180755615234375" lon="1.42032681964337825775146484375">
        <ele>153.8000030517578125</ele>
        <time>2026-08-05T11:27:42.000Z</time>
        <extensions>
          <ns3:TrackPointExtension>
            <ns3:hr>90</ns3:hr>
            <ns3:cad>48</ns3:cad>
          </ns3:TrackPointExtension>
        </extensions>
      </trkpt>
      <trkpt lat="43.47257056273519992828369140625" lon="1.42032765783369541168212890625">
        <ele>153.8000030517578125</ele>
        <time>2026-08-05T11:27:43.000Z</time>
        <extensions>
          <ns3:TrackPointExtension>
            <ns3:hr>91</ns3:hr>
            <ns3:cad>48</ns3:cad>
          </ns3:TrackPointExtension>
        </extensions>
      </trkpt>
      <trkpt lat="43.472559750080108642578125" lon="1.42032765783369541168212890625">
        <ele>153.8000030517578125</ele>
        <time>2026-08-05T11:27:44.000Z</time>
        <extensions>
          <ns3:TrackPointExtension>
            <ns3:hr>91</ns3:hr>
            <ns3:cad>48</ns3:cad>
          </ns3:TrackPointExtension>
        </extensions>
      </trkpt>
      <trkpt lat="43.47254826687276363372802734375" lon="1.420332603156566619873046875">
        <ele>154</ele>
        <time>2026-08-05T11:27:45.000Z</time>
        <extensions>
          <ns3:TrackPointExtension>
            <ns3:hr>91</ns3:hr>
            <ns3:cad>48</ns3:cad>
          </ns3:TrackPointExtension>
        </extensions>
      </trkpt>
      <trkpt lat="43.47253485582768917083740234375" lon="1.42033603973686695098876953125">
        <ele>154</ele>
        <time>2026-08-05T11:27:46.000Z</time>
        <extensions>
          <ns3:TrackPointExtension>
            <ns3:hr>91</ns3:hr>
            <ns3:cad>48</ns3:cad>
          </ns3:TrackPointExtension>
        </extensions>
      </trkpt>
      <trkpt lat="43.4725240431725978851318359375" lon="1.4203404821455478668212890625">
        <ele>154</ele>
        <time>2026-08-05T11:27:47.000Z</time>
        <extensions>
          <ns3:TrackPointExtension>
            <ns3:hr>91</ns3:hr>
            <ns3:cad>49</ns3:cad>
          </ns3:TrackPointExtension>
        </extensions>
      </trkpt>
      <trkpt lat="43.47251155413687229156494140625" lon="1.42034442164003849029541015625">
        <ele>154</ele>
        <time>2026-08-05T11:27:48.000Z</time>
        <extensions>
          <ns3:TrackPointExtension>
            <ns3:hr>90</ns3:hr>
            <ns3:cad>49</ns3:cad>
          </ns3:TrackPointExtension>
        </extensions>
      </trkpt>
      <trkpt lat="43.47250350750982761383056640625" lon="1.42034224234521389007568359375">
        <ele>153.8000030517578125</ele>
        <time>2026-08-05T11:27:49.000Z</time>
        <extensions>
          <ns3:TrackPointExtension>
            <ns3:hr>90</ns3:hr>
            <ns3:cad>47</ns3:cad>
          </ns3:TrackPointExtension>
        </extensions>
      </trkpt>
      <trkpt lat="43.47249361686408519744873046875" lon="1.42034626565873622894287109375">
        <ele>153.8000030517578125</ele>
        <time>2026-08-05T11:27:50.000Z</time>
        <extensions>
          <ns3:TrackPointExtension>
            <ns3:hr>90</ns3:hr>
            <ns3:cad>47</ns3:cad>
          </ns3:TrackPointExtension>
        </extensions>
      </trkpt>
      <trkpt lat="43.4724774397909641265869140625" lon="1.4203518815338611602783203125">
        <ele>153.8000030517578125</ele>
        <time>2026-08-05T11:27:51.000Z</time>
        <extensions>
          <ns3:TrackPointExtension>
            <ns3:hr>90</ns3:hr>
            <ns3:cad>47</ns3:cad>
          </ns3:TrackPointExtension>
        </extensions>
      </trkpt>
      <trkpt lat="43.47246252000331878662109375" lon="1.42035313881933689117431640625">
        <ele>153.8000030517578125</ele>
        <time>2026-08-05T11:27:52.000Z</time>
        <extensions>
          <ns3:TrackPointExtension>
            <ns3:hr>90</ns3:hr>
            <ns3:cad>47</ns3:cad>
          </ns3:TrackPointExtension>
        </extensions>
      </trkpt>
      <trkpt lat="43.4724536351859569549560546875" lon="1.42035213299095630645751953125">
        <ele>153.8000030517578125</ele>
        <time>2026-08-05T11:27:53.000Z</time>
        <extensions>
          <ns3:TrackPointExtension>
            <ns3:hr>91</ns3:hr>
            <ns3:cad>47</ns3:cad>
          </ns3:TrackPointExtension>
        </extensions>
      </trkpt>
      <trkpt lat="43.4724445827305316925048828125" lon="1.42035196535289287567138671875">
        <ele>153.8000030517578125</ele>
        <time>2026-08-05T11:27:54.000Z</time>
        <extensions>
          <ns3:TrackPointExtension>
            <ns3:hr>90</ns3:hr>
            <ns3:cad>47</ns3:cad>
          </ns3:TrackPointExtension>
        </extensions>
      </trkpt>
      <trkpt lat="43.4724368713796138763427734375" lon="1.42035238444805145263671875">
        <ele>153.8000030517578125</ele>
        <time>2026-08-05T11:27:55.000Z</time>
        <extensions>
          <ns3:TrackPointExtension>
            <ns3:hr>90</ns3:hr>
            <ns3:cad>48</ns3:cad>
          </ns3:TrackPointExtension>
        </extensions>
      </trkpt>
      <trkpt lat="43.472423292696475982666015625" lon="1.420354060828685760498046875">
        <ele>153.8000030517578125</ele>
        <time>2026-08-05T11:27:56.000Z</time>
        <extensions>
          <ns3:TrackPointExtension>
            <ns3:hr>90</ns3:hr>
            <ns3:cad>49</ns3:cad>
          </ns3:TrackPointExtension>
        </extensions>
      </trkpt>
      <trkpt lat="43.47241046838462352752685546875" lon="1.4203582517802715301513671875">
        <ele>153.8000030517578125</ele>
        <time>2026-08-05T11:27:57.000Z</time>
        <extensions>
          <ns3:TrackPointExtension>
            <ns3:hr>91</ns3:hr>
            <ns3:cad>48</ns3:cad>
          </ns3:TrackPointExtension>
        </extensions>
      </trkpt>
      <trkpt lat="43.472399152815341949462890625" lon="1.42035732977092266082763671875">
        <ele>153.8000030517578125</ele>
        <time>2026-08-05T11:27:58.000Z</time>
        <extensions>
          <ns3:TrackPointExtension>
            <ns3:hr>91</ns3:hr>
            <ns3:cad>48</ns3:cad>
          </ns3:TrackPointExtension>
        </extensions>
      </trkpt>
      <trkpt lat="43.47238766960799694061279296875" lon="1.42035649158060550689697265625">
        <ele>153.8000030517578125</ele>
        <time>2026-08-05T11:27:59.000Z</time>
        <extensions>
          <ns3:TrackPointExtension>
            <ns3:hr>91</ns3:hr>
            <ns3:cad>48</ns3:cad>
          </ns3:TrackPointExtension>
        </extensions>
      </trkpt>
      <trkpt lat="43.472380377352237701416015625" lon="1.42035766504704952239990234375">
        <ele>153.600006103515625</ele>
        <time>2026-08-05T11:28:00.000Z</time>
        <extensions>
          <ns3:TrackPointExtension>
            <ns3:hr>92</ns3:hr>
            <ns3:cad>48</ns3:cad>
          </ns3:TrackPointExtension>
        </extensions>
      </trkpt>
      <trkpt lat="43.47236822359263896942138671875" lon="1.420361101627349853515625">
        <ele>153.600006103515625</ele>
        <time>2026-08-05T11:28:01.000Z</time>
        <extensions>
          <ns3:TrackPointExtension>
            <ns3:hr>93</ns3:hr>
            <ns3:cad>49</ns3:cad>
          </ns3:TrackPointExtension>
        </extensions>
      </trkpt>
      <trkpt lat="43.4723577462136745452880859375" lon="1.42036085017025470733642578125">
        <ele>153.8000030517578125</ele>
        <time>2026-08-05T11:28:02.000Z</time>
        <extensions>
          <ns3:TrackPointExtension>
            <ns3:hr>93</ns3:hr>
            <ns3:cad>49</ns3:cad>
          </ns3:TrackPointExtension>
        </extensions>
      </trkpt>
      <trkpt lat="43.47234626300632953643798828125" lon="1.42036017961800098419189453125">
        <ele>153.8000030517578125</ele>
        <time>2026-08-05T11:28:03.000Z</time>
        <extensions>
          <ns3:TrackPointExtension>
            <ns3:hr>94</ns3:hr>
            <ns3:cad>49</ns3:cad>
          </ns3:TrackPointExtension>
        </extensions>
      </trkpt>
      <trkpt lat="43.47233637236058712005615234375" lon="1.42035967670381069183349609375">
        <ele>153.8000030517578125</ele>
        <time>2026-08-05T11:28:04.000Z</time>
        <extensions>
          <ns3:TrackPointExtension>
            <ns3:hr>94</ns3:hr>
            <ns3:cad>49</ns3:cad>
          </ns3:TrackPointExtension>
        </extensions>
      </trkpt>
      <trkpt lat="43.47232296131551265716552734375" lon="1.420360766351222991943359375">
        <ele>153.8000030517578125</ele>
        <time>2026-08-05T11:28:05.000Z</time>
        <extensions>
          <ns3:TrackPointExtension>
            <ns3:hr>94</ns3:hr>
            <ns3:cad>48</ns3:cad>
          </ns3:TrackPointExtension>
        </extensions>
      </trkpt>
      <trkpt lat="43.47231499850749969482421875" lon="1.42036386765539646148681640625">
        <ele>153.8000030517578125</ele>
        <time>2026-08-05T11:28:06.000Z</time>
        <extensions>
          <ns3:TrackPointExtension>
            <ns3:hr>94</ns3:hr>
            <ns3:cad>47</ns3:cad>
          </ns3:TrackPointExtension>
        </extensions>
      </trkpt>
      <trkpt lat="43.4722990728914737701416015625" lon="1.4203673042356967926025390625">
        <ele>153.8000030517578125</ele>
        <time>2026-08-05T11:28:07.000Z</time>
        <extensions>
          <ns3:TrackPointExtension>
            <ns3:hr>95</ns3:hr>
            <ns3:cad>47</ns3:cad>
          </ns3:TrackPointExtension>
        </extensions>
      </trkpt>
      <trkpt lat="43.4722870029509067535400390625" lon="1.4203689806163311004638671875">
        <ele>153.8000030517578125</ele>
        <time>2026-08-05T11:28:08.000Z</time>
        <extensions>
          <ns3:TrackPointExtension>
            <ns3:hr>95</ns3:hr>
            <ns3:cad>47</ns3:cad>
          </ns3:TrackPointExtension>
        </extensions>
      </trkpt>
      <trkpt lat="43.47227535210549831390380859375" lon="1.42036914825439453125">
        <ele>153.8000030517578125</ele>
        <time>2026-08-05T11:28:09.000Z</time>
        <extensions>
          <ns3:TrackPointExtension>
            <ns3:hr>96</ns3:hr>
            <ns3:cad>48</ns3:cad>
          </ns3:TrackPointExtension>
        </extensions>
      </trkpt>
      <trkpt lat="43.472267054021358489990234375" lon="1.42036487348377704620361328125">
        <ele>153.8000030517578125</ele>
        <time>2026-08-05T11:28:10.000Z</time>
        <extensions>
          <ns3:TrackPointExtension>
            <ns3:hr>96</ns3:hr>
            <ns3:cad>48</ns3:cad>
          </ns3:TrackPointExtension>
        </extensions>
      </trkpt>
      <trkpt lat="43.4722564928233623504638671875" lon="1.42036856152117252349853515625">
        <ele>153.8000030517578125</ele>
        <time>2026-08-05T11:28:11.000Z</time>
        <extensions>
          <ns3:TrackPointExtension>
            <ns3:hr>96</ns3:hr>
            <ns3:cad>48</ns3:cad>
          </ns3:TrackPointExtension>
        </extensions>
      </trkpt>
      <trkpt lat="43.47224316559731960296630859375" lon="1.4203699864447116851806640625">
        <ele>153.8000030517578125</ele>
        <time>2026-08-05T11:28:12.000Z</time>
        <extensions>
          <ns3:TrackPointExtension>
            <ns3:hr>96</ns3:hr>
            <ns3:cad>48</ns3:cad>
          </ns3:TrackPointExtension>
        </extensions>
      </trkpt>
      <trkpt lat="43.47223210148513317108154296875" lon="1.420372836291790008544921875">
        <ele>153.8000030517578125</ele>
        <time>2026-08-05T11:28:13.000Z</time>
        <extensions>
          <ns3:TrackPointExtension>
            <ns3:hr>95</ns3:hr>
            <ns3:cad>48</ns3:cad>
          </ns3:TrackPointExtension>
        </extensions>
      </trkpt>
      <trkpt lat="43.47222221083939075469970703125" lon="1.42037543468177318572998046875">
        <ele>153.8000030517578125</ele>
        <time>2026-08-05T11:28:14.000Z</time>
        <extensions>
          <ns3:TrackPointExtension>
            <ns3:hr>95</ns3:hr>
            <ns3:cad>48</ns3:cad>
          </ns3:TrackPointExtension>
        </extensions>
      </trkpt>
      <trkpt lat="43.472214080393314361572265625" lon="1.4203713275492191314697265625">
        <ele>153.8000030517578125</ele>
        <time>2026-08-05T11:28:15.000Z</time>
        <extensions>
          <ns3:TrackPointExtension>
            <ns3:hr>95</ns3:hr>
            <ns3:cad>48</ns3:cad>
          </ns3:TrackPointExtension>
        </extensions>
      </trkpt>
      <trkpt lat="43.47220502793788909912109375" lon="1.42037761397659778594970703125">
        <ele>153.8000030517578125</ele>
        <time>2026-08-05T11:28:16.000Z</time>
        <extensions>
          <ns3:TrackPointExtension>
            <ns3:hr>95</ns3:hr>
            <ns3:cad>48</ns3:cad>
          </ns3:TrackPointExtension>
        </extensions>
      </trkpt>
      <trkpt lat="43.472190611064434051513671875" lon="1.42038163729012012481689453125">
        <ele>153.8000030517578125</ele>
        <time>2026-08-05T11:28:17.000Z</time>
        <extensions>
          <ns3:TrackPointExtension>
            <ns3:hr>94</ns3:hr>
            <ns3:cad>48</ns3:cad>
          </ns3:TrackPointExtension>
        </extensions>
      </trkpt>
      <trkpt lat="43.47217862494289875030517578125" lon="1.42038482241332530975341796875">
        <ele>154</ele>
        <time>2026-08-05T11:28:18.000Z</time>
        <extensions>
          <ns3:TrackPointExtension>
            <ns3:hr>94</ns3:hr>
            <ns3:cad>48</ns3:cad>
          </ns3:TrackPointExtension>
        </extensions>
      </trkpt>
      <trkpt lat="43.4721669740974903106689453125" lon="1.42038591206073760986328125">
        <ele>154</ele>
        <time>2026-08-05T11:28:19.000Z</time>
        <extensions>
          <ns3:TrackPointExtension>
            <ns3:hr>94</ns3:hr>
            <ns3:cad>48</ns3:cad>
          </ns3:TrackPointExtension>
        </extensions>
      </trkpt>
      <trkpt lat="43.4721569158136844635009765625" lon="1.420382894575595855712890625">
        <ele>154</ele>
        <time>2026-08-05T11:28:20.000Z</time>
        <extensions>
          <ns3:TrackPointExtension>
            <ns3:hr>93</ns3:hr>
            <ns3:cad>48</ns3:cad>
          </ns3:TrackPointExtension>
        </extensions>
      </trkpt>
      <trkpt lat="43.4721448458731174468994140625" lon="1.42038465477526187896728515625">
        <ele>154</ele>
        <time>2026-08-05T11:28:21.000Z</time>
        <extensions>
          <ns3:TrackPointExtension>
            <ns3:hr>93</ns3:hr>
            <ns3:cad>48</ns3:cad>
          </ns3:TrackPointExtension>
        </extensions>
      </trkpt>
      <trkpt lat="43.47213135100901126861572265625" lon="1.420386917889118194580078125">
        <ele>154</ele>
        <time>2026-08-05T11:28:22.000Z</time>
        <extensions>
          <ns3:TrackPointExtension>
            <ns3:hr>93</ns3:hr>
            <ns3:cad>48</ns3:cad>
          </ns3:TrackPointExtension>
        </extensions>
      </trkpt>
      <trkpt lat="43.472120203077793121337890625" lon="1.4203937910497188568115234375">
        <ele>154</ele>
        <time>2026-08-05T11:28:23.000Z</time>
        <extensions>
          <ns3:TrackPointExtension>
            <ns3:hr>94</ns3:hr>
            <ns3:cad>48</ns3:cad>
          </ns3:TrackPointExtension>
        </extensions>
      </trkpt>
      <trkpt lat="43.47210804931819438934326171875" lon="1.42039638943970203399658203125">
        <ele>154</ele>
        <time>2026-08-05T11:28:24.000Z</time>
        <extensions>
          <ns3:TrackPointExtension>
            <ns3:hr>93</ns3:hr>
            <ns3:cad>48</ns3:cad>
          </ns3:TrackPointExtension>
        </extensions>
      </trkpt>
      <trkpt lat="43.4720992483198642730712890625" lon="1.4203947968780994415283203125">
        <ele>154</ele>
        <time>2026-08-05T11:28:25.000Z</time>
        <extensions>
          <ns3:TrackPointExtension>
            <ns3:hr>93</ns3:hr>
            <ns3:cad>48</ns3:cad>
          </ns3:TrackPointExtension>
        </extensions>
      </trkpt>
      <trkpt lat="43.47209044732153415679931640625" lon="1.42039798200130462646484375">
        <ele>154</ele>
        <time>2026-08-05T11:28:26.000Z</time>
        <extensions>
          <ns3:TrackPointExtension>
            <ns3:hr>93</ns3:hr>
            <ns3:cad>47</ns3:cad>
          </ns3:TrackPointExtension>
        </extensions>
      </trkpt>
      <trkpt lat="43.47207837738096714019775390625" lon="1.4204011671245098114013671875">
        <ele>154</ele>
        <time>2026-08-05T11:28:27.000Z</time>
        <extensions>
          <ns3:TrackPointExtension>
            <ns3:hr>93</ns3:hr>
            <ns3:cad>46</ns3:cad>
          </ns3:TrackPointExtension>
        </extensions>
      </trkpt>
      <trkpt lat="43.47206764854490756988525390625" lon="1.42040477134287357330322265625">
        <ele>154</ele>
        <time>2026-08-05T11:28:28.000Z</time>
        <extensions>
          <ns3:TrackPointExtension>
            <ns3:hr>93</ns3:hr>
            <ns3:cad>46</ns3:cad>
          </ns3:TrackPointExtension>
        </extensions>
      </trkpt>
      <trkpt lat="43.4720563329756259918212890625" lon="1.42040762118995189666748046875">
        <ele>154</ele>
        <time>2026-08-05T11:28:29.000Z</time>
        <extensions>
          <ns3:TrackPointExtension>
            <ns3:hr>93</ns3:hr>
            <ns3:cad>47</ns3:cad>
          </ns3:TrackPointExtension>
        </extensions>
      </trkpt>
      <trkpt lat="43.472049795091152191162109375" lon="1.42040736973285675048828125">
        <ele>154</ele>
        <time>2026-08-05T11:28:30.000Z</time>
        <extensions>
          <ns3:TrackPointExtension>
            <ns3:hr>93</ns3:hr>
            <ns3:cad>47</ns3:cad>
          </ns3:TrackPointExtension>
        </extensions>
      </trkpt>
      <trkpt lat="43.472039736807346343994140625" lon="1.420411728322505950927734375">
        <ele>154</ele>
        <time>2026-08-05T11:28:31.000Z</time>
        <extensions>
          <ns3:TrackPointExtension>
            <ns3:hr>93</ns3:hr>
            <ns3:cad>48</ns3:cad>
          </ns3:TrackPointExtension>
        </extensions>
      </trkpt>
      <trkpt lat="43.472031690180301666259765625" lon="1.42041382379829883575439453125">
        <ele>154.1999969482421875</ele>
        <time>2026-08-05T11:28:32.000Z</time>
        <extensions>
          <ns3:TrackPointExtension>
            <ns3:hr>93</ns3:hr>
            <ns3:cad>48</ns3:cad>
          </ns3:TrackPointExtension>
        </extensions>
      </trkpt>
      <trkpt lat="43.4720224700868129730224609375" lon="1.420415751636028289794921875">
        <ele>154.1999969482421875</ele>
        <time>2026-08-05T11:28:33.000Z</time>
        <extensions>
          <ns3:TrackPointExtension>
            <ns3:hr>92</ns3:hr>
            <ns3:cad>48</ns3:cad>
          </ns3:TrackPointExtension>
        </extensions>
      </trkpt>
      <trkpt lat="43.47201333381235599517822265625" lon="1.42041751183569431304931640625">
        <ele>154.1999969482421875</ele>
        <time>2026-08-05T11:28:34.000Z</time>
        <extensions>
          <ns3:TrackPointExtension>
            <ns3:hr>93</ns3:hr>
            <ns3:cad>47</ns3:cad>
          </ns3:TrackPointExtension>
        </extensions>
      </trkpt>
      <trkpt lat="43.4720016829669475555419921875" lon="1.42041767947375774383544921875">
        <ele>154.1999969482421875</ele>
        <time>2026-08-05T11:28:35.000Z</time>
        <extensions>
          <ns3:TrackPointExtension>
            <ns3:hr>92</ns3:hr>
            <ns3:cad>48</ns3:cad>
          </ns3:TrackPointExtension>
        </extensions>
      </trkpt>
      <trkpt lat="43.47198936156928539276123046875" lon="1.420421116054058074951171875">
        <ele>154.1999969482421875</ele>
        <time>2026-08-05T11:28:36.000Z</time>
        <extensions>
          <ns3:TrackPointExtension>
            <ns3:hr>91</ns3:hr>
            <ns3:cad>48</ns3:cad>
          </ns3:TrackPointExtension>
        </extensions>
      </trkpt>
      <trkpt lat="43.47197695635259151458740234375" lon="1.4204246364533901214599609375">
        <ele>154.1999969482421875</ele>
        <time>2026-08-05T11:28:37.000Z</time>
        <extensions>
          <ns3:TrackPointExtension>
            <ns3:hr>91</ns3:hr>
            <ns3:cad>48</ns3:cad>
          </ns3:TrackPointExtension>
        </extensions>
      </trkpt>
      <trkpt lat="43.471964299678802490234375" lon="1.42042706720530986785888671875">
        <ele>154.1999969482421875</ele>
        <time>2026-08-05T11:28:38.000Z</time>
        <extensions>
          <ns3:TrackPointExtension>
            <ns3:hr>90</ns3:hr>
            <ns3:cad>48</ns3:cad>
          </ns3:TrackPointExtension>
        </extensions>
      </trkpt>
      <trkpt lat="43.4719557501375675201416015625" lon="1.4204253070056438446044921875">
        <ele>154.1999969482421875</ele>
        <time>2026-08-05T11:28:39.000Z</time>
        <extensions>
          <ns3:TrackPointExtension>
            <ns3:hr>90</ns3:hr>
            <ns3:cad>46</ns3:cad>
          </ns3:TrackPointExtension>
        </extensions>
      </trkpt>
      <trkpt lat="43.4719473682343959808349609375" lon="1.4204253070056438446044921875">
        <ele>154.1999969482421875</ele>
        <time>2026-08-05T11:28:40.000Z</time>
        <extensions>
          <ns3:TrackPointExtension>
            <ns3:hr>90</ns3:hr>
            <ns3:cad>46</ns3:cad>
          </ns3:TrackPointExtension>
        </extensions>
      </trkpt>
      <trkpt lat="43.471935801208019256591796875" lon="1.42042748630046844482421875">
        <ele>154.1999969482421875</ele>
        <time>2026-08-05T11:28:41.000Z</time>
        <extensions>
          <ns3:TrackPointExtension>
            <ns3:hr>90</ns3:hr>
            <ns3:cad>46</ns3:cad>
          </ns3:TrackPointExtension>
        </extensions>
      </trkpt>
      <trkpt lat="43.47192205488681793212890625" lon="1.42042907886207103729248046875">
        <ele>154.1999969482421875</ele>
        <time>2026-08-05T11:28:42.000Z</time>
        <extensions>
          <ns3:TrackPointExtension>
            <ns3:hr>91</ns3:hr>
            <ns3:cad>46</ns3:cad>
          </ns3:TrackPointExtension>
        </extensions>
      </trkpt>
      <trkpt lat="43.47190864384174346923828125" lon="1.42042790539562702178955078125">
        <ele>154.1999969482421875</ele>
        <time>2026-08-05T11:28:43.000Z</time>
        <extensions>
          <ns3:TrackPointExtension>
            <ns3:hr>91</ns3:hr>
            <ns3:cad>46</ns3:cad>
          </ns3:TrackPointExtension>
        </extensions>
      </trkpt>
      <trkpt lat="43.47189716063439846038818359375" lon="1.42042689956724643707275390625">
        <ele>154.1999969482421875</ele>
        <time>2026-08-05T11:28:44.000Z</time>
        <extensions>
          <ns3:TrackPointExtension>
            <ns3:hr>91</ns3:hr>
            <ns3:cad>47</ns3:cad>
          </ns3:TrackPointExtension>
        </extensions>
      </trkpt>
      <trkpt lat="43.47188961692154407501220703125" lon="1.42042824067175388336181640625">
        <ele>154.1999969482421875</ele>
        <time>2026-08-05T11:28:45.000Z</time>
        <extensions>
          <ns3:TrackPointExtension>
            <ns3:hr>91</ns3:hr>
            <ns3:cad>48</ns3:cad>
          </ns3:TrackPointExtension>
        </extensions>
      </trkpt>
      <trkpt lat="43.4718813188374042510986328125" lon="1.42043192870914936065673828125">
        <ele>154.1999969482421875</ele>
        <time>2026-08-05T11:28:46.000Z</time>
        <extensions>
          <ns3:TrackPointExtension>
            <ns3:hr>91</ns3:hr>
            <ns3:cad>48</ns3:cad>
          </ns3:TrackPointExtension>
        </extensions>
      </trkpt>
      <trkpt lat="43.4718672372400760650634765625" lon="1.42043611966073513031005859375">
        <ele>154.1999969482421875</ele>
        <time>2026-08-05T11:28:47.000Z</time>
        <extensions>
          <ns3:TrackPointExtension>
            <ns3:hr>91</ns3:hr>
            <ns3:cad>48</ns3:cad>
          </ns3:TrackPointExtension>
        </extensions>
      </trkpt>
      <trkpt lat="43.4718556702136993408203125" lon="1.420439220964908599853515625">
        <ele>154.1999969482421875</ele>
        <time>2026-08-05T11:28:48.000Z</time>
        <extensions>
          <ns3:TrackPointExtension>
            <ns3:hr>91</ns3:hr>
            <ns3:cad>48</ns3:cad>
          </ns3:TrackPointExtension>
        </extensions>
      </trkpt>
      <trkpt lat="43.4718424268066883087158203125" lon="1.4204420708119869232177734375">
        <ele>154.1999969482421875</ele>
        <time>2026-08-05T11:28:49.000Z</time>
        <extensions>
          <ns3:TrackPointExtension>
            <ns3:hr>91</ns3:hr>
            <ns3:cad>48</ns3:cad>
          </ns3:TrackPointExtension>
        </extensions>
      </trkpt>
      <trkpt lat="43.471832536160945892333984375" lon="1.4204427413642406463623046875">
        <ele>154.1999969482421875</ele>
        <time>2026-08-05T11:28:50.000Z</time>
        <extensions>
          <ns3:TrackPointExtension>
            <ns3:hr>90</ns3:hr>
            <ns3:cad>48</ns3:cad>
          </ns3:TrackPointExtension>
        </extensions>
      </trkpt>
      <trkpt lat="43.4718261659145355224609375" lon="1.4204440824687480926513671875">
        <ele>154.1999969482421875</ele>
        <time>2026-08-05T11:28:51.000Z</time>
        <extensions>
          <ns3:TrackPointExtension>
            <ns3:hr>90</ns3:hr>
            <ns3:cad>49</ns3:cad>
          </ns3:TrackPointExtension>
        </extensions>
      </trkpt>
      <trkpt lat="43.47180864773690700531005859375" lon="1.420443914830684661865234375">
        <ele>154.1999969482421875</ele>
        <time>2026-08-05T11:28:52.000Z</time>
        <extensions>
          <ns3:TrackPointExtension>
            <ns3:hr>90</ns3:hr>
            <ns3:cad>49</ns3:cad>
          </ns3:TrackPointExtension>
        </extensions>
      </trkpt>
      <trkpt lat="43.4717958234250545501708984375" lon="1.42044416628777980804443359375">
        <ele>154.1999969482421875</ele>
        <time>2026-08-05T11:28:53.000Z</time>
        <extensions>
          <ns3:TrackPointExtension>
            <ns3:hr>90</ns3:hr>
            <ns3:cad>49</ns3:cad>
          </ns3:TrackPointExtension>
        </extensions>
      </trkpt>
      <trkpt lat="43.4717840887606143951416015625" lon="1.4204430766403675079345703125">
        <ele>154.1999969482421875</ele>
        <time>2026-08-05T11:28:54.000Z</time>
        <extensions>
          <ns3:TrackPointExtension>
            <ns3:hr>90</ns3:hr>
            <ns3:cad>48</ns3:cad>
          </ns3:TrackPointExtension>
        </extensions>
      </trkpt>
      <trkpt lat="43.4717753715813159942626953125" lon="1.4204444177448749542236328125">
        <ele>154.1999969482421875</ele>
        <time>2026-08-05T11:28:55.000Z</time>
        <extensions>
          <ns3:TrackPointExtension>
            <ns3:hr>90</ns3:hr>
            <ns3:cad>48</ns3:cad>
          </ns3:TrackPointExtension>
        </extensions>
      </trkpt>
      <trkpt lat="43.4717663191258907318115234375" lon="1.42044248990714550018310546875">
        <ele>154.1999969482421875</ele>
        <time>2026-08-05T11:28:56.000Z</time>
        <extensions>
          <ns3:TrackPointExtension>
            <ns3:hr>90</ns3:hr>
            <ns3:cad>48</ns3:cad>
          </ns3:TrackPointExtension>
        </extensions>
      </trkpt>
      <trkpt lat="43.4717542491853237152099609375" lon="1.4204481057822704315185546875">
        <ele>154.1999969482421875</ele>
        <time>2026-08-05T11:28:57.000Z</time>
        <extensions>
          <ns3:TrackPointExtension>
            <ns3:hr>90</ns3:hr>
            <ns3:cad>48</ns3:cad>
          </ns3:TrackPointExtension>
        </extensions>
      </trkpt>
      <trkpt lat="43.47174142487347126007080078125" lon="1.42045296728610992431640625">
        <ele>154.1999969482421875</ele>
        <time>2026-08-05T11:28:58.000Z</time>
        <extensions>
          <ns3:TrackPointExtension>
            <ns3:hr>91</ns3:hr>
            <ns3:cad>48</ns3:cad>
          </ns3:TrackPointExtension>
        </extensions>
      </trkpt>
      <trkpt lat="43.47173103131353855133056640625" lon="1.420455984771251678466796875">
        <ele>154.1999969482421875</ele>
        <time>2026-08-05T11:28:59.000Z</time>
        <extensions>
          <ns3:TrackPointExtension>
            <ns3:hr>90</ns3:hr>
            <ns3:cad>48</ns3:cad>
          </ns3:TrackPointExtension>
        </extensions>
      </trkpt>
      <trkpt lat="43.47172365523874759674072265625" lon="1.4204611815512180328369140625">
        <ele>154.399993896484375</ele>
        <time>2026-08-05T11:29:00.000Z</time>
        <extensions>
          <ns3:TrackPointExtension>
            <ns3:hr>90</ns3:hr>
            <ns3:cad>48</ns3:cad>
          </ns3:TrackPointExtension>
        </extensions>
      </trkpt>
      <trkpt lat="43.47171485424041748046875" lon="1.42046243883669376373291015625">
        <ele>154.399993896484375</ele>
        <time>2026-08-05T11:29:01.000Z</time>
        <extensions>
          <ns3:TrackPointExtension>
            <ns3:hr>90</ns3:hr>
            <ns3:cad>48</ns3:cad>
          </ns3:TrackPointExtension>
        </extensions>
      </trkpt>
      <trkpt lat="43.471704460680484771728515625" lon="1.4204670488834381103515625">
        <ele>154.399993896484375</ele>
        <time>2026-08-05T11:29:02.000Z</time>
        <extensions>
          <ns3:TrackPointExtension>
            <ns3:hr>90</ns3:hr>
            <ns3:cad>48</ns3:cad>
          </ns3:TrackPointExtension>
        </extensions>
      </trkpt>
      <trkpt lat="43.47169113345444202423095703125" lon="1.42046981491148471832275390625">
        <ele>154.399993896484375</ele>
        <time>2026-08-05T11:29:03.000Z</time>
        <extensions>
          <ns3:TrackPointExtension>
            <ns3:hr>90</ns3:hr>
            <ns3:cad>48</ns3:cad>
          </ns3:TrackPointExtension>
        </extensions>
      </trkpt>
      <trkpt lat="43.47168090753257274627685546875" lon="1.4204732514917850494384765625">
        <ele>154.399993896484375</ele>
        <time>2026-08-05T11:29:04.000Z</time>
        <extensions>
          <ns3:TrackPointExtension>
            <ns3:hr>90</ns3:hr>
            <ns3:cad>48</ns3:cad>
          </ns3:TrackPointExtension>
        </extensions>
      </trkpt>
      <trkpt lat="43.47167353145778179168701171875" lon="1.42047601751983165740966796875">
        <ele>154.399993896484375</ele>
        <time>2026-08-05T11:29:05.000Z</time>
        <extensions>
          <ns3:TrackPointExtension>
            <ns3:hr>90</ns3:hr>
            <ns3:cad>48</ns3:cad>
          </ns3:TrackPointExtension>
        </extensions>
      </trkpt>
      <trkpt lat="43.4716625511646270751953125" lon="1.420478112995624542236328125">
        <ele>154.399993896484375</ele>
        <time>2026-08-05T11:29:06.000Z</time>
        <extensions>
          <ns3:TrackPointExtension>
            <ns3:hr>90</ns3:hr>
            <ns3:cad>49</ns3:cad>
          </ns3:TrackPointExtension>
        </extensions>
      </trkpt>
      <trkpt lat="43.471650145947933197021484375" lon="1.42048205249011516571044921875">
        <ele>154.399993896484375</ele>
        <time>2026-08-05T11:29:07.000Z</time>
        <extensions>
          <ns3:TrackPointExtension>
            <ns3:hr>90</ns3:hr>
            <ns3:cad>49</ns3:cad>
          </ns3:TrackPointExtension>
        </extensions>
      </trkpt>
      <trkpt lat="43.4716392494738101959228515625" lon="1.42048808746039867401123046875">
        <ele>154.399993896484375</ele>
        <time>2026-08-05T11:29:08.000Z</time>
        <extensions>
          <ns3:TrackPointExtension>
            <ns3:hr>90</ns3:hr>
            <ns3:cad>48</ns3:cad>
          </ns3:TrackPointExtension>
        </extensions>
      </trkpt>
      <trkpt lat="43.4716278500854969024658203125" lon="1.4204906858503818511962890625">
        <ele>154.399993896484375</ele>
        <time>2026-08-05T11:29:09.000Z</time>
        <extensions>
          <ns3:TrackPointExtension>
            <ns3:hr>91</ns3:hr>
            <ns3:cad>48</ns3:cad>
          </ns3:TrackPointExtension>
        </extensions>
      </trkpt>
      <trkpt lat="43.47161854617297649383544921875" lon="1.42049361951649188995361328125">
        <ele>154.399993896484375</ele>
        <time>2026-08-05T11:29:10.000Z</time>
        <extensions>
          <ns3:TrackPointExtension>
            <ns3:hr>91</ns3:hr>
            <ns3:cad>48</ns3:cad>
          </ns3:TrackPointExtension>
        </extensions>
      </trkpt>
      <trkpt lat="43.4716080687940120697021484375" lon="1.42050099559128284454345703125">
        <ele>154.399993896484375</ele>
        <time>2026-08-05T11:29:11.000Z</time>
        <extensions>
          <ns3:TrackPointExtension>
            <ns3:hr>91</ns3:hr>
            <ns3:cad>48</ns3:cad>
          </ns3:TrackPointExtension>
        </extensions>
      </trkpt>
      <trkpt lat="43.4715993516147136688232421875" lon="1.42050703056156635284423828125">
        <ele>154.600006103515625</ele>
        <time>2026-08-05T11:29:12.000Z</time>
        <extensions>
          <ns3:TrackPointExtension>
            <ns3:hr>91</ns3:hr>
            <ns3:cad>48</ns3:cad>
          </ns3:TrackPointExtension>
        </extensions>
      </trkpt>
      <trkpt lat="43.47158920951187610626220703125" lon="1.42051440663635730743408203125">
        <ele>154.600006103515625</ele>
        <time>2026-08-05T11:29:13.000Z</time>
        <extensions>
          <ns3:TrackPointExtension>
            <ns3:hr>91</ns3:hr>
            <ns3:cad>48</ns3:cad>
          </ns3:TrackPointExtension>
        </extensions>
      </trkpt>
      <trkpt lat="43.47158133052289485931396484375" lon="1.4205206930637359619140625">
        <ele>154.600006103515625</ele>
        <time>2026-08-05T11:29:14.000Z</time>
        <extensions>
          <ns3:TrackPointExtension>
            <ns3:hr>91</ns3:hr>
            <ns3:cad>48</ns3:cad>
          </ns3:TrackPointExtension>
        </extensions>
      </trkpt>
      <trkpt lat="43.47157093696296215057373046875" lon="1.42052815295755863189697265625">
        <ele>154.600006103515625</ele>
        <time>2026-08-05T11:29:15.000Z</time>
        <extensions>
          <ns3:TrackPointExtension>
            <ns3:hr>90</ns3:hr>
            <ns3:cad>48</ns3:cad>
          </ns3:TrackPointExtension>
        </extensions>
      </trkpt>
      <trkpt lat="43.4715597890317440032958984375" lon="1.42053586430847644805908203125">
        <ele>154.600006103515625</ele>
        <time>2026-08-05T11:29:16.000Z</time>
        <extensions>
          <ns3:TrackPointExtension>
            <ns3:hr>89</ns3:hr>
            <ns3:cad>48</ns3:cad>
          </ns3:TrackPointExtension>
        </extensions>
      </trkpt>
      <trkpt lat="43.4715498983860015869140625" lon="1.420543827116489410400390625">
        <ele>154.600006103515625</ele>
        <time>2026-08-05T11:29:17.000Z</time>
        <extensions>
          <ns3:TrackPointExtension>
            <ns3:hr>89</ns3:hr>
            <ns3:cad>49</ns3:cad>
          </ns3:TrackPointExtension>
        </extensions>
      </trkpt>
      <trkpt lat="43.47153841517865657806396484375" lon="1.420554220676422119140625">
        <ele>154.600006103515625</ele>
        <time>2026-08-05T11:29:18.000Z</time>
        <extensions>
          <ns3:TrackPointExtension>
            <ns3:hr>89</ns3:hr>
            <ns3:cad>50</ns3:cad>
          </ns3:TrackPointExtension>
        </extensions>
      </trkpt>
      <trkpt lat="43.47152684815227985382080078125" lon="1.4205634407699108123779296875">
        <ele>154.600006103515625</ele>
        <time>2026-08-05T11:29:19.000Z</time>
        <extensions>
          <ns3:TrackPointExtension>
            <ns3:hr>89</ns3:hr>
            <ns3:cad>49</ns3:cad>
          </ns3:TrackPointExtension>
        </extensions>
      </trkpt>
      <trkpt lat="43.47151746042072772979736328125" lon="1.42056972719728946685791015625">
        <ele>154.600006103515625</ele>
        <time>2026-08-05T11:29:20.000Z</time>
        <extensions>
          <ns3:TrackPointExtension>
            <ns3:hr>88</ns3:hr>
            <ns3:cad>49</ns3:cad>
          </ns3:TrackPointExtension>
        </extensions>
      </trkpt>
      <trkpt lat="43.47150790505111217498779296875" lon="1.42057794146239757537841796875">
        <ele>154.600006103515625</ele>
        <time>2026-08-05T11:29:21.000Z</time>
        <extensions>
          <ns3:TrackPointExtension>
            <ns3:hr>88</ns3:hr>
            <ns3:cad>49</ns3:cad>
          </ns3:TrackPointExtension>
        </extensions>
      </trkpt>
      <trkpt lat="43.47149952314794063568115234375" lon="1.42058464698493480682373046875">
        <ele>154.600006103515625</ele>
        <time>2026-08-05T11:29:22.000Z</time>
        <extensions>
          <ns3:TrackPointExtension>
            <ns3:hr>88</ns3:hr>
            <ns3:cad>50</ns3:cad>
          </ns3:TrackPointExtension>
        </extensions>
      </trkpt>
      <trkpt lat="43.47149097360670566558837890625" lon="1.42059152014553546905517578125">
        <ele>154.600006103515625</ele>
        <time>2026-08-05T11:29:23.000Z</time>
        <extensions>
          <ns3:TrackPointExtension>
            <ns3:hr>89</ns3:hr>
            <ns3:cad>50</ns3:cad>
          </ns3:TrackPointExtension>
        </extensions>
      </trkpt>
      <trkpt lat="43.47148175351321697235107421875" lon="1.42060107551515102386474609375">
        <ele>154.600006103515625</ele>
        <time>2026-08-05T11:29:24.000Z</time>
        <extensions>
          <ns3:TrackPointExtension>
            <ns3:hr>89</ns3:hr>
            <ns3:cad>50</ns3:cad>
          </ns3:TrackPointExtension>
        </extensions>
      </trkpt>
      <trkpt lat="43.4714695997536182403564453125" lon="1.420608200132846832275390625">
        <ele>154.600006103515625</ele>
        <time>2026-08-05T11:29:25.000Z</time>
        <extensions>
          <ns3:TrackPointExtension>
            <ns3:hr>89</ns3:hr>
            <ns3:cad>48</ns3:cad>
          </ns3:TrackPointExtension>
        </extensions>
      </trkpt>
      <trkpt lat="43.47146046347916126251220703125" lon="1.42061498947441577911376953125">
        <ele>154.600006103515625</ele>
        <time>2026-08-05T11:29:26.000Z</time>
        <extensions>
          <ns3:TrackPointExtension>
            <ns3:hr>89</ns3:hr>
            <ns3:cad>48</ns3:cad>
          </ns3:TrackPointExtension>
        </extensions>
      </trkpt>
      <trkpt lat="43.4714494831860065460205078125" lon="1.42062270082533359527587890625">
        <ele>154.600006103515625</ele>
        <time>2026-08-05T11:29:27.000Z</time>
        <extensions>
          <ns3:TrackPointExtension>
            <ns3:hr>89</ns3:hr>
            <ns3:cad>48</ns3:cad>
          </ns3:TrackPointExtension>
        </extensions>
      </trkpt>
      <trkpt lat="43.47143925726413726806640625" lon="1.42062974162399768829345703125">
        <ele>154.600006103515625</ele>
        <time>2026-08-05T11:29:28.000Z</time>
        <extensions>
          <ns3:TrackPointExtension>
            <ns3:hr>89</ns3:hr>
            <ns3:cad>48</ns3:cad>
          </ns3:TrackPointExtension>
        </extensions>
      </trkpt>
      <trkpt lat="43.4714280255138874053955078125" lon="1.42064164392650127410888671875">
        <ele>154.600006103515625</ele>
        <time>2026-08-05T11:29:29.000Z</time>
        <extensions>
          <ns3:TrackPointExtension>
            <ns3:hr>89</ns3:hr>
            <ns3:cad>48</ns3:cad>
          </ns3:TrackPointExtension>
        </extensions>
      </trkpt>
      <trkpt lat="43.4714176319539546966552734375" lon="1.420654468238353729248046875">
        <ele>154.600006103515625</ele>
        <time>2026-08-05T11:29:30.000Z</time>
        <extensions>
          <ns3:TrackPointExtension>
            <ns3:hr>89</ns3:hr>
            <ns3:cad>48</ns3:cad>
          </ns3:TrackPointExtension>
        </extensions>
      </trkpt>
      <trkpt lat="43.4714069031178951263427734375" lon="1.42066092230379581451416015625">
        <ele>154.600006103515625</ele>
        <time>2026-08-05T11:29:31.000Z</time>
        <extensions>
          <ns3:TrackPointExtension>
            <ns3:hr>89</ns3:hr>
            <ns3:cad>48</ns3:cad>
          </ns3:TrackPointExtension>
        </extensions>
      </trkpt>
      <trkpt lat="43.4713961742818355560302734375" lon="1.42066754400730133056640625">
        <ele>154.600006103515625</ele>
        <time>2026-08-05T11:29:32.000Z</time>
        <extensions>
          <ns3:TrackPointExtension>
            <ns3:hr>89</ns3:hr>
            <ns3:cad>49</ns3:cad>
          </ns3:TrackPointExtension>
        </extensions>
      </trkpt>
      <trkpt lat="43.47138427197933197021484375" lon="1.42067433334887027740478515625">
        <ele>154.600006103515625</ele>
        <time>2026-08-05T11:29:33.000Z</time>
        <extensions>
          <ns3:TrackPointExtension>
            <ns3:hr>89</ns3:hr>
            <ns3:cad>49</ns3:cad>
          </ns3:TrackPointExtension>
        </extensions>
      </trkpt>
      <trkpt lat="43.4713720344007015228271484375" lon="1.420682631433010101318359375">
        <ele>154.600006103515625</ele>
        <time>2026-08-05T11:29:34.000Z</time>
        <extensions>
          <ns3:TrackPointExtension>
            <ns3:hr>89</ns3:hr>
            <ns3:cad>48</ns3:cad>
          </ns3:TrackPointExtension>
        </extensions>
      </trkpt>
      <trkpt lat="43.47136356867849826812744140625" lon="1.4206928573548793792724609375">
        <ele>154.8000030517578125</ele>
        <time>2026-08-05T11:29:35.000Z</time>
        <extensions>
          <ns3:TrackPointExtension>
            <ns3:hr>89</ns3:hr>
            <ns3:cad>48</ns3:cad>
          </ns3:TrackPointExtension>
        </extensions>
      </trkpt>
      <trkpt lat="43.471355102956295013427734375" lon="1.4206982217729091644287109375">
        <ele>154.8000030517578125</ele>
        <time>2026-08-05T11:29:36.000Z</time>
        <extensions>
          <ns3:TrackPointExtension>
            <ns3:hr>89</ns3:hr>
            <ns3:cad>48</ns3:cad>
          </ns3:TrackPointExtension>
        </extensions>
      </trkpt>
      <trkpt lat="43.4713489003479480743408203125" lon="1.42070643603801727294921875">
        <ele>154.8000030517578125</ele>
        <time>2026-08-05T11:29:37.000Z</time>
        <extensions>
          <ns3:TrackPointExtension>
            <ns3:hr>89</ns3:hr>
            <ns3:cad>48</ns3:cad>
          </ns3:TrackPointExtension>
        </extensions>
      </trkpt>
      <trkpt lat="43.47133993171155452728271484375" lon="1.42071247100830078125">
        <ele>154.8000030517578125</ele>
        <time>2026-08-05T11:29:38.000Z</time>
        <extensions>
          <ns3:TrackPointExtension>
            <ns3:hr>89</ns3:hr>
            <ns3:cad>48</ns3:cad>
          </ns3:TrackPointExtension>
        </extensions>
      </trkpt>
      <trkpt lat="43.47132853232324123382568359375" lon="1.42072496004402637481689453125">
        <ele>154.8000030517578125</ele>
        <time>2026-08-05T11:29:39.000Z</time>
        <extensions>
          <ns3:TrackPointExtension>
            <ns3:hr>89</ns3:hr>
            <ns3:cad>48</ns3:cad>
          </ns3:TrackPointExtension>
        </extensions>
      </trkpt>
      <trkpt lat="43.471318222582340240478515625" lon="1.42073367722332477569580078125">
        <ele>154.8000030517578125</ele>
        <time>2026-08-05T11:29:40.000Z</time>
        <extensions>
          <ns3:TrackPointExtension>
            <ns3:hr>89</ns3:hr>
            <ns3:cad>48</ns3:cad>
          </ns3:TrackPointExtension>
        </extensions>
      </trkpt>
      <trkpt lat="43.4713090024888515472412109375" lon="1.4207424782216548919677734375">
        <ele>154.8000030517578125</ele>
        <time>2026-08-05T11:29:41.000Z</time>
        <extensions>
          <ns3:TrackPointExtension>
            <ns3:hr>90</ns3:hr>
            <ns3:cad>49</ns3:cad>
          </ns3:TrackPointExtension>
        </extensions>
      </trkpt>
      <trkpt lat="43.47130112349987030029296875" lon="1.42074792645871639251708984375">
        <ele>155</ele>
        <time>2026-08-05T11:29:42.000Z</time>
        <extensions>
          <ns3:TrackPointExtension>
            <ns3:hr>90</ns3:hr>
            <ns3:cad>49</ns3:cad>
          </ns3:TrackPointExtension>
        </extensions>
      </trkpt>
      <trkpt lat="43.47129198722541332244873046875" lon="1.42076008021831512451171875">
        <ele>155</ele>
        <time>2026-08-05T11:29:43.000Z</time>
        <extensions>
          <ns3:TrackPointExtension>
            <ns3:hr>90</ns3:hr>
            <ns3:cad>48</ns3:cad>
          </ns3:TrackPointExtension>
        </extensions>
      </trkpt>
      <trkpt lat="43.4712835215032100677490234375" lon="1.42077407799661159515380859375">
        <ele>155</ele>
        <time>2026-08-05T11:29:44.000Z</time>
        <extensions>
          <ns3:TrackPointExtension>
            <ns3:hr>90</ns3:hr>
            <ns3:cad>47</ns3:cad>
          </ns3:TrackPointExtension>
        </extensions>
      </trkpt>
      <trkpt lat="43.4712758101522922515869140625" lon="1.420785225927829742431640625">
        <ele>155</ele>
        <time>2026-08-05T11:29:45.000Z</time>
        <extensions>
          <ns3:TrackPointExtension>
            <ns3:hr>90</ns3:hr>
            <ns3:cad>47</ns3:cad>
          </ns3:TrackPointExtension>
        </extensions>
      </trkpt>
      <trkpt lat="43.47126835025846958160400390625" lon="1.4207941107451915740966796875">
        <ele>155</ele>
        <time>2026-08-05T11:29:46.000Z</time>
        <extensions>
          <ns3:TrackPointExtension>
            <ns3:hr>89</ns3:hr>
            <ns3:cad>47</ns3:cad>
          </ns3:TrackPointExtension>
        </extensions>
      </trkpt>
      <trkpt lat="43.47126130945980548858642578125" lon="1.42079939134418964385986328125">
        <ele>155</ele>
        <time>2026-08-05T11:29:47.000Z</time>
        <extensions>
          <ns3:TrackPointExtension>
            <ns3:hr>90</ns3:hr>
            <ns3:cad>47</ns3:cad>
          </ns3:TrackPointExtension>
        </extensions>
      </trkpt>
      <trkpt lat="43.47125225700438022613525390625" lon="1.420804671943187713623046875">
        <ele>155</ele>
        <time>2026-08-05T11:29:48.000Z</time>
        <extensions>
          <ns3:TrackPointExtension>
            <ns3:hr>90</ns3:hr>
            <ns3:cad>47</ns3:cad>
          </ns3:TrackPointExtension>
        </extensions>
      </trkpt>
      <trkpt lat="43.47124404273927211761474609375" lon="1.42080643214285373687744140625">
        <ele>155</ele>
        <time>2026-08-05T11:29:49.000Z</time>
        <extensions>
          <ns3:TrackPointExtension>
            <ns3:hr>89</ns3:hr>
            <ns3:cad>47</ns3:cad>
          </ns3:TrackPointExtension>
        </extensions>
      </trkpt>
      <trkpt lat="43.47123381681740283966064453125" lon="1.42080743797123432159423828125">
        <ele>155.1999969482421875</ele>
        <time>2026-08-05T11:29:50.000Z</time>
        <extensions>
          <ns3:TrackPointExtension>
            <ns3:hr>89</ns3:hr>
            <ns3:cad>46</ns3:cad>
          </ns3:TrackPointExtension>
        </extensions>
      </trkpt>
      <trkpt lat="43.47122468054294586181640625" lon="1.42080626450479030609130859375">
        <ele>155.1999969482421875</ele>
        <time>2026-08-05T11:29:51.000Z</time>
        <extensions>
          <ns3:TrackPointExtension>
            <ns3:hr>89</ns3:hr>
            <ns3:cad>46</ns3:cad>
          </ns3:TrackPointExtension>
        </extensions>
      </trkpt>
      <trkpt lat="43.47121302969753742218017578125" lon="1.4208075217902660369873046875">
        <ele>155.1999969482421875</ele>
        <time>2026-08-05T11:29:52.000Z</time>
        <extensions>
          <ns3:TrackPointExtension>
            <ns3:hr>89</ns3:hr>
            <ns3:cad>44</ns3:cad>
          </ns3:TrackPointExtension>
        </extensions>
      </trkpt>
      <trkpt lat="43.47120230086147785186767578125" lon="1.4208090305328369140625">
        <ele>155.1999969482421875</ele>
        <time>2026-08-05T11:29:53.000Z</time>
        <extensions>
          <ns3:TrackPointExtension>
            <ns3:hr>89</ns3:hr>
            <ns3:cad>43</ns3:cad>
          </ns3:TrackPointExtension>
        </extensions>
      </trkpt>
      <trkpt lat="43.4711931645870208740234375" lon="1.42081079073250293731689453125">
        <ele>155.1999969482421875</ele>
        <time>2026-08-05T11:29:54.000Z</time>
        <extensions>
          <ns3:TrackPointExtension>
            <ns3:hr>89</ns3:hr>
            <ns3:cad>42</ns3:cad>
          </ns3:TrackPointExtension>
        </extensions>
      </trkpt>
      <trkpt lat="43.47118067555129528045654296875" lon="1.420808024704456329345703125">
        <ele>155</ele>
        <time>2026-08-05T11:29:55.000Z</time>
        <extensions>
          <ns3:TrackPointExtension>
            <ns3:hr>89</ns3:hr>
            <ns3:cad>42</ns3:cad>
          </ns3:TrackPointExtension>
        </extensions>
      </trkpt>
      <trkpt lat="43.4711698628962039947509765625" lon="1.4208031632006168365478515625">
        <ele>155</ele>
        <time>2026-08-05T11:29:56.000Z</time>
        <extensions>
          <ns3:TrackPointExtension>
            <ns3:hr>89</ns3:hr>
            <ns3:cad>45</ns3:cad>
          </ns3:TrackPointExtension>
        </extensions>
      </trkpt>
      <trkpt lat="43.47115770913660526275634765625" lon="1.420795284211635589599609375">
        <ele>155.1999969482421875</ele>
        <time>2026-08-05T11:29:57.000Z</time>
        <extensions>
          <ns3:TrackPointExtension>
            <ns3:hr>88</ns3:hr>
            <ns3:cad>45</ns3:cad>
          </ns3:TrackPointExtension>
        </extensions>
      </trkpt>
      <trkpt lat="43.4711467288434505462646484375" lon="1.4207917638123035430908203125">
        <ele>155</ele>
        <time>2026-08-05T11:29:58.000Z</time>
        <extensions>
          <ns3:TrackPointExtension>
            <ns3:hr>88</ns3:hr>
            <ns3:cad>45</ns3:cad>
          </ns3:TrackPointExtension>
        </extensions>
      </trkpt>
      <trkpt lat="43.47113993950188159942626953125" lon="1.4207853935658931732177734375">
        <ele>155</ele>
        <time>2026-08-05T11:29:59.000Z</time>
        <extensions>
          <ns3:TrackPointExtension>
            <ns3:hr>88</ns3:hr>
            <ns3:cad>46</ns3:cad>
          </ns3:TrackPointExtension>
        </extensions>
      </trkpt>
      <trkpt lat="43.471131138503551483154296875" lon="1.42078245989978313446044921875">
        <ele>155</ele>
        <time>2026-08-05T11:30:00.000Z</time>
        <extensions>
          <ns3:TrackPointExtension>
            <ns3:hr>88</ns3:hr>
            <ns3:cad>47</ns3:cad>
          </ns3:TrackPointExtension>
        </extensions>
      </trkpt>
      <trkpt lat="43.47112141549587249755859375" lon="1.42078380100429058074951171875">
        <ele>155</ele>
        <time>2026-08-05T11:30:01.000Z</time>
        <extensions>
          <ns3:TrackPointExtension>
            <ns3:hr>89</ns3:hr>
            <ns3:cad>47</ns3:cad>
          </ns3:TrackPointExtension>
        </extensions>
      </trkpt>
      <trkpt lat="43.4711145423352718353271484375" lon="1.420781202614307403564453125">
        <ele>154.8000030517578125</ele>
        <time>2026-08-05T11:30:02.000Z</time>
        <extensions>
          <ns3:TrackPointExtension>
            <ns3:hr>89</ns3:hr>
            <ns3:cad>47</ns3:cad>
          </ns3:TrackPointExtension>
        </extensions>
      </trkpt>
      <trkpt lat="43.471104986965656280517578125" lon="1.4207800291478633880615234375">
        <ele>154.8000030517578125</ele>
        <time>2026-08-05T11:30:03.000Z</time>
        <extensions>
          <ns3:TrackPointExtension>
            <ns3:hr>89</ns3:hr>
            <ns3:cad>47</ns3:cad>
          </ns3:TrackPointExtension>
        </extensions>
      </trkpt>
      <trkpt lat="43.47109459340572357177734375" lon="1.42077994532883167266845703125">
        <ele>154.8000030517578125</ele>
        <time>2026-08-05T11:30:04.000Z</time>
        <extensions>
          <ns3:TrackPointExtension>
            <ns3:hr>89</ns3:hr>
            <ns3:cad>47</ns3:cad>
          </ns3:TrackPointExtension>
        </extensions>
      </trkpt>
      <trkpt lat="43.4710858762264251708984375" lon="1.4207820408046245574951171875">
        <ele>154.8000030517578125</ele>
        <time>2026-08-05T11:30:05.000Z</time>
        <extensions>
          <ns3:TrackPointExtension>
            <ns3:hr>89</ns3:hr>
            <ns3:cad>47</ns3:cad>
          </ns3:TrackPointExtension>
        </extensions>
      </trkpt>
      <trkpt lat="43.47107539884746074676513671875" lon="1.42078019678592681884765625">
        <ele>154.8000030517578125</ele>
        <time>2026-08-05T11:30:06.000Z</time>
        <extensions>
          <ns3:TrackPointExtension>
            <ns3:hr>88</ns3:hr>
            <ns3:cad>46</ns3:cad>
          </ns3:TrackPointExtension>
        </extensions>
      </trkpt>
      <trkpt lat="43.47107338719069957733154296875" lon="1.4207810349762439727783203125">
        <ele>154.8000030517578125</ele>
        <time>2026-08-05T11:30:07.000Z</time>
        <extensions>
          <ns3:TrackPointExtension>
            <ns3:hr>88</ns3:hr>
            <ns3:cad>46</ns3:cad>
          </ns3:TrackPointExtension>
        </extensions>
      </trkpt>
      <trkpt lat="43.47106332890689373016357421875" lon="1.4207803644239902496337890625">
        <ele>154.8000030517578125</ele>
        <time>2026-08-05T11:30:08.000Z</time>
        <extensions>
          <ns3:TrackPointExtension>
            <ns3:hr>88</ns3:hr>
            <ns3:cad>44</ns3:cad>
          </ns3:TrackPointExtension>
        </extensions>
      </trkpt>
      <trkpt lat="43.47105612047016620635986328125" lon="1.42077810131013393402099609375">
        <ele>154.8000030517578125</ele>
        <time>2026-08-05T11:30:09.000Z</time>
        <extensions>
          <ns3:TrackPointExtension>
            <ns3:hr>88</ns3:hr>
            <ns3:cad>43</ns3:cad>
          </ns3:TrackPointExtension>
        </extensions>
      </trkpt>
      <trkpt lat="43.47105075605213642120361328125" lon="1.42077617347240447998046875">
        <ele>154.600006103515625</ele>
        <time>2026-08-05T11:30:10.000Z</time>
        <extensions>
          <ns3:TrackPointExtension>
            <ns3:hr>87</ns3:hr>
            <ns3:cad>43</ns3:cad>
          </ns3:TrackPointExtension>
        </extensions>
      </trkpt>
      <trkpt lat="43.47104270942509174346923828125" lon="1.42077608965337276458740234375">
        <ele>154.600006103515625</ele>
        <time>2026-08-05T11:30:11.000Z</time>
        <extensions>
          <ns3:TrackPointExtension>
            <ns3:hr>87</ns3:hr>
            <ns3:cad>43</ns3:cad>
          </ns3:TrackPointExtension>
        </extensions>
      </trkpt>
      <trkpt lat="43.47102795727550983428955078125" lon="1.420775838196277618408203125">
        <ele>154.600006103515625</ele>
        <time>2026-08-05T11:30:12.000Z</time>
        <extensions>
          <ns3:TrackPointExtension>
            <ns3:hr>87</ns3:hr>
            <ns3:cad>41</ns3:cad>
          </ns3:TrackPointExtension>
        </extensions>
      </trkpt>
      <trkpt lat="43.47101605497300624847412109375" lon="1.4207746647298336029052734375">
        <ele>154.600006103515625</ele>
        <time>2026-08-05T11:30:13.000Z</time>
        <extensions>
          <ns3:TrackPointExtension>
            <ns3:hr>87</ns3:hr>
            <ns3:cad>41</ns3:cad>
          </ns3:TrackPointExtension>
        </extensions>
      </trkpt>
      <trkpt lat="43.471001721918582916259765625" lon="1.4207709766924381256103515625">
        <ele>154.600006103515625</ele>
        <time>2026-08-05T11:30:14.000Z</time>
        <extensions>
          <ns3:TrackPointExtension>
            <ns3:hr>87</ns3:hr>
            <ns3:cad>42</ns3:cad>
          </ns3:TrackPointExtension>
        </extensions>
      </trkpt>
      <trkpt lat="43.4709894843399524688720703125" lon="1.42077005468308925628662109375">
        <ele>154.399993896484375</ele>
        <time>2026-08-05T11:30:15.000Z</time>
        <extensions>
          <ns3:TrackPointExtension>
            <ns3:hr>87</ns3:hr>
            <ns3:cad>47</ns3:cad>
          </ns3:TrackPointExtension>
        </extensions>
      </trkpt>
      <trkpt lat="43.47097766585648059844970703125" lon="1.42077240161597728729248046875">
        <ele>154.399993896484375</ele>
        <time>2026-08-05T11:30:16.000Z</time>
        <extensions>
          <ns3:TrackPointExtension>
            <ns3:hr>87</ns3:hr>
            <ns3:cad>47</ns3:cad>
          </ns3:TrackPointExtension>
        </extensions>
      </trkpt>
      <trkpt lat="43.47096576355397701263427734375" lon="1.42076938413083553314208984375">
        <ele>154.399993896484375</ele>
        <time>2026-08-05T11:30:17.000Z</time>
        <extensions>
          <ns3:TrackPointExtension>
            <ns3:hr>87</ns3:hr>
            <ns3:cad>47</ns3:cad>
          </ns3:TrackPointExtension>
        </extensions>
      </trkpt>
      <trkpt lat="43.47095386125147342681884765625" lon="1.42076452262699604034423828125">
        <ele>154.399993896484375</ele>
        <time>2026-08-05T11:30:18.000Z</time>
        <extensions>
          <ns3:TrackPointExtension>
            <ns3:hr>86</ns3:hr>
            <ns3:cad>46</ns3:cad>
          </ns3:TrackPointExtension>
        </extensions>
      </trkpt>
      <trkpt lat="43.47094397060573101043701171875" lon="1.420759744942188262939453125">
        <ele>154.399993896484375</ele>
        <time>2026-08-05T11:30:19.000Z</time>
        <extensions>
          <ns3:TrackPointExtension>
            <ns3:hr>86</ns3:hr>
            <ns3:cad>46</ns3:cad>
          </ns3:TrackPointExtension>
        </extensions>
      </trkpt>
      <trkpt lat="43.47092972137033939361572265625" lon="1.4207589067518711090087890625">
        <ele>154.399993896484375</ele>
        <time>2026-08-05T11:30:20.000Z</time>
        <extensions>
          <ns3:TrackPointExtension>
            <ns3:hr>86</ns3:hr>
            <ns3:cad>47</ns3:cad>
          </ns3:TrackPointExtension>
        </extensions>
      </trkpt>
      <trkpt lat="43.4709184058010578155517578125" lon="1.42075848765671253204345703125">
        <ele>154.399993896484375</ele>
        <time>2026-08-05T11:30:21.000Z</time>
        <extensions>
          <ns3:TrackPointExtension>
            <ns3:hr>86</ns3:hr>
            <ns3:cad>47</ns3:cad>
          </ns3:TrackPointExtension>
        </extensions>
      </trkpt>
      <trkpt lat="43.4709073416888713836669921875" lon="1.42075764946639537811279296875">
        <ele>154.399993896484375</ele>
        <time>2026-08-05T11:30:22.000Z</time>
        <extensions>
          <ns3:TrackPointExtension>
            <ns3:hr>86</ns3:hr>
            <ns3:cad>47</ns3:cad>
          </ns3:TrackPointExtension>
        </extensions>
      </trkpt>
      <trkpt lat="43.4708986245095729827880859375" lon="1.4207552187144756317138671875">
        <ele>154.399993896484375</ele>
        <time>2026-08-05T11:30:23.000Z</time>
        <extensions>
          <ns3:TrackPointExtension>
            <ns3:hr>86</ns3:hr>
            <ns3:cad>47</ns3:cad>
          </ns3:TrackPointExtension>
        </extensions>
      </trkpt>
      <trkpt lat="43.47089284099638462066650390625" lon="1.420750357210636138916015625">
        <ele>154.399993896484375</ele>
        <time>2026-08-05T11:30:24.000Z</time>
        <extensions>
          <ns3:TrackPointExtension>
            <ns3:hr>86</ns3:hr>
            <ns3:cad>47</ns3:cad>
          </ns3:TrackPointExtension>
        </extensions>
      </trkpt>
      <trkpt lat="43.47088043577969074249267578125" lon="1.420748345553874969482421875">
        <ele>154.399993896484375</ele>
        <time>2026-08-05T11:30:25.000Z</time>
        <extensions>
          <ns3:TrackPointExtension>
            <ns3:hr>85</ns3:hr>
            <ns3:cad>48</ns3:cad>
          </ns3:TrackPointExtension>
        </extensions>
      </trkpt>
      <trkpt lat="43.47086652182042598724365234375" lon="1.420749016106128692626953125">
        <ele>154.399993896484375</ele>
        <time>2026-08-05T11:30:26.000Z</time>
        <extensions>
          <ns3:TrackPointExtension>
            <ns3:hr>86</ns3:hr>
            <ns3:cad>48</ns3:cad>
          </ns3:TrackPointExtension>
        </extensions>
      </trkpt>
      <trkpt lat="43.47085344605147838592529296875" lon="1.4207478426396846771240234375">
        <ele>154.1999969482421875</ele>
        <time>2026-08-05T11:30:27.000Z</time>
        <extensions>
          <ns3:TrackPointExtension>
            <ns3:hr>86</ns3:hr>
            <ns3:cad>48</ns3:cad>
          </ns3:TrackPointExtension>
        </extensions>
      </trkpt>
      <trkpt lat="43.47084271721541881561279296875" lon="1.42074591480195522308349609375">
        <ele>154.1999969482421875</ele>
        <time>2026-08-05T11:30:28.000Z</time>
        <extensions>
          <ns3:TrackPointExtension>
            <ns3:hr>86</ns3:hr>
            <ns3:cad>48</ns3:cad>
          </ns3:TrackPointExtension>
        </extensions>
      </trkpt>
      <trkpt lat="43.4708352573215961456298828125" lon="1.42074122093617916107177734375">
        <ele>154.1999969482421875</ele>
        <time>2026-08-05T11:30:29.000Z</time>
        <extensions>
          <ns3:TrackPointExtension>
            <ns3:hr>87</ns3:hr>
            <ns3:cad>48</ns3:cad>
          </ns3:TrackPointExtension>
        </extensions>
      </trkpt>
      <trkpt lat="43.47082595340907573699951171875" lon="1.4207401312887668609619140625">
        <ele>154.1999969482421875</ele>
        <time>2026-08-05T11:30:30.000Z</time>
        <extensions>
          <ns3:TrackPointExtension>
            <ns3:hr>87</ns3:hr>
            <ns3:cad>48</ns3:cad>
          </ns3:TrackPointExtension>
        </extensions>
      </trkpt>
      <trkpt lat="43.470809943974018096923828125" lon="1.42073837108910083770751953125">
        <ele>154.1999969482421875</ele>
        <time>2026-08-05T11:30:31.000Z</time>
        <extensions>
          <ns3:TrackPointExtension>
            <ns3:hr>87</ns3:hr>
            <ns3:cad>48</ns3:cad>
          </ns3:TrackPointExtension>
        </extensions>
      </trkpt>
      <trkpt lat="43.4707940183579921722412109375" lon="1.420737616717815399169921875">
        <ele>154.1999969482421875</ele>
        <time>2026-08-05T11:30:32.000Z</time>
        <extensions>
          <ns3:TrackPointExtension>
            <ns3:hr>87</ns3:hr>
            <ns3:cad>48</ns3:cad>
          </ns3:TrackPointExtension>
        </extensions>
      </trkpt>
      <trkpt lat="43.47078437916934490203857421875" lon="1.42073686234652996063232421875">
        <ele>154.399993896484375</ele>
        <time>2026-08-05T11:30:33.000Z</time>
        <extensions>
          <ns3:TrackPointExtension>
            <ns3:hr>87</ns3:hr>
            <ns3:cad>48</ns3:cad>
          </ns3:TrackPointExtension>
        </extensions>
      </trkpt>
      <trkpt lat="43.47077700309455394744873046875" lon="1.42073728144168853759765625">
        <ele>154.399993896484375</ele>
        <time>2026-08-05T11:30:34.000Z</time>
        <extensions>
          <ns3:TrackPointExtension>
            <ns3:hr>87</ns3:hr>
            <ns3:cad>48</ns3:cad>
          </ns3:TrackPointExtension>
        </extensions>
      </trkpt>
      <trkpt lat="43.47076845355331897735595703125" lon="1.42073451541364192962646484375">
        <ele>154.399993896484375</ele>
        <time>2026-08-05T11:30:35.000Z</time>
        <extensions>
          <ns3:TrackPointExtension>
            <ns3:hr>87</ns3:hr>
            <ns3:cad>48</ns3:cad>
          </ns3:TrackPointExtension>
        </extensions>
      </trkpt>
      <trkpt lat="43.47075386904180049896240234375" lon="1.42073283903300762176513671875">
        <ele>154.399993896484375</ele>
        <time>2026-08-05T11:30:36.000Z</time>
        <extensions>
          <ns3:TrackPointExtension>
            <ns3:hr>88</ns3:hr>
            <ns3:cad>48</ns3:cad>
          </ns3:TrackPointExtension>
        </extensions>
      </trkpt>
      <trkpt lat="43.47074314020574092864990234375" lon="1.42073191702365875244140625">
        <ele>154.399993896484375</ele>
        <time>2026-08-05T11:30:37.000Z</time>
        <extensions>
          <ns3:TrackPointExtension>
            <ns3:hr>88</ns3:hr>
            <ns3:cad>47</ns3:cad>
          </ns3:TrackPointExtension>
        </extensions>
      </trkpt>
      <trkpt lat="43.470732830464839935302734375" lon="1.4207307435572147369384765625">
        <ele>154.399993896484375</ele>
        <time>2026-08-05T11:30:38.000Z</time>
        <extensions>
          <ns3:TrackPointExtension>
            <ns3:hr>88</ns3:hr>
            <ns3:cad>47</ns3:cad>
          </ns3:TrackPointExtension>
        </extensions>
      </trkpt>
      <trkpt lat="43.47072218544781208038330078125" lon="1.42072730697691440582275390625">
        <ele>154.399993896484375</ele>
        <time>2026-08-05T11:30:39.000Z</time>
        <extensions>
          <ns3:TrackPointExtension>
            <ns3:hr>88</ns3:hr>
            <ns3:cad>47</ns3:cad>
          </ns3:TrackPointExtension>
        </extensions>
      </trkpt>
      <trkpt lat="43.47071313299238681793212890625" lon="1.42072521150112152099609375">
        <ele>154.399993896484375</ele>
        <time>2026-08-05T11:30:40.000Z</time>
        <extensions>
          <ns3:TrackPointExtension>
            <ns3:hr>87</ns3:hr>
            <ns3:cad>48</ns3:cad>
          </ns3:TrackPointExtension>
        </extensions>
      </trkpt>
      <trkpt lat="43.47069888375699520111083984375" lon="1.42072127200663089752197265625">
        <ele>154.399993896484375</ele>
        <time>2026-08-05T11:30:41.000Z</time>
        <extensions>
          <ns3:TrackPointExtension>
            <ns3:hr>87</ns3:hr>
            <ns3:cad>48</ns3:cad>
          </ns3:TrackPointExtension>
        </extensions>
      </trkpt>
      <trkpt lat="43.470684550702571868896484375" lon="1.42071775160729885101318359375">
        <ele>154.399993896484375</ele>
        <time>2026-08-05T11:30:42.000Z</time>
        <extensions>
          <ns3:TrackPointExtension>
            <ns3:hr>88</ns3:hr>
            <ns3:cad>48</ns3:cad>
          </ns3:TrackPointExtension>
        </extensions>
      </trkpt>
      <trkpt lat="43.470673151314258575439453125" lon="1.4207139797508716583251953125">
        <ele>154.399993896484375</ele>
        <time>2026-08-05T11:30:43.000Z</time>
        <extensions>
          <ns3:TrackPointExtension>
            <ns3:hr>88</ns3:hr>
            <ns3:cad>48</ns3:cad>
          </ns3:TrackPointExtension>
        </extensions>
      </trkpt>
      <trkpt lat="43.4706629253923892974853515625" lon="1.4207099564373493194580078125">
        <ele>154.399993896484375</ele>
        <time>2026-08-05T11:30:44.000Z</time>
        <extensions>
          <ns3:TrackPointExtension>
            <ns3:hr>88</ns3:hr>
            <ns3:cad>48</ns3:cad>
          </ns3:TrackPointExtension>
        </extensions>
      </trkpt>
      <trkpt lat="43.47065362147986888885498046875" lon="1.4207099564373493194580078125">
        <ele>154.399993896484375</ele>
        <time>2026-08-05T11:30:45.000Z</time>
        <extensions>
          <ns3:TrackPointExtension>
            <ns3:hr>87</ns3:hr>
            <ns3:cad>48</ns3:cad>
          </ns3:TrackPointExtension>
        </extensions>
      </trkpt>
      <trkpt lat="43.47063618712127208709716796875" lon="1.42070953734219074249267578125">
        <ele>154.1999969482421875</ele>
        <time>2026-08-05T11:30:46.000Z</time>
        <extensions>
          <ns3:TrackPointExtension>
            <ns3:hr>88</ns3:hr>
            <ns3:cad>48</ns3:cad>
          </ns3:TrackPointExtension>
        </extensions>
      </trkpt>
      <trkpt lat="43.47062428481876850128173828125" lon="1.42070903442800045013427734375">
        <ele>154.1999969482421875</ele>
        <time>2026-08-05T11:30:47.000Z</time>
        <extensions>
          <ns3:TrackPointExtension>
            <ns3:hr>88</ns3:hr>
            <ns3:cad>47</ns3:cad>
          </ns3:TrackPointExtension>
        </extensions>
      </trkpt>
      <trkpt lat="43.470613472163677215576171875" lon="1.4207062683999538421630859375">
        <ele>154.1999969482421875</ele>
        <time>2026-08-05T11:30:48.000Z</time>
        <extensions>
          <ns3:TrackPointExtension>
            <ns3:hr>87</ns3:hr>
            <ns3:cad>47</ns3:cad>
          </ns3:TrackPointExtension>
        </extensions>
      </trkpt>
      <trkpt lat="43.47060768865048885345458984375" lon="1.42070350237190723419189453125">
        <ele>154.1999969482421875</ele>
        <time>2026-08-05T11:30:49.000Z</time>
        <extensions>
          <ns3:TrackPointExtension>
            <ns3:hr>88</ns3:hr>
            <ns3:cad>47</ns3:cad>
          </ns3:TrackPointExtension>
        </extensions>
      </trkpt>
      <trkpt lat="43.47060098312795162200927734375" lon="1.42070400528609752655029296875">
        <ele>154.1999969482421875</ele>
        <time>2026-08-05T11:30:50.000Z</time>
        <extensions>
          <ns3:TrackPointExtension>
            <ns3:hr>88</ns3:hr>
            <ns3:cad>47</ns3:cad>
          </ns3:TrackPointExtension>
        </extensions>
      </trkpt>
      <trkpt lat="43.4705911763012409210205078125" lon="1.420704759657382965087890625">
        <ele>154.1999969482421875</ele>
        <time>2026-08-05T11:30:51.000Z</time>
        <extensions>
          <ns3:TrackPointExtension>
            <ns3:hr>88</ns3:hr>
            <ns3:cad>48</ns3:cad>
          </ns3:TrackPointExtension>
        </extensions>
      </trkpt>
      <trkpt lat="43.470580279827117919921875" lon="1.42070333473384380340576171875">
        <ele>154.1999969482421875</ele>
        <time>2026-08-05T11:30:52.000Z</time>
        <extensions>
          <ns3:TrackPointExtension>
            <ns3:hr>88</ns3:hr>
            <ns3:cad>48</ns3:cad>
          </ns3:TrackPointExtension>
        </extensions>
      </trkpt>
      <trkpt lat="43.47057181410491466522216796875" lon="1.42070434056222438812255859375">
        <ele>154.1999969482421875</ele>
        <time>2026-08-05T11:30:53.000Z</time>
        <extensions>
          <ns3:TrackPointExtension>
            <ns3:hr>88</ns3:hr>
            <ns3:cad>48</ns3:cad>
          </ns3:TrackPointExtension>
        </extensions>
      </trkpt>
      <trkpt lat="43.470558822154998779296875" lon="1.42069964669644832611083984375">
        <ele>154.1999969482421875</ele>
        <time>2026-08-05T11:30:54.000Z</time>
        <extensions>
          <ns3:TrackPointExtension>
            <ns3:hr>88</ns3:hr>
            <ns3:cad>48</ns3:cad>
          </ns3:TrackPointExtension>
        </extensions>
      </trkpt>
      <trkpt lat="43.4705506078898906707763671875" lon="1.42069713212549686431884765625">
        <ele>154.1999969482421875</ele>
        <time>2026-08-05T11:30:55.000Z</time>
        <extensions>
          <ns3:TrackPointExtension>
            <ns3:hr>88</ns3:hr>
            <ns3:cad>49</ns3:cad>
          </ns3:TrackPointExtension>
        </extensions>
      </trkpt>
      <trkpt lat="43.47054046578705310821533203125" lon="1.42069646157324314117431640625">
        <ele>154.1999969482421875</ele>
        <time>2026-08-05T11:30:56.000Z</time>
        <extensions>
          <ns3:TrackPointExtension>
            <ns3:hr>88</ns3:hr>
            <ns3:cad>49</ns3:cad>
          </ns3:TrackPointExtension>
        </extensions>
      </trkpt>
      <trkpt lat="43.47052822820842266082763671875" lon="1.42069512046873569488525390625">
        <ele>154</ele>
        <time>2026-08-05T11:30:57.000Z</time>
        <extensions>
          <ns3:TrackPointExtension>
            <ns3:hr>89</ns3:hr>
            <ns3:cad>49</ns3:cad>
          </ns3:TrackPointExtension>
        </extensions>
      </trkpt>
      <trkpt lat="43.4705147333443164825439453125" lon="1.42069528810679912567138671875">
        <ele>154</ele>
        <time>2026-08-05T11:30:58.000Z</time>
        <extensions>
          <ns3:TrackPointExtension>
            <ns3:hr>88</ns3:hr>
            <ns3:cad>49</ns3:cad>
          </ns3:TrackPointExtension>
        </extensions>
      </trkpt>
      <trkpt lat="43.4705006517469882965087890625" lon="1.42069637775421142578125">
        <ele>154</ele>
        <time>2026-08-05T11:30:59.000Z</time>
        <extensions>
          <ns3:TrackPointExtension>
            <ns3:hr>89</ns3:hr>
            <ns3:cad>48</ns3:cad>
          </ns3:TrackPointExtension>
        </extensions>
      </trkpt>
      <trkpt lat="43.47049109637737274169921875" lon="1.420696042478084564208984375">
        <ele>154</ele>
        <time>2026-08-05T11:31:00.000Z</time>
        <extensions>
          <ns3:TrackPointExtension>
            <ns3:hr>89</ns3:hr>
            <ns3:cad>48</ns3:cad>
          </ns3:TrackPointExtension>
        </extensions>
      </trkpt>
      <trkpt lat="43.47048279829323291778564453125" lon="1.42069243825972080230712890625">
        <ele>154</ele>
        <time>2026-08-05T11:31:01.000Z</time>
        <extensions>
          <ns3:TrackPointExtension>
            <ns3:hr>89</ns3:hr>
            <ns3:cad>49</ns3:cad>
          </ns3:TrackPointExtension>
        </extensions>
      </trkpt>
      <trkpt lat="43.4704674594104290008544921875" lon="1.42069025896489620208740234375">
        <ele>154</ele>
        <time>2026-08-05T11:31:02.000Z</time>
        <extensions>
          <ns3:TrackPointExtension>
            <ns3:hr>89</ns3:hr>
            <ns3:cad>49</ns3:cad>
          </ns3:TrackPointExtension>
        </extensions>
      </trkpt>
      <trkpt lat="43.4704540483653545379638671875" lon="1.42069260589778423309326171875">
        <ele>154</ele>
        <time>2026-08-05T11:31:03.000Z</time>
        <extensions>
          <ns3:TrackPointExtension>
            <ns3:hr>90</ns3:hr>
            <ns3:cad>49</ns3:cad>
          </ns3:TrackPointExtension>
        </extensions>
      </trkpt>
      <trkpt lat="43.4704399667680263519287109375" lon="1.42069377936422824859619140625">
        <ele>154</ele>
        <time>2026-08-05T11:31:04.000Z</time>
        <extensions>
          <ns3:TrackPointExtension>
            <ns3:hr>90</ns3:hr>
            <ns3:cad>49</ns3:cad>
          </ns3:TrackPointExtension>
        </extensions>
      </trkpt>
      <trkpt lat="43.4704289026558399200439453125" lon="1.420693360269069671630859375">
        <ele>154</ele>
        <time>2026-08-05T11:31:05.000Z</time>
        <extensions>
          <ns3:TrackPointExtension>
            <ns3:hr>90</ns3:hr>
            <ns3:cad>48</ns3:cad>
          </ns3:TrackPointExtension>
        </extensions>
      </trkpt>
      <trkpt lat="43.47042077220976352691650390625" lon="1.42069428227841854095458984375">
        <ele>154</ele>
        <time>2026-08-05T11:31:06.000Z</time>
        <extensions>
          <ns3:TrackPointExtension>
            <ns3:hr>91</ns3:hr>
            <ns3:cad>48</ns3:cad>
          </ns3:TrackPointExtension>
        </extensions>
      </trkpt>
      <trkpt lat="43.47041205503046512603759765625" lon="1.42069570720195770263671875">
        <ele>154</ele>
        <time>2026-08-05T11:31:07.000Z</time>
        <extensions>
          <ns3:TrackPointExtension>
            <ns3:hr>91</ns3:hr>
            <ns3:cad>48</ns3:cad>
          </ns3:TrackPointExtension>
        </extensions>
      </trkpt>
      <trkpt lat="43.470398224890232086181640625" lon="1.4206965453922748565673828125">
        <ele>154</ele>
        <time>2026-08-05T11:31:08.000Z</time>
        <extensions>
          <ns3:TrackPointExtension>
            <ns3:hr>93</ns3:hr>
            <ns3:cad>48</ns3:cad>
          </ns3:TrackPointExtension>
        </extensions>
      </trkpt>
      <trkpt lat="43.47038305364549160003662109375" lon="1.42070065252482891082763671875">
        <ele>153.8000030517578125</ele>
        <time>2026-08-05T11:31:09.000Z</time>
        <extensions>
          <ns3:TrackPointExtension>
            <ns3:hr>93</ns3:hr>
            <ns3:cad>49</ns3:cad>
          </ns3:TrackPointExtension>
        </extensions>
      </trkpt>
      <trkpt lat="43.470368720591068267822265625" lon="1.42069931142032146453857421875">
        <ele>153.8000030517578125</ele>
        <time>2026-08-05T11:31:10.000Z</time>
        <extensions>
          <ns3:TrackPointExtension>
            <ns3:hr>92</ns3:hr>
            <ns3:cad>50</ns3:cad>
          </ns3:TrackPointExtension>
        </extensions>
      </trkpt>
      <trkpt lat="43.47035698592662811279296875" lon="1.42069830559194087982177734375">
        <ele>153.8000030517578125</ele>
        <time>2026-08-05T11:31:11.000Z</time>
        <extensions>
          <ns3:TrackPointExtension>
            <ns3:hr>92</ns3:hr>
            <ns3:cad>50</ns3:cad>
          </ns3:TrackPointExtension>
        </extensions>
      </trkpt>
      <trkpt lat="43.47034902311861515045166015625" lon="1.420696042478084564208984375">
        <ele>153.8000030517578125</ele>
        <time>2026-08-05T11:31:12.000Z</time>
        <extensions>
          <ns3:TrackPointExtension>
            <ns3:hr>92</ns3:hr>
            <ns3:cad>49</ns3:cad>
          </ns3:TrackPointExtension>
        </extensions>
      </trkpt>
      <trkpt lat="43.4703383781015872955322265625" lon="1.42069662921130657196044921875">
        <ele>153.8000030517578125</ele>
        <time>2026-08-05T11:31:13.000Z</time>
        <extensions>
          <ns3:TrackPointExtension>
            <ns3:hr>92</ns3:hr>
            <ns3:cad>49</ns3:cad>
          </ns3:TrackPointExtension>
        </extensions>
      </trkpt>
      <trkpt lat="43.47032479941844940185546875" lon="1.4206962101161479949951171875">
        <ele>153.8000030517578125</ele>
        <time>2026-08-05T11:31:14.000Z</time>
        <extensions>
          <ns3:TrackPointExtension>
            <ns3:hr>92</ns3:hr>
            <ns3:cad>50</ns3:cad>
          </ns3:TrackPointExtension>
        </extensions>
      </trkpt>
      <trkpt lat="43.47031398676335811614990234375" lon="1.42069763503968715667724609375">
        <ele>153.8000030517578125</ele>
        <time>2026-08-05T11:31:15.000Z</time>
        <extensions>
          <ns3:TrackPointExtension>
            <ns3:hr>92</ns3:hr>
            <ns3:cad>50</ns3:cad>
          </ns3:TrackPointExtension>
        </extensions>
      </trkpt>
      <trkpt lat="43.470302335917949676513671875" lon="1.42069679684937000274658203125">
        <ele>153.600006103515625</ele>
        <time>2026-08-05T11:31:16.000Z</time>
        <extensions>
          <ns3:TrackPointExtension>
            <ns3:hr>92</ns3:hr>
            <ns3:cad>50</ns3:cad>
          </ns3:TrackPointExtension>
        </extensions>
      </trkpt>
      <trkpt lat="43.47028917632997035980224609375" lon="1.42069998197257518768310546875">
        <ele>153.600006103515625</ele>
        <time>2026-08-05T11:31:17.000Z</time>
        <extensions>
          <ns3:TrackPointExtension>
            <ns3:hr>92</ns3:hr>
            <ns3:cad>50</ns3:cad>
          </ns3:TrackPointExtension>
        </extensions>
      </trkpt>
      <trkpt lat="43.47028045915067195892333984375" lon="1.42069973051548004150390625">
        <ele>153.600006103515625</ele>
        <time>2026-08-05T11:31:18.000Z</time>
        <extensions>
          <ns3:TrackPointExtension>
            <ns3:hr>92</ns3:hr>
            <ns3:cad>50</ns3:cad>
          </ns3:TrackPointExtension>
        </extensions>
      </trkpt>
      <trkpt lat="43.470266126096248626708984375" lon="1.4206982217729091644287109375">
        <ele>153.600006103515625</ele>
        <time>2026-08-05T11:31:19.000Z</time>
        <extensions>
          <ns3:TrackPointExtension>
            <ns3:hr>92</ns3:hr>
            <ns3:cad>50</ns3:cad>
          </ns3:TrackPointExtension>
        </extensions>
      </trkpt>
      <trkpt lat="43.47025497816503047943115234375" lon="1.420700065791606903076171875">
        <ele>153.600006103515625</ele>
        <time>2026-08-05T11:31:20.000Z</time>
        <extensions>
          <ns3:TrackPointExtension>
            <ns3:hr>92</ns3:hr>
            <ns3:cad>50</ns3:cad>
          </ns3:TrackPointExtension>
        </extensions>
      </trkpt>
      <trkpt lat="43.4702414833009243011474609375" lon="1.420702748000621795654296875">
        <ele>153.600006103515625</ele>
        <time>2026-08-05T11:31:21.000Z</time>
        <extensions>
          <ns3:TrackPointExtension>
            <ns3:hr>91</ns3:hr>
            <ns3:cad>50</ns3:cad>
          </ns3:TrackPointExtension>
        </extensions>
      </trkpt>
      <trkpt lat="43.47022932954132556915283203125" lon="1.4207042567431926727294921875">
        <ele>153.600006103515625</ele>
        <time>2026-08-05T11:31:22.000Z</time>
        <extensions>
          <ns3:TrackPointExtension>
            <ns3:hr>92</ns3:hr>
            <ns3:cad>50</ns3:cad>
          </ns3:TrackPointExtension>
        </extensions>
      </trkpt>
      <trkpt lat="43.4702200256288051605224609375" lon="1.42070710659027099609375">
        <ele>153.8000030517578125</ele>
        <time>2026-08-05T11:31:23.000Z</time>
        <extensions>
          <ns3:TrackPointExtension>
            <ns3:hr>92</ns3:hr>
            <ns3:cad>50</ns3:cad>
          </ns3:TrackPointExtension>
        </extensions>
      </trkpt>
      <trkpt lat="43.47020938061177730560302734375" lon="1.42070534639060497283935546875">
        <ele>153.600006103515625</ele>
        <time>2026-08-05T11:31:24.000Z</time>
        <extensions>
          <ns3:TrackPointExtension>
            <ns3:hr>91</ns3:hr>
            <ns3:cad>49</ns3:cad>
          </ns3:TrackPointExtension>
        </extensions>
      </trkpt>
      <trkpt lat="43.47019898705184459686279296875" lon="1.42070836387574672698974609375">
        <ele>153.8000030517578125</ele>
        <time>2026-08-05T11:31:25.000Z</time>
        <extensions>
          <ns3:TrackPointExtension>
            <ns3:hr>92</ns3:hr>
            <ns3:cad>49</ns3:cad>
          </ns3:TrackPointExtension>
        </extensions>
      </trkpt>
      <trkpt lat="43.47018389962613582611083984375" lon="1.42071456648409366607666015625">
        <ele>153.8000030517578125</ele>
        <time>2026-08-05T11:31:26.000Z</time>
        <extensions>
          <ns3:TrackPointExtension>
            <ns3:hr>92</ns3:hr>
            <ns3:cad>49</ns3:cad>
          </ns3:TrackPointExtension>
        </extensions>
      </trkpt>
      <trkpt lat="43.47017250023782253265380859375" lon="1.4207200147211551666259765625">
        <ele>153.8000030517578125</ele>
        <time>2026-08-05T11:31:27.000Z</time>
        <extensions>
          <ns3:TrackPointExtension>
            <ns3:hr>92</ns3:hr>
            <ns3:cad>49</ns3:cad>
          </ns3:TrackPointExtension>
        </extensions>
      </trkpt>
      <trkpt lat="43.470161855220794677734375" lon="1.4207218587398529052734375">
        <ele>153.8000030517578125</ele>
        <time>2026-08-05T11:31:28.000Z</time>
        <extensions>
          <ns3:TrackPointExtension>
            <ns3:hr>92</ns3:hr>
            <ns3:cad>49</ns3:cad>
          </ns3:TrackPointExtension>
        </extensions>
      </trkpt>
      <trkpt lat="43.47015045583248138427734375" lon="1.4207230322062969207763671875">
        <ele>153.8000030517578125</ele>
        <time>2026-08-05T11:31:29.000Z</time>
        <extensions>
          <ns3:TrackPointExtension>
            <ns3:hr>92</ns3:hr>
            <ns3:cad>49</ns3:cad>
          </ns3:TrackPointExtension>
        </extensions>
      </trkpt>
      <trkpt lat="43.47013838589191436767578125" lon="1.42072496004402637481689453125">
        <ele>154</ele>
        <time>2026-08-05T11:31:30.000Z</time>
        <extensions>
          <ns3:TrackPointExtension>
            <ns3:hr>91</ns3:hr>
            <ns3:cad>50</ns3:cad>
          </ns3:TrackPointExtension>
        </extensions>
      </trkpt>
      <trkpt lat="43.4701234661042690277099609375" lon="1.4207277260720729827880859375">
        <ele>154</ele>
        <time>2026-08-05T11:31:31.000Z</time>
        <extensions>
          <ns3:TrackPointExtension>
            <ns3:hr>91</ns3:hr>
            <ns3:cad>50</ns3:cad>
          </ns3:TrackPointExtension>
        </extensions>
      </trkpt>
      <trkpt lat="43.470109887421131134033203125" lon="1.4207314141094684600830078125">
        <ele>154.1999969482421875</ele>
        <time>2026-08-05T11:31:32.000Z</time>
        <extensions>
          <ns3:TrackPointExtension>
            <ns3:hr>91</ns3:hr>
            <ns3:cad>50</ns3:cad>
          </ns3:TrackPointExtension>
        </extensions>
      </trkpt>
      <trkpt lat="43.47009739838540554046630859375" lon="1.420734263956546783447265625">
        <ele>154.1999969482421875</ele>
        <time>2026-08-05T11:31:33.000Z</time>
        <extensions>
          <ns3:TrackPointExtension>
            <ns3:hr>91</ns3:hr>
            <ns3:cad>50</ns3:cad>
          </ns3:TrackPointExtension>
        </extensions>
      </trkpt>
      <trkpt lat="43.47008499316871166229248046875" lon="1.42073384486138820648193359375">
        <ele>154</ele>
        <time>2026-08-05T11:31:34.000Z</time>
        <extensions>
          <ns3:TrackPointExtension>
            <ns3:hr>92</ns3:hr>
            <ns3:cad>50</ns3:cad>
          </ns3:TrackPointExtension>
        </extensions>
      </trkpt>
      <trkpt lat="43.47007669508457183837890625" lon="1.42073283903300762176513671875">
        <ele>154</ele>
        <time>2026-08-05T11:31:35.000Z</time>
        <extensions>
          <ns3:TrackPointExtension>
            <ns3:hr>91</ns3:hr>
            <ns3:cad>50</ns3:cad>
          </ns3:TrackPointExtension>
        </extensions>
      </trkpt>
      <trkpt lat="43.47006722353398799896240234375" lon="1.42073401249945163726806640625">
        <ele>154</ele>
        <time>2026-08-05T11:31:36.000Z</time>
        <extensions>
          <ns3:TrackPointExtension>
            <ns3:hr>91</ns3:hr>
            <ns3:cad>50</ns3:cad>
          </ns3:TrackPointExtension>
        </extensions>
      </trkpt>
      <trkpt lat="43.47005666233599185943603515625" lon="1.4207352697849273681640625">
        <ele>154</ele>
        <time>2026-08-05T11:31:37.000Z</time>
        <extensions>
          <ns3:TrackPointExtension>
            <ns3:hr>92</ns3:hr>
            <ns3:cad>49</ns3:cad>
          </ns3:TrackPointExtension>
        </extensions>
      </trkpt>
      <trkpt lat="43.47004140727221965789794921875" lon="1.42074205912649631500244140625">
        <ele>154</ele>
        <time>2026-08-05T11:31:38.000Z</time>
        <extensions>
          <ns3:TrackPointExtension>
            <ns3:hr>93</ns3:hr>
            <ns3:cad>49</ns3:cad>
          </ns3:TrackPointExtension>
        </extensions>
      </trkpt>
      <trkpt lat="43.470027409493923187255859375" lon="1.420743651688098907470703125">
        <ele>154</ele>
        <time>2026-08-05T11:31:39.000Z</time>
        <extensions>
          <ns3:TrackPointExtension>
            <ns3:hr>92</ns3:hr>
            <ns3:cad>49</ns3:cad>
          </ns3:TrackPointExtension>
        </extensions>
      </trkpt>
      <trkpt lat="43.470014669001102447509765625" lon="1.42074490897357463836669921875">
        <ele>154</ele>
        <time>2026-08-05T11:31:40.000Z</time>
        <extensions>
          <ns3:TrackPointExtension>
            <ns3:hr>92</ns3:hr>
            <ns3:cad>49</ns3:cad>
          </ns3:TrackPointExtension>
        </extensions>
      </trkpt>
      <trkpt lat="43.470006287097930908203125" lon="1.42074909992516040802001953125">
        <ele>154</ele>
        <time>2026-08-05T11:31:41.000Z</time>
        <extensions>
          <ns3:TrackPointExtension>
            <ns3:hr>92</ns3:hr>
            <ns3:cad>50</ns3:cad>
          </ns3:TrackPointExtension>
        </extensions>
      </trkpt>
      <trkpt lat="43.46999614499509334564208984375" lon="1.42075563780963420867919921875">
        <ele>154</ele>
        <time>2026-08-05T11:31:42.000Z</time>
        <extensions>
          <ns3:TrackPointExtension>
            <ns3:hr>92</ns3:hr>
            <ns3:cad>50</ns3:cad>
          </ns3:TrackPointExtension>
        </extensions>
      </trkpt>
      <trkpt lat="43.4699829854071140289306640625" lon="1.42076519317924976348876953125">
        <ele>154</ele>
        <time>2026-08-05T11:31:43.000Z</time>
        <extensions>
          <ns3:TrackPointExtension>
            <ns3:hr>92</ns3:hr>
            <ns3:cad>50</ns3:cad>
          </ns3:TrackPointExtension>
        </extensions>
      </trkpt>
      <trkpt lat="43.46997083164751529693603515625" lon="1.42077323980629444122314453125">
        <ele>154</ele>
        <time>2026-08-05T11:31:44.000Z</time>
        <extensions>
          <ns3:TrackPointExtension>
            <ns3:hr>92</ns3:hr>
            <ns3:cad>50</ns3:cad>
          </ns3:TrackPointExtension>
        </extensions>
      </trkpt>
      <trkpt lat="43.46996060572564601898193359375" lon="1.42077407799661159515380859375">
        <ele>154.1999969482421875</ele>
        <time>2026-08-05T11:31:45.000Z</time>
        <extensions>
          <ns3:TrackPointExtension>
            <ns3:hr>92</ns3:hr>
            <ns3:cad>50</ns3:cad>
          </ns3:TrackPointExtension>
        </extensions>
      </trkpt>
      <trkpt lat="43.4699541516602039337158203125" lon="1.420783884823322296142578125">
        <ele>154.1999969482421875</ele>
        <time>2026-08-05T11:31:46.000Z</time>
        <extensions>
          <ns3:TrackPointExtension>
            <ns3:hr>92</ns3:hr>
            <ns3:cad>50</ns3:cad>
          </ns3:TrackPointExtension>
        </extensions>
      </trkpt>
      <trkpt lat="43.46995339728891849517822265625" lon="1.42078497447073459625244140625">
        <ele>154.1999969482421875</ele>
        <time>2026-08-05T11:31:47.000Z</time>
        <extensions>
          <ns3:TrackPointExtension>
            <ns3:hr>92</ns3:hr>
            <ns3:cad>51</ns3:cad>
          </ns3:TrackPointExtension>
        </extensions>
      </trkpt>
      <trkpt lat="43.4699461050331592559814453125" lon="1.420778520405292510986328125">
        <ele>154.1999969482421875</ele>
        <time>2026-08-05T11:31:48.000Z</time>
        <extensions>
          <ns3:TrackPointExtension>
            <ns3:hr>92</ns3:hr>
            <ns3:cad>51</ns3:cad>
          </ns3:TrackPointExtension>
        </extensions>
      </trkpt>
      <trkpt lat="43.46993898041546344757080078125" lon="1.42077617347240447998046875">
        <ele>154.1999969482421875</ele>
        <time>2026-08-05T11:31:49.000Z</time>
        <extensions>
          <ns3:TrackPointExtension>
            <ns3:hr>92</ns3:hr>
            <ns3:cad>0</ns3:cad>
          </ns3:TrackPointExtension>
        </extensions>
      </trkpt>
      <trkpt lat="43.4699347056448459625244140625" lon="1.42078564502298831939697265625">
        <ele>154.1999969482421875</ele>
        <time>2026-08-05T11:31:50.000Z</time>
        <extensions>
          <ns3:TrackPointExtension>
            <ns3:hr>92</ns3:hr>
            <ns3:cad>0</ns3:cad>
          </ns3:TrackPointExtension>
        </extensions>
      </trkpt>
      <trkpt lat="43.46992741338908672332763671875" lon="1.42078899778425693511962890625">
        <ele>154</ele>
        <time>2026-08-05T11:31:51.000Z</time>
        <extensions>
          <ns3:TrackPointExtension>
            <ns3:hr>91</ns3:hr>
            <ns3:cad>0</ns3:cad>
          </ns3:TrackPointExtension>
        </extensions>
      </trkpt>
      <trkpt lat="43.46991769038140773773193359375" lon="1.42079067416489124298095703125">
        <ele>154</ele>
        <time>2026-08-05T11:31:52.000Z</time>
        <extensions>
          <ns3:TrackPointExtension>
            <ns3:hr>92</ns3:hr>
            <ns3:cad>0</ns3:cad>
          </ns3:TrackPointExtension>
        </extensions>
      </trkpt>
      <trkpt lat="43.469910062849521636962890625" lon="1.4207941107451915740966796875">
        <ele>154</ele>
        <time>2026-08-05T11:31:53.000Z</time>
        <extensions>
          <ns3:TrackPointExtension>
            <ns3:hr>92</ns3:hr>
            <ns3:cad>0</ns3:cad>
          </ns3:TrackPointExtension>
        </extensions>
      </trkpt>
      <trkpt lat="43.46990176476538181304931640625" lon="1.4207988046109676361083984375">
        <ele>154</ele>
        <time>2026-08-05T11:31:54.000Z</time>
        <extensions>
          <ns3:TrackPointExtension>
            <ns3:hr>92</ns3:hr>
            <ns3:cad>0</ns3:cad>
          </ns3:TrackPointExtension>
        </extensions>
      </trkpt>
      <trkpt lat="43.46989539451897144317626953125" lon="1.42080224119126796722412109375">
        <ele>154</ele>
        <time>2026-08-05T11:31:55.000Z</time>
        <extensions>
          <ns3:TrackPointExtension>
            <ns3:hr>92</ns3:hr>
            <ns3:cad>0</ns3:cad>
          </ns3:TrackPointExtension>
        </extensions>
      </trkpt>
      <trkpt lat="43.46988382749259471893310546875" lon="1.42080525867640972137451171875">
        <ele>154</ele>
        <time>2026-08-05T11:31:56.000Z</time>
        <extensions>
          <ns3:TrackPointExtension>
            <ns3:hr>91</ns3:hr>
            <ns3:cad>51</ns3:cad>
          </ns3:TrackPointExtension>
        </extensions>
      </trkpt>
      <trkpt lat="43.46987326629459857940673828125" lon="1.42081045545637607574462890625">
        <ele>154</ele>
        <time>2026-08-05T11:31:57.000Z</time>
        <extensions>
          <ns3:TrackPointExtension>
            <ns3:hr>92</ns3:hr>
            <ns3:cad>51</ns3:cad>
          </ns3:TrackPointExtension>
        </extensions>
      </trkpt>
      <trkpt lat="43.46986203454434871673583984375" lon="1.4208157360553741455078125">
        <ele>154</ele>
        <time>2026-08-05T11:31:58.000Z</time>
        <extensions>
          <ns3:TrackPointExtension>
            <ns3:hr>92</ns3:hr>
            <ns3:cad>51</ns3:cad>
          </ns3:TrackPointExtension>
        </extensions>
      </trkpt>
      <trkpt lat="43.469848372042179107666015625" lon="1.42082151956856250762939453125">
        <ele>154</ele>
        <time>2026-08-05T11:31:59.000Z</time>
        <extensions>
          <ns3:TrackPointExtension>
            <ns3:hr>91</ns3:hr>
            <ns3:cad>51</ns3:cad>
          </ns3:TrackPointExtension>
        </extensions>
      </trkpt>
      <trkpt lat="43.4698364697396755218505859375" lon="1.4208273030817508697509765625">
        <ele>154</ele>
        <time>2026-08-05T11:32:00.000Z</time>
        <extensions>
          <ns3:TrackPointExtension>
            <ns3:hr>91</ns3:hr>
            <ns3:cad>51</ns3:cad>
          </ns3:TrackPointExtension>
        </extensions>
      </trkpt>
      <trkpt lat="43.46981526352465152740478515625" lon="1.4208360202610492706298828125">
        <ele>154</ele>
        <time>2026-08-05T11:32:01.000Z</time>
        <extensions>
          <ns3:TrackPointExtension>
            <ns3:hr>91</ns3:hr>
            <ns3:cad>51</ns3:cad>
          </ns3:TrackPointExtension>
        </extensions>
      </trkpt>
      <trkpt lat="43.46980151720345020294189453125" lon="1.4208407141268253326416015625">
        <ele>154</ele>
        <time>2026-08-05T11:32:02.000Z</time>
        <extensions>
          <ns3:TrackPointExtension>
            <ns3:hr>92</ns3:hr>
            <ns3:cad>47</ns3:cad>
          </ns3:TrackPointExtension>
        </extensions>
      </trkpt>
      <trkpt lat="43.46979112364351749420166015625" lon="1.420844234526157379150390625">
        <ele>154</ele>
        <time>2026-08-05T11:32:03.000Z</time>
        <extensions>
          <ns3:TrackPointExtension>
            <ns3:hr>92</ns3:hr>
            <ns3:cad>47</ns3:cad>
          </ns3:TrackPointExtension>
        </extensions>
      </trkpt>
      <trkpt lat="43.46978223882615566253662109375" lon="1.420846246182918548583984375">
        <ele>154</ele>
        <time>2026-08-05T11:32:04.000Z</time>
        <extensions>
          <ns3:TrackPointExtension>
            <ns3:hr>91</ns3:hr>
            <ns3:cad>47</ns3:cad>
          </ns3:TrackPointExtension>
        </extensions>
      </trkpt>
      <trkpt lat="43.4697724319994449615478515625" lon="1.42085152678191661834716796875">
        <ele>154</ele>
        <time>2026-08-05T11:32:05.000Z</time>
        <extensions>
          <ns3:TrackPointExtension>
            <ns3:hr>91</ns3:hr>
            <ns3:cad>48</ns3:cad>
          </ns3:TrackPointExtension>
        </extensions>
      </trkpt>
      <trkpt lat="43.469759188592433929443359375" lon="1.420863009989261627197265625">
        <ele>154</ele>
        <time>2026-08-05T11:32:06.000Z</time>
        <extensions>
          <ns3:TrackPointExtension>
            <ns3:hr>91</ns3:hr>
            <ns3:cad>48</ns3:cad>
          </ns3:TrackPointExtension>
        </extensions>
      </trkpt>
      <trkpt lat="43.4697469510138034820556640625" lon="1.42087030224502086639404296875">
        <ele>154</ele>
        <time>2026-08-05T11:32:07.000Z</time>
        <extensions>
          <ns3:TrackPointExtension>
            <ns3:hr>91</ns3:hr>
            <ns3:cad>48</ns3:cad>
          </ns3:TrackPointExtension>
        </extensions>
      </trkpt>
      <trkpt lat="43.46973563544452190399169921875" lon="1.42087164334952831268310546875">
        <ele>154</ele>
        <time>2026-08-05T11:32:08.000Z</time>
        <extensions>
          <ns3:TrackPointExtension>
            <ns3:hr>91</ns3:hr>
            <ns3:cad>48</ns3:cad>
          </ns3:TrackPointExtension>
        </extensions>
      </trkpt>
      <trkpt lat="43.46972876228392124176025390625" lon="1.42087382264435291290283203125">
        <ele>154</ele>
        <time>2026-08-05T11:32:09.000Z</time>
        <extensions>
          <ns3:TrackPointExtension>
            <ns3:hr>92</ns3:hr>
            <ns3:cad>48</ns3:cad>
          </ns3:TrackPointExtension>
        </extensions>
      </trkpt>
      <trkpt lat="43.4697211347520351409912109375" lon="1.420877762138843536376953125">
        <ele>154</ele>
        <time>2026-08-05T11:32:10.000Z</time>
        <extensions>
          <ns3:TrackPointExtension>
            <ns3:hr>91</ns3:hr>
            <ns3:cad>48</ns3:cad>
          </ns3:TrackPointExtension>
        </extensions>
      </trkpt>
      <trkpt lat="43.4697077237069606781005859375" lon="1.4208816178143024444580078125">
        <ele>154</ele>
        <time>2026-08-05T11:32:11.000Z</time>
        <extensions>
          <ns3:TrackPointExtension>
            <ns3:hr>91</ns3:hr>
            <ns3:cad>48</ns3:cad>
          </ns3:TrackPointExtension>
        </extensions>
      </trkpt>
      <trkpt lat="43.46969716250896453857421875" lon="1.42088773660361766815185546875">
        <ele>154</ele>
        <time>2026-08-05T11:32:12.000Z</time>
        <extensions>
          <ns3:TrackPointExtension>
            <ns3:hr>91</ns3:hr>
            <ns3:cad>48</ns3:cad>
          </ns3:TrackPointExtension>
        </extensions>
      </trkpt>
      <trkpt lat="43.4696857631206512451171875" lon="1.420891173183917999267578125">
        <ele>154</ele>
        <time>2026-08-05T11:32:13.000Z</time>
        <extensions>
          <ns3:TrackPointExtension>
            <ns3:hr>90</ns3:hr>
            <ns3:cad>47</ns3:cad>
          </ns3:TrackPointExtension>
        </extensions>
      </trkpt>
      <trkpt lat="43.469676040112972259521484375" lon="1.42089393921196460723876953125">
        <ele>154</ele>
        <time>2026-08-05T11:32:14.000Z</time>
        <extensions>
          <ns3:TrackPointExtension>
            <ns3:hr>89</ns3:hr>
            <ns3:cad>47</ns3:cad>
          </ns3:TrackPointExtension>
        </extensions>
      </trkpt>
      <trkpt lat="43.469666652381420135498046875" lon="1.42089360393583774566650390625">
        <ele>154</ele>
        <time>2026-08-05T11:32:15.000Z</time>
        <extensions>
          <ns3:TrackPointExtension>
            <ns3:hr>88</ns3:hr>
            <ns3:cad>47</ns3:cad>
          </ns3:TrackPointExtension>
        </extensions>
      </trkpt>
      <trkpt lat="43.46965433098375797271728515625" lon="1.42090064473450183868408203125">
        <ele>154</ele>
        <time>2026-08-05T11:32:16.000Z</time>
        <extensions>
          <ns3:TrackPointExtension>
            <ns3:hr>87</ns3:hr>
            <ns3:cad>48</ns3:cad>
          </ns3:TrackPointExtension>
        </extensions>
      </trkpt>
      <trkpt lat="43.46964217722415924072265625" lon="1.42090718261897563934326171875">
        <ele>154</ele>
        <time>2026-08-05T11:32:17.000Z</time>
        <extensions>
          <ns3:TrackPointExtension>
            <ns3:hr>87</ns3:hr>
            <ns3:cad>48</ns3:cad>
          </ns3:TrackPointExtension>
        </extensions>
      </trkpt>
      <trkpt lat="43.469631783664226531982421875" lon="1.4209094457328319549560546875">
        <ele>154</ele>
        <time>2026-08-05T11:32:18.000Z</time>
        <extensions>
          <ns3:TrackPointExtension>
            <ns3:hr>86</ns3:hr>
            <ns3:cad>49</ns3:cad>
          </ns3:TrackPointExtension>
        </extensions>
      </trkpt>
      <trkpt lat="43.4696222282946109771728515625" lon="1.420909948647022247314453125">
        <ele>154</ele>
        <time>2026-08-05T11:32:19.000Z</time>
        <extensions>
          <ns3:TrackPointExtension>
            <ns3:hr>85</ns3:hr>
            <ns3:cad>49</ns3:cad>
          </ns3:TrackPointExtension>
        </extensions>
      </trkpt>
      <trkpt lat="43.469613008201122283935546875" lon="1.4209114573895931243896484375">
        <ele>154</ele>
        <time>2026-08-05T11:32:20.000Z</time>
        <extensions>
          <ns3:TrackPointExtension>
            <ns3:hr>85</ns3:hr>
            <ns3:cad>48</ns3:cad>
          </ns3:TrackPointExtension>
        </extensions>
      </trkpt>
      <trkpt lat="43.4695987589657306671142578125" lon="1.42091858200728893280029296875">
        <ele>154</ele>
        <time>2026-08-05T11:32:21.000Z</time>
        <extensions>
          <ns3:TrackPointExtension>
            <ns3:hr>85</ns3:hr>
            <ns3:cad>49</ns3:cad>
          </ns3:TrackPointExtension>
        </extensions>
      </trkpt>
      <trkpt lat="43.46958727575838565826416015625" lon="1.4209257066249847412109375">
        <ele>154</ele>
        <time>2026-08-05T11:32:22.000Z</time>
        <extensions>
          <ns3:TrackPointExtension>
            <ns3:hr>85</ns3:hr>
            <ns3:cad>49</ns3:cad>
          </ns3:TrackPointExtension>
        </extensions>
      </trkpt>
      <trkpt lat="43.469574786722660064697265625" lon="1.4209305681288242340087890625">
        <ele>154</ele>
        <time>2026-08-05T11:32:23.000Z</time>
        <extensions>
          <ns3:TrackPointExtension>
            <ns3:hr>86</ns3:hr>
            <ns3:cad>49</ns3:cad>
          </ns3:TrackPointExtension>
        </extensions>
      </trkpt>
      <trkpt lat="43.46956782974302768707275390625" lon="1.42093098722398281097412109375">
        <ele>154</ele>
        <time>2026-08-05T11:32:24.000Z</time>
        <extensions>
          <ns3:TrackPointExtension>
            <ns3:hr>87</ns3:hr>
            <ns3:cad>48</ns3:cad>
          </ns3:TrackPointExtension>
        </extensions>
      </trkpt>
      <trkpt lat="43.46955760382115840911865234375" lon="1.42093316651880741119384765625">
        <ele>154</ele>
        <time>2026-08-05T11:32:25.000Z</time>
        <extensions>
          <ns3:TrackPointExtension>
            <ns3:hr>87</ns3:hr>
            <ns3:cad>47</ns3:cad>
          </ns3:TrackPointExtension>
        </extensions>
      </trkpt>
      <trkpt lat="43.469546623528003692626953125" lon="1.42093584872782230377197265625">
        <ele>154</ele>
        <time>2026-08-05T11:32:26.000Z</time>
        <extensions>
          <ns3:TrackPointExtension>
            <ns3:hr>87</ns3:hr>
            <ns3:cad>47</ns3:cad>
          </ns3:TrackPointExtension>
        </extensions>
      </trkpt>
      <trkpt lat="43.46953480504453182220458984375" lon="1.42094540409743785858154296875">
        <ele>154</ele>
        <time>2026-08-05T11:32:27.000Z</time>
        <extensions>
          <ns3:TrackPointExtension>
            <ns3:hr>87</ns3:hr>
            <ns3:cad>47</ns3:cad>
          </ns3:TrackPointExtension>
        </extensions>
      </trkpt>
      <trkpt lat="43.469523154199123382568359375" lon="1.4209526963531970977783203125">
        <ele>154</ele>
        <time>2026-08-05T11:32:28.000Z</time>
        <extensions>
          <ns3:TrackPointExtension>
            <ns3:hr>88</ns3:hr>
            <ns3:cad>47</ns3:cad>
          </ns3:TrackPointExtension>
        </extensions>
      </trkpt>
      <trkpt lat="43.46951167099177837371826171875" lon="1.42095680348575115203857421875">
        <ele>154</ele>
        <time>2026-08-05T11:32:29.000Z</time>
        <extensions>
          <ns3:TrackPointExtension>
            <ns3:hr>88</ns3:hr>
            <ns3:cad>47</ns3:cad>
          </ns3:TrackPointExtension>
        </extensions>
      </trkpt>
      <trkpt lat="43.4695028699934482574462890625" lon="1.42095613293349742889404296875">
        <ele>154.1999969482421875</ele>
        <time>2026-08-05T11:32:30.000Z</time>
        <extensions>
          <ns3:TrackPointExtension>
            <ns3:hr>89</ns3:hr>
            <ns3:cad>48</ns3:cad>
          </ns3:TrackPointExtension>
        </extensions>
      </trkpt>
      <trkpt lat="43.4694928117096424102783203125" lon="1.4209634251892566680908203125">
        <ele>154.1999969482421875</ele>
        <time>2026-08-05T11:32:31.000Z</time>
        <extensions>
          <ns3:TrackPointExtension>
            <ns3:hr>89</ns3:hr>
            <ns3:cad>49</ns3:cad>
          </ns3:TrackPointExtension>
        </extensions>
      </trkpt>
      <trkpt lat="43.46947780810296535491943359375" lon="1.4209728129208087921142578125">
        <ele>154.1999969482421875</ele>
        <time>2026-08-05T11:32:32.000Z</time>
        <extensions>
          <ns3:TrackPointExtension>
            <ns3:hr>89</ns3:hr>
            <ns3:cad>50</ns3:cad>
          </ns3:TrackPointExtension>
        </extensions>
      </trkpt>
      <trkpt lat="43.46946389414370059967041015625" lon="1.420982368290424346923828125">
        <ele>154.1999969482421875</ele>
        <time>2026-08-05T11:32:33.000Z</time>
        <extensions>
          <ns3:TrackPointExtension>
            <ns3:hr>88</ns3:hr>
            <ns3:cad>50</ns3:cad>
          </ns3:TrackPointExtension>
        </extensions>
      </trkpt>
      <trkpt lat="43.4694509021937847137451171875" lon="1.42098496668040752410888671875">
        <ele>154.1999969482421875</ele>
        <time>2026-08-05T11:32:34.000Z</time>
        <extensions>
          <ns3:TrackPointExtension>
            <ns3:hr>89</ns3:hr>
            <ns3:cad>50</ns3:cad>
          </ns3:TrackPointExtension>
        </extensions>
      </trkpt>
      <trkpt lat="43.46943925134837627410888671875" lon="1.42098580487072467803955078125">
        <ele>154.1999969482421875</ele>
        <time>2026-08-05T11:32:35.000Z</time>
        <extensions>
          <ns3:TrackPointExtension>
            <ns3:hr>89</ns3:hr>
            <ns3:cad>50</ns3:cad>
          </ns3:TrackPointExtension>
        </extensions>
      </trkpt>
      <trkpt lat="43.4694301150739192962646484375" lon="1.42098781652748584747314453125">
        <ele>154.1999969482421875</ele>
        <time>2026-08-05T11:32:36.000Z</time>
        <extensions>
          <ns3:TrackPointExtension>
            <ns3:hr>89</ns3:hr>
            <ns3:cad>49</ns3:cad>
          </ns3:TrackPointExtension>
        </extensions>
      </trkpt>
      <trkpt lat="43.4694175422191619873046875" lon="1.420993767678737640380859375">
        <ele>154.1999969482421875</ele>
        <time>2026-08-05T11:32:37.000Z</time>
        <extensions>
          <ns3:TrackPointExtension>
            <ns3:hr>88</ns3:hr>
            <ns3:cad>49</ns3:cad>
          </ns3:TrackPointExtension>
        </extensions>
      </trkpt>
      <trkpt lat="43.469405472278594970703125" lon="1.4210008084774017333984375">
        <ele>154.1999969482421875</ele>
        <time>2026-08-05T11:32:38.000Z</time>
        <extensions>
          <ns3:TrackPointExtension>
            <ns3:hr>89</ns3:hr>
            <ns3:cad>49</ns3:cad>
          </ns3:TrackPointExtension>
        </extensions>
      </trkpt>
      <trkpt lat="43.4693945758044719696044921875" lon="1.42100508324801921844482421875">
        <ele>154.1999969482421875</ele>
        <time>2026-08-05T11:32:39.000Z</time>
        <extensions>
          <ns3:TrackPointExtension>
            <ns3:hr>89</ns3:hr>
            <ns3:cad>49</ns3:cad>
          </ns3:TrackPointExtension>
        </extensions>
      </trkpt>
      <trkpt lat="43.46938359551131725311279296875" lon="1.4210070110857486724853515625">
        <ele>154.1999969482421875</ele>
        <time>2026-08-05T11:32:40.000Z</time>
        <extensions>
          <ns3:TrackPointExtension>
            <ns3:hr>89</ns3:hr>
            <ns3:cad>50</ns3:cad>
          </ns3:TrackPointExtension>
        </extensions>
      </trkpt>
      <trkpt lat="43.46937638707458972930908203125" lon="1.42100592143833637237548828125">
        <ele>154.1999969482421875</ele>
        <time>2026-08-05T11:32:41.000Z</time>
        <extensions>
          <ns3:TrackPointExtension>
            <ns3:hr>89</ns3:hr>
            <ns3:cad>50</ns3:cad>
          </ns3:TrackPointExtension>
        </extensions>
      </trkpt>
      <trkpt lat="43.46936834044754505157470703125" lon="1.42100977711379528045654296875">
        <ele>154.1999969482421875</ele>
        <time>2026-08-05T11:32:42.000Z</time>
        <extensions>
          <ns3:TrackPointExtension>
            <ns3:hr>89</ns3:hr>
            <ns3:cad>50</ns3:cad>
          </ns3:TrackPointExtension>
        </extensions>
      </trkpt>
      <trkpt lat="43.46935476176440715789794921875" lon="1.4210163988173007965087890625">
        <ele>154.1999969482421875</ele>
        <time>2026-08-05T11:32:43.000Z</time>
        <extensions>
          <ns3:TrackPointExtension>
            <ns3:hr>89</ns3:hr>
            <ns3:cad>50</ns3:cad>
          </ns3:TrackPointExtension>
        </extensions>
      </trkpt>
      <trkpt lat="43.4693426080048084259033203125" lon="1.4210237748920917510986328125">
        <ele>154.1999969482421875</ele>
        <time>2026-08-05T11:32:44.000Z</time>
        <extensions>
          <ns3:TrackPointExtension>
            <ns3:hr>89</ns3:hr>
            <ns3:cad>49</ns3:cad>
          </ns3:TrackPointExtension>
        </extensions>
      </trkpt>
      <trkpt lat="43.469330370426177978515625" lon="1.42102922312915325164794921875">
        <ele>154.1999969482421875</ele>
        <time>2026-08-05T11:32:45.000Z</time>
        <extensions>
          <ns3:TrackPointExtension>
            <ns3:hr>89</ns3:hr>
            <ns3:cad>49</ns3:cad>
          </ns3:TrackPointExtension>
        </extensions>
      </trkpt>
      <trkpt lat="43.4693184681236743927001953125" lon="1.4210321567952632904052734375">
        <ele>154</ele>
        <time>2026-08-05T11:32:46.000Z</time>
        <extensions>
          <ns3:TrackPointExtension>
            <ns3:hr>88</ns3:hr>
            <ns3:cad>49</ns3:cad>
          </ns3:TrackPointExtension>
        </extensions>
      </trkpt>
      <trkpt lat="43.4693053923547267913818359375" lon="1.421023942530155181884765625">
        <ele>154</ele>
        <time>2026-08-05T11:32:47.000Z</time>
        <extensions>
          <ns3:TrackPointExtension>
            <ns3:hr>89</ns3:hr>
            <ns3:cad>49</ns3:cad>
          </ns3:TrackPointExtension>
        </extensions>
      </trkpt>
      <trkpt lat="43.46929759718477725982666015625" lon="1.42102939076721668243408203125">
        <ele>154</ele>
        <time>2026-08-05T11:32:48.000Z</time>
        <extensions>
          <ns3:TrackPointExtension>
            <ns3:hr>89</ns3:hr>
            <ns3:cad>50</ns3:cad>
          </ns3:TrackPointExtension>
        </extensions>
      </trkpt>
      <trkpt lat="43.46928569488227367401123046875" lon="1.421036683022975921630859375">
        <ele>154</ele>
        <time>2026-08-05T11:32:49.000Z</time>
        <extensions>
          <ns3:TrackPointExtension>
            <ns3:hr>88</ns3:hr>
            <ns3:cad>50</ns3:cad>
          </ns3:TrackPointExtension>
        </extensions>
      </trkpt>
      <trkpt lat="43.46927337348461151123046875" lon="1.4210437238216400146484375">
        <ele>154</ele>
        <time>2026-08-05T11:32:50.000Z</time>
        <extensions>
          <ns3:TrackPointExtension>
            <ns3:hr>88</ns3:hr>
            <ns3:cad>49</ns3:cad>
          </ns3:TrackPointExtension>
        </extensions>
      </trkpt>
      <trkpt lat="43.46926239319145679473876953125" lon="1.42105084843933582305908203125">
        <ele>154</ele>
        <time>2026-08-05T11:32:51.000Z</time>
        <extensions>
          <ns3:TrackPointExtension>
            <ns3:hr>88</ns3:hr>
            <ns3:cad>49</ns3:cad>
          </ns3:TrackPointExtension>
        </extensions>
      </trkpt>
      <trkpt lat="43.469248898327350616455078125" lon="1.42105378210544586181640625">
        <ele>154</ele>
        <time>2026-08-05T11:32:52.000Z</time>
        <extensions>
          <ns3:TrackPointExtension>
            <ns3:hr>88</ns3:hr>
            <ns3:cad>48</ns3:cad>
          </ns3:TrackPointExtension>
        </extensions>
      </trkpt>
      <trkpt lat="43.46924060024321079254150390625" lon="1.42105235718190670013427734375">
        <ele>154</ele>
        <time>2026-08-05T11:32:53.000Z</time>
        <extensions>
          <ns3:TrackPointExtension>
            <ns3:hr>89</ns3:hr>
            <ns3:cad>48</ns3:cad>
          </ns3:TrackPointExtension>
        </extensions>
      </trkpt>
      <trkpt lat="43.46922886557877063751220703125" lon="1.421054117381572723388671875">
        <ele>154</ele>
        <time>2026-08-05T11:32:54.000Z</time>
        <extensions>
          <ns3:TrackPointExtension>
            <ns3:hr>88</ns3:hr>
            <ns3:cad>51</ns3:cad>
          </ns3:TrackPointExtension>
        </extensions>
      </trkpt>
      <trkpt lat="43.46921478398144245147705078125" lon="1.42105738632380962371826171875">
        <ele>154</ele>
        <time>2026-08-05T11:32:55.000Z</time>
        <extensions>
          <ns3:TrackPointExtension>
            <ns3:hr>88</ns3:hr>
            <ns3:cad>51</ns3:cad>
          </ns3:TrackPointExtension>
        </extensions>
      </trkpt>
      <trkpt lat="43.469201959669589996337890625" lon="1.421062164008617401123046875">
        <ele>154</ele>
        <time>2026-08-05T11:32:56.000Z</time>
        <extensions>
          <ns3:TrackPointExtension>
            <ns3:hr>89</ns3:hr>
            <ns3:cad>51</ns3:cad>
          </ns3:TrackPointExtension>
        </extensions>
      </trkpt>
      <trkpt lat="43.469190560281276702880859375" lon="1.42106208018958568572998046875">
        <ele>154</ele>
        <time>2026-08-05T11:32:57.000Z</time>
        <extensions>
          <ns3:TrackPointExtension>
            <ns3:hr>89</ns3:hr>
            <ns3:cad>51</ns3:cad>
          </ns3:TrackPointExtension>
        </extensions>
      </trkpt>
      <trkpt lat="43.4691830165684223175048828125" lon="1.42106040380895137786865234375">
        <ele>154</ele>
        <time>2026-08-05T11:32:58.000Z</time>
        <extensions>
          <ns3:TrackPointExtension>
            <ns3:hr>89</ns3:hr>
            <ns3:cad>51</ns3:cad>
          </ns3:TrackPointExtension>
        </extensions>
      </trkpt>
      <trkpt lat="43.469177149236202239990234375" lon="1.421061493456363677978515625">
        <ele>154</ele>
        <time>2026-08-05T11:32:59.000Z</time>
        <extensions>
          <ns3:TrackPointExtension>
            <ns3:hr>89</ns3:hr>
            <ns3:cad>51</ns3:cad>
          </ns3:TrackPointExtension>
        </extensions>
      </trkpt>
      <trkpt lat="43.46916549839079380035400390625" lon="1.42106316983699798583984375">
        <ele>154</ele>
        <time>2026-08-05T11:33:00.000Z</time>
        <extensions>
          <ns3:TrackPointExtension>
            <ns3:hr>88</ns3:hr>
            <ns3:cad>50</ns3:cad>
          </ns3:TrackPointExtension>
        </extensions>
      </trkpt>
      <trkpt lat="43.4691525064408779144287109375" lon="1.42106928862631320953369140625">
        <ele>154</ele>
        <time>2026-08-05T11:33:01.000Z</time>
        <extensions>
          <ns3:TrackPointExtension>
            <ns3:hr>89</ns3:hr>
            <ns3:cad>49</ns3:cad>
          </ns3:TrackPointExtension>
        </extensions>
      </trkpt>
      <trkpt lat="43.46914085559546947479248046875" lon="1.4210744015872478485107421875">
        <ele>154</ele>
        <time>2026-08-05T11:33:02.000Z</time>
        <extensions>
          <ns3:TrackPointExtension>
            <ns3:hr>89</ns3:hr>
            <ns3:cad>49</ns3:cad>
          </ns3:TrackPointExtension>
        </extensions>
      </trkpt>
      <trkpt lat="43.46913314424455165863037109375" lon="1.42107582651078701019287109375">
        <ele>154.1999969482421875</ele>
        <time>2026-08-05T11:33:03.000Z</time>
        <extensions>
          <ns3:TrackPointExtension>
            <ns3:hr>89</ns3:hr>
            <ns3:cad>48</ns3:cad>
          </ns3:TrackPointExtension>
        </extensions>
      </trkpt>
      <trkpt lat="43.46911889500916004180908203125" lon="1.421071551740169525146484375">
        <ele>154.1999969482421875</ele>
        <time>2026-08-05T11:33:04.000Z</time>
        <extensions>
          <ns3:TrackPointExtension>
            <ns3:hr>89</ns3:hr>
            <ns3:cad>48</ns3:cad>
          </ns3:TrackPointExtension>
        </extensions>
      </trkpt>
      <trkpt lat="43.46910632215440273284912109375" lon="1.4210733957588672637939453125">
        <ele>154.1999969482421875</ele>
        <time>2026-08-05T11:33:05.000Z</time>
        <extensions>
          <ns3:TrackPointExtension>
            <ns3:hr>90</ns3:hr>
            <ns3:cad>48</ns3:cad>
          </ns3:TrackPointExtension>
        </extensions>
      </trkpt>
      <trkpt lat="43.469096682965755462646484375" lon="1.42107800580561161041259765625">
        <ele>154.1999969482421875</ele>
        <time>2026-08-05T11:33:06.000Z</time>
        <extensions>
          <ns3:TrackPointExtension>
            <ns3:hr>90</ns3:hr>
            <ns3:cad>48</ns3:cad>
          </ns3:TrackPointExtension>
        </extensions>
      </trkpt>
      <trkpt lat="43.4690820984542369842529296875" lon="1.4210837893187999725341796875">
        <ele>154.1999969482421875</ele>
        <time>2026-08-05T11:33:07.000Z</time>
        <extensions>
          <ns3:TrackPointExtension>
            <ns3:hr>90</ns3:hr>
            <ns3:cad>48</ns3:cad>
          </ns3:TrackPointExtension>
        </extensions>
      </trkpt>
      <trkpt lat="43.4690700285136699676513671875" lon="1.42108554951846599578857421875">
        <ele>154.1999969482421875</ele>
        <time>2026-08-05T11:33:08.000Z</time>
        <extensions>
          <ns3:TrackPointExtension>
            <ns3:hr>90</ns3:hr>
            <ns3:cad>48</ns3:cad>
          </ns3:TrackPointExtension>
        </extensions>
      </trkpt>
      <trkpt lat="43.46905921585857868194580078125" lon="1.42108353786170482635498046875">
        <ele>154.1999969482421875</ele>
        <time>2026-08-05T11:33:09.000Z</time>
        <extensions>
          <ns3:TrackPointExtension>
            <ns3:hr>90</ns3:hr>
            <ns3:cad>48</ns3:cad>
          </ns3:TrackPointExtension>
        </extensions>
      </trkpt>
      <trkpt lat="43.4690479002892971038818359375" lon="1.42108521424233913421630859375">
        <ele>154.1999969482421875</ele>
        <time>2026-08-05T11:33:10.000Z</time>
        <extensions>
          <ns3:TrackPointExtension>
            <ns3:hr>90</ns3:hr>
            <ns3:cad>48</ns3:cad>
          </ns3:TrackPointExtension>
        </extensions>
      </trkpt>
      <trkpt lat="43.46903809346258640289306640625" lon="1.421090662479400634765625">
        <ele>154.1999969482421875</ele>
        <time>2026-08-05T11:33:11.000Z</time>
        <extensions>
          <ns3:TrackPointExtension>
            <ns3:hr>90</ns3:hr>
            <ns3:cad>48</ns3:cad>
          </ns3:TrackPointExtension>
        </extensions>
      </trkpt>
      <trkpt lat="43.469022922217845916748046875" lon="1.42109401524066925048828125">
        <ele>154.399993896484375</ele>
        <time>2026-08-05T11:33:12.000Z</time>
        <extensions>
          <ns3:TrackPointExtension>
            <ns3:hr>90</ns3:hr>
            <ns3:cad>48</ns3:cad>
          </ns3:TrackPointExtension>
        </extensions>
      </trkpt>
      <trkpt lat="43.469010181725025177001953125" lon="1.42109669744968414306640625">
        <ele>154.399993896484375</ele>
        <time>2026-08-05T11:33:13.000Z</time>
        <extensions>
          <ns3:TrackPointExtension>
            <ns3:hr>90</ns3:hr>
            <ns3:cad>48</ns3:cad>
          </ns3:TrackPointExtension>
        </extensions>
      </trkpt>
      <trkpt lat="43.4689966030418872833251953125" lon="1.4210998825728893280029296875">
        <ele>154.399993896484375</ele>
        <time>2026-08-05T11:33:14.000Z</time>
        <extensions>
          <ns3:TrackPointExtension>
            <ns3:hr>90</ns3:hr>
            <ns3:cad>48</ns3:cad>
          </ns3:TrackPointExtension>
        </extensions>
      </trkpt>
      <trkpt lat="43.46898579038679599761962890625" lon="1.421101056039333343505859375">
        <ele>154.399993896484375</ele>
        <time>2026-08-05T11:33:15.000Z</time>
        <extensions>
          <ns3:TrackPointExtension>
            <ns3:hr>90</ns3:hr>
            <ns3:cad>50</ns3:cad>
          </ns3:TrackPointExtension>
        </extensions>
      </trkpt>
      <trkpt lat="43.4689778275787830352783203125" lon="1.421101056039333343505859375">
        <ele>154.399993896484375</ele>
        <time>2026-08-05T11:33:16.000Z</time>
        <extensions>
          <ns3:TrackPointExtension>
            <ns3:hr>91</ns3:hr>
            <ns3:cad>50</ns3:cad>
          </ns3:TrackPointExtension>
        </extensions>
      </trkpt>
      <trkpt lat="43.4689637459814548492431640625" lon="1.421106420457363128662109375">
        <ele>154.399993896484375</ele>
        <time>2026-08-05T11:33:17.000Z</time>
        <extensions>
          <ns3:TrackPointExtension>
            <ns3:hr>93</ns3:hr>
            <ns3:cad>50</ns3:cad>
          </ns3:TrackPointExtension>
        </extensions>
      </trkpt>
      <trkpt lat="43.468948490917682647705078125" lon="1.42110751010477542877197265625">
        <ele>154.399993896484375</ele>
        <time>2026-08-05T11:33:18.000Z</time>
        <extensions>
          <ns3:TrackPointExtension>
            <ns3:hr>95</ns3:hr>
            <ns3:cad>50</ns3:cad>
          </ns3:TrackPointExtension>
        </extensions>
      </trkpt>
      <trkpt lat="43.46893717534840106964111328125" lon="1.421106755733489990234375">
        <ele>154.399993896484375</ele>
        <time>2026-08-05T11:33:19.000Z</time>
        <extensions>
          <ns3:TrackPointExtension>
            <ns3:hr>95</ns3:hr>
            <ns3:cad>50</ns3:cad>
          </ns3:TrackPointExtension>
        </extensions>
      </trkpt>
      <trkpt lat="43.46892761997878551483154296875" lon="1.42110600136220455169677734375">
        <ele>154.399993896484375</ele>
        <time>2026-08-05T11:33:20.000Z</time>
        <extensions>
          <ns3:TrackPointExtension>
            <ns3:hr>95</ns3:hr>
            <ns3:cad>48</ns3:cad>
          </ns3:TrackPointExtension>
        </extensions>
      </trkpt>
      <trkpt lat="43.46892074681818485260009765625" lon="1.4211029000580310821533203125">
        <ele>154.399993896484375</ele>
        <time>2026-08-05T11:33:21.000Z</time>
        <extensions>
          <ns3:TrackPointExtension>
            <ns3:hr>94</ns3:hr>
            <ns3:cad>48</ns3:cad>
          </ns3:TrackPointExtension>
        </extensions>
      </trkpt>
      <trkpt lat="43.46890867687761783599853515625" lon="1.42110801301896572113037109375">
        <ele>154.399993896484375</ele>
        <time>2026-08-05T11:33:22.000Z</time>
        <extensions>
          <ns3:TrackPointExtension>
            <ns3:hr>94</ns3:hr>
            <ns3:cad>48</ns3:cad>
          </ns3:TrackPointExtension>
        </extensions>
      </trkpt>
      <trkpt lat="43.46889258362352848052978515625" lon="1.42110985703766345977783203125">
        <ele>154.399993896484375</ele>
        <time>2026-08-05T11:33:23.000Z</time>
        <extensions>
          <ns3:TrackPointExtension>
            <ns3:hr>94</ns3:hr>
            <ns3:cad>49</ns3:cad>
          </ns3:TrackPointExtension>
        </extensions>
      </trkpt>
      <trkpt lat="43.468875400722026824951171875" lon="1.421110443770885467529296875">
        <ele>154.399993896484375</ele>
        <time>2026-08-05T11:33:24.000Z</time>
        <extensions>
          <ns3:TrackPointExtension>
            <ns3:hr>93</ns3:hr>
            <ns3:cad>49</ns3:cad>
          </ns3:TrackPointExtension>
        </extensions>
      </trkpt>
      <trkpt lat="43.4688650071620941162109375" lon="1.4211072586476802825927734375">
        <ele>154.600006103515625</ele>
        <time>2026-08-05T11:33:25.000Z</time>
        <extensions>
          <ns3:TrackPointExtension>
            <ns3:hr>93</ns3:hr>
            <ns3:cad>49</ns3:cad>
          </ns3:TrackPointExtension>
        </extensions>
      </trkpt>
      <trkpt lat="43.46885888837277889251708984375" lon="1.4211027324199676513671875">
        <ele>154.600006103515625</ele>
        <time>2026-08-05T11:33:26.000Z</time>
        <extensions>
          <ns3:TrackPointExtension>
            <ns3:hr>93</ns3:hr>
            <ns3:cad>49</ns3:cad>
          </ns3:TrackPointExtension>
        </extensions>
      </trkpt>
      <trkpt lat="43.46884983591735363006591796875" lon="1.4211049117147922515869140625">
        <ele>154.600006103515625</ele>
        <time>2026-08-05T11:33:27.000Z</time>
        <extensions>
          <ns3:TrackPointExtension>
            <ns3:hr>93</ns3:hr>
            <ns3:cad>50</ns3:cad>
          </ns3:TrackPointExtension>
        </extensions>
      </trkpt>
      <trkpt lat="43.468833826482295989990234375" lon="1.42110834829509258270263671875">
        <ele>154.600006103515625</ele>
        <time>2026-08-05T11:33:28.000Z</time>
        <extensions>
          <ns3:TrackPointExtension>
            <ns3:hr>92</ns3:hr>
            <ns3:cad>50</ns3:cad>
          </ns3:TrackPointExtension>
        </extensions>
      </trkpt>
      <trkpt lat="43.46882276237010955810546875" lon="1.42110968939960002899169921875">
        <ele>154.600006103515625</ele>
        <time>2026-08-05T11:33:29.000Z</time>
        <extensions>
          <ns3:TrackPointExtension>
            <ns3:hr>93</ns3:hr>
            <ns3:cad>49</ns3:cad>
          </ns3:TrackPointExtension>
        </extensions>
      </trkpt>
      <trkpt lat="43.4688135422766208648681640625" lon="1.42111035995185375213623046875">
        <ele>154.600006103515625</ele>
        <time>2026-08-05T11:33:30.000Z</time>
        <extensions>
          <ns3:TrackPointExtension>
            <ns3:hr>93</ns3:hr>
            <ns3:cad>47</ns3:cad>
          </ns3:TrackPointExtension>
        </extensions>
      </trkpt>
      <trkpt lat="43.4688054956495761871337890625" lon="1.4211096055805683135986328125">
        <ele>154.8000030517578125</ele>
        <time>2026-08-05T11:33:31.000Z</time>
        <extensions>
          <ns3:TrackPointExtension>
            <ns3:hr>94</ns3:hr>
            <ns3:cad>47</ns3:cad>
          </ns3:TrackPointExtension>
        </extensions>
      </trkpt>
      <trkpt lat="43.4687981195747852325439453125" lon="1.4211085997521877288818359375">
        <ele>154.8000030517578125</ele>
        <time>2026-08-05T11:33:32.000Z</time>
        <extensions>
          <ns3:TrackPointExtension>
            <ns3:hr>94</ns3:hr>
            <ns3:cad>47</ns3:cad>
          </ns3:TrackPointExtension>
        </extensions>
      </trkpt>
      <trkpt lat="43.4687853790819644927978515625" lon="1.4211085997521877288818359375">
        <ele>154.600006103515625</ele>
        <time>2026-08-05T11:33:33.000Z</time>
        <extensions>
          <ns3:TrackPointExtension>
            <ns3:hr>94</ns3:hr>
            <ns3:cad>48</ns3:cad>
          </ns3:TrackPointExtension>
        </extensions>
      </trkpt>
      <trkpt lat="43.46877180039882659912109375" lon="1.4211055822670459747314453125">
        <ele>154.600006103515625</ele>
        <time>2026-08-05T11:33:34.000Z</time>
        <extensions>
          <ns3:TrackPointExtension>
            <ns3:hr>94</ns3:hr>
            <ns3:cad>49</ns3:cad>
          </ns3:TrackPointExtension>
        </extensions>
      </trkpt>
      <trkpt lat="43.46876065246760845184326171875" lon="1.421106420457363128662109375">
        <ele>154.600006103515625</ele>
        <time>2026-08-05T11:33:35.000Z</time>
        <extensions>
          <ns3:TrackPointExtension>
            <ns3:hr>94</ns3:hr>
            <ns3:cad>49</ns3:cad>
          </ns3:TrackPointExtension>
        </extensions>
      </trkpt>
      <trkpt lat="43.46875327639281749725341796875" lon="1.4211065880954265594482421875">
        <ele>154.8000030517578125</ele>
        <time>2026-08-05T11:33:36.000Z</time>
        <extensions>
          <ns3:TrackPointExtension>
            <ns3:hr>94</ns3:hr>
            <ns3:cad>48</ns3:cad>
          </ns3:TrackPointExtension>
        </extensions>
      </trkpt>
      <trkpt lat="43.46874036826193332672119140625" lon="1.42110667191445827484130859375">
        <ele>154.8000030517578125</ele>
        <time>2026-08-05T11:33:37.000Z</time>
        <extensions>
          <ns3:TrackPointExtension>
            <ns3:hr>94</ns3:hr>
            <ns3:cad>48</ns3:cad>
          </ns3:TrackPointExtension>
        </extensions>
      </trkpt>
      <trkpt lat="43.46872578375041484832763671875" lon="1.421105079352855682373046875">
        <ele>154.8000030517578125</ele>
        <time>2026-08-05T11:33:38.000Z</time>
        <extensions>
          <ns3:TrackPointExtension>
            <ns3:hr>94</ns3:hr>
            <ns3:cad>48</ns3:cad>
          </ns3:TrackPointExtension>
        </extensions>
      </trkpt>
      <trkpt lat="43.46871254034340381622314453125" lon="1.42110985703766345977783203125">
        <ele>154.8000030517578125</ele>
        <time>2026-08-05T11:33:39.000Z</time>
        <extensions>
          <ns3:TrackPointExtension>
            <ns3:hr>95</ns3:hr>
            <ns3:cad>48</ns3:cad>
          </ns3:TrackPointExtension>
        </extensions>
      </trkpt>
      <trkpt lat="43.468703739345073699951171875" lon="1.4211122877895832061767578125">
        <ele>154.600006103515625</ele>
        <time>2026-08-05T11:33:40.000Z</time>
        <extensions>
          <ns3:TrackPointExtension>
            <ns3:hr>95</ns3:hr>
            <ns3:cad>48</ns3:cad>
          </ns3:TrackPointExtension>
        </extensions>
      </trkpt>
      <trkpt lat="43.46869577653706073760986328125" lon="1.42111069522798061370849609375">
        <ele>154.600006103515625</ele>
        <time>2026-08-05T11:33:41.000Z</time>
        <extensions>
          <ns3:TrackPointExtension>
            <ns3:hr>95</ns3:hr>
            <ns3:cad>0</ns3:cad>
          </ns3:TrackPointExtension>
        </extensions>
      </trkpt>
      <trkpt lat="43.46868756227195262908935546875" lon="1.421105749905109405517578125">
        <ele>154.600006103515625</ele>
        <time>2026-08-05T11:33:42.000Z</time>
        <extensions>
          <ns3:TrackPointExtension>
            <ns3:hr>95</ns3:hr>
            <ns3:cad>44</ns3:cad>
          </ns3:TrackPointExtension>
        </extensions>
      </trkpt>
      <trkpt lat="43.4686713851988315582275390625" lon="1.42110248096287250518798828125">
        <ele>154.600006103515625</ele>
        <time>2026-08-05T11:33:43.000Z</time>
        <extensions>
          <ns3:TrackPointExtension>
            <ns3:hr>94</ns3:hr>
            <ns3:cad>44</ns3:cad>
          </ns3:TrackPointExtension>
        </extensions>
      </trkpt>
      <trkpt lat="43.46865671686828136444091796875" lon="1.42110365442931652069091796875">
        <ele>154.600006103515625</ele>
        <time>2026-08-05T11:33:44.000Z</time>
        <extensions>
          <ns3:TrackPointExtension>
            <ns3:hr>95</ns3:hr>
            <ns3:cad>44</ns3:cad>
          </ns3:TrackPointExtension>
        </extensions>
      </trkpt>
      <trkpt lat="43.4686455689370632171630859375" lon="1.42110516317188739776611328125">
        <ele>154.600006103515625</ele>
        <time>2026-08-05T11:33:45.000Z</time>
        <extensions>
          <ns3:TrackPointExtension>
            <ns3:hr>95</ns3:hr>
            <ns3:cad>44</ns3:cad>
          </ns3:TrackPointExtension>
        </extensions>
      </trkpt>
      <trkpt lat="43.46863794140517711639404296875" lon="1.4211049117147922515869140625">
        <ele>154.600006103515625</ele>
        <time>2026-08-05T11:33:46.000Z</time>
        <extensions>
          <ns3:TrackPointExtension>
            <ns3:hr>95</ns3:hr>
            <ns3:cad>48</ns3:cad>
          </ns3:TrackPointExtension>
        </extensions>
      </trkpt>
      <trkpt lat="43.46863090060651302337646484375" lon="1.42110499553382396697998046875">
        <ele>154.600006103515625</ele>
        <time>2026-08-05T11:33:47.000Z</time>
        <extensions>
          <ns3:TrackPointExtension>
            <ns3:hr>95</ns3:hr>
            <ns3:cad>49</ns3:cad>
          </ns3:TrackPointExtension>
        </extensions>
      </trkpt>
      <trkpt lat="43.4686170704662799835205078125" lon="1.4211075939238071441650390625">
        <ele>154.600006103515625</ele>
        <time>2026-08-05T11:33:48.000Z</time>
        <extensions>
          <ns3:TrackPointExtension>
            <ns3:hr>95</ns3:hr>
            <ns3:cad>49</ns3:cad>
          </ns3:TrackPointExtension>
        </extensions>
      </trkpt>
      <trkpt lat="43.46860173158347606658935546875" lon="1.42110885120928287506103515625">
        <ele>154.600006103515625</ele>
        <time>2026-08-05T11:33:49.000Z</time>
        <extensions>
          <ns3:TrackPointExtension>
            <ns3:hr>96</ns3:hr>
            <ns3:cad>49</ns3:cad>
          </ns3:TrackPointExtension>
        </extensions>
      </trkpt>
      <trkpt lat="43.4685892425477504730224609375" lon="1.4211069233715534210205078125">
        <ele>154.600006103515625</ele>
        <time>2026-08-05T11:33:50.000Z</time>
        <extensions>
          <ns3:TrackPointExtension>
            <ns3:hr>95</ns3:hr>
            <ns3:cad>48</ns3:cad>
          </ns3:TrackPointExtension>
        </extensions>
      </trkpt>
      <trkpt lat="43.4685791842639446258544921875" lon="1.4211049117147922515869140625">
        <ele>154.600006103515625</ele>
        <time>2026-08-05T11:33:51.000Z</time>
        <extensions>
          <ns3:TrackPointExtension>
            <ns3:hr>95</ns3:hr>
            <ns3:cad>47</ns3:cad>
          </ns3:TrackPointExtension>
        </extensions>
      </trkpt>
      <trkpt lat="43.46856988035142421722412109375" lon="1.4211035706102848052978515625">
        <ele>154.600006103515625</ele>
        <time>2026-08-05T11:33:52.000Z</time>
        <extensions>
          <ns3:TrackPointExtension>
            <ns3:hr>95</ns3:hr>
            <ns3:cad>47</ns3:cad>
          </ns3:TrackPointExtension>
        </extensions>
      </trkpt>
      <trkpt lat="43.46855764277279376983642578125" lon="1.42110474407672882080078125">
        <ele>154.600006103515625</ele>
        <time>2026-08-05T11:33:53.000Z</time>
        <extensions>
          <ns3:TrackPointExtension>
            <ns3:hr>95</ns3:hr>
            <ns3:cad>48</ns3:cad>
          </ns3:TrackPointExtension>
        </extensions>
      </trkpt>
      <trkpt lat="43.46854691393673419952392578125" lon="1.4211102761328220367431640625">
        <ele>154.600006103515625</ele>
        <time>2026-08-05T11:33:54.000Z</time>
        <extensions>
          <ns3:TrackPointExtension>
            <ns3:hr>95</ns3:hr>
            <ns3:cad>48</ns3:cad>
          </ns3:TrackPointExtension>
        </extensions>
      </trkpt>
      <trkpt lat="43.46853702329099178314208984375" lon="1.42111220397055149078369140625">
        <ele>154.8000030517578125</ele>
        <time>2026-08-05T11:33:55.000Z</time>
        <extensions>
          <ns3:TrackPointExtension>
            <ns3:hr>95</ns3:hr>
            <ns3:cad>49</ns3:cad>
          </ns3:TrackPointExtension>
        </extensions>
      </trkpt>
      <trkpt lat="43.4685285575687885284423828125" lon="1.4211080968379974365234375">
        <ele>154.8000030517578125</ele>
        <time>2026-08-05T11:33:56.000Z</time>
        <extensions>
          <ns3:TrackPointExtension>
            <ns3:hr>95</ns3:hr>
            <ns3:cad>49</ns3:cad>
          </ns3:TrackPointExtension>
        </extensions>
      </trkpt>
      <trkpt lat="43.46852076239883899688720703125" lon="1.4211062528192996978759765625">
        <ele>154.600006103515625</ele>
        <time>2026-08-05T11:33:57.000Z</time>
        <extensions>
          <ns3:TrackPointExtension>
            <ns3:hr>95</ns3:hr>
            <ns3:cad>49</ns3:cad>
          </ns3:TrackPointExtension>
        </extensions>
      </trkpt>
      <trkpt lat="43.468509949743747711181640625" lon="1.42110549844801425933837890625">
        <ele>154.600006103515625</ele>
        <time>2026-08-05T11:33:58.000Z</time>
        <extensions>
          <ns3:TrackPointExtension>
            <ns3:hr>94</ns3:hr>
            <ns3:cad>49</ns3:cad>
          </ns3:TrackPointExtension>
        </extensions>
      </trkpt>
      <trkpt lat="43.468494527041912078857421875" lon="1.4211072586476802825927734375">
        <ele>154.600006103515625</ele>
        <time>2026-08-05T11:33:59.000Z</time>
        <extensions>
          <ns3:TrackPointExtension>
            <ns3:hr>93</ns3:hr>
            <ns3:cad>48</ns3:cad>
          </ns3:TrackPointExtension>
        </extensions>
      </trkpt>
      <trkpt lat="43.468481786549091339111328125" lon="1.42111069522798061370849609375">
        <ele>154.600006103515625</ele>
        <time>2026-08-05T11:34:00.000Z</time>
        <extensions>
          <ns3:TrackPointExtension>
            <ns3:hr>92</ns3:hr>
            <ns3:cad>48</ns3:cad>
          </ns3:TrackPointExtension>
        </extensions>
      </trkpt>
      <trkpt lat="43.4684705547988414764404296875" lon="1.42110876739025115966796875">
        <ele>154.600006103515625</ele>
        <time>2026-08-05T11:34:01.000Z</time>
        <extensions>
          <ns3:TrackPointExtension>
            <ns3:hr>92</ns3:hr>
            <ns3:cad>48</ns3:cad>
          </ns3:TrackPointExtension>
        </extensions>
      </trkpt>
      <trkpt lat="43.46846242435276508331298828125" lon="1.42110340297222137451171875">
        <ele>154.600006103515625</ele>
        <time>2026-08-05T11:34:02.000Z</time>
        <extensions>
          <ns3:TrackPointExtension>
            <ns3:hr>92</ns3:hr>
            <ns3:cad>48</ns3:cad>
          </ns3:TrackPointExtension>
        </extensions>
      </trkpt>
      <trkpt lat="43.46845270134508609771728515625" lon="1.4211035706102848052978515625">
        <ele>154.600006103515625</ele>
        <time>2026-08-05T11:34:03.000Z</time>
        <extensions>
          <ns3:TrackPointExtension>
            <ns3:hr>91</ns3:hr>
            <ns3:cad>48</ns3:cad>
          </ns3:TrackPointExtension>
        </extensions>
      </trkpt>
      <trkpt lat="43.46843794919550418853759765625" lon="1.42110499553382396697998046875">
        <ele>154.600006103515625</ele>
        <time>2026-08-05T11:34:04.000Z</time>
        <extensions>
          <ns3:TrackPointExtension>
            <ns3:hr>92</ns3:hr>
            <ns3:cad>48</ns3:cad>
          </ns3:TrackPointExtension>
        </extensions>
      </trkpt>
      <trkpt lat="43.46842369996011257171630859375" lon="1.421109102666378021240234375">
        <ele>154.600006103515625</ele>
        <time>2026-08-05T11:34:05.000Z</time>
        <extensions>
          <ns3:TrackPointExtension>
            <ns3:hr>92</ns3:hr>
            <ns3:cad>48</ns3:cad>
          </ns3:TrackPointExtension>
        </extensions>
      </trkpt>
      <trkpt lat="43.46841079182922840118408203125" lon="1.42111035995185375213623046875">
        <ele>154.600006103515625</ele>
        <time>2026-08-05T11:34:06.000Z</time>
        <extensions>
          <ns3:TrackPointExtension>
            <ns3:hr>91</ns3:hr>
            <ns3:cad>48</ns3:cad>
          </ns3:TrackPointExtension>
        </extensions>
      </trkpt>
      <trkpt lat="43.46840106882154941558837890625" lon="1.42110549844801425933837890625">
        <ele>154.600006103515625</ele>
        <time>2026-08-05T11:34:07.000Z</time>
        <extensions>
          <ns3:TrackPointExtension>
            <ns3:hr>92</ns3:hr>
            <ns3:cad>48</ns3:cad>
          </ns3:TrackPointExtension>
        </extensions>
      </trkpt>
      <trkpt lat="43.468391597270965576171875" lon="1.42110415734350681304931640625">
        <ele>154.600006103515625</ele>
        <time>2026-08-05T11:34:08.000Z</time>
        <extensions>
          <ns3:TrackPointExtension>
            <ns3:hr>92</ns3:hr>
            <ns3:cad>48</ns3:cad>
          </ns3:TrackPointExtension>
        </extensions>
      </trkpt>
      <trkpt lat="43.46837751567363739013671875" lon="1.42110214568674564361572265625">
        <ele>154.600006103515625</ele>
        <time>2026-08-05T11:34:09.000Z</time>
        <extensions>
          <ns3:TrackPointExtension>
            <ns3:hr>91</ns3:hr>
            <ns3:cad>48</ns3:cad>
          </ns3:TrackPointExtension>
        </extensions>
      </trkpt>
      <trkpt lat="43.4683622606098651885986328125" lon="1.42110113985836505889892578125">
        <ele>154.8000030517578125</ele>
        <time>2026-08-05T11:34:10.000Z</time>
        <extensions>
          <ns3:TrackPointExtension>
            <ns3:hr>91</ns3:hr>
            <ns3:cad>48</ns3:cad>
          </ns3:TrackPointExtension>
        </extensions>
      </trkpt>
      <trkpt lat="43.46834792755544185638427734375" lon="1.42110164277255535125732421875">
        <ele>154.8000030517578125</ele>
        <time>2026-08-05T11:34:11.000Z</time>
        <extensions>
          <ns3:TrackPointExtension>
            <ns3:hr>91</ns3:hr>
            <ns3:cad>48</ns3:cad>
          </ns3:TrackPointExtension>
        </extensions>
      </trkpt>
      <trkpt lat="43.4683377854526042938232421875" lon="1.42110147513449192047119140625">
        <ele>154.600006103515625</ele>
        <time>2026-08-05T11:34:12.000Z</time>
        <extensions>
          <ns3:TrackPointExtension>
            <ns3:hr>92</ns3:hr>
            <ns3:cad>48</ns3:cad>
          </ns3:TrackPointExtension>
        </extensions>
      </trkpt>
      <trkpt lat="43.468329571187496185302734375" lon="1.42109937965869903564453125">
        <ele>154.8000030517578125</ele>
        <time>2026-08-05T11:34:13.000Z</time>
        <extensions>
          <ns3:TrackPointExtension>
            <ns3:hr>92</ns3:hr>
            <ns3:cad>49</ns3:cad>
          </ns3:TrackPointExtension>
        </extensions>
      </trkpt>
      <trkpt lat="43.46831716597080230712890625" lon="1.42109879292547702789306640625">
        <ele>154.8000030517578125</ele>
        <time>2026-08-05T11:34:14.000Z</time>
        <extensions>
          <ns3:TrackPointExtension>
            <ns3:hr>92</ns3:hr>
            <ns3:cad>50</ns3:cad>
          </ns3:TrackPointExtension>
        </extensions>
      </trkpt>
      <trkpt lat="43.468305766582489013671875" lon="1.42110030166804790496826171875">
        <ele>154.8000030517578125</ele>
        <time>2026-08-05T11:34:15.000Z</time>
        <extensions>
          <ns3:TrackPointExtension>
            <ns3:hr>92</ns3:hr>
            <ns3:cad>50</ns3:cad>
          </ns3:TrackPointExtension>
        </extensions>
      </trkpt>
      <trkpt lat="43.4682931937277317047119140625" lon="1.421102397143840789794921875">
        <ele>154.8000030517578125</ele>
        <time>2026-08-05T11:34:16.000Z</time>
        <extensions>
          <ns3:TrackPointExtension>
            <ns3:hr>93</ns3:hr>
            <ns3:cad>50</ns3:cad>
          </ns3:TrackPointExtension>
        </extensions>
      </trkpt>
      <trkpt lat="43.46828204579651355743408203125" lon="1.42110097222030162811279296875">
        <ele>154.8000030517578125</ele>
        <time>2026-08-05T11:34:17.000Z</time>
        <extensions>
          <ns3:TrackPointExtension>
            <ns3:hr>93</ns3:hr>
            <ns3:cad>49</ns3:cad>
          </ns3:TrackPointExtension>
        </extensions>
      </trkpt>
      <trkpt lat="43.468269892036914825439453125" lon="1.4211008884012699127197265625">
        <ele>154.8000030517578125</ele>
        <time>2026-08-05T11:34:18.000Z</time>
        <extensions>
          <ns3:TrackPointExtension>
            <ns3:hr>93</ns3:hr>
            <ns3:cad>48</ns3:cad>
          </ns3:TrackPointExtension>
        </extensions>
      </trkpt>
      <trkpt lat="43.46825924701988697052001953125" lon="1.4211022295057773590087890625">
        <ele>154.8000030517578125</ele>
        <time>2026-08-05T11:34:19.000Z</time>
        <extensions>
          <ns3:TrackPointExtension>
            <ns3:hr>93</ns3:hr>
            <ns3:cad>48</ns3:cad>
          </ns3:TrackPointExtension>
        </extensions>
      </trkpt>
      <trkpt lat="43.4682496078312397003173828125" lon="1.42110130749642848968505859375">
        <ele>154.8000030517578125</ele>
        <time>2026-08-05T11:34:20.000Z</time>
        <extensions>
          <ns3:TrackPointExtension>
            <ns3:hr>93</ns3:hr>
            <ns3:cad>48</ns3:cad>
          </ns3:TrackPointExtension>
        </extensions>
      </trkpt>
      <trkpt lat="43.4682388789951801300048828125" lon="1.421100385487079620361328125">
        <ele>154.8000030517578125</ele>
        <time>2026-08-05T11:34:21.000Z</time>
        <extensions>
          <ns3:TrackPointExtension>
            <ns3:hr>92</ns3:hr>
            <ns3:cad>49</ns3:cad>
          </ns3:TrackPointExtension>
        </extensions>
      </trkpt>
      <trkpt lat="43.4682291559875011444091796875" lon="1.42110214568674564361572265625">
        <ele>154.8000030517578125</ele>
        <time>2026-08-05T11:34:22.000Z</time>
        <extensions>
          <ns3:TrackPointExtension>
            <ns3:hr>92</ns3:hr>
            <ns3:cad>49</ns3:cad>
          </ns3:TrackPointExtension>
        </extensions>
      </trkpt>
      <trkpt lat="43.46821867860853672027587890625" lon="1.42110113985836505889892578125">
        <ele>154.8000030517578125</ele>
        <time>2026-08-05T11:34:23.000Z</time>
        <extensions>
          <ns3:TrackPointExtension>
            <ns3:hr>92</ns3:hr>
            <ns3:cad>49</ns3:cad>
          </ns3:TrackPointExtension>
        </extensions>
      </trkpt>
      <trkpt lat="43.46820610575377941131591796875" lon="1.4211008884012699127197265625">
        <ele>154.8000030517578125</ele>
        <time>2026-08-05T11:34:24.000Z</time>
        <extensions>
          <ns3:TrackPointExtension>
            <ns3:hr>92</ns3:hr>
            <ns3:cad>48</ns3:cad>
          </ns3:TrackPointExtension>
        </extensions>
      </trkpt>
      <trkpt lat="43.46819504164159297943115234375" lon="1.4211015589535236358642578125">
        <ele>154.8000030517578125</ele>
        <time>2026-08-05T11:34:25.000Z</time>
        <extensions>
          <ns3:TrackPointExtension>
            <ns3:hr>93</ns3:hr>
            <ns3:cad>47</ns3:cad>
          </ns3:TrackPointExtension>
        </extensions>
      </trkpt>
      <trkpt lat="43.46818464808166027069091796875" lon="1.42110449261963367462158203125">
        <ele>154.8000030517578125</ele>
        <time>2026-08-05T11:34:26.000Z</time>
        <extensions>
          <ns3:TrackPointExtension>
            <ns3:hr>93</ns3:hr>
            <ns3:cad>47</ns3:cad>
          </ns3:TrackPointExtension>
        </extensions>
      </trkpt>
      <trkpt lat="43.4681745059788227081298828125" lon="1.42110633663833141326904296875">
        <ele>154.8000030517578125</ele>
        <time>2026-08-05T11:34:27.000Z</time>
        <extensions>
          <ns3:TrackPointExtension>
            <ns3:hr>93</ns3:hr>
            <ns3:cad>47</ns3:cad>
          </ns3:TrackPointExtension>
        </extensions>
      </trkpt>
      <trkpt lat="43.4681671299040317535400390625" lon="1.42110717482864856719970703125">
        <ele>154.8000030517578125</ele>
        <time>2026-08-05T11:34:28.000Z</time>
        <extensions>
          <ns3:TrackPointExtension>
            <ns3:hr>93</ns3:hr>
            <ns3:cad>47</ns3:cad>
          </ns3:TrackPointExtension>
        </extensions>
      </trkpt>
      <trkpt lat="43.46815765835344791412353515625" lon="1.421106755733489990234375">
        <ele>154.8000030517578125</ele>
        <time>2026-08-05T11:34:29.000Z</time>
        <extensions>
          <ns3:TrackPointExtension>
            <ns3:hr>92</ns3:hr>
            <ns3:cad>47</ns3:cad>
          </ns3:TrackPointExtension>
        </extensions>
      </trkpt>
      <trkpt lat="43.468147180974483489990234375" lon="1.42110851593315601348876953125">
        <ele>154.8000030517578125</ele>
        <time>2026-08-05T11:34:30.000Z</time>
        <extensions>
          <ns3:TrackPointExtension>
            <ns3:hr>93</ns3:hr>
            <ns3:cad>47</ns3:cad>
          </ns3:TrackPointExtension>
        </extensions>
      </trkpt>
      <trkpt lat="43.4681366197764873504638671875" lon="1.42111002467572689056396484375">
        <ele>154.8000030517578125</ele>
        <time>2026-08-05T11:34:31.000Z</time>
        <extensions>
          <ns3:TrackPointExtension>
            <ns3:hr>93</ns3:hr>
            <ns3:cad>47</ns3:cad>
          </ns3:TrackPointExtension>
        </extensions>
      </trkpt>
      <trkpt lat="43.46812807023525238037109375" lon="1.42110918648540973663330078125">
        <ele>154.8000030517578125</ele>
        <time>2026-08-05T11:34:32.000Z</time>
        <extensions>
          <ns3:TrackPointExtension>
            <ns3:hr>93</ns3:hr>
            <ns3:cad>47</ns3:cad>
          </ns3:TrackPointExtension>
        </extensions>
      </trkpt>
      <trkpt lat="43.46811658702790737152099609375" lon="1.4211075939238071441650390625">
        <ele>154.8000030517578125</ele>
        <time>2026-08-05T11:34:33.000Z</time>
        <extensions>
          <ns3:TrackPointExtension>
            <ns3:hr>93</ns3:hr>
            <ns3:cad>47</ns3:cad>
          </ns3:TrackPointExtension>
        </extensions>
      </trkpt>
      <trkpt lat="43.46810451708734035491943359375" lon="1.42110767774283885955810546875">
        <ele>154.8000030517578125</ele>
        <time>2026-08-05T11:34:34.000Z</time>
        <extensions>
          <ns3:TrackPointExtension>
            <ns3:hr>93</ns3:hr>
            <ns3:cad>46</ns3:cad>
          </ns3:TrackPointExtension>
        </extensions>
      </trkpt>
      <trkpt lat="43.468092866241931915283203125" lon="1.421109102666378021240234375">
        <ele>154.8000030517578125</ele>
        <time>2026-08-05T11:34:35.000Z</time>
        <extensions>
          <ns3:TrackPointExtension>
            <ns3:hr>93</ns3:hr>
            <ns3:cad>46</ns3:cad>
          </ns3:TrackPointExtension>
        </extensions>
      </trkpt>
      <trkpt lat="43.468078114092350006103515625" lon="1.42111136578023433685302734375">
        <ele>154.600006103515625</ele>
        <time>2026-08-05T11:34:36.000Z</time>
        <extensions>
          <ns3:TrackPointExtension>
            <ns3:hr>93</ns3:hr>
            <ns3:cad>48</ns3:cad>
          </ns3:TrackPointExtension>
        </extensions>
      </trkpt>
      <trkpt lat="43.46807065419852733612060546875" lon="1.4211149699985980987548828125">
        <ele>154.600006103515625</ele>
        <time>2026-08-05T11:34:37.000Z</time>
        <extensions>
          <ns3:TrackPointExtension>
            <ns3:hr>92</ns3:hr>
            <ns3:cad>48</ns3:cad>
          </ns3:TrackPointExtension>
        </extensions>
      </trkpt>
      <trkpt lat="43.46805975772440433502197265625" lon="1.4211119525134563446044921875">
        <ele>154.600006103515625</ele>
        <time>2026-08-05T11:34:38.000Z</time>
        <extensions>
          <ns3:TrackPointExtension>
            <ns3:hr>93</ns3:hr>
            <ns3:cad>48</ns3:cad>
          </ns3:TrackPointExtension>
        </extensions>
      </trkpt>
      <trkpt lat="43.46804584376513957977294921875" lon="1.42111354507505893707275390625">
        <ele>154.600006103515625</ele>
        <time>2026-08-05T11:34:39.000Z</time>
        <extensions>
          <ns3:TrackPointExtension>
            <ns3:hr>93</ns3:hr>
            <ns3:cad>48</ns3:cad>
          </ns3:TrackPointExtension>
        </extensions>
      </trkpt>
      <trkpt lat="43.4680346958339214324951171875" lon="1.4211163111031055450439453125">
        <ele>154.600006103515625</ele>
        <time>2026-08-05T11:34:40.000Z</time>
        <extensions>
          <ns3:TrackPointExtension>
            <ns3:hr>93</ns3:hr>
            <ns3:cad>48</ns3:cad>
          </ns3:TrackPointExtension>
        </extensions>
      </trkpt>
      <trkpt lat="43.4680219553411006927490234375" lon="1.42111455090343952178955078125">
        <ele>154.600006103515625</ele>
        <time>2026-08-05T11:34:41.000Z</time>
        <extensions>
          <ns3:TrackPointExtension>
            <ns3:hr>92</ns3:hr>
            <ns3:cad>48</ns3:cad>
          </ns3:TrackPointExtension>
        </extensions>
      </trkpt>
      <trkpt lat="43.46800946630537509918212890625" lon="1.421116478741168975830078125">
        <ele>154.600006103515625</ele>
        <time>2026-08-05T11:34:42.000Z</time>
        <extensions>
          <ns3:TrackPointExtension>
            <ns3:hr>92</ns3:hr>
            <ns3:cad>48</ns3:cad>
          </ns3:TrackPointExtension>
        </extensions>
      </trkpt>
      <trkpt lat="43.4679984860122203826904296875" lon="1.42111756838858127593994140625">
        <ele>154.600006103515625</ele>
        <time>2026-08-05T11:34:43.000Z</time>
        <extensions>
          <ns3:TrackPointExtension>
            <ns3:hr>92</ns3:hr>
            <ns3:cad>48</ns3:cad>
          </ns3:TrackPointExtension>
        </extensions>
      </trkpt>
      <trkpt lat="43.46798582933843135833740234375" lon="1.4211210049688816070556640625">
        <ele>154.600006103515625</ele>
        <time>2026-08-05T11:34:44.000Z</time>
        <extensions>
          <ns3:TrackPointExtension>
            <ns3:hr>92</ns3:hr>
            <ns3:cad>48</ns3:cad>
          </ns3:TrackPointExtension>
        </extensions>
      </trkpt>
      <trkpt lat="43.4679746814072132110595703125" lon="1.421122513711452484130859375">
        <ele>154.600006103515625</ele>
        <time>2026-08-05T11:34:45.000Z</time>
        <extensions>
          <ns3:TrackPointExtension>
            <ns3:hr>92</ns3:hr>
            <ns3:cad>48</ns3:cad>
          </ns3:TrackPointExtension>
        </extensions>
      </trkpt>
      <trkpt lat="43.46796445548534393310546875" lon="1.42112343572080135345458984375">
        <ele>154.600006103515625</ele>
        <time>2026-08-05T11:34:46.000Z</time>
        <extensions>
          <ns3:TrackPointExtension>
            <ns3:hr>92</ns3:hr>
            <ns3:cad>47</ns3:cad>
          </ns3:TrackPointExtension>
        </extensions>
      </trkpt>
      <trkpt lat="43.4679569117724895477294921875" lon="1.4211220107972621917724609375">
        <ele>154.399993896484375</ele>
        <time>2026-08-05T11:34:47.000Z</time>
        <extensions>
          <ns3:TrackPointExtension>
            <ns3:hr>92</ns3:hr>
            <ns3:cad>47</ns3:cad>
          </ns3:TrackPointExtension>
        </extensions>
      </trkpt>
      <trkpt lat="43.4679465182125568389892578125" lon="1.4211220107972621917724609375">
        <ele>154.399993896484375</ele>
        <time>2026-08-05T11:34:48.000Z</time>
        <extensions>
          <ns3:TrackPointExtension>
            <ns3:hr>93</ns3:hr>
            <ns3:cad>47</ns3:cad>
          </ns3:TrackPointExtension>
        </extensions>
      </trkpt>
      <trkpt lat="43.4679371304810047149658203125" lon="1.4211263693869113922119140625">
        <ele>154.600006103515625</ele>
        <time>2026-08-05T11:34:49.000Z</time>
        <extensions>
          <ns3:TrackPointExtension>
            <ns3:hr>96</ns3:hr>
            <ns3:cad>47</ns3:cad>
          </ns3:TrackPointExtension>
        </extensions>
      </trkpt>
      <trkpt lat="43.46792715601623058319091796875" lon="1.4211320690810680389404296875">
        <ele>154.600006103515625</ele>
        <time>2026-08-05T11:34:50.000Z</time>
        <extensions>
          <ns3:TrackPointExtension>
            <ns3:hr>104</ns3:hr>
            <ns3:cad>48</ns3:cad>
          </ns3:TrackPointExtension>
        </extensions>
      </trkpt>
      <trkpt lat="43.46791525371372699737548828125" lon="1.42113097943365573883056640625">
        <ele>154.600006103515625</ele>
        <time>2026-08-05T11:34:51.000Z</time>
        <extensions>
          <ns3:TrackPointExtension>
            <ns3:hr>107</ns3:hr>
            <ns3:cad>48</ns3:cad>
          </ns3:TrackPointExtension>
        </extensions>
      </trkpt>
      <trkpt lat="43.4679042734205722808837890625" lon="1.421133577823638916015625">
        <ele>154.600006103515625</ele>
        <time>2026-08-05T11:34:52.000Z</time>
        <extensions>
          <ns3:TrackPointExtension>
            <ns3:hr>108</ns3:hr>
            <ns3:cad>48</ns3:cad>
          </ns3:TrackPointExtension>
        </extensions>
      </trkpt>
      <trkpt lat="43.46789329312741756439208984375" lon="1.42113550566136837005615234375">
        <ele>154.399993896484375</ele>
        <time>2026-08-05T11:34:53.000Z</time>
        <extensions>
          <ns3:TrackPointExtension>
            <ns3:hr>108</ns3:hr>
            <ns3:cad>47</ns3:cad>
          </ns3:TrackPointExtension>
        </extensions>
      </trkpt>
      <trkpt lat="43.4678811393678188323974609375" lon="1.42113852314651012420654296875">
        <ele>154.399993896484375</ele>
        <time>2026-08-05T11:34:54.000Z</time>
        <extensions>
          <ns3:TrackPointExtension>
            <ns3:hr>107</ns3:hr>
            <ns3:cad>47</ns3:cad>
          </ns3:TrackPointExtension>
        </extensions>
      </trkpt>
      <trkpt lat="43.46786923706531524658203125" lon="1.4211394451558589935302734375">
        <ele>154.399993896484375</ele>
        <time>2026-08-05T11:34:55.000Z</time>
        <extensions>
          <ns3:TrackPointExtension>
            <ns3:hr>107</ns3:hr>
            <ns3:cad>48</ns3:cad>
          </ns3:TrackPointExtension>
        </extensions>
      </trkpt>
      <trkpt lat="43.46785842441022396087646484375" lon="1.42113869078457355499267578125">
        <ele>154.399993896484375</ele>
        <time>2026-08-05T11:34:56.000Z</time>
        <extensions>
          <ns3:TrackPointExtension>
            <ns3:hr>106</ns3:hr>
            <ns3:cad>48</ns3:cad>
          </ns3:TrackPointExtension>
        </extensions>
      </trkpt>
      <trkpt lat="43.467844761908054351806640625" lon="1.42114095389842987060546875">
        <ele>154.600006103515625</ele>
        <time>2026-08-05T11:34:57.000Z</time>
        <extensions>
          <ns3:TrackPointExtension>
            <ns3:hr>106</ns3:hr>
            <ns3:cad>47</ns3:cad>
          </ns3:TrackPointExtension>
        </extensions>
      </trkpt>
      <trkpt lat="43.4678315185010433197021484375" lon="1.42114489339292049407958984375">
        <ele>154.399993896484375</ele>
        <time>2026-08-05T11:34:58.000Z</time>
        <extensions>
          <ns3:TrackPointExtension>
            <ns3:hr>106</ns3:hr>
            <ns3:cad>47</ns3:cad>
          </ns3:TrackPointExtension>
        </extensions>
      </trkpt>
      <trkpt lat="43.467819280922412872314453125" lon="1.421149335801601409912109375">
        <ele>154.399993896484375</ele>
        <time>2026-08-05T11:34:59.000Z</time>
        <extensions>
          <ns3:TrackPointExtension>
            <ns3:hr>105</ns3:hr>
            <ns3:cad>47</ns3:cad>
          </ns3:TrackPointExtension>
        </extensions>
      </trkpt>
      <trkpt lat="43.46780578605830669403076171875" lon="1.4211491681635379791259765625">
        <ele>154.399993896484375</ele>
        <time>2026-08-05T11:35:00.000Z</time>
        <extensions>
          <ns3:TrackPointExtension>
            <ns3:hr>105</ns3:hr>
            <ns3:cad>47</ns3:cad>
          </ns3:TrackPointExtension>
        </extensions>
      </trkpt>
      <trkpt lat="43.46779623068869113922119140625" lon="1.42114925198256969451904296875">
        <ele>154.399993896484375</ele>
        <time>2026-08-05T11:35:01.000Z</time>
        <extensions>
          <ns3:TrackPointExtension>
            <ns3:hr>104</ns3:hr>
            <ns3:cad>47</ns3:cad>
          </ns3:TrackPointExtension>
        </extensions>
      </trkpt>
      <trkpt lat="43.4677855856716632843017578125" lon="1.421152018010616302490234375">
        <ele>154.399993896484375</ele>
        <time>2026-08-05T11:35:02.000Z</time>
        <extensions>
          <ns3:TrackPointExtension>
            <ns3:hr>103</ns3:hr>
            <ns3:cad>48</ns3:cad>
          </ns3:TrackPointExtension>
        </extensions>
      </trkpt>
      <trkpt lat="43.46777577884495258331298828125" lon="1.42115780152380466461181640625">
        <ele>154.399993896484375</ele>
        <time>2026-08-05T11:35:03.000Z</time>
        <extensions>
          <ns3:TrackPointExtension>
            <ns3:hr>103</ns3:hr>
            <ns3:cad>48</ns3:cad>
          </ns3:TrackPointExtension>
        </extensions>
      </trkpt>
      <trkpt lat="43.4677617810666561126708984375" lon="1.4211612381041049957275390625">
        <ele>154.600006103515625</ele>
        <time>2026-08-05T11:35:04.000Z</time>
        <extensions>
          <ns3:TrackPointExtension>
            <ns3:hr>104</ns3:hr>
            <ns3:cad>48</ns3:cad>
          </ns3:TrackPointExtension>
        </extensions>
      </trkpt>
      <trkpt lat="43.46775147132575511932373046875" lon="1.4211605675518512725830078125">
        <ele>154.600006103515625</ele>
        <time>2026-08-05T11:35:05.000Z</time>
        <extensions>
          <ns3:TrackPointExtension>
            <ns3:hr>104</ns3:hr>
            <ns3:cad>48</ns3:cad>
          </ns3:TrackPointExtension>
        </extensions>
      </trkpt>
      <trkpt lat="43.46774225123226642608642578125" lon="1.42116199247539043426513671875">
        <ele>154.600006103515625</ele>
        <time>2026-08-05T11:35:06.000Z</time>
        <extensions>
          <ns3:TrackPointExtension>
            <ns3:hr>105</ns3:hr>
            <ns3:cad>48</ns3:cad>
          </ns3:TrackPointExtension>
        </extensions>
      </trkpt>
      <trkpt lat="43.4677322767674922943115234375" lon="1.42116651870310306549072265625">
        <ele>154.600006103515625</ele>
        <time>2026-08-05T11:35:07.000Z</time>
        <extensions>
          <ns3:TrackPointExtension>
            <ns3:hr>105</ns3:hr>
            <ns3:cad>47</ns3:cad>
          </ns3:TrackPointExtension>
        </extensions>
      </trkpt>
      <trkpt lat="43.46771827898919582366943359375" lon="1.421172805130481719970703125">
        <ele>154.600006103515625</ele>
        <time>2026-08-05T11:35:08.000Z</time>
        <extensions>
          <ns3:TrackPointExtension>
            <ns3:hr>104</ns3:hr>
            <ns3:cad>47</ns3:cad>
          </ns3:TrackPointExtension>
        </extensions>
      </trkpt>
      <trkpt lat="43.46770889125764369964599609375" lon="1.42117707990109920501708984375">
        <ele>154.600006103515625</ele>
        <time>2026-08-05T11:35:09.000Z</time>
        <extensions>
          <ns3:TrackPointExtension>
            <ns3:hr>104</ns3:hr>
            <ns3:cad>48</ns3:cad>
          </ns3:TrackPointExtension>
        </extensions>
      </trkpt>
      <trkpt lat="43.46769950352609157562255859375" lon="1.42117372713983058929443359375">
        <ele>154.600006103515625</ele>
        <time>2026-08-05T11:35:10.000Z</time>
        <extensions>
          <ns3:TrackPointExtension>
            <ns3:hr>104</ns3:hr>
            <ns3:cad>48</ns3:cad>
          </ns3:TrackPointExtension>
        </extensions>
      </trkpt>
      <trkpt lat="43.4676910378038883209228515625" lon="1.4211712963879108428955078125">
        <ele>154.600006103515625</ele>
        <time>2026-08-05T11:35:11.000Z</time>
        <extensions>
          <ns3:TrackPointExtension>
            <ns3:hr>103</ns3:hr>
            <ns3:cad>48</ns3:cad>
          </ns3:TrackPointExtension>
        </extensions>
      </trkpt>
      <trkpt lat="43.46768039278686046600341796875" lon="1.42117582261562347412109375">
        <ele>154.600006103515625</ele>
        <time>2026-08-05T11:35:12.000Z</time>
        <extensions>
          <ns3:TrackPointExtension>
            <ns3:hr>103</ns3:hr>
            <ns3:cad>47</ns3:cad>
          </ns3:TrackPointExtension>
        </extensions>
      </trkpt>
      <trkpt lat="43.46767234615981578826904296875" lon="1.42117892391979694366455078125">
        <ele>154.600006103515625</ele>
        <time>2026-08-05T11:35:13.000Z</time>
        <extensions>
          <ns3:TrackPointExtension>
            <ns3:hr>102</ns3:hr>
            <ns3:cad>46</ns3:cad>
          </ns3:TrackPointExtension>
        </extensions>
      </trkpt>
      <trkpt lat="43.4676625393331050872802734375" lon="1.4211778342723846435546875">
        <ele>154.399993896484375</ele>
        <time>2026-08-05T11:35:14.000Z</time>
        <extensions>
          <ns3:TrackPointExtension>
            <ns3:hr>102</ns3:hr>
            <ns3:cad>46</ns3:cad>
          </ns3:TrackPointExtension>
        </extensions>
      </trkpt>
      <trkpt lat="43.467652983963489532470703125" lon="1.42118043266236782073974609375">
        <ele>154.399993896484375</ele>
        <time>2026-08-05T11:35:15.000Z</time>
        <extensions>
          <ns3:TrackPointExtension>
            <ns3:hr>102</ns3:hr>
            <ns3:cad>45</ns3:cad>
          </ns3:TrackPointExtension>
        </extensions>
      </trkpt>
      <trkpt lat="43.467640578746795654296875" lon="1.42118445597589015960693359375">
        <ele>154.399993896484375</ele>
        <time>2026-08-05T11:35:16.000Z</time>
        <extensions>
          <ns3:TrackPointExtension>
            <ns3:hr>101</ns3:hr>
            <ns3:cad>45</ns3:cad>
          </ns3:TrackPointExtension>
        </extensions>
      </trkpt>
      <trkpt lat="43.4676259942352771759033203125" lon="1.42118965275585651397705078125">
        <ele>154.399993896484375</ele>
        <time>2026-08-05T11:35:17.000Z</time>
        <extensions>
          <ns3:TrackPointExtension>
            <ns3:hr>100</ns3:hr>
            <ns3:cad>45</ns3:cad>
          </ns3:TrackPointExtension>
        </extensions>
      </trkpt>
      <trkpt lat="43.46761551685631275177001953125" lon="1.42119250260293483734130859375">
        <ele>154.399993896484375</ele>
        <time>2026-08-05T11:35:18.000Z</time>
        <extensions>
          <ns3:TrackPointExtension>
            <ns3:hr>100</ns3:hr>
            <ns3:cad>45</ns3:cad>
          </ns3:TrackPointExtension>
        </extensions>
      </trkpt>
      <trkpt lat="43.4676058776676654815673828125" lon="1.42119233496487140655517578125">
        <ele>154.399993896484375</ele>
        <time>2026-08-05T11:35:19.000Z</time>
        <extensions>
          <ns3:TrackPointExtension>
            <ns3:hr>99</ns3:hr>
            <ns3:cad>46</ns3:cad>
          </ns3:TrackPointExtension>
        </extensions>
      </trkpt>
      <trkpt lat="43.4675963222980499267578125" lon="1.42119434662163257598876953125">
        <ele>154.399993896484375</ele>
        <time>2026-08-05T11:35:20.000Z</time>
        <extensions>
          <ns3:TrackPointExtension>
            <ns3:hr>99</ns3:hr>
            <ns3:cad>48</ns3:cad>
          </ns3:TrackPointExtension>
        </extensions>
      </trkpt>
      <trkpt lat="43.4675844199955463409423828125" lon="1.42120130360126495361328125">
        <ele>154.399993896484375</ele>
        <time>2026-08-05T11:35:21.000Z</time>
        <extensions>
          <ns3:TrackPointExtension>
            <ns3:hr>99</ns3:hr>
            <ns3:cad>48</ns3:cad>
          </ns3:TrackPointExtension>
        </extensions>
      </trkpt>
      <trkpt lat="43.4675740264356136322021484375" lon="1.4212054945528507232666015625">
        <ele>154.399993896484375</ele>
        <time>2026-08-05T11:35:22.000Z</time>
        <extensions>
          <ns3:TrackPointExtension>
            <ns3:hr>99</ns3:hr>
            <ns3:cad>48</ns3:cad>
          </ns3:TrackPointExtension>
        </extensions>
      </trkpt>
      <trkpt lat="43.46756480634212493896484375" lon="1.42120624892413616180419921875">
        <ele>154.399993896484375</ele>
        <time>2026-08-05T11:35:23.000Z</time>
        <extensions>
          <ns3:TrackPointExtension>
            <ns3:hr>99</ns3:hr>
            <ns3:cad>48</ns3:cad>
          </ns3:TrackPointExtension>
        </extensions>
      </trkpt>
      <trkpt lat="43.46755634061992168426513671875" lon="1.42120792530477046966552734375">
        <ele>154.399993896484375</ele>
        <time>2026-08-05T11:35:24.000Z</time>
        <extensions>
          <ns3:TrackPointExtension>
            <ns3:hr>99</ns3:hr>
            <ns3:cad>48</ns3:cad>
          </ns3:TrackPointExtension>
        </extensions>
      </trkpt>
      <trkpt lat="43.467544019222259521484375" lon="1.42120943404734134674072265625">
        <ele>154.399993896484375</ele>
        <time>2026-08-05T11:35:25.000Z</time>
        <extensions>
          <ns3:TrackPointExtension>
            <ns3:hr>99</ns3:hr>
            <ns3:cad>47</ns3:cad>
          </ns3:TrackPointExtension>
        </extensions>
      </trkpt>
      <trkpt lat="43.4675319492816925048828125" lon="1.4212168939411640167236328125">
        <ele>154.399993896484375</ele>
        <time>2026-08-05T11:35:26.000Z</time>
        <extensions>
          <ns3:TrackPointExtension>
            <ns3:hr>99</ns3:hr>
            <ns3:cad>47</ns3:cad>
          </ns3:TrackPointExtension>
        </extensions>
      </trkpt>
      <trkpt lat="43.4675220586359500885009765625" lon="1.42121932469308376312255859375">
        <ele>154.600006103515625</ele>
        <time>2026-08-05T11:35:27.000Z</time>
        <extensions>
          <ns3:TrackPointExtension>
            <ns3:hr>99</ns3:hr>
            <ns3:cad>47</ns3:cad>
          </ns3:TrackPointExtension>
        </extensions>
      </trkpt>
      <trkpt lat="43.467511832714080810546875" lon="1.42121873795986175537109375">
        <ele>154.600006103515625</ele>
        <time>2026-08-05T11:35:28.000Z</time>
        <extensions>
          <ns3:TrackPointExtension>
            <ns3:hr>98</ns3:hr>
            <ns3:cad>47</ns3:cad>
          </ns3:TrackPointExtension>
        </extensions>
      </trkpt>
      <trkpt lat="43.4675029478967189788818359375" lon="1.42121731303632259368896484375">
        <ele>154.600006103515625</ele>
        <time>2026-08-05T11:35:29.000Z</time>
        <extensions>
          <ns3:TrackPointExtension>
            <ns3:hr>99</ns3:hr>
            <ns3:cad>47</ns3:cad>
          </ns3:TrackPointExtension>
        </extensions>
      </trkpt>
      <trkpt lat="43.46749247051775455474853515625" lon="1.42122116871178150177001953125">
        <ele>154.600006103515625</ele>
        <time>2026-08-05T11:35:30.000Z</time>
        <extensions>
          <ns3:TrackPointExtension>
            <ns3:hr>99</ns3:hr>
            <ns3:cad>47</ns3:cad>
          </ns3:TrackPointExtension>
        </extensions>
      </trkpt>
      <trkpt lat="43.467479981482028961181640625" lon="1.421228460967540740966796875">
        <ele>154.600006103515625</ele>
        <time>2026-08-05T11:35:31.000Z</time>
        <extensions>
          <ns3:TrackPointExtension>
            <ns3:hr>98</ns3:hr>
            <ns3:cad>47</ns3:cad>
          </ns3:TrackPointExtension>
        </extensions>
      </trkpt>
      <trkpt lat="43.467467911541461944580078125" lon="1.421234495937824249267578125">
        <ele>154.600006103515625</ele>
        <time>2026-08-05T11:35:32.000Z</time>
        <extensions>
          <ns3:TrackPointExtension>
            <ns3:hr>98</ns3:hr>
            <ns3:cad>47</ns3:cad>
          </ns3:TrackPointExtension>
        </extensions>
      </trkpt>
      <trkpt lat="43.467457182705402374267578125" lon="1.42123558558523654937744140625">
        <ele>154.600006103515625</ele>
        <time>2026-08-05T11:35:33.000Z</time>
        <extensions>
          <ns3:TrackPointExtension>
            <ns3:hr>98</ns3:hr>
            <ns3:cad>47</ns3:cad>
          </ns3:TrackPointExtension>
        </extensions>
      </trkpt>
      <trkpt lat="43.46744536422193050384521484375" lon="1.4212380163371562957763671875">
        <ele>154.600006103515625</ele>
        <time>2026-08-05T11:35:34.000Z</time>
        <extensions>
          <ns3:TrackPointExtension>
            <ns3:hr>98</ns3:hr>
            <ns3:cad>47</ns3:cad>
          </ns3:TrackPointExtension>
        </extensions>
      </trkpt>
      <trkpt lat="43.46743203699588775634765625" lon="1.42124354839324951171875">
        <ele>154.600006103515625</ele>
        <time>2026-08-05T11:35:35.000Z</time>
        <extensions>
          <ns3:TrackPointExtension>
            <ns3:hr>98</ns3:hr>
            <ns3:cad>47</ns3:cad>
          </ns3:TrackPointExtension>
        </extensions>
      </trkpt>
      <trkpt lat="43.4674208052456378936767578125" lon="1.4212487451732158660888671875">
        <ele>154.600006103515625</ele>
        <time>2026-08-05T11:35:36.000Z</time>
        <extensions>
          <ns3:TrackPointExtension>
            <ns3:hr>98</ns3:hr>
            <ns3:cad>47</ns3:cad>
          </ns3:TrackPointExtension>
        </extensions>
      </trkpt>
      <trkpt lat="43.46740881912410259246826171875" lon="1.42125301994383335113525390625">
        <ele>154.8000030517578125</ele>
        <time>2026-08-05T11:35:37.000Z</time>
        <extensions>
          <ns3:TrackPointExtension>
            <ns3:hr>98</ns3:hr>
            <ns3:cad>48</ns3:cad>
          </ns3:TrackPointExtension>
        </extensions>
      </trkpt>
      <trkpt lat="43.4673990122973918914794921875" lon="1.4212544448673725128173828125">
        <ele>154.8000030517578125</ele>
        <time>2026-08-05T11:35:38.000Z</time>
        <extensions>
          <ns3:TrackPointExtension>
            <ns3:hr>98</ns3:hr>
            <ns3:cad>48</ns3:cad>
          </ns3:TrackPointExtension>
        </extensions>
      </trkpt>
      <trkpt lat="43.46738870255649089813232421875" lon="1.42125721089541912078857421875">
        <ele>154.8000030517578125</ele>
        <time>2026-08-05T11:35:39.000Z</time>
        <extensions>
          <ns3:TrackPointExtension>
            <ns3:hr>98</ns3:hr>
            <ns3:cad>48</ns3:cad>
          </ns3:TrackPointExtension>
        </extensions>
      </trkpt>
      <trkpt lat="43.46737612970173358917236328125" lon="1.4212641678750514984130859375">
        <ele>154.8000030517578125</ele>
        <time>2026-08-05T11:35:40.000Z</time>
        <extensions>
          <ns3:TrackPointExtension>
            <ns3:hr>98</ns3:hr>
            <ns3:cad>47</ns3:cad>
          </ns3:TrackPointExtension>
        </extensions>
      </trkpt>
      <trkpt lat="43.46736489795148372650146484375" lon="1.42126969993114471435546875">
        <ele>154.8000030517578125</ele>
        <time>2026-08-05T11:35:41.000Z</time>
        <extensions>
          <ns3:TrackPointExtension>
            <ns3:hr>98</ns3:hr>
            <ns3:cad>47</ns3:cad>
          </ns3:TrackPointExtension>
        </extensions>
      </trkpt>
      <trkpt lat="43.4673522412776947021484375" lon="1.421272046864032745361328125">
        <ele>154.8000030517578125</ele>
        <time>2026-08-05T11:35:42.000Z</time>
        <extensions>
          <ns3:TrackPointExtension>
            <ns3:hr>98</ns3:hr>
            <ns3:cad>47</ns3:cad>
          </ns3:TrackPointExtension>
        </extensions>
      </trkpt>
      <trkpt lat="43.46734025515615940093994140625" lon="1.42127506434917449951171875">
        <ele>154.8000030517578125</ele>
        <time>2026-08-05T11:35:43.000Z</time>
        <extensions>
          <ns3:TrackPointExtension>
            <ns3:hr>99</ns3:hr>
            <ns3:cad>47</ns3:cad>
          </ns3:TrackPointExtension>
        </extensions>
      </trkpt>
      <trkpt lat="43.46732852049171924591064453125" lon="1.42127581872045993804931640625">
        <ele>154.8000030517578125</ele>
        <time>2026-08-05T11:35:44.000Z</time>
        <extensions>
          <ns3:TrackPointExtension>
            <ns3:hr>99</ns3:hr>
            <ns3:cad>47</ns3:cad>
          </ns3:TrackPointExtension>
        </extensions>
      </trkpt>
      <trkpt lat="43.4673182107508182525634765625" lon="1.42128135077655315399169921875">
        <ele>154.8000030517578125</ele>
        <time>2026-08-05T11:35:45.000Z</time>
        <extensions>
          <ns3:TrackPointExtension>
            <ns3:hr>99</ns3:hr>
            <ns3:cad>47</ns3:cad>
          </ns3:TrackPointExtension>
        </extensions>
      </trkpt>
      <trkpt lat="43.46730756573379039764404296875" lon="1.42128939740359783172607421875">
        <ele>154.8000030517578125</ele>
        <time>2026-08-05T11:35:46.000Z</time>
        <extensions>
          <ns3:TrackPointExtension>
            <ns3:hr>98</ns3:hr>
            <ns3:cad>47</ns3:cad>
          </ns3:TrackPointExtension>
        </extensions>
      </trkpt>
      <trkpt lat="43.4672960825264453887939453125" lon="1.42129157669842243194580078125">
        <ele>154.8000030517578125</ele>
        <time>2026-08-05T11:35:47.000Z</time>
        <extensions>
          <ns3:TrackPointExtension>
            <ns3:hr>98</ns3:hr>
            <ns3:cad>47</ns3:cad>
          </ns3:TrackPointExtension>
        </extensions>
      </trkpt>
      <trkpt lat="43.4672878682613372802734375" lon="1.42129518091678619384765625">
        <ele>154.8000030517578125</ele>
        <time>2026-08-05T11:35:48.000Z</time>
        <extensions>
          <ns3:TrackPointExtension>
            <ns3:hr>99</ns3:hr>
            <ns3:cad>48</ns3:cad>
          </ns3:TrackPointExtension>
        </extensions>
      </trkpt>
      <trkpt lat="43.4672779776155948638916015625" lon="1.4212970249354839324951171875">
        <ele>154.8000030517578125</ele>
        <time>2026-08-05T11:35:49.000Z</time>
        <extensions>
          <ns3:TrackPointExtension>
            <ns3:hr>99</ns3:hr>
            <ns3:cad>48</ns3:cad>
          </ns3:TrackPointExtension>
        </extensions>
      </trkpt>
      <trkpt lat="43.4672682546079158782958984375" lon="1.421301551163196563720703125">
        <ele>154.8000030517578125</ele>
        <time>2026-08-05T11:35:50.000Z</time>
        <extensions>
          <ns3:TrackPointExtension>
            <ns3:hr>99</ns3:hr>
            <ns3:cad>48</ns3:cad>
          </ns3:TrackPointExtension>
        </extensions>
      </trkpt>
      <trkpt lat="43.4672583639621734619140625" lon="1.42130515538156032562255859375">
        <ele>154.8000030517578125</ele>
        <time>2026-08-05T11:35:51.000Z</time>
        <extensions>
          <ns3:TrackPointExtension>
            <ns3:hr>99</ns3:hr>
            <ns3:cad>49</ns3:cad>
          </ns3:TrackPointExtension>
        </extensions>
      </trkpt>
      <trkpt lat="43.4672491438686847686767578125" lon="1.42131018452346324920654296875">
        <ele>154.8000030517578125</ele>
        <time>2026-08-05T11:35:52.000Z</time>
        <extensions>
          <ns3:TrackPointExtension>
            <ns3:hr>99</ns3:hr>
            <ns3:cad>49</ns3:cad>
          </ns3:TrackPointExtension>
        </extensions>
      </trkpt>
      <trkpt lat="43.4672397561371326446533203125" lon="1.4213121123611927032470703125">
        <ele>154.8000030517578125</ele>
        <time>2026-08-05T11:35:53.000Z</time>
        <extensions>
          <ns3:TrackPointExtension>
            <ns3:hr>99</ns3:hr>
            <ns3:cad>49</ns3:cad>
          </ns3:TrackPointExtension>
        </extensions>
      </trkpt>
      <trkpt lat="43.46722416579723358154296875" lon="1.42131328582763671875">
        <ele>154.8000030517578125</ele>
        <time>2026-08-05T11:35:54.000Z</time>
        <extensions>
          <ns3:TrackPointExtension>
            <ns3:hr>99</ns3:hr>
            <ns3:cad>48</ns3:cad>
          </ns3:TrackPointExtension>
        </extensions>
      </trkpt>
      <trkpt lat="43.467212431132793426513671875" lon="1.42131554894149303436279296875">
        <ele>154.8000030517578125</ele>
        <time>2026-08-05T11:35:55.000Z</time>
        <extensions>
          <ns3:TrackPointExtension>
            <ns3:hr>99</ns3:hr>
            <ns3:cad>48</ns3:cad>
          </ns3:TrackPointExtension>
        </extensions>
      </trkpt>
      <trkpt lat="43.46719977445900440216064453125" lon="1.42131957225501537322998046875">
        <ele>154.8000030517578125</ele>
        <time>2026-08-05T11:35:56.000Z</time>
        <extensions>
          <ns3:TrackPointExtension>
            <ns3:hr>99</ns3:hr>
            <ns3:cad>47</ns3:cad>
          </ns3:TrackPointExtension>
        </extensions>
      </trkpt>
      <trkpt lat="43.46719223074615001678466796875" lon="1.42132309265434741973876953125">
        <ele>154.8000030517578125</ele>
        <time>2026-08-05T11:35:57.000Z</time>
        <extensions>
          <ns3:TrackPointExtension>
            <ns3:hr>99</ns3:hr>
            <ns3:cad>47</ns3:cad>
          </ns3:TrackPointExtension>
        </extensions>
      </trkpt>
      <trkpt lat="43.4671820886433124542236328125" lon="1.42132627777755260467529296875">
        <ele>154.8000030517578125</ele>
        <time>2026-08-05T11:35:58.000Z</time>
        <extensions>
          <ns3:TrackPointExtension>
            <ns3:hr>99</ns3:hr>
            <ns3:cad>49</ns3:cad>
          </ns3:TrackPointExtension>
        </extensions>
      </trkpt>
      <trkpt lat="43.4671710245311260223388671875" lon="1.42132979817688465118408203125">
        <ele>155</ele>
        <time>2026-08-05T11:35:59.000Z</time>
        <extensions>
          <ns3:TrackPointExtension>
            <ns3:hr>99</ns3:hr>
            <ns3:cad>49</ns3:cad>
          </ns3:TrackPointExtension>
        </extensions>
      </trkpt>
      <trkpt lat="43.467160128057003021240234375" lon="1.42133717425167560577392578125">
        <ele>155</ele>
        <time>2026-08-05T11:36:00.000Z</time>
        <extensions>
          <ns3:TrackPointExtension>
            <ns3:hr>99</ns3:hr>
            <ns3:cad>48</ns3:cad>
          </ns3:TrackPointExtension>
        </extensions>
      </trkpt>
      <trkpt lat="43.4671472199261188507080078125" lon="1.42134320922195911407470703125">
        <ele>154.8000030517578125</ele>
        <time>2026-08-05T11:36:01.000Z</time>
        <extensions>
          <ns3:TrackPointExtension>
            <ns3:hr>99</ns3:hr>
            <ns3:cad>48</ns3:cad>
          </ns3:TrackPointExtension>
        </extensions>
      </trkpt>
      <trkpt lat="43.4671358205378055572509765625" lon="1.42134438268840312957763671875">
        <ele>154.8000030517578125</ele>
        <time>2026-08-05T11:36:02.000Z</time>
        <extensions>
          <ns3:TrackPointExtension>
            <ns3:hr>99</ns3:hr>
            <ns3:cad>47</ns3:cad>
          </ns3:TrackPointExtension>
        </extensions>
      </trkpt>
      <trkpt lat="43.46712584607303142547607421875" lon="1.421345807611942291259765625">
        <ele>154.8000030517578125</ele>
        <time>2026-08-05T11:36:03.000Z</time>
        <extensions>
          <ns3:TrackPointExtension>
            <ns3:hr>100</ns3:hr>
            <ns3:cad>47</ns3:cad>
          </ns3:TrackPointExtension>
        </extensions>
      </trkpt>
      <trkpt lat="43.467115201056003570556640625" lon="1.42134790308773517608642578125">
        <ele>154.8000030517578125</ele>
        <time>2026-08-05T11:36:04.000Z</time>
        <extensions>
          <ns3:TrackPointExtension>
            <ns3:hr>100</ns3:hr>
            <ns3:cad>47</ns3:cad>
          </ns3:TrackPointExtension>
        </extensions>
      </trkpt>
      <trkpt lat="43.467107824981212615966796875" lon="1.4213550277054309844970703125">
        <ele>154.8000030517578125</ele>
        <time>2026-08-05T11:36:05.000Z</time>
        <extensions>
          <ns3:TrackPointExtension>
            <ns3:hr>100</ns3:hr>
            <ns3:cad>47</ns3:cad>
          </ns3:TrackPointExtension>
        </extensions>
      </trkpt>
      <trkpt lat="43.46709868870675563812255859375" lon="1.421361230313777923583984375">
        <ele>154.8000030517578125</ele>
        <time>2026-08-05T11:36:06.000Z</time>
        <extensions>
          <ns3:TrackPointExtension>
            <ns3:hr>101</ns3:hr>
            <ns3:cad>48</ns3:cad>
          </ns3:TrackPointExtension>
        </extensions>
      </trkpt>
      <trkpt lat="43.4670892171561717987060546875" lon="1.42136584036052227020263671875">
        <ele>154.8000030517578125</ele>
        <time>2026-08-05T11:36:07.000Z</time>
        <extensions>
          <ns3:TrackPointExtension>
            <ns3:hr>101</ns3:hr>
            <ns3:cad>48</ns3:cad>
          </ns3:TrackPointExtension>
        </extensions>
      </trkpt>
      <trkpt lat="43.46707773394882678985595703125" lon="1.42136625945568084716796875">
        <ele>154.8000030517578125</ele>
        <time>2026-08-05T11:36:08.000Z</time>
        <extensions>
          <ns3:TrackPointExtension>
            <ns3:hr>101</ns3:hr>
            <ns3:cad>47</ns3:cad>
          </ns3:TrackPointExtension>
        </extensions>
      </trkpt>
      <trkpt lat="43.4670670889317989349365234375" lon="1.42136667855083942413330078125">
        <ele>154.8000030517578125</ele>
        <time>2026-08-05T11:36:09.000Z</time>
        <extensions>
          <ns3:TrackPointExtension>
            <ns3:hr>100</ns3:hr>
            <ns3:cad>47</ns3:cad>
          </ns3:TrackPointExtension>
        </extensions>
      </trkpt>
      <trkpt lat="43.46705510281026363372802734375" lon="1.421373300254344940185546875">
        <ele>154.8000030517578125</ele>
        <time>2026-08-05T11:36:10.000Z</time>
        <extensions>
          <ns3:TrackPointExtension>
            <ns3:hr>100</ns3:hr>
            <ns3:cad>47</ns3:cad>
          </ns3:TrackPointExtension>
        </extensions>
      </trkpt>
      <trkpt lat="43.46704470925033092498779296875" lon="1.4213795028626918792724609375">
        <ele>154.8000030517578125</ele>
        <time>2026-08-05T11:36:11.000Z</time>
        <extensions>
          <ns3:TrackPointExtension>
            <ns3:hr>100</ns3:hr>
            <ns3:cad>48</ns3:cad>
          </ns3:TrackPointExtension>
        </extensions>
      </trkpt>
      <trkpt lat="43.4670335613191127777099609375" lon="1.42138411290943622589111328125">
        <ele>154.600006103515625</ele>
        <time>2026-08-05T11:36:12.000Z</time>
        <extensions>
          <ns3:TrackPointExtension>
            <ns3:hr>100</ns3:hr>
            <ns3:cad>48</ns3:cad>
          </ns3:TrackPointExtension>
        </extensions>
      </trkpt>
      <trkpt lat="43.4670238383114337921142578125" lon="1.42138964496552944183349609375">
        <ele>154.600006103515625</ele>
        <time>2026-08-05T11:36:13.000Z</time>
        <extensions>
          <ns3:TrackPointExtension>
            <ns3:hr>101</ns3:hr>
            <ns3:cad>48</ns3:cad>
          </ns3:TrackPointExtension>
        </extensions>
      </trkpt>
      <trkpt lat="43.467012941837310791015625" lon="1.42139165662229061126708984375">
        <ele>154.600006103515625</ele>
        <time>2026-08-05T11:36:14.000Z</time>
        <extensions>
          <ns3:TrackPointExtension>
            <ns3:hr>100</ns3:hr>
            <ns3:cad>48</ns3:cad>
          </ns3:TrackPointExtension>
        </extensions>
      </trkpt>
      <trkpt lat="43.4670010395348072052001953125" lon="1.4213955961167812347412109375">
        <ele>154.600006103515625</ele>
        <time>2026-08-05T11:36:15.000Z</time>
        <extensions>
          <ns3:TrackPointExtension>
            <ns3:hr>100</ns3:hr>
            <ns3:cad>48</ns3:cad>
          </ns3:TrackPointExtension>
        </extensions>
      </trkpt>
      <trkpt lat="43.4669886343181133270263671875" lon="1.421400792896747589111328125">
        <ele>154.600006103515625</ele>
        <time>2026-08-05T11:36:16.000Z</time>
        <extensions>
          <ns3:TrackPointExtension>
            <ns3:hr>100</ns3:hr>
            <ns3:cad>48</ns3:cad>
          </ns3:TrackPointExtension>
        </extensions>
      </trkpt>
      <trkpt lat="43.4669785760343074798583984375" lon="1.421402804553508758544921875">
        <ele>154.600006103515625</ele>
        <time>2026-08-05T11:36:17.000Z</time>
        <extensions>
          <ns3:TrackPointExtension>
            <ns3:hr>99</ns3:hr>
            <ns3:cad>48</ns3:cad>
          </ns3:TrackPointExtension>
        </extensions>
      </trkpt>
      <trkpt lat="43.46696793101727962493896484375" lon="1.4214076660573482513427734375">
        <ele>154.600006103515625</ele>
        <time>2026-08-05T11:36:18.000Z</time>
        <extensions>
          <ns3:TrackPointExtension>
            <ns3:hr>99</ns3:hr>
            <ns3:cad>48</ns3:cad>
          </ns3:TrackPointExtension>
        </extensions>
      </trkpt>
      <trkpt lat="43.46695619635283946990966796875" lon="1.421413533389568328857421875">
        <ele>154.600006103515625</ele>
        <time>2026-08-05T11:36:19.000Z</time>
        <extensions>
          <ns3:TrackPointExtension>
            <ns3:hr>99</ns3:hr>
            <ns3:cad>49</ns3:cad>
          </ns3:TrackPointExtension>
        </extensions>
      </trkpt>
      <trkpt lat="43.4669420309364795684814453125" lon="1.42141965217888355255126953125">
        <ele>154.600006103515625</ele>
        <time>2026-08-05T11:36:20.000Z</time>
        <extensions>
          <ns3:TrackPointExtension>
            <ns3:hr>99</ns3:hr>
            <ns3:cad>49</ns3:cad>
          </ns3:TrackPointExtension>
        </extensions>
      </trkpt>
      <trkpt lat="43.4669282846152782440185546875" lon="1.4214230887591838836669921875">
        <ele>154.600006103515625</ele>
        <time>2026-08-05T11:36:21.000Z</time>
        <extensions>
          <ns3:TrackPointExtension>
            <ns3:hr>98</ns3:hr>
            <ns3:cad>48</ns3:cad>
          </ns3:TrackPointExtension>
        </extensions>
      </trkpt>
      <trkpt lat="43.4669175557792186737060546875" lon="1.42142526805400848388671875">
        <ele>154.8000030517578125</ele>
        <time>2026-08-05T11:36:22.000Z</time>
        <extensions>
          <ns3:TrackPointExtension>
            <ns3:hr>98</ns3:hr>
            <ns3:cad>47</ns3:cad>
          </ns3:TrackPointExtension>
        </extensions>
      </trkpt>
      <trkpt lat="43.46690875478088855743408203125" lon="1.421427614986896514892578125">
        <ele>154.8000030517578125</ele>
        <time>2026-08-05T11:36:23.000Z</time>
        <extensions>
          <ns3:TrackPointExtension>
            <ns3:hr>98</ns3:hr>
            <ns3:cad>47</ns3:cad>
          </ns3:TrackPointExtension>
        </extensions>
      </trkpt>
      <trkpt lat="43.4668964333832263946533203125" lon="1.42142920754849910736083984375">
        <ele>154.8000030517578125</ele>
        <time>2026-08-05T11:36:24.000Z</time>
        <extensions>
          <ns3:TrackPointExtension>
            <ns3:hr>98</ns3:hr>
            <ns3:cad>47</ns3:cad>
          </ns3:TrackPointExtension>
        </extensions>
      </trkpt>
      <trkpt lat="43.466884531080722808837890625" lon="1.4214344881474971771240234375">
        <ele>154.8000030517578125</ele>
        <time>2026-08-05T11:36:25.000Z</time>
        <extensions>
          <ns3:TrackPointExtension>
            <ns3:hr>98</ns3:hr>
            <ns3:cad>48</ns3:cad>
          </ns3:TrackPointExtension>
        </extensions>
      </trkpt>
      <trkpt lat="43.4668712876737117767333984375" lon="1.42143641598522663116455078125">
        <ele>154.8000030517578125</ele>
        <time>2026-08-05T11:36:26.000Z</time>
        <extensions>
          <ns3:TrackPointExtension>
            <ns3:hr>98</ns3:hr>
            <ns3:cad>48</ns3:cad>
          </ns3:TrackPointExtension>
        </extensions>
      </trkpt>
      <trkpt lat="43.46685896627604961395263671875" lon="1.421440355479717254638671875">
        <ele>154.8000030517578125</ele>
        <time>2026-08-05T11:36:27.000Z</time>
        <extensions>
          <ns3:TrackPointExtension>
            <ns3:hr>98</ns3:hr>
            <ns3:cad>48</ns3:cad>
          </ns3:TrackPointExtension>
        </extensions>
      </trkpt>
      <trkpt lat="43.46685133874416351318359375" lon="1.42144312150776386260986328125">
        <ele>154.8000030517578125</ele>
        <time>2026-08-05T11:36:28.000Z</time>
        <extensions>
          <ns3:TrackPointExtension>
            <ns3:hr>98</ns3:hr>
            <ns3:cad>48</ns3:cad>
          </ns3:TrackPointExtension>
        </extensions>
      </trkpt>
      <trkpt lat="43.46684052608907222747802734375" lon="1.421446390450000762939453125">
        <ele>154.8000030517578125</ele>
        <time>2026-08-05T11:36:29.000Z</time>
        <extensions>
          <ns3:TrackPointExtension>
            <ns3:hr>97</ns3:hr>
            <ns3:cad>49</ns3:cad>
          </ns3:TrackPointExtension>
        </extensions>
      </trkpt>
      <trkpt lat="43.46682778559625148773193359375" lon="1.42145267687737941741943359375">
        <ele>154.8000030517578125</ele>
        <time>2026-08-05T11:36:30.000Z</time>
        <extensions>
          <ns3:TrackPointExtension>
            <ns3:hr>96</ns3:hr>
            <ns3:cad>49</ns3:cad>
          </ns3:TrackPointExtension>
        </extensions>
      </trkpt>
      <trkpt lat="43.46681621856987476348876953125" lon="1.42145745456218719482421875">
        <ele>154.8000030517578125</ele>
        <time>2026-08-05T11:36:31.000Z</time>
        <extensions>
          <ns3:TrackPointExtension>
            <ns3:hr>96</ns3:hr>
            <ns3:cad>47</ns3:cad>
          </ns3:TrackPointExtension>
        </extensions>
      </trkpt>
      <trkpt lat="43.46680683083832263946533203125" lon="1.421459801495075225830078125">
        <ele>154.8000030517578125</ele>
        <time>2026-08-05T11:36:32.000Z</time>
        <extensions>
          <ns3:TrackPointExtension>
            <ns3:hr>96</ns3:hr>
            <ns3:cad>47</ns3:cad>
          </ns3:TrackPointExtension>
        </extensions>
      </trkpt>
      <trkpt lat="43.46679911948740482330322265625" lon="1.421457789838314056396484375">
        <ele>154.8000030517578125</ele>
        <time>2026-08-05T11:36:33.000Z</time>
        <extensions>
          <ns3:TrackPointExtension>
            <ns3:hr>96</ns3:hr>
            <ns3:cad>47</ns3:cad>
          </ns3:TrackPointExtension>
        </extensions>
      </trkpt>
      <trkpt lat="43.4667889773845672607421875" lon="1.4214609749615192413330078125">
        <ele>154.8000030517578125</ele>
        <time>2026-08-05T11:36:34.000Z</time>
        <extensions>
          <ns3:TrackPointExtension>
            <ns3:hr>97</ns3:hr>
            <ns3:cad>47</ns3:cad>
          </ns3:TrackPointExtension>
        </extensions>
      </trkpt>
      <trkpt lat="43.46677967347204685211181640625" lon="1.42146608792245388031005859375">
        <ele>154.8000030517578125</ele>
        <time>2026-08-05T11:36:35.000Z</time>
        <extensions>
          <ns3:TrackPointExtension>
            <ns3:hr>97</ns3:hr>
            <ns3:cad>48</ns3:cad>
          </ns3:TrackPointExtension>
        </extensions>
      </trkpt>
      <trkpt lat="43.46677162684500217437744140625" lon="1.42146952450275421142578125">
        <ele>154.8000030517578125</ele>
        <time>2026-08-05T11:36:36.000Z</time>
        <extensions>
          <ns3:TrackPointExtension>
            <ns3:hr>97</ns3:hr>
            <ns3:cad>48</ns3:cad>
          </ns3:TrackPointExtension>
        </extensions>
      </trkpt>
      <trkpt lat="43.4667623229324817657470703125" lon="1.421473883092403411865234375">
        <ele>154.8000030517578125</ele>
        <time>2026-08-05T11:36:37.000Z</time>
        <extensions>
          <ns3:TrackPointExtension>
            <ns3:hr>97</ns3:hr>
            <ns3:cad>48</ns3:cad>
          </ns3:TrackPointExtension>
        </extensions>
      </trkpt>
      <trkpt lat="43.46675083972513675689697265625" lon="1.4214777387678623199462890625">
        <ele>154.8000030517578125</ele>
        <time>2026-08-05T11:36:38.000Z</time>
        <extensions>
          <ns3:TrackPointExtension>
            <ns3:hr>97</ns3:hr>
            <ns3:cad>48</ns3:cad>
          </ns3:TrackPointExtension>
        </extensions>
      </trkpt>
      <trkpt lat="43.46673809923231601715087890625" lon="1.42148134298622608184814453125">
        <ele>154.8000030517578125</ele>
        <time>2026-08-05T11:36:39.000Z</time>
        <extensions>
          <ns3:TrackPointExtension>
            <ns3:hr>97</ns3:hr>
            <ns3:cad>48</ns3:cad>
          </ns3:TrackPointExtension>
        </extensions>
      </trkpt>
      <trkpt lat="43.46672552637755870819091796875" lon="1.42148704268038272857666015625">
        <ele>154.8000030517578125</ele>
        <time>2026-08-05T11:36:40.000Z</time>
        <extensions>
          <ns3:TrackPointExtension>
            <ns3:hr>97</ns3:hr>
            <ns3:cad>47</ns3:cad>
          </ns3:TrackPointExtension>
        </extensions>
      </trkpt>
      <trkpt lat="43.4667150489985942840576171875" lon="1.42149098217487335205078125">
        <ele>154.8000030517578125</ele>
        <time>2026-08-05T11:36:41.000Z</time>
        <extensions>
          <ns3:TrackPointExtension>
            <ns3:hr>97</ns3:hr>
            <ns3:cad>48</ns3:cad>
          </ns3:TrackPointExtension>
        </extensions>
      </trkpt>
      <trkpt lat="43.46670524217188358306884765625" lon="1.42149324528872966766357421875">
        <ele>154.8000030517578125</ele>
        <time>2026-08-05T11:36:42.000Z</time>
        <extensions>
          <ns3:TrackPointExtension>
            <ns3:hr>97</ns3:hr>
            <ns3:cad>48</ns3:cad>
          </ns3:TrackPointExtension>
        </extensions>
      </trkpt>
      <trkpt lat="43.46669501625001430511474609375" lon="1.421496681869029998779296875">
        <ele>154.8000030517578125</ele>
        <time>2026-08-05T11:36:43.000Z</time>
        <extensions>
          <ns3:TrackPointExtension>
            <ns3:hr>98</ns3:hr>
            <ns3:cad>48</ns3:cad>
          </ns3:TrackPointExtension>
        </extensions>
      </trkpt>
      <trkpt lat="43.4666852094233036041259765625" lon="1.42150171101093292236328125">
        <ele>154.8000030517578125</ele>
        <time>2026-08-05T11:36:44.000Z</time>
        <extensions>
          <ns3:TrackPointExtension>
            <ns3:hr>97</ns3:hr>
            <ns3:cad>48</ns3:cad>
          </ns3:TrackPointExtension>
        </extensions>
      </trkpt>
      <trkpt lat="43.46667590551078319549560546875" lon="1.42150766216218471527099609375">
        <ele>154.8000030517578125</ele>
        <time>2026-08-05T11:36:45.000Z</time>
        <extensions>
          <ns3:TrackPointExtension>
            <ns3:hr>98</ns3:hr>
            <ns3:cad>48</ns3:cad>
          </ns3:TrackPointExtension>
        </extensions>
      </trkpt>
      <trkpt lat="43.46666450612246990203857421875" lon="1.42150950618088245391845703125">
        <ele>154.8000030517578125</ele>
        <time>2026-08-05T11:36:46.000Z</time>
        <extensions>
          <ns3:TrackPointExtension>
            <ns3:hr>98</ns3:hr>
            <ns3:cad>48</ns3:cad>
          </ns3:TrackPointExtension>
        </extensions>
      </trkpt>
      <trkpt lat="43.4666523523628711700439453125" lon="1.42151420004665851593017578125">
        <ele>154.8000030517578125</ele>
        <time>2026-08-05T11:36:47.000Z</time>
        <extensions>
          <ns3:TrackPointExtension>
            <ns3:hr>98</ns3:hr>
            <ns3:cad>47</ns3:cad>
          </ns3:TrackPointExtension>
        </extensions>
      </trkpt>
      <trkpt lat="43.46664003096520900726318359375" lon="1.4215183071792125701904296875">
        <ele>154.8000030517578125</ele>
        <time>2026-08-05T11:36:48.000Z</time>
        <extensions>
          <ns3:TrackPointExtension>
            <ns3:hr>98</ns3:hr>
            <ns3:cad>47</ns3:cad>
          </ns3:TrackPointExtension>
        </extensions>
      </trkpt>
      <trkpt lat="43.46662879921495914459228515625" lon="1.42152719199657440185546875">
        <ele>154.600006103515625</ele>
        <time>2026-08-05T11:36:49.000Z</time>
        <extensions>
          <ns3:TrackPointExtension>
            <ns3:hr>98</ns3:hr>
            <ns3:cad>47</ns3:cad>
          </ns3:TrackPointExtension>
        </extensions>
      </trkpt>
      <trkpt lat="43.46661471761763095855712890625" lon="1.4215333946049213409423828125">
        <ele>154.600006103515625</ele>
        <time>2026-08-05T11:36:50.000Z</time>
        <extensions>
          <ns3:TrackPointExtension>
            <ns3:hr>98</ns3:hr>
            <ns3:cad>47</ns3:cad>
          </ns3:TrackPointExtension>
        </extensions>
      </trkpt>
      <trkpt lat="43.46660113893449306488037109375" lon="1.42153331078588962554931640625">
        <ele>154.600006103515625</ele>
        <time>2026-08-05T11:36:51.000Z</time>
        <extensions>
          <ns3:TrackPointExtension>
            <ns3:hr>98</ns3:hr>
            <ns3:cad>48</ns3:cad>
          </ns3:TrackPointExtension>
        </extensions>
      </trkpt>
      <trkpt lat="43.46659116446971893310546875" lon="1.4215347357094287872314453125">
        <ele>154.600006103515625</ele>
        <time>2026-08-05T11:36:52.000Z</time>
        <extensions>
          <ns3:TrackPointExtension>
            <ns3:hr>98</ns3:hr>
            <ns3:cad>48</ns3:cad>
          </ns3:TrackPointExtension>
        </extensions>
      </trkpt>
      <trkpt lat="43.46658269874751567840576171875" lon="1.421538256108760833740234375">
        <ele>154.600006103515625</ele>
        <time>2026-08-05T11:36:53.000Z</time>
        <extensions>
          <ns3:TrackPointExtension>
            <ns3:hr>98</ns3:hr>
            <ns3:cad>48</ns3:cad>
          </ns3:TrackPointExtension>
        </extensions>
      </trkpt>
      <trkpt lat="43.466574735939502716064453125" lon="1.4215451292693614959716796875">
        <ele>154.600006103515625</ele>
        <time>2026-08-05T11:36:54.000Z</time>
        <extensions>
          <ns3:TrackPointExtension>
            <ns3:hr>99</ns3:hr>
            <ns3:cad>48</ns3:cad>
          </ns3:TrackPointExtension>
        </extensions>
      </trkpt>
      <trkpt lat="43.46656694076955318450927734375" lon="1.421548984944820404052734375">
        <ele>154.8000030517578125</ele>
        <time>2026-08-05T11:36:55.000Z</time>
        <extensions>
          <ns3:TrackPointExtension>
            <ns3:hr>99</ns3:hr>
            <ns3:cad>47</ns3:cad>
          </ns3:TrackPointExtension>
        </extensions>
      </trkpt>
      <trkpt lat="43.46655763685703277587890625" lon="1.42155024223029613494873046875">
        <ele>154.8000030517578125</ele>
        <time>2026-08-05T11:36:56.000Z</time>
        <extensions>
          <ns3:TrackPointExtension>
            <ns3:hr>100</ns3:hr>
            <ns3:cad>47</ns3:cad>
          </ns3:TrackPointExtension>
        </extensions>
      </trkpt>
      <trkpt lat="43.46654959022998809814453125" lon="1.42155292443931102752685546875">
        <ele>154.8000030517578125</ele>
        <time>2026-08-05T11:36:57.000Z</time>
        <extensions>
          <ns3:TrackPointExtension>
            <ns3:hr>100</ns3:hr>
            <ns3:cad>48</ns3:cad>
          </ns3:TrackPointExtension>
        </extensions>
      </trkpt>
      <trkpt lat="43.466537185013294219970703125" lon="1.42155812121927738189697265625">
        <ele>155</ele>
        <time>2026-08-05T11:36:58.000Z</time>
        <extensions>
          <ns3:TrackPointExtension>
            <ns3:hr>100</ns3:hr>
            <ns3:cad>48</ns3:cad>
          </ns3:TrackPointExtension>
        </extensions>
      </trkpt>
      <trkpt lat="43.466525115072727203369140625" lon="1.421562731266021728515625">
        <ele>155</ele>
        <time>2026-08-05T11:36:59.000Z</time>
        <extensions>
          <ns3:TrackPointExtension>
            <ns3:hr>101</ns3:hr>
            <ns3:cad>48</ns3:cad>
          </ns3:TrackPointExtension>
        </extensions>
      </trkpt>
      <trkpt lat="43.466514386236667633056640625" lon="1.42156683839857578277587890625">
        <ele>155</ele>
        <time>2026-08-05T11:37:00.000Z</time>
        <extensions>
          <ns3:TrackPointExtension>
            <ns3:hr>101</ns3:hr>
            <ns3:cad>48</ns3:cad>
          </ns3:TrackPointExtension>
        </extensions>
      </trkpt>
      <trkpt lat="43.46650441177189350128173828125" lon="1.421571113169193267822265625">
        <ele>155</ele>
        <time>2026-08-05T11:37:01.000Z</time>
        <extensions>
          <ns3:TrackPointExtension>
            <ns3:hr>101</ns3:hr>
            <ns3:cad>48</ns3:cad>
          </ns3:TrackPointExtension>
        </extensions>
      </trkpt>
      <trkpt lat="43.466492928564548492431640625" lon="1.42157706432044506072998046875">
        <ele>155</ele>
        <time>2026-08-05T11:37:02.000Z</time>
        <extensions>
          <ns3:TrackPointExtension>
            <ns3:hr>100</ns3:hr>
            <ns3:cad>47</ns3:cad>
          </ns3:TrackPointExtension>
        </extensions>
      </trkpt>
      <trkpt lat="43.466481529176235198974609375" lon="1.4215843565762042999267578125">
        <ele>155</ele>
        <time>2026-08-05T11:37:03.000Z</time>
        <extensions>
          <ns3:TrackPointExtension>
            <ns3:hr>100</ns3:hr>
            <ns3:cad>47</ns3:cad>
          </ns3:TrackPointExtension>
        </extensions>
      </trkpt>
      <trkpt lat="43.46647071652114391326904296875" lon="1.42158963717520236968994140625">
        <ele>155</ele>
        <time>2026-08-05T11:37:04.000Z</time>
        <extensions>
          <ns3:TrackPointExtension>
            <ns3:hr>100</ns3:hr>
            <ns3:cad>47</ns3:cad>
          </ns3:TrackPointExtension>
        </extensions>
      </trkpt>
      <trkpt lat="43.46645965240895748138427734375" lon="1.42159382812678813934326171875">
        <ele>155</ele>
        <time>2026-08-05T11:37:05.000Z</time>
        <extensions>
          <ns3:TrackPointExtension>
            <ns3:hr>100</ns3:hr>
            <ns3:cad>47</ns3:cad>
          </ns3:TrackPointExtension>
        </extensions>
      </trkpt>
      <trkpt lat="43.46644691191613674163818359375" lon="1.42159466631710529327392578125">
        <ele>155</ele>
        <time>2026-08-05T11:37:06.000Z</time>
        <extensions>
          <ns3:TrackPointExtension>
            <ns3:hr>101</ns3:hr>
            <ns3:cad>47</ns3:cad>
          </ns3:TrackPointExtension>
        </extensions>
      </trkpt>
      <trkpt lat="43.46643626689910888671875" lon="1.42159952782094478607177734375">
        <ele>155</ele>
        <time>2026-08-05T11:37:07.000Z</time>
        <extensions>
          <ns3:TrackPointExtension>
            <ns3:hr>100</ns3:hr>
            <ns3:cad>47</ns3:cad>
          </ns3:TrackPointExtension>
        </extensions>
      </trkpt>
      <trkpt lat="43.4664253704249858856201171875" lon="1.4216071553528308868408203125">
        <ele>155</ele>
        <time>2026-08-05T11:37:08.000Z</time>
        <extensions>
          <ns3:TrackPointExtension>
            <ns3:hr>101</ns3:hr>
            <ns3:cad>47</ns3:cad>
          </ns3:TrackPointExtension>
        </extensions>
      </trkpt>
      <trkpt lat="43.4664159826934337615966796875" lon="1.42160941846668720245361328125">
        <ele>155</ele>
        <time>2026-08-05T11:37:09.000Z</time>
        <extensions>
          <ns3:TrackPointExtension>
            <ns3:hr>101</ns3:hr>
            <ns3:cad>47</ns3:cad>
          </ns3:TrackPointExtension>
        </extensions>
      </trkpt>
      <trkpt lat="43.4664052538573741912841796875" lon="1.4216101728379726409912109375">
        <ele>155</ele>
        <time>2026-08-05T11:37:10.000Z</time>
        <extensions>
          <ns3:TrackPointExtension>
            <ns3:hr>100</ns3:hr>
            <ns3:cad>47</ns3:cad>
          </ns3:TrackPointExtension>
        </extensions>
      </trkpt>
      <trkpt lat="43.46639410592615604400634765625" lon="1.42161126248538494110107421875">
        <ele>155</ele>
        <time>2026-08-05T11:37:11.000Z</time>
        <extensions>
          <ns3:TrackPointExtension>
            <ns3:hr>100</ns3:hr>
            <ns3:cad>47</ns3:cad>
          </ns3:TrackPointExtension>
        </extensions>
      </trkpt>
      <trkpt lat="43.466385640203952789306640625" lon="1.42161277122795581817626953125">
        <ele>155</ele>
        <time>2026-08-05T11:37:12.000Z</time>
        <extensions>
          <ns3:TrackPointExtension>
            <ns3:hr>100</ns3:hr>
            <ns3:cad>47</ns3:cad>
          </ns3:TrackPointExtension>
        </extensions>
      </trkpt>
      <trkpt lat="43.4663774259388446807861328125" lon="1.42161972820758819580078125">
        <ele>155</ele>
        <time>2026-08-05T11:37:13.000Z</time>
        <extensions>
          <ns3:TrackPointExtension>
            <ns3:hr>100</ns3:hr>
            <ns3:cad>48</ns3:cad>
          </ns3:TrackPointExtension>
        </extensions>
      </trkpt>
      <trkpt lat="43.466364853084087371826171875" lon="1.4216266013681888580322265625">
        <ele>155</ele>
        <time>2026-08-05T11:37:14.000Z</time>
        <extensions>
          <ns3:TrackPointExtension>
            <ns3:hr>101</ns3:hr>
            <ns3:cad>48</ns3:cad>
          </ns3:TrackPointExtension>
        </extensions>
      </trkpt>
      <trkpt lat="43.4663532860577106475830078125" lon="1.421629451215267181396484375">
        <ele>155.1999969482421875</ele>
        <time>2026-08-05T11:37:15.000Z</time>
        <extensions>
          <ns3:TrackPointExtension>
            <ns3:hr>100</ns3:hr>
            <ns3:cad>48</ns3:cad>
          </ns3:TrackPointExtension>
        </extensions>
      </trkpt>
      <trkpt lat="43.4663425572216510772705078125" lon="1.421635150909423828125">
        <ele>155.1999969482421875</ele>
        <time>2026-08-05T11:37:16.000Z</time>
        <extensions>
          <ns3:TrackPointExtension>
            <ns3:hr>100</ns3:hr>
            <ns3:cad>48</ns3:cad>
          </ns3:TrackPointExtension>
        </extensions>
      </trkpt>
      <trkpt lat="43.4663288109004497528076171875" lon="1.421641521155834197998046875">
        <ele>155.1999969482421875</ele>
        <time>2026-08-05T11:37:17.000Z</time>
        <extensions>
          <ns3:TrackPointExtension>
            <ns3:hr>101</ns3:hr>
            <ns3:cad>48</ns3:cad>
          </ns3:TrackPointExtension>
        </extensions>
      </trkpt>
      <trkpt lat="43.46631531603634357452392578125" lon="1.42164613120257854461669921875">
        <ele>155.1999969482421875</ele>
        <time>2026-08-05T11:37:18.000Z</time>
        <extensions>
          <ns3:TrackPointExtension>
            <ns3:hr>101</ns3:hr>
            <ns3:cad>48</ns3:cad>
          </ns3:TrackPointExtension>
        </extensions>
      </trkpt>
      <trkpt lat="43.466303162276744842529296875" lon="1.4216510765254497528076171875">
        <ele>155.1999969482421875</ele>
        <time>2026-08-05T11:37:19.000Z</time>
        <extensions>
          <ns3:TrackPointExtension>
            <ns3:hr>101</ns3:hr>
            <ns3:cad>48</ns3:cad>
          </ns3:TrackPointExtension>
        </extensions>
      </trkpt>
      <trkpt lat="43.46629402600228786468505859375" lon="1.421652249991893768310546875">
        <ele>155</ele>
        <time>2026-08-05T11:37:20.000Z</time>
        <extensions>
          <ns3:TrackPointExtension>
            <ns3:hr>101</ns3:hr>
            <ns3:cad>48</ns3:cad>
          </ns3:TrackPointExtension>
        </extensions>
      </trkpt>
      <trkpt lat="43.466286398470401763916015625" lon="1.421649567782878875732421875">
        <ele>155</ele>
        <time>2026-08-05T11:37:21.000Z</time>
        <extensions>
          <ns3:TrackPointExtension>
            <ns3:hr>101</ns3:hr>
            <ns3:cad>48</ns3:cad>
          </ns3:TrackPointExtension>
        </extensions>
      </trkpt>
      <trkpt lat="43.4662734903395175933837890625" lon="1.4216552674770355224609375">
        <ele>155</ele>
        <time>2026-08-05T11:37:22.000Z</time>
        <extensions>
          <ns3:TrackPointExtension>
            <ns3:hr>100</ns3:hr>
            <ns3:cad>47</ns3:cad>
          </ns3:TrackPointExtension>
        </extensions>
      </trkpt>
      <trkpt lat="43.46626167185604572296142578125" lon="1.421662308275699615478515625">
        <ele>155</ele>
        <time>2026-08-05T11:37:23.000Z</time>
        <extensions>
          <ns3:TrackPointExtension>
            <ns3:hr>101</ns3:hr>
            <ns3:cad>47</ns3:cad>
          </ns3:TrackPointExtension>
        </extensions>
      </trkpt>
      <trkpt lat="43.46625044010579586029052734375" lon="1.4216659963130950927734375">
        <ele>155</ele>
        <time>2026-08-05T11:37:24.000Z</time>
        <extensions>
          <ns3:TrackPointExtension>
            <ns3:hr>101</ns3:hr>
            <ns3:cad>47</ns3:cad>
          </ns3:TrackPointExtension>
        </extensions>
      </trkpt>
      <trkpt lat="43.46624172292649745941162109375" lon="1.42166792415082454681396484375">
        <ele>155</ele>
        <time>2026-08-05T11:37:25.000Z</time>
        <extensions>
          <ns3:TrackPointExtension>
            <ns3:hr>101</ns3:hr>
            <ns3:cad>47</ns3:cad>
          </ns3:TrackPointExtension>
        </extensions>
      </trkpt>
      <trkpt lat="43.46623216755688190460205078125" lon="1.42167337238788604736328125">
        <ele>155</ele>
        <time>2026-08-05T11:37:26.000Z</time>
        <extensions>
          <ns3:TrackPointExtension>
            <ns3:hr>102</ns3:hr>
            <ns3:cad>47</ns3:cad>
          </ns3:TrackPointExtension>
        </extensions>
      </trkpt>
      <trkpt lat="43.46622043289244174957275390625" lon="1.4216812513768672943115234375">
        <ele>155</ele>
        <time>2026-08-05T11:37:27.000Z</time>
        <extensions>
          <ns3:TrackPointExtension>
            <ns3:hr>102</ns3:hr>
            <ns3:cad>48</ns3:cad>
          </ns3:TrackPointExtension>
        </extensions>
      </trkpt>
      <trkpt lat="43.46620802767574787139892578125" lon="1.421685107052326202392578125">
        <ele>155</ele>
        <time>2026-08-05T11:37:28.000Z</time>
        <extensions>
          <ns3:TrackPointExtension>
            <ns3:hr>102</ns3:hr>
            <ns3:cad>48</ns3:cad>
          </ns3:TrackPointExtension>
        </extensions>
      </trkpt>
      <trkpt lat="43.46619646064937114715576171875" lon="1.42168770544230937957763671875">
        <ele>155</ele>
        <time>2026-08-05T11:37:29.000Z</time>
        <extensions>
          <ns3:TrackPointExtension>
            <ns3:hr>102</ns3:hr>
            <ns3:cad>48</ns3:cad>
          </ns3:TrackPointExtension>
        </extensions>
      </trkpt>
      <trkpt lat="43.46618338488042354583740234375" lon="1.42168954946100711822509765625">
        <ele>155</ele>
        <time>2026-08-05T11:37:30.000Z</time>
        <extensions>
          <ns3:TrackPointExtension>
            <ns3:hr>101</ns3:hr>
            <ns3:cad>48</ns3:cad>
          </ns3:TrackPointExtension>
        </extensions>
      </trkpt>
      <trkpt lat="43.4661735780537128448486328125" lon="1.42168988473713397979736328125">
        <ele>155</ele>
        <time>2026-08-05T11:37:31.000Z</time>
        <extensions>
          <ns3:TrackPointExtension>
            <ns3:hr>101</ns3:hr>
            <ns3:cad>48</ns3:cad>
          </ns3:TrackPointExtension>
        </extensions>
      </trkpt>
      <trkpt lat="43.46616343595087528228759765625" lon="1.42169340513646602630615234375">
        <ele>155</ele>
        <time>2026-08-05T11:37:32.000Z</time>
        <extensions>
          <ns3:TrackPointExtension>
            <ns3:hr>100</ns3:hr>
            <ns3:cad>48</ns3:cad>
          </ns3:TrackPointExtension>
        </extensions>
      </trkpt>
      <trkpt lat="43.4661541320383548736572265625" lon="1.4216976799070835113525390625">
        <ele>154.8000030517578125</ele>
        <time>2026-08-05T11:37:33.000Z</time>
        <extensions>
          <ns3:TrackPointExtension>
            <ns3:hr>100</ns3:hr>
            <ns3:cad>48</ns3:cad>
          </ns3:TrackPointExtension>
        </extensions>
      </trkpt>
      <trkpt lat="43.46614633686840534210205078125" lon="1.42170178703963756561279296875">
        <ele>154.8000030517578125</ele>
        <time>2026-08-05T11:37:34.000Z</time>
        <extensions>
          <ns3:TrackPointExtension>
            <ns3:hr>100</ns3:hr>
            <ns3:cad>48</ns3:cad>
          </ns3:TrackPointExtension>
        </extensions>
      </trkpt>
      <trkpt lat="43.466138876974582672119140625" lon="1.42170346342027187347412109375">
        <ele>154.8000030517578125</ele>
        <time>2026-08-05T11:37:35.000Z</time>
        <extensions>
          <ns3:TrackPointExtension>
            <ns3:hr>101</ns3:hr>
            <ns3:cad>48</ns3:cad>
          </ns3:TrackPointExtension>
        </extensions>
      </trkpt>
      <trkpt lat="43.46612554974853992462158203125" lon="1.42171218059957027435302734375">
        <ele>154.8000030517578125</ele>
        <time>2026-08-05T11:37:36.000Z</time>
        <extensions>
          <ns3:TrackPointExtension>
            <ns3:hr>101</ns3:hr>
            <ns3:cad>48</ns3:cad>
          </ns3:TrackPointExtension>
        </extensions>
      </trkpt>
      <trkpt lat="43.46611515618860721588134765625" lon="1.4217177964746952056884765625">
        <ele>155</ele>
        <time>2026-08-05T11:37:37.000Z</time>
        <extensions>
          <ns3:TrackPointExtension>
            <ns3:hr>102</ns3:hr>
            <ns3:cad>48</ns3:cad>
          </ns3:TrackPointExtension>
        </extensions>
      </trkpt>
      <trkpt lat="43.46610576845705509185791015625" lon="1.42172039486467838287353515625">
        <ele>155</ele>
        <time>2026-08-05T11:37:38.000Z</time>
        <extensions>
          <ns3:TrackPointExtension>
            <ns3:hr>102</ns3:hr>
            <ns3:cad>47</ns3:cad>
          </ns3:TrackPointExtension>
        </extensions>
      </trkpt>
      <trkpt lat="43.4660998173058032989501953125" lon="1.42171888612210750579833984375">
        <ele>155.1999969482421875</ele>
        <time>2026-08-05T11:37:39.000Z</time>
        <extensions>
          <ns3:TrackPointExtension>
            <ns3:hr>102</ns3:hr>
            <ns3:cad>47</ns3:cad>
          </ns3:TrackPointExtension>
        </extensions>
      </trkpt>
      <trkpt lat="43.46608716063201427459716796875" lon="1.42172207124531269073486328125">
        <ele>155.1999969482421875</ele>
        <time>2026-08-05T11:37:40.000Z</time>
        <extensions>
          <ns3:TrackPointExtension>
            <ns3:hr>101</ns3:hr>
            <ns3:cad>47</ns3:cad>
          </ns3:TrackPointExtension>
        </extensions>
      </trkpt>
      <trkpt lat="43.4660781919956207275390625" lon="1.4217275194823741912841796875">
        <ele>155.1999969482421875</ele>
        <time>2026-08-05T11:37:41.000Z</time>
        <extensions>
          <ns3:TrackPointExtension>
            <ns3:hr>101</ns3:hr>
            <ns3:cad>47</ns3:cad>
          </ns3:TrackPointExtension>
        </extensions>
      </trkpt>
      <trkpt lat="43.46607006154954433441162109375" lon="1.42173330299556255340576171875">
        <ele>155.1999969482421875</ele>
        <time>2026-08-05T11:37:42.000Z</time>
        <extensions>
          <ns3:TrackPointExtension>
            <ns3:hr>101</ns3:hr>
            <ns3:cad>47</ns3:cad>
          </ns3:TrackPointExtension>
        </extensions>
      </trkpt>
      <trkpt lat="43.4660595841705799102783203125" lon="1.4217359013855457305908203125">
        <ele>155.1999969482421875</ele>
        <time>2026-08-05T11:37:43.000Z</time>
        <extensions>
          <ns3:TrackPointExtension>
            <ns3:hr>101</ns3:hr>
            <ns3:cad>47</ns3:cad>
          </ns3:TrackPointExtension>
        </extensions>
      </trkpt>
      <trkpt lat="43.4660518728196620941162109375" lon="1.42174202017486095428466796875">
        <ele>155.1999969482421875</ele>
        <time>2026-08-05T11:37:44.000Z</time>
        <extensions>
          <ns3:TrackPointExtension>
            <ns3:hr>101</ns3:hr>
            <ns3:cad>46</ns3:cad>
          </ns3:TrackPointExtension>
        </extensions>
      </trkpt>
      <trkpt lat="43.46603929996490478515625" lon="1.4217473007738590240478515625">
        <ele>155.399993896484375</ele>
        <time>2026-08-05T11:37:45.000Z</time>
        <extensions>
          <ns3:TrackPointExtension>
            <ns3:hr>100</ns3:hr>
            <ns3:cad>46</ns3:cad>
          </ns3:TrackPointExtension>
        </extensions>
      </trkpt>
      <trkpt lat="43.4660314209759235382080078125" lon="1.42174922861158847808837890625">
        <ele>155.399993896484375</ele>
        <time>2026-08-05T11:37:46.000Z</time>
        <extensions>
          <ns3:TrackPointExtension>
            <ns3:hr>100</ns3:hr>
            <ns3:cad>45</ns3:cad>
          </ns3:TrackPointExtension>
        </extensions>
      </trkpt>
      <trkpt lat="43.4660237096250057220458984375" lon="1.4217486418783664703369140625">
        <ele>155.399993896484375</ele>
        <time>2026-08-05T11:37:47.000Z</time>
        <extensions>
          <ns3:TrackPointExtension>
            <ns3:hr>100</ns3:hr>
            <ns3:cad>45</ns3:cad>
          </ns3:TrackPointExtension>
        </extensions>
      </trkpt>
      <trkpt lat="43.4660156629979610443115234375" lon="1.4217491447925567626953125">
        <ele>155.399993896484375</ele>
        <time>2026-08-05T11:37:48.000Z</time>
        <extensions>
          <ns3:TrackPointExtension>
            <ns3:hr>98</ns3:hr>
            <ns3:cad>46</ns3:cad>
          </ns3:TrackPointExtension>
        </extensions>
      </trkpt>
      <trkpt lat="43.4660029225051403045654296875" lon="1.42175358720123767852783203125">
        <ele>155.399993896484375</ele>
        <time>2026-08-05T11:37:49.000Z</time>
        <extensions>
          <ns3:TrackPointExtension>
            <ns3:hr>98</ns3:hr>
            <ns3:cad>46</ns3:cad>
          </ns3:TrackPointExtension>
        </extensions>
      </trkpt>
      <trkpt lat="43.46599169075489044189453125" lon="1.42175861634314060211181640625">
        <ele>155.1999969482421875</ele>
        <time>2026-08-05T11:37:50.000Z</time>
        <extensions>
          <ns3:TrackPointExtension>
            <ns3:hr>97</ns3:hr>
            <ns3:cad>46</ns3:cad>
          </ns3:TrackPointExtension>
        </extensions>
      </trkpt>
      <trkpt lat="43.4659797884523868560791015625" lon="1.421761550009250640869140625">
        <ele>155.1999969482421875</ele>
        <time>2026-08-05T11:37:51.000Z</time>
        <extensions>
          <ns3:TrackPointExtension>
            <ns3:hr>97</ns3:hr>
            <ns3:cad>46</ns3:cad>
          </ns3:TrackPointExtension>
        </extensions>
      </trkpt>
      <trkpt lat="43.465972580015659332275390625" lon="1.42176322638988494873046875">
        <ele>155.1999969482421875</ele>
        <time>2026-08-05T11:37:52.000Z</time>
        <extensions>
          <ns3:TrackPointExtension>
            <ns3:hr>96</ns3:hr>
            <ns3:cad>46</ns3:cad>
          </ns3:TrackPointExtension>
        </extensions>
      </trkpt>
      <trkpt lat="43.46595975570380687713623046875" lon="1.42177202738821506500244140625">
        <ele>155.399993896484375</ele>
        <time>2026-08-05T11:37:53.000Z</time>
        <extensions>
          <ns3:TrackPointExtension>
            <ns3:hr>96</ns3:hr>
            <ns3:cad>47</ns3:cad>
          </ns3:TrackPointExtension>
        </extensions>
      </trkpt>
      <trkpt lat="43.46594584174454212188720703125" lon="1.42178057692945003509521484375">
        <ele>155.399993896484375</ele>
        <time>2026-08-05T11:37:54.000Z</time>
        <extensions>
          <ns3:TrackPointExtension>
            <ns3:hr>96</ns3:hr>
            <ns3:cad>45</ns3:cad>
          </ns3:TrackPointExtension>
        </extensions>
      </trkpt>
      <trkpt lat="43.4659338556230068206787109375" lon="1.4217821694910526275634765625">
        <ele>155.399993896484375</ele>
        <time>2026-08-05T11:37:55.000Z</time>
        <extensions>
          <ns3:TrackPointExtension>
            <ns3:hr>96</ns3:hr>
            <ns3:cad>45</ns3:cad>
          </ns3:TrackPointExtension>
        </extensions>
      </trkpt>
      <trkpt lat="43.46592203713953495025634765625" lon="1.42178275622427463531494140625">
        <ele>155.600006103515625</ele>
        <time>2026-08-05T11:37:56.000Z</time>
        <extensions>
          <ns3:TrackPointExtension>
            <ns3:hr>96</ns3:hr>
            <ns3:cad>45</ns3:cad>
          </ns3:TrackPointExtension>
        </extensions>
      </trkpt>
      <trkpt lat="43.46591516397893428802490234375" lon="1.42178510315716266632080078125">
        <ele>155.600006103515625</ele>
        <time>2026-08-05T11:37:57.000Z</time>
        <extensions>
          <ns3:TrackPointExtension>
            <ns3:hr>96</ns3:hr>
            <ns3:cad>46</ns3:cad>
          </ns3:TrackPointExtension>
        </extensions>
      </trkpt>
      <trkpt lat="43.46590443514287471771240234375" lon="1.42178828828036785125732421875">
        <ele>155.600006103515625</ele>
        <time>2026-08-05T11:37:58.000Z</time>
        <extensions>
          <ns3:TrackPointExtension>
            <ns3:hr>97</ns3:hr>
            <ns3:cad>48</ns3:cad>
          </ns3:TrackPointExtension>
        </extensions>
      </trkpt>
      <trkpt lat="43.4658916108310222625732421875" lon="1.4217959158122539520263671875">
        <ele>155.399993896484375</ele>
        <time>2026-08-05T11:37:59.000Z</time>
        <extensions>
          <ns3:TrackPointExtension>
            <ns3:hr>96</ns3:hr>
            <ns3:cad>48</ns3:cad>
          </ns3:TrackPointExtension>
        </extensions>
      </trkpt>
      <trkpt lat="43.46588130109012126922607421875" lon="1.421805135905742645263671875">
        <ele>155.399993896484375</ele>
        <time>2026-08-05T11:38:00.000Z</time>
        <extensions>
          <ns3:TrackPointExtension>
            <ns3:hr>96</ns3:hr>
            <ns3:cad>48</ns3:cad>
          </ns3:TrackPointExtension>
        </extensions>
      </trkpt>
      <trkpt lat="43.4658688120543956756591796875" lon="1.42180991359055042266845703125">
        <ele>155.399993896484375</ele>
        <time>2026-08-05T11:38:01.000Z</time>
        <extensions>
          <ns3:TrackPointExtension>
            <ns3:hr>96</ns3:hr>
            <ns3:cad>48</ns3:cad>
          </ns3:TrackPointExtension>
        </extensions>
      </trkpt>
      <trkpt lat="43.4658577479422092437744140625" lon="1.42181293107569217681884765625">
        <ele>155.1999969482421875</ele>
        <time>2026-08-05T11:38:02.000Z</time>
        <extensions>
          <ns3:TrackPointExtension>
            <ns3:hr>96</ns3:hr>
            <ns3:cad>48</ns3:cad>
          </ns3:TrackPointExtension>
        </extensions>
      </trkpt>
      <trkpt lat="43.4658450074493885040283203125" lon="1.42181552946567535400390625">
        <ele>155.1999969482421875</ele>
        <time>2026-08-05T11:38:03.000Z</time>
        <extensions>
          <ns3:TrackPointExtension>
            <ns3:hr>96</ns3:hr>
            <ns3:cad>49</ns3:cad>
          </ns3:TrackPointExtension>
        </extensions>
      </trkpt>
      <trkpt lat="43.4658315964043140411376953125" lon="1.42182357609272003173828125">
        <ele>155.1999969482421875</ele>
        <time>2026-08-05T11:38:04.000Z</time>
        <extensions>
          <ns3:TrackPointExtension>
            <ns3:hr>96</ns3:hr>
            <ns3:cad>49</ns3:cad>
          </ns3:TrackPointExtension>
        </extensions>
      </trkpt>
      <trkpt lat="43.46581810154020786285400390625" lon="1.4218321256339550018310546875">
        <ele>155.1999969482421875</ele>
        <time>2026-08-05T11:38:05.000Z</time>
        <extensions>
          <ns3:TrackPointExtension>
            <ns3:hr>96</ns3:hr>
            <ns3:cad>49</ns3:cad>
          </ns3:TrackPointExtension>
        </extensions>
      </trkpt>
      <trkpt lat="43.46580971963703632354736328125" lon="1.42183430492877960205078125">
        <ele>155.1999969482421875</ele>
        <time>2026-08-05T11:38:06.000Z</time>
        <extensions>
          <ns3:TrackPointExtension>
            <ns3:hr>96</ns3:hr>
            <ns3:cad>48</ns3:cad>
          </ns3:TrackPointExtension>
        </extensions>
      </trkpt>
      <trkpt lat="43.46580033190548419952392578125" lon="1.42183472402393817901611328125">
        <ele>155.1999969482421875</ele>
        <time>2026-08-05T11:38:07.000Z</time>
        <extensions>
          <ns3:TrackPointExtension>
            <ns3:hr>95</ns3:hr>
            <ns3:cad>48</ns3:cad>
          </ns3:TrackPointExtension>
        </extensions>
      </trkpt>
      <trkpt lat="43.465790189802646636962890625" lon="1.42183589749038219451904296875">
        <ele>155.1999969482421875</ele>
        <time>2026-08-05T11:38:08.000Z</time>
        <extensions>
          <ns3:TrackPointExtension>
            <ns3:hr>96</ns3:hr>
            <ns3:cad>48</ns3:cad>
          </ns3:TrackPointExtension>
        </extensions>
      </trkpt>
      <trkpt lat="43.465775437653064727783203125" lon="1.421842686831951141357421875">
        <ele>155.1999969482421875</ele>
        <time>2026-08-05T11:38:09.000Z</time>
        <extensions>
          <ns3:TrackPointExtension>
            <ns3:hr>96</ns3:hr>
            <ns3:cad>48</ns3:cad>
          </ns3:TrackPointExtension>
        </extensions>
      </trkpt>
      <trkpt lat="43.46576009877026081085205078125" lon="1.42185115255415439605712890625">
        <ele>155.1999969482421875</ele>
        <time>2026-08-05T11:38:10.000Z</time>
        <extensions>
          <ns3:TrackPointExtension>
            <ns3:hr>95</ns3:hr>
            <ns3:cad>48</ns3:cad>
          </ns3:TrackPointExtension>
        </extensions>
      </trkpt>
      <trkpt lat="43.46574802882969379425048828125" lon="1.42185769043862819671630859375">
        <ele>155.1999969482421875</ele>
        <time>2026-08-05T11:38:11.000Z</time>
        <extensions>
          <ns3:TrackPointExtension>
            <ns3:hr>95</ns3:hr>
            <ns3:cad>48</ns3:cad>
          </ns3:TrackPointExtension>
        </extensions>
      </trkpt>
      <trkpt lat="43.4657353721559047698974609375" lon="1.42186003737151622772216796875">
        <ele>155.1999969482421875</ele>
        <time>2026-08-05T11:38:12.000Z</time>
        <extensions>
          <ns3:TrackPointExtension>
            <ns3:hr>95</ns3:hr>
            <ns3:cad>48</ns3:cad>
          </ns3:TrackPointExtension>
        </extensions>
      </trkpt>
      <trkpt lat="43.46572615206241607666015625" lon="1.42186054028570652008056640625">
        <ele>155.1999969482421875</ele>
        <time>2026-08-05T11:38:13.000Z</time>
        <extensions>
          <ns3:TrackPointExtension>
            <ns3:hr>95</ns3:hr>
            <ns3:cad>48</ns3:cad>
          </ns3:TrackPointExtension>
        </extensions>
      </trkpt>
      <trkpt lat="43.46571399830281734466552734375" lon="1.42186540178954601287841796875">
        <ele>155.1999969482421875</ele>
        <time>2026-08-05T11:38:14.000Z</time>
        <extensions>
          <ns3:TrackPointExtension>
            <ns3:hr>96</ns3:hr>
            <ns3:cad>48</ns3:cad>
          </ns3:TrackPointExtension>
        </extensions>
      </trkpt>
      <trkpt lat="43.46569924615323543548583984375" lon="1.4218696765601634979248046875">
        <ele>155.1999969482421875</ele>
        <time>2026-08-05T11:38:15.000Z</time>
        <extensions>
          <ns3:TrackPointExtension>
            <ns3:hr>96</ns3:hr>
            <ns3:cad>48</ns3:cad>
          </ns3:TrackPointExtension>
        </extensions>
      </trkpt>
      <trkpt lat="43.4656854160130023956298828125" lon="1.42187663353979587554931640625">
        <ele>155.1999969482421875</ele>
        <time>2026-08-05T11:38:16.000Z</time>
        <extensions>
          <ns3:TrackPointExtension>
            <ns3:hr>96</ns3:hr>
            <ns3:cad>50</ns3:cad>
          </ns3:TrackPointExtension>
        </extensions>
      </trkpt>
      <trkpt lat="43.4656720049679279327392578125" lon="1.42187830992043018341064453125">
        <ele>155.399993896484375</ele>
        <time>2026-08-05T11:38:17.000Z</time>
        <extensions>
          <ns3:TrackPointExtension>
            <ns3:hr>96</ns3:hr>
            <ns3:cad>50</ns3:cad>
          </ns3:TrackPointExtension>
        </extensions>
      </trkpt>
      <trkpt lat="43.46566169522702693939208984375" lon="1.42188015393912792205810546875">
        <ele>155.1999969482421875</ele>
        <time>2026-08-05T11:38:18.000Z</time>
        <extensions>
          <ns3:TrackPointExtension>
            <ns3:hr>95</ns3:hr>
            <ns3:cad>48</ns3:cad>
          </ns3:TrackPointExtension>
        </extensions>
      </trkpt>
      <trkpt lat="43.46565297804772853851318359375" lon="1.4218854345381259918212890625">
        <ele>155.1999969482421875</ele>
        <time>2026-08-05T11:38:19.000Z</time>
        <extensions>
          <ns3:TrackPointExtension>
            <ns3:hr>96</ns3:hr>
            <ns3:cad>48</ns3:cad>
          </ns3:TrackPointExtension>
        </extensions>
      </trkpt>
      <trkpt lat="43.46564157865941524505615234375" lon="1.42189037986099720001220703125">
        <ele>155.1999969482421875</ele>
        <time>2026-08-05T11:38:20.000Z</time>
        <extensions>
          <ns3:TrackPointExtension>
            <ns3:hr>96</ns3:hr>
            <ns3:cad>49</ns3:cad>
          </ns3:TrackPointExtension>
        </extensions>
      </trkpt>
      <trkpt lat="43.4656264074146747589111328125" lon="1.4218988455832004547119140625">
        <ele>155.399993896484375</ele>
        <time>2026-08-05T11:38:21.000Z</time>
        <extensions>
          <ns3:TrackPointExtension>
            <ns3:hr>95</ns3:hr>
            <ns3:cad>50</ns3:cad>
          </ns3:TrackPointExtension>
        </extensions>
      </trkpt>
      <trkpt lat="43.46561609767377376556396484375" lon="1.42190462909638881683349609375">
        <ele>155.399993896484375</ele>
        <time>2026-08-05T11:38:22.000Z</time>
        <extensions>
          <ns3:TrackPointExtension>
            <ns3:hr>96</ns3:hr>
            <ns3:cad>50</ns3:cad>
          </ns3:TrackPointExtension>
        </extensions>
      </trkpt>
      <trkpt lat="43.46560603938996791839599609375" lon="1.42190404236316680908203125">
        <ele>155.399993896484375</ele>
        <time>2026-08-05T11:38:23.000Z</time>
        <extensions>
          <ns3:TrackPointExtension>
            <ns3:hr>96</ns3:hr>
            <ns3:cad>50</ns3:cad>
          </ns3:TrackPointExtension>
        </extensions>
      </trkpt>
      <trkpt lat="43.4655982442200183868408203125" lon="1.42190379090607166290283203125">
        <ele>155.399993896484375</ele>
        <time>2026-08-05T11:38:24.000Z</time>
        <extensions>
          <ns3:TrackPointExtension>
            <ns3:hr>96</ns3:hr>
            <ns3:cad>48</ns3:cad>
          </ns3:TrackPointExtension>
        </extensions>
      </trkpt>
      <trkpt lat="43.4655871801078319549560546875" lon="1.42190873622894287109375">
        <ele>155.399993896484375</ele>
        <time>2026-08-05T11:38:25.000Z</time>
        <extensions>
          <ns3:TrackPointExtension>
            <ns3:hr>96</ns3:hr>
            <ns3:cad>48</ns3:cad>
          </ns3:TrackPointExtension>
        </extensions>
      </trkpt>
      <trkpt lat="43.46557603217661380767822265625" lon="1.4219186268746852874755859375">
        <ele>155.399993896484375</ele>
        <time>2026-08-05T11:38:26.000Z</time>
        <extensions>
          <ns3:TrackPointExtension>
            <ns3:hr>97</ns3:hr>
            <ns3:cad>48</ns3:cad>
          </ns3:TrackPointExtension>
        </extensions>
      </trkpt>
      <trkpt lat="43.46556278876960277557373046875" lon="1.42192608676850795745849609375">
        <ele>155.399993896484375</ele>
        <time>2026-08-05T11:38:27.000Z</time>
        <extensions>
          <ns3:TrackPointExtension>
            <ns3:hr>96</ns3:hr>
            <ns3:cad>48</ns3:cad>
          </ns3:TrackPointExtension>
        </extensions>
      </trkpt>
      <trkpt lat="43.4655524790287017822265625" lon="1.4219293557107448577880859375">
        <ele>155.399993896484375</ele>
        <time>2026-08-05T11:38:28.000Z</time>
        <extensions>
          <ns3:TrackPointExtension>
            <ns3:hr>96</ns3:hr>
            <ns3:cad>47</ns3:cad>
          </ns3:TrackPointExtension>
        </extensions>
      </trkpt>
      <trkpt lat="43.4655444324016571044921875" lon="1.42193019390106201171875">
        <ele>155.399993896484375</ele>
        <time>2026-08-05T11:38:29.000Z</time>
        <extensions>
          <ns3:TrackPointExtension>
            <ns3:hr>96</ns3:hr>
            <ns3:cad>47</ns3:cad>
          </ns3:TrackPointExtension>
        </extensions>
      </trkpt>
      <trkpt lat="43.4655337035655975341796875" lon="1.421931870281696319580078125">
        <ele>155.399993896484375</ele>
        <time>2026-08-05T11:38:30.000Z</time>
        <extensions>
          <ns3:TrackPointExtension>
            <ns3:hr>96</ns3:hr>
            <ns3:cad>49</ns3:cad>
          </ns3:TrackPointExtension>
        </extensions>
      </trkpt>
      <trkpt lat="43.4655184485018253326416015625" lon="1.421938240528106689453125">
        <ele>155.399993896484375</ele>
        <time>2026-08-05T11:38:31.000Z</time>
        <extensions>
          <ns3:TrackPointExtension>
            <ns3:hr>96</ns3:hr>
            <ns3:cad>49</ns3:cad>
          </ns3:TrackPointExtension>
        </extensions>
      </trkpt>
      <trkpt lat="43.46550193615257740020751953125" lon="1.4219467900693416595458984375">
        <ele>155.399993896484375</ele>
        <time>2026-08-05T11:38:32.000Z</time>
        <extensions>
          <ns3:TrackPointExtension>
            <ns3:hr>96</ns3:hr>
            <ns3:cad>49</ns3:cad>
          </ns3:TrackPointExtension>
        </extensions>
      </trkpt>
      <trkpt lat="43.4654922969639301300048828125" lon="1.4219504781067371368408203125">
        <ele>155.399993896484375</ele>
        <time>2026-08-05T11:38:33.000Z</time>
        <extensions>
          <ns3:TrackPointExtension>
            <ns3:hr>96</ns3:hr>
            <ns3:cad>49</ns3:cad>
          </ns3:TrackPointExtension>
        </extensions>
      </trkpt>
      <trkpt lat="43.46548483707010746002197265625" lon="1.42195341177284717559814453125">
        <ele>155.600006103515625</ele>
        <time>2026-08-05T11:38:34.000Z</time>
        <extensions>
          <ns3:TrackPointExtension>
            <ns3:hr>95</ns3:hr>
            <ns3:cad>48</ns3:cad>
          </ns3:TrackPointExtension>
        </extensions>
      </trkpt>
      <trkpt lat="43.46547938883304595947265625" lon="1.42195634543895721435546875">
        <ele>155.600006103515625</ele>
        <time>2026-08-05T11:38:35.000Z</time>
        <extensions>
          <ns3:TrackPointExtension>
            <ns3:hr>95</ns3:hr>
            <ns3:cad>48</ns3:cad>
          </ns3:TrackPointExtension>
        </extensions>
      </trkpt>
      <trkpt lat="43.46546857617795467376708984375" lon="1.4219588600099086761474609375">
        <ele>155.600006103515625</ele>
        <time>2026-08-05T11:38:36.000Z</time>
        <extensions>
          <ns3:TrackPointExtension>
            <ns3:hr>95</ns3:hr>
            <ns3:cad>49</ns3:cad>
          </ns3:TrackPointExtension>
        </extensions>
      </trkpt>
      <trkpt lat="43.4654527343809604644775390625" lon="1.4219652302563190460205078125">
        <ele>155.600006103515625</ele>
        <time>2026-08-05T11:38:37.000Z</time>
        <extensions>
          <ns3:TrackPointExtension>
            <ns3:hr>95</ns3:hr>
            <ns3:cad>49</ns3:cad>
          </ns3:TrackPointExtension>
        </extensions>
      </trkpt>
      <trkpt lat="43.46544024534523487091064453125" lon="1.421970091760158538818359375">
        <ele>155.600006103515625</ele>
        <time>2026-08-05T11:38:38.000Z</time>
        <extensions>
          <ns3:TrackPointExtension>
            <ns3:hr>94</ns3:hr>
            <ns3:cad>49</ns3:cad>
          </ns3:TrackPointExtension>
        </extensions>
      </trkpt>
      <trkpt lat="43.4654302708804607391357421875" lon="1.4219729416072368621826171875">
        <ele>155.600006103515625</ele>
        <time>2026-08-05T11:38:39.000Z</time>
        <extensions>
          <ns3:TrackPointExtension>
            <ns3:hr>95</ns3:hr>
            <ns3:cad>49</ns3:cad>
          </ns3:TrackPointExtension>
        </extensions>
      </trkpt>
      <trkpt lat="43.46542180515825748443603515625" lon="1.42197302542626857757568359375">
        <ele>155.600006103515625</ele>
        <time>2026-08-05T11:38:40.000Z</time>
        <extensions>
          <ns3:TrackPointExtension>
            <ns3:hr>95</ns3:hr>
            <ns3:cad>49</ns3:cad>
          </ns3:TrackPointExtension>
        </extensions>
      </trkpt>
      <trkpt lat="43.46541392616927623748779296875" lon="1.42197302542626857757568359375">
        <ele>155.600006103515625</ele>
        <time>2026-08-05T11:38:41.000Z</time>
        <extensions>
          <ns3:TrackPointExtension>
            <ns3:hr>95</ns3:hr>
            <ns3:cad>49</ns3:cad>
          </ns3:TrackPointExtension>
        </extensions>
      </trkpt>
      <trkpt lat="43.46540420316159725189208984375" lon="1.42197906039655208587646484375">
        <ele>155.600006103515625</ele>
        <time>2026-08-05T11:38:42.000Z</time>
        <extensions>
          <ns3:TrackPointExtension>
            <ns3:hr>94</ns3:hr>
            <ns3:cad>49</ns3:cad>
          </ns3:TrackPointExtension>
        </extensions>
      </trkpt>
      <trkpt lat="43.46539095975458621978759765625" lon="1.42198995687067508697509765625">
        <ele>155.600006103515625</ele>
        <time>2026-08-05T11:38:43.000Z</time>
        <extensions>
          <ns3:TrackPointExtension>
            <ns3:hr>95</ns3:hr>
            <ns3:cad>49</ns3:cad>
          </ns3:TrackPointExtension>
        </extensions>
      </trkpt>
      <trkpt lat="43.465379141271114349365234375" lon="1.42199213616549968719482421875">
        <ele>155.600006103515625</ele>
        <time>2026-08-05T11:38:44.000Z</time>
        <extensions>
          <ns3:TrackPointExtension>
            <ns3:hr>95</ns3:hr>
            <ns3:cad>49</ns3:cad>
          </ns3:TrackPointExtension>
        </extensions>
      </trkpt>
      <trkpt lat="43.46536749042570590972900390625" lon="1.421994902193546295166015625">
        <ele>155.600006103515625</ele>
        <time>2026-08-05T11:38:45.000Z</time>
        <extensions>
          <ns3:TrackPointExtension>
            <ns3:hr>94</ns3:hr>
            <ns3:cad>49</ns3:cad>
          </ns3:TrackPointExtension>
        </extensions>
      </trkpt>
      <trkpt lat="43.46535894088447093963623046875" lon="1.42199666239321231842041015625">
        <ele>155.600006103515625</ele>
        <time>2026-08-05T11:38:46.000Z</time>
        <extensions>
          <ns3:TrackPointExtension>
            <ns3:hr>95</ns3:hr>
            <ns3:cad>49</ns3:cad>
          </ns3:TrackPointExtension>
        </extensions>
      </trkpt>
      <trkpt lat="43.4653491340577602386474609375" lon="1.42200194299221038818359375">
        <ele>155.600006103515625</ele>
        <time>2026-08-05T11:38:47.000Z</time>
        <extensions>
          <ns3:TrackPointExtension>
            <ns3:hr>95</ns3:hr>
            <ns3:cad>49</ns3:cad>
          </ns3:TrackPointExtension>
        </extensions>
      </trkpt>
      <trkpt lat="43.46533798612654209136962890625" lon="1.422006972134113311767578125">
        <ele>155.600006103515625</ele>
        <time>2026-08-05T11:38:48.000Z</time>
        <extensions>
          <ns3:TrackPointExtension>
            <ns3:hr>94</ns3:hr>
            <ns3:cad>50</ns3:cad>
          </ns3:TrackPointExtension>
        </extensions>
      </trkpt>
      <trkpt lat="43.46532172523438930511474609375" lon="1.42201325856149196624755859375">
        <ele>155.600006103515625</ele>
        <time>2026-08-05T11:38:49.000Z</time>
        <extensions>
          <ns3:TrackPointExtension>
            <ns3:hr>95</ns3:hr>
            <ns3:cad>50</ns3:cad>
          </ns3:TrackPointExtension>
        </extensions>
      </trkpt>
      <trkpt lat="43.46530831418931484222412109375" lon="1.42201879061758518218994140625">
        <ele>155.600006103515625</ele>
        <time>2026-08-05T11:38:50.000Z</time>
        <extensions>
          <ns3:TrackPointExtension>
            <ns3:hr>95</ns3:hr>
            <ns3:cad>50</ns3:cad>
          </ns3:TrackPointExtension>
        </extensions>
      </trkpt>
      <trkpt lat="43.46529389731585979461669921875" lon="1.42202164046466350555419921875">
        <ele>155.600006103515625</ele>
        <time>2026-08-05T11:38:51.000Z</time>
        <extensions>
          <ns3:TrackPointExtension>
            <ns3:hr>94</ns3:hr>
            <ns3:cad>49</ns3:cad>
          </ns3:TrackPointExtension>
        </extensions>
      </trkpt>
      <trkpt lat="43.465283252298831939697265625" lon="1.4220218919217586517333984375">
        <ele>155.600006103515625</ele>
        <time>2026-08-05T11:38:52.000Z</time>
        <extensions>
          <ns3:TrackPointExtension>
            <ns3:hr>95</ns3:hr>
            <ns3:cad>49</ns3:cad>
          </ns3:TrackPointExtension>
        </extensions>
      </trkpt>
      <trkpt lat="43.46527344547212123870849609375" lon="1.4220249094069004058837890625">
        <ele>155.600006103515625</ele>
        <time>2026-08-05T11:38:53.000Z</time>
        <extensions>
          <ns3:TrackPointExtension>
            <ns3:hr>95</ns3:hr>
            <ns3:cad>49</ns3:cad>
          </ns3:TrackPointExtension>
        </extensions>
      </trkpt>
      <trkpt lat="43.46526137553155422210693359375" lon="1.4220299385488033294677734375">
        <ele>155.600006103515625</ele>
        <time>2026-08-05T11:38:54.000Z</time>
        <extensions>
          <ns3:TrackPointExtension>
            <ns3:hr>94</ns3:hr>
            <ns3:cad>50</ns3:cad>
          </ns3:TrackPointExtension>
        </extensions>
      </trkpt>
      <trkpt lat="43.46524796448647975921630859375" lon="1.42203421331942081451416015625">
        <ele>155.600006103515625</ele>
        <time>2026-08-05T11:38:55.000Z</time>
        <extensions>
          <ns3:TrackPointExtension>
            <ns3:hr>95</ns3:hr>
            <ns3:cad>50</ns3:cad>
          </ns3:TrackPointExtension>
        </extensions>
      </trkpt>
      <trkpt lat="43.46523388288915157318115234375" lon="1.42203706316649913787841796875">
        <ele>155.600006103515625</ele>
        <time>2026-08-05T11:38:56.000Z</time>
        <extensions>
          <ns3:TrackPointExtension>
            <ns3:hr>95</ns3:hr>
            <ns3:cad>50</ns3:cad>
          </ns3:TrackPointExtension>
        </extensions>
      </trkpt>
      <trkpt lat="43.4652230702340602874755859375" lon="1.42203924246132373809814453125">
        <ele>155.600006103515625</ele>
        <time>2026-08-05T11:38:57.000Z</time>
        <extensions>
          <ns3:TrackPointExtension>
            <ns3:hr>95</ns3:hr>
            <ns3:cad>50</ns3:cad>
          </ns3:TrackPointExtension>
        </extensions>
      </trkpt>
      <trkpt lat="43.46521259285509586334228515625" lon="1.4220366440713405609130859375">
        <ele>155.600006103515625</ele>
        <time>2026-08-05T11:38:58.000Z</time>
        <extensions>
          <ns3:TrackPointExtension>
            <ns3:hr>95</ns3:hr>
            <ns3:cad>50</ns3:cad>
          </ns3:TrackPointExtension>
        </extensions>
      </trkpt>
      <trkpt lat="43.46520312130451202392578125" lon="1.422037146985530853271484375">
        <ele>155.8000030517578125</ele>
        <time>2026-08-05T11:38:59.000Z</time>
        <extensions>
          <ns3:TrackPointExtension>
            <ns3:hr>95</ns3:hr>
            <ns3:cad>50</ns3:cad>
          </ns3:TrackPointExtension>
        </extensions>
      </trkpt>
      <trkpt lat="43.46519197337329387664794921875" lon="1.422043852508068084716796875">
        <ele>155.8000030517578125</ele>
        <time>2026-08-05T11:39:00.000Z</time>
        <extensions>
          <ns3:TrackPointExtension>
            <ns3:hr>95</ns3:hr>
            <ns3:cad>49</ns3:cad>
          </ns3:TrackPointExtension>
        </extensions>
      </trkpt>
      <trkpt lat="43.4651778079569339752197265625" lon="1.4220495522022247314453125">
        <ele>155.8000030517578125</ele>
        <time>2026-08-05T11:39:01.000Z</time>
        <extensions>
          <ns3:TrackPointExtension>
            <ns3:hr>96</ns3:hr>
            <ns3:cad>49</ns3:cad>
          </ns3:TrackPointExtension>
        </extensions>
      </trkpt>
      <trkpt lat="43.465167917311191558837890625" lon="1.42205298878252506256103515625">
        <ele>155.8000030517578125</ele>
        <time>2026-08-05T11:39:02.000Z</time>
        <extensions>
          <ns3:TrackPointExtension>
            <ns3:hr>95</ns3:hr>
            <ns3:cad>49</ns3:cad>
          </ns3:TrackPointExtension>
        </extensions>
      </trkpt>
      <trkpt lat="43.46515794284641742706298828125" lon="1.42205483280122280120849609375">
        <ele>155.8000030517578125</ele>
        <time>2026-08-05T11:39:03.000Z</time>
        <extensions>
          <ns3:TrackPointExtension>
            <ns3:hr>95</ns3:hr>
            <ns3:cad>49</ns3:cad>
          </ns3:TrackPointExtension>
        </extensions>
      </trkpt>
      <trkpt lat="43.465147800743579864501953125" lon="1.42205986194312572479248046875">
        <ele>155.8000030517578125</ele>
        <time>2026-08-05T11:39:04.000Z</time>
        <extensions>
          <ns3:TrackPointExtension>
            <ns3:hr>95</ns3:hr>
            <ns3:cad>49</ns3:cad>
          </ns3:TrackPointExtension>
        </extensions>
      </trkpt>
      <trkpt lat="43.465136401355266571044921875" lon="1.4220698364078998565673828125">
        <ele>155.8000030517578125</ele>
        <time>2026-08-05T11:39:05.000Z</time>
        <extensions>
          <ns3:TrackPointExtension>
            <ns3:hr>95</ns3:hr>
            <ns3:cad>48</ns3:cad>
          </ns3:TrackPointExtension>
        </extensions>
      </trkpt>
      <trkpt lat="43.46512609161436557769775390625" lon="1.42207880504429340362548828125">
        <ele>155.8000030517578125</ele>
        <time>2026-08-05T11:39:06.000Z</time>
        <extensions>
          <ns3:TrackPointExtension>
            <ns3:hr>94</ns3:hr>
            <ns3:cad>48</ns3:cad>
          </ns3:TrackPointExtension>
        </extensions>
      </trkpt>
      <trkpt lat="43.46511653624475002288818359375" lon="1.42208266071975231170654296875">
        <ele>155.8000030517578125</ele>
        <time>2026-08-05T11:39:07.000Z</time>
        <extensions>
          <ns3:TrackPointExtension>
            <ns3:hr>95</ns3:hr>
            <ns3:cad>48</ns3:cad>
          </ns3:TrackPointExtension>
        </extensions>
      </trkpt>
      <trkpt lat="43.4651084057986736297607421875" lon="1.42208048142492771148681640625">
        <ele>155.8000030517578125</ele>
        <time>2026-08-05T11:39:08.000Z</time>
        <extensions>
          <ns3:TrackPointExtension>
            <ns3:hr>96</ns3:hr>
            <ns3:cad>48</ns3:cad>
          </ns3:TrackPointExtension>
        </extensions>
      </trkpt>
      <trkpt lat="43.46509524621069431304931640625" lon="1.42208685167133808135986328125">
        <ele>155.8000030517578125</ele>
        <time>2026-08-05T11:39:09.000Z</time>
        <extensions>
          <ns3:TrackPointExtension>
            <ns3:hr>96</ns3:hr>
            <ns3:cad>48</ns3:cad>
          </ns3:TrackPointExtension>
        </extensions>
      </trkpt>
      <trkpt lat="43.46508376300334930419921875" lon="1.422092132270336151123046875">
        <ele>155.8000030517578125</ele>
        <time>2026-08-05T11:39:10.000Z</time>
        <extensions>
          <ns3:TrackPointExtension>
            <ns3:hr>95</ns3:hr>
            <ns3:cad>48</ns3:cad>
          </ns3:TrackPointExtension>
        </extensions>
      </trkpt>
      <trkpt lat="43.46507345326244831085205078125" lon="1.42209288664162158966064453125">
        <ele>155.8000030517578125</ele>
        <time>2026-08-05T11:39:11.000Z</time>
        <extensions>
          <ns3:TrackPointExtension>
            <ns3:hr>95</ns3:hr>
            <ns3:cad>47</ns3:cad>
          </ns3:TrackPointExtension>
        </extensions>
      </trkpt>
      <trkpt lat="43.465066663920879364013671875" lon="1.42209473066031932830810546875">
        <ele>155.8000030517578125</ele>
        <time>2026-08-05T11:39:12.000Z</time>
        <extensions>
          <ns3:TrackPointExtension>
            <ns3:hr>95</ns3:hr>
            <ns3:cad>47</ns3:cad>
          </ns3:TrackPointExtension>
        </extensions>
      </trkpt>
      <trkpt lat="43.4650564379990100860595703125" lon="1.42209875397384166717529296875">
        <ele>155.8000030517578125</ele>
        <time>2026-08-05T11:39:13.000Z</time>
        <extensions>
          <ns3:TrackPointExtension>
            <ns3:hr>95</ns3:hr>
            <ns3:cad>47</ns3:cad>
          </ns3:TrackPointExtension>
        </extensions>
      </trkpt>
      <trkpt lat="43.465042524039745330810546875" lon="1.42210520803928375244140625">
        <ele>155.8000030517578125</ele>
        <time>2026-08-05T11:39:14.000Z</time>
        <extensions>
          <ns3:TrackPointExtension>
            <ns3:hr>95</ns3:hr>
            <ns3:cad>47</ns3:cad>
          </ns3:TrackPointExtension>
        </extensions>
      </trkpt>
      <trkpt lat="43.4650294482707977294921875" lon="1.4221104048192501068115234375">
        <ele>155.8000030517578125</ele>
        <time>2026-08-05T11:39:15.000Z</time>
        <extensions>
          <ns3:TrackPointExtension>
            <ns3:hr>96</ns3:hr>
            <ns3:cad>47</ns3:cad>
          </ns3:TrackPointExtension>
        </extensions>
      </trkpt>
      <trkpt lat="43.46501930616796016693115234375" lon="1.422110237181186676025390625">
        <ele>155.8000030517578125</ele>
        <time>2026-08-05T11:39:16.000Z</time>
        <extensions>
          <ns3:TrackPointExtension>
            <ns3:hr>96</ns3:hr>
            <ns3:cad>47</ns3:cad>
          </ns3:TrackPointExtension>
        </extensions>
      </trkpt>
      <trkpt lat="43.46501000225543975830078125" lon="1.4221127517521381378173828125">
        <ele>156</ele>
        <time>2026-08-05T11:39:17.000Z</time>
        <extensions>
          <ns3:TrackPointExtension>
            <ns3:hr>96</ns3:hr>
            <ns3:cad>46</ns3:cad>
          </ns3:TrackPointExtension>
        </extensions>
      </trkpt>
      <trkpt lat="43.4649972617626190185546875" lon="1.4221161045134067535400390625">
        <ele>156</ele>
        <time>2026-08-05T11:39:18.000Z</time>
        <extensions>
          <ns3:TrackPointExtension>
            <ns3:hr>98</ns3:hr>
            <ns3:cad>0</ns3:cad>
          </ns3:TrackPointExtension>
        </extensions>
      </trkpt>
      <trkpt lat="43.46498292870819568634033203125" lon="1.422120630741119384765625">
        <ele>156</ele>
        <time>2026-08-05T11:39:19.000Z</time>
        <extensions>
          <ns3:TrackPointExtension>
            <ns3:hr>103</ns3:hr>
            <ns3:cad>0</ns3:cad>
          </ns3:TrackPointExtension>
        </extensions>
      </trkpt>
      <trkpt lat="43.46497370861470699310302734375" lon="1.42212054692208766937255859375">
        <ele>156</ele>
        <time>2026-08-05T11:39:20.000Z</time>
        <extensions>
          <ns3:TrackPointExtension>
            <ns3:hr>105</ns3:hr>
            <ns3:cad>48</ns3:cad>
          </ns3:TrackPointExtension>
        </extensions>
      </trkpt>
      <trkpt lat="43.46496566198766231536865234375" lon="1.42212331295013427734375">
        <ele>156</ele>
        <time>2026-08-05T11:39:21.000Z</time>
        <extensions>
          <ns3:TrackPointExtension>
            <ns3:hr>106</ns3:hr>
            <ns3:cad>48</ns3:cad>
          </ns3:TrackPointExtension>
        </extensions>
      </trkpt>
      <trkpt lat="43.4649558551609516143798828125" lon="1.42212658189237117767333984375">
        <ele>156</ele>
        <time>2026-08-05T11:39:22.000Z</time>
        <extensions>
          <ns3:TrackPointExtension>
            <ns3:hr>106</ns3:hr>
            <ns3:cad>48</ns3:cad>
          </ns3:TrackPointExtension>
        </extensions>
      </trkpt>
      <trkpt lat="43.46493867225944995880126953125" lon="1.4221348799765110015869140625">
        <ele>156</ele>
        <time>2026-08-05T11:39:23.000Z</time>
        <extensions>
          <ns3:TrackPointExtension>
            <ns3:hr>106</ns3:hr>
            <ns3:cad>48</ns3:cad>
          </ns3:TrackPointExtension>
        </extensions>
      </trkpt>
      <trkpt lat="43.46492626704275608062744140625" lon="1.4221422560513019561767578125">
        <ele>156</ele>
        <time>2026-08-05T11:39:24.000Z</time>
        <extensions>
          <ns3:TrackPointExtension>
            <ns3:hr>107</ns3:hr>
            <ns3:cad>47</ns3:cad>
          </ns3:TrackPointExtension>
        </extensions>
      </trkpt>
      <trkpt lat="43.464913778007030487060546875" lon="1.42214602790772914886474609375">
        <ele>156</ele>
        <time>2026-08-05T11:39:25.000Z</time>
        <extensions>
          <ns3:TrackPointExtension>
            <ns3:hr>107</ns3:hr>
            <ns3:cad>47</ns3:cad>
          </ns3:TrackPointExtension>
        </extensions>
      </trkpt>
      <trkpt lat="43.4649087488651275634765625" lon="1.4221482910215854644775390625">
        <ele>156</ele>
        <time>2026-08-05T11:39:26.000Z</time>
        <extensions>
          <ns3:TrackPointExtension>
            <ns3:hr>107</ns3:hr>
            <ns3:cad>46</ns3:cad>
          </ns3:TrackPointExtension>
        </extensions>
      </trkpt>
      <trkpt lat="43.464897684752941131591796875" lon="1.42215105704963207244873046875">
        <ele>156</ele>
        <time>2026-08-05T11:39:27.000Z</time>
        <extensions>
          <ns3:TrackPointExtension>
            <ns3:hr>106</ns3:hr>
            <ns3:cad>46</ns3:cad>
          </ns3:TrackPointExtension>
        </extensions>
      </trkpt>
      <trkpt lat="43.46488435752689838409423828125" lon="1.42215508036315441131591796875">
        <ele>156</ele>
        <time>2026-08-05T11:39:28.000Z</time>
        <extensions>
          <ns3:TrackPointExtension>
            <ns3:hr>106</ns3:hr>
            <ns3:cad>47</ns3:cad>
          </ns3:TrackPointExtension>
        </extensions>
      </trkpt>
      <trkpt lat="43.4648733772337436676025390625" lon="1.42215860076248645782470703125">
        <ele>156</ele>
        <time>2026-08-05T11:39:29.000Z</time>
        <extensions>
          <ns3:TrackPointExtension>
            <ns3:hr>106</ns3:hr>
            <ns3:cad>47</ns3:cad>
          </ns3:TrackPointExtension>
        </extensions>
      </trkpt>
      <trkpt lat="43.4648644924163818359375" lon="1.42216061241924762725830078125">
        <ele>156</ele>
        <time>2026-08-05T11:39:30.000Z</time>
        <extensions>
          <ns3:TrackPointExtension>
            <ns3:hr>107</ns3:hr>
            <ns3:cad>47</ns3:cad>
          </ns3:TrackPointExtension>
        </extensions>
      </trkpt>
      <trkpt lat="43.46485535614192485809326171875" lon="1.42215826548635959625244140625">
        <ele>156</ele>
        <time>2026-08-05T11:39:31.000Z</time>
        <extensions>
          <ns3:TrackPointExtension>
            <ns3:hr>107</ns3:hr>
            <ns3:cad>47</ns3:cad>
          </ns3:TrackPointExtension>
        </extensions>
      </trkpt>
      <trkpt lat="43.464842699468135833740234375" lon="1.42216094769537448883056640625">
        <ele>156</ele>
        <time>2026-08-05T11:39:32.000Z</time>
        <extensions>
          <ns3:TrackPointExtension>
            <ns3:hr>107</ns3:hr>
            <ns3:cad>47</ns3:cad>
          </ns3:TrackPointExtension>
        </extensions>
      </trkpt>
      <trkpt lat="43.4648328088223934173583984375" lon="1.422168575227260589599609375">
        <ele>156.1999969482421875</ele>
        <time>2026-08-05T11:39:33.000Z</time>
        <extensions>
          <ns3:TrackPointExtension>
            <ns3:hr>106</ns3:hr>
            <ns3:cad>47</ns3:cad>
          </ns3:TrackPointExtension>
        </extensions>
      </trkpt>
      <trkpt lat="43.46482199616730213165283203125" lon="1.422175951302051544189453125">
        <ele>156.1999969482421875</ele>
        <time>2026-08-05T11:39:34.000Z</time>
        <extensions>
          <ns3:TrackPointExtension>
            <ns3:hr>106</ns3:hr>
            <ns3:cad>47</ns3:cad>
          </ns3:TrackPointExtension>
        </extensions>
      </trkpt>
      <trkpt lat="43.4648095071315765380859375" lon="1.4221782982349395751953125">
        <ele>156.1999969482421875</ele>
        <time>2026-08-05T11:39:35.000Z</time>
        <extensions>
          <ns3:TrackPointExtension>
            <ns3:hr>106</ns3:hr>
            <ns3:cad>47</ns3:cad>
          </ns3:TrackPointExtension>
        </extensions>
      </trkpt>
      <trkpt lat="43.46480338834226131439208984375" lon="1.42217896878719329833984375">
        <ele>156.1999969482421875</ele>
        <time>2026-08-05T11:39:36.000Z</time>
        <extensions>
          <ns3:TrackPointExtension>
            <ns3:hr>107</ns3:hr>
            <ns3:cad>47</ns3:cad>
          </ns3:TrackPointExtension>
        </extensions>
      </trkpt>
      <trkpt lat="43.464791737496852874755859375" lon="1.42218207009136676788330078125">
        <ele>156.1999969482421875</ele>
        <time>2026-08-05T11:39:37.000Z</time>
        <extensions>
          <ns3:TrackPointExtension>
            <ns3:hr>106</ns3:hr>
            <ns3:cad>47</ns3:cad>
          </ns3:TrackPointExtension>
        </extensions>
      </trkpt>
      <trkpt lat="43.46477790735661983489990234375" lon="1.42218994908034801483154296875">
        <ele>156.1999969482421875</ele>
        <time>2026-08-05T11:39:38.000Z</time>
        <extensions>
          <ns3:TrackPointExtension>
            <ns3:hr>106</ns3:hr>
            <ns3:cad>47</ns3:cad>
          </ns3:TrackPointExtension>
        </extensions>
      </trkpt>
      <trkpt lat="43.46476835198700428009033203125" lon="1.42219196073710918426513671875">
        <ele>156.1999969482421875</ele>
        <time>2026-08-05T11:39:39.000Z</time>
        <extensions>
          <ns3:TrackPointExtension>
            <ns3:hr>105</ns3:hr>
            <ns3:cad>47</ns3:cad>
          </ns3:TrackPointExtension>
        </extensions>
      </trkpt>
      <trkpt lat="43.46475812606513500213623046875" lon="1.4221948944032192230224609375">
        <ele>156.1999969482421875</ele>
        <time>2026-08-05T11:39:40.000Z</time>
        <extensions>
          <ns3:TrackPointExtension>
            <ns3:hr>105</ns3:hr>
            <ns3:cad>47</ns3:cad>
          </ns3:TrackPointExtension>
        </extensions>
      </trkpt>
      <trkpt lat="43.4647476486861705780029296875" lon="1.4221975766122341156005859375">
        <ele>156.1999969482421875</ele>
        <time>2026-08-05T11:39:41.000Z</time>
        <extensions>
          <ns3:TrackPointExtension>
            <ns3:hr>105</ns3:hr>
            <ns3:cad>48</ns3:cad>
          </ns3:TrackPointExtension>
        </extensions>
      </trkpt>
      <trkpt lat="43.46473398618400096893310546875" lon="1.4222015999257564544677734375">
        <ele>156.1999969482421875</ele>
        <time>2026-08-05T11:39:42.000Z</time>
        <extensions>
          <ns3:TrackPointExtension>
            <ns3:hr>105</ns3:hr>
            <ns3:cad>48</ns3:cad>
          </ns3:TrackPointExtension>
        </extensions>
      </trkpt>
      <trkpt lat="43.46471940167248249053955078125" lon="1.42220713198184967041015625">
        <ele>156.1999969482421875</ele>
        <time>2026-08-05T11:39:43.000Z</time>
        <extensions>
          <ns3:TrackPointExtension>
            <ns3:hr>105</ns3:hr>
            <ns3:cad>48</ns3:cad>
          </ns3:TrackPointExtension>
        </extensions>
      </trkpt>
      <trkpt lat="43.4647074155509471893310546875" lon="1.422209478914737701416015625">
        <ele>156.1999969482421875</ele>
        <time>2026-08-05T11:39:44.000Z</time>
        <extensions>
          <ns3:TrackPointExtension>
            <ns3:hr>106</ns3:hr>
            <ns3:cad>48</ns3:cad>
          </ns3:TrackPointExtension>
        </extensions>
      </trkpt>
      <trkpt lat="43.4646968543529510498046875" lon="1.42221023328602313995361328125">
        <ele>156.399993896484375</ele>
        <time>2026-08-05T11:39:45.000Z</time>
        <extensions>
          <ns3:TrackPointExtension>
            <ns3:hr>105</ns3:hr>
            <ns3:cad>48</ns3:cad>
          </ns3:TrackPointExtension>
        </extensions>
      </trkpt>
      <trkpt lat="43.4646883048117160797119140625" lon="1.42221383750438690185546875">
        <ele>156.399993896484375</ele>
        <time>2026-08-05T11:39:46.000Z</time>
        <extensions>
          <ns3:TrackPointExtension>
            <ns3:hr>105</ns3:hr>
            <ns3:cad>47</ns3:cad>
          </ns3:TrackPointExtension>
        </extensions>
      </trkpt>
      <trkpt lat="43.46467648632824420928955078125" lon="1.42222247086465358734130859375">
        <ele>156.399993896484375</ele>
        <time>2026-08-05T11:39:47.000Z</time>
        <extensions>
          <ns3:TrackPointExtension>
            <ns3:hr>105</ns3:hr>
            <ns3:cad>47</ns3:cad>
          </ns3:TrackPointExtension>
        </extensions>
      </trkpt>
      <trkpt lat="43.46466064453125" lon="1.4222294278442859649658203125">
        <ele>156.399993896484375</ele>
        <time>2026-08-05T11:39:48.000Z</time>
        <extensions>
          <ns3:TrackPointExtension>
            <ns3:hr>105</ns3:hr>
            <ns3:cad>47</ns3:cad>
          </ns3:TrackPointExtension>
        </extensions>
      </trkpt>
      <trkpt lat="43.46464698202908039093017578125" lon="1.42223387025296688079833984375">
        <ele>156.399993896484375</ele>
        <time>2026-08-05T11:39:49.000Z</time>
        <extensions>
          <ns3:TrackPointExtension>
            <ns3:hr>105</ns3:hr>
            <ns3:cad>47</ns3:cad>
          </ns3:TrackPointExtension>
        </extensions>
      </trkpt>
      <trkpt lat="43.464634828269481658935546875" lon="1.42223303206264972686767578125">
        <ele>156.399993896484375</ele>
        <time>2026-08-05T11:39:50.000Z</time>
        <extensions>
          <ns3:TrackPointExtension>
            <ns3:hr>104</ns3:hr>
            <ns3:cad>47</ns3:cad>
          </ns3:TrackPointExtension>
        </extensions>
      </trkpt>
      <trkpt lat="43.464626111090183258056640625" lon="1.42223663628101348876953125">
        <ele>156.399993896484375</ele>
        <time>2026-08-05T11:39:51.000Z</time>
        <extensions>
          <ns3:TrackPointExtension>
            <ns3:hr>104</ns3:hr>
            <ns3:cad>47</ns3:cad>
          </ns3:TrackPointExtension>
        </extensions>
      </trkpt>
      <trkpt lat="43.4646163880825042724609375" lon="1.42224510200321674346923828125">
        <ele>156.399993896484375</ele>
        <time>2026-08-05T11:39:52.000Z</time>
        <extensions>
          <ns3:TrackPointExtension>
            <ns3:hr>103</ns3:hr>
            <ns3:cad>48</ns3:cad>
          </ns3:TrackPointExtension>
        </extensions>
      </trkpt>
      <trkpt lat="43.46460373140871524810791015625" lon="1.42225197516381740570068359375">
        <ele>156.399993896484375</ele>
        <time>2026-08-05T11:39:53.000Z</time>
        <extensions>
          <ns3:TrackPointExtension>
            <ns3:hr>103</ns3:hr>
            <ns3:cad>48</ns3:cad>
          </ns3:TrackPointExtension>
        </extensions>
      </trkpt>
      <trkpt lat="43.4645917452871799468994140625" lon="1.42225415445864200592041015625">
        <ele>156.399993896484375</ele>
        <time>2026-08-05T11:39:54.000Z</time>
        <extensions>
          <ns3:TrackPointExtension>
            <ns3:hr>102</ns3:hr>
            <ns3:cad>48</ns3:cad>
          </ns3:TrackPointExtension>
        </extensions>
      </trkpt>
      <trkpt lat="43.46457992680370807647705078125" lon="1.42225432209670543670654296875">
        <ele>156.399993896484375</ele>
        <time>2026-08-05T11:39:55.000Z</time>
        <extensions>
          <ns3:TrackPointExtension>
            <ns3:hr>102</ns3:hr>
            <ns3:cad>49</ns3:cad>
          </ns3:TrackPointExtension>
        </extensions>
      </trkpt>
      <trkpt lat="43.4645726345479488372802734375" lon="1.42225549556314945220947265625">
        <ele>156.399993896484375</ele>
        <time>2026-08-05T11:39:56.000Z</time>
        <extensions>
          <ns3:TrackPointExtension>
            <ns3:hr>102</ns3:hr>
            <ns3:cad>49</ns3:cad>
          </ns3:TrackPointExtension>
        </extensions>
      </trkpt>
      <trkpt lat="43.4645595587790012359619140625" lon="1.42226303927600383758544921875">
        <ele>156.399993896484375</ele>
        <time>2026-08-05T11:39:57.000Z</time>
        <extensions>
          <ns3:TrackPointExtension>
            <ns3:hr>101</ns3:hr>
            <ns3:cad>48</ns3:cad>
          </ns3:TrackPointExtension>
        </extensions>
      </trkpt>
      <trkpt lat="43.4645454771816730499267578125" lon="1.422272510826587677001953125">
        <ele>156.399993896484375</ele>
        <time>2026-08-05T11:39:58.000Z</time>
        <extensions>
          <ns3:TrackPointExtension>
            <ns3:hr>101</ns3:hr>
            <ns3:cad>48</ns3:cad>
          </ns3:TrackPointExtension>
        </extensions>
      </trkpt>
      <trkpt lat="43.4645359218120574951171875" lon="1.422279216349124908447265625">
        <ele>156.399993896484375</ele>
        <time>2026-08-05T11:39:59.000Z</time>
        <extensions>
          <ns3:TrackPointExtension>
            <ns3:hr>101</ns3:hr>
            <ns3:cad>48</ns3:cad>
          </ns3:TrackPointExtension>
        </extensions>
      </trkpt>
      <trkpt lat="43.4645211696624755859375" lon="1.42228047363460063934326171875">
        <ele>156.399993896484375</ele>
        <time>2026-08-05T11:40:00.000Z</time>
        <extensions>
          <ns3:TrackPointExtension>
            <ns3:hr>100</ns3:hr>
            <ns3:cad>48</ns3:cad>
          </ns3:TrackPointExtension>
        </extensions>
      </trkpt>
      <trkpt lat="43.46451303921639919281005859375" lon="1.4222830720245838165283203125">
        <ele>156.399993896484375</ele>
        <time>2026-08-05T11:40:01.000Z</time>
        <extensions>
          <ns3:TrackPointExtension>
            <ns3:hr>100</ns3:hr>
            <ns3:cad>48</ns3:cad>
          </ns3:TrackPointExtension>
        </extensions>
      </trkpt>
      <trkpt lat="43.46450130455195903778076171875" lon="1.42228885553777217864990234375">
        <ele>156.600006103515625</ele>
        <time>2026-08-05T11:40:02.000Z</time>
        <extensions>
          <ns3:TrackPointExtension>
            <ns3:hr>100</ns3:hr>
            <ns3:cad>48</ns3:cad>
          </ns3:TrackPointExtension>
        </extensions>
      </trkpt>
      <trkpt lat="43.464490659534931182861328125" lon="1.42229539342224597930908203125">
        <ele>156.600006103515625</ele>
        <time>2026-08-05T11:40:03.000Z</time>
        <extensions>
          <ns3:TrackPointExtension>
            <ns3:hr>101</ns3:hr>
            <ns3:cad>48</ns3:cad>
          </ns3:TrackPointExtension>
        </extensions>
      </trkpt>
      <trkpt lat="43.4644814394414424896240234375" lon="1.422303020954132080078125">
        <ele>156.600006103515625</ele>
        <time>2026-08-05T11:40:04.000Z</time>
        <extensions>
          <ns3:TrackPointExtension>
            <ns3:hr>101</ns3:hr>
            <ns3:cad>49</ns3:cad>
          </ns3:TrackPointExtension>
        </extensions>
      </trkpt>
      <trkpt lat="43.464469872415065765380859375" lon="1.4223078824579715728759765625">
        <ele>156.600006103515625</ele>
        <time>2026-08-05T11:40:05.000Z</time>
        <extensions>
          <ns3:TrackPointExtension>
            <ns3:hr>101</ns3:hr>
            <ns3:cad>49</ns3:cad>
          </ns3:TrackPointExtension>
        </extensions>
      </trkpt>
      <trkpt lat="43.46446123905479907989501953125" lon="1.42231182195246219635009765625">
        <ele>156.399993896484375</ele>
        <time>2026-08-05T11:40:06.000Z</time>
        <extensions>
          <ns3:TrackPointExtension>
            <ns3:hr>100</ns3:hr>
            <ns3:cad>49</ns3:cad>
          </ns3:TrackPointExtension>
        </extensions>
      </trkpt>
      <trkpt lat="43.4644505940377712249755859375" lon="1.42231416888535022735595703125">
        <ele>156.600006103515625</ele>
        <time>2026-08-05T11:40:07.000Z</time>
        <extensions>
          <ns3:TrackPointExtension>
            <ns3:hr>101</ns3:hr>
            <ns3:cad>48</ns3:cad>
          </ns3:TrackPointExtension>
        </extensions>
      </trkpt>
      <trkpt lat="43.46443810500204563140869140625" lon="1.4223192818462848663330078125">
        <ele>156.600006103515625</ele>
        <time>2026-08-05T11:40:08.000Z</time>
        <extensions>
          <ns3:TrackPointExtension>
            <ns3:hr>100</ns3:hr>
            <ns3:cad>48</ns3:cad>
          </ns3:TrackPointExtension>
        </extensions>
      </trkpt>
      <trkpt lat="43.46442536450922489166259765625" lon="1.42232649028301239013671875">
        <ele>156.600006103515625</ele>
        <time>2026-08-05T11:40:09.000Z</time>
        <extensions>
          <ns3:TrackPointExtension>
            <ns3:hr>100</ns3:hr>
            <ns3:cad>48</ns3:cad>
          </ns3:TrackPointExtension>
        </extensions>
      </trkpt>
      <trkpt lat="43.46441279165446758270263671875" lon="1.42233042977750301361083984375">
        <ele>156.600006103515625</ele>
        <time>2026-08-05T11:40:10.000Z</time>
        <extensions>
          <ns3:TrackPointExtension>
            <ns3:hr>100</ns3:hr>
            <ns3:cad>48</ns3:cad>
          </ns3:TrackPointExtension>
        </extensions>
      </trkpt>
      <trkpt lat="43.46440382301807403564453125" lon="1.4223330281674861907958984375">
        <ele>156.600006103515625</ele>
        <time>2026-08-05T11:40:11.000Z</time>
        <extensions>
          <ns3:TrackPointExtension>
            <ns3:hr>99</ns3:hr>
            <ns3:cad>48</ns3:cad>
          </ns3:TrackPointExtension>
        </extensions>
      </trkpt>
      <trkpt lat="43.464394770562648773193359375" lon="1.42233847640454769134521484375">
        <ele>156.8000030517578125</ele>
        <time>2026-08-05T11:40:12.000Z</time>
        <extensions>
          <ns3:TrackPointExtension>
            <ns3:hr>99</ns3:hr>
            <ns3:cad>48</ns3:cad>
          </ns3:TrackPointExtension>
        </extensions>
      </trkpt>
      <trkpt lat="43.464384712278842926025390625" lon="1.42234534956514835357666015625">
        <ele>156.8000030517578125</ele>
        <time>2026-08-05T11:40:13.000Z</time>
        <extensions>
          <ns3:TrackPointExtension>
            <ns3:hr>99</ns3:hr>
            <ns3:cad>48</ns3:cad>
          </ns3:TrackPointExtension>
        </extensions>
      </trkpt>
      <trkpt lat="43.4643731452524662017822265625" lon="1.42235171981155872344970703125">
        <ele>156.8000030517578125</ele>
        <time>2026-08-05T11:40:14.000Z</time>
        <extensions>
          <ns3:TrackPointExtension>
            <ns3:hr>99</ns3:hr>
            <ns3:cad>48</ns3:cad>
          </ns3:TrackPointExtension>
        </extensions>
      </trkpt>
      <trkpt lat="43.46436216495931148529052734375" lon="1.4223554916679859161376953125">
        <ele>156.600006103515625</ele>
        <time>2026-08-05T11:40:15.000Z</time>
        <extensions>
          <ns3:TrackPointExtension>
            <ns3:hr>100</ns3:hr>
            <ns3:cad>49</ns3:cad>
          </ns3:TrackPointExtension>
        </extensions>
      </trkpt>
      <trkpt lat="43.46435193903744220733642578125" lon="1.422361023724079132080078125">
        <ele>156.600006103515625</ele>
        <time>2026-08-05T11:40:16.000Z</time>
        <extensions>
          <ns3:TrackPointExtension>
            <ns3:hr>100</ns3:hr>
            <ns3:cad>50</ns3:cad>
          </ns3:TrackPointExtension>
        </extensions>
      </trkpt>
      <trkpt lat="43.4643402881920337677001953125" lon="1.4223655499517917633056640625">
        <ele>156.8000030517578125</ele>
        <time>2026-08-05T11:40:17.000Z</time>
        <extensions>
          <ns3:TrackPointExtension>
            <ns3:hr>100</ns3:hr>
            <ns3:cad>50</ns3:cad>
          </ns3:TrackPointExtension>
        </extensions>
      </trkpt>
      <trkpt lat="43.464328385889530181884765625" lon="1.422371082007884979248046875">
        <ele>156.8000030517578125</ele>
        <time>2026-08-05T11:40:18.000Z</time>
        <extensions>
          <ns3:TrackPointExtension>
            <ns3:hr>100</ns3:hr>
            <ns3:cad>50</ns3:cad>
          </ns3:TrackPointExtension>
        </extensions>
      </trkpt>
      <trkpt lat="43.4643174894154071807861328125" lon="1.4223809726536273956298828125">
        <ele>156.8000030517578125</ele>
        <time>2026-08-05T11:40:19.000Z</time>
        <extensions>
          <ns3:TrackPointExtension>
            <ns3:hr>100</ns3:hr>
            <ns3:cad>49</ns3:cad>
          </ns3:TrackPointExtension>
        </extensions>
      </trkpt>
      <trkpt lat="43.46430617384612560272216796875" lon="1.4223863370716571807861328125">
        <ele>156.8000030517578125</ele>
        <time>2026-08-05T11:40:20.000Z</time>
        <extensions>
          <ns3:TrackPointExtension>
            <ns3:hr>101</ns3:hr>
            <ns3:cad>49</ns3:cad>
          </ns3:TrackPointExtension>
        </extensions>
      </trkpt>
      <trkpt lat="43.46429661847651004791259765625" lon="1.422388851642608642578125">
        <ele>156.8000030517578125</ele>
        <time>2026-08-05T11:40:21.000Z</time>
        <extensions>
          <ns3:TrackPointExtension>
            <ns3:hr>101</ns3:hr>
            <ns3:cad>48</ns3:cad>
          </ns3:TrackPointExtension>
        </extensions>
      </trkpt>
      <trkpt lat="43.46428555436432361602783203125" lon="1.42239245586097240447998046875">
        <ele>156.600006103515625</ele>
        <time>2026-08-05T11:40:22.000Z</time>
        <extensions>
          <ns3:TrackPointExtension>
            <ns3:hr>101</ns3:hr>
            <ns3:cad>48</ns3:cad>
          </ns3:TrackPointExtension>
        </extensions>
      </trkpt>
      <trkpt lat="43.4642752446234226226806640625" lon="1.42239849083125591278076171875">
        <ele>156.8000030517578125</ele>
        <time>2026-08-05T11:40:23.000Z</time>
        <extensions>
          <ns3:TrackPointExtension>
            <ns3:hr>100</ns3:hr>
            <ns3:cad>48</ns3:cad>
          </ns3:TrackPointExtension>
        </extensions>
      </trkpt>
      <trkpt lat="43.46426309086382389068603515625" lon="1.42240636982023715972900390625">
        <ele>156.8000030517578125</ele>
        <time>2026-08-05T11:40:24.000Z</time>
        <extensions>
          <ns3:TrackPointExtension>
            <ns3:hr>100</ns3:hr>
            <ns3:cad>48</ns3:cad>
          </ns3:TrackPointExtension>
        </extensions>
      </trkpt>
      <trkpt lat="43.46425236202776432037353515625" lon="1.42241290770471096038818359375">
        <ele>156.8000030517578125</ele>
        <time>2026-08-05T11:40:25.000Z</time>
        <extensions>
          <ns3:TrackPointExtension>
            <ns3:hr>99</ns3:hr>
            <ns3:cad>50</ns3:cad>
          </ns3:TrackPointExtension>
        </extensions>
      </trkpt>
      <trkpt lat="43.4642440639436244964599609375" lon="1.42241709865629673004150390625">
        <ele>156.8000030517578125</ele>
        <time>2026-08-05T11:40:26.000Z</time>
        <extensions>
          <ns3:TrackPointExtension>
            <ns3:hr>99</ns3:hr>
            <ns3:cad>50</ns3:cad>
          </ns3:TrackPointExtension>
        </extensions>
      </trkpt>
      <trkpt lat="43.464233167469501495361328125" lon="1.422424055635929107666015625">
        <ele>156.8000030517578125</ele>
        <time>2026-08-05T11:40:27.000Z</time>
        <extensions>
          <ns3:TrackPointExtension>
            <ns3:hr>99</ns3:hr>
            <ns3:cad>49</ns3:cad>
          </ns3:TrackPointExtension>
        </extensions>
      </trkpt>
      <trkpt lat="43.4642229415476322174072265625" lon="1.42243109643459320068359375">
        <ele>156.8000030517578125</ele>
        <time>2026-08-05T11:40:28.000Z</time>
        <extensions>
          <ns3:TrackPointExtension>
            <ns3:hr>99</ns3:hr>
            <ns3:cad>48</ns3:cad>
          </ns3:TrackPointExtension>
        </extensions>
      </trkpt>
      <trkpt lat="43.46421095542609691619873046875" lon="1.42243687994778156280517578125">
        <ele>156.8000030517578125</ele>
        <time>2026-08-05T11:40:29.000Z</time>
        <extensions>
          <ns3:TrackPointExtension>
            <ns3:hr>99</ns3:hr>
            <ns3:cad>48</ns3:cad>
          </ns3:TrackPointExtension>
        </extensions>
      </trkpt>
      <trkpt lat="43.46419855020940303802490234375" lon="1.42244626767933368682861328125">
        <ele>157</ele>
        <time>2026-08-05T11:40:30.000Z</time>
        <extensions>
          <ns3:TrackPointExtension>
            <ns3:hr>99</ns3:hr>
            <ns3:cad>48</ns3:cad>
          </ns3:TrackPointExtension>
        </extensions>
      </trkpt>
      <trkpt lat="43.464188240468502044677734375" lon="1.42244844697415828704833984375">
        <ele>157</ele>
        <time>2026-08-05T11:40:31.000Z</time>
        <extensions>
          <ns3:TrackPointExtension>
            <ns3:hr>99</ns3:hr>
            <ns3:cad>48</ns3:cad>
          </ns3:TrackPointExtension>
        </extensions>
      </trkpt>
      <trkpt lat="43.464177511632442474365234375" lon="1.4224547334015369415283203125">
        <ele>157</ele>
        <time>2026-08-05T11:40:32.000Z</time>
        <extensions>
          <ns3:TrackPointExtension>
            <ns3:hr>99</ns3:hr>
            <ns3:cad>48</ns3:cad>
          </ns3:TrackPointExtension>
        </extensions>
      </trkpt>
      <trkpt lat="43.4641686268150806427001953125" lon="1.42246269620954990386962890625">
        <ele>157</ele>
        <time>2026-08-05T11:40:33.000Z</time>
        <extensions>
          <ns3:TrackPointExtension>
            <ns3:hr>99</ns3:hr>
            <ns3:cad>48</ns3:cad>
          </ns3:TrackPointExtension>
        </extensions>
      </trkpt>
      <trkpt lat="43.4641585685312747955322265625" lon="1.422470994293689727783203125">
        <ele>157.1999969482421875</ele>
        <time>2026-08-05T11:40:34.000Z</time>
        <extensions>
          <ns3:TrackPointExtension>
            <ns3:hr>99</ns3:hr>
            <ns3:cad>48</ns3:cad>
          </ns3:TrackPointExtension>
        </extensions>
      </trkpt>
      <trkpt lat="43.464148007333278656005859375" lon="1.422478370368480682373046875">
        <ele>157.1999969482421875</ele>
        <time>2026-08-05T11:40:35.000Z</time>
        <extensions>
          <ns3:TrackPointExtension>
            <ns3:hr>99</ns3:hr>
            <ns3:cad>48</ns3:cad>
          </ns3:TrackPointExtension>
        </extensions>
      </trkpt>
      <trkpt lat="43.46413920633494853973388671875" lon="1.422484405338764190673828125">
        <ele>157.1999969482421875</ele>
        <time>2026-08-05T11:40:36.000Z</time>
        <extensions>
          <ns3:TrackPointExtension>
            <ns3:hr>99</ns3:hr>
            <ns3:cad>48</ns3:cad>
          </ns3:TrackPointExtension>
        </extensions>
      </trkpt>
      <trkpt lat="43.4641300700604915618896484375" lon="1.422490440309047698974609375">
        <ele>157.1999969482421875</ele>
        <time>2026-08-05T11:40:37.000Z</time>
        <extensions>
          <ns3:TrackPointExtension>
            <ns3:hr>99</ns3:hr>
            <ns3:cad>48</ns3:cad>
          </ns3:TrackPointExtension>
        </extensions>
      </trkpt>
      <trkpt lat="43.46411992795765399932861328125" lon="1.4224959723651409149169921875">
        <ele>157.1999969482421875</ele>
        <time>2026-08-05T11:40:38.000Z</time>
        <extensions>
          <ns3:TrackPointExtension>
            <ns3:hr>100</ns3:hr>
            <ns3:cad>48</ns3:cad>
          </ns3:TrackPointExtension>
        </extensions>
      </trkpt>
      <trkpt lat="43.46411012113094329833984375" lon="1.422503180801868438720703125">
        <ele>157.1999969482421875</ele>
        <time>2026-08-05T11:40:39.000Z</time>
        <extensions>
          <ns3:TrackPointExtension>
            <ns3:hr>100</ns3:hr>
            <ns3:cad>48</ns3:cad>
          </ns3:TrackPointExtension>
        </extensions>
      </trkpt>
      <trkpt lat="43.464099727571010589599609375" lon="1.42251349054276943206787109375">
        <ele>157.1999969482421875</ele>
        <time>2026-08-05T11:40:40.000Z</time>
        <extensions>
          <ns3:TrackPointExtension>
            <ns3:hr>100</ns3:hr>
            <ns3:cad>49</ns3:cad>
          </ns3:TrackPointExtension>
        </extensions>
      </trkpt>
      <trkpt lat="43.4640898369252681732177734375" lon="1.42252229154109954833984375">
        <ele>157.1999969482421875</ele>
        <time>2026-08-05T11:40:41.000Z</time>
        <extensions>
          <ns3:TrackPointExtension>
            <ns3:hr>100</ns3:hr>
            <ns3:cad>49</ns3:cad>
          </ns3:TrackPointExtension>
        </extensions>
      </trkpt>
      <trkpt lat="43.4640784375369548797607421875" lon="1.4225294999778270721435546875">
        <ele>157.1999969482421875</ele>
        <time>2026-08-05T11:40:42.000Z</time>
        <extensions>
          <ns3:TrackPointExtension>
            <ns3:hr>100</ns3:hr>
            <ns3:cad>48</ns3:cad>
          </ns3:TrackPointExtension>
        </extensions>
      </trkpt>
      <trkpt lat="43.4640673734247684478759765625" lon="1.4225402288138866424560546875">
        <ele>157.1999969482421875</ele>
        <time>2026-08-05T11:40:43.000Z</time>
        <extensions>
          <ns3:TrackPointExtension>
            <ns3:hr>99</ns3:hr>
            <ns3:cad>48</ns3:cad>
          </ns3:TrackPointExtension>
        </extensions>
      </trkpt>
      <trkpt lat="43.46405739895999431610107421875" lon="1.422549784183502197265625">
        <ele>157.1999969482421875</ele>
        <time>2026-08-05T11:40:44.000Z</time>
        <extensions>
          <ns3:TrackPointExtension>
            <ns3:hr>100</ns3:hr>
            <ns3:cad>49</ns3:cad>
          </ns3:TrackPointExtension>
        </extensions>
      </trkpt>
      <trkpt lat="43.46404415555298328399658203125" lon="1.42256093211472034454345703125">
        <ele>157.1999969482421875</ele>
        <time>2026-08-05T11:40:45.000Z</time>
        <extensions>
          <ns3:TrackPointExtension>
            <ns3:hr>99</ns3:hr>
            <ns3:cad>49</ns3:cad>
          </ns3:TrackPointExtension>
        </extensions>
      </trkpt>
      <trkpt lat="43.46403300762176513671875" lon="1.4225677214562892913818359375">
        <ele>157.1999969482421875</ele>
        <time>2026-08-05T11:40:46.000Z</time>
        <extensions>
          <ns3:TrackPointExtension>
            <ns3:hr>99</ns3:hr>
            <ns3:cad>49</ns3:cad>
          </ns3:TrackPointExtension>
        </extensions>
      </trkpt>
      <trkpt lat="43.46402236260473728179931640625" lon="1.42257518135011196136474609375">
        <ele>157.1999969482421875</ele>
        <time>2026-08-05T11:40:47.000Z</time>
        <extensions>
          <ns3:TrackPointExtension>
            <ns3:hr>99</ns3:hr>
            <ns3:cad>49</ns3:cad>
          </ns3:TrackPointExtension>
        </extensions>
      </trkpt>
      <trkpt lat="43.46401356160640716552734375" lon="1.42258205451071262359619140625">
        <ele>157.1999969482421875</ele>
        <time>2026-08-05T11:40:48.000Z</time>
        <extensions>
          <ns3:TrackPointExtension>
            <ns3:hr>99</ns3:hr>
            <ns3:cad>49</ns3:cad>
          </ns3:TrackPointExtension>
        </extensions>
      </trkpt>
      <trkpt lat="43.46400375477969646453857421875" lon="1.4225886762142181396484375">
        <ele>157.1999969482421875</ele>
        <time>2026-08-05T11:40:49.000Z</time>
        <extensions>
          <ns3:TrackPointExtension>
            <ns3:hr>99</ns3:hr>
            <ns3:cad>48</ns3:cad>
          </ns3:TrackPointExtension>
        </extensions>
      </trkpt>
      <trkpt lat="43.46399419941008090972900390625" lon="1.42259831540286540985107421875">
        <ele>157.1999969482421875</ele>
        <time>2026-08-05T11:40:50.000Z</time>
        <extensions>
          <ns3:TrackPointExtension>
            <ns3:hr>99</ns3:hr>
            <ns3:cad>49</ns3:cad>
          </ns3:TrackPointExtension>
        </extensions>
      </trkpt>
      <trkpt lat="43.46398481167852878570556640625" lon="1.4226086251437664031982421875">
        <ele>157.1999969482421875</ele>
        <time>2026-08-05T11:40:51.000Z</time>
        <extensions>
          <ns3:TrackPointExtension>
            <ns3:hr>98</ns3:hr>
            <ns3:cad>49</ns3:cad>
          </ns3:TrackPointExtension>
        </extensions>
      </trkpt>
      <trkpt lat="43.4639753401279449462890625" lon="1.422616504132747650146484375">
        <ele>157.1999969482421875</ele>
        <time>2026-08-05T11:40:52.000Z</time>
        <extensions>
          <ns3:TrackPointExtension>
            <ns3:hr>98</ns3:hr>
            <ns3:cad>49</ns3:cad>
          </ns3:TrackPointExtension>
        </extensions>
      </trkpt>
      <trkpt lat="43.4639684669673442840576171875" lon="1.42262279056012630462646484375">
        <ele>157.1999969482421875</ele>
        <time>2026-08-05T11:40:53.000Z</time>
        <extensions>
          <ns3:TrackPointExtension>
            <ns3:hr>98</ns3:hr>
            <ns3:cad>48</ns3:cad>
          </ns3:TrackPointExtension>
        </extensions>
      </trkpt>
      <trkpt lat="43.4639584086835384368896484375" lon="1.42262957990169525146484375">
        <ele>157.1999969482421875</ele>
        <time>2026-08-05T11:40:54.000Z</time>
        <extensions>
          <ns3:TrackPointExtension>
            <ns3:hr>99</ns3:hr>
            <ns3:cad>48</ns3:cad>
          </ns3:TrackPointExtension>
        </extensions>
      </trkpt>
      <trkpt lat="43.46394625492393970489501953125" lon="1.42263896763324737548828125">
        <ele>157.1999969482421875</ele>
        <time>2026-08-05T11:40:55.000Z</time>
        <extensions>
          <ns3:TrackPointExtension>
            <ns3:hr>98</ns3:hr>
            <ns3:cad>48</ns3:cad>
          </ns3:TrackPointExtension>
        </extensions>
      </trkpt>
      <trkpt lat="43.4639352746307849884033203125" lon="1.42264726571738719940185546875">
        <ele>157.1999969482421875</ele>
        <time>2026-08-05T11:40:56.000Z</time>
        <extensions>
          <ns3:TrackPointExtension>
            <ns3:hr>98</ns3:hr>
            <ns3:cad>48</ns3:cad>
          </ns3:TrackPointExtension>
        </extensions>
      </trkpt>
      <trkpt lat="43.4639262221753597259521484375" lon="1.42265765927731990814208984375">
        <ele>157.1999969482421875</ele>
        <time>2026-08-05T11:40:57.000Z</time>
        <extensions>
          <ns3:TrackPointExtension>
            <ns3:hr>98</ns3:hr>
            <ns3:cad>48</ns3:cad>
          </ns3:TrackPointExtension>
        </extensions>
      </trkpt>
      <trkpt lat="43.4639161638915538787841796875" lon="1.42266503535211086273193359375">
        <ele>157.1999969482421875</ele>
        <time>2026-08-05T11:40:58.000Z</time>
        <extensions>
          <ns3:TrackPointExtension>
            <ns3:hr>98</ns3:hr>
            <ns3:cad>48</ns3:cad>
          </ns3:TrackPointExtension>
        </extensions>
      </trkpt>
      <trkpt lat="43.4639082849025726318359375" lon="1.42267090268433094024658203125">
        <ele>157.1999969482421875</ele>
        <time>2026-08-05T11:40:59.000Z</time>
        <extensions>
          <ns3:TrackPointExtension>
            <ns3:hr>98</ns3:hr>
            <ns3:cad>48</ns3:cad>
          </ns3:TrackPointExtension>
        </extensions>
      </trkpt>
      <trkpt lat="43.46389797516167163848876953125" lon="1.42267744056880474090576171875">
        <ele>157.1999969482421875</ele>
        <time>2026-08-05T11:41:00.000Z</time>
        <extensions>
          <ns3:TrackPointExtension>
            <ns3:hr>98</ns3:hr>
            <ns3:cad>48</ns3:cad>
          </ns3:TrackPointExtension>
        </extensions>
      </trkpt>
      <trkpt lat="43.46388741396367549896240234375" lon="1.422686912119388580322265625">
        <ele>157.1999969482421875</ele>
        <time>2026-08-05T11:41:01.000Z</time>
        <extensions>
          <ns3:TrackPointExtension>
            <ns3:hr>98</ns3:hr>
            <ns3:cad>48</ns3:cad>
          </ns3:TrackPointExtension>
        </extensions>
      </trkpt>
      <trkpt lat="43.4638792835175991058349609375" lon="1.42269621603190898895263671875">
        <ele>157.399993896484375</ele>
        <time>2026-08-05T11:41:02.000Z</time>
        <extensions>
          <ns3:TrackPointExtension>
            <ns3:hr>97</ns3:hr>
            <ns3:cad>48</ns3:cad>
          </ns3:TrackPointExtension>
        </extensions>
      </trkpt>
      <trkpt lat="43.4638682194054126739501953125" lon="1.4227040112018585205078125">
        <ele>157.399993896484375</ele>
        <time>2026-08-05T11:41:03.000Z</time>
        <extensions>
          <ns3:TrackPointExtension>
            <ns3:hr>97</ns3:hr>
            <ns3:cad>48</ns3:cad>
          </ns3:TrackPointExtension>
        </extensions>
      </trkpt>
      <trkpt lat="43.4638595022261142730712890625" lon="1.42270912416279315948486328125">
        <ele>157.399993896484375</ele>
        <time>2026-08-05T11:41:04.000Z</time>
        <extensions>
          <ns3:TrackPointExtension>
            <ns3:hr>97</ns3:hr>
            <ns3:cad>48</ns3:cad>
          </ns3:TrackPointExtension>
        </extensions>
      </trkpt>
      <trkpt lat="43.46385053358972072601318359375" lon="1.42271633259952068328857421875">
        <ele>157.399993896484375</ele>
        <time>2026-08-05T11:41:05.000Z</time>
        <extensions>
          <ns3:TrackPointExtension>
            <ns3:hr>97</ns3:hr>
            <ns3:cad>48</ns3:cad>
          </ns3:TrackPointExtension>
        </extensions>
      </trkpt>
      <trkpt lat="43.4638397209346294403076171875" lon="1.4227263070642948150634765625">
        <ele>157.399993896484375</ele>
        <time>2026-08-05T11:41:06.000Z</time>
        <extensions>
          <ns3:TrackPointExtension>
            <ns3:hr>96</ns3:hr>
            <ns3:cad>48</ns3:cad>
          </ns3:TrackPointExtension>
        </extensions>
      </trkpt>
      <trkpt lat="43.46383041702210903167724609375" lon="1.42273552715778350830078125">
        <ele>157.600006103515625</ele>
        <time>2026-08-05T11:41:07.000Z</time>
        <extensions>
          <ns3:TrackPointExtension>
            <ns3:hr>96</ns3:hr>
            <ns3:cad>49</ns3:cad>
          </ns3:TrackPointExtension>
        </extensions>
      </trkpt>
      <trkpt lat="43.4638209454715251922607421875" lon="1.4227415621280670166015625">
        <ele>157.600006103515625</ele>
        <time>2026-08-05T11:41:08.000Z</time>
        <extensions>
          <ns3:TrackPointExtension>
            <ns3:hr>96</ns3:hr>
            <ns3:cad>47</ns3:cad>
          </ns3:TrackPointExtension>
        </extensions>
      </trkpt>
      <trkpt lat="43.46381063573062419891357421875" lon="1.422748267650604248046875">
        <ele>157.399993896484375</ele>
        <time>2026-08-05T11:41:09.000Z</time>
        <extensions>
          <ns3:TrackPointExtension>
            <ns3:hr>96</ns3:hr>
            <ns3:cad>47</ns3:cad>
          </ns3:TrackPointExtension>
        </extensions>
      </trkpt>
      <trkpt lat="43.46380175091326236724853515625" lon="1.42275723628699779510498046875">
        <ele>157.399993896484375</ele>
        <time>2026-08-05T11:41:10.000Z</time>
        <extensions>
          <ns3:TrackPointExtension>
            <ns3:hr>96</ns3:hr>
            <ns3:cad>47</ns3:cad>
          </ns3:TrackPointExtension>
        </extensions>
      </trkpt>
      <trkpt lat="43.4637901000678539276123046875" lon="1.422764360904693603515625">
        <ele>157.399993896484375</ele>
        <time>2026-08-05T11:41:11.000Z</time>
        <extensions>
          <ns3:TrackPointExtension>
            <ns3:hr>96</ns3:hr>
            <ns3:cad>48</ns3:cad>
          </ns3:TrackPointExtension>
        </extensions>
      </trkpt>
      <trkpt lat="43.46378155052661895751953125" lon="1.42277383245527744293212890625">
        <ele>157.399993896484375</ele>
        <time>2026-08-05T11:41:12.000Z</time>
        <extensions>
          <ns3:TrackPointExtension>
            <ns3:hr>96</ns3:hr>
            <ns3:cad>48</ns3:cad>
          </ns3:TrackPointExtension>
        </extensions>
      </trkpt>
      <trkpt lat="43.463768474757671356201171875" lon="1.4227836392819881439208984375">
        <ele>157.399993896484375</ele>
        <time>2026-08-05T11:41:13.000Z</time>
        <extensions>
          <ns3:TrackPointExtension>
            <ns3:hr>95</ns3:hr>
            <ns3:cad>50</ns3:cad>
          </ns3:TrackPointExtension>
        </extensions>
      </trkpt>
      <trkpt lat="43.463759087026119232177734375" lon="1.42279051244258880615234375">
        <ele>157.399993896484375</ele>
        <time>2026-08-05T11:41:14.000Z</time>
        <extensions>
          <ns3:TrackPointExtension>
            <ns3:hr>96</ns3:hr>
            <ns3:cad>50</ns3:cad>
          </ns3:TrackPointExtension>
        </extensions>
      </trkpt>
      <trkpt lat="43.463747687637805938720703125" lon="1.422796547412872314453125">
        <ele>157.399993896484375</ele>
        <time>2026-08-05T11:41:15.000Z</time>
        <extensions>
          <ns3:TrackPointExtension>
            <ns3:hr>96</ns3:hr>
            <ns3:cad>50</ns3:cad>
          </ns3:TrackPointExtension>
        </extensions>
      </trkpt>
      <trkpt lat="43.4637334384024143218994140625" lon="1.42281062901020050048828125">
        <ele>157.399993896484375</ele>
        <time>2026-08-05T11:41:16.000Z</time>
        <extensions>
          <ns3:TrackPointExtension>
            <ns3:hr>95</ns3:hr>
            <ns3:cad>49</ns3:cad>
          </ns3:TrackPointExtension>
        </extensions>
      </trkpt>
      <trkpt lat="43.46372413448989391326904296875" lon="1.4228193461894989013671875">
        <ele>157.399993896484375</ele>
        <time>2026-08-05T11:41:17.000Z</time>
        <extensions>
          <ns3:TrackPointExtension>
            <ns3:hr>96</ns3:hr>
            <ns3:cad>49</ns3:cad>
          </ns3:TrackPointExtension>
        </extensions>
      </trkpt>
      <trkpt lat="43.46371307037770748138427734375" lon="1.42282948829233646392822265625">
        <ele>157.399993896484375</ele>
        <time>2026-08-05T11:41:18.000Z</time>
        <extensions>
          <ns3:TrackPointExtension>
            <ns3:hr>96</ns3:hr>
            <ns3:cad>48</ns3:cad>
          </ns3:TrackPointExtension>
        </extensions>
      </trkpt>
      <trkpt lat="43.46370242536067962646484375" lon="1.4228362776339054107666015625">
        <ele>157.399993896484375</ele>
        <time>2026-08-05T11:41:19.000Z</time>
        <extensions>
          <ns3:TrackPointExtension>
            <ns3:hr>95</ns3:hr>
            <ns3:cad>48</ns3:cad>
          </ns3:TrackPointExtension>
        </extensions>
      </trkpt>
      <trkpt lat="43.46369680948555469512939453125" lon="1.42284122295677661895751953125">
        <ele>157.399993896484375</ele>
        <time>2026-08-05T11:41:20.000Z</time>
        <extensions>
          <ns3:TrackPointExtension>
            <ns3:hr>96</ns3:hr>
            <ns3:cad>48</ns3:cad>
          </ns3:TrackPointExtension>
        </extensions>
      </trkpt>
      <trkpt lat="43.4636905230581760406494140625" lon="1.4228503592312335968017578125">
        <ele>157.399993896484375</ele>
        <time>2026-08-05T11:41:21.000Z</time>
        <extensions>
          <ns3:TrackPointExtension>
            <ns3:hr>96</ns3:hr>
            <ns3:cad>49</ns3:cad>
          </ns3:TrackPointExtension>
        </extensions>
      </trkpt>
      <trkpt lat="43.46367820166051387786865234375" lon="1.4228597469627857208251953125">
        <ele>157.399993896484375</ele>
        <time>2026-08-05T11:41:22.000Z</time>
        <extensions>
          <ns3:TrackPointExtension>
            <ns3:hr>95</ns3:hr>
            <ns3:cad>49</ns3:cad>
          </ns3:TrackPointExtension>
        </extensions>
      </trkpt>
      <trkpt lat="43.463665880262851715087890625" lon="1.4228728227317333221435546875">
        <ele>157.399993896484375</ele>
        <time>2026-08-05T11:41:23.000Z</time>
        <extensions>
          <ns3:TrackPointExtension>
            <ns3:hr>96</ns3:hr>
            <ns3:cad>50</ns3:cad>
          </ns3:TrackPointExtension>
        </extensions>
      </trkpt>
      <trkpt lat="43.4636534750461578369140625" lon="1.42287910915911197662353515625">
        <ele>157.399993896484375</ele>
        <time>2026-08-05T11:41:24.000Z</time>
        <extensions>
          <ns3:TrackPointExtension>
            <ns3:hr>95</ns3:hr>
            <ns3:cad>49</ns3:cad>
          </ns3:TrackPointExtension>
        </extensions>
      </trkpt>
      <trkpt lat="43.4636425785720348358154296875" lon="1.4228865690529346466064453125">
        <ele>157.399993896484375</ele>
        <time>2026-08-05T11:41:25.000Z</time>
        <extensions>
          <ns3:TrackPointExtension>
            <ns3:hr>95</ns3:hr>
            <ns3:cad>49</ns3:cad>
          </ns3:TrackPointExtension>
        </extensions>
      </trkpt>
      <trkpt lat="43.46363126300275325775146484375" lon="1.42289520241320133209228515625">
        <ele>157.399993896484375</ele>
        <time>2026-08-05T11:41:26.000Z</time>
        <extensions>
          <ns3:TrackPointExtension>
            <ns3:hr>95</ns3:hr>
            <ns3:cad>49</ns3:cad>
          </ns3:TrackPointExtension>
        </extensions>
      </trkpt>
      <trkpt lat="43.46361718140542507171630859375" lon="1.4229080267250537872314453125">
        <ele>157.399993896484375</ele>
        <time>2026-08-05T11:41:27.000Z</time>
        <extensions>
          <ns3:TrackPointExtension>
            <ns3:hr>96</ns3:hr>
            <ns3:cad>49</ns3:cad>
          </ns3:TrackPointExtension>
        </extensions>
      </trkpt>
      <trkpt lat="43.46360460855066776275634765625" lon="1.42292059957981109619140625">
        <ele>157.399993896484375</ele>
        <time>2026-08-05T11:41:28.000Z</time>
        <extensions>
          <ns3:TrackPointExtension>
            <ns3:hr>95</ns3:hr>
            <ns3:cad>49</ns3:cad>
          </ns3:TrackPointExtension>
        </extensions>
      </trkpt>
      <trkpt lat="43.463594801723957061767578125" lon="1.4229294843971729278564453125">
        <ele>157.600006103515625</ele>
        <time>2026-08-05T11:41:29.000Z</time>
        <extensions>
          <ns3:TrackPointExtension>
            <ns3:hr>96</ns3:hr>
            <ns3:cad>49</ns3:cad>
          </ns3:TrackPointExtension>
        </extensions>
      </trkpt>
      <trkpt lat="43.4635862521827220916748046875" lon="1.42293744720518589019775390625">
        <ele>157.600006103515625</ele>
        <time>2026-08-05T11:41:30.000Z</time>
        <extensions>
          <ns3:TrackPointExtension>
            <ns3:hr>96</ns3:hr>
            <ns3:cad>48</ns3:cad>
          </ns3:TrackPointExtension>
        </extensions>
      </trkpt>
      <trkpt lat="43.46357795409858226776123046875" lon="1.42294717021286487579345703125">
        <ele>157.600006103515625</ele>
        <time>2026-08-05T11:41:31.000Z</time>
        <extensions>
          <ns3:TrackPointExtension>
            <ns3:hr>96</ns3:hr>
            <ns3:cad>48</ns3:cad>
          </ns3:TrackPointExtension>
        </extensions>
      </trkpt>
      <trkpt lat="43.46357166767120361328125" lon="1.42295278608798980712890625">
        <ele>157.600006103515625</ele>
        <time>2026-08-05T11:41:32.000Z</time>
        <extensions>
          <ns3:TrackPointExtension>
            <ns3:hr>95</ns3:hr>
            <ns3:cad>49</ns3:cad>
          </ns3:TrackPointExtension>
        </extensions>
      </trkpt>
      <trkpt lat="43.46356102265417575836181640625" lon="1.4229641854763031005859375">
        <ele>157.600006103515625</ele>
        <time>2026-08-05T11:41:33.000Z</time>
        <extensions>
          <ns3:TrackPointExtension>
            <ns3:hr>96</ns3:hr>
            <ns3:cad>49</ns3:cad>
          </ns3:TrackPointExtension>
        </extensions>
      </trkpt>
      <trkpt lat="43.4635523892939090728759765625" lon="1.422971896827220916748046875">
        <ele>157.600006103515625</ele>
        <time>2026-08-05T11:41:34.000Z</time>
        <extensions>
          <ns3:TrackPointExtension>
            <ns3:hr>96</ns3:hr>
            <ns3:cad>49</ns3:cad>
          </ns3:TrackPointExtension>
        </extensions>
      </trkpt>
      <trkpt lat="43.46354543231427669525146484375" lon="1.42297424376010894775390625">
        <ele>157.600006103515625</ele>
        <time>2026-08-05T11:41:35.000Z</time>
        <extensions>
          <ns3:TrackPointExtension>
            <ns3:hr>96</ns3:hr>
            <ns3:cad>49</ns3:cad>
          </ns3:TrackPointExtension>
        </extensions>
      </trkpt>
      <trkpt lat="43.4635408222675323486328125" lon="1.42298170365393161773681640625">
        <ele>157.600006103515625</ele>
        <time>2026-08-05T11:41:36.000Z</time>
        <extensions>
          <ns3:TrackPointExtension>
            <ns3:hr>95</ns3:hr>
            <ns3:cad>49</ns3:cad>
          </ns3:TrackPointExtension>
        </extensions>
      </trkpt>
      <trkpt lat="43.46353101544082164764404296875" lon="1.4229898341000080108642578125">
        <ele>157.600006103515625</ele>
        <time>2026-08-05T11:41:37.000Z</time>
        <extensions>
          <ns3:TrackPointExtension>
            <ns3:hr>96</ns3:hr>
            <ns3:cad>49</ns3:cad>
          </ns3:TrackPointExtension>
        </extensions>
      </trkpt>
      <trkpt lat="43.463516347110271453857421875" lon="1.4230012334883213043212890625">
        <ele>157.600006103515625</ele>
        <time>2026-08-05T11:41:38.000Z</time>
        <extensions>
          <ns3:TrackPointExtension>
            <ns3:hr>96</ns3:hr>
            <ns3:cad>46</ns3:cad>
          </ns3:TrackPointExtension>
        </extensions>
      </trkpt>
      <trkpt lat="43.4635057859122753143310546875" lon="1.4230122976005077362060546875">
        <ele>157.600006103515625</ele>
        <time>2026-08-05T11:41:39.000Z</time>
        <extensions>
          <ns3:TrackPointExtension>
            <ns3:hr>96</ns3:hr>
            <ns3:cad>45</ns3:cad>
          </ns3:TrackPointExtension>
        </extensions>
      </trkpt>
      <trkpt lat="43.463496901094913482666015625" lon="1.42302042804658412933349609375">
        <ele>157.600006103515625</ele>
        <time>2026-08-05T11:41:40.000Z</time>
        <extensions>
          <ns3:TrackPointExtension>
            <ns3:hr>97</ns3:hr>
            <ns3:cad>45</ns3:cad>
          </ns3:TrackPointExtension>
        </extensions>
      </trkpt>
      <trkpt lat="43.46348474733531475067138671875" lon="1.42302864231169223785400390625">
        <ele>157.600006103515625</ele>
        <time>2026-08-05T11:41:41.000Z</time>
        <extensions>
          <ns3:TrackPointExtension>
            <ns3:hr>97</ns3:hr>
            <ns3:cad>48</ns3:cad>
          </ns3:TrackPointExtension>
        </extensions>
      </trkpt>
      <trkpt lat="43.46347519196569919586181640625" lon="1.42303417436778545379638671875">
        <ele>157.600006103515625</ele>
        <time>2026-08-05T11:41:42.000Z</time>
        <extensions>
          <ns3:TrackPointExtension>
            <ns3:hr>97</ns3:hr>
            <ns3:cad>48</ns3:cad>
          </ns3:TrackPointExtension>
        </extensions>
      </trkpt>
      <trkpt lat="43.4634682349860668182373046875" lon="1.42304188571870326995849609375">
        <ele>157.600006103515625</ele>
        <time>2026-08-05T11:41:43.000Z</time>
        <extensions>
          <ns3:TrackPointExtension>
            <ns3:hr>97</ns3:hr>
            <ns3:cad>48</ns3:cad>
          </ns3:TrackPointExtension>
        </extensions>
      </trkpt>
      <trkpt lat="43.46345758996903896331787109375" lon="1.423053704202175140380859375">
        <ele>157.600006103515625</ele>
        <time>2026-08-05T11:41:44.000Z</time>
        <extensions>
          <ns3:TrackPointExtension>
            <ns3:hr>97</ns3:hr>
            <ns3:cad>48</ns3:cad>
          </ns3:TrackPointExtension>
        </extensions>
      </trkpt>
      <trkpt lat="43.463446609675884246826171875" lon="1.423068456351757049560546875">
        <ele>157.600006103515625</ele>
        <time>2026-08-05T11:41:45.000Z</time>
        <extensions>
          <ns3:TrackPointExtension>
            <ns3:hr>97</ns3:hr>
            <ns3:cad>48</ns3:cad>
          </ns3:TrackPointExtension>
        </extensions>
      </trkpt>
      <trkpt lat="43.4634383954107761383056640625" lon="1.4230780117213726043701171875">
        <ele>157.600006103515625</ele>
        <time>2026-08-05T11:41:46.000Z</time>
        <extensions>
          <ns3:TrackPointExtension>
            <ns3:hr>97</ns3:hr>
            <ns3:cad>48</ns3:cad>
          </ns3:TrackPointExtension>
        </extensions>
      </trkpt>
      <trkpt lat="43.46342674456536769866943359375" lon="1.4230830408632755279541015625">
        <ele>157.600006103515625</ele>
        <time>2026-08-05T11:41:47.000Z</time>
        <extensions>
          <ns3:TrackPointExtension>
            <ns3:hr>97</ns3:hr>
            <ns3:cad>50</ns3:cad>
          </ns3:TrackPointExtension>
        </extensions>
      </trkpt>
      <trkpt lat="43.46342054195702075958251953125" lon="1.42308530397713184356689453125">
        <ele>157.600006103515625</ele>
        <time>2026-08-05T11:41:48.000Z</time>
        <extensions>
          <ns3:TrackPointExtension>
            <ns3:hr>97</ns3:hr>
            <ns3:cad>50</ns3:cad>
          </ns3:TrackPointExtension>
        </extensions>
      </trkpt>
      <trkpt lat="43.463410399854183197021484375" lon="1.42309586517512798309326171875">
        <ele>157.600006103515625</ele>
        <time>2026-08-05T11:41:49.000Z</time>
        <extensions>
          <ns3:TrackPointExtension>
            <ns3:hr>97</ns3:hr>
            <ns3:cad>50</ns3:cad>
          </ns3:TrackPointExtension>
        </extensions>
      </trkpt>
      <trkpt lat="43.4633984975516796112060546875" lon="1.42310701310634613037109375">
        <ele>157.600006103515625</ele>
        <time>2026-08-05T11:41:50.000Z</time>
        <extensions>
          <ns3:TrackPointExtension>
            <ns3:hr>97</ns3:hr>
            <ns3:cad>49</ns3:cad>
          </ns3:TrackPointExtension>
        </extensions>
      </trkpt>
      <trkpt lat="43.4633879363536834716796875" lon="1.4231158979237079620361328125">
        <ele>157.600006103515625</ele>
        <time>2026-08-05T11:41:51.000Z</time>
        <extensions>
          <ns3:TrackPointExtension>
            <ns3:hr>96</ns3:hr>
            <ns3:cad>49</ns3:cad>
          </ns3:TrackPointExtension>
        </extensions>
      </trkpt>
      <trkpt lat="43.4633773751556873321533203125" lon="1.4231236092746257781982421875">
        <ele>157.600006103515625</ele>
        <time>2026-08-05T11:41:52.000Z</time>
        <extensions>
          <ns3:TrackPointExtension>
            <ns3:hr>96</ns3:hr>
            <ns3:cad>49</ns3:cad>
          </ns3:TrackPointExtension>
        </extensions>
      </trkpt>
      <trkpt lat="43.46336639486253261566162109375" lon="1.42312687821686267852783203125">
        <ele>157.600006103515625</ele>
        <time>2026-08-05T11:41:53.000Z</time>
        <extensions>
          <ns3:TrackPointExtension>
            <ns3:hr>96</ns3:hr>
            <ns3:cad>49</ns3:cad>
          </ns3:TrackPointExtension>
        </extensions>
      </trkpt>
      <trkpt lat="43.46335533075034618377685546875" lon="1.42313676886260509490966796875">
        <ele>157.600006103515625</ele>
        <time>2026-08-05T11:41:54.000Z</time>
        <extensions>
          <ns3:TrackPointExtension>
            <ns3:hr>95</ns3:hr>
            <ns3:cad>49</ns3:cad>
          </ns3:TrackPointExtension>
        </extensions>
      </trkpt>
      <trkpt lat="43.463344015181064605712890625" lon="1.4231504313647747039794921875">
        <ele>157.600006103515625</ele>
        <time>2026-08-05T11:41:55.000Z</time>
        <extensions>
          <ns3:TrackPointExtension>
            <ns3:hr>95</ns3:hr>
            <ns3:cad>48</ns3:cad>
          </ns3:TrackPointExtension>
        </extensions>
      </trkpt>
      <trkpt lat="43.4633327834308147430419921875" lon="1.42315856181085109710693359375">
        <ele>157.600006103515625</ele>
        <time>2026-08-05T11:41:56.000Z</time>
        <extensions>
          <ns3:TrackPointExtension>
            <ns3:hr>96</ns3:hr>
            <ns3:cad>48</ns3:cad>
          </ns3:TrackPointExtension>
        </extensions>
      </trkpt>
      <trkpt lat="43.46332247368991374969482421875" lon="1.4231675304472446441650390625">
        <ele>157.600006103515625</ele>
        <time>2026-08-05T11:41:57.000Z</time>
        <extensions>
          <ns3:TrackPointExtension>
            <ns3:hr>96</ns3:hr>
            <ns3:cad>48</ns3:cad>
          </ns3:TrackPointExtension>
        </extensions>
      </trkpt>
      <trkpt lat="43.463315851986408233642578125" lon="1.42317314632236957550048828125">
        <ele>157.600006103515625</ele>
        <time>2026-08-05T11:41:58.000Z</time>
        <extensions>
          <ns3:TrackPointExtension>
            <ns3:hr>96</ns3:hr>
            <ns3:cad>48</ns3:cad>
          </ns3:TrackPointExtension>
        </extensions>
      </trkpt>
      <trkpt lat="43.46331040374934673309326171875" lon="1.423182450234889984130859375">
        <ele>157.600006103515625</ele>
        <time>2026-08-05T11:41:59.000Z</time>
        <extensions>
          <ns3:TrackPointExtension>
            <ns3:hr>96</ns3:hr>
            <ns3:cad>48</ns3:cad>
          </ns3:TrackPointExtension>
        </extensions>
      </trkpt>
      <trkpt lat="43.46329900436103343963623046875" lon="1.42319560982286930084228515625">
        <ele>157.600006103515625</ele>
        <time>2026-08-05T11:42:00.000Z</time>
        <extensions>
          <ns3:TrackPointExtension>
            <ns3:hr>96</ns3:hr>
            <ns3:cad>48</ns3:cad>
          </ns3:TrackPointExtension>
        </extensions>
      </trkpt>
      <trkpt lat="43.463285006582736968994140625" lon="1.423209272325038909912109375">
        <ele>157.600006103515625</ele>
        <time>2026-08-05T11:42:01.000Z</time>
        <extensions>
          <ns3:TrackPointExtension>
            <ns3:hr>95</ns3:hr>
            <ns3:cad>49</ns3:cad>
          </ns3:TrackPointExtension>
        </extensions>
      </trkpt>
      <trkpt lat="43.463272936642169952392578125" lon="1.42322159372270107269287109375">
        <ele>157.600006103515625</ele>
        <time>2026-08-05T11:42:02.000Z</time>
        <extensions>
          <ns3:TrackPointExtension>
            <ns3:hr>95</ns3:hr>
            <ns3:cad>49</ns3:cad>
          </ns3:TrackPointExtension>
        </extensions>
      </trkpt>
      <trkpt lat="43.46325994469225406646728515625" lon="1.423231400549411773681640625">
        <ele>157.600006103515625</ele>
        <time>2026-08-05T11:42:03.000Z</time>
        <extensions>
          <ns3:TrackPointExtension>
            <ns3:hr>95</ns3:hr>
            <ns3:cad>49</ns3:cad>
          </ns3:TrackPointExtension>
        </extensions>
      </trkpt>
      <trkpt lat="43.463249467313289642333984375" lon="1.42323617823421955108642578125">
        <ele>157.600006103515625</ele>
        <time>2026-08-05T11:42:04.000Z</time>
        <extensions>
          <ns3:TrackPointExtension>
            <ns3:hr>95</ns3:hr>
            <ns3:cad>49</ns3:cad>
          </ns3:TrackPointExtension>
        </extensions>
      </trkpt>
      <trkpt lat="43.46324150450527667999267578125" lon="1.4232446439564228057861328125">
        <ele>157.600006103515625</ele>
        <time>2026-08-05T11:42:05.000Z</time>
        <extensions>
          <ns3:TrackPointExtension>
            <ns3:hr>96</ns3:hr>
            <ns3:cad>49</ns3:cad>
          </ns3:TrackPointExtension>
        </extensions>
      </trkpt>
      <trkpt lat="43.46323178149759769439697265625" lon="1.42325629480183124542236328125">
        <ele>157.600006103515625</ele>
        <time>2026-08-05T11:42:06.000Z</time>
        <extensions>
          <ns3:TrackPointExtension>
            <ns3:hr>95</ns3:hr>
            <ns3:cad>49</ns3:cad>
          </ns3:TrackPointExtension>
        </extensions>
      </trkpt>
      <trkpt lat="43.463221974670886993408203125" lon="1.42326886765658855438232421875">
        <ele>157.600006103515625</ele>
        <time>2026-08-05T11:42:07.000Z</time>
        <extensions>
          <ns3:TrackPointExtension>
            <ns3:hr>95</ns3:hr>
            <ns3:cad>49</ns3:cad>
          </ns3:TrackPointExtension>
        </extensions>
      </trkpt>
      <trkpt lat="43.463211916387081146240234375" lon="1.42327607609331607818603515625">
        <ele>157.600006103515625</ele>
        <time>2026-08-05T11:42:08.000Z</time>
        <extensions>
          <ns3:TrackPointExtension>
            <ns3:hr>96</ns3:hr>
            <ns3:cad>49</ns3:cad>
          </ns3:TrackPointExtension>
        </extensions>
      </trkpt>
      <trkpt lat="43.46320395357906818389892578125" lon="1.42328144051134586334228515625">
        <ele>157.600006103515625</ele>
        <time>2026-08-05T11:42:09.000Z</time>
        <extensions>
          <ns3:TrackPointExtension>
            <ns3:hr>97</ns3:hr>
            <ns3:cad>49</ns3:cad>
          </ns3:TrackPointExtension>
        </extensions>
      </trkpt>
      <trkpt lat="43.46319657750427722930908203125" lon="1.42328496091067790985107421875">
        <ele>157.600006103515625</ele>
        <time>2026-08-05T11:42:10.000Z</time>
        <extensions>
          <ns3:TrackPointExtension>
            <ns3:hr>97</ns3:hr>
            <ns3:cad>50</ns3:cad>
          </ns3:TrackPointExtension>
        </extensions>
      </trkpt>
      <trkpt lat="43.46318501047790050506591796875" lon="1.4232922531664371490478515625">
        <ele>157.600006103515625</ele>
        <time>2026-08-05T11:42:11.000Z</time>
        <extensions>
          <ns3:TrackPointExtension>
            <ns3:hr>97</ns3:hr>
            <ns3:cad>50</ns3:cad>
          </ns3:TrackPointExtension>
        </extensions>
      </trkpt>
      <trkpt lat="43.463171012699604034423828125" lon="1.42330088652670383453369140625">
        <ele>157.600006103515625</ele>
        <time>2026-08-05T11:42:12.000Z</time>
        <extensions>
          <ns3:TrackPointExtension>
            <ns3:hr>97</ns3:hr>
            <ns3:cad>50</ns3:cad>
          </ns3:TrackPointExtension>
        </extensions>
      </trkpt>
      <trkpt lat="43.46316204406321048736572265625" lon="1.4233093522489070892333984375">
        <ele>157.600006103515625</ele>
        <time>2026-08-05T11:42:13.000Z</time>
        <extensions>
          <ns3:TrackPointExtension>
            <ns3:hr>98</ns3:hr>
            <ns3:cad>49</ns3:cad>
          </ns3:TrackPointExtension>
        </extensions>
      </trkpt>
      <trkpt lat="43.463152237236499786376953125" lon="1.42331982962787151336669921875">
        <ele>157.600006103515625</ele>
        <time>2026-08-05T11:42:14.000Z</time>
        <extensions>
          <ns3:TrackPointExtension>
            <ns3:hr>97</ns3:hr>
            <ns3:cad>49</ns3:cad>
          </ns3:TrackPointExtension>
        </extensions>
      </trkpt>
      <trkpt lat="43.463144190609455108642578125" lon="1.42332829535007476806640625">
        <ele>157.8000030517578125</ele>
        <time>2026-08-05T11:42:15.000Z</time>
        <extensions>
          <ns3:TrackPointExtension>
            <ns3:hr>97</ns3:hr>
            <ns3:cad>49</ns3:cad>
          </ns3:TrackPointExtension>
        </extensions>
      </trkpt>
      <trkpt lat="43.46313622780144214630126953125" lon="1.42333324067294597625732421875">
        <ele>157.8000030517578125</ele>
        <time>2026-08-05T11:42:16.000Z</time>
        <extensions>
          <ns3:TrackPointExtension>
            <ns3:hr>97</ns3:hr>
            <ns3:cad>49</ns3:cad>
          </ns3:TrackPointExtension>
        </extensions>
      </trkpt>
      <trkpt lat="43.46312868408858776092529296875" lon="1.42334061674773693084716796875">
        <ele>157.8000030517578125</ele>
        <time>2026-08-05T11:42:17.000Z</time>
        <extensions>
          <ns3:TrackPointExtension>
            <ns3:hr>97</ns3:hr>
            <ns3:cad>49</ns3:cad>
          </ns3:TrackPointExtension>
        </extensions>
      </trkpt>
      <trkpt lat="43.4631168656051158905029296875" lon="1.42334975302219390869140625">
        <ele>157.8000030517578125</ele>
        <time>2026-08-05T11:42:18.000Z</time>
        <extensions>
          <ns3:TrackPointExtension>
            <ns3:hr>97</ns3:hr>
            <ns3:cad>49</ns3:cad>
          </ns3:TrackPointExtension>
        </extensions>
      </trkpt>
      <trkpt lat="43.46310404129326343536376953125" lon="1.4233616553246974945068359375">
        <ele>157.8000030517578125</ele>
        <time>2026-08-05T11:42:19.000Z</time>
        <extensions>
          <ns3:TrackPointExtension>
            <ns3:hr>97</ns3:hr>
            <ns3:cad>50</ns3:cad>
          </ns3:TrackPointExtension>
        </extensions>
      </trkpt>
      <trkpt lat="43.46309490501880645751953125" lon="1.423367522656917572021484375">
        <ele>157.600006103515625</ele>
        <time>2026-08-05T11:42:20.000Z</time>
        <extensions>
          <ns3:TrackPointExtension>
            <ns3:hr>96</ns3:hr>
            <ns3:cad>50</ns3:cad>
          </ns3:TrackPointExtension>
        </extensions>
      </trkpt>
      <trkpt lat="43.46308325417339801788330078125" lon="1.4233713783323764801025390625">
        <ele>157.600006103515625</ele>
        <time>2026-08-05T11:42:21.000Z</time>
        <extensions>
          <ns3:TrackPointExtension>
            <ns3:hr>96</ns3:hr>
            <ns3:cad>49</ns3:cad>
          </ns3:TrackPointExtension>
        </extensions>
      </trkpt>
      <trkpt lat="43.4630749560892581939697265625" lon="1.42337665893137454986572265625">
        <ele>157.600006103515625</ele>
        <time>2026-08-05T11:42:22.000Z</time>
        <extensions>
          <ns3:TrackPointExtension>
            <ns3:hr>96</ns3:hr>
            <ns3:cad>48</ns3:cad>
          </ns3:TrackPointExtension>
        </extensions>
      </trkpt>
      <trkpt lat="43.46306464634835720062255859375" lon="1.423386298120021820068359375">
        <ele>157.600006103515625</ele>
        <time>2026-08-05T11:42:23.000Z</time>
        <extensions>
          <ns3:TrackPointExtension>
            <ns3:hr>96</ns3:hr>
            <ns3:cad>48</ns3:cad>
          </ns3:TrackPointExtension>
        </extensions>
      </trkpt>
      <trkpt lat="43.46305333077907562255859375" lon="1.4233985356986522674560546875">
        <ele>157.600006103515625</ele>
        <time>2026-08-05T11:42:24.000Z</time>
        <extensions>
          <ns3:TrackPointExtension>
            <ns3:hr>96</ns3:hr>
            <ns3:cad>49</ns3:cad>
          </ns3:TrackPointExtension>
        </extensions>
      </trkpt>
      <trkpt lat="43.46304369159042835235595703125" lon="1.42340800724923610687255859375">
        <ele>157.600006103515625</ele>
        <time>2026-08-05T11:42:25.000Z</time>
        <extensions>
          <ns3:TrackPointExtension>
            <ns3:hr>95</ns3:hr>
            <ns3:cad>49</ns3:cad>
          </ns3:TrackPointExtension>
        </extensions>
      </trkpt>
      <trkpt lat="43.46303329803049564361572265625" lon="1.42341102473437786102294921875">
        <ele>157.600006103515625</ele>
        <time>2026-08-05T11:42:26.000Z</time>
        <extensions>
          <ns3:TrackPointExtension>
            <ns3:hr>95</ns3:hr>
            <ns3:cad>49</ns3:cad>
          </ns3:TrackPointExtension>
        </extensions>
      </trkpt>
      <trkpt lat="43.46302441321313381195068359375" lon="1.42341655679047107696533203125">
        <ele>157.600006103515625</ele>
        <time>2026-08-05T11:42:27.000Z</time>
        <extensions>
          <ns3:TrackPointExtension>
            <ns3:hr>95</ns3:hr>
            <ns3:cad>49</ns3:cad>
          </ns3:TrackPointExtension>
        </extensions>
      </trkpt>
      <trkpt lat="43.4630156122148036956787109375" lon="1.42342351377010345458984375">
        <ele>157.600006103515625</ele>
        <time>2026-08-05T11:42:28.000Z</time>
        <extensions>
          <ns3:TrackPointExtension>
            <ns3:hr>95</ns3:hr>
            <ns3:cad>49</ns3:cad>
          </ns3:TrackPointExtension>
        </extensions>
      </trkpt>
      <trkpt lat="43.4630043804645538330078125" lon="1.42343583516776561737060546875">
        <ele>157.600006103515625</ele>
        <time>2026-08-05T11:42:29.000Z</time>
        <extensions>
          <ns3:TrackPointExtension>
            <ns3:hr>95</ns3:hr>
            <ns3:cad>49</ns3:cad>
          </ns3:TrackPointExtension>
        </extensions>
      </trkpt>
      <trkpt lat="43.46299222670495510101318359375" lon="1.4234484918415546417236328125">
        <ele>157.600006103515625</ele>
        <time>2026-08-05T11:42:30.000Z</time>
        <extensions>
          <ns3:TrackPointExtension>
            <ns3:hr>95</ns3:hr>
            <ns3:cad>48</ns3:cad>
          </ns3:TrackPointExtension>
        </extensions>
      </trkpt>
      <trkpt lat="43.46298250369727611541748046875" lon="1.423456706106662750244140625">
        <ele>157.600006103515625</ele>
        <time>2026-08-05T11:42:31.000Z</time>
        <extensions>
          <ns3:TrackPointExtension>
            <ns3:hr>96</ns3:hr>
            <ns3:cad>48</ns3:cad>
          </ns3:TrackPointExtension>
        </extensions>
      </trkpt>
      <trkpt lat="43.46297420561313629150390625" lon="1.42346684820950031280517578125">
        <ele>157.600006103515625</ele>
        <time>2026-08-05T11:42:32.000Z</time>
        <extensions>
          <ns3:TrackPointExtension>
            <ns3:hr>96</ns3:hr>
            <ns3:cad>48</ns3:cad>
          </ns3:TrackPointExtension>
        </extensions>
      </trkpt>
      <trkpt lat="43.462963812053203582763671875" lon="1.42347254790365695953369140625">
        <ele>157.600006103515625</ele>
        <time>2026-08-05T11:42:33.000Z</time>
        <extensions>
          <ns3:TrackPointExtension>
            <ns3:hr>96</ns3:hr>
            <ns3:cad>48</ns3:cad>
          </ns3:TrackPointExtension>
        </extensions>
      </trkpt>
      <trkpt lat="43.46295299939811229705810546875" lon="1.42348411493003368377685546875">
        <ele>157.600006103515625</ele>
        <time>2026-08-05T11:42:34.000Z</time>
        <extensions>
          <ns3:TrackPointExtension>
            <ns3:hr>95</ns3:hr>
            <ns3:cad>50</ns3:cad>
          </ns3:TrackPointExtension>
        </extensions>
      </trkpt>
      <trkpt lat="43.4629438631236553192138671875" lon="1.42348746769130229949951171875">
        <ele>157.600006103515625</ele>
        <time>2026-08-05T11:42:35.000Z</time>
        <extensions>
          <ns3:TrackPointExtension>
            <ns3:hr>95</ns3:hr>
            <ns3:cad>50</ns3:cad>
          </ns3:TrackPointExtension>
        </extensions>
      </trkpt>
      <trkpt lat="43.46293305046856403350830078125" lon="1.42349869944155216217041015625">
        <ele>157.399993896484375</ele>
        <time>2026-08-05T11:42:36.000Z</time>
        <extensions>
          <ns3:TrackPointExtension>
            <ns3:hr>95</ns3:hr>
            <ns3:cad>50</ns3:cad>
          </ns3:TrackPointExtension>
        </extensions>
      </trkpt>
      <trkpt lat="43.4629224054515361785888671875" lon="1.42350272275507450103759765625">
        <ele>157.399993896484375</ele>
        <time>2026-08-05T11:42:37.000Z</time>
        <extensions>
          <ns3:TrackPointExtension>
            <ns3:hr>96</ns3:hr>
            <ns3:cad>49</ns3:cad>
          </ns3:TrackPointExtension>
        </extensions>
      </trkpt>
      <trkpt lat="43.462917543947696685791015625" lon="1.4235075004398822784423828125">
        <ele>157.399993896484375</ele>
        <time>2026-08-05T11:42:38.000Z</time>
        <extensions>
          <ns3:TrackPointExtension>
            <ns3:hr>95</ns3:hr>
            <ns3:cad>49</ns3:cad>
          </ns3:TrackPointExtension>
        </extensions>
      </trkpt>
      <trkpt lat="43.4629100002348423004150390625" lon="1.42351747490465641021728515625">
        <ele>157.600006103515625</ele>
        <time>2026-08-05T11:42:39.000Z</time>
        <extensions>
          <ns3:TrackPointExtension>
            <ns3:hr>95</ns3:hr>
            <ns3:cad>48</ns3:cad>
          </ns3:TrackPointExtension>
        </extensions>
      </trkpt>
      <trkpt lat="43.4628969244658946990966796875" lon="1.4235279522836208343505859375">
        <ele>157.600006103515625</ele>
        <time>2026-08-05T11:42:40.000Z</time>
        <extensions>
          <ns3:TrackPointExtension>
            <ns3:hr>96</ns3:hr>
            <ns3:cad>48</ns3:cad>
          </ns3:TrackPointExtension>
        </extensions>
      </trkpt>
      <trkpt lat="43.462886698544025421142578125" lon="1.4235353283584117889404296875">
        <ele>157.600006103515625</ele>
        <time>2026-08-05T11:42:41.000Z</time>
        <extensions>
          <ns3:TrackPointExtension>
            <ns3:hr>95</ns3:hr>
            <ns3:cad>48</ns3:cad>
          </ns3:TrackPointExtension>
        </extensions>
      </trkpt>
      <trkpt lat="43.4628754667937755584716796875" lon="1.42354153096675872802734375">
        <ele>157.600006103515625</ele>
        <time>2026-08-05T11:42:42.000Z</time>
        <extensions>
          <ns3:TrackPointExtension>
            <ns3:hr>95</ns3:hr>
            <ns3:cad>48</ns3:cad>
          </ns3:TrackPointExtension>
        </extensions>
      </trkpt>
      <trkpt lat="43.462865911424160003662109375" lon="1.423548571765422821044921875">
        <ele>157.600006103515625</ele>
        <time>2026-08-05T11:42:43.000Z</time>
        <extensions>
          <ns3:TrackPointExtension>
            <ns3:hr>95</ns3:hr>
            <ns3:cad>48</ns3:cad>
          </ns3:TrackPointExtension>
        </extensions>
      </trkpt>
      <trkpt lat="43.4628573618829250335693359375" lon="1.42356072552502155303955078125">
        <ele>157.600006103515625</ele>
        <time>2026-08-05T11:42:44.000Z</time>
        <extensions>
          <ns3:TrackPointExtension>
            <ns3:hr>96</ns3:hr>
            <ns3:cad>48</ns3:cad>
          </ns3:TrackPointExtension>
        </extensions>
      </trkpt>
      <trkpt lat="43.46284537576138973236083984375" lon="1.42357380129396915435791015625">
        <ele>157.600006103515625</ele>
        <time>2026-08-05T11:42:45.000Z</time>
        <extensions>
          <ns3:TrackPointExtension>
            <ns3:hr>95</ns3:hr>
            <ns3:cad>48</ns3:cad>
          </ns3:TrackPointExtension>
        </extensions>
      </trkpt>
      <trkpt lat="43.46283481456339359283447265625" lon="1.42358754761517047882080078125">
        <ele>157.600006103515625</ele>
        <time>2026-08-05T11:42:46.000Z</time>
        <extensions>
          <ns3:TrackPointExtension>
            <ns3:hr>95</ns3:hr>
            <ns3:cad>48</ns3:cad>
          </ns3:TrackPointExtension>
        </extensions>
      </trkpt>
      <trkpt lat="43.462823331356048583984375" lon="1.4235985279083251953125">
        <ele>157.600006103515625</ele>
        <time>2026-08-05T11:42:47.000Z</time>
        <extensions>
          <ns3:TrackPointExtension>
            <ns3:hr>95</ns3:hr>
            <ns3:cad>48</ns3:cad>
          </ns3:TrackPointExtension>
        </extensions>
      </trkpt>
      <trkpt lat="43.46281369216740131378173828125" lon="1.42360582016408443450927734375">
        <ele>157.600006103515625</ele>
        <time>2026-08-05T11:42:48.000Z</time>
        <extensions>
          <ns3:TrackPointExtension>
            <ns3:hr>94</ns3:hr>
            <ns3:cad>48</ns3:cad>
          </ns3:TrackPointExtension>
        </extensions>
      </trkpt>
      <trkpt lat="43.4628058969974517822265625" lon="1.42361386679112911224365234375">
        <ele>157.600006103515625</ele>
        <time>2026-08-05T11:42:49.000Z</time>
        <extensions>
          <ns3:TrackPointExtension>
            <ns3:hr>95</ns3:hr>
            <ns3:cad>48</ns3:cad>
          </ns3:TrackPointExtension>
        </extensions>
      </trkpt>
      <trkpt lat="43.46279541961848735809326171875" lon="1.42362241633236408233642578125">
        <ele>157.600006103515625</ele>
        <time>2026-08-05T11:42:50.000Z</time>
        <extensions>
          <ns3:TrackPointExtension>
            <ns3:hr>95</ns3:hr>
            <ns3:cad>49</ns3:cad>
          </ns3:TrackPointExtension>
        </extensions>
      </trkpt>
      <trkpt lat="43.4627825953066349029541015625" lon="1.42363180406391620635986328125">
        <ele>157.600006103515625</ele>
        <time>2026-08-05T11:42:51.000Z</time>
        <extensions>
          <ns3:TrackPointExtension>
            <ns3:hr>95</ns3:hr>
            <ns3:cad>50</ns3:cad>
          </ns3:TrackPointExtension>
        </extensions>
      </trkpt>
      <trkpt lat="43.462772369384765625" lon="1.4236442930996417999267578125">
        <ele>157.600006103515625</ele>
        <time>2026-08-05T11:42:52.000Z</time>
        <extensions>
          <ns3:TrackPointExtension>
            <ns3:hr>94</ns3:hr>
            <ns3:cad>50</ns3:cad>
          </ns3:TrackPointExtension>
        </extensions>
      </trkpt>
      <trkpt lat="43.4627631492912769317626953125" lon="1.42365192063152790069580078125">
        <ele>157.600006103515625</ele>
        <time>2026-08-05T11:42:53.000Z</time>
        <extensions>
          <ns3:TrackPointExtension>
            <ns3:hr>95</ns3:hr>
            <ns3:cad>49</ns3:cad>
          </ns3:TrackPointExtension>
        </extensions>
      </trkpt>
      <trkpt lat="43.46275552175939083099365234375" lon="1.423656530678272247314453125">
        <ele>157.8000030517578125</ele>
        <time>2026-08-05T11:42:54.000Z</time>
        <extensions>
          <ns3:TrackPointExtension>
            <ns3:hr>95</ns3:hr>
            <ns3:cad>49</ns3:cad>
          </ns3:TrackPointExtension>
        </extensions>
      </trkpt>
      <trkpt lat="43.46274680458009243011474609375" lon="1.42366264946758747100830078125">
        <ele>157.8000030517578125</ele>
        <time>2026-08-05T11:42:55.000Z</time>
        <extensions>
          <ns3:TrackPointExtension>
            <ns3:hr>95</ns3:hr>
            <ns3:cad>49</ns3:cad>
          </ns3:TrackPointExtension>
        </extensions>
      </trkpt>
      <trkpt lat="43.46273892559111118316650390625" lon="1.42367019318044185638427734375">
        <ele>157.8000030517578125</ele>
        <time>2026-08-05T11:42:56.000Z</time>
        <extensions>
          <ns3:TrackPointExtension>
            <ns3:hr>95</ns3:hr>
            <ns3:cad>49</ns3:cad>
          </ns3:TrackPointExtension>
        </extensions>
      </trkpt>
      <trkpt lat="43.46272752620279788970947265625" lon="1.42368771135807037353515625">
        <ele>157.8000030517578125</ele>
        <time>2026-08-05T11:42:57.000Z</time>
        <extensions>
          <ns3:TrackPointExtension>
            <ns3:hr>95</ns3:hr>
            <ns3:cad>50</ns3:cad>
          </ns3:TrackPointExtension>
        </extensions>
      </trkpt>
      <trkpt lat="43.462719731032848358154296875" lon="1.42369718290865421295166015625">
        <ele>157.600006103515625</ele>
        <time>2026-08-05T11:42:58.000Z</time>
        <extensions>
          <ns3:TrackPointExtension>
            <ns3:hr>94</ns3:hr>
            <ns3:cad>49</ns3:cad>
          </ns3:TrackPointExtension>
        </extensions>
      </trkpt>
      <trkpt lat="43.4627115167677402496337890625" lon="1.42370020039379596710205078125">
        <ele>157.600006103515625</ele>
        <time>2026-08-05T11:42:59.000Z</time>
        <extensions>
          <ns3:TrackPointExtension>
            <ns3:hr>94</ns3:hr>
            <ns3:cad>49</ns3:cad>
          </ns3:TrackPointExtension>
        </extensions>
      </trkpt>
      <trkpt lat="43.46270355395972728729248046875" lon="1.4237022958695888519287109375">
        <ele>157.600006103515625</ele>
        <time>2026-08-05T11:43:00.000Z</time>
        <extensions>
          <ns3:TrackPointExtension>
            <ns3:hr>95</ns3:hr>
            <ns3:cad>49</ns3:cad>
          </ns3:TrackPointExtension>
        </extensions>
      </trkpt>
      <trkpt lat="43.462694250047206878662109375" lon="1.4237056486308574676513671875">
        <ele>157.600006103515625</ele>
        <time>2026-08-05T11:43:01.000Z</time>
        <extensions>
          <ns3:TrackPointExtension>
            <ns3:hr>95</ns3:hr>
            <ns3:cad>49</ns3:cad>
          </ns3:TrackPointExtension>
        </extensions>
      </trkpt>
      <trkpt lat="43.4626851975917816162109375" lon="1.42371587455272674560546875">
        <ele>157.8000030517578125</ele>
        <time>2026-08-05T11:43:02.000Z</time>
        <extensions>
          <ns3:TrackPointExtension>
            <ns3:hr>95</ns3:hr>
            <ns3:cad>49</ns3:cad>
          </ns3:TrackPointExtension>
        </extensions>
      </trkpt>
      <trkpt lat="43.46267388202250003814697265625" lon="1.4237261004745960235595703125">
        <ele>157.8000030517578125</ele>
        <time>2026-08-05T11:43:03.000Z</time>
        <extensions>
          <ns3:TrackPointExtension>
            <ns3:hr>94</ns3:hr>
            <ns3:cad>49</ns3:cad>
          </ns3:TrackPointExtension>
        </extensions>
      </trkpt>
      <trkpt lat="43.4626639075577259063720703125" lon="1.4237321354448795318603515625">
        <ele>157.8000030517578125</ele>
        <time>2026-08-05T11:43:04.000Z</time>
        <extensions>
          <ns3:TrackPointExtension>
            <ns3:hr>95</ns3:hr>
            <ns3:cad>49</ns3:cad>
          </ns3:TrackPointExtension>
        </extensions>
      </trkpt>
      <trkpt lat="43.46265426836907863616943359375" lon="1.4237364940345287322998046875">
        <ele>157.8000030517578125</ele>
        <time>2026-08-05T11:43:05.000Z</time>
        <extensions>
          <ns3:TrackPointExtension>
            <ns3:hr>95</ns3:hr>
            <ns3:cad>50</ns3:cad>
          </ns3:TrackPointExtension>
        </extensions>
      </trkpt>
      <trkpt lat="43.4626468084752559661865234375" lon="1.4237415231764316558837890625">
        <ele>157.8000030517578125</ele>
        <time>2026-08-05T11:43:06.000Z</time>
        <extensions>
          <ns3:TrackPointExtension>
            <ns3:hr>94</ns3:hr>
            <ns3:cad>50</ns3:cad>
          </ns3:TrackPointExtension>
        </extensions>
      </trkpt>
      <trkpt lat="43.46263566054403781890869140625" lon="1.4237472228705883026123046875">
        <ele>157.8000030517578125</ele>
        <time>2026-08-05T11:43:07.000Z</time>
        <extensions>
          <ns3:TrackPointExtension>
            <ns3:hr>94</ns3:hr>
            <ns3:cad>50</ns3:cad>
          </ns3:TrackPointExtension>
        </extensions>
      </trkpt>
      <trkpt lat="43.46262794919312000274658203125" lon="1.4237602986395359039306640625">
        <ele>157.8000030517578125</ele>
        <time>2026-08-05T11:43:08.000Z</time>
        <extensions>
          <ns3:TrackPointExtension>
            <ns3:hr>94</ns3:hr>
            <ns3:cad>50</ns3:cad>
          </ns3:TrackPointExtension>
        </extensions>
      </trkpt>
      <trkpt lat="43.4626183100044727325439453125" lon="1.4237700216472148895263671875">
        <ele>157.8000030517578125</ele>
        <time>2026-08-05T11:43:09.000Z</time>
        <extensions>
          <ns3:TrackPointExtension>
            <ns3:hr>94</ns3:hr>
            <ns3:cad>49</ns3:cad>
          </ns3:TrackPointExtension>
        </extensions>
      </trkpt>
      <trkpt lat="43.46261076629161834716796875" lon="1.4237743802368640899658203125">
        <ele>157.8000030517578125</ele>
        <time>2026-08-05T11:43:10.000Z</time>
        <extensions>
          <ns3:TrackPointExtension>
            <ns3:hr>94</ns3:hr>
            <ns3:cad>49</ns3:cad>
          </ns3:TrackPointExtension>
        </extensions>
      </trkpt>
      <trkpt lat="43.46260003745555877685546875" lon="1.4237787388265132904052734375">
        <ele>157.8000030517578125</ele>
        <time>2026-08-05T11:43:11.000Z</time>
        <extensions>
          <ns3:TrackPointExtension>
            <ns3:hr>95</ns3:hr>
            <ns3:cad>48</ns3:cad>
          </ns3:TrackPointExtension>
        </extensions>
      </trkpt>
      <trkpt lat="43.46259039826691150665283203125" lon="1.4237876236438751220703125">
        <ele>157.8000030517578125</ele>
        <time>2026-08-05T11:43:12.000Z</time>
        <extensions>
          <ns3:TrackPointExtension>
            <ns3:hr>94</ns3:hr>
            <ns3:cad>48</ns3:cad>
          </ns3:TrackPointExtension>
        </extensions>
      </trkpt>
      <trkpt lat="43.462578915059566497802734375" lon="1.42380011267960071563720703125">
        <ele>157.8000030517578125</ele>
        <time>2026-08-05T11:43:13.000Z</time>
        <extensions>
          <ns3:TrackPointExtension>
            <ns3:hr>94</ns3:hr>
            <ns3:cad>48</ns3:cad>
          </ns3:TrackPointExtension>
        </extensions>
      </trkpt>
      <trkpt lat="43.46256692893803119659423828125" lon="1.42381235025823116302490234375">
        <ele>157.8000030517578125</ele>
        <time>2026-08-05T11:43:14.000Z</time>
        <extensions>
          <ns3:TrackPointExtension>
            <ns3:hr>95</ns3:hr>
            <ns3:cad>48</ns3:cad>
          </ns3:TrackPointExtension>
        </extensions>
      </trkpt>
      <trkpt lat="43.46255636774003505706787109375" lon="1.42382307909429073333740234375">
        <ele>157.8000030517578125</ele>
        <time>2026-08-05T11:43:15.000Z</time>
        <extensions>
          <ns3:TrackPointExtension>
            <ns3:hr>95</ns3:hr>
            <ns3:cad>48</ns3:cad>
          </ns3:TrackPointExtension>
        </extensions>
      </trkpt>
      <trkpt lat="43.46254496835172176361083984375" lon="1.42383255064487457275390625">
        <ele>157.8000030517578125</ele>
        <time>2026-08-05T11:43:16.000Z</time>
        <extensions>
          <ns3:TrackPointExtension>
            <ns3:hr>95</ns3:hr>
            <ns3:cad>48</ns3:cad>
          </ns3:TrackPointExtension>
        </extensions>
      </trkpt>
      <trkpt lat="43.4625391848385334014892578125" lon="1.42383992671966552734375">
        <ele>157.8000030517578125</ele>
        <time>2026-08-05T11:43:17.000Z</time>
        <extensions>
          <ns3:TrackPointExtension>
            <ns3:hr>95</ns3:hr>
            <ns3:cad>49</ns3:cad>
          </ns3:TrackPointExtension>
        </extensions>
      </trkpt>
      <trkpt lat="43.46252686344087123870849609375" lon="1.4238511584699153900146484375">
        <ele>157.8000030517578125</ele>
        <time>2026-08-05T11:43:18.000Z</time>
        <extensions>
          <ns3:TrackPointExtension>
            <ns3:hr>96</ns3:hr>
            <ns3:cad>49</ns3:cad>
          </ns3:TrackPointExtension>
        </extensions>
      </trkpt>
      <trkpt lat="43.4625143744051456451416015625" lon="1.42386339604854583740234375">
        <ele>157.8000030517578125</ele>
        <time>2026-08-05T11:43:19.000Z</time>
        <extensions>
          <ns3:TrackPointExtension>
            <ns3:hr>96</ns3:hr>
            <ns3:cad>49</ns3:cad>
          </ns3:TrackPointExtension>
        </extensions>
      </trkpt>
      <trkpt lat="43.46250155009329319000244140625" lon="1.4238756336271762847900390625">
        <ele>157.8000030517578125</ele>
        <time>2026-08-05T11:43:20.000Z</time>
        <extensions>
          <ns3:TrackPointExtension>
            <ns3:hr>96</ns3:hr>
            <ns3:cad>49</ns3:cad>
          </ns3:TrackPointExtension>
        </extensions>
      </trkpt>
      <trkpt lat="43.46249232999980449676513671875" lon="1.4238809980452060699462890625">
        <ele>157.8000030517578125</ele>
        <time>2026-08-05T11:43:21.000Z</time>
        <extensions>
          <ns3:TrackPointExtension>
            <ns3:hr>96</ns3:hr>
            <ns3:cad>48</ns3:cad>
          </ns3:TrackPointExtension>
        </extensions>
      </trkpt>
      <trkpt lat="43.4624848701059818267822265625" lon="1.423886530101299285888671875">
        <ele>157.8000030517578125</ele>
        <time>2026-08-05T11:43:22.000Z</time>
        <extensions>
          <ns3:TrackPointExtension>
            <ns3:hr>96</ns3:hr>
            <ns3:cad>48</ns3:cad>
          </ns3:TrackPointExtension>
        </extensions>
      </trkpt>
      <trkpt lat="43.4624774940311908721923828125" lon="1.4238893799483776092529296875">
        <ele>157.8000030517578125</ele>
        <time>2026-08-05T11:43:23.000Z</time>
        <extensions>
          <ns3:TrackPointExtension>
            <ns3:hr>97</ns3:hr>
            <ns3:cad>49</ns3:cad>
          </ns3:TrackPointExtension>
        </extensions>
      </trkpt>
      <trkpt lat="43.46246584318578243255615234375" lon="1.4239041320979595184326171875">
        <ele>157.8000030517578125</ele>
        <time>2026-08-05T11:43:24.000Z</time>
        <extensions>
          <ns3:TrackPointExtension>
            <ns3:hr>97</ns3:hr>
            <ns3:cad>49</ns3:cad>
          </ns3:TrackPointExtension>
        </extensions>
      </trkpt>
      <trkpt lat="43.46245377324521541595458984375" lon="1.42391846515238285064697265625">
        <ele>157.8000030517578125</ele>
        <time>2026-08-05T11:43:25.000Z</time>
        <extensions>
          <ns3:TrackPointExtension>
            <ns3:hr>98</ns3:hr>
            <ns3:cad>49</ns3:cad>
          </ns3:TrackPointExtension>
        </extensions>
      </trkpt>
      <trkpt lat="43.4624432958662509918212890625" lon="1.42392575740814208984375">
        <ele>157.8000030517578125</ele>
        <time>2026-08-05T11:43:26.000Z</time>
        <extensions>
          <ns3:TrackPointExtension>
            <ns3:hr>99</ns3:hr>
            <ns3:cad>49</ns3:cad>
          </ns3:TrackPointExtension>
        </extensions>
      </trkpt>
      <trkpt lat="43.46243483014404773712158203125" lon="1.42393019981682300567626953125">
        <ele>157.8000030517578125</ele>
        <time>2026-08-05T11:43:27.000Z</time>
        <extensions>
          <ns3:TrackPointExtension>
            <ns3:hr>100</ns3:hr>
            <ns3:cad>49</ns3:cad>
          </ns3:TrackPointExtension>
        </extensions>
      </trkpt>
      <trkpt lat="43.46242628060281276702880859375" lon="1.423933804035186767578125">
        <ele>157.8000030517578125</ele>
        <time>2026-08-05T11:43:28.000Z</time>
        <extensions>
          <ns3:TrackPointExtension>
            <ns3:hr>100</ns3:hr>
            <ns3:cad>49</ns3:cad>
          </ns3:TrackPointExtension>
        </extensions>
      </trkpt>
      <trkpt lat="43.4624154679477214813232421875" lon="1.42394713126122951507568359375">
        <ele>157.8000030517578125</ele>
        <time>2026-08-05T11:43:29.000Z</time>
        <extensions>
          <ns3:TrackPointExtension>
            <ns3:hr>100</ns3:hr>
            <ns3:cad>49</ns3:cad>
          </ns3:TrackPointExtension>
        </extensions>
      </trkpt>
      <trkpt lat="43.46240582875907421112060546875" lon="1.42396154813468456268310546875">
        <ele>157.600006103515625</ele>
        <time>2026-08-05T11:43:30.000Z</time>
        <extensions>
          <ns3:TrackPointExtension>
            <ns3:hr>100</ns3:hr>
            <ns3:cad>48</ns3:cad>
          </ns3:TrackPointExtension>
        </extensions>
      </trkpt>
      <trkpt lat="43.46239878796041011810302734375" lon="1.42396925948560237884521484375">
        <ele>157.600006103515625</ele>
        <time>2026-08-05T11:43:31.000Z</time>
        <extensions>
          <ns3:TrackPointExtension>
            <ns3:hr>100</ns3:hr>
            <ns3:cad>48</ns3:cad>
          </ns3:TrackPointExtension>
        </extensions>
      </trkpt>
      <trkpt lat="43.46239074133336544036865234375" lon="1.4239752106368541717529296875">
        <ele>157.600006103515625</ele>
        <time>2026-08-05T11:43:32.000Z</time>
        <extensions>
          <ns3:TrackPointExtension>
            <ns3:hr>100</ns3:hr>
            <ns3:cad>48</ns3:cad>
          </ns3:TrackPointExtension>
        </extensions>
      </trkpt>
      <trkpt lat="43.4623821079730987548828125" lon="1.42398250289261341094970703125">
        <ele>157.600006103515625</ele>
        <time>2026-08-05T11:43:33.000Z</time>
        <extensions>
          <ns3:TrackPointExtension>
            <ns3:hr>100</ns3:hr>
            <ns3:cad>49</ns3:cad>
          </ns3:TrackPointExtension>
        </extensions>
      </trkpt>
      <trkpt lat="43.46237464807927608489990234375" lon="1.423992812633514404296875">
        <ele>157.8000030517578125</ele>
        <time>2026-08-05T11:43:34.000Z</time>
        <extensions>
          <ns3:TrackPointExtension>
            <ns3:hr>100</ns3:hr>
            <ns3:cad>49</ns3:cad>
          </ns3:TrackPointExtension>
        </extensions>
      </trkpt>
      <trkpt lat="43.46236157231032848358154296875" lon="1.42400681041181087493896484375">
        <ele>157.8000030517578125</ele>
        <time>2026-08-05T11:43:35.000Z</time>
        <extensions>
          <ns3:TrackPointExtension>
            <ns3:hr>99</ns3:hr>
            <ns3:cad>48</ns3:cad>
          </ns3:TrackPointExtension>
        </extensions>
      </trkpt>
      <trkpt lat="43.462353609502315521240234375" lon="1.42401854507625102996826171875">
        <ele>157.8000030517578125</ele>
        <time>2026-08-05T11:43:36.000Z</time>
        <extensions>
          <ns3:TrackPointExtension>
            <ns3:hr>99</ns3:hr>
            <ns3:cad>48</ns3:cad>
          </ns3:TrackPointExtension>
        </extensions>
      </trkpt>
      <trkpt lat="43.46234430558979511260986328125" lon="1.4240244962275028228759765625">
        <ele>158</ele>
        <time>2026-08-05T11:43:37.000Z</time>
        <extensions>
          <ns3:TrackPointExtension>
            <ns3:hr>99</ns3:hr>
            <ns3:cad>48</ns3:cad>
          </ns3:TrackPointExtension>
        </extensions>
      </trkpt>
      <trkpt lat="43.46233676187694072723388671875" lon="1.42402994446456432342529296875">
        <ele>158</ele>
        <time>2026-08-05T11:43:38.000Z</time>
        <extensions>
          <ns3:TrackPointExtension>
            <ns3:hr>99</ns3:hr>
            <ns3:cad>48</ns3:cad>
          </ns3:TrackPointExtension>
        </extensions>
      </trkpt>
      <trkpt lat="43.4623266197741031646728515625" lon="1.42404067330062389373779296875">
        <ele>158</ele>
        <time>2026-08-05T11:43:39.000Z</time>
        <extensions>
          <ns3:TrackPointExtension>
            <ns3:hr>99</ns3:hr>
            <ns3:cad>48</ns3:cad>
          </ns3:TrackPointExtension>
        </extensions>
      </trkpt>
      <trkpt lat="43.46231580711901187896728515625" lon="1.42405559308826923370361328125">
        <ele>158</ele>
        <time>2026-08-05T11:43:40.000Z</time>
        <extensions>
          <ns3:TrackPointExtension>
            <ns3:hr>99</ns3:hr>
            <ns3:cad>47</ns3:cad>
          </ns3:TrackPointExtension>
        </extensions>
      </trkpt>
      <trkpt lat="43.462306000292301177978515625" lon="1.42406514845788478851318359375">
        <ele>158</ele>
        <time>2026-08-05T11:43:41.000Z</time>
        <extensions>
          <ns3:TrackPointExtension>
            <ns3:hr>98</ns3:hr>
            <ns3:cad>47</ns3:cad>
          </ns3:TrackPointExtension>
        </extensions>
      </trkpt>
      <trkpt lat="43.46229669637978076934814453125" lon="1.4240721054375171661376953125">
        <ele>158</ele>
        <time>2026-08-05T11:43:42.000Z</time>
        <extensions>
          <ns3:TrackPointExtension>
            <ns3:hr>99</ns3:hr>
            <ns3:cad>47</ns3:cad>
          </ns3:TrackPointExtension>
        </extensions>
      </trkpt>
      <trkpt lat="43.46229149959981441497802734375" lon="1.424073614180088043212890625">
        <ele>158</ele>
        <time>2026-08-05T11:43:43.000Z</time>
        <extensions>
          <ns3:TrackPointExtension>
            <ns3:hr>99</ns3:hr>
            <ns3:cad>47</ns3:cad>
          </ns3:TrackPointExtension>
        </extensions>
      </trkpt>
      <trkpt lat="43.46228295005857944488525390625" lon="1.42408107407391071319580078125">
        <ele>158</ele>
        <time>2026-08-05T11:43:44.000Z</time>
        <extensions>
          <ns3:TrackPointExtension>
            <ns3:hr>98</ns3:hr>
            <ns3:cad>47</ns3:cad>
          </ns3:TrackPointExtension>
        </extensions>
      </trkpt>
      <trkpt lat="43.4622702933847904205322265625" lon="1.42409180290997028350830078125">
        <ele>158</ele>
        <time>2026-08-05T11:43:45.000Z</time>
        <extensions>
          <ns3:TrackPointExtension>
            <ns3:hr>98</ns3:hr>
            <ns3:cad>48</ns3:cad>
          </ns3:TrackPointExtension>
        </extensions>
      </trkpt>
      <trkpt lat="43.462263084948062896728515625" lon="1.4240987598896026611328125">
        <ele>158</ele>
        <time>2026-08-05T11:43:46.000Z</time>
        <extensions>
          <ns3:TrackPointExtension>
            <ns3:hr>98</ns3:hr>
            <ns3:cad>48</ns3:cad>
          </ns3:TrackPointExtension>
        </extensions>
      </trkpt>
      <trkpt lat="43.46225227229297161102294921875" lon="1.424103789031505584716796875">
        <ele>158</ele>
        <time>2026-08-05T11:43:47.000Z</time>
        <extensions>
          <ns3:TrackPointExtension>
            <ns3:hr>97</ns3:hr>
            <ns3:cad>49</ns3:cad>
          </ns3:TrackPointExtension>
        </extensions>
      </trkpt>
      <trkpt lat="43.46224674023687839508056640625" lon="1.4241083152592182159423828125">
        <ele>158</ele>
        <time>2026-08-05T11:43:48.000Z</time>
        <extensions>
          <ns3:TrackPointExtension>
            <ns3:hr>96</ns3:hr>
            <ns3:cad>48</ns3:cad>
          </ns3:TrackPointExtension>
        </extensions>
      </trkpt>
      <trkpt lat="43.46223768778145313262939453125" lon="1.424119882285594940185546875">
        <ele>158</ele>
        <time>2026-08-05T11:43:49.000Z</time>
        <extensions>
          <ns3:TrackPointExtension>
            <ns3:hr>95</ns3:hr>
            <ns3:cad>48</ns3:cad>
          </ns3:TrackPointExtension>
        </extensions>
      </trkpt>
      <trkpt lat="43.4622273780405521392822265625" lon="1.42413505353033542633056640625">
        <ele>158</ele>
        <time>2026-08-05T11:43:50.000Z</time>
        <extensions>
          <ns3:TrackPointExtension>
            <ns3:hr>94</ns3:hr>
            <ns3:cad>47</ns3:cad>
          </ns3:TrackPointExtension>
        </extensions>
      </trkpt>
      <trkpt lat="43.462216146290302276611328125" lon="1.42414896748960018157958984375">
        <ele>158</ele>
        <time>2026-08-05T11:43:51.000Z</time>
        <extensions>
          <ns3:TrackPointExtension>
            <ns3:hr>94</ns3:hr>
            <ns3:cad>47</ns3:cad>
          </ns3:TrackPointExtension>
        </extensions>
      </trkpt>
      <trkpt lat="43.46220583654940128326416015625" lon="1.4241555891931056976318359375">
        <ele>158</ele>
        <time>2026-08-05T11:43:52.000Z</time>
        <extensions>
          <ns3:TrackPointExtension>
            <ns3:hr>94</ns3:hr>
            <ns3:cad>47</ns3:cad>
          </ns3:TrackPointExtension>
        </extensions>
      </trkpt>
      <trkpt lat="43.46219711937010288238525390625" lon="1.424161456525325775146484375">
        <ele>158</ele>
        <time>2026-08-05T11:43:53.000Z</time>
        <extensions>
          <ns3:TrackPointExtension>
            <ns3:hr>93</ns3:hr>
            <ns3:cad>47</ns3:cad>
          </ns3:TrackPointExtension>
        </extensions>
      </trkpt>
      <trkpt lat="43.46218957565724849700927734375" lon="1.42416589893400669097900390625">
        <ele>158</ele>
        <time>2026-08-05T11:43:54.000Z</time>
        <extensions>
          <ns3:TrackPointExtension>
            <ns3:hr>93</ns3:hr>
            <ns3:cad>47</ns3:cad>
          </ns3:TrackPointExtension>
        </extensions>
      </trkpt>
      <trkpt lat="43.4621794335544109344482421875" lon="1.4241757057607173919677734375">
        <ele>158</ele>
        <time>2026-08-05T11:43:55.000Z</time>
        <extensions>
          <ns3:TrackPointExtension>
            <ns3:hr>93</ns3:hr>
            <ns3:cad>48</ns3:cad>
          </ns3:TrackPointExtension>
        </extensions>
      </trkpt>
      <trkpt lat="43.46216778270900249481201171875" lon="1.4241860993206501007080078125">
        <ele>158</ele>
        <time>2026-08-05T11:43:56.000Z</time>
        <extensions>
          <ns3:TrackPointExtension>
            <ns3:hr>94</ns3:hr>
            <ns3:cad>48</ns3:cad>
          </ns3:TrackPointExtension>
        </extensions>
      </trkpt>
      <trkpt lat="43.46215722151100635528564453125" lon="1.424195654690265655517578125">
        <ele>158</ele>
        <time>2026-08-05T11:43:57.000Z</time>
        <extensions>
          <ns3:TrackPointExtension>
            <ns3:hr>94</ns3:hr>
            <ns3:cad>50</ns3:cad>
          </ns3:TrackPointExtension>
        </extensions>
      </trkpt>
      <trkpt lat="43.462150096893310546875" lon="1.4242005161941051483154296875">
        <ele>158</ele>
        <time>2026-08-05T11:43:58.000Z</time>
        <extensions>
          <ns3:TrackPointExtension>
            <ns3:hr>94</ns3:hr>
            <ns3:cad>50</ns3:cad>
          </ns3:TrackPointExtension>
        </extensions>
      </trkpt>
      <trkpt lat="43.46214163117110729217529296875" lon="1.42420361749827861785888671875">
        <ele>158</ele>
        <time>2026-08-05T11:43:59.000Z</time>
        <extensions>
          <ns3:TrackPointExtension>
            <ns3:hr>94</ns3:hr>
            <ns3:cad>49</ns3:cad>
          </ns3:TrackPointExtension>
        </extensions>
      </trkpt>
      <trkpt lat="43.46213123761117458343505859375" lon="1.42421334050595760345458984375">
        <ele>158</ele>
        <time>2026-08-05T11:44:00.000Z</time>
        <extensions>
          <ns3:TrackPointExtension>
            <ns3:hr>94</ns3:hr>
            <ns3:cad>49</ns3:cad>
          </ns3:TrackPointExtension>
        </extensions>
      </trkpt>
      <trkpt lat="43.46212067641317844390869140625" lon="1.42422473989427089691162109375">
        <ele>158</ele>
        <time>2026-08-05T11:44:01.000Z</time>
        <extensions>
          <ns3:TrackPointExtension>
            <ns3:hr>93</ns3:hr>
            <ns3:cad>49</ns3:cad>
          </ns3:TrackPointExtension>
        </extensions>
      </trkpt>
      <trkpt lat="43.46210961230099201202392578125" lon="1.42423613928258419036865234375">
        <ele>158</ele>
        <time>2026-08-05T11:44:02.000Z</time>
        <extensions>
          <ns3:TrackPointExtension>
            <ns3:hr>93</ns3:hr>
            <ns3:cad>49</ns3:cad>
          </ns3:TrackPointExtension>
        </extensions>
      </trkpt>
      <trkpt lat="43.4620989672839641571044921875" lon="1.42424485646188259124755859375">
        <ele>158</ele>
        <time>2026-08-05T11:44:03.000Z</time>
        <extensions>
          <ns3:TrackPointExtension>
            <ns3:hr>92</ns3:hr>
            <ns3:cad>48</ns3:cad>
          </ns3:TrackPointExtension>
        </extensions>
      </trkpt>
      <trkpt lat="43.462088741362094879150390625" lon="1.424249298870563507080078125">
        <ele>158</ele>
        <time>2026-08-05T11:44:04.000Z</time>
        <extensions>
          <ns3:TrackPointExtension>
            <ns3:hr>92</ns3:hr>
            <ns3:cad>48</ns3:cad>
          </ns3:TrackPointExtension>
        </extensions>
      </trkpt>
      <trkpt lat="43.46208111383020877838134765625" lon="1.424255669116973876953125">
        <ele>158</ele>
        <time>2026-08-05T11:44:05.000Z</time>
        <extensions>
          <ns3:TrackPointExtension>
            <ns3:hr>92</ns3:hr>
            <ns3:cad>48</ns3:cad>
          </ns3:TrackPointExtension>
        </extensions>
      </trkpt>
      <trkpt lat="43.46207122318446636199951171875" lon="1.4242665655910968780517578125">
        <ele>158</ele>
        <time>2026-08-05T11:44:06.000Z</time>
        <extensions>
          <ns3:TrackPointExtension>
            <ns3:hr>92</ns3:hr>
            <ns3:cad>49</ns3:cad>
          </ns3:TrackPointExtension>
        </extensions>
      </trkpt>
      <trkpt lat="43.4620602428913116455078125" lon="1.4242776297032833099365234375">
        <ele>158</ele>
        <time>2026-08-05T11:44:07.000Z</time>
        <extensions>
          <ns3:TrackPointExtension>
            <ns3:hr>93</ns3:hr>
            <ns3:cad>50</ns3:cad>
          </ns3:TrackPointExtension>
        </extensions>
      </trkpt>
      <trkpt lat="43.46204993315041065216064453125" lon="1.424290202558040618896484375">
        <ele>158</ele>
        <time>2026-08-05T11:44:08.000Z</time>
        <extensions>
          <ns3:TrackPointExtension>
            <ns3:hr>93</ns3:hr>
            <ns3:cad>50</ns3:cad>
          </ns3:TrackPointExtension>
        </extensions>
      </trkpt>
      <trkpt lat="43.4620372764766216278076171875" lon="1.4242987520992755889892578125">
        <ele>158</ele>
        <time>2026-08-05T11:44:09.000Z</time>
        <extensions>
          <ns3:TrackPointExtension>
            <ns3:hr>93</ns3:hr>
            <ns3:cad>50</ns3:cad>
          </ns3:TrackPointExtension>
        </extensions>
      </trkpt>
      <trkpt lat="43.46202730201184749603271484375" lon="1.42430420033633708953857421875">
        <ele>158</ele>
        <time>2026-08-05T11:44:10.000Z</time>
        <extensions>
          <ns3:TrackPointExtension>
            <ns3:hr>94</ns3:hr>
            <ns3:cad>50</ns3:cad>
          </ns3:TrackPointExtension>
        </extensions>
      </trkpt>
      <trkpt lat="43.462016321718692779541015625" lon="1.4243118278682231903076171875">
        <ele>158</ele>
        <time>2026-08-05T11:44:11.000Z</time>
        <extensions>
          <ns3:TrackPointExtension>
            <ns3:hr>95</ns3:hr>
            <ns3:cad>50</ns3:cad>
          </ns3:TrackPointExtension>
        </extensions>
      </trkpt>
      <trkpt lat="43.46200467087328433990478515625" lon="1.42432431690394878387451171875">
        <ele>158.1999969482421875</ele>
        <time>2026-08-05T11:44:12.000Z</time>
        <extensions>
          <ns3:TrackPointExtension>
            <ns3:hr>96</ns3:hr>
            <ns3:cad>50</ns3:cad>
          </ns3:TrackPointExtension>
        </extensions>
      </trkpt>
      <trkpt lat="43.46199176274240016937255859375" lon="1.42433588393032550811767578125">
        <ele>158.1999969482421875</ele>
        <time>2026-08-05T11:44:13.000Z</time>
        <extensions>
          <ns3:TrackPointExtension>
            <ns3:hr>95</ns3:hr>
            <ns3:cad>50</ns3:cad>
          </ns3:TrackPointExtension>
        </extensions>
      </trkpt>
      <trkpt lat="43.46198086626827716827392578125" lon="1.42434577457606792449951171875">
        <ele>158.1999969482421875</ele>
        <time>2026-08-05T11:44:14.000Z</time>
        <extensions>
          <ns3:TrackPointExtension>
            <ns3:hr>95</ns3:hr>
            <ns3:cad>50</ns3:cad>
          </ns3:TrackPointExtension>
        </extensions>
      </trkpt>
      <trkpt lat="43.46197181381285190582275390625" lon="1.42435046844184398651123046875">
        <ele>158.1999969482421875</ele>
        <time>2026-08-05T11:44:15.000Z</time>
        <extensions>
          <ns3:TrackPointExtension>
            <ns3:hr>95</ns3:hr>
            <ns3:cad>50</ns3:cad>
          </ns3:TrackPointExtension>
        </extensions>
      </trkpt>
      <trkpt lat="43.46196510829031467437744140625" lon="1.4243520610034465789794921875">
        <ele>158.1999969482421875</ele>
        <time>2026-08-05T11:44:16.000Z</time>
        <extensions>
          <ns3:TrackPointExtension>
            <ns3:hr>95</ns3:hr>
            <ns3:cad>50</ns3:cad>
          </ns3:TrackPointExtension>
        </extensions>
      </trkpt>
      <trkpt lat="43.46195898950099945068359375" lon="1.4243554137647151947021484375">
        <ele>158</ele>
        <time>2026-08-05T11:44:17.000Z</time>
        <extensions>
          <ns3:TrackPointExtension>
            <ns3:hr>95</ns3:hr>
            <ns3:cad>50</ns3:cad>
          </ns3:TrackPointExtension>
        </extensions>
      </trkpt>
      <trkpt lat="43.46194867976009845733642578125" lon="1.42436505295336246490478515625">
        <ele>158</ele>
        <time>2026-08-05T11:44:18.000Z</time>
        <extensions>
          <ns3:TrackPointExtension>
            <ns3:hr>95</ns3:hr>
            <ns3:cad>50</ns3:cad>
          </ns3:TrackPointExtension>
        </extensions>
      </trkpt>
      <trkpt lat="43.46193660981953144073486328125" lon="1.424378715455532073974609375">
        <ele>158</ele>
        <time>2026-08-05T11:44:19.000Z</time>
        <extensions>
          <ns3:TrackPointExtension>
            <ns3:hr>95</ns3:hr>
            <ns3:cad>49</ns3:cad>
          </ns3:TrackPointExtension>
        </extensions>
      </trkpt>
      <trkpt lat="43.4619226120412349700927734375" lon="1.4243912883102893829345703125">
        <ele>158.1999969482421875</ele>
        <time>2026-08-05T11:44:20.000Z</time>
        <extensions>
          <ns3:TrackPointExtension>
            <ns3:hr>95</ns3:hr>
            <ns3:cad>49</ns3:cad>
          </ns3:TrackPointExtension>
        </extensions>
      </trkpt>
      <trkpt lat="43.4619105421006679534912109375" lon="1.42439858056604862213134765625">
        <ele>158.1999969482421875</ele>
        <time>2026-08-05T11:44:21.000Z</time>
        <extensions>
          <ns3:TrackPointExtension>
            <ns3:hr>95</ns3:hr>
            <ns3:cad>49</ns3:cad>
          </ns3:TrackPointExtension>
        </extensions>
      </trkpt>
      <trkpt lat="43.461900986731052398681640625" lon="1.42440143041312694549560546875">
        <ele>158.1999969482421875</ele>
        <time>2026-08-05T11:44:22.000Z</time>
        <extensions>
          <ns3:TrackPointExtension>
            <ns3:hr>95</ns3:hr>
            <ns3:cad>51</ns3:cad>
          </ns3:TrackPointExtension>
        </extensions>
      </trkpt>
      <trkpt lat="43.46189453266561031341552734375" lon="1.42441232688724994659423828125">
        <ele>158.1999969482421875</ele>
        <time>2026-08-05T11:44:23.000Z</time>
        <extensions>
          <ns3:TrackPointExtension>
            <ns3:hr>95</ns3:hr>
            <ns3:cad>51</ns3:cad>
          </ns3:TrackPointExtension>
        </extensions>
      </trkpt>
      <trkpt lat="43.461882211267948150634765625" lon="1.42442758195102214813232421875">
        <ele>158.1999969482421875</ele>
        <time>2026-08-05T11:44:24.000Z</time>
        <extensions>
          <ns3:TrackPointExtension>
            <ns3:hr>95</ns3:hr>
            <ns3:cad>50</ns3:cad>
          </ns3:TrackPointExtension>
        </extensions>
      </trkpt>
      <trkpt lat="43.4618698060512542724609375" lon="1.4244429208338260650634765625">
        <ele>158.1999969482421875</ele>
        <time>2026-08-05T11:44:25.000Z</time>
        <extensions>
          <ns3:TrackPointExtension>
            <ns3:hr>95</ns3:hr>
            <ns3:cad>50</ns3:cad>
          </ns3:TrackPointExtension>
        </extensions>
      </trkpt>
      <trkpt lat="43.46185974776744842529296875" lon="1.42445172183215618133544921875">
        <ele>158.1999969482421875</ele>
        <time>2026-08-05T11:44:26.000Z</time>
        <extensions>
          <ns3:TrackPointExtension>
            <ns3:hr>94</ns3:hr>
            <ns3:cad>48</ns3:cad>
          </ns3:TrackPointExtension>
        </extensions>
      </trkpt>
      <trkpt lat="43.46184910275042057037353515625" lon="1.42445976845920085906982421875">
        <ele>158.1999969482421875</ele>
        <time>2026-08-05T11:44:27.000Z</time>
        <extensions>
          <ns3:TrackPointExtension>
            <ns3:hr>94</ns3:hr>
            <ns3:cad>48</ns3:cad>
          </ns3:TrackPointExtension>
        </extensions>
      </trkpt>
      <trkpt lat="43.46184155903756618499755859375" lon="1.42446530051529407501220703125">
        <ele>158.399993896484375</ele>
        <time>2026-08-05T11:44:28.000Z</time>
        <extensions>
          <ns3:TrackPointExtension>
            <ns3:hr>94</ns3:hr>
            <ns3:cad>48</ns3:cad>
          </ns3:TrackPointExtension>
        </extensions>
      </trkpt>
      <trkpt lat="43.4618327580392360687255859375" lon="1.42447586171329021453857421875">
        <ele>158.399993896484375</ele>
        <time>2026-08-05T11:44:29.000Z</time>
        <extensions>
          <ns3:TrackPointExtension>
            <ns3:hr>94</ns3:hr>
            <ns3:cad>49</ns3:cad>
          </ns3:TrackPointExtension>
        </extensions>
      </trkpt>
      <trkpt lat="43.4618226997554302215576171875" lon="1.4244912005960941314697265625">
        <ele>158.399993896484375</ele>
        <time>2026-08-05T11:44:30.000Z</time>
        <extensions>
          <ns3:TrackPointExtension>
            <ns3:hr>94</ns3:hr>
            <ns3:cad>49</ns3:cad>
          </ns3:TrackPointExtension>
        </extensions>
      </trkpt>
      <trkpt lat="43.4618126414716243743896484375" lon="1.4245086349546909332275390625">
        <ele>158.399993896484375</ele>
        <time>2026-08-05T11:44:31.000Z</time>
        <extensions>
          <ns3:TrackPointExtension>
            <ns3:hr>94</ns3:hr>
            <ns3:cad>49</ns3:cad>
          </ns3:TrackPointExtension>
        </extensions>
      </trkpt>
      <trkpt lat="43.4618035890161991119384765625" lon="1.42451793886721134185791015625">
        <ele>158.399993896484375</ele>
        <time>2026-08-05T11:44:32.000Z</time>
        <extensions>
          <ns3:TrackPointExtension>
            <ns3:hr>95</ns3:hr>
            <ns3:cad>48</ns3:cad>
          </ns3:TrackPointExtension>
        </extensions>
      </trkpt>
      <trkpt lat="43.4617955423891544342041015625" lon="1.42452514730393886566162109375">
        <ele>158.399993896484375</ele>
        <time>2026-08-05T11:44:33.000Z</time>
        <extensions>
          <ns3:TrackPointExtension>
            <ns3:hr>95</ns3:hr>
            <ns3:cad>48</ns3:cad>
          </ns3:TrackPointExtension>
        </extensions>
      </trkpt>
      <trkpt lat="43.461789004504680633544921875" lon="1.4245381392538547515869140625">
        <ele>158.399993896484375</ele>
        <time>2026-08-05T11:44:34.000Z</time>
        <extensions>
          <ns3:TrackPointExtension>
            <ns3:hr>95</ns3:hr>
            <ns3:cad>49</ns3:cad>
          </ns3:TrackPointExtension>
        </extensions>
      </trkpt>
      <trkpt lat="43.461779616773128509521484375" lon="1.42455062828958034515380859375">
        <ele>158.399993896484375</ele>
        <time>2026-08-05T11:44:35.000Z</time>
        <extensions>
          <ns3:TrackPointExtension>
            <ns3:hr>95</ns3:hr>
            <ns3:cad>50</ns3:cad>
          </ns3:TrackPointExtension>
        </extensions>
      </trkpt>
      <trkpt lat="43.4617730788886547088623046875" lon="1.42456303350627422332763671875">
        <ele>158.600006103515625</ele>
        <time>2026-08-05T11:44:36.000Z</time>
        <extensions>
          <ns3:TrackPointExtension>
            <ns3:hr>95</ns3:hr>
            <ns3:cad>50</ns3:cad>
          </ns3:TrackPointExtension>
        </extensions>
      </trkpt>
      <trkpt lat="43.4617663733661174774169921875" lon="1.424577869474887847900390625">
        <ele>158.600006103515625</ele>
        <time>2026-08-05T11:44:37.000Z</time>
        <extensions>
          <ns3:TrackPointExtension>
            <ns3:hr>95</ns3:hr>
            <ns3:cad>50</ns3:cad>
          </ns3:TrackPointExtension>
        </extensions>
      </trkpt>
      <trkpt lat="43.4617616795003414154052734375" lon="1.42459295690059661865234375">
        <ele>158.8000030517578125</ele>
        <time>2026-08-05T11:44:38.000Z</time>
        <extensions>
          <ns3:TrackPointExtension>
            <ns3:hr>95</ns3:hr>
            <ns3:cad>49</ns3:cad>
          </ns3:TrackPointExtension>
        </extensions>
      </trkpt>
      <trkpt lat="43.4617559798061847686767578125" lon="1.42460863105952739715576171875">
        <ele>158.8000030517578125</ele>
        <time>2026-08-05T11:44:39.000Z</time>
        <extensions>
          <ns3:TrackPointExtension>
            <ns3:hr>95</ns3:hr>
            <ns3:cad>49</ns3:cad>
          </ns3:TrackPointExtension>
        </extensions>
      </trkpt>
      <trkpt lat="43.4617499448359012603759765625" lon="1.4246239699423313140869140625">
        <ele>158.8000030517578125</ele>
        <time>2026-08-05T11:44:40.000Z</time>
        <extensions>
          <ns3:TrackPointExtension>
            <ns3:hr>95</ns3:hr>
            <ns3:cad>50</ns3:cad>
          </ns3:TrackPointExtension>
        </extensions>
      </trkpt>
      <trkpt lat="43.46174315549433231353759765625" lon="1.4246405661106109619140625">
        <ele>159</ele>
        <time>2026-08-05T11:44:41.000Z</time>
        <extensions>
          <ns3:TrackPointExtension>
            <ns3:hr>95</ns3:hr>
            <ns3:cad>50</ns3:cad>
          </ns3:TrackPointExtension>
        </extensions>
      </trkpt>
      <trkpt lat="43.4617383778095245361328125" lon="1.424654982984066009521484375">
        <ele>159</ele>
        <time>2026-08-05T11:44:42.000Z</time>
        <extensions>
          <ns3:TrackPointExtension>
            <ns3:hr>95</ns3:hr>
            <ns3:cad>50</ns3:cad>
          </ns3:TrackPointExtension>
        </extensions>
      </trkpt>
      <trkpt lat="43.4617338515818119049072265625" lon="1.42467015422880649566650390625">
        <ele>159</ele>
        <time>2026-08-05T11:44:43.000Z</time>
        <extensions>
          <ns3:TrackPointExtension>
            <ns3:hr>95</ns3:hr>
            <ns3:cad>50</ns3:cad>
          </ns3:TrackPointExtension>
        </extensions>
      </trkpt>
      <trkpt lat="43.461730666458606719970703125" lon="1.42468725331127643585205078125">
        <ele>159</ele>
        <time>2026-08-05T11:44:44.000Z</time>
        <extensions>
          <ns3:TrackPointExtension>
            <ns3:hr>95</ns3:hr>
            <ns3:cad>50</ns3:cad>
          </ns3:TrackPointExtension>
        </extensions>
      </trkpt>
      <trkpt lat="43.46172823570668697357177734375" lon="1.42470368184149265289306640625">
        <ele>159</ele>
        <time>2026-08-05T11:44:45.000Z</time>
        <extensions>
          <ns3:TrackPointExtension>
            <ns3:hr>95</ns3:hr>
            <ns3:cad>50</ns3:cad>
          </ns3:TrackPointExtension>
        </extensions>
      </trkpt>
      <trkpt lat="43.46172697842121124267578125" lon="1.4247198589146137237548828125">
        <ele>159</ele>
        <time>2026-08-05T11:44:46.000Z</time>
        <extensions>
          <ns3:TrackPointExtension>
            <ns3:hr>96</ns3:hr>
            <ns3:cad>50</ns3:cad>
          </ns3:TrackPointExtension>
        </extensions>
      </trkpt>
      <trkpt lat="43.46172940917313098907470703125" lon="1.42472832463681697845458984375">
        <ele>159</ele>
        <time>2026-08-05T11:44:47.000Z</time>
        <extensions>
          <ns3:TrackPointExtension>
            <ns3:hr>96</ns3:hr>
            <ns3:cad>50</ns3:cad>
          </ns3:TrackPointExtension>
        </extensions>
      </trkpt>
      <trkpt lat="43.46172831952571868896484375" lon="1.42475011758506298065185546875">
        <ele>159</ele>
        <time>2026-08-05T11:44:48.000Z</time>
        <extensions>
          <ns3:TrackPointExtension>
            <ns3:hr>96</ns3:hr>
            <ns3:cad>50</ns3:cad>
          </ns3:TrackPointExtension>
        </extensions>
      </trkpt>
      <trkpt lat="43.4617276489734649658203125" lon="1.42477459274232387542724609375">
        <ele>159</ele>
        <time>2026-08-05T11:44:49.000Z</time>
        <extensions>
          <ns3:TrackPointExtension>
            <ns3:hr>97</ns3:hr>
            <ns3:cad>50</ns3:cad>
          </ns3:TrackPointExtension>
        </extensions>
      </trkpt>
      <trkpt lat="43.46172454766929149627685546875" lon="1.42479051835834980010986328125">
        <ele>159</ele>
        <time>2026-08-05T11:44:50.000Z</time>
        <extensions>
          <ns3:TrackPointExtension>
            <ns3:hr>97</ns3:hr>
            <ns3:cad>50</ns3:cad>
          </ns3:TrackPointExtension>
        </extensions>
      </trkpt>
      <trkpt lat="43.46172354184091091156005859375" lon="1.42480216920375823974609375">
        <ele>158.8000030517578125</ele>
        <time>2026-08-05T11:44:51.000Z</time>
        <extensions>
          <ns3:TrackPointExtension>
            <ns3:hr>96</ns3:hr>
            <ns3:cad>50</ns3:cad>
          </ns3:TrackPointExtension>
        </extensions>
      </trkpt>
      <trkpt lat="43.46172069199383258819580078125" lon="1.4248144067823886871337890625">
        <ele>158.8000030517578125</ele>
        <time>2026-08-05T11:44:52.000Z</time>
        <extensions>
          <ns3:TrackPointExtension>
            <ns3:hr>96</ns3:hr>
            <ns3:cad>49</ns3:cad>
          </ns3:TrackPointExtension>
        </extensions>
      </trkpt>
      <trkpt lat="43.46171968616545200347900390625" lon="1.4248311705887317657470703125">
        <ele>159</ele>
        <time>2026-08-05T11:44:53.000Z</time>
        <extensions>
          <ns3:TrackPointExtension>
            <ns3:hr>96</ns3:hr>
            <ns3:cad>49</ns3:cad>
          </ns3:TrackPointExtension>
        </extensions>
      </trkpt>
      <trkpt lat="43.4617211110889911651611328125" lon="1.424849443137645721435546875">
        <ele>159</ele>
        <time>2026-08-05T11:44:54.000Z</time>
        <extensions>
          <ns3:TrackPointExtension>
            <ns3:hr>96</ns3:hr>
            <ns3:cad>49</ns3:cad>
          </ns3:TrackPointExtension>
        </extensions>
      </trkpt>
      <trkpt lat="43.461721949279308319091796875" lon="1.4248670451343059539794921875">
        <ele>159</ele>
        <time>2026-08-05T11:44:55.000Z</time>
        <extensions>
          <ns3:TrackPointExtension>
            <ns3:hr>97</ns3:hr>
            <ns3:cad>49</ns3:cad>
          </ns3:TrackPointExtension>
        </extensions>
      </trkpt>
      <trkpt lat="43.46172186546027660369873046875" lon="1.42487752251327037811279296875">
        <ele>159</ele>
        <time>2026-08-05T11:44:56.000Z</time>
        <extensions>
          <ns3:TrackPointExtension>
            <ns3:hr>98</ns3:hr>
            <ns3:cad>48</ns3:cad>
          </ns3:TrackPointExtension>
        </extensions>
      </trkpt>
      <trkpt lat="43.461721278727054595947265625" lon="1.42488825134932994842529296875">
        <ele>159</ele>
        <time>2026-08-05T11:44:57.000Z</time>
        <extensions>
          <ns3:TrackPointExtension>
            <ns3:hr>99</ns3:hr>
            <ns3:cad>48</ns3:cad>
          </ns3:TrackPointExtension>
        </extensions>
      </trkpt>
      <trkpt lat="43.46172136254608631134033203125" lon="1.4249035902321338653564453125">
        <ele>159</ele>
        <time>2026-08-05T11:44:58.000Z</time>
        <extensions>
          <ns3:TrackPointExtension>
            <ns3:hr>100</ns3:hr>
            <ns3:cad>48</ns3:cad>
          </ns3:TrackPointExtension>
        </extensions>
      </trkpt>
      <trkpt lat="43.4617211110889911651611328125" lon="1.42492714338004589080810546875">
        <ele>159</ele>
        <time>2026-08-05T11:44:59.000Z</time>
        <extensions>
          <ns3:TrackPointExtension>
            <ns3:hr>100</ns3:hr>
            <ns3:cad>48</ns3:cad>
          </ns3:TrackPointExtension>
        </extensions>
      </trkpt>
      <trkpt lat="43.46172119490802288055419921875" lon="1.42494558356702327728271484375">
        <ele>159</ele>
        <time>2026-08-05T11:45:00.000Z</time>
        <extensions>
          <ns3:TrackPointExtension>
            <ns3:hr>100</ns3:hr>
            <ns3:cad>48</ns3:cad>
          </ns3:TrackPointExtension>
        </extensions>
      </trkpt>
      <trkpt lat="43.46172069199383258819580078125" lon="1.42495865933597087860107421875">
        <ele>158.8000030517578125</ele>
        <time>2026-08-05T11:45:01.000Z</time>
        <extensions>
          <ns3:TrackPointExtension>
            <ns3:hr>100</ns3:hr>
            <ns3:cad>48</ns3:cad>
          </ns3:TrackPointExtension>
        </extensions>
      </trkpt>
      <trkpt lat="43.461720608174800872802734375" lon="1.424969471991062164306640625">
        <ele>158.8000030517578125</ele>
        <time>2026-08-05T11:45:02.000Z</time>
        <extensions>
          <ns3:TrackPointExtension>
            <ns3:hr>99</ns3:hr>
            <ns3:cad>48</ns3:cad>
          </ns3:TrackPointExtension>
        </extensions>
      </trkpt>
      <trkpt lat="43.46172069199383258819580078125" lon="1.4249853976070880889892578125">
        <ele>158.8000030517578125</ele>
        <time>2026-08-05T11:45:03.000Z</time>
        <extensions>
          <ns3:TrackPointExtension>
            <ns3:hr>99</ns3:hr>
            <ns3:cad>48</ns3:cad>
          </ns3:TrackPointExtension>
        </extensions>
      </trkpt>
      <trkpt lat="43.461722619831562042236328125" lon="1.425005681812763214111328125">
        <ele>158.8000030517578125</ele>
        <time>2026-08-05T11:45:04.000Z</time>
        <extensions>
          <ns3:TrackPointExtension>
            <ns3:hr>99</ns3:hr>
            <ns3:cad>49</ns3:cad>
          </ns3:TrackPointExtension>
        </extensions>
      </trkpt>
      <trkpt lat="43.46172303892672061920166015625" lon="1.4250236190855503082275390625">
        <ele>158.600006103515625</ele>
        <time>2026-08-05T11:45:05.000Z</time>
        <extensions>
          <ns3:TrackPointExtension>
            <ns3:hr>98</ns3:hr>
            <ns3:cad>48</ns3:cad>
          </ns3:TrackPointExtension>
        </extensions>
      </trkpt>
      <trkpt lat="43.46172572113573551177978515625" lon="1.42503694631159305572509765625">
        <ele>158.600006103515625</ele>
        <time>2026-08-05T11:45:06.000Z</time>
        <extensions>
          <ns3:TrackPointExtension>
            <ns3:hr>98</ns3:hr>
            <ns3:cad>48</ns3:cad>
          </ns3:TrackPointExtension>
        </extensions>
      </trkpt>
      <trkpt lat="43.4617278166115283966064453125" lon="1.42504901625216007232666015625">
        <ele>158.8000030517578125</ele>
        <time>2026-08-05T11:45:07.000Z</time>
        <extensions>
          <ns3:TrackPointExtension>
            <ns3:hr>97</ns3:hr>
            <ns3:cad>48</ns3:cad>
          </ns3:TrackPointExtension>
        </extensions>
      </trkpt>
      <trkpt lat="43.46172672696411609649658203125" lon="1.4250651933252811431884765625">
        <ele>158.8000030517578125</ele>
        <time>2026-08-05T11:45:08.000Z</time>
        <extensions>
          <ns3:TrackPointExtension>
            <ns3:hr>97</ns3:hr>
            <ns3:cad>48</ns3:cad>
          </ns3:TrackPointExtension>
        </extensions>
      </trkpt>
      <trkpt lat="43.46172622404992580413818359375" lon="1.42508287914097309112548828125">
        <ele>158.8000030517578125</ele>
        <time>2026-08-05T11:45:09.000Z</time>
        <extensions>
          <ns3:TrackPointExtension>
            <ns3:hr>97</ns3:hr>
            <ns3:cad>48</ns3:cad>
          </ns3:TrackPointExtension>
        </extensions>
      </trkpt>
      <trkpt lat="43.46172697842121124267578125" lon="1.42509880475699901580810546875">
        <ele>159</ele>
        <time>2026-08-05T11:45:10.000Z</time>
        <extensions>
          <ns3:TrackPointExtension>
            <ns3:hr>97</ns3:hr>
            <ns3:cad>48</ns3:cad>
          </ns3:TrackPointExtension>
        </extensions>
      </trkpt>
      <trkpt lat="43.46172438003122806549072265625" lon="1.42510970123112201690673828125">
        <ele>159</ele>
        <time>2026-08-05T11:45:11.000Z</time>
        <extensions>
          <ns3:TrackPointExtension>
            <ns3:hr>96</ns3:hr>
            <ns3:cad>48</ns3:cad>
          </ns3:TrackPointExtension>
        </extensions>
      </trkpt>
      <trkpt lat="43.46172622404992580413818359375" lon="1.42512403428554534912109375">
        <ele>159.1999969482421875</ele>
        <time>2026-08-05T11:45:12.000Z</time>
        <extensions>
          <ns3:TrackPointExtension>
            <ns3:hr>96</ns3:hr>
            <ns3:cad>48</ns3:cad>
          </ns3:TrackPointExtension>
        </extensions>
      </trkpt>
      <trkpt lat="43.4617261402308940887451171875" lon="1.42513736151158809661865234375">
        <ele>159.399993896484375</ele>
        <time>2026-08-05T11:45:13.000Z</time>
        <extensions>
          <ns3:TrackPointExtension>
            <ns3:hr>96</ns3:hr>
            <ns3:cad>47</ns3:cad>
          </ns3:TrackPointExtension>
        </extensions>
      </trkpt>
      <trkpt lat="43.461727313697338104248046875" lon="1.4251533709466457366943359375">
        <ele>159.600006103515625</ele>
        <time>2026-08-05T11:45:14.000Z</time>
        <extensions>
          <ns3:TrackPointExtension>
            <ns3:hr>95</ns3:hr>
            <ns3:cad>47</ns3:cad>
          </ns3:TrackPointExtension>
        </extensions>
      </trkpt>
      <trkpt lat="43.46172739751636981964111328125" lon="1.425161249935626983642578125">
        <ele>159.600006103515625</ele>
        <time>2026-08-05T11:45:15.000Z</time>
        <extensions>
          <ns3:TrackPointExtension>
            <ns3:hr>96</ns3:hr>
            <ns3:cad>46</ns3:cad>
          </ns3:TrackPointExtension>
        </extensions>
      </trkpt>
      <trkpt lat="43.4617261402308940887451171875" lon="1.4251691289246082305908203125">
        <ele>159.600006103515625</ele>
        <time>2026-08-05T11:45:16.000Z</time>
        <extensions>
          <ns3:TrackPointExtension>
            <ns3:hr>96</ns3:hr>
            <ns3:cad>46</ns3:cad>
          </ns3:TrackPointExtension>
        </extensions>
      </trkpt>
      <trkpt lat="43.46172655932605266571044921875" lon="1.425184719264507293701171875">
        <ele>159.600006103515625</ele>
        <time>2026-08-05T11:45:17.000Z</time>
        <extensions>
          <ns3:TrackPointExtension>
            <ns3:hr>95</ns3:hr>
            <ns3:cad>46</ns3:cad>
          </ns3:TrackPointExtension>
        </extensions>
      </trkpt>
      <trkpt lat="43.4617237932980060577392578125" lon="1.4251946099102497100830078125">
        <ele>159.600006103515625</ele>
        <time>2026-08-05T11:45:18.000Z</time>
        <extensions>
          <ns3:TrackPointExtension>
            <ns3:hr>95</ns3:hr>
            <ns3:cad>46</ns3:cad>
          </ns3:TrackPointExtension>
        </extensions>
      </trkpt>
      <trkpt lat="43.4617217816412448883056640625" lon="1.425203494727611541748046875">
        <ele>159.600006103515625</ele>
        <time>2026-08-05T11:45:19.000Z</time>
        <extensions>
          <ns3:TrackPointExtension>
            <ns3:hr>95</ns3:hr>
            <ns3:cad>46</ns3:cad>
          </ns3:TrackPointExtension>
        </extensions>
      </trkpt>
      <trkpt lat="43.46172085963189601898193359375" lon="1.4252100326120853424072265625">
        <ele>159.600006103515625</ele>
        <time>2026-08-05T11:45:20.000Z</time>
        <extensions>
          <ns3:TrackPointExtension>
            <ns3:hr>95</ns3:hr>
            <ns3:cad>0</ns3:cad>
          </ns3:TrackPointExtension>
        </extensions>
      </trkpt>
      <trkpt lat="43.461718261241912841796875" lon="1.42521564848721027374267578125">
        <ele>159.600006103515625</ele>
        <time>2026-08-05T11:45:21.000Z</time>
        <extensions>
          <ns3:TrackPointExtension>
            <ns3:hr>94</ns3:hr>
            <ns3:cad>0</ns3:cad>
          </ns3:TrackPointExtension>
        </extensions>
      </trkpt>
      <trkpt lat="43.461718261241912841796875" lon="1.42521564848721027374267578125">
        <ele>159.8000030517578125</ele>
        <time>2026-08-05T11:45:22.000Z</time>
        <extensions>
          <ns3:TrackPointExtension>
            <ns3:hr>95</ns3:hr>
            <ns3:cad>0</ns3:cad>
          </ns3:TrackPointExtension>
        </extensions>
      </trkpt>
      <trkpt lat="43.461718261241912841796875" lon="1.42521564848721027374267578125">
        <ele>159.8000030517578125</ele>
        <time>2026-08-05T11:45:23.000Z</time>
        <extensions>
          <ns3:TrackPointExtension>
            <ns3:hr>96</ns3:hr>
            <ns3:cad>0</ns3:cad>
          </ns3:TrackPointExtension>
        </extensions>
      </trkpt>
      <trkpt lat="43.461718261241912841796875" lon="1.42521564848721027374267578125">
        <ele>159.8000030517578125</ele>
        <time>2026-08-05T11:45:24.000Z</time>
        <extensions>
          <ns3:TrackPointExtension>
            <ns3:hr>96</ns3:hr>
            <ns3:cad>0</ns3:cad>
          </ns3:TrackPointExtension>
        </extensions>
      </trkpt>
      <trkpt lat="43.461718261241912841796875" lon="1.42521631903946399688720703125">
        <ele>159.8000030517578125</ele>
        <time>2026-08-05T11:45:25.000Z</time>
        <extensions>
          <ns3:TrackPointExtension>
            <ns3:hr>97</ns3:hr>
            <ns3:cad>0</ns3:cad>
          </ns3:TrackPointExtension>
        </extensions>
      </trkpt>
      <trkpt lat="43.4617180936038494110107421875" lon="1.425226628780364990234375">
        <ele>159.8000030517578125</ele>
        <time>2026-08-05T11:45:26.000Z</time>
        <extensions>
          <ns3:TrackPointExtension>
            <ns3:hr>97</ns3:hr>
            <ns3:cad>0</ns3:cad>
          </ns3:TrackPointExtension>
        </extensions>
      </trkpt>
      <trkpt lat="43.46171549521386623382568359375" lon="1.425231993198394775390625">
        <ele>159.8000030517578125</ele>
        <time>2026-08-05T11:45:27.000Z</time>
        <extensions>
          <ns3:TrackPointExtension>
            <ns3:hr>97</ns3:hr>
            <ns3:cad>0</ns3:cad>
          </ns3:TrackPointExtension>
        </extensions>
      </trkpt>
      <trkpt lat="43.461716584861278533935546875" lon="1.425231993198394775390625">
        <ele>159.8000030517578125</ele>
        <time>2026-08-05T11:45:28.000Z</time>
        <extensions>
          <ns3:TrackPointExtension>
            <ns3:hr>97</ns3:hr>
            <ns3:cad>0</ns3:cad>
          </ns3:TrackPointExtension>
        </extensions>
      </trkpt>
      <trkpt lat="43.461718261241912841796875" lon="1.42521564848721027374267578125">
        <ele>159.8000030517578125</ele>
        <time>2026-08-05T11:45:29.000Z</time>
        <extensions>
          <ns3:TrackPointExtension>
            <ns3:hr>97</ns3:hr>
            <ns3:cad>0</ns3:cad>
          </ns3:TrackPointExtension>
        </extensions>
      </trkpt>
      <trkpt lat="43.461718261241912841796875" lon="1.42521564848721027374267578125">
        <ele>159.8000030517578125</ele>
        <time>2026-08-05T11:45:30.000Z</time>
        <extensions>
          <ns3:TrackPointExtension>
            <ns3:hr>97</ns3:hr>
            <ns3:cad>0</ns3:cad>
          </ns3:TrackPointExtension>
        </extensions>
      </trkpt>
      <trkpt lat="43.461718261241912841796875" lon="1.42521564848721027374267578125">
        <ele>159.8000030517578125</ele>
        <time>2026-08-05T11:45:31.000Z</time>
        <extensions>
          <ns3:TrackPointExtension>
            <ns3:hr>97</ns3:hr>
            <ns3:cad>0</ns3:cad>
          </ns3:TrackPointExtension>
        </extensions>
      </trkpt>
      <trkpt lat="43.46171717159450054168701171875" lon="1.4252271316945552825927734375">
        <ele>159.8000030517578125</ele>
        <time>2026-08-05T11:45:32.000Z</time>
        <extensions>
          <ns3:TrackPointExtension>
            <ns3:hr>97</ns3:hr>
            <ns3:cad>0</ns3:cad>
          </ns3:TrackPointExtension>
        </extensions>
      </trkpt>
      <trkpt lat="43.46172035671770572662353515625" lon="1.42522419802844524383544921875">
        <ele>159.8000030517578125</ele>
        <time>2026-08-05T11:45:33.000Z</time>
        <extensions>
          <ns3:TrackPointExtension>
            <ns3:hr>96</ns3:hr>
            <ns3:cad>0</ns3:cad>
          </ns3:TrackPointExtension>
        </extensions>
      </trkpt>
      <trkpt lat="43.461720943450927734375" lon="1.425228975713253021240234375">
        <ele>159.8000030517578125</ele>
        <time>2026-08-05T11:45:34.000Z</time>
        <extensions>
          <ns3:TrackPointExtension>
            <ns3:hr>95</ns3:hr>
            <ns3:cad>0</ns3:cad>
          </ns3:TrackPointExtension>
        </extensions>
      </trkpt>
      <trkpt lat="43.4617227874696254730224609375" lon="1.425229646265506744384765625">
        <ele>159.8000030517578125</ele>
        <time>2026-08-05T11:45:35.000Z</time>
        <extensions>
          <ns3:TrackPointExtension>
            <ns3:hr>93</ns3:hr>
            <ns3:cad>0</ns3:cad>
          </ns3:TrackPointExtension>
        </extensions>
      </trkpt>
      <trkpt lat="43.46172295510768890380859375" lon="1.42523467540740966796875">
        <ele>159.8000030517578125</ele>
        <time>2026-08-05T11:45:36.000Z</time>
        <extensions>
          <ns3:TrackPointExtension>
            <ns3:hr>92</ns3:hr>
            <ns3:cad>0</ns3:cad>
          </ns3:TrackPointExtension>
        </extensions>
      </trkpt>
      <trkpt lat="43.4617249667644500732421875" lon="1.42524364404380321502685546875">
        <ele>159.8000030517578125</ele>
        <time>2026-08-05T11:45:37.000Z</time>
        <extensions>
          <ns3:TrackPointExtension>
            <ns3:hr>93</ns3:hr>
            <ns3:cad>0</ns3:cad>
          </ns3:TrackPointExtension>
        </extensions>
      </trkpt>
      <trkpt lat="43.461723625659942626953125" lon="1.4252502657473087310791015625">
        <ele>159.8000030517578125</ele>
        <time>2026-08-05T11:45:38.000Z</time>
        <extensions>
          <ns3:TrackPointExtension>
            <ns3:hr>93</ns3:hr>
            <ns3:cad>0</ns3:cad>
          </ns3:TrackPointExtension>
        </extensions>
      </trkpt>
      <trkpt lat="43.46172253601253032684326171875" lon="1.42525353468954563140869140625">
        <ele>160</ele>
        <time>2026-08-05T11:45:39.000Z</time>
        <extensions>
          <ns3:TrackPointExtension>
            <ns3:hr>93</ns3:hr>
            <ns3:cad>0</ns3:cad>
          </ns3:TrackPointExtension>
        </extensions>
      </trkpt>
      <trkpt lat="43.4617227874696254730224609375" lon="1.425253450870513916015625">
        <ele>160</ele>
        <time>2026-08-05T11:45:40.000Z</time>
        <extensions>
          <ns3:TrackPointExtension>
            <ns3:hr>93</ns3:hr>
            <ns3:cad>0</ns3:cad>
          </ns3:TrackPointExtension>
        </extensions>
      </trkpt>
      <trkpt lat="43.4617227874696254730224609375" lon="1.425253450870513916015625">
        <ele>160.1999969482421875</ele>
        <time>2026-08-05T11:45:41.000Z</time>
        <extensions>
          <ns3:TrackPointExtension>
            <ns3:hr>93</ns3:hr>
            <ns3:cad>0</ns3:cad>
          </ns3:TrackPointExtension>
        </extensions>
      </trkpt>
      <trkpt lat="43.4617227874696254730224609375" lon="1.425253450870513916015625">
        <ele>160.1999969482421875</ele>
        <time>2026-08-05T11:45:42.000Z</time>
        <extensions>
          <ns3:TrackPointExtension>
            <ns3:hr>92</ns3:hr>
            <ns3:cad>0</ns3:cad>
          </ns3:TrackPointExtension>
        </extensions>
      </trkpt>
      <trkpt lat="43.4617227874696254730224609375" lon="1.425253450870513916015625">
        <ele>160.1999969482421875</ele>
        <time>2026-08-05T11:45:43.000Z</time>
        <extensions>
          <ns3:TrackPointExtension>
            <ns3:hr>92</ns3:hr>
            <ns3:cad>0</ns3:cad>
          </ns3:TrackPointExtension>
        </extensions>
      </trkpt>
      <trkpt lat="43.4617227874696254730224609375" lon="1.425253450870513916015625">
        <ele>160.1999969482421875</ele>
        <time>2026-08-05T11:45:44.000Z</time>
        <extensions>
          <ns3:TrackPointExtension>
            <ns3:hr>92</ns3:hr>
            <ns3:cad>0</ns3:cad>
          </ns3:TrackPointExtension>
        </extensions>
      </trkpt>
      <trkpt lat="43.4617227874696254730224609375" lon="1.425253450870513916015625">
        <ele>160.1999969482421875</ele>
        <time>2026-08-05T11:45:45.000Z</time>
        <extensions>
          <ns3:TrackPointExtension>
            <ns3:hr>92</ns3:hr>
            <ns3:cad>0</ns3:cad>
          </ns3:TrackPointExtension>
        </extensions>
      </trkpt>
      <trkpt lat="43.4617227874696254730224609375" lon="1.425253450870513916015625">
        <ele>160</ele>
        <time>2026-08-05T11:45:46.000Z</time>
        <extensions>
          <ns3:TrackPointExtension>
            <ns3:hr>91</ns3:hr>
            <ns3:cad>0</ns3:cad>
          </ns3:TrackPointExtension>
        </extensions>
      </trkpt>
      <trkpt lat="43.4617227874696254730224609375" lon="1.425253450870513916015625">
        <ele>160</ele>
        <time>2026-08-05T11:45:47.000Z</time>
        <extensions>
          <ns3:TrackPointExtension>
            <ns3:hr>91</ns3:hr>
            <ns3:cad>0</ns3:cad>
          </ns3:TrackPointExtension>
        </extensions>
      </trkpt>
      <trkpt lat="43.4617227874696254730224609375" lon="1.425253450870513916015625">
        <ele>160</ele>
        <time>2026-08-05T11:45:48.000Z</time>
        <extensions>
          <ns3:TrackPointExtension>
            <ns3:hr>91</ns3:hr>
            <ns3:cad>0</ns3:cad>
          </ns3:TrackPointExtension>
        </extensions>
      </trkpt>
      <trkpt lat="43.4617227874696254730224609375" lon="1.425253450870513916015625">
        <ele>160</ele>
        <time>2026-08-05T11:45:49.000Z</time>
        <extensions>
          <ns3:TrackPointExtension>
            <ns3:hr>91</ns3:hr>
            <ns3:cad>0</ns3:cad>
          </ns3:TrackPointExtension>
        </extensions>
      </trkpt>
      <trkpt lat="43.4617227874696254730224609375" lon="1.425253450870513916015625">
        <ele>160</ele>
        <time>2026-08-05T11:45:50.000Z</time>
        <extensions>
          <ns3:TrackPointExtension>
            <ns3:hr>91</ns3:hr>
            <ns3:cad>0</ns3:cad>
          </ns3:TrackPointExtension>
        </extensions>
      </trkpt>
      <trkpt lat="43.4617227874696254730224609375" lon="1.425253450870513916015625">
        <ele>160</ele>
        <time>2026-08-05T11:45:51.000Z</time>
        <extensions>
          <ns3:TrackPointExtension>
            <ns3:hr>91</ns3:hr>
            <ns3:cad>0</ns3:cad>
          </ns3:TrackPointExtension>
        </extensions>
      </trkpt>
      <trkpt lat="43.4617227874696254730224609375" lon="1.425253450870513916015625">
        <ele>160.1999969482421875</ele>
        <time>2026-08-05T11:45:52.000Z</time>
        <extensions>
          <ns3:TrackPointExtension>
            <ns3:hr>92</ns3:hr>
            <ns3:cad>0</ns3:cad>
          </ns3:TrackPointExtension>
        </extensions>
      </trkpt>
      <trkpt lat="43.4617227874696254730224609375" lon="1.425253450870513916015625">
        <ele>160.1999969482421875</ele>
        <time>2026-08-05T11:45:53.000Z</time>
        <extensions>
          <ns3:TrackPointExtension>
            <ns3:hr>91</ns3:hr>
            <ns3:cad>0</ns3:cad>
          </ns3:TrackPointExtension>
        </extensions>
      </trkpt>
      <trkpt lat="43.4617227874696254730224609375" lon="1.425253450870513916015625">
        <ele>160.1999969482421875</ele>
        <time>2026-08-05T11:45:54.000Z</time>
        <extensions>
          <ns3:TrackPointExtension>
            <ns3:hr>91</ns3:hr>
            <ns3:cad>0</ns3:cad>
          </ns3:TrackPointExtension>
        </extensions>
      </trkpt>
      <trkpt lat="43.4617227874696254730224609375" lon="1.425253450870513916015625">
        <ele>160.1999969482421875</ele>
        <time>2026-08-05T11:45:55.000Z</time>
        <extensions>
          <ns3:TrackPointExtension>
            <ns3:hr>92</ns3:hr>
            <ns3:cad>0</ns3:cad>
          </ns3:TrackPointExtension>
        </extensions>
      </trkpt>
      <trkpt lat="43.4617227874696254730224609375" lon="1.425253450870513916015625">
        <ele>160.1999969482421875</ele>
        <time>2026-08-05T11:45:56.000Z</time>
        <extensions>
          <ns3:TrackPointExtension>
            <ns3:hr>92</ns3:hr>
            <ns3:cad>0</ns3:cad>
          </ns3:TrackPointExtension>
        </extensions>
      </trkpt>
      <trkpt lat="43.4617227874696254730224609375" lon="1.425253450870513916015625">
        <ele>160.1999969482421875</ele>
        <time>2026-08-05T11:45:57.000Z</time>
        <extensions>
          <ns3:TrackPointExtension>
            <ns3:hr>93</ns3:hr>
            <ns3:cad>0</ns3:cad>
          </ns3:TrackPointExtension>
        </extensions>
      </trkpt>
      <trkpt lat="43.4617227874696254730224609375" lon="1.425253450870513916015625">
        <ele>160.1999969482421875</ele>
        <time>2026-08-05T11:45:58.000Z</time>
        <extensions>
          <ns3:TrackPointExtension>
            <ns3:hr>93</ns3:hr>
            <ns3:cad>0</ns3:cad>
          </ns3:TrackPointExtension>
        </extensions>
      </trkpt>
      <trkpt lat="43.4617227874696254730224609375" lon="1.425253450870513916015625">
        <ele>160</ele>
        <time>2026-08-05T11:45:59.000Z</time>
        <extensions>
          <ns3:TrackPointExtension>
            <ns3:hr>93</ns3:hr>
            <ns3:cad>0</ns3:cad>
          </ns3:TrackPointExtension>
        </extensions>
      </trkpt>
      <trkpt lat="43.4617227874696254730224609375" lon="1.425253450870513916015625">
        <ele>160.1999969482421875</ele>
        <time>2026-08-05T11:46:00.000Z</time>
        <extensions>
          <ns3:TrackPointExtension>
            <ns3:hr>92</ns3:hr>
            <ns3:cad>0</ns3:cad>
          </ns3:TrackPointExtension>
        </extensions>
      </trkpt>
      <trkpt lat="43.4617227874696254730224609375" lon="1.425253450870513916015625">
        <ele>160.1999969482421875</ele>
        <time>2026-08-05T11:46:01.000Z</time>
        <extensions>
          <ns3:TrackPointExtension>
            <ns3:hr>93</ns3:hr>
            <ns3:cad>0</ns3:cad>
          </ns3:TrackPointExtension>
        </extensions>
      </trkpt>
      <trkpt lat="43.4617227874696254730224609375" lon="1.425253450870513916015625">
        <ele>160.1999969482421875</ele>
        <time>2026-08-05T11:46:02.000Z</time>
        <extensions>
          <ns3:TrackPointExtension>
            <ns3:hr>93</ns3:hr>
            <ns3:cad>0</ns3:cad>
          </ns3:TrackPointExtension>
        </extensions>
      </trkpt>
      <trkpt lat="43.4617227874696254730224609375" lon="1.425253450870513916015625">
        <ele>160.399993896484375</ele>
        <time>2026-08-05T11:46:03.000Z</time>
        <extensions>
          <ns3:TrackPointExtension>
            <ns3:hr>94</ns3:hr>
            <ns3:cad>0</ns3:cad>
          </ns3:TrackPointExtension>
        </extensions>
      </trkpt>
      <trkpt lat="43.4617227874696254730224609375" lon="1.425253450870513916015625">
        <ele>160.399993896484375</ele>
        <time>2026-08-05T11:46:04.000Z</time>
        <extensions>
          <ns3:TrackPointExtension>
            <ns3:hr>93</ns3:hr>
            <ns3:cad>0</ns3:cad>
          </ns3:TrackPointExtension>
        </extensions>
      </trkpt>
      <trkpt lat="43.4617227874696254730224609375" lon="1.425253450870513916015625">
        <ele>160.399993896484375</ele>
        <time>2026-08-05T11:46:05.000Z</time>
        <extensions>
          <ns3:TrackPointExtension>
            <ns3:hr>91</ns3:hr>
            <ns3:cad>0</ns3:cad>
          </ns3:TrackPointExtension>
        </extensions>
      </trkpt>
      <trkpt lat="43.4617227874696254730224609375" lon="1.425253450870513916015625">
        <ele>160.399993896484375</ele>
        <time>2026-08-05T11:46:06.000Z</time>
        <extensions>
          <ns3:TrackPointExtension>
            <ns3:hr>88</ns3:hr>
            <ns3:cad>0</ns3:cad>
          </ns3:TrackPointExtension>
        </extensions>
      </trkpt>
      <trkpt lat="43.4617227874696254730224609375" lon="1.425253450870513916015625">
        <ele>160.399993896484375</ele>
        <time>2026-08-05T11:46:07.000Z</time>
        <extensions>
          <ns3:TrackPointExtension>
            <ns3:hr>87</ns3:hr>
            <ns3:cad>0</ns3:cad>
          </ns3:TrackPointExtension>
        </extensions>
      </trkpt>
      <trkpt lat="43.4617227874696254730224609375" lon="1.425253450870513916015625">
        <ele>160.399993896484375</ele>
        <time>2026-08-05T11:46:08.000Z</time>
        <extensions>
          <ns3:TrackPointExtension>
            <ns3:hr>88</ns3:hr>
            <ns3:cad>0</ns3:cad>
          </ns3:TrackPointExtension>
        </extensions>
      </trkpt>
      <trkpt lat="43.4617227874696254730224609375" lon="1.425253450870513916015625">
        <ele>160.399993896484375</ele>
        <time>2026-08-05T11:46:09.000Z</time>
        <extensions>
          <ns3:TrackPointExtension>
            <ns3:hr>88</ns3:hr>
            <ns3:cad>0</ns3:cad>
          </ns3:TrackPointExtension>
        </extensions>
      </trkpt>
      <trkpt lat="43.4617227874696254730224609375" lon="1.425253450870513916015625">
        <ele>160.399993896484375</ele>
        <time>2026-08-05T11:46:10.000Z</time>
        <extensions>
          <ns3:TrackPointExtension>
            <ns3:hr>88</ns3:hr>
            <ns3:cad>0</ns3:cad>
          </ns3:TrackPointExtension>
        </extensions>
      </trkpt>
      <trkpt lat="43.4617227874696254730224609375" lon="1.425253450870513916015625">
        <ele>160.399993896484375</ele>
        <time>2026-08-05T11:46:11.000Z</time>
        <extensions>
          <ns3:TrackPointExtension>
            <ns3:hr>87</ns3:hr>
            <ns3:cad>0</ns3:cad>
          </ns3:TrackPointExtension>
        </extensions>
      </trkpt>
      <trkpt lat="43.4617194347083568572998046875" lon="1.42526091076433658599853515625">
        <ele>160.399993896484375</ele>
        <time>2026-08-05T11:46:12.000Z</time>
        <extensions>
          <ns3:TrackPointExtension>
            <ns3:hr>87</ns3:hr>
            <ns3:cad>0</ns3:cad>
          </ns3:TrackPointExtension>
        </extensions>
      </trkpt>
      <trkpt lat="43.4617164172232151031494140625" lon="1.42526392824947834014892578125">
        <ele>160.399993896484375</ele>
        <time>2026-08-05T11:46:13.000Z</time>
        <extensions>
          <ns3:TrackPointExtension>
            <ns3:hr>87</ns3:hr>
            <ns3:cad>0</ns3:cad>
          </ns3:TrackPointExtension>
        </extensions>
      </trkpt>
      <trkpt lat="43.46171557903289794921875" lon="1.4252630062401294708251953125">
        <ele>160.399993896484375</ele>
        <time>2026-08-05T11:46:14.000Z</time>
        <extensions>
          <ns3:TrackPointExtension>
            <ns3:hr>88</ns3:hr>
            <ns3:cad>0</ns3:cad>
          </ns3:TrackPointExtension>
        </extensions>
      </trkpt>
      <trkpt lat="43.46171683631837368011474609375" lon="1.425259821116924285888671875">
        <ele>160.399993896484375</ele>
        <time>2026-08-05T11:46:15.000Z</time>
        <extensions>
          <ns3:TrackPointExtension>
            <ns3:hr>88</ns3:hr>
            <ns3:cad>0</ns3:cad>
          </ns3:TrackPointExtension>
        </extensions>
      </trkpt>
      <trkpt lat="43.46171750687062740325927734375" lon="1.42526241950690746307373046875">
        <ele>160.399993896484375</ele>
        <time>2026-08-05T11:46:16.000Z</time>
        <extensions>
          <ns3:TrackPointExtension>
            <ns3:hr>89</ns3:hr>
            <ns3:cad>0</ns3:cad>
          </ns3:TrackPointExtension>
        </extensions>
      </trkpt>
      <trkpt lat="43.4617227874696254730224609375" lon="1.425253450870513916015625">
        <ele>160.600006103515625</ele>
        <time>2026-08-05T11:46:17.000Z</time>
        <extensions>
          <ns3:TrackPointExtension>
            <ns3:hr>87</ns3:hr>
            <ns3:cad>0</ns3:cad>
          </ns3:TrackPointExtension>
        </extensions>
      </trkpt>
      <trkpt lat="43.4617227874696254730224609375" lon="1.425253450870513916015625">
        <ele>160.600006103515625</ele>
        <time>2026-08-05T11:46:18.000Z</time>
        <extensions>
          <ns3:TrackPointExtension>
            <ns3:hr>85</ns3:hr>
            <ns3:cad>0</ns3:cad>
          </ns3:TrackPointExtension>
        </extensions>
      </trkpt>
      <trkpt lat="43.4617227874696254730224609375" lon="1.425253450870513916015625">
        <ele>160.600006103515625</ele>
        <time>2026-08-05T11:46:19.000Z</time>
        <extensions>
          <ns3:TrackPointExtension>
            <ns3:hr>84</ns3:hr>
            <ns3:cad>0</ns3:cad>
          </ns3:TrackPointExtension>
        </extensions>
      </trkpt>
      <trkpt lat="43.4617227874696254730224609375" lon="1.425253450870513916015625">
        <ele>160.600006103515625</ele>
        <time>2026-08-05T11:46:20.000Z</time>
        <extensions>
          <ns3:TrackPointExtension>
            <ns3:hr>83</ns3:hr>
            <ns3:cad>0</ns3:cad>
          </ns3:TrackPointExtension>
        </extensions>
      </trkpt>
      <trkpt lat="43.4617227874696254730224609375" lon="1.425253450870513916015625">
        <ele>160.600006103515625</ele>
        <time>2026-08-05T11:46:21.000Z</time>
        <extensions>
          <ns3:TrackPointExtension>
            <ns3:hr>82</ns3:hr>
            <ns3:cad>0</ns3:cad>
          </ns3:TrackPointExtension>
        </extensions>
      </trkpt>
      <trkpt lat="43.4617227874696254730224609375" lon="1.425253450870513916015625">
        <ele>160.600006103515625</ele>
        <time>2026-08-05T11:46:22.000Z</time>
        <extensions>
          <ns3:TrackPointExtension>
            <ns3:hr>82</ns3:hr>
            <ns3:cad>0</ns3:cad>
          </ns3:TrackPointExtension>
        </extensions>
      </trkpt>
      <trkpt lat="43.4617227874696254730224609375" lon="1.425253450870513916015625">
        <ele>160.600006103515625</ele>
        <time>2026-08-05T11:46:23.000Z</time>
        <extensions>
          <ns3:TrackPointExtension>
            <ns3:hr>81</ns3:hr>
            <ns3:cad>0</ns3:cad>
          </ns3:TrackPointExtension>
        </extensions>
      </trkpt>
      <trkpt lat="43.4617227874696254730224609375" lon="1.425253450870513916015625">
        <ele>160.600006103515625</ele>
        <time>2026-08-05T11:46:24.000Z</time>
        <extensions>
          <ns3:TrackPointExtension>
            <ns3:hr>79</ns3:hr>
            <ns3:cad>0</ns3:cad>
          </ns3:TrackPointExtension>
        </extensions>
      </trkpt>
      <trkpt lat="43.4617227874696254730224609375" lon="1.425253450870513916015625">
        <ele>160.8000030517578125</ele>
        <time>2026-08-05T11:46:25.000Z</time>
        <extensions>
          <ns3:TrackPointExtension>
            <ns3:hr>79</ns3:hr>
            <ns3:cad>0</ns3:cad>
          </ns3:TrackPointExtension>
        </extensions>
      </trkpt>
      <trkpt lat="43.4617227874696254730224609375" lon="1.425253450870513916015625">
        <ele>160.8000030517578125</ele>
        <time>2026-08-05T11:46:26.000Z</time>
        <extensions>
          <ns3:TrackPointExtension>
            <ns3:hr>78</ns3:hr>
            <ns3:cad>0</ns3:cad>
          </ns3:TrackPointExtension>
        </extensions>
      </trkpt>
      <trkpt lat="43.4617227874696254730224609375" lon="1.425253450870513916015625">
        <ele>160.8000030517578125</ele>
        <time>2026-08-05T11:46:27.000Z</time>
        <extensions>
          <ns3:TrackPointExtension>
            <ns3:hr>77</ns3:hr>
            <ns3:cad>0</ns3:cad>
          </ns3:TrackPointExtension>
        </extensions>
      </trkpt>
      <trkpt lat="43.4617227874696254730224609375" lon="1.425253450870513916015625">
        <ele>160.8000030517578125</ele>
        <time>2026-08-05T11:46:28.000Z</time>
        <extensions>
          <ns3:TrackPointExtension>
            <ns3:hr>76</ns3:hr>
            <ns3:cad>0</ns3:cad>
          </ns3:TrackPointExtension>
        </extensions>
      </trkpt>
      <trkpt lat="43.4617227874696254730224609375" lon="1.425253450870513916015625">
        <ele>160.8000030517578125</ele>
        <time>2026-08-05T11:46:29.000Z</time>
        <extensions>
          <ns3:TrackPointExtension>
            <ns3:hr>76</ns3:hr>
            <ns3:cad>0</ns3:cad>
          </ns3:TrackPointExtension>
        </extensions>
      </trkpt>
      <trkpt lat="43.4617227874696254730224609375" lon="1.425253450870513916015625">
        <ele>160.8000030517578125</ele>
        <time>2026-08-05T11:46:30.000Z</time>
        <extensions>
          <ns3:TrackPointExtension>
            <ns3:hr>76</ns3:hr>
            <ns3:cad>0</ns3:cad>
          </ns3:TrackPointExtension>
        </extensions>
      </trkpt>
      <trkpt lat="43.4617227874696254730224609375" lon="1.425253450870513916015625">
        <ele>160.600006103515625</ele>
        <time>2026-08-05T11:46:31.000Z</time>
        <extensions>
          <ns3:TrackPointExtension>
            <ns3:hr>76</ns3:hr>
            <ns3:cad>0</ns3:cad>
          </ns3:TrackPointExtension>
        </extensions>
      </trkpt>
      <trkpt lat="43.4617227874696254730224609375" lon="1.425253450870513916015625">
        <ele>160.600006103515625</ele>
        <time>2026-08-05T11:46:32.000Z</time>
        <extensions>
          <ns3:TrackPointExtension>
            <ns3:hr>77</ns3:hr>
            <ns3:cad>0</ns3:cad>
          </ns3:TrackPointExtension>
        </extensions>
      </trkpt>
      <trkpt lat="43.4617227874696254730224609375" lon="1.425253450870513916015625">
        <ele>160.600006103515625</ele>
        <time>2026-08-05T11:46:33.000Z</time>
        <extensions>
          <ns3:TrackPointExtension>
            <ns3:hr>76</ns3:hr>
            <ns3:cad>0</ns3:cad>
          </ns3:TrackPointExtension>
        </extensions>
      </trkpt>
      <trkpt lat="43.4617227874696254730224609375" lon="1.425253450870513916015625">
        <ele>160.8000030517578125</ele>
        <time>2026-08-05T11:46:34.000Z</time>
        <extensions>
          <ns3:TrackPointExtension>
            <ns3:hr>77</ns3:hr>
            <ns3:cad>0</ns3:cad>
          </ns3:TrackPointExtension>
        </extensions>
      </trkpt>
      <trkpt lat="43.4617227874696254730224609375" lon="1.425253450870513916015625">
        <ele>160.8000030517578125</ele>
        <time>2026-08-05T11:46:35.000Z</time>
        <extensions>
          <ns3:TrackPointExtension>
            <ns3:hr>77</ns3:hr>
            <ns3:cad>0</ns3:cad>
          </ns3:TrackPointExtension>
        </extensions>
      </trkpt>
      <trkpt lat="43.4617227874696254730224609375" lon="1.425253450870513916015625">
        <ele>160.8000030517578125</ele>
        <time>2026-08-05T11:46:36.000Z</time>
        <extensions>
          <ns3:TrackPointExtension>
            <ns3:hr>77</ns3:hr>
            <ns3:cad>0</ns3:cad>
          </ns3:TrackPointExtension>
        </extensions>
      </trkpt>
      <trkpt lat="43.46171214245259761810302734375" lon="1.42526493407785892486572265625">
        <ele>160.8000030517578125</ele>
        <time>2026-08-05T11:46:37.000Z</time>
        <extensions>
          <ns3:TrackPointExtension>
            <ns3:hr>76</ns3:hr>
            <ns3:cad>0</ns3:cad>
          </ns3:TrackPointExtension>
        </extensions>
      </trkpt>
      <trkpt lat="43.4617102146148681640625" lon="1.4252663590013980865478515625">
        <ele>160.8000030517578125</ele>
        <time>2026-08-05T11:46:38.000Z</time>
        <extensions>
          <ns3:TrackPointExtension>
            <ns3:hr>76</ns3:hr>
            <ns3:cad>0</ns3:cad>
          </ns3:TrackPointExtension>
        </extensions>
      </trkpt>
      <trkpt lat="43.46170795150101184844970703125" lon="1.42526091076433658599853515625">
        <ele>160.8000030517578125</ele>
        <time>2026-08-05T11:46:39.000Z</time>
        <extensions>
          <ns3:TrackPointExtension>
            <ns3:hr>76</ns3:hr>
            <ns3:cad>0</ns3:cad>
          </ns3:TrackPointExtension>
        </extensions>
      </trkpt>
      <trkpt lat="43.4617073647677898406982421875" lon="1.42526007257401943206787109375">
        <ele>160.8000030517578125</ele>
        <time>2026-08-05T11:46:40.000Z</time>
        <extensions>
          <ns3:TrackPointExtension>
            <ns3:hr>77</ns3:hr>
            <ns3:cad>0</ns3:cad>
          </ns3:TrackPointExtension>
        </extensions>
      </trkpt>
      <trkpt lat="43.46170744858682155609130859375" lon="1.4252601563930511474609375">
        <ele>160.8000030517578125</ele>
        <time>2026-08-05T11:46:41.000Z</time>
        <extensions>
          <ns3:TrackPointExtension>
            <ns3:hr>77</ns3:hr>
            <ns3:cad>0</ns3:cad>
          </ns3:TrackPointExtension>
        </extensions>
      </trkpt>
      <trkpt lat="43.46170744858682155609130859375" lon="1.4252601563930511474609375">
        <ele>160.8000030517578125</ele>
        <time>2026-08-05T11:46:42.000Z</time>
        <extensions>
          <ns3:TrackPointExtension>
            <ns3:hr>77</ns3:hr>
            <ns3:cad>0</ns3:cad>
          </ns3:TrackPointExtension>
        </extensions>
      </trkpt>
      <trkpt lat="43.46170744858682155609130859375" lon="1.4252601563930511474609375">
        <ele>161</ele>
        <time>2026-08-05T11:46:43.000Z</time>
        <extensions>
          <ns3:TrackPointExtension>
            <ns3:hr>77</ns3:hr>
            <ns3:cad>0</ns3:cad>
          </ns3:TrackPointExtension>
        </extensions>
      </trkpt>
      <trkpt lat="43.46170744858682155609130859375" lon="1.4252601563930511474609375">
        <ele>161</ele>
        <time>2026-08-05T11:46:44.000Z</time>
        <extensions>
          <ns3:TrackPointExtension>
            <ns3:hr>77</ns3:hr>
            <ns3:cad>0</ns3:cad>
          </ns3:TrackPointExtension>
        </extensions>
      </trkpt>
      <trkpt lat="43.46170744858682155609130859375" lon="1.4252601563930511474609375">
        <ele>161</ele>
        <time>2026-08-05T11:46:45.000Z</time>
        <extensions>
          <ns3:TrackPointExtension>
            <ns3:hr>76</ns3:hr>
            <ns3:cad>0</ns3:cad>
          </ns3:TrackPointExtension>
        </extensions>
      </trkpt>
      <trkpt lat="43.46170744858682155609130859375" lon="1.4252601563930511474609375">
        <ele>161</ele>
        <time>2026-08-05T11:46:46.000Z</time>
        <extensions>
          <ns3:TrackPointExtension>
            <ns3:hr>76</ns3:hr>
            <ns3:cad>0</ns3:cad>
          </ns3:TrackPointExtension>
        </extensions>
      </trkpt>
      <trkpt lat="43.46170744858682155609130859375" lon="1.4252601563930511474609375">
        <ele>161</ele>
        <time>2026-08-05T11:46:47.000Z</time>
        <extensions>
          <ns3:TrackPointExtension>
            <ns3:hr>76</ns3:hr>
            <ns3:cad>0</ns3:cad>
          </ns3:TrackPointExtension>
        </extensions>
      </trkpt>
      <trkpt lat="43.46170744858682155609130859375" lon="1.4252601563930511474609375">
        <ele>161</ele>
        <time>2026-08-05T11:46:48.000Z</time>
        <extensions>
          <ns3:TrackPointExtension>
            <ns3:hr>76</ns3:hr>
            <ns3:cad>0</ns3:cad>
          </ns3:TrackPointExtension>
        </extensions>
      </trkpt>
      <trkpt lat="43.46170744858682155609130859375" lon="1.4252601563930511474609375">
        <ele>161</ele>
        <time>2026-08-05T11:46:49.000Z</time>
        <extensions>
          <ns3:TrackPointExtension>
            <ns3:hr>76</ns3:hr>
            <ns3:cad>0</ns3:cad>
          </ns3:TrackPointExtension>
        </extensions>
      </trkpt>
      <trkpt lat="43.46170744858682155609130859375" lon="1.4252601563930511474609375">
        <ele>161</ele>
        <time>2026-08-05T11:46:50.000Z</time>
        <extensions>
          <ns3:TrackPointExtension>
            <ns3:hr>76</ns3:hr>
            <ns3:cad>0</ns3:cad>
          </ns3:TrackPointExtension>
        </extensions>
      </trkpt>
      <trkpt lat="43.46170744858682155609130859375" lon="1.4252601563930511474609375">
        <ele>161</ele>
        <time>2026-08-05T11:46:51.000Z</time>
        <extensions>
          <ns3:TrackPointExtension>
            <ns3:hr>77</ns3:hr>
            <ns3:cad>0</ns3:cad>
          </ns3:TrackPointExtension>
        </extensions>
      </trkpt>
      <trkpt lat="43.46170744858682155609130859375" lon="1.4252601563930511474609375">
        <ele>161</ele>
        <time>2026-08-05T11:46:52.000Z</time>
        <extensions>
          <ns3:TrackPointExtension>
            <ns3:hr>76</ns3:hr>
            <ns3:cad>0</ns3:cad>
          </ns3:TrackPointExtension>
        </extensions>
      </trkpt>
      <trkpt lat="43.46170744858682155609130859375" lon="1.4252601563930511474609375">
        <ele>161</ele>
        <time>2026-08-05T11:46:53.000Z</time>
        <extensions>
          <ns3:TrackPointExtension>
            <ns3:hr>76</ns3:hr>
            <ns3:cad>0</ns3:cad>
          </ns3:TrackPointExtension>
        </extensions>
      </trkpt>
      <trkpt lat="43.46170744858682155609130859375" lon="1.4252601563930511474609375">
        <ele>160.8000030517578125</ele>
        <time>2026-08-05T11:46:54.000Z</time>
        <extensions>
          <ns3:TrackPointExtension>
            <ns3:hr>77</ns3:hr>
            <ns3:cad>0</ns3:cad>
          </ns3:TrackPointExtension>
        </extensions>
      </trkpt>
      <trkpt lat="43.46170744858682155609130859375" lon="1.4252601563930511474609375">
        <ele>160.8000030517578125</ele>
        <time>2026-08-05T11:46:55.000Z</time>
        <extensions>
          <ns3:TrackPointExtension>
            <ns3:hr>77</ns3:hr>
            <ns3:cad>0</ns3:cad>
          </ns3:TrackPointExtension>
        </extensions>
      </trkpt>
      <trkpt lat="43.46170744858682155609130859375" lon="1.4252601563930511474609375">
        <ele>160.8000030517578125</ele>
        <time>2026-08-05T11:46:56.000Z</time>
        <extensions>
          <ns3:TrackPointExtension>
            <ns3:hr>78</ns3:hr>
            <ns3:cad>0</ns3:cad>
          </ns3:TrackPointExtension>
        </extensions>
      </trkpt>
      <trkpt lat="43.46170744858682155609130859375" lon="1.4252601563930511474609375">
        <ele>160.8000030517578125</ele>
        <time>2026-08-05T11:46:57.000Z</time>
        <extensions>
          <ns3:TrackPointExtension>
            <ns3:hr>78</ns3:hr>
            <ns3:cad>0</ns3:cad>
          </ns3:TrackPointExtension>
        </extensions>
      </trkpt>
      <trkpt lat="43.46170744858682155609130859375" lon="1.4252601563930511474609375">
        <ele>160.8000030517578125</ele>
        <time>2026-08-05T11:46:58.000Z</time>
        <extensions>
          <ns3:TrackPointExtension>
            <ns3:hr>78</ns3:hr>
            <ns3:cad>0</ns3:cad>
          </ns3:TrackPointExtension>
        </extensions>
      </trkpt>
      <trkpt lat="43.46170744858682155609130859375" lon="1.4252601563930511474609375">
        <ele>161</ele>
        <time>2026-08-05T11:46:59.000Z</time>
        <extensions>
          <ns3:TrackPointExtension>
            <ns3:hr>77</ns3:hr>
            <ns3:cad>0</ns3:cad>
          </ns3:TrackPointExtension>
        </extensions>
      </trkpt>
      <trkpt lat="43.46170744858682155609130859375" lon="1.4252601563930511474609375">
        <ele>161</ele>
        <time>2026-08-05T11:47:00.000Z</time>
        <extensions>
          <ns3:TrackPointExtension>
            <ns3:hr>77</ns3:hr>
            <ns3:cad>0</ns3:cad>
          </ns3:TrackPointExtension>
        </extensions>
      </trkpt>
      <trkpt lat="43.46170744858682155609130859375" lon="1.4252601563930511474609375">
        <ele>161</ele>
        <time>2026-08-05T11:47:01.000Z</time>
        <extensions>
          <ns3:TrackPointExtension>
            <ns3:hr>76</ns3:hr>
            <ns3:cad>0</ns3:cad>
          </ns3:TrackPointExtension>
        </extensions>
      </trkpt>
      <trkpt lat="43.46170744858682155609130859375" lon="1.4252601563930511474609375">
        <ele>161</ele>
        <time>2026-08-05T11:47:02.000Z</time>
        <extensions>
          <ns3:TrackPointExtension>
            <ns3:hr>76</ns3:hr>
            <ns3:cad>0</ns3:cad>
          </ns3:TrackPointExtension>
        </extensions>
      </trkpt>
      <trkpt lat="43.46170744858682155609130859375" lon="1.4252601563930511474609375">
        <ele>160.8000030517578125</ele>
        <time>2026-08-05T11:47:03.000Z</time>
        <extensions>
          <ns3:TrackPointExtension>
            <ns3:hr>76</ns3:hr>
            <ns3:cad>0</ns3:cad>
          </ns3:TrackPointExtension>
        </extensions>
      </trkpt>
      <trkpt lat="43.46170744858682155609130859375" lon="1.4252601563930511474609375">
        <ele>160.8000030517578125</ele>
        <time>2026-08-05T11:47:04.000Z</time>
        <extensions>
          <ns3:TrackPointExtension>
            <ns3:hr>75</ns3:hr>
            <ns3:cad>0</ns3:cad>
          </ns3:TrackPointExtension>
        </extensions>
      </trkpt>
      <trkpt lat="43.46170744858682155609130859375" lon="1.4252601563930511474609375">
        <ele>160.8000030517578125</ele>
        <time>2026-08-05T11:47:05.000Z</time>
        <extensions>
          <ns3:TrackPointExtension>
            <ns3:hr>75</ns3:hr>
            <ns3:cad>0</ns3:cad>
          </ns3:TrackPointExtension>
        </extensions>
      </trkpt>
      <trkpt lat="43.46170744858682155609130859375" lon="1.4252601563930511474609375">
        <ele>160.8000030517578125</ele>
        <time>2026-08-05T11:47:06.000Z</time>
        <extensions>
          <ns3:TrackPointExtension>
            <ns3:hr>75</ns3:hr>
            <ns3:cad>0</ns3:cad>
          </ns3:TrackPointExtension>
        </extensions>
      </trkpt>
      <trkpt lat="43.46170744858682155609130859375" lon="1.4252601563930511474609375">
        <ele>160.8000030517578125</ele>
        <time>2026-08-05T11:47:07.000Z</time>
        <extensions>
          <ns3:TrackPointExtension>
            <ns3:hr>74</ns3:hr>
            <ns3:cad>0</ns3:cad>
          </ns3:TrackPointExtension>
        </extensions>
      </trkpt>
      <trkpt lat="43.46170744858682155609130859375" lon="1.4252601563930511474609375">
        <ele>160.8000030517578125</ele>
        <time>2026-08-05T11:47:08.000Z</time>
        <extensions>
          <ns3:TrackPointExtension>
            <ns3:hr>75</ns3:hr>
            <ns3:cad>0</ns3:cad>
          </ns3:TrackPointExtension>
        </extensions>
      </trkpt>
      <trkpt lat="43.46170744858682155609130859375" lon="1.4252601563930511474609375">
        <ele>160.8000030517578125</ele>
        <time>2026-08-05T11:47:09.000Z</time>
        <extensions>
          <ns3:TrackPointExtension>
            <ns3:hr>75</ns3:hr>
            <ns3:cad>0</ns3:cad>
          </ns3:TrackPointExtension>
        </extensions>
      </trkpt>
      <trkpt lat="43.46170744858682155609130859375" lon="1.4252601563930511474609375">
        <ele>160.8000030517578125</ele>
        <time>2026-08-05T11:47:10.000Z</time>
        <extensions>
          <ns3:TrackPointExtension>
            <ns3:hr>75</ns3:hr>
            <ns3:cad>0</ns3:cad>
          </ns3:TrackPointExtension>
        </extensions>
      </trkpt>
      <trkpt lat="43.46170744858682155609130859375" lon="1.4252601563930511474609375">
        <ele>160.8000030517578125</ele>
        <time>2026-08-05T11:47:11.000Z</time>
        <extensions>
          <ns3:TrackPointExtension>
            <ns3:hr>75</ns3:hr>
            <ns3:cad>0</ns3:cad>
          </ns3:TrackPointExtension>
        </extensions>
      </trkpt>
      <trkpt lat="43.46170744858682155609130859375" lon="1.4252601563930511474609375">
        <ele>161</ele>
        <time>2026-08-05T11:47:12.000Z</time>
        <extensions>
          <ns3:TrackPointExtension>
            <ns3:hr>75</ns3:hr>
            <ns3:cad>0</ns3:cad>
          </ns3:TrackPointExtension>
        </extensions>
      </trkpt>
      <trkpt lat="43.46170744858682155609130859375" lon="1.4252601563930511474609375">
        <ele>161</ele>
        <time>2026-08-05T11:47:13.000Z</time>
        <extensions>
          <ns3:TrackPointExtension>
            <ns3:hr>75</ns3:hr>
            <ns3:cad>0</ns3:cad>
          </ns3:TrackPointExtension>
        </extensions>
      </trkpt>
      <trkpt lat="43.46170744858682155609130859375" lon="1.4252601563930511474609375">
        <ele>161</ele>
        <time>2026-08-05T11:47:14.000Z</time>
        <extensions>
          <ns3:TrackPointExtension>
            <ns3:hr>75</ns3:hr>
            <ns3:cad>0</ns3:cad>
          </ns3:TrackPointExtension>
        </extensions>
      </trkpt>
      <trkpt lat="43.46170744858682155609130859375" lon="1.4252601563930511474609375">
        <ele>161</ele>
        <time>2026-08-05T11:47:15.000Z</time>
        <extensions>
          <ns3:TrackPointExtension>
            <ns3:hr>75</ns3:hr>
            <ns3:cad>0</ns3:cad>
          </ns3:TrackPointExtension>
        </extensions>
      </trkpt>
      <trkpt lat="43.46170744858682155609130859375" lon="1.4252601563930511474609375">
        <ele>161</ele>
        <time>2026-08-05T11:47:16.000Z</time>
        <extensions>
          <ns3:TrackPointExtension>
            <ns3:hr>75</ns3:hr>
            <ns3:cad>0</ns3:cad>
          </ns3:TrackPointExtension>
        </extensions>
      </trkpt>
      <trkpt lat="43.46170744858682155609130859375" lon="1.4252601563930511474609375">
        <ele>161</ele>
        <time>2026-08-05T11:47:17.000Z</time>
        <extensions>
          <ns3:TrackPointExtension>
            <ns3:hr>75</ns3:hr>
            <ns3:cad>0</ns3:cad>
          </ns3:TrackPointExtension>
        </extensions>
      </trkpt>
      <trkpt lat="43.46170744858682155609130859375" lon="1.4252601563930511474609375">
        <ele>161</ele>
        <time>2026-08-05T11:47:18.000Z</time>
        <extensions>
          <ns3:TrackPointExtension>
            <ns3:hr>75</ns3:hr>
            <ns3:cad>0</ns3:cad>
          </ns3:TrackPointExtension>
        </extensions>
      </trkpt>
      <trkpt lat="43.46170744858682155609130859375" lon="1.4252601563930511474609375">
        <ele>161</ele>
        <time>2026-08-05T11:47:19.000Z</time>
        <extensions>
          <ns3:TrackPointExtension>
            <ns3:hr>75</ns3:hr>
            <ns3:cad>0</ns3:cad>
          </ns3:TrackPointExtension>
        </extensions>
      </trkpt>
      <trkpt lat="43.46170744858682155609130859375" lon="1.4252601563930511474609375">
        <ele>161</ele>
        <time>2026-08-05T11:47:20.000Z</time>
        <extensions>
          <ns3:TrackPointExtension>
            <ns3:hr>75</ns3:hr>
            <ns3:cad>0</ns3:cad>
          </ns3:TrackPointExtension>
        </extensions>
      </trkpt>
      <trkpt lat="43.46170744858682155609130859375" lon="1.4252601563930511474609375">
        <ele>161</ele>
        <time>2026-08-05T11:47:21.000Z</time>
        <extensions>
          <ns3:TrackPointExtension>
            <ns3:hr>75</ns3:hr>
            <ns3:cad>0</ns3:cad>
          </ns3:TrackPointExtension>
        </extensions>
      </trkpt>
      <trkpt lat="43.46170744858682155609130859375" lon="1.4252601563930511474609375">
        <ele>161</ele>
        <time>2026-08-05T11:47:22.000Z</time>
        <extensions>
          <ns3:TrackPointExtension>
            <ns3:hr>74</ns3:hr>
            <ns3:cad>0</ns3:cad>
          </ns3:TrackPointExtension>
        </extensions>
      </trkpt>
      <trkpt lat="43.46170744858682155609130859375" lon="1.4252601563930511474609375">
        <ele>161</ele>
        <time>2026-08-05T11:47:23.000Z</time>
        <extensions>
          <ns3:TrackPointExtension>
            <ns3:hr>75</ns3:hr>
            <ns3:cad>0</ns3:cad>
          </ns3:TrackPointExtension>
        </extensions>
      </trkpt>
      <trkpt lat="43.46170744858682155609130859375" lon="1.4252601563930511474609375">
        <ele>161</ele>
        <time>2026-08-05T11:47:24.000Z</time>
        <extensions>
          <ns3:TrackPointExtension>
            <ns3:hr>75</ns3:hr>
            <ns3:cad>0</ns3:cad>
          </ns3:TrackPointExtension>
        </extensions>
      </trkpt>
      <trkpt lat="43.46170744858682155609130859375" lon="1.4252601563930511474609375">
        <ele>161</ele>
        <time>2026-08-05T11:47:25.000Z</time>
        <extensions>
          <ns3:TrackPointExtension>
            <ns3:hr>75</ns3:hr>
            <ns3:cad>0</ns3:cad>
          </ns3:TrackPointExtension>
        </extensions>
      </trkpt>
      <trkpt lat="43.46170744858682155609130859375" lon="1.4252601563930511474609375">
        <ele>161</ele>
        <time>2026-08-05T11:47:26.000Z</time>
        <extensions>
          <ns3:TrackPointExtension>
            <ns3:hr>79</ns3:hr>
            <ns3:cad>0</ns3:cad>
          </ns3:TrackPointExtension>
        </extensions>
      </trkpt>
      <trkpt lat="43.46170744858682155609130859375" lon="1.4252601563930511474609375">
        <ele>161</ele>
        <time>2026-08-05T11:47:27.000Z</time>
        <extensions>
          <ns3:TrackPointExtension>
            <ns3:hr>83</ns3:hr>
            <ns3:cad>0</ns3:cad>
          </ns3:TrackPointExtension>
        </extensions>
      </trkpt>
      <trkpt lat="43.46170744858682155609130859375" lon="1.4252601563930511474609375">
        <ele>161</ele>
        <time>2026-08-05T11:47:28.000Z</time>
        <extensions>
          <ns3:TrackPointExtension>
            <ns3:hr>86</ns3:hr>
            <ns3:cad>0</ns3:cad>
          </ns3:TrackPointExtension>
        </extensions>
      </trkpt>
      <trkpt lat="43.46170744858682155609130859375" lon="1.4252601563930511474609375">
        <ele>161</ele>
        <time>2026-08-05T11:47:29.000Z</time>
        <extensions>
          <ns3:TrackPointExtension>
            <ns3:hr>86</ns3:hr>
            <ns3:cad>0</ns3:cad>
          </ns3:TrackPointExtension>
        </extensions>
      </trkpt>
      <trkpt lat="43.46170744858682155609130859375" lon="1.4252601563930511474609375">
        <ele>161</ele>
        <time>2026-08-05T11:47:30.000Z</time>
        <extensions>
          <ns3:TrackPointExtension>
            <ns3:hr>87</ns3:hr>
            <ns3:cad>0</ns3:cad>
          </ns3:TrackPointExtension>
        </extensions>
      </trkpt>
      <trkpt lat="43.46170744858682155609130859375" lon="1.4252601563930511474609375">
        <ele>161</ele>
        <time>2026-08-05T11:47:31.000Z</time>
        <extensions>
          <ns3:TrackPointExtension>
            <ns3:hr>87</ns3:hr>
            <ns3:cad>0</ns3:cad>
          </ns3:TrackPointExtension>
        </extensions>
      </trkpt>
      <trkpt lat="43.46170744858682155609130859375" lon="1.4252601563930511474609375">
        <ele>161</ele>
        <time>2026-08-05T11:47:32.000Z</time>
        <extensions>
          <ns3:TrackPointExtension>
            <ns3:hr>87</ns3:hr>
            <ns3:cad>0</ns3:cad>
          </ns3:TrackPointExtension>
        </extensions>
      </trkpt>
      <trkpt lat="43.46170744858682155609130859375" lon="1.4252601563930511474609375">
        <ele>160.8000030517578125</ele>
        <time>2026-08-05T11:47:33.000Z</time>
        <extensions>
          <ns3:TrackPointExtension>
            <ns3:hr>87</ns3:hr>
            <ns3:cad>0</ns3:cad>
          </ns3:TrackPointExtension>
        </extensions>
      </trkpt>
      <trkpt lat="43.46170744858682155609130859375" lon="1.4252601563930511474609375">
        <ele>160.8000030517578125</ele>
        <time>2026-08-05T11:47:34.000Z</time>
        <extensions>
          <ns3:TrackPointExtension>
            <ns3:hr>87</ns3:hr>
            <ns3:cad>0</ns3:cad>
          </ns3:TrackPointExtension>
        </extensions>
      </trkpt>
      <trkpt lat="43.46170744858682155609130859375" lon="1.4252601563930511474609375">
        <ele>160.8000030517578125</ele>
        <time>2026-08-05T11:47:35.000Z</time>
        <extensions>
          <ns3:TrackPointExtension>
            <ns3:hr>87</ns3:hr>
            <ns3:cad>0</ns3:cad>
          </ns3:TrackPointExtension>
        </extensions>
      </trkpt>
      <trkpt lat="43.46170744858682155609130859375" lon="1.4252601563930511474609375">
        <ele>160.8000030517578125</ele>
        <time>2026-08-05T11:47:36.000Z</time>
        <extensions>
          <ns3:TrackPointExtension>
            <ns3:hr>87</ns3:hr>
            <ns3:cad>0</ns3:cad>
          </ns3:TrackPointExtension>
        </extensions>
      </trkpt>
      <trkpt lat="43.46170744858682155609130859375" lon="1.4252601563930511474609375">
        <ele>160.8000030517578125</ele>
        <time>2026-08-05T11:47:37.000Z</time>
        <extensions>
          <ns3:TrackPointExtension>
            <ns3:hr>87</ns3:hr>
            <ns3:cad>0</ns3:cad>
          </ns3:TrackPointExtension>
        </extensions>
      </trkpt>
      <trkpt lat="43.46170744858682155609130859375" lon="1.4252601563930511474609375">
        <ele>160.8000030517578125</ele>
        <time>2026-08-05T11:47:38.000Z</time>
        <extensions>
          <ns3:TrackPointExtension>
            <ns3:hr>87</ns3:hr>
            <ns3:cad>0</ns3:cad>
          </ns3:TrackPointExtension>
        </extensions>
      </trkpt>
      <trkpt lat="43.46170744858682155609130859375" lon="1.4252601563930511474609375">
        <ele>160.8000030517578125</ele>
        <time>2026-08-05T11:47:39.000Z</time>
        <extensions>
          <ns3:TrackPointExtension>
            <ns3:hr>88</ns3:hr>
            <ns3:cad>0</ns3:cad>
          </ns3:TrackPointExtension>
        </extensions>
      </trkpt>
      <trkpt lat="43.46170744858682155609130859375" lon="1.4252601563930511474609375">
        <ele>160.8000030517578125</ele>
        <time>2026-08-05T11:47:40.000Z</time>
        <extensions>
          <ns3:TrackPointExtension>
            <ns3:hr>87</ns3:hr>
            <ns3:cad>0</ns3:cad>
          </ns3:TrackPointExtension>
        </extensions>
      </trkpt>
      <trkpt lat="43.46170744858682155609130859375" lon="1.4252601563930511474609375">
        <ele>160.8000030517578125</ele>
        <time>2026-08-05T11:47:41.000Z</time>
        <extensions>
          <ns3:TrackPointExtension>
            <ns3:hr>85</ns3:hr>
            <ns3:cad>0</ns3:cad>
          </ns3:TrackPointExtension>
        </extensions>
      </trkpt>
      <trkpt lat="43.46170744858682155609130859375" lon="1.4252601563930511474609375">
        <ele>160.600006103515625</ele>
        <time>2026-08-05T11:47:42.000Z</time>
        <extensions>
          <ns3:TrackPointExtension>
            <ns3:hr>81</ns3:hr>
            <ns3:cad>0</ns3:cad>
          </ns3:TrackPointExtension>
        </extensions>
      </trkpt>
      <trkpt lat="43.46170744858682155609130859375" lon="1.4252601563930511474609375">
        <ele>160.600006103515625</ele>
        <time>2026-08-05T11:47:43.000Z</time>
        <extensions>
          <ns3:TrackPointExtension>
            <ns3:hr>80</ns3:hr>
            <ns3:cad>0</ns3:cad>
          </ns3:TrackPointExtension>
        </extensions>
      </trkpt>
      <trkpt lat="43.46170744858682155609130859375" lon="1.4252601563930511474609375">
        <ele>160.600006103515625</ele>
        <time>2026-08-05T11:47:44.000Z</time>
        <extensions>
          <ns3:TrackPointExtension>
            <ns3:hr>78</ns3:hr>
            <ns3:cad>0</ns3:cad>
          </ns3:TrackPointExtension>
        </extensions>
      </trkpt>
      <trkpt lat="43.46170744858682155609130859375" lon="1.4252601563930511474609375">
        <ele>160.600006103515625</ele>
        <time>2026-08-05T11:47:45.000Z</time>
        <extensions>
          <ns3:TrackPointExtension>
            <ns3:hr>77</ns3:hr>
            <ns3:cad>0</ns3:cad>
          </ns3:TrackPointExtension>
        </extensions>
      </trkpt>
      <trkpt lat="43.46170744858682155609130859375" lon="1.4252601563930511474609375">
        <ele>160.600006103515625</ele>
        <time>2026-08-05T11:47:46.000Z</time>
        <extensions>
          <ns3:TrackPointExtension>
            <ns3:hr>78</ns3:hr>
            <ns3:cad>0</ns3:cad>
          </ns3:TrackPointExtension>
        </extensions>
      </trkpt>
      <trkpt lat="43.46170744858682155609130859375" lon="1.4252601563930511474609375">
        <ele>160.600006103515625</ele>
        <time>2026-08-05T11:47:47.000Z</time>
        <extensions>
          <ns3:TrackPointExtension>
            <ns3:hr>78</ns3:hr>
            <ns3:cad>0</ns3:cad>
          </ns3:TrackPointExtension>
        </extensions>
      </trkpt>
      <trkpt lat="43.46170744858682155609130859375" lon="1.4252601563930511474609375">
        <ele>160.600006103515625</ele>
        <time>2026-08-05T11:47:48.000Z</time>
        <extensions>
          <ns3:TrackPointExtension>
            <ns3:hr>79</ns3:hr>
            <ns3:cad>0</ns3:cad>
          </ns3:TrackPointExtension>
        </extensions>
      </trkpt>
      <trkpt lat="43.46170744858682155609130859375" lon="1.4252601563930511474609375">
        <ele>160.8000030517578125</ele>
        <time>2026-08-05T11:47:49.000Z</time>
        <extensions>
          <ns3:TrackPointExtension>
            <ns3:hr>79</ns3:hr>
            <ns3:cad>0</ns3:cad>
          </ns3:TrackPointExtension>
        </extensions>
      </trkpt>
      <trkpt lat="43.46170744858682155609130859375" lon="1.4252601563930511474609375">
        <ele>160.8000030517578125</ele>
        <time>2026-08-05T11:47:50.000Z</time>
        <extensions>
          <ns3:TrackPointExtension>
            <ns3:hr>79</ns3:hr>
            <ns3:cad>0</ns3:cad>
          </ns3:TrackPointExtension>
        </extensions>
      </trkpt>
      <trkpt lat="43.46170744858682155609130859375" lon="1.4252601563930511474609375">
        <ele>160.8000030517578125</ele>
        <time>2026-08-05T11:47:51.000Z</time>
        <extensions>
          <ns3:TrackPointExtension>
            <ns3:hr>79</ns3:hr>
            <ns3:cad>0</ns3:cad>
          </ns3:TrackPointExtension>
        </extensions>
      </trkpt>
      <trkpt lat="43.46170744858682155609130859375" lon="1.4252601563930511474609375">
        <ele>160.8000030517578125</ele>
        <time>2026-08-05T11:47:52.000Z</time>
        <extensions>
          <ns3:TrackPointExtension>
            <ns3:hr>79</ns3:hr>
            <ns3:cad>0</ns3:cad>
          </ns3:TrackPointExtension>
        </extensions>
      </trkpt>
      <trkpt lat="43.46170744858682155609130859375" lon="1.4252601563930511474609375">
        <ele>160.8000030517578125</ele>
        <time>2026-08-05T11:47:53.000Z</time>
        <extensions>
          <ns3:TrackPointExtension>
            <ns3:hr>79</ns3:hr>
            <ns3:cad>0</ns3:cad>
          </ns3:TrackPointExtension>
        </extensions>
      </trkpt>
      <trkpt lat="43.46170744858682155609130859375" lon="1.4252601563930511474609375">
        <ele>160.8000030517578125</ele>
        <time>2026-08-05T11:47:54.000Z</time>
        <extensions>
          <ns3:TrackPointExtension>
            <ns3:hr>80</ns3:hr>
            <ns3:cad>0</ns3:cad>
          </ns3:TrackPointExtension>
        </extensions>
      </trkpt>
      <trkpt lat="43.46170744858682155609130859375" lon="1.4252601563930511474609375">
        <ele>160.8000030517578125</ele>
        <time>2026-08-05T11:47:55.000Z</time>
        <extensions>
          <ns3:TrackPointExtension>
            <ns3:hr>79</ns3:hr>
            <ns3:cad>0</ns3:cad>
          </ns3:TrackPointExtension>
        </extensions>
      </trkpt>
      <trkpt lat="43.46170744858682155609130859375" lon="1.4252601563930511474609375">
        <ele>160.8000030517578125</ele>
        <time>2026-08-05T11:47:56.000Z</time>
        <extensions>
          <ns3:TrackPointExtension>
            <ns3:hr>79</ns3:hr>
            <ns3:cad>0</ns3:cad>
          </ns3:TrackPointExtension>
        </extensions>
      </trkpt>
      <trkpt lat="43.46170744858682155609130859375" lon="1.4252601563930511474609375">
        <ele>161</ele>
        <time>2026-08-05T11:47:57.000Z</time>
        <extensions>
          <ns3:TrackPointExtension>
            <ns3:hr>79</ns3:hr>
            <ns3:cad>0</ns3:cad>
          </ns3:TrackPointExtension>
        </extensions>
      </trkpt>
      <trkpt lat="43.46170744858682155609130859375" lon="1.4252601563930511474609375">
        <ele>161</ele>
        <time>2026-08-05T11:47:58.000Z</time>
        <extensions>
          <ns3:TrackPointExtension>
            <ns3:hr>79</ns3:hr>
            <ns3:cad>0</ns3:cad>
          </ns3:TrackPointExtension>
        </extensions>
      </trkpt>
      <trkpt lat="43.46170744858682155609130859375" lon="1.4252601563930511474609375">
        <ele>161</ele>
        <time>2026-08-05T11:47:59.000Z</time>
        <extensions>
          <ns3:TrackPointExtension>
            <ns3:hr>79</ns3:hr>
            <ns3:cad>0</ns3:cad>
          </ns3:TrackPointExtension>
        </extensions>
      </trkpt>
      <trkpt lat="43.46170744858682155609130859375" lon="1.4252601563930511474609375">
        <ele>161</ele>
        <time>2026-08-05T11:48:00.000Z</time>
        <extensions>
          <ns3:TrackPointExtension>
            <ns3:hr>79</ns3:hr>
            <ns3:cad>0</ns3:cad>
          </ns3:TrackPointExtension>
        </extensions>
      </trkpt>
      <trkpt lat="43.46170744858682155609130859375" lon="1.4252601563930511474609375">
        <ele>161</ele>
        <time>2026-08-05T11:48:01.000Z</time>
        <extensions>
          <ns3:TrackPointExtension>
            <ns3:hr>79</ns3:hr>
            <ns3:cad>0</ns3:cad>
          </ns3:TrackPointExtension>
        </extensions>
      </trkpt>
      <trkpt lat="43.46170744858682155609130859375" lon="1.4252601563930511474609375">
        <ele>161</ele>
        <time>2026-08-05T11:48:02.000Z</time>
        <extensions>
          <ns3:TrackPointExtension>
            <ns3:hr>79</ns3:hr>
            <ns3:cad>0</ns3:cad>
          </ns3:TrackPointExtension>
        </extensions>
      </trkpt>
      <trkpt lat="43.46170744858682155609130859375" lon="1.4252601563930511474609375">
        <ele>161</ele>
        <time>2026-08-05T11:48:03.000Z</time>
        <extensions>
          <ns3:TrackPointExtension>
            <ns3:hr>80</ns3:hr>
            <ns3:cad>0</ns3:cad>
          </ns3:TrackPointExtension>
        </extensions>
      </trkpt>
      <trkpt lat="43.46170744858682155609130859375" lon="1.4252601563930511474609375">
        <ele>161</ele>
        <time>2026-08-05T11:48:04.000Z</time>
        <extensions>
          <ns3:TrackPointExtension>
            <ns3:hr>80</ns3:hr>
            <ns3:cad>0</ns3:cad>
          </ns3:TrackPointExtension>
        </extensions>
      </trkpt>
      <trkpt lat="43.46170744858682155609130859375" lon="1.4252601563930511474609375">
        <ele>161</ele>
        <time>2026-08-05T11:48:05.000Z</time>
        <extensions>
          <ns3:TrackPointExtension>
            <ns3:hr>80</ns3:hr>
            <ns3:cad>0</ns3:cad>
          </ns3:TrackPointExtension>
        </extensions>
      </trkpt>
      <trkpt lat="43.46170744858682155609130859375" lon="1.4252601563930511474609375">
        <ele>161</ele>
        <time>2026-08-05T11:48:06.000Z</time>
        <extensions>
          <ns3:TrackPointExtension>
            <ns3:hr>78</ns3:hr>
            <ns3:cad>0</ns3:cad>
          </ns3:TrackPointExtension>
        </extensions>
      </trkpt>
      <trkpt lat="43.46170744858682155609130859375" lon="1.4252601563930511474609375">
        <ele>161</ele>
        <time>2026-08-05T11:48:07.000Z</time>
        <extensions>
          <ns3:TrackPointExtension>
            <ns3:hr>76</ns3:hr>
            <ns3:cad>0</ns3:cad>
          </ns3:TrackPointExtension>
        </extensions>
      </trkpt>
      <trkpt lat="43.46170744858682155609130859375" lon="1.4252601563930511474609375">
        <ele>161</ele>
        <time>2026-08-05T11:48:08.000Z</time>
        <extensions>
          <ns3:TrackPointExtension>
            <ns3:hr>76</ns3:hr>
            <ns3:cad>0</ns3:cad>
          </ns3:TrackPointExtension>
        </extensions>
      </trkpt>
      <trkpt lat="43.46170744858682155609130859375" lon="1.4252601563930511474609375">
        <ele>160.8000030517578125</ele>
        <time>2026-08-05T11:48:09.000Z</time>
        <extensions>
          <ns3:TrackPointExtension>
            <ns3:hr>75</ns3:hr>
            <ns3:cad>0</ns3:cad>
          </ns3:TrackPointExtension>
        </extensions>
      </trkpt>
      <trkpt lat="43.46170744858682155609130859375" lon="1.4252601563930511474609375">
        <ele>160.8000030517578125</ele>
        <time>2026-08-05T11:48:10.000Z</time>
        <extensions>
          <ns3:TrackPointExtension>
            <ns3:hr>76</ns3:hr>
            <ns3:cad>0</ns3:cad>
          </ns3:TrackPointExtension>
        </extensions>
      </trkpt>
      <trkpt lat="43.46170744858682155609130859375" lon="1.4252601563930511474609375">
        <ele>161</ele>
        <time>2026-08-05T11:48:11.000Z</time>
        <extensions>
          <ns3:TrackPointExtension>
            <ns3:hr>76</ns3:hr>
            <ns3:cad>0</ns3:cad>
          </ns3:TrackPointExtension>
        </extensions>
      </trkpt>
      <trkpt lat="43.46170744858682155609130859375" lon="1.4252601563930511474609375">
        <ele>161</ele>
        <time>2026-08-05T11:48:12.000Z</time>
        <extensions>
          <ns3:TrackPointExtension>
            <ns3:hr>76</ns3:hr>
            <ns3:cad>0</ns3:cad>
          </ns3:TrackPointExtension>
        </extensions>
      </trkpt>
      <trkpt lat="43.46170744858682155609130859375" lon="1.4252601563930511474609375">
        <ele>161</ele>
        <time>2026-08-05T11:48:13.000Z</time>
        <extensions>
          <ns3:TrackPointExtension>
            <ns3:hr>76</ns3:hr>
            <ns3:cad>0</ns3:cad>
          </ns3:TrackPointExtension>
        </extensions>
      </trkpt>
      <trkpt lat="43.46170744858682155609130859375" lon="1.4252601563930511474609375">
        <ele>161</ele>
        <time>2026-08-05T11:48:14.000Z</time>
        <extensions>
          <ns3:TrackPointExtension>
            <ns3:hr>77</ns3:hr>
            <ns3:cad>0</ns3:cad>
          </ns3:TrackPointExtension>
        </extensions>
      </trkpt>
      <trkpt lat="43.46170744858682155609130859375" lon="1.4252601563930511474609375">
        <ele>161</ele>
        <time>2026-08-05T11:48:15.000Z</time>
        <extensions>
          <ns3:TrackPointExtension>
            <ns3:hr>76</ns3:hr>
            <ns3:cad>0</ns3:cad>
          </ns3:TrackPointExtension>
        </extensions>
      </trkpt>
      <trkpt lat="43.46170744858682155609130859375" lon="1.4252601563930511474609375">
        <ele>160.8000030517578125</ele>
        <time>2026-08-05T11:48:16.000Z</time>
        <extensions>
          <ns3:TrackPointExtension>
            <ns3:hr>76</ns3:hr>
            <ns3:cad>0</ns3:cad>
          </ns3:TrackPointExtension>
        </extensions>
      </trkpt>
      <trkpt lat="43.46170744858682155609130859375" lon="1.4252601563930511474609375">
        <ele>161</ele>
        <time>2026-08-05T11:48:17.000Z</time>
        <extensions>
          <ns3:TrackPointExtension>
            <ns3:hr>76</ns3:hr>
            <ns3:cad>0</ns3:cad>
          </ns3:TrackPointExtension>
        </extensions>
      </trkpt>
      <trkpt lat="43.46170744858682155609130859375" lon="1.4252601563930511474609375">
        <ele>160.8000030517578125</ele>
        <time>2026-08-05T11:48:18.000Z</time>
        <extensions>
          <ns3:TrackPointExtension>
            <ns3:hr>77</ns3:hr>
            <ns3:cad>0</ns3:cad>
          </ns3:TrackPointExtension>
        </extensions>
      </trkpt>
      <trkpt lat="43.46170744858682155609130859375" lon="1.4252601563930511474609375">
        <ele>160.8000030517578125</ele>
        <time>2026-08-05T11:48:19.000Z</time>
        <extensions>
          <ns3:TrackPointExtension>
            <ns3:hr>76</ns3:hr>
            <ns3:cad>0</ns3:cad>
          </ns3:TrackPointExtension>
        </extensions>
      </trkpt>
      <trkpt lat="43.46170744858682155609130859375" lon="1.4252601563930511474609375">
        <ele>160.8000030517578125</ele>
        <time>2026-08-05T11:48:20.000Z</time>
        <extensions>
          <ns3:TrackPointExtension>
            <ns3:hr>77</ns3:hr>
            <ns3:cad>0</ns3:cad>
          </ns3:TrackPointExtension>
        </extensions>
      </trkpt>
      <trkpt lat="43.46170744858682155609130859375" lon="1.4252601563930511474609375">
        <ele>160.8000030517578125</ele>
        <time>2026-08-05T11:48:21.000Z</time>
        <extensions>
          <ns3:TrackPointExtension>
            <ns3:hr>78</ns3:hr>
            <ns3:cad>0</ns3:cad>
          </ns3:TrackPointExtension>
        </extensions>
      </trkpt>
      <trkpt lat="43.46170744858682155609130859375" lon="1.4252601563930511474609375">
        <ele>160.8000030517578125</ele>
        <time>2026-08-05T11:48:22.000Z</time>
        <extensions>
          <ns3:TrackPointExtension>
            <ns3:hr>78</ns3:hr>
            <ns3:cad>0</ns3:cad>
          </ns3:TrackPointExtension>
        </extensions>
      </trkpt>
      <trkpt lat="43.46170744858682155609130859375" lon="1.4252601563930511474609375">
        <ele>160.8000030517578125</ele>
        <time>2026-08-05T11:48:23.000Z</time>
        <extensions>
          <ns3:TrackPointExtension>
            <ns3:hr>78</ns3:hr>
            <ns3:cad>0</ns3:cad>
          </ns3:TrackPointExtension>
        </extensions>
      </trkpt>
      <trkpt lat="43.46170744858682155609130859375" lon="1.4252601563930511474609375">
        <ele>160.8000030517578125</ele>
        <time>2026-08-05T11:48:24.000Z</time>
        <extensions>
          <ns3:TrackPointExtension>
            <ns3:hr>78</ns3:hr>
            <ns3:cad>0</ns3:cad>
          </ns3:TrackPointExtension>
        </extensions>
      </trkpt>
      <trkpt lat="43.46170744858682155609130859375" lon="1.4252601563930511474609375">
        <ele>160.8000030517578125</ele>
        <time>2026-08-05T11:48:25.000Z</time>
        <extensions>
          <ns3:TrackPointExtension>
            <ns3:hr>76</ns3:hr>
            <ns3:cad>0</ns3:cad>
          </ns3:TrackPointExtension>
        </extensions>
      </trkpt>
      <trkpt lat="43.46170744858682155609130859375" lon="1.4252601563930511474609375">
        <ele>160.8000030517578125</ele>
        <time>2026-08-05T11:48:26.000Z</time>
        <extensions>
          <ns3:TrackPointExtension>
            <ns3:hr>75</ns3:hr>
            <ns3:cad>0</ns3:cad>
          </ns3:TrackPointExtension>
        </extensions>
      </trkpt>
      <trkpt lat="43.46170744858682155609130859375" lon="1.4252601563930511474609375">
        <ele>161</ele>
        <time>2026-08-05T11:48:27.000Z</time>
        <extensions>
          <ns3:TrackPointExtension>
            <ns3:hr>74</ns3:hr>
            <ns3:cad>0</ns3:cad>
          </ns3:TrackPointExtension>
        </extensions>
      </trkpt>
      <trkpt lat="43.46170744858682155609130859375" lon="1.4252601563930511474609375">
        <ele>160.8000030517578125</ele>
        <time>2026-08-05T11:48:28.000Z</time>
        <extensions>
          <ns3:TrackPointExtension>
            <ns3:hr>74</ns3:hr>
            <ns3:cad>0</ns3:cad>
          </ns3:TrackPointExtension>
        </extensions>
      </trkpt>
      <trkpt lat="43.46170744858682155609130859375" lon="1.4252601563930511474609375">
        <ele>160.8000030517578125</ele>
        <time>2026-08-05T11:48:29.000Z</time>
        <extensions>
          <ns3:TrackPointExtension>
            <ns3:hr>74</ns3:hr>
            <ns3:cad>0</ns3:cad>
          </ns3:TrackPointExtension>
        </extensions>
      </trkpt>
      <trkpt lat="43.46170744858682155609130859375" lon="1.4252601563930511474609375">
        <ele>160.8000030517578125</ele>
        <time>2026-08-05T11:48:30.000Z</time>
        <extensions>
          <ns3:TrackPointExtension>
            <ns3:hr>75</ns3:hr>
            <ns3:cad>0</ns3:cad>
          </ns3:TrackPointExtension>
        </extensions>
      </trkpt>
      <trkpt lat="43.46170744858682155609130859375" lon="1.4252601563930511474609375">
        <ele>160.8000030517578125</ele>
        <time>2026-08-05T11:48:31.000Z</time>
        <extensions>
          <ns3:TrackPointExtension>
            <ns3:hr>79</ns3:hr>
            <ns3:cad>0</ns3:cad>
          </ns3:TrackPointExtension>
        </extensions>
      </trkpt>
      <trkpt lat="43.46170744858682155609130859375" lon="1.4252601563930511474609375">
        <ele>161</ele>
        <time>2026-08-05T11:48:32.000Z</time>
        <extensions>
          <ns3:TrackPointExtension>
            <ns3:hr>82</ns3:hr>
            <ns3:cad>0</ns3:cad>
          </ns3:TrackPointExtension>
        </extensions>
      </trkpt>
      <trkpt lat="43.46170728094875812530517578125" lon="1.42526158131659030914306640625">
        <ele>161</ele>
        <time>2026-08-05T11:48:33.000Z</time>
        <extensions>
          <ns3:TrackPointExtension>
            <ns3:hr>83</ns3:hr>
            <ns3:cad>0</ns3:cad>
          </ns3:TrackPointExtension>
        </extensions>
      </trkpt>
      <trkpt lat="43.46170610748231410980224609375" lon="1.42526208423078060150146484375">
        <ele>161</ele>
        <time>2026-08-05T11:48:34.000Z</time>
        <extensions>
          <ns3:TrackPointExtension>
            <ns3:hr>84</ns3:hr>
            <ns3:cad>0</ns3:cad>
          </ns3:TrackPointExtension>
        </extensions>
      </trkpt>
      <trkpt lat="43.46170627512037754058837890625" lon="1.42526040785014629364013671875">
        <ele>161</ele>
        <time>2026-08-05T11:48:35.000Z</time>
        <extensions>
          <ns3:TrackPointExtension>
            <ns3:hr>84</ns3:hr>
            <ns3:cad>0</ns3:cad>
          </ns3:TrackPointExtension>
        </extensions>
      </trkpt>
      <trkpt lat="43.46170493401587009429931640625" lon="1.42526225186884403228759765625">
        <ele>161</ele>
        <time>2026-08-05T11:48:36.000Z</time>
        <extensions>
          <ns3:TrackPointExtension>
            <ns3:hr>83</ns3:hr>
            <ns3:cad>0</ns3:cad>
          </ns3:TrackPointExtension>
        </extensions>
      </trkpt>
      <trkpt lat="43.4617026709020137786865234375" lon="1.42526225186884403228759765625">
        <ele>161</ele>
        <time>2026-08-05T11:48:37.000Z</time>
        <extensions>
          <ns3:TrackPointExtension>
            <ns3:hr>83</ns3:hr>
            <ns3:cad>0</ns3:cad>
          </ns3:TrackPointExtension>
        </extensions>
      </trkpt>
      <trkpt lat="43.4617009945213794708251953125" lon="1.4252623356878757476806640625">
        <ele>161</ele>
        <time>2026-08-05T11:48:38.000Z</time>
        <extensions>
          <ns3:TrackPointExtension>
            <ns3:hr>82</ns3:hr>
            <ns3:cad>0</ns3:cad>
          </ns3:TrackPointExtension>
        </extensions>
      </trkpt>
      <trkpt lat="43.461697809398174285888671875" lon="1.4252616651356220245361328125">
        <ele>161</ele>
        <time>2026-08-05T11:48:39.000Z</time>
        <extensions>
          <ns3:TrackPointExtension>
            <ns3:hr>82</ns3:hr>
            <ns3:cad>0</ns3:cad>
          </ns3:TrackPointExtension>
        </extensions>
      </trkpt>
      <trkpt lat="43.4616963006556034088134765625" lon="1.4252579770982265472412109375">
        <ele>161</ele>
        <time>2026-08-05T11:48:40.000Z</time>
        <extensions>
          <ns3:TrackPointExtension>
            <ns3:hr>82</ns3:hr>
            <ns3:cad>0</ns3:cad>
          </ns3:TrackPointExtension>
        </extensions>
      </trkpt>
      <trkpt lat="43.46169604919850826263427734375" lon="1.42525437287986278533935546875">
        <ele>161</ele>
        <time>2026-08-05T11:48:41.000Z</time>
        <extensions>
          <ns3:TrackPointExtension>
            <ns3:hr>82</ns3:hr>
            <ns3:cad>0</ns3:cad>
          </ns3:TrackPointExtension>
        </extensions>
      </trkpt>
      <trkpt lat="43.46169504337012767791748046875" lon="1.42525185830891132354736328125">
        <ele>161</ele>
        <time>2026-08-05T11:48:42.000Z</time>
        <extensions>
          <ns3:TrackPointExtension>
            <ns3:hr>83</ns3:hr>
            <ns3:cad>0</ns3:cad>
          </ns3:TrackPointExtension>
        </extensions>
      </trkpt>
      <trkpt lat="43.4616954624652862548828125" lon="1.425248086452484130859375">
        <ele>161</ele>
        <time>2026-08-05T11:48:43.000Z</time>
        <extensions>
          <ns3:TrackPointExtension>
            <ns3:hr>82</ns3:hr>
            <ns3:cad>0</ns3:cad>
          </ns3:TrackPointExtension>
        </extensions>
      </trkpt>
      <trkpt lat="43.4616954624652862548828125" lon="1.42524817027151584625244140625">
        <ele>161</ele>
        <time>2026-08-05T11:48:44.000Z</time>
        <extensions>
          <ns3:TrackPointExtension>
            <ns3:hr>81</ns3:hr>
            <ns3:cad>0</ns3:cad>
          </ns3:TrackPointExtension>
        </extensions>
      </trkpt>
      <trkpt lat="43.4616954624652862548828125" lon="1.42524817027151584625244140625">
        <ele>161</ele>
        <time>2026-08-05T11:48:45.000Z</time>
        <extensions>
          <ns3:TrackPointExtension>
            <ns3:hr>81</ns3:hr>
            <ns3:cad>0</ns3:cad>
          </ns3:TrackPointExtension>
        </extensions>
      </trkpt>
      <trkpt lat="43.4616954624652862548828125" lon="1.42524817027151584625244140625">
        <ele>161</ele>
        <time>2026-08-05T11:48:46.000Z</time>
        <extensions>
          <ns3:TrackPointExtension>
            <ns3:hr>81</ns3:hr>
            <ns3:cad>0</ns3:cad>
          </ns3:TrackPointExtension>
        </extensions>
      </trkpt>
      <trkpt lat="43.4616954624652862548828125" lon="1.42524817027151584625244140625">
        <ele>161</ele>
        <time>2026-08-05T11:48:47.000Z</time>
        <extensions>
          <ns3:TrackPointExtension>
            <ns3:hr>82</ns3:hr>
            <ns3:cad>0</ns3:cad>
          </ns3:TrackPointExtension>
        </extensions>
      </trkpt>
      <trkpt lat="43.4616954624652862548828125" lon="1.42524817027151584625244140625">
        <ele>160.8000030517578125</ele>
        <time>2026-08-05T11:48:48.000Z</time>
        <extensions>
          <ns3:TrackPointExtension>
            <ns3:hr>81</ns3:hr>
            <ns3:cad>0</ns3:cad>
          </ns3:TrackPointExtension>
        </extensions>
      </trkpt>
      <trkpt lat="43.4616954624652862548828125" lon="1.42524817027151584625244140625">
        <ele>160.8000030517578125</ele>
        <time>2026-08-05T11:48:49.000Z</time>
        <extensions>
          <ns3:TrackPointExtension>
            <ns3:hr>81</ns3:hr>
            <ns3:cad>0</ns3:cad>
          </ns3:TrackPointExtension>
        </extensions>
      </trkpt>
      <trkpt lat="43.4616954624652862548828125" lon="1.42524817027151584625244140625">
        <ele>160.8000030517578125</ele>
        <time>2026-08-05T11:48:50.000Z</time>
        <extensions>
          <ns3:TrackPointExtension>
            <ns3:hr>81</ns3:hr>
            <ns3:cad>0</ns3:cad>
          </ns3:TrackPointExtension>
        </extensions>
      </trkpt>
      <trkpt lat="43.4616954624652862548828125" lon="1.42524817027151584625244140625">
        <ele>161</ele>
        <time>2026-08-05T11:48:51.000Z</time>
        <extensions>
          <ns3:TrackPointExtension>
            <ns3:hr>82</ns3:hr>
            <ns3:cad>0</ns3:cad>
          </ns3:TrackPointExtension>
        </extensions>
      </trkpt>
      <trkpt lat="43.4616954624652862548828125" lon="1.42524817027151584625244140625">
        <ele>161</ele>
        <time>2026-08-05T11:48:52.000Z</time>
        <extensions>
          <ns3:TrackPointExtension>
            <ns3:hr>82</ns3:hr>
            <ns3:cad>0</ns3:cad>
          </ns3:TrackPointExtension>
        </extensions>
      </trkpt>
      <trkpt lat="43.4616954624652862548828125" lon="1.42524817027151584625244140625">
        <ele>161</ele>
        <time>2026-08-05T11:48:53.000Z</time>
        <extensions>
          <ns3:TrackPointExtension>
            <ns3:hr>82</ns3:hr>
            <ns3:cad>0</ns3:cad>
          </ns3:TrackPointExtension>
        </extensions>
      </trkpt>
      <trkpt lat="43.4616954624652862548828125" lon="1.42524817027151584625244140625">
        <ele>161</ele>
        <time>2026-08-05T11:48:54.000Z</time>
        <extensions>
          <ns3:TrackPointExtension>
            <ns3:hr>82</ns3:hr>
            <ns3:cad>0</ns3:cad>
          </ns3:TrackPointExtension>
        </extensions>
      </trkpt>
      <trkpt lat="43.4616954624652862548828125" lon="1.42524817027151584625244140625">
        <ele>161</ele>
        <time>2026-08-05T11:48:55.000Z</time>
        <extensions>
          <ns3:TrackPointExtension>
            <ns3:hr>82</ns3:hr>
            <ns3:cad>0</ns3:cad>
          </ns3:TrackPointExtension>
        </extensions>
      </trkpt>
      <trkpt lat="43.4616954624652862548828125" lon="1.42524817027151584625244140625">
        <ele>161</ele>
        <time>2026-08-05T11:48:56.000Z</time>
        <extensions>
          <ns3:TrackPointExtension>
            <ns3:hr>83</ns3:hr>
            <ns3:cad>0</ns3:cad>
          </ns3:TrackPointExtension>
        </extensions>
      </trkpt>
      <trkpt lat="43.4616954624652862548828125" lon="1.42524817027151584625244140625">
        <ele>161</ele>
        <time>2026-08-05T11:48:57.000Z</time>
        <extensions>
          <ns3:TrackPointExtension>
            <ns3:hr>82</ns3:hr>
            <ns3:cad>0</ns3:cad>
          </ns3:TrackPointExtension>
        </extensions>
      </trkpt>
      <trkpt lat="43.4616954624652862548828125" lon="1.42524817027151584625244140625">
        <ele>161</ele>
        <time>2026-08-05T11:48:58.000Z</time>
        <extensions>
          <ns3:TrackPointExtension>
            <ns3:hr>82</ns3:hr>
            <ns3:cad>0</ns3:cad>
          </ns3:TrackPointExtension>
        </extensions>
      </trkpt>
      <trkpt lat="43.4616954624652862548828125" lon="1.42524817027151584625244140625">
        <ele>161</ele>
        <time>2026-08-05T11:48:59.000Z</time>
        <extensions>
          <ns3:TrackPointExtension>
            <ns3:hr>83</ns3:hr>
            <ns3:cad>0</ns3:cad>
          </ns3:TrackPointExtension>
        </extensions>
      </trkpt>
      <trkpt lat="43.4616954624652862548828125" lon="1.42524817027151584625244140625">
        <ele>161</ele>
        <time>2026-08-05T11:49:00.000Z</time>
        <extensions>
          <ns3:TrackPointExtension>
            <ns3:hr>82</ns3:hr>
            <ns3:cad>0</ns3:cad>
          </ns3:TrackPointExtension>
        </extensions>
      </trkpt>
      <trkpt lat="43.4616954624652862548828125" lon="1.42524817027151584625244140625">
        <ele>161.1999969482421875</ele>
        <time>2026-08-05T11:49:01.000Z</time>
        <extensions>
          <ns3:TrackPointExtension>
            <ns3:hr>82</ns3:hr>
            <ns3:cad>0</ns3:cad>
          </ns3:TrackPointExtension>
        </extensions>
      </trkpt>
      <trkpt lat="43.4616954624652862548828125" lon="1.42524817027151584625244140625">
        <ele>161.1999969482421875</ele>
        <time>2026-08-05T11:49:02.000Z</time>
        <extensions>
          <ns3:TrackPointExtension>
            <ns3:hr>83</ns3:hr>
            <ns3:cad>0</ns3:cad>
          </ns3:TrackPointExtension>
        </extensions>
      </trkpt>
      <trkpt lat="43.4616954624652862548828125" lon="1.42524817027151584625244140625">
        <ele>161.1999969482421875</ele>
        <time>2026-08-05T11:49:03.000Z</time>
        <extensions>
          <ns3:TrackPointExtension>
            <ns3:hr>82</ns3:hr>
            <ns3:cad>0</ns3:cad>
          </ns3:TrackPointExtension>
        </extensions>
      </trkpt>
      <trkpt lat="43.4616954624652862548828125" lon="1.42524817027151584625244140625">
        <ele>161.1999969482421875</ele>
        <time>2026-08-05T11:49:04.000Z</time>
        <extensions>
          <ns3:TrackPointExtension>
            <ns3:hr>82</ns3:hr>
            <ns3:cad>0</ns3:cad>
          </ns3:TrackPointExtension>
        </extensions>
      </trkpt>
      <trkpt lat="43.4616954624652862548828125" lon="1.42524817027151584625244140625">
        <ele>161.1999969482421875</ele>
        <time>2026-08-05T11:49:05.000Z</time>
        <extensions>
          <ns3:TrackPointExtension>
            <ns3:hr>83</ns3:hr>
            <ns3:cad>0</ns3:cad>
          </ns3:TrackPointExtension>
        </extensions>
      </trkpt>
      <trkpt lat="43.4616954624652862548828125" lon="1.42524817027151584625244140625">
        <ele>161.1999969482421875</ele>
        <time>2026-08-05T11:49:06.000Z</time>
        <extensions>
          <ns3:TrackPointExtension>
            <ns3:hr>82</ns3:hr>
            <ns3:cad>0</ns3:cad>
          </ns3:TrackPointExtension>
        </extensions>
      </trkpt>
      <trkpt lat="43.4616954624652862548828125" lon="1.42524817027151584625244140625">
        <ele>161.1999969482421875</ele>
        <time>2026-08-05T11:49:07.000Z</time>
        <extensions>
          <ns3:TrackPointExtension>
            <ns3:hr>83</ns3:hr>
            <ns3:cad>0</ns3:cad>
          </ns3:TrackPointExtension>
        </extensions>
      </trkpt>
      <trkpt lat="43.4616954624652862548828125" lon="1.42524817027151584625244140625">
        <ele>161.1999969482421875</ele>
        <time>2026-08-05T11:49:08.000Z</time>
        <extensions>
          <ns3:TrackPointExtension>
            <ns3:hr>83</ns3:hr>
            <ns3:cad>0</ns3:cad>
          </ns3:TrackPointExtension>
        </extensions>
      </trkpt>
      <trkpt lat="43.4616954624652862548828125" lon="1.42524817027151584625244140625">
        <ele>161.1999969482421875</ele>
        <time>2026-08-05T11:49:09.000Z</time>
        <extensions>
          <ns3:TrackPointExtension>
            <ns3:hr>83</ns3:hr>
            <ns3:cad>0</ns3:cad>
          </ns3:TrackPointExtension>
        </extensions>
      </trkpt>
      <trkpt lat="43.4616954624652862548828125" lon="1.42524817027151584625244140625">
        <ele>161.1999969482421875</ele>
        <time>2026-08-05T11:49:10.000Z</time>
        <extensions>
          <ns3:TrackPointExtension>
            <ns3:hr>83</ns3:hr>
            <ns3:cad>0</ns3:cad>
          </ns3:TrackPointExtension>
        </extensions>
      </trkpt>
      <trkpt lat="43.4616954624652862548828125" lon="1.42524817027151584625244140625">
        <ele>161.1999969482421875</ele>
        <time>2026-08-05T11:49:11.000Z</time>
        <extensions>
          <ns3:TrackPointExtension>
            <ns3:hr>83</ns3:hr>
            <ns3:cad>0</ns3:cad>
          </ns3:TrackPointExtension>
        </extensions>
      </trkpt>
      <trkpt lat="43.4616954624652862548828125" lon="1.42524817027151584625244140625">
        <ele>161.1999969482421875</ele>
        <time>2026-08-05T11:49:12.000Z</time>
        <extensions>
          <ns3:TrackPointExtension>
            <ns3:hr>84</ns3:hr>
            <ns3:cad>0</ns3:cad>
          </ns3:TrackPointExtension>
        </extensions>
      </trkpt>
      <trkpt lat="43.4616954624652862548828125" lon="1.42524817027151584625244140625">
        <ele>161.1999969482421875</ele>
        <time>2026-08-05T11:49:13.000Z</time>
        <extensions>
          <ns3:TrackPointExtension>
            <ns3:hr>83</ns3:hr>
            <ns3:cad>0</ns3:cad>
          </ns3:TrackPointExtension>
        </extensions>
      </trkpt>
      <trkpt lat="43.4616954624652862548828125" lon="1.42524817027151584625244140625">
        <ele>161.1999969482421875</ele>
        <time>2026-08-05T11:49:14.000Z</time>
        <extensions>
          <ns3:TrackPointExtension>
            <ns3:hr>84</ns3:hr>
            <ns3:cad>0</ns3:cad>
          </ns3:TrackPointExtension>
        </extensions>
      </trkpt>
      <trkpt lat="43.4616954624652862548828125" lon="1.42524817027151584625244140625">
        <ele>161.1999969482421875</ele>
        <time>2026-08-05T11:49:15.000Z</time>
        <extensions>
          <ns3:TrackPointExtension>
            <ns3:hr>84</ns3:hr>
            <ns3:cad>0</ns3:cad>
          </ns3:TrackPointExtension>
        </extensions>
      </trkpt>
      <trkpt lat="43.4616954624652862548828125" lon="1.42524817027151584625244140625">
        <ele>161.1999969482421875</ele>
        <time>2026-08-05T11:49:16.000Z</time>
        <extensions>
          <ns3:TrackPointExtension>
            <ns3:hr>83</ns3:hr>
            <ns3:cad>0</ns3:cad>
          </ns3:TrackPointExtension>
        </extensions>
      </trkpt>
      <trkpt lat="43.4616954624652862548828125" lon="1.42524817027151584625244140625">
        <ele>161.1999969482421875</ele>
        <time>2026-08-05T11:49:17.000Z</time>
        <extensions>
          <ns3:TrackPointExtension>
            <ns3:hr>83</ns3:hr>
            <ns3:cad>0</ns3:cad>
          </ns3:TrackPointExtension>
        </extensions>
      </trkpt>
      <trkpt lat="43.4616954624652862548828125" lon="1.42524817027151584625244140625">
        <ele>161.1999969482421875</ele>
        <time>2026-08-05T11:49:18.000Z</time>
        <extensions>
          <ns3:TrackPointExtension>
            <ns3:hr>82</ns3:hr>
            <ns3:cad>0</ns3:cad>
          </ns3:TrackPointExtension>
        </extensions>
      </trkpt>
      <trkpt lat="43.4616954624652862548828125" lon="1.42524817027151584625244140625">
        <ele>161.1999969482421875</ele>
        <time>2026-08-05T11:49:19.000Z</time>
        <extensions>
          <ns3:TrackPointExtension>
            <ns3:hr>80</ns3:hr>
            <ns3:cad>0</ns3:cad>
          </ns3:TrackPointExtension>
        </extensions>
      </trkpt>
      <trkpt lat="43.4616954624652862548828125" lon="1.42524817027151584625244140625">
        <ele>161.1999969482421875</ele>
        <time>2026-08-05T11:49:20.000Z</time>
        <extensions>
          <ns3:TrackPointExtension>
            <ns3:hr>79</ns3:hr>
            <ns3:cad>0</ns3:cad>
          </ns3:TrackPointExtension>
        </extensions>
      </trkpt>
      <trkpt lat="43.4616954624652862548828125" lon="1.42524817027151584625244140625">
        <ele>161.1999969482421875</ele>
        <time>2026-08-05T11:49:21.000Z</time>
        <extensions>
          <ns3:TrackPointExtension>
            <ns3:hr>78</ns3:hr>
            <ns3:cad>0</ns3:cad>
          </ns3:TrackPointExtension>
        </extensions>
      </trkpt>
      <trkpt lat="43.4616954624652862548828125" lon="1.42524817027151584625244140625">
        <ele>161.1999969482421875</ele>
        <time>2026-08-05T11:49:22.000Z</time>
        <extensions>
          <ns3:TrackPointExtension>
            <ns3:hr>78</ns3:hr>
            <ns3:cad>0</ns3:cad>
          </ns3:TrackPointExtension>
        </extensions>
      </trkpt>
      <trkpt lat="43.4616954624652862548828125" lon="1.42524817027151584625244140625">
        <ele>161.1999969482421875</ele>
        <time>2026-08-05T11:49:23.000Z</time>
        <extensions>
          <ns3:TrackPointExtension>
            <ns3:hr>79</ns3:hr>
            <ns3:cad>0</ns3:cad>
          </ns3:TrackPointExtension>
        </extensions>
      </trkpt>
      <trkpt lat="43.4616954624652862548828125" lon="1.42524817027151584625244140625">
        <ele>161.1999969482421875</ele>
        <time>2026-08-05T11:49:24.000Z</time>
        <extensions>
          <ns3:TrackPointExtension>
            <ns3:hr>81</ns3:hr>
            <ns3:cad>0</ns3:cad>
          </ns3:TrackPointExtension>
        </extensions>
      </trkpt>
      <trkpt lat="43.4616954624652862548828125" lon="1.42524817027151584625244140625">
        <ele>161.1999969482421875</ele>
        <time>2026-08-05T11:49:25.000Z</time>
        <extensions>
          <ns3:TrackPointExtension>
            <ns3:hr>82</ns3:hr>
            <ns3:cad>0</ns3:cad>
          </ns3:TrackPointExtension>
        </extensions>
      </trkpt>
      <trkpt lat="43.4616954624652862548828125" lon="1.42524817027151584625244140625">
        <ele>161.1999969482421875</ele>
        <time>2026-08-05T11:49:26.000Z</time>
        <extensions>
          <ns3:TrackPointExtension>
            <ns3:hr>82</ns3:hr>
            <ns3:cad>0</ns3:cad>
          </ns3:TrackPointExtension>
        </extensions>
      </trkpt>
      <trkpt lat="43.4616954624652862548828125" lon="1.42524817027151584625244140625">
        <ele>161.1999969482421875</ele>
        <time>2026-08-05T11:49:27.000Z</time>
        <extensions>
          <ns3:TrackPointExtension>
            <ns3:hr>83</ns3:hr>
            <ns3:cad>0</ns3:cad>
          </ns3:TrackPointExtension>
        </extensions>
      </trkpt>
      <trkpt lat="43.4616954624652862548828125" lon="1.42524817027151584625244140625">
        <ele>161.1999969482421875</ele>
        <time>2026-08-05T11:49:28.000Z</time>
        <extensions>
          <ns3:TrackPointExtension>
            <ns3:hr>83</ns3:hr>
            <ns3:cad>0</ns3:cad>
          </ns3:TrackPointExtension>
        </extensions>
      </trkpt>
      <trkpt lat="43.4616954624652862548828125" lon="1.42524817027151584625244140625">
        <ele>161.1999969482421875</ele>
        <time>2026-08-05T11:49:29.000Z</time>
        <extensions>
          <ns3:TrackPointExtension>
            <ns3:hr>83</ns3:hr>
            <ns3:cad>0</ns3:cad>
          </ns3:TrackPointExtension>
        </extensions>
      </trkpt>
      <trkpt lat="43.4616954624652862548828125" lon="1.42524817027151584625244140625">
        <ele>161</ele>
        <time>2026-08-05T11:49:30.000Z</time>
        <extensions>
          <ns3:TrackPointExtension>
            <ns3:hr>83</ns3:hr>
            <ns3:cad>0</ns3:cad>
          </ns3:TrackPointExtension>
        </extensions>
      </trkpt>
      <trkpt lat="43.4616954624652862548828125" lon="1.42524817027151584625244140625">
        <ele>161.1999969482421875</ele>
        <time>2026-08-05T11:49:31.000Z</time>
        <extensions>
          <ns3:TrackPointExtension>
            <ns3:hr>83</ns3:hr>
            <ns3:cad>0</ns3:cad>
          </ns3:TrackPointExtension>
        </extensions>
      </trkpt>
      <trkpt lat="43.4616954624652862548828125" lon="1.42524817027151584625244140625">
        <ele>161.1999969482421875</ele>
        <time>2026-08-05T11:49:32.000Z</time>
        <extensions>
          <ns3:TrackPointExtension>
            <ns3:hr>82</ns3:hr>
            <ns3:cad>0</ns3:cad>
          </ns3:TrackPointExtension>
        </extensions>
      </trkpt>
      <trkpt lat="43.4616954624652862548828125" lon="1.42524817027151584625244140625">
        <ele>161.1999969482421875</ele>
        <time>2026-08-05T11:49:33.000Z</time>
        <extensions>
          <ns3:TrackPointExtension>
            <ns3:hr>82</ns3:hr>
            <ns3:cad>0</ns3:cad>
          </ns3:TrackPointExtension>
        </extensions>
      </trkpt>
      <trkpt lat="43.4616954624652862548828125" lon="1.42524817027151584625244140625">
        <ele>161.1999969482421875</ele>
        <time>2026-08-05T11:49:34.000Z</time>
        <extensions>
          <ns3:TrackPointExtension>
            <ns3:hr>82</ns3:hr>
            <ns3:cad>0</ns3:cad>
          </ns3:TrackPointExtension>
        </extensions>
      </trkpt>
      <trkpt lat="43.4616954624652862548828125" lon="1.42524817027151584625244140625">
        <ele>161.1999969482421875</ele>
        <time>2026-08-05T11:49:35.000Z</time>
        <extensions>
          <ns3:TrackPointExtension>
            <ns3:hr>83</ns3:hr>
            <ns3:cad>0</ns3:cad>
          </ns3:TrackPointExtension>
        </extensions>
      </trkpt>
      <trkpt lat="43.4616954624652862548828125" lon="1.42524817027151584625244140625">
        <ele>161.1999969482421875</ele>
        <time>2026-08-05T11:49:36.000Z</time>
        <extensions>
          <ns3:TrackPointExtension>
            <ns3:hr>83</ns3:hr>
            <ns3:cad>0</ns3:cad>
          </ns3:TrackPointExtension>
        </extensions>
      </trkpt>
      <trkpt lat="43.4616954624652862548828125" lon="1.42524817027151584625244140625">
        <ele>161.1999969482421875</ele>
        <time>2026-08-05T11:49:37.000Z</time>
        <extensions>
          <ns3:TrackPointExtension>
            <ns3:hr>83</ns3:hr>
            <ns3:cad>0</ns3:cad>
          </ns3:TrackPointExtension>
        </extensions>
      </trkpt>
      <trkpt lat="43.4616954624652862548828125" lon="1.42524817027151584625244140625">
        <ele>161.1999969482421875</ele>
        <time>2026-08-05T11:49:38.000Z</time>
        <extensions>
          <ns3:TrackPointExtension>
            <ns3:hr>83</ns3:hr>
            <ns3:cad>0</ns3:cad>
          </ns3:TrackPointExtension>
        </extensions>
      </trkpt>
      <trkpt lat="43.4616954624652862548828125" lon="1.42524817027151584625244140625">
        <ele>161.1999969482421875</ele>
        <time>2026-08-05T11:49:39.000Z</time>
        <extensions>
          <ns3:TrackPointExtension>
            <ns3:hr>83</ns3:hr>
            <ns3:cad>0</ns3:cad>
          </ns3:TrackPointExtension>
        </extensions>
      </trkpt>
      <trkpt lat="43.4616954624652862548828125" lon="1.42524817027151584625244140625">
        <ele>161.1999969482421875</ele>
        <time>2026-08-05T11:49:40.000Z</time>
        <extensions>
          <ns3:TrackPointExtension>
            <ns3:hr>83</ns3:hr>
            <ns3:cad>0</ns3:cad>
          </ns3:TrackPointExtension>
        </extensions>
      </trkpt>
      <trkpt lat="43.4616954624652862548828125" lon="1.42524817027151584625244140625">
        <ele>161.1999969482421875</ele>
        <time>2026-08-05T11:49:41.000Z</time>
        <extensions>
          <ns3:TrackPointExtension>
            <ns3:hr>83</ns3:hr>
            <ns3:cad>0</ns3:cad>
          </ns3:TrackPointExtension>
        </extensions>
      </trkpt>
      <trkpt lat="43.4616954624652862548828125" lon="1.42524817027151584625244140625">
        <ele>161.1999969482421875</ele>
        <time>2026-08-05T11:49:42.000Z</time>
        <extensions>
          <ns3:TrackPointExtension>
            <ns3:hr>83</ns3:hr>
            <ns3:cad>0</ns3:cad>
          </ns3:TrackPointExtension>
        </extensions>
      </trkpt>
      <trkpt lat="43.4616954624652862548828125" lon="1.42524817027151584625244140625">
        <ele>161.1999969482421875</ele>
        <time>2026-08-05T11:49:43.000Z</time>
        <extensions>
          <ns3:TrackPointExtension>
            <ns3:hr>82</ns3:hr>
            <ns3:cad>0</ns3:cad>
          </ns3:TrackPointExtension>
        </extensions>
      </trkpt>
      <trkpt lat="43.4616954624652862548828125" lon="1.42524817027151584625244140625">
        <ele>161.1999969482421875</ele>
        <time>2026-08-05T11:49:44.000Z</time>
        <extensions>
          <ns3:TrackPointExtension>
            <ns3:hr>81</ns3:hr>
            <ns3:cad>0</ns3:cad>
          </ns3:TrackPointExtension>
        </extensions>
      </trkpt>
      <trkpt lat="43.4616954624652862548828125" lon="1.42524817027151584625244140625">
        <ele>161.1999969482421875</ele>
        <time>2026-08-05T11:49:45.000Z</time>
        <extensions>
          <ns3:TrackPointExtension>
            <ns3:hr>81</ns3:hr>
            <ns3:cad>0</ns3:cad>
          </ns3:TrackPointExtension>
        </extensions>
      </trkpt>
      <trkpt lat="43.4616954624652862548828125" lon="1.42524817027151584625244140625">
        <ele>161.1999969482421875</ele>
        <time>2026-08-05T11:49:46.000Z</time>
        <extensions>
          <ns3:TrackPointExtension>
            <ns3:hr>81</ns3:hr>
            <ns3:cad>0</ns3:cad>
          </ns3:TrackPointExtension>
        </extensions>
      </trkpt>
      <trkpt lat="43.461701162159442901611328125" lon="1.42525412142276763916015625">
        <ele>161.1999969482421875</ele>
        <time>2026-08-05T11:49:47.000Z</time>
        <extensions>
          <ns3:TrackPointExtension>
            <ns3:hr>81</ns3:hr>
            <ns3:cad>0</ns3:cad>
          </ns3:TrackPointExtension>
        </extensions>
      </trkpt>
      <trkpt lat="43.46170510165393352508544921875" lon="1.42525638453662395477294921875">
        <ele>161.1999969482421875</ele>
        <time>2026-08-05T11:49:48.000Z</time>
        <extensions>
          <ns3:TrackPointExtension>
            <ns3:hr>81</ns3:hr>
            <ns3:cad>0</ns3:cad>
          </ns3:TrackPointExtension>
        </extensions>
      </trkpt>
      <trkpt lat="43.461707867681980133056640625" lon="1.425259150564670562744140625">
        <ele>161</ele>
        <time>2026-08-05T11:49:49.000Z</time>
        <extensions>
          <ns3:TrackPointExtension>
            <ns3:hr>82</ns3:hr>
            <ns3:cad>0</ns3:cad>
          </ns3:TrackPointExtension>
        </extensions>
      </trkpt>
      <trkpt lat="43.46171063371002674102783203125" lon="1.425259821116924285888671875">
        <ele>161</ele>
        <time>2026-08-05T11:49:50.000Z</time>
        <extensions>
          <ns3:TrackPointExtension>
            <ns3:hr>81</ns3:hr>
            <ns3:cad>0</ns3:cad>
          </ns3:TrackPointExtension>
        </extensions>
      </trkpt>
      <trkpt lat="43.46171432174742221832275390625" lon="1.42526325769722461700439453125">
        <ele>161</ele>
        <time>2026-08-05T11:49:51.000Z</time>
        <extensions>
          <ns3:TrackPointExtension>
            <ns3:hr>81</ns3:hr>
            <ns3:cad>0</ns3:cad>
          </ns3:TrackPointExtension>
        </extensions>
      </trkpt>
      <trkpt lat="43.46171415410935878753662109375" lon="1.4252633415162563323974609375">
        <ele>161</ele>
        <time>2026-08-05T11:49:52.000Z</time>
        <extensions>
          <ns3:TrackPointExtension>
            <ns3:hr>80</ns3:hr>
            <ns3:cad>0</ns3:cad>
          </ns3:TrackPointExtension>
        </extensions>
      </trkpt>
      <trkpt lat="43.46171415410935878753662109375" lon="1.4252633415162563323974609375">
        <ele>161</ele>
        <time>2026-08-05T11:49:53.000Z</time>
        <extensions>
          <ns3:TrackPointExtension>
            <ns3:hr>80</ns3:hr>
            <ns3:cad>0</ns3:cad>
          </ns3:TrackPointExtension>
        </extensions>
      </trkpt>
      <trkpt lat="43.46171415410935878753662109375" lon="1.4252633415162563323974609375">
        <ele>161</ele>
        <time>2026-08-05T11:49:54.000Z</time>
        <extensions>
          <ns3:TrackPointExtension>
            <ns3:hr>80</ns3:hr>
            <ns3:cad>0</ns3:cad>
          </ns3:TrackPointExtension>
        </extensions>
      </trkpt>
      <trkpt lat="43.46171482466161251068115234375" lon="1.42526342533528804779052734375">
        <ele>161</ele>
        <time>2026-08-05T11:49:55.000Z</time>
        <extensions>
          <ns3:TrackPointExtension>
            <ns3:hr>79</ns3:hr>
            <ns3:cad>0</ns3:cad>
          </ns3:TrackPointExtension>
        </extensions>
      </trkpt>
      <trkpt lat="43.4617167524993419647216796875" lon="1.4252713881433010101318359375">
        <ele>161</ele>
        <time>2026-08-05T11:49:56.000Z</time>
        <extensions>
          <ns3:TrackPointExtension>
            <ns3:hr>80</ns3:hr>
            <ns3:cad>0</ns3:cad>
          </ns3:TrackPointExtension>
        </extensions>
      </trkpt>
      <trkpt lat="43.46171817742288112640380859375" lon="1.4252811111509799957275390625">
        <ele>161</ele>
        <time>2026-08-05T11:49:57.000Z</time>
        <extensions>
          <ns3:TrackPointExtension>
            <ns3:hr>80</ns3:hr>
            <ns3:cad>0</ns3:cad>
          </ns3:TrackPointExtension>
        </extensions>
      </trkpt>
      <trkpt lat="43.461720943450927734375" lon="1.42529041506350040435791015625">
        <ele>161</ele>
        <time>2026-08-05T11:49:58.000Z</time>
        <extensions>
          <ns3:TrackPointExtension>
            <ns3:hr>79</ns3:hr>
            <ns3:cad>0</ns3:cad>
          </ns3:TrackPointExtension>
        </extensions>
      </trkpt>
      <trkpt lat="43.46172085963189601898193359375" lon="1.42529846169054508209228515625">
        <ele>161</ele>
        <time>2026-08-05T11:49:59.000Z</time>
        <extensions>
          <ns3:TrackPointExtension>
            <ns3:hr>79</ns3:hr>
            <ns3:cad>0</ns3:cad>
          </ns3:TrackPointExtension>
        </extensions>
      </trkpt>
      <trkpt lat="43.4617217816412448883056640625" lon="1.42530617304146289825439453125">
        <ele>161</ele>
        <time>2026-08-05T11:50:00.000Z</time>
        <extensions>
          <ns3:TrackPointExtension>
            <ns3:hr>79</ns3:hr>
            <ns3:cad>0</ns3:cad>
          </ns3:TrackPointExtension>
        </extensions>
      </trkpt>
      <trkpt lat="43.46172161400318145751953125" lon="1.425315476953983306884765625">
        <ele>161</ele>
        <time>2026-08-05T11:50:01.000Z</time>
        <extensions>
          <ns3:TrackPointExtension>
            <ns3:hr>78</ns3:hr>
            <ns3:cad>0</ns3:cad>
          </ns3:TrackPointExtension>
        </extensions>
      </trkpt>
      <trkpt lat="43.4617207758128643035888671875" lon="1.42532411031424999237060546875">
        <ele>161</ele>
        <time>2026-08-05T11:50:02.000Z</time>
        <extensions>
          <ns3:TrackPointExtension>
            <ns3:hr>77</ns3:hr>
            <ns3:cad>0</ns3:cad>
          </ns3:TrackPointExtension>
        </extensions>
      </trkpt>
      <trkpt lat="43.4617237932980060577392578125" lon="1.4253330789506435394287109375">
        <ele>161</ele>
        <time>2026-08-05T11:50:03.000Z</time>
        <extensions>
          <ns3:TrackPointExtension>
            <ns3:hr>77</ns3:hr>
            <ns3:cad>0</ns3:cad>
          </ns3:TrackPointExtension>
        </extensions>
      </trkpt>
      <trkpt lat="43.46172404475510120391845703125" lon="1.42534120939671993255615234375">
        <ele>161</ele>
        <time>2026-08-05T11:50:04.000Z</time>
        <extensions>
          <ns3:TrackPointExtension>
            <ns3:hr>77</ns3:hr>
            <ns3:cad>0</ns3:cad>
          </ns3:TrackPointExtension>
        </extensions>
      </trkpt>
      <trkpt lat="43.46172287128865718841552734375" lon="1.42535311169922351837158203125">
        <ele>161.1999969482421875</ele>
        <time>2026-08-05T11:50:05.000Z</time>
        <extensions>
          <ns3:TrackPointExtension>
            <ns3:hr>77</ns3:hr>
            <ns3:cad>0</ns3:cad>
          </ns3:TrackPointExtension>
        </extensions>
      </trkpt>
      <trkpt lat="43.4617231227457523345947265625" lon="1.42536652274429798126220703125">
        <ele>161.1999969482421875</ele>
        <time>2026-08-05T11:50:06.000Z</time>
        <extensions>
          <ns3:TrackPointExtension>
            <ns3:hr>77</ns3:hr>
            <ns3:cad>0</ns3:cad>
          </ns3:TrackPointExtension>
        </extensions>
      </trkpt>
      <trkpt lat="43.461720943450927734375" lon="1.42537691630423069000244140625">
        <ele>161.399993896484375</ele>
        <time>2026-08-05T11:50:07.000Z</time>
        <extensions>
          <ns3:TrackPointExtension>
            <ns3:hr>77</ns3:hr>
            <ns3:cad>0</ns3:cad>
          </ns3:TrackPointExtension>
        </extensions>
      </trkpt>
      <trkpt lat="43.461718596518039703369140625" lon="1.42538747750222682952880859375">
        <ele>161.399993896484375</ele>
        <time>2026-08-05T11:50:08.000Z</time>
        <extensions>
          <ns3:TrackPointExtension>
            <ns3:hr>78</ns3:hr>
            <ns3:cad>0</ns3:cad>
          </ns3:TrackPointExtension>
        </extensions>
      </trkpt>
      <trkpt lat="43.46171759068965911865234375" lon="1.42540072090923786163330078125">
        <ele>161.399993896484375</ele>
        <time>2026-08-05T11:50:09.000Z</time>
        <extensions>
          <ns3:TrackPointExtension>
            <ns3:hr>79</ns3:hr>
            <ns3:cad>40</ns3:cad>
          </ns3:TrackPointExtension>
        </extensions>
      </trkpt>
      <trkpt lat="43.46171331591904163360595703125" lon="1.425416059792041778564453125">
        <ele>161.399993896484375</ele>
        <time>2026-08-05T11:50:10.000Z</time>
        <extensions>
          <ns3:TrackPointExtension>
            <ns3:hr>79</ns3:hr>
            <ns3:cad>77</ns3:cad>
          </ns3:TrackPointExtension>
        </extensions>
      </trkpt>
      <trkpt lat="43.46170996315777301788330078125" lon="1.42542854882776737213134765625">
        <ele>161.600006103515625</ele>
        <time>2026-08-05T11:50:11.000Z</time>
        <extensions>
          <ns3:TrackPointExtension>
            <ns3:hr>80</ns3:hr>
            <ns3:cad>77</ns3:cad>
          </ns3:TrackPointExtension>
        </extensions>
      </trkpt>
      <trkpt lat="43.4617061913013458251953125" lon="1.42544330097734928131103515625">
        <ele>161.600006103515625</ele>
        <time>2026-08-05T11:50:12.000Z</time>
        <extensions>
          <ns3:TrackPointExtension>
            <ns3:hr>81</ns3:hr>
            <ns3:cad>77</ns3:cad>
          </ns3:TrackPointExtension>
        </extensions>
      </trkpt>
      <trkpt lat="43.46170661039650440216064453125" lon="1.42545570619404315948486328125">
        <ele>161.600006103515625</ele>
        <time>2026-08-05T11:50:13.000Z</time>
        <extensions>
          <ns3:TrackPointExtension>
            <ns3:hr>81</ns3:hr>
            <ns3:cad>77</ns3:cad>
          </ns3:TrackPointExtension>
        </extensions>
      </trkpt>
      <trkpt lat="43.4617026709020137786865234375" lon="1.42546945251524448394775390625">
        <ele>161.8000030517578125</ele>
        <time>2026-08-05T11:50:14.000Z</time>
        <extensions>
          <ns3:TrackPointExtension>
            <ns3:hr>82</ns3:hr>
            <ns3:cad>77</ns3:cad>
          </ns3:TrackPointExtension>
        </extensions>
      </trkpt>
      <trkpt lat="43.46169755794107913970947265625" lon="1.4254827797412872314453125">
        <ele>161.8000030517578125</ele>
        <time>2026-08-05T11:50:15.000Z</time>
        <extensions>
          <ns3:TrackPointExtension>
            <ns3:hr>82</ns3:hr>
            <ns3:cad>41</ns3:cad>
          </ns3:TrackPointExtension>
        </extensions>
      </trkpt>
      <trkpt lat="43.4616909362375736236572265625" lon="1.42549728043377399444580078125">
        <ele>162</ele>
        <time>2026-08-05T11:50:16.000Z</time>
        <extensions>
          <ns3:TrackPointExtension>
            <ns3:hr>83</ns3:hr>
            <ns3:cad>41</ns3:cad>
          </ns3:TrackPointExtension>
        </extensions>
      </trkpt>
      <trkpt lat="43.46168548800051212310791015625" lon="1.42550365068018436431884765625">
        <ele>162</ele>
        <time>2026-08-05T11:50:17.000Z</time>
        <extensions>
          <ns3:TrackPointExtension>
            <ns3:hr>83</ns3:hr>
            <ns3:cad>41</ns3:cad>
          </ns3:TrackPointExtension>
        </extensions>
      </trkpt>
      <trkpt lat="43.46167643554508686065673828125" lon="1.42551488243043422698974609375">
        <ele>162.1999969482421875</ele>
        <time>2026-08-05T11:50:18.000Z</time>
        <extensions>
          <ns3:TrackPointExtension>
            <ns3:hr>83</ns3:hr>
            <ns3:cad>41</ns3:cad>
          </ns3:TrackPointExtension>
        </extensions>
      </trkpt>
      <trkpt lat="43.4616691432893276214599609375" lon="1.4255285449326038360595703125">
        <ele>162.1999969482421875</ele>
        <time>2026-08-05T11:50:19.000Z</time>
        <extensions>
          <ns3:TrackPointExtension>
            <ns3:hr>83</ns3:hr>
            <ns3:cad>41</ns3:cad>
          </ns3:TrackPointExtension>
        </extensions>
      </trkpt>
      <trkpt lat="43.4616590850055217742919921875" lon="1.4255325682461261749267578125">
        <ele>162.1999969482421875</ele>
        <time>2026-08-05T11:50:20.000Z</time>
        <extensions>
          <ns3:TrackPointExtension>
            <ns3:hr>83</ns3:hr>
            <ns3:cad>41</ns3:cad>
          </ns3:TrackPointExtension>
        </extensions>
      </trkpt>
      <trkpt lat="43.46164944581687450408935546875" lon="1.42553818412125110626220703125">
        <ele>162.399993896484375</ele>
        <time>2026-08-05T11:50:21.000Z</time>
        <extensions>
          <ns3:TrackPointExtension>
            <ns3:hr>84</ns3:hr>
            <ns3:cad>41</ns3:cad>
          </ns3:TrackPointExtension>
        </extensions>
      </trkpt>
      <trkpt lat="43.4616382978856563568115234375" lon="1.42554254271090030670166015625">
        <ele>162.399993896484375</ele>
        <time>2026-08-05T11:50:22.000Z</time>
        <extensions>
          <ns3:TrackPointExtension>
            <ns3:hr>85</ns3:hr>
            <ns3:cad>41</ns3:cad>
          </ns3:TrackPointExtension>
        </extensions>
      </trkpt>
      <trkpt lat="43.461631424725055694580078125" lon="1.425544135272502899169921875">
        <ele>162.399993896484375</ele>
        <time>2026-08-05T11:50:23.000Z</time>
        <extensions>
          <ns3:TrackPointExtension>
            <ns3:hr>86</ns3:hr>
            <ns3:cad>43</ns3:cad>
          </ns3:TrackPointExtension>
        </extensions>
      </trkpt>
      <trkpt lat="43.4616215340793132781982421875" lon="1.42554648220539093017578125">
        <ele>162.600006103515625</ele>
        <time>2026-08-05T11:50:24.000Z</time>
        <extensions>
          <ns3:TrackPointExtension>
            <ns3:hr>86</ns3:hr>
            <ns3:cad>43</ns3:cad>
          </ns3:TrackPointExtension>
        </extensions>
      </trkpt>
      <trkpt lat="43.4616131521761417388916015625" lon="1.4255516789853572845458984375">
        <ele>162.600006103515625</ele>
        <time>2026-08-05T11:50:25.000Z</time>
        <extensions>
          <ns3:TrackPointExtension>
            <ns3:hr>86</ns3:hr>
            <ns3:cad>43</ns3:cad>
          </ns3:TrackPointExtension>
        </extensions>
      </trkpt>
      <trkpt lat="43.461605608463287353515625" lon="1.4255525171756744384765625">
        <ele>162.600006103515625</ele>
        <time>2026-08-05T11:50:26.000Z</time>
        <extensions>
          <ns3:TrackPointExtension>
            <ns3:hr>86</ns3:hr>
            <ns3:cad>75</ns3:cad>
          </ns3:TrackPointExtension>
        </extensions>
      </trkpt>
      <trkpt lat="43.46159848384559154510498046875" lon="1.42555444501340389251708984375">
        <ele>162.600006103515625</ele>
        <time>2026-08-05T11:50:27.000Z</time>
        <extensions>
          <ns3:TrackPointExtension>
            <ns3:hr>87</ns3:hr>
            <ns3:cad>75</ns3:cad>
          </ns3:TrackPointExtension>
        </extensions>
      </trkpt>
      <trkpt lat="43.461587838828563690185546875" lon="1.4255593903362751007080078125">
        <ele>162.600006103515625</ele>
        <time>2026-08-05T11:50:28.000Z</time>
        <extensions>
          <ns3:TrackPointExtension>
            <ns3:hr>87</ns3:hr>
            <ns3:cad>75</ns3:cad>
          </ns3:TrackPointExtension>
        </extensions>
      </trkpt>
      <trkpt lat="43.46158054657280445098876953125" lon="1.425562240183353424072265625">
        <ele>162.8000030517578125</ele>
        <time>2026-08-05T11:50:29.000Z</time>
        <extensions>
          <ns3:TrackPointExtension>
            <ns3:hr>87</ns3:hr>
            <ns3:cad>75</ns3:cad>
          </ns3:TrackPointExtension>
        </extensions>
      </trkpt>
      <trkpt lat="43.46157065592706203460693359375" lon="1.42556450329720973968505859375">
        <ele>162.8000030517578125</ele>
        <time>2026-08-05T11:50:30.000Z</time>
        <extensions>
          <ns3:TrackPointExtension>
            <ns3:hr>88</ns3:hr>
            <ns3:cad>76</ns3:cad>
          </ns3:TrackPointExtension>
        </extensions>
      </trkpt>
      <trkpt lat="43.4615621902048587799072265625" lon="1.42556768842041492462158203125">
        <ele>162.8000030517578125</ele>
        <time>2026-08-05T11:50:31.000Z</time>
        <extensions>
          <ns3:TrackPointExtension>
            <ns3:hr>88</ns3:hr>
            <ns3:cad>76</ns3:cad>
          </ns3:TrackPointExtension>
        </extensions>
      </trkpt>
      <trkpt lat="43.46155489794909954071044921875" lon="1.42556970007717609405517578125">
        <ele>163</ele>
        <time>2026-08-05T11:50:32.000Z</time>
        <extensions>
          <ns3:TrackPointExtension>
            <ns3:hr>89</ns3:hr>
            <ns3:cad>77</ns3:cad>
          </ns3:TrackPointExtension>
        </extensions>
      </trkpt>
      <trkpt lat="43.46154458820819854736328125" lon="1.4255674369633197784423828125">
        <ele>163</ele>
        <time>2026-08-05T11:50:33.000Z</time>
        <extensions>
          <ns3:TrackPointExtension>
            <ns3:hr>91</ns3:hr>
            <ns3:cad>79</ns3:cad>
          </ns3:TrackPointExtension>
        </extensions>
      </trkpt>
      <trkpt lat="43.4615346975624561309814453125" lon="1.425565592944622039794921875">
        <ele>163.1999969482421875</ele>
        <time>2026-08-05T11:50:34.000Z</time>
        <extensions>
          <ns3:TrackPointExtension>
            <ns3:hr>92</ns3:hr>
            <ns3:cad>79</ns3:cad>
          </ns3:TrackPointExtension>
        </extensions>
      </trkpt>
      <trkpt lat="43.4615266509354114532470703125" lon="1.4255660958588123321533203125">
        <ele>163.1999969482421875</ele>
        <time>2026-08-05T11:50:35.000Z</time>
        <extensions>
          <ns3:TrackPointExtension>
            <ns3:hr>93</ns3:hr>
            <ns3:cad>79</ns3:cad>
          </ns3:TrackPointExtension>
        </extensions>
      </trkpt>
      <trkpt lat="43.46151500009000301361083984375" lon="1.42556483857333660125732421875">
        <ele>163.399993896484375</ele>
        <time>2026-08-05T11:50:36.000Z</time>
        <extensions>
          <ns3:TrackPointExtension>
            <ns3:hr>93</ns3:hr>
            <ns3:cad>42</ns3:cad>
          </ns3:TrackPointExtension>
        </extensions>
      </trkpt>
      <trkpt lat="43.46150360070168972015380859375" lon="1.425562240183353424072265625">
        <ele>163.399993896484375</ele>
        <time>2026-08-05T11:50:37.000Z</time>
        <extensions>
          <ns3:TrackPointExtension>
            <ns3:hr>94</ns3:hr>
            <ns3:cad>0</ns3:cad>
          </ns3:TrackPointExtension>
        </extensions>
      </trkpt>
      <trkpt lat="43.4614944644272327423095703125" lon="1.42556349746882915496826171875">
        <ele>163.600006103515625</ele>
        <time>2026-08-05T11:50:38.000Z</time>
        <extensions>
          <ns3:TrackPointExtension>
            <ns3:hr>95</ns3:hr>
            <ns3:cad>0</ns3:cad>
          </ns3:TrackPointExtension>
        </extensions>
      </trkpt>
      <trkpt lat="43.46148415468633174896240234375" lon="1.4255614019930362701416015625">
        <ele>163.600006103515625</ele>
        <time>2026-08-05T11:50:39.000Z</time>
        <extensions>
          <ns3:TrackPointExtension>
            <ns3:hr>96</ns3:hr>
            <ns3:cad>77</ns3:cad>
          </ns3:TrackPointExtension>
        </extensions>
      </trkpt>
      <trkpt lat="43.4614755213260650634765625" lon="1.42556433565914630889892578125">
        <ele>163.600006103515625</ele>
        <time>2026-08-05T11:50:40.000Z</time>
        <extensions>
          <ns3:TrackPointExtension>
            <ns3:hr>97</ns3:hr>
            <ns3:cad>77</ns3:cad>
          </ns3:TrackPointExtension>
        </extensions>
      </trkpt>
      <trkpt lat="43.4614663012325763702392578125" lon="1.42556534148752689361572265625">
        <ele>163.600006103515625</ele>
        <time>2026-08-05T11:50:41.000Z</time>
        <extensions>
          <ns3:TrackPointExtension>
            <ns3:hr>98</ns3:hr>
            <ns3:cad>0</ns3:cad>
          </ns3:TrackPointExtension>
        </extensions>
      </trkpt>
      <trkpt lat="43.46146118827164173126220703125" lon="1.425570286810398101806640625">
        <ele>163.600006103515625</ele>
        <time>2026-08-05T11:50:42.000Z</time>
        <extensions>
          <ns3:TrackPointExtension>
            <ns3:hr>99</ns3:hr>
            <ns3:cad>0</ns3:cad>
          </ns3:TrackPointExtension>
        </extensions>
      </trkpt>
      <trkpt lat="43.46145900897681713104248046875" lon="1.4255768246948719024658203125">
        <ele>163.600006103515625</ele>
        <time>2026-08-05T11:50:43.000Z</time>
        <extensions>
          <ns3:TrackPointExtension>
            <ns3:hr>99</ns3:hr>
            <ns3:cad>0</ns3:cad>
          </ns3:TrackPointExtension>
        </extensions>
      </trkpt>
      <trkpt lat="43.46145808696746826171875" lon="1.42558109946548938751220703125">
        <ele>163.600006103515625</ele>
        <time>2026-08-05T11:50:44.000Z</time>
        <extensions>
          <ns3:TrackPointExtension>
            <ns3:hr>99</ns3:hr>
            <ns3:cad>0</ns3:cad>
          </ns3:TrackPointExtension>
        </extensions>
      </trkpt>
      <trkpt lat="43.46145733259618282318115234375" lon="1.42558579333126544952392578125">
        <ele>163.600006103515625</ele>
        <time>2026-08-05T11:50:45.000Z</time>
        <extensions>
          <ns3:TrackPointExtension>
            <ns3:hr>98</ns3:hr>
            <ns3:cad>0</ns3:cad>
          </ns3:TrackPointExtension>
        </extensions>
      </trkpt>
      <trkpt lat="43.461456410586833953857421875" lon="1.4255899004638195037841796875">
        <ele>163.600006103515625</ele>
        <time>2026-08-05T11:50:46.000Z</time>
        <extensions>
          <ns3:TrackPointExtension>
            <ns3:hr>98</ns3:hr>
            <ns3:cad>0</ns3:cad>
          </ns3:TrackPointExtension>
        </extensions>
      </trkpt>
      <trkpt lat="43.46145498566329479217529296875" lon="1.42559383995831012725830078125">
        <ele>163.600006103515625</ele>
        <time>2026-08-05T11:50:47.000Z</time>
        <extensions>
          <ns3:TrackPointExtension>
            <ns3:hr>97</ns3:hr>
            <ns3:cad>0</ns3:cad>
          </ns3:TrackPointExtension>
        </extensions>
      </trkpt>
      <trkpt lat="43.461453728377819061279296875" lon="1.42559434287250041961669921875">
        <ele>163.600006103515625</ele>
        <time>2026-08-05T11:50:48.000Z</time>
        <extensions>
          <ns3:TrackPointExtension>
            <ns3:hr>97</ns3:hr>
            <ns3:cad>0</ns3:cad>
          </ns3:TrackPointExtension>
        </extensions>
      </trkpt>
      <trkpt lat="43.46146068535745143890380859375" lon="1.425597779452800750732421875">
        <ele>163.600006103515625</ele>
        <time>2026-08-05T11:50:49.000Z</time>
        <extensions>
          <ns3:TrackPointExtension>
            <ns3:hr>97</ns3:hr>
            <ns3:cad>0</ns3:cad>
          </ns3:TrackPointExtension>
        </extensions>
      </trkpt>
      <trkpt lat="43.46145884133875370025634765625" lon="1.42559903673827648162841796875">
        <ele>163.600006103515625</ele>
        <time>2026-08-05T11:50:50.000Z</time>
        <extensions>
          <ns3:TrackPointExtension>
            <ns3:hr>97</ns3:hr>
            <ns3:cad>0</ns3:cad>
          </ns3:TrackPointExtension>
        </extensions>
      </trkpt>
      <trkpt lat="43.46145649440586566925048828125" lon="1.42559878528118133544921875">
        <ele>163.600006103515625</ele>
        <time>2026-08-05T11:50:51.000Z</time>
        <extensions>
          <ns3:TrackPointExtension>
            <ns3:hr>97</ns3:hr>
            <ns3:cad>0</ns3:cad>
          </ns3:TrackPointExtension>
        </extensions>
      </trkpt>
      <trkpt lat="43.4614565782248973846435546875" lon="1.42559878528118133544921875">
        <ele>163.399993896484375</ele>
        <time>2026-08-05T11:50:52.000Z</time>
        <extensions>
          <ns3:TrackPointExtension>
            <ns3:hr>97</ns3:hr>
            <ns3:cad>0</ns3:cad>
          </ns3:TrackPointExtension>
        </extensions>
      </trkpt>
      <trkpt lat="43.4614565782248973846435546875" lon="1.42559878528118133544921875">
        <ele>163.399993896484375</ele>
        <time>2026-08-05T11:50:53.000Z</time>
        <extensions>
          <ns3:TrackPointExtension>
            <ns3:hr>97</ns3:hr>
            <ns3:cad>0</ns3:cad>
          </ns3:TrackPointExtension>
        </extensions>
      </trkpt>
      <trkpt lat="43.4614565782248973846435546875" lon="1.42559878528118133544921875">
        <ele>163.399993896484375</ele>
        <time>2026-08-05T11:50:54.000Z</time>
        <extensions>
          <ns3:TrackPointExtension>
            <ns3:hr>97</ns3:hr>
            <ns3:cad>0</ns3:cad>
          </ns3:TrackPointExtension>
        </extensions>
      </trkpt>
      <trkpt lat="43.4614565782248973846435546875" lon="1.42559878528118133544921875">
        <ele>163.399993896484375</ele>
        <time>2026-08-05T11:50:55.000Z</time>
        <extensions>
          <ns3:TrackPointExtension>
            <ns3:hr>97</ns3:hr>
            <ns3:cad>0</ns3:cad>
          </ns3:TrackPointExtension>
        </extensions>
      </trkpt>
      <trkpt lat="43.4614565782248973846435546875" lon="1.42559878528118133544921875">
        <ele>163.399993896484375</ele>
        <time>2026-08-05T11:50:56.000Z</time>
        <extensions>
          <ns3:TrackPointExtension>
            <ns3:hr>97</ns3:hr>
            <ns3:cad>0</ns3:cad>
          </ns3:TrackPointExtension>
        </extensions>
      </trkpt>
      <trkpt lat="43.46145666204392910003662109375" lon="1.42559870146214962005615234375">
        <ele>163.399993896484375</ele>
        <time>2026-08-05T11:50:57.000Z</time>
        <extensions>
          <ns3:TrackPointExtension>
            <ns3:hr>97</ns3:hr>
            <ns3:cad>0</ns3:cad>
          </ns3:TrackPointExtension>
        </extensions>
      </trkpt>
      <trkpt lat="43.46145515330135822296142578125" lon="1.4255986176431179046630859375">
        <ele>163.399993896484375</ele>
        <time>2026-08-05T11:50:58.000Z</time>
        <extensions>
          <ns3:TrackPointExtension>
            <ns3:hr>95</ns3:hr>
            <ns3:cad>0</ns3:cad>
          </ns3:TrackPointExtension>
        </extensions>
      </trkpt>
      <trkpt lat="43.46145012415945529937744140625" lon="1.42559618689119815826416015625">
        <ele>163.399993896484375</ele>
        <time>2026-08-05T11:50:59.000Z</time>
        <extensions>
          <ns3:TrackPointExtension>
            <ns3:hr>91</ns3:hr>
            <ns3:cad>0</ns3:cad>
          </ns3:TrackPointExtension>
        </extensions>
      </trkpt>
      <trkpt lat="43.4614475257694721221923828125" lon="1.42559601925313472747802734375">
        <ele>163.600006103515625</ele>
        <time>2026-08-05T11:51:00.000Z</time>
        <extensions>
          <ns3:TrackPointExtension>
            <ns3:hr>89</ns3:hr>
            <ns3:cad>0</ns3:cad>
          </ns3:TrackPointExtension>
        </extensions>
      </trkpt>
      <trkpt lat="43.4614421613514423370361328125" lon="1.42559031955897808074951171875">
        <ele>163.600006103515625</ele>
        <time>2026-08-05T11:51:01.000Z</time>
        <extensions>
          <ns3:TrackPointExtension>
            <ns3:hr>88</ns3:hr>
            <ns3:cad>0</ns3:cad>
          </ns3:TrackPointExtension>
        </extensions>
      </trkpt>
      <trkpt lat="43.4614408202469348907470703125" lon="1.42559115774929523468017578125">
        <ele>163.600006103515625</ele>
        <time>2026-08-05T11:51:02.000Z</time>
        <extensions>
          <ns3:TrackPointExtension>
            <ns3:hr>88</ns3:hr>
            <ns3:cad>0</ns3:cad>
          </ns3:TrackPointExtension>
        </extensions>
      </trkpt>
      <trkpt lat="43.46143864095211029052734375" lon="1.42559115774929523468017578125">
        <ele>163.399993896484375</ele>
        <time>2026-08-05T11:51:03.000Z</time>
        <extensions>
          <ns3:TrackPointExtension>
            <ns3:hr>88</ns3:hr>
            <ns3:cad>0</ns3:cad>
          </ns3:TrackPointExtension>
        </extensions>
      </trkpt>
      <trkpt lat="43.46143570728600025177001953125" lon="1.4255912415683269500732421875">
        <ele>163.399993896484375</ele>
        <time>2026-08-05T11:51:04.000Z</time>
        <extensions>
          <ns3:TrackPointExtension>
            <ns3:hr>89</ns3:hr>
            <ns3:cad>0</ns3:cad>
          </ns3:TrackPointExtension>
        </extensions>
      </trkpt>
      <trkpt lat="43.4614357911050319671630859375" lon="1.42559099011123180389404296875">
        <ele>163.399993896484375</ele>
        <time>2026-08-05T11:51:05.000Z</time>
        <extensions>
          <ns3:TrackPointExtension>
            <ns3:hr>90</ns3:hr>
            <ns3:cad>0</ns3:cad>
          </ns3:TrackPointExtension>
        </extensions>
      </trkpt>
      <trkpt lat="43.4614357911050319671630859375" lon="1.42559099011123180389404296875">
        <ele>163.399993896484375</ele>
        <time>2026-08-05T11:51:06.000Z</time>
        <extensions>
          <ns3:TrackPointExtension>
            <ns3:hr>90</ns3:hr>
            <ns3:cad>0</ns3:cad>
          </ns3:TrackPointExtension>
        </extensions>
      </trkpt>
      <trkpt lat="43.461435623466968536376953125" lon="1.4255909062922000885009765625">
        <ele>163.399993896484375</ele>
        <time>2026-08-05T11:51:07.000Z</time>
        <extensions>
          <ns3:TrackPointExtension>
            <ns3:hr>91</ns3:hr>
            <ns3:cad>0</ns3:cad>
          </ns3:TrackPointExtension>
        </extensions>
      </trkpt>
      <trkpt lat="43.4614274092018604278564453125" lon="1.4255882240831851959228515625">
        <ele>163.399993896484375</ele>
        <time>2026-08-05T11:51:08.000Z</time>
        <extensions>
          <ns3:TrackPointExtension>
            <ns3:hr>91</ns3:hr>
            <ns3:cad>0</ns3:cad>
          </ns3:TrackPointExtension>
        </extensions>
      </trkpt>
      <trkpt lat="43.4614210389554500579833984375" lon="1.42558629624545574188232421875">
        <ele>163.399993896484375</ele>
        <time>2026-08-05T11:51:09.000Z</time>
        <extensions>
          <ns3:TrackPointExtension>
            <ns3:hr>91</ns3:hr>
            <ns3:cad>0</ns3:cad>
          </ns3:TrackPointExtension>
        </extensions>
      </trkpt>
      <trkpt lat="43.46141324378550052642822265625" lon="1.42558126710355281829833984375">
        <ele>163.600006103515625</ele>
        <time>2026-08-05T11:51:10.000Z</time>
        <extensions>
          <ns3:TrackPointExtension>
            <ns3:hr>91</ns3:hr>
            <ns3:cad>0</ns3:cad>
          </ns3:TrackPointExtension>
        </extensions>
      </trkpt>
      <trkpt lat="43.46140989102423191070556640625" lon="1.42558026127517223358154296875">
        <ele>163.600006103515625</ele>
        <time>2026-08-05T11:51:11.000Z</time>
        <extensions>
          <ns3:TrackPointExtension>
            <ns3:hr>91</ns3:hr>
            <ns3:cad>0</ns3:cad>
          </ns3:TrackPointExtension>
        </extensions>
      </trkpt>
      <trkpt lat="43.46140586771070957183837890625" lon="1.42557757906615734100341796875">
        <ele>163.600006103515625</ele>
        <time>2026-08-05T11:51:12.000Z</time>
        <extensions>
          <ns3:TrackPointExtension>
            <ns3:hr>90</ns3:hr>
            <ns3:cad>0</ns3:cad>
          </ns3:TrackPointExtension>
        </extensions>
      </trkpt>
      <trkpt lat="43.46140318550169467926025390625" lon="1.42557464540004730224609375">
        <ele>163.600006103515625</ele>
        <time>2026-08-05T11:51:13.000Z</time>
        <extensions>
          <ns3:TrackPointExtension>
            <ns3:hr>90</ns3:hr>
            <ns3:cad>0</ns3:cad>
          </ns3:TrackPointExtension>
        </extensions>
      </trkpt>
      <trkpt lat="43.46140318550169467926025390625" lon="1.42557464540004730224609375">
        <ele>163.600006103515625</ele>
        <time>2026-08-05T11:51:14.000Z</time>
        <extensions>
          <ns3:TrackPointExtension>
            <ns3:hr>90</ns3:hr>
            <ns3:cad>0</ns3:cad>
          </ns3:TrackPointExtension>
        </extensions>
      </trkpt>
      <trkpt lat="43.46140318550169467926025390625" lon="1.42557464540004730224609375">
        <ele>163.600006103515625</ele>
        <time>2026-08-05T11:51:15.000Z</time>
        <extensions>
          <ns3:TrackPointExtension>
            <ns3:hr>89</ns3:hr>
            <ns3:cad>0</ns3:cad>
          </ns3:TrackPointExtension>
        </extensions>
      </trkpt>
      <trkpt lat="43.46140318550169467926025390625" lon="1.42557464540004730224609375">
        <ele>163.600006103515625</ele>
        <time>2026-08-05T11:51:16.000Z</time>
        <extensions>
          <ns3:TrackPointExtension>
            <ns3:hr>89</ns3:hr>
            <ns3:cad>0</ns3:cad>
          </ns3:TrackPointExtension>
        </extensions>
      </trkpt>
      <trkpt lat="43.46140318550169467926025390625" lon="1.42557464540004730224609375">
        <ele>163.600006103515625</ele>
        <time>2026-08-05T11:51:17.000Z</time>
        <extensions>
          <ns3:TrackPointExtension>
            <ns3:hr>88</ns3:hr>
            <ns3:cad>0</ns3:cad>
          </ns3:TrackPointExtension>
        </extensions>
      </trkpt>
      <trkpt lat="43.4614025987684726715087890625" lon="1.42557539977133274078369140625">
        <ele>163.600006103515625</ele>
        <time>2026-08-05T11:51:18.000Z</time>
        <extensions>
          <ns3:TrackPointExtension>
            <ns3:hr>88</ns3:hr>
            <ns3:cad>0</ns3:cad>
          </ns3:TrackPointExtension>
        </extensions>
      </trkpt>
      <trkpt lat="43.4613942168653011322021484375" lon="1.425571627914905548095703125">
        <ele>163.600006103515625</ele>
        <time>2026-08-05T11:51:19.000Z</time>
        <extensions>
          <ns3:TrackPointExtension>
            <ns3:hr>87</ns3:hr>
            <ns3:cad>0</ns3:cad>
          </ns3:TrackPointExtension>
        </extensions>
      </trkpt>
      <trkpt lat="43.46138340421020984649658203125" lon="1.42556584440171718597412109375">
        <ele>163.600006103515625</ele>
        <time>2026-08-05T11:51:20.000Z</time>
        <extensions>
          <ns3:TrackPointExtension>
            <ns3:hr>87</ns3:hr>
            <ns3:cad>0</ns3:cad>
          </ns3:TrackPointExtension>
        </extensions>
      </trkpt>
      <trkpt lat="43.46137116663157939910888671875" lon="1.42556198872625827789306640625">
        <ele>163.600006103515625</ele>
        <time>2026-08-05T11:51:21.000Z</time>
        <extensions>
          <ns3:TrackPointExtension>
            <ns3:hr>86</ns3:hr>
            <ns3:cad>0</ns3:cad>
          </ns3:TrackPointExtension>
        </extensions>
      </trkpt>
      <trkpt lat="43.46136110834777355194091796875" lon="1.4255557022988796234130859375">
        <ele>163.600006103515625</ele>
        <time>2026-08-05T11:51:22.000Z</time>
        <extensions>
          <ns3:TrackPointExtension>
            <ns3:hr>85</ns3:hr>
            <ns3:cad>0</ns3:cad>
          </ns3:TrackPointExtension>
        </extensions>
      </trkpt>
      <trkpt lat="43.4613499604165554046630859375" lon="1.42554782330989837646484375">
        <ele>163.8000030517578125</ele>
        <time>2026-08-05T11:51:23.000Z</time>
        <extensions>
          <ns3:TrackPointExtension>
            <ns3:hr>84</ns3:hr>
            <ns3:cad>0</ns3:cad>
          </ns3:TrackPointExtension>
        </extensions>
      </trkpt>
      <trkpt lat="43.461341746151447296142578125" lon="1.425544135272502899169921875">
        <ele>163.600006103515625</ele>
        <time>2026-08-05T11:51:24.000Z</time>
        <extensions>
          <ns3:TrackPointExtension>
            <ns3:hr>84</ns3:hr>
            <ns3:cad>0</ns3:cad>
          </ns3:TrackPointExtension>
        </extensions>
      </trkpt>
      <trkpt lat="43.4613318555057048797607421875" lon="1.4255389384925365447998046875">
        <ele>163.600006103515625</ele>
        <time>2026-08-05T11:51:25.000Z</time>
        <extensions>
          <ns3:TrackPointExtension>
            <ns3:hr>84</ns3:hr>
            <ns3:cad>0</ns3:cad>
          </ns3:TrackPointExtension>
        </extensions>
      </trkpt>
      <trkpt lat="43.4613239765167236328125" lon="1.4255369268357753753662109375">
        <ele>163.600006103515625</ele>
        <time>2026-08-05T11:51:26.000Z</time>
        <extensions>
          <ns3:TrackPointExtension>
            <ns3:hr>84</ns3:hr>
            <ns3:cad>0</ns3:cad>
          </ns3:TrackPointExtension>
        </extensions>
      </trkpt>
      <trkpt lat="43.46131500788033008575439453125" lon="1.4255335740745067596435546875">
        <ele>163.600006103515625</ele>
        <time>2026-08-05T11:51:27.000Z</time>
        <extensions>
          <ns3:TrackPointExtension>
            <ns3:hr>84</ns3:hr>
            <ns3:cad>47</ns3:cad>
          </ns3:TrackPointExtension>
        </extensions>
      </trkpt>
      <trkpt lat="43.46130243502557277679443359375" lon="1.4255318976938724517822265625">
        <ele>163.399993896484375</ele>
        <time>2026-08-05T11:51:28.000Z</time>
        <extensions>
          <ns3:TrackPointExtension>
            <ns3:hr>84</ns3:hr>
            <ns3:cad>48</ns3:cad>
          </ns3:TrackPointExtension>
        </extensions>
      </trkpt>
      <trkpt lat="43.46129086799919605255126953125" lon="1.42552904784679412841796875">
        <ele>163.399993896484375</ele>
        <time>2026-08-05T11:51:29.000Z</time>
        <extensions>
          <ns3:TrackPointExtension>
            <ns3:hr>84</ns3:hr>
            <ns3:cad>49</ns3:cad>
          </ns3:TrackPointExtension>
        </extensions>
      </trkpt>
      <trkpt lat="43.46127913333475589752197265625" lon="1.42552427016198635101318359375">
        <ele>163.399993896484375</ele>
        <time>2026-08-05T11:51:30.000Z</time>
        <extensions>
          <ns3:TrackPointExtension>
            <ns3:hr>84</ns3:hr>
            <ns3:cad>50</ns3:cad>
          </ns3:TrackPointExtension>
        </extensions>
      </trkpt>
      <trkpt lat="43.4612688235938549041748046875" lon="1.425519324839115142822265625">
        <ele>163.1999969482421875</ele>
        <time>2026-08-05T11:51:31.000Z</time>
        <extensions>
          <ns3:TrackPointExtension>
            <ns3:hr>84</ns3:hr>
            <ns3:cad>50</ns3:cad>
          </ns3:TrackPointExtension>
        </extensions>
      </trkpt>
      <trkpt lat="43.4612596035003662109375" lon="1.4255147986114025115966796875">
        <ele>163.1999969482421875</ele>
        <time>2026-08-05T11:51:32.000Z</time>
        <extensions>
          <ns3:TrackPointExtension>
            <ns3:hr>84</ns3:hr>
            <ns3:cad>49</ns3:cad>
          </ns3:TrackPointExtension>
        </extensions>
      </trkpt>
      <trkpt lat="43.46125063486397266387939453125" lon="1.42550893127918243408203125">
        <ele>163.1999969482421875</ele>
        <time>2026-08-05T11:51:33.000Z</time>
        <extensions>
          <ns3:TrackPointExtension>
            <ns3:hr>84</ns3:hr>
            <ns3:cad>49</ns3:cad>
          </ns3:TrackPointExtension>
        </extensions>
      </trkpt>
      <trkpt lat="43.46124191768467426300048828125" lon="1.42550314776599407196044921875">
        <ele>163.1999969482421875</ele>
        <time>2026-08-05T11:51:34.000Z</time>
        <extensions>
          <ns3:TrackPointExtension>
            <ns3:hr>84</ns3:hr>
            <ns3:cad>50</ns3:cad>
          </ns3:TrackPointExtension>
        </extensions>
      </trkpt>
      <trkpt lat="43.46123286522924900054931640625" lon="1.42549979500472545623779296875">
        <ele>163</ele>
        <time>2026-08-05T11:51:35.000Z</time>
        <extensions>
          <ns3:TrackPointExtension>
            <ns3:hr>84</ns3:hr>
            <ns3:cad>50</ns3:cad>
          </ns3:TrackPointExtension>
        </extensions>
      </trkpt>
      <trkpt lat="43.46122599206864833831787109375" lon="1.42549342475831508636474609375">
        <ele>163</ele>
        <time>2026-08-05T11:51:36.000Z</time>
        <extensions>
          <ns3:TrackPointExtension>
            <ns3:hr>84</ns3:hr>
            <ns3:cad>49</ns3:cad>
          </ns3:TrackPointExtension>
        </extensions>
      </trkpt>
      <trkpt lat="43.46121727488934993743896484375" lon="1.42549015581607818603515625">
        <ele>163</ele>
        <time>2026-08-05T11:51:37.000Z</time>
        <extensions>
          <ns3:TrackPointExtension>
            <ns3:hr>83</ns3:hr>
            <ns3:cad>49</ns3:cad>
          </ns3:TrackPointExtension>
        </extensions>
      </trkpt>
      <trkpt lat="43.46120369620621204376220703125" lon="1.42548881471157073974609375">
        <ele>162.8000030517578125</ele>
        <time>2026-08-05T11:51:38.000Z</time>
        <extensions>
          <ns3:TrackPointExtension>
            <ns3:hr>83</ns3:hr>
            <ns3:cad>49</ns3:cad>
          </ns3:TrackPointExtension>
        </extensions>
      </trkpt>
      <trkpt lat="43.461189530789852142333984375" lon="1.425482444465160369873046875">
        <ele>162.8000030517578125</ele>
        <time>2026-08-05T11:51:39.000Z</time>
        <extensions>
          <ns3:TrackPointExtension>
            <ns3:hr>83</ns3:hr>
            <ns3:cad>49</ns3:cad>
          </ns3:TrackPointExtension>
        </extensions>
      </trkpt>
      <trkpt lat="43.4611789695918560028076171875" lon="1.42547615803778171539306640625">
        <ele>162.8000030517578125</ele>
        <time>2026-08-05T11:51:40.000Z</time>
        <extensions>
          <ns3:TrackPointExtension>
            <ns3:hr>83</ns3:hr>
            <ns3:cad>49</ns3:cad>
          </ns3:TrackPointExtension>
        </extensions>
      </trkpt>
      <trkpt lat="43.46116933040320873260498046875" lon="1.42547096125781536102294921875">
        <ele>162.600006103515625</ele>
        <time>2026-08-05T11:51:41.000Z</time>
        <extensions>
          <ns3:TrackPointExtension>
            <ns3:hr>83</ns3:hr>
            <ns3:cad>49</ns3:cad>
          </ns3:TrackPointExtension>
        </extensions>
      </trkpt>
      <trkpt lat="43.46116027794778347015380859375" lon="1.42546308226883411407470703125">
        <ele>162.600006103515625</ele>
        <time>2026-08-05T11:51:42.000Z</time>
        <extensions>
          <ns3:TrackPointExtension>
            <ns3:hr>83</ns3:hr>
            <ns3:cad>49</ns3:cad>
          </ns3:TrackPointExtension>
        </extensions>
      </trkpt>
      <trkpt lat="43.46116312779486179351806640625" lon="1.4254532754421234130859375">
        <ele>162.600006103515625</ele>
        <time>2026-08-05T11:51:43.000Z</time>
        <extensions>
          <ns3:TrackPointExtension>
            <ns3:hr>82</ns3:hr>
            <ns3:cad>49</ns3:cad>
          </ns3:TrackPointExtension>
        </extensions>
      </trkpt>
      <trkpt lat="43.46116798929870128631591796875" lon="1.42544615082442760467529296875">
        <ele>162.399993896484375</ele>
        <time>2026-08-05T11:51:44.000Z</time>
        <extensions>
          <ns3:TrackPointExtension>
            <ns3:hr>82</ns3:hr>
            <ns3:cad>49</ns3:cad>
          </ns3:TrackPointExtension>
        </extensions>
      </trkpt>
      <trkpt lat="43.46117218025028705596923828125" lon="1.4254425466060638427734375">
        <ele>162.399993896484375</ele>
        <time>2026-08-05T11:51:45.000Z</time>
        <extensions>
          <ns3:TrackPointExtension>
            <ns3:hr>81</ns3:hr>
            <ns3:cad>48</ns3:cad>
          </ns3:TrackPointExtension>
        </extensions>
      </trkpt>
      <trkpt lat="43.46117117442190647125244140625" lon="1.42544321715831756591796875">
        <ele>162.399993896484375</ele>
        <time>2026-08-05T11:51:46.000Z</time>
        <extensions>
          <ns3:TrackPointExtension>
            <ns3:hr>81</ns3:hr>
            <ns3:cad>0</ns3:cad>
          </ns3:TrackPointExtension>
        </extensions>
      </trkpt>
      <trkpt lat="43.46117000095546245574951171875" lon="1.42544682137668132781982421875">
        <ele>162.399993896484375</ele>
        <time>2026-08-05T11:51:47.000Z</time>
        <extensions>
          <ns3:TrackPointExtension>
            <ns3:hr>81</ns3:hr>
            <ns3:cad>0</ns3:cad>
          </ns3:TrackPointExtension>
        </extensions>
      </trkpt>
      <trkpt lat="43.4611672349274158477783203125" lon="1.42544455826282501220703125">
        <ele>162.399993896484375</ele>
        <time>2026-08-05T11:51:48.000Z</time>
        <extensions>
          <ns3:TrackPointExtension>
            <ns3:hr>80</ns3:hr>
            <ns3:cad>0</ns3:cad>
          </ns3:TrackPointExtension>
        </extensions>
      </trkpt>
      <trkpt lat="43.4611608646810054779052734375" lon="1.42544615082442760467529296875">
        <ele>162.399993896484375</ele>
        <time>2026-08-05T11:51:49.000Z</time>
        <extensions>
          <ns3:TrackPointExtension>
            <ns3:hr>80</ns3:hr>
            <ns3:cad>0</ns3:cad>
          </ns3:TrackPointExtension>
        </extensions>
      </trkpt>
      <trkpt lat="43.46115298569202423095703125" lon="1.42544724047183990478515625">
        <ele>162.399993896484375</ele>
        <time>2026-08-05T11:51:50.000Z</time>
        <extensions>
          <ns3:TrackPointExtension>
            <ns3:hr>80</ns3:hr>
            <ns3:cad>0</ns3:cad>
          </ns3:TrackPointExtension>
        </extensions>
      </trkpt>
      <trkpt lat="43.46114418469369411468505859375" lon="1.42544480971992015838623046875">
        <ele>162.399993896484375</ele>
        <time>2026-08-05T11:51:51.000Z</time>
        <extensions>
          <ns3:TrackPointExtension>
            <ns3:hr>79</ns3:hr>
            <ns3:cad>0</ns3:cad>
          </ns3:TrackPointExtension>
        </extensions>
      </trkpt>
      <trkpt lat="43.4611357189714908599853515625" lon="1.42544363625347614288330078125">
        <ele>162.1999969482421875</ele>
        <time>2026-08-05T11:51:52.000Z</time>
        <extensions>
          <ns3:TrackPointExtension>
            <ns3:hr>79</ns3:hr>
            <ns3:cad>0</ns3:cad>
          </ns3:TrackPointExtension>
        </extensions>
      </trkpt>
      <trkpt lat="43.46112742088735103607177734375" lon="1.4254333265125751495361328125">
        <ele>162.1999969482421875</ele>
        <time>2026-08-05T11:51:53.000Z</time>
        <extensions>
          <ns3:TrackPointExtension>
            <ns3:hr>79</ns3:hr>
            <ns3:cad>0</ns3:cad>
          </ns3:TrackPointExtension>
        </extensions>
      </trkpt>
      <trkpt lat="43.46111518330872058868408203125" lon="1.42543257214128971099853515625">
        <ele>162.1999969482421875</ele>
        <time>2026-08-05T11:51:54.000Z</time>
        <extensions>
          <ns3:TrackPointExtension>
            <ns3:hr>77</ns3:hr>
            <ns3:cad>0</ns3:cad>
          </ns3:TrackPointExtension>
        </extensions>
      </trkpt>
      <trkpt lat="43.461103029549121856689453125" lon="1.425428800284862518310546875">
        <ele>162.1999969482421875</ele>
        <time>2026-08-05T11:51:55.000Z</time>
        <extensions>
          <ns3:TrackPointExtension>
            <ns3:hr>76</ns3:hr>
            <ns3:cad>45</ns3:cad>
          </ns3:TrackPointExtension>
        </extensions>
      </trkpt>
      <trkpt lat="43.46109204925596714019775390625" lon="1.425423435866832733154296875">
        <ele>162</ele>
        <time>2026-08-05T11:51:56.000Z</time>
        <extensions>
          <ns3:TrackPointExtension>
            <ns3:hr>76</ns3:hr>
            <ns3:cad>46</ns3:cad>
          </ns3:TrackPointExtension>
        </extensions>
      </trkpt>
      <trkpt lat="43.46108031459152698516845703125" lon="1.4254172332584857940673828125">
        <ele>162</ele>
        <time>2026-08-05T11:51:57.000Z</time>
        <extensions>
          <ns3:TrackPointExtension>
            <ns3:hr>76</ns3:hr>
            <ns3:cad>47</ns3:cad>
          </ns3:TrackPointExtension>
        </extensions>
      </trkpt>
      <trkpt lat="43.46107142977416515350341796875" lon="1.42541329376399517059326171875">
        <ele>162</ele>
        <time>2026-08-05T11:51:58.000Z</time>
        <extensions>
          <ns3:TrackPointExtension>
            <ns3:hr>76</ns3:hr>
            <ns3:cad>47</ns3:cad>
          </ns3:TrackPointExtension>
        </extensions>
      </trkpt>
      <trkpt lat="43.4610619582235813140869140625" lon="1.42540927045047283172607421875">
        <ele>162</ele>
        <time>2026-08-05T11:51:59.000Z</time>
        <extensions>
          <ns3:TrackPointExtension>
            <ns3:hr>76</ns3:hr>
            <ns3:cad>48</ns3:cad>
          </ns3:TrackPointExtension>
        </extensions>
      </trkpt>
      <trkpt lat="43.46105131320655345916748046875" lon="1.42540507949888706207275390625">
        <ele>162</ele>
        <time>2026-08-05T11:52:00.000Z</time>
        <extensions>
          <ns3:TrackPointExtension>
            <ns3:hr>76</ns3:hr>
            <ns3:cad>48</ns3:cad>
          </ns3:TrackPointExtension>
        </extensions>
      </trkpt>
      <trkpt lat="43.4610384888947010040283203125" lon="1.4254023134708404541015625">
        <ele>161.8000030517578125</ele>
        <time>2026-08-05T11:52:01.000Z</time>
        <extensions>
          <ns3:TrackPointExtension>
            <ns3:hr>76</ns3:hr>
            <ns3:cad>48</ns3:cad>
          </ns3:TrackPointExtension>
        </extensions>
      </trkpt>
      <trkpt lat="43.46102968789637088775634765625" lon="1.4253944344818592071533203125">
        <ele>161.8000030517578125</ele>
        <time>2026-08-05T11:52:02.000Z</time>
        <extensions>
          <ns3:TrackPointExtension>
            <ns3:hr>76</ns3:hr>
            <ns3:cad>48</ns3:cad>
          </ns3:TrackPointExtension>
        </extensions>
      </trkpt>
      <trkpt lat="43.46102130599319934844970703125" lon="1.4253940992057323455810546875">
        <ele>161.8000030517578125</ele>
        <time>2026-08-05T11:52:03.000Z</time>
        <extensions>
          <ns3:TrackPointExtension>
            <ns3:hr>76</ns3:hr>
            <ns3:cad>49</ns3:cad>
          </ns3:TrackPointExtension>
        </extensions>
      </trkpt>
      <trkpt lat="43.4610130079090595245361328125" lon="1.42539233900606632232666015625">
        <ele>161.600006103515625</ele>
        <time>2026-08-05T11:52:04.000Z</time>
        <extensions>
          <ns3:TrackPointExtension>
            <ns3:hr>76</ns3:hr>
            <ns3:cad>49</ns3:cad>
          </ns3:TrackPointExtension>
        </extensions>
      </trkpt>
      <trkpt lat="43.4610019437968730926513671875" lon="1.42538898624479770660400390625">
        <ele>161.600006103515625</ele>
        <time>2026-08-05T11:52:05.000Z</time>
        <extensions>
          <ns3:TrackPointExtension>
            <ns3:hr>76</ns3:hr>
            <ns3:cad>49</ns3:cad>
          </ns3:TrackPointExtension>
        </extensions>
      </trkpt>
      <trkpt lat="43.46098979003727436065673828125" lon="1.42538881860673427581787109375">
        <ele>161.600006103515625</ele>
        <time>2026-08-05T11:52:06.000Z</time>
        <extensions>
          <ns3:TrackPointExtension>
            <ns3:hr>76</ns3:hr>
            <ns3:cad>48</ns3:cad>
          </ns3:TrackPointExtension>
        </extensions>
      </trkpt>
      <trkpt lat="43.4609767980873584747314453125" lon="1.42538563348352909088134765625">
        <ele>161.600006103515625</ele>
        <time>2026-08-05T11:52:07.000Z</time>
        <extensions>
          <ns3:TrackPointExtension>
            <ns3:hr>77</ns3:hr>
            <ns3:cad>48</ns3:cad>
          </ns3:TrackPointExtension>
        </extensions>
      </trkpt>
      <trkpt lat="43.46096883527934551239013671875" lon="1.42538261599838733673095703125">
        <ele>161.600006103515625</ele>
        <time>2026-08-05T11:52:08.000Z</time>
        <extensions>
          <ns3:TrackPointExtension>
            <ns3:hr>77</ns3:hr>
            <ns3:cad>48</ns3:cad>
          </ns3:TrackPointExtension>
        </extensions>
      </trkpt>
      <trkpt lat="43.46096120774745941162109375" lon="1.42537926323711872100830078125">
        <ele>161.399993896484375</ele>
        <time>2026-08-05T11:52:09.000Z</time>
        <extensions>
          <ns3:TrackPointExtension>
            <ns3:hr>77</ns3:hr>
            <ns3:cad>48</ns3:cad>
          </ns3:TrackPointExtension>
        </extensions>
      </trkpt>
      <trkpt lat="43.46094821579754352569580078125" lon="1.425378508865833282470703125">
        <ele>161.399993896484375</ele>
        <time>2026-08-05T11:52:10.000Z</time>
        <extensions>
          <ns3:TrackPointExtension>
            <ns3:hr>77</ns3:hr>
            <ns3:cad>48</ns3:cad>
          </ns3:TrackPointExtension>
        </extensions>
      </trkpt>
      <trkpt lat="43.46093748696148395538330078125" lon="1.4253781735897064208984375">
        <ele>161.399993896484375</ele>
        <time>2026-08-05T11:52:11.000Z</time>
        <extensions>
          <ns3:TrackPointExtension>
            <ns3:hr>76</ns3:hr>
            <ns3:cad>48</ns3:cad>
          </ns3:TrackPointExtension>
        </extensions>
      </trkpt>
      <trkpt lat="43.46092910505831241607666015625" lon="1.4253806881606578826904296875">
        <ele>161.399993896484375</ele>
        <time>2026-08-05T11:52:12.000Z</time>
        <extensions>
          <ns3:TrackPointExtension>
            <ns3:hr>77</ns3:hr>
            <ns3:cad>48</ns3:cad>
          </ns3:TrackPointExtension>
        </extensions>
      </trkpt>
      <trkpt lat="43.46091971732676029205322265625" lon="1.4253783412277698516845703125">
        <ele>161.399993896484375</ele>
        <time>2026-08-05T11:52:13.000Z</time>
        <extensions>
          <ns3:TrackPointExtension>
            <ns3:hr>77</ns3:hr>
            <ns3:cad>49</ns3:cad>
          </ns3:TrackPointExtension>
        </extensions>
      </trkpt>
      <trkpt lat="43.46090898849070072174072265625" lon="1.425379179418087005615234375">
        <ele>161.399993896484375</ele>
        <time>2026-08-05T11:52:14.000Z</time>
        <extensions>
          <ns3:TrackPointExtension>
            <ns3:hr>77</ns3:hr>
            <ns3:cad>49</ns3:cad>
          </ns3:TrackPointExtension>
        </extensions>
      </trkpt>
      <trkpt lat="43.460897170007228851318359375" lon="1.4253795146942138671875">
        <ele>161.399993896484375</ele>
        <time>2026-08-05T11:52:15.000Z</time>
        <extensions>
          <ns3:TrackPointExtension>
            <ns3:hr>77</ns3:hr>
            <ns3:cad>49</ns3:cad>
          </ns3:TrackPointExtension>
        </extensions>
      </trkpt>
      <trkpt lat="43.460886441171169281005859375" lon="1.425379849970340728759765625">
        <ele>161.399993896484375</ele>
        <time>2026-08-05T11:52:16.000Z</time>
        <extensions>
          <ns3:TrackPointExtension>
            <ns3:hr>77</ns3:hr>
            <ns3:cad>47</ns3:cad>
          </ns3:TrackPointExtension>
        </extensions>
      </trkpt>
      <trkpt lat="43.4608762152493000030517578125" lon="1.42538093961775302886962890625">
        <ele>161.399993896484375</ele>
        <time>2026-08-05T11:52:17.000Z</time>
        <extensions>
          <ns3:TrackPointExtension>
            <ns3:hr>77</ns3:hr>
            <ns3:cad>47</ns3:cad>
          </ns3:TrackPointExtension>
        </extensions>
      </trkpt>
      <trkpt lat="43.46086691133677959442138671875" lon="1.4253867231309413909912109375">
        <ele>161.1999969482421875</ele>
        <time>2026-08-05T11:52:18.000Z</time>
        <extensions>
          <ns3:TrackPointExtension>
            <ns3:hr>77</ns3:hr>
            <ns3:cad>46</ns3:cad>
          </ns3:TrackPointExtension>
        </extensions>
      </trkpt>
      <trkpt lat="43.46085366792976856231689453125" lon="1.4253927581012248992919921875">
        <ele>161.1999969482421875</ele>
        <time>2026-08-05T11:52:19.000Z</time>
        <extensions>
          <ns3:TrackPointExtension>
            <ns3:hr>77</ns3:hr>
            <ns3:cad>46</ns3:cad>
          </ns3:TrackPointExtension>
        </extensions>
      </trkpt>
      <trkpt lat="43.46084411256015300750732421875" lon="1.42539560794830322265625">
        <ele>161.1999969482421875</ele>
        <time>2026-08-05T11:52:20.000Z</time>
        <extensions>
          <ns3:TrackPointExtension>
            <ns3:hr>77</ns3:hr>
            <ns3:cad>46</ns3:cad>
          </ns3:TrackPointExtension>
        </extensions>
      </trkpt>
      <trkpt lat="43.460832126438617706298828125" lon="1.4253951050341129302978515625">
        <ele>161.1999969482421875</ele>
        <time>2026-08-05T11:52:21.000Z</time>
        <extensions>
          <ns3:TrackPointExtension>
            <ns3:hr>77</ns3:hr>
            <ns3:cad>47</ns3:cad>
          </ns3:TrackPointExtension>
        </extensions>
      </trkpt>
      <trkpt lat="43.46082231961190700531005859375" lon="1.425398290157318115234375">
        <ele>161.1999969482421875</ele>
        <time>2026-08-05T11:52:22.000Z</time>
        <extensions>
          <ns3:TrackPointExtension>
            <ns3:hr>76</ns3:hr>
            <ns3:cad>47</ns3:cad>
          </ns3:TrackPointExtension>
        </extensions>
      </trkpt>
      <trkpt lat="43.460811339318752288818359375" lon="1.4254068396985530853271484375">
        <ele>161.1999969482421875</ele>
        <time>2026-08-05T11:52:23.000Z</time>
        <extensions>
          <ns3:TrackPointExtension>
            <ns3:hr>76</ns3:hr>
            <ns3:cad>47</ns3:cad>
          </ns3:TrackPointExtension>
        </extensions>
      </trkpt>
      <trkpt lat="43.46080102957785129547119140625" lon="1.42541480250656604766845703125">
        <ele>161.399993896484375</ele>
        <time>2026-08-05T11:52:24.000Z</time>
        <extensions>
          <ns3:TrackPointExtension>
            <ns3:hr>76</ns3:hr>
            <ns3:cad>47</ns3:cad>
          </ns3:TrackPointExtension>
        </extensions>
      </trkpt>
      <trkpt lat="43.46079063601791858673095703125" lon="1.425420753657817840576171875">
        <ele>161.399993896484375</ele>
        <time>2026-08-05T11:52:25.000Z</time>
        <extensions>
          <ns3:TrackPointExtension>
            <ns3:hr>77</ns3:hr>
            <ns3:cad>45</ns3:cad>
          </ns3:TrackPointExtension>
        </extensions>
      </trkpt>
      <trkpt lat="43.46078208647668361663818359375" lon="1.42542351968586444854736328125">
        <ele>161.399993896484375</ele>
        <time>2026-08-05T11:52:26.000Z</time>
        <extensions>
          <ns3:TrackPointExtension>
            <ns3:hr>76</ns3:hr>
            <ns3:cad>45</ns3:cad>
          </ns3:TrackPointExtension>
        </extensions>
      </trkpt>
      <trkpt lat="43.4607729502022266387939453125" lon="1.42542737536132335662841796875">
        <ele>161.399993896484375</ele>
        <time>2026-08-05T11:52:27.000Z</time>
        <extensions>
          <ns3:TrackPointExtension>
            <ns3:hr>77</ns3:hr>
            <ns3:cad>48</ns3:cad>
          </ns3:TrackPointExtension>
        </extensions>
      </trkpt>
      <trkpt lat="43.46076213754713535308837890625" lon="1.42543760128319263458251953125">
        <ele>161.399993896484375</ele>
        <time>2026-08-05T11:52:28.000Z</time>
        <extensions>
          <ns3:TrackPointExtension>
            <ns3:hr>76</ns3:hr>
            <ns3:cad>48</ns3:cad>
          </ns3:TrackPointExtension>
        </extensions>
      </trkpt>
      <trkpt lat="43.4607540071010589599609375" lon="1.4254447259008884429931640625">
        <ele>161.399993896484375</ele>
        <time>2026-08-05T11:52:29.000Z</time>
        <extensions>
          <ns3:TrackPointExtension>
            <ns3:hr>77</ns3:hr>
            <ns3:cad>48</ns3:cad>
          </ns3:TrackPointExtension>
        </extensions>
      </trkpt>
      <trkpt lat="43.4607474692165851593017578125" lon="1.42545134760439395904541015625">
        <ele>161.399993896484375</ele>
        <time>2026-08-05T11:52:30.000Z</time>
        <extensions>
          <ns3:TrackPointExtension>
            <ns3:hr>76</ns3:hr>
            <ns3:cad>48</ns3:cad>
          </ns3:TrackPointExtension>
        </extensions>
      </trkpt>
      <trkpt lat="43.4607394225895404815673828125" lon="1.42545872367918491363525390625">
        <ele>161.399993896484375</ele>
        <time>2026-08-05T11:52:31.000Z</time>
        <extensions>
          <ns3:TrackPointExtension>
            <ns3:hr>77</ns3:hr>
            <ns3:cad>48</ns3:cad>
          </ns3:TrackPointExtension>
        </extensions>
      </trkpt>
      <trkpt lat="43.4607293643057346343994140625" lon="1.4254685305058956146240234375">
        <ele>161.399993896484375</ele>
        <time>2026-08-05T11:52:32.000Z</time>
        <extensions>
          <ns3:TrackPointExtension>
            <ns3:hr>77</ns3:hr>
            <ns3:cad>47</ns3:cad>
          </ns3:TrackPointExtension>
        </extensions>
      </trkpt>
      <trkpt lat="43.4607199765741825103759765625" lon="1.425475738942623138427734375">
        <ele>161.399993896484375</ele>
        <time>2026-08-05T11:52:33.000Z</time>
        <extensions>
          <ns3:TrackPointExtension>
            <ns3:hr>77</ns3:hr>
            <ns3:cad>47</ns3:cad>
          </ns3:TrackPointExtension>
        </extensions>
      </trkpt>
      <trkpt lat="43.46071176230907440185546875" lon="1.42548319883644580841064453125">
        <ele>161.399993896484375</ele>
        <time>2026-08-05T11:52:34.000Z</time>
        <extensions>
          <ns3:TrackPointExtension>
            <ns3:hr>77</ns3:hr>
            <ns3:cad>47</ns3:cad>
          </ns3:TrackPointExtension>
        </extensions>
      </trkpt>
      <trkpt lat="43.4607017040252685546875" lon="1.4254883117973804473876953125">
        <ele>161.399993896484375</ele>
        <time>2026-08-05T11:52:35.000Z</time>
        <extensions>
          <ns3:TrackPointExtension>
            <ns3:hr>78</ns3:hr>
            <ns3:cad>47</ns3:cad>
          </ns3:TrackPointExtension>
        </extensions>
      </trkpt>
      <trkpt lat="43.4606911428272724151611328125" lon="1.425491832196712493896484375">
        <ele>161.399993896484375</ele>
        <time>2026-08-05T11:52:36.000Z</time>
        <extensions>
          <ns3:TrackPointExtension>
            <ns3:hr>78</ns3:hr>
            <ns3:cad>47</ns3:cad>
          </ns3:TrackPointExtension>
        </extensions>
      </trkpt>
      <trkpt lat="43.46068091690540313720703125" lon="1.42550356686115264892578125">
        <ele>161.399993896484375</ele>
        <time>2026-08-05T11:52:37.000Z</time>
        <extensions>
          <ns3:TrackPointExtension>
            <ns3:hr>79</ns3:hr>
            <ns3:cad>47</ns3:cad>
          </ns3:TrackPointExtension>
        </extensions>
      </trkpt>
      <trkpt lat="43.46067144535481929779052734375" lon="1.42551639117300510406494140625">
        <ele>161.399993896484375</ele>
        <time>2026-08-05T11:52:38.000Z</time>
        <extensions>
          <ns3:TrackPointExtension>
            <ns3:hr>79</ns3:hr>
            <ns3:cad>47</ns3:cad>
          </ns3:TrackPointExtension>
        </extensions>
      </trkpt>
      <trkpt lat="43.46066356636583805084228515625" lon="1.4255248568952083587646484375">
        <ele>161.399993896484375</ele>
        <time>2026-08-05T11:52:39.000Z</time>
        <extensions>
          <ns3:TrackPointExtension>
            <ns3:hr>79</ns3:hr>
            <ns3:cad>47</ns3:cad>
          </ns3:TrackPointExtension>
        </extensions>
      </trkpt>
      <trkpt lat="43.460653088986873626708984375" lon="1.4255268685519695281982421875">
        <ele>161.399993896484375</ele>
        <time>2026-08-05T11:52:40.000Z</time>
        <extensions>
          <ns3:TrackPointExtension>
            <ns3:hr>80</ns3:hr>
            <ns3:cad>47</ns3:cad>
          </ns3:TrackPointExtension>
        </extensions>
      </trkpt>
      <trkpt lat="43.460644371807575225830078125" lon="1.42553449608385562896728515625">
        <ele>161.399993896484375</ele>
        <time>2026-08-05T11:52:41.000Z</time>
        <extensions>
          <ns3:TrackPointExtension>
            <ns3:hr>80</ns3:hr>
            <ns3:cad>48</ns3:cad>
          </ns3:TrackPointExtension>
        </extensions>
      </trkpt>
      <trkpt lat="43.46063196659088134765625" lon="1.4255446381866931915283203125">
        <ele>161.600006103515625</ele>
        <time>2026-08-05T11:52:42.000Z</time>
        <extensions>
          <ns3:TrackPointExtension>
            <ns3:hr>81</ns3:hr>
            <ns3:cad>48</ns3:cad>
          </ns3:TrackPointExtension>
        </extensions>
      </trkpt>
      <trkpt lat="43.46062165684998035430908203125" lon="1.42555586993694305419921875">
        <ele>161.600006103515625</ele>
        <time>2026-08-05T11:52:43.000Z</time>
        <extensions>
          <ns3:TrackPointExtension>
            <ns3:hr>81</ns3:hr>
            <ns3:cad>49</ns3:cad>
          </ns3:TrackPointExtension>
        </extensions>
      </trkpt>
      <trkpt lat="43.460613191127777099609375" lon="1.42556416802108287811279296875">
        <ele>161.600006103515625</ele>
        <time>2026-08-05T11:52:44.000Z</time>
        <extensions>
          <ns3:TrackPointExtension>
            <ns3:hr>82</ns3:hr>
            <ns3:cad>49</ns3:cad>
          </ns3:TrackPointExtension>
        </extensions>
      </trkpt>
      <trkpt lat="43.46060405485332012176513671875" lon="1.42556601203978061676025390625">
        <ele>161.600006103515625</ele>
        <time>2026-08-05T11:52:45.000Z</time>
        <extensions>
          <ns3:TrackPointExtension>
            <ns3:hr>82</ns3:hr>
            <ns3:cad>47</ns3:cad>
          </ns3:TrackPointExtension>
        </extensions>
      </trkpt>
      <trkpt lat="43.460596762597560882568359375" lon="1.4255738072097301483154296875">
        <ele>161.600006103515625</ele>
        <time>2026-08-05T11:52:46.000Z</time>
        <extensions>
          <ns3:TrackPointExtension>
            <ns3:hr>82</ns3:hr>
            <ns3:cad>47</ns3:cad>
          </ns3:TrackPointExtension>
        </extensions>
      </trkpt>
      <trkpt lat="43.46058896742761135101318359375" lon="1.42558730207383632659912109375">
        <ele>161.600006103515625</ele>
        <time>2026-08-05T11:52:47.000Z</time>
        <extensions>
          <ns3:TrackPointExtension>
            <ns3:hr>83</ns3:hr>
            <ns3:cad>47</ns3:cad>
          </ns3:TrackPointExtension>
        </extensions>
      </trkpt>
      <trkpt lat="43.46058008261024951934814453125" lon="1.42559836618602275848388671875">
        <ele>161.600006103515625</ele>
        <time>2026-08-05T11:52:48.000Z</time>
        <extensions>
          <ns3:TrackPointExtension>
            <ns3:hr>83</ns3:hr>
            <ns3:cad>47</ns3:cad>
          </ns3:TrackPointExtension>
        </extensions>
      </trkpt>
      <trkpt lat="43.460570611059665679931640625" lon="1.425602473318576812744140625">
        <ele>161.600006103515625</ele>
        <time>2026-08-05T11:52:49.000Z</time>
        <extensions>
          <ns3:TrackPointExtension>
            <ns3:hr>83</ns3:hr>
            <ns3:cad>48</ns3:cad>
          </ns3:TrackPointExtension>
        </extensions>
      </trkpt>
      <trkpt lat="43.4605613909661769866943359375" lon="1.425607837736606597900390625">
        <ele>161.8000030517578125</ele>
        <time>2026-08-05T11:52:50.000Z</time>
        <extensions>
          <ns3:TrackPointExtension>
            <ns3:hr>83</ns3:hr>
            <ns3:cad>48</ns3:cad>
          </ns3:TrackPointExtension>
        </extensions>
      </trkpt>
      <trkpt lat="43.4605513326823711395263671875" lon="1.4256157167255878448486328125">
        <ele>161.8000030517578125</ele>
        <time>2026-08-05T11:52:51.000Z</time>
        <extensions>
          <ns3:TrackPointExtension>
            <ns3:hr>84</ns3:hr>
            <ns3:cad>48</ns3:cad>
          </ns3:TrackPointExtension>
        </extensions>
      </trkpt>
      <trkpt lat="43.4605421125888824462890625" lon="1.42562820576131343841552734375">
        <ele>161.8000030517578125</ele>
        <time>2026-08-05T11:52:52.000Z</time>
        <extensions>
          <ns3:TrackPointExtension>
            <ns3:hr>84</ns3:hr>
            <ns3:cad>48</ns3:cad>
          </ns3:TrackPointExtension>
        </extensions>
      </trkpt>
      <trkpt lat="43.4605345688760280609130859375" lon="1.42563826404511928558349609375">
        <ele>161.8000030517578125</ele>
        <time>2026-08-05T11:52:53.000Z</time>
        <extensions>
          <ns3:TrackPointExtension>
            <ns3:hr>83</ns3:hr>
            <ns3:cad>47</ns3:cad>
          </ns3:TrackPointExtension>
        </extensions>
      </trkpt>
      <trkpt lat="43.46053012646734714508056640625" lon="1.42564496956765651702880859375">
        <ele>161.8000030517578125</ele>
        <time>2026-08-05T11:52:54.000Z</time>
        <extensions>
          <ns3:TrackPointExtension>
            <ns3:hr>83</ns3:hr>
            <ns3:cad>47</ns3:cad>
          </ns3:TrackPointExtension>
        </extensions>
      </trkpt>
      <trkpt lat="43.46052157692611217498779296875" lon="1.4256556145846843719482421875">
        <ele>161.8000030517578125</ele>
        <time>2026-08-05T11:52:55.000Z</time>
        <extensions>
          <ns3:TrackPointExtension>
            <ns3:hr>83</ns3:hr>
            <ns3:cad>47</ns3:cad>
          </ns3:TrackPointExtension>
        </extensions>
      </trkpt>
      <trkpt lat="43.4605131112039089202880859375" lon="1.42566424794495105743408203125">
        <ele>161.8000030517578125</ele>
        <time>2026-08-05T11:52:56.000Z</time>
        <extensions>
          <ns3:TrackPointExtension>
            <ns3:hr>83</ns3:hr>
            <ns3:cad>47</ns3:cad>
          </ns3:TrackPointExtension>
        </extensions>
      </trkpt>
      <trkpt lat="43.46050296910107135772705078125" lon="1.425671875476837158203125">
        <ele>162</ele>
        <time>2026-08-05T11:52:57.000Z</time>
        <extensions>
          <ns3:TrackPointExtension>
            <ns3:hr>83</ns3:hr>
            <ns3:cad>47</ns3:cad>
          </ns3:TrackPointExtension>
        </extensions>
      </trkpt>
      <trkpt lat="43.46049358136951923370361328125" lon="1.42567656934261322021484375">
        <ele>162</ele>
        <time>2026-08-05T11:52:58.000Z</time>
        <extensions>
          <ns3:TrackPointExtension>
            <ns3:hr>83</ns3:hr>
            <ns3:cad>47</ns3:cad>
          </ns3:TrackPointExtension>
        </extensions>
      </trkpt>
      <trkpt lat="43.46048436127603054046630859375" lon="1.42568134702742099761962890625">
        <ele>162</ele>
        <time>2026-08-05T11:52:59.000Z</time>
        <extensions>
          <ns3:TrackPointExtension>
            <ns3:hr>84</ns3:hr>
            <ns3:cad>47</ns3:cad>
          </ns3:TrackPointExtension>
        </extensions>
      </trkpt>
      <trkpt lat="43.46047212369740009307861328125" lon="1.4256914891302585601806640625">
        <ele>162</ele>
        <time>2026-08-05T11:53:00.000Z</time>
        <extensions>
          <ns3:TrackPointExtension>
            <ns3:hr>84</ns3:hr>
            <ns3:cad>47</ns3:cad>
          </ns3:TrackPointExtension>
        </extensions>
      </trkpt>
      <trkpt lat="43.4604614786803722381591796875" lon="1.42569978721439838409423828125">
        <ele>162</ele>
        <time>2026-08-05T11:53:01.000Z</time>
        <extensions>
          <ns3:TrackPointExtension>
            <ns3:hr>85</ns3:hr>
            <ns3:cad>47</ns3:cad>
          </ns3:TrackPointExtension>
        </extensions>
      </trkpt>
      <trkpt lat="43.460452258586883544921875" lon="1.42570280469954013824462890625">
        <ele>162.1999969482421875</ele>
        <time>2026-08-05T11:53:02.000Z</time>
        <extensions>
          <ns3:TrackPointExtension>
            <ns3:hr>85</ns3:hr>
            <ns3:cad>47</ns3:cad>
          </ns3:TrackPointExtension>
        </extensions>
      </trkpt>
      <trkpt lat="43.46044278703629970550537109375" lon="1.4257027208805084228515625">
        <ele>162.1999969482421875</ele>
        <time>2026-08-05T11:53:03.000Z</time>
        <extensions>
          <ns3:TrackPointExtension>
            <ns3:hr>84</ns3:hr>
            <ns3:cad>48</ns3:cad>
          </ns3:TrackPointExtension>
        </extensions>
      </trkpt>
      <trkpt lat="43.46043356694281101226806640625" lon="1.4257126115262508392333984375">
        <ele>162.1999969482421875</ele>
        <time>2026-08-05T11:53:04.000Z</time>
        <extensions>
          <ns3:TrackPointExtension>
            <ns3:hr>84</ns3:hr>
            <ns3:cad>48</ns3:cad>
          </ns3:TrackPointExtension>
        </extensions>
      </trkpt>
      <trkpt lat="43.460424430668354034423828125" lon="1.42572459764778614044189453125">
        <ele>162.399993896484375</ele>
        <time>2026-08-05T11:53:05.000Z</time>
        <extensions>
          <ns3:TrackPointExtension>
            <ns3:hr>84</ns3:hr>
            <ns3:cad>48</ns3:cad>
          </ns3:TrackPointExtension>
        </extensions>
      </trkpt>
      <trkpt lat="43.460418395698070526123046875" lon="1.42573214136064052581787109375">
        <ele>162.399993896484375</ele>
        <time>2026-08-05T11:53:06.000Z</time>
        <extensions>
          <ns3:TrackPointExtension>
            <ns3:hr>84</ns3:hr>
            <ns3:cad>47</ns3:cad>
          </ns3:TrackPointExtension>
        </extensions>
      </trkpt>
      <trkpt lat="43.46040942706167697906494140625" lon="1.42574152909219264984130859375">
        <ele>162.399993896484375</ele>
        <time>2026-08-05T11:53:07.000Z</time>
        <extensions>
          <ns3:TrackPointExtension>
            <ns3:hr>84</ns3:hr>
            <ns3:cad>47</ns3:cad>
          </ns3:TrackPointExtension>
        </extensions>
      </trkpt>
      <trkpt lat="43.4604007937014102935791015625" lon="1.4257481507956981658935546875">
        <ele>162.399993896484375</ele>
        <time>2026-08-05T11:53:08.000Z</time>
        <extensions>
          <ns3:TrackPointExtension>
            <ns3:hr>84</ns3:hr>
            <ns3:cad>47</ns3:cad>
          </ns3:TrackPointExtension>
        </extensions>
      </trkpt>
      <trkpt lat="43.46038646064698696136474609375" lon="1.425765417516231536865234375">
        <ele>162.399993896484375</ele>
        <time>2026-08-05T11:53:09.000Z</time>
        <extensions>
          <ns3:TrackPointExtension>
            <ns3:hr>85</ns3:hr>
            <ns3:cad>47</ns3:cad>
          </ns3:TrackPointExtension>
        </extensions>
      </trkpt>
      <trkpt lat="43.460375480353832244873046875" lon="1.42577941529452800750732421875">
        <ele>162.399993896484375</ele>
        <time>2026-08-05T11:53:10.000Z</time>
        <extensions>
          <ns3:TrackPointExtension>
            <ns3:hr>85</ns3:hr>
            <ns3:cad>48</ns3:cad>
          </ns3:TrackPointExtension>
        </extensions>
      </trkpt>
      <trkpt lat="43.4603665955364704132080078125" lon="1.42578377388417720794677734375">
        <ele>162.399993896484375</ele>
        <time>2026-08-05T11:53:11.000Z</time>
        <extensions>
          <ns3:TrackPointExtension>
            <ns3:hr>85</ns3:hr>
            <ns3:cad>48</ns3:cad>
          </ns3:TrackPointExtension>
        </extensions>
      </trkpt>
      <trkpt lat="43.4603555314242839813232421875" lon="1.42579383216798305511474609375">
        <ele>162.399993896484375</ele>
        <time>2026-08-05T11:53:12.000Z</time>
        <extensions>
          <ns3:TrackPointExtension>
            <ns3:hr>86</ns3:hr>
            <ns3:cad>48</ns3:cad>
          </ns3:TrackPointExtension>
        </extensions>
      </trkpt>
      <trkpt lat="43.4603461436927318572998046875" lon="1.42580389045178890228271484375">
        <ele>162.399993896484375</ele>
        <time>2026-08-05T11:53:13.000Z</time>
        <extensions>
          <ns3:TrackPointExtension>
            <ns3:hr>87</ns3:hr>
            <ns3:cad>48</ns3:cad>
          </ns3:TrackPointExtension>
        </extensions>
      </trkpt>
      <trkpt lat="43.4603360854089260101318359375" lon="1.42581143416464328765869140625">
        <ele>162.1999969482421875</ele>
        <time>2026-08-05T11:53:14.000Z</time>
        <extensions>
          <ns3:TrackPointExtension>
            <ns3:hr>88</ns3:hr>
            <ns3:cad>47</ns3:cad>
          </ns3:TrackPointExtension>
        </extensions>
      </trkpt>
      <trkpt lat="43.4603273682296276092529296875" lon="1.42582400701940059661865234375">
        <ele>162.1999969482421875</ele>
        <time>2026-08-05T11:53:15.000Z</time>
        <extensions>
          <ns3:TrackPointExtension>
            <ns3:hr>88</ns3:hr>
            <ns3:cad>47</ns3:cad>
          </ns3:TrackPointExtension>
        </extensions>
      </trkpt>
      <trkpt lat="43.4603163041174411773681640625" lon="1.42583607695996761322021484375">
        <ele>162</ele>
        <time>2026-08-05T11:53:16.000Z</time>
        <extensions>
          <ns3:TrackPointExtension>
            <ns3:hr>88</ns3:hr>
            <ns3:cad>48</ns3:cad>
          </ns3:TrackPointExtension>
        </extensions>
      </trkpt>
      <trkpt lat="43.460305742919445037841796875" lon="1.425847895443439483642578125">
        <ele>162</ele>
        <time>2026-08-05T11:53:17.000Z</time>
        <extensions>
          <ns3:TrackPointExtension>
            <ns3:hr>89</ns3:hr>
            <ns3:cad>48</ns3:cad>
          </ns3:TrackPointExtension>
        </extensions>
      </trkpt>
      <trkpt lat="43.4602953493595123291015625" lon="1.4258571155369281768798828125">
        <ele>162</ele>
        <time>2026-08-05T11:53:18.000Z</time>
        <extensions>
          <ns3:TrackPointExtension>
            <ns3:hr>88</ns3:hr>
            <ns3:cad>49</ns3:cad>
          </ns3:TrackPointExtension>
        </extensions>
      </trkpt>
      <trkpt lat="43.46028470434248447418212890625" lon="1.425866000354290008544921875">
        <ele>162</ele>
        <time>2026-08-05T11:53:19.000Z</time>
        <extensions>
          <ns3:TrackPointExtension>
            <ns3:hr>88</ns3:hr>
            <ns3:cad>49</ns3:cad>
          </ns3:TrackPointExtension>
        </extensions>
      </trkpt>
      <trkpt lat="43.460274897515773773193359375" lon="1.42587329261004924774169921875">
        <ele>161.8000030517578125</ele>
        <time>2026-08-05T11:53:20.000Z</time>
        <extensions>
          <ns3:TrackPointExtension>
            <ns3:hr>88</ns3:hr>
            <ns3:cad>50</ns3:cad>
          </ns3:TrackPointExtension>
        </extensions>
      </trkpt>
      <trkpt lat="43.46026743762195110321044921875" lon="1.42588175833225250244140625">
        <ele>161.8000030517578125</ele>
        <time>2026-08-05T11:53:21.000Z</time>
        <extensions>
          <ns3:TrackPointExtension>
            <ns3:hr>89</ns3:hr>
            <ns3:cad>50</ns3:cad>
          </ns3:TrackPointExtension>
        </extensions>
      </trkpt>
      <trkpt lat="43.46026115119457244873046875" lon="1.42589793540537357330322265625">
        <ele>161.8000030517578125</ele>
        <time>2026-08-05T11:53:22.000Z</time>
        <extensions>
          <ns3:TrackPointExtension>
            <ns3:hr>88</ns3:hr>
            <ns3:cad>51</ns3:cad>
          </ns3:TrackPointExtension>
        </extensions>
      </trkpt>
      <trkpt lat="43.46025176346302032470703125" lon="1.42590992152690887451171875">
        <ele>161.8000030517578125</ele>
        <time>2026-08-05T11:53:23.000Z</time>
        <extensions>
          <ns3:TrackPointExtension>
            <ns3:hr>88</ns3:hr>
            <ns3:cad>52</ns3:cad>
          </ns3:TrackPointExtension>
        </extensions>
      </trkpt>
      <trkpt lat="43.4602425433695316314697265625" lon="1.42592006362974643707275390625">
        <ele>161.600006103515625</ele>
        <time>2026-08-05T11:53:24.000Z</time>
        <extensions>
          <ns3:TrackPointExtension>
            <ns3:hr>87</ns3:hr>
            <ns3:cad>52</ns3:cad>
          </ns3:TrackPointExtension>
        </extensions>
      </trkpt>
      <trkpt lat="43.4602334909141063690185546875" lon="1.42592735588550567626953125">
        <ele>161.600006103515625</ele>
        <time>2026-08-05T11:53:25.000Z</time>
        <extensions>
          <ns3:TrackPointExtension>
            <ns3:hr>87</ns3:hr>
            <ns3:cad>52</ns3:cad>
          </ns3:TrackPointExtension>
        </extensions>
      </trkpt>
      <trkpt lat="43.46022502519190311431884765625" lon="1.42593297176063060760498046875">
        <ele>161.600006103515625</ele>
        <time>2026-08-05T11:53:26.000Z</time>
        <extensions>
          <ns3:TrackPointExtension>
            <ns3:hr>87</ns3:hr>
            <ns3:cad>51</ns3:cad>
          </ns3:TrackPointExtension>
        </extensions>
      </trkpt>
      <trkpt lat="43.4602153860032558441162109375" lon="1.42594185657799243927001953125">
        <ele>161.600006103515625</ele>
        <time>2026-08-05T11:53:27.000Z</time>
        <extensions>
          <ns3:TrackPointExtension>
            <ns3:hr>87</ns3:hr>
            <ns3:cad>51</ns3:cad>
          </ns3:TrackPointExtension>
        </extensions>
      </trkpt>
      <trkpt lat="43.460205160081386566162109375" lon="1.42595560289919376373291015625">
        <ele>161.399993896484375</ele>
        <time>2026-08-05T11:53:28.000Z</time>
        <extensions>
          <ns3:TrackPointExtension>
            <ns3:hr>87</ns3:hr>
            <ns3:cad>50</ns3:cad>
          </ns3:TrackPointExtension>
        </extensions>
      </trkpt>
      <trkpt lat="43.4601945988833904266357421875" lon="1.4259650744497776031494140625">
        <ele>161.399993896484375</ele>
        <time>2026-08-05T11:53:29.000Z</time>
        <extensions>
          <ns3:TrackPointExtension>
            <ns3:hr>87</ns3:hr>
            <ns3:cad>50</ns3:cad>
          </ns3:TrackPointExtension>
        </extensions>
      </trkpt>
      <trkpt lat="43.46018479205667972564697265625" lon="1.42597295343875885009765625">
        <ele>161.399993896484375</ele>
        <time>2026-08-05T11:53:30.000Z</time>
        <extensions>
          <ns3:TrackPointExtension>
            <ns3:hr>87</ns3:hr>
            <ns3:cad>49</ns3:cad>
          </ns3:TrackPointExtension>
        </extensions>
      </trkpt>
      <trkpt lat="43.46017607487738132476806640625" lon="1.42597957514226436614990234375">
        <ele>161.399993896484375</ele>
        <time>2026-08-05T11:53:31.000Z</time>
        <extensions>
          <ns3:TrackPointExtension>
            <ns3:hr>87</ns3:hr>
            <ns3:cad>49</ns3:cad>
          </ns3:TrackPointExtension>
        </extensions>
      </trkpt>
      <trkpt lat="43.46016769297420978546142578125" lon="1.4259868673980236053466796875">
        <ele>161.399993896484375</ele>
        <time>2026-08-05T11:53:32.000Z</time>
        <extensions>
          <ns3:TrackPointExtension>
            <ns3:hr>86</ns3:hr>
            <ns3:cad>49</ns3:cad>
          </ns3:TrackPointExtension>
        </extensions>
      </trkpt>
      <trkpt lat="43.46015981398522853851318359375" lon="1.425996758043766021728515625">
        <ele>161.399993896484375</ele>
        <time>2026-08-05T11:53:33.000Z</time>
        <extensions>
          <ns3:TrackPointExtension>
            <ns3:hr>87</ns3:hr>
            <ns3:cad>49</ns3:cad>
          </ns3:TrackPointExtension>
        </extensions>
      </trkpt>
      <trkpt lat="43.46015126444399356842041015625" lon="1.42600824125111103057861328125">
        <ele>161.399993896484375</ele>
        <time>2026-08-05T11:53:34.000Z</time>
        <extensions>
          <ns3:TrackPointExtension>
            <ns3:hr>87</ns3:hr>
            <ns3:cad>49</ns3:cad>
          </ns3:TrackPointExtension>
        </extensions>
      </trkpt>
      <trkpt lat="43.4601426310837268829345703125" lon="1.42601846717298030853271484375">
        <ele>161.399993896484375</ele>
        <time>2026-08-05T11:53:35.000Z</time>
        <extensions>
          <ns3:TrackPointExtension>
            <ns3:hr>86</ns3:hr>
            <ns3:cad>49</ns3:cad>
          </ns3:TrackPointExtension>
        </extensions>
      </trkpt>
      <trkpt lat="43.4601335786283016204833984375" lon="1.4260271005332469940185546875">
        <ele>161.399993896484375</ele>
        <time>2026-08-05T11:53:36.000Z</time>
        <extensions>
          <ns3:TrackPointExtension>
            <ns3:hr>86</ns3:hr>
            <ns3:cad>49</ns3:cad>
          </ns3:TrackPointExtension>
        </extensions>
      </trkpt>
      <trkpt lat="43.46012427471578121185302734375" lon="1.42603204585611820220947265625">
        <ele>161.399993896484375</ele>
        <time>2026-08-05T11:53:37.000Z</time>
        <extensions>
          <ns3:TrackPointExtension>
            <ns3:hr>86</ns3:hr>
            <ns3:cad>49</ns3:cad>
          </ns3:TrackPointExtension>
        </extensions>
      </trkpt>
      <trkpt lat="43.46011388115584850311279296875" lon="1.4260378293693065643310546875">
        <ele>161.399993896484375</ele>
        <time>2026-08-05T11:53:38.000Z</time>
        <extensions>
          <ns3:TrackPointExtension>
            <ns3:hr>85</ns3:hr>
            <ns3:cad>49</ns3:cad>
          </ns3:TrackPointExtension>
        </extensions>
      </trkpt>
      <trkpt lat="43.46010298468172550201416015625" lon="1.426046378910541534423828125">
        <ele>161.399993896484375</ele>
        <time>2026-08-05T11:53:39.000Z</time>
        <extensions>
          <ns3:TrackPointExtension>
            <ns3:hr>85</ns3:hr>
            <ns3:cad>50</ns3:cad>
          </ns3:TrackPointExtension>
        </extensions>
      </trkpt>
      <trkpt lat="43.46009158529341220855712890625" lon="1.42605802975594997406005859375">
        <ele>161.399993896484375</ele>
        <time>2026-08-05T11:53:40.000Z</time>
        <extensions>
          <ns3:TrackPointExtension>
            <ns3:hr>85</ns3:hr>
            <ns3:cad>50</ns3:cad>
          </ns3:TrackPointExtension>
        </extensions>
      </trkpt>
      <trkpt lat="43.460083119571208953857421875" lon="1.4260666631162166595458984375">
        <ele>161.399993896484375</ele>
        <time>2026-08-05T11:53:41.000Z</time>
        <extensions>
          <ns3:TrackPointExtension>
            <ns3:hr>85</ns3:hr>
            <ns3:cad>50</ns3:cad>
          </ns3:TrackPointExtension>
        </extensions>
      </trkpt>
      <trkpt lat="43.46007297746837139129638671875" lon="1.42607278190553188323974609375">
        <ele>161.399993896484375</ele>
        <time>2026-08-05T11:53:42.000Z</time>
        <extensions>
          <ns3:TrackPointExtension>
            <ns3:hr>86</ns3:hr>
            <ns3:cad>50</ns3:cad>
          </ns3:TrackPointExtension>
        </extensions>
      </trkpt>
      <trkpt lat="43.4600641764700412750244140625" lon="1.4260770566761493682861328125">
        <ele>161.399993896484375</ele>
        <time>2026-08-05T11:53:43.000Z</time>
        <extensions>
          <ns3:TrackPointExtension>
            <ns3:hr>85</ns3:hr>
            <ns3:cad>50</ns3:cad>
          </ns3:TrackPointExtension>
        </extensions>
      </trkpt>
      <trkpt lat="43.46005604602396488189697265625" lon="1.42608518712222576141357421875">
        <ele>161.399993896484375</ele>
        <time>2026-08-05T11:53:44.000Z</time>
        <extensions>
          <ns3:TrackPointExtension>
            <ns3:hr>85</ns3:hr>
            <ns3:cad>50</ns3:cad>
          </ns3:TrackPointExtension>
        </extensions>
      </trkpt>
      <trkpt lat="43.4600450657308101654052734375" lon="1.42609591595828533172607421875">
        <ele>161.399993896484375</ele>
        <time>2026-08-05T11:53:45.000Z</time>
        <extensions>
          <ns3:TrackPointExtension>
            <ns3:hr>85</ns3:hr>
            <ns3:cad>50</ns3:cad>
          </ns3:TrackPointExtension>
        </extensions>
      </trkpt>
      <trkpt lat="43.4600323252379894256591796875" lon="1.42610932700335979461669921875">
        <ele>161.399993896484375</ele>
        <time>2026-08-05T11:53:46.000Z</time>
        <extensions>
          <ns3:TrackPointExtension>
            <ns3:hr>84</ns3:hr>
            <ns3:cad>50</ns3:cad>
          </ns3:TrackPointExtension>
        </extensions>
      </trkpt>
      <trkpt lat="43.4600215964019298553466796875" lon="1.42611804418265819549560546875">
        <ele>161.1999969482421875</ele>
        <time>2026-08-05T11:53:47.000Z</time>
        <extensions>
          <ns3:TrackPointExtension>
            <ns3:hr>84</ns3:hr>
            <ns3:cad>50</ns3:cad>
          </ns3:TrackPointExtension>
        </extensions>
      </trkpt>
      <trkpt lat="43.46001346595585346221923828125" lon="1.42612743191421031951904296875">
        <ele>161.1999969482421875</ele>
        <time>2026-08-05T11:53:48.000Z</time>
        <extensions>
          <ns3:TrackPointExtension>
            <ns3:hr>83</ns3:hr>
            <ns3:cad>50</ns3:cad>
          </ns3:TrackPointExtension>
        </extensions>
      </trkpt>
      <trkpt lat="43.46000508405268192291259765625" lon="1.426135562360286712646484375">
        <ele>161.1999969482421875</ele>
        <time>2026-08-05T11:53:49.000Z</time>
        <extensions>
          <ns3:TrackPointExtension>
            <ns3:hr>82</ns3:hr>
            <ns3:cad>50</ns3:cad>
          </ns3:TrackPointExtension>
        </extensions>
      </trkpt>
      <trkpt lat="43.45999670214951038360595703125" lon="1.426145620644092559814453125">
        <ele>161.1999969482421875</ele>
        <time>2026-08-05T11:53:50.000Z</time>
        <extensions>
          <ns3:TrackPointExtension>
            <ns3:hr>82</ns3:hr>
            <ns3:cad>50</ns3:cad>
          </ns3:TrackPointExtension>
        </extensions>
      </trkpt>
      <trkpt lat="43.4599843807518482208251953125" lon="1.42615668475627899169921875">
        <ele>161.1999969482421875</ele>
        <time>2026-08-05T11:53:51.000Z</time>
        <extensions>
          <ns3:TrackPointExtension>
            <ns3:hr>82</ns3:hr>
            <ns3:cad>50</ns3:cad>
          </ns3:TrackPointExtension>
        </extensions>
      </trkpt>
      <trkpt lat="43.45997440628707408905029296875" lon="1.426166407763957977294921875">
        <ele>161.1999969482421875</ele>
        <time>2026-08-05T11:53:52.000Z</time>
        <extensions>
          <ns3:TrackPointExtension>
            <ns3:hr>82</ns3:hr>
            <ns3:cad>50</ns3:cad>
          </ns3:TrackPointExtension>
        </extensions>
      </trkpt>
      <trkpt lat="43.45996719785034656524658203125" lon="1.426174454391002655029296875">
        <ele>161</ele>
        <time>2026-08-05T11:53:53.000Z</time>
        <extensions>
          <ns3:TrackPointExtension>
            <ns3:hr>81</ns3:hr>
            <ns3:cad>50</ns3:cad>
          </ns3:TrackPointExtension>
        </extensions>
      </trkpt>
      <trkpt lat="43.45995730720460414886474609375" lon="1.42618493176996707916259765625">
        <ele>161</ele>
        <time>2026-08-05T11:53:54.000Z</time>
        <extensions>
          <ns3:TrackPointExtension>
            <ns3:hr>81</ns3:hr>
            <ns3:cad>49</ns3:cad>
          </ns3:TrackPointExtension>
        </extensions>
      </trkpt>
      <trkpt lat="43.459949679672718048095703125" lon="1.42619297839701175689697265625">
        <ele>161</ele>
        <time>2026-08-05T11:53:55.000Z</time>
        <extensions>
          <ns3:TrackPointExtension>
            <ns3:hr>81</ns3:hr>
            <ns3:cad>49</ns3:cad>
          </ns3:TrackPointExtension>
        </extensions>
      </trkpt>
      <trkpt lat="43.4599399566650390625" lon="1.4262031204998493194580078125">
        <ele>161</ele>
        <time>2026-08-05T11:53:56.000Z</time>
        <extensions>
          <ns3:TrackPointExtension>
            <ns3:hr>81</ns3:hr>
            <ns3:cad>50</ns3:cad>
          </ns3:TrackPointExtension>
        </extensions>
      </trkpt>
      <trkpt lat="43.45992855727672576904296875" lon="1.42621091566979885101318359375">
        <ele>161</ele>
        <time>2026-08-05T11:53:57.000Z</time>
        <extensions>
          <ns3:TrackPointExtension>
            <ns3:hr>81</ns3:hr>
            <ns3:cad>50</ns3:cad>
          </ns3:TrackPointExtension>
        </extensions>
      </trkpt>
      <trkpt lat="43.459919504821300506591796875" lon="1.42622315324842929840087890625">
        <ele>161.1999969482421875</ele>
        <time>2026-08-05T11:53:58.000Z</time>
        <extensions>
          <ns3:TrackPointExtension>
            <ns3:hr>81</ns3:hr>
            <ns3:cad>49</ns3:cad>
          </ns3:TrackPointExtension>
        </extensions>
      </trkpt>
      <trkpt lat="43.45990953035652637481689453125" lon="1.426232792437076568603515625">
        <ele>161.1999969482421875</ele>
        <time>2026-08-05T11:53:59.000Z</time>
        <extensions>
          <ns3:TrackPointExtension>
            <ns3:hr>81</ns3:hr>
            <ns3:cad>49</ns3:cad>
          </ns3:TrackPointExtension>
        </extensions>
      </trkpt>
      <trkpt lat="43.45989771187305450439453125" lon="1.42624159343540668487548828125">
        <ele>161.1999969482421875</ele>
        <time>2026-08-05T11:54:00.000Z</time>
        <extensions>
          <ns3:TrackPointExtension>
            <ns3:hr>81</ns3:hr>
            <ns3:cad>49</ns3:cad>
          </ns3:TrackPointExtension>
        </extensions>
      </trkpt>
      <trkpt lat="43.45988824032247066497802734375" lon="1.42624947242438793182373046875">
        <ele>161.1999969482421875</ele>
        <time>2026-08-05T11:54:01.000Z</time>
        <extensions>
          <ns3:TrackPointExtension>
            <ns3:hr>81</ns3:hr>
            <ns3:cad>49</ns3:cad>
          </ns3:TrackPointExtension>
        </extensions>
      </trkpt>
      <trkpt lat="43.45987851731479167938232421875" lon="1.4262592792510986328125">
        <ele>161.1999969482421875</ele>
        <time>2026-08-05T11:54:02.000Z</time>
        <extensions>
          <ns3:TrackPointExtension>
            <ns3:hr>81</ns3:hr>
            <ns3:cad>49</ns3:cad>
          </ns3:TrackPointExtension>
        </extensions>
      </trkpt>
      <trkpt lat="43.4598713926970958709716796875" lon="1.42626808024942874908447265625">
        <ele>161.1999969482421875</ele>
        <time>2026-08-05T11:54:03.000Z</time>
        <extensions>
          <ns3:TrackPointExtension>
            <ns3:hr>81</ns3:hr>
            <ns3:cad>49</ns3:cad>
          </ns3:TrackPointExtension>
        </extensions>
      </trkpt>
      <trkpt lat="43.45986125059425830841064453125" lon="1.426279731094837188720703125">
        <ele>161.1999969482421875</ele>
        <time>2026-08-05T11:54:04.000Z</time>
        <extensions>
          <ns3:TrackPointExtension>
            <ns3:hr>81</ns3:hr>
            <ns3:cad>49</ns3:cad>
          </ns3:TrackPointExtension>
        </extensions>
      </trkpt>
      <trkpt lat="43.45985035412013530731201171875" lon="1.42629004083573818206787109375">
        <ele>161.1999969482421875</ele>
        <time>2026-08-05T11:54:05.000Z</time>
        <extensions>
          <ns3:TrackPointExtension>
            <ns3:hr>81</ns3:hr>
            <ns3:cad>50</ns3:cad>
          </ns3:TrackPointExtension>
        </extensions>
      </trkpt>
      <trkpt lat="43.459842391312122344970703125" lon="1.42629557289183139801025390625">
        <ele>161.399993896484375</ele>
        <time>2026-08-05T11:54:06.000Z</time>
        <extensions>
          <ns3:TrackPointExtension>
            <ns3:hr>81</ns3:hr>
            <ns3:cad>50</ns3:cad>
          </ns3:TrackPointExtension>
        </extensions>
      </trkpt>
      <trkpt lat="43.45983325503766536712646484375" lon="1.42629607580602169036865234375">
        <ele>161.399993896484375</ele>
        <time>2026-08-05T11:54:07.000Z</time>
        <extensions>
          <ns3:TrackPointExtension>
            <ns3:hr>82</ns3:hr>
            <ns3:cad>50</ns3:cad>
          </ns3:TrackPointExtension>
        </extensions>
      </trkpt>
      <trkpt lat="43.45982671715319156646728515625" lon="1.42629624344408512115478515625">
        <ele>161.399993896484375</ele>
        <time>2026-08-05T11:54:08.000Z</time>
        <extensions>
          <ns3:TrackPointExtension>
            <ns3:hr>83</ns3:hr>
            <ns3:cad>50</ns3:cad>
          </ns3:TrackPointExtension>
        </extensions>
      </trkpt>
      <trkpt lat="43.45982152037322521209716796875" lon="1.4262928068637847900390625">
        <ele>161.399993896484375</ele>
        <time>2026-08-05T11:54:09.000Z</time>
        <extensions>
          <ns3:TrackPointExtension>
            <ns3:hr>83</ns3:hr>
            <ns3:cad>48</ns3:cad>
          </ns3:TrackPointExtension>
        </extensions>
      </trkpt>
      <trkpt lat="43.459821604192256927490234375" lon="1.42628869973123073577880859375">
        <ele>161.399993896484375</ele>
        <time>2026-08-05T11:54:10.000Z</time>
        <extensions>
          <ns3:TrackPointExtension>
            <ns3:hr>84</ns3:hr>
            <ns3:cad>48</ns3:cad>
          </ns3:TrackPointExtension>
        </extensions>
      </trkpt>
      <trkpt lat="43.45982252620160579681396484375" lon="1.4262892864644527435302734375">
        <ele>161.399993896484375</ele>
        <time>2026-08-05T11:54:11.000Z</time>
        <extensions>
          <ns3:TrackPointExtension>
            <ns3:hr>84</ns3:hr>
            <ns3:cad>0</ns3:cad>
          </ns3:TrackPointExtension>
        </extensions>
      </trkpt>
      <trkpt lat="43.45982261002063751220703125" lon="1.4262892864644527435302734375">
        <ele>161.1999969482421875</ele>
        <time>2026-08-05T11:54:12.000Z</time>
        <extensions>
          <ns3:TrackPointExtension>
            <ns3:hr>83</ns3:hr>
            <ns3:cad>0</ns3:cad>
          </ns3:TrackPointExtension>
        </extensions>
      </trkpt>
      <trkpt lat="43.45982261002063751220703125" lon="1.4262892864644527435302734375">
        <ele>161.1999969482421875</ele>
        <time>2026-08-05T11:54:13.000Z</time>
        <extensions>
          <ns3:TrackPointExtension>
            <ns3:hr>83</ns3:hr>
            <ns3:cad>0</ns3:cad>
          </ns3:TrackPointExtension>
        </extensions>
      </trkpt>
      <trkpt lat="43.45982261002063751220703125" lon="1.4262892864644527435302734375">
        <ele>161.1999969482421875</ele>
        <time>2026-08-05T11:54:14.000Z</time>
        <extensions>
          <ns3:TrackPointExtension>
            <ns3:hr>83</ns3:hr>
            <ns3:cad>0</ns3:cad>
          </ns3:TrackPointExtension>
        </extensions>
      </trkpt>
      <trkpt lat="43.45982261002063751220703125" lon="1.4262892864644527435302734375">
        <ele>161.1999969482421875</ele>
        <time>2026-08-05T11:54:15.000Z</time>
        <extensions>
          <ns3:TrackPointExtension>
            <ns3:hr>84</ns3:hr>
            <ns3:cad>0</ns3:cad>
          </ns3:TrackPointExtension>
        </extensions>
      </trkpt>
      <trkpt lat="43.45982261002063751220703125" lon="1.4262892864644527435302734375">
        <ele>161.1999969482421875</ele>
        <time>2026-08-05T11:54:16.000Z</time>
        <extensions>
          <ns3:TrackPointExtension>
            <ns3:hr>85</ns3:hr>
            <ns3:cad>0</ns3:cad>
          </ns3:TrackPointExtension>
        </extensions>
      </trkpt>
      <trkpt lat="43.45982261002063751220703125" lon="1.4262892864644527435302734375">
        <ele>161.1999969482421875</ele>
        <time>2026-08-05T11:54:17.000Z</time>
        <extensions>
          <ns3:TrackPointExtension>
            <ns3:hr>85</ns3:hr>
            <ns3:cad>0</ns3:cad>
          </ns3:TrackPointExtension>
        </extensions>
      </trkpt>
      <trkpt lat="43.45982261002063751220703125" lon="1.4262892864644527435302734375">
        <ele>161.1999969482421875</ele>
        <time>2026-08-05T11:54:18.000Z</time>
        <extensions>
          <ns3:TrackPointExtension>
            <ns3:hr>85</ns3:hr>
            <ns3:cad>0</ns3:cad>
          </ns3:TrackPointExtension>
        </extensions>
      </trkpt>
      <trkpt lat="43.45982261002063751220703125" lon="1.4262892864644527435302734375">
        <ele>161.1999969482421875</ele>
        <time>2026-08-05T11:54:19.000Z</time>
        <extensions>
          <ns3:TrackPointExtension>
            <ns3:hr>85</ns3:hr>
            <ns3:cad>0</ns3:cad>
          </ns3:TrackPointExtension>
        </extensions>
      </trkpt>
      <trkpt lat="43.45982261002063751220703125" lon="1.4262892864644527435302734375">
        <ele>161.1999969482421875</ele>
        <time>2026-08-05T11:54:20.000Z</time>
        <extensions>
          <ns3:TrackPointExtension>
            <ns3:hr>85</ns3:hr>
            <ns3:cad>0</ns3:cad>
          </ns3:TrackPointExtension>
        </extensions>
      </trkpt>
      <trkpt lat="43.45982261002063751220703125" lon="1.4262892864644527435302734375">
        <ele>161.1999969482421875</ele>
        <time>2026-08-05T11:54:21.000Z</time>
        <extensions>
          <ns3:TrackPointExtension>
            <ns3:hr>85</ns3:hr>
            <ns3:cad>0</ns3:cad>
          </ns3:TrackPointExtension>
        </extensions>
      </trkpt>
      <trkpt lat="43.45982261002063751220703125" lon="1.4262892864644527435302734375">
        <ele>161.1999969482421875</ele>
        <time>2026-08-05T11:54:22.000Z</time>
        <extensions>
          <ns3:TrackPointExtension>
            <ns3:hr>85</ns3:hr>
            <ns3:cad>0</ns3:cad>
          </ns3:TrackPointExtension>
        </extensions>
      </trkpt>
      <trkpt lat="43.45982261002063751220703125" lon="1.4262892864644527435302734375">
        <ele>161.1999969482421875</ele>
        <time>2026-08-05T11:54:23.000Z</time>
        <extensions>
          <ns3:TrackPointExtension>
            <ns3:hr>85</ns3:hr>
            <ns3:cad>0</ns3:cad>
          </ns3:TrackPointExtension>
        </extensions>
      </trkpt>
      <trkpt lat="43.45982261002063751220703125" lon="1.4262892864644527435302734375">
        <ele>161.1999969482421875</ele>
        <time>2026-08-05T11:54:24.000Z</time>
        <extensions>
          <ns3:TrackPointExtension>
            <ns3:hr>85</ns3:hr>
            <ns3:cad>0</ns3:cad>
          </ns3:TrackPointExtension>
        </extensions>
      </trkpt>
      <trkpt lat="43.45982261002063751220703125" lon="1.4262892864644527435302734375">
        <ele>161.1999969482421875</ele>
        <time>2026-08-05T11:54:25.000Z</time>
        <extensions>
          <ns3:TrackPointExtension>
            <ns3:hr>84</ns3:hr>
            <ns3:cad>0</ns3:cad>
          </ns3:TrackPointExtension>
        </extensions>
      </trkpt>
      <trkpt lat="43.45982261002063751220703125" lon="1.4262892864644527435302734375">
        <ele>161.1999969482421875</ele>
        <time>2026-08-05T11:54:26.000Z</time>
        <extensions>
          <ns3:TrackPointExtension>
            <ns3:hr>85</ns3:hr>
            <ns3:cad>0</ns3:cad>
          </ns3:TrackPointExtension>
        </extensions>
      </trkpt>
      <trkpt lat="43.45982261002063751220703125" lon="1.4262892864644527435302734375">
        <ele>161.1999969482421875</ele>
        <time>2026-08-05T11:54:27.000Z</time>
        <extensions>
          <ns3:TrackPointExtension>
            <ns3:hr>85</ns3:hr>
            <ns3:cad>0</ns3:cad>
          </ns3:TrackPointExtension>
        </extensions>
      </trkpt>
      <trkpt lat="43.4598180837929248809814453125" lon="1.426294147968292236328125">
        <ele>161.1999969482421875</ele>
        <time>2026-08-05T11:54:28.000Z</time>
        <extensions>
          <ns3:TrackPointExtension>
            <ns3:hr>84</ns3:hr>
            <ns3:cad>0</ns3:cad>
          </ns3:TrackPointExtension>
        </extensions>
      </trkpt>
      <trkpt lat="43.459808528423309326171875" lon="1.4262899570167064666748046875">
        <ele>161.1999969482421875</ele>
        <time>2026-08-05T11:54:29.000Z</time>
        <extensions>
          <ns3:TrackPointExtension>
            <ns3:hr>84</ns3:hr>
            <ns3:cad>0</ns3:cad>
          </ns3:TrackPointExtension>
        </extensions>
      </trkpt>
      <trkpt lat="43.4598029963672161102294921875" lon="1.42629079520702362060546875">
        <ele>161.1999969482421875</ele>
        <time>2026-08-05T11:54:30.000Z</time>
        <extensions>
          <ns3:TrackPointExtension>
            <ns3:hr>84</ns3:hr>
            <ns3:cad>0</ns3:cad>
          </ns3:TrackPointExtension>
        </extensions>
      </trkpt>
      <trkpt lat="43.45980224199593067169189453125" lon="1.42628752626478672027587890625">
        <ele>161.1999969482421875</ele>
        <time>2026-08-05T11:54:31.000Z</time>
        <extensions>
          <ns3:TrackPointExtension>
            <ns3:hr>85</ns3:hr>
            <ns3:cad>0</ns3:cad>
          </ns3:TrackPointExtension>
        </extensions>
      </trkpt>
      <trkpt lat="43.45980207435786724090576171875" lon="1.42628769390285015106201171875">
        <ele>161</ele>
        <time>2026-08-05T11:54:32.000Z</time>
        <extensions>
          <ns3:TrackPointExtension>
            <ns3:hr>86</ns3:hr>
            <ns3:cad>0</ns3:cad>
          </ns3:TrackPointExtension>
        </extensions>
      </trkpt>
      <trkpt lat="43.45980207435786724090576171875" lon="1.42628769390285015106201171875">
        <ele>161.1999969482421875</ele>
        <time>2026-08-05T11:54:33.000Z</time>
        <extensions>
          <ns3:TrackPointExtension>
            <ns3:hr>86</ns3:hr>
            <ns3:cad>0</ns3:cad>
          </ns3:TrackPointExtension>
        </extensions>
      </trkpt>
      <trkpt lat="43.45980207435786724090576171875" lon="1.42628769390285015106201171875">
        <ele>161.1999969482421875</ele>
        <time>2026-08-05T11:54:34.000Z</time>
        <extensions>
          <ns3:TrackPointExtension>
            <ns3:hr>88</ns3:hr>
            <ns3:cad>0</ns3:cad>
          </ns3:TrackPointExtension>
        </extensions>
      </trkpt>
      <trkpt lat="43.45980207435786724090576171875" lon="1.42628769390285015106201171875">
        <ele>161.1999969482421875</ele>
        <time>2026-08-05T11:54:35.000Z</time>
        <extensions>
          <ns3:TrackPointExtension>
            <ns3:hr>89</ns3:hr>
            <ns3:cad>0</ns3:cad>
          </ns3:TrackPointExtension>
        </extensions>
      </trkpt>
      <trkpt lat="43.45980207435786724090576171875" lon="1.42628769390285015106201171875">
        <ele>161.1999969482421875</ele>
        <time>2026-08-05T11:54:36.000Z</time>
        <extensions>
          <ns3:TrackPointExtension>
            <ns3:hr>90</ns3:hr>
            <ns3:cad>0</ns3:cad>
          </ns3:TrackPointExtension>
        </extensions>
      </trkpt>
      <trkpt lat="43.45980207435786724090576171875" lon="1.42628769390285015106201171875">
        <ele>161.1999969482421875</ele>
        <time>2026-08-05T11:54:37.000Z</time>
        <extensions>
          <ns3:TrackPointExtension>
            <ns3:hr>91</ns3:hr>
            <ns3:cad>0</ns3:cad>
          </ns3:TrackPointExtension>
        </extensions>
      </trkpt>
      <trkpt lat="43.45980207435786724090576171875" lon="1.42628769390285015106201171875">
        <ele>161.1999969482421875</ele>
        <time>2026-08-05T11:54:38.000Z</time>
        <extensions>
          <ns3:TrackPointExtension>
            <ns3:hr>91</ns3:hr>
            <ns3:cad>0</ns3:cad>
          </ns3:TrackPointExtension>
        </extensions>
      </trkpt>
      <trkpt lat="43.45980207435786724090576171875" lon="1.42628769390285015106201171875">
        <ele>161.1999969482421875</ele>
        <time>2026-08-05T11:54:39.000Z</time>
        <extensions>
          <ns3:TrackPointExtension>
            <ns3:hr>90</ns3:hr>
            <ns3:cad>0</ns3:cad>
          </ns3:TrackPointExtension>
        </extensions>
      </trkpt>
      <trkpt lat="43.45980207435786724090576171875" lon="1.42628769390285015106201171875">
        <ele>161.1999969482421875</ele>
        <time>2026-08-05T11:54:40.000Z</time>
        <extensions>
          <ns3:TrackPointExtension>
            <ns3:hr>90</ns3:hr>
            <ns3:cad>0</ns3:cad>
          </ns3:TrackPointExtension>
        </extensions>
      </trkpt>
      <trkpt lat="43.45980207435786724090576171875" lon="1.42628769390285015106201171875">
        <ele>161</ele>
        <time>2026-08-05T11:54:41.000Z</time>
        <extensions>
          <ns3:TrackPointExtension>
            <ns3:hr>90</ns3:hr>
            <ns3:cad>0</ns3:cad>
          </ns3:TrackPointExtension>
        </extensions>
      </trkpt>
      <trkpt lat="43.45980207435786724090576171875" lon="1.42628769390285015106201171875">
        <ele>161</ele>
        <time>2026-08-05T11:54:42.000Z</time>
        <extensions>
          <ns3:TrackPointExtension>
            <ns3:hr>89</ns3:hr>
            <ns3:cad>0</ns3:cad>
          </ns3:TrackPointExtension>
        </extensions>
      </trkpt>
      <trkpt lat="43.45980207435786724090576171875" lon="1.42628769390285015106201171875">
        <ele>161</ele>
        <time>2026-08-05T11:54:43.000Z</time>
        <extensions>
          <ns3:TrackPointExtension>
            <ns3:hr>89</ns3:hr>
            <ns3:cad>0</ns3:cad>
          </ns3:TrackPointExtension>
        </extensions>
      </trkpt>
      <trkpt lat="43.45980207435786724090576171875" lon="1.42628769390285015106201171875">
        <ele>161</ele>
        <time>2026-08-05T11:54:44.000Z</time>
        <extensions>
          <ns3:TrackPointExtension>
            <ns3:hr>89</ns3:hr>
            <ns3:cad>0</ns3:cad>
          </ns3:TrackPointExtension>
        </extensions>
      </trkpt>
      <trkpt lat="43.45980207435786724090576171875" lon="1.42628769390285015106201171875">
        <ele>161</ele>
        <time>2026-08-05T11:54:45.000Z</time>
        <extensions>
          <ns3:TrackPointExtension>
            <ns3:hr>88</ns3:hr>
            <ns3:cad>0</ns3:cad>
          </ns3:TrackPointExtension>
        </extensions>
      </trkpt>
      <trkpt lat="43.45980207435786724090576171875" lon="1.42628769390285015106201171875">
        <ele>161</ele>
        <time>2026-08-05T11:54:46.000Z</time>
        <extensions>
          <ns3:TrackPointExtension>
            <ns3:hr>88</ns3:hr>
            <ns3:cad>0</ns3:cad>
          </ns3:TrackPointExtension>
        </extensions>
      </trkpt>
      <trkpt lat="43.45980207435786724090576171875" lon="1.42628769390285015106201171875">
        <ele>161</ele>
        <time>2026-08-05T11:54:47.000Z</time>
        <extensions>
          <ns3:TrackPointExtension>
            <ns3:hr>88</ns3:hr>
            <ns3:cad>0</ns3:cad>
          </ns3:TrackPointExtension>
        </extensions>
      </trkpt>
      <trkpt lat="43.45980207435786724090576171875" lon="1.42628769390285015106201171875">
        <ele>161</ele>
        <time>2026-08-05T11:54:48.000Z</time>
        <extensions>
          <ns3:TrackPointExtension>
            <ns3:hr>86</ns3:hr>
            <ns3:cad>0</ns3:cad>
          </ns3:TrackPointExtension>
        </extensions>
      </trkpt>
      <trkpt lat="43.45980207435786724090576171875" lon="1.42628769390285015106201171875">
        <ele>161</ele>
        <time>2026-08-05T11:54:49.000Z</time>
        <extensions>
          <ns3:TrackPointExtension>
            <ns3:hr>85</ns3:hr>
            <ns3:cad>0</ns3:cad>
          </ns3:TrackPointExtension>
        </extensions>
      </trkpt>
      <trkpt lat="43.45980207435786724090576171875" lon="1.42628769390285015106201171875">
        <ele>161</ele>
        <time>2026-08-05T11:54:50.000Z</time>
        <extensions>
          <ns3:TrackPointExtension>
            <ns3:hr>85</ns3:hr>
            <ns3:cad>0</ns3:cad>
          </ns3:TrackPointExtension>
        </extensions>
      </trkpt>
      <trkpt lat="43.45980207435786724090576171875" lon="1.42628769390285015106201171875">
        <ele>161</ele>
        <time>2026-08-05T11:54:51.000Z</time>
        <extensions>
          <ns3:TrackPointExtension>
            <ns3:hr>85</ns3:hr>
            <ns3:cad>0</ns3:cad>
          </ns3:TrackPointExtension>
        </extensions>
      </trkpt>
      <trkpt lat="43.45980207435786724090576171875" lon="1.42628769390285015106201171875">
        <ele>160.8000030517578125</ele>
        <time>2026-08-05T11:54:52.000Z</time>
        <extensions>
          <ns3:TrackPointExtension>
            <ns3:hr>85</ns3:hr>
            <ns3:cad>0</ns3:cad>
          </ns3:TrackPointExtension>
        </extensions>
      </trkpt>
      <trkpt lat="43.45980207435786724090576171875" lon="1.42628769390285015106201171875">
        <ele>160.8000030517578125</ele>
        <time>2026-08-05T11:54:53.000Z</time>
        <extensions>
          <ns3:TrackPointExtension>
            <ns3:hr>86</ns3:hr>
            <ns3:cad>0</ns3:cad>
          </ns3:TrackPointExtension>
        </extensions>
      </trkpt>
      <trkpt lat="43.45980207435786724090576171875" lon="1.42628769390285015106201171875">
        <ele>160.8000030517578125</ele>
        <time>2026-08-05T11:54:54.000Z</time>
        <extensions>
          <ns3:TrackPointExtension>
            <ns3:hr>85</ns3:hr>
            <ns3:cad>0</ns3:cad>
          </ns3:TrackPointExtension>
        </extensions>
      </trkpt>
      <trkpt lat="43.45980207435786724090576171875" lon="1.42628769390285015106201171875">
        <ele>160.8000030517578125</ele>
        <time>2026-08-05T11:54:55.000Z</time>
        <extensions>
          <ns3:TrackPointExtension>
            <ns3:hr>85</ns3:hr>
            <ns3:cad>0</ns3:cad>
          </ns3:TrackPointExtension>
        </extensions>
      </trkpt>
      <trkpt lat="43.45980207435786724090576171875" lon="1.42628769390285015106201171875">
        <ele>160.8000030517578125</ele>
        <time>2026-08-05T11:54:56.000Z</time>
        <extensions>
          <ns3:TrackPointExtension>
            <ns3:hr>85</ns3:hr>
            <ns3:cad>0</ns3:cad>
          </ns3:TrackPointExtension>
        </extensions>
      </trkpt>
      <trkpt lat="43.45980207435786724090576171875" lon="1.42628769390285015106201171875">
        <ele>161</ele>
        <time>2026-08-05T11:54:57.000Z</time>
        <extensions>
          <ns3:TrackPointExtension>
            <ns3:hr>84</ns3:hr>
            <ns3:cad>0</ns3:cad>
          </ns3:TrackPointExtension>
        </extensions>
      </trkpt>
      <trkpt lat="43.45980207435786724090576171875" lon="1.42628769390285015106201171875">
        <ele>161</ele>
        <time>2026-08-05T11:54:58.000Z</time>
        <extensions>
          <ns3:TrackPointExtension>
            <ns3:hr>83</ns3:hr>
            <ns3:cad>0</ns3:cad>
          </ns3:TrackPointExtension>
        </extensions>
      </trkpt>
      <trkpt lat="43.45980207435786724090576171875" lon="1.42628769390285015106201171875">
        <ele>161</ele>
        <time>2026-08-05T11:54:59.000Z</time>
        <extensions>
          <ns3:TrackPointExtension>
            <ns3:hr>83</ns3:hr>
            <ns3:cad>0</ns3:cad>
          </ns3:TrackPointExtension>
        </extensions>
      </trkpt>
      <trkpt lat="43.45980207435786724090576171875" lon="1.42628769390285015106201171875">
        <ele>161.1999969482421875</ele>
        <time>2026-08-05T11:55:00.000Z</time>
        <extensions>
          <ns3:TrackPointExtension>
            <ns3:hr>83</ns3:hr>
            <ns3:cad>0</ns3:cad>
          </ns3:TrackPointExtension>
        </extensions>
      </trkpt>
      <trkpt lat="43.45980207435786724090576171875" lon="1.42628769390285015106201171875">
        <ele>161.1999969482421875</ele>
        <time>2026-08-05T11:55:01.000Z</time>
        <extensions>
          <ns3:TrackPointExtension>
            <ns3:hr>83</ns3:hr>
            <ns3:cad>0</ns3:cad>
          </ns3:TrackPointExtension>
        </extensions>
      </trkpt>
      <trkpt lat="43.45980207435786724090576171875" lon="1.42628769390285015106201171875">
        <ele>161.1999969482421875</ele>
        <time>2026-08-05T11:55:02.000Z</time>
        <extensions>
          <ns3:TrackPointExtension>
            <ns3:hr>83</ns3:hr>
            <ns3:cad>0</ns3:cad>
          </ns3:TrackPointExtension>
        </extensions>
      </trkpt>
      <trkpt lat="43.45979922451078891754150390625" lon="1.42628685571253299713134765625">
        <ele>161</ele>
        <time>2026-08-05T11:55:03.000Z</time>
        <extensions>
          <ns3:TrackPointExtension>
            <ns3:hr>86</ns3:hr>
            <ns3:cad>0</ns3:cad>
          </ns3:TrackPointExtension>
        </extensions>
      </trkpt>
      <trkpt lat="43.45978916622698307037353515625" lon="1.42629154957830905914306640625">
        <ele>161</ele>
        <time>2026-08-05T11:55:04.000Z</time>
        <extensions>
          <ns3:TrackPointExtension>
            <ns3:hr>87</ns3:hr>
            <ns3:cad>0</ns3:cad>
          </ns3:TrackPointExtension>
        </extensions>
      </trkpt>
      <trkpt lat="43.45978162251412868499755859375" lon="1.4262959919869899749755859375">
        <ele>161</ele>
        <time>2026-08-05T11:55:05.000Z</time>
        <extensions>
          <ns3:TrackPointExtension>
            <ns3:hr>87</ns3:hr>
            <ns3:cad>41</ns3:cad>
          </ns3:TrackPointExtension>
        </extensions>
      </trkpt>
      <trkpt lat="43.4597744978964328765869140625" lon="1.426299177110195159912109375">
        <ele>160.8000030517578125</ele>
        <time>2026-08-05T11:55:06.000Z</time>
        <extensions>
          <ns3:TrackPointExtension>
            <ns3:hr>87</ns3:hr>
            <ns3:cad>41</ns3:cad>
          </ns3:TrackPointExtension>
        </extensions>
      </trkpt>
      <trkpt lat="43.45976720564067363739013671875" lon="1.4263008534908294677734375">
        <ele>160.8000030517578125</ele>
        <time>2026-08-05T11:55:07.000Z</time>
        <extensions>
          <ns3:TrackPointExtension>
            <ns3:hr>85</ns3:hr>
            <ns3:cad>0</ns3:cad>
          </ns3:TrackPointExtension>
        </extensions>
      </trkpt>
      <trkpt lat="43.45976821146905422210693359375" lon="1.42629574052989482879638671875">
        <ele>160.8000030517578125</ele>
        <time>2026-08-05T11:55:08.000Z</time>
        <extensions>
          <ns3:TrackPointExtension>
            <ns3:hr>84</ns3:hr>
            <ns3:cad>0</ns3:cad>
          </ns3:TrackPointExtension>
        </extensions>
      </trkpt>
      <trkpt lat="43.459763266146183013916015625" lon="1.42629054374992847442626953125">
        <ele>160.8000030517578125</ele>
        <time>2026-08-05T11:55:09.000Z</time>
        <extensions>
          <ns3:TrackPointExtension>
            <ns3:hr>83</ns3:hr>
            <ns3:cad>0</ns3:cad>
          </ns3:TrackPointExtension>
        </extensions>
      </trkpt>
      <trkpt lat="43.45976586453616619110107421875" lon="1.4262869395315647125244140625">
        <ele>160.8000030517578125</ele>
        <time>2026-08-05T11:55:10.000Z</time>
        <extensions>
          <ns3:TrackPointExtension>
            <ns3:hr>82</ns3:hr>
            <ns3:cad>0</ns3:cad>
          </ns3:TrackPointExtension>
        </extensions>
      </trkpt>
      <trkpt lat="43.459765948355197906494140625" lon="1.42628501169383525848388671875">
        <ele>160.8000030517578125</ele>
        <time>2026-08-05T11:55:11.000Z</time>
        <extensions>
          <ns3:TrackPointExtension>
            <ns3:hr>82</ns3:hr>
            <ns3:cad>0</ns3:cad>
          </ns3:TrackPointExtension>
        </extensions>
      </trkpt>
      <trkpt lat="43.459765948355197906494140625" lon="1.426285095512866973876953125">
        <ele>160.8000030517578125</ele>
        <time>2026-08-05T11:55:12.000Z</time>
        <extensions>
          <ns3:TrackPointExtension>
            <ns3:hr>82</ns3:hr>
            <ns3:cad>0</ns3:cad>
          </ns3:TrackPointExtension>
        </extensions>
      </trkpt>
      <trkpt lat="43.459765948355197906494140625" lon="1.426285095512866973876953125">
        <ele>161</ele>
        <time>2026-08-05T11:55:13.000Z</time>
        <extensions>
          <ns3:TrackPointExtension>
            <ns3:hr>82</ns3:hr>
            <ns3:cad>0</ns3:cad>
          </ns3:TrackPointExtension>
        </extensions>
      </trkpt>
      <trkpt lat="43.459765948355197906494140625" lon="1.426285095512866973876953125">
        <ele>161</ele>
        <time>2026-08-05T11:55:14.000Z</time>
        <extensions>
          <ns3:TrackPointExtension>
            <ns3:hr>82</ns3:hr>
            <ns3:cad>0</ns3:cad>
          </ns3:TrackPointExtension>
        </extensions>
      </trkpt>
      <trkpt lat="43.459765948355197906494140625" lon="1.426285095512866973876953125">
        <ele>161</ele>
        <time>2026-08-05T11:55:15.000Z</time>
        <extensions>
          <ns3:TrackPointExtension>
            <ns3:hr>81</ns3:hr>
            <ns3:cad>0</ns3:cad>
          </ns3:TrackPointExtension>
        </extensions>
      </trkpt>
      <trkpt lat="43.459765948355197906494140625" lon="1.426285095512866973876953125">
        <ele>161</ele>
        <time>2026-08-05T11:55:16.000Z</time>
        <extensions>
          <ns3:TrackPointExtension>
            <ns3:hr>82</ns3:hr>
            <ns3:cad>0</ns3:cad>
          </ns3:TrackPointExtension>
        </extensions>
      </trkpt>
      <trkpt lat="43.459765948355197906494140625" lon="1.426285095512866973876953125">
        <ele>160.8000030517578125</ele>
        <time>2026-08-05T11:55:17.000Z</time>
        <extensions>
          <ns3:TrackPointExtension>
            <ns3:hr>82</ns3:hr>
            <ns3:cad>0</ns3:cad>
          </ns3:TrackPointExtension>
        </extensions>
      </trkpt>
      <trkpt lat="43.459765948355197906494140625" lon="1.426285095512866973876953125">
        <ele>160.8000030517578125</ele>
        <time>2026-08-05T11:55:18.000Z</time>
        <extensions>
          <ns3:TrackPointExtension>
            <ns3:hr>82</ns3:hr>
            <ns3:cad>0</ns3:cad>
          </ns3:TrackPointExtension>
        </extensions>
      </trkpt>
      <trkpt lat="43.459765948355197906494140625" lon="1.426285095512866973876953125">
        <ele>160.8000030517578125</ele>
        <time>2026-08-05T11:55:19.000Z</time>
        <extensions>
          <ns3:TrackPointExtension>
            <ns3:hr>82</ns3:hr>
            <ns3:cad>0</ns3:cad>
          </ns3:TrackPointExtension>
        </extensions>
      </trkpt>
      <trkpt lat="43.459765948355197906494140625" lon="1.426285095512866973876953125">
        <ele>160.8000030517578125</ele>
        <time>2026-08-05T11:55:20.000Z</time>
        <extensions>
          <ns3:TrackPointExtension>
            <ns3:hr>81</ns3:hr>
            <ns3:cad>0</ns3:cad>
          </ns3:TrackPointExtension>
        </extensions>
      </trkpt>
      <trkpt lat="43.459765948355197906494140625" lon="1.426285095512866973876953125">
        <ele>160.8000030517578125</ele>
        <time>2026-08-05T11:55:21.000Z</time>
        <extensions>
          <ns3:TrackPointExtension>
            <ns3:hr>82</ns3:hr>
            <ns3:cad>0</ns3:cad>
          </ns3:TrackPointExtension>
        </extensions>
      </trkpt>
      <trkpt lat="43.459765948355197906494140625" lon="1.426285095512866973876953125">
        <ele>160.8000030517578125</ele>
        <time>2026-08-05T11:55:22.000Z</time>
        <extensions>
          <ns3:TrackPointExtension>
            <ns3:hr>82</ns3:hr>
            <ns3:cad>0</ns3:cad>
          </ns3:TrackPointExtension>
        </extensions>
      </trkpt>
      <trkpt lat="43.459765948355197906494140625" lon="1.426285095512866973876953125">
        <ele>160.600006103515625</ele>
        <time>2026-08-05T11:55:23.000Z</time>
        <extensions>
          <ns3:TrackPointExtension>
            <ns3:hr>82</ns3:hr>
            <ns3:cad>0</ns3:cad>
          </ns3:TrackPointExtension>
        </extensions>
      </trkpt>
      <trkpt lat="43.459765948355197906494140625" lon="1.426285095512866973876953125">
        <ele>160.8000030517578125</ele>
        <time>2026-08-05T11:55:24.000Z</time>
        <extensions>
          <ns3:TrackPointExtension>
            <ns3:hr>82</ns3:hr>
            <ns3:cad>0</ns3:cad>
          </ns3:TrackPointExtension>
        </extensions>
      </trkpt>
      <trkpt lat="43.459765948355197906494140625" lon="1.426285095512866973876953125">
        <ele>160.8000030517578125</ele>
        <time>2026-08-05T11:55:25.000Z</time>
        <extensions>
          <ns3:TrackPointExtension>
            <ns3:hr>82</ns3:hr>
            <ns3:cad>0</ns3:cad>
          </ns3:TrackPointExtension>
        </extensions>
      </trkpt>
      <trkpt lat="43.459765948355197906494140625" lon="1.426285095512866973876953125">
        <ele>160.8000030517578125</ele>
        <time>2026-08-05T11:55:26.000Z</time>
        <extensions>
          <ns3:TrackPointExtension>
            <ns3:hr>82</ns3:hr>
            <ns3:cad>0</ns3:cad>
          </ns3:TrackPointExtension>
        </extensions>
      </trkpt>
      <trkpt lat="43.459765948355197906494140625" lon="1.426285095512866973876953125">
        <ele>160.8000030517578125</ele>
        <time>2026-08-05T11:55:27.000Z</time>
        <extensions>
          <ns3:TrackPointExtension>
            <ns3:hr>80</ns3:hr>
            <ns3:cad>0</ns3:cad>
          </ns3:TrackPointExtension>
        </extensions>
      </trkpt>
      <trkpt lat="43.459765948355197906494140625" lon="1.426285095512866973876953125">
        <ele>160.8000030517578125</ele>
        <time>2026-08-05T11:55:28.000Z</time>
        <extensions>
          <ns3:TrackPointExtension>
            <ns3:hr>78</ns3:hr>
            <ns3:cad>0</ns3:cad>
          </ns3:TrackPointExtension>
        </extensions>
      </trkpt>
      <trkpt lat="43.459765948355197906494140625" lon="1.426285095512866973876953125">
        <ele>160.8000030517578125</ele>
        <time>2026-08-05T11:55:29.000Z</time>
        <extensions>
          <ns3:TrackPointExtension>
            <ns3:hr>77</ns3:hr>
            <ns3:cad>0</ns3:cad>
          </ns3:TrackPointExtension>
        </extensions>
      </trkpt>
      <trkpt lat="43.459765948355197906494140625" lon="1.426285095512866973876953125">
        <ele>160.8000030517578125</ele>
        <time>2026-08-05T11:55:30.000Z</time>
        <extensions>
          <ns3:TrackPointExtension>
            <ns3:hr>76</ns3:hr>
            <ns3:cad>0</ns3:cad>
          </ns3:TrackPointExtension>
        </extensions>
      </trkpt>
      <trkpt lat="43.45975496806204319000244140625" lon="1.4262807369232177734375">
        <ele>160.8000030517578125</ele>
        <time>2026-08-05T11:55:31.000Z</time>
        <extensions>
          <ns3:TrackPointExtension>
            <ns3:hr>75</ns3:hr>
            <ns3:cad>0</ns3:cad>
          </ns3:TrackPointExtension>
        </extensions>
      </trkpt>
      <trkpt lat="43.459746837615966796875" lon="1.426268331706523895263671875">
        <ele>160.8000030517578125</ele>
        <time>2026-08-05T11:55:32.000Z</time>
        <extensions>
          <ns3:TrackPointExtension>
            <ns3:hr>75</ns3:hr>
            <ns3:cad>0</ns3:cad>
          </ns3:TrackPointExtension>
        </extensions>
      </trkpt>
      <trkpt lat="43.45974759198725223541259765625" lon="1.42625919543206691741943359375">
        <ele>160.8000030517578125</ele>
        <time>2026-08-05T11:55:33.000Z</time>
        <extensions>
          <ns3:TrackPointExtension>
            <ns3:hr>75</ns3:hr>
            <ns3:cad>0</ns3:cad>
          </ns3:TrackPointExtension>
        </extensions>
      </trkpt>
      <trkpt lat="43.459745161235332489013671875" lon="1.426250226795673370361328125">
        <ele>160.600006103515625</ele>
        <time>2026-08-05T11:55:34.000Z</time>
        <extensions>
          <ns3:TrackPointExtension>
            <ns3:hr>75</ns3:hr>
            <ns3:cad>0</ns3:cad>
          </ns3:TrackPointExtension>
        </extensions>
      </trkpt>
      <trkpt lat="43.4597449935972690582275390625" lon="1.42625014297664165496826171875">
        <ele>160.600006103515625</ele>
        <time>2026-08-05T11:55:35.000Z</time>
        <extensions>
          <ns3:TrackPointExtension>
            <ns3:hr>75</ns3:hr>
            <ns3:cad>0</ns3:cad>
          </ns3:TrackPointExtension>
        </extensions>
      </trkpt>
      <trkpt lat="43.4597449935972690582275390625" lon="1.42625014297664165496826171875">
        <ele>160.600006103515625</ele>
        <time>2026-08-05T11:55:36.000Z</time>
        <extensions>
          <ns3:TrackPointExtension>
            <ns3:hr>75</ns3:hr>
            <ns3:cad>0</ns3:cad>
          </ns3:TrackPointExtension>
        </extensions>
      </trkpt>
      <trkpt lat="43.45974507741630077362060546875" lon="1.426249556243419647216796875">
        <ele>160.399993896484375</ele>
        <time>2026-08-05T11:55:37.000Z</time>
        <extensions>
          <ns3:TrackPointExtension>
            <ns3:hr>76</ns3:hr>
            <ns3:cad>0</ns3:cad>
          </ns3:TrackPointExtension>
        </extensions>
      </trkpt>
      <trkpt lat="43.45973971299827098846435546875" lon="1.42624310217797756195068359375">
        <ele>160.399993896484375</ele>
        <time>2026-08-05T11:55:38.000Z</time>
        <extensions>
          <ns3:TrackPointExtension>
            <ns3:hr>77</ns3:hr>
            <ns3:cad>0</ns3:cad>
          </ns3:TrackPointExtension>
        </extensions>
      </trkpt>
      <trkpt lat="43.45973074436187744140625" lon="1.42623187042772769927978515625">
        <ele>160.399993896484375</ele>
        <time>2026-08-05T11:55:39.000Z</time>
        <extensions>
          <ns3:TrackPointExtension>
            <ns3:hr>78</ns3:hr>
            <ns3:cad>0</ns3:cad>
          </ns3:TrackPointExtension>
        </extensions>
      </trkpt>
      <trkpt lat="43.45972680486738681793212890625" lon="1.426226086914539337158203125">
        <ele>160.399993896484375</ele>
        <time>2026-08-05T11:55:40.000Z</time>
        <extensions>
          <ns3:TrackPointExtension>
            <ns3:hr>79</ns3:hr>
            <ns3:cad>0</ns3:cad>
          </ns3:TrackPointExtension>
        </extensions>
      </trkpt>
      <trkpt lat="43.45971909351646900177001953125" lon="1.426216699182987213134765625">
        <ele>160.399993896484375</ele>
        <time>2026-08-05T11:55:41.000Z</time>
        <extensions>
          <ns3:TrackPointExtension>
            <ns3:hr>79</ns3:hr>
            <ns3:cad>0</ns3:cad>
          </ns3:TrackPointExtension>
        </extensions>
      </trkpt>
      <trkpt lat="43.45970719121396541595458984375" lon="1.42620404250919818878173828125">
        <ele>160.399993896484375</ele>
        <time>2026-08-05T11:55:42.000Z</time>
        <extensions>
          <ns3:TrackPointExtension>
            <ns3:hr>79</ns3:hr>
            <ns3:cad>0</ns3:cad>
          </ns3:TrackPointExtension>
        </extensions>
      </trkpt>
      <trkpt lat="43.4596993960440158843994140625" lon="1.42619247548282146453857421875">
        <ele>160.399993896484375</ele>
        <time>2026-08-05T11:55:43.000Z</time>
        <extensions>
          <ns3:TrackPointExtension>
            <ns3:hr>78</ns3:hr>
            <ns3:cad>50</ns3:cad>
          </ns3:TrackPointExtension>
        </extensions>
      </trkpt>
      <trkpt lat="43.45968623645603656768798828125" lon="1.42617143690586090087890625">
        <ele>160.1999969482421875</ele>
        <time>2026-08-05T11:55:44.000Z</time>
        <extensions>
          <ns3:TrackPointExtension>
            <ns3:hr>78</ns3:hr>
            <ns3:cad>50</ns3:cad>
          </ns3:TrackPointExtension>
        </extensions>
      </trkpt>
      <trkpt lat="43.459679447114467620849609375" lon="1.42616146244108676910400390625">
        <ele>160.1999969482421875</ele>
        <time>2026-08-05T11:55:45.000Z</time>
        <extensions>
          <ns3:TrackPointExtension>
            <ns3:hr>78</ns3:hr>
            <ns3:cad>50</ns3:cad>
          </ns3:TrackPointExtension>
        </extensions>
      </trkpt>
      <trkpt lat="43.45966896973550319671630859375" lon="1.42614922486245632171630859375">
        <ele>160.1999969482421875</ele>
        <time>2026-08-05T11:55:46.000Z</time>
        <extensions>
          <ns3:TrackPointExtension>
            <ns3:hr>79</ns3:hr>
            <ns3:cad>49</ns3:cad>
          </ns3:TrackPointExtension>
        </extensions>
      </trkpt>
      <trkpt lat="43.4596638567745685577392578125" lon="1.4261380769312381744384765625">
        <ele>160.1999969482421875</ele>
        <time>2026-08-05T11:55:47.000Z</time>
        <extensions>
          <ns3:TrackPointExtension>
            <ns3:hr>79</ns3:hr>
            <ns3:cad>49</ns3:cad>
          </ns3:TrackPointExtension>
        </extensions>
      </trkpt>
      <trkpt lat="43.45965740270912647247314453125" lon="1.4261280186474323272705078125">
        <ele>160</ele>
        <time>2026-08-05T11:55:48.000Z</time>
        <extensions>
          <ns3:TrackPointExtension>
            <ns3:hr>79</ns3:hr>
            <ns3:cad>50</ns3:cad>
          </ns3:TrackPointExtension>
        </extensions>
      </trkpt>
      <trkpt lat="43.4596504457294940948486328125" lon="1.42612022347748279571533203125">
        <ele>160</ele>
        <time>2026-08-05T11:55:49.000Z</time>
        <extensions>
          <ns3:TrackPointExtension>
            <ns3:hr>79</ns3:hr>
            <ns3:cad>50</ns3:cad>
          </ns3:TrackPointExtension>
        </extensions>
      </trkpt>
      <trkpt lat="43.45964315347373485565185546875" lon="1.42611234448850154876708984375">
        <ele>160</ele>
        <time>2026-08-05T11:55:50.000Z</time>
        <extensions>
          <ns3:TrackPointExtension>
            <ns3:hr>79</ns3:hr>
            <ns3:cad>48</ns3:cad>
          </ns3:TrackPointExtension>
        </extensions>
      </trkpt>
      <trkpt lat="43.4596370346844196319580078125" lon="1.42610781826078891754150390625">
        <ele>159.8000030517578125</ele>
        <time>2026-08-05T11:55:51.000Z</time>
        <extensions>
          <ns3:TrackPointExtension>
            <ns3:hr>79</ns3:hr>
            <ns3:cad>48</ns3:cad>
          </ns3:TrackPointExtension>
        </extensions>
      </trkpt>
      <trkpt lat="43.45962814986705780029296875" lon="1.42610438168048858642578125">
        <ele>159.8000030517578125</ele>
        <time>2026-08-05T11:55:52.000Z</time>
        <extensions>
          <ns3:TrackPointExtension>
            <ns3:hr>80</ns3:hr>
            <ns3:cad>48</ns3:cad>
          </ns3:TrackPointExtension>
        </extensions>
      </trkpt>
      <trkpt lat="43.45961934886872768402099609375" lon="1.4260951615869998931884765625">
        <ele>159.8000030517578125</ele>
        <time>2026-08-05T11:55:53.000Z</time>
        <extensions>
          <ns3:TrackPointExtension>
            <ns3:hr>80</ns3:hr>
            <ns3:cad>49</ns3:cad>
          </ns3:TrackPointExtension>
        </extensions>
      </trkpt>
      <trkpt lat="43.4596115536987781524658203125" lon="1.42608887515962123870849609375">
        <ele>159.8000030517578125</ele>
        <time>2026-08-05T11:55:54.000Z</time>
        <extensions>
          <ns3:TrackPointExtension>
            <ns3:hr>80</ns3:hr>
            <ns3:cad>48</ns3:cad>
          </ns3:TrackPointExtension>
        </extensions>
      </trkpt>
      <trkpt lat="43.45960275270044803619384765625" lon="1.42607931979000568389892578125">
        <ele>159.600006103515625</ele>
        <time>2026-08-05T11:55:55.000Z</time>
        <extensions>
          <ns3:TrackPointExtension>
            <ns3:hr>81</ns3:hr>
            <ns3:cad>48</ns3:cad>
          </ns3:TrackPointExtension>
        </extensions>
      </trkpt>
      <trkpt lat="43.45959059894084930419921875" lon="1.4260747097432613372802734375">
        <ele>159.600006103515625</ele>
        <time>2026-08-05T11:55:56.000Z</time>
        <extensions>
          <ns3:TrackPointExtension>
            <ns3:hr>81</ns3:hr>
            <ns3:cad>48</ns3:cad>
          </ns3:TrackPointExtension>
        </extensions>
      </trkpt>
      <trkpt lat="43.45957718789577484130859375" lon="1.426061801612377166748046875">
        <ele>159.600006103515625</ele>
        <time>2026-08-05T11:55:57.000Z</time>
        <extensions>
          <ns3:TrackPointExtension>
            <ns3:hr>82</ns3:hr>
            <ns3:cad>49</ns3:cad>
          </ns3:TrackPointExtension>
        </extensions>
      </trkpt>
      <trkpt lat="43.4595639444887638092041015625" lon="1.42605819739401340484619140625">
        <ele>159.399993896484375</ele>
        <time>2026-08-05T11:55:58.000Z</time>
        <extensions>
          <ns3:TrackPointExtension>
            <ns3:hr>83</ns3:hr>
            <ns3:cad>50</ns3:cad>
          </ns3:TrackPointExtension>
        </extensions>
      </trkpt>
      <trkpt lat="43.45955145545303821563720703125" lon="1.42605098895728588104248046875">
        <ele>159.399993896484375</ele>
        <time>2026-08-05T11:55:59.000Z</time>
        <extensions>
          <ns3:TrackPointExtension>
            <ns3:hr>83</ns3:hr>
            <ns3:cad>50</ns3:cad>
          </ns3:TrackPointExtension>
        </extensions>
      </trkpt>
      <trkpt lat="43.45954231917858123779296875" lon="1.4260445348918437957763671875">
        <ele>159.399993896484375</ele>
        <time>2026-08-05T11:56:00.000Z</time>
        <extensions>
          <ns3:TrackPointExtension>
            <ns3:hr>83</ns3:hr>
            <ns3:cad>49</ns3:cad>
          </ns3:TrackPointExtension>
        </extensions>
      </trkpt>
      <trkpt lat="43.459531925618648529052734375" lon="1.42603908665478229522705078125">
        <ele>159.399993896484375</ele>
        <time>2026-08-05T11:56:01.000Z</time>
        <extensions>
          <ns3:TrackPointExtension>
            <ns3:hr>81</ns3:hr>
            <ns3:cad>48</ns3:cad>
          </ns3:TrackPointExtension>
        </extensions>
      </trkpt>
      <trkpt lat="43.45952262170612812042236328125" lon="1.42603388987481594085693359375">
        <ele>159.399993896484375</ele>
        <time>2026-08-05T11:56:02.000Z</time>
        <extensions>
          <ns3:TrackPointExtension>
            <ns3:hr>80</ns3:hr>
            <ns3:cad>48</ns3:cad>
          </ns3:TrackPointExtension>
        </extensions>
      </trkpt>
      <trkpt lat="43.45951306633651256561279296875" lon="1.42602768726646900177001953125">
        <ele>159.399993896484375</ele>
        <time>2026-08-05T11:56:03.000Z</time>
        <extensions>
          <ns3:TrackPointExtension>
            <ns3:hr>80</ns3:hr>
            <ns3:cad>48</ns3:cad>
          </ns3:TrackPointExtension>
        </extensions>
      </trkpt>
      <trkpt lat="43.45950543880462646484375" lon="1.4260220713913440704345703125">
        <ele>159.399993896484375</ele>
        <time>2026-08-05T11:56:04.000Z</time>
        <extensions>
          <ns3:TrackPointExtension>
            <ns3:hr>80</ns3:hr>
            <ns3:cad>48</ns3:cad>
          </ns3:TrackPointExtension>
        </extensions>
      </trkpt>
      <trkpt lat="43.4594955481588840484619140625" lon="1.42601444385945796966552734375">
        <ele>159.1999969482421875</ele>
        <time>2026-08-05T11:56:05.000Z</time>
        <extensions>
          <ns3:TrackPointExtension>
            <ns3:hr>79</ns3:hr>
            <ns3:cad>48</ns3:cad>
          </ns3:TrackPointExtension>
        </extensions>
      </trkpt>
      <trkpt lat="43.4594871662557125091552734375" lon="1.42600941471755504608154296875">
        <ele>159.1999969482421875</ele>
        <time>2026-08-05T11:56:06.000Z</time>
        <extensions>
          <ns3:TrackPointExtension>
            <ns3:hr>79</ns3:hr>
            <ns3:cad>47</ns3:cad>
          </ns3:TrackPointExtension>
        </extensions>
      </trkpt>
      <trkpt lat="43.45947819761931896209716796875" lon="1.42600187100470066070556640625">
        <ele>159.1999969482421875</ele>
        <time>2026-08-05T11:56:07.000Z</time>
        <extensions>
          <ns3:TrackPointExtension>
            <ns3:hr>79</ns3:hr>
            <ns3:cad>47</ns3:cad>
          </ns3:TrackPointExtension>
        </extensions>
      </trkpt>
      <trkpt lat="43.45947124063968658447265625" lon="1.4259972609579563140869140625">
        <ele>159.1999969482421875</ele>
        <time>2026-08-05T11:56:08.000Z</time>
        <extensions>
          <ns3:TrackPointExtension>
            <ns3:hr>79</ns3:hr>
            <ns3:cad>47</ns3:cad>
          </ns3:TrackPointExtension>
        </extensions>
      </trkpt>
      <trkpt lat="43.45946260727941989898681640625" lon="1.42598996870219707489013671875">
        <ele>159</ele>
        <time>2026-08-05T11:56:09.000Z</time>
        <extensions>
          <ns3:TrackPointExtension>
            <ns3:hr>79</ns3:hr>
            <ns3:cad>47</ns3:cad>
          </ns3:TrackPointExtension>
        </extensions>
      </trkpt>
      <trkpt lat="43.459455482661724090576171875" lon="1.4259831793606281280517578125">
        <ele>159</ele>
        <time>2026-08-05T11:56:10.000Z</time>
        <extensions>
          <ns3:TrackPointExtension>
            <ns3:hr>79</ns3:hr>
            <ns3:cad>47</ns3:cad>
          </ns3:TrackPointExtension>
        </extensions>
      </trkpt>
      <trkpt lat="43.45944483764469623565673828125" lon="1.42597538419067859649658203125">
        <ele>159</ele>
        <time>2026-08-05T11:56:11.000Z</time>
        <extensions>
          <ns3:TrackPointExtension>
            <ns3:hr>79</ns3:hr>
            <ns3:cad>47</ns3:cad>
          </ns3:TrackPointExtension>
        </extensions>
      </trkpt>
      <trkpt lat="43.45943712629377841949462890625" lon="1.4259657450020313262939453125">
        <ele>159</ele>
        <time>2026-08-05T11:56:12.000Z</time>
        <extensions>
          <ns3:TrackPointExtension>
            <ns3:hr>78</ns3:hr>
            <ns3:cad>47</ns3:cad>
          </ns3:TrackPointExtension>
        </extensions>
      </trkpt>
      <trkpt lat="43.4594288282096385955810546875" lon="1.42595945857465267181396484375">
        <ele>159</ele>
        <time>2026-08-05T11:56:13.000Z</time>
        <extensions>
          <ns3:TrackPointExtension>
            <ns3:hr>78</ns3:hr>
            <ns3:cad>47</ns3:cad>
          </ns3:TrackPointExtension>
        </extensions>
      </trkpt>
      <trkpt lat="43.459423966705799102783203125" lon="1.425955183804035186767578125">
        <ele>158.8000030517578125</ele>
        <time>2026-08-05T11:56:14.000Z</time>
        <extensions>
          <ns3:TrackPointExtension>
            <ns3:hr>78</ns3:hr>
            <ns3:cad>48</ns3:cad>
          </ns3:TrackPointExtension>
        </extensions>
      </trkpt>
      <trkpt lat="43.459415249526500701904296875" lon="1.425949148833751678466796875">
        <ele>158.8000030517578125</ele>
        <time>2026-08-05T11:56:15.000Z</time>
        <extensions>
          <ns3:TrackPointExtension>
            <ns3:hr>78</ns3:hr>
            <ns3:cad>48</ns3:cad>
          </ns3:TrackPointExtension>
        </extensions>
      </trkpt>
      <trkpt lat="43.45940628089010715484619140625" lon="1.425941102206707000732421875">
        <ele>158.8000030517578125</ele>
        <time>2026-08-05T11:56:16.000Z</time>
        <extensions>
          <ns3:TrackPointExtension>
            <ns3:hr>79</ns3:hr>
            <ns3:cad>48</ns3:cad>
          </ns3:TrackPointExtension>
        </extensions>
      </trkpt>
      <trkpt lat="43.4593969769775867462158203125" lon="1.42593163065612316131591796875">
        <ele>158.600006103515625</ele>
        <time>2026-08-05T11:56:17.000Z</time>
        <extensions>
          <ns3:TrackPointExtension>
            <ns3:hr>78</ns3:hr>
            <ns3:cad>48</ns3:cad>
          </ns3:TrackPointExtension>
        </extensions>
      </trkpt>
      <trkpt lat="43.459390103816986083984375" lon="1.42592559568583965301513671875">
        <ele>158.600006103515625</ele>
        <time>2026-08-05T11:56:18.000Z</time>
        <extensions>
          <ns3:TrackPointExtension>
            <ns3:hr>78</ns3:hr>
            <ns3:cad>47</ns3:cad>
          </ns3:TrackPointExtension>
        </extensions>
      </trkpt>
      <trkpt lat="43.45938063226640224456787109375" lon="1.42591905780136585235595703125">
        <ele>158.600006103515625</ele>
        <time>2026-08-05T11:56:19.000Z</time>
        <extensions>
          <ns3:TrackPointExtension>
            <ns3:hr>78</ns3:hr>
            <ns3:cad>46</ns3:cad>
          </ns3:TrackPointExtension>
        </extensions>
      </trkpt>
      <trkpt lat="43.4593711607158184051513671875" lon="1.42591151408851146697998046875">
        <ele>158.600006103515625</ele>
        <time>2026-08-05T11:56:20.000Z</time>
        <extensions>
          <ns3:TrackPointExtension>
            <ns3:hr>78</ns3:hr>
            <ns3:cad>46</ns3:cad>
          </ns3:TrackPointExtension>
        </extensions>
      </trkpt>
      <trkpt lat="43.4593627788126468658447265625" lon="1.42590112052857875823974609375">
        <ele>158.399993896484375</ele>
        <time>2026-08-05T11:56:21.000Z</time>
        <extensions>
          <ns3:TrackPointExtension>
            <ns3:hr>77</ns3:hr>
            <ns3:cad>46</ns3:cad>
          </ns3:TrackPointExtension>
        </extensions>
      </trkpt>
      <trkpt lat="43.45935414545238018035888671875" lon="1.42589240334928035736083984375">
        <ele>158.399993896484375</ele>
        <time>2026-08-05T11:56:22.000Z</time>
        <extensions>
          <ns3:TrackPointExtension>
            <ns3:hr>77</ns3:hr>
            <ns3:cad>48</ns3:cad>
          </ns3:TrackPointExtension>
        </extensions>
      </trkpt>
      <trkpt lat="43.45934526063501834869384765625" lon="1.42589089460670948028564453125">
        <ele>158.399993896484375</ele>
        <time>2026-08-05T11:56:23.000Z</time>
        <extensions>
          <ns3:TrackPointExtension>
            <ns3:hr>78</ns3:hr>
            <ns3:cad>48</ns3:cad>
          </ns3:TrackPointExtension>
        </extensions>
      </trkpt>
      <trkpt lat="43.45933419652283191680908203125" lon="1.42588578164577484130859375">
        <ele>158.1999969482421875</ele>
        <time>2026-08-05T11:56:24.000Z</time>
        <extensions>
          <ns3:TrackPointExtension>
            <ns3:hr>78</ns3:hr>
            <ns3:cad>47</ns3:cad>
          </ns3:TrackPointExtension>
        </extensions>
      </trkpt>
      <trkpt lat="43.45932145603001117706298828125" lon="1.42588016577064990997314453125">
        <ele>158.1999969482421875</ele>
        <time>2026-08-05T11:56:25.000Z</time>
        <extensions>
          <ns3:TrackPointExtension>
            <ns3:hr>78</ns3:hr>
            <ns3:cad>47</ns3:cad>
          </ns3:TrackPointExtension>
        </extensions>
      </trkpt>
      <trkpt lat="43.459309637546539306640625" lon="1.4258770644664764404296875">
        <ele>158.1999969482421875</ele>
        <time>2026-08-05T11:56:26.000Z</time>
        <extensions>
          <ns3:TrackPointExtension>
            <ns3:hr>78</ns3:hr>
            <ns3:cad>47</ns3:cad>
          </ns3:TrackPointExtension>
        </extensions>
      </trkpt>
      <trkpt lat="43.45930092036724090576171875" lon="1.425866000354290008544921875">
        <ele>158</ele>
        <time>2026-08-05T11:56:27.000Z</time>
        <extensions>
          <ns3:TrackPointExtension>
            <ns3:hr>79</ns3:hr>
            <ns3:cad>49</ns3:cad>
          </ns3:TrackPointExtension>
        </extensions>
      </trkpt>
      <trkpt lat="43.45929010771214962005615234375" lon="1.4258604682981967926025390625">
        <ele>158</ele>
        <time>2026-08-05T11:56:28.000Z</time>
        <extensions>
          <ns3:TrackPointExtension>
            <ns3:hr>79</ns3:hr>
            <ns3:cad>49</ns3:cad>
          </ns3:TrackPointExtension>
        </extensions>
      </trkpt>
      <trkpt lat="43.4592792950570583343505859375" lon="1.42585300840437412261962890625">
        <ele>157.8000030517578125</ele>
        <time>2026-08-05T11:56:29.000Z</time>
        <extensions>
          <ns3:TrackPointExtension>
            <ns3:hr>79</ns3:hr>
            <ns3:cad>49</ns3:cad>
          </ns3:TrackPointExtension>
        </extensions>
      </trkpt>
      <trkpt lat="43.45926647074520587921142578125" lon="1.42584462650120258331298828125">
        <ele>157.8000030517578125</ele>
        <time>2026-08-05T11:56:30.000Z</time>
        <extensions>
          <ns3:TrackPointExtension>
            <ns3:hr>79</ns3:hr>
            <ns3:cad>49</ns3:cad>
          </ns3:TrackPointExtension>
        </extensions>
      </trkpt>
      <trkpt lat="43.4592544846236705780029296875" lon="1.4258383400738239288330078125">
        <ele>157.8000030517578125</ele>
        <time>2026-08-05T11:56:31.000Z</time>
        <extensions>
          <ns3:TrackPointExtension>
            <ns3:hr>79</ns3:hr>
            <ns3:cad>49</ns3:cad>
          </ns3:TrackPointExtension>
        </extensions>
      </trkpt>
      <trkpt lat="43.45924199558794498443603515625" lon="1.4258319698274135589599609375">
        <ele>157.8000030517578125</ele>
        <time>2026-08-05T11:56:32.000Z</time>
        <extensions>
          <ns3:TrackPointExtension>
            <ns3:hr>79</ns3:hr>
            <ns3:cad>48</ns3:cad>
          </ns3:TrackPointExtension>
        </extensions>
      </trkpt>
      <trkpt lat="43.45923394896090030670166015625" lon="1.4258235879242420196533203125">
        <ele>157.8000030517578125</ele>
        <time>2026-08-05T11:56:33.000Z</time>
        <extensions>
          <ns3:TrackPointExtension>
            <ns3:hr>79</ns3:hr>
            <ns3:cad>48</ns3:cad>
          </ns3:TrackPointExtension>
        </extensions>
      </trkpt>
      <trkpt lat="43.45922741107642650604248046875" lon="1.42581646330654621124267578125">
        <ele>157.600006103515625</ele>
        <time>2026-08-05T11:56:34.000Z</time>
        <extensions>
          <ns3:TrackPointExtension>
            <ns3:hr>80</ns3:hr>
            <ns3:cad>48</ns3:cad>
          </ns3:TrackPointExtension>
        </extensions>
      </trkpt>
      <trkpt lat="43.45921936444938182830810546875" lon="1.425811015069484710693359375">
        <ele>157.600006103515625</ele>
        <time>2026-08-05T11:56:35.000Z</time>
        <extensions>
          <ns3:TrackPointExtension>
            <ns3:hr>80</ns3:hr>
            <ns3:cad>48</ns3:cad>
          </ns3:TrackPointExtension>
        </extensions>
      </trkpt>
      <trkpt lat="43.4592119045555591583251953125" lon="1.42579986713826656341552734375">
        <ele>157.600006103515625</ele>
        <time>2026-08-05T11:56:36.000Z</time>
        <extensions>
          <ns3:TrackPointExtension>
            <ns3:hr>80</ns3:hr>
            <ns3:cad>48</ns3:cad>
          </ns3:TrackPointExtension>
        </extensions>
      </trkpt>
      <trkpt lat="43.45920561812818050384521484375" lon="1.42578561790287494659423828125">
        <ele>157.600006103515625</ele>
        <time>2026-08-05T11:56:37.000Z</time>
        <extensions>
          <ns3:TrackPointExtension>
            <ns3:hr>81</ns3:hr>
            <ns3:cad>48</ns3:cad>
          </ns3:TrackPointExtension>
        </extensions>
      </trkpt>
      <trkpt lat="43.45919975079596042633056640625" lon="1.42577606253325939178466796875">
        <ele>157.399993896484375</ele>
        <time>2026-08-05T11:56:38.000Z</time>
        <extensions>
          <ns3:TrackPointExtension>
            <ns3:hr>81</ns3:hr>
            <ns3:cad>48</ns3:cad>
          </ns3:TrackPointExtension>
        </extensions>
      </trkpt>
      <trkpt lat="43.4591934643685817718505859375" lon="1.4257665909826755523681640625">
        <ele>157.399993896484375</ele>
        <time>2026-08-05T11:56:39.000Z</time>
        <extensions>
          <ns3:TrackPointExtension>
            <ns3:hr>82</ns3:hr>
            <ns3:cad>49</ns3:cad>
          </ns3:TrackPointExtension>
        </extensions>
      </trkpt>
      <trkpt lat="43.45918633975088596343994140625" lon="1.4257585443556308746337890625">
        <ele>157.399993896484375</ele>
        <time>2026-08-05T11:56:40.000Z</time>
        <extensions>
          <ns3:TrackPointExtension>
            <ns3:hr>82</ns3:hr>
            <ns3:cad>48</ns3:cad>
          </ns3:TrackPointExtension>
        </extensions>
      </trkpt>
      <trkpt lat="43.4591760300099849700927734375" lon="1.4257504977285861968994140625">
        <ele>157.399993896484375</ele>
        <time>2026-08-05T11:56:41.000Z</time>
        <extensions>
          <ns3:TrackPointExtension>
            <ns3:hr>82</ns3:hr>
            <ns3:cad>48</ns3:cad>
          </ns3:TrackPointExtension>
        </extensions>
      </trkpt>
      <trkpt lat="43.4591659717261791229248046875" lon="1.42574354074895381927490234375">
        <ele>157.399993896484375</ele>
        <time>2026-08-05T11:56:42.000Z</time>
        <extensions>
          <ns3:TrackPointExtension>
            <ns3:hr>82</ns3:hr>
            <ns3:cad>47</ns3:cad>
          </ns3:TrackPointExtension>
        </extensions>
      </trkpt>
      <trkpt lat="43.459156416356563568115234375" lon="1.42573691904544830322265625">
        <ele>157.1999969482421875</ele>
        <time>2026-08-05T11:56:43.000Z</time>
        <extensions>
          <ns3:TrackPointExtension>
            <ns3:hr>82</ns3:hr>
            <ns3:cad>47</ns3:cad>
          </ns3:TrackPointExtension>
        </extensions>
      </trkpt>
      <trkpt lat="43.45914711244404315948486328125" lon="1.4257290400564670562744140625">
        <ele>157.1999969482421875</ele>
        <time>2026-08-05T11:56:44.000Z</time>
        <extensions>
          <ns3:TrackPointExtension>
            <ns3:hr>83</ns3:hr>
            <ns3:cad>48</ns3:cad>
          </ns3:TrackPointExtension>
        </extensions>
      </trkpt>
      <trkpt lat="43.459134288132190704345703125" lon="1.42572040669620037078857421875">
        <ele>157.1999969482421875</ele>
        <time>2026-08-05T11:56:45.000Z</time>
        <extensions>
          <ns3:TrackPointExtension>
            <ns3:hr>83</ns3:hr>
            <ns3:cad>48</ns3:cad>
          </ns3:TrackPointExtension>
        </extensions>
      </trkpt>
      <trkpt lat="43.459122888743877410888671875" lon="1.42571286298334598541259765625">
        <ele>157.1999969482421875</ele>
        <time>2026-08-05T11:56:46.000Z</time>
        <extensions>
          <ns3:TrackPointExtension>
            <ns3:hr>81</ns3:hr>
            <ns3:cad>48</ns3:cad>
          </ns3:TrackPointExtension>
        </extensions>
      </trkpt>
      <trkpt lat="43.459112830460071563720703125" lon="1.42570749856531620025634765625">
        <ele>157.1999969482421875</ele>
        <time>2026-08-05T11:56:47.000Z</time>
        <extensions>
          <ns3:TrackPointExtension>
            <ns3:hr>80</ns3:hr>
            <ns3:cad>48</ns3:cad>
          </ns3:TrackPointExtension>
        </extensions>
      </trkpt>
      <trkpt lat="43.4591012634336948394775390625" lon="1.4257005415856838226318359375">
        <ele>157.1999969482421875</ele>
        <time>2026-08-05T11:56:48.000Z</time>
        <extensions>
          <ns3:TrackPointExtension>
            <ns3:hr>80</ns3:hr>
            <ns3:cad>48</ns3:cad>
          </ns3:TrackPointExtension>
        </extensions>
      </trkpt>
      <trkpt lat="43.45909128896892070770263671875" lon="1.42569459043443202972412109375">
        <ele>157.1999969482421875</ele>
        <time>2026-08-05T11:56:49.000Z</time>
        <extensions>
          <ns3:TrackPointExtension>
            <ns3:hr>80</ns3:hr>
            <ns3:cad>49</ns3:cad>
          </ns3:TrackPointExtension>
        </extensions>
      </trkpt>
      <trkpt lat="43.4590814821422100067138671875" lon="1.4256871305406093597412109375">
        <ele>157.1999969482421875</ele>
        <time>2026-08-05T11:56:50.000Z</time>
        <extensions>
          <ns3:TrackPointExtension>
            <ns3:hr>80</ns3:hr>
            <ns3:cad>50</ns3:cad>
          </ns3:TrackPointExtension>
        </extensions>
      </trkpt>
      <trkpt lat="43.45907033421099185943603515625" lon="1.42568134702742099761962890625">
        <ele>157.1999969482421875</ele>
        <time>2026-08-05T11:56:51.000Z</time>
        <extensions>
          <ns3:TrackPointExtension>
            <ns3:hr>80</ns3:hr>
            <ns3:cad>50</ns3:cad>
          </ns3:TrackPointExtension>
        </extensions>
      </trkpt>
      <trkpt lat="43.45906010828912258148193359375" lon="1.4256767369806766510009765625">
        <ele>157</ele>
        <time>2026-08-05T11:56:52.000Z</time>
        <extensions>
          <ns3:TrackPointExtension>
            <ns3:hr>79</ns3:hr>
            <ns3:cad>49</ns3:cad>
          </ns3:TrackPointExtension>
        </extensions>
      </trkpt>
      <trkpt lat="43.45904971472918987274169921875" lon="1.42566776834428310394287109375">
        <ele>157</ele>
        <time>2026-08-05T11:56:53.000Z</time>
        <extensions>
          <ns3:TrackPointExtension>
            <ns3:hr>80</ns3:hr>
            <ns3:cad>48</ns3:cad>
          </ns3:TrackPointExtension>
        </extensions>
      </trkpt>
      <trkpt lat="43.459041081368923187255859375" lon="1.42566123045980930328369140625">
        <ele>157</ele>
        <time>2026-08-05T11:56:54.000Z</time>
        <extensions>
          <ns3:TrackPointExtension>
            <ns3:hr>80</ns3:hr>
            <ns3:cad>48</ns3:cad>
          </ns3:TrackPointExtension>
        </extensions>
      </trkpt>
      <trkpt lat="43.45903764478862285614013671875" lon="1.42565921880304813385009765625">
        <ele>157</ele>
        <time>2026-08-05T11:56:55.000Z</time>
        <extensions>
          <ns3:TrackPointExtension>
            <ns3:hr>79</ns3:hr>
            <ns3:cad>48</ns3:cad>
          </ns3:TrackPointExtension>
        </extensions>
      </trkpt>
      <trkpt lat="43.45902674831449985504150390625" lon="1.4256512559950351715087890625">
        <ele>157</ele>
        <time>2026-08-05T11:56:56.000Z</time>
        <extensions>
          <ns3:TrackPointExtension>
            <ns3:hr>79</ns3:hr>
            <ns3:cad>48</ns3:cad>
          </ns3:TrackPointExtension>
        </extensions>
      </trkpt>
      <trkpt lat="43.45901685766875743865966796875" lon="1.4256489090621471405029296875">
        <ele>156.8000030517578125</ele>
        <time>2026-08-05T11:56:57.000Z</time>
        <extensions>
          <ns3:TrackPointExtension>
            <ns3:hr>80</ns3:hr>
            <ns3:cad>48</ns3:cad>
          </ns3:TrackPointExtension>
        </extensions>
      </trkpt>
      <trkpt lat="43.45900545828044414520263671875" lon="1.42564496956765651702880859375">
        <ele>156.8000030517578125</ele>
        <time>2026-08-05T11:56:58.000Z</time>
        <extensions>
          <ns3:TrackPointExtension>
            <ns3:hr>80</ns3:hr>
            <ns3:cad>49</ns3:cad>
          </ns3:TrackPointExtension>
        </extensions>
      </trkpt>
      <trkpt lat="43.4589963220059871673583984375" lon="1.42563926987349987030029296875">
        <ele>156.8000030517578125</ele>
        <time>2026-08-05T11:56:59.000Z</time>
        <extensions>
          <ns3:TrackPointExtension>
            <ns3:hr>81</ns3:hr>
            <ns3:cad>48</ns3:cad>
          </ns3:TrackPointExtension>
        </extensions>
      </trkpt>
      <trkpt lat="43.45898986794054508209228515625" lon="1.42563474364578723907470703125">
        <ele>156.8000030517578125</ele>
        <time>2026-08-05T11:57:00.000Z</time>
        <extensions>
          <ns3:TrackPointExtension>
            <ns3:hr>81</ns3:hr>
            <ns3:cad>49</ns3:cad>
          </ns3:TrackPointExtension>
        </extensions>
      </trkpt>
      <trkpt lat="43.45897813327610492706298828125" lon="1.42563231289386749267578125">
        <ele>156.8000030517578125</ele>
        <time>2026-08-05T11:57:01.000Z</time>
        <extensions>
          <ns3:TrackPointExtension>
            <ns3:hr>82</ns3:hr>
            <ns3:cad>49</ns3:cad>
          </ns3:TrackPointExtension>
        </extensions>
      </trkpt>
      <trkpt lat="43.45896673388779163360595703125" lon="1.4256281219422817230224609375">
        <ele>156.8000030517578125</ele>
        <time>2026-08-05T11:57:02.000Z</time>
        <extensions>
          <ns3:TrackPointExtension>
            <ns3:hr>82</ns3:hr>
            <ns3:cad>50</ns3:cad>
          </ns3:TrackPointExtension>
        </extensions>
      </trkpt>
      <trkpt lat="43.45895600505173206329345703125" lon="1.4256264455616474151611328125">
        <ele>156.8000030517578125</ele>
        <time>2026-08-05T11:57:03.000Z</time>
        <extensions>
          <ns3:TrackPointExtension>
            <ns3:hr>82</ns3:hr>
            <ns3:cad>50</ns3:cad>
          </ns3:TrackPointExtension>
        </extensions>
      </trkpt>
      <trkpt lat="43.45894561149179935455322265625" lon="1.4256244339048862457275390625">
        <ele>156.600006103515625</ele>
        <time>2026-08-05T11:57:04.000Z</time>
        <extensions>
          <ns3:TrackPointExtension>
            <ns3:hr>82</ns3:hr>
            <ns3:cad>50</ns3:cad>
          </ns3:TrackPointExtension>
        </extensions>
      </trkpt>
      <trkpt lat="43.45893790014088153839111328125" lon="1.42562082968652248382568359375">
        <ele>156.600006103515625</ele>
        <time>2026-08-05T11:57:05.000Z</time>
        <extensions>
          <ns3:TrackPointExtension>
            <ns3:hr>81</ns3:hr>
            <ns3:cad>47</ns3:cad>
          </ns3:TrackPointExtension>
        </extensions>
      </trkpt>
      <trkpt lat="43.458929099142551422119140625" lon="1.4256173931062221527099609375">
        <ele>156.600006103515625</ele>
        <time>2026-08-05T11:57:06.000Z</time>
        <extensions>
          <ns3:TrackPointExtension>
            <ns3:hr>82</ns3:hr>
            <ns3:cad>47</ns3:cad>
          </ns3:TrackPointExtension>
        </extensions>
      </trkpt>
      <trkpt lat="43.45891929231584072113037109375" lon="1.4256157167255878448486328125">
        <ele>156.600006103515625</ele>
        <time>2026-08-05T11:57:07.000Z</time>
        <extensions>
          <ns3:TrackPointExtension>
            <ns3:hr>82</ns3:hr>
            <ns3:cad>47</ns3:cad>
          </ns3:TrackPointExtension>
        </extensions>
      </trkpt>
      <trkpt lat="43.4589104913175106048583984375" lon="1.4256143756210803985595703125">
        <ele>156.600006103515625</ele>
        <time>2026-08-05T11:57:08.000Z</time>
        <extensions>
          <ns3:TrackPointExtension>
            <ns3:hr>81</ns3:hr>
            <ns3:cad>47</ns3:cad>
          </ns3:TrackPointExtension>
        </extensions>
      </trkpt>
      <trkpt lat="43.45890252850949764251708984375" lon="1.42561890184879302978515625">
        <ele>156.399993896484375</ele>
        <time>2026-08-05T11:57:09.000Z</time>
        <extensions>
          <ns3:TrackPointExtension>
            <ns3:hr>81</ns3:hr>
            <ns3:cad>47</ns3:cad>
          </ns3:TrackPointExtension>
        </extensions>
      </trkpt>
      <trkpt lat="43.45889196731150150299072265625" lon="1.4256222546100616455078125">
        <ele>156.399993896484375</ele>
        <time>2026-08-05T11:57:10.000Z</time>
        <extensions>
          <ns3:TrackPointExtension>
            <ns3:hr>81</ns3:hr>
            <ns3:cad>48</ns3:cad>
          </ns3:TrackPointExtension>
        </extensions>
      </trkpt>
      <trkpt lat="43.45887905918061733245849609375" lon="1.42562988214194774627685546875">
        <ele>156.399993896484375</ele>
        <time>2026-08-05T11:57:11.000Z</time>
        <extensions>
          <ns3:TrackPointExtension>
            <ns3:hr>81</ns3:hr>
            <ns3:cad>48</ns3:cad>
          </ns3:TrackPointExtension>
        </extensions>
      </trkpt>
      <trkpt lat="43.45886933617293834686279296875" lon="1.425634324550628662109375">
        <ele>156.399993896484375</ele>
        <time>2026-08-05T11:57:12.000Z</time>
        <extensions>
          <ns3:TrackPointExtension>
            <ns3:hr>81</ns3:hr>
            <ns3:cad>48</ns3:cad>
          </ns3:TrackPointExtension>
        </extensions>
      </trkpt>
      <trkpt lat="43.45886045135557651519775390625" lon="1.42563574947416782379150390625">
        <ele>156.399993896484375</ele>
        <time>2026-08-05T11:57:13.000Z</time>
        <extensions>
          <ns3:TrackPointExtension>
            <ns3:hr>80</ns3:hr>
            <ns3:cad>50</ns3:cad>
          </ns3:TrackPointExtension>
        </extensions>
      </trkpt>
      <trkpt lat="43.4588534943759441375732421875" lon="1.425640024244785308837890625">
        <ele>156.399993896484375</ele>
        <time>2026-08-05T11:57:14.000Z</time>
        <extensions>
          <ns3:TrackPointExtension>
            <ns3:hr>80</ns3:hr>
            <ns3:cad>50</ns3:cad>
          </ns3:TrackPointExtension>
        </extensions>
      </trkpt>
      <trkpt lat="43.4588469564914703369140625" lon="1.42564396373927593231201171875">
        <ele>156.399993896484375</ele>
        <time>2026-08-05T11:57:15.000Z</time>
        <extensions>
          <ns3:TrackPointExtension>
            <ns3:hr>81</ns3:hr>
            <ns3:cad>50</ns3:cad>
          </ns3:TrackPointExtension>
        </extensions>
      </trkpt>
      <trkpt lat="43.45884033478796482086181640625" lon="1.42564698122441768646240234375">
        <ele>156.399993896484375</ele>
        <time>2026-08-05T11:57:16.000Z</time>
        <extensions>
          <ns3:TrackPointExtension>
            <ns3:hr>81</ns3:hr>
            <ns3:cad>41</ns3:cad>
          </ns3:TrackPointExtension>
        </extensions>
      </trkpt>
      <trkpt lat="43.45883312635123729705810546875" lon="1.4256499148905277252197265625">
        <ele>156.600006103515625</ele>
        <time>2026-08-05T11:57:17.000Z</time>
        <extensions>
          <ns3:TrackPointExtension>
            <ns3:hr>81</ns3:hr>
            <ns3:cad>41</ns3:cad>
          </ns3:TrackPointExtension>
        </extensions>
      </trkpt>
      <trkpt lat="43.45882675610482692718505859375" lon="1.4256502501666545867919921875">
        <ele>156.600006103515625</ele>
        <time>2026-08-05T11:57:18.000Z</time>
        <extensions>
          <ns3:TrackPointExtension>
            <ns3:hr>81</ns3:hr>
            <ns3:cad>41</ns3:cad>
          </ns3:TrackPointExtension>
        </extensions>
      </trkpt>
      <trkpt lat="43.4588206373155117034912109375" lon="1.42565511167049407958984375">
        <ele>156.600006103515625</ele>
        <time>2026-08-05T11:57:19.000Z</time>
        <extensions>
          <ns3:TrackPointExtension>
            <ns3:hr>81</ns3:hr>
            <ns3:cad>76</ns3:cad>
          </ns3:TrackPointExtension>
        </extensions>
      </trkpt>
      <trkpt lat="43.4588174521923065185546875" lon="1.4256562851369380950927734375">
        <ele>156.600006103515625</ele>
        <time>2026-08-05T11:57:20.000Z</time>
        <extensions>
          <ns3:TrackPointExtension>
            <ns3:hr>81</ns3:hr>
            <ns3:cad>76</ns3:cad>
          </ns3:TrackPointExtension>
        </extensions>
      </trkpt>
      <trkpt lat="43.45882105641067028045654296875" lon="1.42565603367984294891357421875">
        <ele>156.600006103515625</ele>
        <time>2026-08-05T11:57:21.000Z</time>
        <extensions>
          <ns3:TrackPointExtension>
            <ns3:hr>81</ns3:hr>
            <ns3:cad>0</ns3:cad>
          </ns3:TrackPointExtension>
        </extensions>
      </trkpt>
      <trkpt lat="43.45882105641067028045654296875" lon="1.425656117498874664306640625">
        <ele>156.8000030517578125</ele>
        <time>2026-08-05T11:57:22.000Z</time>
        <extensions>
          <ns3:TrackPointExtension>
            <ns3:hr>81</ns3:hr>
            <ns3:cad>0</ns3:cad>
          </ns3:TrackPointExtension>
        </extensions>
      </trkpt>
      <trkpt lat="43.45882105641067028045654296875" lon="1.425656117498874664306640625">
        <ele>156.8000030517578125</ele>
        <time>2026-08-05T11:57:23.000Z</time>
        <extensions>
          <ns3:TrackPointExtension>
            <ns3:hr>80</ns3:hr>
            <ns3:cad>0</ns3:cad>
          </ns3:TrackPointExtension>
        </extensions>
      </trkpt>
      <trkpt lat="43.45882105641067028045654296875" lon="1.425656117498874664306640625">
        <ele>156.600006103515625</ele>
        <time>2026-08-05T11:57:24.000Z</time>
        <extensions>
          <ns3:TrackPointExtension>
            <ns3:hr>80</ns3:hr>
            <ns3:cad>0</ns3:cad>
          </ns3:TrackPointExtension>
        </extensions>
      </trkpt>
      <trkpt lat="43.45882105641067028045654296875" lon="1.425656117498874664306640625">
        <ele>156.600006103515625</ele>
        <time>2026-08-05T11:57:25.000Z</time>
        <extensions>
          <ns3:TrackPointExtension>
            <ns3:hr>80</ns3:hr>
            <ns3:cad>0</ns3:cad>
          </ns3:TrackPointExtension>
        </extensions>
      </trkpt>
      <trkpt lat="43.45882105641067028045654296875" lon="1.425656117498874664306640625">
        <ele>156.600006103515625</ele>
        <time>2026-08-05T11:57:26.000Z</time>
        <extensions>
          <ns3:TrackPointExtension>
            <ns3:hr>80</ns3:hr>
            <ns3:cad>0</ns3:cad>
          </ns3:TrackPointExtension>
        </extensions>
      </trkpt>
      <trkpt lat="43.45882105641067028045654296875" lon="1.425656117498874664306640625">
        <ele>156.600006103515625</ele>
        <time>2026-08-05T11:57:27.000Z</time>
        <extensions>
          <ns3:TrackPointExtension>
            <ns3:hr>80</ns3:hr>
            <ns3:cad>0</ns3:cad>
          </ns3:TrackPointExtension>
        </extensions>
      </trkpt>
      <trkpt lat="43.45882105641067028045654296875" lon="1.425656117498874664306640625">
        <ele>156.600006103515625</ele>
        <time>2026-08-05T11:57:28.000Z</time>
        <extensions>
          <ns3:TrackPointExtension>
            <ns3:hr>80</ns3:hr>
            <ns3:cad>0</ns3:cad>
          </ns3:TrackPointExtension>
        </extensions>
      </trkpt>
      <trkpt lat="43.45882105641067028045654296875" lon="1.425656117498874664306640625">
        <ele>156.600006103515625</ele>
        <time>2026-08-05T11:57:29.000Z</time>
        <extensions>
          <ns3:TrackPointExtension>
            <ns3:hr>80</ns3:hr>
            <ns3:cad>0</ns3:cad>
          </ns3:TrackPointExtension>
        </extensions>
      </trkpt>
      <trkpt lat="43.45882105641067028045654296875" lon="1.425656117498874664306640625">
        <ele>156.600006103515625</ele>
        <time>2026-08-05T11:57:30.000Z</time>
        <extensions>
          <ns3:TrackPointExtension>
            <ns3:hr>80</ns3:hr>
            <ns3:cad>0</ns3:cad>
          </ns3:TrackPointExtension>
        </extensions>
      </trkpt>
      <trkpt lat="43.45882105641067028045654296875" lon="1.425656117498874664306640625">
        <ele>156.600006103515625</ele>
        <time>2026-08-05T11:57:31.000Z</time>
        <extensions>
          <ns3:TrackPointExtension>
            <ns3:hr>81</ns3:hr>
            <ns3:cad>0</ns3:cad>
          </ns3:TrackPointExtension>
        </extensions>
      </trkpt>
      <trkpt lat="43.45882105641067028045654296875" lon="1.425656117498874664306640625">
        <ele>156.600006103515625</ele>
        <time>2026-08-05T11:57:32.000Z</time>
        <extensions>
          <ns3:TrackPointExtension>
            <ns3:hr>81</ns3:hr>
            <ns3:cad>0</ns3:cad>
          </ns3:TrackPointExtension>
        </extensions>
      </trkpt>
      <trkpt lat="43.45882105641067028045654296875" lon="1.425656117498874664306640625">
        <ele>156.600006103515625</ele>
        <time>2026-08-05T11:57:33.000Z</time>
        <extensions>
          <ns3:TrackPointExtension>
            <ns3:hr>81</ns3:hr>
            <ns3:cad>0</ns3:cad>
          </ns3:TrackPointExtension>
        </extensions>
      </trkpt>
      <trkpt lat="43.45882105641067028045654296875" lon="1.425656117498874664306640625">
        <ele>156.600006103515625</ele>
        <time>2026-08-05T11:57:34.000Z</time>
        <extensions>
          <ns3:TrackPointExtension>
            <ns3:hr>81</ns3:hr>
            <ns3:cad>0</ns3:cad>
          </ns3:TrackPointExtension>
        </extensions>
      </trkpt>
      <trkpt lat="43.45882105641067028045654296875" lon="1.425656117498874664306640625">
        <ele>156.600006103515625</ele>
        <time>2026-08-05T11:57:35.000Z</time>
        <extensions>
          <ns3:TrackPointExtension>
            <ns3:hr>81</ns3:hr>
            <ns3:cad>0</ns3:cad>
          </ns3:TrackPointExtension>
        </extensions>
      </trkpt>
      <trkpt lat="43.45882105641067028045654296875" lon="1.425656117498874664306640625">
        <ele>156.600006103515625</ele>
        <time>2026-08-05T11:57:36.000Z</time>
        <extensions>
          <ns3:TrackPointExtension>
            <ns3:hr>81</ns3:hr>
            <ns3:cad>0</ns3:cad>
          </ns3:TrackPointExtension>
        </extensions>
      </trkpt>
      <trkpt lat="43.45882105641067028045654296875" lon="1.425656117498874664306640625">
        <ele>156.600006103515625</ele>
        <time>2026-08-05T11:57:37.000Z</time>
        <extensions>
          <ns3:TrackPointExtension>
            <ns3:hr>82</ns3:hr>
            <ns3:cad>0</ns3:cad>
          </ns3:TrackPointExtension>
        </extensions>
      </trkpt>
      <trkpt lat="43.45882105641067028045654296875" lon="1.425656117498874664306640625">
        <ele>156.600006103515625</ele>
        <time>2026-08-05T11:57:38.000Z</time>
        <extensions>
          <ns3:TrackPointExtension>
            <ns3:hr>82</ns3:hr>
            <ns3:cad>0</ns3:cad>
          </ns3:TrackPointExtension>
        </extensions>
      </trkpt>
      <trkpt lat="43.45882105641067028045654296875" lon="1.425656117498874664306640625">
        <ele>156.600006103515625</ele>
        <time>2026-08-05T11:57:39.000Z</time>
        <extensions>
          <ns3:TrackPointExtension>
            <ns3:hr>82</ns3:hr>
            <ns3:cad>0</ns3:cad>
          </ns3:TrackPointExtension>
        </extensions>
      </trkpt>
      <trkpt lat="43.45882105641067028045654296875" lon="1.425656117498874664306640625">
        <ele>156.399993896484375</ele>
        <time>2026-08-05T11:57:40.000Z</time>
        <extensions>
          <ns3:TrackPointExtension>
            <ns3:hr>81</ns3:hr>
            <ns3:cad>0</ns3:cad>
          </ns3:TrackPointExtension>
        </extensions>
      </trkpt>
      <trkpt lat="43.45882105641067028045654296875" lon="1.425656117498874664306640625">
        <ele>156.399993896484375</ele>
        <time>2026-08-05T11:57:41.000Z</time>
        <extensions>
          <ns3:TrackPointExtension>
            <ns3:hr>82</ns3:hr>
            <ns3:cad>0</ns3:cad>
          </ns3:TrackPointExtension>
        </extensions>
      </trkpt>
      <trkpt lat="43.45882105641067028045654296875" lon="1.425656117498874664306640625">
        <ele>156.399993896484375</ele>
        <time>2026-08-05T11:57:42.000Z</time>
        <extensions>
          <ns3:TrackPointExtension>
            <ns3:hr>82</ns3:hr>
            <ns3:cad>0</ns3:cad>
          </ns3:TrackPointExtension>
        </extensions>
      </trkpt>
      <trkpt lat="43.45882105641067028045654296875" lon="1.425656117498874664306640625">
        <ele>156.399993896484375</ele>
        <time>2026-08-05T11:57:43.000Z</time>
        <extensions>
          <ns3:TrackPointExtension>
            <ns3:hr>81</ns3:hr>
            <ns3:cad>0</ns3:cad>
          </ns3:TrackPointExtension>
        </extensions>
      </trkpt>
      <trkpt lat="43.45882105641067028045654296875" lon="1.425656117498874664306640625">
        <ele>156.399993896484375</ele>
        <time>2026-08-05T11:57:44.000Z</time>
        <extensions>
          <ns3:TrackPointExtension>
            <ns3:hr>81</ns3:hr>
            <ns3:cad>0</ns3:cad>
          </ns3:TrackPointExtension>
        </extensions>
      </trkpt>
      <trkpt lat="43.45882105641067028045654296875" lon="1.425656117498874664306640625">
        <ele>156.399993896484375</ele>
        <time>2026-08-05T11:57:45.000Z</time>
        <extensions>
          <ns3:TrackPointExtension>
            <ns3:hr>81</ns3:hr>
            <ns3:cad>0</ns3:cad>
          </ns3:TrackPointExtension>
        </extensions>
      </trkpt>
      <trkpt lat="43.45882105641067028045654296875" lon="1.425656117498874664306640625">
        <ele>156.399993896484375</ele>
        <time>2026-08-05T11:57:46.000Z</time>
        <extensions>
          <ns3:TrackPointExtension>
            <ns3:hr>79</ns3:hr>
            <ns3:cad>0</ns3:cad>
          </ns3:TrackPointExtension>
        </extensions>
      </trkpt>
      <trkpt lat="43.45882105641067028045654296875" lon="1.425656117498874664306640625">
        <ele>156.399993896484375</ele>
        <time>2026-08-05T11:57:47.000Z</time>
        <extensions>
          <ns3:TrackPointExtension>
            <ns3:hr>79</ns3:hr>
            <ns3:cad>0</ns3:cad>
          </ns3:TrackPointExtension>
        </extensions>
      </trkpt>
      <trkpt lat="43.45882105641067028045654296875" lon="1.425656117498874664306640625">
        <ele>156.399993896484375</ele>
        <time>2026-08-05T11:57:48.000Z</time>
        <extensions>
          <ns3:TrackPointExtension>
            <ns3:hr>78</ns3:hr>
            <ns3:cad>0</ns3:cad>
          </ns3:TrackPointExtension>
        </extensions>
      </trkpt>
      <trkpt lat="43.45882105641067028045654296875" lon="1.425656117498874664306640625">
        <ele>156.600006103515625</ele>
        <time>2026-08-05T11:57:49.000Z</time>
        <extensions>
          <ns3:TrackPointExtension>
            <ns3:hr>78</ns3:hr>
            <ns3:cad>0</ns3:cad>
          </ns3:TrackPointExtension>
        </extensions>
      </trkpt>
      <trkpt lat="43.45882105641067028045654296875" lon="1.425656117498874664306640625">
        <ele>156.600006103515625</ele>
        <time>2026-08-05T11:57:50.000Z</time>
        <extensions>
          <ns3:TrackPointExtension>
            <ns3:hr>77</ns3:hr>
            <ns3:cad>0</ns3:cad>
          </ns3:TrackPointExtension>
        </extensions>
      </trkpt>
      <trkpt lat="43.45882105641067028045654296875" lon="1.425656117498874664306640625">
        <ele>156.600006103515625</ele>
        <time>2026-08-05T11:57:51.000Z</time>
        <extensions>
          <ns3:TrackPointExtension>
            <ns3:hr>77</ns3:hr>
            <ns3:cad>0</ns3:cad>
          </ns3:TrackPointExtension>
        </extensions>
      </trkpt>
      <trkpt lat="43.45882105641067028045654296875" lon="1.425656117498874664306640625">
        <ele>156.8000030517578125</ele>
        <time>2026-08-05T11:57:52.000Z</time>
        <extensions>
          <ns3:TrackPointExtension>
            <ns3:hr>76</ns3:hr>
            <ns3:cad>0</ns3:cad>
          </ns3:TrackPointExtension>
        </extensions>
      </trkpt>
      <trkpt lat="43.45882105641067028045654296875" lon="1.425656117498874664306640625">
        <ele>156.8000030517578125</ele>
        <time>2026-08-05T11:57:53.000Z</time>
        <extensions>
          <ns3:TrackPointExtension>
            <ns3:hr>76</ns3:hr>
            <ns3:cad>0</ns3:cad>
          </ns3:TrackPointExtension>
        </extensions>
      </trkpt>
      <trkpt lat="43.45882105641067028045654296875" lon="1.425656117498874664306640625">
        <ele>156.8000030517578125</ele>
        <time>2026-08-05T11:57:54.000Z</time>
        <extensions>
          <ns3:TrackPointExtension>
            <ns3:hr>76</ns3:hr>
            <ns3:cad>0</ns3:cad>
          </ns3:TrackPointExtension>
        </extensions>
      </trkpt>
      <trkpt lat="43.45882105641067028045654296875" lon="1.425656117498874664306640625">
        <ele>156.8000030517578125</ele>
        <time>2026-08-05T11:57:55.000Z</time>
        <extensions>
          <ns3:TrackPointExtension>
            <ns3:hr>75</ns3:hr>
            <ns3:cad>0</ns3:cad>
          </ns3:TrackPointExtension>
        </extensions>
      </trkpt>
      <trkpt lat="43.45882105641067028045654296875" lon="1.425656117498874664306640625">
        <ele>156.600006103515625</ele>
        <time>2026-08-05T11:57:56.000Z</time>
        <extensions>
          <ns3:TrackPointExtension>
            <ns3:hr>75</ns3:hr>
            <ns3:cad>0</ns3:cad>
          </ns3:TrackPointExtension>
        </extensions>
      </trkpt>
      <trkpt lat="43.45882105641067028045654296875" lon="1.425656117498874664306640625">
        <ele>156.600006103515625</ele>
        <time>2026-08-05T11:57:57.000Z</time>
        <extensions>
          <ns3:TrackPointExtension>
            <ns3:hr>75</ns3:hr>
            <ns3:cad>0</ns3:cad>
          </ns3:TrackPointExtension>
        </extensions>
      </trkpt>
      <trkpt lat="43.45882105641067028045654296875" lon="1.425656117498874664306640625">
        <ele>156.600006103515625</ele>
        <time>2026-08-05T11:57:58.000Z</time>
        <extensions>
          <ns3:TrackPointExtension>
            <ns3:hr>75</ns3:hr>
            <ns3:cad>0</ns3:cad>
          </ns3:TrackPointExtension>
        </extensions>
      </trkpt>
      <trkpt lat="43.45882105641067028045654296875" lon="1.425656117498874664306640625">
        <ele>156.600006103515625</ele>
        <time>2026-08-05T11:57:59.000Z</time>
        <extensions>
          <ns3:TrackPointExtension>
            <ns3:hr>75</ns3:hr>
            <ns3:cad>0</ns3:cad>
          </ns3:TrackPointExtension>
        </extensions>
      </trkpt>
      <trkpt lat="43.45882105641067028045654296875" lon="1.425656117498874664306640625">
        <ele>156.600006103515625</ele>
        <time>2026-08-05T11:58:00.000Z</time>
        <extensions>
          <ns3:TrackPointExtension>
            <ns3:hr>75</ns3:hr>
            <ns3:cad>0</ns3:cad>
          </ns3:TrackPointExtension>
        </extensions>
      </trkpt>
      <trkpt lat="43.45882105641067028045654296875" lon="1.425656117498874664306640625">
        <ele>156.600006103515625</ele>
        <time>2026-08-05T11:58:01.000Z</time>
        <extensions>
          <ns3:TrackPointExtension>
            <ns3:hr>74</ns3:hr>
            <ns3:cad>0</ns3:cad>
          </ns3:TrackPointExtension>
        </extensions>
      </trkpt>
      <trkpt lat="43.45882105641067028045654296875" lon="1.425656117498874664306640625">
        <ele>156.600006103515625</ele>
        <time>2026-08-05T11:58:02.000Z</time>
        <extensions>
          <ns3:TrackPointExtension>
            <ns3:hr>74</ns3:hr>
            <ns3:cad>0</ns3:cad>
          </ns3:TrackPointExtension>
        </extensions>
      </trkpt>
      <trkpt lat="43.45882105641067028045654296875" lon="1.425656117498874664306640625">
        <ele>156.600006103515625</ele>
        <time>2026-08-05T11:58:03.000Z</time>
        <extensions>
          <ns3:TrackPointExtension>
            <ns3:hr>74</ns3:hr>
            <ns3:cad>0</ns3:cad>
          </ns3:TrackPointExtension>
        </extensions>
      </trkpt>
      <trkpt lat="43.45882105641067028045654296875" lon="1.425656117498874664306640625">
        <ele>156.600006103515625</ele>
        <time>2026-08-05T11:58:04.000Z</time>
        <extensions>
          <ns3:TrackPointExtension>
            <ns3:hr>74</ns3:hr>
            <ns3:cad>0</ns3:cad>
          </ns3:TrackPointExtension>
        </extensions>
      </trkpt>
      <trkpt lat="43.45882105641067028045654296875" lon="1.425656117498874664306640625">
        <ele>156.600006103515625</ele>
        <time>2026-08-05T11:58:05.000Z</time>
        <extensions>
          <ns3:TrackPointExtension>
            <ns3:hr>75</ns3:hr>
            <ns3:cad>0</ns3:cad>
          </ns3:TrackPointExtension>
        </extensions>
      </trkpt>
      <trkpt lat="43.45882105641067028045654296875" lon="1.425656117498874664306640625">
        <ele>156.600006103515625</ele>
        <time>2026-08-05T11:58:06.000Z</time>
        <extensions>
          <ns3:TrackPointExtension>
            <ns3:hr>75</ns3:hr>
            <ns3:cad>0</ns3:cad>
          </ns3:TrackPointExtension>
        </extensions>
      </trkpt>
      <trkpt lat="43.45882105641067028045654296875" lon="1.425656117498874664306640625">
        <ele>156.600006103515625</ele>
        <time>2026-08-05T11:58:07.000Z</time>
        <extensions>
          <ns3:TrackPointExtension>
            <ns3:hr>75</ns3:hr>
            <ns3:cad>0</ns3:cad>
          </ns3:TrackPointExtension>
        </extensions>
      </trkpt>
      <trkpt lat="43.45882105641067028045654296875" lon="1.425656117498874664306640625">
        <ele>156.600006103515625</ele>
        <time>2026-08-05T11:58:08.000Z</time>
        <extensions>
          <ns3:TrackPointExtension>
            <ns3:hr>75</ns3:hr>
            <ns3:cad>0</ns3:cad>
          </ns3:TrackPointExtension>
        </extensions>
      </trkpt>
      <trkpt lat="43.45882105641067028045654296875" lon="1.425656117498874664306640625">
        <ele>156.600006103515625</ele>
        <time>2026-08-05T11:58:09.000Z</time>
        <extensions>
          <ns3:TrackPointExtension>
            <ns3:hr>76</ns3:hr>
            <ns3:cad>0</ns3:cad>
          </ns3:TrackPointExtension>
        </extensions>
      </trkpt>
      <trkpt lat="43.45882105641067028045654296875" lon="1.425656117498874664306640625">
        <ele>156.600006103515625</ele>
        <time>2026-08-05T11:58:10.000Z</time>
        <extensions>
          <ns3:TrackPointExtension>
            <ns3:hr>76</ns3:hr>
            <ns3:cad>0</ns3:cad>
          </ns3:TrackPointExtension>
        </extensions>
      </trkpt>
      <trkpt lat="43.45882105641067028045654296875" lon="1.425656117498874664306640625">
        <ele>156.600006103515625</ele>
        <time>2026-08-05T11:58:11.000Z</time>
        <extensions>
          <ns3:TrackPointExtension>
            <ns3:hr>75</ns3:hr>
            <ns3:cad>0</ns3:cad>
          </ns3:TrackPointExtension>
        </extensions>
      </trkpt>
      <trkpt lat="43.45882105641067028045654296875" lon="1.425656117498874664306640625">
        <ele>156.600006103515625</ele>
        <time>2026-08-05T11:58:12.000Z</time>
        <extensions>
          <ns3:TrackPointExtension>
            <ns3:hr>75</ns3:hr>
            <ns3:cad>0</ns3:cad>
          </ns3:TrackPointExtension>
        </extensions>
      </trkpt>
      <trkpt lat="43.45882105641067028045654296875" lon="1.425656117498874664306640625">
        <ele>156.600006103515625</ele>
        <time>2026-08-05T11:58:13.000Z</time>
        <extensions>
          <ns3:TrackPointExtension>
            <ns3:hr>74</ns3:hr>
            <ns3:cad>0</ns3:cad>
          </ns3:TrackPointExtension>
        </extensions>
      </trkpt>
      <trkpt lat="43.45882105641067028045654296875" lon="1.425656117498874664306640625">
        <ele>156.600006103515625</ele>
        <time>2026-08-05T11:58:14.000Z</time>
        <extensions>
          <ns3:TrackPointExtension>
            <ns3:hr>73</ns3:hr>
            <ns3:cad>0</ns3:cad>
          </ns3:TrackPointExtension>
        </extensions>
      </trkpt>
      <trkpt lat="43.45882105641067028045654296875" lon="1.425656117498874664306640625">
        <ele>156.600006103515625</ele>
        <time>2026-08-05T11:58:15.000Z</time>
        <extensions>
          <ns3:TrackPointExtension>
            <ns3:hr>72</ns3:hr>
            <ns3:cad>0</ns3:cad>
          </ns3:TrackPointExtension>
        </extensions>
      </trkpt>
      <trkpt lat="43.45882105641067028045654296875" lon="1.425656117498874664306640625">
        <ele>156.600006103515625</ele>
        <time>2026-08-05T11:58:16.000Z</time>
        <extensions>
          <ns3:TrackPointExtension>
            <ns3:hr>73</ns3:hr>
            <ns3:cad>0</ns3:cad>
          </ns3:TrackPointExtension>
        </extensions>
      </trkpt>
      <trkpt lat="43.45882105641067028045654296875" lon="1.425656117498874664306640625">
        <ele>156.399993896484375</ele>
        <time>2026-08-05T11:58:17.000Z</time>
        <extensions>
          <ns3:TrackPointExtension>
            <ns3:hr>72</ns3:hr>
            <ns3:cad>0</ns3:cad>
          </ns3:TrackPointExtension>
        </extensions>
      </trkpt>
      <trkpt lat="43.45882105641067028045654296875" lon="1.425656117498874664306640625">
        <ele>156.399993896484375</ele>
        <time>2026-08-05T11:58:18.000Z</time>
        <extensions>
          <ns3:TrackPointExtension>
            <ns3:hr>70</ns3:hr>
            <ns3:cad>0</ns3:cad>
          </ns3:TrackPointExtension>
        </extensions>
      </trkpt>
      <trkpt lat="43.45882105641067028045654296875" lon="1.425656117498874664306640625">
        <ele>156.399993896484375</ele>
        <time>2026-08-05T11:58:19.000Z</time>
        <extensions>
          <ns3:TrackPointExtension>
            <ns3:hr>70</ns3:hr>
            <ns3:cad>0</ns3:cad>
          </ns3:TrackPointExtension>
        </extensions>
      </trkpt>
      <trkpt lat="43.45882105641067028045654296875" lon="1.425656117498874664306640625">
        <ele>156.600006103515625</ele>
        <time>2026-08-05T11:58:20.000Z</time>
        <extensions>
          <ns3:TrackPointExtension>
            <ns3:hr>69</ns3:hr>
            <ns3:cad>0</ns3:cad>
          </ns3:TrackPointExtension>
        </extensions>
      </trkpt>
      <trkpt lat="43.45882105641067028045654296875" lon="1.425656117498874664306640625">
        <ele>156.600006103515625</ele>
        <time>2026-08-05T11:58:21.000Z</time>
        <extensions>
          <ns3:TrackPointExtension>
            <ns3:hr>69</ns3:hr>
            <ns3:cad>0</ns3:cad>
          </ns3:TrackPointExtension>
        </extensions>
      </trkpt>
      <trkpt lat="43.45882105641067028045654296875" lon="1.425656117498874664306640625">
        <ele>156.600006103515625</ele>
        <time>2026-08-05T11:58:22.000Z</time>
        <extensions>
          <ns3:TrackPointExtension>
            <ns3:hr>69</ns3:hr>
            <ns3:cad>0</ns3:cad>
          </ns3:TrackPointExtension>
        </extensions>
      </trkpt>
      <trkpt lat="43.45882105641067028045654296875" lon="1.425656117498874664306640625">
        <ele>156.600006103515625</ele>
        <time>2026-08-05T11:58:23.000Z</time>
        <extensions>
          <ns3:TrackPointExtension>
            <ns3:hr>69</ns3:hr>
            <ns3:cad>0</ns3:cad>
          </ns3:TrackPointExtension>
        </extensions>
      </trkpt>
      <trkpt lat="43.45882105641067028045654296875" lon="1.425656117498874664306640625">
        <ele>156.399993896484375</ele>
        <time>2026-08-05T11:58:24.000Z</time>
        <extensions>
          <ns3:TrackPointExtension>
            <ns3:hr>69</ns3:hr>
            <ns3:cad>0</ns3:cad>
          </ns3:TrackPointExtension>
        </extensions>
      </trkpt>
      <trkpt lat="43.45882105641067028045654296875" lon="1.425656117498874664306640625">
        <ele>156.399993896484375</ele>
        <time>2026-08-05T11:58:25.000Z</time>
        <extensions>
          <ns3:TrackPointExtension>
            <ns3:hr>70</ns3:hr>
            <ns3:cad>0</ns3:cad>
          </ns3:TrackPointExtension>
        </extensions>
      </trkpt>
      <trkpt lat="43.45882105641067028045654296875" lon="1.425656117498874664306640625">
        <ele>156.399993896484375</ele>
        <time>2026-08-05T11:58:26.000Z</time>
        <extensions>
          <ns3:TrackPointExtension>
            <ns3:hr>70</ns3:hr>
            <ns3:cad>0</ns3:cad>
          </ns3:TrackPointExtension>
        </extensions>
      </trkpt>
      <trkpt lat="43.45882105641067028045654296875" lon="1.425656117498874664306640625">
        <ele>156.399993896484375</ele>
        <time>2026-08-05T11:58:27.000Z</time>
        <extensions>
          <ns3:TrackPointExtension>
            <ns3:hr>71</ns3:hr>
            <ns3:cad>0</ns3:cad>
          </ns3:TrackPointExtension>
        </extensions>
      </trkpt>
      <trkpt lat="43.45882105641067028045654296875" lon="1.425656117498874664306640625">
        <ele>156.399993896484375</ele>
        <time>2026-08-05T11:58:28.000Z</time>
        <extensions>
          <ns3:TrackPointExtension>
            <ns3:hr>71</ns3:hr>
            <ns3:cad>0</ns3:cad>
          </ns3:TrackPointExtension>
        </extensions>
      </trkpt>
      <trkpt lat="43.45882105641067028045654296875" lon="1.425656117498874664306640625">
        <ele>156.399993896484375</ele>
        <time>2026-08-05T11:58:29.000Z</time>
        <extensions>
          <ns3:TrackPointExtension>
            <ns3:hr>71</ns3:hr>
            <ns3:cad>0</ns3:cad>
          </ns3:TrackPointExtension>
        </extensions>
      </trkpt>
      <trkpt lat="43.45882105641067028045654296875" lon="1.425656117498874664306640625">
        <ele>156.399993896484375</ele>
        <time>2026-08-05T11:58:30.000Z</time>
        <extensions>
          <ns3:TrackPointExtension>
            <ns3:hr>70</ns3:hr>
            <ns3:cad>0</ns3:cad>
          </ns3:TrackPointExtension>
        </extensions>
      </trkpt>
      <trkpt lat="43.45882105641067028045654296875" lon="1.425656117498874664306640625">
        <ele>156.399993896484375</ele>
        <time>2026-08-05T11:58:31.000Z</time>
        <extensions>
          <ns3:TrackPointExtension>
            <ns3:hr>70</ns3:hr>
            <ns3:cad>0</ns3:cad>
          </ns3:TrackPointExtension>
        </extensions>
      </trkpt>
      <trkpt lat="43.45882105641067028045654296875" lon="1.425656117498874664306640625">
        <ele>156.600006103515625</ele>
        <time>2026-08-05T11:58:32.000Z</time>
        <extensions>
          <ns3:TrackPointExtension>
            <ns3:hr>70</ns3:hr>
            <ns3:cad>0</ns3:cad>
          </ns3:TrackPointExtension>
        </extensions>
      </trkpt>
      <trkpt lat="43.45882105641067028045654296875" lon="1.425656117498874664306640625">
        <ele>156.600006103515625</ele>
        <time>2026-08-05T11:58:33.000Z</time>
        <extensions>
          <ns3:TrackPointExtension>
            <ns3:hr>70</ns3:hr>
            <ns3:cad>0</ns3:cad>
          </ns3:TrackPointExtension>
        </extensions>
      </trkpt>
      <trkpt lat="43.45881988294422626495361328125" lon="1.4256599731743335723876953125">
        <ele>156.600006103515625</ele>
        <time>2026-08-05T11:58:34.000Z</time>
        <extensions>
          <ns3:TrackPointExtension>
            <ns3:hr>70</ns3:hr>
            <ns3:cad>0</ns3:cad>
          </ns3:TrackPointExtension>
        </extensions>
      </trkpt>
      <trkpt lat="43.45881468616425991058349609375" lon="1.4256705343723297119140625">
        <ele>156.600006103515625</ele>
        <time>2026-08-05T11:58:35.000Z</time>
        <extensions>
          <ns3:TrackPointExtension>
            <ns3:hr>69</ns3:hr>
            <ns3:cad>0</ns3:cad>
          </ns3:TrackPointExtension>
        </extensions>
      </trkpt>
      <trkpt lat="43.45881141722202301025390625" lon="1.42568017356097698211669921875">
        <ele>156.600006103515625</ele>
        <time>2026-08-05T11:58:36.000Z</time>
        <extensions>
          <ns3:TrackPointExtension>
            <ns3:hr>69</ns3:hr>
            <ns3:cad>0</ns3:cad>
          </ns3:TrackPointExtension>
        </extensions>
      </trkpt>
      <trkpt lat="43.45880697481334209442138671875" lon="1.42569065093994140625">
        <ele>156.600006103515625</ele>
        <time>2026-08-05T11:58:37.000Z</time>
        <extensions>
          <ns3:TrackPointExtension>
            <ns3:hr>69</ns3:hr>
            <ns3:cad>0</ns3:cad>
          </ns3:TrackPointExtension>
        </extensions>
      </trkpt>
      <trkpt lat="43.45880161039531230926513671875" lon="1.42570347525179386138916015625">
        <ele>156.600006103515625</ele>
        <time>2026-08-05T11:58:38.000Z</time>
        <extensions>
          <ns3:TrackPointExtension>
            <ns3:hr>69</ns3:hr>
            <ns3:cad>0</ns3:cad>
          </ns3:TrackPointExtension>
        </extensions>
      </trkpt>
      <trkpt lat="43.45879658125340938568115234375" lon="1.4257099293172359466552734375">
        <ele>156.600006103515625</ele>
        <time>2026-08-05T11:58:39.000Z</time>
        <extensions>
          <ns3:TrackPointExtension>
            <ns3:hr>69</ns3:hr>
            <ns3:cad>0</ns3:cad>
          </ns3:TrackPointExtension>
        </extensions>
      </trkpt>
      <trkpt lat="43.4587948210537433624267578125" lon="1.42571688629686832427978515625">
        <ele>156.600006103515625</ele>
        <time>2026-08-05T11:58:40.000Z</time>
        <extensions>
          <ns3:TrackPointExtension>
            <ns3:hr>69</ns3:hr>
            <ns3:cad>0</ns3:cad>
          </ns3:TrackPointExtension>
        </extensions>
      </trkpt>
      <trkpt lat="43.45879289321601390838623046875" lon="1.42572258599102497100830078125">
        <ele>156.600006103515625</ele>
        <time>2026-08-05T11:58:41.000Z</time>
        <extensions>
          <ns3:TrackPointExtension>
            <ns3:hr>69</ns3:hr>
            <ns3:cad>0</ns3:cad>
          </ns3:TrackPointExtension>
        </extensions>
      </trkpt>
      <trkpt lat="43.45878970809280872344970703125" lon="1.4257280342280864715576171875">
        <ele>156.600006103515625</ele>
        <time>2026-08-05T11:58:42.000Z</time>
        <extensions>
          <ns3:TrackPointExtension>
            <ns3:hr>69</ns3:hr>
            <ns3:cad>0</ns3:cad>
          </ns3:TrackPointExtension>
        </extensions>
      </trkpt>
      <trkpt lat="43.45878702588379383087158203125" lon="1.4257340691983699798583984375">
        <ele>156.600006103515625</ele>
        <time>2026-08-05T11:58:43.000Z</time>
        <extensions>
          <ns3:TrackPointExtension>
            <ns3:hr>69</ns3:hr>
            <ns3:cad>0</ns3:cad>
          </ns3:TrackPointExtension>
        </extensions>
      </trkpt>
      <trkpt lat="43.45878099091351032257080078125" lon="1.4257411099970340728759765625">
        <ele>156.600006103515625</ele>
        <time>2026-08-05T11:58:44.000Z</time>
        <extensions>
          <ns3:TrackPointExtension>
            <ns3:hr>69</ns3:hr>
            <ns3:cad>0</ns3:cad>
          </ns3:TrackPointExtension>
        </extensions>
      </trkpt>
      <trkpt lat="43.4587783925235271453857421875" lon="1.425746642053127288818359375">
        <ele>156.600006103515625</ele>
        <time>2026-08-05T11:58:45.000Z</time>
        <extensions>
          <ns3:TrackPointExtension>
            <ns3:hr>68</ns3:hr>
            <ns3:cad>0</ns3:cad>
          </ns3:TrackPointExtension>
        </extensions>
      </trkpt>
      <trkpt lat="43.458777554333209991455078125" lon="1.42575301229953765869140625">
        <ele>156.600006103515625</ele>
        <time>2026-08-05T11:58:46.000Z</time>
        <extensions>
          <ns3:TrackPointExtension>
            <ns3:hr>68</ns3:hr>
            <ns3:cad>0</ns3:cad>
          </ns3:TrackPointExtension>
        </extensions>
      </trkpt>
      <trkpt lat="43.45877679996192455291748046875" lon="1.4257618971168994903564453125">
        <ele>156.600006103515625</ele>
        <time>2026-08-05T11:58:47.000Z</time>
        <extensions>
          <ns3:TrackPointExtension>
            <ns3:hr>68</ns3:hr>
            <ns3:cad>0</ns3:cad>
          </ns3:TrackPointExtension>
        </extensions>
      </trkpt>
      <trkpt lat="43.45877244137227535247802734375" lon="1.425770111382007598876953125">
        <ele>156.600006103515625</ele>
        <time>2026-08-05T11:58:48.000Z</time>
        <extensions>
          <ns3:TrackPointExtension>
            <ns3:hr>69</ns3:hr>
            <ns3:cad>0</ns3:cad>
          </ns3:TrackPointExtension>
        </extensions>
      </trkpt>
      <trkpt lat="43.45876858569681644439697265625" lon="1.42577589489519596099853515625">
        <ele>156.600006103515625</ele>
        <time>2026-08-05T11:58:49.000Z</time>
        <extensions>
          <ns3:TrackPointExtension>
            <ns3:hr>72</ns3:hr>
            <ns3:cad>0</ns3:cad>
          </ns3:TrackPointExtension>
        </extensions>
      </trkpt>
      <trkpt lat="43.45876640640199184417724609375" lon="1.42578209750354290008544921875">
        <ele>156.600006103515625</ele>
        <time>2026-08-05T11:58:50.000Z</time>
        <extensions>
          <ns3:TrackPointExtension>
            <ns3:hr>74</ns3:hr>
            <ns3:cad>73</ns3:cad>
          </ns3:TrackPointExtension>
        </extensions>
      </trkpt>
      <trkpt lat="43.4587639756500720977783203125" lon="1.4257870428264141082763671875">
        <ele>156.600006103515625</ele>
        <time>2026-08-05T11:58:51.000Z</time>
        <extensions>
          <ns3:TrackPointExtension>
            <ns3:hr>75</ns3:hr>
            <ns3:cad>74</ns3:cad>
          </ns3:TrackPointExtension>
        </extensions>
      </trkpt>
      <trkpt lat="43.45876288600265979766845703125" lon="1.4257870428264141082763671875">
        <ele>156.600006103515625</ele>
        <time>2026-08-05T11:58:52.000Z</time>
        <extensions>
          <ns3:TrackPointExtension>
            <ns3:hr>75</ns3:hr>
            <ns3:cad>74</ns3:cad>
          </ns3:TrackPointExtension>
        </extensions>
      </trkpt>
      <trkpt lat="43.4587619639933109283447265625" lon="1.4257880486547946929931640625">
        <ele>156.600006103515625</ele>
        <time>2026-08-05T11:58:53.000Z</time>
        <extensions>
          <ns3:TrackPointExtension>
            <ns3:hr>75</ns3:hr>
            <ns3:cad>0</ns3:cad>
          </ns3:TrackPointExtension>
        </extensions>
      </trkpt>
      <trkpt lat="43.4587626345455646514892578125" lon="1.4257870428264141082763671875">
        <ele>156.600006103515625</ele>
        <time>2026-08-05T11:58:54.000Z</time>
        <extensions>
          <ns3:TrackPointExtension>
            <ns3:hr>76</ns3:hr>
            <ns3:cad>0</ns3:cad>
          </ns3:TrackPointExtension>
        </extensions>
      </trkpt>
      <trkpt lat="43.458764813840389251708984375" lon="1.425784192979335784912109375">
        <ele>156.600006103515625</ele>
        <time>2026-08-05T11:58:55.000Z</time>
        <extensions>
          <ns3:TrackPointExtension>
            <ns3:hr>76</ns3:hr>
            <ns3:cad>0</ns3:cad>
          </ns3:TrackPointExtension>
        </extensions>
      </trkpt>
      <trkpt lat="43.4587666578590869903564453125" lon="1.425780840218067169189453125">
        <ele>156.600006103515625</ele>
        <time>2026-08-05T11:58:56.000Z</time>
        <extensions>
          <ns3:TrackPointExtension>
            <ns3:hr>77</ns3:hr>
            <ns3:cad>0</ns3:cad>
          </ns3:TrackPointExtension>
        </extensions>
      </trkpt>
      <trkpt lat="43.4587666578590869903564453125" lon="1.425780840218067169189453125">
        <ele>156.600006103515625</ele>
        <time>2026-08-05T11:58:57.000Z</time>
        <extensions>
          <ns3:TrackPointExtension>
            <ns3:hr>77</ns3:hr>
            <ns3:cad>0</ns3:cad>
          </ns3:TrackPointExtension>
        </extensions>
      </trkpt>
      <trkpt lat="43.4587666578590869903564453125" lon="1.425780840218067169189453125">
        <ele>156.600006103515625</ele>
        <time>2026-08-05T11:58:58.000Z</time>
        <extensions>
          <ns3:TrackPointExtension>
            <ns3:hr>76</ns3:hr>
            <ns3:cad>0</ns3:cad>
          </ns3:TrackPointExtension>
        </extensions>
      </trkpt>
      <trkpt lat="43.4587666578590869903564453125" lon="1.425780840218067169189453125">
        <ele>156.600006103515625</ele>
        <time>2026-08-05T11:58:59.000Z</time>
        <extensions>
          <ns3:TrackPointExtension>
            <ns3:hr>75</ns3:hr>
            <ns3:cad>0</ns3:cad>
          </ns3:TrackPointExtension>
        </extensions>
      </trkpt>
      <trkpt lat="43.4587666578590869903564453125" lon="1.425780840218067169189453125">
        <ele>156.600006103515625</ele>
        <time>2026-08-05T11:59:00.000Z</time>
        <extensions>
          <ns3:TrackPointExtension>
            <ns3:hr>74</ns3:hr>
            <ns3:cad>0</ns3:cad>
          </ns3:TrackPointExtension>
        </extensions>
      </trkpt>
      <trkpt lat="43.4587666578590869903564453125" lon="1.425780840218067169189453125">
        <ele>156.600006103515625</ele>
        <time>2026-08-05T11:59:01.000Z</time>
        <extensions>
          <ns3:TrackPointExtension>
            <ns3:hr>74</ns3:hr>
            <ns3:cad>0</ns3:cad>
          </ns3:TrackPointExtension>
        </extensions>
      </trkpt>
      <trkpt lat="43.4587666578590869903564453125" lon="1.425780840218067169189453125">
        <ele>156.600006103515625</ele>
        <time>2026-08-05T11:59:02.000Z</time>
        <extensions>
          <ns3:TrackPointExtension>
            <ns3:hr>75</ns3:hr>
            <ns3:cad>0</ns3:cad>
          </ns3:TrackPointExtension>
        </extensions>
      </trkpt>
      <trkpt lat="43.4587666578590869903564453125" lon="1.425780840218067169189453125">
        <ele>156.600006103515625</ele>
        <time>2026-08-05T11:59:03.000Z</time>
        <extensions>
          <ns3:TrackPointExtension>
            <ns3:hr>75</ns3:hr>
            <ns3:cad>0</ns3:cad>
          </ns3:TrackPointExtension>
        </extensions>
      </trkpt>
      <trkpt lat="43.4587666578590869903564453125" lon="1.425780840218067169189453125">
        <ele>156.600006103515625</ele>
        <time>2026-08-05T11:59:04.000Z</time>
        <extensions>
          <ns3:TrackPointExtension>
            <ns3:hr>75</ns3:hr>
            <ns3:cad>0</ns3:cad>
          </ns3:TrackPointExtension>
        </extensions>
      </trkpt>
      <trkpt lat="43.4587666578590869903564453125" lon="1.425780840218067169189453125">
        <ele>156.600006103515625</ele>
        <time>2026-08-05T11:59:05.000Z</time>
        <extensions>
          <ns3:TrackPointExtension>
            <ns3:hr>75</ns3:hr>
            <ns3:cad>0</ns3:cad>
          </ns3:TrackPointExtension>
        </extensions>
      </trkpt>
      <trkpt lat="43.4587666578590869903564453125" lon="1.425780840218067169189453125">
        <ele>156.600006103515625</ele>
        <time>2026-08-05T11:59:06.000Z</time>
        <extensions>
          <ns3:TrackPointExtension>
            <ns3:hr>75</ns3:hr>
            <ns3:cad>0</ns3:cad>
          </ns3:TrackPointExtension>
        </extensions>
      </trkpt>
      <trkpt lat="43.4587666578590869903564453125" lon="1.425780840218067169189453125">
        <ele>156.600006103515625</ele>
        <time>2026-08-05T11:59:07.000Z</time>
        <extensions>
          <ns3:TrackPointExtension>
            <ns3:hr>75</ns3:hr>
            <ns3:cad>0</ns3:cad>
          </ns3:TrackPointExtension>
        </extensions>
      </trkpt>
      <trkpt lat="43.4587666578590869903564453125" lon="1.425780840218067169189453125">
        <ele>156.600006103515625</ele>
        <time>2026-08-05T11:59:08.000Z</time>
        <extensions>
          <ns3:TrackPointExtension>
            <ns3:hr>75</ns3:hr>
            <ns3:cad>0</ns3:cad>
          </ns3:TrackPointExtension>
        </extensions>
      </trkpt>
      <trkpt lat="43.4587666578590869903564453125" lon="1.425780840218067169189453125">
        <ele>156.600006103515625</ele>
        <time>2026-08-05T11:59:09.000Z</time>
        <extensions>
          <ns3:TrackPointExtension>
            <ns3:hr>75</ns3:hr>
            <ns3:cad>0</ns3:cad>
          </ns3:TrackPointExtension>
        </extensions>
      </trkpt>
      <trkpt lat="43.4587666578590869903564453125" lon="1.425780840218067169189453125">
        <ele>156.600006103515625</ele>
        <time>2026-08-05T11:59:10.000Z</time>
        <extensions>
          <ns3:TrackPointExtension>
            <ns3:hr>75</ns3:hr>
            <ns3:cad>0</ns3:cad>
          </ns3:TrackPointExtension>
        </extensions>
      </trkpt>
      <trkpt lat="43.4587666578590869903564453125" lon="1.425780840218067169189453125">
        <ele>156.399993896484375</ele>
        <time>2026-08-05T11:59:11.000Z</time>
        <extensions>
          <ns3:TrackPointExtension>
            <ns3:hr>75</ns3:hr>
            <ns3:cad>0</ns3:cad>
          </ns3:TrackPointExtension>
        </extensions>
      </trkpt>
      <trkpt lat="43.4587666578590869903564453125" lon="1.425780840218067169189453125">
        <ele>156.399993896484375</ele>
        <time>2026-08-05T11:59:12.000Z</time>
        <extensions>
          <ns3:TrackPointExtension>
            <ns3:hr>75</ns3:hr>
            <ns3:cad>0</ns3:cad>
          </ns3:TrackPointExtension>
        </extensions>
      </trkpt>
      <trkpt lat="43.4587666578590869903564453125" lon="1.425780840218067169189453125">
        <ele>156.399993896484375</ele>
        <time>2026-08-05T11:59:13.000Z</time>
        <extensions>
          <ns3:TrackPointExtension>
            <ns3:hr>75</ns3:hr>
            <ns3:cad>0</ns3:cad>
          </ns3:TrackPointExtension>
        </extensions>
      </trkpt>
      <trkpt lat="43.4587666578590869903564453125" lon="1.425780840218067169189453125">
        <ele>156.399993896484375</ele>
        <time>2026-08-05T11:59:14.000Z</time>
        <extensions>
          <ns3:TrackPointExtension>
            <ns3:hr>76</ns3:hr>
            <ns3:cad>0</ns3:cad>
          </ns3:TrackPointExtension>
        </extensions>
      </trkpt>
      <trkpt lat="43.4587666578590869903564453125" lon="1.425780840218067169189453125">
        <ele>156.399993896484375</ele>
        <time>2026-08-05T11:59:15.000Z</time>
        <extensions>
          <ns3:TrackPointExtension>
            <ns3:hr>76</ns3:hr>
            <ns3:cad>0</ns3:cad>
          </ns3:TrackPointExtension>
        </extensions>
      </trkpt>
      <trkpt lat="43.4587666578590869903564453125" lon="1.425780840218067169189453125">
        <ele>156.600006103515625</ele>
        <time>2026-08-05T11:59:16.000Z</time>
        <extensions>
          <ns3:TrackPointExtension>
            <ns3:hr>76</ns3:hr>
            <ns3:cad>0</ns3:cad>
          </ns3:TrackPointExtension>
        </extensions>
      </trkpt>
      <trkpt lat="43.4587666578590869903564453125" lon="1.425780840218067169189453125">
        <ele>156.600006103515625</ele>
        <time>2026-08-05T11:59:17.000Z</time>
        <extensions>
          <ns3:TrackPointExtension>
            <ns3:hr>77</ns3:hr>
            <ns3:cad>0</ns3:cad>
          </ns3:TrackPointExtension>
        </extensions>
      </trkpt>
      <trkpt lat="43.4587666578590869903564453125" lon="1.425780840218067169189453125">
        <ele>156.600006103515625</ele>
        <time>2026-08-05T11:59:18.000Z</time>
        <extensions>
          <ns3:TrackPointExtension>
            <ns3:hr>76</ns3:hr>
            <ns3:cad>0</ns3:cad>
          </ns3:TrackPointExtension>
        </extensions>
      </trkpt>
      <trkpt lat="43.4587666578590869903564453125" lon="1.425780840218067169189453125">
        <ele>156.600006103515625</ele>
        <time>2026-08-05T11:59:19.000Z</time>
        <extensions>
          <ns3:TrackPointExtension>
            <ns3:hr>77</ns3:hr>
            <ns3:cad>0</ns3:cad>
          </ns3:TrackPointExtension>
        </extensions>
      </trkpt>
      <trkpt lat="43.4587666578590869903564453125" lon="1.425780840218067169189453125">
        <ele>156.600006103515625</ele>
        <time>2026-08-05T11:59:20.000Z</time>
        <extensions>
          <ns3:TrackPointExtension>
            <ns3:hr>77</ns3:hr>
            <ns3:cad>0</ns3:cad>
          </ns3:TrackPointExtension>
        </extensions>
      </trkpt>
      <trkpt lat="43.45876984298229217529296875" lon="1.4257897250354290008544921875">
        <ele>156.600006103515625</ele>
        <time>2026-08-05T11:59:21.000Z</time>
        <extensions>
          <ns3:TrackPointExtension>
            <ns3:hr>77</ns3:hr>
            <ns3:cad>0</ns3:cad>
          </ns3:TrackPointExtension>
        </extensions>
      </trkpt>
      <trkpt lat="43.45876716077327728271484375" lon="1.4258031360805034637451171875">
        <ele>156.600006103515625</ele>
        <time>2026-08-05T11:59:22.000Z</time>
        <extensions>
          <ns3:TrackPointExtension>
            <ns3:hr>77</ns3:hr>
            <ns3:cad>0</ns3:cad>
          </ns3:TrackPointExtension>
        </extensions>
      </trkpt>
      <trkpt lat="43.45876607112586498260498046875" lon="1.42581277526915073394775390625">
        <ele>156.600006103515625</ele>
        <time>2026-08-05T11:59:23.000Z</time>
        <extensions>
          <ns3:TrackPointExtension>
            <ns3:hr>78</ns3:hr>
            <ns3:cad>0</ns3:cad>
          </ns3:TrackPointExtension>
        </extensions>
      </trkpt>
      <trkpt lat="43.45876716077327728271484375" lon="1.4258105121552944183349609375">
        <ele>156.600006103515625</ele>
        <time>2026-08-05T11:59:24.000Z</time>
        <extensions>
          <ns3:TrackPointExtension>
            <ns3:hr>78</ns3:hr>
            <ns3:cad>0</ns3:cad>
          </ns3:TrackPointExtension>
        </extensions>
      </trkpt>
      <trkpt lat="43.45876724459230899810791015625" lon="1.4258105121552944183349609375">
        <ele>156.600006103515625</ele>
        <time>2026-08-05T11:59:25.000Z</time>
        <extensions>
          <ns3:TrackPointExtension>
            <ns3:hr>78</ns3:hr>
            <ns3:cad>0</ns3:cad>
          </ns3:TrackPointExtension>
        </extensions>
      </trkpt>
      <trkpt lat="43.45876724459230899810791015625" lon="1.4258105121552944183349609375">
        <ele>156.399993896484375</ele>
        <time>2026-08-05T11:59:26.000Z</time>
        <extensions>
          <ns3:TrackPointExtension>
            <ns3:hr>78</ns3:hr>
            <ns3:cad>0</ns3:cad>
          </ns3:TrackPointExtension>
        </extensions>
      </trkpt>
      <trkpt lat="43.45876724459230899810791015625" lon="1.4258105121552944183349609375">
        <ele>156.600006103515625</ele>
        <time>2026-08-05T11:59:27.000Z</time>
        <extensions>
          <ns3:TrackPointExtension>
            <ns3:hr>78</ns3:hr>
            <ns3:cad>0</ns3:cad>
          </ns3:TrackPointExtension>
        </extensions>
      </trkpt>
      <trkpt lat="43.458767496049404144287109375" lon="1.42581009306013584136962890625">
        <ele>156.600006103515625</ele>
        <time>2026-08-05T11:59:28.000Z</time>
        <extensions>
          <ns3:TrackPointExtension>
            <ns3:hr>77</ns3:hr>
            <ns3:cad>0</ns3:cad>
          </ns3:TrackPointExtension>
        </extensions>
      </trkpt>
      <trkpt lat="43.45876892097294330596923828125" lon="1.42581813968718051910400390625">
        <ele>156.600006103515625</ele>
        <time>2026-08-05T11:59:29.000Z</time>
        <extensions>
          <ns3:TrackPointExtension>
            <ns3:hr>77</ns3:hr>
            <ns3:cad>0</ns3:cad>
          </ns3:TrackPointExtension>
        </extensions>
      </trkpt>
      <trkpt lat="43.45876707695424556732177734375" lon="1.4258259348571300506591796875">
        <ele>156.600006103515625</ele>
        <time>2026-08-05T11:59:30.000Z</time>
        <extensions>
          <ns3:TrackPointExtension>
            <ns3:hr>76</ns3:hr>
            <ns3:cad>0</ns3:cad>
          </ns3:TrackPointExtension>
        </extensions>
      </trkpt>
      <trkpt lat="43.45876514911651611328125" lon="1.4258380047976970672607421875">
        <ele>156.600006103515625</ele>
        <time>2026-08-05T11:59:31.000Z</time>
        <extensions>
          <ns3:TrackPointExtension>
            <ns3:hr>75</ns3:hr>
            <ns3:cad>0</ns3:cad>
          </ns3:TrackPointExtension>
        </extensions>
      </trkpt>
      <trkpt lat="43.4587638080120086669921875" lon="1.42585183493793010711669921875">
        <ele>156.600006103515625</ele>
        <time>2026-08-05T11:59:32.000Z</time>
        <extensions>
          <ns3:TrackPointExtension>
            <ns3:hr>75</ns3:hr>
            <ns3:cad>0</ns3:cad>
          </ns3:TrackPointExtension>
        </extensions>
      </trkpt>
      <trkpt lat="43.458761461079120635986328125" lon="1.4258618094027042388916015625">
        <ele>156.399993896484375</ele>
        <time>2026-08-05T11:59:33.000Z</time>
        <extensions>
          <ns3:TrackPointExtension>
            <ns3:hr>75</ns3:hr>
            <ns3:cad>0</ns3:cad>
          </ns3:TrackPointExtension>
        </extensions>
      </trkpt>
      <trkpt lat="43.45875785686075687408447265625" lon="1.42587144859135150909423828125">
        <ele>156.399993896484375</ele>
        <time>2026-08-05T11:59:34.000Z</time>
        <extensions>
          <ns3:TrackPointExtension>
            <ns3:hr>75</ns3:hr>
            <ns3:cad>0</ns3:cad>
          </ns3:TrackPointExtension>
        </extensions>
      </trkpt>
      <trkpt lat="43.4587549231946468353271484375" lon="1.42588284797966480255126953125">
        <ele>156.399993896484375</ele>
        <time>2026-08-05T11:59:35.000Z</time>
        <extensions>
          <ns3:TrackPointExtension>
            <ns3:hr>75</ns3:hr>
            <ns3:cad>0</ns3:cad>
          </ns3:TrackPointExtension>
        </extensions>
      </trkpt>
      <trkpt lat="43.45875064842402935028076171875" lon="1.4258916489779949188232421875">
        <ele>156.399993896484375</ele>
        <time>2026-08-05T11:59:36.000Z</time>
        <extensions>
          <ns3:TrackPointExtension>
            <ns3:hr>75</ns3:hr>
            <ns3:cad>0</ns3:cad>
          </ns3:TrackPointExtension>
        </extensions>
      </trkpt>
      <trkpt lat="43.458746038377285003662109375" lon="1.4259020425379276275634765625">
        <ele>156.399993896484375</ele>
        <time>2026-08-05T11:59:37.000Z</time>
        <extensions>
          <ns3:TrackPointExtension>
            <ns3:hr>76</ns3:hr>
            <ns3:cad>79</ns3:cad>
          </ns3:TrackPointExtension>
        </extensions>
      </trkpt>
      <trkpt lat="43.45874360762536525726318359375" lon="1.42591436393558979034423828125">
        <ele>156.600006103515625</ele>
        <time>2026-08-05T11:59:38.000Z</time>
        <extensions>
          <ns3:TrackPointExtension>
            <ns3:hr>76</ns3:hr>
            <ns3:cad>79</ns3:cad>
          </ns3:TrackPointExtension>
        </extensions>
      </trkpt>
      <trkpt lat="43.458739332854747772216796875" lon="1.42592609860002994537353515625">
        <ele>156.600006103515625</ele>
        <time>2026-08-05T11:59:39.000Z</time>
        <extensions>
          <ns3:TrackPointExtension>
            <ns3:hr>76</ns3:hr>
            <ns3:cad>79</ns3:cad>
          </ns3:TrackPointExtension>
        </extensions>
      </trkpt>
      <trkpt lat="43.45873556099832057952880859375" lon="1.4259359054267406463623046875">
        <ele>156.600006103515625</ele>
        <time>2026-08-05T11:59:40.000Z</time>
        <extensions>
          <ns3:TrackPointExtension>
            <ns3:hr>76</ns3:hr>
            <ns3:cad>79</ns3:cad>
          </ns3:TrackPointExtension>
        </extensions>
      </trkpt>
      <trkpt lat="43.4587307833135128021240234375" lon="1.4259442873299121856689453125">
        <ele>156.399993896484375</ele>
        <time>2026-08-05T11:59:41.000Z</time>
        <extensions>
          <ns3:TrackPointExtension>
            <ns3:hr>76</ns3:hr>
            <ns3:cad>79</ns3:cad>
          </ns3:TrackPointExtension>
        </extensions>
      </trkpt>
      <trkpt lat="43.45872684381902217864990234375" lon="1.4259548485279083251953125">
        <ele>156.399993896484375</ele>
        <time>2026-08-05T11:59:42.000Z</time>
        <extensions>
          <ns3:TrackPointExtension>
            <ns3:hr>77</ns3:hr>
            <ns3:cad>79</ns3:cad>
          </ns3:TrackPointExtension>
        </extensions>
      </trkpt>
      <trkpt lat="43.45872248522937297821044921875" lon="1.42596197314560413360595703125">
        <ele>156.399993896484375</ele>
        <time>2026-08-05T11:59:43.000Z</time>
        <extensions>
          <ns3:TrackPointExtension>
            <ns3:hr>77</ns3:hr>
            <ns3:cad>42</ns3:cad>
          </ns3:TrackPointExtension>
        </extensions>
      </trkpt>
      <trkpt lat="43.45871812663972377777099609375" lon="1.42597387544810771942138671875">
        <ele>156.399993896484375</ele>
        <time>2026-08-05T11:59:44.000Z</time>
        <extensions>
          <ns3:TrackPointExtension>
            <ns3:hr>77</ns3:hr>
            <ns3:cad>42</ns3:cad>
          </ns3:TrackPointExtension>
        </extensions>
      </trkpt>
      <trkpt lat="43.4587128460407257080078125" lon="1.425987370312213897705078125">
        <ele>156.399993896484375</ele>
        <time>2026-08-05T11:59:45.000Z</time>
        <extensions>
          <ns3:TrackPointExtension>
            <ns3:hr>77</ns3:hr>
            <ns3:cad>42</ns3:cad>
          </ns3:TrackPointExtension>
        </extensions>
      </trkpt>
      <trkpt lat="43.45870823599398136138916015625" lon="1.42599709331989288330078125">
        <ele>156.600006103515625</ele>
        <time>2026-08-05T11:59:46.000Z</time>
        <extensions>
          <ns3:TrackPointExtension>
            <ns3:hr>77</ns3:hr>
            <ns3:cad>42</ns3:cad>
          </ns3:TrackPointExtension>
        </extensions>
      </trkpt>
      <trkpt lat="43.45870404504239559173583984375" lon="1.426004804670810699462890625">
        <ele>156.8000030517578125</ele>
        <time>2026-08-05T11:59:47.000Z</time>
        <extensions>
          <ns3:TrackPointExtension>
            <ns3:hr>77</ns3:hr>
            <ns3:cad>42</ns3:cad>
          </ns3:TrackPointExtension>
        </extensions>
      </trkpt>
      <trkpt lat="43.45870069228112697601318359375" lon="1.4260167069733142852783203125">
        <ele>156.8000030517578125</ele>
        <time>2026-08-05T11:59:48.000Z</time>
        <extensions>
          <ns3:TrackPointExtension>
            <ns3:hr>77</ns3:hr>
            <ns3:cad>42</ns3:cad>
          </ns3:TrackPointExtension>
        </extensions>
      </trkpt>
      <trkpt lat="43.45869868062436580657958984375" lon="1.426024250686168670654296875">
        <ele>157</ele>
        <time>2026-08-05T11:59:49.000Z</time>
        <extensions>
          <ns3:TrackPointExtension>
            <ns3:hr>78</ns3:hr>
            <ns3:cad>42</ns3:cad>
          </ns3:TrackPointExtension>
        </extensions>
      </trkpt>
      <trkpt lat="43.45869541168212890625" lon="1.42603506334125995635986328125">
        <ele>157.1999969482421875</ele>
        <time>2026-08-05T11:59:50.000Z</time>
        <extensions>
          <ns3:TrackPointExtension>
            <ns3:hr>78</ns3:hr>
            <ns3:cad>43</ns3:cad>
          </ns3:TrackPointExtension>
        </extensions>
      </trkpt>
      <trkpt lat="43.45869599841535091400146484375" lon="1.426043696701526641845703125">
        <ele>157.399993896484375</ele>
        <time>2026-08-05T11:59:51.000Z</time>
        <extensions>
          <ns3:TrackPointExtension>
            <ns3:hr>79</ns3:hr>
            <ns3:cad>43</ns3:cad>
          </ns3:TrackPointExtension>
        </extensions>
      </trkpt>
      <trkpt lat="43.4586898796260356903076171875" lon="1.426051072776317596435546875">
        <ele>157.399993896484375</ele>
        <time>2026-08-05T11:59:52.000Z</time>
        <extensions>
          <ns3:TrackPointExtension>
            <ns3:hr>79</ns3:hr>
            <ns3:cad>43</ns3:cad>
          </ns3:TrackPointExtension>
        </extensions>
      </trkpt>
      <trkpt lat="43.458687365055084228515625" lon="1.426062472164630889892578125">
        <ele>157.600006103515625</ele>
        <time>2026-08-05T11:59:53.000Z</time>
        <extensions>
          <ns3:TrackPointExtension>
            <ns3:hr>79</ns3:hr>
            <ns3:cad>0</ns3:cad>
          </ns3:TrackPointExtension>
        </extensions>
      </trkpt>
      <trkpt lat="43.4586858563125133514404296875" lon="1.42606875859200954437255859375">
        <ele>157.600006103515625</ele>
        <time>2026-08-05T11:59:54.000Z</time>
        <extensions>
          <ns3:TrackPointExtension>
            <ns3:hr>79</ns3:hr>
            <ns3:cad>0</ns3:cad>
          </ns3:TrackPointExtension>
        </extensions>
      </trkpt>
      <trkpt lat="43.45868962816894054412841796875" lon="1.4260773919522762298583984375">
        <ele>157.8000030517578125</ele>
        <time>2026-08-05T11:59:55.000Z</time>
        <extensions>
          <ns3:TrackPointExtension>
            <ns3:hr>80</ns3:hr>
            <ns3:cad>0</ns3:cad>
          </ns3:TrackPointExtension>
        </extensions>
      </trkpt>
      <trkpt lat="43.45869096927344799041748046875" lon="1.42609004862606525421142578125">
        <ele>158</ele>
        <time>2026-08-05T11:59:56.000Z</time>
        <extensions>
          <ns3:TrackPointExtension>
            <ns3:hr>80</ns3:hr>
            <ns3:cad>0</ns3:cad>
          </ns3:TrackPointExtension>
        </extensions>
      </trkpt>
      <trkpt lat="43.4586898796260356903076171875" lon="1.42610094510018825531005859375">
        <ele>158</ele>
        <time>2026-08-05T11:59:57.000Z</time>
        <extensions>
          <ns3:TrackPointExtension>
            <ns3:hr>81</ns3:hr>
            <ns3:cad>76</ns3:cad>
          </ns3:TrackPointExtension>
        </extensions>
      </trkpt>
      <trkpt lat="43.45868728123605251312255859375" lon="1.4261139370501041412353515625">
        <ele>158</ele>
        <time>2026-08-05T11:59:58.000Z</time>
        <extensions>
          <ns3:TrackPointExtension>
            <ns3:hr>82</ns3:hr>
            <ns3:cad>76</ns3:cad>
          </ns3:TrackPointExtension>
        </extensions>
      </trkpt>
      <trkpt lat="43.45868526957929134368896484375" lon="1.42612374387681484222412109375">
        <ele>158</ele>
        <time>2026-08-05T11:59:59.000Z</time>
        <extensions>
          <ns3:TrackPointExtension>
            <ns3:hr>83</ns3:hr>
            <ns3:cad>76</ns3:cad>
          </ns3:TrackPointExtension>
        </extensions>
      </trkpt>
      <trkpt lat="43.4586833417415618896484375" lon="1.426135562360286712646484375">
        <ele>158.1999969482421875</ele>
        <time>2026-08-05T12:00:00.000Z</time>
        <extensions>
          <ns3:TrackPointExtension>
            <ns3:hr>84</ns3:hr>
            <ns3:cad>0</ns3:cad>
          </ns3:TrackPointExtension>
        </extensions>
      </trkpt>
      <trkpt lat="43.4586821682751178741455078125" lon="1.42614620737731456756591796875">
        <ele>158.1999969482421875</ele>
        <time>2026-08-05T12:00:01.000Z</time>
        <extensions>
          <ns3:TrackPointExtension>
            <ns3:hr>84</ns3:hr>
            <ns3:cad>0</ns3:cad>
          </ns3:TrackPointExtension>
        </extensions>
      </trkpt>
      <trkpt lat="43.45868040807545185089111328125" lon="1.426154673099517822265625">
        <ele>158.1999969482421875</ele>
        <time>2026-08-05T12:00:02.000Z</time>
        <extensions>
          <ns3:TrackPointExtension>
            <ns3:hr>85</ns3:hr>
            <ns3:cad>0</ns3:cad>
          </ns3:TrackPointExtension>
        </extensions>
      </trkpt>
      <trkpt lat="43.45867923460900783538818359375" lon="1.42616397701203823089599609375">
        <ele>158.1999969482421875</ele>
        <time>2026-08-05T12:00:03.000Z</time>
        <extensions>
          <ns3:TrackPointExtension>
            <ns3:hr>87</ns3:hr>
            <ns3:cad>79</ns3:cad>
          </ns3:TrackPointExtension>
        </extensions>
      </trkpt>
      <trkpt lat="43.45867588184773921966552734375" lon="1.4261828362941741943359375">
        <ele>158.1999969482421875</ele>
        <time>2026-08-05T12:00:04.000Z</time>
        <extensions>
          <ns3:TrackPointExtension>
            <ns3:hr>88</ns3:hr>
            <ns3:cad>79</ns3:cad>
          </ns3:TrackPointExtension>
        </extensions>
      </trkpt>
      <trkpt lat="43.4586704336106777191162109375" lon="1.4261987619102001190185546875">
        <ele>158.399993896484375</ele>
        <time>2026-08-05T12:00:05.000Z</time>
        <extensions>
          <ns3:TrackPointExtension>
            <ns3:hr>88</ns3:hr>
            <ns3:cad>79</ns3:cad>
          </ns3:TrackPointExtension>
        </extensions>
      </trkpt>
      <trkpt lat="43.45866515301167964935302734375" lon="1.4262118376791477203369140625">
        <ele>158.399993896484375</ele>
        <time>2026-08-05T12:00:06.000Z</time>
        <extensions>
          <ns3:TrackPointExtension>
            <ns3:hr>89</ns3:hr>
            <ns3:cad>0</ns3:cad>
          </ns3:TrackPointExtension>
        </extensions>
      </trkpt>
      <trkpt lat="43.45865911804139614105224609375" lon="1.42622063867747783660888671875">
        <ele>158.399993896484375</ele>
        <time>2026-08-05T12:00:07.000Z</time>
        <extensions>
          <ns3:TrackPointExtension>
            <ns3:hr>90</ns3:hr>
            <ns3:cad>0</ns3:cad>
          </ns3:TrackPointExtension>
        </extensions>
      </trkpt>
      <trkpt lat="43.45865450799465179443359375" lon="1.42623446881771087646484375">
        <ele>158.399993896484375</ele>
        <time>2026-08-05T12:00:08.000Z</time>
        <extensions>
          <ns3:TrackPointExtension>
            <ns3:hr>91</ns3:hr>
            <ns3:cad>41</ns3:cad>
          </ns3:TrackPointExtension>
        </extensions>
      </trkpt>
      <trkpt lat="43.458650149405002593994140625" lon="1.42624494619667530059814453125">
        <ele>158.399993896484375</ele>
        <time>2026-08-05T12:00:09.000Z</time>
        <extensions>
          <ns3:TrackPointExtension>
            <ns3:hr>92</ns3:hr>
            <ns3:cad>41</ns3:cad>
          </ns3:TrackPointExtension>
        </extensions>
      </trkpt>
      <trkpt lat="43.458644114434719085693359375" lon="1.42625936307013034820556640625">
        <ele>158.399993896484375</ele>
        <time>2026-08-05T12:00:10.000Z</time>
        <extensions>
          <ns3:TrackPointExtension>
            <ns3:hr>92</ns3:hr>
            <ns3:cad>41</ns3:cad>
          </ns3:TrackPointExtension>
        </extensions>
      </trkpt>
      <trkpt lat="43.4586359001696109771728515625" lon="1.42627612687647342681884765625">
        <ele>158.399993896484375</ele>
        <time>2026-08-05T12:00:11.000Z</time>
        <extensions>
          <ns3:TrackPointExtension>
            <ns3:hr>92</ns3:hr>
            <ns3:cad>41</ns3:cad>
          </ns3:TrackPointExtension>
        </extensions>
      </trkpt>
      <trkpt lat="43.45863078720867633819580078125" lon="1.42629146575927734375">
        <ele>158.399993896484375</ele>
        <time>2026-08-05T12:00:12.000Z</time>
        <extensions>
          <ns3:TrackPointExtension>
            <ns3:hr>92</ns3:hr>
            <ns3:cad>41</ns3:cad>
          </ns3:TrackPointExtension>
        </extensions>
      </trkpt>
      <trkpt lat="43.45862366259098052978515625" lon="1.42630931921303272247314453125">
        <ele>158.399993896484375</ele>
        <time>2026-08-05T12:00:13.000Z</time>
        <extensions>
          <ns3:TrackPointExtension>
            <ns3:hr>93</ns3:hr>
            <ns3:cad>41</ns3:cad>
          </ns3:TrackPointExtension>
        </extensions>
      </trkpt>
      <trkpt lat="43.45862257294356822967529296875" lon="1.42631937749683856964111328125">
        <ele>158.399993896484375</ele>
        <time>2026-08-05T12:00:14.000Z</time>
        <extensions>
          <ns3:TrackPointExtension>
            <ns3:hr>93</ns3:hr>
            <ns3:cad>41</ns3:cad>
          </ns3:TrackPointExtension>
        </extensions>
      </trkpt>
      <trkpt lat="43.45862559042870998382568359375" lon="1.42633060924708843231201171875">
        <ele>158.399993896484375</ele>
        <time>2026-08-05T12:00:15.000Z</time>
        <extensions>
          <ns3:TrackPointExtension>
            <ns3:hr>93</ns3:hr>
            <ns3:cad>46</ns3:cad>
          </ns3:TrackPointExtension>
        </extensions>
      </trkpt>
      <trkpt lat="43.4586261771619319915771484375" lon="1.4263405837118625640869140625">
        <ele>158.399993896484375</ele>
        <time>2026-08-05T12:00:16.000Z</time>
        <extensions>
          <ns3:TrackPointExtension>
            <ns3:hr>93</ns3:hr>
            <ns3:cad>46</ns3:cad>
          </ns3:TrackPointExtension>
        </extensions>
      </trkpt>
      <trkpt lat="43.4586258418858051300048828125" lon="1.4263570122420787811279296875">
        <ele>158.399993896484375</ele>
        <time>2026-08-05T12:00:17.000Z</time>
        <extensions>
          <ns3:TrackPointExtension>
            <ns3:hr>94</ns3:hr>
            <ns3:cad>46</ns3:cad>
          </ns3:TrackPointExtension>
        </extensions>
      </trkpt>
      <trkpt lat="43.458624668419361114501953125" lon="1.42637285403907299041748046875">
        <ele>158.399993896484375</ele>
        <time>2026-08-05T12:00:18.000Z</time>
        <extensions>
          <ns3:TrackPointExtension>
            <ns3:hr>94</ns3:hr>
            <ns3:cad>46</ns3:cad>
          </ns3:TrackPointExtension>
        </extensions>
      </trkpt>
      <trkpt lat="43.45862424932420253753662109375" lon="1.42638911493122577667236328125">
        <ele>158.399993896484375</ele>
        <time>2026-08-05T12:00:19.000Z</time>
        <extensions>
          <ns3:TrackPointExtension>
            <ns3:hr>94</ns3:hr>
            <ns3:cad>46</ns3:cad>
          </ns3:TrackPointExtension>
        </extensions>
      </trkpt>
      <trkpt lat="43.45862341113388538360595703125" lon="1.42640210688114166259765625">
        <ele>158.399993896484375</ele>
        <time>2026-08-05T12:00:20.000Z</time>
        <extensions>
          <ns3:TrackPointExtension>
            <ns3:hr>93</ns3:hr>
            <ns3:cad>46</ns3:cad>
          </ns3:TrackPointExtension>
        </extensions>
      </trkpt>
      <trkpt lat="43.4586221538484096527099609375" lon="1.42641828395426273345947265625">
        <ele>158.399993896484375</ele>
        <time>2026-08-05T12:00:21.000Z</time>
        <extensions>
          <ns3:TrackPointExtension>
            <ns3:hr>93</ns3:hr>
            <ns3:cad>46</ns3:cad>
          </ns3:TrackPointExtension>
        </extensions>
      </trkpt>
      <trkpt lat="43.458621315658092498779296875" lon="1.42642700113356113433837890625">
        <ele>158.399993896484375</ele>
        <time>2026-08-05T12:00:22.000Z</time>
        <extensions>
          <ns3:TrackPointExtension>
            <ns3:hr>93</ns3:hr>
            <ns3:cad>46</ns3:cad>
          </ns3:TrackPointExtension>
        </extensions>
      </trkpt>
      <trkpt lat="43.45861771143972873687744140625" lon="1.4264378137886524200439453125">
        <ele>158.600006103515625</ele>
        <time>2026-08-05T12:00:23.000Z</time>
        <extensions>
          <ns3:TrackPointExtension>
            <ns3:hr>93</ns3:hr>
            <ns3:cad>46</ns3:cad>
          </ns3:TrackPointExtension>
        </extensions>
      </trkpt>
      <trkpt lat="43.458616621792316436767578125" lon="1.42645684070885181427001953125">
        <ele>158.600006103515625</ele>
        <time>2026-08-05T12:00:24.000Z</time>
        <extensions>
          <ns3:TrackPointExtension>
            <ns3:hr>93</ns3:hr>
            <ns3:cad>45</ns3:cad>
          </ns3:TrackPointExtension>
        </extensions>
      </trkpt>
      <trkpt lat="43.45861787907779216766357421875" lon="1.42647922039031982421875">
        <ele>158.600006103515625</ele>
        <time>2026-08-05T12:00:25.000Z</time>
        <extensions>
          <ns3:TrackPointExtension>
            <ns3:hr>93</ns3:hr>
            <ns3:cad>45</ns3:cad>
          </ns3:TrackPointExtension>
        </extensions>
      </trkpt>
      <trkpt lat="43.45861737616360187530517578125" lon="1.42649330198764801025390625">
        <ele>158.600006103515625</ele>
        <time>2026-08-05T12:00:26.000Z</time>
        <extensions>
          <ns3:TrackPointExtension>
            <ns3:hr>93</ns3:hr>
            <ns3:cad>45</ns3:cad>
          </ns3:TrackPointExtension>
        </extensions>
      </trkpt>
      <trkpt lat="43.45861318521201610565185546875" lon="1.42650813795626163482666015625">
        <ele>158.399993896484375</ele>
        <time>2026-08-05T12:00:27.000Z</time>
        <extensions>
          <ns3:TrackPointExtension>
            <ns3:hr>93</ns3:hr>
            <ns3:cad>45</ns3:cad>
          </ns3:TrackPointExtension>
        </extensions>
      </trkpt>
      <trkpt lat="43.45860647968947887420654296875" lon="1.42652012407779693603515625">
        <ele>158.399993896484375</ele>
        <time>2026-08-05T12:00:28.000Z</time>
        <extensions>
          <ns3:TrackPointExtension>
            <ns3:hr>93</ns3:hr>
            <ns3:cad>45</ns3:cad>
          </ns3:TrackPointExtension>
        </extensions>
      </trkpt>
      <trkpt lat="43.45860010944306850433349609375" lon="1.42653353512287139892578125">
        <ele>158.399993896484375</ele>
        <time>2026-08-05T12:00:29.000Z</time>
        <extensions>
          <ns3:TrackPointExtension>
            <ns3:hr>93</ns3:hr>
            <ns3:cad>46</ns3:cad>
          </ns3:TrackPointExtension>
        </extensions>
      </trkpt>
      <trkpt lat="43.45859575085341930389404296875" lon="1.4265467785298824310302734375">
        <ele>158.399993896484375</ele>
        <time>2026-08-05T12:00:30.000Z</time>
        <extensions>
          <ns3:TrackPointExtension>
            <ns3:hr>93</ns3:hr>
            <ns3:cad>48</ns3:cad>
          </ns3:TrackPointExtension>
        </extensions>
      </trkpt>
      <trkpt lat="43.45859206281602382659912109375" lon="1.426556669175624847412109375">
        <ele>158.399993896484375</ele>
        <time>2026-08-05T12:00:31.000Z</time>
        <extensions>
          <ns3:TrackPointExtension>
            <ns3:hr>93</ns3:hr>
            <ns3:cad>48</ns3:cad>
          </ns3:TrackPointExtension>
        </extensions>
      </trkpt>
      <trkpt lat="43.458585776388645172119140625" lon="1.42656446434557437896728515625">
        <ele>158.399993896484375</ele>
        <time>2026-08-05T12:00:32.000Z</time>
        <extensions>
          <ns3:TrackPointExtension>
            <ns3:hr>93</ns3:hr>
            <ns3:cad>48</ns3:cad>
          </ns3:TrackPointExtension>
        </extensions>
      </trkpt>
      <trkpt lat="43.45857948996126651763916015625" lon="1.42657469026744365692138671875">
        <ele>158.1999969482421875</ele>
        <time>2026-08-05T12:00:33.000Z</time>
        <extensions>
          <ns3:TrackPointExtension>
            <ns3:hr>93</ns3:hr>
            <ns3:cad>46</ns3:cad>
          </ns3:TrackPointExtension>
        </extensions>
      </trkpt>
      <trkpt lat="43.45857203006744384765625" lon="1.426592208445072174072265625">
        <ele>158.1999969482421875</ele>
        <time>2026-08-05T12:00:34.000Z</time>
        <extensions>
          <ns3:TrackPointExtension>
            <ns3:hr>93</ns3:hr>
            <ns3:cad>46</ns3:cad>
          </ns3:TrackPointExtension>
        </extensions>
      </trkpt>
      <trkpt lat="43.458567000925540924072265625" lon="1.42660587094724178314208984375">
        <ele>158.1999969482421875</ele>
        <time>2026-08-05T12:00:35.000Z</time>
        <extensions>
          <ns3:TrackPointExtension>
            <ns3:hr>92</ns3:hr>
            <ns3:cad>46</ns3:cad>
          </ns3:TrackPointExtension>
        </extensions>
      </trkpt>
      <trkpt lat="43.45856356434524059295654296875" lon="1.42661861144006252288818359375">
        <ele>158.399993896484375</ele>
        <time>2026-08-05T12:00:36.000Z</time>
        <extensions>
          <ns3:TrackPointExtension>
            <ns3:hr>92</ns3:hr>
            <ns3:cad>47</ns3:cad>
          </ns3:TrackPointExtension>
        </extensions>
      </trkpt>
      <trkpt lat="43.4585607983171939849853515625" lon="1.42662917263805866241455078125">
        <ele>158.399993896484375</ele>
        <time>2026-08-05T12:00:37.000Z</time>
        <extensions>
          <ns3:TrackPointExtension>
            <ns3:hr>92</ns3:hr>
            <ns3:cad>47</ns3:cad>
          </ns3:TrackPointExtension>
        </extensions>
      </trkpt>
      <trkpt lat="43.45855702646076679229736328125" lon="1.42664677463471889495849609375">
        <ele>158.399993896484375</ele>
        <time>2026-08-05T12:00:38.000Z</time>
        <extensions>
          <ns3:TrackPointExtension>
            <ns3:hr>92</ns3:hr>
            <ns3:cad>47</ns3:cad>
          </ns3:TrackPointExtension>
        </extensions>
      </trkpt>
      <trkpt lat="43.4585510753095149993896484375" lon="1.42666270025074481964111328125">
        <ele>158.399993896484375</ele>
        <time>2026-08-05T12:00:39.000Z</time>
        <extensions>
          <ns3:TrackPointExtension>
            <ns3:hr>92</ns3:hr>
            <ns3:cad>47</ns3:cad>
          </ns3:TrackPointExtension>
        </extensions>
      </trkpt>
      <trkpt lat="43.4585460461676120758056640625" lon="1.42667326144874095916748046875">
        <ele>158.399993896484375</ele>
        <time>2026-08-05T12:00:40.000Z</time>
        <extensions>
          <ns3:TrackPointExtension>
            <ns3:hr>93</ns3:hr>
            <ns3:cad>46</ns3:cad>
          </ns3:TrackPointExtension>
        </extensions>
      </trkpt>
      <trkpt lat="43.4585390053689479827880859375" lon="1.42667946405708789825439453125">
        <ele>158.399993896484375</ele>
        <time>2026-08-05T12:00:41.000Z</time>
        <extensions>
          <ns3:TrackPointExtension>
            <ns3:hr>92</ns3:hr>
            <ns3:cad>45</ns3:cad>
          </ns3:TrackPointExtension>
        </extensions>
      </trkpt>
      <trkpt lat="43.45853640697896480560302734375" lon="1.4266922883689403533935546875">
        <ele>158.399993896484375</ele>
        <time>2026-08-05T12:00:42.000Z</time>
        <extensions>
          <ns3:TrackPointExtension>
            <ns3:hr>92</ns3:hr>
            <ns3:cad>45</ns3:cad>
          </ns3:TrackPointExtension>
        </extensions>
      </trkpt>
      <trkpt lat="43.45853439532220363616943359375" lon="1.426706872880458831787109375">
        <ele>158.399993896484375</ele>
        <time>2026-08-05T12:00:43.000Z</time>
        <extensions>
          <ns3:TrackPointExtension>
            <ns3:hr>92</ns3:hr>
            <ns3:cad>45</ns3:cad>
          </ns3:TrackPointExtension>
        </extensions>
      </trkpt>
      <trkpt lat="43.45853204838931560516357421875" lon="1.42671835608780384063720703125">
        <ele>158.399993896484375</ele>
        <time>2026-08-05T12:00:44.000Z</time>
        <extensions>
          <ns3:TrackPointExtension>
            <ns3:hr>92</ns3:hr>
            <ns3:cad>46</ns3:cad>
          </ns3:TrackPointExtension>
        </extensions>
      </trkpt>
      <trkpt lat="43.45852978527545928955078125" lon="1.42672891728579998016357421875">
        <ele>158.399993896484375</ele>
        <time>2026-08-05T12:00:45.000Z</time>
        <extensions>
          <ns3:TrackPointExtension>
            <ns3:hr>92</ns3:hr>
            <ns3:cad>46</ns3:cad>
          </ns3:TrackPointExtension>
        </extensions>
      </trkpt>
      <trkpt lat="43.45852349884808063507080078125" lon="1.42674685455858707427978515625">
        <ele>158.399993896484375</ele>
        <time>2026-08-05T12:00:46.000Z</time>
        <extensions>
          <ns3:TrackPointExtension>
            <ns3:hr>92</ns3:hr>
            <ns3:cad>48</ns3:cad>
          </ns3:TrackPointExtension>
        </extensions>
      </trkpt>
      <trkpt lat="43.4585172124207019805908203125" lon="1.42676076851785182952880859375">
        <ele>158.399993896484375</ele>
        <time>2026-08-05T12:00:47.000Z</time>
        <extensions>
          <ns3:TrackPointExtension>
            <ns3:hr>92</ns3:hr>
            <ns3:cad>48</ns3:cad>
          </ns3:TrackPointExtension>
        </extensions>
      </trkpt>
      <trkpt lat="43.458507321774959564208984375" lon="1.42676546238362789154052734375">
        <ele>158.399993896484375</ele>
        <time>2026-08-05T12:00:48.000Z</time>
        <extensions>
          <ns3:TrackPointExtension>
            <ns3:hr>92</ns3:hr>
            <ns3:cad>44</ns3:cad>
          </ns3:TrackPointExtension>
        </extensions>
      </trkpt>
      <trkpt lat="43.45850153826177120208740234375" lon="1.42677300609648227691650390625">
        <ele>158.399993896484375</ele>
        <time>2026-08-05T12:00:49.000Z</time>
        <extensions>
          <ns3:TrackPointExtension>
            <ns3:hr>93</ns3:hr>
            <ns3:cad>43</ns3:cad>
          </ns3:TrackPointExtension>
        </extensions>
      </trkpt>
      <trkpt lat="43.45849231816828250885009765625" lon="1.42678658477962017059326171875">
        <ele>158.399993896484375</ele>
        <time>2026-08-05T12:00:50.000Z</time>
        <extensions>
          <ns3:TrackPointExtension>
            <ns3:hr>92</ns3:hr>
            <ns3:cad>43</ns3:cad>
          </ns3:TrackPointExtension>
        </extensions>
      </trkpt>
      <trkpt lat="43.45848619937896728515625" lon="1.42679412849247455596923828125">
        <ele>158.399993896484375</ele>
        <time>2026-08-05T12:00:51.000Z</time>
        <extensions>
          <ns3:TrackPointExtension>
            <ns3:hr>92</ns3:hr>
            <ns3:cad>43</ns3:cad>
          </ns3:TrackPointExtension>
        </extensions>
      </trkpt>
      <trkpt lat="43.458483517169952392578125" lon="1.426800750195980072021484375">
        <ele>158.1999969482421875</ele>
        <time>2026-08-05T12:00:52.000Z</time>
        <extensions>
          <ns3:TrackPointExtension>
            <ns3:hr>92</ns3:hr>
            <ns3:cad>44</ns3:cad>
          </ns3:TrackPointExtension>
        </extensions>
      </trkpt>
      <trkpt lat="43.4584836848080158233642578125" lon="1.426805444061756134033203125">
        <ele>158.1999969482421875</ele>
        <time>2026-08-05T12:00:53.000Z</time>
        <extensions>
          <ns3:TrackPointExtension>
            <ns3:hr>92</ns3:hr>
            <ns3:cad>44</ns3:cad>
          </ns3:TrackPointExtension>
        </extensions>
      </trkpt>
      <trkpt lat="43.45847890712320804595947265625" lon="1.42681994475424289703369140625">
        <ele>158.1999969482421875</ele>
        <time>2026-08-05T12:00:54.000Z</time>
        <extensions>
          <ns3:TrackPointExtension>
            <ns3:hr>92</ns3:hr>
            <ns3:cad>45</ns3:cad>
          </ns3:TrackPointExtension>
        </extensions>
      </trkpt>
      <trkpt lat="43.45847605727612972259521484375" lon="1.42683100886642932891845703125">
        <ele>158.1999969482421875</ele>
        <time>2026-08-05T12:00:55.000Z</time>
        <extensions>
          <ns3:TrackPointExtension>
            <ns3:hr>91</ns3:hr>
            <ns3:cad>45</ns3:cad>
          </ns3:TrackPointExtension>
        </extensions>
      </trkpt>
      <trkpt lat="43.45847320742905139923095703125" lon="1.426845006644725799560546875">
        <ele>158.1999969482421875</ele>
        <time>2026-08-05T12:00:56.000Z</time>
        <extensions>
          <ns3:TrackPointExtension>
            <ns3:hr>91</ns3:hr>
            <ns3:cad>45</ns3:cad>
          </ns3:TrackPointExtension>
        </extensions>
      </trkpt>
      <trkpt lat="43.4584719501435756683349609375" lon="1.42686034552752971649169921875">
        <ele>158.399993896484375</ele>
        <time>2026-08-05T12:00:57.000Z</time>
        <extensions>
          <ns3:TrackPointExtension>
            <ns3:hr>91</ns3:hr>
            <ns3:cad>47</ns3:cad>
          </ns3:TrackPointExtension>
        </extensions>
      </trkpt>
      <trkpt lat="43.45846884883940219879150390625" lon="1.42687811516225337982177734375">
        <ele>158.399993896484375</ele>
        <time>2026-08-05T12:00:58.000Z</time>
        <extensions>
          <ns3:TrackPointExtension>
            <ns3:hr>91</ns3:hr>
            <ns3:cad>47</ns3:cad>
          </ns3:TrackPointExtension>
        </extensions>
      </trkpt>
      <trkpt lat="43.45846666954457759857177734375" lon="1.4268907718360424041748046875">
        <ele>158.399993896484375</ele>
        <time>2026-08-05T12:00:59.000Z</time>
        <extensions>
          <ns3:TrackPointExtension>
            <ns3:hr>90</ns3:hr>
            <ns3:cad>47</ns3:cad>
          </ns3:TrackPointExtension>
        </extensions>
      </trkpt>
      <trkpt lat="43.4584634006023406982421875" lon="1.4269015006721019744873046875">
        <ele>158.399993896484375</ele>
        <time>2026-08-05T12:01:00.000Z</time>
        <extensions>
          <ns3:TrackPointExtension>
            <ns3:hr>90</ns3:hr>
            <ns3:cad>47</ns3:cad>
          </ns3:TrackPointExtension>
        </extensions>
      </trkpt>
      <trkpt lat="43.458462394773960113525390625" lon="1.42691298387944698333740234375">
        <ele>158.399993896484375</ele>
        <time>2026-08-05T12:01:01.000Z</time>
        <extensions>
          <ns3:TrackPointExtension>
            <ns3:hr>90</ns3:hr>
            <ns3:cad>46</ns3:cad>
          </ns3:TrackPointExtension>
        </extensions>
      </trkpt>
      <trkpt lat="43.458460383117198944091796875" lon="1.42693159170448780059814453125">
        <ele>158.399993896484375</ele>
        <time>2026-08-05T12:01:02.000Z</time>
        <extensions>
          <ns3:TrackPointExtension>
            <ns3:hr>90</ns3:hr>
            <ns3:cad>46</ns3:cad>
          </ns3:TrackPointExtension>
        </extensions>
      </trkpt>
      <trkpt lat="43.45845610834658145904541015625" lon="1.42694734968245029449462890625">
        <ele>158.399993896484375</ele>
        <time>2026-08-05T12:01:03.000Z</time>
        <extensions>
          <ns3:TrackPointExtension>
            <ns3:hr>89</ns3:hr>
            <ns3:cad>46</ns3:cad>
          </ns3:TrackPointExtension>
        </extensions>
      </trkpt>
      <trkpt lat="43.45844923518598079681396484375" lon="1.426960341632366180419921875">
        <ele>158.1999969482421875</ele>
        <time>2026-08-05T12:01:04.000Z</time>
        <extensions>
          <ns3:TrackPointExtension>
            <ns3:hr>89</ns3:hr>
            <ns3:cad>46</ns3:cad>
          </ns3:TrackPointExtension>
        </extensions>
      </trkpt>
      <trkpt lat="43.4584473073482513427734375" lon="1.426973752677440643310546875">
        <ele>158.1999969482421875</ele>
        <time>2026-08-05T12:01:05.000Z</time>
        <extensions>
          <ns3:TrackPointExtension>
            <ns3:hr>89</ns3:hr>
            <ns3:cad>45</ns3:cad>
          </ns3:TrackPointExtension>
        </extensions>
      </trkpt>
      <trkpt lat="43.45844261348247528076171875" lon="1.4269933663308620452880859375">
        <ele>158.1999969482421875</ele>
        <time>2026-08-05T12:01:06.000Z</time>
        <extensions>
          <ns3:TrackPointExtension>
            <ns3:hr>89</ns3:hr>
            <ns3:cad>45</ns3:cad>
          </ns3:TrackPointExtension>
        </extensions>
      </trkpt>
      <trkpt lat="43.458438254892826080322265625" lon="1.42701021395623683929443359375">
        <ele>158.1999969482421875</ele>
        <time>2026-08-05T12:01:07.000Z</time>
        <extensions>
          <ns3:TrackPointExtension>
            <ns3:hr>89</ns3:hr>
            <ns3:cad>46</ns3:cad>
          </ns3:TrackPointExtension>
        </extensions>
      </trkpt>
      <trkpt lat="43.45843364484608173370361328125" lon="1.4270268939435482025146484375">
        <ele>158.1999969482421875</ele>
        <time>2026-08-05T12:01:08.000Z</time>
        <extensions>
          <ns3:TrackPointExtension>
            <ns3:hr>88</ns3:hr>
            <ns3:cad>46</ns3:cad>
          </ns3:TrackPointExtension>
        </extensions>
      </trkpt>
      <trkpt lat="43.4584343992173671722412109375" lon="1.42703787423670291900634765625">
        <ele>158.1999969482421875</ele>
        <time>2026-08-05T12:01:09.000Z</time>
        <extensions>
          <ns3:TrackPointExtension>
            <ns3:hr>88</ns3:hr>
            <ns3:cad>46</ns3:cad>
          </ns3:TrackPointExtension>
        </extensions>
      </trkpt>
      <trkpt lat="43.45843263901770114898681640625" lon="1.4270523749291896820068359375">
        <ele>158.1999969482421875</ele>
        <time>2026-08-05T12:01:10.000Z</time>
        <extensions>
          <ns3:TrackPointExtension>
            <ns3:hr>88</ns3:hr>
            <ns3:cad>46</ns3:cad>
          </ns3:TrackPointExtension>
        </extensions>
      </trkpt>
      <trkpt lat="43.458426855504512786865234375" lon="1.42705790698528289794921875">
        <ele>158.1999969482421875</ele>
        <time>2026-08-05T12:01:11.000Z</time>
        <extensions>
          <ns3:TrackPointExtension>
            <ns3:hr>88</ns3:hr>
            <ns3:cad>46</ns3:cad>
          </ns3:TrackPointExtension>
        </extensions>
      </trkpt>
      <trkpt lat="43.45842274837195873260498046875" lon="1.42706394195556640625">
        <ele>158.1999969482421875</ele>
        <time>2026-08-05T12:01:12.000Z</time>
        <extensions>
          <ns3:TrackPointExtension>
            <ns3:hr>88</ns3:hr>
            <ns3:cad>46</ns3:cad>
          </ns3:TrackPointExtension>
        </extensions>
      </trkpt>
      <trkpt lat="43.45842249691486358642578125" lon="1.427070982754230499267578125">
        <ele>158.1999969482421875</ele>
        <time>2026-08-05T12:01:13.000Z</time>
        <extensions>
          <ns3:TrackPointExtension>
            <ns3:hr>88</ns3:hr>
            <ns3:cad>46</ns3:cad>
          </ns3:TrackPointExtension>
        </extensions>
      </trkpt>
      <trkpt lat="43.45842056907713413238525390625" lon="1.42708296887576580047607421875">
        <ele>158.1999969482421875</ele>
        <time>2026-08-05T12:01:14.000Z</time>
        <extensions>
          <ns3:TrackPointExtension>
            <ns3:hr>87</ns3:hr>
            <ns3:cad>46</ns3:cad>
          </ns3:TrackPointExtension>
        </extensions>
      </trkpt>
      <trkpt lat="43.4584169648587703704833984375" lon="1.427095793187618255615234375">
        <ele>158.1999969482421875</ele>
        <time>2026-08-05T12:01:15.000Z</time>
        <extensions>
          <ns3:TrackPointExtension>
            <ns3:hr>87</ns3:hr>
            <ns3:cad>45</ns3:cad>
          </ns3:TrackPointExtension>
        </extensions>
      </trkpt>
      <trkpt lat="43.45841252245008945465087890625" lon="1.4271097071468830108642578125">
        <ele>158.399993896484375</ele>
        <time>2026-08-05T12:01:16.000Z</time>
        <extensions>
          <ns3:TrackPointExtension>
            <ns3:hr>87</ns3:hr>
            <ns3:cad>45</ns3:cad>
          </ns3:TrackPointExtension>
        </extensions>
      </trkpt>
      <trkpt lat="43.45840849913656711578369140625" lon="1.4271227829158306121826171875">
        <ele>158.399993896484375</ele>
        <time>2026-08-05T12:01:17.000Z</time>
        <extensions>
          <ns3:TrackPointExtension>
            <ns3:hr>87</ns3:hr>
            <ns3:cad>45</ns3:cad>
          </ns3:TrackPointExtension>
        </extensions>
      </trkpt>
      <trkpt lat="43.45840363763272762298583984375" lon="1.42714331857860088348388671875">
        <ele>158.399993896484375</ele>
        <time>2026-08-05T12:01:18.000Z</time>
        <extensions>
          <ns3:TrackPointExtension>
            <ns3:hr>87</ns3:hr>
            <ns3:cad>45</ns3:cad>
          </ns3:TrackPointExtension>
        </extensions>
      </trkpt>
      <trkpt lat="43.45840045250952243804931640625" lon="1.4271589927375316619873046875">
        <ele>158.399993896484375</ele>
        <time>2026-08-05T12:01:19.000Z</time>
        <extensions>
          <ns3:TrackPointExtension>
            <ns3:hr>87</ns3:hr>
            <ns3:cad>45</ns3:cad>
          </ns3:TrackPointExtension>
        </extensions>
      </trkpt>
      <trkpt lat="43.45839726738631725311279296875" lon="1.42716812901198863983154296875">
        <ele>158.399993896484375</ele>
        <time>2026-08-05T12:01:20.000Z</time>
        <extensions>
          <ns3:TrackPointExtension>
            <ns3:hr>87</ns3:hr>
            <ns3:cad>45</ns3:cad>
          </ns3:TrackPointExtension>
        </extensions>
      </trkpt>
      <trkpt lat="43.45839341171085834503173828125" lon="1.42717299051582813262939453125">
        <ele>158.399993896484375</ele>
        <time>2026-08-05T12:01:21.000Z</time>
        <extensions>
          <ns3:TrackPointExtension>
            <ns3:hr>87</ns3:hr>
            <ns3:cad>47</ns3:cad>
          </ns3:TrackPointExtension>
        </extensions>
      </trkpt>
      <trkpt lat="43.45839039422571659088134765625" lon="1.42718506045639514923095703125">
        <ele>158.399993896484375</ele>
        <time>2026-08-05T12:01:22.000Z</time>
        <extensions>
          <ns3:TrackPointExtension>
            <ns3:hr>87</ns3:hr>
            <ns3:cad>47</ns3:cad>
          </ns3:TrackPointExtension>
        </extensions>
      </trkpt>
      <trkpt lat="43.45838720910251140594482421875" lon="1.42719897441565990447998046875">
        <ele>158.399993896484375</ele>
        <time>2026-08-05T12:01:23.000Z</time>
        <extensions>
          <ns3:TrackPointExtension>
            <ns3:hr>87</ns3:hr>
            <ns3:cad>46</ns3:cad>
          </ns3:TrackPointExtension>
        </extensions>
      </trkpt>
      <trkpt lat="43.4583851136267185211181640625" lon="1.427211463451385498046875">
        <ele>158.1999969482421875</ele>
        <time>2026-08-05T12:01:24.000Z</time>
        <extensions>
          <ns3:TrackPointExtension>
            <ns3:hr>87</ns3:hr>
            <ns3:cad>44</ns3:cad>
          </ns3:TrackPointExtension>
        </extensions>
      </trkpt>
      <trkpt lat="43.458383269608020782470703125" lon="1.42722286283969879150390625">
        <ele>158.1999969482421875</ele>
        <time>2026-08-05T12:01:25.000Z</time>
        <extensions>
          <ns3:TrackPointExtension>
            <ns3:hr>87</ns3:hr>
            <ns3:cad>44</ns3:cad>
          </ns3:TrackPointExtension>
        </extensions>
      </trkpt>
      <trkpt lat="43.45838570035994052886962890625" lon="1.42723803408443927764892578125">
        <ele>158.1999969482421875</ele>
        <time>2026-08-05T12:01:26.000Z</time>
        <extensions>
          <ns3:TrackPointExtension>
            <ns3:hr>86</ns3:hr>
            <ns3:cad>44</ns3:cad>
          </ns3:TrackPointExtension>
        </extensions>
      </trkpt>
      <trkpt lat="43.45838938839733600616455078125" lon="1.42725211568176746368408203125">
        <ele>158.1999969482421875</ele>
        <time>2026-08-05T12:01:27.000Z</time>
        <extensions>
          <ns3:TrackPointExtension>
            <ns3:hr>86</ns3:hr>
            <ns3:cad>45</ns3:cad>
          </ns3:TrackPointExtension>
        </extensions>
      </trkpt>
      <trkpt lat="43.45839031040668487548828125" lon="1.42726351507008075714111328125">
        <ele>158.1999969482421875</ele>
        <time>2026-08-05T12:01:28.000Z</time>
        <extensions>
          <ns3:TrackPointExtension>
            <ns3:hr>86</ns3:hr>
            <ns3:cad>47</ns3:cad>
          </ns3:TrackPointExtension>
        </extensions>
      </trkpt>
      <trkpt lat="43.45839140005409717559814453125" lon="1.4272820390760898590087890625">
        <ele>158.1999969482421875</ele>
        <time>2026-08-05T12:01:29.000Z</time>
        <extensions>
          <ns3:TrackPointExtension>
            <ns3:hr>87</ns3:hr>
            <ns3:cad>47</ns3:cad>
          </ns3:TrackPointExtension>
        </extensions>
      </trkpt>
      <trkpt lat="43.4583888016641139984130859375" lon="1.42730064690113067626953125">
        <ele>158.1999969482421875</ele>
        <time>2026-08-05T12:01:30.000Z</time>
        <extensions>
          <ns3:TrackPointExtension>
            <ns3:hr>86</ns3:hr>
            <ns3:cad>46</ns3:cad>
          </ns3:TrackPointExtension>
        </extensions>
      </trkpt>
      <trkpt lat="43.4583847783505916595458984375" lon="1.42731481231749057769775390625">
        <ele>158.1999969482421875</ele>
        <time>2026-08-05T12:01:31.000Z</time>
        <extensions>
          <ns3:TrackPointExtension>
            <ns3:hr>86</ns3:hr>
            <ns3:cad>46</ns3:cad>
          </ns3:TrackPointExtension>
        </extensions>
      </trkpt>
      <trkpt lat="43.458375893533229827880859375" lon="1.4273273013532161712646484375">
        <ele>158.1999969482421875</ele>
        <time>2026-08-05T12:01:32.000Z</time>
        <extensions>
          <ns3:TrackPointExtension>
            <ns3:hr>86</ns3:hr>
            <ns3:cad>45</ns3:cad>
          </ns3:TrackPointExtension>
        </extensions>
      </trkpt>
      <trkpt lat="43.4583696909248828887939453125" lon="1.42733945511281490325927734375">
        <ele>158.399993896484375</ele>
        <time>2026-08-05T12:01:33.000Z</time>
        <extensions>
          <ns3:TrackPointExtension>
            <ns3:hr>86</ns3:hr>
            <ns3:cad>45</ns3:cad>
          </ns3:TrackPointExtension>
        </extensions>
      </trkpt>
      <trkpt lat="43.45836617052555084228515625" lon="1.42735353671014308929443359375">
        <ele>158.399993896484375</ele>
        <time>2026-08-05T12:01:34.000Z</time>
        <extensions>
          <ns3:TrackPointExtension>
            <ns3:hr>86</ns3:hr>
            <ns3:cad>43</ns3:cad>
          </ns3:TrackPointExtension>
        </extensions>
      </trkpt>
      <trkpt lat="43.4583599679172039031982421875" lon="1.42736678011715412139892578125">
        <ele>158.399993896484375</ele>
        <time>2026-08-05T12:01:35.000Z</time>
        <extensions>
          <ns3:TrackPointExtension>
            <ns3:hr>86</ns3:hr>
            <ns3:cad>42</ns3:cad>
          </ns3:TrackPointExtension>
        </extensions>
      </trkpt>
      <trkpt lat="43.4583572857081890106201171875" lon="1.42737147398293018341064453125">
        <ele>158.600006103515625</ele>
        <time>2026-08-05T12:01:36.000Z</time>
        <extensions>
          <ns3:TrackPointExtension>
            <ns3:hr>86</ns3:hr>
            <ns3:cad>42</ns3:cad>
          </ns3:TrackPointExtension>
        </extensions>
      </trkpt>
      <trkpt lat="43.4583525918424129486083984375" lon="1.42737817950546741485595703125">
        <ele>158.600006103515625</ele>
        <time>2026-08-05T12:01:37.000Z</time>
        <extensions>
          <ns3:TrackPointExtension>
            <ns3:hr>86</ns3:hr>
            <ns3:cad>42</ns3:cad>
          </ns3:TrackPointExtension>
        </extensions>
      </trkpt>
      <trkpt lat="43.4583489038050174713134765625" lon="1.42738857306540012359619140625">
        <ele>158.600006103515625</ele>
        <time>2026-08-05T12:01:38.000Z</time>
        <extensions>
          <ns3:TrackPointExtension>
            <ns3:hr>86</ns3:hr>
            <ns3:cad>42</ns3:cad>
          </ns3:TrackPointExtension>
        </extensions>
      </trkpt>
      <trkpt lat="43.45834814943373203277587890625" lon="1.42739410512149333953857421875">
        <ele>158.600006103515625</ele>
        <time>2026-08-05T12:01:39.000Z</time>
        <extensions>
          <ns3:TrackPointExtension>
            <ns3:hr>86</ns3:hr>
            <ns3:cad>42</ns3:cad>
          </ns3:TrackPointExtension>
        </extensions>
      </trkpt>
      <trkpt lat="43.45834672451019287109375" lon="1.4274013973772525787353515625">
        <ele>158.399993896484375</ele>
        <time>2026-08-05T12:01:40.000Z</time>
        <extensions>
          <ns3:TrackPointExtension>
            <ns3:hr>85</ns3:hr>
            <ns3:cad>43</ns3:cad>
          </ns3:TrackPointExtension>
        </extensions>
      </trkpt>
      <trkpt lat="43.458344377577304840087890625" lon="1.42740801908075809478759765625">
        <ele>158.399993896484375</ele>
        <time>2026-08-05T12:01:41.000Z</time>
        <extensions>
          <ns3:TrackPointExtension>
            <ns3:hr>85</ns3:hr>
            <ns3:cad>43</ns3:cad>
          </ns3:TrackPointExtension>
        </extensions>
      </trkpt>
      <trkpt lat="43.4583432041108608245849609375" lon="1.42741807736456394195556640625">
        <ele>158.399993896484375</ele>
        <time>2026-08-05T12:01:42.000Z</time>
        <extensions>
          <ns3:TrackPointExtension>
            <ns3:hr>84</ns3:hr>
            <ns3:cad>43</ns3:cad>
          </ns3:TrackPointExtension>
        </extensions>
      </trkpt>
      <trkpt lat="43.45834194682538509368896484375" lon="1.4274298958480358123779296875">
        <ele>158.399993896484375</ele>
        <time>2026-08-05T12:01:43.000Z</time>
        <extensions>
          <ns3:TrackPointExtension>
            <ns3:hr>82</ns3:hr>
            <ns3:cad>43</ns3:cad>
          </ns3:TrackPointExtension>
        </extensions>
      </trkpt>
      <trkpt lat="43.45834060572087764739990234375" lon="1.42744037322700023651123046875">
        <ele>158.399993896484375</ele>
        <time>2026-08-05T12:01:44.000Z</time>
        <extensions>
          <ns3:TrackPointExtension>
            <ns3:hr>81</ns3:hr>
            <ns3:cad>40</ns3:cad>
          </ns3:TrackPointExtension>
        </extensions>
      </trkpt>
      <trkpt lat="43.45833892934024333953857421875" lon="1.4274530299007892608642578125">
        <ele>158.399993896484375</ele>
        <time>2026-08-05T12:01:45.000Z</time>
        <extensions>
          <ns3:TrackPointExtension>
            <ns3:hr>81</ns3:hr>
            <ns3:cad>40</ns3:cad>
          </ns3:TrackPointExtension>
        </extensions>
      </trkpt>
      <trkpt lat="43.45833532512187957763671875" lon="1.4274650998413562774658203125">
        <ele>158.399993896484375</ele>
        <time>2026-08-05T12:01:46.000Z</time>
        <extensions>
          <ns3:TrackPointExtension>
            <ns3:hr>80</ns3:hr>
            <ns3:cad>41</ns3:cad>
          </ns3:TrackPointExtension>
        </extensions>
      </trkpt>
      <trkpt lat="43.45833071507513523101806640625" lon="1.42747071571648120880126953125">
        <ele>158.1999969482421875</ele>
        <time>2026-08-05T12:01:47.000Z</time>
        <extensions>
          <ns3:TrackPointExtension>
            <ns3:hr>79</ns3:hr>
            <ns3:cad>42</ns3:cad>
          </ns3:TrackPointExtension>
        </extensions>
      </trkpt>
      <trkpt lat="43.45832384191453456878662109375" lon="1.42747943289577960968017578125">
        <ele>158.1999969482421875</ele>
        <time>2026-08-05T12:01:48.000Z</time>
        <extensions>
          <ns3:TrackPointExtension>
            <ns3:hr>78</ns3:hr>
            <ns3:cad>43</ns3:cad>
          </ns3:TrackPointExtension>
        </extensions>
      </trkpt>
      <trkpt lat="43.45832317136228084564208984375" lon="1.42749317921698093414306640625">
        <ele>158.1999969482421875</ele>
        <time>2026-08-05T12:01:49.000Z</time>
        <extensions>
          <ns3:TrackPointExtension>
            <ns3:hr>78</ns3:hr>
            <ns3:cad>43</ns3:cad>
          </ns3:TrackPointExtension>
        </extensions>
      </trkpt>
      <trkpt lat="43.4583212435245513916015625" lon="1.42750642262399196624755859375">
        <ele>158.1999969482421875</ele>
        <time>2026-08-05T12:01:50.000Z</time>
        <extensions>
          <ns3:TrackPointExtension>
            <ns3:hr>77</ns3:hr>
            <ns3:cad>44</ns3:cad>
          </ns3:TrackPointExtension>
        </extensions>
      </trkpt>
      <trkpt lat="43.45831789076328277587890625" lon="1.42751882784068584442138671875">
        <ele>158</ele>
        <time>2026-08-05T12:01:51.000Z</time>
        <extensions>
          <ns3:TrackPointExtension>
            <ns3:hr>76</ns3:hr>
            <ns3:cad>44</ns3:cad>
          </ns3:TrackPointExtension>
        </extensions>
      </trkpt>
      <trkpt lat="43.45831462182104587554931640625" lon="1.42753039486706256866455078125">
        <ele>158</ele>
        <time>2026-08-05T12:01:52.000Z</time>
        <extensions>
          <ns3:TrackPointExtension>
            <ns3:hr>76</ns3:hr>
            <ns3:cad>46</ns3:cad>
          </ns3:TrackPointExtension>
        </extensions>
      </trkpt>
      <trkpt lat="43.458311520516872406005859375" lon="1.4275465719401836395263671875">
        <ele>158</ele>
        <time>2026-08-05T12:01:53.000Z</time>
        <extensions>
          <ns3:TrackPointExtension>
            <ns3:hr>76</ns3:hr>
            <ns3:cad>48</ns3:cad>
          </ns3:TrackPointExtension>
        </extensions>
      </trkpt>
      <trkpt lat="43.45830590464174747467041015625" lon="1.427561156451702117919921875">
        <ele>158</ele>
        <time>2026-08-05T12:01:54.000Z</time>
        <extensions>
          <ns3:TrackPointExtension>
            <ns3:hr>76</ns3:hr>
            <ns3:cad>48</ns3:cad>
          </ns3:TrackPointExtension>
        </extensions>
      </trkpt>
      <trkpt lat="43.45830523408949375152587890625" lon="1.42757599242031574249267578125">
        <ele>158</ele>
        <time>2026-08-05T12:01:55.000Z</time>
        <extensions>
          <ns3:TrackPointExtension>
            <ns3:hr>75</ns3:hr>
            <ns3:cad>47</ns3:cad>
          </ns3:TrackPointExtension>
        </extensions>
      </trkpt>
      <trkpt lat="43.4583051502704620361328125" lon="1.427592337131500244140625">
        <ele>158</ele>
        <time>2026-08-05T12:01:56.000Z</time>
        <extensions>
          <ns3:TrackPointExtension>
            <ns3:hr>75</ns3:hr>
            <ns3:cad>45</ns3:cad>
          </ns3:TrackPointExtension>
        </extensions>
      </trkpt>
      <trkpt lat="43.45830573700368404388427734375" lon="1.42760968767106533050537109375">
        <ele>158</ele>
        <time>2026-08-05T12:01:57.000Z</time>
        <extensions>
          <ns3:TrackPointExtension>
            <ns3:hr>75</ns3:hr>
            <ns3:cad>44</ns3:cad>
          </ns3:TrackPointExtension>
        </extensions>
      </trkpt>
      <trkpt lat="43.4583083353936672210693359375" lon="1.42762594856321811676025390625">
        <ele>158</ele>
        <time>2026-08-05T12:01:58.000Z</time>
        <extensions>
          <ns3:TrackPointExtension>
            <ns3:hr>75</ns3:hr>
            <ns3:cad>44</ns3:cad>
          </ns3:TrackPointExtension>
        </extensions>
      </trkpt>
      <trkpt lat="43.4583105146884918212890625" lon="1.42764187417924404144287109375">
        <ele>158</ele>
        <time>2026-08-05T12:01:59.000Z</time>
        <extensions>
          <ns3:TrackPointExtension>
            <ns3:hr>75</ns3:hr>
            <ns3:cad>44</ns3:cad>
          </ns3:TrackPointExtension>
        </extensions>
      </trkpt>
      <trkpt lat="43.45830942504107952117919921875" lon="1.42765059135854244232177734375">
        <ele>158</ele>
        <time>2026-08-05T12:02:00.000Z</time>
        <extensions>
          <ns3:TrackPointExtension>
            <ns3:hr>75</ns3:hr>
            <ns3:cad>43</ns3:cad>
          </ns3:TrackPointExtension>
        </extensions>
      </trkpt>
      <trkpt lat="43.4583083353936672210693359375" lon="1.42765847034752368927001953125">
        <ele>158</ele>
        <time>2026-08-05T12:02:01.000Z</time>
        <extensions>
          <ns3:TrackPointExtension>
            <ns3:hr>75</ns3:hr>
            <ns3:cad>42</ns3:cad>
          </ns3:TrackPointExtension>
        </extensions>
      </trkpt>
      <trkpt lat="43.4583059884607791900634765625" lon="1.42767070792615413665771484375">
        <ele>158</ele>
        <time>2026-08-05T12:02:02.000Z</time>
        <extensions>
          <ns3:TrackPointExtension>
            <ns3:hr>75</ns3:hr>
            <ns3:cad>42</ns3:cad>
          </ns3:TrackPointExtension>
        </extensions>
      </trkpt>
      <trkpt lat="43.45830389298498630523681640625" lon="1.4276810176670551300048828125">
        <ele>158</ele>
        <time>2026-08-05T12:02:03.000Z</time>
        <extensions>
          <ns3:TrackPointExtension>
            <ns3:hr>74</ns3:hr>
            <ns3:cad>42</ns3:cad>
          </ns3:TrackPointExtension>
        </extensions>
      </trkpt>
      <trkpt lat="43.4582984447479248046875" lon="1.42769484780728816986083984375">
        <ele>158</ele>
        <time>2026-08-05T12:02:04.000Z</time>
        <extensions>
          <ns3:TrackPointExtension>
            <ns3:hr>74</ns3:hr>
            <ns3:cad>43</ns3:cad>
          </ns3:TrackPointExtension>
        </extensions>
      </trkpt>
      <trkpt lat="43.45829064957797527313232421875" lon="1.42770976759493350982666015625">
        <ele>158</ele>
        <time>2026-08-05T12:02:05.000Z</time>
        <extensions>
          <ns3:TrackPointExtension>
            <ns3:hr>74</ns3:hr>
            <ns3:cad>43</ns3:cad>
          </ns3:TrackPointExtension>
        </extensions>
      </trkpt>
      <trkpt lat="43.45828662626445293426513671875" lon="1.42772376537322998046875">
        <ele>158</ele>
        <time>2026-08-05T12:02:06.000Z</time>
        <extensions>
          <ns3:TrackPointExtension>
            <ns3:hr>73</ns3:hr>
            <ns3:cad>43</ns3:cad>
          </ns3:TrackPointExtension>
        </extensions>
      </trkpt>
      <trkpt lat="43.45828033983707427978515625" lon="1.4277336560189723968505859375">
        <ele>158</ele>
        <time>2026-08-05T12:02:07.000Z</time>
        <extensions>
          <ns3:TrackPointExtension>
            <ns3:hr>73</ns3:hr>
            <ns3:cad>43</ns3:cad>
          </ns3:TrackPointExtension>
        </extensions>
      </trkpt>
      <trkpt lat="43.45827355049550533294677734375" lon="1.42774061299860477447509765625">
        <ele>158</ele>
        <time>2026-08-05T12:02:08.000Z</time>
        <extensions>
          <ns3:TrackPointExtension>
            <ns3:hr>73</ns3:hr>
            <ns3:cad>42</ns3:cad>
          </ns3:TrackPointExtension>
        </extensions>
      </trkpt>
      <trkpt lat="43.4582681022584438323974609375" lon="1.42774664796888828277587890625">
        <ele>158.1999969482421875</ele>
        <time>2026-08-05T12:02:09.000Z</time>
        <extensions>
          <ns3:TrackPointExtension>
            <ns3:hr>71</ns3:hr>
            <ns3:cad>42</ns3:cad>
          </ns3:TrackPointExtension>
        </extensions>
      </trkpt>
      <trkpt lat="43.45826315693557262420654296875" lon="1.42776072956621646881103515625">
        <ele>158.1999969482421875</ele>
        <time>2026-08-05T12:02:10.000Z</time>
        <extensions>
          <ns3:TrackPointExtension>
            <ns3:hr>62</ns3:hr>
            <ns3:cad>42</ns3:cad>
          </ns3:TrackPointExtension>
        </extensions>
      </trkpt>
      <trkpt lat="43.45826047472655773162841796875" lon="1.42777363769710063934326171875">
        <ele>158.1999969482421875</ele>
        <time>2026-08-05T12:02:11.000Z</time>
        <extensions>
          <ns3:TrackPointExtension>
            <ns3:hr>55</ns3:hr>
            <ns3:cad>42</ns3:cad>
          </ns3:TrackPointExtension>
        </extensions>
      </trkpt>
      <trkpt lat="43.4582568705081939697265625" lon="1.4277809299528598785400390625">
        <ele>158.399993896484375</ele>
        <time>2026-08-05T12:02:12.000Z</time>
        <extensions>
          <ns3:TrackPointExtension>
            <ns3:hr>53</ns3:hr>
            <ns3:cad>42</ns3:cad>
          </ns3:TrackPointExtension>
        </extensions>
      </trkpt>
      <trkpt lat="43.4582516737282276153564453125" lon="1.42778688110411167144775390625">
        <ele>158.399993896484375</ele>
        <time>2026-08-05T12:02:13.000Z</time>
        <extensions>
          <ns3:TrackPointExtension>
            <ns3:hr>53</ns3:hr>
            <ns3:cad>42</ns3:cad>
          </ns3:TrackPointExtension>
        </extensions>
      </trkpt>
      <trkpt lat="43.4582473151385784149169921875" lon="1.42779744230210781097412109375">
        <ele>158.399993896484375</ele>
        <time>2026-08-05T12:02:14.000Z</time>
        <extensions>
          <ns3:TrackPointExtension>
            <ns3:hr>53</ns3:hr>
            <ns3:cad>42</ns3:cad>
          </ns3:TrackPointExtension>
        </extensions>
      </trkpt>
      <trkpt lat="43.45824086107313632965087890625" lon="1.42780699767172336578369140625">
        <ele>158.399993896484375</ele>
        <time>2026-08-05T12:02:15.000Z</time>
        <extensions>
          <ns3:TrackPointExtension>
            <ns3:hr>53</ns3:hr>
            <ns3:cad>43</ns3:cad>
          </ns3:TrackPointExtension>
        </extensions>
      </trkpt>
      <trkpt lat="43.4582339040935039520263671875" lon="1.4278147928416728973388671875">
        <ele>158.399993896484375</ele>
        <time>2026-08-05T12:02:16.000Z</time>
        <extensions>
          <ns3:TrackPointExtension>
            <ns3:hr>54</ns3:hr>
            <ns3:cad>44</ns3:cad>
          </ns3:TrackPointExtension>
        </extensions>
      </trkpt>
      <trkpt lat="43.45822870731353759765625" lon="1.42782091163098812103271484375">
        <ele>158.399993896484375</ele>
        <time>2026-08-05T12:02:17.000Z</time>
        <extensions>
          <ns3:TrackPointExtension>
            <ns3:hr>54</ns3:hr>
            <ns3:cad>43</ns3:cad>
          </ns3:TrackPointExtension>
        </extensions>
      </trkpt>
      <trkpt lat="43.4582204930484294891357421875" lon="1.4278342388570308685302734375">
        <ele>158.399993896484375</ele>
        <time>2026-08-05T12:02:18.000Z</time>
        <extensions>
          <ns3:TrackPointExtension>
            <ns3:hr>54</ns3:hr>
            <ns3:cad>43</ns3:cad>
          </ns3:TrackPointExtension>
        </extensions>
      </trkpt>
      <trkpt lat="43.4582137875258922576904296875" lon="1.4278456382453441619873046875">
        <ele>158.399993896484375</ele>
        <time>2026-08-05T12:02:19.000Z</time>
        <extensions>
          <ns3:TrackPointExtension>
            <ns3:hr>54</ns3:hr>
            <ns3:cad>43</ns3:cad>
          </ns3:TrackPointExtension>
        </extensions>
      </trkpt>
      <trkpt lat="43.45820850692689418792724609375" lon="1.42785628326237201690673828125">
        <ele>158.399993896484375</ele>
        <time>2026-08-05T12:02:20.000Z</time>
        <extensions>
          <ns3:TrackPointExtension>
            <ns3:hr>54</ns3:hr>
            <ns3:cad>43</ns3:cad>
          </ns3:TrackPointExtension>
        </extensions>
      </trkpt>
      <trkpt lat="43.458205573260784149169921875" lon="1.42786533571779727935791015625">
        <ele>158.399993896484375</ele>
        <time>2026-08-05T12:02:21.000Z</time>
        <extensions>
          <ns3:TrackPointExtension>
            <ns3:hr>54</ns3:hr>
            <ns3:cad>44</ns3:cad>
          </ns3:TrackPointExtension>
        </extensions>
      </trkpt>
      <trkpt lat="43.45820029266178607940673828125" lon="1.4278751425445079803466796875">
        <ele>158.399993896484375</ele>
        <time>2026-08-05T12:02:22.000Z</time>
        <extensions>
          <ns3:TrackPointExtension>
            <ns3:hr>54</ns3:hr>
            <ns3:cad>44</ns3:cad>
          </ns3:TrackPointExtension>
        </extensions>
      </trkpt>
      <trkpt lat="43.45819375477731227874755859375" lon="1.4278900623321533203125">
        <ele>158.399993896484375</ele>
        <time>2026-08-05T12:02:23.000Z</time>
        <extensions>
          <ns3:TrackPointExtension>
            <ns3:hr>54</ns3:hr>
            <ns3:cad>45</ns3:cad>
          </ns3:TrackPointExtension>
        </extensions>
      </trkpt>
      <trkpt lat="43.4581899829208850860595703125" lon="1.4279019646346569061279296875">
        <ele>158.399993896484375</ele>
        <time>2026-08-05T12:02:24.000Z</time>
        <extensions>
          <ns3:TrackPointExtension>
            <ns3:hr>54</ns3:hr>
            <ns3:cad>47</ns3:cad>
          </ns3:TrackPointExtension>
        </extensions>
      </trkpt>
      <trkpt lat="43.45818788744509220123291015625" lon="1.42791160382330417633056640625">
        <ele>158.399993896484375</ele>
        <time>2026-08-05T12:02:25.000Z</time>
        <extensions>
          <ns3:TrackPointExtension>
            <ns3:hr>54</ns3:hr>
            <ns3:cad>47</ns3:cad>
          </ns3:TrackPointExtension>
        </extensions>
      </trkpt>
      <trkpt lat="43.458184786140918731689453125" lon="1.4279200695455074310302734375">
        <ele>158.399993896484375</ele>
        <time>2026-08-05T12:02:26.000Z</time>
        <extensions>
          <ns3:TrackPointExtension>
            <ns3:hr>54</ns3:hr>
            <ns3:cad>47</ns3:cad>
          </ns3:TrackPointExtension>
        </extensions>
      </trkpt>
      <trkpt lat="43.458182774484157562255859375" lon="1.42793440259993076324462890625">
        <ele>158.399993896484375</ele>
        <time>2026-08-05T12:02:27.000Z</time>
        <extensions>
          <ns3:TrackPointExtension>
            <ns3:hr>54</ns3:hr>
            <ns3:cad>47</ns3:cad>
          </ns3:TrackPointExtension>
        </extensions>
      </trkpt>
      <trkpt lat="43.45817397348582744598388671875" lon="1.42794412560760974884033203125">
        <ele>158.399993896484375</ele>
        <time>2026-08-05T12:02:28.000Z</time>
        <extensions>
          <ns3:TrackPointExtension>
            <ns3:hr>54</ns3:hr>
            <ns3:cad>47</ns3:cad>
          </ns3:TrackPointExtension>
        </extensions>
      </trkpt>
      <trkpt lat="43.45816592685878276824951171875" lon="1.427950076758861541748046875">
        <ele>158.399993896484375</ele>
        <time>2026-08-05T12:02:29.000Z</time>
        <extensions>
          <ns3:TrackPointExtension>
            <ns3:hr>54</ns3:hr>
            <ns3:cad>44</ns3:cad>
          </ns3:TrackPointExtension>
        </extensions>
      </trkpt>
      <trkpt lat="43.4581603109836578369140625" lon="1.42796290107071399688720703125">
        <ele>158.399993896484375</ele>
        <time>2026-08-05T12:02:30.000Z</time>
        <extensions>
          <ns3:TrackPointExtension>
            <ns3:hr>54</ns3:hr>
            <ns3:cad>44</ns3:cad>
          </ns3:TrackPointExtension>
        </extensions>
      </trkpt>
      <trkpt lat="43.45815360546112060546875" lon="1.4279760606586933135986328125">
        <ele>158.399993896484375</ele>
        <time>2026-08-05T12:02:31.000Z</time>
        <extensions>
          <ns3:TrackPointExtension>
            <ns3:hr>53</ns3:hr>
            <ns3:cad>47</ns3:cad>
          </ns3:TrackPointExtension>
        </extensions>
      </trkpt>
      <trkpt lat="43.458147905766963958740234375" lon="1.4279857836663722991943359375">
        <ele>158.399993896484375</ele>
        <time>2026-08-05T12:02:32.000Z</time>
        <extensions>
          <ns3:TrackPointExtension>
            <ns3:hr>53</ns3:hr>
            <ns3:cad>47</ns3:cad>
          </ns3:TrackPointExtension>
        </extensions>
      </trkpt>
      <trkpt lat="43.45814094878733158111572265625" lon="1.42799575813114643096923828125">
        <ele>158.399993896484375</ele>
        <time>2026-08-05T12:02:33.000Z</time>
        <extensions>
          <ns3:TrackPointExtension>
            <ns3:hr>53</ns3:hr>
            <ns3:cad>47</ns3:cad>
          </ns3:TrackPointExtension>
        </extensions>
      </trkpt>
      <trkpt lat="43.45813441090285778045654296875" lon="1.42800732515752315521240234375">
        <ele>158.399993896484375</ele>
        <time>2026-08-05T12:02:34.000Z</time>
        <extensions>
          <ns3:TrackPointExtension>
            <ns3:hr>54</ns3:hr>
            <ns3:cad>45</ns3:cad>
          </ns3:TrackPointExtension>
        </extensions>
      </trkpt>
      <trkpt lat="43.45812753774225711822509765625" lon="1.42801654525101184844970703125">
        <ele>158.399993896484375</ele>
        <time>2026-08-05T12:02:35.000Z</time>
        <extensions>
          <ns3:TrackPointExtension>
            <ns3:hr>54</ns3:hr>
            <ns3:cad>44</ns3:cad>
          </ns3:TrackPointExtension>
        </extensions>
      </trkpt>
      <trkpt lat="43.4581200778484344482421875" lon="1.42802375368773937225341796875">
        <ele>158.1999969482421875</ele>
        <time>2026-08-05T12:02:36.000Z</time>
        <extensions>
          <ns3:TrackPointExtension>
            <ns3:hr>54</ns3:hr>
            <ns3:cad>43</ns3:cad>
          </ns3:TrackPointExtension>
        </extensions>
      </trkpt>
      <trkpt lat="43.45811027102172374725341796875" lon="1.42803154885768890380859375">
        <ele>158.1999969482421875</ele>
        <time>2026-08-05T12:02:37.000Z</time>
        <extensions>
          <ns3:TrackPointExtension>
            <ns3:hr>54</ns3:hr>
            <ns3:cad>42</ns3:cad>
          </ns3:TrackPointExtension>
        </extensions>
      </trkpt>
      <trkpt lat="43.45810155384242534637451171875" lon="1.428036577999591827392578125">
        <ele>158.1999969482421875</ele>
        <time>2026-08-05T12:02:38.000Z</time>
        <extensions>
          <ns3:TrackPointExtension>
            <ns3:hr>54</ns3:hr>
            <ns3:cad>42</ns3:cad>
          </ns3:TrackPointExtension>
        </extensions>
      </trkpt>
      <trkpt lat="43.458092920482158660888671875" lon="1.42804454080760478973388671875">
        <ele>158.1999969482421875</ele>
        <time>2026-08-05T12:02:39.000Z</time>
        <extensions>
          <ns3:TrackPointExtension>
            <ns3:hr>53</ns3:hr>
            <ns3:cad>42</ns3:cad>
          </ns3:TrackPointExtension>
        </extensions>
      </trkpt>
      <trkpt lat="43.45808780752122402191162109375" lon="1.42804806120693683624267578125">
        <ele>158.1999969482421875</ele>
        <time>2026-08-05T12:02:40.000Z</time>
        <extensions>
          <ns3:TrackPointExtension>
            <ns3:hr>54</ns3:hr>
            <ns3:cad>42</ns3:cad>
          </ns3:TrackPointExtension>
        </extensions>
      </trkpt>
      <trkpt lat="43.4580873884260654449462890625" lon="1.42804889939725399017333984375">
        <ele>158.1999969482421875</ele>
        <time>2026-08-05T12:02:41.000Z</time>
        <extensions>
          <ns3:TrackPointExtension>
            <ns3:hr>54</ns3:hr>
            <ns3:cad>42</ns3:cad>
          </ns3:TrackPointExtension>
        </extensions>
      </trkpt>
      <trkpt lat="43.4580833651125431060791015625" lon="1.42805459909141063690185546875">
        <ele>158.399993896484375</ele>
        <time>2026-08-05T12:02:42.000Z</time>
        <extensions>
          <ns3:TrackPointExtension>
            <ns3:hr>54</ns3:hr>
            <ns3:cad>0</ns3:cad>
          </ns3:TrackPointExtension>
        </extensions>
      </trkpt>
      <trkpt lat="43.4580826945602893829345703125" lon="1.4280523359775543212890625">
        <ele>158.399993896484375</ele>
        <time>2026-08-05T12:02:43.000Z</time>
        <extensions>
          <ns3:TrackPointExtension>
            <ns3:hr>54</ns3:hr>
            <ns3:cad>0</ns3:cad>
          </ns3:TrackPointExtension>
        </extensions>
      </trkpt>
      <trkpt lat="43.4580830298364162445068359375" lon="1.4280575327575206756591796875">
        <ele>158.399993896484375</ele>
        <time>2026-08-05T12:02:44.000Z</time>
        <extensions>
          <ns3:TrackPointExtension>
            <ns3:hr>53</ns3:hr>
            <ns3:cad>0</ns3:cad>
          </ns3:TrackPointExtension>
        </extensions>
      </trkpt>
      <trkpt lat="43.45808227546513080596923828125" lon="1.4280615560710430145263671875">
        <ele>158.399993896484375</ele>
        <time>2026-08-05T12:02:45.000Z</time>
        <extensions>
          <ns3:TrackPointExtension>
            <ns3:hr>54</ns3:hr>
            <ns3:cad>0</ns3:cad>
          </ns3:TrackPointExtension>
        </extensions>
      </trkpt>
      <trkpt lat="43.45808194018900394439697265625" lon="1.42806683667004108428955078125">
        <ele>158.399993896484375</ele>
        <time>2026-08-05T12:02:46.000Z</time>
        <extensions>
          <ns3:TrackPointExtension>
            <ns3:hr>54</ns3:hr>
            <ns3:cad>0</ns3:cad>
          </ns3:TrackPointExtension>
        </extensions>
      </trkpt>
      <trkpt lat="43.45808126963675022125244140625" lon="1.428072452545166015625">
        <ele>158.399993896484375</ele>
        <time>2026-08-05T12:02:47.000Z</time>
        <extensions>
          <ns3:TrackPointExtension>
            <ns3:hr>54</ns3:hr>
            <ns3:cad>0</ns3:cad>
          </ns3:TrackPointExtension>
        </extensions>
      </trkpt>
      <trkpt lat="43.45808043144643306732177734375" lon="1.4280791580677032470703125">
        <ele>158.399993896484375</ele>
        <time>2026-08-05T12:02:48.000Z</time>
        <extensions>
          <ns3:TrackPointExtension>
            <ns3:hr>54</ns3:hr>
            <ns3:cad>0</ns3:cad>
          </ns3:TrackPointExtension>
        </extensions>
      </trkpt>
      <trkpt lat="43.45808445475995540618896484375" lon="1.42807924188673496246337890625">
        <ele>158.399993896484375</ele>
        <time>2026-08-05T12:02:49.000Z</time>
        <extensions>
          <ns3:TrackPointExtension>
            <ns3:hr>54</ns3:hr>
            <ns3:cad>0</ns3:cad>
          </ns3:TrackPointExtension>
        </extensions>
      </trkpt>
      <trkpt lat="43.4580852091312408447265625" lon="1.42807974480092525482177734375">
        <ele>158.600006103515625</ele>
        <time>2026-08-05T12:02:50.000Z</time>
        <extensions>
          <ns3:TrackPointExtension>
            <ns3:hr>54</ns3:hr>
            <ns3:cad>0</ns3:cad>
          </ns3:TrackPointExtension>
        </extensions>
      </trkpt>
      <trkpt lat="43.4580833651125431060791015625" lon="1.42808058299124240875244140625">
        <ele>158.399993896484375</ele>
        <time>2026-08-05T12:02:51.000Z</time>
        <extensions>
          <ns3:TrackPointExtension>
            <ns3:hr>55</ns3:hr>
            <ns3:cad>0</ns3:cad>
          </ns3:TrackPointExtension>
        </extensions>
      </trkpt>
      <trkpt lat="43.4580810181796550750732421875" lon="1.428083516657352447509765625">
        <ele>158.399993896484375</ele>
        <time>2026-08-05T12:02:52.000Z</time>
        <extensions>
          <ns3:TrackPointExtension>
            <ns3:hr>56</ns3:hr>
            <ns3:cad>0</ns3:cad>
          </ns3:TrackPointExtension>
        </extensions>
      </trkpt>
      <trkpt lat="43.45807489939033985137939453125" lon="1.42809231765568256378173828125">
        <ele>158.399993896484375</ele>
        <time>2026-08-05T12:02:53.000Z</time>
        <extensions>
          <ns3:TrackPointExtension>
            <ns3:hr>56</ns3:hr>
            <ns3:cad>0</ns3:cad>
          </ns3:TrackPointExtension>
        </extensions>
      </trkpt>
      <trkpt lat="43.458074145019054412841796875" lon="1.42809617333114147186279296875">
        <ele>158.399993896484375</ele>
        <time>2026-08-05T12:02:54.000Z</time>
        <extensions>
          <ns3:TrackPointExtension>
            <ns3:hr>57</ns3:hr>
            <ns3:cad>0</ns3:cad>
          </ns3:TrackPointExtension>
        </extensions>
      </trkpt>
      <trkpt lat="43.4580733068287372589111328125" lon="1.42809868790209293365478515625">
        <ele>158.600006103515625</ele>
        <time>2026-08-05T12:02:55.000Z</time>
        <extensions>
          <ns3:TrackPointExtension>
            <ns3:hr>57</ns3:hr>
            <ns3:cad>0</ns3:cad>
          </ns3:TrackPointExtension>
        </extensions>
      </trkpt>
      <trkpt lat="43.458073474466800689697265625" lon="1.42809885554015636444091796875">
        <ele>158.600006103515625</ele>
        <time>2026-08-05T12:02:56.000Z</time>
        <extensions>
          <ns3:TrackPointExtension>
            <ns3:hr>57</ns3:hr>
            <ns3:cad>0</ns3:cad>
          </ns3:TrackPointExtension>
        </extensions>
      </trkpt>
      <trkpt lat="43.4580696187913417816162109375" lon="1.42810874618589878082275390625">
        <ele>158.399993896484375</ele>
        <time>2026-08-05T12:02:57.000Z</time>
        <extensions>
          <ns3:TrackPointExtension>
            <ns3:hr>57</ns3:hr>
            <ns3:cad>0</ns3:cad>
          </ns3:TrackPointExtension>
        </extensions>
      </trkpt>
      <trkpt lat="43.458065092563629150390625" lon="1.4281105063855648040771484375">
        <ele>158.399993896484375</ele>
        <time>2026-08-05T12:02:58.000Z</time>
        <extensions>
          <ns3:TrackPointExtension>
            <ns3:hr>57</ns3:hr>
            <ns3:cad>0</ns3:cad>
          </ns3:TrackPointExtension>
        </extensions>
      </trkpt>
      <trkpt lat="43.45806065015494823455810546875" lon="1.42811008729040622711181640625">
        <ele>158.399993896484375</ele>
        <time>2026-08-05T12:02:59.000Z</time>
        <extensions>
          <ns3:TrackPointExtension>
            <ns3:hr>57</ns3:hr>
            <ns3:cad>61</ns3:cad>
          </ns3:TrackPointExtension>
        </extensions>
      </trkpt>
      <trkpt lat="43.45805780030786991119384765625" lon="1.42811000347137451171875">
        <ele>158.1999969482421875</ele>
        <time>2026-08-05T12:03:00.000Z</time>
        <extensions>
          <ns3:TrackPointExtension>
            <ns3:hr>57</ns3:hr>
            <ns3:cad>61</ns3:cad>
          </ns3:TrackPointExtension>
        </extensions>
      </trkpt>
      <trkpt lat="43.4580578841269016265869140625" lon="1.42810589633882045745849609375">
        <ele>158.1999969482421875</ele>
        <time>2026-08-05T12:03:01.000Z</time>
        <extensions>
          <ns3:TrackPointExtension>
            <ns3:hr>57</ns3:hr>
            <ns3:cad>60</ns3:cad>
          </ns3:TrackPointExtension>
        </extensions>
      </trkpt>
      <trkpt lat="43.458057381212711334228515625" lon="1.42810606397688388824462890625">
        <ele>158.399993896484375</ele>
        <time>2026-08-05T12:03:02.000Z</time>
        <extensions>
          <ns3:TrackPointExtension>
            <ns3:hr>56</ns3:hr>
            <ns3:cad>60</ns3:cad>
          </ns3:TrackPointExtension>
        </extensions>
      </trkpt>
      <trkpt lat="43.45805796794593334197998046875" lon="1.42810807563364505767822265625">
        <ele>158.399993896484375</ele>
        <time>2026-08-05T12:03:03.000Z</time>
        <extensions>
          <ns3:TrackPointExtension>
            <ns3:hr>56</ns3:hr>
            <ns3:cad>60</ns3:cad>
          </ns3:TrackPointExtension>
        </extensions>
      </trkpt>
      <trkpt lat="43.45805729739367961883544921875" lon="1.428113691508769989013671875">
        <ele>158.399993896484375</ele>
        <time>2026-08-05T12:03:04.000Z</time>
        <extensions>
          <ns3:TrackPointExtension>
            <ns3:hr>56</ns3:hr>
            <ns3:cad>0</ns3:cad>
          </ns3:TrackPointExtension>
        </extensions>
      </trkpt>
      <trkpt lat="43.4580562077462673187255859375" lon="1.4281215704977512359619140625">
        <ele>158.399993896484375</ele>
        <time>2026-08-05T12:03:05.000Z</time>
        <extensions>
          <ns3:TrackPointExtension>
            <ns3:hr>56</ns3:hr>
            <ns3:cad>0</ns3:cad>
          </ns3:TrackPointExtension>
        </extensions>
      </trkpt>
      <trkpt lat="43.45805411227047443389892578125" lon="1.42813405953347682952880859375">
        <ele>158.399993896484375</ele>
        <time>2026-08-05T12:03:06.000Z</time>
        <extensions>
          <ns3:TrackPointExtension>
            <ns3:hr>58</ns3:hr>
            <ns3:cad>0</ns3:cad>
          </ns3:TrackPointExtension>
        </extensions>
      </trkpt>
      <trkpt lat="43.4580508433282375335693359375" lon="1.42814554274082183837890625">
        <ele>158.1999969482421875</ele>
        <time>2026-08-05T12:03:07.000Z</time>
        <extensions>
          <ns3:TrackPointExtension>
            <ns3:hr>59</ns3:hr>
            <ns3:cad>0</ns3:cad>
          </ns3:TrackPointExtension>
        </extensions>
      </trkpt>
      <trkpt lat="43.4580454789102077484130859375" lon="1.42815317027270793914794921875">
        <ele>158.1999969482421875</ele>
        <time>2026-08-05T12:03:08.000Z</time>
        <extensions>
          <ns3:TrackPointExtension>
            <ns3:hr>59</ns3:hr>
            <ns3:cad>0</ns3:cad>
          </ns3:TrackPointExtension>
        </extensions>
      </trkpt>
      <trkpt lat="43.4580409526824951171875" lon="1.428155936300754547119140625">
        <ele>158.1999969482421875</ele>
        <time>2026-08-05T12:03:09.000Z</time>
        <extensions>
          <ns3:TrackPointExtension>
            <ns3:hr>59</ns3:hr>
            <ns3:cad>0</ns3:cad>
          </ns3:TrackPointExtension>
        </extensions>
      </trkpt>
      <trkpt lat="43.45803583972156047821044921875" lon="1.42816088162362575531005859375">
        <ele>158.1999969482421875</ele>
        <time>2026-08-05T12:03:10.000Z</time>
        <extensions>
          <ns3:TrackPointExtension>
            <ns3:hr>59</ns3:hr>
            <ns3:cad>0</ns3:cad>
          </ns3:TrackPointExtension>
        </extensions>
      </trkpt>
      <trkpt lat="43.4580283798277378082275390625" lon="1.4281671680510044097900390625">
        <ele>158.1999969482421875</ele>
        <time>2026-08-05T12:03:11.000Z</time>
        <extensions>
          <ns3:TrackPointExtension>
            <ns3:hr>60</ns3:hr>
            <ns3:cad>0</ns3:cad>
          </ns3:TrackPointExtension>
        </extensions>
      </trkpt>
      <trkpt lat="43.4580210037529468536376953125" lon="1.428171359002590179443359375">
        <ele>158.399993896484375</ele>
        <time>2026-08-05T12:03:12.000Z</time>
        <extensions>
          <ns3:TrackPointExtension>
            <ns3:hr>60</ns3:hr>
            <ns3:cad>0</ns3:cad>
          </ns3:TrackPointExtension>
        </extensions>
      </trkpt>
      <trkpt lat="43.4580181539058685302734375" lon="1.42818150110542774200439453125">
        <ele>158.399993896484375</ele>
        <time>2026-08-05T12:03:13.000Z</time>
        <extensions>
          <ns3:TrackPointExtension>
            <ns3:hr>61</ns3:hr>
            <ns3:cad>0</ns3:cad>
          </ns3:TrackPointExtension>
        </extensions>
      </trkpt>
      <trkpt lat="43.45800876617431640625" lon="1.428197510540485382080078125">
        <ele>158.399993896484375</ele>
        <time>2026-08-05T12:03:14.000Z</time>
        <extensions>
          <ns3:TrackPointExtension>
            <ns3:hr>62</ns3:hr>
            <ns3:cad>71</ns3:cad>
          </ns3:TrackPointExtension>
        </extensions>
      </trkpt>
      <trkpt lat="43.458000384271144866943359375" lon="1.4282087422907352447509765625">
        <ele>158.399993896484375</ele>
        <time>2026-08-05T12:03:15.000Z</time>
        <extensions>
          <ns3:TrackPointExtension>
            <ns3:hr>63</ns3:hr>
            <ns3:cad>71</ns3:cad>
          </ns3:TrackPointExtension>
        </extensions>
      </trkpt>
      <trkpt lat="43.4579958580434322357177734375" lon="1.4282157830893993377685546875">
        <ele>158.600006103515625</ele>
        <time>2026-08-05T12:03:16.000Z</time>
        <extensions>
          <ns3:TrackPointExtension>
            <ns3:hr>64</ns3:hr>
            <ns3:cad>71</ns3:cad>
          </ns3:TrackPointExtension>
        </extensions>
      </trkpt>
      <trkpt lat="43.45798957161605358123779296875" lon="1.42822508700191974639892578125">
        <ele>158.600006103515625</ele>
        <time>2026-08-05T12:03:17.000Z</time>
        <extensions>
          <ns3:TrackPointExtension>
            <ns3:hr>67</ns3:hr>
            <ns3:cad>71</ns3:cad>
          </ns3:TrackPointExtension>
        </extensions>
      </trkpt>
      <trkpt lat="43.45798202790319919586181640625" lon="1.428238414227962493896484375">
        <ele>158.600006103515625</ele>
        <time>2026-08-05T12:03:18.000Z</time>
        <extensions>
          <ns3:TrackPointExtension>
            <ns3:hr>71</ns3:hr>
            <ns3:cad>71</ns3:cad>
          </ns3:TrackPointExtension>
        </extensions>
      </trkpt>
      <trkpt lat="43.45797532238066196441650390625" lon="1.4282479695975780487060546875">
        <ele>158.600006103515625</ele>
        <time>2026-08-05T12:03:19.000Z</time>
        <extensions>
          <ns3:TrackPointExtension>
            <ns3:hr>75</ns3:hr>
            <ns3:cad>71</ns3:cad>
          </ns3:TrackPointExtension>
        </extensions>
      </trkpt>
      <trkpt lat="43.45796626992523670196533203125" lon="1.428257524967193603515625">
        <ele>158.600006103515625</ele>
        <time>2026-08-05T12:03:20.000Z</time>
        <extensions>
          <ns3:TrackPointExtension>
            <ns3:hr>76</ns3:hr>
            <ns3:cad>41</ns3:cad>
          </ns3:TrackPointExtension>
        </extensions>
      </trkpt>
      <trkpt lat="43.45796023495495319366455078125" lon="1.42827269621193408966064453125">
        <ele>158.600006103515625</ele>
        <time>2026-08-05T12:03:21.000Z</time>
        <extensions>
          <ns3:TrackPointExtension>
            <ns3:hr>76</ns3:hr>
            <ns3:cad>41</ns3:cad>
          </ns3:TrackPointExtension>
        </extensions>
      </trkpt>
      <trkpt lat="43.457949422299861907958984375" lon="1.42828929238021373748779296875">
        <ele>158.600006103515625</ele>
        <time>2026-08-05T12:03:22.000Z</time>
        <extensions>
          <ns3:TrackPointExtension>
            <ns3:hr>77</ns3:hr>
            <ns3:cad>0</ns3:cad>
          </ns3:TrackPointExtension>
        </extensions>
      </trkpt>
      <trkpt lat="43.45793928019702434539794921875" lon="1.42830236814916133880615234375">
        <ele>158.600006103515625</ele>
        <time>2026-08-05T12:03:23.000Z</time>
        <extensions>
          <ns3:TrackPointExtension>
            <ns3:hr>77</ns3:hr>
            <ns3:cad>0</ns3:cad>
          </ns3:TrackPointExtension>
        </extensions>
      </trkpt>
      <trkpt lat="43.45793056301772594451904296875" lon="1.4283173717558383941650390625">
        <ele>158.600006103515625</ele>
        <time>2026-08-05T12:03:24.000Z</time>
        <extensions>
          <ns3:TrackPointExtension>
            <ns3:hr>77</ns3:hr>
            <ns3:cad>47</ns3:cad>
          </ns3:TrackPointExtension>
        </extensions>
      </trkpt>
      <trkpt lat="43.45792486332356929779052734375" lon="1.42832416109740734100341796875">
        <ele>158.600006103515625</ele>
        <time>2026-08-05T12:03:25.000Z</time>
        <extensions>
          <ns3:TrackPointExtension>
            <ns3:hr>77</ns3:hr>
            <ns3:cad>47</ns3:cad>
          </ns3:TrackPointExtension>
        </extensions>
      </trkpt>
      <trkpt lat="43.457917906343936920166015625" lon="1.428338326513767242431640625">
        <ele>158.600006103515625</ele>
        <time>2026-08-05T12:03:26.000Z</time>
        <extensions>
          <ns3:TrackPointExtension>
            <ns3:hr>77</ns3:hr>
            <ns3:cad>48</ns3:cad>
          </ns3:TrackPointExtension>
        </extensions>
      </trkpt>
      <trkpt lat="43.4579093568027019500732421875" lon="1.42834947444498538970947265625">
        <ele>158.600006103515625</ele>
        <time>2026-08-05T12:03:27.000Z</time>
        <extensions>
          <ns3:TrackPointExtension>
            <ns3:hr>77</ns3:hr>
            <ns3:cad>49</ns3:cad>
          </ns3:TrackPointExtension>
        </extensions>
      </trkpt>
      <trkpt lat="43.45790156163275241851806640625" lon="1.4283621311187744140625">
        <ele>158.600006103515625</ele>
        <time>2026-08-05T12:03:28.000Z</time>
        <extensions>
          <ns3:TrackPointExtension>
            <ns3:hr>76</ns3:hr>
            <ns3:cad>49</ns3:cad>
          </ns3:TrackPointExtension>
        </extensions>
      </trkpt>
      <trkpt lat="43.45789670012891292572021484375" lon="1.42837193794548511505126953125">
        <ele>158.8000030517578125</ele>
        <time>2026-08-05T12:03:29.000Z</time>
        <extensions>
          <ns3:TrackPointExtension>
            <ns3:hr>75</ns3:hr>
            <ns3:cad>48</ns3:cad>
          </ns3:TrackPointExtension>
        </extensions>
      </trkpt>
      <trkpt lat="43.45789812505245208740234375" lon="1.428374536335468292236328125">
        <ele>158.8000030517578125</ele>
        <time>2026-08-05T12:03:30.000Z</time>
        <extensions>
          <ns3:TrackPointExtension>
            <ns3:hr>75</ns3:hr>
            <ns3:cad>47</ns3:cad>
          </ns3:TrackPointExtension>
        </extensions>
      </trkpt>
      <trkpt lat="43.4578979574143886566162109375" lon="1.428380906581878662109375">
        <ele>158.8000030517578125</ele>
        <time>2026-08-05T12:03:31.000Z</time>
        <extensions>
          <ns3:TrackPointExtension>
            <ns3:hr>74</ns3:hr>
            <ns3:cad>47</ns3:cad>
          </ns3:TrackPointExtension>
        </extensions>
      </trkpt>
      <trkpt lat="43.45789502374827861785888671875" lon="1.42839272506535053253173828125">
        <ele>158.8000030517578125</ele>
        <time>2026-08-05T12:03:32.000Z</time>
        <extensions>
          <ns3:TrackPointExtension>
            <ns3:hr>74</ns3:hr>
            <ns3:cad>47</ns3:cad>
          </ns3:TrackPointExtension>
        </extensions>
      </trkpt>
      <trkpt lat="43.4578895755112171173095703125" lon="1.4284032024443149566650390625">
        <ele>158.8000030517578125</ele>
        <time>2026-08-05T12:03:33.000Z</time>
        <extensions>
          <ns3:TrackPointExtension>
            <ns3:hr>74</ns3:hr>
            <ns3:cad>47</ns3:cad>
          </ns3:TrackPointExtension>
        </extensions>
      </trkpt>
      <trkpt lat="43.45788563601672649383544921875" lon="1.428410075604915618896484375">
        <ele>158.8000030517578125</ele>
        <time>2026-08-05T12:03:34.000Z</time>
        <extensions>
          <ns3:TrackPointExtension>
            <ns3:hr>74</ns3:hr>
            <ns3:cad>47</ns3:cad>
          </ns3:TrackPointExtension>
        </extensions>
      </trkpt>
      <trkpt lat="43.45787188969552516937255859375" lon="1.428422145545482635498046875">
        <ele>158.8000030517578125</ele>
        <time>2026-08-05T12:03:35.000Z</time>
        <extensions>
          <ns3:TrackPointExtension>
            <ns3:hr>74</ns3:hr>
            <ns3:cad>45</ns3:cad>
          </ns3:TrackPointExtension>
        </extensions>
      </trkpt>
      <trkpt lat="43.45786233432590961456298828125" lon="1.42843832261860370635986328125">
        <ele>158.8000030517578125</ele>
        <time>2026-08-05T12:03:36.000Z</time>
        <extensions>
          <ns3:TrackPointExtension>
            <ns3:hr>74</ns3:hr>
            <ns3:cad>44</ns3:cad>
          </ns3:TrackPointExtension>
        </extensions>
      </trkpt>
      <trkpt lat="43.45785596407949924468994140625" lon="1.42844938673079013824462890625">
        <ele>158.8000030517578125</ele>
        <time>2026-08-05T12:03:37.000Z</time>
        <extensions>
          <ns3:TrackPointExtension>
            <ns3:hr>74</ns3:hr>
            <ns3:cad>44</ns3:cad>
          </ns3:TrackPointExtension>
        </extensions>
      </trkpt>
      <trkpt lat="43.4578518569469451904296875" lon="1.4284598641097545623779296875">
        <ele>158.600006103515625</ele>
        <time>2026-08-05T12:03:38.000Z</time>
        <extensions>
          <ns3:TrackPointExtension>
            <ns3:hr>74</ns3:hr>
            <ns3:cad>44</ns3:cad>
          </ns3:TrackPointExtension>
        </extensions>
      </trkpt>
      <trkpt lat="43.45784724690020084381103515625" lon="1.42847411334514617919921875">
        <ele>158.600006103515625</ele>
        <time>2026-08-05T12:03:39.000Z</time>
        <extensions>
          <ns3:TrackPointExtension>
            <ns3:hr>74</ns3:hr>
            <ns3:cad>44</ns3:cad>
          </ns3:TrackPointExtension>
        </extensions>
      </trkpt>
      <trkpt lat="43.45784255303442478179931640625" lon="1.4284922182559967041015625">
        <ele>158.600006103515625</ele>
        <time>2026-08-05T12:03:40.000Z</time>
        <extensions>
          <ns3:TrackPointExtension>
            <ns3:hr>74</ns3:hr>
            <ns3:cad>46</ns3:cad>
          </ns3:TrackPointExtension>
        </extensions>
      </trkpt>
      <trkpt lat="43.45783668570220470428466796875" lon="1.428503952920436859130859375">
        <ele>158.600006103515625</ele>
        <time>2026-08-05T12:03:41.000Z</time>
        <extensions>
          <ns3:TrackPointExtension>
            <ns3:hr>74</ns3:hr>
            <ns3:cad>46</ns3:cad>
          </ns3:TrackPointExtension>
        </extensions>
      </trkpt>
      <trkpt lat="43.45782897435128688812255859375" lon="1.428513340651988983154296875">
        <ele>158.600006103515625</ele>
        <time>2026-08-05T12:03:42.000Z</time>
        <extensions>
          <ns3:TrackPointExtension>
            <ns3:hr>74</ns3:hr>
            <ns3:cad>46</ns3:cad>
          </ns3:TrackPointExtension>
        </extensions>
      </trkpt>
      <trkpt lat="43.45781824551522731781005859375" lon="1.4285222254693508148193359375">
        <ele>158.600006103515625</ele>
        <time>2026-08-05T12:03:43.000Z</time>
        <extensions>
          <ns3:TrackPointExtension>
            <ns3:hr>74</ns3:hr>
            <ns3:cad>46</ns3:cad>
          </ns3:TrackPointExtension>
        </extensions>
      </trkpt>
      <trkpt lat="43.45780869014561176300048828125" lon="1.42853270284831523895263671875">
        <ele>158.600006103515625</ele>
        <time>2026-08-05T12:03:44.000Z</time>
        <extensions>
          <ns3:TrackPointExtension>
            <ns3:hr>75</ns3:hr>
            <ns3:cad>46</ns3:cad>
          </ns3:TrackPointExtension>
        </extensions>
      </trkpt>
      <trkpt lat="43.45780198462307453155517578125" lon="1.42854024656116962432861328125">
        <ele>158.399993896484375</ele>
        <time>2026-08-05T12:03:45.000Z</time>
        <extensions>
          <ns3:TrackPointExtension>
            <ns3:hr>75</ns3:hr>
            <ns3:cad>46</ns3:cad>
          </ns3:TrackPointExtension>
        </extensions>
      </trkpt>
      <trkpt lat="43.45779444091022014617919921875" lon="1.42854896374046802520751953125">
        <ele>158.399993896484375</ele>
        <time>2026-08-05T12:03:46.000Z</time>
        <extensions>
          <ns3:TrackPointExtension>
            <ns3:hr>75</ns3:hr>
            <ns3:cad>47</ns3:cad>
          </ns3:TrackPointExtension>
        </extensions>
      </trkpt>
      <trkpt lat="43.45778815448284149169921875" lon="1.42855432815849781036376953125">
        <ele>158.399993896484375</ele>
        <time>2026-08-05T12:03:47.000Z</time>
        <extensions>
          <ns3:TrackPointExtension>
            <ns3:hr>76</ns3:hr>
            <ns3:cad>47</ns3:cad>
          </ns3:TrackPointExtension>
        </extensions>
      </trkpt>
      <trkpt lat="43.45777868293225765228271484375" lon="1.42856254242360591888427734375">
        <ele>158.399993896484375</ele>
        <time>2026-08-05T12:03:48.000Z</time>
        <extensions>
          <ns3:TrackPointExtension>
            <ns3:hr>77</ns3:hr>
            <ns3:cad>47</ns3:cad>
          </ns3:TrackPointExtension>
        </extensions>
      </trkpt>
      <trkpt lat="43.457771055400371551513671875" lon="1.42857109196484088897705078125">
        <ele>158.399993896484375</ele>
        <time>2026-08-05T12:03:49.000Z</time>
        <extensions>
          <ns3:TrackPointExtension>
            <ns3:hr>77</ns3:hr>
            <ns3:cad>47</ns3:cad>
          </ns3:TrackPointExtension>
        </extensions>
      </trkpt>
      <trkpt lat="43.457767702639102935791015625" lon="1.42857092432677745819091796875">
        <ele>158.399993896484375</ele>
        <time>2026-08-05T12:03:50.000Z</time>
        <extensions>
          <ns3:TrackPointExtension>
            <ns3:hr>79</ns3:hr>
            <ns3:cad>47</ns3:cad>
          </ns3:TrackPointExtension>
        </extensions>
      </trkpt>
      <trkpt lat="43.457762338221073150634765625" lon="1.428574025630950927734375">
        <ele>158.399993896484375</ele>
        <time>2026-08-05T12:03:51.000Z</time>
        <extensions>
          <ns3:TrackPointExtension>
            <ns3:hr>80</ns3:hr>
            <ns3:cad>43</ns3:cad>
          </ns3:TrackPointExtension>
        </extensions>
      </trkpt>
      <trkpt lat="43.457754962146282196044921875" lon="1.4285842515528202056884765625">
        <ele>158.1999969482421875</ele>
        <time>2026-08-05T12:03:52.000Z</time>
        <extensions>
          <ns3:TrackPointExtension>
            <ns3:hr>80</ns3:hr>
            <ns3:cad>43</ns3:cad>
          </ns3:TrackPointExtension>
        </extensions>
      </trkpt>
      <trkpt lat="43.4577499330043792724609375" lon="1.4285963214933872222900390625">
        <ele>158.1999969482421875</ele>
        <time>2026-08-05T12:03:53.000Z</time>
        <extensions>
          <ns3:TrackPointExtension>
            <ns3:hr>80</ns3:hr>
            <ns3:cad>43</ns3:cad>
          </ns3:TrackPointExtension>
        </extensions>
      </trkpt>
      <trkpt lat="43.4577507711946964263916015625" lon="1.428600847721099853515625">
        <ele>158.1999969482421875</ele>
        <time>2026-08-05T12:03:54.000Z</time>
        <extensions>
          <ns3:TrackPointExtension>
            <ns3:hr>80</ns3:hr>
            <ns3:cad>44</ns3:cad>
          </ns3:TrackPointExtension>
        </extensions>
      </trkpt>
      <trkpt lat="43.4577480889856815338134765625" lon="1.428608559072017669677734375">
        <ele>158.1999969482421875</ele>
        <time>2026-08-05T12:03:55.000Z</time>
        <extensions>
          <ns3:TrackPointExtension>
            <ns3:hr>81</ns3:hr>
            <ns3:cad>44</ns3:cad>
          </ns3:TrackPointExtension>
        </extensions>
      </trkpt>
      <trkpt lat="43.45774766989052295684814453125" lon="1.4286241494119167327880859375">
        <ele>158</ele>
        <time>2026-08-05T12:03:56.000Z</time>
        <extensions>
          <ns3:TrackPointExtension>
            <ns3:hr>81</ns3:hr>
            <ns3:cad>42</ns3:cad>
          </ns3:TrackPointExtension>
        </extensions>
      </trkpt>
      <trkpt lat="43.45774917863309383392333984375" lon="1.428638733923435211181640625">
        <ele>158</ele>
        <time>2026-08-05T12:03:57.000Z</time>
        <extensions>
          <ns3:TrackPointExtension>
            <ns3:hr>81</ns3:hr>
            <ns3:cad>42</ns3:cad>
          </ns3:TrackPointExtension>
        </extensions>
      </trkpt>
      <trkpt lat="43.457750268280506134033203125" lon="1.4286456070840358734130859375">
        <ele>158</ele>
        <time>2026-08-05T12:03:58.000Z</time>
        <extensions>
          <ns3:TrackPointExtension>
            <ns3:hr>81</ns3:hr>
            <ns3:cad>43</ns3:cad>
          </ns3:TrackPointExtension>
        </extensions>
      </trkpt>
      <trkpt lat="43.4577527828514575958251953125" lon="1.4286590181291103363037109375">
        <ele>158</ele>
        <time>2026-08-05T12:03:59.000Z</time>
        <extensions>
          <ns3:TrackPointExtension>
            <ns3:hr>81</ns3:hr>
            <ns3:cad>43</ns3:cad>
          </ns3:TrackPointExtension>
        </extensions>
      </trkpt>
      <trkpt lat="43.45775152556598186492919921875" lon="1.42867201007902622222900390625">
        <ele>158.1999969482421875</ele>
        <time>2026-08-05T12:04:00.000Z</time>
        <extensions>
          <ns3:TrackPointExtension>
            <ns3:hr>81</ns3:hr>
            <ns3:cad>43</ns3:cad>
          </ns3:TrackPointExtension>
        </extensions>
      </trkpt>
      <trkpt lat="43.4577484242618083953857421875" lon="1.42867821268737316131591796875">
        <ele>158.1999969482421875</ele>
        <time>2026-08-05T12:04:01.000Z</time>
        <extensions>
          <ns3:TrackPointExtension>
            <ns3:hr>82</ns3:hr>
            <ns3:cad>43</ns3:cad>
          </ns3:TrackPointExtension>
        </extensions>
      </trkpt>
      <trkpt lat="43.45774331130087375640869140625" lon="1.428687684237957000732421875">
        <ele>158.1999969482421875</ele>
        <time>2026-08-05T12:04:02.000Z</time>
        <extensions>
          <ns3:TrackPointExtension>
            <ns3:hr>82</ns3:hr>
            <ns3:cad>46</ns3:cad>
          </ns3:TrackPointExtension>
        </extensions>
      </trkpt>
      <trkpt lat="43.45774163492023944854736328125" lon="1.4287039451301097869873046875">
        <ele>158.1999969482421875</ele>
        <time>2026-08-05T12:04:03.000Z</time>
        <extensions>
          <ns3:TrackPointExtension>
            <ns3:hr>82</ns3:hr>
            <ns3:cad>46</ns3:cad>
          </ns3:TrackPointExtension>
        </extensions>
      </trkpt>
      <trkpt lat="43.457737863063812255859375" lon="1.42872062511742115020751953125">
        <ele>158.1999969482421875</ele>
        <time>2026-08-05T12:04:04.000Z</time>
        <extensions>
          <ns3:TrackPointExtension>
            <ns3:hr>82</ns3:hr>
            <ns3:cad>47</ns3:cad>
          </ns3:TrackPointExtension>
        </extensions>
      </trkpt>
      <trkpt lat="43.4577333368360996246337890625" lon="1.42872758209705352783203125">
        <ele>158.1999969482421875</ele>
        <time>2026-08-05T12:04:05.000Z</time>
        <extensions>
          <ns3:TrackPointExtension>
            <ns3:hr>82</ns3:hr>
            <ns3:cad>47</ns3:cad>
          </ns3:TrackPointExtension>
        </extensions>
      </trkpt>
      <trkpt lat="43.457730151712894439697265625" lon="1.4287327788770198822021484375">
        <ele>158.1999969482421875</ele>
        <time>2026-08-05T12:04:06.000Z</time>
        <extensions>
          <ns3:TrackPointExtension>
            <ns3:hr>82</ns3:hr>
            <ns3:cad>0</ns3:cad>
          </ns3:TrackPointExtension>
        </extensions>
      </trkpt>
      <trkpt lat="43.4577262960374355316162109375" lon="1.42874660901725292205810546875">
        <ele>158.1999969482421875</ele>
        <time>2026-08-05T12:04:07.000Z</time>
        <extensions>
          <ns3:TrackPointExtension>
            <ns3:hr>82</ns3:hr>
            <ns3:cad>0</ns3:cad>
          </ns3:TrackPointExtension>
        </extensions>
      </trkpt>
      <trkpt lat="43.45772386528551578521728515625" lon="1.42875348217785358428955078125">
        <ele>158.1999969482421875</ele>
        <time>2026-08-05T12:04:08.000Z</time>
        <extensions>
          <ns3:TrackPointExtension>
            <ns3:hr>82</ns3:hr>
            <ns3:cad>48</ns3:cad>
          </ns3:TrackPointExtension>
        </extensions>
      </trkpt>
      <trkpt lat="43.4577216021716594696044921875" lon="1.42875708639621734619140625">
        <ele>158.1999969482421875</ele>
        <time>2026-08-05T12:04:09.000Z</time>
        <extensions>
          <ns3:TrackPointExtension>
            <ns3:hr>83</ns3:hr>
            <ns3:cad>48</ns3:cad>
          </ns3:TrackPointExtension>
        </extensions>
      </trkpt>
      <trkpt lat="43.45771933905780315399169921875" lon="1.42877074889838695526123046875">
        <ele>158.1999969482421875</ele>
        <time>2026-08-05T12:04:10.000Z</time>
        <extensions>
          <ns3:TrackPointExtension>
            <ns3:hr>84</ns3:hr>
            <ns3:cad>48</ns3:cad>
          </ns3:TrackPointExtension>
        </extensions>
      </trkpt>
      <trkpt lat="43.457718081772327423095703125" lon="1.428781561553478240966796875">
        <ele>158.1999969482421875</ele>
        <time>2026-08-05T12:04:11.000Z</time>
        <extensions>
          <ns3:TrackPointExtension>
            <ns3:hr>84</ns3:hr>
            <ns3:cad>41</ns3:cad>
          </ns3:TrackPointExtension>
        </extensions>
      </trkpt>
      <trkpt lat="43.457716070115566253662109375" lon="1.42879053018987178802490234375">
        <ele>158.1999969482421875</ele>
        <time>2026-08-05T12:04:12.000Z</time>
        <extensions>
          <ns3:TrackPointExtension>
            <ns3:hr>84</ns3:hr>
            <ns3:cad>41</ns3:cad>
          </ns3:TrackPointExtension>
        </extensions>
      </trkpt>
      <trkpt lat="43.45771062187850475311279296875" lon="1.4287958107888698577880859375">
        <ele>158.1999969482421875</ele>
        <time>2026-08-05T12:04:13.000Z</time>
        <extensions>
          <ns3:TrackPointExtension>
            <ns3:hr>84</ns3:hr>
            <ns3:cad>41</ns3:cad>
          </ns3:TrackPointExtension>
        </extensions>
      </trkpt>
      <trkpt lat="43.457704670727252960205078125" lon="1.42880679108202457427978515625">
        <ele>158.1999969482421875</ele>
        <time>2026-08-05T12:04:14.000Z</time>
        <extensions>
          <ns3:TrackPointExtension>
            <ns3:hr>84</ns3:hr>
            <ns3:cad>41</ns3:cad>
          </ns3:TrackPointExtension>
        </extensions>
      </trkpt>
      <trkpt lat="43.4577028267085552215576171875" lon="1.4288149215281009674072265625">
        <ele>158.1999969482421875</ele>
        <time>2026-08-05T12:04:15.000Z</time>
        <extensions>
          <ns3:TrackPointExtension>
            <ns3:hr>84</ns3:hr>
            <ns3:cad>41</ns3:cad>
          </ns3:TrackPointExtension>
        </extensions>
      </trkpt>
      <trkpt lat="43.4576991386711597442626953125" lon="1.428827159106731414794921875">
        <ele>158.1999969482421875</ele>
        <time>2026-08-05T12:04:16.000Z</time>
        <extensions>
          <ns3:TrackPointExtension>
            <ns3:hr>83</ns3:hr>
            <ns3:cad>41</ns3:cad>
          </ns3:TrackPointExtension>
        </extensions>
      </trkpt>
      <trkpt lat="43.45769561827182769775390625" lon="1.42883889377117156982421875">
        <ele>158.1999969482421875</ele>
        <time>2026-08-05T12:04:17.000Z</time>
        <extensions>
          <ns3:TrackPointExtension>
            <ns3:hr>83</ns3:hr>
            <ns3:cad>0</ns3:cad>
          </ns3:TrackPointExtension>
        </extensions>
      </trkpt>
      <trkpt lat="43.45769402571022510528564453125" lon="1.42885004170238971710205078125">
        <ele>158.1999969482421875</ele>
        <time>2026-08-05T12:04:18.000Z</time>
        <extensions>
          <ns3:TrackPointExtension>
            <ns3:hr>82</ns3:hr>
            <ns3:cad>44</ns3:cad>
          </ns3:TrackPointExtension>
        </extensions>
      </trkpt>
      <trkpt lat="43.45769084058701992034912109375" lon="1.4288569986820220947265625">
        <ele>158.1999969482421875</ele>
        <time>2026-08-05T12:04:19.000Z</time>
        <extensions>
          <ns3:TrackPointExtension>
            <ns3:hr>82</ns3:hr>
            <ns3:cad>44</ns3:cad>
          </ns3:TrackPointExtension>
        </extensions>
      </trkpt>
      <trkpt lat="43.45768614672124385833740234375" lon="1.4288732595741748809814453125">
        <ele>158.1999969482421875</ele>
        <time>2026-08-05T12:04:20.000Z</time>
        <extensions>
          <ns3:TrackPointExtension>
            <ns3:hr>82</ns3:hr>
            <ns3:cad>44</ns3:cad>
          </ns3:TrackPointExtension>
        </extensions>
      </trkpt>
      <trkpt lat="43.4576828777790069580078125" lon="1.42888859845697879791259765625">
        <ele>158</ele>
        <time>2026-08-05T12:04:21.000Z</time>
        <extensions>
          <ns3:TrackPointExtension>
            <ns3:hr>82</ns3:hr>
            <ns3:cad>44</ns3:cad>
          </ns3:TrackPointExtension>
        </extensions>
      </trkpt>
      <trkpt lat="43.45767675898969173431396484375" lon="1.42889882437884807586669921875">
        <ele>158</ele>
        <time>2026-08-05T12:04:22.000Z</time>
        <extensions>
          <ns3:TrackPointExtension>
            <ns3:hr>82</ns3:hr>
            <ns3:cad>44</ns3:cad>
          </ns3:TrackPointExtension>
        </extensions>
      </trkpt>
      <trkpt lat="43.45767147839069366455078125" lon="1.428907625377178192138671875">
        <ele>158</ele>
        <time>2026-08-05T12:04:23.000Z</time>
        <extensions>
          <ns3:TrackPointExtension>
            <ns3:hr>82</ns3:hr>
            <ns3:cad>44</ns3:cad>
          </ns3:TrackPointExtension>
        </extensions>
      </trkpt>
      <trkpt lat="43.4576649405062198638916015625" lon="1.42891743220388889312744140625">
        <ele>158</ele>
        <time>2026-08-05T12:04:24.000Z</time>
        <extensions>
          <ns3:TrackPointExtension>
            <ns3:hr>81</ns3:hr>
            <ns3:cad>44</ns3:cad>
          </ns3:TrackPointExtension>
        </extensions>
      </trkpt>
      <trkpt lat="43.45765697769820690155029296875" lon="1.42892866395413875579833984375">
        <ele>158</ele>
        <time>2026-08-05T12:04:25.000Z</time>
        <extensions>
          <ns3:TrackPointExtension>
            <ns3:hr>80</ns3:hr>
            <ns3:cad>44</ns3:cad>
          </ns3:TrackPointExtension>
        </extensions>
      </trkpt>
      <trkpt lat="43.45765136182308197021484375" lon="1.428933776915073394775390625">
        <ele>157.8000030517578125</ele>
        <time>2026-08-05T12:04:26.000Z</time>
        <extensions>
          <ns3:TrackPointExtension>
            <ns3:hr>80</ns3:hr>
            <ns3:cad>44</ns3:cad>
          </ns3:TrackPointExtension>
        </extensions>
      </trkpt>
      <trkpt lat="43.45765127800405025482177734375" lon="1.42894081771373748779296875">
        <ele>157.8000030517578125</ele>
        <time>2026-08-05T12:04:27.000Z</time>
        <extensions>
          <ns3:TrackPointExtension>
            <ns3:hr>80</ns3:hr>
            <ns3:cad>44</ns3:cad>
          </ns3:TrackPointExtension>
        </extensions>
      </trkpt>
      <trkpt lat="43.4576471708714962005615234375" lon="1.42895565368235111236572265625">
        <ele>158</ele>
        <time>2026-08-05T12:04:28.000Z</time>
        <extensions>
          <ns3:TrackPointExtension>
            <ns3:hr>80</ns3:hr>
            <ns3:cad>44</ns3:cad>
          </ns3:TrackPointExtension>
        </extensions>
      </trkpt>
      <trkpt lat="43.45764599740505218505859375" lon="1.428963281214237213134765625">
        <ele>158</ele>
        <time>2026-08-05T12:04:29.000Z</time>
        <extensions>
          <ns3:TrackPointExtension>
            <ns3:hr>80</ns3:hr>
            <ns3:cad>44</ns3:cad>
          </ns3:TrackPointExtension>
        </extensions>
      </trkpt>
      <trkpt lat="43.45764356665313243865966796875" lon="1.4289627783000469207763671875">
        <ele>158.1999969482421875</ele>
        <time>2026-08-05T12:04:30.000Z</time>
        <extensions>
          <ns3:TrackPointExtension>
            <ns3:hr>80</ns3:hr>
            <ns3:cad>44</ns3:cad>
          </ns3:TrackPointExtension>
        </extensions>
      </trkpt>
      <trkpt lat="43.457640968263149261474609375" lon="1.42897442914545536041259765625">
        <ele>158.1999969482421875</ele>
        <time>2026-08-05T12:04:31.000Z</time>
        <extensions>
          <ns3:TrackPointExtension>
            <ns3:hr>80</ns3:hr>
            <ns3:cad>44</ns3:cad>
          </ns3:TrackPointExtension>
        </extensions>
      </trkpt>
      <trkpt lat="43.45763786695897579193115234375" lon="1.42898507416248321533203125">
        <ele>158.399993896484375</ele>
        <time>2026-08-05T12:04:32.000Z</time>
        <extensions>
          <ns3:TrackPointExtension>
            <ns3:hr>81</ns3:hr>
            <ns3:cad>41</ns3:cad>
          </ns3:TrackPointExtension>
        </extensions>
      </trkpt>
      <trkpt lat="43.45763820223510265350341796875" lon="1.4289939589798450469970703125">
        <ele>158.399993896484375</ele>
        <time>2026-08-05T12:04:33.000Z</time>
        <extensions>
          <ns3:TrackPointExtension>
            <ns3:hr>81</ns3:hr>
            <ns3:cad>41</ns3:cad>
          </ns3:TrackPointExtension>
        </extensions>
      </trkpt>
      <trkpt lat="43.45763283781707286834716796875" lon="1.42901047132909297943115234375">
        <ele>158.600006103515625</ele>
        <time>2026-08-05T12:04:34.000Z</time>
        <extensions>
          <ns3:TrackPointExtension>
            <ns3:hr>82</ns3:hr>
            <ns3:cad>41</ns3:cad>
          </ns3:TrackPointExtension>
        </extensions>
      </trkpt>
      <trkpt lat="43.45762898214161396026611328125" lon="1.42902120016515254974365234375">
        <ele>158.8000030517578125</ele>
        <time>2026-08-05T12:04:35.000Z</time>
        <extensions>
          <ns3:TrackPointExtension>
            <ns3:hr>83</ns3:hr>
            <ns3:cad>41</ns3:cad>
          </ns3:TrackPointExtension>
        </extensions>
      </trkpt>
      <trkpt lat="43.457631580531597137451171875" lon="1.42901860177516937255859375">
        <ele>159</ele>
        <time>2026-08-05T12:04:36.000Z</time>
        <extensions>
          <ns3:TrackPointExtension>
            <ns3:hr>83</ns3:hr>
            <ns3:cad>41</ns3:cad>
          </ns3:TrackPointExtension>
        </extensions>
      </trkpt>
      <trkpt lat="43.45763451419770717620849609375" lon="1.429026313126087188720703125">
        <ele>159.1999969482421875</ele>
        <time>2026-08-05T12:04:37.000Z</time>
        <extensions>
          <ns3:TrackPointExtension>
            <ns3:hr>83</ns3:hr>
            <ns3:cad>41</ns3:cad>
          </ns3:TrackPointExtension>
        </extensions>
      </trkpt>
      <trkpt lat="43.4576361067593097686767578125" lon="1.429033689200878143310546875">
        <ele>159.399993896484375</ele>
        <time>2026-08-05T12:04:38.000Z</time>
        <extensions>
          <ns3:TrackPointExtension>
            <ns3:hr>84</ns3:hr>
            <ns3:cad>40</ns3:cad>
          </ns3:TrackPointExtension>
        </extensions>
      </trkpt>
      <trkpt lat="43.4576361067593097686767578125" lon="1.42904181964695453643798828125">
        <ele>159.600006103515625</ele>
        <time>2026-08-05T12:04:39.000Z</time>
        <extensions>
          <ns3:TrackPointExtension>
            <ns3:hr>84</ns3:hr>
            <ns3:cad>0</ns3:cad>
          </ns3:TrackPointExtension>
        </extensions>
      </trkpt>
      <trkpt lat="43.45763568766415119171142578125" lon="1.429048441350460052490234375">
        <ele>159.600006103515625</ele>
        <time>2026-08-05T12:04:40.000Z</time>
        <extensions>
          <ns3:TrackPointExtension>
            <ns3:hr>85</ns3:hr>
            <ns3:cad>0</ns3:cad>
          </ns3:TrackPointExtension>
        </extensions>
      </trkpt>
      <trkpt lat="43.4576372802257537841796875" lon="1.42905388958752155303955078125">
        <ele>159.600006103515625</ele>
        <time>2026-08-05T12:04:41.000Z</time>
        <extensions>
          <ns3:TrackPointExtension>
            <ns3:hr>86</ns3:hr>
            <ns3:cad>0</ns3:cad>
          </ns3:TrackPointExtension>
        </extensions>
      </trkpt>
      <trkpt lat="43.45763753168284893035888671875" lon="1.42906864173710346221923828125">
        <ele>159.8000030517578125</ele>
        <time>2026-08-05T12:04:42.000Z</time>
        <extensions>
          <ns3:TrackPointExtension>
            <ns3:hr>87</ns3:hr>
            <ns3:cad>0</ns3:cad>
          </ns3:TrackPointExtension>
        </extensions>
      </trkpt>
      <trkpt lat="43.45763619057834148406982421875" lon="1.42907551489770412445068359375">
        <ele>159.8000030517578125</ele>
        <time>2026-08-05T12:04:43.000Z</time>
        <extensions>
          <ns3:TrackPointExtension>
            <ns3:hr>88</ns3:hr>
            <ns3:cad>0</ns3:cad>
          </ns3:TrackPointExtension>
        </extensions>
      </trkpt>
      <trkpt lat="43.4576344303786754608154296875" lon="1.42908557318150997161865234375">
        <ele>159.8000030517578125</ele>
        <time>2026-08-05T12:04:44.000Z</time>
        <extensions>
          <ns3:TrackPointExtension>
            <ns3:hr>89</ns3:hr>
            <ns3:cad>0</ns3:cad>
          </ns3:TrackPointExtension>
        </extensions>
      </trkpt>
      <trkpt lat="43.45763216726481914520263671875" lon="1.42909546382725238800048828125">
        <ele>159.8000030517578125</ele>
        <time>2026-08-05T12:04:45.000Z</time>
        <extensions>
          <ns3:TrackPointExtension>
            <ns3:hr>89</ns3:hr>
            <ns3:cad>67</ns3:cad>
          </ns3:TrackPointExtension>
        </extensions>
      </trkpt>
      <trkpt lat="43.45762931741774082183837890625" lon="1.4291046001017093658447265625">
        <ele>160</ele>
        <time>2026-08-05T12:04:46.000Z</time>
        <extensions>
          <ns3:TrackPointExtension>
            <ns3:hr>90</ns3:hr>
            <ns3:cad>67</ns3:cad>
          </ns3:TrackPointExtension>
        </extensions>
      </trkpt>
      <trkpt lat="43.457622528076171875" lon="1.42911382019519805908203125">
        <ele>160.1999969482421875</ele>
        <time>2026-08-05T12:04:47.000Z</time>
        <extensions>
          <ns3:TrackPointExtension>
            <ns3:hr>90</ns3:hr>
            <ns3:cad>77</ns3:cad>
          </ns3:TrackPointExtension>
        </extensions>
      </trkpt>
      <trkpt lat="43.457613475620746612548828125" lon="1.429126895964145660400390625">
        <ele>160.1999969482421875</ele>
        <time>2026-08-05T12:04:48.000Z</time>
        <extensions>
          <ns3:TrackPointExtension>
            <ns3:hr>90</ns3:hr>
            <ns3:cad>77</ns3:cad>
          </ns3:TrackPointExtension>
        </extensions>
      </trkpt>
      <trkpt lat="43.45760433934628963470458984375" lon="1.42913737334311008453369140625">
        <ele>160.1999969482421875</ele>
        <time>2026-08-05T12:04:49.000Z</time>
        <extensions>
          <ns3:TrackPointExtension>
            <ns3:hr>91</ns3:hr>
            <ns3:cad>77</ns3:cad>
          </ns3:TrackPointExtension>
        </extensions>
      </trkpt>
      <trkpt lat="43.4575972147285938262939453125" lon="1.42914332449436187744140625">
        <ele>160.399993896484375</ele>
        <time>2026-08-05T12:04:50.000Z</time>
        <extensions>
          <ns3:TrackPointExtension>
            <ns3:hr>91</ns3:hr>
            <ns3:cad>41</ns3:cad>
          </ns3:TrackPointExtension>
        </extensions>
      </trkpt>
      <trkpt lat="43.4575881622731685638427734375" lon="1.4291522093117237091064453125">
        <ele>160.399993896484375</ele>
        <time>2026-08-05T12:04:51.000Z</time>
        <extensions>
          <ns3:TrackPointExtension>
            <ns3:hr>91</ns3:hr>
            <ns3:cad>41</ns3:cad>
          </ns3:TrackPointExtension>
        </extensions>
      </trkpt>
      <trkpt lat="43.457582630217075347900390625" lon="1.429160423576831817626953125">
        <ele>160.399993896484375</ele>
        <time>2026-08-05T12:04:52.000Z</time>
        <extensions>
          <ns3:TrackPointExtension>
            <ns3:hr>92</ns3:hr>
            <ns3:cad>41</ns3:cad>
          </ns3:TrackPointExtension>
        </extensions>
      </trkpt>
      <trkpt lat="43.4575757570564746856689453125" lon="1.4291689731180667877197265625">
        <ele>160.399993896484375</ele>
        <time>2026-08-05T12:04:53.000Z</time>
        <extensions>
          <ns3:TrackPointExtension>
            <ns3:hr>91</ns3:hr>
            <ns3:cad>41</ns3:cad>
          </ns3:TrackPointExtension>
        </extensions>
      </trkpt>
      <trkpt lat="43.45756678842008113861083984375" lon="1.42918079160153865814208984375">
        <ele>160.399993896484375</ele>
        <time>2026-08-05T12:04:54.000Z</time>
        <extensions>
          <ns3:TrackPointExtension>
            <ns3:hr>90</ns3:hr>
            <ns3:cad>41</ns3:cad>
          </ns3:TrackPointExtension>
        </extensions>
      </trkpt>
      <trkpt lat="43.45756075344979763031005859375" lon="1.42918850295245647430419921875">
        <ele>160.399993896484375</ele>
        <time>2026-08-05T12:04:55.000Z</time>
        <extensions>
          <ns3:TrackPointExtension>
            <ns3:hr>90</ns3:hr>
            <ns3:cad>41</ns3:cad>
          </ns3:TrackPointExtension>
        </extensions>
      </trkpt>
      <trkpt lat="43.45755882561206817626953125" lon="1.42919671721756458282470703125">
        <ele>160.399993896484375</ele>
        <time>2026-08-05T12:04:56.000Z</time>
        <extensions>
          <ns3:TrackPointExtension>
            <ns3:hr>91</ns3:hr>
            <ns3:cad>42</ns3:cad>
          </ns3:TrackPointExtension>
        </extensions>
      </trkpt>
      <trkpt lat="43.45755622722208499908447265625" lon="1.42920912243425846099853515625">
        <ele>160.399993896484375</ele>
        <time>2026-08-05T12:04:57.000Z</time>
        <extensions>
          <ns3:TrackPointExtension>
            <ns3:hr>91</ns3:hr>
            <ns3:cad>42</ns3:cad>
          </ns3:TrackPointExtension>
        </extensions>
      </trkpt>
      <trkpt lat="43.457552455365657806396484375" lon="1.4292185939848423004150390625">
        <ele>160.399993896484375</ele>
        <time>2026-08-05T12:04:58.000Z</time>
        <extensions>
          <ns3:TrackPointExtension>
            <ns3:hr>92</ns3:hr>
            <ns3:cad>42</ns3:cad>
          </ns3:TrackPointExtension>
        </extensions>
      </trkpt>
      <trkpt lat="43.4575506113469600677490234375" lon="1.4292293228209018707275390625">
        <ele>160.399993896484375</ele>
        <time>2026-08-05T12:04:59.000Z</time>
        <extensions>
          <ns3:TrackPointExtension>
            <ns3:hr>92</ns3:hr>
            <ns3:cad>41</ns3:cad>
          </ns3:TrackPointExtension>
        </extensions>
      </trkpt>
      <trkpt lat="43.457547090947628021240234375" lon="1.42924164421856403350830078125">
        <ele>160.399993896484375</ele>
        <time>2026-08-05T12:05:00.000Z</time>
        <extensions>
          <ns3:TrackPointExtension>
            <ns3:hr>92</ns3:hr>
            <ns3:cad>41</ns3:cad>
          </ns3:TrackPointExtension>
        </extensions>
      </trkpt>
      <trkpt lat="43.45755086280405521392822265625" lon="1.42925597727298736572265625">
        <ele>160.399993896484375</ele>
        <time>2026-08-05T12:05:01.000Z</time>
        <extensions>
          <ns3:TrackPointExtension>
            <ns3:hr>92</ns3:hr>
            <ns3:cad>41</ns3:cad>
          </ns3:TrackPointExtension>
        </extensions>
      </trkpt>
      <trkpt lat="43.45755086280405521392822265625" lon="1.429266370832920074462890625">
        <ele>160.399993896484375</ele>
        <time>2026-08-05T12:05:02.000Z</time>
        <extensions>
          <ns3:TrackPointExtension>
            <ns3:hr>93</ns3:hr>
            <ns3:cad>41</ns3:cad>
          </ns3:TrackPointExtension>
        </extensions>
      </trkpt>
      <trkpt lat="43.45754851587116718292236328125" lon="1.4292799495160579681396484375">
        <ele>160.399993896484375</ele>
        <time>2026-08-05T12:05:03.000Z</time>
        <extensions>
          <ns3:TrackPointExtension>
            <ns3:hr>92</ns3:hr>
            <ns3:cad>41</ns3:cad>
          </ns3:TrackPointExtension>
        </extensions>
      </trkpt>
      <trkpt lat="43.457547761499881744384765625" lon="1.4292900077998638153076171875">
        <ele>160.600006103515625</ele>
        <time>2026-08-05T12:05:04.000Z</time>
        <extensions>
          <ns3:TrackPointExtension>
            <ns3:hr>92</ns3:hr>
            <ns3:cad>41</ns3:cad>
          </ns3:TrackPointExtension>
        </extensions>
      </trkpt>
      <trkpt lat="43.45754315145313739776611328125" lon="1.4292993955314159393310546875">
        <ele>160.600006103515625</ele>
        <time>2026-08-05T12:05:05.000Z</time>
        <extensions>
          <ns3:TrackPointExtension>
            <ns3:hr>93</ns3:hr>
            <ns3:cad>41</ns3:cad>
          </ns3:TrackPointExtension>
        </extensions>
      </trkpt>
      <trkpt lat="43.4575392119586467742919921875" lon="1.42930693924427032470703125">
        <ele>160.600006103515625</ele>
        <time>2026-08-05T12:05:06.000Z</time>
        <extensions>
          <ns3:TrackPointExtension>
            <ns3:hr>93</ns3:hr>
            <ns3:cad>41</ns3:cad>
          </ns3:TrackPointExtension>
        </extensions>
      </trkpt>
      <trkpt lat="43.4575361944735050201416015625" lon="1.42931758426129817962646484375">
        <ele>160.600006103515625</ele>
        <time>2026-08-05T12:05:07.000Z</time>
        <extensions>
          <ns3:TrackPointExtension>
            <ns3:hr>93</ns3:hr>
            <ns3:cad>41</ns3:cad>
          </ns3:TrackPointExtension>
        </extensions>
      </trkpt>
      <trkpt lat="43.457530997693538665771484375" lon="1.42933049239218235015869140625">
        <ele>160.600006103515625</ele>
        <time>2026-08-05T12:05:08.000Z</time>
        <extensions>
          <ns3:TrackPointExtension>
            <ns3:hr>93</ns3:hr>
            <ns3:cad>0</ns3:cad>
          </ns3:TrackPointExtension>
        </extensions>
      </trkpt>
      <trkpt lat="43.45752689056098461151123046875" lon="1.42934725619852542877197265625">
        <ele>160.600006103515625</ele>
        <time>2026-08-05T12:05:09.000Z</time>
        <extensions>
          <ns3:TrackPointExtension>
            <ns3:hr>93</ns3:hr>
            <ns3:cad>0</ns3:cad>
          </ns3:TrackPointExtension>
        </extensions>
      </trkpt>
      <trkpt lat="43.45752529799938201904296875" lon="1.42936150543391704559326171875">
        <ele>160.600006103515625</ele>
        <time>2026-08-05T12:05:10.000Z</time>
        <extensions>
          <ns3:TrackPointExtension>
            <ns3:hr>93</ns3:hr>
            <ns3:cad>43</ns3:cad>
          </ns3:TrackPointExtension>
        </extensions>
      </trkpt>
      <trkpt lat="43.4575261361896991729736328125" lon="1.42937667667865753173828125">
        <ele>160.399993896484375</ele>
        <time>2026-08-05T12:05:11.000Z</time>
        <extensions>
          <ns3:TrackPointExtension>
            <ns3:hr>94</ns3:hr>
            <ns3:cad>43</ns3:cad>
          </ns3:TrackPointExtension>
        </extensions>
      </trkpt>
      <trkpt lat="43.4575254656374454498291015625" lon="1.42939033918082714080810546875">
        <ele>160.399993896484375</ele>
        <time>2026-08-05T12:05:12.000Z</time>
        <extensions>
          <ns3:TrackPointExtension>
            <ns3:hr>94</ns3:hr>
            <ns3:cad>43</ns3:cad>
          </ns3:TrackPointExtension>
        </extensions>
      </trkpt>
      <trkpt lat="43.45752236433327198028564453125" lon="1.429402828216552734375">
        <ele>160.399993896484375</ele>
        <time>2026-08-05T12:05:13.000Z</time>
        <extensions>
          <ns3:TrackPointExtension>
            <ns3:hr>94</ns3:hr>
            <ns3:cad>43</ns3:cad>
          </ns3:TrackPointExtension>
        </extensions>
      </trkpt>
      <trkpt lat="43.45752135850489139556884765625" lon="1.42941481433808803558349609375">
        <ele>160.399993896484375</ele>
        <time>2026-08-05T12:05:14.000Z</time>
        <extensions>
          <ns3:TrackPointExtension>
            <ns3:hr>94</ns3:hr>
            <ns3:cad>43</ns3:cad>
          </ns3:TrackPointExtension>
        </extensions>
      </trkpt>
      <trkpt lat="43.457520268857479095458984375" lon="1.4294261299073696136474609375">
        <ele>160.399993896484375</ele>
        <time>2026-08-05T12:05:15.000Z</time>
        <extensions>
          <ns3:TrackPointExtension>
            <ns3:hr>95</ns3:hr>
            <ns3:cad>43</ns3:cad>
          </ns3:TrackPointExtension>
        </extensions>
      </trkpt>
      <trkpt lat="43.45751649700105190277099609375" lon="1.4294385351240634918212890625">
        <ele>160.600006103515625</ele>
        <time>2026-08-05T12:05:16.000Z</time>
        <extensions>
          <ns3:TrackPointExtension>
            <ns3:hr>95</ns3:hr>
            <ns3:cad>43</ns3:cad>
          </ns3:TrackPointExtension>
        </extensions>
      </trkpt>
      <trkpt lat="43.45751130022108554840087890625" lon="1.42945110797882080078125">
        <ele>160.600006103515625</ele>
        <time>2026-08-05T12:05:17.000Z</time>
        <extensions>
          <ns3:TrackPointExtension>
            <ns3:hr>95</ns3:hr>
            <ns3:cad>0</ns3:cad>
          </ns3:TrackPointExtension>
        </extensions>
      </trkpt>
      <trkpt lat="43.457508198916912078857421875" lon="1.4294631779193878173828125">
        <ele>160.600006103515625</ele>
        <time>2026-08-05T12:05:18.000Z</time>
        <extensions>
          <ns3:TrackPointExtension>
            <ns3:hr>95</ns3:hr>
            <ns3:cad>0</ns3:cad>
          </ns3:TrackPointExtension>
        </extensions>
      </trkpt>
      <trkpt lat="43.45750442706048488616943359375" lon="1.42947482876479625701904296875">
        <ele>160.600006103515625</ele>
        <time>2026-08-05T12:05:19.000Z</time>
        <extensions>
          <ns3:TrackPointExtension>
            <ns3:hr>95</ns3:hr>
            <ns3:cad>0</ns3:cad>
          </ns3:TrackPointExtension>
        </extensions>
      </trkpt>
      <trkpt lat="43.45750325359404087066650390625" lon="1.42948807217180728912353515625">
        <ele>160.8000030517578125</ele>
        <time>2026-08-05T12:05:20.000Z</time>
        <extensions>
          <ns3:TrackPointExtension>
            <ns3:hr>95</ns3:hr>
            <ns3:cad>41</ns3:cad>
          </ns3:TrackPointExtension>
        </extensions>
      </trkpt>
      <trkpt lat="43.45750224776566028594970703125" lon="1.4295022375881671905517578125">
        <ele>160.8000030517578125</ele>
        <time>2026-08-05T12:05:21.000Z</time>
        <extensions>
          <ns3:TrackPointExtension>
            <ns3:hr>94</ns3:hr>
            <ns3:cad>41</ns3:cad>
          </ns3:TrackPointExtension>
        </extensions>
      </trkpt>
      <trkpt lat="43.4575031697750091552734375" lon="1.42951405607163906097412109375">
        <ele>160.8000030517578125</ele>
        <time>2026-08-05T12:05:22.000Z</time>
        <extensions>
          <ns3:TrackPointExtension>
            <ns3:hr>94</ns3:hr>
            <ns3:cad>42</ns3:cad>
          </ns3:TrackPointExtension>
        </extensions>
      </trkpt>
      <trkpt lat="43.45750249922275543212890625" lon="1.4295257069170475006103515625">
        <ele>160.8000030517578125</ele>
        <time>2026-08-05T12:05:23.000Z</time>
        <extensions>
          <ns3:TrackPointExtension>
            <ns3:hr>94</ns3:hr>
            <ns3:cad>42</ns3:cad>
          </ns3:TrackPointExtension>
        </extensions>
      </trkpt>
      <trkpt lat="43.45750073902308940887451171875" lon="1.4295377768576145172119140625">
        <ele>160.8000030517578125</ele>
        <time>2026-08-05T12:05:24.000Z</time>
        <extensions>
          <ns3:TrackPointExtension>
            <ns3:hr>95</ns3:hr>
            <ns3:cad>42</ns3:cad>
          </ns3:TrackPointExtension>
        </extensions>
      </trkpt>
      <trkpt lat="43.4574976377189159393310546875" lon="1.42954808659851551055908203125">
        <ele>160.8000030517578125</ele>
        <time>2026-08-05T12:05:25.000Z</time>
        <extensions>
          <ns3:TrackPointExtension>
            <ns3:hr>94</ns3:hr>
            <ns3:cad>42</ns3:cad>
          </ns3:TrackPointExtension>
        </extensions>
      </trkpt>
      <trkpt lat="43.45749218948185443878173828125" lon="1.4295575581490993499755859375">
        <ele>161</ele>
        <time>2026-08-05T12:05:26.000Z</time>
        <extensions>
          <ns3:TrackPointExtension>
            <ns3:hr>94</ns3:hr>
            <ns3:cad>42</ns3:cad>
          </ns3:TrackPointExtension>
        </extensions>
      </trkpt>
      <trkpt lat="43.45748850144445896148681640625" lon="1.42956669442355632781982421875">
        <ele>161</ele>
        <time>2026-08-05T12:05:27.000Z</time>
        <extensions>
          <ns3:TrackPointExtension>
            <ns3:hr>94</ns3:hr>
            <ns3:cad>42</ns3:cad>
          </ns3:TrackPointExtension>
        </extensions>
      </trkpt>
      <trkpt lat="43.45748749561607837677001953125" lon="1.4295790158212184906005859375">
        <ele>161.1999969482421875</ele>
        <time>2026-08-05T12:05:28.000Z</time>
        <extensions>
          <ns3:TrackPointExtension>
            <ns3:hr>94</ns3:hr>
            <ns3:cad>43</ns3:cad>
          </ns3:TrackPointExtension>
        </extensions>
      </trkpt>
      <trkpt lat="43.45748632214963436126708984375" lon="1.42958831973373889923095703125">
        <ele>161.1999969482421875</ele>
        <time>2026-08-05T12:05:29.000Z</time>
        <extensions>
          <ns3:TrackPointExtension>
            <ns3:hr>94</ns3:hr>
            <ns3:cad>41</ns3:cad>
          </ns3:TrackPointExtension>
        </extensions>
      </trkpt>
      <trkpt lat="43.457485735416412353515625" lon="1.4296008087694644927978515625">
        <ele>161.1999969482421875</ele>
        <time>2026-08-05T12:05:30.000Z</time>
        <extensions>
          <ns3:TrackPointExtension>
            <ns3:hr>93</ns3:hr>
            <ns3:cad>79</ns3:cad>
          </ns3:TrackPointExtension>
        </extensions>
      </trkpt>
      <trkpt lat="43.45748816616833209991455078125" lon="1.42961011268198490142822265625">
        <ele>161.1999969482421875</ele>
        <time>2026-08-05T12:05:31.000Z</time>
        <extensions>
          <ns3:TrackPointExtension>
            <ns3:hr>93</ns3:hr>
            <ns3:cad>40</ns3:cad>
          </ns3:TrackPointExtension>
        </extensions>
      </trkpt>
      <trkpt lat="43.45749084837734699249267578125" lon="1.4296192489564418792724609375">
        <ele>161.1999969482421875</ele>
        <time>2026-08-05T12:05:32.000Z</time>
        <extensions>
          <ns3:TrackPointExtension>
            <ns3:hr>93</ns3:hr>
            <ns3:cad>40</ns3:cad>
          </ns3:TrackPointExtension>
        </extensions>
      </trkpt>
      <trkpt lat="43.4574959613382816314697265625" lon="1.42962603829801082611083984375">
        <ele>161.1999969482421875</ele>
        <time>2026-08-05T12:05:33.000Z</time>
        <extensions>
          <ns3:TrackPointExtension>
            <ns3:hr>93</ns3:hr>
            <ns3:cad>40</ns3:cad>
          </ns3:TrackPointExtension>
        </extensions>
      </trkpt>
      <trkpt lat="43.45749939791858196258544921875" lon="1.42962989397346973419189453125">
        <ele>161.1999969482421875</ele>
        <time>2026-08-05T12:05:34.000Z</time>
        <extensions>
          <ns3:TrackPointExtension>
            <ns3:hr>92</ns3:hr>
            <ns3:cad>40</ns3:cad>
          </ns3:TrackPointExtension>
        </extensions>
      </trkpt>
      <trkpt lat="43.45750325359404087066650390625" lon="1.4296376891434192657470703125">
        <ele>161.399993896484375</ele>
        <time>2026-08-05T12:05:35.000Z</time>
        <extensions>
          <ns3:TrackPointExtension>
            <ns3:hr>93</ns3:hr>
            <ns3:cad>41</ns3:cad>
          </ns3:TrackPointExtension>
        </extensions>
      </trkpt>
      <trkpt lat="43.45750476233661174774169921875" lon="1.429644562304019927978515625">
        <ele>161.399993896484375</ele>
        <time>2026-08-05T12:05:36.000Z</time>
        <extensions>
          <ns3:TrackPointExtension>
            <ns3:hr>93</ns3:hr>
            <ns3:cad>41</ns3:cad>
          </ns3:TrackPointExtension>
        </extensions>
      </trkpt>
      <trkpt lat="43.45750560052692890167236328125" lon="1.4296524412930011749267578125">
        <ele>161.600006103515625</ele>
        <time>2026-08-05T12:05:37.000Z</time>
        <extensions>
          <ns3:TrackPointExtension>
            <ns3:hr>93</ns3:hr>
            <ns3:cad>79</ns3:cad>
          </ns3:TrackPointExtension>
        </extensions>
      </trkpt>
      <trkpt lat="43.45750652253627777099609375" lon="1.4296651817858219146728515625">
        <ele>161.8000030517578125</ele>
        <time>2026-08-05T12:05:38.000Z</time>
        <extensions>
          <ns3:TrackPointExtension>
            <ns3:hr>93</ns3:hr>
            <ns3:cad>79</ns3:cad>
          </ns3:TrackPointExtension>
        </extensions>
      </trkpt>
      <trkpt lat="43.45750995911657810211181640625" lon="1.4296809397637844085693359375">
        <ele>162</ele>
        <time>2026-08-05T12:05:39.000Z</time>
        <extensions>
          <ns3:TrackPointExtension>
            <ns3:hr>94</ns3:hr>
            <ns3:cad>77</ns3:cad>
          </ns3:TrackPointExtension>
        </extensions>
      </trkpt>
      <trkpt lat="43.4575150720775127410888671875" lon="1.429693512618541717529296875">
        <ele>162</ele>
        <time>2026-08-05T12:05:40.000Z</time>
        <extensions>
          <ns3:TrackPointExtension>
            <ns3:hr>94</ns3:hr>
            <ns3:cad>77</ns3:cad>
          </ns3:TrackPointExtension>
        </extensions>
      </trkpt>
      <trkpt lat="43.4575167484581470489501953125" lon="1.42970566637814044952392578125">
        <ele>162</ele>
        <time>2026-08-05T12:05:41.000Z</time>
        <extensions>
          <ns3:TrackPointExtension>
            <ns3:hr>94</ns3:hr>
            <ns3:cad>77</ns3:cad>
          </ns3:TrackPointExtension>
        </extensions>
      </trkpt>
      <trkpt lat="43.4575190953910350799560546875" lon="1.429718993604183197021484375">
        <ele>162</ele>
        <time>2026-08-05T12:05:42.000Z</time>
        <extensions>
          <ns3:TrackPointExtension>
            <ns3:hr>95</ns3:hr>
            <ns3:cad>0</ns3:cad>
          </ns3:TrackPointExtension>
        </extensions>
      </trkpt>
      <trkpt lat="43.45751783810555934906005859375" lon="1.429731734097003936767578125">
        <ele>161.8000030517578125</ele>
        <time>2026-08-05T12:05:43.000Z</time>
        <extensions>
          <ns3:TrackPointExtension>
            <ns3:hr>97</ns3:hr>
            <ns3:cad>0</ns3:cad>
          </ns3:TrackPointExtension>
        </extensions>
      </trkpt>
      <trkpt lat="43.45751515589654445648193359375" lon="1.42974187619984149932861328125">
        <ele>161.600006103515625</ele>
        <time>2026-08-05T12:05:44.000Z</time>
        <extensions>
          <ns3:TrackPointExtension>
            <ns3:hr>97</ns3:hr>
            <ns3:cad>0</ns3:cad>
          </ns3:TrackPointExtension>
        </extensions>
      </trkpt>
      <trkpt lat="43.45751322805881500244140625" lon="1.42975361086428165435791015625">
        <ele>161.399993896484375</ele>
        <time>2026-08-05T12:05:45.000Z</time>
        <extensions>
          <ns3:TrackPointExtension>
            <ns3:hr>98</ns3:hr>
            <ns3:cad>0</ns3:cad>
          </ns3:TrackPointExtension>
        </extensions>
      </trkpt>
      <trkpt lat="43.4575076960027217864990234375" lon="1.4297644235193729400634765625">
        <ele>161.1999969482421875</ele>
        <time>2026-08-05T12:05:46.000Z</time>
        <extensions>
          <ns3:TrackPointExtension>
            <ns3:hr>98</ns3:hr>
            <ns3:cad>0</ns3:cad>
          </ns3:TrackPointExtension>
        </extensions>
      </trkpt>
      <trkpt lat="43.45750241540372371673583984375" lon="1.4297754876315593719482421875">
        <ele>161</ele>
        <time>2026-08-05T12:05:47.000Z</time>
        <extensions>
          <ns3:TrackPointExtension>
            <ns3:hr>99</ns3:hr>
            <ns3:cad>0</ns3:cad>
          </ns3:TrackPointExtension>
        </extensions>
      </trkpt>
      <trkpt lat="43.45749487169086933135986328125" lon="1.42978512682020664215087890625">
        <ele>160.8000030517578125</ele>
        <time>2026-08-05T12:05:48.000Z</time>
        <extensions>
          <ns3:TrackPointExtension>
            <ns3:hr>99</ns3:hr>
            <ns3:cad>0</ns3:cad>
          </ns3:TrackPointExtension>
        </extensions>
      </trkpt>
      <trkpt lat="43.457488082349300384521484375" lon="1.42979501746594905853271484375">
        <ele>160.600006103515625</ele>
        <time>2026-08-05T12:05:49.000Z</time>
        <extensions>
          <ns3:TrackPointExtension>
            <ns3:hr>99</ns3:hr>
            <ns3:cad>0</ns3:cad>
          </ns3:TrackPointExtension>
        </extensions>
      </trkpt>
      <trkpt lat="43.45748372375965118408203125" lon="1.42980138771235942840576171875">
        <ele>160.399993896484375</ele>
        <time>2026-08-05T12:05:50.000Z</time>
        <extensions>
          <ns3:TrackPointExtension>
            <ns3:hr>98</ns3:hr>
            <ns3:cad>53</ns3:cad>
          </ns3:TrackPointExtension>
        </extensions>
      </trkpt>
      <trkpt lat="43.45747810788452625274658203125" lon="1.42980541102588176727294921875">
        <ele>160.399993896484375</ele>
        <time>2026-08-05T12:05:51.000Z</time>
        <extensions>
          <ns3:TrackPointExtension>
            <ns3:hr>98</ns3:hr>
            <ns3:cad>53</ns3:cad>
          </ns3:TrackPointExtension>
        </extensions>
      </trkpt>
      <trkpt lat="43.45747224055230617523193359375" lon="1.42980859614908695220947265625">
        <ele>160.399993896484375</ele>
        <time>2026-08-05T12:05:52.000Z</time>
        <extensions>
          <ns3:TrackPointExtension>
            <ns3:hr>98</ns3:hr>
            <ns3:cad>53</ns3:cad>
          </ns3:TrackPointExtension>
        </extensions>
      </trkpt>
      <trkpt lat="43.4574701450765132904052734375" lon="1.429812870919704437255859375">
        <ele>160.399993896484375</ele>
        <time>2026-08-05T12:05:53.000Z</time>
        <extensions>
          <ns3:TrackPointExtension>
            <ns3:hr>98</ns3:hr>
            <ns3:cad>53</ns3:cad>
          </ns3:TrackPointExtension>
        </extensions>
      </trkpt>
      <trkpt lat="43.45746670849621295928955078125" lon="1.42981949262320995330810546875">
        <ele>160.399993896484375</ele>
        <time>2026-08-05T12:05:54.000Z</time>
        <extensions>
          <ns3:TrackPointExtension>
            <ns3:hr>98</ns3:hr>
            <ns3:cad>52</ns3:cad>
          </ns3:TrackPointExtension>
        </extensions>
      </trkpt>
      <trkpt lat="43.45746000297367572784423828125" lon="1.42983038909733295440673828125">
        <ele>160.600006103515625</ele>
        <time>2026-08-05T12:05:55.000Z</time>
        <extensions>
          <ns3:TrackPointExtension>
            <ns3:hr>97</ns3:hr>
            <ns3:cad>52</ns3:cad>
          </ns3:TrackPointExtension>
        </extensions>
      </trkpt>
      <trkpt lat="43.45745279453694820404052734375" lon="1.42983960919082164764404296875">
        <ele>160.600006103515625</ele>
        <time>2026-08-05T12:05:56.000Z</time>
        <extensions>
          <ns3:TrackPointExtension>
            <ns3:hr>97</ns3:hr>
            <ns3:cad>49</ns3:cad>
          </ns3:TrackPointExtension>
        </extensions>
      </trkpt>
      <trkpt lat="43.4574480168521404266357421875" lon="1.42984782345592975616455078125">
        <ele>160.600006103515625</ele>
        <time>2026-08-05T12:05:57.000Z</time>
        <extensions>
          <ns3:TrackPointExtension>
            <ns3:hr>96</ns3:hr>
            <ns3:cad>49</ns3:cad>
          </ns3:TrackPointExtension>
        </extensions>
      </trkpt>
      <trkpt lat="43.457440473139286041259765625" lon="1.42986190505325794219970703125">
        <ele>160.600006103515625</ele>
        <time>2026-08-05T12:05:58.000Z</time>
        <extensions>
          <ns3:TrackPointExtension>
            <ns3:hr>94</ns3:hr>
            <ns3:cad>49</ns3:cad>
          </ns3:TrackPointExtension>
        </extensions>
      </trkpt>
      <trkpt lat="43.45744541846215724945068359375" lon="1.42988839186728000640869140625">
        <ele>160.399993896484375</ele>
        <time>2026-08-05T12:05:59.000Z</time>
        <extensions>
          <ns3:TrackPointExtension>
            <ns3:hr>93</ns3:hr>
            <ns3:cad>49</ns3:cad>
          </ns3:TrackPointExtension>
        </extensions>
      </trkpt>
      <trkpt lat="43.45744458027184009552001953125" lon="1.4299022220075130462646484375">
        <ele>160.399993896484375</ele>
        <time>2026-08-05T12:06:00.000Z</time>
        <extensions>
          <ns3:TrackPointExtension>
            <ns3:hr>93</ns3:hr>
            <ns3:cad>78</ns3:cad>
          </ns3:TrackPointExtension>
        </extensions>
      </trkpt>
      <trkpt lat="43.4574441611766815185546875" lon="1.42991303466260433197021484375">
        <ele>160.600006103515625</ele>
        <time>2026-08-05T12:06:01.000Z</time>
        <extensions>
          <ns3:TrackPointExtension>
            <ns3:hr>92</ns3:hr>
            <ns3:cad>78</ns3:cad>
          </ns3:TrackPointExtension>
        </extensions>
      </trkpt>
      <trkpt lat="43.45744189806282520294189453125" lon="1.4299273677170276641845703125">
        <ele>160.600006103515625</ele>
        <time>2026-08-05T12:06:02.000Z</time>
        <extensions>
          <ns3:TrackPointExtension>
            <ns3:hr>92</ns3:hr>
            <ns3:cad>47</ns3:cad>
          </ns3:TrackPointExtension>
        </extensions>
      </trkpt>
      <trkpt lat="43.45744214951992034912109375" lon="1.4299334026873111724853515625">
        <ele>160.600006103515625</ele>
        <time>2026-08-05T12:06:03.000Z</time>
        <extensions>
          <ns3:TrackPointExtension>
            <ns3:hr>93</ns3:hr>
            <ns3:cad>47</ns3:cad>
          </ns3:TrackPointExtension>
        </extensions>
      </trkpt>
      <trkpt lat="43.4574413113296031951904296875" lon="1.429939605295658111572265625">
        <ele>160.8000030517578125</ele>
        <time>2026-08-05T12:06:04.000Z</time>
        <extensions>
          <ns3:TrackPointExtension>
            <ns3:hr>93</ns3:hr>
            <ns3:cad>43</ns3:cad>
          </ns3:TrackPointExtension>
        </extensions>
      </trkpt>
      <trkpt lat="43.45743921585381031036376953125" lon="1.42995125614106655120849609375">
        <ele>160.8000030517578125</ele>
        <time>2026-08-05T12:06:05.000Z</time>
        <extensions>
          <ns3:TrackPointExtension>
            <ns3:hr>93</ns3:hr>
            <ns3:cad>43</ns3:cad>
          </ns3:TrackPointExtension>
        </extensions>
      </trkpt>
      <trkpt lat="43.457439802587032318115234375" lon="1.4299595542252063751220703125">
        <ele>160.8000030517578125</ele>
        <time>2026-08-05T12:06:06.000Z</time>
        <extensions>
          <ns3:TrackPointExtension>
            <ns3:hr>93</ns3:hr>
            <ns3:cad>43</ns3:cad>
          </ns3:TrackPointExtension>
        </extensions>
      </trkpt>
      <trkpt lat="43.45743837766349315643310546875" lon="1.42997405491769313812255859375">
        <ele>160.8000030517578125</ele>
        <time>2026-08-05T12:06:07.000Z</time>
        <extensions>
          <ns3:TrackPointExtension>
            <ns3:hr>93</ns3:hr>
            <ns3:cad>0</ns3:cad>
          </ns3:TrackPointExtension>
        </extensions>
      </trkpt>
      <trkpt lat="43.45743653364479541778564453125" lon="1.429984867572784423828125">
        <ele>161</ele>
        <time>2026-08-05T12:06:08.000Z</time>
        <extensions>
          <ns3:TrackPointExtension>
            <ns3:hr>94</ns3:hr>
            <ns3:cad>0</ns3:cad>
          </ns3:TrackPointExtension>
        </extensions>
      </trkpt>
      <trkpt lat="43.4574325941503047943115234375" lon="1.42999668605625629425048828125">
        <ele>161</ele>
        <time>2026-08-05T12:06:09.000Z</time>
        <extensions>
          <ns3:TrackPointExtension>
            <ns3:hr>94</ns3:hr>
            <ns3:cad>0</ns3:cad>
          </ns3:TrackPointExtension>
        </extensions>
      </trkpt>
      <trkpt lat="43.457431085407733917236328125" lon="1.43000523559749126434326171875">
        <ele>161</ele>
        <time>2026-08-05T12:06:10.000Z</time>
        <extensions>
          <ns3:TrackPointExtension>
            <ns3:hr>95</ns3:hr>
            <ns3:cad>0</ns3:cad>
          </ns3:TrackPointExtension>
        </extensions>
      </trkpt>
      <trkpt lat="43.45742932520806789398193359375" lon="1.43001462332904338836669921875">
        <ele>161</ele>
        <time>2026-08-05T12:06:11.000Z</time>
        <extensions>
          <ns3:TrackPointExtension>
            <ns3:hr>96</ns3:hr>
            <ns3:cad>0</ns3:cad>
          </ns3:TrackPointExtension>
        </extensions>
      </trkpt>
      <trkpt lat="43.4574275650084018707275390625" lon="1.43002619035542011260986328125">
        <ele>161</ele>
        <time>2026-08-05T12:06:12.000Z</time>
        <extensions>
          <ns3:TrackPointExtension>
            <ns3:hr>96</ns3:hr>
            <ns3:cad>0</ns3:cad>
          </ns3:TrackPointExtension>
        </extensions>
      </trkpt>
      <trkpt lat="43.4574268944561481475830078125" lon="1.430038511753082275390625">
        <ele>161</ele>
        <time>2026-08-05T12:06:13.000Z</time>
        <extensions>
          <ns3:TrackPointExtension>
            <ns3:hr>96</ns3:hr>
            <ns3:cad>0</ns3:cad>
          </ns3:TrackPointExtension>
        </extensions>
      </trkpt>
      <trkpt lat="43.457426391541957855224609375" lon="1.43005167134106159210205078125">
        <ele>161</ele>
        <time>2026-08-05T12:06:14.000Z</time>
        <extensions>
          <ns3:TrackPointExtension>
            <ns3:hr>97</ns3:hr>
            <ns3:cad>47</ns3:cad>
          </ns3:TrackPointExtension>
        </extensions>
      </trkpt>
      <trkpt lat="43.457427732646465301513671875" lon="1.43006323836743831634521484375">
        <ele>161</ele>
        <time>2026-08-05T12:06:15.000Z</time>
        <extensions>
          <ns3:TrackPointExtension>
            <ns3:hr>96</ns3:hr>
            <ns3:cad>47</ns3:cad>
          </ns3:TrackPointExtension>
        </extensions>
      </trkpt>
      <trkpt lat="43.4574282355606555938720703125" lon="1.43007162027060985565185546875">
        <ele>161</ele>
        <time>2026-08-05T12:06:16.000Z</time>
        <extensions>
          <ns3:TrackPointExtension>
            <ns3:hr>96</ns3:hr>
            <ns3:cad>47</ns3:cad>
          </ns3:TrackPointExtension>
        </extensions>
      </trkpt>
      <trkpt lat="43.457429073750972747802734375" lon="1.430079750716686248779296875">
        <ele>161.1999969482421875</ele>
        <time>2026-08-05T12:06:17.000Z</time>
        <extensions>
          <ns3:TrackPointExtension>
            <ns3:hr>95</ns3:hr>
            <ns3:cad>0</ns3:cad>
          </ns3:TrackPointExtension>
        </extensions>
      </trkpt>
      <trkpt lat="43.45742949284613132476806640625" lon="1.43008871935307979583740234375">
        <ele>161.1999969482421875</ele>
        <time>2026-08-05T12:06:18.000Z</time>
        <extensions>
          <ns3:TrackPointExtension>
            <ns3:hr>95</ns3:hr>
            <ns3:cad>0</ns3:cad>
          </ns3:TrackPointExtension>
        </extensions>
      </trkpt>
      <trkpt lat="43.4574289061129093170166015625" lon="1.430095173418521881103515625">
        <ele>161.600006103515625</ele>
        <time>2026-08-05T12:06:19.000Z</time>
        <extensions>
          <ns3:TrackPointExtension>
            <ns3:hr>95</ns3:hr>
            <ns3:cad>0</ns3:cad>
          </ns3:TrackPointExtension>
        </extensions>
      </trkpt>
      <trkpt lat="43.45742781646549701690673828125" lon="1.43010363914072513580322265625">
        <ele>161.8000030517578125</ele>
        <time>2026-08-05T12:06:20.000Z</time>
        <extensions>
          <ns3:TrackPointExtension>
            <ns3:hr>95</ns3:hr>
            <ns3:cad>0</ns3:cad>
          </ns3:TrackPointExtension>
        </extensions>
      </trkpt>
      <trkpt lat="43.45742748118937015533447265625" lon="1.43011319451034069061279296875">
        <ele>162</ele>
        <time>2026-08-05T12:06:21.000Z</time>
        <extensions>
          <ns3:TrackPointExtension>
            <ns3:hr>95</ns3:hr>
            <ns3:cad>0</ns3:cad>
          </ns3:TrackPointExtension>
        </extensions>
      </trkpt>
      <trkpt lat="43.457426726818084716796875" lon="1.43012677319347858428955078125">
        <ele>162.399993896484375</ele>
        <time>2026-08-05T12:06:22.000Z</time>
        <extensions>
          <ns3:TrackPointExtension>
            <ns3:hr>95</ns3:hr>
            <ns3:cad>0</ns3:cad>
          </ns3:TrackPointExtension>
        </extensions>
      </trkpt>
      <trkpt lat="43.45742697827517986297607421875" lon="1.43013951368629932403564453125">
        <ele>162.399993896484375</ele>
        <time>2026-08-05T12:06:23.000Z</time>
        <extensions>
          <ns3:TrackPointExtension>
            <ns3:hr>95</ns3:hr>
            <ns3:cad>0</ns3:cad>
          </ns3:TrackPointExtension>
        </extensions>
      </trkpt>
      <trkpt lat="43.45742479898035526275634765625" lon="1.4301553554832935333251953125">
        <ele>162.600006103515625</ele>
        <time>2026-08-05T12:06:24.000Z</time>
        <extensions>
          <ns3:TrackPointExtension>
            <ns3:hr>96</ns3:hr>
            <ns3:cad>0</ns3:cad>
          </ns3:TrackPointExtension>
        </extensions>
      </trkpt>
      <trkpt lat="43.457426391541957855224609375" lon="1.43016834743320941925048828125">
        <ele>162.600006103515625</ele>
        <time>2026-08-05T12:06:25.000Z</time>
        <extensions>
          <ns3:TrackPointExtension>
            <ns3:hr>96</ns3:hr>
            <ns3:cad>0</ns3:cad>
          </ns3:TrackPointExtension>
        </extensions>
      </trkpt>
      <trkpt lat="43.45742295496165752410888671875" lon="1.43017807044088840484619140625">
        <ele>162.399993896484375</ele>
        <time>2026-08-05T12:06:26.000Z</time>
        <extensions>
          <ns3:TrackPointExtension>
            <ns3:hr>97</ns3:hr>
            <ns3:cad>0</ns3:cad>
          </ns3:TrackPointExtension>
        </extensions>
      </trkpt>
      <trkpt lat="43.4574201889336109161376953125" lon="1.43019382841885089874267578125">
        <ele>162.399993896484375</ele>
        <time>2026-08-05T12:06:27.000Z</time>
        <extensions>
          <ns3:TrackPointExtension>
            <ns3:hr>98</ns3:hr>
            <ns3:cad>0</ns3:cad>
          </ns3:TrackPointExtension>
        </extensions>
      </trkpt>
      <trkpt lat="43.45741557888686656951904296875" lon="1.4302100054919719696044921875">
        <ele>162.1999969482421875</ele>
        <time>2026-08-05T12:06:28.000Z</time>
        <extensions>
          <ns3:TrackPointExtension>
            <ns3:hr>99</ns3:hr>
            <ns3:cad>0</ns3:cad>
          </ns3:TrackPointExtension>
        </extensions>
      </trkpt>
      <trkpt lat="43.4574108012020587921142578125" lon="1.43022098578512668609619140625">
        <ele>162.1999969482421875</ele>
        <time>2026-08-05T12:06:29.000Z</time>
        <extensions>
          <ns3:TrackPointExtension>
            <ns3:hr>99</ns3:hr>
            <ns3:cad>0</ns3:cad>
          </ns3:TrackPointExtension>
        </extensions>
      </trkpt>
      <trkpt lat="43.45740250311791896820068359375" lon="1.4302348159253597259521484375">
        <ele>162</ele>
        <time>2026-08-05T12:06:30.000Z</time>
        <extensions>
          <ns3:TrackPointExtension>
            <ns3:hr>99</ns3:hr>
            <ns3:cad>51</ns3:cad>
          </ns3:TrackPointExtension>
        </extensions>
      </trkpt>
      <trkpt lat="43.45739546231925487518310546875" lon="1.43024629913270473480224609375">
        <ele>162</ele>
        <time>2026-08-05T12:06:31.000Z</time>
        <extensions>
          <ns3:TrackPointExtension>
            <ns3:hr>100</ns3:hr>
            <ns3:cad>51</ns3:cad>
          </ns3:TrackPointExtension>
        </extensions>
      </trkpt>
      <trkpt lat="43.4573893435299396514892578125" lon="1.43025786615908145904541015625">
        <ele>162</ele>
        <time>2026-08-05T12:06:32.000Z</time>
        <extensions>
          <ns3:TrackPointExtension>
            <ns3:hr>100</ns3:hr>
            <ns3:cad>51</ns3:cad>
          </ns3:TrackPointExtension>
        </extensions>
      </trkpt>
      <trkpt lat="43.45738540403544902801513671875" lon="1.430268846452236175537109375">
        <ele>162</ele>
        <time>2026-08-05T12:06:33.000Z</time>
        <extensions>
          <ns3:TrackPointExtension>
            <ns3:hr>100</ns3:hr>
            <ns3:cad>0</ns3:cad>
          </ns3:TrackPointExtension>
        </extensions>
      </trkpt>
      <trkpt lat="43.45738288946449756622314453125" lon="1.43027697689831256866455078125">
        <ele>162</ele>
        <time>2026-08-05T12:06:34.000Z</time>
        <extensions>
          <ns3:TrackPointExtension>
            <ns3:hr>100</ns3:hr>
            <ns3:cad>0</ns3:cad>
          </ns3:TrackPointExtension>
        </extensions>
      </trkpt>
      <trkpt lat="43.45738171599805355072021484375" lon="1.4302874542772769927978515625">
        <ele>162</ele>
        <time>2026-08-05T12:06:35.000Z</time>
        <extensions>
          <ns3:TrackPointExtension>
            <ns3:hr>100</ns3:hr>
            <ns3:cad>49</ns3:cad>
          </ns3:TrackPointExtension>
        </extensions>
      </trkpt>
      <trkpt lat="43.4573859907686710357666015625" lon="1.43029390834271907806396484375">
        <ele>162</ele>
        <time>2026-08-05T12:06:36.000Z</time>
        <extensions>
          <ns3:TrackPointExtension>
            <ns3:hr>101</ns3:hr>
            <ns3:cad>49</ns3:cad>
          </ns3:TrackPointExtension>
        </extensions>
      </trkpt>
      <trkpt lat="43.45739076845347881317138671875" lon="1.43030128441751003265380859375">
        <ele>162</ele>
        <time>2026-08-05T12:06:37.000Z</time>
        <extensions>
          <ns3:TrackPointExtension>
            <ns3:hr>101</ns3:hr>
            <ns3:cad>49</ns3:cad>
          </ns3:TrackPointExtension>
        </extensions>
      </trkpt>
      <trkpt lat="43.4573931992053985595703125" lon="1.43031184561550617218017578125">
        <ele>162</ele>
        <time>2026-08-05T12:06:38.000Z</time>
        <extensions>
          <ns3:TrackPointExtension>
            <ns3:hr>101</ns3:hr>
            <ns3:cad>49</ns3:cad>
          </ns3:TrackPointExtension>
        </extensions>
      </trkpt>
      <trkpt lat="43.45739789307117462158203125" lon="1.430326513946056365966796875">
        <ele>162</ele>
        <time>2026-08-05T12:06:39.000Z</time>
        <extensions>
          <ns3:TrackPointExtension>
            <ns3:hr>101</ns3:hr>
            <ns3:cad>0</ns3:cad>
          </ns3:TrackPointExtension>
        </extensions>
      </trkpt>
      <trkpt lat="43.45740149728953838348388671875" lon="1.43033632077276706695556640625">
        <ele>162.1999969482421875</ele>
        <time>2026-08-05T12:06:40.000Z</time>
        <extensions>
          <ns3:TrackPointExtension>
            <ns3:hr>100</ns3:hr>
            <ns3:cad>0</ns3:cad>
          </ns3:TrackPointExtension>
        </extensions>
      </trkpt>
      <trkpt lat="43.45740300603210926055908203125" lon="1.430348642170429229736328125">
        <ele>162.1999969482421875</ele>
        <time>2026-08-05T12:06:41.000Z</time>
        <extensions>
          <ns3:TrackPointExtension>
            <ns3:hr>100</ns3:hr>
            <ns3:cad>0</ns3:cad>
          </ns3:TrackPointExtension>
        </extensions>
      </trkpt>
      <trkpt lat="43.45740535296499729156494140625" lon="1.43035962246358394622802734375">
        <ele>162.399993896484375</ele>
        <time>2026-08-05T12:06:42.000Z</time>
        <extensions>
          <ns3:TrackPointExtension>
            <ns3:hr>99</ns3:hr>
            <ns3:cad>41</ns3:cad>
          </ns3:TrackPointExtension>
        </extensions>
      </trkpt>
      <trkpt lat="43.4574077837169170379638671875" lon="1.430372782051563262939453125">
        <ele>162.399993896484375</ele>
        <time>2026-08-05T12:06:43.000Z</time>
        <extensions>
          <ns3:TrackPointExtension>
            <ns3:hr>98</ns3:hr>
            <ns3:cad>41</ns3:cad>
          </ns3:TrackPointExtension>
        </extensions>
      </trkpt>
      <trkpt lat="43.45740870572626590728759765625" lon="1.4303830079734325408935546875">
        <ele>162.399993896484375</ele>
        <time>2026-08-05T12:06:44.000Z</time>
        <extensions>
          <ns3:TrackPointExtension>
            <ns3:hr>98</ns3:hr>
            <ns3:cad>41</ns3:cad>
          </ns3:TrackPointExtension>
        </extensions>
      </trkpt>
      <trkpt lat="43.45740920864045619964599609375" lon="1.4303984306752681732177734375">
        <ele>162.399993896484375</ele>
        <time>2026-08-05T12:06:45.000Z</time>
        <extensions>
          <ns3:TrackPointExtension>
            <ns3:hr>98</ns3:hr>
            <ns3:cad>42</ns3:cad>
          </ns3:TrackPointExtension>
        </extensions>
      </trkpt>
      <trkpt lat="43.45740535296499729156494140625" lon="1.4304141886532306671142578125">
        <ele>162.1999969482421875</ele>
        <time>2026-08-05T12:06:46.000Z</time>
        <extensions>
          <ns3:TrackPointExtension>
            <ns3:hr>98</ns3:hr>
            <ns3:cad>42</ns3:cad>
          </ns3:TrackPointExtension>
        </extensions>
      </trkpt>
      <trkpt lat="43.45739965327084064483642578125" lon="1.43042634241282939910888671875">
        <ele>162</ele>
        <time>2026-08-05T12:06:47.000Z</time>
        <extensions>
          <ns3:TrackPointExtension>
            <ns3:hr>97</ns3:hr>
            <ns3:cad>42</ns3:cad>
          </ns3:TrackPointExtension>
        </extensions>
      </trkpt>
      <trkpt lat="43.45739210955798625946044921875" lon="1.4304343052208423614501953125">
        <ele>161.8000030517578125</ele>
        <time>2026-08-05T12:06:48.000Z</time>
        <extensions>
          <ns3:TrackPointExtension>
            <ns3:hr>97</ns3:hr>
            <ns3:cad>42</ns3:cad>
          </ns3:TrackPointExtension>
        </extensions>
      </trkpt>
      <trkpt lat="43.45738356001675128936767578125" lon="1.430445872247219085693359375">
        <ele>161.600006103515625</ele>
        <time>2026-08-05T12:06:49.000Z</time>
        <extensions>
          <ns3:TrackPointExtension>
            <ns3:hr>97</ns3:hr>
            <ns3:cad>42</ns3:cad>
          </ns3:TrackPointExtension>
        </extensions>
      </trkpt>
      <trkpt lat="43.4573782794177532196044921875" lon="1.43045752309262752532958984375">
        <ele>161.600006103515625</ele>
        <time>2026-08-05T12:06:50.000Z</time>
        <extensions>
          <ns3:TrackPointExtension>
            <ns3:hr>97</ns3:hr>
            <ns3:cad>42</ns3:cad>
          </ns3:TrackPointExtension>
        </extensions>
      </trkpt>
      <trkpt lat="43.4573766030371189117431640625" lon="1.43046657554805278778076171875">
        <ele>161.399993896484375</ele>
        <time>2026-08-05T12:06:51.000Z</time>
        <extensions>
          <ns3:TrackPointExtension>
            <ns3:hr>97</ns3:hr>
            <ns3:cad>42</ns3:cad>
          </ns3:TrackPointExtension>
        </extensions>
      </trkpt>
      <trkpt lat="43.45737769268453121185302734375" lon="1.43047906458377838134765625">
        <ele>161.399993896484375</ele>
        <time>2026-08-05T12:06:52.000Z</time>
        <extensions>
          <ns3:TrackPointExtension>
            <ns3:hr>97</ns3:hr>
            <ns3:cad>42</ns3:cad>
          </ns3:TrackPointExtension>
        </extensions>
      </trkpt>
      <trkpt lat="43.45738305710256099700927734375" lon="1.430492140352725982666015625">
        <ele>161.399993896484375</ele>
        <time>2026-08-05T12:06:53.000Z</time>
        <extensions>
          <ns3:TrackPointExtension>
            <ns3:hr>97</ns3:hr>
            <ns3:cad>42</ns3:cad>
          </ns3:TrackPointExtension>
        </extensions>
      </trkpt>
      <trkpt lat="43.4573839791119098663330078125" lon="1.43050362356007099151611328125">
        <ele>161.399993896484375</ele>
        <time>2026-08-05T12:06:54.000Z</time>
        <extensions>
          <ns3:TrackPointExtension>
            <ns3:hr>97</ns3:hr>
            <ns3:cad>42</ns3:cad>
          </ns3:TrackPointExtension>
        </extensions>
      </trkpt>
      <trkpt lat="43.457388840615749359130859375" lon="1.43051653169095516204833984375">
        <ele>161.399993896484375</ele>
        <time>2026-08-05T12:06:55.000Z</time>
        <extensions>
          <ns3:TrackPointExtension>
            <ns3:hr>97</ns3:hr>
            <ns3:cad>50</ns3:cad>
          </ns3:TrackPointExtension>
        </extensions>
      </trkpt>
      <trkpt lat="43.45738976262509822845458984375" lon="1.43052692525088787078857421875">
        <ele>161.399993896484375</ele>
        <time>2026-08-05T12:06:56.000Z</time>
        <extensions>
          <ns3:TrackPointExtension>
            <ns3:hr>97</ns3:hr>
            <ns3:cad>50</ns3:cad>
          </ns3:TrackPointExtension>
        </extensions>
      </trkpt>
      <trkpt lat="43.4573886729776859283447265625" lon="1.4305415935814380645751953125">
        <ele>161.399993896484375</ele>
        <time>2026-08-05T12:06:57.000Z</time>
        <extensions>
          <ns3:TrackPointExtension>
            <ns3:hr>97</ns3:hr>
            <ns3:cad>50</ns3:cad>
          </ns3:TrackPointExtension>
        </extensions>
      </trkpt>
      <trkpt lat="43.45738808624446392059326171875" lon="1.43055156804621219635009765625">
        <ele>161.399993896484375</ele>
        <time>2026-08-05T12:06:58.000Z</time>
        <extensions>
          <ns3:TrackPointExtension>
            <ns3:hr>97</ns3:hr>
            <ns3:cad>48</ns3:cad>
          </ns3:TrackPointExtension>
        </extensions>
      </trkpt>
      <trkpt lat="43.45738976262509822845458984375" lon="1.4305650629103183746337890625">
        <ele>161.399993896484375</ele>
        <time>2026-08-05T12:06:59.000Z</time>
        <extensions>
          <ns3:TrackPointExtension>
            <ns3:hr>96</ns3:hr>
            <ns3:cad>48</ns3:cad>
          </ns3:TrackPointExtension>
        </extensions>
      </trkpt>
      <trkpt lat="43.4573920257389545440673828125" lon="1.4305794797837734222412109375">
        <ele>161.399993896484375</ele>
        <time>2026-08-05T12:07:00.000Z</time>
        <extensions>
          <ns3:TrackPointExtension>
            <ns3:hr>96</ns3:hr>
            <ns3:cad>48</ns3:cad>
          </ns3:TrackPointExtension>
        </extensions>
      </trkpt>
      <trkpt lat="43.45739060081541538238525390625" lon="1.43059481866657733917236328125">
        <ele>161.1999969482421875</ele>
        <time>2026-08-05T12:07:01.000Z</time>
        <extensions>
          <ns3:TrackPointExtension>
            <ns3:hr>96</ns3:hr>
            <ns3:cad>48</ns3:cad>
          </ns3:TrackPointExtension>
        </extensions>
      </trkpt>
      <trkpt lat="43.457388170063495635986328125" lon="1.43061158247292041778564453125">
        <ele>161</ele>
        <time>2026-08-05T12:07:02.000Z</time>
        <extensions>
          <ns3:TrackPointExtension>
            <ns3:hr>95</ns3:hr>
            <ns3:cad>48</ns3:cad>
          </ns3:TrackPointExtension>
        </extensions>
      </trkpt>
      <trkpt lat="43.45738691277801990509033203125" lon="1.430624239146709442138671875">
        <ele>160.8000030517578125</ele>
        <time>2026-08-05T12:07:03.000Z</time>
        <extensions>
          <ns3:TrackPointExtension>
            <ns3:hr>94</ns3:hr>
            <ns3:cad>48</ns3:cad>
          </ns3:TrackPointExtension>
        </extensions>
      </trkpt>
      <trkpt lat="43.45738506875932216644287109375" lon="1.43063329160213470458984375">
        <ele>160.8000030517578125</ele>
        <time>2026-08-05T12:07:04.000Z</time>
        <extensions>
          <ns3:TrackPointExtension>
            <ns3:hr>94</ns3:hr>
            <ns3:cad>0</ns3:cad>
          </ns3:TrackPointExtension>
        </extensions>
      </trkpt>
      <trkpt lat="43.45738305710256099700927734375" lon="1.43064075149595737457275390625">
        <ele>160.8000030517578125</ele>
        <time>2026-08-05T12:07:05.000Z</time>
        <extensions>
          <ns3:TrackPointExtension>
            <ns3:hr>94</ns3:hr>
            <ns3:cad>0</ns3:cad>
          </ns3:TrackPointExtension>
        </extensions>
      </trkpt>
      <trkpt lat="43.4573802910745143890380859375" lon="1.430649720132350921630859375">
        <ele>160.600006103515625</ele>
        <time>2026-08-05T12:07:06.000Z</time>
        <extensions>
          <ns3:TrackPointExtension>
            <ns3:hr>93</ns3:hr>
            <ns3:cad>0</ns3:cad>
          </ns3:TrackPointExtension>
        </extensions>
      </trkpt>
      <trkpt lat="43.4573755972087383270263671875" lon="1.4306626282632350921630859375">
        <ele>160.399993896484375</ele>
        <time>2026-08-05T12:07:07.000Z</time>
        <extensions>
          <ns3:TrackPointExtension>
            <ns3:hr>94</ns3:hr>
            <ns3:cad>51</ns3:cad>
          </ns3:TrackPointExtension>
        </extensions>
      </trkpt>
      <trkpt lat="43.45737098716199398040771484375" lon="1.43067444674670696258544921875">
        <ele>160.1999969482421875</ele>
        <time>2026-08-05T12:07:08.000Z</time>
        <extensions>
          <ns3:TrackPointExtension>
            <ns3:hr>94</ns3:hr>
            <ns3:cad>51</ns3:cad>
          </ns3:TrackPointExtension>
        </extensions>
      </trkpt>
      <trkpt lat="43.45736763440072536468505859375" lon="1.43068634904921054840087890625">
        <ele>160</ele>
        <time>2026-08-05T12:07:09.000Z</time>
        <extensions>
          <ns3:TrackPointExtension>
            <ns3:hr>95</ns3:hr>
            <ns3:cad>51</ns3:cad>
          </ns3:TrackPointExtension>
        </extensions>
      </trkpt>
      <trkpt lat="43.45736436545848846435546875" lon="1.4307011850178241729736328125">
        <ele>159.8000030517578125</ele>
        <time>2026-08-05T12:07:10.000Z</time>
        <extensions>
          <ns3:TrackPointExtension>
            <ns3:hr>95</ns3:hr>
            <ns3:cad>51</ns3:cad>
          </ns3:TrackPointExtension>
        </extensions>
      </trkpt>
      <trkpt lat="43.45736193470656871795654296875" lon="1.43071551807224750518798828125">
        <ele>159.399993896484375</ele>
        <time>2026-08-05T12:07:11.000Z</time>
        <extensions>
          <ns3:TrackPointExtension>
            <ns3:hr>95</ns3:hr>
            <ns3:cad>62</ns3:cad>
          </ns3:TrackPointExtension>
        </extensions>
      </trkpt>
      <trkpt lat="43.45735824666917324066162109375" lon="1.430728845298290252685546875">
        <ele>159.1999969482421875</ele>
        <time>2026-08-05T12:07:12.000Z</time>
        <extensions>
          <ns3:TrackPointExtension>
            <ns3:hr>95</ns3:hr>
            <ns3:cad>62</ns3:cad>
          </ns3:TrackPointExtension>
        </extensions>
      </trkpt>
      <trkpt lat="43.4573527984321117401123046875" lon="1.43074401654303073883056640625">
        <ele>159</ele>
        <time>2026-08-05T12:07:13.000Z</time>
        <extensions>
          <ns3:TrackPointExtension>
            <ns3:hr>94</ns3:hr>
            <ns3:cad>62</ns3:cad>
          </ns3:TrackPointExtension>
        </extensions>
      </trkpt>
      <trkpt lat="43.457346595823764801025390625" lon="1.43075675703585147857666015625">
        <ele>158.8000030517578125</ele>
        <time>2026-08-05T12:07:14.000Z</time>
        <extensions>
          <ns3:TrackPointExtension>
            <ns3:hr>94</ns3:hr>
            <ns3:cad>62</ns3:cad>
          </ns3:TrackPointExtension>
        </extensions>
      </trkpt>
      <trkpt lat="43.45733729191124439239501953125" lon="1.4307725988328456878662109375">
        <ele>158.600006103515625</ele>
        <time>2026-08-05T12:07:15.000Z</time>
        <extensions>
          <ns3:TrackPointExtension>
            <ns3:hr>94</ns3:hr>
            <ns3:cad>62</ns3:cad>
          </ns3:TrackPointExtension>
        </extensions>
      </trkpt>
      <trkpt lat="43.457330167293548583984375" lon="1.43078483641147613525390625">
        <ele>158.399993896484375</ele>
        <time>2026-08-05T12:07:16.000Z</time>
        <extensions>
          <ns3:TrackPointExtension>
            <ns3:hr>93</ns3:hr>
            <ns3:cad>58</ns3:cad>
          </ns3:TrackPointExtension>
        </extensions>
      </trkpt>
      <trkpt lat="43.45732153393328189849853515625" lon="1.43080227077007293701171875">
        <ele>158.1999969482421875</ele>
        <time>2026-08-05T12:07:17.000Z</time>
        <extensions>
          <ns3:TrackPointExtension>
            <ns3:hr>93</ns3:hr>
            <ns3:cad>58</ns3:cad>
          </ns3:TrackPointExtension>
        </extensions>
      </trkpt>
      <trkpt lat="43.457313738763332366943359375" lon="1.43081434071063995361328125">
        <ele>158</ele>
        <time>2026-08-05T12:07:18.000Z</time>
        <extensions>
          <ns3:TrackPointExtension>
            <ns3:hr>93</ns3:hr>
            <ns3:cad>58</ns3:cad>
          </ns3:TrackPointExtension>
        </extensions>
      </trkpt>
      <trkpt lat="43.45730527304112911224365234375" lon="1.4308245666325092315673828125">
        <ele>158</ele>
        <time>2026-08-05T12:07:19.000Z</time>
        <extensions>
          <ns3:TrackPointExtension>
            <ns3:hr>93</ns3:hr>
            <ns3:cad>57</ns3:cad>
          </ns3:TrackPointExtension>
        </extensions>
      </trkpt>
      <trkpt lat="43.4572998248040676116943359375" lon="1.43083319999277591705322265625">
        <ele>157.8000030517578125</ele>
        <time>2026-08-05T12:07:20.000Z</time>
        <extensions>
          <ns3:TrackPointExtension>
            <ns3:hr>93</ns3:hr>
            <ns3:cad>54</ns3:cad>
          </ns3:TrackPointExtension>
        </extensions>
      </trkpt>
      <trkpt lat="43.4572917781770229339599609375" lon="1.4308430068194866180419921875">
        <ele>157.600006103515625</ele>
        <time>2026-08-05T12:07:21.000Z</time>
        <extensions>
          <ns3:TrackPointExtension>
            <ns3:hr>93</ns3:hr>
            <ns3:cad>53</ns3:cad>
          </ns3:TrackPointExtension>
        </extensions>
      </trkpt>
      <trkpt lat="43.45728456974029541015625" lon="1.4308498799800872802734375">
        <ele>157.600006103515625</ele>
        <time>2026-08-05T12:07:22.000Z</time>
        <extensions>
          <ns3:TrackPointExtension>
            <ns3:hr>92</ns3:hr>
            <ns3:cad>53</ns3:cad>
          </ns3:TrackPointExtension>
        </extensions>
      </trkpt>
      <trkpt lat="43.4572780318558216094970703125" lon="1.430856920778751373291015625">
        <ele>157.399993896484375</ele>
        <time>2026-08-05T12:07:23.000Z</time>
        <extensions>
          <ns3:TrackPointExtension>
            <ns3:hr>93</ns3:hr>
            <ns3:cad>53</ns3:cad>
          </ns3:TrackPointExtension>
        </extensions>
      </trkpt>
      <trkpt lat="43.45727241598069667816162109375" lon="1.43086605705320835113525390625">
        <ele>157</ele>
        <time>2026-08-05T12:07:24.000Z</time>
        <extensions>
          <ns3:TrackPointExtension>
            <ns3:hr>92</ns3:hr>
            <ns3:cad>53</ns3:cad>
          </ns3:TrackPointExtension>
        </extensions>
      </trkpt>
      <trkpt lat="43.4572671353816986083984375" lon="1.43087309785187244415283203125">
        <ele>156.8000030517578125</ele>
        <time>2026-08-05T12:07:25.000Z</time>
        <extensions>
          <ns3:TrackPointExtension>
            <ns3:hr>92</ns3:hr>
            <ns3:cad>51</ns3:cad>
          </ns3:TrackPointExtension>
        </extensions>
      </trkpt>
      <trkpt lat="43.45726302824914455413818359375" lon="1.4308798871934413909912109375">
        <ele>156.8000030517578125</ele>
        <time>2026-08-05T12:07:26.000Z</time>
        <extensions>
          <ns3:TrackPointExtension>
            <ns3:hr>92</ns3:hr>
            <ns3:cad>51</ns3:cad>
          </ns3:TrackPointExtension>
        </extensions>
      </trkpt>
      <trkpt lat="43.45725850202143192291259765625" lon="1.4308919571340084075927734375">
        <ele>156.600006103515625</ele>
        <time>2026-08-05T12:07:27.000Z</time>
        <extensions>
          <ns3:TrackPointExtension>
            <ns3:hr>93</ns3:hr>
            <ns3:cad>52</ns3:cad>
          </ns3:TrackPointExtension>
        </extensions>
      </trkpt>
      <trkpt lat="43.45725229941308498382568359375" lon="1.430903188884258270263671875">
        <ele>156.600006103515625</ele>
        <time>2026-08-05T12:07:28.000Z</time>
        <extensions>
          <ns3:TrackPointExtension>
            <ns3:hr>92</ns3:hr>
            <ns3:cad>52</ns3:cad>
          </ns3:TrackPointExtension>
        </extensions>
      </trkpt>
      <trkpt lat="43.45724768936634063720703125" lon="1.43091333098709583282470703125">
        <ele>156.8000030517578125</ele>
        <time>2026-08-05T12:07:29.000Z</time>
        <extensions>
          <ns3:TrackPointExtension>
            <ns3:hr>92</ns3:hr>
            <ns3:cad>52</ns3:cad>
          </ns3:TrackPointExtension>
        </extensions>
      </trkpt>
      <trkpt lat="43.457238972187042236328125" lon="1.43092967569828033447265625">
        <ele>156.8000030517578125</ele>
        <time>2026-08-05T12:07:30.000Z</time>
        <extensions>
          <ns3:TrackPointExtension>
            <ns3:hr>92</ns3:hr>
            <ns3:cad>50</ns3:cad>
          </ns3:TrackPointExtension>
        </extensions>
      </trkpt>
      <trkpt lat="43.45723084174096584320068359375" lon="1.43094048835337162017822265625">
        <ele>156.8000030517578125</ele>
        <time>2026-08-05T12:07:31.000Z</time>
        <extensions>
          <ns3:TrackPointExtension>
            <ns3:hr>92</ns3:hr>
            <ns3:cad>50</ns3:cad>
          </ns3:TrackPointExtension>
        </extensions>
      </trkpt>
      <trkpt lat="43.4572240523993968963623046875" lon="1.430952139198780059814453125">
        <ele>157</ele>
        <time>2026-08-05T12:07:32.000Z</time>
        <extensions>
          <ns3:TrackPointExtension>
            <ns3:hr>91</ns3:hr>
            <ns3:cad>50</ns3:cad>
          </ns3:TrackPointExtension>
        </extensions>
      </trkpt>
      <trkpt lat="43.45721659250557422637939453125" lon="1.4309657178819179534912109375">
        <ele>157</ele>
        <time>2026-08-05T12:07:33.000Z</time>
        <extensions>
          <ns3:TrackPointExtension>
            <ns3:hr>91</ns3:hr>
            <ns3:cad>49</ns3:cad>
          </ns3:TrackPointExtension>
        </extensions>
      </trkpt>
      <trkpt lat="43.4572096355259418487548828125" lon="1.43097460269927978515625">
        <ele>157.1999969482421875</ele>
        <time>2026-08-05T12:07:34.000Z</time>
        <extensions>
          <ns3:TrackPointExtension>
            <ns3:hr>91</ns3:hr>
            <ns3:cad>46</ns3:cad>
          </ns3:TrackPointExtension>
        </extensions>
      </trkpt>
      <trkpt lat="43.457201085984706878662109375" lon="1.43098491244018077850341796875">
        <ele>157.1999969482421875</ele>
        <time>2026-08-05T12:07:35.000Z</time>
        <extensions>
          <ns3:TrackPointExtension>
            <ns3:hr>91</ns3:hr>
            <ns3:cad>43</ns3:cad>
          </ns3:TrackPointExtension>
        </extensions>
      </trkpt>
      <trkpt lat="43.45719513483345508575439453125" lon="1.43099379725754261016845703125">
        <ele>157.1999969482421875</ele>
        <time>2026-08-05T12:07:36.000Z</time>
        <extensions>
          <ns3:TrackPointExtension>
            <ns3:hr>91</ns3:hr>
            <ns3:cad>42</ns3:cad>
          </ns3:TrackPointExtension>
        </extensions>
      </trkpt>
      <trkpt lat="43.45718658529222011566162109375" lon="1.431003771722316741943359375">
        <ele>157.399993896484375</ele>
        <time>2026-08-05T12:07:37.000Z</time>
        <extensions>
          <ns3:TrackPointExtension>
            <ns3:hr>91</ns3:hr>
            <ns3:cad>42</ns3:cad>
          </ns3:TrackPointExtension>
        </extensions>
      </trkpt>
      <trkpt lat="43.45717434771358966827392578125" lon="1.43101542256772518157958984375">
        <ele>157.399993896484375</ele>
        <time>2026-08-05T12:07:38.000Z</time>
        <extensions>
          <ns3:TrackPointExtension>
            <ns3:hr>90</ns3:hr>
            <ns3:cad>42</ns3:cad>
          </ns3:TrackPointExtension>
        </extensions>
      </trkpt>
      <trkpt lat="43.45716294832527637481689453125" lon="1.4310247264802455902099609375">
        <ele>157.399993896484375</ele>
        <time>2026-08-05T12:07:39.000Z</time>
        <extensions>
          <ns3:TrackPointExtension>
            <ns3:hr>90</ns3:hr>
            <ns3:cad>43</ns3:cad>
          </ns3:TrackPointExtension>
        </extensions>
      </trkpt>
      <trkpt lat="43.45715573988854885101318359375" lon="1.4310317672789096832275390625">
        <ele>157.399993896484375</ele>
        <time>2026-08-05T12:07:40.000Z</time>
        <extensions>
          <ns3:TrackPointExtension>
            <ns3:hr>90</ns3:hr>
            <ns3:cad>44</ns3:cad>
          </ns3:TrackPointExtension>
        </extensions>
      </trkpt>
      <trkpt lat="43.4571482799947261810302734375" lon="1.43103973008692264556884765625">
        <ele>157.399993896484375</ele>
        <time>2026-08-05T12:07:41.000Z</time>
        <extensions>
          <ns3:TrackPointExtension>
            <ns3:hr>90</ns3:hr>
            <ns3:cad>45</ns3:cad>
          </ns3:TrackPointExtension>
        </extensions>
      </trkpt>
      <trkpt lat="43.4571422450244426727294921875" lon="1.4310455136001110076904296875">
        <ele>157.399993896484375</ele>
        <time>2026-08-05T12:07:42.000Z</time>
        <extensions>
          <ns3:TrackPointExtension>
            <ns3:hr>90</ns3:hr>
            <ns3:cad>45</ns3:cad>
          </ns3:TrackPointExtension>
        </extensions>
      </trkpt>
      <trkpt lat="43.45713428221642971038818359375" lon="1.431057415902614593505859375">
        <ele>157.399993896484375</ele>
        <time>2026-08-05T12:07:43.000Z</time>
        <extensions>
          <ns3:TrackPointExtension>
            <ns3:hr>90</ns3:hr>
            <ns3:cad>45</ns3:cad>
          </ns3:TrackPointExtension>
        </extensions>
      </trkpt>
      <trkpt lat="43.457126319408416748046875" lon="1.431066803634166717529296875">
        <ele>157.399993896484375</ele>
        <time>2026-08-05T12:07:44.000Z</time>
        <extensions>
          <ns3:TrackPointExtension>
            <ns3:hr>90</ns3:hr>
            <ns3:cad>45</ns3:cad>
          </ns3:TrackPointExtension>
        </extensions>
      </trkpt>
      <trkpt lat="43.45712053589522838592529296875" lon="1.43107241950929164886474609375">
        <ele>157.399993896484375</ele>
        <time>2026-08-05T12:07:45.000Z</time>
        <extensions>
          <ns3:TrackPointExtension>
            <ns3:hr>90</ns3:hr>
            <ns3:cad>45</ns3:cad>
          </ns3:TrackPointExtension>
        </extensions>
      </trkpt>
      <trkpt lat="43.457111231982707977294921875" lon="1.43108180724084377288818359375">
        <ele>157.1999969482421875</ele>
        <time>2026-08-05T12:07:46.000Z</time>
        <extensions>
          <ns3:TrackPointExtension>
            <ns3:hr>90</ns3:hr>
            <ns3:cad>45</ns3:cad>
          </ns3:TrackPointExtension>
        </extensions>
      </trkpt>
      <trkpt lat="43.45710058696568012237548828125" lon="1.43108784221112728118896484375">
        <ele>157.1999969482421875</ele>
        <time>2026-08-05T12:07:47.000Z</time>
        <extensions>
          <ns3:TrackPointExtension>
            <ns3:hr>89</ns3:hr>
            <ns3:cad>46</ns3:cad>
          </ns3:TrackPointExtension>
        </extensions>
      </trkpt>
      <trkpt lat="43.45709212124347686767578125" lon="1.431094966828823089599609375">
        <ele>157.1999969482421875</ele>
        <time>2026-08-05T12:07:48.000Z</time>
        <extensions>
          <ns3:TrackPointExtension>
            <ns3:hr>89</ns3:hr>
            <ns3:cad>48</ns3:cad>
          </ns3:TrackPointExtension>
        </extensions>
      </trkpt>
      <trkpt lat="43.457085080444812774658203125" lon="1.43110007978975772857666015625">
        <ele>157</ele>
        <time>2026-08-05T12:07:49.000Z</time>
        <extensions>
          <ns3:TrackPointExtension>
            <ns3:hr>89</ns3:hr>
            <ns3:cad>48</ns3:cad>
          </ns3:TrackPointExtension>
        </extensions>
      </trkpt>
      <trkpt lat="43.45707862637937068939208984375" lon="1.431104354560375213623046875">
        <ele>157</ele>
        <time>2026-08-05T12:07:50.000Z</time>
        <extensions>
          <ns3:TrackPointExtension>
            <ns3:hr>90</ns3:hr>
            <ns3:cad>48</ns3:cad>
          </ns3:TrackPointExtension>
        </extensions>
      </trkpt>
      <trkpt lat="43.457077704370021820068359375" lon="1.43111701123416423797607421875">
        <ele>157</ele>
        <time>2026-08-05T12:07:51.000Z</time>
        <extensions>
          <ns3:TrackPointExtension>
            <ns3:hr>90</ns3:hr>
            <ns3:cad>48</ns3:cad>
          </ns3:TrackPointExtension>
        </extensions>
      </trkpt>
      <trkpt lat="43.45707225613296031951904296875" lon="1.43112480640411376953125">
        <ele>157</ele>
        <time>2026-08-05T12:07:52.000Z</time>
        <extensions>
          <ns3:TrackPointExtension>
            <ns3:hr>90</ns3:hr>
            <ns3:cad>49</ns3:cad>
          </ns3:TrackPointExtension>
        </extensions>
      </trkpt>
      <trkpt lat="43.45706454478204250335693359375" lon="1.431135199964046478271484375">
        <ele>157.1999969482421875</ele>
        <time>2026-08-05T12:07:53.000Z</time>
        <extensions>
          <ns3:TrackPointExtension>
            <ns3:hr>90</ns3:hr>
            <ns3:cad>49</ns3:cad>
          </ns3:TrackPointExtension>
        </extensions>
      </trkpt>
      <trkpt lat="43.45705733634531497955322265625" lon="1.4311444200575351715087890625">
        <ele>157.1999969482421875</ele>
        <time>2026-08-05T12:07:54.000Z</time>
        <extensions>
          <ns3:TrackPointExtension>
            <ns3:hr>90</ns3:hr>
            <ns3:cad>49</ns3:cad>
          </ns3:TrackPointExtension>
        </extensions>
      </trkpt>
      <trkpt lat="43.45705180428922176361083984375" lon="1.43115422688424587249755859375">
        <ele>157.1999969482421875</ele>
        <time>2026-08-05T12:07:55.000Z</time>
        <extensions>
          <ns3:TrackPointExtension>
            <ns3:hr>89</ns3:hr>
            <ns3:cad>46</ns3:cad>
          </ns3:TrackPointExtension>
        </extensions>
      </trkpt>
      <trkpt lat="43.457047529518604278564453125" lon="1.4311642013490200042724609375">
        <ele>157.1999969482421875</ele>
        <time>2026-08-05T12:07:56.000Z</time>
        <extensions>
          <ns3:TrackPointExtension>
            <ns3:hr>89</ns3:hr>
            <ns3:cad>44</ns3:cad>
          </ns3:TrackPointExtension>
        </extensions>
      </trkpt>
      <trkpt lat="43.457042835652828216552734375" lon="1.43117249943315982818603515625">
        <ele>157.1999969482421875</ele>
        <time>2026-08-05T12:07:57.000Z</time>
        <extensions>
          <ns3:TrackPointExtension>
            <ns3:hr>87</ns3:hr>
            <ns3:cad>44</ns3:cad>
          </ns3:TrackPointExtension>
        </extensions>
      </trkpt>
      <trkpt lat="43.45703856088221073150634765625" lon="1.431182138621807098388671875">
        <ele>157.1999969482421875</ele>
        <time>2026-08-05T12:07:58.000Z</time>
        <extensions>
          <ns3:TrackPointExtension>
            <ns3:hr>86</ns3:hr>
            <ns3:cad>44</ns3:cad>
          </ns3:TrackPointExtension>
        </extensions>
      </trkpt>
      <trkpt lat="43.457036130130290985107421875" lon="1.43118758685886859893798828125">
        <ele>157.1999969482421875</ele>
        <time>2026-08-05T12:07:59.000Z</time>
        <extensions>
          <ns3:TrackPointExtension>
            <ns3:hr>85</ns3:hr>
            <ns3:cad>44</ns3:cad>
          </ns3:TrackPointExtension>
        </extensions>
      </trkpt>
      <trkpt lat="43.457024060189723968505859375" lon="1.4311985671520233154296875">
        <ele>157.1999969482421875</ele>
        <time>2026-08-05T12:08:00.000Z</time>
        <extensions>
          <ns3:TrackPointExtension>
            <ns3:hr>84</ns3:hr>
            <ns3:cad>44</ns3:cad>
          </ns3:TrackPointExtension>
        </extensions>
      </trkpt>
      <trkpt lat="43.4570176899433135986328125" lon="1.431207619607448577880859375">
        <ele>157.1999969482421875</ele>
        <time>2026-08-05T12:08:01.000Z</time>
        <extensions>
          <ns3:TrackPointExtension>
            <ns3:hr>84</ns3:hr>
            <ns3:cad>44</ns3:cad>
          </ns3:TrackPointExtension>
        </extensions>
      </trkpt>
      <trkpt lat="43.45701106823980808258056640625" lon="1.43122111447155475616455078125">
        <ele>157.399993896484375</ele>
        <time>2026-08-05T12:08:02.000Z</time>
        <extensions>
          <ns3:TrackPointExtension>
            <ns3:hr>83</ns3:hr>
            <ns3:cad>42</ns3:cad>
          </ns3:TrackPointExtension>
        </extensions>
      </trkpt>
      <trkpt lat="43.45700536854565143585205078125" lon="1.43123217858374118804931640625">
        <ele>157.399993896484375</ele>
        <time>2026-08-05T12:08:03.000Z</time>
        <extensions>
          <ns3:TrackPointExtension>
            <ns3:hr>83</ns3:hr>
            <ns3:cad>42</ns3:cad>
          </ns3:TrackPointExtension>
        </extensions>
      </trkpt>
      <trkpt lat="43.4569994173943996429443359375" lon="1.431241817772388458251953125">
        <ele>157.399993896484375</ele>
        <time>2026-08-05T12:08:04.000Z</time>
        <extensions>
          <ns3:TrackPointExtension>
            <ns3:hr>83</ns3:hr>
            <ns3:cad>44</ns3:cad>
          </ns3:TrackPointExtension>
        </extensions>
      </trkpt>
      <trkpt lat="43.45699153840541839599609375" lon="1.43125246278941631317138671875">
        <ele>157.399993896484375</ele>
        <time>2026-08-05T12:08:05.000Z</time>
        <extensions>
          <ns3:TrackPointExtension>
            <ns3:hr>83</ns3:hr>
            <ns3:cad>44</ns3:cad>
          </ns3:TrackPointExtension>
        </extensions>
      </trkpt>
      <trkpt lat="43.45698474906384944915771484375" lon="1.43126361072063446044921875">
        <ele>157.399993896484375</ele>
        <time>2026-08-05T12:08:06.000Z</time>
        <extensions>
          <ns3:TrackPointExtension>
            <ns3:hr>83</ns3:hr>
            <ns3:cad>44</ns3:cad>
          </ns3:TrackPointExtension>
        </extensions>
      </trkpt>
      <trkpt lat="43.4569806419312953948974609375" lon="1.4312724955379962921142578125">
        <ele>157.399993896484375</ele>
        <time>2026-08-05T12:08:07.000Z</time>
        <extensions>
          <ns3:TrackPointExtension>
            <ns3:hr>83</ns3:hr>
            <ns3:cad>44</ns3:cad>
          </ns3:TrackPointExtension>
        </extensions>
      </trkpt>
      <trkpt lat="43.45697653479874134063720703125" lon="1.4312832243740558624267578125">
        <ele>157.399993896484375</ele>
        <time>2026-08-05T12:08:08.000Z</time>
        <extensions>
          <ns3:TrackPointExtension>
            <ns3:hr>83</ns3:hr>
            <ns3:cad>44</ns3:cad>
          </ns3:TrackPointExtension>
        </extensions>
      </trkpt>
      <trkpt lat="43.45697033219039440155029296875" lon="1.4313018321990966796875">
        <ele>157.399993896484375</ele>
        <time>2026-08-05T12:08:09.000Z</time>
        <extensions>
          <ns3:TrackPointExtension>
            <ns3:hr>83</ns3:hr>
            <ns3:cad>45</ns3:cad>
          </ns3:TrackPointExtension>
        </extensions>
      </trkpt>
      <trkpt lat="43.456965386867523193359375" lon="1.43131298013031482696533203125">
        <ele>157.600006103515625</ele>
        <time>2026-08-05T12:08:10.000Z</time>
        <extensions>
          <ns3:TrackPointExtension>
            <ns3:hr>83</ns3:hr>
            <ns3:cad>45</ns3:cad>
          </ns3:TrackPointExtension>
        </extensions>
      </trkpt>
      <trkpt lat="43.45696144737303256988525390625" lon="1.431324295699596405029296875">
        <ele>157.8000030517578125</ele>
        <time>2026-08-05T12:08:11.000Z</time>
        <extensions>
          <ns3:TrackPointExtension>
            <ns3:hr>83</ns3:hr>
            <ns3:cad>45</ns3:cad>
          </ns3:TrackPointExtension>
        </extensions>
      </trkpt>
      <trkpt lat="43.45696094445884227752685546875" lon="1.4313298277556896209716796875">
        <ele>158</ele>
        <time>2026-08-05T12:08:12.000Z</time>
        <extensions>
          <ns3:TrackPointExtension>
            <ns3:hr>84</ns3:hr>
            <ns3:cad>45</ns3:cad>
          </ns3:TrackPointExtension>
        </extensions>
      </trkpt>
      <trkpt lat="43.45695910044014453887939453125" lon="1.431337036192417144775390625">
        <ele>158.1999969482421875</ele>
        <time>2026-08-05T12:08:13.000Z</time>
        <extensions>
          <ns3:TrackPointExtension>
            <ns3:hr>84</ns3:hr>
            <ns3:cad>45</ns3:cad>
          </ns3:TrackPointExtension>
        </extensions>
      </trkpt>
      <trkpt lat="43.45696069300174713134765625" lon="1.4313475973904132843017578125">
        <ele>158.399993896484375</ele>
        <time>2026-08-05T12:08:14.000Z</time>
        <extensions>
          <ns3:TrackPointExtension>
            <ns3:hr>85</ns3:hr>
            <ns3:cad>45</ns3:cad>
          </ns3:TrackPointExtension>
        </extensions>
      </trkpt>
      <trkpt lat="43.45696060918271541595458984375" lon="1.43135338090360164642333984375">
        <ele>158.600006103515625</ele>
        <time>2026-08-05T12:08:15.000Z</time>
        <extensions>
          <ns3:TrackPointExtension>
            <ns3:hr>86</ns3:hr>
            <ns3:cad>46</ns3:cad>
          </ns3:TrackPointExtension>
        </extensions>
      </trkpt>
      <trkpt lat="43.45696044154465198516845703125" lon="1.431361176073551177978515625">
        <ele>158.8000030517578125</ele>
        <time>2026-08-05T12:08:16.000Z</time>
        <extensions>
          <ns3:TrackPointExtension>
            <ns3:hr>86</ns3:hr>
            <ns3:cad>46</ns3:cad>
          </ns3:TrackPointExtension>
        </extensions>
      </trkpt>
      <trkpt lat="43.45696178264915943145751953125" lon="1.43137383274734020233154296875">
        <ele>159</ele>
        <time>2026-08-05T12:08:17.000Z</time>
        <extensions>
          <ns3:TrackPointExtension>
            <ns3:hr>87</ns3:hr>
            <ns3:cad>45</ns3:cad>
          </ns3:TrackPointExtension>
        </extensions>
      </trkpt>
      <trkpt lat="43.45695935189723968505859375" lon="1.43138489685952663421630859375">
        <ele>159.399993896484375</ele>
        <time>2026-08-05T12:08:18.000Z</time>
        <extensions>
          <ns3:TrackPointExtension>
            <ns3:hr>88</ns3:hr>
            <ns3:cad>45</ns3:cad>
          </ns3:TrackPointExtension>
        </extensions>
      </trkpt>
      <trkpt lat="43.45695641823112964630126953125" lon="1.43139394931495189666748046875">
        <ele>159.600006103515625</ele>
        <time>2026-08-05T12:08:19.000Z</time>
        <extensions>
          <ns3:TrackPointExtension>
            <ns3:hr>89</ns3:hr>
            <ns3:cad>45</ns3:cad>
          </ns3:TrackPointExtension>
        </extensions>
      </trkpt>
      <trkpt lat="43.45695138908922672271728515625" lon="1.43140308558940887451171875">
        <ele>159.8000030517578125</ele>
        <time>2026-08-05T12:08:20.000Z</time>
        <extensions>
          <ns3:TrackPointExtension>
            <ns3:hr>90</ns3:hr>
            <ns3:cad>45</ns3:cad>
          </ns3:TrackPointExtension>
        </extensions>
      </trkpt>
      <trkpt lat="43.4569466114044189453125" lon="1.43141691572964191436767578125">
        <ele>160</ele>
        <time>2026-08-05T12:08:21.000Z</time>
        <extensions>
          <ns3:TrackPointExtension>
            <ns3:hr>91</ns3:hr>
            <ns3:cad>0</ns3:cad>
          </ns3:TrackPointExtension>
        </extensions>
      </trkpt>
      <trkpt lat="43.45694216899573802947998046875" lon="1.43142948858439922332763671875">
        <ele>160.1999969482421875</ele>
        <time>2026-08-05T12:08:22.000Z</time>
        <extensions>
          <ns3:TrackPointExtension>
            <ns3:hr>92</ns3:hr>
            <ns3:cad>0</ns3:cad>
          </ns3:TrackPointExtension>
        </extensions>
      </trkpt>
      <trkpt lat="43.45693764276802539825439453125" lon="1.43143669702112674713134765625">
        <ele>160.399993896484375</ele>
        <time>2026-08-05T12:08:23.000Z</time>
        <extensions>
          <ns3:TrackPointExtension>
            <ns3:hr>93</ns3:hr>
            <ns3:cad>0</ns3:cad>
          </ns3:TrackPointExtension>
        </extensions>
      </trkpt>
      <trkpt lat="43.45693076960742473602294921875" lon="1.43144574947655200958251953125">
        <ele>160.8000030517578125</ele>
        <time>2026-08-05T12:08:24.000Z</time>
        <extensions>
          <ns3:TrackPointExtension>
            <ns3:hr>94</ns3:hr>
            <ns3:cad>45</ns3:cad>
          </ns3:TrackPointExtension>
        </extensions>
      </trkpt>
      <trkpt lat="43.45692406408488750457763671875" lon="1.43145580776035785675048828125">
        <ele>161</ele>
        <time>2026-08-05T12:08:25.000Z</time>
        <extensions>
          <ns3:TrackPointExtension>
            <ns3:hr>95</ns3:hr>
            <ns3:cad>45</ns3:cad>
          </ns3:TrackPointExtension>
        </extensions>
      </trkpt>
      <trkpt lat="43.45692045986652374267578125" lon="1.4314575679600238800048828125">
        <ele>161.1999969482421875</ele>
        <time>2026-08-05T12:08:26.000Z</time>
        <extensions>
          <ns3:TrackPointExtension>
            <ns3:hr>95</ns3:hr>
            <ns3:cad>0</ns3:cad>
          </ns3:TrackPointExtension>
        </extensions>
      </trkpt>
      <trkpt lat="43.4569162689149379730224609375" lon="1.43146075308322906494140625">
        <ele>161.600006103515625</ele>
        <time>2026-08-05T12:08:27.000Z</time>
        <extensions>
          <ns3:TrackPointExtension>
            <ns3:hr>96</ns3:hr>
            <ns3:cad>0</ns3:cad>
          </ns3:TrackPointExtension>
        </extensions>
      </trkpt>
      <trkpt lat="43.45691350288689136505126953125" lon="1.43146335147321224212646484375">
        <ele>161.8000030517578125</ele>
        <time>2026-08-05T12:08:28.000Z</time>
        <extensions>
          <ns3:TrackPointExtension>
            <ns3:hr>97</ns3:hr>
            <ns3:cad>0</ns3:cad>
          </ns3:TrackPointExtension>
        </extensions>
      </trkpt>
      <trkpt lat="43.45691299997270107269287109375" lon="1.431465446949005126953125">
        <ele>162</ele>
        <time>2026-08-05T12:08:29.000Z</time>
        <extensions>
          <ns3:TrackPointExtension>
            <ns3:hr>98</ns3:hr>
            <ns3:cad>0</ns3:cad>
          </ns3:TrackPointExtension>
        </extensions>
      </trkpt>
      <trkpt lat="43.4569166041910648345947265625" lon="1.43146167509257793426513671875">
        <ele>162</ele>
        <time>2026-08-05T12:08:30.000Z</time>
        <extensions>
          <ns3:TrackPointExtension>
            <ns3:hr>99</ns3:hr>
            <ns3:cad>0</ns3:cad>
          </ns3:TrackPointExtension>
        </extensions>
      </trkpt>
      <trkpt lat="43.45691618509590625762939453125" lon="1.43146402202546596527099609375">
        <ele>162.1999969482421875</ele>
        <time>2026-08-05T12:08:31.000Z</time>
        <extensions>
          <ns3:TrackPointExtension>
            <ns3:hr>100</ns3:hr>
            <ns3:cad>0</ns3:cad>
          </ns3:TrackPointExtension>
        </extensions>
      </trkpt>
      <trkpt lat="43.4569139219820499420166015625" lon="1.43147475086152553558349609375">
        <ele>162.1999969482421875</ele>
        <time>2026-08-05T12:08:32.000Z</time>
        <extensions>
          <ns3:TrackPointExtension>
            <ns3:hr>101</ns3:hr>
            <ns3:cad>0</ns3:cad>
          </ns3:TrackPointExtension>
        </extensions>
      </trkpt>
      <trkpt lat="43.456910066306591033935546875" lon="1.4314828813076019287109375">
        <ele>162.1999969482421875</ele>
        <time>2026-08-05T12:08:33.000Z</time>
        <extensions>
          <ns3:TrackPointExtension>
            <ns3:hr>102</ns3:hr>
            <ns3:cad>0</ns3:cad>
          </ns3:TrackPointExtension>
        </extensions>
      </trkpt>
      <trkpt lat="43.4569050371646881103515625" lon="1.4314917661249637603759765625">
        <ele>162.399993896484375</ele>
        <time>2026-08-05T12:08:34.000Z</time>
        <extensions>
          <ns3:TrackPointExtension>
            <ns3:hr>103</ns3:hr>
            <ns3:cad>0</ns3:cad>
          </ns3:TrackPointExtension>
        </extensions>
      </trkpt>
      <trkpt lat="43.4569018520414829254150390625" lon="1.43150308169424533843994140625">
        <ele>162.600006103515625</ele>
        <time>2026-08-05T12:08:35.000Z</time>
        <extensions>
          <ns3:TrackPointExtension>
            <ns3:hr>104</ns3:hr>
            <ns3:cad>0</ns3:cad>
          </ns3:TrackPointExtension>
        </extensions>
      </trkpt>
      <trkpt lat="43.45689875073730945587158203125" lon="1.4315155707299709320068359375">
        <ele>162.600006103515625</ele>
        <time>2026-08-05T12:08:36.000Z</time>
        <extensions>
          <ns3:TrackPointExtension>
            <ns3:hr>105</ns3:hr>
            <ns3:cad>0</ns3:cad>
          </ns3:TrackPointExtension>
        </extensions>
      </trkpt>
      <trkpt lat="43.45689606852829456329345703125" lon="1.4315259642899036407470703125">
        <ele>162.8000030517578125</ele>
        <time>2026-08-05T12:08:37.000Z</time>
        <extensions>
          <ns3:TrackPointExtension>
            <ns3:hr>105</ns3:hr>
            <ns3:cad>0</ns3:cad>
          </ns3:TrackPointExtension>
        </extensions>
      </trkpt>
      <trkpt lat="43.45689238049089908599853515625" lon="1.43153677694499492645263671875">
        <ele>163.1999969482421875</ele>
        <time>2026-08-05T12:08:38.000Z</time>
        <extensions>
          <ns3:TrackPointExtension>
            <ns3:hr>106</ns3:hr>
            <ns3:cad>0</ns3:cad>
          </ns3:TrackPointExtension>
        </extensions>
      </trkpt>
      <trkpt lat="43.4568914584815502166748046875" lon="1.43154281191527843475341796875">
        <ele>163.399993896484375</ele>
        <time>2026-08-05T12:08:39.000Z</time>
        <extensions>
          <ns3:TrackPointExtension>
            <ns3:hr>106</ns3:hr>
            <ns3:cad>0</ns3:cad>
          </ns3:TrackPointExtension>
        </extensions>
      </trkpt>
      <trkpt lat="43.45689489506185054779052734375" lon="1.43155035562813282012939453125">
        <ele>163.600006103515625</ele>
        <time>2026-08-05T12:08:40.000Z</time>
        <extensions>
          <ns3:TrackPointExtension>
            <ns3:hr>107</ns3:hr>
            <ns3:cad>0</ns3:cad>
          </ns3:TrackPointExtension>
        </extensions>
      </trkpt>
      <trkpt lat="43.45689908601343631744384765625" lon="1.43155203200876712799072265625">
        <ele>163.8000030517578125</ele>
        <time>2026-08-05T12:08:41.000Z</time>
        <extensions>
          <ns3:TrackPointExtension>
            <ns3:hr>107</ns3:hr>
            <ns3:cad>0</ns3:cad>
          </ns3:TrackPointExtension>
        </extensions>
      </trkpt>
      <trkpt lat="43.456904031336307525634765625" lon="1.4315501041710376739501953125">
        <ele>164</ele>
        <time>2026-08-05T12:08:42.000Z</time>
        <extensions>
          <ns3:TrackPointExtension>
            <ns3:hr>108</ns3:hr>
            <ns3:cad>0</ns3:cad>
          </ns3:TrackPointExtension>
        </extensions>
      </trkpt>
      <trkpt lat="43.45690830610692501068115234375" lon="1.4315437339246273040771484375">
        <ele>164.1999969482421875</ele>
        <time>2026-08-05T12:08:43.000Z</time>
        <extensions>
          <ns3:TrackPointExtension>
            <ns3:hr>108</ns3:hr>
            <ns3:cad>0</ns3:cad>
          </ns3:TrackPointExtension>
        </extensions>
      </trkpt>
      <trkpt lat="43.45691375434398651123046875" lon="1.43153526820242404937744140625">
        <ele>164.399993896484375</ele>
        <time>2026-08-05T12:08:44.000Z</time>
        <extensions>
          <ns3:TrackPointExtension>
            <ns3:hr>109</ns3:hr>
            <ns3:cad>79</ns3:cad>
          </ns3:TrackPointExtension>
        </extensions>
      </trkpt>
      <trkpt lat="43.45692087896168231964111328125" lon="1.43152588047087192535400390625">
        <ele>164.600006103515625</ele>
        <time>2026-08-05T12:08:45.000Z</time>
        <extensions>
          <ns3:TrackPointExtension>
            <ns3:hr>110</ns3:hr>
            <ns3:cad>0</ns3:cad>
          </ns3:TrackPointExtension>
        </extensions>
      </trkpt>
      <trkpt lat="43.4569264948368072509765625" lon="1.431516744196414947509765625">
        <ele>164.600006103515625</ele>
        <time>2026-08-05T12:08:46.000Z</time>
        <extensions>
          <ns3:TrackPointExtension>
            <ns3:hr>111</ns3:hr>
            <ns3:cad>0</ns3:cad>
          </ns3:TrackPointExtension>
        </extensions>
      </trkpt>
      <trkpt lat="43.45693311654031276702880859375" lon="1.431508362293243408203125">
        <ele>164.600006103515625</ele>
        <time>2026-08-05T12:08:47.000Z</time>
        <extensions>
          <ns3:TrackPointExtension>
            <ns3:hr>111</ns3:hr>
            <ns3:cad>0</ns3:cad>
          </ns3:TrackPointExtension>
        </extensions>
      </trkpt>
      <trkpt lat="43.4569373913109302520751953125" lon="1.4315031655132770538330078125">
        <ele>164.600006103515625</ele>
        <time>2026-08-05T12:08:48.000Z</time>
        <extensions>
          <ns3:TrackPointExtension>
            <ns3:hr>112</ns3:hr>
            <ns3:cad>0</ns3:cad>
          </ns3:TrackPointExtension>
        </extensions>
      </trkpt>
      <trkpt lat="43.45694267190992832183837890625" lon="1.431497633457183837890625">
        <ele>164.600006103515625</ele>
        <time>2026-08-05T12:08:49.000Z</time>
        <extensions>
          <ns3:TrackPointExtension>
            <ns3:hr>113</ns3:hr>
            <ns3:cad>0</ns3:cad>
          </ns3:TrackPointExtension>
        </extensions>
      </trkpt>
      <trkpt lat="43.4569444321095943450927734375" lon="1.43149369396269321441650390625">
        <ele>164.600006103515625</ele>
        <time>2026-08-05T12:08:50.000Z</time>
        <extensions>
          <ns3:TrackPointExtension>
            <ns3:hr>114</ns3:hr>
            <ns3:cad>0</ns3:cad>
          </ns3:TrackPointExtension>
        </extensions>
      </trkpt>
      <trkpt lat="43.4569481201469898223876953125" lon="1.43148749135434627532958984375">
        <ele>164.8000030517578125</ele>
        <time>2026-08-05T12:08:51.000Z</time>
        <extensions>
          <ns3:TrackPointExtension>
            <ns3:hr>114</ns3:hr>
            <ns3:cad>0</ns3:cad>
          </ns3:TrackPointExtension>
        </extensions>
      </trkpt>
      <trkpt lat="43.45694904215633869171142578125" lon="1.43148581497371196746826171875">
        <ele>164.8000030517578125</ele>
        <time>2026-08-05T12:08:52.000Z</time>
        <extensions>
          <ns3:TrackPointExtension>
            <ns3:hr>114</ns3:hr>
            <ns3:cad>0</ns3:cad>
          </ns3:TrackPointExtension>
        </extensions>
      </trkpt>
      <trkpt lat="43.4569544903934001922607421875" lon="1.431481204926967620849609375">
        <ele>164.8000030517578125</ele>
        <time>2026-08-05T12:08:53.000Z</time>
        <extensions>
          <ns3:TrackPointExtension>
            <ns3:hr>114</ns3:hr>
            <ns3:cad>0</ns3:cad>
          </ns3:TrackPointExtension>
        </extensions>
      </trkpt>
      <trkpt lat="43.45696044154465198516845703125" lon="1.4314750023186206817626953125">
        <ele>165</ele>
        <time>2026-08-05T12:08:54.000Z</time>
        <extensions>
          <ns3:TrackPointExtension>
            <ns3:hr>115</ns3:hr>
            <ns3:cad>69</ns3:cad>
          </ns3:TrackPointExtension>
        </extensions>
      </trkpt>
      <trkpt lat="43.4569658897817134857177734375" lon="1.43147374503314495086669921875">
        <ele>165.1999969482421875</ele>
        <time>2026-08-05T12:08:55.000Z</time>
        <extensions>
          <ns3:TrackPointExtension>
            <ns3:hr>115</ns3:hr>
            <ns3:cad>69</ns3:cad>
          </ns3:TrackPointExtension>
        </extensions>
      </trkpt>
      <trkpt lat="43.45697200857102870941162109375" lon="1.43147408030927181243896484375">
        <ele>165.1999969482421875</ele>
        <time>2026-08-05T12:08:56.000Z</time>
        <extensions>
          <ns3:TrackPointExtension>
            <ns3:hr>115</ns3:hr>
            <ns3:cad>69</ns3:cad>
          </ns3:TrackPointExtension>
        </extensions>
      </trkpt>
      <trkpt lat="43.456975109875202178955078125" lon="1.4314763434231281280517578125">
        <ele>165.399993896484375</ele>
        <time>2026-08-05T12:08:57.000Z</time>
        <extensions>
          <ns3:TrackPointExtension>
            <ns3:hr>115</ns3:hr>
            <ns3:cad>65</ns3:cad>
          </ns3:TrackPointExtension>
        </extensions>
      </trkpt>
      <trkpt lat="43.45697703771293163299560546875" lon="1.4314807020127773284912109375">
        <ele>165.600006103515625</ele>
        <time>2026-08-05T12:08:58.000Z</time>
        <extensions>
          <ns3:TrackPointExtension>
            <ns3:hr>115</ns3:hr>
            <ns3:cad>0</ns3:cad>
          </ns3:TrackPointExtension>
        </extensions>
      </trkpt>
      <trkpt lat="43.4569782949984073638916015625" lon="1.4314874075353145599365234375">
        <ele>165.8000030517578125</ele>
        <time>2026-08-05T12:08:59.000Z</time>
        <extensions>
          <ns3:TrackPointExtension>
            <ns3:hr>115</ns3:hr>
            <ns3:cad>18</ns3:cad>
          </ns3:TrackPointExtension>
        </extensions>
      </trkpt>
      <trkpt lat="43.45698156394064426422119140625" lon="1.43149587325751781463623046875">
        <ele>166.1999969482421875</ele>
        <time>2026-08-05T12:09:00.000Z</time>
        <extensions>
          <ns3:TrackPointExtension>
            <ns3:hr>115</ns3:hr>
            <ns3:cad>18</ns3:cad>
          </ns3:TrackPointExtension>
        </extensions>
      </trkpt>
      <trkpt lat="43.45698349177837371826171875" lon="1.43151481635868549346923828125">
        <ele>166.399993896484375</ele>
        <time>2026-08-05T12:09:01.000Z</time>
        <extensions>
          <ns3:TrackPointExtension>
            <ns3:hr>116</ns3:hr>
            <ns3:cad>18</ns3:cad>
          </ns3:TrackPointExtension>
        </extensions>
      </trkpt>
      <trkpt lat="43.45698441378772258758544921875" lon="1.43152537755668163299560546875">
        <ele>166.600006103515625</ele>
        <time>2026-08-05T12:09:02.000Z</time>
        <extensions>
          <ns3:TrackPointExtension>
            <ns3:hr>116</ns3:hr>
            <ns3:cad>18</ns3:cad>
          </ns3:TrackPointExtension>
        </extensions>
      </trkpt>
      <trkpt lat="43.45698156394064426422119140625" lon="1.4315410517156124114990234375">
        <ele>167</ele>
        <time>2026-08-05T12:09:03.000Z</time>
        <extensions>
          <ns3:TrackPointExtension>
            <ns3:hr>116</ns3:hr>
            <ns3:cad>18</ns3:cad>
          </ns3:TrackPointExtension>
        </extensions>
      </trkpt>
      <trkpt lat="43.456983156502246856689453125" lon="1.4315547980368137359619140625">
        <ele>167.1999969482421875</ele>
        <time>2026-08-05T12:09:04.000Z</time>
        <extensions>
          <ns3:TrackPointExtension>
            <ns3:hr>116</ns3:hr>
            <ns3:cad>18</ns3:cad>
          </ns3:TrackPointExtension>
        </extensions>
      </trkpt>
      <trkpt lat="43.4569801390171051025390625" lon="1.431567706167697906494140625">
        <ele>167.399993896484375</ele>
        <time>2026-08-05T12:09:05.000Z</time>
        <extensions>
          <ns3:TrackPointExtension>
            <ns3:hr>116</ns3:hr>
            <ns3:cad>18</ns3:cad>
          </ns3:TrackPointExtension>
        </extensions>
      </trkpt>
      <trkpt lat="43.45697619952261447906494140625" lon="1.43158488906919956207275390625">
        <ele>167.8000030517578125</ele>
        <time>2026-08-05T12:09:06.000Z</time>
        <extensions>
          <ns3:TrackPointExtension>
            <ns3:hr>117</ns3:hr>
            <ns3:cad>18</ns3:cad>
          </ns3:TrackPointExtension>
        </extensions>
      </trkpt>
      <trkpt lat="43.4569712541997432708740234375" lon="1.4315946958959102630615234375">
        <ele>168</ele>
        <time>2026-08-05T12:09:07.000Z</time>
        <extensions>
          <ns3:TrackPointExtension>
            <ns3:hr>119</ns3:hr>
            <ns3:cad>18</ns3:cad>
          </ns3:TrackPointExtension>
        </extensions>
      </trkpt>
      <trkpt lat="43.4569658897817134857177734375" lon="1.43160835839807987213134765625">
        <ele>168.1999969482421875</ele>
        <time>2026-08-05T12:09:08.000Z</time>
        <extensions>
          <ns3:TrackPointExtension>
            <ns3:hr>120</ns3:hr>
            <ns3:cad>18</ns3:cad>
          </ns3:TrackPointExtension>
        </extensions>
      </trkpt>
      <trkpt lat="43.45695373602211475372314453125" lon="1.43161489628255367279052734375">
        <ele>168.399993896484375</ele>
        <time>2026-08-05T12:09:09.000Z</time>
        <extensions>
          <ns3:TrackPointExtension>
            <ns3:hr>123</ns3:hr>
            <ns3:cad>18</ns3:cad>
          </ns3:TrackPointExtension>
        </extensions>
      </trkpt>
      <trkpt lat="43.45693680457770824432373046875" lon="1.43162730149924755096435546875">
        <ele>168.600006103515625</ele>
        <time>2026-08-05T12:09:10.000Z</time>
        <extensions>
          <ns3:TrackPointExtension>
            <ns3:hr>124</ns3:hr>
            <ns3:cad>18</ns3:cad>
          </ns3:TrackPointExtension>
        </extensions>
      </trkpt>
      <trkpt lat="43.45692624337971210479736328125" lon="1.43163601867854595184326171875">
        <ele>168.8000030517578125</ele>
        <time>2026-08-05T12:09:11.000Z</time>
        <extensions>
          <ns3:TrackPointExtension>
            <ns3:hr>124</ns3:hr>
            <ns3:cad>18</ns3:cad>
          </ns3:TrackPointExtension>
        </extensions>
      </trkpt>
      <trkpt lat="43.45691769383847713470458984375" lon="1.43164138309657573699951171875">
        <ele>168.8000030517578125</ele>
        <time>2026-08-05T12:09:12.000Z</time>
        <extensions>
          <ns3:TrackPointExtension>
            <ns3:hr>125</ns3:hr>
            <ns3:cad>53</ns3:cad>
          </ns3:TrackPointExtension>
        </extensions>
      </trkpt>
      <trkpt lat="43.45691065303981304168701171875" lon="1.431650854647159576416015625">
        <ele>168.8000030517578125</ele>
        <time>2026-08-05T12:09:13.000Z</time>
        <extensions>
          <ns3:TrackPointExtension>
            <ns3:hr>125</ns3:hr>
            <ns3:cad>53</ns3:cad>
          </ns3:TrackPointExtension>
        </extensions>
      </trkpt>
      <trkpt lat="43.45690646208822727203369140625" lon="1.43166284076869487762451171875">
        <ele>169</ele>
        <time>2026-08-05T12:09:14.000Z</time>
        <extensions>
          <ns3:TrackPointExtension>
            <ns3:hr>126</ns3:hr>
            <ns3:cad>0</ns3:cad>
          </ns3:TrackPointExtension>
        </extensions>
      </trkpt>
      <trkpt lat="43.45690277405083179473876953125" lon="1.431672312319278717041015625">
        <ele>169</ele>
        <time>2026-08-05T12:09:15.000Z</time>
        <extensions>
          <ns3:TrackPointExtension>
            <ns3:hr>126</ns3:hr>
            <ns3:cad>0</ns3:cad>
          </ns3:TrackPointExtension>
        </extensions>
      </trkpt>
      <trkpt lat="43.45689757727086544036865234375" lon="1.43168211914598941802978515625">
        <ele>169.1999969482421875</ele>
        <time>2026-08-05T12:09:16.000Z</time>
        <extensions>
          <ns3:TrackPointExtension>
            <ns3:hr>126</ns3:hr>
            <ns3:cad>0</ns3:cad>
          </ns3:TrackPointExtension>
        </extensions>
      </trkpt>
      <trkpt lat="43.45689657144248485565185546875" lon="1.43168781884014606475830078125">
        <ele>169.399993896484375</ele>
        <time>2026-08-05T12:09:17.000Z</time>
        <extensions>
          <ns3:TrackPointExtension>
            <ns3:hr>126</ns3:hr>
            <ns3:cad>0</ns3:cad>
          </ns3:TrackPointExtension>
        </extensions>
      </trkpt>
      <trkpt lat="43.4568958170711994171142578125" lon="1.4316905848681926727294921875">
        <ele>169.600006103515625</ele>
        <time>2026-08-05T12:09:18.000Z</time>
        <extensions>
          <ns3:TrackPointExtension>
            <ns3:hr>126</ns3:hr>
            <ns3:cad>0</ns3:cad>
          </ns3:TrackPointExtension>
        </extensions>
      </trkpt>
      <trkpt lat="43.4568988345563411712646484375" lon="1.4316885732114315032958984375">
        <ele>169.8000030517578125</ele>
        <time>2026-08-05T12:09:19.000Z</time>
        <extensions>
          <ns3:TrackPointExtension>
            <ns3:hr>126</ns3:hr>
            <ns3:cad>0</ns3:cad>
          </ns3:TrackPointExtension>
        </extensions>
      </trkpt>
      <trkpt lat="43.4568996727466583251953125" lon="1.431690752506256103515625">
        <ele>169.8000030517578125</ele>
        <time>2026-08-05T12:09:20.000Z</time>
        <extensions>
          <ns3:TrackPointExtension>
            <ns3:hr>126</ns3:hr>
            <ns3:cad>0</ns3:cad>
          </ns3:TrackPointExtension>
        </extensions>
      </trkpt>
      <trkpt lat="43.45690009184181690216064453125" lon="1.43169050104916095733642578125">
        <ele>170</ele>
        <time>2026-08-05T12:09:21.000Z</time>
        <extensions>
          <ns3:TrackPointExtension>
            <ns3:hr>127</ns3:hr>
            <ns3:cad>0</ns3:cad>
          </ns3:TrackPointExtension>
        </extensions>
      </trkpt>
      <trkpt lat="43.4569015167653560638427734375" lon="1.431694440543651580810546875">
        <ele>170</ele>
        <time>2026-08-05T12:09:22.000Z</time>
        <extensions>
          <ns3:TrackPointExtension>
            <ns3:hr>128</ns3:hr>
            <ns3:cad>0</ns3:cad>
          </ns3:TrackPointExtension>
        </extensions>
      </trkpt>
      <trkpt lat="43.456897325813770294189453125" lon="1.4316969551146030426025390625">
        <ele>170</ele>
        <time>2026-08-05T12:09:23.000Z</time>
        <extensions>
          <ns3:TrackPointExtension>
            <ns3:hr>129</ns3:hr>
            <ns3:cad>0</ns3:cad>
          </ns3:TrackPointExtension>
        </extensions>
      </trkpt>
      <trkpt lat="43.45689690671861171722412109375" lon="1.4317001402378082275390625">
        <ele>170</ele>
        <time>2026-08-05T12:09:24.000Z</time>
        <extensions>
          <ns3:TrackPointExtension>
            <ns3:hr>128</ns3:hr>
            <ns3:cad>0</ns3:cad>
          </ns3:TrackPointExtension>
        </extensions>
      </trkpt>
      <trkpt lat="43.45689690671861171722412109375" lon="1.4317001402378082275390625">
        <ele>170</ele>
        <time>2026-08-05T12:09:25.000Z</time>
        <extensions>
          <ns3:TrackPointExtension>
            <ns3:hr>128</ns3:hr>
            <ns3:cad>0</ns3:cad>
          </ns3:TrackPointExtension>
        </extensions>
      </trkpt>
      <trkpt lat="43.45689690671861171722412109375" lon="1.4317001402378082275390625">
        <ele>170</ele>
        <time>2026-08-05T12:09:26.000Z</time>
        <extensions>
          <ns3:TrackPointExtension>
            <ns3:hr>128</ns3:hr>
            <ns3:cad>0</ns3:cad>
          </ns3:TrackPointExtension>
        </extensions>
      </trkpt>
      <trkpt lat="43.45689690671861171722412109375" lon="1.4317001402378082275390625">
        <ele>170</ele>
        <time>2026-08-05T12:09:27.000Z</time>
        <extensions>
          <ns3:TrackPointExtension>
            <ns3:hr>128</ns3:hr>
            <ns3:cad>0</ns3:cad>
          </ns3:TrackPointExtension>
        </extensions>
      </trkpt>
      <trkpt lat="43.45689690671861171722412109375" lon="1.4317001402378082275390625">
        <ele>170</ele>
        <time>2026-08-05T12:09:28.000Z</time>
        <extensions>
          <ns3:TrackPointExtension>
            <ns3:hr>127</ns3:hr>
            <ns3:cad>0</ns3:cad>
          </ns3:TrackPointExtension>
        </extensions>
      </trkpt>
      <trkpt lat="43.45689690671861171722412109375" lon="1.4317001402378082275390625">
        <ele>170.1999969482421875</ele>
        <time>2026-08-05T12:09:29.000Z</time>
        <extensions>
          <ns3:TrackPointExtension>
            <ns3:hr>126</ns3:hr>
            <ns3:cad>0</ns3:cad>
          </ns3:TrackPointExtension>
        </extensions>
      </trkpt>
      <trkpt lat="43.45689690671861171722412109375" lon="1.4317001402378082275390625">
        <ele>170.1999969482421875</ele>
        <time>2026-08-05T12:09:30.000Z</time>
        <extensions>
          <ns3:TrackPointExtension>
            <ns3:hr>126</ns3:hr>
            <ns3:cad>0</ns3:cad>
          </ns3:TrackPointExtension>
        </extensions>
      </trkpt>
      <trkpt lat="43.45689690671861171722412109375" lon="1.4317001402378082275390625">
        <ele>170.1999969482421875</ele>
        <time>2026-08-05T12:09:31.000Z</time>
        <extensions>
          <ns3:TrackPointExtension>
            <ns3:hr>125</ns3:hr>
            <ns3:cad>0</ns3:cad>
          </ns3:TrackPointExtension>
        </extensions>
      </trkpt>
      <trkpt lat="43.45689690671861171722412109375" lon="1.4317001402378082275390625">
        <ele>170.1999969482421875</ele>
        <time>2026-08-05T12:09:32.000Z</time>
        <extensions>
          <ns3:TrackPointExtension>
            <ns3:hr>125</ns3:hr>
            <ns3:cad>0</ns3:cad>
          </ns3:TrackPointExtension>
        </extensions>
      </trkpt>
      <trkpt lat="43.45689690671861171722412109375" lon="1.4317001402378082275390625">
        <ele>170.1999969482421875</ele>
        <time>2026-08-05T12:09:33.000Z</time>
        <extensions>
          <ns3:TrackPointExtension>
            <ns3:hr>124</ns3:hr>
            <ns3:cad>0</ns3:cad>
          </ns3:TrackPointExtension>
        </extensions>
      </trkpt>
      <trkpt lat="43.45689690671861171722412109375" lon="1.4317001402378082275390625">
        <ele>170.1999969482421875</ele>
        <time>2026-08-05T12:09:34.000Z</time>
        <extensions>
          <ns3:TrackPointExtension>
            <ns3:hr>123</ns3:hr>
            <ns3:cad>0</ns3:cad>
          </ns3:TrackPointExtension>
        </extensions>
      </trkpt>
      <trkpt lat="43.45689690671861171722412109375" lon="1.4317001402378082275390625">
        <ele>170.1999969482421875</ele>
        <time>2026-08-05T12:09:35.000Z</time>
        <extensions>
          <ns3:TrackPointExtension>
            <ns3:hr>123</ns3:hr>
            <ns3:cad>0</ns3:cad>
          </ns3:TrackPointExtension>
        </extensions>
      </trkpt>
      <trkpt lat="43.45689690671861171722412109375" lon="1.4317001402378082275390625">
        <ele>170.1999969482421875</ele>
        <time>2026-08-05T12:09:36.000Z</time>
        <extensions>
          <ns3:TrackPointExtension>
            <ns3:hr>123</ns3:hr>
            <ns3:cad>0</ns3:cad>
          </ns3:TrackPointExtension>
        </extensions>
      </trkpt>
      <trkpt lat="43.45689690671861171722412109375" lon="1.4317001402378082275390625">
        <ele>170.1999969482421875</ele>
        <time>2026-08-05T12:09:37.000Z</time>
        <extensions>
          <ns3:TrackPointExtension>
            <ns3:hr>123</ns3:hr>
            <ns3:cad>0</ns3:cad>
          </ns3:TrackPointExtension>
        </extensions>
      </trkpt>
      <trkpt lat="43.45689690671861171722412109375" lon="1.4317001402378082275390625">
        <ele>170.1999969482421875</ele>
        <time>2026-08-05T12:09:38.000Z</time>
        <extensions>
          <ns3:TrackPointExtension>
            <ns3:hr>123</ns3:hr>
            <ns3:cad>0</ns3:cad>
          </ns3:TrackPointExtension>
        </extensions>
      </trkpt>
      <trkpt lat="43.45689690671861171722412109375" lon="1.4317001402378082275390625">
        <ele>170.1999969482421875</ele>
        <time>2026-08-05T12:09:39.000Z</time>
        <extensions>
          <ns3:TrackPointExtension>
            <ns3:hr>122</ns3:hr>
            <ns3:cad>0</ns3:cad>
          </ns3:TrackPointExtension>
        </extensions>
      </trkpt>
      <trkpt lat="43.45689690671861171722412109375" lon="1.4317001402378082275390625">
        <ele>170.1999969482421875</ele>
        <time>2026-08-05T12:09:40.000Z</time>
        <extensions>
          <ns3:TrackPointExtension>
            <ns3:hr>122</ns3:hr>
            <ns3:cad>0</ns3:cad>
          </ns3:TrackPointExtension>
        </extensions>
      </trkpt>
      <trkpt lat="43.45689690671861171722412109375" lon="1.4317001402378082275390625">
        <ele>170.1999969482421875</ele>
        <time>2026-08-05T12:09:41.000Z</time>
        <extensions>
          <ns3:TrackPointExtension>
            <ns3:hr>122</ns3:hr>
            <ns3:cad>0</ns3:cad>
          </ns3:TrackPointExtension>
        </extensions>
      </trkpt>
      <trkpt lat="43.45689690671861171722412109375" lon="1.4317001402378082275390625">
        <ele>170</ele>
        <time>2026-08-05T12:09:42.000Z</time>
        <extensions>
          <ns3:TrackPointExtension>
            <ns3:hr>122</ns3:hr>
            <ns3:cad>0</ns3:cad>
          </ns3:TrackPointExtension>
        </extensions>
      </trkpt>
      <trkpt lat="43.45689690671861171722412109375" lon="1.4317001402378082275390625">
        <ele>170</ele>
        <time>2026-08-05T12:09:43.000Z</time>
        <extensions>
          <ns3:TrackPointExtension>
            <ns3:hr>122</ns3:hr>
            <ns3:cad>0</ns3:cad>
          </ns3:TrackPointExtension>
        </extensions>
      </trkpt>
      <trkpt lat="43.45689690671861171722412109375" lon="1.4317001402378082275390625">
        <ele>170.1999969482421875</ele>
        <time>2026-08-05T12:09:44.000Z</time>
        <extensions>
          <ns3:TrackPointExtension>
            <ns3:hr>122</ns3:hr>
            <ns3:cad>0</ns3:cad>
          </ns3:TrackPointExtension>
        </extensions>
      </trkpt>
      <trkpt lat="43.45689690671861171722412109375" lon="1.4317001402378082275390625">
        <ele>170.1999969482421875</ele>
        <time>2026-08-05T12:09:45.000Z</time>
        <extensions>
          <ns3:TrackPointExtension>
            <ns3:hr>122</ns3:hr>
            <ns3:cad>0</ns3:cad>
          </ns3:TrackPointExtension>
        </extensions>
      </trkpt>
      <trkpt lat="43.45689690671861171722412109375" lon="1.4317001402378082275390625">
        <ele>170.1999969482421875</ele>
        <time>2026-08-05T12:09:46.000Z</time>
        <extensions>
          <ns3:TrackPointExtension>
            <ns3:hr>121</ns3:hr>
            <ns3:cad>0</ns3:cad>
          </ns3:TrackPointExtension>
        </extensions>
      </trkpt>
      <trkpt lat="43.45689690671861171722412109375" lon="1.4317001402378082275390625">
        <ele>170</ele>
        <time>2026-08-05T12:09:47.000Z</time>
        <extensions>
          <ns3:TrackPointExtension>
            <ns3:hr>121</ns3:hr>
            <ns3:cad>0</ns3:cad>
          </ns3:TrackPointExtension>
        </extensions>
      </trkpt>
      <trkpt lat="43.45689690671861171722412109375" lon="1.4317001402378082275390625">
        <ele>170</ele>
        <time>2026-08-05T12:09:48.000Z</time>
        <extensions>
          <ns3:TrackPointExtension>
            <ns3:hr>121</ns3:hr>
            <ns3:cad>0</ns3:cad>
          </ns3:TrackPointExtension>
        </extensions>
      </trkpt>
      <trkpt lat="43.45689690671861171722412109375" lon="1.4317001402378082275390625">
        <ele>170</ele>
        <time>2026-08-05T12:09:49.000Z</time>
        <extensions>
          <ns3:TrackPointExtension>
            <ns3:hr>121</ns3:hr>
            <ns3:cad>0</ns3:cad>
          </ns3:TrackPointExtension>
        </extensions>
      </trkpt>
      <trkpt lat="43.45689690671861171722412109375" lon="1.4317001402378082275390625">
        <ele>170</ele>
        <time>2026-08-05T12:09:50.000Z</time>
        <extensions>
          <ns3:TrackPointExtension>
            <ns3:hr>121</ns3:hr>
            <ns3:cad>0</ns3:cad>
          </ns3:TrackPointExtension>
        </extensions>
      </trkpt>
      <trkpt lat="43.45689690671861171722412109375" lon="1.4317001402378082275390625">
        <ele>169.8000030517578125</ele>
        <time>2026-08-05T12:09:51.000Z</time>
        <extensions>
          <ns3:TrackPointExtension>
            <ns3:hr>121</ns3:hr>
            <ns3:cad>0</ns3:cad>
          </ns3:TrackPointExtension>
        </extensions>
      </trkpt>
      <trkpt lat="43.45689690671861171722412109375" lon="1.4317001402378082275390625">
        <ele>169.8000030517578125</ele>
        <time>2026-08-05T12:09:52.000Z</time>
        <extensions>
          <ns3:TrackPointExtension>
            <ns3:hr>120</ns3:hr>
            <ns3:cad>0</ns3:cad>
          </ns3:TrackPointExtension>
        </extensions>
      </trkpt>
      <trkpt lat="43.45689690671861171722412109375" lon="1.4317001402378082275390625">
        <ele>169.8000030517578125</ele>
        <time>2026-08-05T12:09:53.000Z</time>
        <extensions>
          <ns3:TrackPointExtension>
            <ns3:hr>120</ns3:hr>
            <ns3:cad>0</ns3:cad>
          </ns3:TrackPointExtension>
        </extensions>
      </trkpt>
      <trkpt lat="43.45689690671861171722412109375" lon="1.4317001402378082275390625">
        <ele>169.8000030517578125</ele>
        <time>2026-08-05T12:09:54.000Z</time>
        <extensions>
          <ns3:TrackPointExtension>
            <ns3:hr>120</ns3:hr>
            <ns3:cad>0</ns3:cad>
          </ns3:TrackPointExtension>
        </extensions>
      </trkpt>
      <trkpt lat="43.45689690671861171722412109375" lon="1.4317001402378082275390625">
        <ele>170</ele>
        <time>2026-08-05T12:09:55.000Z</time>
        <extensions>
          <ns3:TrackPointExtension>
            <ns3:hr>119</ns3:hr>
            <ns3:cad>0</ns3:cad>
          </ns3:TrackPointExtension>
        </extensions>
      </trkpt>
      <trkpt lat="43.45689690671861171722412109375" lon="1.4317001402378082275390625">
        <ele>170</ele>
        <time>2026-08-05T12:09:56.000Z</time>
        <extensions>
          <ns3:TrackPointExtension>
            <ns3:hr>118</ns3:hr>
            <ns3:cad>0</ns3:cad>
          </ns3:TrackPointExtension>
        </extensions>
      </trkpt>
      <trkpt lat="43.45689690671861171722412109375" lon="1.4317001402378082275390625">
        <ele>170</ele>
        <time>2026-08-05T12:09:57.000Z</time>
        <extensions>
          <ns3:TrackPointExtension>
            <ns3:hr>117</ns3:hr>
            <ns3:cad>0</ns3:cad>
          </ns3:TrackPointExtension>
        </extensions>
      </trkpt>
      <trkpt lat="43.45689690671861171722412109375" lon="1.4317001402378082275390625">
        <ele>170</ele>
        <time>2026-08-05T12:09:58.000Z</time>
        <extensions>
          <ns3:TrackPointExtension>
            <ns3:hr>115</ns3:hr>
            <ns3:cad>0</ns3:cad>
          </ns3:TrackPointExtension>
        </extensions>
      </trkpt>
      <trkpt lat="43.45689690671861171722412109375" lon="1.4317001402378082275390625">
        <ele>170</ele>
        <time>2026-08-05T12:09:59.000Z</time>
        <extensions>
          <ns3:TrackPointExtension>
            <ns3:hr>114</ns3:hr>
            <ns3:cad>0</ns3:cad>
          </ns3:TrackPointExtension>
        </extensions>
      </trkpt>
      <trkpt lat="43.45689690671861171722412109375" lon="1.4317001402378082275390625">
        <ele>170</ele>
        <time>2026-08-05T12:10:00.000Z</time>
        <extensions>
          <ns3:TrackPointExtension>
            <ns3:hr>113</ns3:hr>
            <ns3:cad>0</ns3:cad>
          </ns3:TrackPointExtension>
        </extensions>
      </trkpt>
      <trkpt lat="43.45689690671861171722412109375" lon="1.4317001402378082275390625">
        <ele>169.8000030517578125</ele>
        <time>2026-08-05T12:10:01.000Z</time>
        <extensions>
          <ns3:TrackPointExtension>
            <ns3:hr>112</ns3:hr>
            <ns3:cad>0</ns3:cad>
          </ns3:TrackPointExtension>
        </extensions>
      </trkpt>
      <trkpt lat="43.45689690671861171722412109375" lon="1.4317001402378082275390625">
        <ele>169.8000030517578125</ele>
        <time>2026-08-05T12:10:02.000Z</time>
        <extensions>
          <ns3:TrackPointExtension>
            <ns3:hr>112</ns3:hr>
            <ns3:cad>0</ns3:cad>
          </ns3:TrackPointExtension>
        </extensions>
      </trkpt>
      <trkpt lat="43.45689690671861171722412109375" lon="1.4317001402378082275390625">
        <ele>169.8000030517578125</ele>
        <time>2026-08-05T12:10:03.000Z</time>
        <extensions>
          <ns3:TrackPointExtension>
            <ns3:hr>111</ns3:hr>
            <ns3:cad>0</ns3:cad>
          </ns3:TrackPointExtension>
        </extensions>
      </trkpt>
      <trkpt lat="43.45689690671861171722412109375" lon="1.4317001402378082275390625">
        <ele>170</ele>
        <time>2026-08-05T12:10:04.000Z</time>
        <extensions>
          <ns3:TrackPointExtension>
            <ns3:hr>111</ns3:hr>
            <ns3:cad>0</ns3:cad>
          </ns3:TrackPointExtension>
        </extensions>
      </trkpt>
      <trkpt lat="43.45689690671861171722412109375" lon="1.4317001402378082275390625">
        <ele>170</ele>
        <time>2026-08-05T12:10:05.000Z</time>
        <extensions>
          <ns3:TrackPointExtension>
            <ns3:hr>110</ns3:hr>
            <ns3:cad>0</ns3:cad>
          </ns3:TrackPointExtension>
        </extensions>
      </trkpt>
      <trkpt lat="43.45688953064382076263427734375" lon="1.43170793540775775909423828125">
        <ele>170</ele>
        <time>2026-08-05T12:10:06.000Z</time>
        <extensions>
          <ns3:TrackPointExtension>
            <ns3:hr>109</ns3:hr>
            <ns3:cad>0</ns3:cad>
          </ns3:TrackPointExtension>
        </extensions>
      </trkpt>
      <trkpt lat="43.456886596977710723876953125" lon="1.4317133836448192596435546875">
        <ele>170</ele>
        <time>2026-08-05T12:10:07.000Z</time>
        <extensions>
          <ns3:TrackPointExtension>
            <ns3:hr>109</ns3:hr>
            <ns3:cad>0</ns3:cad>
          </ns3:TrackPointExtension>
        </extensions>
      </trkpt>
      <trkpt lat="43.4568854235112667083740234375" lon="1.43172050826251506805419921875">
        <ele>170</ele>
        <time>2026-08-05T12:10:08.000Z</time>
        <extensions>
          <ns3:TrackPointExtension>
            <ns3:hr>109</ns3:hr>
            <ns3:cad>0</ns3:cad>
          </ns3:TrackPointExtension>
        </extensions>
      </trkpt>
      <trkpt lat="43.4568820707499980926513671875" lon="1.4317217655479907989501953125">
        <ele>170</ele>
        <time>2026-08-05T12:10:09.000Z</time>
        <extensions>
          <ns3:TrackPointExtension>
            <ns3:hr>108</ns3:hr>
            <ns3:cad>0</ns3:cad>
          </ns3:TrackPointExtension>
        </extensions>
      </trkpt>
      <trkpt lat="43.45688047818839550018310546875" lon="1.431722603738307952880859375">
        <ele>170</ele>
        <time>2026-08-05T12:10:10.000Z</time>
        <extensions>
          <ns3:TrackPointExtension>
            <ns3:hr>108</ns3:hr>
            <ns3:cad>0</ns3:cad>
          </ns3:TrackPointExtension>
        </extensions>
      </trkpt>
      <trkpt lat="43.45687963999807834625244140625" lon="1.43172352574765682220458984375">
        <ele>170</ele>
        <time>2026-08-05T12:10:11.000Z</time>
        <extensions>
          <ns3:TrackPointExtension>
            <ns3:hr>107</ns3:hr>
            <ns3:cad>0</ns3:cad>
          </ns3:TrackPointExtension>
        </extensions>
      </trkpt>
      <trkpt lat="43.45687896944582462310791015625" lon="1.43172201700508594512939453125">
        <ele>170</ele>
        <time>2026-08-05T12:10:12.000Z</time>
        <extensions>
          <ns3:TrackPointExtension>
            <ns3:hr>107</ns3:hr>
            <ns3:cad>0</ns3:cad>
          </ns3:TrackPointExtension>
        </extensions>
      </trkpt>
      <trkpt lat="43.456879220902919769287109375" lon="1.4317177422344684600830078125">
        <ele>170</ele>
        <time>2026-08-05T12:10:13.000Z</time>
        <extensions>
          <ns3:TrackPointExtension>
            <ns3:hr>106</ns3:hr>
            <ns3:cad>0</ns3:cad>
          </ns3:TrackPointExtension>
        </extensions>
      </trkpt>
      <trkpt lat="43.4568793885409832000732421875" lon="1.43171816132962703704833984375">
        <ele>170</ele>
        <time>2026-08-05T12:10:14.000Z</time>
        <extensions>
          <ns3:TrackPointExtension>
            <ns3:hr>103</ns3:hr>
            <ns3:cad>0</ns3:cad>
          </ns3:TrackPointExtension>
        </extensions>
      </trkpt>
      <trkpt lat="43.4568793885409832000732421875" lon="1.43171816132962703704833984375">
        <ele>170</ele>
        <time>2026-08-05T12:10:15.000Z</time>
        <extensions>
          <ns3:TrackPointExtension>
            <ns3:hr>101</ns3:hr>
            <ns3:cad>0</ns3:cad>
          </ns3:TrackPointExtension>
        </extensions>
      </trkpt>
      <trkpt lat="43.4568793885409832000732421875" lon="1.43171816132962703704833984375">
        <ele>170</ele>
        <time>2026-08-05T12:10:16.000Z</time>
        <extensions>
          <ns3:TrackPointExtension>
            <ns3:hr>100</ns3:hr>
            <ns3:cad>0</ns3:cad>
          </ns3:TrackPointExtension>
        </extensions>
      </trkpt>
      <trkpt lat="43.4568793885409832000732421875" lon="1.43171816132962703704833984375">
        <ele>170</ele>
        <time>2026-08-05T12:10:17.000Z</time>
        <extensions>
          <ns3:TrackPointExtension>
            <ns3:hr>99</ns3:hr>
            <ns3:cad>0</ns3:cad>
          </ns3:TrackPointExtension>
        </extensions>
      </trkpt>
      <trkpt lat="43.4568793885409832000732421875" lon="1.43171816132962703704833984375">
        <ele>170</ele>
        <time>2026-08-05T12:10:18.000Z</time>
        <extensions>
          <ns3:TrackPointExtension>
            <ns3:hr>99</ns3:hr>
            <ns3:cad>0</ns3:cad>
          </ns3:TrackPointExtension>
        </extensions>
      </trkpt>
      <trkpt lat="43.4568793885409832000732421875" lon="1.43171816132962703704833984375">
        <ele>170</ele>
        <time>2026-08-05T12:10:19.000Z</time>
        <extensions>
          <ns3:TrackPointExtension>
            <ns3:hr>98</ns3:hr>
            <ns3:cad>0</ns3:cad>
          </ns3:TrackPointExtension>
        </extensions>
      </trkpt>
      <trkpt lat="43.4568793885409832000732421875" lon="1.43171816132962703704833984375">
        <ele>170</ele>
        <time>2026-08-05T12:10:20.000Z</time>
        <extensions>
          <ns3:TrackPointExtension>
            <ns3:hr>98</ns3:hr>
            <ns3:cad>0</ns3:cad>
          </ns3:TrackPointExtension>
        </extensions>
      </trkpt>
      <trkpt lat="43.4568793885409832000732421875" lon="1.43171816132962703704833984375">
        <ele>169.8000030517578125</ele>
        <time>2026-08-05T12:10:21.000Z</time>
        <extensions>
          <ns3:TrackPointExtension>
            <ns3:hr>97</ns3:hr>
            <ns3:cad>0</ns3:cad>
          </ns3:TrackPointExtension>
        </extensions>
      </trkpt>
      <trkpt lat="43.4568793885409832000732421875" lon="1.43171816132962703704833984375">
        <ele>169.8000030517578125</ele>
        <time>2026-08-05T12:10:22.000Z</time>
        <extensions>
          <ns3:TrackPointExtension>
            <ns3:hr>97</ns3:hr>
            <ns3:cad>0</ns3:cad>
          </ns3:TrackPointExtension>
        </extensions>
      </trkpt>
      <trkpt lat="43.4568793885409832000732421875" lon="1.43171816132962703704833984375">
        <ele>169.8000030517578125</ele>
        <time>2026-08-05T12:10:23.000Z</time>
        <extensions>
          <ns3:TrackPointExtension>
            <ns3:hr>96</ns3:hr>
            <ns3:cad>0</ns3:cad>
          </ns3:TrackPointExtension>
        </extensions>
      </trkpt>
      <trkpt lat="43.4568793885409832000732421875" lon="1.43171816132962703704833984375">
        <ele>169.8000030517578125</ele>
        <time>2026-08-05T12:10:24.000Z</time>
        <extensions>
          <ns3:TrackPointExtension>
            <ns3:hr>95</ns3:hr>
            <ns3:cad>0</ns3:cad>
          </ns3:TrackPointExtension>
        </extensions>
      </trkpt>
      <trkpt lat="43.4568793885409832000732421875" lon="1.43171816132962703704833984375">
        <ele>169.8000030517578125</ele>
        <time>2026-08-05T12:10:25.000Z</time>
        <extensions>
          <ns3:TrackPointExtension>
            <ns3:hr>93</ns3:hr>
            <ns3:cad>0</ns3:cad>
          </ns3:TrackPointExtension>
        </extensions>
      </trkpt>
      <trkpt lat="43.4568793885409832000732421875" lon="1.43171816132962703704833984375">
        <ele>170</ele>
        <time>2026-08-05T12:10:26.000Z</time>
        <extensions>
          <ns3:TrackPointExtension>
            <ns3:hr>92</ns3:hr>
            <ns3:cad>0</ns3:cad>
          </ns3:TrackPointExtension>
        </extensions>
      </trkpt>
      <trkpt lat="43.4568793885409832000732421875" lon="1.43171816132962703704833984375">
        <ele>170</ele>
        <time>2026-08-05T12:10:27.000Z</time>
        <extensions>
          <ns3:TrackPointExtension>
            <ns3:hr>90</ns3:hr>
            <ns3:cad>0</ns3:cad>
          </ns3:TrackPointExtension>
        </extensions>
      </trkpt>
      <trkpt lat="43.4568793885409832000732421875" lon="1.43171816132962703704833984375">
        <ele>170</ele>
        <time>2026-08-05T12:10:28.000Z</time>
        <extensions>
          <ns3:TrackPointExtension>
            <ns3:hr>89</ns3:hr>
            <ns3:cad>0</ns3:cad>
          </ns3:TrackPointExtension>
        </extensions>
      </trkpt>
      <trkpt lat="43.4568793885409832000732421875" lon="1.43171816132962703704833984375">
        <ele>169.8000030517578125</ele>
        <time>2026-08-05T12:10:29.000Z</time>
        <extensions>
          <ns3:TrackPointExtension>
            <ns3:hr>89</ns3:hr>
            <ns3:cad>0</ns3:cad>
          </ns3:TrackPointExtension>
        </extensions>
      </trkpt>
      <trkpt lat="43.4568793885409832000732421875" lon="1.43171816132962703704833984375">
        <ele>169.8000030517578125</ele>
        <time>2026-08-05T12:10:30.000Z</time>
        <extensions>
          <ns3:TrackPointExtension>
            <ns3:hr>88</ns3:hr>
            <ns3:cad>0</ns3:cad>
          </ns3:TrackPointExtension>
        </extensions>
      </trkpt>
      <trkpt lat="43.4568793885409832000732421875" lon="1.43171816132962703704833984375">
        <ele>169.8000030517578125</ele>
        <time>2026-08-05T12:10:31.000Z</time>
        <extensions>
          <ns3:TrackPointExtension>
            <ns3:hr>88</ns3:hr>
            <ns3:cad>0</ns3:cad>
          </ns3:TrackPointExtension>
        </extensions>
      </trkpt>
      <trkpt lat="43.4568793885409832000732421875" lon="1.43171816132962703704833984375">
        <ele>169.8000030517578125</ele>
        <time>2026-08-05T12:10:32.000Z</time>
        <extensions>
          <ns3:TrackPointExtension>
            <ns3:hr>88</ns3:hr>
            <ns3:cad>0</ns3:cad>
          </ns3:TrackPointExtension>
        </extensions>
      </trkpt>
      <trkpt lat="43.4568793885409832000732421875" lon="1.43171816132962703704833984375">
        <ele>169.8000030517578125</ele>
        <time>2026-08-05T12:10:33.000Z</time>
        <extensions>
          <ns3:TrackPointExtension>
            <ns3:hr>88</ns3:hr>
            <ns3:cad>0</ns3:cad>
          </ns3:TrackPointExtension>
        </extensions>
      </trkpt>
      <trkpt lat="43.4568793885409832000732421875" lon="1.43171816132962703704833984375">
        <ele>169.600006103515625</ele>
        <time>2026-08-05T12:10:34.000Z</time>
        <extensions>
          <ns3:TrackPointExtension>
            <ns3:hr>87</ns3:hr>
            <ns3:cad>0</ns3:cad>
          </ns3:TrackPointExtension>
        </extensions>
      </trkpt>
      <trkpt lat="43.4568793885409832000732421875" lon="1.43171816132962703704833984375">
        <ele>169.600006103515625</ele>
        <time>2026-08-05T12:10:35.000Z</time>
        <extensions>
          <ns3:TrackPointExtension>
            <ns3:hr>87</ns3:hr>
            <ns3:cad>0</ns3:cad>
          </ns3:TrackPointExtension>
        </extensions>
      </trkpt>
      <trkpt lat="43.4568793885409832000732421875" lon="1.43171816132962703704833984375">
        <ele>169.600006103515625</ele>
        <time>2026-08-05T12:10:36.000Z</time>
        <extensions>
          <ns3:TrackPointExtension>
            <ns3:hr>87</ns3:hr>
            <ns3:cad>0</ns3:cad>
          </ns3:TrackPointExtension>
        </extensions>
      </trkpt>
      <trkpt lat="43.4568793885409832000732421875" lon="1.43171816132962703704833984375">
        <ele>169.600006103515625</ele>
        <time>2026-08-05T12:10:37.000Z</time>
        <extensions>
          <ns3:TrackPointExtension>
            <ns3:hr>87</ns3:hr>
            <ns3:cad>0</ns3:cad>
          </ns3:TrackPointExtension>
        </extensions>
      </trkpt>
      <trkpt lat="43.4568793885409832000732421875" lon="1.43171816132962703704833984375">
        <ele>169.600006103515625</ele>
        <time>2026-08-05T12:10:38.000Z</time>
        <extensions>
          <ns3:TrackPointExtension>
            <ns3:hr>86</ns3:hr>
            <ns3:cad>0</ns3:cad>
          </ns3:TrackPointExtension>
        </extensions>
      </trkpt>
      <trkpt lat="43.4568793885409832000732421875" lon="1.43171816132962703704833984375">
        <ele>169.600006103515625</ele>
        <time>2026-08-05T12:10:39.000Z</time>
        <extensions>
          <ns3:TrackPointExtension>
            <ns3:hr>85</ns3:hr>
            <ns3:cad>0</ns3:cad>
          </ns3:TrackPointExtension>
        </extensions>
      </trkpt>
      <trkpt lat="43.4568793885409832000732421875" lon="1.43171816132962703704833984375">
        <ele>169.600006103515625</ele>
        <time>2026-08-05T12:10:40.000Z</time>
        <extensions>
          <ns3:TrackPointExtension>
            <ns3:hr>84</ns3:hr>
            <ns3:cad>0</ns3:cad>
          </ns3:TrackPointExtension>
        </extensions>
      </trkpt>
      <trkpt lat="43.4568793885409832000732421875" lon="1.43171816132962703704833984375">
        <ele>169.600006103515625</ele>
        <time>2026-08-05T12:10:41.000Z</time>
        <extensions>
          <ns3:TrackPointExtension>
            <ns3:hr>84</ns3:hr>
            <ns3:cad>0</ns3:cad>
          </ns3:TrackPointExtension>
        </extensions>
      </trkpt>
      <trkpt lat="43.4568793885409832000732421875" lon="1.43171816132962703704833984375">
        <ele>169.600006103515625</ele>
        <time>2026-08-05T12:10:42.000Z</time>
        <extensions>
          <ns3:TrackPointExtension>
            <ns3:hr>84</ns3:hr>
            <ns3:cad>0</ns3:cad>
          </ns3:TrackPointExtension>
        </extensions>
      </trkpt>
      <trkpt lat="43.4568793885409832000732421875" lon="1.43171816132962703704833984375">
        <ele>169.600006103515625</ele>
        <time>2026-08-05T12:10:43.000Z</time>
        <extensions>
          <ns3:TrackPointExtension>
            <ns3:hr>84</ns3:hr>
            <ns3:cad>0</ns3:cad>
          </ns3:TrackPointExtension>
        </extensions>
      </trkpt>
      <trkpt lat="43.4568793885409832000732421875" lon="1.43171816132962703704833984375">
        <ele>169.600006103515625</ele>
        <time>2026-08-05T12:10:44.000Z</time>
        <extensions>
          <ns3:TrackPointExtension>
            <ns3:hr>84</ns3:hr>
            <ns3:cad>0</ns3:cad>
          </ns3:TrackPointExtension>
        </extensions>
      </trkpt>
      <trkpt lat="43.4568793885409832000732421875" lon="1.43171816132962703704833984375">
        <ele>169.600006103515625</ele>
        <time>2026-08-05T12:10:45.000Z</time>
        <extensions>
          <ns3:TrackPointExtension>
            <ns3:hr>84</ns3:hr>
            <ns3:cad>0</ns3:cad>
          </ns3:TrackPointExtension>
        </extensions>
      </trkpt>
      <trkpt lat="43.4568793885409832000732421875" lon="1.43171816132962703704833984375">
        <ele>169.600006103515625</ele>
        <time>2026-08-05T12:10:46.000Z</time>
        <extensions>
          <ns3:TrackPointExtension>
            <ns3:hr>83</ns3:hr>
            <ns3:cad>0</ns3:cad>
          </ns3:TrackPointExtension>
        </extensions>
      </trkpt>
      <trkpt lat="43.4568793885409832000732421875" lon="1.43171816132962703704833984375">
        <ele>169.600006103515625</ele>
        <time>2026-08-05T12:10:47.000Z</time>
        <extensions>
          <ns3:TrackPointExtension>
            <ns3:hr>84</ns3:hr>
            <ns3:cad>0</ns3:cad>
          </ns3:TrackPointExtension>
        </extensions>
      </trkpt>
      <trkpt lat="43.4568793885409832000732421875" lon="1.43171816132962703704833984375">
        <ele>169.600006103515625</ele>
        <time>2026-08-05T12:10:48.000Z</time>
        <extensions>
          <ns3:TrackPointExtension>
            <ns3:hr>84</ns3:hr>
            <ns3:cad>0</ns3:cad>
          </ns3:TrackPointExtension>
        </extensions>
      </trkpt>
      <trkpt lat="43.4568793885409832000732421875" lon="1.43171816132962703704833984375">
        <ele>169.600006103515625</ele>
        <time>2026-08-05T12:10:49.000Z</time>
        <extensions>
          <ns3:TrackPointExtension>
            <ns3:hr>83</ns3:hr>
            <ns3:cad>0</ns3:cad>
          </ns3:TrackPointExtension>
        </extensions>
      </trkpt>
      <trkpt lat="43.4568793885409832000732421875" lon="1.43171816132962703704833984375">
        <ele>169.600006103515625</ele>
        <time>2026-08-05T12:10:50.000Z</time>
        <extensions>
          <ns3:TrackPointExtension>
            <ns3:hr>83</ns3:hr>
            <ns3:cad>0</ns3:cad>
          </ns3:TrackPointExtension>
        </extensions>
      </trkpt>
      <trkpt lat="43.4568793885409832000732421875" lon="1.43171816132962703704833984375">
        <ele>169.600006103515625</ele>
        <time>2026-08-05T12:10:51.000Z</time>
        <extensions>
          <ns3:TrackPointExtension>
            <ns3:hr>83</ns3:hr>
            <ns3:cad>0</ns3:cad>
          </ns3:TrackPointExtension>
        </extensions>
      </trkpt>
      <trkpt lat="43.4568793885409832000732421875" lon="1.43171816132962703704833984375">
        <ele>169.600006103515625</ele>
        <time>2026-08-05T12:10:52.000Z</time>
        <extensions>
          <ns3:TrackPointExtension>
            <ns3:hr>83</ns3:hr>
            <ns3:cad>0</ns3:cad>
          </ns3:TrackPointExtension>
        </extensions>
      </trkpt>
      <trkpt lat="43.4568793885409832000732421875" lon="1.43171816132962703704833984375">
        <ele>169.600006103515625</ele>
        <time>2026-08-05T12:10:53.000Z</time>
        <extensions>
          <ns3:TrackPointExtension>
            <ns3:hr>83</ns3:hr>
            <ns3:cad>0</ns3:cad>
          </ns3:TrackPointExtension>
        </extensions>
      </trkpt>
      <trkpt lat="43.4568793885409832000732421875" lon="1.43171816132962703704833984375">
        <ele>169.600006103515625</ele>
        <time>2026-08-05T12:10:54.000Z</time>
        <extensions>
          <ns3:TrackPointExtension>
            <ns3:hr>83</ns3:hr>
            <ns3:cad>0</ns3:cad>
          </ns3:TrackPointExtension>
        </extensions>
      </trkpt>
      <trkpt lat="43.4568793885409832000732421875" lon="1.43171816132962703704833984375">
        <ele>169.600006103515625</ele>
        <time>2026-08-05T12:10:55.000Z</time>
        <extensions>
          <ns3:TrackPointExtension>
            <ns3:hr>83</ns3:hr>
            <ns3:cad>0</ns3:cad>
          </ns3:TrackPointExtension>
        </extensions>
      </trkpt>
      <trkpt lat="43.4568793885409832000732421875" lon="1.43171816132962703704833984375">
        <ele>169.600006103515625</ele>
        <time>2026-08-05T12:10:56.000Z</time>
        <extensions>
          <ns3:TrackPointExtension>
            <ns3:hr>82</ns3:hr>
            <ns3:cad>0</ns3:cad>
          </ns3:TrackPointExtension>
        </extensions>
      </trkpt>
      <trkpt lat="43.4568793885409832000732421875" lon="1.43171816132962703704833984375">
        <ele>169.600006103515625</ele>
        <time>2026-08-05T12:10:57.000Z</time>
        <extensions>
          <ns3:TrackPointExtension>
            <ns3:hr>82</ns3:hr>
            <ns3:cad>0</ns3:cad>
          </ns3:TrackPointExtension>
        </extensions>
      </trkpt>
      <trkpt lat="43.4568793885409832000732421875" lon="1.43171816132962703704833984375">
        <ele>169.600006103515625</ele>
        <time>2026-08-05T12:10:58.000Z</time>
        <extensions>
          <ns3:TrackPointExtension>
            <ns3:hr>81</ns3:hr>
            <ns3:cad>0</ns3:cad>
          </ns3:TrackPointExtension>
        </extensions>
      </trkpt>
      <trkpt lat="43.4568793885409832000732421875" lon="1.43171816132962703704833984375">
        <ele>169.600006103515625</ele>
        <time>2026-08-05T12:10:59.000Z</time>
        <extensions>
          <ns3:TrackPointExtension>
            <ns3:hr>80</ns3:hr>
            <ns3:cad>0</ns3:cad>
          </ns3:TrackPointExtension>
        </extensions>
      </trkpt>
      <trkpt lat="43.4568793885409832000732421875" lon="1.43171816132962703704833984375">
        <ele>169.600006103515625</ele>
        <time>2026-08-05T12:11:00.000Z</time>
        <extensions>
          <ns3:TrackPointExtension>
            <ns3:hr>78</ns3:hr>
            <ns3:cad>0</ns3:cad>
          </ns3:TrackPointExtension>
        </extensions>
      </trkpt>
      <trkpt lat="43.4568793885409832000732421875" lon="1.43171816132962703704833984375">
        <ele>169.600006103515625</ele>
        <time>2026-08-05T12:11:01.000Z</time>
        <extensions>
          <ns3:TrackPointExtension>
            <ns3:hr>76</ns3:hr>
            <ns3:cad>0</ns3:cad>
          </ns3:TrackPointExtension>
        </extensions>
      </trkpt>
      <trkpt lat="43.4568793885409832000732421875" lon="1.43171816132962703704833984375">
        <ele>169.600006103515625</ele>
        <time>2026-08-05T12:11:02.000Z</time>
        <extensions>
          <ns3:TrackPointExtension>
            <ns3:hr>76</ns3:hr>
            <ns3:cad>0</ns3:cad>
          </ns3:TrackPointExtension>
        </extensions>
      </trkpt>
      <trkpt lat="43.4568793885409832000732421875" lon="1.43171816132962703704833984375">
        <ele>169.399993896484375</ele>
        <time>2026-08-05T12:11:03.000Z</time>
        <extensions>
          <ns3:TrackPointExtension>
            <ns3:hr>76</ns3:hr>
            <ns3:cad>0</ns3:cad>
          </ns3:TrackPointExtension>
        </extensions>
      </trkpt>
      <trkpt lat="43.4568793885409832000732421875" lon="1.43171816132962703704833984375">
        <ele>169.399993896484375</ele>
        <time>2026-08-05T12:11:04.000Z</time>
        <extensions>
          <ns3:TrackPointExtension>
            <ns3:hr>77</ns3:hr>
            <ns3:cad>0</ns3:cad>
          </ns3:TrackPointExtension>
        </extensions>
      </trkpt>
      <trkpt lat="43.4568793885409832000732421875" lon="1.43171816132962703704833984375">
        <ele>169.399993896484375</ele>
        <time>2026-08-05T12:11:05.000Z</time>
        <extensions>
          <ns3:TrackPointExtension>
            <ns3:hr>78</ns3:hr>
            <ns3:cad>0</ns3:cad>
          </ns3:TrackPointExtension>
        </extensions>
      </trkpt>
      <trkpt lat="43.4568793885409832000732421875" lon="1.43171816132962703704833984375">
        <ele>169.399993896484375</ele>
        <time>2026-08-05T12:11:06.000Z</time>
        <extensions>
          <ns3:TrackPointExtension>
            <ns3:hr>77</ns3:hr>
            <ns3:cad>0</ns3:cad>
          </ns3:TrackPointExtension>
        </extensions>
      </trkpt>
      <trkpt lat="43.4568793885409832000732421875" lon="1.43171816132962703704833984375">
        <ele>169.399993896484375</ele>
        <time>2026-08-05T12:11:07.000Z</time>
        <extensions>
          <ns3:TrackPointExtension>
            <ns3:hr>78</ns3:hr>
            <ns3:cad>0</ns3:cad>
          </ns3:TrackPointExtension>
        </extensions>
      </trkpt>
      <trkpt lat="43.4568793885409832000732421875" lon="1.43171816132962703704833984375">
        <ele>169.399993896484375</ele>
        <time>2026-08-05T12:11:08.000Z</time>
        <extensions>
          <ns3:TrackPointExtension>
            <ns3:hr>77</ns3:hr>
            <ns3:cad>0</ns3:cad>
          </ns3:TrackPointExtension>
        </extensions>
      </trkpt>
      <trkpt lat="43.4568793885409832000732421875" lon="1.43171816132962703704833984375">
        <ele>169.399993896484375</ele>
        <time>2026-08-05T12:11:09.000Z</time>
        <extensions>
          <ns3:TrackPointExtension>
            <ns3:hr>77</ns3:hr>
            <ns3:cad>0</ns3:cad>
          </ns3:TrackPointExtension>
        </extensions>
      </trkpt>
      <trkpt lat="43.4568793885409832000732421875" lon="1.43171816132962703704833984375">
        <ele>169.600006103515625</ele>
        <time>2026-08-05T12:11:10.000Z</time>
        <extensions>
          <ns3:TrackPointExtension>
            <ns3:hr>76</ns3:hr>
            <ns3:cad>0</ns3:cad>
          </ns3:TrackPointExtension>
        </extensions>
      </trkpt>
      <trkpt lat="43.4568793885409832000732421875" lon="1.43171816132962703704833984375">
        <ele>169.600006103515625</ele>
        <time>2026-08-05T12:11:11.000Z</time>
        <extensions>
          <ns3:TrackPointExtension>
            <ns3:hr>76</ns3:hr>
            <ns3:cad>0</ns3:cad>
          </ns3:TrackPointExtension>
        </extensions>
      </trkpt>
      <trkpt lat="43.4568793885409832000732421875" lon="1.43171816132962703704833984375">
        <ele>169.600006103515625</ele>
        <time>2026-08-05T12:11:12.000Z</time>
        <extensions>
          <ns3:TrackPointExtension>
            <ns3:hr>76</ns3:hr>
            <ns3:cad>0</ns3:cad>
          </ns3:TrackPointExtension>
        </extensions>
      </trkpt>
      <trkpt lat="43.4568793885409832000732421875" lon="1.43171816132962703704833984375">
        <ele>169.600006103515625</ele>
        <time>2026-08-05T12:11:13.000Z</time>
        <extensions>
          <ns3:TrackPointExtension>
            <ns3:hr>76</ns3:hr>
            <ns3:cad>0</ns3:cad>
          </ns3:TrackPointExtension>
        </extensions>
      </trkpt>
      <trkpt lat="43.4568793885409832000732421875" lon="1.43171816132962703704833984375">
        <ele>169.399993896484375</ele>
        <time>2026-08-05T12:11:14.000Z</time>
        <extensions>
          <ns3:TrackPointExtension>
            <ns3:hr>77</ns3:hr>
            <ns3:cad>0</ns3:cad>
          </ns3:TrackPointExtension>
        </extensions>
      </trkpt>
      <trkpt lat="43.4568793885409832000732421875" lon="1.43171816132962703704833984375">
        <ele>169.399993896484375</ele>
        <time>2026-08-05T12:11:15.000Z</time>
        <extensions>
          <ns3:TrackPointExtension>
            <ns3:hr>78</ns3:hr>
            <ns3:cad>0</ns3:cad>
          </ns3:TrackPointExtension>
        </extensions>
      </trkpt>
      <trkpt lat="43.4568793885409832000732421875" lon="1.43171816132962703704833984375">
        <ele>169.600006103515625</ele>
        <time>2026-08-05T12:11:16.000Z</time>
        <extensions>
          <ns3:TrackPointExtension>
            <ns3:hr>78</ns3:hr>
            <ns3:cad>0</ns3:cad>
          </ns3:TrackPointExtension>
        </extensions>
      </trkpt>
      <trkpt lat="43.4568793885409832000732421875" lon="1.43171816132962703704833984375">
        <ele>169.600006103515625</ele>
        <time>2026-08-05T12:11:17.000Z</time>
        <extensions>
          <ns3:TrackPointExtension>
            <ns3:hr>78</ns3:hr>
            <ns3:cad>0</ns3:cad>
          </ns3:TrackPointExtension>
        </extensions>
      </trkpt>
      <trkpt lat="43.4568793885409832000732421875" lon="1.43171816132962703704833984375">
        <ele>169.600006103515625</ele>
        <time>2026-08-05T12:11:18.000Z</time>
        <extensions>
          <ns3:TrackPointExtension>
            <ns3:hr>80</ns3:hr>
            <ns3:cad>0</ns3:cad>
          </ns3:TrackPointExtension>
        </extensions>
      </trkpt>
      <trkpt lat="43.4568793885409832000732421875" lon="1.43171816132962703704833984375">
        <ele>169.600006103515625</ele>
        <time>2026-08-05T12:11:19.000Z</time>
        <extensions>
          <ns3:TrackPointExtension>
            <ns3:hr>82</ns3:hr>
            <ns3:cad>0</ns3:cad>
          </ns3:TrackPointExtension>
        </extensions>
      </trkpt>
      <trkpt lat="43.4568793885409832000732421875" lon="1.43171816132962703704833984375">
        <ele>169.600006103515625</ele>
        <time>2026-08-05T12:11:20.000Z</time>
        <extensions>
          <ns3:TrackPointExtension>
            <ns3:hr>83</ns3:hr>
            <ns3:cad>0</ns3:cad>
          </ns3:TrackPointExtension>
        </extensions>
      </trkpt>
      <trkpt lat="43.4568793885409832000732421875" lon="1.43171816132962703704833984375">
        <ele>169.600006103515625</ele>
        <time>2026-08-05T12:11:21.000Z</time>
        <extensions>
          <ns3:TrackPointExtension>
            <ns3:hr>83</ns3:hr>
            <ns3:cad>0</ns3:cad>
          </ns3:TrackPointExtension>
        </extensions>
      </trkpt>
      <trkpt lat="43.4568793885409832000732421875" lon="1.43171816132962703704833984375">
        <ele>169.600006103515625</ele>
        <time>2026-08-05T12:11:22.000Z</time>
        <extensions>
          <ns3:TrackPointExtension>
            <ns3:hr>84</ns3:hr>
            <ns3:cad>0</ns3:cad>
          </ns3:TrackPointExtension>
        </extensions>
      </trkpt>
      <trkpt lat="43.4568793885409832000732421875" lon="1.43171816132962703704833984375">
        <ele>169.600006103515625</ele>
        <time>2026-08-05T12:11:23.000Z</time>
        <extensions>
          <ns3:TrackPointExtension>
            <ns3:hr>84</ns3:hr>
            <ns3:cad>0</ns3:cad>
          </ns3:TrackPointExtension>
        </extensions>
      </trkpt>
      <trkpt lat="43.4568793885409832000732421875" lon="1.43171816132962703704833984375">
        <ele>169.600006103515625</ele>
        <time>2026-08-05T12:11:24.000Z</time>
        <extensions>
          <ns3:TrackPointExtension>
            <ns3:hr>84</ns3:hr>
            <ns3:cad>0</ns3:cad>
          </ns3:TrackPointExtension>
        </extensions>
      </trkpt>
      <trkpt lat="43.4568793885409832000732421875" lon="1.43171816132962703704833984375">
        <ele>169.600006103515625</ele>
        <time>2026-08-05T12:11:25.000Z</time>
        <extensions>
          <ns3:TrackPointExtension>
            <ns3:hr>83</ns3:hr>
            <ns3:cad>0</ns3:cad>
          </ns3:TrackPointExtension>
        </extensions>
      </trkpt>
      <trkpt lat="43.4568793885409832000732421875" lon="1.43171816132962703704833984375">
        <ele>169.600006103515625</ele>
        <time>2026-08-05T12:11:26.000Z</time>
        <extensions>
          <ns3:TrackPointExtension>
            <ns3:hr>83</ns3:hr>
            <ns3:cad>0</ns3:cad>
          </ns3:TrackPointExtension>
        </extensions>
      </trkpt>
      <trkpt lat="43.4568793885409832000732421875" lon="1.43171816132962703704833984375">
        <ele>169.600006103515625</ele>
        <time>2026-08-05T12:11:27.000Z</time>
        <extensions>
          <ns3:TrackPointExtension>
            <ns3:hr>82</ns3:hr>
            <ns3:cad>0</ns3:cad>
          </ns3:TrackPointExtension>
        </extensions>
      </trkpt>
      <trkpt lat="43.4568793885409832000732421875" lon="1.43171816132962703704833984375">
        <ele>169.399993896484375</ele>
        <time>2026-08-05T12:11:28.000Z</time>
        <extensions>
          <ns3:TrackPointExtension>
            <ns3:hr>83</ns3:hr>
            <ns3:cad>0</ns3:cad>
          </ns3:TrackPointExtension>
        </extensions>
      </trkpt>
      <trkpt lat="43.4568793885409832000732421875" lon="1.43171816132962703704833984375">
        <ele>169.399993896484375</ele>
        <time>2026-08-05T12:11:29.000Z</time>
        <extensions>
          <ns3:TrackPointExtension>
            <ns3:hr>83</ns3:hr>
            <ns3:cad>0</ns3:cad>
          </ns3:TrackPointExtension>
        </extensions>
      </trkpt>
      <trkpt lat="43.4568793885409832000732421875" lon="1.43171816132962703704833984375">
        <ele>169.399993896484375</ele>
        <time>2026-08-05T12:11:30.000Z</time>
        <extensions>
          <ns3:TrackPointExtension>
            <ns3:hr>84</ns3:hr>
            <ns3:cad>0</ns3:cad>
          </ns3:TrackPointExtension>
        </extensions>
      </trkpt>
      <trkpt lat="43.456887267529964447021484375" lon="1.43171380273997783660888671875">
        <ele>169.600006103515625</ele>
        <time>2026-08-05T12:11:31.000Z</time>
        <extensions>
          <ns3:TrackPointExtension>
            <ns3:hr>83</ns3:hr>
            <ns3:cad>0</ns3:cad>
          </ns3:TrackPointExtension>
        </extensions>
      </trkpt>
      <trkpt lat="43.45688760280609130859375" lon="1.43171153962612152099609375">
        <ele>169.600006103515625</ele>
        <time>2026-08-05T12:11:32.000Z</time>
        <extensions>
          <ns3:TrackPointExtension>
            <ns3:hr>83</ns3:hr>
            <ns3:cad>0</ns3:cad>
          </ns3:TrackPointExtension>
        </extensions>
      </trkpt>
      <trkpt lat="43.45688785426318645477294921875" lon="1.43171229399740695953369140625">
        <ele>169.399993896484375</ele>
        <time>2026-08-05T12:11:33.000Z</time>
        <extensions>
          <ns3:TrackPointExtension>
            <ns3:hr>83</ns3:hr>
            <ns3:cad>0</ns3:cad>
          </ns3:TrackPointExtension>
        </extensions>
      </trkpt>
      <trkpt lat="43.456889949738979339599609375" lon="1.4317083545029163360595703125">
        <ele>169.399993896484375</ele>
        <time>2026-08-05T12:11:34.000Z</time>
        <extensions>
          <ns3:TrackPointExtension>
            <ns3:hr>82</ns3:hr>
            <ns3:cad>0</ns3:cad>
          </ns3:TrackPointExtension>
        </extensions>
      </trkpt>
      <trkpt lat="43.45689238049089908599853515625" lon="1.4317036606371402740478515625">
        <ele>169.399993896484375</ele>
        <time>2026-08-05T12:11:35.000Z</time>
        <extensions>
          <ns3:TrackPointExtension>
            <ns3:hr>81</ns3:hr>
            <ns3:cad>0</ns3:cad>
          </ns3:TrackPointExtension>
        </extensions>
      </trkpt>
      <trkpt lat="43.4568954817950725555419921875" lon="1.43169720657169818878173828125">
        <ele>169.399993896484375</ele>
        <time>2026-08-05T12:11:36.000Z</time>
        <extensions>
          <ns3:TrackPointExtension>
            <ns3:hr>79</ns3:hr>
            <ns3:cad>0</ns3:cad>
          </ns3:TrackPointExtension>
        </extensions>
      </trkpt>
      <trkpt lat="43.45689489506185054779052734375" lon="1.4316949434578418731689453125">
        <ele>169.399993896484375</ele>
        <time>2026-08-05T12:11:37.000Z</time>
        <extensions>
          <ns3:TrackPointExtension>
            <ns3:hr>78</ns3:hr>
            <ns3:cad>0</ns3:cad>
          </ns3:TrackPointExtension>
        </extensions>
      </trkpt>
      <trkpt lat="43.45689573325216770172119140625" lon="1.43169452436268329620361328125">
        <ele>169.600006103515625</ele>
        <time>2026-08-05T12:11:38.000Z</time>
        <extensions>
          <ns3:TrackPointExtension>
            <ns3:hr>78</ns3:hr>
            <ns3:cad>0</ns3:cad>
          </ns3:TrackPointExtension>
        </extensions>
      </trkpt>
      <trkpt lat="43.4568958170711994171142578125" lon="1.431693099439144134521484375">
        <ele>169.600006103515625</ele>
        <time>2026-08-05T12:11:39.000Z</time>
        <extensions>
          <ns3:TrackPointExtension>
            <ns3:hr>79</ns3:hr>
            <ns3:cad>0</ns3:cad>
          </ns3:TrackPointExtension>
        </extensions>
      </trkpt>
      <trkpt lat="43.4568968228995800018310546875" lon="1.43169536255300045013427734375">
        <ele>169.600006103515625</ele>
        <time>2026-08-05T12:11:40.000Z</time>
        <extensions>
          <ns3:TrackPointExtension>
            <ns3:hr>80</ns3:hr>
            <ns3:cad>0</ns3:cad>
          </ns3:TrackPointExtension>
        </extensions>
      </trkpt>
      <trkpt lat="43.4568988345563411712646484375" lon="1.4316949434578418731689453125">
        <ele>169.600006103515625</ele>
        <time>2026-08-05T12:11:41.000Z</time>
        <extensions>
          <ns3:TrackPointExtension>
            <ns3:hr>81</ns3:hr>
            <ns3:cad>0</ns3:cad>
          </ns3:TrackPointExtension>
        </extensions>
      </trkpt>
      <trkpt lat="43.456900678575038909912109375" lon="1.43169569782912731170654296875">
        <ele>169.600006103515625</ele>
        <time>2026-08-05T12:11:42.000Z</time>
        <extensions>
          <ns3:TrackPointExtension>
            <ns3:hr>82</ns3:hr>
            <ns3:cad>0</ns3:cad>
          </ns3:TrackPointExtension>
        </extensions>
      </trkpt>
      <trkpt lat="43.45690210349857807159423828125" lon="1.43169854767620563507080078125">
        <ele>169.600006103515625</ele>
        <time>2026-08-05T12:11:43.000Z</time>
        <extensions>
          <ns3:TrackPointExtension>
            <ns3:hr>82</ns3:hr>
            <ns3:cad>0</ns3:cad>
          </ns3:TrackPointExtension>
        </extensions>
      </trkpt>
      <trkpt lat="43.45690344460308551788330078125" lon="1.4316969551146030426025390625">
        <ele>169.600006103515625</ele>
        <time>2026-08-05T12:11:44.000Z</time>
        <extensions>
          <ns3:TrackPointExtension>
            <ns3:hr>83</ns3:hr>
            <ns3:cad>0</ns3:cad>
          </ns3:TrackPointExtension>
        </extensions>
      </trkpt>
      <trkpt lat="43.4569018520414829254150390625" lon="1.431699134409427642822265625">
        <ele>169.600006103515625</ele>
        <time>2026-08-05T12:11:45.000Z</time>
        <extensions>
          <ns3:TrackPointExtension>
            <ns3:hr>84</ns3:hr>
            <ns3:cad>0</ns3:cad>
          </ns3:TrackPointExtension>
        </extensions>
      </trkpt>
      <trkpt lat="43.4569018520414829254150390625" lon="1.43169938586652278900146484375">
        <ele>169.8000030517578125</ele>
        <time>2026-08-05T12:11:46.000Z</time>
        <extensions>
          <ns3:TrackPointExtension>
            <ns3:hr>85</ns3:hr>
            <ns3:cad>0</ns3:cad>
          </ns3:TrackPointExtension>
        </extensions>
      </trkpt>
      <trkpt lat="43.45690193586051464080810546875" lon="1.43170190043747425079345703125">
        <ele>169.8000030517578125</ele>
        <time>2026-08-05T12:11:47.000Z</time>
        <extensions>
          <ns3:TrackPointExtension>
            <ns3:hr>85</ns3:hr>
            <ns3:cad>0</ns3:cad>
          </ns3:TrackPointExtension>
        </extensions>
      </trkpt>
      <trkpt lat="43.45690377987921237945556640625" lon="1.4317056722939014434814453125">
        <ele>169.8000030517578125</ele>
        <time>2026-08-05T12:11:48.000Z</time>
        <extensions>
          <ns3:TrackPointExtension>
            <ns3:hr>85</ns3:hr>
            <ns3:cad>0</ns3:cad>
          </ns3:TrackPointExtension>
        </extensions>
      </trkpt>
      <trkpt lat="43.456904701888561248779296875" lon="1.43170743249356746673583984375">
        <ele>169.8000030517578125</ele>
        <time>2026-08-05T12:11:49.000Z</time>
        <extensions>
          <ns3:TrackPointExtension>
            <ns3:hr>85</ns3:hr>
            <ns3:cad>0</ns3:cad>
          </ns3:TrackPointExtension>
        </extensions>
      </trkpt>
      <trkpt lat="43.45690310932695865631103515625" lon="1.4317050017416477203369140625">
        <ele>169.600006103515625</ele>
        <time>2026-08-05T12:11:50.000Z</time>
        <extensions>
          <ns3:TrackPointExtension>
            <ns3:hr>85</ns3:hr>
            <ns3:cad>0</ns3:cad>
          </ns3:TrackPointExtension>
        </extensions>
      </trkpt>
      <trkpt lat="43.4569031931459903717041015625" lon="1.43170349299907684326171875">
        <ele>169.600006103515625</ele>
        <time>2026-08-05T12:11:51.000Z</time>
        <extensions>
          <ns3:TrackPointExtension>
            <ns3:hr>85</ns3:hr>
            <ns3:cad>0</ns3:cad>
          </ns3:TrackPointExtension>
        </extensions>
      </trkpt>
      <trkpt lat="43.45690302550792694091796875" lon="1.4317033253610134124755859375">
        <ele>169.600006103515625</ele>
        <time>2026-08-05T12:11:52.000Z</time>
        <extensions>
          <ns3:TrackPointExtension>
            <ns3:hr>85</ns3:hr>
            <ns3:cad>0</ns3:cad>
          </ns3:TrackPointExtension>
        </extensions>
      </trkpt>
      <trkpt lat="43.45690302550792694091796875" lon="1.4317056722939014434814453125">
        <ele>169.600006103515625</ele>
        <time>2026-08-05T12:11:53.000Z</time>
        <extensions>
          <ns3:TrackPointExtension>
            <ns3:hr>86</ns3:hr>
            <ns3:cad>0</ns3:cad>
          </ns3:TrackPointExtension>
        </extensions>
      </trkpt>
      <trkpt lat="43.45690428279340267181396484375" lon="1.4317083545029163360595703125">
        <ele>169.600006103515625</ele>
        <time>2026-08-05T12:11:54.000Z</time>
        <extensions>
          <ns3:TrackPointExtension>
            <ns3:hr>85</ns3:hr>
            <ns3:cad>0</ns3:cad>
          </ns3:TrackPointExtension>
        </extensions>
      </trkpt>
      <trkpt lat="43.45690629445016384124755859375" lon="1.43171489238739013671875">
        <ele>169.600006103515625</ele>
        <time>2026-08-05T12:11:55.000Z</time>
        <extensions>
          <ns3:TrackPointExtension>
            <ns3:hr>85</ns3:hr>
            <ns3:cad>0</ns3:cad>
          </ns3:TrackPointExtension>
        </extensions>
      </trkpt>
      <trkpt lat="43.4569085575640201568603515625" lon="1.4317174069583415985107421875">
        <ele>169.600006103515625</ele>
        <time>2026-08-05T12:11:56.000Z</time>
        <extensions>
          <ns3:TrackPointExtension>
            <ns3:hr>85</ns3:hr>
            <ns3:cad>0</ns3:cad>
          </ns3:TrackPointExtension>
        </extensions>
      </trkpt>
      <trkpt lat="43.45690864138305187225341796875" lon="1.4317254535853862762451171875">
        <ele>169.600006103515625</ele>
        <time>2026-08-05T12:11:57.000Z</time>
        <extensions>
          <ns3:TrackPointExtension>
            <ns3:hr>84</ns3:hr>
            <ns3:cad>0</ns3:cad>
          </ns3:TrackPointExtension>
        </extensions>
      </trkpt>
      <trkpt lat="43.4569082222878932952880859375" lon="1.43173023127019405364990234375">
        <ele>169.600006103515625</ele>
        <time>2026-08-05T12:11:58.000Z</time>
        <extensions>
          <ns3:TrackPointExtension>
            <ns3:hr>83</ns3:hr>
            <ns3:cad>0</ns3:cad>
          </ns3:TrackPointExtension>
        </extensions>
      </trkpt>
      <trkpt lat="43.45690931193530559539794921875" lon="1.4317355118691921234130859375">
        <ele>169.600006103515625</ele>
        <time>2026-08-05T12:11:59.000Z</time>
        <extensions>
          <ns3:TrackPointExtension>
            <ns3:hr>82</ns3:hr>
            <ns3:cad>0</ns3:cad>
          </ns3:TrackPointExtension>
        </extensions>
      </trkpt>
      <trkpt lat="43.45690629445016384124755859375" lon="1.43173878081142902374267578125">
        <ele>169.600006103515625</ele>
        <time>2026-08-05T12:12:00.000Z</time>
        <extensions>
          <ns3:TrackPointExtension>
            <ns3:hr>81</ns3:hr>
            <ns3:cad>0</ns3:cad>
          </ns3:TrackPointExtension>
        </extensions>
      </trkpt>
      <trkpt lat="43.4569035284221172332763671875" lon="1.43174330703914165496826171875">
        <ele>169.600006103515625</ele>
        <time>2026-08-05T12:12:01.000Z</time>
        <extensions>
          <ns3:TrackPointExtension>
            <ns3:hr>80</ns3:hr>
            <ns3:cad>0</ns3:cad>
          </ns3:TrackPointExtension>
        </extensions>
      </trkpt>
      <trkpt lat="43.45690126530826091766357421875" lon="1.4317445643246173858642578125">
        <ele>169.600006103515625</ele>
        <time>2026-08-05T12:12:02.000Z</time>
        <extensions>
          <ns3:TrackPointExtension>
            <ns3:hr>80</ns3:hr>
            <ns3:cad>0</ns3:cad>
          </ns3:TrackPointExtension>
        </extensions>
      </trkpt>
      <trkpt lat="43.45689992420375347137451171875" lon="1.431746743619441986083984375">
        <ele>169.600006103515625</ele>
        <time>2026-08-05T12:12:03.000Z</time>
        <extensions>
          <ns3:TrackPointExtension>
            <ns3:hr>80</ns3:hr>
            <ns3:cad>0</ns3:cad>
          </ns3:TrackPointExtension>
        </extensions>
      </trkpt>
      <trkpt lat="43.45689740963280200958251953125" lon="1.43174531869590282440185546875">
        <ele>169.600006103515625</ele>
        <time>2026-08-05T12:12:04.000Z</time>
        <extensions>
          <ns3:TrackPointExtension>
            <ns3:hr>80</ns3:hr>
            <ns3:cad>0</ns3:cad>
          </ns3:TrackPointExtension>
        </extensions>
      </trkpt>
      <trkpt lat="43.456895649433135986328125" lon="1.4317428879439830780029296875">
        <ele>169.600006103515625</ele>
        <time>2026-08-05T12:12:05.000Z</time>
        <extensions>
          <ns3:TrackPointExtension>
            <ns3:hr>81</ns3:hr>
            <ns3:cad>0</ns3:cad>
          </ns3:TrackPointExtension>
        </extensions>
      </trkpt>
      <trkpt lat="43.4568934701383113861083984375" lon="1.43173978663980960845947265625">
        <ele>169.600006103515625</ele>
        <time>2026-08-05T12:12:06.000Z</time>
        <extensions>
          <ns3:TrackPointExtension>
            <ns3:hr>82</ns3:hr>
            <ns3:cad>0</ns3:cad>
          </ns3:TrackPointExtension>
        </extensions>
      </trkpt>
      <trkpt lat="43.45689355395734310150146484375" lon="1.43173978663980960845947265625">
        <ele>169.600006103515625</ele>
        <time>2026-08-05T12:12:07.000Z</time>
        <extensions>
          <ns3:TrackPointExtension>
            <ns3:hr>82</ns3:hr>
            <ns3:cad>0</ns3:cad>
          </ns3:TrackPointExtension>
        </extensions>
      </trkpt>
      <trkpt lat="43.45689355395734310150146484375" lon="1.43173978663980960845947265625">
        <ele>169.600006103515625</ele>
        <time>2026-08-05T12:12:08.000Z</time>
        <extensions>
          <ns3:TrackPointExtension>
            <ns3:hr>82</ns3:hr>
            <ns3:cad>0</ns3:cad>
          </ns3:TrackPointExtension>
        </extensions>
      </trkpt>
      <trkpt lat="43.45689355395734310150146484375" lon="1.43173978663980960845947265625">
        <ele>169.600006103515625</ele>
        <time>2026-08-05T12:12:09.000Z</time>
        <extensions>
          <ns3:TrackPointExtension>
            <ns3:hr>83</ns3:hr>
            <ns3:cad>0</ns3:cad>
          </ns3:TrackPointExtension>
        </extensions>
      </trkpt>
      <trkpt lat="43.45689355395734310150146484375" lon="1.43173978663980960845947265625">
        <ele>169.600006103515625</ele>
        <time>2026-08-05T12:12:10.000Z</time>
        <extensions>
          <ns3:TrackPointExtension>
            <ns3:hr>82</ns3:hr>
            <ns3:cad>0</ns3:cad>
          </ns3:TrackPointExtension>
        </extensions>
      </trkpt>
      <trkpt lat="43.45689355395734310150146484375" lon="1.43173978663980960845947265625">
        <ele>169.8000030517578125</ele>
        <time>2026-08-05T12:12:11.000Z</time>
        <extensions>
          <ns3:TrackPointExtension>
            <ns3:hr>83</ns3:hr>
            <ns3:cad>0</ns3:cad>
          </ns3:TrackPointExtension>
        </extensions>
      </trkpt>
      <trkpt lat="43.45689355395734310150146484375" lon="1.43173978663980960845947265625">
        <ele>169.8000030517578125</ele>
        <time>2026-08-05T12:12:12.000Z</time>
        <extensions>
          <ns3:TrackPointExtension>
            <ns3:hr>83</ns3:hr>
            <ns3:cad>0</ns3:cad>
          </ns3:TrackPointExtension>
        </extensions>
      </trkpt>
      <trkpt lat="43.45689355395734310150146484375" lon="1.43173978663980960845947265625">
        <ele>169.8000030517578125</ele>
        <time>2026-08-05T12:12:13.000Z</time>
        <extensions>
          <ns3:TrackPointExtension>
            <ns3:hr>83</ns3:hr>
            <ns3:cad>0</ns3:cad>
          </ns3:TrackPointExtension>
        </extensions>
      </trkpt>
      <trkpt lat="43.45689355395734310150146484375" lon="1.43173978663980960845947265625">
        <ele>169.8000030517578125</ele>
        <time>2026-08-05T12:12:14.000Z</time>
        <extensions>
          <ns3:TrackPointExtension>
            <ns3:hr>83</ns3:hr>
            <ns3:cad>0</ns3:cad>
          </ns3:TrackPointExtension>
        </extensions>
      </trkpt>
      <trkpt lat="43.45689355395734310150146484375" lon="1.43173978663980960845947265625">
        <ele>169.600006103515625</ele>
        <time>2026-08-05T12:12:15.000Z</time>
        <extensions>
          <ns3:TrackPointExtension>
            <ns3:hr>84</ns3:hr>
            <ns3:cad>0</ns3:cad>
          </ns3:TrackPointExtension>
        </extensions>
      </trkpt>
      <trkpt lat="43.45689355395734310150146484375" lon="1.43173978663980960845947265625">
        <ele>169.600006103515625</ele>
        <time>2026-08-05T12:12:16.000Z</time>
        <extensions>
          <ns3:TrackPointExtension>
            <ns3:hr>84</ns3:hr>
            <ns3:cad>0</ns3:cad>
          </ns3:TrackPointExtension>
        </extensions>
      </trkpt>
      <trkpt lat="43.45689355395734310150146484375" lon="1.43173978663980960845947265625">
        <ele>169.600006103515625</ele>
        <time>2026-08-05T12:12:17.000Z</time>
        <extensions>
          <ns3:TrackPointExtension>
            <ns3:hr>84</ns3:hr>
            <ns3:cad>0</ns3:cad>
          </ns3:TrackPointExtension>
        </extensions>
      </trkpt>
      <trkpt lat="43.45689355395734310150146484375" lon="1.43173978663980960845947265625">
        <ele>169.8000030517578125</ele>
        <time>2026-08-05T12:12:18.000Z</time>
        <extensions>
          <ns3:TrackPointExtension>
            <ns3:hr>84</ns3:hr>
            <ns3:cad>0</ns3:cad>
          </ns3:TrackPointExtension>
        </extensions>
      </trkpt>
      <trkpt lat="43.45689355395734310150146484375" lon="1.43173978663980960845947265625">
        <ele>169.8000030517578125</ele>
        <time>2026-08-05T12:12:19.000Z</time>
        <extensions>
          <ns3:TrackPointExtension>
            <ns3:hr>83</ns3:hr>
            <ns3:cad>0</ns3:cad>
          </ns3:TrackPointExtension>
        </extensions>
      </trkpt>
      <trkpt lat="43.45689355395734310150146484375" lon="1.43173978663980960845947265625">
        <ele>169.8000030517578125</ele>
        <time>2026-08-05T12:12:20.000Z</time>
        <extensions>
          <ns3:TrackPointExtension>
            <ns3:hr>84</ns3:hr>
            <ns3:cad>0</ns3:cad>
          </ns3:TrackPointExtension>
        </extensions>
      </trkpt>
      <trkpt lat="43.45689355395734310150146484375" lon="1.43173978663980960845947265625">
        <ele>169.8000030517578125</ele>
        <time>2026-08-05T12:12:21.000Z</time>
        <extensions>
          <ns3:TrackPointExtension>
            <ns3:hr>84</ns3:hr>
            <ns3:cad>0</ns3:cad>
          </ns3:TrackPointExtension>
        </extensions>
      </trkpt>
      <trkpt lat="43.45689355395734310150146484375" lon="1.43173978663980960845947265625">
        <ele>169.8000030517578125</ele>
        <time>2026-08-05T12:12:22.000Z</time>
        <extensions>
          <ns3:TrackPointExtension>
            <ns3:hr>84</ns3:hr>
            <ns3:cad>0</ns3:cad>
          </ns3:TrackPointExtension>
        </extensions>
      </trkpt>
      <trkpt lat="43.45690260641276836395263671875" lon="1.43173023127019405364990234375">
        <ele>170</ele>
        <time>2026-08-05T12:12:23.000Z</time>
        <extensions>
          <ns3:TrackPointExtension>
            <ns3:hr>84</ns3:hr>
            <ns3:cad>0</ns3:cad>
          </ns3:TrackPointExtension>
        </extensions>
      </trkpt>
      <trkpt lat="43.4569052048027515411376953125" lon="1.43172620795667171478271484375">
        <ele>170</ele>
        <time>2026-08-05T12:12:24.000Z</time>
        <extensions>
          <ns3:TrackPointExtension>
            <ns3:hr>84</ns3:hr>
            <ns3:cad>0</ns3:cad>
          </ns3:TrackPointExtension>
        </extensions>
      </trkpt>
      <trkpt lat="43.45690713264048099517822265625" lon="1.43173190765082836151123046875">
        <ele>170</ele>
        <time>2026-08-05T12:12:25.000Z</time>
        <extensions>
          <ns3:TrackPointExtension>
            <ns3:hr>83</ns3:hr>
            <ns3:cad>0</ns3:cad>
          </ns3:TrackPointExtension>
        </extensions>
      </trkpt>
      <trkpt lat="43.4569077193737030029296875" lon="1.431739032268524169921875">
        <ele>170.1999969482421875</ele>
        <time>2026-08-05T12:12:26.000Z</time>
        <extensions>
          <ns3:TrackPointExtension>
            <ns3:hr>83</ns3:hr>
            <ns3:cad>0</ns3:cad>
          </ns3:TrackPointExtension>
        </extensions>
      </trkpt>
      <trkpt lat="43.45690780319273471832275390625" lon="1.43175336532294750213623046875">
        <ele>170.399993896484375</ele>
        <time>2026-08-05T12:12:27.000Z</time>
        <extensions>
          <ns3:TrackPointExtension>
            <ns3:hr>83</ns3:hr>
            <ns3:cad>0</ns3:cad>
          </ns3:TrackPointExtension>
        </extensions>
      </trkpt>
      <trkpt lat="43.45690713264048099517822265625" lon="1.43175973556935787200927734375">
        <ele>170.600006103515625</ele>
        <time>2026-08-05T12:12:28.000Z</time>
        <extensions>
          <ns3:TrackPointExtension>
            <ns3:hr>83</ns3:hr>
            <ns3:cad>0</ns3:cad>
          </ns3:TrackPointExtension>
        </extensions>
      </trkpt>
      <trkpt lat="43.45690545625984668731689453125" lon="1.431766860187053680419921875">
        <ele>170.8000030517578125</ele>
        <time>2026-08-05T12:12:29.000Z</time>
        <extensions>
          <ns3:TrackPointExtension>
            <ns3:hr>84</ns3:hr>
            <ns3:cad>0</ns3:cad>
          </ns3:TrackPointExtension>
        </extensions>
      </trkpt>
      <trkpt lat="43.45690210349857807159423828125" lon="1.4317779242992401123046875">
        <ele>171</ele>
        <time>2026-08-05T12:12:30.000Z</time>
        <extensions>
          <ns3:TrackPointExtension>
            <ns3:hr>83</ns3:hr>
            <ns3:cad>0</ns3:cad>
          </ns3:TrackPointExtension>
        </extensions>
      </trkpt>
      <trkpt lat="43.45689724199473857879638671875" lon="1.4317898266017436981201171875">
        <ele>171.1999969482421875</ele>
        <time>2026-08-05T12:12:31.000Z</time>
        <extensions>
          <ns3:TrackPointExtension>
            <ns3:hr>83</ns3:hr>
            <ns3:cad>0</ns3:cad>
          </ns3:TrackPointExtension>
        </extensions>
      </trkpt>
      <trkpt lat="43.45689363777637481689453125" lon="1.43180072307586669921875">
        <ele>171.1999969482421875</ele>
        <time>2026-08-05T12:12:32.000Z</time>
        <extensions>
          <ns3:TrackPointExtension>
            <ns3:hr>83</ns3:hr>
            <ns3:cad>0</ns3:cad>
          </ns3:TrackPointExtension>
        </extensions>
      </trkpt>
      <trkpt lat="43.4568934701383113861083984375" lon="1.4318136312067508697509765625">
        <ele>171.399993896484375</ele>
        <time>2026-08-05T12:12:33.000Z</time>
        <extensions>
          <ns3:TrackPointExtension>
            <ns3:hr>83</ns3:hr>
            <ns3:cad>0</ns3:cad>
          </ns3:TrackPointExtension>
        </extensions>
      </trkpt>
      <trkpt lat="43.45689187757670879364013671875" lon="1.4318236894905567169189453125">
        <ele>171.600006103515625</ele>
        <time>2026-08-05T12:12:34.000Z</time>
        <extensions>
          <ns3:TrackPointExtension>
            <ns3:hr>83</ns3:hr>
            <ns3:cad>0</ns3:cad>
          </ns3:TrackPointExtension>
        </extensions>
      </trkpt>
      <trkpt lat="43.4568924643099308013916015625" lon="1.43183316104114055633544921875">
        <ele>171.8000030517578125</ele>
        <time>2026-08-05T12:12:35.000Z</time>
        <extensions>
          <ns3:TrackPointExtension>
            <ns3:hr>83</ns3:hr>
            <ns3:cad>0</ns3:cad>
          </ns3:TrackPointExtension>
        </extensions>
      </trkpt>
      <trkpt lat="43.4568916261196136474609375" lon="1.43184053711593151092529296875">
        <ele>172</ele>
        <time>2026-08-05T12:12:36.000Z</time>
        <extensions>
          <ns3:TrackPointExtension>
            <ns3:hr>83</ns3:hr>
            <ns3:cad>0</ns3:cad>
          </ns3:TrackPointExtension>
        </extensions>
      </trkpt>
      <trkpt lat="43.45688919536769390106201171875" lon="1.43184741027653217315673828125">
        <ele>172</ele>
        <time>2026-08-05T12:12:37.000Z</time>
        <extensions>
          <ns3:TrackPointExtension>
            <ns3:hr>84</ns3:hr>
            <ns3:cad>0</ns3:cad>
          </ns3:TrackPointExtension>
        </extensions>
      </trkpt>
      <trkpt lat="43.45688550733029842376708984375" lon="1.431854702532291412353515625">
        <ele>172.1999969482421875</ele>
        <time>2026-08-05T12:12:38.000Z</time>
        <extensions>
          <ns3:TrackPointExtension>
            <ns3:hr>84</ns3:hr>
            <ns3:cad>0</ns3:cad>
          </ns3:TrackPointExtension>
        </extensions>
      </trkpt>
      <trkpt lat="43.45687947236001491546630859375" lon="1.431862413883209228515625">
        <ele>172.399993896484375</ele>
        <time>2026-08-05T12:12:39.000Z</time>
        <extensions>
          <ns3:TrackPointExtension>
            <ns3:hr>84</ns3:hr>
            <ns3:cad>0</ns3:cad>
          </ns3:TrackPointExtension>
        </extensions>
      </trkpt>
      <trkpt lat="43.456877879798412322998046875" lon="1.431874148547649383544921875">
        <ele>172.600006103515625</ele>
        <time>2026-08-05T12:12:40.000Z</time>
        <extensions>
          <ns3:TrackPointExtension>
            <ns3:hr>85</ns3:hr>
            <ns3:cad>0</ns3:cad>
          </ns3:TrackPointExtension>
        </extensions>
      </trkpt>
      <trkpt lat="43.456875868141651153564453125" lon="1.4318780042231082916259765625">
        <ele>172.600006103515625</ele>
        <time>2026-08-05T12:12:41.000Z</time>
        <extensions>
          <ns3:TrackPointExtension>
            <ns3:hr>85</ns3:hr>
            <ns3:cad>0</ns3:cad>
          </ns3:TrackPointExtension>
        </extensions>
      </trkpt>
      <trkpt lat="43.45687486231327056884765625" lon="1.43188722431659698486328125">
        <ele>172.8000030517578125</ele>
        <time>2026-08-05T12:12:42.000Z</time>
        <extensions>
          <ns3:TrackPointExtension>
            <ns3:hr>86</ns3:hr>
            <ns3:cad>0</ns3:cad>
          </ns3:TrackPointExtension>
        </extensions>
      </trkpt>
      <trkpt lat="43.456871844828128814697265625" lon="1.43189250491559505462646484375">
        <ele>173</ele>
        <time>2026-08-05T12:12:43.000Z</time>
        <extensions>
          <ns3:TrackPointExtension>
            <ns3:hr>87</ns3:hr>
            <ns3:cad>0</ns3:cad>
          </ns3:TrackPointExtension>
        </extensions>
      </trkpt>
      <trkpt lat="43.45686958171427249908447265625" lon="1.43189971335232257843017578125">
        <ele>173</ele>
        <time>2026-08-05T12:12:44.000Z</time>
        <extensions>
          <ns3:TrackPointExtension>
            <ns3:hr>88</ns3:hr>
            <ns3:cad>0</ns3:cad>
          </ns3:TrackPointExtension>
        </extensions>
      </trkpt>
      <trkpt lat="43.45687226392328739166259765625" lon="1.431902982294559478759765625">
        <ele>173.1999969482421875</ele>
        <time>2026-08-05T12:12:45.000Z</time>
        <extensions>
          <ns3:TrackPointExtension>
            <ns3:hr>90</ns3:hr>
            <ns3:cad>0</ns3:cad>
          </ns3:TrackPointExtension>
        </extensions>
      </trkpt>
      <trkpt lat="43.4568728506565093994140625" lon="1.43191228620707988739013671875">
        <ele>173.1999969482421875</ele>
        <time>2026-08-05T12:12:46.000Z</time>
        <extensions>
          <ns3:TrackPointExtension>
            <ns3:hr>93</ns3:hr>
            <ns3:cad>0</ns3:cad>
          </ns3:TrackPointExtension>
        </extensions>
      </trkpt>
      <trkpt lat="43.4568720124661922454833984375" lon="1.4319165609776973724365234375">
        <ele>173.399993896484375</ele>
        <time>2026-08-05T12:12:47.000Z</time>
        <extensions>
          <ns3:TrackPointExtension>
            <ns3:hr>95</ns3:hr>
            <ns3:cad>0</ns3:cad>
          </ns3:TrackPointExtension>
        </extensions>
      </trkpt>
      <trkpt lat="43.45687343738973140716552734375" lon="1.431923098862171173095703125">
        <ele>173.399993896484375</ele>
        <time>2026-08-05T12:12:48.000Z</time>
        <extensions>
          <ns3:TrackPointExtension>
            <ns3:hr>96</ns3:hr>
            <ns3:cad>0</ns3:cad>
          </ns3:TrackPointExtension>
        </extensions>
      </trkpt>
      <trkpt lat="43.45687142573297023773193359375" lon="1.43192620016634464263916015625">
        <ele>173.600006103515625</ele>
        <time>2026-08-05T12:12:49.000Z</time>
        <extensions>
          <ns3:TrackPointExtension>
            <ns3:hr>96</ns3:hr>
            <ns3:cad>0</ns3:cad>
          </ns3:TrackPointExtension>
        </extensions>
      </trkpt>
      <trkpt lat="43.45687159337103366851806640625" lon="1.43192653544247150421142578125">
        <ele>173.8000030517578125</ele>
        <time>2026-08-05T12:12:50.000Z</time>
        <extensions>
          <ns3:TrackPointExtension>
            <ns3:hr>97</ns3:hr>
            <ns3:cad>0</ns3:cad>
          </ns3:TrackPointExtension>
        </extensions>
      </trkpt>
      <trkpt lat="43.45687159337103366851806640625" lon="1.43192653544247150421142578125">
        <ele>173.8000030517578125</ele>
        <time>2026-08-05T12:12:51.000Z</time>
        <extensions>
          <ns3:TrackPointExtension>
            <ns3:hr>98</ns3:hr>
            <ns3:cad>0</ns3:cad>
          </ns3:TrackPointExtension>
        </extensions>
      </trkpt>
      <trkpt lat="43.4568713419139385223388671875" lon="1.43192670308053493499755859375">
        <ele>174</ele>
        <time>2026-08-05T12:12:52.000Z</time>
        <extensions>
          <ns3:TrackPointExtension>
            <ns3:hr>99</ns3:hr>
            <ns3:cad>0</ns3:cad>
          </ns3:TrackPointExtension>
        </extensions>
      </trkpt>
      <trkpt lat="43.456869833171367645263671875" lon="1.43193894065916538238525390625">
        <ele>174.1999969482421875</ele>
        <time>2026-08-05T12:12:53.000Z</time>
        <extensions>
          <ns3:TrackPointExtension>
            <ns3:hr>100</ns3:hr>
            <ns3:cad>0</ns3:cad>
          </ns3:TrackPointExtension>
        </extensions>
      </trkpt>
      <trkpt lat="43.456865809857845306396484375" lon="1.431947238743305206298828125">
        <ele>174.1999969482421875</ele>
        <time>2026-08-05T12:12:54.000Z</time>
        <extensions>
          <ns3:TrackPointExtension>
            <ns3:hr>100</ns3:hr>
            <ns3:cad>0</ns3:cad>
          </ns3:TrackPointExtension>
        </extensions>
      </trkpt>
      <trkpt lat="43.4568656422197818756103515625" lon="1.43195453099906444549560546875">
        <ele>174.399993896484375</ele>
        <time>2026-08-05T12:12:55.000Z</time>
        <extensions>
          <ns3:TrackPointExtension>
            <ns3:hr>100</ns3:hr>
            <ns3:cad>0</ns3:cad>
          </ns3:TrackPointExtension>
        </extensions>
      </trkpt>
      <trkpt lat="43.45686237327754497528076171875" lon="1.4319624938070774078369140625">
        <ele>174.600006103515625</ele>
        <time>2026-08-05T12:12:56.000Z</time>
        <extensions>
          <ns3:TrackPointExtension>
            <ns3:hr>100</ns3:hr>
            <ns3:cad>0</ns3:cad>
          </ns3:TrackPointExtension>
        </extensions>
      </trkpt>
      <trkpt lat="43.45686011016368865966796875" lon="1.4319628290832042694091796875">
        <ele>174.8000030517578125</ele>
        <time>2026-08-05T12:12:57.000Z</time>
        <extensions>
          <ns3:TrackPointExtension>
            <ns3:hr>101</ns3:hr>
            <ns3:cad>0</ns3:cad>
          </ns3:TrackPointExtension>
        </extensions>
      </trkpt>
      <trkpt lat="43.45686069689691066741943359375" lon="1.4319629967212677001953125">
        <ele>175</ele>
        <time>2026-08-05T12:12:58.000Z</time>
        <extensions>
          <ns3:TrackPointExtension>
            <ns3:hr>101</ns3:hr>
            <ns3:cad>0</ns3:cad>
          </ns3:TrackPointExtension>
        </extensions>
      </trkpt>
      <trkpt lat="43.4568594396114349365234375" lon="1.43196291290223598480224609375">
        <ele>175</ele>
        <time>2026-08-05T12:12:59.000Z</time>
        <extensions>
          <ns3:TrackPointExtension>
            <ns3:hr>101</ns3:hr>
            <ns3:cad>0</ns3:cad>
          </ns3:TrackPointExtension>
        </extensions>
      </trkpt>
      <trkpt lat="43.4568596072494983673095703125" lon="1.4319618232548236846923828125">
        <ele>175.1999969482421875</ele>
        <time>2026-08-05T12:13:00.000Z</time>
        <extensions>
          <ns3:TrackPointExtension>
            <ns3:hr>101</ns3:hr>
            <ns3:cad>0</ns3:cad>
          </ns3:TrackPointExtension>
        </extensions>
      </trkpt>
      <trkpt lat="43.45685818232595920562744140625" lon="1.4319681935012340545654296875">
        <ele>175.1999969482421875</ele>
        <time>2026-08-05T12:13:01.000Z</time>
        <extensions>
          <ns3:TrackPointExtension>
            <ns3:hr>102</ns3:hr>
            <ns3:cad>0</ns3:cad>
          </ns3:TrackPointExtension>
        </extensions>
      </trkpt>
      <trkpt lat="43.45685969106853008270263671875" lon="1.4319762401282787322998046875">
        <ele>175.1999969482421875</ele>
        <time>2026-08-05T12:13:02.000Z</time>
        <extensions>
          <ns3:TrackPointExtension>
            <ns3:hr>104</ns3:hr>
            <ns3:cad>0</ns3:cad>
          </ns3:TrackPointExtension>
        </extensions>
      </trkpt>
      <trkpt lat="43.4568589366972446441650390625" lon="1.43198302946984767913818359375">
        <ele>175.1999969482421875</ele>
        <time>2026-08-05T12:13:03.000Z</time>
        <extensions>
          <ns3:TrackPointExtension>
            <ns3:hr>105</ns3:hr>
            <ns3:cad>0</ns3:cad>
          </ns3:TrackPointExtension>
        </extensions>
      </trkpt>
      <trkpt lat="43.45685742795467376708984375" lon="1.43199292011559009552001953125">
        <ele>175.399993896484375</ele>
        <time>2026-08-05T12:13:04.000Z</time>
        <extensions>
          <ns3:TrackPointExtension>
            <ns3:hr>105</ns3:hr>
            <ns3:cad>0</ns3:cad>
          </ns3:TrackPointExtension>
        </extensions>
      </trkpt>
      <trkpt lat="43.45685717649757862091064453125" lon="1.43198688514530658721923828125">
        <ele>175.600006103515625</ele>
        <time>2026-08-05T12:13:05.000Z</time>
        <extensions>
          <ns3:TrackPointExtension>
            <ns3:hr>106</ns3:hr>
            <ns3:cad>0</ns3:cad>
          </ns3:TrackPointExtension>
        </extensions>
      </trkpt>
      <trkpt lat="43.45685818232595920562744140625" lon="1.4319913275539875030517578125">
        <ele>175.600006103515625</ele>
        <time>2026-08-05T12:13:06.000Z</time>
        <extensions>
          <ns3:TrackPointExtension>
            <ns3:hr>106</ns3:hr>
            <ns3:cad>0</ns3:cad>
          </ns3:TrackPointExtension>
        </extensions>
      </trkpt>
      <trkpt lat="43.456858098506927490234375" lon="1.43199929036200046539306640625">
        <ele>175.8000030517578125</ele>
        <time>2026-08-05T12:13:07.000Z</time>
        <extensions>
          <ns3:TrackPointExtension>
            <ns3:hr>106</ns3:hr>
            <ns3:cad>0</ns3:cad>
          </ns3:TrackPointExtension>
        </extensions>
      </trkpt>
      <trkpt lat="43.4568586014211177825927734375" lon="1.43200431950390338897705078125">
        <ele>176</ele>
        <time>2026-08-05T12:13:08.000Z</time>
        <extensions>
          <ns3:TrackPointExtension>
            <ns3:hr>106</ns3:hr>
            <ns3:cad>0</ns3:cad>
          </ns3:TrackPointExtension>
        </extensions>
      </trkpt>
      <trkpt lat="43.4568619541823863983154296875" lon="1.4320114441215991973876953125">
        <ele>176.1999969482421875</ele>
        <time>2026-08-05T12:13:09.000Z</time>
        <extensions>
          <ns3:TrackPointExtension>
            <ns3:hr>106</ns3:hr>
            <ns3:cad>0</ns3:cad>
          </ns3:TrackPointExtension>
        </extensions>
      </trkpt>
      <trkpt lat="43.4568696655333042144775390625" lon="1.43201353959739208221435546875">
        <ele>176.399993896484375</ele>
        <time>2026-08-05T12:13:10.000Z</time>
        <extensions>
          <ns3:TrackPointExtension>
            <ns3:hr>106</ns3:hr>
            <ns3:cad>0</ns3:cad>
          </ns3:TrackPointExtension>
        </extensions>
      </trkpt>
      <trkpt lat="43.4568760357797145843505859375" lon="1.43201102502644062042236328125">
        <ele>176.600006103515625</ele>
        <time>2026-08-05T12:13:11.000Z</time>
        <extensions>
          <ns3:TrackPointExtension>
            <ns3:hr>106</ns3:hr>
            <ns3:cad>0</ns3:cad>
          </ns3:TrackPointExtension>
        </extensions>
      </trkpt>
      <trkpt lat="43.4568803943693637847900390625" lon="1.4320087619125843048095703125">
        <ele>176.8000030517578125</ele>
        <time>2026-08-05T12:13:12.000Z</time>
        <extensions>
          <ns3:TrackPointExtension>
            <ns3:hr>107</ns3:hr>
            <ns3:cad>0</ns3:cad>
          </ns3:TrackPointExtension>
        </extensions>
      </trkpt>
      <trkpt lat="43.4568862617015838623046875" lon="1.43200783990323543548583984375">
        <ele>176.8000030517578125</ele>
        <time>2026-08-05T12:13:13.000Z</time>
        <extensions>
          <ns3:TrackPointExtension>
            <ns3:hr>107</ns3:hr>
            <ns3:cad>0</ns3:cad>
          </ns3:TrackPointExtension>
        </extensions>
      </trkpt>
      <trkpt lat="43.456889279186725616455078125" lon="1.43200716935098171234130859375">
        <ele>177</ele>
        <time>2026-08-05T12:13:14.000Z</time>
        <extensions>
          <ns3:TrackPointExtension>
            <ns3:hr>109</ns3:hr>
            <ns3:cad>0</ns3:cad>
          </ns3:TrackPointExtension>
        </extensions>
      </trkpt>
      <trkpt lat="43.456889279186725616455078125" lon="1.4320067502558231353759765625">
        <ele>177.1999969482421875</ele>
        <time>2026-08-05T12:13:15.000Z</time>
        <extensions>
          <ns3:TrackPointExtension>
            <ns3:hr>109</ns3:hr>
            <ns3:cad>0</ns3:cad>
          </ns3:TrackPointExtension>
        </extensions>
      </trkpt>
      <trkpt lat="43.456889279186725616455078125" lon="1.4320067502558231353759765625">
        <ele>177.1999969482421875</ele>
        <time>2026-08-05T12:13:16.000Z</time>
        <extensions>
          <ns3:TrackPointExtension>
            <ns3:hr>109</ns3:hr>
            <ns3:cad>0</ns3:cad>
          </ns3:TrackPointExtension>
        </extensions>
      </trkpt>
      <trkpt lat="43.456889279186725616455078125" lon="1.43200566060841083526611328125">
        <ele>177.399993896484375</ele>
        <time>2026-08-05T12:13:17.000Z</time>
        <extensions>
          <ns3:TrackPointExtension>
            <ns3:hr>110</ns3:hr>
            <ns3:cad>0</ns3:cad>
          </ns3:TrackPointExtension>
        </extensions>
      </trkpt>
      <trkpt lat="43.456889279186725616455078125" lon="1.4320067502558231353759765625">
        <ele>177.399993896484375</ele>
        <time>2026-08-05T12:13:18.000Z</time>
        <extensions>
          <ns3:TrackPointExtension>
            <ns3:hr>110</ns3:hr>
            <ns3:cad>0</ns3:cad>
          </ns3:TrackPointExtension>
        </extensions>
      </trkpt>
      <trkpt lat="43.45689590089023113250732421875" lon="1.43200390040874481201171875">
        <ele>177.600006103515625</ele>
        <time>2026-08-05T12:13:19.000Z</time>
        <extensions>
          <ns3:TrackPointExtension>
            <ns3:hr>109</ns3:hr>
            <ns3:cad>0</ns3:cad>
          </ns3:TrackPointExtension>
        </extensions>
      </trkpt>
      <trkpt lat="43.45690109767019748687744140625" lon="1.43200582824647426605224609375">
        <ele>177.600006103515625</ele>
        <time>2026-08-05T12:13:20.000Z</time>
        <extensions>
          <ns3:TrackPointExtension>
            <ns3:hr>109</ns3:hr>
            <ns3:cad>0</ns3:cad>
          </ns3:TrackPointExtension>
        </extensions>
      </trkpt>
      <trkpt lat="43.45690662972629070281982421875" lon="1.4320033974945545196533203125">
        <ele>177.8000030517578125</ele>
        <time>2026-08-05T12:13:21.000Z</time>
        <extensions>
          <ns3:TrackPointExtension>
            <ns3:hr>108</ns3:hr>
            <ns3:cad>0</ns3:cad>
          </ns3:TrackPointExtension>
        </extensions>
      </trkpt>
      <trkpt lat="43.456910736858844757080078125" lon="1.43199962563812732696533203125">
        <ele>178</ele>
        <time>2026-08-05T12:13:22.000Z</time>
        <extensions>
          <ns3:TrackPointExtension>
            <ns3:hr>108</ns3:hr>
            <ns3:cad>0</ns3:cad>
          </ns3:TrackPointExtension>
        </extensions>
      </trkpt>
      <trkpt lat="43.4569162689149379730224609375" lon="1.4319933392107486724853515625">
        <ele>178</ele>
        <time>2026-08-05T12:13:23.000Z</time>
        <extensions>
          <ns3:TrackPointExtension>
            <ns3:hr>108</ns3:hr>
            <ns3:cad>0</ns3:cad>
          </ns3:TrackPointExtension>
        </extensions>
      </trkpt>
      <trkpt lat="43.4569179452955722808837890625" lon="1.431990154087543487548828125">
        <ele>178.1999969482421875</ele>
        <time>2026-08-05T12:13:24.000Z</time>
        <extensions>
          <ns3:TrackPointExtension>
            <ns3:hr>108</ns3:hr>
            <ns3:cad>0</ns3:cad>
          </ns3:TrackPointExtension>
        </extensions>
      </trkpt>
      <trkpt lat="43.4569229744374752044677734375" lon="1.43197934143245220184326171875">
        <ele>178.1999969482421875</ele>
        <time>2026-08-05T12:13:25.000Z</time>
        <extensions>
          <ns3:TrackPointExtension>
            <ns3:hr>109</ns3:hr>
            <ns3:cad>0</ns3:cad>
          </ns3:TrackPointExtension>
        </extensions>
      </trkpt>
      <trkpt lat="43.45693060196936130523681640625" lon="1.43197313882410526275634765625">
        <ele>178.399993896484375</ele>
        <time>2026-08-05T12:13:26.000Z</time>
        <extensions>
          <ns3:TrackPointExtension>
            <ns3:hr>108</ns3:hr>
            <ns3:cad>0</ns3:cad>
          </ns3:TrackPointExtension>
        </extensions>
      </trkpt>
      <trkpt lat="43.45693747512996196746826171875" lon="1.43197028897702693939208984375">
        <ele>178.399993896484375</ele>
        <time>2026-08-05T12:13:27.000Z</time>
        <extensions>
          <ns3:TrackPointExtension>
            <ns3:hr>109</ns3:hr>
            <ns3:cad>0</ns3:cad>
          </ns3:TrackPointExtension>
        </extensions>
      </trkpt>
      <trkpt lat="43.456943593919277191162109375" lon="1.43197263590991497039794921875">
        <ele>178.600006103515625</ele>
        <time>2026-08-05T12:13:28.000Z</time>
        <extensions>
          <ns3:TrackPointExtension>
            <ns3:hr>110</ns3:hr>
            <ns3:cad>0</ns3:cad>
          </ns3:TrackPointExtension>
        </extensions>
      </trkpt>
      <trkpt lat="43.45694418065249919891357421875" lon="1.43197732977569103240966796875">
        <ele>178.600006103515625</ele>
        <time>2026-08-05T12:13:29.000Z</time>
        <extensions>
          <ns3:TrackPointExtension>
            <ns3:hr>110</ns3:hr>
            <ns3:cad>0</ns3:cad>
          </ns3:TrackPointExtension>
        </extensions>
      </trkpt>
      <trkpt lat="43.4569404087960720062255859375" lon="1.43198889680206775665283203125">
        <ele>178.8000030517578125</ele>
        <time>2026-08-05T12:13:30.000Z</time>
        <extensions>
          <ns3:TrackPointExtension>
            <ns3:hr>110</ns3:hr>
            <ns3:cad>0</ns3:cad>
          </ns3:TrackPointExtension>
        </extensions>
      </trkpt>
      <trkpt lat="43.456936888396739959716796875" lon="1.43199677579104900360107421875">
        <ele>179</ele>
        <time>2026-08-05T12:13:31.000Z</time>
        <extensions>
          <ns3:TrackPointExtension>
            <ns3:hr>110</ns3:hr>
            <ns3:cad>0</ns3:cad>
          </ns3:TrackPointExtension>
        </extensions>
      </trkpt>
      <trkpt lat="43.4569318592548370361328125" lon="1.432005576789379119873046875">
        <ele>179.399993896484375</ele>
        <time>2026-08-05T12:13:32.000Z</time>
        <extensions>
          <ns3:TrackPointExtension>
            <ns3:hr>110</ns3:hr>
            <ns3:cad>0</ns3:cad>
          </ns3:TrackPointExtension>
        </extensions>
      </trkpt>
      <trkpt lat="43.45692574046552181243896484375" lon="1.4320154674351215362548828125">
        <ele>179.600006103515625</ele>
        <time>2026-08-05T12:13:33.000Z</time>
        <extensions>
          <ns3:TrackPointExtension>
            <ns3:hr>111</ns3:hr>
            <ns3:cad>0</ns3:cad>
          </ns3:TrackPointExtension>
        </extensions>
      </trkpt>
      <trkpt lat="43.45692523755133152008056640625" lon="1.43202535808086395263671875">
        <ele>179.8000030517578125</ele>
        <time>2026-08-05T12:13:34.000Z</time>
        <extensions>
          <ns3:TrackPointExtension>
            <ns3:hr>112</ns3:hr>
            <ns3:cad>40</ns3:cad>
          </ns3:TrackPointExtension>
        </extensions>
      </trkpt>
      <trkpt lat="43.4569236449897289276123046875" lon="1.4320339076220989227294921875">
        <ele>180</ele>
        <time>2026-08-05T12:13:35.000Z</time>
        <extensions>
          <ns3:TrackPointExtension>
            <ns3:hr>113</ns3:hr>
            <ns3:cad>40</ns3:cad>
          </ns3:TrackPointExtension>
        </extensions>
      </trkpt>
      <trkpt lat="43.45692255534231662750244140625" lon="1.43204187043011188507080078125">
        <ele>180.1999969482421875</ele>
        <time>2026-08-05T12:13:36.000Z</time>
        <extensions>
          <ns3:TrackPointExtension>
            <ns3:hr>113</ns3:hr>
            <ns3:cad>40</ns3:cad>
          </ns3:TrackPointExtension>
        </extensions>
      </trkpt>
      <trkpt lat="43.456924147903919219970703125" lon="1.43204388208687305450439453125">
        <ele>180.399993896484375</ele>
        <time>2026-08-05T12:13:37.000Z</time>
        <extensions>
          <ns3:TrackPointExtension>
            <ns3:hr>113</ns3:hr>
            <ns3:cad>40</ns3:cad>
          </ns3:TrackPointExtension>
        </extensions>
      </trkpt>
      <trkpt lat="43.4569256566464900970458984375" lon="1.43204748630523681640625">
        <ele>180.399993896484375</ele>
        <time>2026-08-05T12:13:38.000Z</time>
        <extensions>
          <ns3:TrackPointExtension>
            <ns3:hr>112</ns3:hr>
            <ns3:cad>0</ns3:cad>
          </ns3:TrackPointExtension>
        </extensions>
      </trkpt>
      <trkpt lat="43.4569280035793781280517578125" lon="1.43204723484814167022705078125">
        <ele>180.600006103515625</ele>
        <time>2026-08-05T12:13:39.000Z</time>
        <extensions>
          <ns3:TrackPointExtension>
            <ns3:hr>113</ns3:hr>
            <ns3:cad>0</ns3:cad>
          </ns3:TrackPointExtension>
        </extensions>
      </trkpt>
      <trkpt lat="43.4569330327212810516357421875" lon="1.43204857595264911651611328125">
        <ele>180.8000030517578125</ele>
        <time>2026-08-05T12:13:40.000Z</time>
        <extensions>
          <ns3:TrackPointExtension>
            <ns3:hr>113</ns3:hr>
            <ns3:cad>0</ns3:cad>
          </ns3:TrackPointExtension>
        </extensions>
      </trkpt>
      <trkpt lat="43.4569340385496616363525390625" lon="1.43205444328486919403076171875">
        <ele>181.1999969482421875</ele>
        <time>2026-08-05T12:13:41.000Z</time>
        <extensions>
          <ns3:TrackPointExtension>
            <ns3:hr>113</ns3:hr>
            <ns3:cad>0</ns3:cad>
          </ns3:TrackPointExtension>
        </extensions>
      </trkpt>
      <trkpt lat="43.4569372236728668212890625" lon="1.4320580475032329559326171875">
        <ele>181.399993896484375</ele>
        <time>2026-08-05T12:13:42.000Z</time>
        <extensions>
          <ns3:TrackPointExtension>
            <ns3:hr>113</ns3:hr>
            <ns3:cad>0</ns3:cad>
          </ns3:TrackPointExtension>
        </extensions>
      </trkpt>
      <trkpt lat="43.456941582262516021728515625" lon="1.43206181935966014862060546875">
        <ele>181.600006103515625</ele>
        <time>2026-08-05T12:13:43.000Z</time>
        <extensions>
          <ns3:TrackPointExtension>
            <ns3:hr>112</ns3:hr>
            <ns3:cad>0</ns3:cad>
          </ns3:TrackPointExtension>
        </extensions>
      </trkpt>
      <trkpt lat="43.45694803632795810699462890625" lon="1.4320701174437999725341796875">
        <ele>181.8000030517578125</ele>
        <time>2026-08-05T12:13:44.000Z</time>
        <extensions>
          <ns3:TrackPointExtension>
            <ns3:hr>113</ns3:hr>
            <ns3:cad>0</ns3:cad>
          </ns3:TrackPointExtension>
        </extensions>
      </trkpt>
      <trkpt lat="43.456954658031463623046875" lon="1.4320748113095760345458984375">
        <ele>182</ele>
        <time>2026-08-05T12:13:45.000Z</time>
        <extensions>
          <ns3:TrackPointExtension>
            <ns3:hr>113</ns3:hr>
            <ns3:cad>0</ns3:cad>
          </ns3:TrackPointExtension>
        </extensions>
      </trkpt>
      <trkpt lat="43.45696815289556980133056640625" lon="1.4320721291005611419677734375">
        <ele>182.1999969482421875</ele>
        <time>2026-08-05T12:13:46.000Z</time>
        <extensions>
          <ns3:TrackPointExtension>
            <ns3:hr>113</ns3:hr>
            <ns3:cad>0</ns3:cad>
          </ns3:TrackPointExtension>
        </extensions>
      </trkpt>
      <trkpt lat="43.4569732658565044403076171875" lon="1.43206517212092876434326171875">
        <ele>182.399993896484375</ele>
        <time>2026-08-05T12:13:47.000Z</time>
        <extensions>
          <ns3:TrackPointExtension>
            <ns3:hr>113</ns3:hr>
            <ns3:cad>0</ns3:cad>
          </ns3:TrackPointExtension>
        </extensions>
      </trkpt>
      <trkpt lat="43.456981144845485687255859375" lon="1.43206425011157989501953125">
        <ele>182.600006103515625</ele>
        <time>2026-08-05T12:13:48.000Z</time>
        <extensions>
          <ns3:TrackPointExtension>
            <ns3:hr>114</ns3:hr>
            <ns3:cad>0</ns3:cad>
          </ns3:TrackPointExtension>
        </extensions>
      </trkpt>
      <trkpt lat="43.45698961056768894195556640625" lon="1.43206232227385044097900390625">
        <ele>182.8000030517578125</ele>
        <time>2026-08-05T12:13:49.000Z</time>
        <extensions>
          <ns3:TrackPointExtension>
            <ns3:hr>114</ns3:hr>
            <ns3:cad>0</ns3:cad>
          </ns3:TrackPointExtension>
        </extensions>
      </trkpt>
      <trkpt lat="43.4569970704615116119384765625" lon="1.4320620708167552947998046875">
        <ele>183</ele>
        <time>2026-08-05T12:13:50.000Z</time>
        <extensions>
          <ns3:TrackPointExtension>
            <ns3:hr>114</ns3:hr>
            <ns3:cad>67</ns3:cad>
          </ns3:TrackPointExtension>
        </extensions>
      </trkpt>
      <trkpt lat="43.45700570382177829742431640625" lon="1.4320620708167552947998046875">
        <ele>183</ele>
        <time>2026-08-05T12:13:51.000Z</time>
        <extensions>
          <ns3:TrackPointExtension>
            <ns3:hr>115</ns3:hr>
            <ns3:cad>67</ns3:cad>
          </ns3:TrackPointExtension>
        </extensions>
      </trkpt>
      <trkpt lat="43.4570168517529964447021484375" lon="1.4320593886077404022216796875">
        <ele>183.1999969482421875</ele>
        <time>2026-08-05T12:13:52.000Z</time>
        <extensions>
          <ns3:TrackPointExtension>
            <ns3:hr>115</ns3:hr>
            <ns3:cad>71</ns3:cad>
          </ns3:TrackPointExtension>
        </extensions>
      </trkpt>
      <trkpt lat="43.45702498219907283782958984375" lon="1.43205628730356693267822265625">
        <ele>183.399993896484375</ele>
        <time>2026-08-05T12:13:53.000Z</time>
        <extensions>
          <ns3:TrackPointExtension>
            <ns3:hr>115</ns3:hr>
            <ns3:cad>71</ns3:cad>
          </ns3:TrackPointExtension>
        </extensions>
      </trkpt>
      <trkpt lat="43.45703621394932270050048828125" lon="1.4320516772568225860595703125">
        <ele>183.399993896484375</ele>
        <time>2026-08-05T12:13:54.000Z</time>
        <extensions>
          <ns3:TrackPointExtension>
            <ns3:hr>116</ns3:hr>
            <ns3:cad>70</ns3:cad>
          </ns3:TrackPointExtension>
        </extensions>
      </trkpt>
      <trkpt lat="43.4570446796715259552001953125" lon="1.4320479892194271087646484375">
        <ele>183.600006103515625</ele>
        <time>2026-08-05T12:13:55.000Z</time>
        <extensions>
          <ns3:TrackPointExtension>
            <ns3:hr>117</ns3:hr>
            <ns3:cad>76</ns3:cad>
          </ns3:TrackPointExtension>
        </extensions>
      </trkpt>
      <trkpt lat="43.45705130137503147125244140625" lon="1.43204505555331707000732421875">
        <ele>183.600006103515625</ele>
        <time>2026-08-05T12:13:56.000Z</time>
        <extensions>
          <ns3:TrackPointExtension>
            <ns3:hr>117</ns3:hr>
            <ns3:cad>76</ns3:cad>
          </ns3:TrackPointExtension>
        </extensions>
      </trkpt>
      <trkpt lat="43.4570590965449810028076171875" lon="1.43203985877335071563720703125">
        <ele>183.8000030517578125</ele>
        <time>2026-08-05T12:13:57.000Z</time>
        <extensions>
          <ns3:TrackPointExtension>
            <ns3:hr>118</ns3:hr>
            <ns3:cad>77</ns3:cad>
          </ns3:TrackPointExtension>
        </extensions>
      </trkpt>
      <trkpt lat="43.45706655643880367279052734375" lon="1.43203675746917724609375">
        <ele>183.8000030517578125</ele>
        <time>2026-08-05T12:13:58.000Z</time>
        <extensions>
          <ns3:TrackPointExtension>
            <ns3:hr>118</ns3:hr>
            <ns3:cad>77</ns3:cad>
          </ns3:TrackPointExtension>
        </extensions>
      </trkpt>
      <trkpt lat="43.45707141794264316558837890625" lon="1.43203265033662319183349609375">
        <ele>184</ele>
        <time>2026-08-05T12:13:59.000Z</time>
        <extensions>
          <ns3:TrackPointExtension>
            <ns3:hr>118</ns3:hr>
            <ns3:cad>41</ns3:cad>
          </ns3:TrackPointExtension>
        </extensions>
      </trkpt>
      <trkpt lat="43.45707829110324382781982421875" lon="1.43202108331024646759033203125">
        <ele>184.1999969482421875</ele>
        <time>2026-08-05T12:14:00.000Z</time>
        <extensions>
          <ns3:TrackPointExtension>
            <ns3:hr>118</ns3:hr>
            <ns3:cad>41</ns3:cad>
          </ns3:TrackPointExtension>
        </extensions>
      </trkpt>
      <trkpt lat="43.45708466134965419769287109375" lon="1.4320112764835357666015625">
        <ele>184.399993896484375</ele>
        <time>2026-08-05T12:14:01.000Z</time>
        <extensions>
          <ns3:TrackPointExtension>
            <ns3:hr>118</ns3:hr>
            <ns3:cad>41</ns3:cad>
          </ns3:TrackPointExtension>
        </extensions>
      </trkpt>
      <trkpt lat="43.45708952285349369049072265625" lon="1.43200499005615711212158203125">
        <ele>184.600006103515625</ele>
        <time>2026-08-05T12:14:02.000Z</time>
        <extensions>
          <ns3:TrackPointExtension>
            <ns3:hr>118</ns3:hr>
            <ns3:cad>41</ns3:cad>
          </ns3:TrackPointExtension>
        </extensions>
      </trkpt>
      <trkpt lat="43.45709773711860179901123046875" lon="1.43199845217168331146240234375">
        <ele>184.600006103515625</ele>
        <time>2026-08-05T12:14:03.000Z</time>
        <extensions>
          <ns3:TrackPointExtension>
            <ns3:hr>118</ns3:hr>
            <ns3:cad>0</ns3:cad>
          </ns3:TrackPointExtension>
        </extensions>
      </trkpt>
      <trkpt lat="43.45710008405148983001708984375" lon="1.43199275247752666473388671875">
        <ele>184.8000030517578125</ele>
        <time>2026-08-05T12:14:04.000Z</time>
        <extensions>
          <ns3:TrackPointExtension>
            <ns3:hr>119</ns3:hr>
            <ns3:cad>0</ns3:cad>
          </ns3:TrackPointExtension>
        </extensions>
      </trkpt>
      <trkpt lat="43.45710377208888530731201171875" lon="1.43198638223111629486083984375">
        <ele>184.8000030517578125</ele>
        <time>2026-08-05T12:14:05.000Z</time>
        <extensions>
          <ns3:TrackPointExtension>
            <ns3:hr>119</ns3:hr>
            <ns3:cad>0</ns3:cad>
          </ns3:TrackPointExtension>
        </extensions>
      </trkpt>
      <trkpt lat="43.4571070410311222076416015625" lon="1.43197917379438877105712890625">
        <ele>184.8000030517578125</ele>
        <time>2026-08-05T12:14:06.000Z</time>
        <extensions>
          <ns3:TrackPointExtension>
            <ns3:hr>119</ns3:hr>
            <ns3:cad>0</ns3:cad>
          </ns3:TrackPointExtension>
        </extensions>
      </trkpt>
      <trkpt lat="43.4571090526878833770751953125" lon="1.43197766505181789398193359375">
        <ele>185</ele>
        <time>2026-08-05T12:14:07.000Z</time>
        <extensions>
          <ns3:TrackPointExtension>
            <ns3:hr>120</ns3:hr>
            <ns3:cad>0</ns3:cad>
          </ns3:TrackPointExtension>
        </extensions>
      </trkpt>
      <trkpt lat="43.4571090526878833770751953125" lon="1.431977413594722747802734375">
        <ele>185</ele>
        <time>2026-08-05T12:14:08.000Z</time>
        <extensions>
          <ns3:TrackPointExtension>
            <ns3:hr>120</ns3:hr>
            <ns3:cad>0</ns3:cad>
          </ns3:TrackPointExtension>
        </extensions>
      </trkpt>
      <trkpt lat="43.4571090526878833770751953125" lon="1.431977413594722747802734375">
        <ele>185</ele>
        <time>2026-08-05T12:14:09.000Z</time>
        <extensions>
          <ns3:TrackPointExtension>
            <ns3:hr>120</ns3:hr>
            <ns3:cad>0</ns3:cad>
          </ns3:TrackPointExtension>
        </extensions>
      </trkpt>
      <trkpt lat="43.457111902534961700439453125" lon="1.43197037279605865478515625">
        <ele>185</ele>
        <time>2026-08-05T12:14:10.000Z</time>
        <extensions>
          <ns3:TrackPointExtension>
            <ns3:hr>120</ns3:hr>
            <ns3:cad>0</ns3:cad>
          </ns3:TrackPointExtension>
        </extensions>
      </trkpt>
      <trkpt lat="43.45711785368621349334716796875" lon="1.43196274526417255401611328125">
        <ele>185</ele>
        <time>2026-08-05T12:14:11.000Z</time>
        <extensions>
          <ns3:TrackPointExtension>
            <ns3:hr>120</ns3:hr>
            <ns3:cad>56</ns3:cad>
          </ns3:TrackPointExtension>
        </extensions>
      </trkpt>
      <trkpt lat="43.4571249783039093017578125" lon="1.43195536918938159942626953125">
        <ele>185.1999969482421875</ele>
        <time>2026-08-05T12:14:12.000Z</time>
        <extensions>
          <ns3:TrackPointExtension>
            <ns3:hr>120</ns3:hr>
            <ns3:cad>56</ns3:cad>
          </ns3:TrackPointExtension>
        </extensions>
      </trkpt>
      <trkpt lat="43.45713210292160511016845703125" lon="1.4319484122097492218017578125">
        <ele>185.399993896484375</ele>
        <time>2026-08-05T12:14:13.000Z</time>
        <extensions>
          <ns3:TrackPointExtension>
            <ns3:hr>120</ns3:hr>
            <ns3:cad>56</ns3:cad>
          </ns3:TrackPointExtension>
        </extensions>
      </trkpt>
      <trkpt lat="43.45713813789188861846923828125" lon="1.43194179050624370574951171875">
        <ele>185.600006103515625</ele>
        <time>2026-08-05T12:14:14.000Z</time>
        <extensions>
          <ns3:TrackPointExtension>
            <ns3:hr>120</ns3:hr>
            <ns3:cad>56</ns3:cad>
          </ns3:TrackPointExtension>
        </extensions>
      </trkpt>
      <trkpt lat="43.4571455977857112884521484375" lon="1.4319323189556598663330078125">
        <ele>185.8000030517578125</ele>
        <time>2026-08-05T12:14:15.000Z</time>
        <extensions>
          <ns3:TrackPointExtension>
            <ns3:hr>119</ns3:hr>
            <ns3:cad>56</ns3:cad>
          </ns3:TrackPointExtension>
        </extensions>
      </trkpt>
      <trkpt lat="43.45715238712728023529052734375" lon="1.43192603252828121185302734375">
        <ele>186</ele>
        <time>2026-08-05T12:14:16.000Z</time>
        <extensions>
          <ns3:TrackPointExtension>
            <ns3:hr>120</ns3:hr>
            <ns3:cad>44</ns3:cad>
          </ns3:TrackPointExtension>
        </extensions>
      </trkpt>
      <trkpt lat="43.45715758390724658966064453125" lon="1.43191982991993427276611328125">
        <ele>186.1999969482421875</ele>
        <time>2026-08-05T12:14:17.000Z</time>
        <extensions>
          <ns3:TrackPointExtension>
            <ns3:hr>120</ns3:hr>
            <ns3:cad>42</ns3:cad>
          </ns3:TrackPointExtension>
        </extensions>
      </trkpt>
      <trkpt lat="43.45716479234397411346435546875" lon="1.43191228620707988739013671875">
        <ele>186.399993896484375</ele>
        <time>2026-08-05T12:14:18.000Z</time>
        <extensions>
          <ns3:TrackPointExtension>
            <ns3:hr>122</ns3:hr>
            <ns3:cad>42</ns3:cad>
          </ns3:TrackPointExtension>
        </extensions>
      </trkpt>
      <trkpt lat="43.45717418007552623748779296875" lon="1.43191161565482616424560546875">
        <ele>186.600006103515625</ele>
        <time>2026-08-05T12:14:19.000Z</time>
        <extensions>
          <ns3:TrackPointExtension>
            <ns3:hr>123</ns3:hr>
            <ns3:cad>42</ns3:cad>
          </ns3:TrackPointExtension>
        </extensions>
      </trkpt>
      <trkpt lat="43.45717987976968288421630859375" lon="1.4319038204848766326904296875">
        <ele>186.8000030517578125</ele>
        <time>2026-08-05T12:14:20.000Z</time>
        <extensions>
          <ns3:TrackPointExtension>
            <ns3:hr>123</ns3:hr>
            <ns3:cad>41</ns3:cad>
          </ns3:TrackPointExtension>
        </extensions>
      </trkpt>
      <trkpt lat="43.4571885131299495697021484375" lon="1.43189552240073680877685546875">
        <ele>187</ele>
        <time>2026-08-05T12:14:21.000Z</time>
        <extensions>
          <ns3:TrackPointExtension>
            <ns3:hr>123</ns3:hr>
            <ns3:cad>41</ns3:cad>
          </ns3:TrackPointExtension>
        </extensions>
      </trkpt>
      <trkpt lat="43.4571968950331211090087890625" lon="1.43188965506851673126220703125">
        <ele>187.1999969482421875</ele>
        <time>2026-08-05T12:14:22.000Z</time>
        <extensions>
          <ns3:TrackPointExtension>
            <ns3:hr>123</ns3:hr>
            <ns3:cad>41</ns3:cad>
          </ns3:TrackPointExtension>
        </extensions>
      </trkpt>
      <trkpt lat="43.45720234327018260955810546875" lon="1.43188294954597949981689453125">
        <ele>187.399993896484375</ele>
        <time>2026-08-05T12:14:23.000Z</time>
        <extensions>
          <ns3:TrackPointExtension>
            <ns3:hr>123</ns3:hr>
            <ns3:cad>41</ns3:cad>
          </ns3:TrackPointExtension>
        </extensions>
      </trkpt>
      <trkpt lat="43.457206785678863525390625" lon="1.43187590874731540679931640625">
        <ele>187.600006103515625</ele>
        <time>2026-08-05T12:14:24.000Z</time>
        <extensions>
          <ns3:TrackPointExtension>
            <ns3:hr>123</ns3:hr>
            <ns3:cad>41</ns3:cad>
          </ns3:TrackPointExtension>
        </extensions>
      </trkpt>
      <trkpt lat="43.45721391029655933380126953125" lon="1.43186719156801700592041015625">
        <ele>187.8000030517578125</ele>
        <time>2026-08-05T12:14:25.000Z</time>
        <extensions>
          <ns3:TrackPointExtension>
            <ns3:hr>123</ns3:hr>
            <ns3:cad>41</ns3:cad>
          </ns3:TrackPointExtension>
        </extensions>
      </trkpt>
      <trkpt lat="43.45722212456166744232177734375" lon="1.43185663037002086639404296875">
        <ele>188</ele>
        <time>2026-08-05T12:14:26.000Z</time>
        <extensions>
          <ns3:TrackPointExtension>
            <ns3:hr>124</ns3:hr>
            <ns3:cad>41</ns3:cad>
          </ns3:TrackPointExtension>
        </extensions>
      </trkpt>
      <trkpt lat="43.4572267346084117889404296875" lon="1.43184975720942020416259765625">
        <ele>188.1999969482421875</ele>
        <time>2026-08-05T12:14:27.000Z</time>
        <extensions>
          <ns3:TrackPointExtension>
            <ns3:hr>124</ns3:hr>
            <ns3:cad>42</ns3:cad>
          </ns3:TrackPointExtension>
        </extensions>
      </trkpt>
      <trkpt lat="43.457233943045139312744140625" lon="1.4318384416401386260986328125">
        <ele>188.399993896484375</ele>
        <time>2026-08-05T12:14:28.000Z</time>
        <extensions>
          <ns3:TrackPointExtension>
            <ns3:hr>124</ns3:hr>
            <ns3:cad>42</ns3:cad>
          </ns3:TrackPointExtension>
        </extensions>
      </trkpt>
      <trkpt lat="43.4572428278625011444091796875" lon="1.43183299340307712554931640625">
        <ele>188.600006103515625</ele>
        <time>2026-08-05T12:14:29.000Z</time>
        <extensions>
          <ns3:TrackPointExtension>
            <ns3:hr>124</ns3:hr>
            <ns3:cad>41</ns3:cad>
          </ns3:TrackPointExtension>
        </extensions>
      </trkpt>
      <trkpt lat="43.45724810846149921417236328125" lon="1.4318253658711910247802734375">
        <ele>188.8000030517578125</ele>
        <time>2026-08-05T12:14:30.000Z</time>
        <extensions>
          <ns3:TrackPointExtension>
            <ns3:hr>125</ns3:hr>
            <ns3:cad>41</ns3:cad>
          </ns3:TrackPointExtension>
        </extensions>
      </trkpt>
      <trkpt lat="43.4572552330791950225830078125" lon="1.4318163134157657623291015625">
        <ele>189.1999969482421875</ele>
        <time>2026-08-05T12:14:31.000Z</time>
        <extensions>
          <ns3:TrackPointExtension>
            <ns3:hr>125</ns3:hr>
            <ns3:cad>42</ns3:cad>
          </ns3:TrackPointExtension>
        </extensions>
      </trkpt>
      <trkpt lat="43.4572619386017322540283203125" lon="1.431810446083545684814453125">
        <ele>189.399993896484375</ele>
        <time>2026-08-05T12:14:32.000Z</time>
        <extensions>
          <ns3:TrackPointExtension>
            <ns3:hr>125</ns3:hr>
            <ns3:cad>43</ns3:cad>
          </ns3:TrackPointExtension>
        </extensions>
      </trkpt>
      <trkpt lat="43.45726956613361835479736328125" lon="1.43180198036134243011474609375">
        <ele>189.600006103515625</ele>
        <time>2026-08-05T12:14:33.000Z</time>
        <extensions>
          <ns3:TrackPointExtension>
            <ns3:hr>125</ns3:hr>
            <ns3:cad>43</ns3:cad>
          </ns3:TrackPointExtension>
        </extensions>
      </trkpt>
      <trkpt lat="43.4572730027139186859130859375" lon="1.431798376142978668212890625">
        <ele>189.8000030517578125</ele>
        <time>2026-08-05T12:14:34.000Z</time>
        <extensions>
          <ns3:TrackPointExtension>
            <ns3:hr>125</ns3:hr>
            <ns3:cad>43</ns3:cad>
          </ns3:TrackPointExtension>
        </extensions>
      </trkpt>
      <trkpt lat="43.45727778039872646331787109375" lon="1.43179225735366344451904296875">
        <ele>190</ele>
        <time>2026-08-05T12:14:35.000Z</time>
        <extensions>
          <ns3:TrackPointExtension>
            <ns3:hr>126</ns3:hr>
            <ns3:cad>41</ns3:cad>
          </ns3:TrackPointExtension>
        </extensions>
      </trkpt>
      <trkpt lat="43.4572817198932170867919921875" lon="1.43178555183112621307373046875">
        <ele>190.1999969482421875</ele>
        <time>2026-08-05T12:14:36.000Z</time>
        <extensions>
          <ns3:TrackPointExtension>
            <ns3:hr>127</ns3:hr>
            <ns3:cad>43</ns3:cad>
          </ns3:TrackPointExtension>
        </extensions>
      </trkpt>
      <trkpt lat="43.4572859108448028564453125" lon="1.43177884630858898162841796875">
        <ele>190.399993896484375</ele>
        <time>2026-08-05T12:14:37.000Z</time>
        <extensions>
          <ns3:TrackPointExtension>
            <ns3:hr>126</ns3:hr>
            <ns3:cad>43</ns3:cad>
          </ns3:TrackPointExtension>
        </extensions>
      </trkpt>
      <trkpt lat="43.4572894312441349029541015625" lon="1.43177499063313007354736328125">
        <ele>190.600006103515625</ele>
        <time>2026-08-05T12:14:38.000Z</time>
        <extensions>
          <ns3:TrackPointExtension>
            <ns3:hr>127</ns3:hr>
            <ns3:cad>43</ns3:cad>
          </ns3:TrackPointExtension>
        </extensions>
      </trkpt>
      <trkpt lat="43.45729353837668895721435546875" lon="1.4317656867206096649169921875">
        <ele>190.8000030517578125</ele>
        <time>2026-08-05T12:14:39.000Z</time>
        <extensions>
          <ns3:TrackPointExtension>
            <ns3:hr>127</ns3:hr>
            <ns3:cad>43</ns3:cad>
          </ns3:TrackPointExtension>
        </extensions>
      </trkpt>
      <trkpt lat="43.4572998248040676116943359375" lon="1.43175705336034297943115234375">
        <ele>191</ele>
        <time>2026-08-05T12:14:40.000Z</time>
        <extensions>
          <ns3:TrackPointExtension>
            <ns3:hr>127</ns3:hr>
            <ns3:cad>43</ns3:cad>
          </ns3:TrackPointExtension>
        </extensions>
      </trkpt>
      <trkpt lat="43.45730426721274852752685546875" lon="1.43175001256167888641357421875">
        <ele>191.1999969482421875</ele>
        <time>2026-08-05T12:14:41.000Z</time>
        <extensions>
          <ns3:TrackPointExtension>
            <ns3:hr>126</ns3:hr>
            <ns3:cad>43</ns3:cad>
          </ns3:TrackPointExtension>
        </extensions>
      </trkpt>
      <trkpt lat="43.45730963163077831268310546875" lon="1.431737355887889862060546875">
        <ele>191.399993896484375</ele>
        <time>2026-08-05T12:14:42.000Z</time>
        <extensions>
          <ns3:TrackPointExtension>
            <ns3:hr>127</ns3:hr>
            <ns3:cad>43</ns3:cad>
          </ns3:TrackPointExtension>
        </extensions>
      </trkpt>
      <trkpt lat="43.457315079867839813232421875" lon="1.43172671087086200714111328125">
        <ele>191.600006103515625</ele>
        <time>2026-08-05T12:14:43.000Z</time>
        <extensions>
          <ns3:TrackPointExtension>
            <ns3:hr>127</ns3:hr>
            <ns3:cad>43</ns3:cad>
          </ns3:TrackPointExtension>
        </extensions>
      </trkpt>
      <trkpt lat="43.4573202766478061676025390625" lon="1.43171698786318302154541015625">
        <ele>191.8000030517578125</ele>
        <time>2026-08-05T12:14:44.000Z</time>
        <extensions>
          <ns3:TrackPointExtension>
            <ns3:hr>127</ns3:hr>
            <ns3:cad>43</ns3:cad>
          </ns3:TrackPointExtension>
        </extensions>
      </trkpt>
      <trkpt lat="43.45732220448553562164306640625" lon="1.43170416355133056640625">
        <ele>192</ele>
        <time>2026-08-05T12:14:45.000Z</time>
        <extensions>
          <ns3:TrackPointExtension>
            <ns3:hr>127</ns3:hr>
            <ns3:cad>43</ns3:cad>
          </ns3:TrackPointExtension>
        </extensions>
      </trkpt>
      <trkpt lat="43.4573249705135822296142578125" lon="1.43169150687754154205322265625">
        <ele>192.1999969482421875</ele>
        <time>2026-08-05T12:14:46.000Z</time>
        <extensions>
          <ns3:TrackPointExtension>
            <ns3:hr>128</ns3:hr>
            <ns3:cad>43</ns3:cad>
          </ns3:TrackPointExtension>
        </extensions>
      </trkpt>
      <trkpt lat="43.45733352005481719970703125" lon="1.43167935311794281005859375">
        <ele>192.399993896484375</ele>
        <time>2026-08-05T12:14:47.000Z</time>
        <extensions>
          <ns3:TrackPointExtension>
            <ns3:hr>128</ns3:hr>
            <ns3:cad>43</ns3:cad>
          </ns3:TrackPointExtension>
        </extensions>
      </trkpt>
      <trkpt lat="43.45733829773962497711181640625" lon="1.43167130649089813232421875">
        <ele>192.600006103515625</ele>
        <time>2026-08-05T12:14:48.000Z</time>
        <extensions>
          <ns3:TrackPointExtension>
            <ns3:hr>128</ns3:hr>
            <ns3:cad>43</ns3:cad>
          </ns3:TrackPointExtension>
        </extensions>
      </trkpt>
      <trkpt lat="43.4573434107005596160888671875" lon="1.43166133202612400054931640625">
        <ele>192.8000030517578125</ele>
        <time>2026-08-05T12:14:49.000Z</time>
        <extensions>
          <ns3:TrackPointExtension>
            <ns3:hr>128</ns3:hr>
            <ns3:cad>42</ns3:cad>
          </ns3:TrackPointExtension>
        </extensions>
      </trkpt>
      <trkpt lat="43.457349948585033416748046875" lon="1.43165412358939647674560546875">
        <ele>193</ele>
        <time>2026-08-05T12:14:50.000Z</time>
        <extensions>
          <ns3:TrackPointExtension>
            <ns3:hr>128</ns3:hr>
            <ns3:cad>42</ns3:cad>
          </ns3:TrackPointExtension>
        </extensions>
      </trkpt>
      <trkpt lat="43.4573521278798580169677734375" lon="1.43164473585784435272216796875">
        <ele>193.1999969482421875</ele>
        <time>2026-08-05T12:14:51.000Z</time>
        <extensions>
          <ns3:TrackPointExtension>
            <ns3:hr>129</ns3:hr>
            <ns3:cad>42</ns3:cad>
          </ns3:TrackPointExtension>
        </extensions>
      </trkpt>
      <trkpt lat="43.4573571570217609405517578125" lon="1.43163233064115047454833984375">
        <ele>193.399993896484375</ele>
        <time>2026-08-05T12:14:52.000Z</time>
        <extensions>
          <ns3:TrackPointExtension>
            <ns3:hr>129</ns3:hr>
            <ns3:cad>42</ns3:cad>
          </ns3:TrackPointExtension>
        </extensions>
      </trkpt>
      <trkpt lat="43.4573668800294399261474609375" lon="1.43162973225116729736328125">
        <ele>193.8000030517578125</ele>
        <time>2026-08-05T12:14:53.000Z</time>
        <extensions>
          <ns3:TrackPointExtension>
            <ns3:hr>130</ns3:hr>
            <ns3:cad>42</ns3:cad>
          </ns3:TrackPointExtension>
        </extensions>
      </trkpt>
      <trkpt lat="43.4573755972087383270263671875" lon="1.43163031898438930511474609375">
        <ele>194</ele>
        <time>2026-08-05T12:14:54.000Z</time>
        <extensions>
          <ns3:TrackPointExtension>
            <ns3:hr>130</ns3:hr>
            <ns3:cad>42</ns3:cad>
          </ns3:TrackPointExtension>
        </extensions>
      </trkpt>
      <trkpt lat="43.4573819674551486968994140625" lon="1.43163417465984821319580078125">
        <ele>194.1999969482421875</ele>
        <time>2026-08-05T12:14:55.000Z</time>
        <extensions>
          <ns3:TrackPointExtension>
            <ns3:hr>130</ns3:hr>
            <ns3:cad>42</ns3:cad>
          </ns3:TrackPointExtension>
        </extensions>
      </trkpt>
      <trkpt lat="43.4573839791119098663330078125" lon="1.43164624460041522979736328125">
        <ele>194.399993896484375</ele>
        <time>2026-08-05T12:14:56.000Z</time>
        <extensions>
          <ns3:TrackPointExtension>
            <ns3:hr>130</ns3:hr>
            <ns3:cad>42</ns3:cad>
          </ns3:TrackPointExtension>
        </extensions>
      </trkpt>
      <trkpt lat="43.4573851525783538818359375" lon="1.43165789544582366943359375">
        <ele>194.600006103515625</ele>
        <time>2026-08-05T12:14:57.000Z</time>
        <extensions>
          <ns3:TrackPointExtension>
            <ns3:hr>130</ns3:hr>
            <ns3:cad>43</ns3:cad>
          </ns3:TrackPointExtension>
        </extensions>
      </trkpt>
      <trkpt lat="43.4573833085596561431884765625" lon="1.43166284076869487762451171875">
        <ele>194.8000030517578125</ele>
        <time>2026-08-05T12:14:58.000Z</time>
        <extensions>
          <ns3:TrackPointExtension>
            <ns3:hr>130</ns3:hr>
            <ns3:cad>43</ns3:cad>
          </ns3:TrackPointExtension>
        </extensions>
      </trkpt>
      <trkpt lat="43.45737869851291179656982421875" lon="1.4316652715206146240234375">
        <ele>195</ele>
        <time>2026-08-05T12:14:59.000Z</time>
        <extensions>
          <ns3:TrackPointExtension>
            <ns3:hr>130</ns3:hr>
            <ns3:cad>43</ns3:cad>
          </ns3:TrackPointExtension>
        </extensions>
      </trkpt>
      <trkpt lat="43.45737417228519916534423828125" lon="1.43167943693697452545166015625">
        <ele>195.1999969482421875</ele>
        <time>2026-08-05T12:15:00.000Z</time>
        <extensions>
          <ns3:TrackPointExtension>
            <ns3:hr>130</ns3:hr>
            <ns3:cad>43</ns3:cad>
          </ns3:TrackPointExtension>
        </extensions>
      </trkpt>
      <trkpt lat="43.45737132243812084197998046875" lon="1.43169016577303409576416015625">
        <ele>195.399993896484375</ele>
        <time>2026-08-05T12:15:01.000Z</time>
        <extensions>
          <ns3:TrackPointExtension>
            <ns3:hr>129</ns3:hr>
            <ns3:cad>41</ns3:cad>
          </ns3:TrackPointExtension>
        </extensions>
      </trkpt>
      <trkpt lat="43.45736713148653507232666015625" lon="1.431701816618442535400390625">
        <ele>195.600006103515625</ele>
        <time>2026-08-05T12:15:02.000Z</time>
        <extensions>
          <ns3:TrackPointExtension>
            <ns3:hr>129</ns3:hr>
            <ns3:cad>41</ns3:cad>
          </ns3:TrackPointExtension>
        </extensions>
      </trkpt>
      <trkpt lat="43.45736294053494930267333984375" lon="1.43171061761677265167236328125">
        <ele>195.600006103515625</ele>
        <time>2026-08-05T12:15:03.000Z</time>
        <extensions>
          <ns3:TrackPointExtension>
            <ns3:hr>129</ns3:hr>
            <ns3:cad>41</ns3:cad>
          </ns3:TrackPointExtension>
        </extensions>
      </trkpt>
      <trkpt lat="43.45735757611691951751708984375" lon="1.43172402866184711456298828125">
        <ele>195.8000030517578125</ele>
        <time>2026-08-05T12:15:04.000Z</time>
        <extensions>
          <ns3:TrackPointExtension>
            <ns3:hr>128</ns3:hr>
            <ns3:cad>41</ns3:cad>
          </ns3:TrackPointExtension>
        </extensions>
      </trkpt>
      <trkpt lat="43.45735321752727031707763671875" lon="1.4317375235259532928466796875">
        <ele>195.8000030517578125</ele>
        <time>2026-08-05T12:15:05.000Z</time>
        <extensions>
          <ns3:TrackPointExtension>
            <ns3:hr>128</ns3:hr>
            <ns3:cad>0</ns3:cad>
          </ns3:TrackPointExtension>
        </extensions>
      </trkpt>
      <trkpt lat="43.45734802074730396270751953125" lon="1.43174917437136173248291015625">
        <ele>195.8000030517578125</ele>
        <time>2026-08-05T12:15:06.000Z</time>
        <extensions>
          <ns3:TrackPointExtension>
            <ns3:hr>128</ns3:hr>
            <ns3:cad>0</ns3:cad>
          </ns3:TrackPointExtension>
        </extensions>
      </trkpt>
      <trkpt lat="43.457344584167003631591796875" lon="1.4317643456161022186279296875">
        <ele>195.8000030517578125</ele>
        <time>2026-08-05T12:15:07.000Z</time>
        <extensions>
          <ns3:TrackPointExtension>
            <ns3:hr>128</ns3:hr>
            <ns3:cad>0</ns3:cad>
          </ns3:TrackPointExtension>
        </extensions>
      </trkpt>
      <trkpt lat="43.4573424048721790313720703125" lon="1.4317752420902252197265625">
        <ele>195.8000030517578125</ele>
        <time>2026-08-05T12:15:08.000Z</time>
        <extensions>
          <ns3:TrackPointExtension>
            <ns3:hr>127</ns3:hr>
            <ns3:cad>0</ns3:cad>
          </ns3:TrackPointExtension>
        </extensions>
      </trkpt>
      <trkpt lat="43.4573400579392910003662109375" lon="1.431791670620441436767578125">
        <ele>195.8000030517578125</ele>
        <time>2026-08-05T12:15:09.000Z</time>
        <extensions>
          <ns3:TrackPointExtension>
            <ns3:hr>127</ns3:hr>
            <ns3:cad>46</ns3:cad>
          </ns3:TrackPointExtension>
        </extensions>
      </trkpt>
      <trkpt lat="43.4573380462825298309326171875" lon="1.431801728904247283935546875">
        <ele>196</ele>
        <time>2026-08-05T12:15:10.000Z</time>
        <extensions>
          <ns3:TrackPointExtension>
            <ns3:hr>127</ns3:hr>
            <ns3:cad>46</ns3:cad>
          </ns3:TrackPointExtension>
        </extensions>
      </trkpt>
      <trkpt lat="43.4573323465883731842041015625" lon="1.431815139949321746826171875">
        <ele>196</ele>
        <time>2026-08-05T12:15:11.000Z</time>
        <extensions>
          <ns3:TrackPointExtension>
            <ns3:hr>128</ns3:hr>
            <ns3:cad>46</ns3:cad>
          </ns3:TrackPointExtension>
        </extensions>
      </trkpt>
      <trkpt lat="43.457327820360660552978515625" lon="1.43182553350925445556640625">
        <ele>196</ele>
        <time>2026-08-05T12:15:12.000Z</time>
        <extensions>
          <ns3:TrackPointExtension>
            <ns3:hr>128</ns3:hr>
            <ns3:cad>46</ns3:cad>
          </ns3:TrackPointExtension>
        </extensions>
      </trkpt>
      <trkpt lat="43.45732455141842365264892578125" lon="1.43183886073529720306396484375">
        <ele>196</ele>
        <time>2026-08-05T12:15:13.000Z</time>
        <extensions>
          <ns3:TrackPointExtension>
            <ns3:hr>127</ns3:hr>
            <ns3:cad>46</ns3:cad>
          </ns3:TrackPointExtension>
        </extensions>
      </trkpt>
      <trkpt lat="43.4573216177523136138916015625" lon="1.43185176886618137359619140625">
        <ele>196</ele>
        <time>2026-08-05T12:15:14.000Z</time>
        <extensions>
          <ns3:TrackPointExtension>
            <ns3:hr>127</ns3:hr>
            <ns3:cad>46</ns3:cad>
          </ns3:TrackPointExtension>
        </extensions>
      </trkpt>
      <trkpt lat="43.45731608569622039794921875" lon="1.43186199478805065155029296875">
        <ele>196</ele>
        <time>2026-08-05T12:15:15.000Z</time>
        <extensions>
          <ns3:TrackPointExtension>
            <ns3:hr>127</ns3:hr>
            <ns3:cad>45</ns3:cad>
          </ns3:TrackPointExtension>
        </extensions>
      </trkpt>
      <trkpt lat="43.45731147564947605133056640625" lon="1.43187205307185649871826171875">
        <ele>196.1999969482421875</ele>
        <time>2026-08-05T12:15:16.000Z</time>
        <extensions>
          <ns3:TrackPointExtension>
            <ns3:hr>128</ns3:hr>
            <ns3:cad>44</ns3:cad>
          </ns3:TrackPointExtension>
        </extensions>
      </trkpt>
      <trkpt lat="43.45730694942176342010498046875" lon="1.43188797868788242340087890625">
        <ele>196.1999969482421875</ele>
        <time>2026-08-05T12:15:17.000Z</time>
        <extensions>
          <ns3:TrackPointExtension>
            <ns3:hr>127</ns3:hr>
            <ns3:cad>44</ns3:cad>
          </ns3:TrackPointExtension>
        </extensions>
      </trkpt>
      <trkpt lat="43.45730208791792392730712890625" lon="1.43190658651292324066162109375">
        <ele>196.399993896484375</ele>
        <time>2026-08-05T12:15:18.000Z</time>
        <extensions>
          <ns3:TrackPointExtension>
            <ns3:hr>127</ns3:hr>
            <ns3:cad>43</ns3:cad>
          </ns3:TrackPointExtension>
        </extensions>
      </trkpt>
      <trkpt lat="43.4572993218898773193359375" lon="1.43191245384514331817626953125">
        <ele>196.399993896484375</ele>
        <time>2026-08-05T12:15:19.000Z</time>
        <extensions>
          <ns3:TrackPointExtension>
            <ns3:hr>128</ns3:hr>
            <ns3:cad>41</ns3:cad>
          </ns3:TrackPointExtension>
        </extensions>
      </trkpt>
      <trkpt lat="43.457294963300228118896484375" lon="1.43192611634731292724609375">
        <ele>196.600006103515625</ele>
        <time>2026-08-05T12:15:20.000Z</time>
        <extensions>
          <ns3:TrackPointExtension>
            <ns3:hr>127</ns3:hr>
            <ns3:cad>41</ns3:cad>
          </ns3:TrackPointExtension>
        </extensions>
      </trkpt>
      <trkpt lat="43.4572947956621646881103515625" lon="1.43193122930824756622314453125">
        <ele>196.8000030517578125</ele>
        <time>2026-08-05T12:15:21.000Z</time>
        <extensions>
          <ns3:TrackPointExtension>
            <ns3:hr>127</ns3:hr>
            <ns3:cad>41</ns3:cad>
          </ns3:TrackPointExtension>
        </extensions>
      </trkpt>
      <trkpt lat="43.45729328691959381103515625" lon="1.43194262869656085968017578125">
        <ele>196.8000030517578125</ele>
        <time>2026-08-05T12:15:22.000Z</time>
        <extensions>
          <ns3:TrackPointExtension>
            <ns3:hr>128</ns3:hr>
            <ns3:cad>75</ns3:cad>
          </ns3:TrackPointExtension>
        </extensions>
      </trkpt>
      <trkpt lat="43.457290939986705780029296875" lon="1.431948244571685791015625">
        <ele>197</ele>
        <time>2026-08-05T12:15:23.000Z</time>
        <extensions>
          <ns3:TrackPointExtension>
            <ns3:hr>127</ns3:hr>
            <ns3:cad>75</ns3:cad>
          </ns3:TrackPointExtension>
        </extensions>
      </trkpt>
      <trkpt lat="43.4572907723486423492431640625" lon="1.43195721320807933807373046875">
        <ele>197</ele>
        <time>2026-08-05T12:15:24.000Z</time>
        <extensions>
          <ns3:TrackPointExtension>
            <ns3:hr>127</ns3:hr>
            <ns3:cad>75</ns3:cad>
          </ns3:TrackPointExtension>
        </extensions>
      </trkpt>
      <trkpt lat="43.4572899341583251953125" lon="1.431966684758663177490234375">
        <ele>197.1999969482421875</ele>
        <time>2026-08-05T12:15:25.000Z</time>
        <extensions>
          <ns3:TrackPointExtension>
            <ns3:hr>127</ns3:hr>
            <ns3:cad>75</ns3:cad>
          </ns3:TrackPointExtension>
        </extensions>
      </trkpt>
      <trkpt lat="43.4572867490351200103759765625" lon="1.43197548575699329376220703125">
        <ele>197.399993896484375</ele>
        <time>2026-08-05T12:15:26.000Z</time>
        <extensions>
          <ns3:TrackPointExtension>
            <ns3:hr>126</ns3:hr>
            <ns3:cad>75</ns3:cad>
          </ns3:TrackPointExtension>
        </extensions>
      </trkpt>
      <trkpt lat="43.45728415064513683319091796875" lon="1.43198403529822826385498046875">
        <ele>197.399993896484375</ele>
        <time>2026-08-05T12:15:27.000Z</time>
        <extensions>
          <ns3:TrackPointExtension>
            <ns3:hr>125</ns3:hr>
            <ns3:cad>75</ns3:cad>
          </ns3:TrackPointExtension>
        </extensions>
      </trkpt>
      <trkpt lat="43.45728096552193164825439453125" lon="1.43199275247752666473388671875">
        <ele>197.600006103515625</ele>
        <time>2026-08-05T12:15:28.000Z</time>
        <extensions>
          <ns3:TrackPointExtension>
            <ns3:hr>124</ns3:hr>
            <ns3:cad>67</ns3:cad>
          </ns3:TrackPointExtension>
        </extensions>
      </trkpt>
      <trkpt lat="43.45728146843612194061279296875" lon="1.43200214020907878875732421875">
        <ele>197.8000030517578125</ele>
        <time>2026-08-05T12:15:29.000Z</time>
        <extensions>
          <ns3:TrackPointExtension>
            <ns3:hr>124</ns3:hr>
            <ns3:cad>67</ns3:cad>
          </ns3:TrackPointExtension>
        </extensions>
      </trkpt>
      <trkpt lat="43.457279540598392486572265625" lon="1.43201001919806003570556640625">
        <ele>197.8000030517578125</ele>
        <time>2026-08-05T12:15:30.000Z</time>
        <extensions>
          <ns3:TrackPointExtension>
            <ns3:hr>124</ns3:hr>
            <ns3:cad>0</ns3:cad>
          </ns3:TrackPointExtension>
        </extensions>
      </trkpt>
      <trkpt lat="43.45727845095098018646240234375" lon="1.4320151321589946746826171875">
        <ele>198</ele>
        <time>2026-08-05T12:15:31.000Z</time>
        <extensions>
          <ns3:TrackPointExtension>
            <ns3:hr>124</ns3:hr>
            <ns3:cad>0</ns3:cad>
          </ns3:TrackPointExtension>
        </extensions>
      </trkpt>
      <trkpt lat="43.45727643929421901702880859375" lon="1.43202577717602252960205078125">
        <ele>198</ele>
        <time>2026-08-05T12:15:32.000Z</time>
        <extensions>
          <ns3:TrackPointExtension>
            <ns3:hr>124</ns3:hr>
            <ns3:cad>0</ns3:cad>
          </ns3:TrackPointExtension>
        </extensions>
      </trkpt>
      <trkpt lat="43.457274176180362701416015625" lon="1.43203281797468662261962890625">
        <ele>198.1999969482421875</ele>
        <time>2026-08-05T12:15:33.000Z</time>
        <extensions>
          <ns3:TrackPointExtension>
            <ns3:hr>124</ns3:hr>
            <ns3:cad>0</ns3:cad>
          </ns3:TrackPointExtension>
        </extensions>
      </trkpt>
      <trkpt lat="43.457271493971347808837890625" lon="1.43204153515398502349853515625">
        <ele>198.399993896484375</ele>
        <time>2026-08-05T12:15:34.000Z</time>
        <extensions>
          <ns3:TrackPointExtension>
            <ns3:hr>124</ns3:hr>
            <ns3:cad>0</ns3:cad>
          </ns3:TrackPointExtension>
        </extensions>
      </trkpt>
      <trkpt lat="43.45727048814296722412109375" lon="1.4320473186671733856201171875">
        <ele>198.399993896484375</ele>
        <time>2026-08-05T12:15:35.000Z</time>
        <extensions>
          <ns3:TrackPointExtension>
            <ns3:hr>124</ns3:hr>
            <ns3:cad>0</ns3:cad>
          </ns3:TrackPointExtension>
        </extensions>
      </trkpt>
      <trkpt lat="43.4572689794003963470458984375" lon="1.4320546947419643402099609375">
        <ele>198.600006103515625</ele>
        <time>2026-08-05T12:15:36.000Z</time>
        <extensions>
          <ns3:TrackPointExtension>
            <ns3:hr>123</ns3:hr>
            <ns3:cad>0</ns3:cad>
          </ns3:TrackPointExtension>
        </extensions>
      </trkpt>
      <trkpt lat="43.4572673030197620391845703125" lon="1.43205863423645496368408203125">
        <ele>198.8000030517578125</ele>
        <time>2026-08-05T12:15:37.000Z</time>
        <extensions>
          <ns3:TrackPointExtension>
            <ns3:hr>123</ns3:hr>
            <ns3:cad>0</ns3:cad>
          </ns3:TrackPointExtension>
        </extensions>
      </trkpt>
      <trkpt lat="43.45726403407752513885498046875" lon="1.43206332810223102569580078125">
        <ele>198.8000030517578125</ele>
        <time>2026-08-05T12:15:38.000Z</time>
        <extensions>
          <ns3:TrackPointExtension>
            <ns3:hr>123</ns3:hr>
            <ns3:cad>0</ns3:cad>
          </ns3:TrackPointExtension>
        </extensions>
      </trkpt>
      <trkpt lat="43.4572616033256053924560546875" lon="1.4320640824735164642333984375">
        <ele>199</ele>
        <time>2026-08-05T12:15:39.000Z</time>
        <extensions>
          <ns3:TrackPointExtension>
            <ns3:hr>123</ns3:hr>
            <ns3:cad>0</ns3:cad>
          </ns3:TrackPointExtension>
        </extensions>
      </trkpt>
      <trkpt lat="43.45726269297301769256591796875" lon="1.43206936307251453399658203125">
        <ele>199</ele>
        <time>2026-08-05T12:15:40.000Z</time>
        <extensions>
          <ns3:TrackPointExtension>
            <ns3:hr>123</ns3:hr>
            <ns3:cad>0</ns3:cad>
          </ns3:TrackPointExtension>
        </extensions>
      </trkpt>
      <trkpt lat="43.45726068131625652313232421875" lon="1.43207455985248088836669921875">
        <ele>199.1999969482421875</ele>
        <time>2026-08-05T12:15:41.000Z</time>
        <extensions>
          <ns3:TrackPointExtension>
            <ns3:hr>122</ns3:hr>
            <ns3:cad>0</ns3:cad>
          </ns3:TrackPointExtension>
        </extensions>
      </trkpt>
      <trkpt lat="43.4572619386017322540283203125" lon="1.43207900226116180419921875">
        <ele>199.1999969482421875</ele>
        <time>2026-08-05T12:15:42.000Z</time>
        <extensions>
          <ns3:TrackPointExtension>
            <ns3:hr>122</ns3:hr>
            <ns3:cad>0</ns3:cad>
          </ns3:TrackPointExtension>
        </extensions>
      </trkpt>
      <trkpt lat="43.45726135186851024627685546875" lon="1.43208570778369903564453125">
        <ele>199.1999969482421875</ele>
        <time>2026-08-05T12:15:43.000Z</time>
        <extensions>
          <ns3:TrackPointExtension>
            <ns3:hr>121</ns3:hr>
            <ns3:cad>0</ns3:cad>
          </ns3:TrackPointExtension>
        </extensions>
      </trkpt>
      <trkpt lat="43.45725850202143192291259765625" lon="1.43209333531558513641357421875">
        <ele>199.399993896484375</ele>
        <time>2026-08-05T12:15:44.000Z</time>
        <extensions>
          <ns3:TrackPointExtension>
            <ns3:hr>121</ns3:hr>
            <ns3:cad>0</ns3:cad>
          </ns3:TrackPointExtension>
        </extensions>
      </trkpt>
      <trkpt lat="43.45725347287952899932861328125" lon="1.43209836445748805999755859375">
        <ele>199.399993896484375</ele>
        <time>2026-08-05T12:15:45.000Z</time>
        <extensions>
          <ns3:TrackPointExtension>
            <ns3:hr>122</ns3:hr>
            <ns3:cad>0</ns3:cad>
          </ns3:TrackPointExtension>
        </extensions>
      </trkpt>
      <trkpt lat="43.45725481398403644561767578125" lon="1.43210138194262981414794921875">
        <ele>199.600006103515625</ele>
        <time>2026-08-05T12:15:46.000Z</time>
        <extensions>
          <ns3:TrackPointExtension>
            <ns3:hr>121</ns3:hr>
            <ns3:cad>0</ns3:cad>
          </ns3:TrackPointExtension>
        </extensions>
      </trkpt>
      <trkpt lat="43.45725498162209987640380859375" lon="1.4321083389222621917724609375">
        <ele>199.8000030517578125</ele>
        <time>2026-08-05T12:15:47.000Z</time>
        <extensions>
          <ns3:TrackPointExtension>
            <ns3:hr>121</ns3:hr>
            <ns3:cad>0</ns3:cad>
          </ns3:TrackPointExtension>
        </extensions>
      </trkpt>
      <trkpt lat="43.4572575800120830535888671875" lon="1.43210926093161106109619140625">
        <ele>199.8000030517578125</ele>
        <time>2026-08-05T12:15:48.000Z</time>
        <extensions>
          <ns3:TrackPointExtension>
            <ns3:hr>121</ns3:hr>
            <ns3:cad>0</ns3:cad>
          </ns3:TrackPointExtension>
        </extensions>
      </trkpt>
      <trkpt lat="43.45725866965949535369873046875" lon="1.4321110211312770843505859375">
        <ele>200</ele>
        <time>2026-08-05T12:15:49.000Z</time>
        <extensions>
          <ns3:TrackPointExtension>
            <ns3:hr>120</ns3:hr>
            <ns3:cad>0</ns3:cad>
          </ns3:TrackPointExtension>
        </extensions>
      </trkpt>
      <trkpt lat="43.457259424030780792236328125" lon="1.4321080036461353302001953125">
        <ele>200</ele>
        <time>2026-08-05T12:15:50.000Z</time>
        <extensions>
          <ns3:TrackPointExtension>
            <ns3:hr>120</ns3:hr>
            <ns3:cad>0</ns3:cad>
          </ns3:TrackPointExtension>
        </extensions>
      </trkpt>
      <trkpt lat="43.45725850202143192291259765625" lon="1.43210590817034244537353515625">
        <ele>200</ele>
        <time>2026-08-05T12:15:51.000Z</time>
        <extensions>
          <ns3:TrackPointExtension>
            <ns3:hr>120</ns3:hr>
            <ns3:cad>0</ns3:cad>
          </ns3:TrackPointExtension>
        </extensions>
      </trkpt>
      <trkpt lat="43.45725699327886104583740234375" lon="1.4321053214371204376220703125">
        <ele>200</ele>
        <time>2026-08-05T12:15:52.000Z</time>
        <extensions>
          <ns3:TrackPointExtension>
            <ns3:hr>120</ns3:hr>
            <ns3:cad>0</ns3:cad>
          </ns3:TrackPointExtension>
        </extensions>
      </trkpt>
      <trkpt lat="43.457257412374019622802734375" lon="1.4321073330938816070556640625">
        <ele>200</ele>
        <time>2026-08-05T12:15:53.000Z</time>
        <extensions>
          <ns3:TrackPointExtension>
            <ns3:hr>121</ns3:hr>
            <ns3:cad>0</ns3:cad>
          </ns3:TrackPointExtension>
        </extensions>
      </trkpt>
      <trkpt lat="43.45725799910724163055419921875" lon="1.4321093447506427764892578125">
        <ele>200</ele>
        <time>2026-08-05T12:15:54.000Z</time>
        <extensions>
          <ns3:TrackPointExtension>
            <ns3:hr>121</ns3:hr>
            <ns3:cad>0</ns3:cad>
          </ns3:TrackPointExtension>
        </extensions>
      </trkpt>
      <trkpt lat="43.45725615508854389190673828125" lon="1.43211345188319683074951171875">
        <ele>200.1999969482421875</ele>
        <time>2026-08-05T12:15:55.000Z</time>
        <extensions>
          <ns3:TrackPointExtension>
            <ns3:hr>120</ns3:hr>
            <ns3:cad>0</ns3:cad>
          </ns3:TrackPointExtension>
        </extensions>
      </trkpt>
      <trkpt lat="43.45725514926016330718994140625" lon="1.43211781047284603118896484375">
        <ele>200.1999969482421875</ele>
        <time>2026-08-05T12:15:56.000Z</time>
        <extensions>
          <ns3:TrackPointExtension>
            <ns3:hr>120</ns3:hr>
            <ns3:cad>0</ns3:cad>
          </ns3:TrackPointExtension>
        </extensions>
      </trkpt>
      <trkpt lat="43.45725565217435359954833984375" lon="1.43212250433862209320068359375">
        <ele>200.1999969482421875</ele>
        <time>2026-08-05T12:15:57.000Z</time>
        <extensions>
          <ns3:TrackPointExtension>
            <ns3:hr>119</ns3:hr>
            <ns3:cad>0</ns3:cad>
          </ns3:TrackPointExtension>
        </extensions>
      </trkpt>
      <trkpt lat="43.45725514926016330718994140625" lon="1.4321277849376201629638671875">
        <ele>200.399993896484375</ele>
        <time>2026-08-05T12:15:58.000Z</time>
        <extensions>
          <ns3:TrackPointExtension>
            <ns3:hr>119</ns3:hr>
            <ns3:cad>0</ns3:cad>
          </ns3:TrackPointExtension>
        </extensions>
      </trkpt>
      <trkpt lat="43.45725464634597301483154296875" lon="1.432135663926601409912109375">
        <ele>200.399993896484375</ele>
        <time>2026-08-05T12:15:59.000Z</time>
        <extensions>
          <ns3:TrackPointExtension>
            <ns3:hr>118</ns3:hr>
            <ns3:cad>60</ns3:cad>
          </ns3:TrackPointExtension>
        </extensions>
      </trkpt>
      <trkpt lat="43.4572535566985607147216796875" lon="1.4321427047252655029296875">
        <ele>200.600006103515625</ele>
        <time>2026-08-05T12:16:00.000Z</time>
        <extensions>
          <ns3:TrackPointExtension>
            <ns3:hr>118</ns3:hr>
            <ns3:cad>61</ns3:cad>
          </ns3:TrackPointExtension>
        </extensions>
      </trkpt>
      <trkpt lat="43.45725229941308498382568359375" lon="1.43214873969554901123046875">
        <ele>200.8000030517578125</ele>
        <time>2026-08-05T12:16:01.000Z</time>
        <extensions>
          <ns3:TrackPointExtension>
            <ns3:hr>118</ns3:hr>
            <ns3:cad>61</ns3:cad>
          </ns3:TrackPointExtension>
        </extensions>
      </trkpt>
      <trkpt lat="43.45725380815565586090087890625" lon="1.43214739859104156494140625">
        <ele>200.8000030517578125</ele>
        <time>2026-08-05T12:16:02.000Z</time>
        <extensions>
          <ns3:TrackPointExtension>
            <ns3:hr>118</ns3:hr>
            <ns3:cad>61</ns3:cad>
          </ns3:TrackPointExtension>
        </extensions>
      </trkpt>
      <trkpt lat="43.457250706851482391357421875" lon="1.432157121598720550537109375">
        <ele>201</ele>
        <time>2026-08-05T12:16:03.000Z</time>
        <extensions>
          <ns3:TrackPointExtension>
            <ns3:hr>119</ns3:hr>
            <ns3:cad>61</ns3:cad>
          </ns3:TrackPointExtension>
        </extensions>
      </trkpt>
      <trkpt lat="43.45724626444280147552490234375" lon="1.4321683533489704132080078125">
        <ele>201.1999969482421875</ele>
        <time>2026-08-05T12:16:04.000Z</time>
        <extensions>
          <ns3:TrackPointExtension>
            <ns3:hr>118</ns3:hr>
            <ns3:cad>62</ns3:cad>
          </ns3:TrackPointExtension>
        </extensions>
      </trkpt>
      <trkpt lat="43.457245342433452606201171875" lon="1.43217782489955425262451171875">
        <ele>201.399993896484375</ele>
        <time>2026-08-05T12:16:05.000Z</time>
        <extensions>
          <ns3:TrackPointExtension>
            <ns3:hr>118</ns3:hr>
            <ns3:cad>62</ns3:cad>
          </ns3:TrackPointExtension>
        </extensions>
      </trkpt>
      <trkpt lat="43.45724240876734256744384765625" lon="1.4321881346404552459716796875">
        <ele>201.600006103515625</ele>
        <time>2026-08-05T12:16:06.000Z</time>
        <extensions>
          <ns3:TrackPointExtension>
            <ns3:hr>118</ns3:hr>
            <ns3:cad>62</ns3:cad>
          </ns3:TrackPointExtension>
        </extensions>
      </trkpt>
      <trkpt lat="43.45723922364413738250732421875" lon="1.4321931637823581695556640625">
        <ele>201.8000030517578125</ele>
        <time>2026-08-05T12:16:07.000Z</time>
        <extensions>
          <ns3:TrackPointExtension>
            <ns3:hr>118</ns3:hr>
            <ns3:cad>62</ns3:cad>
          </ns3:TrackPointExtension>
        </extensions>
      </trkpt>
      <trkpt lat="43.45723620615899562835693359375" lon="1.4322035573422908782958984375">
        <ele>202</ele>
        <time>2026-08-05T12:16:08.000Z</time>
        <extensions>
          <ns3:TrackPointExtension>
            <ns3:hr>118</ns3:hr>
            <ns3:cad>62</ns3:cad>
          </ns3:TrackPointExtension>
        </extensions>
      </trkpt>
      <trkpt lat="43.4572337754070758819580078125" lon="1.43221017904579639434814453125">
        <ele>202.1999969482421875</ele>
        <time>2026-08-05T12:16:09.000Z</time>
        <extensions>
          <ns3:TrackPointExtension>
            <ns3:hr>116</ns3:hr>
            <ns3:cad>76</ns3:cad>
          </ns3:TrackPointExtension>
        </extensions>
      </trkpt>
      <trkpt lat="43.45722866244614124298095703125" lon="1.43221856094896793365478515625">
        <ele>202.1999969482421875</ele>
        <time>2026-08-05T12:16:10.000Z</time>
        <extensions>
          <ns3:TrackPointExtension>
            <ns3:hr>115</ns3:hr>
            <ns3:cad>76</ns3:cad>
          </ns3:TrackPointExtension>
        </extensions>
      </trkpt>
      <trkpt lat="43.45722564496099948883056640625" lon="1.432225517928600311279296875">
        <ele>202.399993896484375</ele>
        <time>2026-08-05T12:16:11.000Z</time>
        <extensions>
          <ns3:TrackPointExtension>
            <ns3:hr>114</ns3:hr>
            <ns3:cad>76</ns3:cad>
          </ns3:TrackPointExtension>
        </extensions>
      </trkpt>
      <trkpt lat="43.4572242200374603271484375" lon="1.4322310499846935272216796875">
        <ele>202.600006103515625</ele>
        <time>2026-08-05T12:16:12.000Z</time>
        <extensions>
          <ns3:TrackPointExtension>
            <ns3:hr>113</ns3:hr>
            <ns3:cad>68</ns3:cad>
          </ns3:TrackPointExtension>
        </extensions>
      </trkpt>
      <trkpt lat="43.45722178928554058074951171875" lon="1.432236917316913604736328125">
        <ele>202.600006103515625</ele>
        <time>2026-08-05T12:16:13.000Z</time>
        <extensions>
          <ns3:TrackPointExtension>
            <ns3:hr>113</ns3:hr>
            <ns3:cad>67</ns3:cad>
          </ns3:TrackPointExtension>
        </extensions>
      </trkpt>
      <trkpt lat="43.4572196938097476959228515625" lon="1.43224052153527736663818359375">
        <ele>202.8000030517578125</ele>
        <time>2026-08-05T12:16:14.000Z</time>
        <extensions>
          <ns3:TrackPointExtension>
            <ns3:hr>114</ns3:hr>
            <ns3:cad>67</ns3:cad>
          </ns3:TrackPointExtension>
        </extensions>
      </trkpt>
      <trkpt lat="43.45721458084881305694580078125" lon="1.43224756233394145965576171875">
        <ele>203</ele>
        <time>2026-08-05T12:16:15.000Z</time>
        <extensions>
          <ns3:TrackPointExtension>
            <ns3:hr>115</ns3:hr>
            <ns3:cad>67</ns3:cad>
          </ns3:TrackPointExtension>
        </extensions>
      </trkpt>
      <trkpt lat="43.45721550285816192626953125" lon="1.43225024454295635223388671875">
        <ele>203.1999969482421875</ele>
        <time>2026-08-05T12:16:16.000Z</time>
        <extensions>
          <ns3:TrackPointExtension>
            <ns3:hr>115</ns3:hr>
            <ns3:cad>67</ns3:cad>
          </ns3:TrackPointExtension>
        </extensions>
      </trkpt>
      <trkpt lat="43.45721357502043247222900390625" lon="1.43225477077066898345947265625">
        <ele>203.399993896484375</ele>
        <time>2026-08-05T12:16:17.000Z</time>
        <extensions>
          <ns3:TrackPointExtension>
            <ns3:hr>116</ns3:hr>
            <ns3:cad>67</ns3:cad>
          </ns3:TrackPointExtension>
        </extensions>
      </trkpt>
      <trkpt lat="43.45721072517335414886474609375" lon="1.43225611187517642974853515625">
        <ele>203.600006103515625</ele>
        <time>2026-08-05T12:16:18.000Z</time>
        <extensions>
          <ns3:TrackPointExtension>
            <ns3:hr>117</ns3:hr>
            <ns3:cad>67</ns3:cad>
          </ns3:TrackPointExtension>
        </extensions>
      </trkpt>
      <trkpt lat="43.457209132611751556396484375" lon="1.43225544132292270660400390625">
        <ele>203.8000030517578125</ele>
        <time>2026-08-05T12:16:19.000Z</time>
        <extensions>
          <ns3:TrackPointExtension>
            <ns3:hr>117</ns3:hr>
            <ns3:cad>61</ns3:cad>
          </ns3:TrackPointExtension>
        </extensions>
      </trkpt>
      <trkpt lat="43.45720703713595867156982421875" lon="1.432258374989032745361328125">
        <ele>203.8000030517578125</ele>
        <time>2026-08-05T12:16:20.000Z</time>
        <extensions>
          <ns3:TrackPointExtension>
            <ns3:hr>117</ns3:hr>
            <ns3:cad>0</ns3:cad>
          </ns3:TrackPointExtension>
        </extensions>
      </trkpt>
      <trkpt lat="43.4572062827646732330322265625" lon="1.4322615601122379302978515625">
        <ele>204</ele>
        <time>2026-08-05T12:16:21.000Z</time>
        <extensions>
          <ns3:TrackPointExtension>
            <ns3:hr>117</ns3:hr>
            <ns3:cad>0</ns3:cad>
          </ns3:TrackPointExtension>
        </extensions>
      </trkpt>
      <trkpt lat="43.457204438745975494384765625" lon="1.432265080511569976806640625">
        <ele>204</ele>
        <time>2026-08-05T12:16:22.000Z</time>
        <extensions>
          <ns3:TrackPointExtension>
            <ns3:hr>117</ns3:hr>
            <ns3:cad>0</ns3:cad>
          </ns3:TrackPointExtension>
        </extensions>
      </trkpt>
      <trkpt lat="43.4572019241750240325927734375" lon="1.43226818181574344635009765625">
        <ele>204</ele>
        <time>2026-08-05T12:16:23.000Z</time>
        <extensions>
          <ns3:TrackPointExtension>
            <ns3:hr>117</ns3:hr>
            <ns3:cad>0</ns3:cad>
          </ns3:TrackPointExtension>
        </extensions>
      </trkpt>
      <trkpt lat="43.45719949342310428619384765625" lon="1.432273127138614654541015625">
        <ele>204.1999969482421875</ele>
        <time>2026-08-05T12:16:24.000Z</time>
        <extensions>
          <ns3:TrackPointExtension>
            <ns3:hr>116</ns3:hr>
            <ns3:cad>0</ns3:cad>
          </ns3:TrackPointExtension>
        </extensions>
      </trkpt>
      <trkpt lat="43.4571995772421360015869140625" lon="1.43227748572826385498046875">
        <ele>204.399993896484375</ele>
        <time>2026-08-05T12:16:25.000Z</time>
        <extensions>
          <ns3:TrackPointExtension>
            <ns3:hr>116</ns3:hr>
            <ns3:cad>0</ns3:cad>
          </ns3:TrackPointExtension>
        </extensions>
      </trkpt>
      <trkpt lat="43.45719966106116771697998046875" lon="1.4322853647172451019287109375">
        <ele>204.600006103515625</ele>
        <time>2026-08-05T12:16:26.000Z</time>
        <extensions>
          <ns3:TrackPointExtension>
            <ns3:hr>117</ns3:hr>
            <ns3:cad>0</ns3:cad>
          </ns3:TrackPointExtension>
        </extensions>
      </trkpt>
      <trkpt lat="43.45719873905181884765625" lon="1.43229031004011631011962890625">
        <ele>204.8000030517578125</ele>
        <time>2026-08-05T12:16:27.000Z</time>
        <extensions>
          <ns3:TrackPointExtension>
            <ns3:hr>117</ns3:hr>
            <ns3:cad>0</ns3:cad>
          </ns3:TrackPointExtension>
        </extensions>
      </trkpt>
      <trkpt lat="43.45719429664313793182373046875" lon="1.4322930760681629180908203125">
        <ele>205</ele>
        <time>2026-08-05T12:16:28.000Z</time>
        <extensions>
          <ns3:TrackPointExtension>
            <ns3:hr>117</ns3:hr>
            <ns3:cad>0</ns3:cad>
          </ns3:TrackPointExtension>
        </extensions>
      </trkpt>
      <trkpt lat="43.4571891836822032928466796875" lon="1.43229936249554157257080078125">
        <ele>205.1999969482421875</ele>
        <time>2026-08-05T12:16:29.000Z</time>
        <extensions>
          <ns3:TrackPointExtension>
            <ns3:hr>116</ns3:hr>
            <ns3:cad>0</ns3:cad>
          </ns3:TrackPointExtension>
        </extensions>
      </trkpt>
      <trkpt lat="43.4571868367493152618408203125" lon="1.4323054812848567962646484375">
        <ele>205.399993896484375</ele>
        <time>2026-08-05T12:16:30.000Z</time>
        <extensions>
          <ns3:TrackPointExtension>
            <ns3:hr>117</ns3:hr>
            <ns3:cad>0</ns3:cad>
          </ns3:TrackPointExtension>
        </extensions>
      </trkpt>
      <trkpt lat="43.45718440599739551544189453125" lon="1.43230858258903026580810546875">
        <ele>205.600006103515625</ele>
        <time>2026-08-05T12:16:31.000Z</time>
        <extensions>
          <ns3:TrackPointExtension>
            <ns3:hr>117</ns3:hr>
            <ns3:cad>0</ns3:cad>
          </ns3:TrackPointExtension>
        </extensions>
      </trkpt>
      <trkpt lat="43.4571811370551586151123046875" lon="1.4323128573596477508544921875">
        <ele>205.8000030517578125</ele>
        <time>2026-08-05T12:16:32.000Z</time>
        <extensions>
          <ns3:TrackPointExtension>
            <ns3:hr>116</ns3:hr>
            <ns3:cad>68</ns3:cad>
          </ns3:TrackPointExtension>
        </extensions>
      </trkpt>
      <trkpt lat="43.45717820338904857635498046875" lon="1.43231662921607494354248046875">
        <ele>206</ele>
        <time>2026-08-05T12:16:33.000Z</time>
        <extensions>
          <ns3:TrackPointExtension>
            <ns3:hr>117</ns3:hr>
            <ns3:cad>68</ns3:cad>
          </ns3:TrackPointExtension>
        </extensions>
      </trkpt>
      <trkpt lat="43.45717300660908222198486328125" lon="1.4323222450911998748779296875">
        <ele>206.1999969482421875</ele>
        <time>2026-08-05T12:16:34.000Z</time>
        <extensions>
          <ns3:TrackPointExtension>
            <ns3:hr>117</ns3:hr>
            <ns3:cad>66</ns3:cad>
          </ns3:TrackPointExtension>
        </extensions>
      </trkpt>
      <trkpt lat="43.45716856420040130615234375" lon="1.432326771318912506103515625">
        <ele>206.399993896484375</ele>
        <time>2026-08-05T12:16:35.000Z</time>
        <extensions>
          <ns3:TrackPointExtension>
            <ns3:hr>117</ns3:hr>
            <ns3:cad>65</ns3:cad>
          </ns3:TrackPointExtension>
        </extensions>
      </trkpt>
      <trkpt lat="43.4571650438010692596435546875" lon="1.43232869915664196014404296875">
        <ele>206.399993896484375</ele>
        <time>2026-08-05T12:16:36.000Z</time>
        <extensions>
          <ns3:TrackPointExtension>
            <ns3:hr>116</ns3:hr>
            <ns3:cad>65</ns3:cad>
          </ns3:TrackPointExtension>
        </extensions>
      </trkpt>
      <trkpt lat="43.4571647085249423980712890625" lon="1.4323356561362743377685546875">
        <ele>206.600006103515625</ele>
        <time>2026-08-05T12:16:37.000Z</time>
        <extensions>
          <ns3:TrackPointExtension>
            <ns3:hr>117</ns3:hr>
            <ns3:cad>0</ns3:cad>
          </ns3:TrackPointExtension>
        </extensions>
      </trkpt>
      <trkpt lat="43.4571596793830394744873046875" lon="1.43234051764011383056640625">
        <ele>206.600006103515625</ele>
        <time>2026-08-05T12:16:38.000Z</time>
        <extensions>
          <ns3:TrackPointExtension>
            <ns3:hr>117</ns3:hr>
            <ns3:cad>0</ns3:cad>
          </ns3:TrackPointExtension>
        </extensions>
      </trkpt>
      <trkpt lat="43.45715255476534366607666015625" lon="1.43234596587717533111572265625">
        <ele>206.600006103515625</ele>
        <time>2026-08-05T12:16:39.000Z</time>
        <extensions>
          <ns3:TrackPointExtension>
            <ns3:hr>117</ns3:hr>
            <ns3:cad>0</ns3:cad>
          </ns3:TrackPointExtension>
        </extensions>
      </trkpt>
      <trkpt lat="43.4571449272334575653076171875" lon="1.43235267139971256256103515625">
        <ele>206.600006103515625</ele>
        <time>2026-08-05T12:16:40.000Z</time>
        <extensions>
          <ns3:TrackPointExtension>
            <ns3:hr>117</ns3:hr>
            <ns3:cad>0</ns3:cad>
          </ns3:TrackPointExtension>
        </extensions>
      </trkpt>
      <trkpt lat="43.457136042416095733642578125" lon="1.4323584549129009246826171875">
        <ele>206.600006103515625</ele>
        <time>2026-08-05T12:16:41.000Z</time>
        <extensions>
          <ns3:TrackPointExtension>
            <ns3:hr>117</ns3:hr>
            <ns3:cad>0</ns3:cad>
          </ns3:TrackPointExtension>
        </extensions>
      </trkpt>
      <trkpt lat="43.45712724141776561737060546875" lon="1.432365663349628448486328125">
        <ele>206.600006103515625</ele>
        <time>2026-08-05T12:16:42.000Z</time>
        <extensions>
          <ns3:TrackPointExtension>
            <ns3:hr>117</ns3:hr>
            <ns3:cad>0</ns3:cad>
          </ns3:TrackPointExtension>
        </extensions>
      </trkpt>
      <trkpt lat="43.45712020061910152435302734375" lon="1.432373039424419403076171875">
        <ele>206.600006103515625</ele>
        <time>2026-08-05T12:16:43.000Z</time>
        <extensions>
          <ns3:TrackPointExtension>
            <ns3:hr>117</ns3:hr>
            <ns3:cad>49</ns3:cad>
          </ns3:TrackPointExtension>
        </extensions>
      </trkpt>
      <trkpt lat="43.45711366273462772369384765625" lon="1.43237798474729061126708984375">
        <ele>206.600006103515625</ele>
        <time>2026-08-05T12:16:44.000Z</time>
        <extensions>
          <ns3:TrackPointExtension>
            <ns3:hr>117</ns3:hr>
            <ns3:cad>49</ns3:cad>
          </ns3:TrackPointExtension>
        </extensions>
      </trkpt>
      <trkpt lat="43.45710796304047107696533203125" lon="1.4323829300701618194580078125">
        <ele>206.600006103515625</ele>
        <time>2026-08-05T12:16:45.000Z</time>
        <extensions>
          <ns3:TrackPointExtension>
            <ns3:hr>116</ns3:hr>
            <ns3:cad>49</ns3:cad>
          </ns3:TrackPointExtension>
        </extensions>
      </trkpt>
      <trkpt lat="43.4571026824414730072021484375" lon="1.432386450469493865966796875">
        <ele>206.8000030517578125</ele>
        <time>2026-08-05T12:16:46.000Z</time>
        <extensions>
          <ns3:TrackPointExtension>
            <ns3:hr>117</ns3:hr>
            <ns3:cad>49</ns3:cad>
          </ns3:TrackPointExtension>
        </extensions>
      </trkpt>
      <trkpt lat="43.4570963121950626373291015625" lon="1.43239005468785762786865234375">
        <ele>207</ele>
        <time>2026-08-05T12:16:47.000Z</time>
        <extensions>
          <ns3:TrackPointExtension>
            <ns3:hr>117</ns3:hr>
            <ns3:cad>53</ns3:cad>
          </ns3:TrackPointExtension>
        </extensions>
      </trkpt>
      <trkpt lat="43.4570899419486522674560546875" lon="1.43239256925880908966064453125">
        <ele>207</ele>
        <time>2026-08-05T12:16:48.000Z</time>
        <extensions>
          <ns3:TrackPointExtension>
            <ns3:hr>117</ns3:hr>
            <ns3:cad>79</ns3:cad>
          </ns3:TrackPointExtension>
        </extensions>
      </trkpt>
      <trkpt lat="43.4570852480828762054443359375" lon="1.4323936589062213897705078125">
        <ele>207.1999969482421875</ele>
        <time>2026-08-05T12:16:49.000Z</time>
        <extensions>
          <ns3:TrackPointExtension>
            <ns3:hr>117</ns3:hr>
            <ns3:cad>79</ns3:cad>
          </ns3:TrackPointExtension>
        </extensions>
      </trkpt>
      <trkpt lat="43.4570768661797046661376953125" lon="1.43239458091557025909423828125">
        <ele>207.1999969482421875</ele>
        <time>2026-08-05T12:16:50.000Z</time>
        <extensions>
          <ns3:TrackPointExtension>
            <ns3:hr>117</ns3:hr>
            <ns3:cad>72</ns3:cad>
          </ns3:TrackPointExtension>
        </extensions>
      </trkpt>
      <trkpt lat="43.45706923864781856536865234375" lon="1.43239709548652172088623046875">
        <ele>207.1999969482421875</ele>
        <time>2026-08-05T12:16:51.000Z</time>
        <extensions>
          <ns3:TrackPointExtension>
            <ns3:hr>117</ns3:hr>
            <ns3:cad>72</ns3:cad>
          </ns3:TrackPointExtension>
        </extensions>
      </trkpt>
      <trkpt lat="43.45706404186785221099853515625" lon="1.4324000291526317596435546875">
        <ele>207.1999969482421875</ele>
        <time>2026-08-05T12:16:52.000Z</time>
        <extensions>
          <ns3:TrackPointExtension>
            <ns3:hr>117</ns3:hr>
            <ns3:cad>72</ns3:cad>
          </ns3:TrackPointExtension>
        </extensions>
      </trkpt>
      <trkpt lat="43.45705582760274410247802734375" lon="1.4324030466377735137939453125">
        <ele>207.1999969482421875</ele>
        <time>2026-08-05T12:16:53.000Z</time>
        <extensions>
          <ns3:TrackPointExtension>
            <ns3:hr>117</ns3:hr>
            <ns3:cad>72</ns3:cad>
          </ns3:TrackPointExtension>
        </extensions>
      </trkpt>
      <trkpt lat="43.45704996027052402496337890625" lon="1.4324040524661540985107421875">
        <ele>207.1999969482421875</ele>
        <time>2026-08-05T12:16:54.000Z</time>
        <extensions>
          <ns3:TrackPointExtension>
            <ns3:hr>116</ns3:hr>
            <ns3:cad>74</ns3:cad>
          </ns3:TrackPointExtension>
        </extensions>
      </trkpt>
      <trkpt lat="43.4570440091192722320556640625" lon="1.43240430392324924468994140625">
        <ele>207.1999969482421875</ele>
        <time>2026-08-05T12:16:55.000Z</time>
        <extensions>
          <ns3:TrackPointExtension>
            <ns3:hr>116</ns3:hr>
            <ns3:cad>74</ns3:cad>
          </ns3:TrackPointExtension>
        </extensions>
      </trkpt>
      <trkpt lat="43.45703721977770328521728515625" lon="1.432404555380344390869140625">
        <ele>207.1999969482421875</ele>
        <time>2026-08-05T12:16:56.000Z</time>
        <extensions>
          <ns3:TrackPointExtension>
            <ns3:hr>116</ns3:hr>
            <ns3:cad>74</ns3:cad>
          </ns3:TrackPointExtension>
        </extensions>
      </trkpt>
      <trkpt lat="43.4570322744548320770263671875" lon="1.4324043877422809600830078125">
        <ele>207.399993896484375</ele>
        <time>2026-08-05T12:16:57.000Z</time>
        <extensions>
          <ns3:TrackPointExtension>
            <ns3:hr>116</ns3:hr>
            <ns3:cad>73</ns3:cad>
          </ns3:TrackPointExtension>
        </extensions>
      </trkpt>
      <trkpt lat="43.457024395465850830078125" lon="1.432406902313232421875">
        <ele>207.399993896484375</ele>
        <time>2026-08-05T12:16:58.000Z</time>
        <extensions>
          <ns3:TrackPointExtension>
            <ns3:hr>115</ns3:hr>
            <ns3:cad>71</ns3:cad>
          </ns3:TrackPointExtension>
        </extensions>
      </trkpt>
      <trkpt lat="43.45701576210558414459228515625" lon="1.4324100874364376068115234375">
        <ele>207.399993896484375</ele>
        <time>2026-08-05T12:16:59.000Z</time>
        <extensions>
          <ns3:TrackPointExtension>
            <ns3:hr>114</ns3:hr>
            <ns3:cad>66</ns3:cad>
          </ns3:TrackPointExtension>
        </extensions>
      </trkpt>
      <trkpt lat="43.45700629055500030517578125" lon="1.432420648634433746337890625">
        <ele>207.399993896484375</ele>
        <time>2026-08-05T12:17:00.000Z</time>
        <extensions>
          <ns3:TrackPointExtension>
            <ns3:hr>112</ns3:hr>
            <ns3:cad>66</ns3:cad>
          </ns3:TrackPointExtension>
        </extensions>
      </trkpt>
      <trkpt lat="43.45700151287019252777099609375" lon="1.4324238337576389312744140625">
        <ele>207.600006103515625</ele>
        <time>2026-08-05T12:17:01.000Z</time>
        <extensions>
          <ns3:TrackPointExtension>
            <ns3:hr>112</ns3:hr>
            <ns3:cad>66</ns3:cad>
          </ns3:TrackPointExtension>
        </extensions>
      </trkpt>
      <trkpt lat="43.45699715428054332733154296875" lon="1.43242961727082729339599609375">
        <ele>207.600006103515625</ele>
        <time>2026-08-05T12:17:02.000Z</time>
        <extensions>
          <ns3:TrackPointExtension>
            <ns3:hr>111</ns3:hr>
            <ns3:cad>71</ns3:cad>
          </ns3:TrackPointExtension>
        </extensions>
      </trkpt>
      <trkpt lat="43.45699681900441646575927734375" lon="1.4324335567653179168701171875">
        <ele>207.600006103515625</ele>
        <time>2026-08-05T12:17:03.000Z</time>
        <extensions>
          <ns3:TrackPointExtension>
            <ns3:hr>111</ns3:hr>
            <ns3:cad>0</ns3:cad>
          </ns3:TrackPointExtension>
        </extensions>
      </trkpt>
      <trkpt lat="43.45699279569089412689208984375" lon="1.4324395917356014251708984375">
        <ele>207.600006103515625</ele>
        <time>2026-08-05T12:17:04.000Z</time>
        <extensions>
          <ns3:TrackPointExtension>
            <ns3:hr>111</ns3:hr>
            <ns3:cad>0</ns3:cad>
          </ns3:TrackPointExtension>
        </extensions>
      </trkpt>
      <trkpt lat="43.456988520920276641845703125" lon="1.43244571052491664886474609375">
        <ele>207.600006103515625</ele>
        <time>2026-08-05T12:17:05.000Z</time>
        <extensions>
          <ns3:TrackPointExtension>
            <ns3:hr>111</ns3:hr>
            <ns3:cad>0</ns3:cad>
          </ns3:TrackPointExtension>
        </extensions>
      </trkpt>
      <trkpt lat="43.4569850005209445953369140625" lon="1.432450823485851287841796875">
        <ele>207.8000030517578125</ele>
        <time>2026-08-05T12:17:06.000Z</time>
        <extensions>
          <ns3:TrackPointExtension>
            <ns3:hr>111</ns3:hr>
            <ns3:cad>0</ns3:cad>
          </ns3:TrackPointExtension>
        </extensions>
      </trkpt>
      <trkpt lat="43.45698256976902484893798828125" lon="1.43245493061840534210205078125">
        <ele>207.8000030517578125</ele>
        <time>2026-08-05T12:17:07.000Z</time>
        <extensions>
          <ns3:TrackPointExtension>
            <ns3:hr>110</ns3:hr>
            <ns3:cad>0</ns3:cad>
          </ns3:TrackPointExtension>
        </extensions>
      </trkpt>
      <trkpt lat="43.4569799713790416717529296875" lon="1.4324565231800079345703125">
        <ele>207.8000030517578125</ele>
        <time>2026-08-05T12:17:08.000Z</time>
        <extensions>
          <ns3:TrackPointExtension>
            <ns3:hr>110</ns3:hr>
            <ns3:cad>0</ns3:cad>
          </ns3:TrackPointExtension>
        </extensions>
      </trkpt>
      <trkpt lat="43.456975780427455902099609375" lon="1.43245853483676910400390625">
        <ele>207.8000030517578125</ele>
        <time>2026-08-05T12:17:09.000Z</time>
        <extensions>
          <ns3:TrackPointExtension>
            <ns3:hr>109</ns3:hr>
            <ns3:cad>0</ns3:cad>
          </ns3:TrackPointExtension>
        </extensions>
      </trkpt>
      <trkpt lat="43.45696932636201381683349609375" lon="1.4324664138257503509521484375">
        <ele>207.8000030517578125</ele>
        <time>2026-08-05T12:17:10.000Z</time>
        <extensions>
          <ns3:TrackPointExtension>
            <ns3:hr>109</ns3:hr>
            <ns3:cad>0</ns3:cad>
          </ns3:TrackPointExtension>
        </extensions>
      </trkpt>
      <trkpt lat="43.456964381039142608642578125" lon="1.43247404135763645172119140625">
        <ele>207.8000030517578125</ele>
        <time>2026-08-05T12:17:11.000Z</time>
        <extensions>
          <ns3:TrackPointExtension>
            <ns3:hr>108</ns3:hr>
            <ns3:cad>0</ns3:cad>
          </ns3:TrackPointExtension>
        </extensions>
      </trkpt>
      <trkpt lat="43.45696798525750637054443359375" lon="1.432476975023746490478515625">
        <ele>207.8000030517578125</ele>
        <time>2026-08-05T12:17:12.000Z</time>
        <extensions>
          <ns3:TrackPointExtension>
            <ns3:hr>107</ns3:hr>
            <ns3:cad>0</ns3:cad>
          </ns3:TrackPointExtension>
        </extensions>
      </trkpt>
      <trkpt lat="43.45696471631526947021484375" lon="1.4324798248708248138427734375">
        <ele>208</ele>
        <time>2026-08-05T12:17:13.000Z</time>
        <extensions>
          <ns3:TrackPointExtension>
            <ns3:hr>106</ns3:hr>
            <ns3:cad>0</ns3:cad>
          </ns3:TrackPointExtension>
        </extensions>
      </trkpt>
      <trkpt lat="43.45695826224982738494873046875" lon="1.432478986680507659912109375">
        <ele>208</ele>
        <time>2026-08-05T12:17:14.000Z</time>
        <extensions>
          <ns3:TrackPointExtension>
            <ns3:hr>105</ns3:hr>
            <ns3:cad>0</ns3:cad>
          </ns3:TrackPointExtension>
        </extensions>
      </trkpt>
      <trkpt lat="43.456960357725620269775390625" lon="1.43247789703309535980224609375">
        <ele>208</ele>
        <time>2026-08-05T12:17:15.000Z</time>
        <extensions>
          <ns3:TrackPointExtension>
            <ns3:hr>105</ns3:hr>
            <ns3:cad>0</ns3:cad>
          </ns3:TrackPointExtension>
        </extensions>
      </trkpt>
      <trkpt lat="43.456961698830127716064453125" lon="1.432476304471492767333984375">
        <ele>208</ele>
        <time>2026-08-05T12:17:16.000Z</time>
        <extensions>
          <ns3:TrackPointExtension>
            <ns3:hr>105</ns3:hr>
            <ns3:cad>0</ns3:cad>
          </ns3:TrackPointExtension>
        </extensions>
      </trkpt>
      <trkpt lat="43.45696379430592060089111328125" lon="1.4324752986431121826171875">
        <ele>208</ele>
        <time>2026-08-05T12:17:17.000Z</time>
        <extensions>
          <ns3:TrackPointExtension>
            <ns3:hr>105</ns3:hr>
            <ns3:cad>0</ns3:cad>
          </ns3:TrackPointExtension>
        </extensions>
      </trkpt>
      <trkpt lat="43.4569635428488254547119140625" lon="1.43247605301439762115478515625">
        <ele>208</ele>
        <time>2026-08-05T12:17:18.000Z</time>
        <extensions>
          <ns3:TrackPointExtension>
            <ns3:hr>105</ns3:hr>
            <ns3:cad>0</ns3:cad>
          </ns3:TrackPointExtension>
        </extensions>
      </trkpt>
      <trkpt lat="43.4569645486772060394287109375" lon="1.43247689120471477508544921875">
        <ele>208</ele>
        <time>2026-08-05T12:17:19.000Z</time>
        <extensions>
          <ns3:TrackPointExtension>
            <ns3:hr>104</ns3:hr>
            <ns3:cad>0</ns3:cad>
          </ns3:TrackPointExtension>
        </extensions>
      </trkpt>
      <trkpt lat="43.45696496777236461639404296875" lon="1.43247873522341251373291015625">
        <ele>208</ele>
        <time>2026-08-05T12:17:20.000Z</time>
        <extensions>
          <ns3:TrackPointExtension>
            <ns3:hr>105</ns3:hr>
            <ns3:cad>0</ns3:cad>
          </ns3:TrackPointExtension>
        </extensions>
      </trkpt>
      <trkpt lat="43.456964381039142608642578125" lon="1.43247772939503192901611328125">
        <ele>208</ele>
        <time>2026-08-05T12:17:21.000Z</time>
        <extensions>
          <ns3:TrackPointExtension>
            <ns3:hr>105</ns3:hr>
            <ns3:cad>0</ns3:cad>
          </ns3:TrackPointExtension>
        </extensions>
      </trkpt>
      <trkpt lat="43.456964381039142608642578125" lon="1.43247789703309535980224609375">
        <ele>208</ele>
        <time>2026-08-05T12:17:22.000Z</time>
        <extensions>
          <ns3:TrackPointExtension>
            <ns3:hr>104</ns3:hr>
            <ns3:cad>0</ns3:cad>
          </ns3:TrackPointExtension>
        </extensions>
      </trkpt>
      <trkpt lat="43.4569645486772060394287109375" lon="1.43247806467115879058837890625">
        <ele>208</ele>
        <time>2026-08-05T12:17:23.000Z</time>
        <extensions>
          <ns3:TrackPointExtension>
            <ns3:hr>105</ns3:hr>
            <ns3:cad>0</ns3:cad>
          </ns3:TrackPointExtension>
        </extensions>
      </trkpt>
      <trkpt lat="43.45696379430592060089111328125" lon="1.4324791543185710906982421875">
        <ele>208</ele>
        <time>2026-08-05T12:17:24.000Z</time>
        <extensions>
          <ns3:TrackPointExtension>
            <ns3:hr>105</ns3:hr>
            <ns3:cad>0</ns3:cad>
          </ns3:TrackPointExtension>
        </extensions>
      </trkpt>
      <trkpt lat="43.45696312375366687774658203125" lon="1.4324808306992053985595703125">
        <ele>208</ele>
        <time>2026-08-05T12:17:25.000Z</time>
        <extensions>
          <ns3:TrackPointExtension>
            <ns3:hr>104</ns3:hr>
            <ns3:cad>0</ns3:cad>
          </ns3:TrackPointExtension>
        </extensions>
      </trkpt>
      <trkpt lat="43.4569581784307956695556640625" lon="1.4324835129082202911376953125">
        <ele>208.1999969482421875</ele>
        <time>2026-08-05T12:17:26.000Z</time>
        <extensions>
          <ns3:TrackPointExtension>
            <ns3:hr>104</ns3:hr>
            <ns3:cad>0</ns3:cad>
          </ns3:TrackPointExtension>
        </extensions>
      </trkpt>
      <trkpt lat="43.45695541240274906158447265625" lon="1.432486362755298614501953125">
        <ele>208.1999969482421875</ele>
        <time>2026-08-05T12:17:27.000Z</time>
        <extensions>
          <ns3:TrackPointExtension>
            <ns3:hr>103</ns3:hr>
            <ns3:cad>0</ns3:cad>
          </ns3:TrackPointExtension>
        </extensions>
      </trkpt>
      <trkpt lat="43.456947617232799530029296875" lon="1.432490050792694091796875">
        <ele>208.1999969482421875</ele>
        <time>2026-08-05T12:17:28.000Z</time>
        <extensions>
          <ns3:TrackPointExtension>
            <ns3:hr>103</ns3:hr>
            <ns3:cad>0</ns3:cad>
          </ns3:TrackPointExtension>
        </extensions>
      </trkpt>
      <trkpt lat="43.4569427557289600372314453125" lon="1.43249449320137500762939453125">
        <ele>208.1999969482421875</ele>
        <time>2026-08-05T12:17:29.000Z</time>
        <extensions>
          <ns3:TrackPointExtension>
            <ns3:hr>103</ns3:hr>
            <ns3:cad>0</ns3:cad>
          </ns3:TrackPointExtension>
        </extensions>
      </trkpt>
      <trkpt lat="43.45693579874932765960693359375" lon="1.43249600194394588470458984375">
        <ele>208.1999969482421875</ele>
        <time>2026-08-05T12:17:30.000Z</time>
        <extensions>
          <ns3:TrackPointExtension>
            <ns3:hr>103</ns3:hr>
            <ns3:cad>0</ns3:cad>
          </ns3:TrackPointExtension>
        </extensions>
      </trkpt>
      <trkpt lat="43.45693429000675678253173828125" lon="1.43249432556331157684326171875">
        <ele>208.399993896484375</ele>
        <time>2026-08-05T12:17:31.000Z</time>
        <extensions>
          <ns3:TrackPointExtension>
            <ns3:hr>102</ns3:hr>
            <ns3:cad>0</ns3:cad>
          </ns3:TrackPointExtension>
        </extensions>
      </trkpt>
      <trkpt lat="43.45693630166351795196533203125" lon="1.432493068277835845947265625">
        <ele>208.399993896484375</ele>
        <time>2026-08-05T12:17:32.000Z</time>
        <extensions>
          <ns3:TrackPointExtension>
            <ns3:hr>101</ns3:hr>
            <ns3:cad>0</ns3:cad>
          </ns3:TrackPointExtension>
        </extensions>
      </trkpt>
      <trkpt lat="43.45693680457770824432373046875" lon="1.43249046988785266876220703125">
        <ele>208.399993896484375</ele>
        <time>2026-08-05T12:17:33.000Z</time>
        <extensions>
          <ns3:TrackPointExtension>
            <ns3:hr>100</ns3:hr>
            <ns3:cad>0</ns3:cad>
          </ns3:TrackPointExtension>
        </extensions>
      </trkpt>
      <trkpt lat="43.45693814568221569061279296875" lon="1.43249072134494781494140625">
        <ele>208.399993896484375</ele>
        <time>2026-08-05T12:17:34.000Z</time>
        <extensions>
          <ns3:TrackPointExtension>
            <ns3:hr>100</ns3:hr>
            <ns3:cad>0</ns3:cad>
          </ns3:TrackPointExtension>
        </extensions>
      </trkpt>
      <trkpt lat="43.4569367207586765289306640625" lon="1.43248929642140865325927734375">
        <ele>208.399993896484375</ele>
        <time>2026-08-05T12:17:35.000Z</time>
        <extensions>
          <ns3:TrackPointExtension>
            <ns3:hr>100</ns3:hr>
            <ns3:cad>0</ns3:cad>
          </ns3:TrackPointExtension>
        </extensions>
      </trkpt>
      <trkpt lat="43.45693663693964481353759765625" lon="1.4324885420501232147216796875">
        <ele>208.399993896484375</ele>
        <time>2026-08-05T12:17:36.000Z</time>
        <extensions>
          <ns3:TrackPointExtension>
            <ns3:hr>100</ns3:hr>
            <ns3:cad>0</ns3:cad>
          </ns3:TrackPointExtension>
        </extensions>
      </trkpt>
      <trkpt lat="43.456936217844486236572265625" lon="1.4324929006397724151611328125">
        <ele>208.399993896484375</ele>
        <time>2026-08-05T12:17:37.000Z</time>
        <extensions>
          <ns3:TrackPointExtension>
            <ns3:hr>100</ns3:hr>
            <ns3:cad>0</ns3:cad>
          </ns3:TrackPointExtension>
        </extensions>
      </trkpt>
      <trkpt lat="43.456934206187725067138671875" lon="1.4324925653636455535888671875">
        <ele>208.399993896484375</ele>
        <time>2026-08-05T12:17:38.000Z</time>
        <extensions>
          <ns3:TrackPointExtension>
            <ns3:hr>100</ns3:hr>
            <ns3:cad>0</ns3:cad>
          </ns3:TrackPointExtension>
        </extensions>
      </trkpt>
      <trkpt lat="43.456933535635471343994140625" lon="1.4324935711920261383056640625">
        <ele>208.399993896484375</ele>
        <time>2026-08-05T12:17:39.000Z</time>
        <extensions>
          <ns3:TrackPointExtension>
            <ns3:hr>100</ns3:hr>
            <ns3:cad>0</ns3:cad>
          </ns3:TrackPointExtension>
        </extensions>
      </trkpt>
      <trkpt lat="43.4569337032735347747802734375" lon="1.43249348737299442291259765625">
        <ele>208.399993896484375</ele>
        <time>2026-08-05T12:17:40.000Z</time>
        <extensions>
          <ns3:TrackPointExtension>
            <ns3:hr>100</ns3:hr>
            <ns3:cad>0</ns3:cad>
          </ns3:TrackPointExtension>
        </extensions>
      </trkpt>
      <trkpt lat="43.4569337032735347747802734375" lon="1.43249348737299442291259765625">
        <ele>208.399993896484375</ele>
        <time>2026-08-05T12:17:41.000Z</time>
        <extensions>
          <ns3:TrackPointExtension>
            <ns3:hr>99</ns3:hr>
            <ns3:cad>0</ns3:cad>
          </ns3:TrackPointExtension>
        </extensions>
      </trkpt>
      <trkpt lat="43.4569337032735347747802734375" lon="1.43249348737299442291259765625">
        <ele>208.399993896484375</ele>
        <time>2026-08-05T12:17:42.000Z</time>
        <extensions>
          <ns3:TrackPointExtension>
            <ns3:hr>99</ns3:hr>
            <ns3:cad>0</ns3:cad>
          </ns3:TrackPointExtension>
        </extensions>
      </trkpt>
      <trkpt lat="43.4569337032735347747802734375" lon="1.43249348737299442291259765625">
        <ele>208.399993896484375</ele>
        <time>2026-08-05T12:17:43.000Z</time>
        <extensions>
          <ns3:TrackPointExtension>
            <ns3:hr>99</ns3:hr>
            <ns3:cad>0</ns3:cad>
          </ns3:TrackPointExtension>
        </extensions>
      </trkpt>
      <trkpt lat="43.4569337032735347747802734375" lon="1.43249348737299442291259765625">
        <ele>208.399993896484375</ele>
        <time>2026-08-05T12:17:44.000Z</time>
        <extensions>
          <ns3:TrackPointExtension>
            <ns3:hr>99</ns3:hr>
            <ns3:cad>0</ns3:cad>
          </ns3:TrackPointExtension>
        </extensions>
      </trkpt>
      <trkpt lat="43.4569337032735347747802734375" lon="1.43249348737299442291259765625">
        <ele>208.399993896484375</ele>
        <time>2026-08-05T12:17:45.000Z</time>
        <extensions>
          <ns3:TrackPointExtension>
            <ns3:hr>99</ns3:hr>
            <ns3:cad>0</ns3:cad>
          </ns3:TrackPointExtension>
        </extensions>
      </trkpt>
      <trkpt lat="43.4569337032735347747802734375" lon="1.43249348737299442291259765625">
        <ele>208.399993896484375</ele>
        <time>2026-08-05T12:17:46.000Z</time>
        <extensions>
          <ns3:TrackPointExtension>
            <ns3:hr>99</ns3:hr>
            <ns3:cad>0</ns3:cad>
          </ns3:TrackPointExtension>
        </extensions>
      </trkpt>
      <trkpt lat="43.4569337032735347747802734375" lon="1.43249348737299442291259765625">
        <ele>208.1999969482421875</ele>
        <time>2026-08-05T12:17:47.000Z</time>
        <extensions>
          <ns3:TrackPointExtension>
            <ns3:hr>98</ns3:hr>
            <ns3:cad>0</ns3:cad>
          </ns3:TrackPointExtension>
        </extensions>
      </trkpt>
      <trkpt lat="43.4569337032735347747802734375" lon="1.43249348737299442291259765625">
        <ele>208.399993896484375</ele>
        <time>2026-08-05T12:17:48.000Z</time>
        <extensions>
          <ns3:TrackPointExtension>
            <ns3:hr>98</ns3:hr>
            <ns3:cad>0</ns3:cad>
          </ns3:TrackPointExtension>
        </extensions>
      </trkpt>
      <trkpt lat="43.4569337032735347747802734375" lon="1.43249348737299442291259765625">
        <ele>208.399993896484375</ele>
        <time>2026-08-05T12:17:49.000Z</time>
        <extensions>
          <ns3:TrackPointExtension>
            <ns3:hr>97</ns3:hr>
            <ns3:cad>0</ns3:cad>
          </ns3:TrackPointExtension>
        </extensions>
      </trkpt>
      <trkpt lat="43.4569337032735347747802734375" lon="1.43249348737299442291259765625">
        <ele>208.399993896484375</ele>
        <time>2026-08-05T12:17:50.000Z</time>
        <extensions>
          <ns3:TrackPointExtension>
            <ns3:hr>97</ns3:hr>
            <ns3:cad>0</ns3:cad>
          </ns3:TrackPointExtension>
        </extensions>
      </trkpt>
      <trkpt lat="43.4569337032735347747802734375" lon="1.43249348737299442291259765625">
        <ele>208.399993896484375</ele>
        <time>2026-08-05T12:17:51.000Z</time>
        <extensions>
          <ns3:TrackPointExtension>
            <ns3:hr>97</ns3:hr>
            <ns3:cad>0</ns3:cad>
          </ns3:TrackPointExtension>
        </extensions>
      </trkpt>
      <trkpt lat="43.4569337032735347747802734375" lon="1.43249348737299442291259765625">
        <ele>208.399993896484375</ele>
        <time>2026-08-05T12:17:52.000Z</time>
        <extensions>
          <ns3:TrackPointExtension>
            <ns3:hr>96</ns3:hr>
            <ns3:cad>0</ns3:cad>
          </ns3:TrackPointExtension>
        </extensions>
      </trkpt>
      <trkpt lat="43.4569337032735347747802734375" lon="1.43249348737299442291259765625">
        <ele>208.399993896484375</ele>
        <time>2026-08-05T12:17:53.000Z</time>
        <extensions>
          <ns3:TrackPointExtension>
            <ns3:hr>95</ns3:hr>
            <ns3:cad>0</ns3:cad>
          </ns3:TrackPointExtension>
        </extensions>
      </trkpt>
      <trkpt lat="43.4569337032735347747802734375" lon="1.43249348737299442291259765625">
        <ele>208.399993896484375</ele>
        <time>2026-08-05T12:17:54.000Z</time>
        <extensions>
          <ns3:TrackPointExtension>
            <ns3:hr>94</ns3:hr>
            <ns3:cad>0</ns3:cad>
          </ns3:TrackPointExtension>
        </extensions>
      </trkpt>
      <trkpt lat="43.4569337032735347747802734375" lon="1.43249348737299442291259765625">
        <ele>208.399993896484375</ele>
        <time>2026-08-05T12:17:55.000Z</time>
        <extensions>
          <ns3:TrackPointExtension>
            <ns3:hr>93</ns3:hr>
            <ns3:cad>0</ns3:cad>
          </ns3:TrackPointExtension>
        </extensions>
      </trkpt>
      <trkpt lat="43.4569337032735347747802734375" lon="1.43249348737299442291259765625">
        <ele>208.399993896484375</ele>
        <time>2026-08-05T12:17:56.000Z</time>
        <extensions>
          <ns3:TrackPointExtension>
            <ns3:hr>92</ns3:hr>
            <ns3:cad>0</ns3:cad>
          </ns3:TrackPointExtension>
        </extensions>
      </trkpt>
      <trkpt lat="43.4569337032735347747802734375" lon="1.43249348737299442291259765625">
        <ele>208.399993896484375</ele>
        <time>2026-08-05T12:17:57.000Z</time>
        <extensions>
          <ns3:TrackPointExtension>
            <ns3:hr>92</ns3:hr>
            <ns3:cad>0</ns3:cad>
          </ns3:TrackPointExtension>
        </extensions>
      </trkpt>
      <trkpt lat="43.4569337032735347747802734375" lon="1.43249348737299442291259765625">
        <ele>208.399993896484375</ele>
        <time>2026-08-05T12:17:58.000Z</time>
        <extensions>
          <ns3:TrackPointExtension>
            <ns3:hr>91</ns3:hr>
            <ns3:cad>0</ns3:cad>
          </ns3:TrackPointExtension>
        </extensions>
      </trkpt>
      <trkpt lat="43.4569337032735347747802734375" lon="1.43249348737299442291259765625">
        <ele>208.399993896484375</ele>
        <time>2026-08-05T12:17:59.000Z</time>
        <extensions>
          <ns3:TrackPointExtension>
            <ns3:hr>91</ns3:hr>
            <ns3:cad>0</ns3:cad>
          </ns3:TrackPointExtension>
        </extensions>
      </trkpt>
      <trkpt lat="43.4569337032735347747802734375" lon="1.43249348737299442291259765625">
        <ele>208.399993896484375</ele>
        <time>2026-08-05T12:18:00.000Z</time>
        <extensions>
          <ns3:TrackPointExtension>
            <ns3:hr>91</ns3:hr>
            <ns3:cad>0</ns3:cad>
          </ns3:TrackPointExtension>
        </extensions>
      </trkpt>
      <trkpt lat="43.4569337032735347747802734375" lon="1.43249348737299442291259765625">
        <ele>208.399993896484375</ele>
        <time>2026-08-05T12:18:01.000Z</time>
        <extensions>
          <ns3:TrackPointExtension>
            <ns3:hr>90</ns3:hr>
            <ns3:cad>0</ns3:cad>
          </ns3:TrackPointExtension>
        </extensions>
      </trkpt>
      <trkpt lat="43.4569337032735347747802734375" lon="1.43249348737299442291259765625">
        <ele>208.399993896484375</ele>
        <time>2026-08-05T12:18:02.000Z</time>
        <extensions>
          <ns3:TrackPointExtension>
            <ns3:hr>90</ns3:hr>
            <ns3:cad>0</ns3:cad>
          </ns3:TrackPointExtension>
        </extensions>
      </trkpt>
      <trkpt lat="43.4569337032735347747802734375" lon="1.43249348737299442291259765625">
        <ele>208.399993896484375</ele>
        <time>2026-08-05T12:18:03.000Z</time>
        <extensions>
          <ns3:TrackPointExtension>
            <ns3:hr>89</ns3:hr>
            <ns3:cad>0</ns3:cad>
          </ns3:TrackPointExtension>
        </extensions>
      </trkpt>
      <trkpt lat="43.4569337032735347747802734375" lon="1.43249348737299442291259765625">
        <ele>208.399993896484375</ele>
        <time>2026-08-05T12:18:04.000Z</time>
        <extensions>
          <ns3:TrackPointExtension>
            <ns3:hr>89</ns3:hr>
            <ns3:cad>0</ns3:cad>
          </ns3:TrackPointExtension>
        </extensions>
      </trkpt>
      <trkpt lat="43.4569337032735347747802734375" lon="1.43249348737299442291259765625">
        <ele>208.399993896484375</ele>
        <time>2026-08-05T12:18:05.000Z</time>
        <extensions>
          <ns3:TrackPointExtension>
            <ns3:hr>88</ns3:hr>
            <ns3:cad>0</ns3:cad>
          </ns3:TrackPointExtension>
        </extensions>
      </trkpt>
      <trkpt lat="43.4569337032735347747802734375" lon="1.43249348737299442291259765625">
        <ele>208.399993896484375</ele>
        <time>2026-08-05T12:18:06.000Z</time>
        <extensions>
          <ns3:TrackPointExtension>
            <ns3:hr>87</ns3:hr>
            <ns3:cad>0</ns3:cad>
          </ns3:TrackPointExtension>
        </extensions>
      </trkpt>
      <trkpt lat="43.4569337032735347747802734375" lon="1.43249348737299442291259765625">
        <ele>208.399993896484375</ele>
        <time>2026-08-05T12:18:07.000Z</time>
        <extensions>
          <ns3:TrackPointExtension>
            <ns3:hr>87</ns3:hr>
            <ns3:cad>0</ns3:cad>
          </ns3:TrackPointExtension>
        </extensions>
      </trkpt>
      <trkpt lat="43.4569337032735347747802734375" lon="1.43249348737299442291259765625">
        <ele>208.399993896484375</ele>
        <time>2026-08-05T12:18:08.000Z</time>
        <extensions>
          <ns3:TrackPointExtension>
            <ns3:hr>86</ns3:hr>
            <ns3:cad>0</ns3:cad>
          </ns3:TrackPointExtension>
        </extensions>
      </trkpt>
      <trkpt lat="43.4569337032735347747802734375" lon="1.43249348737299442291259765625">
        <ele>208.399993896484375</ele>
        <time>2026-08-05T12:18:09.000Z</time>
        <extensions>
          <ns3:TrackPointExtension>
            <ns3:hr>86</ns3:hr>
            <ns3:cad>0</ns3:cad>
          </ns3:TrackPointExtension>
        </extensions>
      </trkpt>
      <trkpt lat="43.4569337032735347747802734375" lon="1.43249348737299442291259765625">
        <ele>208.399993896484375</ele>
        <time>2026-08-05T12:18:10.000Z</time>
        <extensions>
          <ns3:TrackPointExtension>
            <ns3:hr>86</ns3:hr>
            <ns3:cad>0</ns3:cad>
          </ns3:TrackPointExtension>
        </extensions>
      </trkpt>
      <trkpt lat="43.4569337032735347747802734375" lon="1.43249348737299442291259765625">
        <ele>208.399993896484375</ele>
        <time>2026-08-05T12:18:11.000Z</time>
        <extensions>
          <ns3:TrackPointExtension>
            <ns3:hr>85</ns3:hr>
            <ns3:cad>0</ns3:cad>
          </ns3:TrackPointExtension>
        </extensions>
      </trkpt>
      <trkpt lat="43.4569337032735347747802734375" lon="1.43249348737299442291259765625">
        <ele>208.399993896484375</ele>
        <time>2026-08-05T12:18:12.000Z</time>
        <extensions>
          <ns3:TrackPointExtension>
            <ns3:hr>85</ns3:hr>
            <ns3:cad>0</ns3:cad>
          </ns3:TrackPointExtension>
        </extensions>
      </trkpt>
      <trkpt lat="43.4569337032735347747802734375" lon="1.43249348737299442291259765625">
        <ele>208.399993896484375</ele>
        <time>2026-08-05T12:18:13.000Z</time>
        <extensions>
          <ns3:TrackPointExtension>
            <ns3:hr>85</ns3:hr>
            <ns3:cad>0</ns3:cad>
          </ns3:TrackPointExtension>
        </extensions>
      </trkpt>
      <trkpt lat="43.4569337032735347747802734375" lon="1.43249348737299442291259765625">
        <ele>208.399993896484375</ele>
        <time>2026-08-05T12:18:14.000Z</time>
        <extensions>
          <ns3:TrackPointExtension>
            <ns3:hr>85</ns3:hr>
            <ns3:cad>0</ns3:cad>
          </ns3:TrackPointExtension>
        </extensions>
      </trkpt>
      <trkpt lat="43.4569337032735347747802734375" lon="1.43249348737299442291259765625">
        <ele>208.399993896484375</ele>
        <time>2026-08-05T12:18:15.000Z</time>
        <extensions>
          <ns3:TrackPointExtension>
            <ns3:hr>86</ns3:hr>
            <ns3:cad>0</ns3:cad>
          </ns3:TrackPointExtension>
        </extensions>
      </trkpt>
      <trkpt lat="43.4569337032735347747802734375" lon="1.43249348737299442291259765625">
        <ele>208.399993896484375</ele>
        <time>2026-08-05T12:18:16.000Z</time>
        <extensions>
          <ns3:TrackPointExtension>
            <ns3:hr>86</ns3:hr>
            <ns3:cad>0</ns3:cad>
          </ns3:TrackPointExtension>
        </extensions>
      </trkpt>
      <trkpt lat="43.4569337032735347747802734375" lon="1.43249348737299442291259765625">
        <ele>208.1999969482421875</ele>
        <time>2026-08-05T12:18:17.000Z</time>
        <extensions>
          <ns3:TrackPointExtension>
            <ns3:hr>87</ns3:hr>
            <ns3:cad>0</ns3:cad>
          </ns3:TrackPointExtension>
        </extensions>
      </trkpt>
      <trkpt lat="43.4569337032735347747802734375" lon="1.43249348737299442291259765625">
        <ele>208.1999969482421875</ele>
        <time>2026-08-05T12:18:18.000Z</time>
        <extensions>
          <ns3:TrackPointExtension>
            <ns3:hr>88</ns3:hr>
            <ns3:cad>0</ns3:cad>
          </ns3:TrackPointExtension>
        </extensions>
      </trkpt>
      <trkpt lat="43.4569337032735347747802734375" lon="1.43249348737299442291259765625">
        <ele>208.1999969482421875</ele>
        <time>2026-08-05T12:18:19.000Z</time>
        <extensions>
          <ns3:TrackPointExtension>
            <ns3:hr>91</ns3:hr>
            <ns3:cad>0</ns3:cad>
          </ns3:TrackPointExtension>
        </extensions>
      </trkpt>
      <trkpt lat="43.4569337032735347747802734375" lon="1.43249348737299442291259765625">
        <ele>208.1999969482421875</ele>
        <time>2026-08-05T12:18:20.000Z</time>
        <extensions>
          <ns3:TrackPointExtension>
            <ns3:hr>92</ns3:hr>
            <ns3:cad>0</ns3:cad>
          </ns3:TrackPointExtension>
        </extensions>
      </trkpt>
      <trkpt lat="43.4569337032735347747802734375" lon="1.43249348737299442291259765625">
        <ele>208.1999969482421875</ele>
        <time>2026-08-05T12:18:21.000Z</time>
        <extensions>
          <ns3:TrackPointExtension>
            <ns3:hr>92</ns3:hr>
            <ns3:cad>0</ns3:cad>
          </ns3:TrackPointExtension>
        </extensions>
      </trkpt>
      <trkpt lat="43.4569337032735347747802734375" lon="1.43249348737299442291259765625">
        <ele>208.1999969482421875</ele>
        <time>2026-08-05T12:18:22.000Z</time>
        <extensions>
          <ns3:TrackPointExtension>
            <ns3:hr>91</ns3:hr>
            <ns3:cad>0</ns3:cad>
          </ns3:TrackPointExtension>
        </extensions>
      </trkpt>
      <trkpt lat="43.4569337032735347747802734375" lon="1.43249348737299442291259765625">
        <ele>208.1999969482421875</ele>
        <time>2026-08-05T12:18:23.000Z</time>
        <extensions>
          <ns3:TrackPointExtension>
            <ns3:hr>91</ns3:hr>
            <ns3:cad>0</ns3:cad>
          </ns3:TrackPointExtension>
        </extensions>
      </trkpt>
      <trkpt lat="43.4569337032735347747802734375" lon="1.43249348737299442291259765625">
        <ele>208.1999969482421875</ele>
        <time>2026-08-05T12:18:24.000Z</time>
        <extensions>
          <ns3:TrackPointExtension>
            <ns3:hr>91</ns3:hr>
            <ns3:cad>0</ns3:cad>
          </ns3:TrackPointExtension>
        </extensions>
      </trkpt>
      <trkpt lat="43.4569337032735347747802734375" lon="1.43249348737299442291259765625">
        <ele>208.1999969482421875</ele>
        <time>2026-08-05T12:18:25.000Z</time>
        <extensions>
          <ns3:TrackPointExtension>
            <ns3:hr>92</ns3:hr>
            <ns3:cad>0</ns3:cad>
          </ns3:TrackPointExtension>
        </extensions>
      </trkpt>
      <trkpt lat="43.4569337032735347747802734375" lon="1.43249348737299442291259765625">
        <ele>208.1999969482421875</ele>
        <time>2026-08-05T12:18:26.000Z</time>
        <extensions>
          <ns3:TrackPointExtension>
            <ns3:hr>91</ns3:hr>
            <ns3:cad>0</ns3:cad>
          </ns3:TrackPointExtension>
        </extensions>
      </trkpt>
      <trkpt lat="43.4569337032735347747802734375" lon="1.43249348737299442291259765625">
        <ele>208.1999969482421875</ele>
        <time>2026-08-05T12:18:27.000Z</time>
        <extensions>
          <ns3:TrackPointExtension>
            <ns3:hr>91</ns3:hr>
            <ns3:cad>0</ns3:cad>
          </ns3:TrackPointExtension>
        </extensions>
      </trkpt>
      <trkpt lat="43.4569337032735347747802734375" lon="1.43249348737299442291259765625">
        <ele>208.1999969482421875</ele>
        <time>2026-08-05T12:18:28.000Z</time>
        <extensions>
          <ns3:TrackPointExtension>
            <ns3:hr>90</ns3:hr>
            <ns3:cad>0</ns3:cad>
          </ns3:TrackPointExtension>
        </extensions>
      </trkpt>
      <trkpt lat="43.4569337032735347747802734375" lon="1.43249348737299442291259765625">
        <ele>208.1999969482421875</ele>
        <time>2026-08-05T12:18:29.000Z</time>
        <extensions>
          <ns3:TrackPointExtension>
            <ns3:hr>90</ns3:hr>
            <ns3:cad>0</ns3:cad>
          </ns3:TrackPointExtension>
        </extensions>
      </trkpt>
      <trkpt lat="43.4569337032735347747802734375" lon="1.43249348737299442291259765625">
        <ele>208.399993896484375</ele>
        <time>2026-08-05T12:18:30.000Z</time>
        <extensions>
          <ns3:TrackPointExtension>
            <ns3:hr>89</ns3:hr>
            <ns3:cad>0</ns3:cad>
          </ns3:TrackPointExtension>
        </extensions>
      </trkpt>
      <trkpt lat="43.4569337032735347747802734375" lon="1.43249348737299442291259765625">
        <ele>208.399993896484375</ele>
        <time>2026-08-05T12:18:31.000Z</time>
        <extensions>
          <ns3:TrackPointExtension>
            <ns3:hr>88</ns3:hr>
            <ns3:cad>0</ns3:cad>
          </ns3:TrackPointExtension>
        </extensions>
      </trkpt>
      <trkpt lat="43.45693345181643962860107421875" lon="1.4324955828487873077392578125">
        <ele>208.399993896484375</ele>
        <time>2026-08-05T12:18:32.000Z</time>
        <extensions>
          <ns3:TrackPointExtension>
            <ns3:hr>88</ns3:hr>
            <ns3:cad>0</ns3:cad>
          </ns3:TrackPointExtension>
        </extensions>
      </trkpt>
      <trkpt lat="43.456930182874202728271484375" lon="1.43249818123877048492431640625">
        <ele>208.399993896484375</ele>
        <time>2026-08-05T12:18:33.000Z</time>
        <extensions>
          <ns3:TrackPointExtension>
            <ns3:hr>88</ns3:hr>
            <ns3:cad>0</ns3:cad>
          </ns3:TrackPointExtension>
        </extensions>
      </trkpt>
      <trkpt lat="43.45692708157002925872802734375" lon="1.43249885179102420806884765625">
        <ele>208.600006103515625</ele>
        <time>2026-08-05T12:18:34.000Z</time>
        <extensions>
          <ns3:TrackPointExtension>
            <ns3:hr>88</ns3:hr>
            <ns3:cad>0</ns3:cad>
          </ns3:TrackPointExtension>
        </extensions>
      </trkpt>
      <trkpt lat="43.4569337032735347747802734375" lon="1.43249348737299442291259765625">
        <ele>208.600006103515625</ele>
        <time>2026-08-05T12:18:35.000Z</time>
        <extensions>
          <ns3:TrackPointExtension>
            <ns3:hr>88</ns3:hr>
            <ns3:cad>0</ns3:cad>
          </ns3:TrackPointExtension>
        </extensions>
      </trkpt>
      <trkpt lat="43.4569337032735347747802734375" lon="1.43249348737299442291259765625">
        <ele>208.600006103515625</ele>
        <time>2026-08-05T12:18:36.000Z</time>
        <extensions>
          <ns3:TrackPointExtension>
            <ns3:hr>88</ns3:hr>
            <ns3:cad>0</ns3:cad>
          </ns3:TrackPointExtension>
        </extensions>
      </trkpt>
      <trkpt lat="43.4569337032735347747802734375" lon="1.43249348737299442291259765625">
        <ele>208.399993896484375</ele>
        <time>2026-08-05T12:18:37.000Z</time>
        <extensions>
          <ns3:TrackPointExtension>
            <ns3:hr>88</ns3:hr>
            <ns3:cad>0</ns3:cad>
          </ns3:TrackPointExtension>
        </extensions>
      </trkpt>
      <trkpt lat="43.4569337032735347747802734375" lon="1.43249348737299442291259765625">
        <ele>208.399993896484375</ele>
        <time>2026-08-05T12:18:38.000Z</time>
        <extensions>
          <ns3:TrackPointExtension>
            <ns3:hr>88</ns3:hr>
            <ns3:cad>0</ns3:cad>
          </ns3:TrackPointExtension>
        </extensions>
      </trkpt>
      <trkpt lat="43.4569337032735347747802734375" lon="1.43249348737299442291259765625">
        <ele>208.399993896484375</ele>
        <time>2026-08-05T12:18:39.000Z</time>
        <extensions>
          <ns3:TrackPointExtension>
            <ns3:hr>88</ns3:hr>
            <ns3:cad>0</ns3:cad>
          </ns3:TrackPointExtension>
        </extensions>
      </trkpt>
      <trkpt lat="43.4569337032735347747802734375" lon="1.43249348737299442291259765625">
        <ele>208.399993896484375</ele>
        <time>2026-08-05T12:18:40.000Z</time>
        <extensions>
          <ns3:TrackPointExtension>
            <ns3:hr>87</ns3:hr>
            <ns3:cad>0</ns3:cad>
          </ns3:TrackPointExtension>
        </extensions>
      </trkpt>
      <trkpt lat="43.4569337032735347747802734375" lon="1.43249348737299442291259765625">
        <ele>208.399993896484375</ele>
        <time>2026-08-05T12:18:41.000Z</time>
        <extensions>
          <ns3:TrackPointExtension>
            <ns3:hr>88</ns3:hr>
            <ns3:cad>0</ns3:cad>
          </ns3:TrackPointExtension>
        </extensions>
      </trkpt>
      <trkpt lat="43.4569337032735347747802734375" lon="1.43249348737299442291259765625">
        <ele>208.399993896484375</ele>
        <time>2026-08-05T12:18:42.000Z</time>
        <extensions>
          <ns3:TrackPointExtension>
            <ns3:hr>88</ns3:hr>
            <ns3:cad>0</ns3:cad>
          </ns3:TrackPointExtension>
        </extensions>
      </trkpt>
      <trkpt lat="43.4569337032735347747802734375" lon="1.43249348737299442291259765625">
        <ele>208.399993896484375</ele>
        <time>2026-08-05T12:18:43.000Z</time>
        <extensions>
          <ns3:TrackPointExtension>
            <ns3:hr>88</ns3:hr>
            <ns3:cad>0</ns3:cad>
          </ns3:TrackPointExtension>
        </extensions>
      </trkpt>
      <trkpt lat="43.4569337032735347747802734375" lon="1.43249348737299442291259765625">
        <ele>208.399993896484375</ele>
        <time>2026-08-05T12:18:44.000Z</time>
        <extensions>
          <ns3:TrackPointExtension>
            <ns3:hr>88</ns3:hr>
            <ns3:cad>0</ns3:cad>
          </ns3:TrackPointExtension>
        </extensions>
      </trkpt>
      <trkpt lat="43.4569337032735347747802734375" lon="1.43249348737299442291259765625">
        <ele>208.1999969482421875</ele>
        <time>2026-08-05T12:18:45.000Z</time>
        <extensions>
          <ns3:TrackPointExtension>
            <ns3:hr>88</ns3:hr>
            <ns3:cad>0</ns3:cad>
          </ns3:TrackPointExtension>
        </extensions>
      </trkpt>
      <trkpt lat="43.4569337032735347747802734375" lon="1.43249348737299442291259765625">
        <ele>208.1999969482421875</ele>
        <time>2026-08-05T12:18:46.000Z</time>
        <extensions>
          <ns3:TrackPointExtension>
            <ns3:hr>88</ns3:hr>
            <ns3:cad>0</ns3:cad>
          </ns3:TrackPointExtension>
        </extensions>
      </trkpt>
      <trkpt lat="43.4569337032735347747802734375" lon="1.43249348737299442291259765625">
        <ele>208.1999969482421875</ele>
        <time>2026-08-05T12:18:47.000Z</time>
        <extensions>
          <ns3:TrackPointExtension>
            <ns3:hr>88</ns3:hr>
            <ns3:cad>0</ns3:cad>
          </ns3:TrackPointExtension>
        </extensions>
      </trkpt>
      <trkpt lat="43.4569337032735347747802734375" lon="1.43249348737299442291259765625">
        <ele>208.1999969482421875</ele>
        <time>2026-08-05T12:18:48.000Z</time>
        <extensions>
          <ns3:TrackPointExtension>
            <ns3:hr>88</ns3:hr>
            <ns3:cad>0</ns3:cad>
          </ns3:TrackPointExtension>
        </extensions>
      </trkpt>
      <trkpt lat="43.4569337032735347747802734375" lon="1.43249348737299442291259765625">
        <ele>208.1999969482421875</ele>
        <time>2026-08-05T12:18:49.000Z</time>
        <extensions>
          <ns3:TrackPointExtension>
            <ns3:hr>88</ns3:hr>
            <ns3:cad>0</ns3:cad>
          </ns3:TrackPointExtension>
        </extensions>
      </trkpt>
      <trkpt lat="43.4569337032735347747802734375" lon="1.43249348737299442291259765625">
        <ele>208.1999969482421875</ele>
        <time>2026-08-05T12:18:50.000Z</time>
        <extensions>
          <ns3:TrackPointExtension>
            <ns3:hr>88</ns3:hr>
            <ns3:cad>0</ns3:cad>
          </ns3:TrackPointExtension>
        </extensions>
      </trkpt>
      <trkpt lat="43.4569337032735347747802734375" lon="1.43249348737299442291259765625">
        <ele>208.1999969482421875</ele>
        <time>2026-08-05T12:18:51.000Z</time>
        <extensions>
          <ns3:TrackPointExtension>
            <ns3:hr>87</ns3:hr>
            <ns3:cad>0</ns3:cad>
          </ns3:TrackPointExtension>
        </extensions>
      </trkpt>
      <trkpt lat="43.4569337032735347747802734375" lon="1.43249348737299442291259765625">
        <ele>208.1999969482421875</ele>
        <time>2026-08-05T12:18:52.000Z</time>
        <extensions>
          <ns3:TrackPointExtension>
            <ns3:hr>87</ns3:hr>
            <ns3:cad>0</ns3:cad>
          </ns3:TrackPointExtension>
        </extensions>
      </trkpt>
      <trkpt lat="43.4569337032735347747802734375" lon="1.43249348737299442291259765625">
        <ele>208.1999969482421875</ele>
        <time>2026-08-05T12:18:53.000Z</time>
        <extensions>
          <ns3:TrackPointExtension>
            <ns3:hr>87</ns3:hr>
            <ns3:cad>0</ns3:cad>
          </ns3:TrackPointExtension>
        </extensions>
      </trkpt>
      <trkpt lat="43.4569337032735347747802734375" lon="1.43249348737299442291259765625">
        <ele>208.1999969482421875</ele>
        <time>2026-08-05T12:18:54.000Z</time>
        <extensions>
          <ns3:TrackPointExtension>
            <ns3:hr>86</ns3:hr>
            <ns3:cad>0</ns3:cad>
          </ns3:TrackPointExtension>
        </extensions>
      </trkpt>
      <trkpt lat="43.4569337032735347747802734375" lon="1.43249348737299442291259765625">
        <ele>208.1999969482421875</ele>
        <time>2026-08-05T12:18:55.000Z</time>
        <extensions>
          <ns3:TrackPointExtension>
            <ns3:hr>86</ns3:hr>
            <ns3:cad>0</ns3:cad>
          </ns3:TrackPointExtension>
        </extensions>
      </trkpt>
      <trkpt lat="43.4569337032735347747802734375" lon="1.43249348737299442291259765625">
        <ele>208.1999969482421875</ele>
        <time>2026-08-05T12:18:56.000Z</time>
        <extensions>
          <ns3:TrackPointExtension>
            <ns3:hr>87</ns3:hr>
            <ns3:cad>0</ns3:cad>
          </ns3:TrackPointExtension>
        </extensions>
      </trkpt>
      <trkpt lat="43.4569337032735347747802734375" lon="1.43249348737299442291259765625">
        <ele>208.1999969482421875</ele>
        <time>2026-08-05T12:18:57.000Z</time>
        <extensions>
          <ns3:TrackPointExtension>
            <ns3:hr>87</ns3:hr>
            <ns3:cad>0</ns3:cad>
          </ns3:TrackPointExtension>
        </extensions>
      </trkpt>
      <trkpt lat="43.45692775212228298187255859375" lon="1.4325032941997051239013671875">
        <ele>208.1999969482421875</ele>
        <time>2026-08-05T12:18:58.000Z</time>
        <extensions>
          <ns3:TrackPointExtension>
            <ns3:hr>86</ns3:hr>
            <ns3:cad>0</ns3:cad>
          </ns3:TrackPointExtension>
        </extensions>
      </trkpt>
      <trkpt lat="43.456931523978710174560546875" lon="1.43250840716063976287841796875">
        <ele>208.1999969482421875</ele>
        <time>2026-08-05T12:18:59.000Z</time>
        <extensions>
          <ns3:TrackPointExtension>
            <ns3:hr>86</ns3:hr>
            <ns3:cad>0</ns3:cad>
          </ns3:TrackPointExtension>
        </extensions>
      </trkpt>
      <trkpt lat="43.4569330327212810516357421875" lon="1.43251075409352779388427734375">
        <ele>208</ele>
        <time>2026-08-05T12:19:00.000Z</time>
        <extensions>
          <ns3:TrackPointExtension>
            <ns3:hr>87</ns3:hr>
            <ns3:cad>0</ns3:cad>
          </ns3:TrackPointExtension>
        </extensions>
      </trkpt>
      <trkpt lat="43.45693697221577167510986328125" lon="1.43251310102641582489013671875">
        <ele>208</ele>
        <time>2026-08-05T12:19:01.000Z</time>
        <extensions>
          <ns3:TrackPointExtension>
            <ns3:hr>87</ns3:hr>
            <ns3:cad>0</ns3:cad>
          </ns3:TrackPointExtension>
        </extensions>
      </trkpt>
      <trkpt lat="43.45693814568221569061279296875" lon="1.43251142464578151702880859375">
        <ele>208</ele>
        <time>2026-08-05T12:19:02.000Z</time>
        <extensions>
          <ns3:TrackPointExtension>
            <ns3:hr>87</ns3:hr>
            <ns3:cad>0</ns3:cad>
          </ns3:TrackPointExtension>
        </extensions>
      </trkpt>
      <trkpt lat="43.45693713985383510589599609375" lon="1.43250941298902034759521484375">
        <ele>208</ele>
        <time>2026-08-05T12:19:03.000Z</time>
        <extensions>
          <ns3:TrackPointExtension>
            <ns3:hr>86</ns3:hr>
            <ns3:cad>0</ns3:cad>
          </ns3:TrackPointExtension>
        </extensions>
      </trkpt>
      <trkpt lat="43.45693781040608882904052734375" lon="1.43250924535095691680908203125">
        <ele>208.1999969482421875</ele>
        <time>2026-08-05T12:19:04.000Z</time>
        <extensions>
          <ns3:TrackPointExtension>
            <ns3:hr>85</ns3:hr>
            <ns3:cad>0</ns3:cad>
          </ns3:TrackPointExtension>
        </extensions>
      </trkpt>
      <trkpt lat="43.45694082789123058319091796875" lon="1.432510502636432647705078125">
        <ele>208.1999969482421875</ele>
        <time>2026-08-05T12:19:05.000Z</time>
        <extensions>
          <ns3:TrackPointExtension>
            <ns3:hr>84</ns3:hr>
            <ns3:cad>0</ns3:cad>
          </ns3:TrackPointExtension>
        </extensions>
      </trkpt>
      <trkpt lat="43.456938564777374267578125" lon="1.43250773660838603973388671875">
        <ele>208.1999969482421875</ele>
        <time>2026-08-05T12:19:06.000Z</time>
        <extensions>
          <ns3:TrackPointExtension>
            <ns3:hr>84</ns3:hr>
            <ns3:cad>0</ns3:cad>
          </ns3:TrackPointExtension>
        </extensions>
      </trkpt>
      <trkpt lat="43.45693663693964481353759765625" lon="1.4325032941997051239013671875">
        <ele>208.1999969482421875</ele>
        <time>2026-08-05T12:19:07.000Z</time>
        <extensions>
          <ns3:TrackPointExtension>
            <ns3:hr>84</ns3:hr>
            <ns3:cad>0</ns3:cad>
          </ns3:TrackPointExtension>
        </extensions>
      </trkpt>
      <trkpt lat="43.45693730749189853668212890625" lon="1.43249818123877048492431640625">
        <ele>208.1999969482421875</ele>
        <time>2026-08-05T12:19:08.000Z</time>
        <extensions>
          <ns3:TrackPointExtension>
            <ns3:hr>84</ns3:hr>
            <ns3:cad>0</ns3:cad>
          </ns3:TrackPointExtension>
        </extensions>
      </trkpt>
      <trkpt lat="43.45694200135767459869384765625" lon="1.43249616958200931549072265625">
        <ele>208.1999969482421875</ele>
        <time>2026-08-05T12:19:09.000Z</time>
        <extensions>
          <ns3:TrackPointExtension>
            <ns3:hr>83</ns3:hr>
            <ns3:cad>0</ns3:cad>
          </ns3:TrackPointExtension>
        </extensions>
      </trkpt>
      <trkpt lat="43.45694468356668949127197265625" lon="1.43249399028718471527099609375">
        <ele>208.1999969482421875</ele>
        <time>2026-08-05T12:19:10.000Z</time>
        <extensions>
          <ns3:TrackPointExtension>
            <ns3:hr>84</ns3:hr>
            <ns3:cad>0</ns3:cad>
          </ns3:TrackPointExtension>
        </extensions>
      </trkpt>
      <trkpt lat="43.456943593919277191162109375" lon="1.4324939064681529998779296875">
        <ele>208.1999969482421875</ele>
        <time>2026-08-05T12:19:11.000Z</time>
        <extensions>
          <ns3:TrackPointExtension>
            <ns3:hr>84</ns3:hr>
            <ns3:cad>0</ns3:cad>
          </ns3:TrackPointExtension>
        </extensions>
      </trkpt>
      <trkpt lat="43.45694334246218204498291015625" lon="1.43249147571623325347900390625">
        <ele>208.1999969482421875</ele>
        <time>2026-08-05T12:19:12.000Z</time>
        <extensions>
          <ns3:TrackPointExtension>
            <ns3:hr>84</ns3:hr>
            <ns3:cad>0</ns3:cad>
          </ns3:TrackPointExtension>
        </extensions>
      </trkpt>
      <trkpt lat="43.4569337032735347747802734375" lon="1.43249348737299442291259765625">
        <ele>208.399993896484375</ele>
        <time>2026-08-05T12:19:13.000Z</time>
        <extensions>
          <ns3:TrackPointExtension>
            <ns3:hr>84</ns3:hr>
            <ns3:cad>0</ns3:cad>
          </ns3:TrackPointExtension>
        </extensions>
      </trkpt>
      <trkpt lat="43.4569337032735347747802734375" lon="1.43249348737299442291259765625">
        <ele>208.399993896484375</ele>
        <time>2026-08-05T12:19:14.000Z</time>
        <extensions>
          <ns3:TrackPointExtension>
            <ns3:hr>83</ns3:hr>
            <ns3:cad>0</ns3:cad>
          </ns3:TrackPointExtension>
        </extensions>
      </trkpt>
      <trkpt lat="43.45694501884281635284423828125" lon="1.4324908889830112457275390625">
        <ele>208.600006103515625</ele>
        <time>2026-08-05T12:19:15.000Z</time>
        <extensions>
          <ns3:TrackPointExtension>
            <ns3:hr>84</ns3:hr>
            <ns3:cad>0</ns3:cad>
          </ns3:TrackPointExtension>
        </extensions>
      </trkpt>
      <trkpt lat="43.4569531492888927459716796875" lon="1.432495750486850738525390625">
        <ele>208.600006103515625</ele>
        <time>2026-08-05T12:19:16.000Z</time>
        <extensions>
          <ns3:TrackPointExtension>
            <ns3:hr>84</ns3:hr>
            <ns3:cad>0</ns3:cad>
          </ns3:TrackPointExtension>
        </extensions>
      </trkpt>
      <trkpt lat="43.45695692114531993865966796875" lon="1.432498432695865631103515625">
        <ele>208.8000030517578125</ele>
        <time>2026-08-05T12:19:17.000Z</time>
        <extensions>
          <ns3:TrackPointExtension>
            <ns3:hr>83</ns3:hr>
            <ns3:cad>0</ns3:cad>
          </ns3:TrackPointExtension>
        </extensions>
      </trkpt>
      <trkpt lat="43.45696345902979373931884765625" lon="1.43249968998134136199951171875">
        <ele>209</ele>
        <time>2026-08-05T12:19:18.000Z</time>
        <extensions>
          <ns3:TrackPointExtension>
            <ns3:hr>83</ns3:hr>
            <ns3:cad>0</ns3:cad>
          </ns3:TrackPointExtension>
        </extensions>
      </trkpt>
      <trkpt lat="43.4569699130952358245849609375" lon="1.43249818123877048492431640625">
        <ele>209</ele>
        <time>2026-08-05T12:19:19.000Z</time>
        <extensions>
          <ns3:TrackPointExtension>
            <ns3:hr>83</ns3:hr>
            <ns3:cad>0</ns3:cad>
          </ns3:TrackPointExtension>
        </extensions>
      </trkpt>
      <trkpt lat="43.45697410404682159423828125" lon="1.43250203691422939300537109375">
        <ele>209.1999969482421875</ele>
        <time>2026-08-05T12:19:20.000Z</time>
        <extensions>
          <ns3:TrackPointExtension>
            <ns3:hr>82</ns3:hr>
            <ns3:cad>0</ns3:cad>
          </ns3:TrackPointExtension>
        </extensions>
      </trkpt>
      <trkpt lat="43.4569816477596759796142578125" lon="1.43250203691422939300537109375">
        <ele>209.1999969482421875</ele>
        <time>2026-08-05T12:19:21.000Z</time>
        <extensions>
          <ns3:TrackPointExtension>
            <ns3:hr>82</ns3:hr>
            <ns3:cad>0</ns3:cad>
          </ns3:TrackPointExtension>
        </extensions>
      </trkpt>
      <trkpt lat="43.456982485949993133544921875" lon="1.43250186927616596221923828125">
        <ele>209.399993896484375</ele>
        <time>2026-08-05T12:19:22.000Z</time>
        <extensions>
          <ns3:TrackPointExtension>
            <ns3:hr>82</ns3:hr>
            <ns3:cad>0</ns3:cad>
          </ns3:TrackPointExtension>
        </extensions>
      </trkpt>
      <trkpt lat="43.45698625780642032623291015625" lon="1.432502456009387969970703125">
        <ele>209.600006103515625</ele>
        <time>2026-08-05T12:19:23.000Z</time>
        <extensions>
          <ns3:TrackPointExtension>
            <ns3:hr>81</ns3:hr>
            <ns3:cad>0</ns3:cad>
          </ns3:TrackPointExtension>
        </extensions>
      </trkpt>
      <trkpt lat="43.45698994584381580352783203125" lon="1.43250287510454654693603515625">
        <ele>209.600006103515625</ele>
        <time>2026-08-05T12:19:24.000Z</time>
        <extensions>
          <ns3:TrackPointExtension>
            <ns3:hr>80</ns3:hr>
            <ns3:cad>65</ns3:cad>
          </ns3:TrackPointExtension>
        </extensions>
      </trkpt>
      <trkpt lat="43.4569962322711944580078125" lon="1.43250337801873683929443359375">
        <ele>209.8000030517578125</ele>
        <time>2026-08-05T12:19:25.000Z</time>
        <extensions>
          <ns3:TrackPointExtension>
            <ns3:hr>80</ns3:hr>
            <ns3:cad>65</ns3:cad>
          </ns3:TrackPointExtension>
        </extensions>
      </trkpt>
      <trkpt lat="43.45699950121343135833740234375" lon="1.43250505439937114715576171875">
        <ele>210</ele>
        <time>2026-08-05T12:19:26.000Z</time>
        <extensions>
          <ns3:TrackPointExtension>
            <ns3:hr>79</ns3:hr>
            <ns3:cad>65</ns3:cad>
          </ns3:TrackPointExtension>
        </extensions>
      </trkpt>
      <trkpt lat="43.457001931965351104736328125" lon="1.43250656314194202423095703125">
        <ele>210.1999969482421875</ele>
        <time>2026-08-05T12:19:27.000Z</time>
        <extensions>
          <ns3:TrackPointExtension>
            <ns3:hr>79</ns3:hr>
            <ns3:cad>0</ns3:cad>
          </ns3:TrackPointExtension>
        </extensions>
      </trkpt>
      <trkpt lat="43.4570101462304592132568359375" lon="1.4325101673603057861328125">
        <ele>210.1999969482421875</ele>
        <time>2026-08-05T12:19:28.000Z</time>
        <extensions>
          <ns3:TrackPointExtension>
            <ns3:hr>78</ns3:hr>
            <ns3:cad>0</ns3:cad>
          </ns3:TrackPointExtension>
        </extensions>
      </trkpt>
      <trkpt lat="43.457014672458171844482421875" lon="1.43251209519803524017333984375">
        <ele>210.399993896484375</ele>
        <time>2026-08-05T12:19:29.000Z</time>
        <extensions>
          <ns3:TrackPointExtension>
            <ns3:hr>78</ns3:hr>
            <ns3:cad>0</ns3:cad>
          </ns3:TrackPointExtension>
        </extensions>
      </trkpt>
      <trkpt lat="43.45702104270458221435546875" lon="1.43251326866447925567626953125">
        <ele>210.600006103515625</ele>
        <time>2026-08-05T12:19:30.000Z</time>
        <extensions>
          <ns3:TrackPointExtension>
            <ns3:hr>78</ns3:hr>
            <ns3:cad>0</ns3:cad>
          </ns3:TrackPointExtension>
        </extensions>
      </trkpt>
      <trkpt lat="43.45703101716935634613037109375" lon="1.43251259811222553253173828125">
        <ele>210.600006103515625</ele>
        <time>2026-08-05T12:19:31.000Z</time>
        <extensions>
          <ns3:TrackPointExtension>
            <ns3:hr>77</ns3:hr>
            <ns3:cad>0</ns3:cad>
          </ns3:TrackPointExtension>
        </extensions>
      </trkpt>
      <trkpt lat="43.45703923143446445465087890625" lon="1.4325133524835109710693359375">
        <ele>210.8000030517578125</ele>
        <time>2026-08-05T12:19:32.000Z</time>
        <extensions>
          <ns3:TrackPointExtension>
            <ns3:hr>77</ns3:hr>
            <ns3:cad>0</ns3:cad>
          </ns3:TrackPointExtension>
        </extensions>
      </trkpt>
      <trkpt lat="43.45704912208020687103271484375" lon="1.43251226283609867095947265625">
        <ele>211</ele>
        <time>2026-08-05T12:19:33.000Z</time>
        <extensions>
          <ns3:TrackPointExtension>
            <ns3:hr>77</ns3:hr>
            <ns3:cad>0</ns3:cad>
          </ns3:TrackPointExtension>
        </extensions>
      </trkpt>
      <trkpt lat="43.457056246697902679443359375" lon="1.432511173188686370849609375">
        <ele>211.1999969482421875</ele>
        <time>2026-08-05T12:19:34.000Z</time>
        <extensions>
          <ns3:TrackPointExtension>
            <ns3:hr>77</ns3:hr>
            <ns3:cad>40</ns3:cad>
          </ns3:TrackPointExtension>
        </extensions>
      </trkpt>
      <trkpt lat="43.45706236548721790313720703125" lon="1.43250924535095691680908203125">
        <ele>211.399993896484375</ele>
        <time>2026-08-05T12:19:35.000Z</time>
        <extensions>
          <ns3:TrackPointExtension>
            <ns3:hr>76</ns3:hr>
            <ns3:cad>40</ns3:cad>
          </ns3:TrackPointExtension>
        </extensions>
      </trkpt>
      <trkpt lat="43.45706772990524768829345703125" lon="1.43250589258968830108642578125">
        <ele>211.8000030517578125</ele>
        <time>2026-08-05T12:19:36.000Z</time>
        <extensions>
          <ns3:TrackPointExtension>
            <ns3:hr>77</ns3:hr>
            <ns3:cad>40</ns3:cad>
          </ns3:TrackPointExtension>
        </extensions>
      </trkpt>
      <trkpt lat="43.4570721723139286041259765625" lon="1.43250153400003910064697265625">
        <ele>212</ele>
        <time>2026-08-05T12:19:37.000Z</time>
        <extensions>
          <ns3:TrackPointExtension>
            <ns3:hr>77</ns3:hr>
            <ns3:cad>42</ns3:cad>
          </ns3:TrackPointExtension>
        </extensions>
      </trkpt>
      <trkpt lat="43.457079716026782989501953125" lon="1.432498432695865631103515625">
        <ele>212.1999969482421875</ele>
        <time>2026-08-05T12:19:38.000Z</time>
        <extensions>
          <ns3:TrackPointExtension>
            <ns3:hr>77</ns3:hr>
            <ns3:cad>42</ns3:cad>
          </ns3:TrackPointExtension>
        </extensions>
      </trkpt>
      <trkpt lat="43.457095138728618621826171875" lon="1.43249348737299442291259765625">
        <ele>212.399993896484375</ele>
        <time>2026-08-05T12:19:39.000Z</time>
        <extensions>
          <ns3:TrackPointExtension>
            <ns3:hr>78</ns3:hr>
            <ns3:cad>42</ns3:cad>
          </ns3:TrackPointExtension>
        </extensions>
      </trkpt>
      <trkpt lat="43.45710511319339275360107421875" lon="1.43248912878334522247314453125">
        <ele>212.600006103515625</ele>
        <time>2026-08-05T12:19:40.000Z</time>
        <extensions>
          <ns3:TrackPointExtension>
            <ns3:hr>78</ns3:hr>
            <ns3:cad>44</ns3:cad>
          </ns3:TrackPointExtension>
        </extensions>
      </trkpt>
      <trkpt lat="43.45711399801075458526611328125" lon="1.43248896114528179168701171875">
        <ele>212.8000030517578125</ele>
        <time>2026-08-05T12:19:41.000Z</time>
        <extensions>
          <ns3:TrackPointExtension>
            <ns3:hr>79</ns3:hr>
            <ns3:cad>44</ns3:cad>
          </ns3:TrackPointExtension>
        </extensions>
      </trkpt>
      <trkpt lat="43.45712455920875072479248046875" lon="1.43248736858367919921875">
        <ele>213</ele>
        <time>2026-08-05T12:19:42.000Z</time>
        <extensions>
          <ns3:TrackPointExtension>
            <ns3:hr>80</ns3:hr>
            <ns3:cad>44</ns3:cad>
          </ns3:TrackPointExtension>
        </extensions>
      </trkpt>
      <trkpt lat="43.45713646151125431060791015625" lon="1.4324815012514591217041015625">
        <ele>213.1999969482421875</ele>
        <time>2026-08-05T12:19:43.000Z</time>
        <extensions>
          <ns3:TrackPointExtension>
            <ns3:hr>81</ns3:hr>
            <ns3:cad>44</ns3:cad>
          </ns3:TrackPointExtension>
        </extensions>
      </trkpt>
      <trkpt lat="43.45714635215699672698974609375" lon="1.43247873522341251373291015625">
        <ele>213.399993896484375</ele>
        <time>2026-08-05T12:19:44.000Z</time>
        <extensions>
          <ns3:TrackPointExtension>
            <ns3:hr>81</ns3:hr>
            <ns3:cad>44</ns3:cad>
          </ns3:TrackPointExtension>
        </extensions>
      </trkpt>
      <trkpt lat="43.45715381205081939697265625" lon="1.4324764721095561981201171875">
        <ele>213.600006103515625</ele>
        <time>2026-08-05T12:19:45.000Z</time>
        <extensions>
          <ns3:TrackPointExtension>
            <ns3:hr>82</ns3:hr>
            <ns3:cad>44</ns3:cad>
          </ns3:TrackPointExtension>
        </extensions>
      </trkpt>
      <trkpt lat="43.4571569971740245819091796875" lon="1.43247638829052448272705078125">
        <ele>213.8000030517578125</ele>
        <time>2026-08-05T12:19:46.000Z</time>
        <extensions>
          <ns3:TrackPointExtension>
            <ns3:hr>83</ns3:hr>
            <ns3:cad>44</ns3:cad>
          </ns3:TrackPointExtension>
        </extensions>
      </trkpt>
      <trkpt lat="43.45716194249689579010009765625" lon="1.43246951512992382049560546875">
        <ele>214</ele>
        <time>2026-08-05T12:19:47.000Z</time>
        <extensions>
          <ns3:TrackPointExtension>
            <ns3:hr>84</ns3:hr>
            <ns3:cad>45</ns3:cad>
          </ns3:TrackPointExtension>
        </extensions>
      </trkpt>
      <trkpt lat="43.45716764219105243682861328125" lon="1.43246465362608432769775390625">
        <ele>214.1999969482421875</ele>
        <time>2026-08-05T12:19:48.000Z</time>
        <extensions>
          <ns3:TrackPointExtension>
            <ns3:hr>85</ns3:hr>
            <ns3:cad>46</ns3:cad>
          </ns3:TrackPointExtension>
        </extensions>
      </trkpt>
      <trkpt lat="43.45717367716133594512939453125" lon="1.43246314488351345062255859375">
        <ele>214.399993896484375</ele>
        <time>2026-08-05T12:19:49.000Z</time>
        <extensions>
          <ns3:TrackPointExtension>
            <ns3:hr>86</ns3:hr>
            <ns3:cad>46</ns3:cad>
          </ns3:TrackPointExtension>
        </extensions>
      </trkpt>
      <trkpt lat="43.4571834839880466461181640625" lon="1.4324623905122280120849609375">
        <ele>214.8000030517578125</ele>
        <time>2026-08-05T12:19:50.000Z</time>
        <extensions>
          <ns3:TrackPointExtension>
            <ns3:hr>89</ns3:hr>
            <ns3:cad>47</ns3:cad>
          </ns3:TrackPointExtension>
        </extensions>
      </trkpt>
      <trkpt lat="43.45719270408153533935546875" lon="1.4324613846838474273681640625">
        <ele>215</ele>
        <time>2026-08-05T12:19:51.000Z</time>
        <extensions>
          <ns3:TrackPointExtension>
            <ns3:hr>92</ns3:hr>
            <ns3:cad>47</ns3:cad>
          </ns3:TrackPointExtension>
        </extensions>
      </trkpt>
      <trkpt lat="43.457201756536960601806640625" lon="1.43246197141706943511962890625">
        <ele>215.1999969482421875</ele>
        <time>2026-08-05T12:19:52.000Z</time>
        <extensions>
          <ns3:TrackPointExtension>
            <ns3:hr>95</ns3:hr>
            <ns3:cad>45</ns3:cad>
          </ns3:TrackPointExtension>
        </extensions>
      </trkpt>
      <trkpt lat="43.45720636658370494842529296875" lon="1.43246012739837169647216796875">
        <ele>215.600006103515625</ele>
        <time>2026-08-05T12:19:53.000Z</time>
        <extensions>
          <ns3:TrackPointExtension>
            <ns3:hr>97</ns3:hr>
            <ns3:cad>43</ns3:cad>
          </ns3:TrackPointExtension>
        </extensions>
      </trkpt>
      <trkpt lat="43.45721550285816192626953125" lon="1.432456187903881072998046875">
        <ele>215.8000030517578125</ele>
        <time>2026-08-05T12:19:54.000Z</time>
        <extensions>
          <ns3:TrackPointExtension>
            <ns3:hr>100</ns3:hr>
            <ns3:cad>43</ns3:cad>
          </ns3:TrackPointExtension>
        </extensions>
      </trkpt>
      <trkpt lat="43.4572230465710163116455078125" lon="1.43245325423777103424072265625">
        <ele>216</ele>
        <time>2026-08-05T12:19:55.000Z</time>
        <extensions>
          <ns3:TrackPointExtension>
            <ns3:hr>103</ns3:hr>
            <ns3:cad>43</ns3:cad>
          </ns3:TrackPointExtension>
        </extensions>
      </trkpt>
      <trkpt lat="43.45723285339772701263427734375" lon="1.4324511587619781494140625">
        <ele>216</ele>
        <time>2026-08-05T12:19:56.000Z</time>
        <extensions>
          <ns3:TrackPointExtension>
            <ns3:hr>106</ns3:hr>
            <ns3:cad>44</ns3:cad>
          </ns3:TrackPointExtension>
        </extensions>
      </trkpt>
      <trkpt lat="43.4572421573102474212646484375" lon="1.43244856037199497222900390625">
        <ele>216.1999969482421875</ele>
        <time>2026-08-05T12:19:57.000Z</time>
        <extensions>
          <ns3:TrackPointExtension>
            <ns3:hr>109</ns3:hr>
            <ns3:cad>44</ns3:cad>
          </ns3:TrackPointExtension>
        </extensions>
      </trkpt>
      <trkpt lat="43.4572498686611652374267578125" lon="1.43244914710521697998046875">
        <ele>216.399993896484375</ele>
        <time>2026-08-05T12:19:58.000Z</time>
        <extensions>
          <ns3:TrackPointExtension>
            <ns3:hr>112</ns3:hr>
            <ns3:cad>43</ns3:cad>
          </ns3:TrackPointExtension>
        </extensions>
      </trkpt>
      <trkpt lat="43.45725632272660732269287109375" lon="1.4324486441910266876220703125">
        <ele>216.600006103515625</ele>
        <time>2026-08-05T12:19:59.000Z</time>
        <extensions>
          <ns3:TrackPointExtension>
            <ns3:hr>114</ns3:hr>
            <ns3:cad>41</ns3:cad>
          </ns3:TrackPointExtension>
        </extensions>
      </trkpt>
      <trkpt lat="43.4572649560868740081787109375" lon="1.43245258368551731109619140625">
        <ele>216.8000030517578125</ele>
        <time>2026-08-05T12:20:00.000Z</time>
        <extensions>
          <ns3:TrackPointExtension>
            <ns3:hr>116</ns3:hr>
            <ns3:cad>41</ns3:cad>
          </ns3:TrackPointExtension>
        </extensions>
      </trkpt>
      <trkpt lat="43.45727090723812580108642578125" lon="1.43245459534227848052978515625">
        <ele>217.1999969482421875</ele>
        <time>2026-08-05T12:20:01.000Z</time>
        <extensions>
          <ns3:TrackPointExtension>
            <ns3:hr>117</ns3:hr>
            <ns3:cad>41</ns3:cad>
          </ns3:TrackPointExtension>
        </extensions>
      </trkpt>
      <trkpt lat="43.457276187837123870849609375" lon="1.43245208077132701873779296875">
        <ele>217.399993896484375</ele>
        <time>2026-08-05T12:20:02.000Z</time>
        <extensions>
          <ns3:TrackPointExtension>
            <ns3:hr>119</ns3:hr>
            <ns3:cad>40</ns3:cad>
          </ns3:TrackPointExtension>
        </extensions>
      </trkpt>
      <trkpt lat="43.45728632993996143341064453125" lon="1.43245107494294643402099609375">
        <ele>217.399993896484375</ele>
        <time>2026-08-05T12:20:03.000Z</time>
        <extensions>
          <ns3:TrackPointExtension>
            <ns3:hr>120</ns3:hr>
            <ns3:cad>40</ns3:cad>
          </ns3:TrackPointExtension>
        </extensions>
      </trkpt>
      <trkpt lat="43.45729689113795757293701171875" lon="1.4324473030865192413330078125">
        <ele>217.8000030517578125</ele>
        <time>2026-08-05T12:20:04.000Z</time>
        <extensions>
          <ns3:TrackPointExtension>
            <ns3:hr>120</ns3:hr>
            <ns3:cad>40</ns3:cad>
          </ns3:TrackPointExtension>
        </extensions>
      </trkpt>
      <trkpt lat="43.45730242319405078887939453125" lon="1.43244503997266292572021484375">
        <ele>218</ele>
        <time>2026-08-05T12:20:05.000Z</time>
        <extensions>
          <ns3:TrackPointExtension>
            <ns3:hr>120</ns3:hr>
            <ns3:cad>40</ns3:cad>
          </ns3:TrackPointExtension>
        </extensions>
      </trkpt>
      <trkpt lat="43.4573127329349517822265625" lon="1.43243934027850627899169921875">
        <ele>218.1999969482421875</ele>
        <time>2026-08-05T12:20:06.000Z</time>
        <extensions>
          <ns3:TrackPointExtension>
            <ns3:hr>121</ns3:hr>
            <ns3:cad>77</ns3:cad>
          </ns3:TrackPointExtension>
        </extensions>
      </trkpt>
      <trkpt lat="43.4573229588568210601806640625" lon="1.432433389127254486083984375">
        <ele>218.399993896484375</ele>
        <time>2026-08-05T12:20:07.000Z</time>
        <extensions>
          <ns3:TrackPointExtension>
            <ns3:hr>121</ns3:hr>
            <ns3:cad>77</ns3:cad>
          </ns3:TrackPointExtension>
        </extensions>
      </trkpt>
      <trkpt lat="43.4573293291032314300537109375" lon="1.43243129365146160125732421875">
        <ele>218.600006103515625</ele>
        <time>2026-08-05T12:20:08.000Z</time>
        <extensions>
          <ns3:TrackPointExtension>
            <ns3:hr>121</ns3:hr>
            <ns3:cad>43</ns3:cad>
          </ns3:TrackPointExtension>
        </extensions>
      </trkpt>
      <trkpt lat="43.457333855330944061279296875" lon="1.43242442049086093902587890625">
        <ele>218.8000030517578125</ele>
        <time>2026-08-05T12:20:09.000Z</time>
        <extensions>
          <ns3:TrackPointExtension>
            <ns3:hr>121</ns3:hr>
            <ns3:cad>43</ns3:cad>
          </ns3:TrackPointExtension>
        </extensions>
      </trkpt>
      <trkpt lat="43.4573450870811939239501953125" lon="1.43241989426314830780029296875">
        <ele>219</ele>
        <time>2026-08-05T12:20:10.000Z</time>
        <extensions>
          <ns3:TrackPointExtension>
            <ns3:hr>121</ns3:hr>
            <ns3:cad>43</ns3:cad>
          </ns3:TrackPointExtension>
        </extensions>
      </trkpt>
      <trkpt lat="43.4573524631559848785400390625" lon="1.43242240883409976959228515625">
        <ele>219.1999969482421875</ele>
        <time>2026-08-05T12:20:11.000Z</time>
        <extensions>
          <ns3:TrackPointExtension>
            <ns3:hr>122</ns3:hr>
            <ns3:cad>42</ns3:cad>
          </ns3:TrackPointExtension>
        </extensions>
      </trkpt>
      <trkpt lat="43.45735824666917324066162109375" lon="1.43242408521473407745361328125">
        <ele>219.399993896484375</ele>
        <time>2026-08-05T12:20:12.000Z</time>
        <extensions>
          <ns3:TrackPointExtension>
            <ns3:hr>122</ns3:hr>
            <ns3:cad>42</ns3:cad>
          </ns3:TrackPointExtension>
        </extensions>
      </trkpt>
      <trkpt lat="43.4573662094771862030029296875" lon="1.43242525868117809295654296875">
        <ele>219.600006103515625</ele>
        <time>2026-08-05T12:20:13.000Z</time>
        <extensions>
          <ns3:TrackPointExtension>
            <ns3:hr>122</ns3:hr>
            <ns3:cad>42</ns3:cad>
          </ns3:TrackPointExtension>
        </extensions>
      </trkpt>
      <trkpt lat="43.457378447055816650390625" lon="1.4324198104441165924072265625">
        <ele>219.8000030517578125</ele>
        <time>2026-08-05T12:20:14.000Z</time>
        <extensions>
          <ns3:TrackPointExtension>
            <ns3:hr>122</ns3:hr>
            <ns3:cad>41</ns3:cad>
          </ns3:TrackPointExtension>
        </extensions>
      </trkpt>
      <trkpt lat="43.45738557167351245880126953125" lon="1.43242173828184604644775390625">
        <ele>220</ele>
        <time>2026-08-05T12:20:15.000Z</time>
        <extensions>
          <ns3:TrackPointExtension>
            <ns3:hr>122</ns3:hr>
            <ns3:cad>41</ns3:cad>
          </ns3:TrackPointExtension>
        </extensions>
      </trkpt>
      <trkpt lat="43.45739328302443027496337890625" lon="1.43242307938635349273681640625">
        <ele>220.1999969482421875</ele>
        <time>2026-08-05T12:20:16.000Z</time>
        <extensions>
          <ns3:TrackPointExtension>
            <ns3:hr>122</ns3:hr>
            <ns3:cad>41</ns3:cad>
          </ns3:TrackPointExtension>
        </extensions>
      </trkpt>
      <trkpt lat="43.45740183256566524505615234375" lon="1.4324221573770046234130859375">
        <ele>220.399993896484375</ele>
        <time>2026-08-05T12:20:17.000Z</time>
        <extensions>
          <ns3:TrackPointExtension>
            <ns3:hr>122</ns3:hr>
            <ns3:cad>42</ns3:cad>
          </ns3:TrackPointExtension>
        </extensions>
      </trkpt>
      <trkpt lat="43.45740619115531444549560546875" lon="1.43242425285279750823974609375">
        <ele>220.600006103515625</ele>
        <time>2026-08-05T12:20:18.000Z</time>
        <extensions>
          <ns3:TrackPointExtension>
            <ns3:hr>123</ns3:hr>
            <ns3:cad>42</ns3:cad>
          </ns3:TrackPointExtension>
        </extensions>
      </trkpt>
      <trkpt lat="43.45741038210690021514892578125" lon="1.4324268512427806854248046875">
        <ele>220.8000030517578125</ele>
        <time>2026-08-05T12:20:19.000Z</time>
        <extensions>
          <ns3:TrackPointExtension>
            <ns3:hr>124</ns3:hr>
            <ns3:cad>43</ns3:cad>
          </ns3:TrackPointExtension>
        </extensions>
      </trkpt>
      <trkpt lat="43.457417674362659454345703125" lon="1.4324231632053852081298828125">
        <ele>221</ele>
        <time>2026-08-05T12:20:20.000Z</time>
        <extensions>
          <ns3:TrackPointExtension>
            <ns3:hr>125</ns3:hr>
            <ns3:cad>43</ns3:cad>
          </ns3:TrackPointExtension>
        </extensions>
      </trkpt>
      <trkpt lat="43.457423038780689239501953125" lon="1.4324144460260868072509765625">
        <ele>221.1999969482421875</ele>
        <time>2026-08-05T12:20:21.000Z</time>
        <extensions>
          <ns3:TrackPointExtension>
            <ns3:hr>125</ns3:hr>
            <ns3:cad>43</ns3:cad>
          </ns3:TrackPointExtension>
        </extensions>
      </trkpt>
      <trkpt lat="43.4574272297322750091552734375" lon="1.4324082434177398681640625">
        <ele>221.1999969482421875</ele>
        <time>2026-08-05T12:20:22.000Z</time>
        <extensions>
          <ns3:TrackPointExtension>
            <ns3:hr>126</ns3:hr>
            <ns3:cad>43</ns3:cad>
          </ns3:TrackPointExtension>
        </extensions>
      </trkpt>
      <trkpt lat="43.4574325941503047943115234375" lon="1.4324020408093929290771484375">
        <ele>221.399993896484375</ele>
        <time>2026-08-05T12:20:23.000Z</time>
        <extensions>
          <ns3:TrackPointExtension>
            <ns3:hr>126</ns3:hr>
            <ns3:cad>43</ns3:cad>
          </ns3:TrackPointExtension>
        </extensions>
      </trkpt>
      <trkpt lat="43.45743678510189056396484375" lon="1.43239013850688934326171875">
        <ele>221.600006103515625</ele>
        <time>2026-08-05T12:20:24.000Z</time>
        <extensions>
          <ns3:TrackPointExtension>
            <ns3:hr>127</ns3:hr>
            <ns3:cad>43</ns3:cad>
          </ns3:TrackPointExtension>
        </extensions>
      </trkpt>
      <trkpt lat="43.4574386291205883026123046875" lon="1.43238385207951068878173828125">
        <ele>221.8000030517578125</ele>
        <time>2026-08-05T12:20:25.000Z</time>
        <extensions>
          <ns3:TrackPointExtension>
            <ns3:hr>127</ns3:hr>
            <ns3:cad>43</ns3:cad>
          </ns3:TrackPointExtension>
        </extensions>
      </trkpt>
      <trkpt lat="43.4574414789676666259765625" lon="1.43237463198602199554443359375">
        <ele>221.8000030517578125</ele>
        <time>2026-08-05T12:20:26.000Z</time>
        <extensions>
          <ns3:TrackPointExtension>
            <ns3:hr>128</ns3:hr>
            <ns3:cad>42</ns3:cad>
          </ns3:TrackPointExtension>
        </extensions>
      </trkpt>
      <trkpt lat="43.45744709484279155731201171875" lon="1.43236356787383556365966796875">
        <ele>222</ele>
        <time>2026-08-05T12:20:27.000Z</time>
        <extensions>
          <ns3:TrackPointExtension>
            <ns3:hr>128</ns3:hr>
            <ns3:cad>42</ns3:cad>
          </ns3:TrackPointExtension>
        </extensions>
      </trkpt>
      <trkpt lat="43.4574513696134090423583984375" lon="1.43235317431390285491943359375">
        <ele>222.1999969482421875</ele>
        <time>2026-08-05T12:20:28.000Z</time>
        <extensions>
          <ns3:TrackPointExtension>
            <ns3:hr>128</ns3:hr>
            <ns3:cad>42</ns3:cad>
          </ns3:TrackPointExtension>
        </extensions>
      </trkpt>
      <trkpt lat="43.4574548900127410888671875" lon="1.43234319984912872314453125">
        <ele>222.1999969482421875</ele>
        <time>2026-08-05T12:20:29.000Z</time>
        <extensions>
          <ns3:TrackPointExtension>
            <ns3:hr>128</ns3:hr>
            <ns3:cad>79</ns3:cad>
          </ns3:TrackPointExtension>
        </extensions>
      </trkpt>
      <trkpt lat="43.45745958387851715087890625" lon="1.432330794632434844970703125">
        <ele>222.399993896484375</ele>
        <time>2026-08-05T12:20:30.000Z</time>
        <extensions>
          <ns3:TrackPointExtension>
            <ns3:hr>128</ns3:hr>
            <ns3:cad>79</ns3:cad>
          </ns3:TrackPointExtension>
        </extensions>
      </trkpt>
      <trkpt lat="43.45746167935431003570556640625" lon="1.432326100766658782958984375">
        <ele>222.8000030517578125</ele>
        <time>2026-08-05T12:20:31.000Z</time>
        <extensions>
          <ns3:TrackPointExtension>
            <ns3:hr>128</ns3:hr>
            <ns3:cad>78</ns3:cad>
          </ns3:TrackPointExtension>
        </extensions>
      </trkpt>
      <trkpt lat="43.45746536739170551300048828125" lon="1.43231679685413837432861328125">
        <ele>223.1999969482421875</ele>
        <time>2026-08-05T12:20:32.000Z</time>
        <extensions>
          <ns3:TrackPointExtension>
            <ns3:hr>128</ns3:hr>
            <ns3:cad>77</ns3:cad>
          </ns3:TrackPointExtension>
        </extensions>
      </trkpt>
      <trkpt lat="43.4574701450765132904052734375" lon="1.4323081634938716888427734375">
        <ele>223.399993896484375</ele>
        <time>2026-08-05T12:20:33.000Z</time>
        <extensions>
          <ns3:TrackPointExtension>
            <ns3:hr>128</ns3:hr>
            <ns3:cad>77</ns3:cad>
          </ns3:TrackPointExtension>
        </extensions>
      </trkpt>
      <trkpt lat="43.4574761800467967987060546875" lon="1.43230020068585872650146484375">
        <ele>223.600006103515625</ele>
        <time>2026-08-05T12:20:34.000Z</time>
        <extensions>
          <ns3:TrackPointExtension>
            <ns3:hr>128</ns3:hr>
            <ns3:cad>77</ns3:cad>
          </ns3:TrackPointExtension>
        </extensions>
      </trkpt>
      <trkpt lat="43.45748372375965118408203125" lon="1.432297267019748687744140625">
        <ele>223.8000030517578125</ele>
        <time>2026-08-05T12:20:35.000Z</time>
        <extensions>
          <ns3:TrackPointExtension>
            <ns3:hr>128</ns3:hr>
            <ns3:cad>78</ns3:cad>
          </ns3:TrackPointExtension>
        </extensions>
      </trkpt>
      <trkpt lat="43.4574902616441249847412109375" lon="1.4323014579713344573974609375">
        <ele>224</ele>
        <time>2026-08-05T12:20:36.000Z</time>
        <extensions>
          <ns3:TrackPointExtension>
            <ns3:hr>128</ns3:hr>
            <ns3:cad>79</ns3:cad>
          </ns3:TrackPointExtension>
        </extensions>
      </trkpt>
      <trkpt lat="43.45749554224312305450439453125" lon="1.432305313646793365478515625">
        <ele>224.1999969482421875</ele>
        <time>2026-08-05T12:20:37.000Z</time>
        <extensions>
          <ns3:TrackPointExtension>
            <ns3:hr>128</ns3:hr>
            <ns3:cad>79</ns3:cad>
          </ns3:TrackPointExtension>
        </extensions>
      </trkpt>
      <trkpt lat="43.45749755389988422393798828125" lon="1.43231310881674289703369140625">
        <ele>224.399993896484375</ele>
        <time>2026-08-05T12:20:38.000Z</time>
        <extensions>
          <ns3:TrackPointExtension>
            <ns3:hr>128</ns3:hr>
            <ns3:cad>79</ns3:cad>
          </ns3:TrackPointExtension>
        </extensions>
      </trkpt>
      <trkpt lat="43.4574999846518039703369140625" lon="1.43231931142508983612060546875">
        <ele>224.600006103515625</ele>
        <time>2026-08-05T12:20:39.000Z</time>
        <extensions>
          <ns3:TrackPointExtension>
            <ns3:hr>129</ns3:hr>
            <ns3:cad>79</ns3:cad>
          </ns3:TrackPointExtension>
        </extensions>
      </trkpt>
      <trkpt lat="43.457502834498882293701171875" lon="1.43232400529086589813232421875">
        <ele>224.8000030517578125</ele>
        <time>2026-08-05T12:20:40.000Z</time>
        <extensions>
          <ns3:TrackPointExtension>
            <ns3:hr>129</ns3:hr>
            <ns3:cad>41</ns3:cad>
          </ns3:TrackPointExtension>
        </extensions>
      </trkpt>
      <trkpt lat="43.4575066901743412017822265625" lon="1.4323323033750057220458984375">
        <ele>225</ele>
        <time>2026-08-05T12:20:41.000Z</time>
        <extensions>
          <ns3:TrackPointExtension>
            <ns3:hr>129</ns3:hr>
            <ns3:cad>41</ns3:cad>
          </ns3:TrackPointExtension>
        </extensions>
      </trkpt>
      <trkpt lat="43.4575087018311023712158203125" lon="1.43233783543109893798828125">
        <ele>225.1999969482421875</ele>
        <time>2026-08-05T12:20:42.000Z</time>
        <extensions>
          <ns3:TrackPointExtension>
            <ns3:hr>129</ns3:hr>
            <ns3:cad>41</ns3:cad>
          </ns3:TrackPointExtension>
        </extensions>
      </trkpt>
      <trkpt lat="43.45751213841140270233154296875" lon="1.432339511811733245849609375">
        <ele>225.399993896484375</ele>
        <time>2026-08-05T12:20:43.000Z</time>
        <extensions>
          <ns3:TrackPointExtension>
            <ns3:hr>129</ns3:hr>
            <ns3:cad>41</ns3:cad>
          </ns3:TrackPointExtension>
        </extensions>
      </trkpt>
      <trkpt lat="43.45751188695430755615234375" lon="1.43234588205814361572265625">
        <ele>225.600006103515625</ele>
        <time>2026-08-05T12:20:44.000Z</time>
        <extensions>
          <ns3:TrackPointExtension>
            <ns3:hr>129</ns3:hr>
            <ns3:cad>76</ns3:cad>
          </ns3:TrackPointExtension>
        </extensions>
      </trkpt>
      <trkpt lat="43.45751431770622730255126953125" lon="1.43234764225780963897705078125">
        <ele>225.8000030517578125</ele>
        <time>2026-08-05T12:20:45.000Z</time>
        <extensions>
          <ns3:TrackPointExtension>
            <ns3:hr>129</ns3:hr>
            <ns3:cad>76</ns3:cad>
          </ns3:TrackPointExtension>
        </extensions>
      </trkpt>
      <trkpt lat="43.45750811509788036346435546875" lon="1.43235183320939540863037109375">
        <ele>226</ele>
        <time>2026-08-05T12:20:46.000Z</time>
        <extensions>
          <ns3:TrackPointExtension>
            <ns3:hr>129</ns3:hr>
            <ns3:cad>76</ns3:cad>
          </ns3:TrackPointExtension>
        </extensions>
      </trkpt>
      <trkpt lat="43.45750861801207065582275390625" lon="1.43235937692224979400634765625">
        <ele>226.1999969482421875</ele>
        <time>2026-08-05T12:20:47.000Z</time>
        <extensions>
          <ns3:TrackPointExtension>
            <ns3:hr>129</ns3:hr>
            <ns3:cad>73</ns3:cad>
          </ns3:TrackPointExtension>
        </extensions>
      </trkpt>
      <trkpt lat="43.45750945620238780975341796875" lon="1.43236625008285045623779296875">
        <ele>226.399993896484375</ele>
        <time>2026-08-05T12:20:48.000Z</time>
        <extensions>
          <ns3:TrackPointExtension>
            <ns3:hr>129</ns3:hr>
            <ns3:cad>73</ns3:cad>
          </ns3:TrackPointExtension>
        </extensions>
      </trkpt>
      <trkpt lat="43.45751188695430755615234375" lon="1.43237479962408542633056640625">
        <ele>226.399993896484375</ele>
        <time>2026-08-05T12:20:49.000Z</time>
        <extensions>
          <ns3:TrackPointExtension>
            <ns3:hr>129</ns3:hr>
            <ns3:cad>73</ns3:cad>
          </ns3:TrackPointExtension>
        </extensions>
      </trkpt>
      <trkpt lat="43.45751247368752956390380859375" lon="1.43238343298435211181640625">
        <ele>226.600006103515625</ele>
        <time>2026-08-05T12:20:50.000Z</time>
        <extensions>
          <ns3:TrackPointExtension>
            <ns3:hr>130</ns3:hr>
            <ns3:cad>42</ns3:cad>
          </ns3:TrackPointExtension>
        </extensions>
      </trkpt>
      <trkpt lat="43.4575130604207515716552734375" lon="1.432391814887523651123046875">
        <ele>226.8000030517578125</ele>
        <time>2026-08-05T12:20:51.000Z</time>
        <extensions>
          <ns3:TrackPointExtension>
            <ns3:hr>129</ns3:hr>
            <ns3:cad>41</ns3:cad>
          </ns3:TrackPointExtension>
        </extensions>
      </trkpt>
      <trkpt lat="43.45751364715397357940673828125" lon="1.4323986880481243133544921875">
        <ele>227</ele>
        <time>2026-08-05T12:20:52.000Z</time>
        <extensions>
          <ns3:TrackPointExtension>
            <ns3:hr>129</ns3:hr>
            <ns3:cad>41</ns3:cad>
          </ns3:TrackPointExtension>
        </extensions>
      </trkpt>
      <trkpt lat="43.4575127251446247100830078125" lon="1.43240581266582012176513671875">
        <ele>227.399993896484375</ele>
        <time>2026-08-05T12:20:53.000Z</time>
        <extensions>
          <ns3:TrackPointExtension>
            <ns3:hr>129</ns3:hr>
            <ns3:cad>41</ns3:cad>
          </ns3:TrackPointExtension>
        </extensions>
      </trkpt>
      <trkpt lat="43.457510881125926971435546875" lon="1.43241100944578647613525390625">
        <ele>227.600006103515625</ele>
        <time>2026-08-05T12:20:54.000Z</time>
        <extensions>
          <ns3:TrackPointExtension>
            <ns3:hr>129</ns3:hr>
            <ns3:cad>42</ns3:cad>
          </ns3:TrackPointExtension>
        </extensions>
      </trkpt>
      <trkpt lat="43.45750987529754638671875" lon="1.43241469748318195343017578125">
        <ele>227.600006103515625</ele>
        <time>2026-08-05T12:20:55.000Z</time>
        <extensions>
          <ns3:TrackPointExtension>
            <ns3:hr>129</ns3:hr>
            <ns3:cad>42</ns3:cad>
          </ns3:TrackPointExtension>
        </extensions>
      </trkpt>
      <trkpt lat="43.457511551678180694580078125" lon="1.43242391757667064666748046875">
        <ele>227.8000030517578125</ele>
        <time>2026-08-05T12:20:56.000Z</time>
        <extensions>
          <ns3:TrackPointExtension>
            <ns3:hr>129</ns3:hr>
            <ns3:cad>42</ns3:cad>
          </ns3:TrackPointExtension>
        </extensions>
      </trkpt>
      <trkpt lat="43.45751649700105190277099609375" lon="1.43243447877466678619384765625">
        <ele>227.8000030517578125</ele>
        <time>2026-08-05T12:20:57.000Z</time>
        <extensions>
          <ns3:TrackPointExtension>
            <ns3:hr>130</ns3:hr>
            <ns3:cad>42</ns3:cad>
          </ns3:TrackPointExtension>
        </extensions>
      </trkpt>
      <trkpt lat="43.45752253197133541107177734375" lon="1.43244520761072635650634765625">
        <ele>227.8000030517578125</ele>
        <time>2026-08-05T12:20:58.000Z</time>
        <extensions>
          <ns3:TrackPointExtension>
            <ns3:hr>129</ns3:hr>
            <ns3:cad>42</ns3:cad>
          </ns3:TrackPointExtension>
        </extensions>
      </trkpt>
      <trkpt lat="43.45752689056098461151123046875" lon="1.432450823485851287841796875">
        <ele>228</ele>
        <time>2026-08-05T12:20:59.000Z</time>
        <extensions>
          <ns3:TrackPointExtension>
            <ns3:hr>129</ns3:hr>
            <ns3:cad>41</ns3:cad>
          </ns3:TrackPointExtension>
        </extensions>
      </trkpt>
      <trkpt lat="43.457531668245792388916015625" lon="1.43245853483676910400390625">
        <ele>228.1999969482421875</ele>
        <time>2026-08-05T12:21:00.000Z</time>
        <extensions>
          <ns3:TrackPointExtension>
            <ns3:hr>129</ns3:hr>
            <ns3:cad>41</ns3:cad>
          </ns3:TrackPointExtension>
        </extensions>
      </trkpt>
      <trkpt lat="43.45753225497901439666748046875" lon="1.43246750347316265106201171875">
        <ele>228.399993896484375</ele>
        <time>2026-08-05T12:21:01.000Z</time>
        <extensions>
          <ns3:TrackPointExtension>
            <ns3:hr>129</ns3:hr>
            <ns3:cad>41</ns3:cad>
          </ns3:TrackPointExtension>
        </extensions>
      </trkpt>
      <trkpt lat="43.4575345180928707122802734375" lon="1.43247655592858791351318359375">
        <ele>228.600006103515625</ele>
        <time>2026-08-05T12:21:02.000Z</time>
        <extensions>
          <ns3:TrackPointExtension>
            <ns3:hr>129</ns3:hr>
            <ns3:cad>41</ns3:cad>
          </ns3:TrackPointExtension>
        </extensions>
      </trkpt>
      <trkpt lat="43.457536362111568450927734375" lon="1.43248309381306171417236328125">
        <ele>228.8000030517578125</ele>
        <time>2026-08-05T12:21:03.000Z</time>
        <extensions>
          <ns3:TrackPointExtension>
            <ns3:hr>129</ns3:hr>
            <ns3:cad>41</ns3:cad>
          </ns3:TrackPointExtension>
        </extensions>
      </trkpt>
      <trkpt lat="43.45753862522542476654052734375" lon="1.4324959181249141693115234375">
        <ele>229.1999969482421875</ele>
        <time>2026-08-05T12:21:04.000Z</time>
        <extensions>
          <ns3:TrackPointExtension>
            <ns3:hr>129</ns3:hr>
            <ns3:cad>43</ns3:cad>
          </ns3:TrackPointExtension>
        </extensions>
      </trkpt>
      <trkpt lat="43.45754113979637622833251953125" lon="1.4325086586177349090576171875">
        <ele>229.399993896484375</ele>
        <time>2026-08-05T12:21:05.000Z</time>
        <extensions>
          <ns3:TrackPointExtension>
            <ns3:hr>129</ns3:hr>
            <ns3:cad>43</ns3:cad>
          </ns3:TrackPointExtension>
        </extensions>
      </trkpt>
      <trkpt lat="43.45754281617701053619384765625" lon="1.4325224049389362335205078125">
        <ele>229.399993896484375</ele>
        <time>2026-08-05T12:21:06.000Z</time>
        <extensions>
          <ns3:TrackPointExtension>
            <ns3:hr>129</ns3:hr>
            <ns3:cad>43</ns3:cad>
          </ns3:TrackPointExtension>
        </extensions>
      </trkpt>
      <trkpt lat="43.45754449255764484405517578125" lon="1.432535648345947265625">
        <ele>229.600006103515625</ele>
        <time>2026-08-05T12:21:07.000Z</time>
        <extensions>
          <ns3:TrackPointExtension>
            <ns3:hr>130</ns3:hr>
            <ns3:cad>43</ns3:cad>
          </ns3:TrackPointExtension>
        </extensions>
      </trkpt>
      <trkpt lat="43.45754683949053287506103515625" lon="1.43254981376230716705322265625">
        <ele>229.600006103515625</ele>
        <time>2026-08-05T12:21:08.000Z</time>
        <extensions>
          <ns3:TrackPointExtension>
            <ns3:hr>129</ns3:hr>
            <ns3:cad>45</ns3:cad>
          </ns3:TrackPointExtension>
        </extensions>
      </trkpt>
      <trkpt lat="43.4575506113469600677490234375" lon="1.43256138078868389129638671875">
        <ele>229.600006103515625</ele>
        <time>2026-08-05T12:21:09.000Z</time>
        <extensions>
          <ns3:TrackPointExtension>
            <ns3:hr>129</ns3:hr>
            <ns3:cad>45</ns3:cad>
          </ns3:TrackPointExtension>
        </extensions>
      </trkpt>
      <trkpt lat="43.45755346119403839111328125" lon="1.4325680024921894073486328125">
        <ele>229.600006103515625</ele>
        <time>2026-08-05T12:21:10.000Z</time>
        <extensions>
          <ns3:TrackPointExtension>
            <ns3:hr>129</ns3:hr>
            <ns3:cad>43</ns3:cad>
          </ns3:TrackPointExtension>
        </extensions>
      </trkpt>
      <trkpt lat="43.4575583226978778839111328125" lon="1.43257780931890010833740234375">
        <ele>229.8000030517578125</ele>
        <time>2026-08-05T12:21:11.000Z</time>
        <extensions>
          <ns3:TrackPointExtension>
            <ns3:hr>129</ns3:hr>
            <ns3:cad>43</ns3:cad>
          </ns3:TrackPointExtension>
        </extensions>
      </trkpt>
      <trkpt lat="43.457562513649463653564453125" lon="1.43258769996464252471923828125">
        <ele>229.8000030517578125</ele>
        <time>2026-08-05T12:21:12.000Z</time>
        <extensions>
          <ns3:TrackPointExtension>
            <ns3:hr>129</ns3:hr>
            <ns3:cad>43</ns3:cad>
          </ns3:TrackPointExtension>
        </extensions>
      </trkpt>
      <trkpt lat="43.45756779424846172332763671875" lon="1.43259356729686260223388671875">
        <ele>230</ele>
        <time>2026-08-05T12:21:13.000Z</time>
        <extensions>
          <ns3:TrackPointExtension>
            <ns3:hr>129</ns3:hr>
            <ns3:cad>43</ns3:cad>
          </ns3:TrackPointExtension>
        </extensions>
      </trkpt>
      <trkpt lat="43.45756846480071544647216796875" lon="1.4326022006571292877197265625">
        <ele>230</ele>
        <time>2026-08-05T12:21:14.000Z</time>
        <extensions>
          <ns3:TrackPointExtension>
            <ns3:hr>129</ns3:hr>
            <ns3:cad>42</ns3:cad>
          </ns3:TrackPointExtension>
        </extensions>
      </trkpt>
      <trkpt lat="43.45757349394261837005615234375" lon="1.43260966055095195770263671875">
        <ele>230.1999969482421875</ele>
        <time>2026-08-05T12:21:15.000Z</time>
        <extensions>
          <ns3:TrackPointExtension>
            <ns3:hr>129</ns3:hr>
            <ns3:cad>42</ns3:cad>
          </ns3:TrackPointExtension>
        </extensions>
      </trkpt>
      <trkpt lat="43.45757869072258472442626953125" lon="1.43261804245412349700927734375">
        <ele>230.399993896484375</ele>
        <time>2026-08-05T12:21:16.000Z</time>
        <extensions>
          <ns3:TrackPointExtension>
            <ns3:hr>129</ns3:hr>
            <ns3:cad>40</ns3:cad>
          </ns3:TrackPointExtension>
        </extensions>
      </trkpt>
      <trkpt lat="43.45757961273193359375" lon="1.43262307159602642059326171875">
        <ele>230.600006103515625</ele>
        <time>2026-08-05T12:21:17.000Z</time>
        <extensions>
          <ns3:TrackPointExtension>
            <ns3:hr>129</ns3:hr>
            <ns3:cad>40</ns3:cad>
          </ns3:TrackPointExtension>
        </extensions>
      </trkpt>
      <trkpt lat="43.4575801156461238861083984375" lon="1.4326335489749908447265625">
        <ele>230.600006103515625</ele>
        <time>2026-08-05T12:21:18.000Z</time>
        <extensions>
          <ns3:TrackPointExtension>
            <ns3:hr>129</ns3:hr>
            <ns3:cad>41</ns3:cad>
          </ns3:TrackPointExtension>
        </extensions>
      </trkpt>
      <trkpt lat="43.457579948008060455322265625" lon="1.43263983540236949920654296875">
        <ele>230.600006103515625</ele>
        <time>2026-08-05T12:21:19.000Z</time>
        <extensions>
          <ns3:TrackPointExtension>
            <ns3:hr>129</ns3:hr>
            <ns3:cad>41</ns3:cad>
          </ns3:TrackPointExtension>
        </extensions>
      </trkpt>
      <trkpt lat="43.45758564770221710205078125" lon="1.43264654092490673065185546875">
        <ele>230.600006103515625</ele>
        <time>2026-08-05T12:21:20.000Z</time>
        <extensions>
          <ns3:TrackPointExtension>
            <ns3:hr>129</ns3:hr>
            <ns3:cad>41</ns3:cad>
          </ns3:TrackPointExtension>
        </extensions>
      </trkpt>
      <trkpt lat="43.457592017948627471923828125" lon="1.4326541684567928314208984375">
        <ele>230.600006103515625</ele>
        <time>2026-08-05T12:21:21.000Z</time>
        <extensions>
          <ns3:TrackPointExtension>
            <ns3:hr>129</ns3:hr>
            <ns3:cad>40</ns3:cad>
          </ns3:TrackPointExtension>
        </extensions>
      </trkpt>
      <trkpt lat="43.457595370709896087646484375" lon="1.43266062252223491668701171875">
        <ele>230.600006103515625</ele>
        <time>2026-08-05T12:21:22.000Z</time>
        <extensions>
          <ns3:TrackPointExtension>
            <ns3:hr>129</ns3:hr>
            <ns3:cad>40</ns3:cad>
          </ns3:TrackPointExtension>
        </extensions>
      </trkpt>
      <trkpt lat="43.4576015733182430267333984375" lon="1.43266799859702587127685546875">
        <ele>230.600006103515625</ele>
        <time>2026-08-05T12:21:23.000Z</time>
        <extensions>
          <ns3:TrackPointExtension>
            <ns3:hr>129</ns3:hr>
            <ns3:cad>0</ns3:cad>
          </ns3:TrackPointExtension>
        </extensions>
      </trkpt>
      <trkpt lat="43.45760551281273365020751953125" lon="1.43267688341438770294189453125">
        <ele>230.600006103515625</ele>
        <time>2026-08-05T12:21:24.000Z</time>
        <extensions>
          <ns3:TrackPointExtension>
            <ns3:hr>129</ns3:hr>
            <ns3:cad>0</ns3:cad>
          </ns3:TrackPointExtension>
        </extensions>
      </trkpt>
      <trkpt lat="43.45760920085012912750244140625" lon="1.43268224783241748809814453125">
        <ele>230.600006103515625</ele>
        <time>2026-08-05T12:21:25.000Z</time>
        <extensions>
          <ns3:TrackPointExtension>
            <ns3:hr>129</ns3:hr>
            <ns3:cad>0</ns3:cad>
          </ns3:TrackPointExtension>
        </extensions>
      </trkpt>
      <trkpt lat="43.45761775039136409759521484375" lon="1.43269280903041362762451171875">
        <ele>230.600006103515625</ele>
        <time>2026-08-05T12:21:26.000Z</time>
        <extensions>
          <ns3:TrackPointExtension>
            <ns3:hr>129</ns3:hr>
            <ns3:cad>0</ns3:cad>
          </ns3:TrackPointExtension>
        </extensions>
      </trkpt>
      <trkpt lat="43.45762093551456928253173828125" lon="1.4326994307339191436767578125">
        <ele>230.600006103515625</ele>
        <time>2026-08-05T12:21:27.000Z</time>
        <extensions>
          <ns3:TrackPointExtension>
            <ns3:hr>129</ns3:hr>
            <ns3:cad>0</ns3:cad>
          </ns3:TrackPointExtension>
        </extensions>
      </trkpt>
      <trkpt lat="43.4576206840574741363525390625" lon="1.4327032864093780517578125">
        <ele>230.8000030517578125</ele>
        <time>2026-08-05T12:21:28.000Z</time>
        <extensions>
          <ns3:TrackPointExtension>
            <ns3:hr>128</ns3:hr>
            <ns3:cad>0</ns3:cad>
          </ns3:TrackPointExtension>
        </extensions>
      </trkpt>
    </trkseg>
  </trk>
</gpx>
